//0
//<Encoding>UTF-8</Encoding>
//File updated on 11/18/2025 11:56
//WMO ID: 4902624
//MBARI ID: ODV4902624
//Data source: 4902624_Sprof.nc
//DAC: meds
//Float type: PROVOR_III
//
//PLEASE READ:
//Data for this file has been extracted from the Synthetic profiles (*SProf.nc)
//Only RAW data parameters were used
//Missing Float profile(s) for station(s): 19 41 
//
//Missing data value = -1e10
//Argo to ODV QF conversion: Argo 0|99 => ODV 1, Argo 1|2|8 => ODV 0, Argo 3|5 => ODV 4, Argo 4 => ODV 8
//Data quality flags: 0=Good, 4=Questionable, 8=Bad, 1=Missing or not inspected 
Cruise	Station	Type	mon/day/yr	hh:mm	Lon [°E]	Lat [°N]	QF	Pressure[dbar]	QF	Temperature[°C]	QF	Salinity[pss]	QF	Sigma_theta[kg/m^3]	QF	Depth[m]	QF	Oxygen[µmol/kg]	QF	OxygenSat[%]	QF	Nitrate[µmol/kg]	QF	Chl_a[mg/m^3]	QF	b_bp700[1/m]	QF	CDOM[ppb]	QF	pHinsitu[Total]	QF	CP660[1/m]	QF
4902624	1	C	07/01/2024	11:36	-128.929	46.296	0	0.10	0	14.8770	0	32.3180	0	23.932	0	0.099	0	-1e10	1	-1e10	1	-1E+10	1	1.0731	4	0.001103	4	-1E+10	1	-1E+10	1	-1E+10	1
4902624	1	C	07/01/2024	11:36	-128.929	46.296	0	0.30	0	14.8770	0	32.3180	0	23.932	0	0.298	0	-1e10	1	-1e10	1	-1E+10	1	1.0731	4	0.001056	4	-1E+10	1	-1E+10	1	-1E+10	1
4902624	1	C	07/01/2024	11:36	-128.929	46.296	0	0.50	0	14.8770	0	32.3180	0	23.932	0	0.496	0	249.1	4	98.4	4	-1E+10	1	1.0366	4	0.001126	4	-1E+10	1	-1E+10	1	-1E+10	1
4902624	1	C	07/01/2024	11:36	-128.929	46.296	0	0.90	0	14.8778	0	32.3192	0	23.933	0	0.893	0	249.3	4	98.5	4	-1E+10	1	1.0731	4	0.001197	4	-1E+10	1	-1E+10	1	-1E+10	1
4902624	1	C	07/01/2024	11:36	-128.929	46.296	0	1.20	0	14.8784	0	32.3201	0	23.934	0	1.190	0	-1e10	1	-1e10	1	-1E+10	1	1.0731	4	0.001068	4	-1E+10	1	-1E+10	1	-1E+10	1
4902624	1	C	07/01/2024	11:36	-128.929	46.296	0	1.30	0	14.8786	0	32.3204	0	23.934	0	1.289	0	-1e10	1	-1e10	1	-1E+10	1	1.0804	4	0.001126	4	-1E+10	1	-1E+10	1	-1E+10	1
4902624	1	C	07/01/2024	11:36	-128.929	46.296	0	1.40	0	14.8788	0	32.3207	0	23.934	0	1.388	0	-1e10	1	-1e10	1	-1E+10	1	1.0877	4	0.001056	4	-1E+10	1	-1E+10	1	-1E+10	1
4902624	1	C	07/01/2024	11:36	-128.929	46.296	0	1.50	0	14.8790	0	32.3210	0	23.934	0	1.488	0	-1e10	1	-1e10	1	-1E+10	1	-1e10	1	-1e10	1	-1E+10	1	-1E+10	1	-1E+10	1
4902624	1	C	07/01/2024	11:36	-128.929	46.296	0	1.60	0	14.8790	0	32.3210	0	23.934	0	1.587	0	-1e10	1	-1e10	1	-1E+10	1	1.0804	4	0.001103	4	-1E+10	1	-1E+10	1	-1E+10	1
4902624	1	C	07/01/2024	11:36	-128.929	46.296	0	1.70	0	14.8790	0	32.3210	0	23.934	0	1.686	0	-1e10	1	-1e10	1	-1E+10	1	1.0804	4	0.001314	4	-1E+10	1	-1E+10	1	-1E+10	1
4902624	1	C	07/01/2024	11:36	-128.929	46.296	0	2.00	0	14.8790	0	32.3210	0	23.934	0	1.984	0	-1e10	1	-1e10	1	-1E+10	1	1.0731	4	0.001185	4	-1E+10	1	-1E+10	1	-1E+10	1
4902624	1	C	07/01/2024	11:36	-128.929	46.296	0	2.10	0	14.8790	0	32.3210	0	23.934	0	2.083	0	249.4	4	98.6	4	-1E+10	1	1.0804	4	0.001232	4	-1E+10	1	-1E+10	1	-1E+10	1
4902624	1	C	07/01/2024	11:36	-128.929	46.296	0	2.30	0	14.8790	0	32.3210	0	23.934	0	2.281	0	249.4	4	98.6	4	-1E+10	1	1.0731	4	0.001150	4	-1E+10	1	-1E+10	1	-1E+10	1
4902624	1	C	07/01/2024	11:36	-128.929	46.296	0	2.40	0	14.8790	0	32.3210	0	23.934	0	2.380	0	-1e10	1	-1e10	1	-1E+10	1	-1e10	1	-1e10	1	-1E+10	1	-1E+10	1	-1E+10	1
4902624	1	C	07/01/2024	11:36	-128.929	46.296	0	2.50	0	14.8792	0	32.3210	0	23.934	0	2.479	0	-1e10	1	-1e10	1	-1E+10	1	1.0877	4	0.001068	4	-1E+10	1	-1E+10	1	-1E+10	1
4902624	1	C	07/01/2024	11:36	-128.929	46.296	0	2.70	0	14.8796	0	32.3210	0	23.934	0	2.678	0	-1e10	1	-1e10	1	-1E+10	1	1.0950	4	0.001232	4	-1E+10	1	-1E+10	1	-1E+10	1
4902624	1	C	07/01/2024	11:36	-128.929	46.296	0	2.80	0	14.8798	0	32.3210	0	23.934	0	2.777	0	249.5	4	98.6	4	-1E+10	1	1.0877	4	0.001244	4	-1E+10	1	-1E+10	1	-1E+10	1
4902624	1	C	07/01/2024	11:36	-128.929	46.296	0	3.10	0	14.8804	0	32.3210	0	23.934	0	3.074	0	-1e10	1	-1e10	1	-1E+10	1	1.0877	4	0.001220	4	-1E+10	1	-1E+10	1	-1E+10	1
4902624	1	C	07/01/2024	11:36	-128.929	46.296	0	3.20	0	14.8806	0	32.3210	0	23.934	0	3.174	0	-1e10	1	-1e10	1	-1E+10	1	1.1096	4	0.001068	4	-1E+10	1	-1E+10	1	-1E+10	1
4902624	1	C	07/01/2024	11:36	-128.929	46.296	0	3.30	0	14.8808	0	32.3210	0	23.934	0	3.273	0	-1e10	1	-1e10	1	-1E+10	1	1.0804	4	0.001115	4	-1E+10	1	-1E+10	1	-1E+10	1
4902624	1	C	07/01/2024	11:36	-128.929	46.296	0	3.40	0	14.8810	0	32.3210	0	23.934	0	3.372	0	-1e10	1	-1e10	1	-1E+10	1	-1e10	1	-1e10	1	-1E+10	1	-1E+10	1	-1E+10	1
4902624	1	C	07/01/2024	11:36	-128.929	46.296	0	3.70	0	14.8816	0	32.3207	0	23.933	0	3.669	0	249.7	4	98.7	4	-1E+10	1	1.0512	4	0.001126	4	-1E+10	1	-1E+10	1	-1E+10	1
4902624	1	C	07/01/2024	11:36	-128.929	46.296	0	3.90	0	14.8820	0	32.3205	0	23.933	0	3.868	0	-1e10	1	-1e10	1	-1E+10	1	1.0658	4	0.001103	4	-1E+10	1	-1E+10	1	-1E+10	1
4902624	1	C	07/01/2024	11:36	-128.929	46.296	0	4.00	0	14.8822	0	32.3204	0	23.933	0	3.967	0	-1e10	1	-1e10	1	-1E+10	1	1.1023	4	0.001138	4	-1E+10	1	-1E+10	1	-1E+10	1
4902624	1	C	07/01/2024	11:36	-128.929	46.296	0	4.20	0	14.8826	0	32.3202	0	23.933	0	4.165	0	-1e10	1	-1e10	1	-1E+10	1	1.0658	4	0.001150	4	-1E+10	1	-1E+10	1	-1E+10	1
4902624	1	C	07/01/2024	11:36	-128.929	46.296	0	4.40	0	14.8830	0	32.3200	0	23.933	0	4.364	0	-1e10	1	-1e10	1	-1E+10	1	1.0731	4	0.001115	4	-1E+10	1	-1E+10	1	-1E+10	1
4902624	1	C	07/01/2024	11:36	-128.929	46.296	0	4.50	0	14.8828	0	32.3199	0	23.933	0	4.463	0	250.1	4	98.8	4	-1E+10	1	1.0731	4	0.001138	4	-1E+10	1	-1E+10	1	-1E+10	1
4902624	1	C	07/01/2024	11:36	-128.929	46.296	0	4.70	0	14.8825	0	32.3197	0	23.933	0	4.661	0	-1e10	1	-1e10	1	-1E+10	1	1.0804	4	0.001080	4	-1E+10	1	-1E+10	1	-1E+10	1
4902624	1	C	07/01/2024	11:36	-128.929	46.296	0	4.90	0	14.8821	0	32.3195	0	23.932	0	4.860	0	-1e10	1	-1e10	1	-1E+10	1	1.1169	4	0.001103	4	-1E+10	1	-1E+10	1	-1E+10	1
4902624	1	C	07/01/2024	11:36	-128.929	46.296	0	5.10	0	14.8817	0	32.3194	0	23.932	0	5.058	0	-1e10	1	-1e10	1	-1E+10	1	1.1169	4	0.001185	4	-1E+10	1	-1E+10	1	-1E+10	1
4902624	1	C	07/01/2024	11:36	-128.929	46.296	0	5.30	0	14.8814	0	32.3192	0	23.932	0	5.256	0	250.4	4	99.0	4	-1E+10	1	1.0585	4	0.001150	4	-1E+10	1	-1E+10	1	-1E+10	1
4902624	1	C	07/01/2024	11:36	-128.929	46.296	0	5.50	0	14.8810	0	32.3190	0	23.932	0	5.455	0	-1e10	1	-1e10	1	-1E+10	1	1.0804	4	0.002018	4	-1E+10	1	-1E+10	1	-1E+10	1
4902624	1	C	07/01/2024	11:36	-128.929	46.296	0	5.60	0	14.8810	0	32.3189	0	23.932	0	5.554	0	-1e10	1	-1e10	1	-1E+10	1	1.0804	4	0.001103	4	-1E+10	1	-1E+10	1	-1E+10	1
4902624	1	C	07/01/2024	11:36	-128.929	46.296	0	5.80	0	14.8810	0	32.3187	0	23.932	0	5.752	0	-1e10	1	-1e10	1	-1E+10	1	1.0731	4	0.001115	4	-1E+10	1	-1E+10	1	-1E+10	1
4902624	1	C	07/01/2024	11:36	-128.929	46.296	0	5.90	0	14.8810	0	32.3186	0	23.932	0	5.851	0	-1e10	1	-1e10	1	-1E+10	1	1.0950	4	0.001115	4	-1E+10	1	-1E+10	1	-1E+10	1
4902624	1	C	07/01/2024	11:36	-128.929	46.296	0	6.10	0	14.8810	0	32.3184	0	23.932	0	6.050	0	250.7	4	99.1	4	-1E+10	1	1.0731	4	0.001103	4	-1E+10	1	-1E+10	1	-1E+10	1
4902624	1	C	07/01/2024	11:36	-128.929	46.296	0	6.40	0	14.8810	0	32.3181	0	23.932	0	6.347	0	-1e10	1	-1e10	1	-1E+10	1	1.0804	4	0.001115	4	-1E+10	1	-1E+10	1	-1E+10	1
4902624	1	C	07/01/2024	11:36	-128.929	46.296	0	6.50	0	14.8810	0	32.3180	0	23.932	0	6.446	0	-1e10	1	-1e10	1	-1E+10	1	-1e10	1	-1e10	1	-1E+10	1	-1E+10	1	-1E+10	1
4902624	1	C	07/01/2024	11:36	-128.929	46.296	0	6.60	0	14.8809	0	32.3178	0	23.931	0	6.546	0	-1e10	1	-1e10	1	-1E+10	1	1.0658	4	0.001138	4	-1E+10	1	-1E+10	1	-1E+10	1
4902624	1	C	07/01/2024	11:36	-128.929	46.296	0	6.70	0	14.8808	0	32.3176	0	23.931	0	6.645	0	-1e10	1	-1e10	1	-1E+10	1	1.1096	4	0.001126	4	-1E+10	1	-1E+10	1	-1E+10	1
4902624	1	C	07/01/2024	11:36	-128.929	46.296	0	6.90	0	14.8806	0	32.3171	0	23.931	0	6.843	0	251.4	4	99.4	4	-1E+10	1	1.1096	4	0.001091	4	-1E+10	1	-1E+10	1	-1E+10	1
4902624	1	C	07/01/2024	11:36	-128.929	46.296	0	7.00	0	14.8804	0	32.3169	0	23.931	0	6.942	0	-1e10	1	-1e10	1	-1E+10	1	1.1315	4	0.001302	4	-1E+10	1	-1E+10	1	-1E+10	1
4902624	1	C	07/01/2024	11:36	-128.929	46.296	0	7.20	0	14.8802	0	32.3164	0	23.931	0	7.141	0	-1e10	1	-1e10	1	-1E+10	1	1.0731	4	0.001103	4	-1E+10	1	-1E+10	1	-1E+10	1
4902624	1	C	07/01/2024	11:36	-128.929	46.296	0	7.40	0	14.8800	0	32.3160	0	23.930	0	7.339	0	-1e10	1	-1e10	1	-1E+10	1	1.0658	4	0.001091	4	-1E+10	1	-1E+10	1	-1E+10	1
4902624	1	C	07/01/2024	11:36	-128.929	46.296	0	7.50	0	14.8719	0	32.3165	0	23.932	0	7.438	0	-1e10	1	-1e10	1	-1E+10	1	1.1023	4	0.001115	4	-1E+10	1	-1E+10	1	-1E+10	1
4902624	1	C	07/01/2024	11:36	-128.929	46.296	0	7.80	0	14.8476	0	32.3178	0	23.939	0	7.736	0	252.4	4	99.7	4	-1E+10	1	1.1169	4	0.001079	4	-1E+10	1	-1E+10	1	-1E+10	1
4902624	1	C	07/01/2024	11:36	-128.929	46.296	0	8.00	0	14.8315	0	32.3187	0	23.943	0	7.934	0	-1e10	1	-1e10	1	-1E+10	1	1.1169	4	0.001044	4	-1E+10	1	-1E+10	1	-1E+10	1
4902624	1	C	07/01/2024	11:36	-128.929	46.296	0	8.20	0	14.8153	0	32.3196	0	23.947	0	8.132	0	-1e10	1	-1e10	1	-1E+10	1	1.1096	4	0.001056	4	-1E+10	1	-1E+10	1	-1E+10	1
4902624	1	C	07/01/2024	11:36	-128.929	46.296	0	8.40	0	14.7991	0	32.3205	0	23.951	0	8.331	0	-1e10	1	-1e10	1	-1E+10	1	1.1023	4	0.001103	4	-1E+10	1	-1E+10	1	-1E+10	1
4902624	1	C	07/01/2024	11:36	-128.929	46.296	0	8.50	0	14.7910	0	32.3210	0	23.953	0	8.430	0	-1e10	1	-1e10	1	-1E+10	1	-1e10	1	-1e10	1	-1E+10	1	-1E+10	1	-1E+10	1
4902624	1	C	07/01/2024	11:36	-128.929	46.296	0	8.60	0	14.7560	0	32.3222	0	23.962	0	8.529	0	253.9	4	100.1	4	-1E+10	1	1.1242	4	0.001138	4	-1E+10	1	-1E+10	1	-1E+10	1
4902624	1	C	07/01/2024	11:36	-128.929	46.296	0	8.70	0	14.7210	0	32.3234	0	23.970	0	8.628	0	-1e10	1	-1e10	1	-1E+10	1	1.0877	4	0.001103	4	-1E+10	1	-1E+10	1	-1E+10	1
4902624	1	C	07/01/2024	11:36	-128.929	46.296	0	8.90	0	14.6510	0	32.3258	0	23.987	0	8.827	0	-1e10	1	-1e10	1	-1E+10	1	1.0658	4	0.001103	4	-1E+10	1	-1E+10	1	-1E+10	1
4902624	1	C	07/01/2024	11:36	-128.929	46.296	0	9.30	0	14.5110	0	32.3306	0	24.020	0	9.223	0	-1e10	1	-1e10	1	-1E+10	1	1.1023	4	0.001173	4	-1E+10	1	-1E+10	1	-1E+10	1
4902624	1	C	07/01/2024	11:36	-128.929	46.296	0	9.50	0	14.4410	0	32.3330	0	24.036	0	9.422	0	254.3	4	99.6	4	-1E+10	1	1.1096	4	0.001150	4	-1E+10	1	-1E+10	1	-1E+10	1
4902624	1	C	07/01/2024	11:36	-128.929	46.296	0	9.60	0	14.4376	0	32.3329	0	24.037	0	9.521	0	-1e10	1	-1e10	1	-1E+10	1	1.1388	4	0.001126	4	-1E+10	1	-1E+10	1	-1E+10	1
4902624	1	C	07/01/2024	11:36	-128.929	46.296	0	9.80	0	14.4308	0	32.3328	0	24.038	0	9.719	0	-1e10	1	-1e10	1	-1E+10	1	1.1169	4	0.001126	4	-1E+10	1	-1E+10	1	-1E+10	1
4902624	1	C	07/01/2024	11:36	-128.929	46.296	0	10.30	0	14.4138	0	32.3325	0	24.042	0	10.215	0	255.0	4	99.9	4	-1E+10	1	1.1488	4	0.001109	4	-1E+10	1	-1E+10	1	-1E+10	1
4902624	1	C	07/01/2024	11:36	-128.929	46.296	0	11.00	0	14.3900	0	32.3320	0	24.046	0	10.909	0	-1e10	1	-1e10	1	-1E+10	1	-1e10	1	-1e10	1	-1E+10	1	-1E+10	1	-1E+10	1
4902624	1	C	07/01/2024	11:36	-128.929	46.296	0	11.20	0	14.3831	0	32.3325	0	24.048	0	11.107	0	255.5	4	100.0	4	-1E+10	1	1.1761	4	0.001134	4	-1E+10	1	-1E+10	1	-1E+10	1
4902624	1	C	07/01/2024	11:36	-128.929	46.296	0	12.10	0	14.3523	0	32.3346	0	24.056	0	12.000	0	255.9	4	100.1	4	-1E+10	1	1.1935	4	0.001216	4	-1E+10	1	-1E+10	1	-1E+10	1
4902624	1	C	07/01/2024	11:36	-128.929	46.296	0	13.00	0	14.3214	0	32.3368	0	24.064	0	12.893	0	256.2	4	100.2	4	-1E+10	1	1.2921	4	0.001384	4	-1E+10	1	-1E+10	1	-1E+10	1
4902624	1	C	07/01/2024	11:36	-128.929	46.296	0	13.10	0	14.3180	0	32.3370	0	24.065	0	12.992	0	-1e10	1	-1e10	1	-1E+10	1	-1e10	1	-1e10	1	-1E+10	1	-1E+10	1	-1E+10	1
4902624	1	C	07/01/2024	11:36	-128.929	46.296	0	13.80	0	14.2609	0	32.3396	0	24.079	0	13.686	0	256.7	4	100.2	4	-1E+10	1	1.2979	4	0.001300	4	-1E+10	1	-1E+10	1	-1E+10	1
4902624	1	C	07/01/2024	11:36	-128.929	46.296	0	14.70	0	14.1875	0	32.3429	0	24.097	0	14.578	0	257.1	4	100.2	4	-1E+10	1	1.2994	4	0.001252	4	-1E+10	1	-1E+10	1	-1E+10	1
4902624	1	C	07/01/2024	11:36	-128.929	46.296	0	15.00	0	14.1630	0	32.3440	0	24.103	0	14.876	0	-1e10	1	-1e10	1	-1E+10	1	-1e10	1	-1e10	1	-1E+10	1	-1E+10	1	-1E+10	1
4902624	1	C	07/01/2024	11:36	-128.929	46.296	0	15.50	0	14.1375	0	32.3440	0	24.108	0	15.372	0	257.4	4	100.2	4	-1E+10	1	1.3082	4	0.001279	4	-1E+10	1	-1E+10	1	-1E+10	1
4902624	1	C	07/01/2024	11:36	-128.929	46.296	0	16.40	0	14.0916	0	32.3440	0	24.118	0	16.264	0	257.7	4	100.3	4	-1E+10	1	1.3067	4	0.001285	4	-1E+10	1	-1E+10	1	-1E+10	1
4902624	1	C	07/01/2024	11:36	-128.929	46.296	0	17.00	0	14.0610	0	32.3440	0	24.124	0	16.859	0	-1e10	1	-1e10	1	-1E+10	1	-1e10	1	-1e10	1	-1E+10	1	-1E+10	1	-1E+10	1
4902624	1	C	07/01/2024	11:36	-128.929	46.296	0	17.20	0	14.0513	0	32.3442	0	24.126	0	17.058	0	258.3	4	100.4	4	-1E+10	1	1.2857	4	0.001272	4	-1E+10	1	-1E+10	1	-1E+10	1
4902624	1	C	07/01/2024	11:36	-128.929	46.296	0	18.10	0	14.0076	0	32.3450	0	24.136	0	17.950	0	258.7	4	100.5	4	-1E+10	1	1.2656	4	0.001266	4	-1E+10	1	-1E+10	1	-1E+10	1
4902624	1	C	07/01/2024	11:36	-128.929	46.296	0	18.90	0	13.9687	0	32.3458	0	24.144	0	18.743	0	259.2	4	100.6	4	-1E+10	1	1.2695	4	0.001245	4	-1E+10	1	-1E+10	1	-1E+10	1
4902624	1	C	07/01/2024	11:36	-128.929	46.296	0	19.10	0	13.9590	0	32.3460	0	24.147	0	18.942	0	-1e10	1	-1e10	1	-1E+10	1	-1e10	1	-1e10	1	-1E+10	1	-1E+10	1	-1E+10	1
4902624	1	C	07/01/2024	11:36	-128.929	46.296	0	19.80	0	13.9306	0	32.3453	0	24.152	0	19.636	0	259.9	4	100.8	4	-1E+10	1	1.2629	4	0.001255	4	-1E+10	1	-1E+10	1	-1E+10	1
4902624	1	C	07/01/2024	11:36	-128.929	46.296	0	20.70	0	13.8942	0	32.3444	0	24.159	0	20.528	0	260.6	4	101.0	4	-1E+10	1	1.2191	4	0.001232	4	-1E+10	1	-1E+10	1	-1E+10	1
4902624	1	C	07/01/2024	11:36	-128.929	46.296	0	21.10	0	13.8780	0	32.3440	0	24.162	0	20.925	0	-1e10	1	-1e10	1	-1E+10	1	-1e10	1	-1e10	1	-1E+10	1	-1E+10	1	-1E+10	1
4902624	1	C	07/01/2024	11:36	-128.929	46.296	0	21.60	0	13.7725	0	32.3435	0	24.183	0	21.421	0	261.6	4	101.2	4	-1E+10	1	1.1474	4	0.001222	4	-1E+10	1	-1E+10	1	-1E+10	1
4902624	1	C	07/01/2024	11:36	-128.929	46.296	0	22.50	0	13.5825	0	32.3425	0	24.220	0	22.313	0	263.0	4	101.3	4	-1E+10	1	1.1965	4	0.001213	4	-1E+10	1	-1E+10	1	-1E+10	1
4902624	1	C	07/01/2024	11:36	-128.929	46.296	0	23.00	0	13.4770	0	32.3420	0	24.241	0	22.809	0	-1e10	1	-1e10	1	-1E+10	1	-1e10	1	-1e10	1	-1E+10	1	-1E+10	1	-1E+10	1
4902624	1	C	07/01/2024	11:36	-128.929	46.296	0	23.50	0	13.4115	0	32.3395	0	24.252	0	23.305	0	263.6	4	101.1	4	-1E+10	1	1.2483	4	0.001185	4	-1E+10	1	-1E+10	1	-1E+10	1
4902624	1	C	07/01/2024	11:36	-128.929	46.296	0	24.40	0	13.2936	0	32.3350	0	24.272	0	24.198	0	264.0	4	101.1	4	-1E+10	1	1.2885	4	0.001184	4	-1E+10	1	-1E+10	1	-1E+10	1
4902624	1	C	07/01/2024	11:36	-128.929	46.296	0	25.00	0	13.2150	0	32.3320	0	24.286	0	24.793	0	-1e10	1	-1e10	1	-1E+10	1	-1e10	1	-1e10	1	-1E+10	1	-1E+10	1	-1E+10	1
4902624	1	C	07/01/2024	11:36	-128.929	46.296	0	25.30	0	13.1901	0	32.3321	0	24.291	0	25.090	0	264.4	4	101.0	4	-1E+10	1	1.3372	4	0.001199	4	-1E+10	1	-1E+10	1	-1E+10	1
4902624	1	C	07/01/2024	11:36	-128.929	46.296	0	26.30	0	13.1071	0	32.3326	0	24.308	0	26.082	0	264.7	4	100.9	4	-1E+10	1	1.3748	4	0.001192	4	-1E+10	1	-1E+10	1	-1E+10	1
4902624	1	C	07/01/2024	11:36	-128.929	46.296	0	27.00	0	13.0490	0	32.3330	0	24.319	0	26.776	0	-1e10	1	-1e10	1	-1E+10	1	-1e10	1	-1e10	1	-1E+10	1	-1E+10	1	-1E+10	1
4902624	1	C	07/01/2024	11:36	-128.929	46.296	0	27.20	0	13.0262	0	32.3332	0	24.324	0	26.974	0	265.3	4	101.0	4	-1E+10	1	1.3578	4	0.001133	4	-1E+10	1	-1E+10	1	-1E+10	1
4902624	1	C	07/01/2024	11:36	-128.929	46.296	0	28.20	0	12.9122	0	32.3342	0	24.347	0	27.966	0	265.6	4	100.9	4	-1E+10	1	1.3578	4	0.001115	4	-1E+10	1	-1E+10	1	-1E+10	1
4902624	1	C	07/01/2024	11:36	-128.929	46.296	0	29.00	0	12.8210	0	32.3350	0	24.365	0	28.759	0	-1e10	1	-1e10	1	-1E+10	1	-1e10	1	-1e10	1	-1E+10	1	-1E+10	1	-1E+10	1
4902624	1	C	07/01/2024	11:36	-128.929	46.296	0	29.30	0	12.7670	0	32.3362	0	24.377	0	29.057	0	265.9	4	100.7	4	-1E+10	1	1.2960	4	0.001124	4	-1E+10	1	-1E+10	1	-1E+10	1
4902624	1	C	07/01/2024	11:36	-128.929	46.296	0	30.40	0	12.5690	0	32.3406	0	24.418	0	30.147	0	266.4	4	100.5	4	-1E+10	1	1.4401	4	0.001184	4	-1E+10	1	-1E+10	1	-1E+10	1
4902624	1	C	07/01/2024	11:36	-128.929	46.296	0	31.00	0	12.4610	0	32.3430	0	24.441	0	30.742	0	-1e10	1	-1e10	1	-1E+10	1	-1e10	1	-1e10	1	-1E+10	1	-1E+10	1	-1E+10	1
4902624	1	C	07/01/2024	11:36	-128.929	46.296	0	31.50	0	12.4129	0	32.3409	0	24.448	0	31.238	0	266.6	4	100.2	4	-1E+10	1	1.5642	4	0.001187	4	-1E+10	1	-1E+10	1	-1E+10	1
4902624	1	C	07/01/2024	11:36	-128.929	46.296	0	32.60	0	12.3071	0	32.3361	0	24.465	0	32.329	0	266.6	4	100.0	4	-1E+10	1	1.6123	4	0.001221	4	-1E+10	1	-1E+10	1	-1E+10	1
4902624	1	C	07/01/2024	11:36	-128.929	46.296	0	33.10	0	12.2590	0	32.3340	0	24.472	0	32.825	0	-1e10	1	-1e10	1	-1E+10	1	-1e10	1	-1e10	1	-1E+10	1	-1E+10	1	-1E+10	1
4902624	1	C	07/01/2024	11:36	-128.929	46.296	0	33.70	0	12.2419	0	32.3331	0	24.475	0	33.420	0	266.3	4	99.8	4	-1E+10	1	1.6637	4	0.001217	4	-1E+10	1	-1E+10	1	-1E+10	1
4902624	1	C	07/01/2024	11:36	-128.929	46.296	0	34.80	0	12.2105	0	32.3315	0	24.479	0	34.510	0	266.1	4	99.6	4	-1E+10	1	1.7071	4	0.001245	4	-1E+10	1	-1E+10	1	-1E+10	1
4902624	1	C	07/01/2024	11:36	-128.929	46.296	0	35.10	0	12.2020	0	32.3310	0	24.480	0	34.808	0	-1e10	1	-1e10	1	-1E+10	1	-1e10	1	-1e10	1	-1E+10	1	-1E+10	1	-1E+10	1
4902624	1	C	07/01/2024	11:36	-128.929	46.296	0	35.90	0	12.1768	0	32.3298	0	24.484	0	35.601	0	265.9	4	99.5	4	-1E+10	1	1.7228	4	0.001463	4	-1E+10	1	-1E+10	1	-1E+10	1
4902624	1	C	07/01/2024	11:36	-128.929	46.296	0	37.00	0	12.1421	0	32.3281	0	24.490	0	36.692	0	265.7	4	99.3	4	-1E+10	1	1.7367	4	0.001804	4	-1E+10	1	-1E+10	1	-1E+10	1
4902624	1	C	07/01/2024	11:36	-128.929	46.296	0	37.10	0	12.1390	0	32.3280	0	24.490	0	36.791	0	-1e10	1	-1e10	1	-1E+10	1	-1e10	1	-1e10	1	-1E+10	1	-1E+10	1	-1E+10	1
4902624	1	C	07/01/2024	11:36	-128.929	46.296	0	38.10	0	12.0611	0	32.3269	0	24.504	0	37.783	0	265.5	4	99.1	4	-1E+10	1	1.8649	4	0.001259	4	-1E+10	1	-1E+10	1	-1E+10	1
4902624	1	C	07/01/2024	11:36	-128.929	46.296	0	39.00	0	11.9910	0	32.3260	0	24.516	0	38.675	0	-1e10	1	-1e10	1	-1E+10	1	-1e10	1	-1e10	1	-1E+10	1	-1E+10	1	-1E+10	1
4902624	1	C	07/01/2024	11:36	-128.929	46.296	0	39.20	0	11.9757	0	32.3259	0	24.519	0	38.873	0	265.6	4	98.9	4	-1E+10	1	1.8834	4	0.001279	4	-1E+10	1	-1E+10	1	-1E+10	1
4902624	1	C	07/01/2024	11:36	-128.929	46.296	0	40.30	0	11.8916	0	32.3254	0	24.534	0	39.964	0	265.3	4	98.7	4	-1E+10	1	1.9205	4	0.001229	4	-1E+10	1	-1E+10	1	-1E+10	1
4902624	1	C	07/01/2024	11:36	-128.929	46.296	0	41.00	0	11.8380	0	32.3250	0	24.544	0	40.658	0	-1e10	1	-1e10	1	-1E+10	1	-1e10	1	-1e10	1	-1E+10	1	-1E+10	1	-1E+10	1
4902624	1	C	07/01/2024	11:36	-128.929	46.296	0	41.40	0	11.8005	0	32.3235	0	24.549	0	41.055	0	265.7	4	98.6	4	-1E+10	1	2.0477	4	0.001255	4	-1E+10	1	-1E+10	1	-1E+10	1
4902624	1	C	07/01/2024	11:36	-128.929	46.296	0	42.50	0	11.6975	0	32.3195	0	24.565	0	42.146	0	266.0	4	98.5	4	-1E+10	1	2.1413	4	0.001242	4	-1E+10	1	-1E+10	1	-1E+10	1
4902624	1	C	07/01/2024	11:36	-128.929	46.296	0	42.90	0	11.6600	0	32.3180	0	24.571	0	42.542	0	-1e10	1	-1e10	1	-1E+10	1	-1e10	1	-1e10	1	-1E+10	1	-1E+10	1	-1E+10	1
4902624	1	C	07/01/2024	11:36	-128.929	46.296	0	43.60	0	11.6002	0	32.3198	0	24.583	0	43.236	0	266.1	4	98.4	4	-1E+10	1	2.2349	4	0.001483	4	-1E+10	1	-1E+10	1	-1E+10	1
4902624	1	C	07/01/2024	11:36	-128.929	46.296	0	44.70	0	11.5061	0	32.3225	0	24.602	0	44.327	0	266.7	4	98.4	4	-1E+10	1	2.3865	4	0.001505	4	-1E+10	1	-1E+10	1	-1E+10	1
4902624	1	C	07/01/2024	11:36	-128.929	46.296	0	44.90	0	11.4890	0	32.3230	0	24.606	0	44.525	0	-1e10	1	-1e10	1	-1E+10	1	-1e10	1	-1e10	1	-1E+10	1	-1E+10	1	-1E+10	1
4902624	1	C	07/01/2024	11:36	-128.929	46.296	0	45.80	0	11.3369	0	32.3247	0	24.635	0	45.418	0	267.7	4	98.4	4	-1E+10	1	2.5185	4	0.001218	4	-1E+10	1	-1E+10	1	-1E+10	1
4902624	1	C	07/01/2024	11:36	-128.929	46.296	0	47.00	0	11.1340	0	32.3270	0	24.672	0	46.608	0	266.5	4	97.5	4	-1E+10	1	2.4915	4	0.001174	4	-1E+10	1	-1E+10	1	-1E+10	1
4902624	1	C	07/01/2024	11:36	-128.929	46.296	0	48.10	0	10.9706	0	32.3292	0	24.703	0	47.698	0	268.9	4	98.1	4	-1E+10	1	2.3433	4	0.001114	4	-1E+10	1	-1E+10	1	-1E+10	1
4902624	1	C	07/01/2024	11:36	-128.929	46.296	0	49.00	0	10.8370	0	32.3310	0	24.728	0	48.591	0	-1e10	1	-1e10	1	-1E+10	1	-1e10	1	-1e10	1	-1E+10	1	-1E+10	1	-1E+10	1
4902624	1	C	07/01/2024	11:36	-128.929	46.296	0	49.30	0	10.7942	0	32.3310	0	24.735	0	48.888	0	269.3	4	97.9	4	-1E+10	1	2.2119	4	0.000997	4	-1E+10	1	-1E+10	1	-1E+10	1
4902624	1	C	07/01/2024	11:36	-128.929	46.296	0	50.50	0	10.6231	0	32.3310	0	24.765	0	50.078	0	270.0	4	97.8	4	-1E+10	1	2.2056	4	0.000977	4	-1E+10	1	-1E+10	1	-1E+10	1
4902624	1	C	07/01/2024	11:36	-128.929	46.296	0	50.90	0	10.5660	0	32.3310	0	24.775	0	50.475	0	-1e10	1	-1e10	1	-1E+10	1	-1e10	1	-1e10	1	-1E+10	1	-1E+10	1	-1E+10	1
4902624	1	C	07/01/2024	11:36	-128.929	46.296	0	51.70	0	10.4898	0	32.3321	0	24.789	0	51.268	0	270.2	4	97.6	4	-1E+10	1	2.1055	4	0.000923	4	-1E+10	1	-1E+10	1	-1E+10	1
4902624	1	C	07/01/2024	11:36	-128.929	46.296	0	52.90	0	10.3755	0	32.3339	0	24.809	0	52.458	0	270.7	4	97.5	4	-1E+10	1	2.0367	4	0.000888	4	-1E+10	1	-1E+10	1	-1E+10	1
4902624	1	C	07/01/2024	11:36	-128.929	46.296	0	53.00	0	10.3660	0	32.3340	0	24.811	0	52.557	0	-1e10	1	-1e10	1	-1E+10	1	-1e10	1	-1e10	1	-1E+10	1	-1E+10	1	-1E+10	1
4902624	1	C	07/01/2024	11:36	-128.929	46.296	0	54.10	0	10.2175	0	32.3340	0	24.836	0	53.647	0	270.8	4	97.2	4	-1E+10	1	1.9987	4	0.000892	4	-1E+10	1	-1E+10	1	-1E+10	1
4902624	1	C	07/01/2024	11:36	-128.929	46.296	0	55.00	0	10.0960	0	32.3340	0	24.856	0	54.540	0	-1e10	1	-1e10	1	-1E+10	1	-1e10	1	-1e10	1	-1E+10	1	-1E+10	1	-1E+10	1
4902624	1	C	07/01/2024	11:36	-128.929	46.296	0	55.30	0	10.0780	0	32.3339	0	24.859	0	54.837	0	270.7	4	96.9	4	-1E+10	1	1.9600	4	0.000878	4	-1E+10	1	-1E+10	1	-1E+10	1
4902624	1	C	07/01/2024	11:36	-128.929	46.296	0	56.60	0	10.0000	0	32.3332	0	24.872	0	56.126	0	270.4	4	96.6	4	-1E+10	1	1.8992	4	0.000819	4	-1E+10	1	-1E+10	1	-1E+10	1
4902624	1	C	07/01/2024	11:36	-128.929	46.296	0	57.00	0	9.9760	0	32.3330	0	24.875	0	56.523	0	-1e10	1	-1e10	1	-1E+10	1	-1e10	1	-1e10	1	-1E+10	1	-1E+10	1	-1E+10	1
4902624	1	C	07/01/2024	11:36	-128.929	46.296	0	57.90	0	9.9134	0	32.3334	0	24.886	0	57.415	0	270.4	4	96.4	4	-1E+10	1	1.7841	4	0.000808	4	-1E+10	1	-1E+10	1	-1E+10	1
4902624	1	C	07/01/2024	11:36	-128.929	46.296	0	59.10	0	9.8300	0	32.3340	0	24.900	0	58.605	0	267.8	4	95.3	4	-1E+10	1	1.7374	4	0.000805	4	-1E+10	1	-1E+10	1	-1E+10	1
4902624	1	C	07/01/2024	11:36	-128.929	46.296	0	60.20	0	9.8080	0	32.3328	0	24.903	0	59.695	0	269.6	4	95.9	4	-1E+10	1	1.7709	4	0.000906	4	-1E+10	1	-1E+10	1	-1E+10	1
4902624	1	C	07/01/2024	11:36	-128.929	46.296	0	61.00	0	9.7920	0	32.3320	0	24.905	0	60.489	0	266.9	4	94.9	4	-1E+10	1	1.7625	4	0.000842	4	-1E+10	1	-1E+10	1	-1E+10	1
4902624	1	C	07/01/2024	11:36	-128.929	46.296	0	61.80	0	9.7912	0	32.3328	0	24.906	0	61.282	0	268.6	4	95.5	4	-1E+10	1	1.7690	4	0.000805	4	-1E+10	1	-1E+10	1	-1E+10	1
4902624	1	C	07/01/2024	11:36	-128.929	46.296	0	62.60	0	9.7904	0	32.3336	0	24.906	0	62.075	0	268.2	4	95.4	4	-1E+10	1	1.7447	4	0.000815	4	-1E+10	1	-1E+10	1	-1E+10	1
4902624	1	C	07/01/2024	11:36	-128.929	46.296	0	63.00	0	9.7900	0	32.3340	0	24.907	0	62.472	0	-1e10	1	-1e10	1	-1E+10	1	-1e10	1	-1e10	1	-1E+10	1	-1E+10	1	-1E+10	1
4902624	1	C	07/01/2024	11:36	-128.929	46.296	0	63.40	0	9.7830	0	32.3340	0	24.908	0	62.868	0	267.7	4	95.2	4	-1E+10	1	1.7018	4	0.000811	4	-1E+10	1	-1E+10	1	-1E+10	1
4902624	1	C	07/01/2024	11:36	-128.929	46.296	0	64.20	0	9.7690	0	32.3340	0	24.910	0	63.661	0	266.9	4	94.9	4	-1E+10	1	1.6571	4	0.000774	4	-1E+10	1	-1E+10	1	-1E+10	1
4902624	1	C	07/01/2024	11:36	-128.929	46.296	0	64.90	0	9.7568	0	32.3340	0	24.912	0	64.355	0	266.2	4	94.6	4	-1E+10	1	1.6301	4	0.000771	4	-1E+10	1	-1E+10	1	-1E+10	1
4902624	1	C	07/01/2024	11:36	-128.929	46.296	0	65.00	0	9.7550	0	32.3340	0	24.913	0	64.455	0	-1e10	1	-1e10	1	-1E+10	1	-1e10	1	-1e10	1	-1E+10	1	-1E+10	1	-1E+10	1
4902624	1	C	07/01/2024	11:36	-128.929	46.296	0	65.70	0	9.7267	0	32.3344	0	24.918	0	65.149	0	265.4	4	94.3	4	-1E+10	1	1.6288	4	0.000765	4	-1E+10	1	-1E+10	1	-1E+10	1
4902624	1	C	07/01/2024	11:36	-128.929	46.296	0	66.50	0	9.6943	0	32.3347	0	24.923	0	65.942	0	264.7	4	93.9	4	-1E+10	1	1.5857	4	0.000786	4	-1E+10	1	-1E+10	1	-1E+10	1
4902624	1	C	07/01/2024	11:36	-128.929	46.296	0	67.00	0	9.6740	0	32.3350	0	24.927	0	66.437	0	-1e10	1	-1e10	1	-1E+10	1	-1e10	1	-1e10	1	-1E+10	1	-1E+10	1	-1E+10	1
4902624	1	C	07/01/2024	11:36	-128.929	46.296	0	67.30	0	9.6641	0	32.3351	0	24.928	0	66.735	0	263.9	4	93.6	4	-1E+10	1	1.5987	4	0.000786	4	-1E+10	1	-1E+10	1	-1E+10	1
4902624	1	C	07/01/2024	11:36	-128.929	46.296	0	68.10	0	9.6377	0	32.3355	0	24.933	0	67.528	0	263.2	4	93.3	4	-1E+10	1	1.5403	4	0.000805	4	-1E+10	1	-1E+10	1	-1E+10	1
4902624	1	C	07/01/2024	11:36	-128.929	46.296	0	68.90	0	9.6113	0	32.3359	0	24.937	0	68.321	0	262.5	4	93.0	4	-1E+10	1	1.4819	4	0.000739	4	-1E+10	1	-1E+10	1	-1E+10	1
4902624	1	C	07/01/2024	11:36	-128.929	46.296	0	69.00	0	9.6080	0	32.3360	0	24.938	0	68.420	0	-1e10	1	-1e10	1	-1E+10	1	-1e10	1	-1e10	1	-1E+10	1	-1E+10	1	-1E+10	1
4902624	1	C	07/01/2024	11:36	-128.929	46.296	0	69.70	0	9.6010	0	32.3363	0	24.939	0	69.114	0	261.9	4	92.7	4	-1E+10	1	1.4478	4	0.000692	4	-1E+10	1	-1E+10	1	-1E+10	1
4902624	1	C	07/01/2024	11:36	-128.929	46.296	0	70.50	0	9.5930	0	32.3368	0	24.941	0	69.907	0	261.2	4	92.5	4	-1E+10	1	1.4219	4	0.000693	4	-1E+10	1	-1E+10	1	-1E+10	1
4902624	1	C	07/01/2024	11:36	-128.929	46.296	0	71.00	0	9.5880	0	32.3370	0	24.942	0	70.403	0	-1e10	1	-1e10	1	-1E+10	1	-1e10	1	-1e10	1	-1E+10	1	-1E+10	1	-1E+10	1
4902624	1	C	07/01/2024	11:36	-128.929	46.296	0	71.30	0	9.5788	0	32.3381	0	24.944	0	70.701	0	260.4	4	92.2	4	-1E+10	1	1.3635	4	0.000709	4	-1E+10	1	-1E+10	1	-1E+10	1
4902624	1	C	07/01/2024	11:36	-128.929	46.296	0	72.10	0	9.5544	0	32.3411	0	24.951	0	71.494	0	259.6	4	91.8	4	-1E+10	1	1.2848	4	0.000715	4	-1E+10	1	-1E+10	1	-1E+10	1
4902624	1	C	07/01/2024	11:36	-128.929	46.296	0	72.90	0	9.5300	0	32.3440	0	24.957	0	72.287	0	256.6	4	90.7	4	-1E+10	1	1.2264	4	0.000714	4	-1E+10	1	-1E+10	1	-1E+10	1
4902624	1	C	07/01/2024	11:36	-128.929	46.296	0	73.70	0	9.5192	0	32.3464	0	24.961	0	73.080	0	257.9	4	91.2	4	-1E+10	1	1.1680	4	0.000704	4	-1E+10	1	-1E+10	1	-1E+10	1
4902624	1	C	07/01/2024	11:36	-128.929	46.296	0	74.60	0	9.5071	0	32.3491	0	24.965	0	73.972	0	257.2	4	90.9	4	-1E+10	1	1.1315	4	0.000715	4	-1E+10	1	-1E+10	1	-1E+10	1
4902624	1	C	07/01/2024	11:36	-128.929	46.296	0	74.90	0	9.5030	0	32.3500	0	24.966	0	74.270	0	-1e10	1	-1e10	1	-1E+10	1	-1e10	1	-1e10	1	-1E+10	1	-1E+10	1	-1E+10	1
4902624	1	C	07/01/2024	11:36	-128.929	46.296	0	75.40	0	9.4803	0	32.3560	0	24.974	0	74.765	0	256.2	4	90.5	4	-1E+10	1	0.9972	4	0.000697	4	-1E+10	1	-1E+10	1	-1E+10	1
4902624	1	C	07/01/2024	11:36	-128.929	46.296	0	76.20	0	9.4438	0	32.3656	0	24.988	0	75.558	0	255.2	4	90.1	4	-1E+10	1	0.8191	4	0.000727	4	-1E+10	1	-1E+10	1	-1E+10	1
4902624	1	C	07/01/2024	11:36	-128.929	46.296	0	76.90	0	9.4120	0	32.3740	0	24.999	0	76.252	0	-1e10	1	-1e10	1	-1E+10	1	-1e10	1	-1e10	1	-1E+10	1	-1E+10	1	-1E+10	1
4902624	1	C	07/01/2024	11:36	-128.929	46.296	0	77.10	0	9.3968	0	32.3738	0	25.002	0	76.451	0	254.0	4	89.6	4	-1E+10	1	0.6862	4	0.000677	4	-1E+10	1	-1E+10	1	-1E+10	1
4902624	1	C	07/01/2024	11:36	-128.929	46.296	0	77.90	0	9.3358	0	32.3730	0	25.011	0	77.244	0	252.8	4	89.0	4	-1E+10	1	0.6351	4	0.000604	4	-1E+10	1	-1E+10	1	-1E+10	1
4902624	1	C	07/01/2024	11:36	-128.929	46.296	0	78.70	0	9.2749	0	32.3723	0	25.020	0	78.037	0	251.7	4	88.5	4	-1E+10	1	0.5906	4	0.000575	4	-1E+10	1	-1E+10	1	-1E+10	1
4902624	1	C	07/01/2024	11:36	-128.929	46.296	0	79.00	0	9.2520	0	32.3720	0	25.023	0	78.334	0	-1e10	1	-1e10	1	-1E+10	1	-1e10	1	-1e10	1	-1E+10	1	-1E+10	1	-1E+10	1
4902624	1	C	07/01/2024	11:36	-128.929	46.296	0	79.60	0	9.2154	0	32.3726	0	25.029	0	78.929	0	250.8	4	88.1	4	-1E+10	1	0.5516	4	0.000577	4	-1E+10	1	-1E+10	1	-1E+10	1
4902624	1	C	07/01/2024	11:36	-128.929	46.296	0	80.50	0	9.1606	0	32.3734	0	25.039	0	79.821	0	249.5	4	87.6	4	-1E+10	1	0.5283	4	0.000571	4	-1E+10	1	-1E+10	1	-1E+10	1
4902624	1	C	07/01/2024	11:36	-128.929	46.296	0	81.10	0	9.1240	0	32.3740	0	25.045	0	80.416	0	-1e10	1	-1e10	1	-1E+10	1	-1e10	1	-1e10	1	-1E+10	1	-1E+10	1	-1E+10	1
4902624	1	C	07/01/2024	11:36	-128.929	46.296	0	81.40	0	9.1058	0	32.3750	0	25.048	0	80.714	0	248.3	4	87.0	4	-1E+10	1	0.4745	4	0.000504	4	-1E+10	1	-1E+10	1	-1E+10	1
4902624	1	C	07/01/2024	11:36	-128.929	46.296	0	82.30	0	9.0514	0	32.3782	0	25.059	0	81.606	0	246.6	4	86.3	4	-1E+10	1	0.4626	4	0.000495	4	-1E+10	1	-1E+10	1	-1E+10	1
4902624	1	C	07/01/2024	11:36	-128.929	46.296	0	83.10	0	9.0030	0	32.3810	0	25.069	0	82.399	0	-1e10	1	-1e10	1	-1E+10	1	-1e10	1	-1e10	1	-1E+10	1	-1E+10	1	-1E+10	1
4902624	1	C	07/01/2024	11:36	-128.929	46.296	0	83.20	0	8.9958	0	32.3820	0	25.071	0	82.498	0	245.1	4	85.7	4	-1E+10	1	0.4145	4	0.000501	4	-1E+10	1	-1E+10	1	-1E+10	1
4902624	1	C	07/01/2024	11:36	-128.929	46.296	0	84.10	0	8.9310	0	32.3915	0	25.088	0	83.390	0	243.5	4	85.0	4	-1E+10	1	0.3597	4	0.000489	4	-1E+10	1	-1E+10	1	-1E+10	1
4902624	1	C	07/01/2024	11:36	-128.929	46.296	0	85.00	0	8.8662	0	32.4010	0	25.106	0	84.283	0	242.2	4	84.4	4	-1E+10	1	-1e10	1	-1e10	1	-1E+10	1	-1E+10	1	-1E+10	1
4902624	1	C	07/01/2024	11:36	-128.929	46.296	0	85.10	0	8.8590	0	32.4020	0	25.108	0	84.382	0	-1e10	1	-1e10	1	-1E+10	1	-1e10	1	-1e10	1	-1E+10	1	-1E+10	1	-1E+10	1
4902624	1	C	07/01/2024	11:36	-128.929	46.296	0	85.90	0	8.8139	0	32.4121	0	25.123	0	85.175	0	240.9	4	83.9	4	-1E+10	1	0.3139	4	0.001173	4	-1E+10	1	-1E+10	1	-1E+10	1
4902624	1	C	07/01/2024	11:36	-128.929	46.296	0	86.90	0	8.7576	0	32.4247	0	25.141	0	86.166	0	239.6	4	83.3	4	-1E+10	1	-1e10	1	-1e10	1	-1E+10	1	-1E+10	1	-1E+10	1
4902624	1	C	07/01/2024	11:36	-128.929	46.296	0	87.00	0	8.7520	0	32.4260	0	25.143	0	86.265	0	-1e10	1	-1e10	1	-1E+10	1	-1e10	1	-1e10	1	-1E+10	1	-1E+10	1	-1E+10	1
4902624	1	C	07/01/2024	11:36	-128.929	46.296	0	87.80	0	8.7246	0	32.4344	0	25.154	0	87.058	0	238.4	4	82.9	4	-1E+10	1	-1e10	1	-1e10	1	-1E+10	1	-1E+10	1	-1E+10	1
4902624	1	C	07/01/2024	11:36	-128.929	46.296	0	88.80	0	8.6903	0	32.4449	0	25.167	0	88.050	0	237.0	4	82.4	4	-1E+10	1	-1e10	1	-1e10	1	-1E+10	1	-1E+10	1	-1E+10	1
4902624	1	C	07/01/2024	11:36	-128.929	46.296	0	89.10	0	8.6800	0	32.4480	0	25.171	0	88.347	0	-1e10	1	-1e10	1	-1E+10	1	-1e10	1	-1e10	1	-1E+10	1	-1E+10	1	-1E+10	1
4902624	1	C	07/01/2024	11:36	-128.929	46.296	0	89.80	0	8.6509	0	32.4583	0	25.184	0	89.041	0	235.2	4	81.6	4	-1E+10	1	-1e10	1	-1e10	1	-1E+10	1	-1E+10	1	-1E+10	1
4902624	1	C	07/01/2024	11:36	-128.929	46.296	0	90.80	0	8.6093	0	32.4731	0	25.201	0	90.032	0	233.3	4	80.9	4	-1E+10	1	-1e10	1	-1e10	1	-1E+10	1	-1E+10	1	-1E+10	1
4902624	1	C	07/01/2024	11:36	-128.929	46.296	0	91.00	0	8.6010	0	32.4760	0	25.205	0	90.231	0	-1e10	1	-1e10	1	-1E+10	1	-1e10	1	-1e10	1	-1E+10	1	-1E+10	1	-1E+10	1
4902624	1	C	07/01/2024	11:36	-128.929	46.296	0	91.80	0	8.5590	0	32.4892	0	25.222	0	91.024	0	231.5	4	80.2	4	-1E+10	1	-1e10	1	-1e10	1	-1E+10	1	-1E+10	1	-1E+10	1
4902624	1	C	07/01/2024	11:36	-128.929	46.296	0	92.80	0	8.5065	0	32.5057	0	25.242	0	92.015	0	229.6	4	79.5	4	-1E+10	1	-1e10	1	-1e10	1	-1E+10	1	-1E+10	1	-1E+10	1
4902624	1	C	07/01/2024	11:36	-128.929	46.296	0	93.00	0	8.4960	0	32.5090	0	25.247	0	92.213	0	-1e10	1	-1e10	1	-1E+10	1	-1e10	1	-1e10	1	-1E+10	1	-1E+10	1	-1E+10	1
4902624	1	C	07/01/2024	11:36	-128.929	46.296	0	93.80	0	8.4488	0	32.5309	0	25.271	0	93.006	0	227.6	4	78.7	4	-1E+10	1	-1e10	1	-1e10	1	-1E+10	1	-1E+10	1	-1E+10	1
4902624	1	C	07/01/2024	11:36	-128.929	46.296	0	94.90	0	8.3840	0	32.5610	0	25.304	0	94.097	0	222.7	4	76.9	4	-1E+10	1	-1e10	1	-1e10	1	-1E+10	1	-1E+10	1	-1E+10	1
4902624	1	C	07/01/2024	11:36	-128.929	46.296	0	96.00	0	8.3217	0	32.5861	0	25.333	0	95.187	0	223.2	4	77.0	4	-1E+10	1	-1e10	1	-1e10	1	-1E+10	1	-1E+10	1	-1E+10	1
4902624	1	C	07/01/2024	11:36	-128.929	46.296	0	97.00	0	8.2650	0	32.6090	0	25.359	0	96.179	0	218.4	4	75.3	4	-1E+10	1	-1e10	1	-1e10	1	-1E+10	1	-1E+10	1	-1E+10	1
4902624	1	C	07/01/2024	11:36	-128.929	46.296	0	98.10	0	8.2303	0	32.6229	0	25.375	0	97.269	0	219.3	4	75.5	4	-1E+10	1	-1e10	1	-1e10	1	-1E+10	1	-1E+10	1	-1E+10	1
4902624	1	C	07/01/2024	11:36	-128.929	46.296	0	98.90	0	8.2050	0	32.6330	0	25.387	0	98.062	0	-1e10	1	-1e10	1	-1E+10	1	-1e10	1	-1e10	1	-1E+10	1	-1E+10	1	-1E+10	1
4902624	1	C	07/01/2024	11:36	-128.929	46.296	0	99.20	0	8.1912	0	32.6406	0	25.395	0	98.359	0	217.6	4	74.9	4	-1E+10	1	-1e10	1	-1e10	1	-1E+10	1	-1E+10	1	-1E+10	1
4902624	1	C	07/01/2024	11:36	-128.929	46.296	0	100.20	0	8.1452	0	32.6661	0	25.422	0	99.351	0	215.6	4	74.1	4	-1E+10	1	-1e10	1	-1e10	1	-1E+10	1	-1E+10	1	-1E+10	1
4902624	1	C	07/01/2024	11:36	-128.929	46.296	0	100.90	0	8.1130	0	32.6840	0	25.441	0	100.045	0	-1e10	1	-1e10	1	-1E+10	1	-1e10	1	-1e10	1	-1E+10	1	-1E+10	1	-1E+10	1
4902624	1	C	07/01/2024	11:36	-128.929	46.296	0	101.30	0	8.1052	0	32.6897	0	25.446	0	100.441	0	214.0	4	73.5	4	-1E+10	1	-1e10	1	-1e10	1	-1E+10	1	-1E+10	1	-1E+10	1
4902624	1	C	07/01/2024	11:36	-128.929	46.296	0	102.30	0	8.0857	0	32.7040	0	25.460	0	101.432	0	212.4	4	73.0	4	-1E+10	1	-1e10	1	-1e10	1	-1E+10	1	-1E+10	1	-1E+10	1
4902624	1	C	07/01/2024	11:36	-128.929	46.296	0	103.00	0	8.0720	0	32.7140	0	25.470	0	102.126	0	-1e10	1	-1e10	1	-1E+10	1	-1e10	1	-1e10	1	-1E+10	1	-1E+10	1	-1E+10	1
4902624	1	C	07/01/2024	11:36	-128.929	46.296	0	103.10	0	8.0641	0	32.7186	0	25.475	0	102.225	0	210.8	4	72.4	4	-1E+10	1	-1e10	1	-1e10	1	-1E+10	1	-1E+10	1	-1E+10	1
4902624	1	C	07/01/2024	11:36	-128.929	46.296	0	103.80	0	8.0088	0	32.7508	0	25.508	0	102.919	0	209.3	4	71.8	4	-1E+10	1	-1e10	1	-1e10	1	-1E+10	1	-1E+10	1	-1E+10	1
4902624	1	C	07/01/2024	11:36	-128.929	46.296	0	104.40	0	7.9614	0	32.7784	0	25.537	0	103.514	0	208.1	4	71.3	4	-1E+10	1	-1e10	1	-1e10	1	-1E+10	1	-1E+10	1	-1E+10	1
4902624	1	C	07/01/2024	11:36	-128.929	46.296	0	105.00	0	7.9140	0	32.8060	0	25.565	0	104.109	0	-1e10	1	-1e10	1	-1E+10	1	-1e10	1	-1e10	1	-1E+10	1	-1E+10	1	-1E+10	1
4902624	1	C	07/01/2024	11:36	-128.929	46.296	0	105.10	0	7.9096	0	32.8093	0	25.569	0	104.208	0	207.3	4	71.0	4	-1E+10	1	-1e10	1	-1e10	1	-1E+10	1	-1E+10	1	-1E+10	1
4902624	1	C	07/01/2024	11:36	-128.929	46.296	0	105.80	0	7.8786	0	32.8327	0	25.591	0	104.902	0	206.5	4	70.6	4	-1E+10	1	-1e10	1	-1e10	1	-1E+10	1	-1E+10	1	-1E+10	1
4902624	1	C	07/01/2024	11:36	-128.929	46.296	0	106.40	0	7.8520	0	32.8527	0	25.611	0	105.496	0	205.6	4	70.3	4	-1E+10	1	-1e10	1	-1e10	1	-1E+10	1	-1E+10	1	-1E+10	1
4902624	1	C	07/01/2024	11:36	-128.929	46.296	0	107.00	0	7.8254	0	32.8727	0	25.630	0	106.091	0	204.5	4	69.9	4	-1E+10	1	-1e10	1	-1e10	1	-1E+10	1	-1E+10	1	-1E+10	1
4902624	1	C	07/01/2024	11:36	-128.929	46.296	0	107.10	0	7.8210	0	32.8760	0	25.634	0	106.190	0	-1e10	1	-1e10	1	-1E+10	1	-1e10	1	-1e10	1	-1E+10	1	-1E+10	1	-1E+10	1
4902624	1	C	07/01/2024	11:36	-128.929	46.296	0	107.80	0	7.8118	0	32.8812	0	25.639	0	106.884	0	203.4	4	69.5	4	-1E+10	1	-1e10	1	-1e10	1	-1E+10	1	-1E+10	1	-1E+10	1
4902624	1	C	07/01/2024	11:36	-128.929	46.296	0	108.40	0	7.8039	0	32.8856	0	25.644	0	107.479	0	201.9	4	69.0	4	-1E+10	1	-1e10	1	-1e10	1	-1E+10	1	-1E+10	1	-1E+10	1
4902624	1	C	07/01/2024	11:36	-128.929	46.296	0	109.00	0	7.7960	0	32.8900	0	25.648	0	108.074	0	-1e10	1	-1e10	1	-1E+10	1	-1e10	1	-1e10	1	-1E+10	1	-1E+10	1	-1E+10	1
4902624	1	C	07/01/2024	11:36	-128.929	46.296	0	109.10	0	7.7927	0	32.8924	0	25.651	0	108.173	0	200.3	4	68.4	4	-1E+10	1	-1e10	1	-1e10	1	-1E+10	1	-1E+10	1	-1E+10	1
4902624	1	C	07/01/2024	11:36	-128.929	46.296	0	109.80	0	7.7695	0	32.9089	0	25.667	0	108.867	0	198.5	4	67.8	4	-1E+10	1	-1e10	1	-1e10	1	-1E+10	1	-1E+10	1	-1E+10	1
4902624	1	C	07/01/2024	11:36	-128.929	46.296	0	110.40	0	7.7496	0	32.9232	0	25.681	0	109.461	0	196.8	4	67.2	4	-1E+10	1	-1e10	1	-1e10	1	-1E+10	1	-1E+10	1	-1E+10	1
4902624	1	C	07/01/2024	11:36	-128.929	46.296	0	110.90	0	7.7330	0	32.9350	0	25.693	0	109.957	0	-1e10	1	-1e10	1	-1E+10	1	-1e10	1	-1e10	1	-1E+10	1	-1E+10	1	-1E+10	1
4902624	1	C	07/01/2024	11:36	-128.929	46.296	0	111.10	0	7.7213	0	32.9433	0	25.701	0	110.155	0	195.2	4	66.6	4	-1E+10	1	-1e10	1	-1e10	1	-1E+10	1	-1E+10	1	-1E+10	1
4902624	1	C	07/01/2024	11:36	-128.929	46.296	0	111.90	0	7.6744	0	32.9764	0	25.733	0	110.948	0	193.7	4	66.0	4	-1E+10	1	-1e10	1	-1e10	1	-1E+10	1	-1E+10	1	-1E+10	1
4902624	1	C	07/01/2024	11:36	-128.929	46.296	0	112.70	0	7.6276	0	33.0096	0	25.766	0	111.741	0	192.8	4	65.7	4	-1E+10	1	-1e10	1	-1e10	1	-1E+10	1	-1E+10	1	-1E+10	1
4902624	1	C	07/01/2024	11:36	-128.929	46.296	0	113.00	0	7.6100	0	33.0220	0	25.778	0	112.039	0	-1e10	1	-1e10	1	-1E+10	1	-1e10	1	-1e10	1	-1E+10	1	-1E+10	1	-1E+10	1
4902624	1	C	07/01/2024	11:36	-128.929	46.296	0	113.40	0	7.6031	0	33.0285	0	25.784	0	112.435	0	191.7	4	65.3	4	-1E+10	1	-1e10	1	-1e10	1	-1E+10	1	-1E+10	1	-1E+10	1
4902624	1	C	07/01/2024	11:36	-128.929	46.296	0	114.20	0	7.5894	0	33.0414	0	25.797	0	113.228	0	190.6	4	64.9	4	-1E+10	1	-1e10	1	-1e10	1	-1E+10	1	-1E+10	1	-1E+10	1
4902624	1	C	07/01/2024	11:36	-128.929	46.296	0	115.00	0	7.5757	0	33.0544	0	25.809	0	114.021	0	189.4	4	64.5	4	-1E+10	1	-1e10	1	-1e10	1	-1E+10	1	-1E+10	1	-1E+10	1
4902624	1	C	07/01/2024	11:36	-128.929	46.296	0	115.10	0	7.5740	0	33.0560	0	25.810	0	114.120	0	-1e10	1	-1e10	1	-1E+10	1	-1e10	1	-1e10	1	-1E+10	1	-1E+10	1	-1E+10	1
4902624	1	C	07/01/2024	11:36	-128.929	46.296	0	115.80	0	7.5685	0	33.0612	0	25.815	0	114.814	0	188.2	4	64.1	4	-1E+10	1	-1e10	1	-1e10	1	-1E+10	1	-1E+10	1	-1E+10	1
4902624	1	C	07/01/2024	11:36	-128.929	46.296	0	116.60	0	7.5622	0	33.0671	0	25.821	0	115.607	0	186.9	4	63.6	4	-1E+10	1	-1e10	1	-1e10	1	-1E+10	1	-1E+10	1	-1E+10	1
4902624	1	C	07/01/2024	11:36	-128.929	46.296	0	117.00	0	7.5590	0	33.0700	0	25.823	0	116.004	0	-1e10	1	-1e10	1	-1E+10	1	-1e10	1	-1e10	1	-1E+10	1	-1E+10	1	-1E+10	1
4902624	1	C	07/01/2024	11:36	-128.929	46.296	0	117.40	0	7.5550	0	33.0790	0	25.831	0	116.400	0	185.1	4	63.0	4	-1E+10	1	-1e10	1	-1e10	1	-1E+10	1	-1E+10	1	-1E+10	1
4902624	1	C	07/01/2024	11:36	-128.929	46.296	0	118.30	0	7.5460	0	33.0991	0	25.848	0	117.292	0	183.2	4	62.3	4	-1E+10	1	-1e10	1	-1e10	1	-1E+10	1	-1E+10	1	-1E+10	1
4902624	1	C	07/01/2024	11:36	-128.929	46.296	0	119.10	0	7.5380	0	33.1170	0	25.863	0	118.085	0	178.2	4	60.6	4	-1E+10	1	-1e10	1	-1e10	1	-1E+10	1	-1E+10	1	-1E+10	1
4902624	1	C	07/01/2024	11:36	-128.929	46.296	0	120.00	0	7.5230	0	33.1460	0	25.888	0	118.977	0	179.5	4	61.1	4	-1E+10	1	-1e10	1	-1e10	1	-1E+10	1	-1E+10	1	-1E+10	1
4902624	1	C	07/01/2024	11:36	-128.929	46.296	0	120.90	0	7.5080	0	33.1750	0	25.913	0	119.869	0	174.7	4	59.4	4	-1E+10	1	-1e10	1	-1e10	1	-1E+10	1	-1E+10	1	-1E+10	1
4902624	1	C	07/01/2024	11:36	-128.929	46.296	0	121.70	0	7.5000	0	33.1882	0	25.925	0	120.662	0	176.1	4	59.9	4	-1E+10	1	-1e10	1	-1e10	1	-1E+10	1	-1E+10	1	-1E+10	1
4902624	1	C	07/01/2024	11:36	-128.929	46.296	0	122.60	0	7.4910	0	33.2030	0	25.938	0	121.554	0	174.2	4	59.2	4	-1E+10	1	-1e10	1	-1e10	1	-1E+10	1	-1E+10	1	-1E+10	1
4902624	1	C	07/01/2024	11:36	-128.929	46.296	0	122.90	0	7.4880	0	33.2080	0	25.942	0	121.852	0	-1e10	1	-1e10	1	-1E+10	1	-1e10	1	-1e10	1	-1E+10	1	-1E+10	1	-1E+10	1
4902624	1	C	07/01/2024	11:36	-128.929	46.296	0	123.50	0	7.4800	0	33.2206	0	25.953	0	122.446	0	172.5	4	58.7	4	-1E+10	1	-1e10	1	-1e10	1	-1E+10	1	-1E+10	1	-1E+10	1
4902624	1	C	07/01/2024	11:36	-128.929	46.296	0	124.40	0	7.4680	0	33.2394	0	25.969	0	123.338	0	170.9	4	58.1	4	-1E+10	1	-1e10	1	-1e10	1	-1E+10	1	-1E+10	1	-1E+10	1
4902624	1	C	07/01/2024	11:36	-128.929	46.296	0	125.00	0	7.4600	0	33.2520	0	25.980	0	123.933	0	-1e10	1	-1e10	1	-1E+10	1	-1e10	1	-1e10	1	-1E+10	1	-1E+10	1	-1E+10	1
4902624	1	C	07/01/2024	11:36	-128.929	46.296	0	125.30	0	7.4582	0	33.2557	0	25.984	0	124.230	0	169.2	4	57.5	4	-1E+10	1	-1e10	1	-1e10	1	-1E+10	1	-1E+10	1	-1E+10	1
4902624	1	C	07/01/2024	11:36	-128.929	46.296	0	126.20	0	7.4528	0	33.2670	0	25.993	0	125.122	0	167.4	4	56.9	4	-1E+10	1	-1e10	1	-1e10	1	-1E+10	1	-1E+10	1	-1E+10	1
4902624	1	C	07/01/2024	11:36	-128.929	46.296	0	127.00	0	7.4480	0	33.2770	0	26.002	0	125.915	0	-1e10	1	-1e10	1	-1E+10	1	-1e10	1	-1e10	1	-1E+10	1	-1E+10	1	-1E+10	1
4902624	1	C	07/01/2024	11:36	-128.929	46.296	0	127.10	0	7.4449	0	33.2806	0	26.005	0	126.014	0	165.6	4	56.3	4	-1E+10	1	-1e10	1	-1e10	1	-1E+10	1	-1E+10	1	-1E+10	1
4902624	1	C	07/01/2024	11:36	-128.929	46.296	0	128.10	0	7.4140	0	33.3163	0	26.037	0	127.006	0	164.3	4	55.8	4	-1E+10	1	-1e10	1	-1e10	1	-1E+10	1	-1E+10	1	-1E+10	1
4902624	1	C	07/01/2024	11:36	-128.929	46.296	0	129.10	0	7.3830	0	33.3520	0	26.070	0	127.997	0	160.1	4	54.4	4	-1E+10	1	-1e10	1	-1e10	1	-1E+10	1	-1E+10	1	-1E+10	1
4902624	1	C	07/01/2024	11:36	-128.929	46.296	0	130.20	0	7.3552	0	33.3786	0	26.095	0	129.087	0	162.0	4	55.0	4	-1E+10	1	-1e10	1	-1e10	1	-1E+10	1	-1E+10	1	-1E+10	1
4902624	1	C	07/01/2024	11:36	-128.929	46.296	0	131.00	0	7.3350	0	33.3980	0	26.113	0	129.880	0	-1e10	1	-1e10	1	-1E+10	1	-1e10	1	-1e10	1	-1E+10	1	-1E+10	1	-1E+10	1
4902624	1	C	07/01/2024	11:36	-128.929	46.296	0	131.20	0	7.3318	0	33.4014	0	26.116	0	130.078	0	161.3	4	54.7	4	-1E+10	1	-1e10	1	-1e10	1	-1E+10	1	-1E+10	1	-1E+10	1
4902624	1	C	07/01/2024	11:36	-128.929	46.296	0	132.30	0	7.3140	0	33.4203	0	26.133	0	131.168	0	160.5	4	54.4	4	-1E+10	1	-1e10	1	-1e10	1	-1E+10	1	-1E+10	1	-1E+10	1
4902624	1	C	07/01/2024	11:36	-128.929	46.296	0	133.10	0	7.3010	0	33.4340	0	26.146	0	131.961	0	-1e10	1	-1e10	1	-1E+10	1	-1e10	1	-1e10	1	-1E+10	1	-1E+10	1	-1E+10	1
4902624	1	C	07/01/2024	11:36	-128.929	46.296	0	133.30	0	7.2971	0	33.4370	0	26.149	0	132.159	0	159.6	4	54.1	4	-1E+10	1	-1e10	1	-1e10	1	-1E+10	1	-1E+10	1	-1E+10	1
4902624	1	C	07/01/2024	11:36	-128.929	46.296	0	134.40	0	7.2757	0	33.4535	0	26.165	0	133.250	0	158.7	4	53.8	4	-1E+10	1	-1e10	1	-1e10	1	-1E+10	1	-1E+10	1	-1E+10	1
4902624	1	C	07/01/2024	11:36	-128.929	46.296	0	135.10	0	7.2620	0	33.4640	0	26.175	0	133.943	0	-1e10	1	-1e10	1	-1E+10	1	-1e10	1	-1e10	1	-1E+10	1	-1E+10	1	-1E+10	1
4902624	1	C	07/01/2024	11:36	-128.929	46.296	0	135.50	0	7.2522	0	33.4696	0	26.181	0	134.340	0	158.3	4	53.6	4	-1E+10	1	-1e10	1	-1e10	1	-1E+10	1	-1E+10	1	-1E+10	1
4902624	1	C	07/01/2024	11:36	-128.929	46.296	0	136.50	0	7.2278	0	33.4834	0	26.195	0	135.331	0	157.5	4	53.3	4	-1E+10	1	-1e10	1	-1e10	1	-1E+10	1	-1E+10	1	-1E+10	1
4902624	1	C	07/01/2024	11:36	-128.929	46.296	0	136.90	0	7.2180	0	33.4890	0	26.201	0	135.727	0	-1e10	1	-1e10	1	-1E+10	1	-1e10	1	-1e10	1	-1E+10	1	-1E+10	1	-1E+10	1
4902624	1	C	07/01/2024	11:36	-128.929	46.296	0	137.60	0	7.2090	0	33.4943	0	26.206	0	136.421	0	156.5	4	53.0	4	-1E+10	1	-1e10	1	-1e10	1	-1E+10	1	-1E+10	1	-1E+10	1
4902624	1	C	07/01/2024	11:36	-128.929	46.296	0	138.80	0	7.1936	0	33.5035	0	26.215	0	137.611	0	155.4	4	52.6	4	-1E+10	1	-1e10	1	-1e10	1	-1E+10	1	-1E+10	1	-1E+10	1
4902624	1	C	07/01/2024	11:36	-128.929	46.296	0	139.00	0	7.1910	0	33.5050	0	26.217	0	137.809	0	-1e10	1	-1e10	1	-1E+10	1	-1e10	1	-1e10	1	-1E+10	1	-1E+10	1	-1E+10	1
4902624	1	C	07/01/2024	11:36	-128.929	46.296	0	139.90	0	7.1852	0	33.5099	0	26.222	0	138.701	0	154.2	4	52.2	4	-1E+10	1	-1e10	1	-1e10	1	-1E+10	1	-1E+10	1	-1E+10	1
4902624	1	C	07/01/2024	11:36	-128.929	46.296	0	141.00	0	7.1780	0	33.5160	0	26.227	0	139.791	0	-1e10	1	-1e10	1	-1E+10	1	-1e10	1	-1e10	1	-1E+10	1	-1E+10	1	-1E+10	1
4902624	1	C	07/01/2024	11:36	-128.929	46.296	0	141.10	0	7.1763	0	33.5178	0	26.229	0	139.890	0	152.9	4	51.7	4	-1E+10	1	-1e10	1	-1e10	1	-1E+10	1	-1E+10	1	-1E+10	1
4902624	1	C	07/01/2024	11:36	-128.929	46.296	0	142.20	0	7.1578	0	33.5381	0	26.248	0	140.980	0	151.9	4	51.4	4	-1E+10	1	-1e10	1	-1e10	1	-1E+10	1	-1E+10	1	-1E+10	1
4902624	1	C	07/01/2024	11:36	-128.929	46.296	0	142.90	0	7.1460	0	33.5510	0	26.259	0	141.674	0	-1e10	1	-1e10	1	-1E+10	1	-1e10	1	-1e10	1	-1E+10	1	-1E+10	1	-1E+10	1
4902624	1	C	07/01/2024	11:36	-128.929	46.296	0	143.40	0	7.1287	0	33.5605	0	26.269	0	142.170	0	151.1	4	51.1	4	-1E+10	1	-1e10	1	-1e10	1	-1E+10	1	-1E+10	1	-1E+10	1
4902624	1	C	07/01/2024	11:36	-128.929	46.296	0	144.50	0	7.0908	0	33.5814	0	26.291	0	143.260	0	150.3	4	50.8	4	-1E+10	1	-1e10	1	-1e10	1	-1E+10	1	-1E+10	1	-1E+10	1
4902624	1	C	07/01/2024	11:36	-128.929	46.296	0	144.90	0	7.0770	0	33.5890	0	26.299	0	143.656	0	-1e10	1	-1e10	1	-1E+10	1	-1e10	1	-1e10	1	-1E+10	1	-1E+10	1	-1E+10	1
4902624	1	C	07/01/2024	11:36	-128.929	46.296	0	145.30	0	7.0743	0	33.5934	0	26.303	0	144.053	0	149.5	4	50.5	4	-1E+10	1	-1e10	1	-1e10	1	-1E+10	1	-1E+10	1	-1E+10	1
4902624	1	C	07/01/2024	11:36	-128.929	46.296	0	146.10	0	7.0690	0	33.6021	0	26.310	0	144.845	0	148.5	4	50.2	4	-1E+10	1	-1e10	1	-1e10	1	-1E+10	1	-1E+10	1	-1E+10	1
4902624	1	C	07/01/2024	11:36	-128.929	46.296	0	146.80	0	7.0643	0	33.6098	0	26.317	0	145.539	0	147.3	4	49.8	4	-1E+10	1	-1e10	1	-1e10	1	-1E+10	1	-1E+10	1	-1E+10	1
4902624	1	C	07/01/2024	11:36	-128.929	46.296	0	147.00	0	7.0630	0	33.6120	0	26.319	0	145.737	0	-1e10	1	-1e10	1	-1E+10	1	-1e10	1	-1e10	1	-1E+10	1	-1E+10	1	-1E+10	1
4902624	1	C	07/01/2024	11:36	-128.929	46.296	0	147.50	0	7.0714	0	33.6209	0	26.325	0	146.233	0	146.5	4	49.5	4	-1E+10	1	-1e10	1	-1e10	1	-1E+10	1	-1E+10	1	-1E+10	1
4902624	1	C	07/01/2024	11:36	-128.929	46.296	0	148.20	0	7.0832	0	33.6335	0	26.333	0	146.927	0	146.1	4	49.4	4	-1E+10	1	-1e10	1	-1e10	1	-1E+10	1	-1E+10	1	-1E+10	1
4902624	1	C	07/01/2024	11:36	-128.929	46.296	0	148.90	0	7.0950	0	33.6460	0	26.341	0	147.620	0	142.8	4	48.3	4	-1E+10	1	-1e10	1	-1e10	1	-1E+10	1	-1E+10	1	-1E+10	1
4902624	1	C	07/01/2024	11:36	-128.929	46.296	0	149.60	0	7.0953	0	33.6517	0	26.346	0	148.314	0	145.8	4	49.3	4	-1E+10	1	-1e10	1	-1e10	1	-1E+10	1	-1E+10	1	-1E+10	1
4902624	1	C	07/01/2024	11:36	-128.929	46.296	0	150.30	0	7.0957	0	33.6573	0	26.350	0	149.008	0	145.7	4	49.3	4	-1E+10	1	-1e10	1	-1e10	1	-1E+10	1	-1E+10	1	-1E+10	1
4902624	1	C	07/01/2024	11:36	-128.929	46.296	0	151.00	0	7.0960	0	33.6630	0	26.355	0	149.702	0	-1e10	1	-1e10	1	-1E+10	1	-1e10	1	-1e10	1	-1E+10	1	-1E+10	1	-1E+10	1
4902624	1	C	07/01/2024	11:36	-128.929	46.296	0	151.10	0	7.0944	0	33.6638	0	26.355	0	149.801	0	145.7	4	49.3	4	-1E+10	1	-1e10	1	-1e10	1	-1E+10	1	-1E+10	1	-1E+10	1
4902624	1	C	07/01/2024	11:36	-128.929	46.296	0	151.80	0	7.0832	0	33.6698	0	26.362	0	150.494	0	145.6	4	49.2	4	-1E+10	1	-1e10	1	-1e10	1	-1E+10	1	-1E+10	1	-1E+10	1
4902624	1	C	07/01/2024	11:36	-128.929	46.296	0	152.60	0	7.0704	0	33.6766	0	26.369	0	151.287	0	145.5	4	49.2	4	-1E+10	1	-1e10	1	-1e10	1	-1E+10	1	-1E+10	1	-1E+10	1
4902624	1	C	07/01/2024	11:36	-128.929	46.296	0	153.00	0	7.0640	0	33.6800	0	26.372	0	151.684	0	-1e10	1	-1e10	1	-1E+10	1	-1e10	1	-1e10	1	-1E+10	1	-1E+10	1	-1E+10	1
4902624	1	C	07/01/2024	11:36	-128.929	46.296	0	153.30	0	7.0610	0	33.6808	0	26.373	0	151.981	0	145.5	4	49.2	4	-1E+10	1	-1e10	1	-1e10	1	-1E+10	1	-1E+10	1	-1E+10	1
4902624	1	C	07/01/2024	11:36	-128.929	46.296	0	154.10	0	7.0530	0	33.6829	0	26.376	0	152.774	0	145.4	4	49.1	4	-1E+10	1	-1e10	1	-1e10	1	-1E+10	1	-1E+10	1	-1E+10	1
4902624	1	C	07/01/2024	11:36	-128.929	46.296	0	154.80	0	7.0460	0	33.6847	0	26.379	0	153.468	0	145.3	4	49.1	4	-1E+10	1	-1e10	1	-1e10	1	-1E+10	1	-1E+10	1	-1E+10	1
4902624	1	C	07/01/2024	11:36	-128.929	46.296	0	154.90	0	7.0450	0	33.6850	0	26.379	0	153.567	0	-1e10	1	-1e10	1	-1E+10	1	-1e10	1	-1e10	1	-1E+10	1	-1E+10	1	-1E+10	1
4902624	1	C	07/01/2024	11:36	-128.929	46.296	0	155.60	0	7.0380	0	33.6850	0	26.380	0	154.260	0	145.1	4	49.0	4	-1E+10	1	-1e10	1	-1e10	1	-1E+10	1	-1E+10	1	-1E+10	1
4902624	1	C	07/01/2024	11:36	-128.929	46.296	0	156.40	0	7.0300	0	33.6850	0	26.381	0	155.053	0	144.8	4	48.9	4	-1E+10	1	-1e10	1	-1e10	1	-1E+10	1	-1E+10	1	-1E+10	1
4902624	1	C	07/01/2024	11:36	-128.929	46.296	0	156.90	0	7.0250	0	33.6850	0	26.382	0	155.549	0	-1e10	1	-1e10	1	-1E+10	1	-1e10	1	-1e10	1	-1E+10	1	-1E+10	1	-1E+10	1
4902624	1	C	07/01/2024	11:36	-128.929	46.296	0	157.10	0	7.0231	0	33.6849	0	26.382	0	155.747	0	144.4	4	48.8	4	-1E+10	1	-1e10	1	-1e10	1	-1E+10	1	-1E+10	1	-1E+10	1
4902624	1	C	07/01/2024	11:36	-128.929	46.296	0	157.90	0	7.0155	0	33.6845	0	26.383	0	156.540	0	143.8	4	48.6	4	-1E+10	1	-1e10	1	-1e10	1	-1E+10	1	-1E+10	1	-1E+10	1
4902624	1	C	07/01/2024	11:36	-128.929	46.296	0	158.70	0	7.0079	0	33.6841	0	26.383	0	157.332	0	143.1	4	48.3	4	-1E+10	1	-1e10	1	-1e10	1	-1E+10	1	-1E+10	1	-1E+10	1
4902624	1	C	07/01/2024	11:36	-128.929	46.296	0	158.90	0	7.0060	0	33.6840	0	26.384	0	157.531	0	-1e10	1	-1e10	1	-1E+10	1	-1e10	1	-1e10	1	-1E+10	1	-1E+10	1	-1E+10	1
4902624	1	C	07/01/2024	11:36	-128.929	46.296	0	159.50	0	6.9940	0	33.6900	0	26.390	0	158.125	0	142.3	4	48.0	4	-1E+10	1	-1e10	1	-1e10	1	-1E+10	1	-1E+10	1	-1E+10	1
4902624	1	C	07/01/2024	11:36	-128.929	46.296	0	160.20	0	6.9800	0	33.6970	0	26.397	0	158.819	0	141.6	4	47.8	4	-1E+10	1	-1e10	1	-1e10	1	-1E+10	1	-1E+10	1	-1E+10	1
4902624	1	C	07/01/2024	11:36	-128.929	46.296	0	160.90	0	6.9660	0	33.7040	0	26.405	0	159.513	0	-1e10	1	-1e10	1	-1E+10	1	-1e10	1	-1e10	1	-1E+10	1	-1E+10	1	-1E+10	1
4902624	1	C	07/01/2024	11:36	-128.929	46.296	0	161.10	0	6.9651	0	33.7048	0	26.405	0	159.711	0	140.8	4	47.5	4	-1E+10	1	-1e10	1	-1e10	1	-1E+10	1	-1E+10	1	-1E+10	1
4902624	1	C	07/01/2024	11:36	-128.929	46.296	0	161.90	0	6.9617	0	33.7078	0	26.408	0	160.504	0	140.0	4	47.2	4	-1E+10	1	-1e10	1	-1e10	1	-1E+10	1	-1E+10	1	-1E+10	1
4902624	1	C	07/01/2024	11:36	-128.929	46.296	0	162.60	0	6.9587	0	33.7105	0	26.411	0	161.197	0	139.1	4	46.9	4	-1E+10	1	-1e10	1	-1e10	1	-1E+10	1	-1E+10	1	-1E+10	1
4902624	1	C	07/01/2024	11:36	-128.929	46.296	0	163.00	0	6.9570	0	33.7120	0	26.412	0	161.594	0	-1e10	1	-1e10	1	-1E+10	1	-1e10	1	-1e10	1	-1E+10	1	-1E+10	1	-1E+10	1
4902624	1	C	07/01/2024	11:36	-128.929	46.296	0	163.50	0	6.9530	0	33.7165	0	26.416	0	162.089	0	138.2	4	46.6	4	-1E+10	1	-1e10	1	-1e10	1	-1E+10	1	-1E+10	1	-1E+10	1
4902624	1	C	07/01/2024	11:36	-128.929	46.296	0	164.30	0	6.9466	0	33.7237	0	26.423	0	162.882	0	137.5	4	46.4	4	-1E+10	1	-1e10	1	-1e10	1	-1E+10	1	-1E+10	1	-1E+10	1
4902624	1	C	07/01/2024	11:36	-128.929	46.296	0	165.00	0	6.9410	0	33.7300	0	26.429	0	163.576	0	-1e10	1	-1e10	1	-1E+10	1	-1e10	1	-1e10	1	-1E+10	1	-1E+10	1	-1E+10	1
4902624	1	C	07/01/2024	11:36	-128.929	46.296	0	165.20	0	6.9386	0	33.7318	0	26.430	0	163.774	0	136.7	4	46.1	4	-1E+10	1	-1e10	1	-1e10	1	-1E+10	1	-1E+10	1	-1E+10	1
4902624	1	C	07/01/2024	11:36	-128.929	46.296	0	166.00	0	6.9290	0	33.7390	0	26.437	0	164.567	0	136.0	4	45.9	4	-1E+10	1	-1e10	1	-1e10	1	-1E+10	1	-1E+10	1	-1E+10	1
4902624	1	C	07/01/2024	11:36	-128.929	46.296	0	166.80	0	6.9194	0	33.7462	0	26.444	0	165.359	0	135.4	4	45.7	4	-1E+10	1	-1e10	1	-1e10	1	-1E+10	1	-1E+10	1	-1E+10	1
4902624	1	C	07/01/2024	11:36	-128.929	46.296	0	167.00	0	6.9170	0	33.7480	0	26.446	0	165.558	0	-1e10	1	-1e10	1	-1E+10	1	-1e10	1	-1e10	1	-1E+10	1	-1E+10	1	-1E+10	1
4902624	1	C	07/01/2024	11:36	-128.929	46.296	0	167.70	0	6.9144	0	33.7509	0	26.449	0	166.251	0	134.9	4	45.5	4	-1E+10	1	-1e10	1	-1e10	1	-1E+10	1	-1E+10	1	-1E+10	1
4902624	1	C	07/01/2024	11:36	-128.929	46.296	0	168.60	0	6.9111	0	33.7547	0	26.452	0	167.143	0	134.3	4	45.3	4	-1E+10	1	-1e10	1	-1e10	1	-1E+10	1	-1E+10	1	-1E+10	1
4902624	1	C	07/01/2024	11:36	-128.929	46.296	0	168.90	0	6.9100	0	33.7560	0	26.453	0	167.440	0	-1e10	1	-1e10	1	-1E+10	1	-1e10	1	-1e10	1	-1E+10	1	-1E+10	1	-1E+10	1
4902624	1	C	07/01/2024	11:36	-128.929	46.296	0	169.40	0	6.9085	0	33.7575	0	26.455	0	167.936	0	133.7	4	45.1	4	-1E+10	1	-1e10	1	-1e10	1	-1E+10	1	-1E+10	1	-1E+10	1
4902624	1	C	07/01/2024	11:36	-128.929	46.296	0	170.30	0	6.9058	0	33.7602	0	26.457	0	168.828	0	133.0	4	44.8	4	-1E+10	1	-1e10	1	-1e10	1	-1E+10	1	-1E+10	1	-1E+10	1
4902624	1	C	07/01/2024	11:36	-128.929	46.296	0	170.90	0	6.9040	0	33.7620	0	26.459	0	169.422	0	-1e10	1	-1e10	1	-1E+10	1	-1e10	1	-1e10	1	-1E+10	1	-1E+10	1	-1E+10	1
4902624	1	C	07/01/2024	11:36	-128.929	46.296	0	171.10	0	6.9036	0	33.7627	0	26.460	0	169.621	0	132.3	4	44.6	4	-1E+10	1	-1e10	1	-1e10	1	-1E+10	1	-1E+10	1	-1E+10	1
4902624	1	C	07/01/2024	11:36	-128.929	46.296	0	171.90	0	6.9020	0	33.7655	0	26.462	0	170.413	0	131.7	4	44.4	4	-1E+10	1	-1e10	1	-1e10	1	-1E+10	1	-1E+10	1	-1E+10	1
4902624	1	C	07/01/2024	11:36	-128.929	46.296	0	172.70	0	6.9004	0	33.7683	0	26.464	0	171.206	0	131.0	4	44.1	4	-1E+10	1	-1e10	1	-1e10	1	-1E+10	1	-1E+10	1	-1E+10	1
4902624	1	C	07/01/2024	11:36	-128.929	46.296	0	172.90	0	6.9000	0	33.7690	0	26.465	0	171.404	0	-1e10	1	-1e10	1	-1E+10	1	-1e10	1	-1e10	1	-1E+10	1	-1E+10	1	-1E+10	1
4902624	1	C	07/01/2024	11:36	-128.929	46.296	0	173.60	0	6.9018	0	33.7711	0	26.466	0	172.098	0	130.3	4	43.9	4	-1E+10	1	-1e10	1	-1e10	1	-1E+10	1	-1E+10	1	-1E+10	1
4902624	1	C	07/01/2024	11:36	-128.929	46.296	0	174.40	0	6.9038	0	33.7735	0	26.468	0	172.891	0	129.6	4	43.7	4	-1E+10	1	-1e10	1	-1e10	1	-1E+10	1	-1E+10	1	-1E+10	1
4902624	1	C	07/01/2024	11:36	-128.929	46.296	0	174.90	0	6.9050	0	33.7750	0	26.469	0	173.386	0	-1e10	1	-1e10	1	-1E+10	1	-1e10	1	-1e10	1	-1E+10	1	-1E+10	1	-1E+10	1
4902624	1	C	07/01/2024	11:36	-128.929	46.296	0	175.20	0	6.9062	0	33.7762	0	26.470	0	173.683	0	128.9	4	43.4	4	-1E+10	1	-1e10	1	-1e10	1	-1E+10	1	-1E+10	1	-1E+10	1
4902624	1	C	07/01/2024	11:36	-128.929	46.296	0	176.10	0	6.9098	0	33.7798	0	26.472	0	174.575	0	128.3	4	43.2	4	-1E+10	1	-1e10	1	-1e10	1	-1E+10	1	-1E+10	1	-1E+10	1
4902624	1	C	07/01/2024	11:36	-128.929	46.296	0	176.90	0	6.9130	0	33.7830	0	26.474	0	175.368	0	125.0	4	42.1	4	-1E+10	1	-1e10	1	-1e10	1	-1E+10	1	-1E+10	1	-1E+10	1
4902624	1	C	07/01/2024	11:36	-128.929	46.296	0	177.70	0	6.9103	0	33.7872	0	26.478	0	176.161	0	127.2	4	42.9	4	-1E+10	1	-1e10	1	-1e10	1	-1E+10	1	-1E+10	1	-1E+10	1
4902624	1	C	07/01/2024	11:36	-128.929	46.296	0	178.60	0	6.9073	0	33.7919	0	26.482	0	177.052	0	126.8	4	42.7	4	-1E+10	1	-1e10	1	-1e10	1	-1E+10	1	-1E+10	1	-1E+10	1
4902624	1	C	07/01/2024	11:36	-128.929	46.296	0	179.00	0	6.9060	0	33.7940	0	26.484	0	177.449	0	-1e10	1	-1e10	1	-1E+10	1	-1e10	1	-1e10	1	-1E+10	1	-1E+10	1	-1E+10	1
4902624	1	C	07/01/2024	11:36	-128.929	46.296	0	179.40	0	6.9030	0	33.7957	0	26.486	0	177.845	0	126.5	4	42.6	4	-1E+10	1	-1e10	1	-1e10	1	-1E+10	1	-1E+10	1	-1E+10	1
4902624	1	C	07/01/2024	11:36	-128.929	46.296	0	180.30	0	6.8961	0	33.7996	0	26.490	0	178.737	0	126.2	4	42.5	4	-1E+10	1	-1e10	1	-1e10	1	-1E+10	1	-1E+10	1	-1E+10	1
4902624	1	C	07/01/2024	11:36	-128.929	46.296	0	181.10	0	6.8900	0	33.8030	0	26.493	0	179.530	0	123.1	4	41.5	4	-1E+10	1	-1e10	1	-1e10	1	-1E+10	1	-1E+10	1	-1E+10	1
4902624	1	C	07/01/2024	11:36	-128.929	46.296	0	182.00	0	6.8823	0	33.8057	0	26.496	0	180.422	0	125.7	4	42.4	4	-1E+10	1	-1e10	1	-1e10	1	-1E+10	1	-1E+10	1	-1E+10	1
4902624	1	C	07/01/2024	11:36	-128.929	46.296	0	182.80	0	6.8756	0	33.8081	0	26.499	0	181.214	0	125.5	4	42.3	4	-1E+10	1	-1e10	1	-1e10	1	-1E+10	1	-1E+10	1	-1E+10	1
4902624	1	C	07/01/2024	11:36	-128.929	46.296	0	183.10	0	6.8730	0	33.8090	0	26.500	0	181.511	0	-1e10	1	-1e10	1	-1E+10	1	-1e10	1	-1e10	1	-1E+10	1	-1E+10	1	-1E+10	1
4902624	1	C	07/01/2024	11:36	-128.929	46.296	0	183.70	0	6.8591	0	33.8109	0	26.504	0	182.106	0	125.3	4	42.2	4	-1E+10	1	-1e10	1	-1e10	1	-1E+10	1	-1E+10	1	-1E+10	1
4902624	1	C	07/01/2024	11:36	-128.929	46.296	0	184.50	0	6.8406	0	33.8134	0	26.508	0	182.899	0	124.9	4	42.1	4	-1E+10	1	-1e10	1	-1e10	1	-1E+10	1	-1E+10	1	-1E+10	1
4902624	1	C	07/01/2024	11:36	-128.929	46.296	0	185.00	0	6.8290	0	33.8150	0	26.511	0	183.394	0	-1e10	1	-1e10	1	-1E+10	1	-1e10	1	-1e10	1	-1E+10	1	-1E+10	1	-1E+10	1
4902624	1	C	07/01/2024	11:36	-128.929	46.296	0	185.40	0	6.8240	0	33.8154	0	26.512	0	183.791	0	124.5	4	41.9	4	-1E+10	1	-1e10	1	-1e10	1	-1E+10	1	-1E+10	1	-1E+10	1
4902624	1	C	07/01/2024	11:36	-128.929	46.296	0	186.40	0	6.8115	0	33.8164	0	26.514	0	184.781	0	123.9	4	41.7	4	-1E+10	1	-1e10	1	-1e10	1	-1E+10	1	-1E+10	1	-1E+10	1
4902624	1	C	07/01/2024	11:36	-128.929	46.296	0	187.00	0	6.8040	0	33.8170	0	26.516	0	185.376	0	-1e10	1	-1e10	1	-1E+10	1	-1e10	1	-1e10	1	-1E+10	1	-1E+10	1	-1E+10	1
4902624	1	C	07/01/2024	11:36	-128.929	46.296	0	187.20	0	6.8036	0	33.8172	0	26.516	0	185.574	0	123.4	4	41.5	4	-1E+10	1	-1e10	1	-1e10	1	-1E+10	1	-1E+10	1	-1E+10	1
4902624	1	C	07/01/2024	11:36	-128.929	46.296	0	188.20	0	6.8017	0	33.8181	0	26.517	0	186.565	0	122.6	4	41.2	4	-1E+10	1	-1e10	1	-1e10	1	-1E+10	1	-1E+10	1	-1E+10	1
4902624	1	C	07/01/2024	11:36	-128.929	46.296	0	189.10	0	6.8000	0	33.8190	0	26.518	0	187.457	0	119.2	4	40.1	4	-1E+10	1	-1e10	1	-1e10	1	-1E+10	1	-1E+10	1	-1E+10	1
4902624	1	C	07/01/2024	11:36	-128.929	46.296	0	190.00	0	6.7896	0	33.8233	0	26.523	0	188.348	0	121.6	4	40.9	4	-1E+10	1	-1e10	1	-1e10	1	-1E+10	1	-1E+10	1	-1E+10	1
4902624	1	C	07/01/2024	11:36	-128.929	46.296	0	190.90	0	6.7792	0	33.8275	0	26.528	0	189.240	0	121.5	4	40.8	4	-1E+10	1	-1e10	1	-1e10	1	-1E+10	1	-1E+10	1	-1E+10	1
4902624	1	C	07/01/2024	11:36	-128.929	46.296	0	191.00	0	6.7780	0	33.8280	0	26.528	0	189.339	0	-1e10	1	-1e10	1	-1E+10	1	-1e10	1	-1e10	1	-1E+10	1	-1E+10	1	-1E+10	1
4902624	1	C	07/01/2024	11:36	-128.929	46.296	0	191.80	0	6.7672	0	33.8284	0	26.530	0	190.132	0	121.3	4	40.8	4	-1E+10	1	-1e10	1	-1e10	1	-1E+10	1	-1E+10	1	-1E+10	1
4902624	1	C	07/01/2024	11:36	-128.929	46.296	0	192.70	0	6.7550	0	33.8288	0	26.532	0	191.024	0	121.1	4	40.7	4	-1E+10	1	-1e10	1	-1e10	1	-1E+10	1	-1E+10	1	-1E+10	1
4902624	1	C	07/01/2024	11:36	-128.929	46.296	0	193.00	0	6.7510	0	33.8290	0	26.533	0	191.321	0	-1e10	1	-1e10	1	-1E+10	1	-1e10	1	-1e10	1	-1E+10	1	-1E+10	1	-1E+10	1
4902624	1	C	07/01/2024	11:36	-128.929	46.296	0	193.60	0	6.7330	0	33.8284	0	26.534	0	191.916	0	120.6	4	40.5	4	-1E+10	1	-1e10	1	-1e10	1	-1E+10	1	-1E+10	1	-1E+10	1
4902624	1	C	07/01/2024	11:36	-128.929	46.296	0	194.60	0	6.7030	0	33.8274	0	26.538	0	192.906	0	120.0	4	40.3	4	-1E+10	1	-1e10	1	-1e10	1	-1E+10	1	-1E+10	1	-1E+10	1
4902624	1	C	07/01/2024	11:36	-128.929	46.296	0	195.00	0	6.6910	0	33.8270	0	26.539	0	193.303	0	-1e10	1	-1e10	1	-1E+10	1	-1e10	1	-1e10	1	-1E+10	1	-1E+10	1	-1E+10	1
4902624	1	C	07/01/2024	11:36	-128.929	46.296	0	195.50	0	6.6855	0	33.8278	0	26.540	0	193.798	0	119.2	4	40.0	4	-1E+10	1	-1e10	1	-1e10	1	-1E+10	1	-1E+10	1	-1E+10	1
4902624	1	C	07/01/2024	11:36	-128.929	46.296	0	196.40	0	6.6755	0	33.8292	0	26.543	0	194.690	0	118.4	4	39.7	4	-1E+10	1	-1e10	1	-1e10	1	-1E+10	1	-1E+10	1	-1E+10	1
4902624	1	C	07/01/2024	11:36	-128.929	46.296	0	196.90	0	6.6700	0	33.8300	0	26.544	0	195.185	0	-1e10	1	-1e10	1	-1E+10	1	-1e10	1	-1e10	1	-1E+10	1	-1E+10	1	-1E+10	1
4902624	1	C	07/01/2024	11:36	-128.929	46.296	0	197.30	0	6.6702	0	33.8310	0	26.545	0	195.582	0	117.6	4	39.4	4	-1E+10	1	-1e10	1	-1e10	1	-1E+10	1	-1E+10	1	-1E+10	1
4902624	1	C	07/01/2024	11:36	-128.929	46.296	0	198.20	0	6.6706	0	33.8331	0	26.547	0	196.473	0	116.8	4	39.2	4	-1E+10	1	-1e10	1	-1e10	1	-1E+10	1	-1E+10	1	-1E+10	1
4902624	1	C	07/01/2024	11:36	-128.929	46.296	0	199.00	0	6.6710	0	33.8350	0	26.548	0	197.266	0	-1e10	1	-1e10	1	-1E+10	1	-1e10	1	-1e10	1	-1E+10	1	-1E+10	1	-1E+10	1
4902624	1	C	07/01/2024	11:36	-128.929	46.296	0	199.20	0	6.6694	0	33.8353	0	26.548	0	197.464	0	115.9	4	38.9	4	-1E+10	1	-1e10	1	-1e10	1	-1E+10	1	-1E+10	1	-1E+10	1
4902624	1	C	07/01/2024	11:36	-128.929	46.296	0	200.10	0	6.6621	0	33.8366	0	26.550	0	198.356	0	114.8	4	38.5	4	-1E+10	1	-1e10	1	-1e10	1	-1E+10	1	-1E+10	1	-1E+10	1
4902624	1	C	07/01/2024	11:36	-128.929	46.296	0	201.00	0	6.6548	0	33.8379	0	26.552	0	199.248	0	113.8	4	38.1	4	-1E+10	1	-1e10	1	-1e10	1	-1E+10	1	-1E+10	1	-1E+10	1
4902624	1	C	07/01/2024	11:36	-128.929	46.296	0	201.10	0	6.6540	0	33.8380	0	26.553	0	199.347	0	-1e10	1	-1e10	1	-1E+10	1	-1e10	1	-1e10	1	-1E+10	1	-1E+10	1	-1E+10	1
4902624	1	C	07/01/2024	11:36	-128.929	46.296	0	202.00	0	6.6381	0	33.8410	0	26.557	0	200.238	0	112.8	4	37.8	4	-1E+10	1	-1e10	1	-1e10	1	-1E+10	1	-1E+10	1	-1E+10	1
4902624	1	C	07/01/2024	11:36	-128.929	46.296	0	203.00	0	6.6205	0	33.8443	0	26.562	0	201.229	0	111.8	4	37.4	4	-1E+10	1	-1e10	1	-1e10	1	-1E+10	1	-1E+10	1	-1E+10	1
4902624	1	C	07/01/2024	11:36	-128.929	46.296	0	203.20	0	6.6170	0	33.8450	0	26.563	0	201.427	0	-1e10	1	-1e10	1	-1E+10	1	-1e10	1	-1e10	1	-1E+10	1	-1E+10	1	-1E+10	1
4902624	1	C	07/01/2024	11:36	-128.929	46.296	0	203.90	0	6.6085	0	33.8465	0	26.565	0	202.121	0	110.9	4	37.1	4	-1E+10	1	-1e10	1	-1e10	1	-1E+10	1	-1E+10	1	-1E+10	1
4902624	1	C	07/01/2024	11:36	-128.929	46.296	0	205.00	0	6.5952	0	33.8488	0	26.569	0	203.211	0	110.3	4	36.9	4	-1E+10	1	-1e10	1	-1e10	1	-1E+10	1	-1E+10	1	-1E+10	1
4902624	1	C	07/01/2024	11:36	-128.929	46.296	0	205.10	0	6.5940	0	33.8490	0	26.569	0	203.310	0	-1e10	1	-1e10	1	-1E+10	1	-1e10	1	-1e10	1	-1E+10	1	-1E+10	1	-1E+10	1
4902624	1	C	07/01/2024	11:36	-128.929	46.296	0	206.00	0	6.6012	0	33.8567	0	26.574	0	204.202	0	110.1	4	36.9	4	-1E+10	1	-1e10	1	-1e10	1	-1E+10	1	-1E+10	1	-1E+10	1
4902624	1	C	07/01/2024	11:36	-128.929	46.296	0	207.00	0	6.6092	0	33.8652	0	26.580	0	205.192	0	110.3	4	36.9	4	-1E+10	1	-1e10	1	-1e10	1	-1E+10	1	-1E+10	1	-1E+10	1
4902624	1	C	07/01/2024	11:36	-128.929	46.296	0	207.10	0	6.6100	0	33.8660	0	26.581	0	205.291	0	-1e10	1	-1e10	1	-1E+10	1	-1e10	1	-1e10	1	-1E+10	1	-1E+10	1	-1E+10	1
4902624	1	C	07/01/2024	11:36	-128.929	46.296	0	208.00	0	6.6019	0	33.8660	0	26.582	0	206.183	0	110.5	4	37.0	4	-1E+10	1	-1e10	1	-1e10	1	-1E+10	1	-1E+10	1	-1E+10	1
4902624	1	C	07/01/2024	11:36	-128.929	46.296	0	209.00	0	6.5930	0	33.8660	0	26.583	0	207.174	0	108.2	4	36.2	4	-1E+10	1	-1e10	1	-1e10	1	-1E+10	1	-1E+10	1	-1E+10	1
4902624	1	C	07/01/2024	11:36	-128.929	46.296	0	210.00	0	6.5815	0	33.8655	0	26.584	0	208.165	0	111.1	4	37.2	4	-1E+10	1	-1e10	1	-1e10	1	-1E+10	1	-1E+10	1	-1E+10	1
4902624	1	C	07/01/2024	11:36	-128.929	46.296	0	211.00	0	6.5700	0	33.8650	0	26.585	0	209.155	0	108.8	4	36.4	4	-1E+10	1	-1e10	1	-1e10	1	-1E+10	1	-1E+10	1	-1E+10	1
4902624	1	C	07/01/2024	11:36	-128.929	46.296	0	212.10	0	6.5563	0	33.8644	0	26.586	0	210.245	0	111.7	4	37.4	4	-1E+10	1	-1e10	1	-1e10	1	-1E+10	1	-1E+10	1	-1E+10	1
4902624	1	C	07/01/2024	11:36	-128.929	46.296	0	213.00	0	6.5450	0	33.8640	0	26.588	0	211.137	0	-1e10	1	-1e10	1	-1E+10	1	-1e10	1	-1e10	1	-1E+10	1	-1E+10	1	-1E+10	1
4902624	1	C	07/01/2024	11:36	-128.929	46.296	0	213.10	0	6.5430	0	33.8639	0	26.588	0	211.236	0	111.9	4	37.4	4	-1E+10	1	-1e10	1	-1e10	1	-1E+10	1	-1E+10	1	-1E+10	1
4902624	1	C	07/01/2024	11:36	-128.929	46.296	0	214.10	0	6.5224	0	33.8634	0	26.590	0	212.227	0	112.2	4	37.5	4	-1E+10	1	-1e10	1	-1e10	1	-1E+10	1	-1E+10	1	-1E+10	1
4902624	1	C	07/01/2024	11:36	-128.929	46.296	0	215.00	0	6.5040	0	33.8630	0	26.592	0	213.118	0	-1e10	1	-1e10	1	-1E+10	1	-1e10	1	-1e10	1	-1E+10	1	-1E+10	1	-1E+10	1
4902624	1	C	07/01/2024	11:36	-128.929	46.296	0	215.10	0	6.5026	0	33.8628	0	26.592	0	213.217	0	112.5	4	37.6	4	-1E+10	1	-1e10	1	-1e10	1	-1E+10	1	-1E+10	1	-1E+10	1
4902624	1	C	07/01/2024	11:36	-128.929	46.296	0	216.20	0	6.4869	0	33.8605	0	26.592	0	214.307	0	112.8	4	37.7	4	-1E+10	1	-1e10	1	-1e10	1	-1E+10	1	-1E+10	1	-1E+10	1
4902624	1	C	07/01/2024	11:36	-128.929	46.296	0	216.90	0	6.4770	0	33.8590	0	26.593	0	215.001	0	-1e10	1	-1e10	1	-1E+10	1	-1e10	1	-1e10	1	-1E+10	1	-1E+10	1	-1E+10	1
4902624	1	C	07/01/2024	11:36	-128.929	46.296	0	217.30	0	6.4635	0	33.8586	0	26.594	0	215.397	0	113.1	4	37.7	4	-1E+10	1	-1e10	1	-1e10	1	-1E+10	1	-1E+10	1	-1E+10	1
4902624	1	C	07/01/2024	11:36	-128.929	46.296	0	218.30	0	6.4297	0	33.8577	0	26.598	0	216.388	0	113.3	4	37.8	4	-1E+10	1	-1e10	1	-1e10	1	-1E+10	1	-1E+10	1	-1E+10	1
4902624	1	C	07/01/2024	11:36	-128.929	46.296	0	219.00	0	6.4060	0	33.8570	0	26.600	0	217.081	0	-1e10	1	-1e10	1	-1E+10	1	-1e10	1	-1e10	1	-1E+10	1	-1E+10	1	-1E+10	1
4902624	1	C	07/01/2024	11:36	-128.929	46.296	0	219.40	0	6.3915	0	33.8560	0	26.601	0	217.477	0	113.2	4	37.7	4	-1E+10	1	-1e10	1	-1e10	1	-1E+10	1	-1E+10	1	-1E+10	1
4902624	1	C	07/01/2024	11:36	-128.929	46.296	0	220.40	0	6.3553	0	33.8537	0	26.604	0	218.468	0	112.8	4	37.6	4	-1E+10	1	-1e10	1	-1e10	1	-1E+10	1	-1E+10	1	-1E+10	1
4902624	1	C	07/01/2024	11:36	-128.929	46.296	0	221.10	0	6.3300	0	33.8520	0	26.606	0	219.162	0	-1e10	1	-1e10	1	-1E+10	1	-1e10	1	-1e10	1	-1E+10	1	-1E+10	1	-1E+10	1
4902624	1	C	07/01/2024	11:36	-128.929	46.296	0	221.50	0	6.3222	0	33.8524	0	26.608	0	219.558	0	112.5	4	37.4	4	-1E+10	1	-1e10	1	-1e10	1	-1E+10	1	-1E+10	1	-1E+10	1
4902624	1	C	07/01/2024	11:36	-128.929	46.296	0	222.50	0	6.3027	0	33.8535	0	26.611	0	220.549	0	112.2	4	37.3	4	-1E+10	1	-1e10	1	-1e10	1	-1E+10	1	-1E+10	1	-1E+10	1
4902624	1	C	07/01/2024	11:36	-128.929	46.296	0	223.00	0	6.2930	0	33.8540	0	26.613	0	221.044	0	-1e10	1	-1e10	1	-1E+10	1	-1e10	1	-1e10	1	-1E+10	1	-1E+10	1	-1E+10	1
4902624	1	C	07/01/2024	11:36	-128.929	46.296	0	223.60	0	6.2804	0	33.8543	0	26.614	0	221.638	0	112.3	4	37.3	4	-1E+10	1	-1e10	1	-1e10	1	-1E+10	1	-1E+10	1	-1E+10	1
4902624	1	C	07/01/2024	11:36	-128.929	46.296	0	224.60	0	6.2594	0	33.8548	0	26.617	0	222.629	0	112.3	4	37.3	4	-1E+10	1	-1e10	1	-1e10	1	-1E+10	1	-1E+10	1	-1E+10	1
4902624	1	C	07/01/2024	11:36	-128.929	46.296	0	225.00	0	6.2510	0	33.8550	0	26.619	0	223.025	0	-1e10	1	-1e10	1	-1E+10	1	-1e10	1	-1e10	1	-1E+10	1	-1E+10	1	-1E+10	1
4902624	1	C	07/01/2024	11:36	-128.929	46.296	0	225.70	0	6.2410	0	33.8543	0	26.619	0	223.719	0	112.2	4	37.3	4	-1E+10	1	-1e10	1	-1e10	1	-1E+10	1	-1E+10	1	-1E+10	1
4902624	1	C	07/01/2024	11:36	-128.929	46.296	0	226.80	0	6.2253	0	33.8533	0	26.621	0	224.809	0	112.1	4	37.2	4	-1E+10	1	-1e10	1	-1e10	1	-1E+10	1	-1E+10	1	-1E+10	1
4902624	1	C	07/01/2024	11:36	-128.929	46.296	0	227.10	0	6.2210	0	33.8530	0	26.621	0	225.106	0	-1e10	1	-1e10	1	-1E+10	1	-1e10	1	-1e10	1	-1E+10	1	-1E+10	1	-1E+10	1
4902624	1	C	07/01/2024	11:36	-128.929	46.296	0	227.80	0	6.2088	0	33.8523	0	26.622	0	225.799	0	111.9	4	37.1	4	-1E+10	1	-1e10	1	-1e10	1	-1E+10	1	-1E+10	1	-1E+10	1
4902624	1	C	07/01/2024	11:36	-128.929	46.296	0	228.90	0	6.1895	0	33.8512	0	26.624	0	226.889	0	111.8	4	37.1	4	-1E+10	1	-1e10	1	-1e10	1	-1E+10	1	-1E+10	1	-1E+10	1
4902624	1	C	07/01/2024	11:36	-128.929	46.296	0	229.10	0	6.1860	0	33.8510	0	26.624	0	227.087	0	-1e10	1	-1e10	1	-1E+10	1	-1e10	1	-1e10	1	-1E+10	1	-1E+10	1	-1E+10	1
4902624	1	C	07/01/2024	11:36	-128.929	46.296	0	229.90	0	6.1801	0	33.8510	0	26.625	0	227.880	0	111.7	4	37.0	4	-1E+10	1	-1e10	1	-1e10	1	-1E+10	1	-1E+10	1	-1E+10	1
4902624	1	C	07/01/2024	11:36	-128.929	46.296	0	231.00	0	6.1720	0	33.8510	0	26.626	0	228.969	0	109.0	4	36.1	4	-1E+10	1	-1e10	1	-1e10	1	-1E+10	1	-1E+10	1	-1E+10	1
4902624	1	C	07/01/2024	11:36	-128.929	46.296	0	232.10	0	6.1512	0	33.8504	0	26.628	0	230.059	0	111.4	4	36.9	4	-1E+10	1	-1e10	1	-1e10	1	-1E+10	1	-1E+10	1	-1E+10	1
4902624	1	C	07/01/2024	11:36	-128.929	46.296	0	232.90	0	6.1360	0	33.8500	0	26.629	0	230.852	0	-1e10	1	-1e10	1	-1E+10	1	-1e10	1	-1e10	1	-1E+10	1	-1E+10	1	-1E+10	1
4902624	1	C	07/01/2024	11:36	-128.929	46.296	0	233.20	0	6.1287	0	33.8494	0	26.630	0	231.149	0	111.1	4	36.8	4	-1E+10	1	-1e10	1	-1e10	1	-1E+10	1	-1E+10	1	-1E+10	1
4902624	1	C	07/01/2024	11:36	-128.929	46.296	0	234.20	0	6.1044	0	33.8475	0	26.632	0	232.139	0	110.8	4	36.7	4	-1E+10	1	-1e10	1	-1e10	1	-1E+10	1	-1E+10	1	-1E+10	1
4902624	1	C	07/01/2024	11:36	-128.929	46.296	0	235.00	0	6.0850	0	33.8460	0	26.633	0	232.932	0	-1e10	1	-1e10	1	-1E+10	1	-1e10	1	-1e10	1	-1E+10	1	-1E+10	1	-1E+10	1
4902624	1	C	07/01/2024	11:36	-128.929	46.296	0	235.30	0	6.0793	0	33.8460	0	26.633	0	233.229	0	110.2	4	36.5	4	-1E+10	1	-1e10	1	-1e10	1	-1E+10	1	-1E+10	1	-1E+10	1
4902624	1	C	07/01/2024	11:36	-128.929	46.296	0	236.40	0	6.0583	0	33.8460	0	26.636	0	234.319	0	109.6	4	36.3	4	-1E+10	1	-1e10	1	-1e10	1	-1E+10	1	-1E+10	1	-1E+10	1
4902624	1	C	07/01/2024	11:36	-128.929	46.296	0	237.10	0	6.0450	0	33.8460	0	26.638	0	235.012	0	-1e10	1	-1e10	1	-1E+10	1	-1e10	1	-1e10	1	-1E+10	1	-1E+10	1	-1E+10	1
4902624	1	C	07/01/2024	11:36	-128.929	46.296	0	237.50	0	6.0429	0	33.8466	0	26.639	0	235.409	0	109.1	4	36.0	4	-1E+10	1	-1e10	1	-1e10	1	-1E+10	1	-1E+10	1	-1E+10	1
4902624	1	C	07/01/2024	11:36	-128.929	46.296	0	238.60	0	6.0371	0	33.8484	0	26.641	0	236.498	0	108.6	4	35.9	4	-1E+10	1	-1e10	1	-1e10	1	-1E+10	1	-1E+10	1	-1E+10	1
4902624	1	C	07/01/2024	11:36	-128.929	46.296	0	239.00	0	6.0350	0	33.8490	0	26.641	0	236.895	0	-1e10	1	-1e10	1	-1E+10	1	-1e10	1	-1e10	1	-1E+10	1	-1E+10	1	-1E+10	1
4902624	1	C	07/01/2024	11:36	-128.929	46.296	0	239.70	0	6.0313	0	33.8497	0	26.643	0	237.588	0	108.3	4	35.8	4	-1E+10	1	-1e10	1	-1e10	1	-1E+10	1	-1E+10	1	-1E+10	1
4902624	1	C	07/01/2024	11:36	-128.929	46.296	0	240.70	0	6.0261	0	33.8508	0	26.644	0	238.579	0	107.9	4	35.7	4	-1E+10	1	-1e10	1	-1e10	1	-1E+10	1	-1E+10	1	-1E+10	1
4902624	1	C	07/01/2024	11:36	-128.929	46.296	0	240.90	0	6.0250	0	33.8510	0	26.644	0	238.777	0	-1e10	1	-1e10	1	-1E+10	1	-1e10	1	-1e10	1	-1E+10	1	-1E+10	1	-1E+10	1
4902624	1	C	07/01/2024	11:36	-128.929	46.296	0	241.80	0	6.0083	0	33.8501	0	26.646	0	239.668	0	107.5	4	35.5	4	-1E+10	1	-1e10	1	-1e10	1	-1E+10	1	-1E+10	1	-1E+10	1
4902624	1	C	07/01/2024	11:36	-128.929	46.296	0	242.90	0	5.9879	0	33.8491	0	26.647	0	240.758	0	106.9	4	35.3	4	-1E+10	1	-1e10	1	-1e10	1	-1E+10	1	-1E+10	1	-1E+10	1
4902624	1	C	07/01/2024	11:36	-128.929	46.296	0	243.00	0	5.9860	0	33.8490	0	26.648	0	240.857	0	-1e10	1	-1e10	1	-1E+10	1	-1e10	1	-1e10	1	-1E+10	1	-1E+10	1	-1E+10	1
4902624	1	C	07/01/2024	11:36	-128.929	46.296	0	244.00	0	5.9741	0	33.8485	0	26.649	0	241.848	0	106.3	4	35.1	4	-1E+10	1	-1e10	1	-1e10	1	-1E+10	1	-1E+10	1	-1E+10	1
4902624	1	C	07/01/2024	11:36	-128.929	46.296	0	245.10	0	5.9610	0	33.8480	0	26.650	0	242.937	0	103.1	4	34.0	4	-1E+10	1	-1e10	1	-1e10	1	-1E+10	1	-1E+10	1	-1E+10	1
4902624	1	C	07/01/2024	11:36	-128.929	46.296	0	246.20	0	5.9465	0	33.8486	0	26.652	0	244.027	0	104.7	4	34.5	4	-1E+10	1	-1e10	1	-1e10	1	-1E+10	1	-1E+10	1	-1E+10	1
4902624	1	C	07/01/2024	11:36	-128.929	46.296	0	247.00	0	5.9360	0	33.8490	0	26.654	0	244.819	0	-1e10	1	-1e10	1	-1E+10	1	-1e10	1	-1e10	1	-1E+10	1	-1E+10	1	-1E+10	1
4902624	1	C	07/01/2024	11:36	-128.929	46.296	0	247.30	0	5.9348	0	33.8489	0	26.654	0	245.116	0	103.7	4	34.2	4	-1E+10	1	-1e10	1	-1e10	1	-1E+10	1	-1E+10	1	-1E+10	1
4902624	1	C	07/01/2024	11:36	-128.929	46.296	0	248.30	0	5.9308	0	33.8484	0	26.654	0	246.107	0	102.6	4	33.8	4	-1E+10	1	-1e10	1	-1e10	1	-1E+10	1	-1E+10	1	-1E+10	1
4902624	1	C	07/01/2024	11:36	-128.929	46.296	0	249.00	0	5.9280	0	33.8480	0	26.654	0	246.800	0	-1e10	1	-1e10	1	-1E+10	1	-1e10	1	-1e10	1	-1E+10	1	-1E+10	1	-1E+10	1
4902624	1	C	07/01/2024	11:36	-128.929	46.296	0	249.50	0	5.9392	0	33.8515	0	26.655	0	247.296	0	101.6	4	33.5	4	-1E+10	1	-1e10	1	-1e10	1	-1E+10	1	-1E+10	1	-1E+10	1
4902624	1	C	07/01/2024	11:36	-128.929	46.296	0	250.60	0	5.9640	0	33.8592	0	26.659	0	248.385	0	101.2	4	33.4	4	-1E+10	1	-1e10	1	-1e10	1	-1E+10	1	-1E+10	1	-1E+10	1
4902624	1	C	07/01/2024	11:36	-128.929	46.296	0	251.00	0	5.9730	0	33.8620	0	26.660	0	248.782	0	-1e10	1	-1e10	1	-1E+10	1	-1e10	1	-1e10	1	-1E+10	1	-1E+10	1	-1E+10	1
4902624	1	C	07/01/2024	11:36	-128.929	46.296	0	251.60	0	5.9721	0	33.8626	0	26.660	0	249.376	0	100.9	4	33.3	4	-1E+10	1	-1e10	1	-1e10	1	-1E+10	1	-1E+10	1	-1E+10	1
4902624	1	C	07/01/2024	11:36	-128.929	46.296	0	252.80	0	5.9703	0	33.8638	0	26.661	0	250.565	0	100.6	4	33.2	4	-1E+10	1	-1e10	1	-1e10	1	-1E+10	1	-1E+10	1	-1E+10	1
4902624	1	C	07/01/2024	11:36	-128.929	46.296	0	253.00	0	5.9700	0	33.8640	0	26.662	0	250.763	0	-1e10	1	-1e10	1	-1E+10	1	-1e10	1	-1e10	1	-1E+10	1	-1E+10	1	-1E+10	1
4902624	1	C	07/01/2024	11:36	-128.929	46.296	0	253.80	0	5.9624	0	33.8644	0	26.663	0	251.555	0	100.2	4	33.1	4	-1E+10	1	-1e10	1	-1e10	1	-1E+10	1	-1E+10	1	-1E+10	1
4902624	1	C	07/01/2024	11:36	-128.929	46.296	0	254.90	0	5.9520	0	33.8650	0	26.665	0	252.645	0	100.0	4	33.0	4	-1E+10	1	-1e10	1	-1e10	1	-1E+10	1	-1E+10	1	-1E+10	1
4902624	1	C	07/01/2024	11:36	-128.929	46.296	0	255.00	0	5.9510	0	33.8650	0	26.665	0	252.744	0	-1e10	1	-1e10	1	-1E+10	1	-1e10	1	-1e10	1	-1E+10	1	-1E+10	1	-1E+10	1
4902624	1	C	07/01/2024	11:36	-128.929	46.296	0	256.00	0	5.9355	0	33.8660	0	26.667	0	253.734	0	99.7	4	32.9	4	-1E+10	1	-1e10	1	-1e10	1	-1E+10	1	-1E+10	1	-1E+10	1
4902624	1	C	07/01/2024	11:36	-128.929	46.296	0	257.00	0	5.9200	0	33.8670	0	26.670	0	254.725	0	97.1	4	32.0	4	-1E+10	1	-1e10	1	-1e10	1	-1E+10	1	-1E+10	1	-1E+10	1
4902624	1	C	07/01/2024	11:36	-128.929	46.296	0	258.10	0	5.9040	0	33.8653	0	26.671	0	255.814	0	99.2	4	32.7	4	-1E+10	1	-1e10	1	-1e10	1	-1E+10	1	-1E+10	1	-1E+10	1
4902624	1	C	07/01/2024	11:36	-128.929	46.296	0	259.00	0	5.8910	0	33.8640	0	26.671	0	256.706	0	-1e10	1	-1e10	1	-1E+10	1	-1e10	1	-1e10	1	-1E+10	1	-1E+10	1	-1E+10	1
4902624	1	C	07/01/2024	11:36	-128.929	46.296	0	259.20	0	5.8898	0	33.8641	0	26.672	0	256.904	0	98.8	4	32.5	4	-1E+10	1	-1e10	1	-1e10	1	-1E+10	1	-1E+10	1	-1E+10	1
4902624	1	C	07/01/2024	11:36	-128.929	46.296	0	260.30	0	5.8835	0	33.8647	0	26.673	0	257.994	0	98.3	4	32.4	4	-1E+10	1	-1e10	1	-1e10	1	-1E+10	1	-1E+10	1	-1E+10	1
4902624	1	C	07/01/2024	11:36	-128.929	46.296	0	260.90	0	5.8800	0	33.8650	0	26.674	0	258.588	0	-1e10	1	-1e10	1	-1E+10	1	-1e10	1	-1e10	1	-1E+10	1	-1E+10	1	-1E+10	1
4902624	1	C	07/01/2024	11:36	-128.929	46.296	0	261.30	0	5.8760	0	33.8658	0	26.675	0	258.984	0	97.9	4	32.2	4	-1E+10	1	-1e10	1	-1e10	1	-1E+10	1	-1E+10	1	-1E+10	1
4902624	1	C	07/01/2024	11:36	-128.929	46.296	0	262.50	0	5.8640	0	33.8682	0	26.678	0	260.173	0	97.7	4	32.1	4	-1E+10	1	-1e10	1	-1e10	1	-1E+10	1	-1E+10	1	-1E+10	1
4902624	1	C	07/01/2024	11:36	-128.929	46.296	0	262.90	0	5.8600	0	33.8690	0	26.679	0	260.569	0	-1e10	1	-1e10	1	-1E+10	1	-1e10	1	-1e10	1	-1E+10	1	-1E+10	1	-1E+10	1
4902624	1	C	07/01/2024	11:36	-128.929	46.296	0	263.50	0	5.8584	0	33.8690	0	26.679	0	261.163	0	97.4	4	32.1	4	-1E+10	1	-1e10	1	-1e10	1	-1E+10	1	-1E+10	1	-1E+10	1
4902624	1	C	07/01/2024	11:36	-128.929	46.296	0	264.60	0	5.8554	0	33.8690	0	26.680	0	262.253	0	97.2	4	32.0	4	-1E+10	1	-1e10	1	-1e10	1	-1E+10	1	-1E+10	1	-1E+10	1
4902624	1	C	07/01/2024	11:36	-128.929	46.296	0	265.10	0	5.8540	0	33.8690	0	26.680	0	262.748	0	-1e10	1	-1e10	1	-1E+10	1	-1e10	1	-1e10	1	-1E+10	1	-1E+10	1	-1E+10	1
4902624	1	C	07/01/2024	11:36	-128.929	46.296	0	265.70	0	5.8493	0	33.8693	0	26.681	0	263.342	0	97.0	4	31.9	4	-1E+10	1	-1e10	1	-1e10	1	-1E+10	1	-1E+10	1	-1E+10	1
4902624	1	C	07/01/2024	11:36	-128.929	46.296	0	266.80	0	5.8406	0	33.8699	0	26.682	0	264.432	0	96.9	4	31.9	4	-1E+10	1	-1e10	1	-1e10	1	-1E+10	1	-1E+10	1	-1E+10	1
4902624	1	C	07/01/2024	11:36	-128.929	46.296	0	267.00	0	5.8390	0	33.8700	0	26.683	0	264.630	0	-1e10	1	-1e10	1	-1E+10	1	-1e10	1	-1e10	1	-1E+10	1	-1E+10	1	-1E+10	1
4902624	1	C	07/01/2024	11:36	-128.929	46.296	0	267.90	0	5.8224	0	33.8713	0	26.686	0	265.521	0	96.8	4	31.8	4	-1E+10	1	-1e10	1	-1e10	1	-1E+10	1	-1E+10	1	-1E+10	1
4902624	1	C	07/01/2024	11:36	-128.929	46.296	0	269.00	0	5.8020	0	33.8730	0	26.690	0	266.611	0	94.6	4	31.1	4	-1E+10	1	-1e10	1	-1e10	1	-1E+10	1	-1E+10	1	-1E+10	1
4902624	1	C	07/01/2024	11:36	-128.929	46.296	0	270.10	0	5.7695	0	33.8719	0	26.693	0	267.700	0	96.9	4	31.8	4	-1E+10	1	-1e10	1	-1e10	1	-1E+10	1	-1E+10	1	-1E+10	1
4902624	1	C	07/01/2024	11:36	-128.929	46.296	0	271.00	0	5.7430	0	33.8710	0	26.695	0	268.592	0	-1e10	1	-1e10	1	-1E+10	1	-1e10	1	-1e10	1	-1E+10	1	-1E+10	1	-1E+10	1
4902624	1	C	07/01/2024	11:36	-128.929	46.296	0	271.20	0	5.7412	0	33.8707	0	26.695	0	268.790	0	96.8	4	31.8	4	-1E+10	1	-1e10	1	-1e10	1	-1E+10	1	-1E+10	1	-1E+10	1
4902624	1	C	07/01/2024	11:36	-128.929	46.296	0	272.30	0	5.7313	0	33.8690	0	26.695	0	269.879	0	96.7	4	31.7	4	-1E+10	1	-1e10	1	-1e10	1	-1E+10	1	-1E+10	1	-1E+10	1
4902624	1	C	07/01/2024	11:36	-128.929	46.296	0	273.00	0	5.7250	0	33.8680	0	26.695	0	270.573	0	-1e10	1	-1e10	1	-1E+10	1	-1e10	1	-1e10	1	-1E+10	1	-1E+10	1	-1E+10	1
4902624	1	C	07/01/2024	11:36	-128.929	46.296	0	273.40	0	5.7238	0	33.8682	0	26.695	0	270.969	0	96.5	4	31.7	4	-1E+10	1	-1e10	1	-1e10	1	-1E+10	1	-1E+10	1	-1E+10	1
4902624	1	C	07/01/2024	11:36	-128.929	46.296	0	274.50	0	5.7205	0	33.8688	0	26.696	0	272.058	0	96.3	4	31.6	4	-1E+10	1	-1e10	1	-1e10	1	-1E+10	1	-1E+10	1	-1E+10	1
4902624	1	C	07/01/2024	11:36	-128.929	46.296	0	275.00	0	5.7190	0	33.8690	0	26.697	0	272.554	0	-1e10	1	-1e10	1	-1E+10	1	-1e10	1	-1e10	1	-1E+10	1	-1E+10	1	-1E+10	1
4902624	1	C	07/01/2024	11:36	-128.929	46.296	0	275.60	0	5.7156	0	33.8704	0	26.698	0	273.148	0	96.3	4	31.6	4	-1E+10	1	-1e10	1	-1e10	1	-1E+10	1	-1E+10	1	-1E+10	1
4902624	1	C	07/01/2024	11:36	-128.929	46.296	0	276.60	0	5.7099	0	33.8728	0	26.701	0	274.138	0	96.4	4	31.6	4	-1E+10	1	-1e10	1	-1e10	1	-1E+10	1	-1E+10	1	-1E+10	1
4902624	1	C	07/01/2024	11:36	-128.929	46.296	0	277.10	0	5.7070	0	33.8740	0	26.702	0	274.634	0	-1e10	1	-1e10	1	-1E+10	1	-1e10	1	-1e10	1	-1E+10	1	-1E+10	1	-1E+10	1
4902624	1	C	07/01/2024	11:36	-128.929	46.296	0	277.70	0	5.6833	0	33.8716	0	26.703	0	275.228	0	96.4	4	31.6	4	-1E+10	1	-1e10	1	-1e10	1	-1E+10	1	-1E+10	1	-1E+10	1
4902624	1	C	07/01/2024	11:36	-128.929	46.296	0	278.90	0	5.6359	0	33.8668	0	26.705	0	276.416	0	96.1	4	31.5	4	-1E+10	1	-1e10	1	-1e10	1	-1E+10	1	-1E+10	1	-1E+10	1
4902624	1	C	07/01/2024	11:36	-128.929	46.296	0	279.10	0	5.6280	0	33.8660	0	26.705	0	276.614	0	-1e10	1	-1e10	1	-1E+10	1	-1e10	1	-1e10	1	-1E+10	1	-1E+10	1	-1E+10	1
4902624	1	C	07/01/2024	11:36	-128.929	46.296	0	279.90	0	5.6204	0	33.8647	0	26.705	0	277.407	0	95.7	4	31.3	4	-1E+10	1	-1e10	1	-1e10	1	-1E+10	1	-1E+10	1	-1E+10	1
4902624	1	C	07/01/2024	11:36	-128.929	46.296	0	281.00	0	5.6100	0	33.8630	0	26.705	0	278.496	0	-1e10	1	-1e10	1	-1E+10	1	-1e10	1	-1e10	1	-1E+10	1	-1E+10	1	-1E+10	1
4902624	1	C	07/01/2024	11:36	-128.929	46.296	0	281.10	0	5.6095	0	33.8631	0	26.705	0	278.595	0	95.3	4	31.2	4	-1E+10	1	-1e10	1	-1e10	1	-1E+10	1	-1E+10	1	-1E+10	1
4902624	1	C	07/01/2024	11:36	-128.929	46.296	0	282.10	0	5.6045	0	33.8641	0	26.707	0	279.586	0	94.8	4	31.0	4	-1E+10	1	-1e10	1	-1e10	1	-1E+10	1	-1E+10	1	-1E+10	1
4902624	1	C	07/01/2024	11:36	-128.929	46.296	0	283.00	0	5.6000	0	33.8650	0	26.708	0	280.477	0	-1e10	1	-1e10	1	-1E+10	1	-1e10	1	-1e10	1	-1E+10	1	-1E+10	1	-1E+10	1
4902624	1	C	07/01/2024	11:36	-128.929	46.296	0	283.20	0	5.5969	0	33.8650	0	26.708	0	280.675	0	94.4	4	30.9	4	-1E+10	1	-1e10	1	-1e10	1	-1E+10	1	-1E+10	1	-1E+10	1
4902624	1	C	07/01/2024	11:36	-128.929	46.296	0	284.30	0	5.5798	0	33.8650	0	26.710	0	281.765	0	94.0	4	30.7	4	-1E+10	1	-1e10	1	-1e10	1	-1E+10	1	-1E+10	1	-1E+10	1
4902624	1	C	07/01/2024	11:36	-128.929	46.296	0	285.00	0	5.5690	0	33.8650	0	26.712	0	282.458	0	-1e10	1	-1e10	1	-1E+10	1	-1e10	1	-1e10	1	-1E+10	1	-1E+10	1	-1E+10	1
4902624	1	C	07/01/2024	11:36	-128.929	46.296	0	285.50	0	5.5538	0	33.8643	0	26.713	0	282.953	0	93.3	4	30.5	4	-1E+10	1	-1e10	1	-1e10	1	-1E+10	1	-1E+10	1	-1E+10	1
4902624	1	C	07/01/2024	11:36	-128.929	46.296	0	286.60	0	5.5202	0	33.8626	0	26.716	0	284.043	0	92.3	4	30.1	4	-1E+10	1	-1e10	1	-1e10	1	-1E+10	1	-1E+10	1	-1E+10	1
4902624	1	C	07/01/2024	11:36	-128.929	46.296	0	287.00	0	5.5080	0	33.8620	0	26.717	0	284.439	0	-1e10	1	-1e10	1	-1E+10	1	-1e10	1	-1e10	1	-1E+10	1	-1E+10	1	-1E+10	1
4902624	1	C	07/01/2024	11:36	-128.929	46.296	0	287.70	0	5.5048	0	33.8630	0	26.718	0	285.132	0	91.2	4	29.8	4	-1E+10	1	-1e10	1	-1e10	1	-1E+10	1	-1E+10	1	-1E+10	1
4902624	1	C	07/01/2024	11:36	-128.929	46.296	0	288.90	0	5.4995	0	33.8649	0	26.720	0	286.320	0	90.2	4	29.4	4	-1E+10	1	-1e10	1	-1e10	1	-1E+10	1	-1E+10	1	-1E+10	1
4902624	1	C	07/01/2024	11:36	-128.929	46.296	0	289.00	0	5.4990	0	33.8650	0	26.720	0	286.419	0	-1e10	1	-1e10	1	-1E+10	1	-1e10	1	-1e10	1	-1E+10	1	-1E+10	1	-1E+10	1
4902624	1	C	07/01/2024	11:36	-128.929	46.296	0	290.00	0	5.4974	0	33.8676	0	26.722	0	287.410	0	89.4	4	29.2	4	-1E+10	1	-1e10	1	-1e10	1	-1E+10	1	-1E+10	1	-1E+10	1
4902624	1	C	07/01/2024	11:36	-128.929	46.296	0	290.90	0	5.4960	0	33.8700	0	26.724	0	288.301	0	-1e10	1	-1e10	1	-1E+10	1	-1e10	1	-1e10	1	-1E+10	1	-1E+10	1	-1E+10	1
4902624	1	C	07/01/2024	11:36	-128.929	46.296	0	291.10	0	5.4955	0	33.8704	0	26.725	0	288.499	0	88.5	4	28.9	4	-1E+10	1	-1e10	1	-1e10	1	-1E+10	1	-1E+10	1	-1E+10	1
4902624	1	C	07/01/2024	11:36	-128.929	46.296	0	292.20	0	5.4928	0	33.8726	0	26.727	0	289.589	0	87.6	4	28.6	4	-1E+10	1	-1e10	1	-1e10	1	-1E+10	1	-1E+10	1	-1E+10	1
4902624	1	C	07/01/2024	11:36	-128.929	46.296	0	292.90	0	5.4910	0	33.8740	0	26.728	0	290.282	0	-1e10	1	-1e10	1	-1E+10	1	-1e10	1	-1e10	1	-1E+10	1	-1E+10	1	-1E+10	1
4902624	1	C	07/01/2024	11:36	-128.929	46.296	0	293.40	0	5.4918	0	33.8745	0	26.729	0	290.777	0	86.7	4	28.3	4	-1E+10	1	-1e10	1	-1e10	1	-1E+10	1	-1E+10	1	-1E+10	1
4902624	1	C	07/01/2024	11:36	-128.929	46.296	0	294.50	0	5.4934	0	33.8756	0	26.729	0	291.866	0	85.7	4	28.0	4	-1E+10	1	-1e10	1	-1e10	1	-1E+10	1	-1E+10	1	-1E+10	1
4902624	1	C	07/01/2024	11:36	-128.929	46.296	0	294.90	0	5.4940	0	33.8760	0	26.729	0	292.263	0	-1e10	1	-1e10	1	-1E+10	1	-1e10	1	-1e10	1	-1E+10	1	-1E+10	1	-1E+10	1
4902624	1	C	07/01/2024	11:36	-128.929	46.296	0	295.90	0	5.4973	0	33.8789	0	26.731	0	293.253	0	84.8	4	27.7	4	-1E+10	1	-1e10	1	-1e10	1	-1E+10	1	-1E+10	1	-1E+10	1
4902624	1	C	07/01/2024	11:36	-128.929	46.296	0	297.00	0	5.5010	0	33.8820	0	26.733	0	294.342	0	-1e10	1	-1e10	1	-1E+10	1	-1e10	1	-1e10	1	-1E+10	1	-1E+10	1	-1E+10	1
4902624	1	C	07/01/2024	11:36	-128.929	46.296	0	299.00	0	5.5130	0	33.8860	0	26.735	0	296.323	0	-1e10	1	-1e10	1	-1E+10	1	-1e10	1	-1e10	1	-1E+10	1	-1E+10	1	-1E+10	1
4902624	1	C	07/01/2024	11:36	-128.929	46.296	0	305.10	0	5.5060	0	33.9010	0	26.748	0	302.364	0	-1e10	1	-1e10	1	-1E+10	1	-1e10	1	-1e10	1	-1E+10	1	-1E+10	1	-1E+10	1
4902624	1	C	07/01/2024	11:36	-128.929	46.296	0	307.60	0	5.4884	0	33.9030	0	26.752	0	304.840	0	78.3	4	25.5	4	-1E+10	1	-1e10	1	-1e10	1	-1E+10	1	-1E+10	1	-1E+10	1
4902624	1	C	07/01/2024	11:36	-128.929	46.296	0	315.30	0	5.4340	0	33.9090	0	26.763	0	312.465	0	-1e10	1	-1e10	1	-1E+10	1	-1e10	1	-1e10	1	-1E+10	1	-1E+10	1	-1E+10	1
4902624	1	C	07/01/2024	11:36	-128.929	46.296	0	319.70	0	5.4008	0	33.9112	0	26.769	0	316.822	0	75.0	4	24.4	4	-1E+10	1	-1e10	1	-1e10	1	-1E+10	1	-1E+10	1	-1E+10	1
4902624	1	C	07/01/2024	11:36	-128.929	46.296	0	325.10	0	5.3600	0	33.9140	0	26.776	0	322.169	0	-1e10	1	-1e10	1	-1E+10	1	-1e10	1	-1e10	1	-1E+10	1	-1E+10	1	-1E+10	1
4902624	1	C	07/01/2024	11:36	-128.929	46.296	0	329.50	0	5.3195	0	33.9149	0	26.781	0	326.526	0	73.4	4	23.9	4	-1E+10	1	-1e10	1	-1e10	1	-1E+10	1	-1E+10	1	-1E+10	1
4902624	1	C	07/01/2024	11:36	-128.929	46.296	0	335.10	0	5.2680	0	33.9160	0	26.788	0	332.071	0	-1e10	1	-1e10	1	-1E+10	1	-1e10	1	-1e10	1	-1E+10	1	-1E+10	1	-1E+10	1
4902624	1	C	07/01/2024	11:36	-128.929	46.296	0	337.50	0	5.2558	0	33.9182	0	26.791	0	334.447	0	71.1	4	23.1	4	-1E+10	1	-1e10	1	-1e10	1	-1E+10	1	-1E+10	1	-1E+10	1
4902624	1	C	07/01/2024	11:36	-128.929	46.296	0	344.90	0	5.2180	0	33.9250	0	26.801	0	341.774	0	-1e10	1	-1e10	1	-1E+10	1	-1e10	1	-1e10	1	-1E+10	1	-1E+10	1	-1E+10	1
4902624	1	C	07/01/2024	11:36	-128.929	46.296	0	345.90	0	5.2124	0	33.9255	0	26.802	0	342.764	0	68.8	4	22.3	4	-1E+10	1	-1e10	1	-1e10	1	-1E+10	1	-1E+10	1	-1E+10	1
4902624	1	C	07/01/2024	11:36	-128.929	46.296	0	354.50	0	5.1639	0	33.9297	0	26.811	0	351.279	0	67.6	4	21.9	4	-1E+10	1	-1e10	1	-1e10	1	-1E+10	1	-1E+10	1	-1E+10	1
4902624	1	C	07/01/2024	11:36	-128.929	46.296	0	355.20	0	5.1600	0	33.9300	0	26.812	0	351.972	0	-1e10	1	-1e10	1	-1E+10	1	-1e10	1	-1e10	1	-1E+10	1	-1E+10	1	-1E+10	1
4902624	1	C	07/01/2024	11:36	-128.929	46.296	0	363.30	0	5.0831	0	33.9317	0	26.822	0	359.991	0	65.8	4	21.3	4	-1E+10	1	-1e10	1	-1e10	1	-1E+10	1	-1E+10	1	-1E+10	1
4902624	1	C	07/01/2024	11:36	-128.929	46.296	0	365.00	0	5.0670	0	33.9320	0	26.824	0	361.675	0	-1e10	1	-1e10	1	-1E+10	1	-1e10	1	-1e10	1	-1E+10	1	-1E+10	1	-1E+10	1
4902624	1	C	07/01/2024	11:36	-128.929	46.296	0	372.10	0	5.0369	0	33.9356	0	26.831	0	368.704	0	63.8	4	20.6	4	-1E+10	1	-1e10	1	-1e10	1	-1E+10	1	-1E+10	1	-1E+10	1
4902624	1	C	07/01/2024	11:36	-128.929	46.296	0	374.90	0	5.0250	0	33.9370	0	26.833	0	371.475	0	-1e10	1	-1e10	1	-1E+10	1	-1e10	1	-1e10	1	-1E+10	1	-1E+10	1	-1E+10	1
4902624	1	C	07/01/2024	11:36	-128.929	46.296	0	381.10	0	4.9805	0	33.9430	0	26.843	0	377.613	0	61.0	4	19.7	4	-1E+10	1	-1e10	1	-1e10	1	-1E+10	1	-1E+10	1	-1E+10	1
4902624	1	C	07/01/2024	11:36	-128.929	46.296	0	385.20	0	4.9510	0	33.9470	0	26.850	0	381.672	0	-1e10	1	-1e10	1	-1E+10	1	-1e10	1	-1e10	1	-1E+10	1	-1E+10	1	-1E+10	1
4902624	1	C	07/01/2024	11:36	-128.929	46.296	0	390.60	0	4.9348	0	33.9524	0	26.856	0	387.017	0	58.7	4	18.9	4	-1E+10	1	-1e10	1	-1e10	1	-1E+10	1	-1E+10	1	-1E+10	1
4902624	1	C	07/01/2024	11:36	-128.929	46.296	0	395.20	0	4.9210	0	33.9570	0	26.861	0	391.571	0	-1e10	1	-1e10	1	-1E+10	1	-1e10	1	-1e10	1	-1E+10	1	-1E+10	1	-1E+10	1
4902624	1	C	07/01/2024	11:36	-128.929	46.296	0	400.20	0	4.8844	0	33.9601	0	26.868	0	396.520	0	57.1	4	18.4	4	-1E+10	1	-1e10	1	-1e10	1	-1E+10	1	-1E+10	1	-1E+10	1
4902624	1	C	07/01/2024	11:36	-128.929	46.296	0	404.90	0	4.8500	0	33.9630	0	26.874	0	401.172	0	-1e10	1	-1e10	1	-1E+10	1	-1e10	1	-1e10	1	-1E+10	1	-1E+10	1	-1E+10	1
4902624	1	C	07/01/2024	11:36	-128.929	46.296	0	409.80	0	4.8156	0	33.9630	0	26.878	0	406.022	0	56.5	4	18.2	4	-1E+10	1	-1e10	1	-1e10	1	-1E+10	1	-1E+10	1	-1E+10	1
4902624	1	C	07/01/2024	11:36	-128.929	46.296	0	415.00	0	4.7790	0	33.9630	0	26.882	0	411.169	0	-1e10	1	-1e10	1	-1E+10	1	-1e10	1	-1e10	1	-1E+10	1	-1E+10	1	-1E+10	1
4902624	1	C	07/01/2024	11:36	-128.929	46.296	0	420.00	0	4.7641	0	33.9655	0	26.885	0	416.118	0	54.8	4	17.6	4	-1E+10	1	-1e10	1	-1e10	1	-1E+10	1	-1E+10	1	-1E+10	1
4902624	1	C	07/01/2024	11:36	-128.929	46.296	0	425.10	0	4.7490	0	33.9680	0	26.889	0	421.166	0	-1e10	1	-1e10	1	-1E+10	1	-1e10	1	-1e10	1	-1E+10	1	-1E+10	1	-1E+10	1
4902624	1	C	07/01/2024	11:36	-128.929	46.296	0	430.30	0	4.7422	0	33.9727	0	26.894	0	426.312	0	52.1	4	16.7	4	-1E+10	1	-1e10	1	-1e10	1	-1E+10	1	-1E+10	1	-1E+10	1
4902624	1	C	07/01/2024	11:36	-128.929	46.296	0	435.00	0	4.7360	0	33.9770	0	26.898	0	430.964	0	-1e10	1	-1e10	1	-1E+10	1	-1e10	1	-1e10	1	-1E+10	1	-1E+10	1	-1E+10	1
4902624	1	C	07/01/2024	11:36	-128.929	46.296	0	440.40	0	4.7323	0	33.9861	0	26.905	0	436.308	0	48.8	4	15.7	4	-1E+10	1	-1e10	1	-1e10	1	-1E+10	1	-1E+10	1	-1E+10	1
4902624	1	C	07/01/2024	11:36	-128.929	46.296	0	445.10	0	4.7290	0	33.9940	0	26.912	0	440.960	0	-1e10	1	-1e10	1	-1E+10	1	-1e10	1	-1e10	1	-1E+10	1	-1E+10	1	-1E+10	1
4902624	1	C	07/01/2024	11:36	-128.929	46.296	0	450.50	0	4.7409	0	33.9994	0	26.915	0	446.304	0	46.7	4	15.0	4	-1E+10	1	-1e10	1	-1e10	1	-1E+10	1	-1E+10	1	-1E+10	1
4902624	1	C	07/01/2024	11:36	-128.929	46.296	0	455.10	0	4.7510	0	34.0040	0	26.918	0	450.856	0	-1e10	1	-1e10	1	-1E+10	1	-1e10	1	-1e10	1	-1E+10	1	-1E+10	1	-1E+10	1
4902624	1	C	07/01/2024	11:36	-128.929	46.296	0	460.60	0	4.7112	0	34.0045	0	26.923	0	456.298	0	45.3	4	14.5	4	-1E+10	1	-1e10	1	-1e10	1	-1E+10	1	-1E+10	1	-1E+10	1
4902624	1	C	07/01/2024	11:36	-128.929	46.296	0	465.20	0	4.6780	0	34.0050	0	26.927	0	460.850	0	-1e10	1	-1e10	1	-1E+10	1	-1e10	1	-1e10	1	-1E+10	1	-1E+10	1	-1E+10	1
4902624	1	C	07/01/2024	11:36	-128.929	46.296	0	470.60	0	4.6775	0	34.0146	0	26.934	0	466.194	0	41.1	4	13.2	4	-1E+10	1	-1e10	1	-1e10	1	-1E+10	1	-1E+10	1	-1E+10	1
4902624	1	C	07/01/2024	11:36	-128.929	46.296	0	475.30	0	4.6770	0	34.0230	0	26.941	0	470.844	0	-1e10	1	-1e10	1	-1E+10	1	-1e10	1	-1e10	1	-1E+10	1	-1E+10	1	-1E+10	1
4902624	1	C	07/01/2024	11:36	-128.929	46.296	0	480.70	0	4.6646	0	34.0292	0	26.947	0	476.188	0	38.1	4	12.2	4	-1E+10	1	-1e10	1	-1e10	1	-1E+10	1	-1E+10	1	-1E+10	1
4902624	1	C	07/01/2024	11:36	-128.929	46.296	0	484.90	0	4.6550	0	34.0340	0	26.952	0	480.343	0	-1e10	1	-1e10	1	-1E+10	1	-1e10	1	-1e10	1	-1E+10	1	-1E+10	1	-1E+10	1
4902624	1	C	07/01/2024	11:36	-128.929	46.296	0	491.20	0	4.6437	0	34.0466	0	26.964	0	486.577	0	33.7	4	10.8	4	-1E+10	1	-1e10	1	-1e10	1	-1E+10	1	-1E+10	1	-1E+10	1
4902624	1	C	07/01/2024	11:36	-128.929	46.296	0	494.90	0	4.6370	0	34.0540	0	26.970	0	490.238	0	-1e10	1	-1e10	1	-1E+10	1	-1e10	1	-1e10	1	-1E+10	1	-1E+10	1	-1E+10	1
4902624	1	C	07/01/2024	11:36	-128.929	46.296	0	501.80	0	4.5789	0	34.0588	0	26.980	0	497.064	0	32.3	4	10.3	4	-1E+10	1	-1e10	1	-1e10	1	-1E+10	1	-1E+10	1	-1E+10	1
4902624	1	C	07/01/2024	11:36	-128.929	46.296	0	505.00	0	4.5520	0	34.0610	0	26.985	0	500.230	0	-1e10	1	-1e10	1	-1E+10	1	-1e10	1	-1e10	1	-1E+10	1	-1E+10	1	-1E+10	1
4902624	1	C	07/01/2024	11:36	-128.929	46.296	0	512.70	0	4.5243	0	34.0687	0	26.994	0	507.848	0	29.7	4	9.5	4	-1E+10	1	-1e10	1	-1e10	1	-1E+10	1	-1E+10	1	-1E+10	1
4902624	1	C	07/01/2024	11:36	-128.929	46.296	0	515.00	0	4.5160	0	34.0710	0	26.997	0	510.124	0	-1e10	1	-1e10	1	-1E+10	1	-1e10	1	-1e10	1	-1E+10	1	-1E+10	1	-1E+10	1
4902624	1	C	07/01/2024	11:36	-128.929	46.296	0	523.90	0	4.5069	0	34.0810	0	27.006	0	518.928	0	27.5	4	8.8	4	-1E+10	1	-1e10	1	-1e10	1	-1E+10	1	-1E+10	1	-1E+10	1
4902624	1	C	07/01/2024	11:36	-128.929	46.296	0	524.80	0	4.5060	0	34.0820	0	27.007	0	519.819	0	-1e10	1	-1e10	1	-1E+10	1	-1e10	1	-1e10	1	-1E+10	1	-1E+10	1	-1E+10	1
4902624	1	C	07/01/2024	11:36	-128.929	46.296	0	534.70	0	4.4850	0	34.0900	0	27.016	0	529.612	0	-1e10	1	-1e10	1	-1E+10	1	-1e10	1	-1e10	1	-1E+10	1	-1E+10	1	-1E+10	1
4902624	1	C	07/01/2024	11:36	-128.929	46.296	0	535.40	0	4.4834	0	34.0908	0	27.016	0	530.304	0	25.3	4	8.1	4	-1E+10	1	-1e10	1	-1e10	1	-1E+10	1	-1E+10	1	-1E+10	1
4902624	1	C	07/01/2024	11:36	-128.929	46.296	0	544.90	0	4.4620	0	34.1010	0	27.027	0	539.702	0	-1e10	1	-1e10	1	-1E+10	1	-1e10	1	-1e10	1	-1E+10	1	-1E+10	1	-1E+10	1
4902624	1	C	07/01/2024	11:36	-128.929	46.296	0	547.20	0	4.4582	0	34.1028	0	27.029	0	541.977	0	23.5	4	7.5	4	-1E+10	1	-1e10	1	-1e10	1	-1E+10	1	-1E+10	1	-1E+10	1
4902624	1	C	07/01/2024	11:36	-128.929	46.296	0	555.30	0	4.4450	0	34.1090	0	27.035	0	549.989	0	-1e10	1	-1e10	1	-1E+10	1	-1e10	1	-1e10	1	-1E+10	1	-1E+10	1	-1E+10	1
4902624	1	C	07/01/2024	11:36	-128.929	46.296	0	559.20	0	4.4426	0	34.1126	0	27.038	0	553.846	0	21.9	4	7.0	4	-1E+10	1	-1e10	1	-1e10	1	-1E+10	1	-1E+10	1	-1E+10	1
4902624	1	C	07/01/2024	11:36	-128.929	46.296	0	565.10	0	4.4390	0	34.1180	0	27.043	0	559.682	0	-1e10	1	-1e10	1	-1E+10	1	-1e10	1	-1e10	1	-1E+10	1	-1E+10	1	-1E+10	1
4902624	1	C	07/01/2024	11:36	-128.929	46.296	0	571.40	0	4.4339	0	34.1251	0	27.049	0	565.913	0	20.1	4	6.4	4	-1E+10	1	-1e10	1	-1e10	1	-1E+10	1	-1E+10	1	-1E+10	1
4902624	1	C	07/01/2024	11:36	-128.929	46.296	0	574.90	0	4.4310	0	34.1290	0	27.053	0	569.374	0	-1e10	1	-1e10	1	-1E+10	1	-1e10	1	-1e10	1	-1E+10	1	-1E+10	1	-1E+10	1
4902624	1	C	07/01/2024	11:36	-128.929	46.296	0	582.00	0	4.4220	0	34.1367	0	27.060	0	576.396	0	18.9	4	6.0	4	-1E+10	1	-1e10	1	-1e10	1	-1E+10	1	-1E+10	1	-1E+10	1
4902624	1	C	07/01/2024	11:36	-128.929	46.296	0	585.10	0	4.4180	0	34.1400	0	27.063	0	579.462	0	-1e10	1	-1e10	1	-1E+10	1	-1e10	1	-1e10	1	-1E+10	1	-1E+10	1	-1E+10	1
4902624	1	C	07/01/2024	11:36	-128.929	46.296	0	590.00	0	4.4010	0	34.1455	0	27.069	0	584.308	0	17.8	4	5.7	4	-1E+10	1	-1e10	1	-1e10	1	-1E+10	1	-1E+10	1	-1E+10	1
4902624	1	C	07/01/2024	11:36	-128.929	46.296	0	594.90	0	4.3840	0	34.1510	0	27.075	0	589.154	0	-1e10	1	-1e10	1	-1E+10	1	-1e10	1	-1e10	1	-1E+10	1	-1E+10	1	-1E+10	1
4902624	1	C	07/01/2024	11:36	-128.929	46.296	0	598.50	0	4.3708	0	34.1553	0	27.080	0	592.714	0	16.5	4	5.3	4	-1E+10	1	-1e10	1	-1e10	1	-1E+10	1	-1E+10	1	-1E+10	1
4902624	1	C	07/01/2024	11:36	-128.929	46.296	0	605.00	0	4.3470	0	34.1630	0	27.089	0	599.142	0	-1e10	1	-1e10	1	-1E+10	1	-1e10	1	-1e10	1	-1E+10	1	-1E+10	1	-1E+10	1
4902624	1	C	07/01/2024	11:36	-128.929	46.296	0	607.50	0	4.3368	0	34.1650	0	27.092	0	601.614	0	15.7	4	5.0	4	-1E+10	1	-1e10	1	-1e10	1	-1E+10	1	-1E+10	1	-1E+10	1
4902624	1	C	07/01/2024	11:36	-128.929	46.296	0	615.00	0	4.3060	0	34.1710	0	27.100	0	609.030	0	-1e10	1	-1e10	1	-1E+10	1	-1e10	1	-1e10	1	-1E+10	1	-1E+10	1	-1E+10	1
4902624	1	C	07/01/2024	11:36	-128.929	46.296	0	616.80	0	4.3016	0	34.1726	0	27.101	0	610.810	0	14.8	4	4.7	4	-1E+10	1	-1e10	1	-1e10	1	-1E+10	1	-1E+10	1	-1E+10	1
4902624	1	C	07/01/2024	11:36	-128.929	46.296	0	624.90	0	4.2820	0	34.1800	0	27.109	0	618.820	0	-1e10	1	-1e10	1	-1E+10	1	-1e10	1	-1e10	1	-1E+10	1	-1E+10	1	-1E+10	1
4902624	1	C	07/01/2024	11:36	-128.929	46.296	0	626.40	0	4.2786	0	34.1812	0	27.111	0	620.303	0	14.1	4	4.5	4	-1E+10	1	-1e10	1	-1e10	1	-1E+10	1	-1E+10	1	-1E+10	1
4902624	1	C	07/01/2024	11:36	-128.929	46.296	0	635.10	0	4.2590	0	34.1880	0	27.118	0	628.905	0	-1e10	1	-1e10	1	-1E+10	1	-1e10	1	-1e10	1	-1E+10	1	-1E+10	1	-1E+10	1
4902624	1	C	07/01/2024	11:36	-128.929	46.296	0	636.00	0	4.2566	0	34.1887	0	27.119	0	629.795	0	13.4	4	4.2	4	-1E+10	1	-1e10	1	-1e10	1	-1E+10	1	-1E+10	1	-1E+10	1
4902624	1	C	07/01/2024	11:36	-128.929	46.296	0	645.10	0	4.2320	0	34.1960	0	27.128	0	638.792	0	-1e10	1	-1e10	1	-1E+10	1	-1e10	1	-1e10	1	-1E+10	1	-1E+10	1	-1E+10	1
4902624	1	C	07/01/2024	11:36	-128.929	46.296	0	645.90	0	4.2296	0	34.1966	0	27.128	0	639.583	0	12.7	4	4.0	4	-1E+10	1	-1e10	1	-1e10	1	-1E+10	1	-1E+10	1	-1E+10	1
4902624	1	C	07/01/2024	11:36	-128.929	46.296	0	655.10	0	4.2020	0	34.2030	0	27.136	0	648.679	0	-1e10	1	-1e10	1	-1E+10	1	-1e10	1	-1e10	1	-1E+10	1	-1E+10	1	-1E+10	1
4902624	1	C	07/01/2024	11:36	-128.929	46.296	0	656.00	0	4.2029	0	34.2038	0	27.137	0	649.569	0	12.2	4	3.9	4	-1E+10	1	-1e10	1	-1e10	1	-1E+10	1	-1E+10	1	-1E+10	1
4902624	1	C	07/01/2024	11:36	-128.929	46.296	0	664.80	0	4.2120	0	34.2120	0	27.143	0	658.268	0	-1e10	1	-1e10	1	-1E+10	1	-1e10	1	-1e10	1	-1E+10	1	-1E+10	1	-1E+10	1
4902624	1	C	07/01/2024	11:36	-128.929	46.296	0	666.20	0	4.2091	0	34.2128	0	27.143	0	659.652	0	11.7	4	3.7	4	-1E+10	1	-1e10	1	-1e10	1	-1E+10	1	-1E+10	1	-1E+10	1
4902624	1	C	07/01/2024	11:36	-128.929	46.296	0	675.00	0	4.1910	0	34.2180	0	27.150	0	668.352	0	-1e10	1	-1e10	1	-1E+10	1	-1e10	1	-1e10	1	-1E+10	1	-1E+10	1	-1E+10	1
4902624	1	C	07/01/2024	11:36	-128.929	46.296	0	676.40	0	4.1879	0	34.2190	0	27.151	0	669.736	0	11.2	4	3.6	4	-1E+10	1	-1e10	1	-1e10	1	-1E+10	1	-1E+10	1	-1E+10	1
4902624	1	C	07/01/2024	11:36	-128.929	46.296	0	685.00	0	4.1690	0	34.2250	0	27.158	0	678.237	0	-1e10	1	-1e10	1	-1E+10	1	-1e10	1	-1e10	1	-1E+10	1	-1E+10	1	-1E+10	1
4902624	1	C	07/01/2024	11:36	-128.929	46.296	0	686.80	0	4.1661	0	34.2267	0	27.159	0	680.016	0	10.7	4	3.4	4	-1E+10	1	-1e10	1	-1e10	1	-1E+10	1	-1E+10	1	-1E+10	1
4902624	1	C	07/01/2024	11:36	-128.929	46.296	0	694.80	0	4.1530	0	34.2340	0	27.166	0	687.924	0	-1e10	1	-1e10	1	-1E+10	1	-1e10	1	-1e10	1	-1E+10	1	-1E+10	1	-1E+10	1
4902624	1	C	07/01/2024	11:36	-128.929	46.296	0	697.00	0	4.1461	0	34.2346	0	27.168	0	690.099	0	10.6	4	3.4	4	-1E+10	1	-1e10	1	-1e10	1	-1E+10	1	-1E+10	1	-1E+10	1
4902624	1	C	07/01/2024	11:36	-128.929	46.296	0	705.00	0	4.1210	0	34.2370	0	27.172	0	698.006	0	-1e10	1	-1e10	1	-1E+10	1	-1e10	1	-1e10	1	-1E+10	1	-1E+10	1	-1E+10	1
4902624	1	C	07/01/2024	11:36	-128.929	46.296	0	707.30	0	4.1148	0	34.2384	0	27.174	0	700.279	0	72.2	4	22.9	4	-1E+10	1	-1e10	1	-1e10	1	-1E+10	1	-1E+10	1	-1E+10	1
4902624	1	C	07/01/2024	11:36	-128.929	46.296	0	715.00	0	4.0940	0	34.2430	0	27.180	0	707.890	0	-1e10	1	-1e10	1	-1E+10	1	-1e10	1	-1e10	1	-1E+10	1	-1E+10	1	-1E+10	1
4902624	1	C	07/01/2024	11:36	-128.929	46.296	0	717.60	0	4.0901	0	34.2443	0	27.181	0	710.460	0	48.8	4	15.4	4	-1E+10	1	-1e10	1	-1e10	1	-1E+10	1	-1E+10	1	-1E+10	1
4902624	1	C	07/01/2024	11:36	-128.929	46.296	0	725.10	0	4.0790	0	34.2480	0	27.185	0	717.872	0	-1e10	1	-1e10	1	-1E+10	1	-1e10	1	-1e10	1	-1E+10	1	-1E+10	1	-1E+10	1
4902624	1	C	07/01/2024	11:36	-128.929	46.296	0	728.10	0	4.0708	0	34.2495	0	27.187	0	720.837	0	65.8	4	20.8	4	-1E+10	1	-1e10	1	-1e10	1	-1E+10	1	-1E+10	1	-1E+10	1
4902624	1	C	07/01/2024	11:36	-128.929	46.296	0	735.30	0	4.0510	0	34.2530	0	27.192	0	727.953	0	-1e10	1	-1e10	1	-1E+10	1	-1e10	1	-1e10	1	-1E+10	1	-1E+10	1	-1E+10	1
4902624	1	C	07/01/2024	11:36	-128.929	46.296	0	738.60	0	4.0390	0	34.2553	0	27.195	0	731.214	0	22.3	8	7.0	8	-1E+10	1	-1e10	1	-1e10	1	-1E+10	1	-1E+10	1	-1E+10	1
4902624	1	C	07/01/2024	11:36	-128.929	46.296	0	745.20	0	4.0150	0	34.2600	0	27.202	0	737.736	0	-1e10	1	-1e10	1	-1E+10	1	-1e10	1	-1e10	1	-1E+10	1	-1E+10	1	-1E+10	1
4902624	1	C	07/01/2024	11:36	-128.929	46.296	0	749.40	0	4.0074	0	34.2621	0	27.204	0	741.887	0	65.8	8	20.8	8	-1E+10	1	-1e10	1	-1e10	1	-1E+10	1	-1E+10	1	-1E+10	1
4902624	1	C	07/01/2024	11:36	-128.929	46.296	0	755.20	0	3.9970	0	34.2650	0	27.208	0	747.618	0	-1e10	1	-1e10	1	-1E+10	1	-1e10	1	-1e10	1	-1E+10	1	-1E+10	1	-1E+10	1
4902624	1	C	07/01/2024	11:36	-128.929	46.296	0	760.30	0	3.9872	0	34.2676	0	27.211	0	752.658	0	35.9	8	11.3	8	-1E+10	1	-1e10	1	-1e10	1	-1E+10	1	-1E+10	1	-1E+10	1
4902624	1	C	07/01/2024	11:36	-128.929	46.296	0	765.10	0	3.9780	0	34.2700	0	27.214	0	757.401	0	-1e10	1	-1e10	1	-1E+10	1	-1e10	1	-1e10	1	-1E+10	1	-1E+10	1	-1E+10	1
4902624	1	C	07/01/2024	11:36	-128.929	46.296	0	771.50	0	3.9655	0	34.2738	0	27.218	0	763.725	0	78.7	4	24.9	4	-1E+10	1	-1e10	1	-1e10	1	-1E+10	1	-1E+10	1	-1E+10	1
4902624	1	C	07/01/2024	11:36	-128.929	46.296	0	775.30	0	3.9580	0	34.2760	0	27.220	0	767.479	0	-1e10	1	-1e10	1	-1E+10	1	-1e10	1	-1e10	1	-1E+10	1	-1E+10	1	-1E+10	1
4902624	1	C	07/01/2024	11:36	-128.929	46.296	0	783.00	0	3.9382	0	34.2808	0	27.226	0	775.087	0	74.9	4	23.6	4	-1E+10	1	-1e10	1	-1e10	1	-1E+10	1	-1E+10	1	-1E+10	1
4902624	1	C	07/01/2024	11:36	-128.929	46.296	0	785.00	0	3.9330	0	34.2820	0	27.228	0	777.064	0	-1e10	1	-1e10	1	-1E+10	1	-1e10	1	-1e10	1	-1E+10	1	-1E+10	1	-1E+10	1
4902624	1	C	07/01/2024	11:36	-128.929	46.296	0	794.80	0	3.8981	0	34.2888	0	27.237	0	786.746	0	69.6	4	22.0	4	-1E+10	1	-1e10	1	-1e10	1	-1E+10	1	-1E+10	1	-1E+10	1
4902624	1	C	07/01/2024	11:36	-128.929	46.296	0	795.10	0	3.8970	0	34.2890	0	27.237	0	787.042	0	-1e10	1	-1e10	1	-1E+10	1	-1e10	1	-1e10	1	-1E+10	1	-1E+10	1	-1E+10	1
4902624	1	C	07/01/2024	11:36	-128.929	46.296	0	803.20	0	3.8713	0	34.2970	0	27.246	0	795.045	0	68.2	4	21.5	4	-1E+10	1	-1e10	1	-1e10	1	-1E+10	1	-1E+10	1	-1E+10	1
4902624	1	C	07/01/2024	11:36	-128.929	46.296	0	805.20	0	3.8650	0	34.2990	0	27.248	0	797.021	0	-1e10	1	-1e10	1	-1E+10	1	-1e10	1	-1e10	1	-1E+10	1	-1E+10	1	-1E+10	1
4902624	1	C	07/01/2024	11:36	-128.929	46.296	0	810.90	0	3.8547	0	34.3018	0	27.252	0	802.652	0	70.4	4	22.2	4	-1E+10	1	-1e10	1	-1e10	1	-1E+10	1	-1E+10	1	-1E+10	1
4902624	1	C	07/01/2024	11:36	-128.929	46.296	0	815.20	0	3.8470	0	34.3040	0	27.254	0	806.900	0	-1e10	1	-1e10	1	-1E+10	1	-1e10	1	-1e10	1	-1E+10	1	-1E+10	1	-1E+10	1
4902624	1	C	07/01/2024	11:36	-128.929	46.296	0	819.10	0	3.8406	0	34.3056	0	27.256	0	810.753	0	73.4	4	23.1	4	-1E+10	1	-1e10	1	-1e10	1	-1E+10	1	-1E+10	1	-1E+10	1
4902624	1	C	07/01/2024	11:36	-128.929	46.296	0	824.90	0	3.8310	0	34.3080	0	27.259	0	816.482	0	-1e10	1	-1e10	1	-1E+10	1	-1e10	1	-1e10	1	-1E+10	1	-1E+10	1	-1E+10	1
4902624	1	C	07/01/2024	11:36	-128.929	46.296	0	827.50	0	3.8248	0	34.3095	0	27.261	0	819.051	0	70.0	4	22.0	4	-1E+10	1	-1e10	1	-1e10	1	-1E+10	1	-1E+10	1	-1E+10	1
4902624	1	C	07/01/2024	11:36	-128.929	46.296	0	835.00	0	3.8070	0	34.3140	0	27.266	0	826.459	0	-1e10	1	-1e10	1	-1E+10	1	-1e10	1	-1e10	1	-1E+10	1	-1E+10	1	-1E+10	1
4902624	1	C	07/01/2024	11:36	-128.929	46.296	0	836.40	0	3.8039	0	34.3146	0	27.267	0	827.842	0	70.6	4	22.2	4	-1E+10	1	-1e10	1	-1e10	1	-1E+10	1	-1E+10	1	-1E+10	1
4902624	1	C	07/01/2024	11:36	-128.929	46.296	0	845.00	0	3.7850	0	34.3180	0	27.272	0	836.337	0	-1e10	1	-1e10	1	-1E+10	1	-1e10	1	-1e10	1	-1E+10	1	-1E+10	1	-1E+10	1
4902624	1	C	07/01/2024	11:36	-128.929	46.296	0	845.80	0	3.7839	0	34.3183	0	27.272	0	837.127	0	69.8	4	21.9	4	-1E+10	1	-1e10	1	-1e10	1	-1E+10	1	-1E+10	1	-1E+10	1
4902624	1	C	07/01/2024	11:36	-128.929	46.296	0	854.80	0	3.7720	0	34.3220	0	27.276	0	846.017	0	-1e10	1	-1e10	1	-1E+10	1	-1e10	1	-1e10	1	-1E+10	1	-1E+10	1	-1E+10	1
4902624	1	C	07/01/2024	11:36	-128.929	46.296	0	855.60	0	3.7707	0	34.3224	0	27.277	0	846.807	0	69.5	4	21.8	4	-1E+10	1	-1e10	1	-1e10	1	-1E+10	1	-1E+10	1	-1E+10	1
4902624	1	C	07/01/2024	11:36	-128.929	46.296	0	865.00	0	3.7560	0	34.3270	0	27.282	0	856.091	0	-1e10	1	-1e10	1	-1E+10	1	-1e10	1	-1e10	1	-1E+10	1	-1E+10	1	-1E+10	1
4902624	1	C	07/01/2024	11:36	-128.929	46.296	0	865.60	0	3.7549	0	34.3275	0	27.282	0	856.683	0	73.7	4	23.2	4	-1E+10	1	-1e10	1	-1e10	1	-1E+10	1	-1E+10	1	-1E+10	1
4902624	1	C	07/01/2024	11:36	-128.929	46.296	0	875.10	0	3.7370	0	34.3350	0	27.290	0	866.066	0	-1e10	1	-1e10	1	-1E+10	1	-1e10	1	-1e10	1	-1E+10	1	-1E+10	1	-1E+10	1
4902624	1	C	07/01/2024	11:36	-128.929	46.296	0	875.90	0	3.7361	0	34.3353	0	27.291	0	866.856	0	76.1	4	23.9	4	-1E+10	1	-1e10	1	-1e10	1	-1E+10	1	-1E+10	1	-1E+10	1
4902624	1	C	07/01/2024	11:36	-128.929	46.296	0	885.00	0	3.7260	0	34.3390	0	27.295	0	875.843	0	-1e10	1	-1e10	1	-1E+10	1	-1e10	1	-1e10	1	-1E+10	1	-1E+10	1	-1E+10	1
4902624	1	C	07/01/2024	11:36	-128.929	46.296	0	886.30	0	3.7223	0	34.3396	0	27.295	0	877.127	0	72.3	4	22.7	4	-1E+10	1	-1e10	1	-1e10	1	-1E+10	1	-1E+10	1	-1E+10	1
4902624	1	C	07/01/2024	11:36	-128.929	46.296	0	895.10	0	3.6970	0	34.3440	0	27.302	0	885.817	0	-1e10	1	-1e10	1	-1E+10	1	-1e10	1	-1e10	1	-1E+10	1	-1E+10	1	-1E+10	1
4902624	1	C	07/01/2024	11:36	-128.929	46.296	0	896.90	0	3.6929	0	34.3447	0	27.303	0	887.595	0	68.2	4	21.4	4	-1E+10	1	-1e10	1	-1e10	1	-1E+10	1	-1E+10	1	-1E+10	1
4902624	1	C	07/01/2024	11:36	-128.929	46.296	0	905.10	0	3.6740	0	34.3480	0	27.307	0	895.692	0	-1e10	1	-1e10	1	-1E+10	1	-1e10	1	-1e10	1	-1E+10	1	-1E+10	1	-1E+10	1
4902624	1	C	07/01/2024	11:36	-128.929	46.296	0	907.40	0	3.6706	0	34.3489	0	27.308	0	897.963	0	72.3	4	22.7	4	-1E+10	1	-1e10	1	-1e10	1	-1E+10	1	-1E+10	1	-1E+10	1
4902624	1	C	07/01/2024	11:36	-128.929	46.296	0	915.20	0	3.6590	0	34.3520	0	27.312	0	905.665	0	-1e10	1	-1e10	1	-1E+10	1	-1e10	1	-1e10	1	-1E+10	1	-1E+10	1	-1E+10	1
4902624	1	C	07/01/2024	11:36	-128.929	46.296	0	917.90	0	3.6557	0	34.3534	0	27.313	0	908.331	0	75.3	4	23.6	4	-1E+10	1	-1e10	1	-1e10	1	-1E+10	1	-1E+10	1	-1E+10	1
4902624	1	C	07/01/2024	11:36	-128.929	46.296	0	925.00	0	3.6470	0	34.3570	0	27.317	0	915.342	0	-1e10	1	-1e10	1	-1E+10	1	-1e10	1	-1e10	1	-1E+10	1	-1E+10	1	-1E+10	1
4902624	1	C	07/01/2024	11:36	-128.929	46.296	0	928.30	0	3.6401	0	34.3583	0	27.319	0	918.600	0	73.7	4	23.1	4	-1E+10	1	-1e10	1	-1e10	1	-1E+10	1	-1E+10	1	-1E+10	1
4902624	1	C	07/01/2024	11:36	-128.929	46.296	0	935.00	0	3.6260	0	34.3610	0	27.322	0	925.215	0	-1e10	1	-1e10	1	-1E+10	1	-1e10	1	-1e10	1	-1E+10	1	-1E+10	1	-1E+10	1
4902624	1	C	07/01/2024	11:36	-128.929	46.296	0	938.70	0	3.6175	0	34.3629	0	27.325	0	928.868	0	72.0	4	22.6	4	-1E+10	1	-1e10	1	-1e10	1	-1E+10	1	-1E+10	1	-1E+10	1
4902624	1	C	07/01/2024	11:36	-128.929	46.296	0	945.00	0	3.6030	0	34.3660	0	27.329	0	935.088	0	-1e10	1	-1e10	1	-1E+10	1	-1e10	1	-1e10	1	-1E+10	1	-1E+10	1	-1E+10	1
4902624	1	C	07/01/2024	11:36	-128.929	46.296	0	949.20	0	3.5954	0	34.3677	0	27.331	0	939.235	0	65.6	4	20.5	4	-1E+10	1	-1e10	1	-1e10	1	-1E+10	1	-1E+10	1	-1E+10	1
4902624	1	C	07/01/2024	11:36	-128.929	46.296	0	955.00	0	3.5850	0	34.3700	0	27.334	0	944.961	0	-1e10	1	-1e10	1	-1E+10	1	-1e10	1	-1e10	1	-1E+10	1	-1E+10	1	-1E+10	1
4902624	1	C	07/01/2024	11:36	-128.929	46.296	0	959.80	0	3.5736	0	34.3724	0	27.337	0	949.699	0	61.3	4	19.2	4	-1E+10	1	-1e10	1	-1e10	1	-1E+10	1	-1E+10	1	-1E+10	1
4902624	1	C	07/01/2024	11:36	-128.929	46.296	0	965.10	0	3.5610	0	34.3750	0	27.340	0	954.932	0	-1e10	1	-1e10	1	-1E+10	1	-1e10	1	-1e10	1	-1E+10	1	-1E+10	1	-1E+10	1
4902624	1	C	07/01/2024	11:36	-128.929	46.296	0	970.50	0	3.5503	0	34.3777	0	27.343	0	960.262	0	64.2	4	20.1	4	-1E+10	1	-1e10	1	-1e10	1	-1E+10	1	-1E+10	1	-1E+10	1
4902624	1	C	07/01/2024	11:36	-128.929	46.296	0	975.20	0	3.5410	0	34.3800	0	27.346	0	964.902	0	-1e10	1	-1e10	1	-1E+10	1	-1e10	1	-1e10	1	-1E+10	1	-1E+10	1	-1E+10	1
4902624	1	C	07/01/2024	11:36	-128.929	46.296	0	981.20	0	3.5265	0	34.3830	0	27.350	0	970.825	0	64.3	4	20.1	4	-1E+10	1	-1e10	1	-1e10	1	-1E+10	1	-1E+10	1	-1E+10	1
4902624	1	C	07/01/2024	11:36	-128.929	46.296	0	985.10	0	3.5170	0	34.3850	0	27.352	0	974.674	0	-1e10	1	-1e10	1	-1E+10	1	-1e10	1	-1e10	1	-1E+10	1	-1E+10	1	-1E+10	1
4902624	1	C	07/01/2024	11:36	-128.929	46.296	0	992.00	0	3.5010	0	34.3864	0	27.355	0	981.485	0	58.8	4	18.4	4	-1E+10	1	-1e10	1	-1e10	1	-1E+10	1	-1E+10	1	-1E+10	1
4902624	1	C	07/01/2024	11:36	-128.929	46.296	0	995.00	0	3.4940	0	34.3870	0	27.356	0	984.446	0	-1e10	1	-1e10	1	-1E+10	1	-1e10	1	-1e10	1	-1E+10	1	-1E+10	1	-1E+10	1
4902624	1	C	07/01/2024	11:36	-128.929	46.296	0	1013.80	0	3.4443	0	34.3939	0	27.367	0	1003.002	0	60.6	4	18.9	4	-1E+10	1	-1e10	1	-1e10	1	-1E+10	1	-1E+10	1	-1E+10	1
4902624	1	C	07/01/2024	11:36	-128.929	46.296	0	1024.90	0	3.4150	0	34.3980	0	27.373	0	1013.957	0	-1e10	1	-1e10	1	-1E+10	1	-1e10	1	-1e10	1	-1E+10	1	-1E+10	1	-1E+10	1
4902624	1	C	07/01/2024	11:36	-128.929	46.296	0	1035.70	0	3.3859	0	34.4023	0	27.379	0	1024.615	0	54.9	4	17.1	4	-1E+10	1	-1e10	1	-1e10	1	-1E+10	1	-1E+10	1	-1E+10	1
4902624	1	C	07/01/2024	11:36	-128.929	46.296	0	1057.60	0	3.3268	0	34.4112	0	27.392	0	1046.226	0	59.7	4	18.6	4	-1E+10	1	-1e10	1	-1e10	1	-1E+10	1	-1E+10	1	-1E+10	1
4902624	1	C	07/01/2024	11:36	-128.929	46.296	0	1074.60	0	3.2810	0	34.4180	0	27.402	0	1063.000	0	-1e10	1	-1e10	1	-1E+10	1	-1e10	1	-1e10	1	-1E+10	1	-1E+10	1	-1E+10	1
4902624	1	C	07/01/2024	11:36	-128.929	46.296	0	1079.40	0	3.2680	0	34.4196	0	27.404	0	1067.736	0	56.4	4	17.5	4	-1E+10	1	-1e10	1	-1e10	1	-1E+10	1	-1E+10	1	-1E+10	1
4902624	1	C	07/01/2024	11:36	-128.929	46.296	0	1102.00	0	3.2069	0	34.4273	0	27.416	0	1090.034	0	57.0	4	17.7	4	-1E+10	1	-1e10	1	-1e10	1	-1E+10	1	-1E+10	1	-1E+10	1
4902624	1	C	07/01/2024	11:36	-128.929	46.296	0	1119.00	0	3.1610	0	34.4330	0	27.425	0	1106.804	0	62.1	4	19.3	4	-1E+10	1	-1e10	1	-1e10	1	-1E+10	1	-1E+10	1	-1E+10	1
4902624	1	C	07/01/2024	11:36	-128.929	46.296	0	1124.90	0	3.1450	0	34.4350	0	27.428	0	1112.624	0	-1e10	1	-1e10	1	-1E+10	1	-1e10	1	-1e10	1	-1E+10	1	-1E+10	1	-1E+10	1
4902624	1	C	07/01/2024	11:36	-128.929	46.296	0	1136.00	0	3.1216	0	34.4377	0	27.432	0	1123.573	0	61.1	4	18.9	4	-1E+10	1	-1e10	1	-1e10	1	-1E+10	1	-1E+10	1	-1E+10	1
4902624	1	C	07/01/2024	11:36	-128.929	46.296	0	1154.40	0	3.0829	0	34.4421	0	27.440	0	1141.722	0	63.7	4	19.7	4	-1E+10	1	-1e10	1	-1e10	1	-1E+10	1	-1E+10	1	-1E+10	1
4902624	1	C	07/01/2024	11:36	-128.929	46.296	0	1173.80	0	3.0421	0	34.4468	0	27.447	0	1160.856	0	64.8	4	20.0	4	-1E+10	1	-1e10	1	-1e10	1	-1E+10	1	-1E+10	1	-1E+10	1
4902624	1	C	07/01/2024	11:36	-128.929	46.296	0	1174.80	0	3.0400	0	34.4470	0	27.447	0	1161.842	0	-1e10	1	-1e10	1	-1E+10	1	-1e10	1	-1e10	1	-1E+10	1	-1E+10	1	-1E+10	1
4902624	1	C	07/01/2024	11:36	-128.929	46.296	0	1194.50	0	3.0024	0	34.4513	0	27.454	0	1181.269	0	65.7	4	20.3	4	-1E+10	1	-1e10	1	-1e10	1	-1E+10	1	-1E+10	1	-1E+10	1
4902624	1	C	07/01/2024	11:36	-128.929	46.296	0	1216.40	0	2.9606	0	34.4561	0	27.462	0	1202.864	0	71.4	4	22.0	4	-1E+10	1	-1e10	1	-1e10	1	-1E+10	1	-1E+10	1	-1E+10	1
4902624	1	C	07/01/2024	11:36	-128.929	46.296	0	1225.10	0	2.9440	0	34.4580	0	27.465	0	1211.442	0	-1e10	1	-1e10	1	-1E+10	1	-1e10	1	-1e10	1	-1E+10	1	-1E+10	1	-1E+10	1
4902624	1	C	07/01/2024	11:36	-128.929	46.296	0	1239.40	0	2.9183	0	34.4608	0	27.470	0	1225.541	0	68.7	4	21.2	4	-1E+10	1	-1e10	1	-1e10	1	-1E+10	1	-1E+10	1	-1E+10	1
4902624	1	C	07/01/2024	11:36	-128.929	46.296	0	1262.90	0	2.8760	0	34.4655	0	27.477	0	1248.709	0	73.6	4	22.7	4	-1E+10	1	-1e10	1	-1e10	1	-1E+10	1	-1E+10	1	-1E+10	1
4902624	1	C	07/01/2024	11:36	-128.929	46.296	0	1275.70	0	2.8530	0	34.4680	0	27.482	0	1261.326	0	-1e10	1	-1e10	1	-1E+10	1	-1e10	1	-1e10	1	-1E+10	1	-1E+10	1	-1E+10	1
4902624	1	C	07/01/2024	11:36	-128.929	46.296	0	1287.20	0	2.8321	0	34.4706	0	27.486	0	1272.662	0	83.1	4	25.6	4	-1E+10	1	-1e10	1	-1e10	1	-1E+10	1	-1E+10	1	-1E+10	1
4902624	1	C	07/01/2024	11:36	-128.929	46.296	0	1309.30	0	2.7919	0	34.4755	0	27.493	0	1294.445	0	94.5	4	29.0	4	-1E+10	1	-1e10	1	-1e10	1	-1E+10	1	-1E+10	1	-1E+10	1
4902624	1	C	07/01/2024	11:36	-128.929	46.296	0	1325.20	0	2.7630	0	34.4790	0	27.499	0	1310.115	0	-1e10	1	-1e10	1	-1E+10	1	-1e10	1	-1e10	1	-1E+10	1	-1E+10	1	-1E+10	1
4902624	1	C	07/01/2024	11:36	-128.929	46.296	0	1325.50	0	2.7624	0	34.4791	0	27.499	0	1310.411	0	100.9	4	31.0	4	-1E+10	1	-1e10	1	-1e10	1	-1E+10	1	-1E+10	1	-1E+10	1
4902624	1	C	07/01/2024	11:36	-128.929	46.296	0	1342.30	0	2.7309	0	34.4831	0	27.505	0	1326.966	0	100.9	4	30.9	4	-1E+10	1	-1e10	1	-1e10	1	-1E+10	1	-1E+10	1	-1E+10	1
4902624	1	C	07/01/2024	11:36	-128.929	46.296	0	1359.20	0	2.6992	0	34.4871	0	27.511	0	1343.619	0	106.7	4	32.7	4	-1E+10	1	-1e10	1	-1e10	1	-1E+10	1	-1E+10	1	-1E+10	1
4902624	1	C	07/01/2024	11:36	-128.929	46.296	0	1375.30	0	2.6690	0	34.4910	0	27.517	0	1359.483	0	-1e10	1	-1e10	1	-1E+10	1	-1e10	1	-1e10	1	-1E+10	1	-1E+10	1	-1E+10	1
4902624	1	C	07/01/2024	11:36	-128.929	46.296	0	1376.30	0	2.6671	0	34.4912	0	27.517	0	1360.468	0	110.1	4	33.7	4	-1E+10	1	-1e10	1	-1e10	1	-1E+10	1	-1E+10	1	-1E+10	1
4902624	1	C	07/01/2024	11:36	-128.929	46.296	0	1393.60	0	2.6342	0	34.4950	0	27.523	0	1377.513	0	115.0	4	35.2	4	-1E+10	1	-1e10	1	-1e10	1	-1E+10	1	-1E+10	1	-1E+10	1
4902624	1	C	07/01/2024	11:36	-128.929	46.296	0	1410.70	0	2.6017	0	34.4988	0	27.529	0	1394.359	0	119.8	4	36.6	4	-1E+10	1	-1e10	1	-1e10	1	-1E+10	1	-1E+10	1	-1E+10	1
4902624	1	C	07/01/2024	11:36	-128.929	46.296	0	1425.30	0	2.5740	0	34.5020	0	27.534	0	1408.741	0	-1e10	1	-1e10	1	-1E+10	1	-1e10	1	-1e10	1	-1E+10	1	-1E+10	1	-1E+10	1
4902624	1	C	07/01/2024	11:36	-128.929	46.296	0	1427.70	0	2.5703	0	34.5025	0	27.534	0	1411.105	0	82.0	4	25.1	4	-1E+10	1	-1e10	1	-1e10	1	-1E+10	1	-1E+10	1	-1E+10	1
4902624	1	C	07/01/2024	11:36	-128.929	46.296	0	1445.10	0	2.5435	0	34.5060	0	27.540	0	1428.244	0	90.6	4	27.7	4	-1E+10	1	-1e10	1	-1e10	1	-1E+10	1	-1E+10	1	-1E+10	1
4902624	1	C	07/01/2024	11:36	-128.929	46.296	0	1462.60	0	2.5166	0	34.5096	0	27.545	0	1445.480	0	94.9	4	29.0	4	-1E+10	1	-1e10	1	-1e10	1	-1E+10	1	-1E+10	1	-1E+10	1
4902624	1	C	07/01/2024	11:36	-128.929	46.296	0	1474.70	0	2.4980	0	34.5120	0	27.548	0	1457.397	0	-1e10	1	-1e10	1	-1E+10	1	-1e10	1	-1e10	1	-1E+10	1	-1E+10	1	-1E+10	1
4902624	1	C	07/01/2024	11:36	-128.929	46.296	0	1480.70	0	2.4863	0	34.5135	0	27.551	0	1463.306	0	93.0	4	28.4	4	-1E+10	1	-1e10	1	-1e10	1	-1E+10	1	-1E+10	1	-1E+10	1
4902624	1	C	07/01/2024	11:36	-128.929	46.296	0	1499.80	0	2.4489	0	34.5185	0	27.558	0	1482.114	0	104.7	4	31.9	4	-1E+10	1	-1e10	1	-1e10	1	-1E+10	1	-1E+10	1	-1E+10	1
4902624	1	C	07/01/2024	11:36	-128.929	46.296	0	1519.60	0	2.4102	0	34.5235	0	27.565	0	1501.611	0	99.0	4	30.2	4	-1E+10	1	-1e10	1	-1e10	1	-1E+10	1	-1E+10	1	-1E+10	1
4902624	1	C	07/01/2024	11:36	-128.929	46.296	0	1525.30	0	2.3990	0	34.5250	0	27.567	0	1507.223	0	-1e10	1	-1e10	1	-1E+10	1	-1e10	1	-1e10	1	-1E+10	1	-1E+10	1	-1E+10	1
4902624	1	C	07/01/2024	11:36	-128.929	46.296	0	1541.00	0	2.3741	0	34.5285	0	27.572	0	1522.680	0	92.2	4	28.1	4	-1E+10	1	-1e10	1	-1e10	1	-1E+10	1	-1E+10	1	-1E+10	1
4902624	1	C	07/01/2024	11:36	-128.929	46.296	0	1563.20	0	2.3389	0	34.5334	0	27.579	0	1544.535	0	97.6	4	29.7	4	-1E+10	1	-1e10	1	-1e10	1	-1E+10	1	-1E+10	1	-1E+10	1
4902624	1	C	07/01/2024	11:36	-128.929	46.296	0	1575.10	0	2.3200	0	34.5360	0	27.583	0	1556.250	0	-1e10	1	-1e10	1	-1E+10	1	-1e10	1	-1e10	1	-1E+10	1	-1E+10	1	-1E+10	1
4902624	1	C	07/01/2024	11:36	-128.929	46.296	0	1585.80	0	2.3078	0	34.5377	0	27.585	0	1566.782	0	94.0	4	28.6	4	-1E+10	1	-1e10	1	-1e10	1	-1E+10	1	-1E+10	1	-1E+10	1
4902624	1	C	07/01/2024	11:36	-128.929	46.296	0	1608.70	0	2.2818	0	34.5414	0	27.590	0	1589.321	0	97.8	4	29.7	4	-1E+10	1	-1e10	1	-1e10	1	-1E+10	1	-1E+10	1	-1E+10	1
4902624	1	C	07/01/2024	11:36	-128.929	46.296	0	1624.20	0	2.2641	0	34.5438	0	27.594	0	1604.576	0	107.4	4	32.6	4	-1E+10	1	-1e10	1	-1e10	1	-1E+10	1	-1E+10	1	-1E+10	1
4902624	1	C	07/01/2024	11:36	-128.929	46.296	0	1625.20	0	2.2630	0	34.5440	0	27.594	0	1605.560	0	-1e10	1	-1e10	1	-1E+10	1	-1e10	1	-1e10	1	-1E+10	1	-1E+10	1	-1E+10	1
4902624	1	C	07/01/2024	11:36	-128.929	46.296	0	1640.40	0	2.2470	0	34.5458	0	27.597	0	1620.518	0	109.9	4	33.3	4	-1E+10	1	-1e10	1	-1e10	1	-1E+10	1	-1E+10	1	-1E+10	1
4902624	1	C	07/01/2024	11:36	-128.929	46.296	0	1657.50	0	2.2291	0	34.5479	0	27.600	0	1637.345	0	112.3	4	34.1	4	-1E+10	1	-1e10	1	-1e10	1	-1E+10	1	-1E+10	1	-1E+10	1
4902624	1	C	07/01/2024	11:36	-128.929	46.296	0	1674.70	0	2.2110	0	34.5500	0	27.603	0	1654.269	0	-1e10	1	-1e10	1	-1E+10	1	-1e10	1	-1e10	1	-1E+10	1	-1E+10	1	-1E+10	1
4902624	1	C	07/01/2024	11:36	-128.929	46.296	0	1675.50	0	2.2101	0	34.5501	0	27.604	0	1655.056	0	112.6	4	34.1	4	-1E+10	1	-1e10	1	-1e10	1	-1E+10	1	-1E+10	1	-1E+10	1
4902624	1	C	07/01/2024	11:36	-128.929	46.296	0	1694.10	0	2.1886	0	34.5531	0	27.608	0	1673.356	0	115.8	4	35.1	4	-1E+10	1	-1e10	1	-1e10	1	-1E+10	1	-1E+10	1	-1E+10	1
4902624	1	C	07/01/2024	11:36	-128.929	46.296	0	1713.60	0	2.1661	0	34.5562	0	27.612	0	1692.539	0	117.8	4	35.7	4	-1E+10	1	-1e10	1	-1e10	1	-1E+10	1	-1E+10	1	-1E+10	1
4902624	1	C	07/01/2024	11:36	-128.929	46.296	0	1724.90	0	2.1530	0	34.5580	0	27.615	0	1703.655	0	-1e10	1	-1e10	1	-1E+10	1	-1e10	1	-1e10	1	-1E+10	1	-1E+10	1	-1E+10	1
4902624	1	C	07/01/2024	11:36	-128.929	46.296	0	1733.90	0	2.1438	0	34.5594	0	27.617	0	1712.508	0	118.1	4	35.7	4	-1E+10	1	-1e10	1	-1e10	1	-1E+10	1	-1E+10	1	-1E+10	1
4902624	1	C	07/01/2024	11:36	-128.929	46.296	0	1754.90	0	2.1224	0	34.5628	0	27.621	0	1733.163	0	121.0	4	36.6	4	-1E+10	1	-1e10	1	-1e10	1	-1E+10	1	-1E+10	1	-1E+10	1
4902624	1	C	07/01/2024	11:36	-128.929	46.296	0	1774.90	0	2.1020	0	34.5660	0	27.625	0	1752.833	0	-1e10	1	-1e10	1	-1E+10	1	-1e10	1	-1e10	1	-1E+10	1	-1E+10	1	-1E+10	1
4902624	1	C	07/01/2024	11:36	-128.929	46.296	0	1777.00	0	2.1000	0	34.5663	0	27.626	0	1754.898	0	123.5	4	37.3	4	-1E+10	1	-1e10	1	-1e10	1	-1E+10	1	-1E+10	1	-1E+10	1
4902624	1	C	07/01/2024	11:36	-128.929	46.296	0	1799.80	0	2.0786	0	34.5695	0	27.630	0	1777.319	0	126.1	4	38.1	4	-1E+10	1	-1e10	1	-1e10	1	-1E+10	1	-1E+10	1	-1E+10	1
4902624	1	C	07/01/2024	11:36	-128.929	46.296	0	1823.30	0	2.0566	0	34.5728	0	27.635	0	1800.426	0	128.2	4	38.7	4	-1E+10	1	-1e10	1	-1e10	1	-1E+10	1	-1E+10	1	-1E+10	1
4902624	1	C	07/01/2024	11:36	-128.929	46.296	0	1825.00	0	2.0550	0	34.5730	0	27.635	0	1802.097	0	-1e10	1	-1e10	1	-1E+10	1	-1e10	1	-1e10	1	-1E+10	1	-1E+10	1	-1E+10	1
4902624	1	C	07/01/2024	11:36	-128.929	46.296	0	1846.50	0	2.0352	0	34.5760	0	27.639	0	1823.235	0	130.4	4	39.3	4	-1E+10	1	-1e10	1	-1e10	1	-1E+10	1	-1E+10	1	-1E+10	1
4902624	1	C	07/01/2024	11:36	-128.929	46.296	0	1862.40	0	2.0206	0	34.5782	0	27.642	0	1838.866	0	131.2	4	39.6	4	-1E+10	1	-1e10	1	-1e10	1	-1E+10	1	-1E+10	1	-1E+10	1
4902624	1	C	07/01/2024	11:36	-128.929	46.296	0	1875.00	0	2.0090	0	34.5800	0	27.644	0	1851.252	0	-1e10	1	-1e10	1	-1E+10	1	-1e10	1	-1e10	1	-1E+10	1	-1E+10	1	-1E+10	1
4902624	1	C	07/01/2024	11:36	-128.929	46.296	0	1878.80	0	2.0059	0	34.5805	0	27.645	0	1854.988	0	132.1	4	39.8	4	-1E+10	1	-1e10	1	-1e10	1	-1E+10	1	-1E+10	1	-1E+10	1
4902624	1	C	07/01/2024	11:36	-128.929	46.296	0	1896.10	0	1.9920	0	34.5830	0	27.648	0	1871.992	0	132.8	4	40.0	4	-1E+10	1	-1e10	1	-1e10	1	-1E+10	1	-1E+10	1	-1E+10	1
4902624	1	C	07/01/2024	11:36	-128.929	46.296	0	1914.20	0	1.9775	0	34.5855	0	27.651	0	1889.782	0	131.9	4	39.7	4	-1E+10	1	-1e10	1	-1e10	1	-1E+10	1	-1E+10	1	-1E+10	1
4902624	1	C	07/01/2024	11:36	-128.929	46.296	0	1924.70	0	1.9690	0	34.5870	0	27.653	0	1900.101	0	-1e10	1	-1e10	1	-1E+10	1	-1e10	1	-1e10	1	-1E+10	1	-1E+10	1	-1E+10	1
4902624	1	C	07/01/2024	11:36	-128.929	46.296	0	1932.60	0	1.9638	0	34.5881	0	27.655	0	1907.865	0	132.6	4	39.9	4	-1E+10	1	-1e10	1	-1e10	1	-1E+10	1	-1E+10	1	-1E+10	1
4902624	1	C	07/01/2024	11:36	-128.929	46.296	0	1951.50	0	1.9515	0	34.5906	0	27.658	0	1926.437	0	132.9	4	40.0	4	-1E+10	1	-1e10	1	-1e10	1	-1E+10	1	-1E+10	1	-1E+10	1
4902624	1	C	07/01/2024	11:36	-128.929	46.296	0	1969.00	0	1.9400	0	34.5930	0	27.661	0	1943.633	0	-1e10	1	-1e10	1	-1E+10	1	-1e10	1	-1e10	1	-1E+10	1	-1E+10	1	-1E+10	1
4902624	1	C	07/01/2024	11:36	-128.929	46.296	0	1971.00	0	1.9400	0	34.5930	0	27.661	0	1945.598	0	139.1	4	41.9	4	-1E+10	1	-1e10	1	-1e10	1	-1E+10	1	-1E+10	1	-1E+10	1
4902624	1	C	07/01/2024	11:36	-128.929	46.296	0	1987.60	0	-1e10	1	-1e10	1	-1e10	1	1961.907	0	135.2	4	-1e10	4	-1E+10	1	-1e10	1	-1e10	1	-1E+10	1	-1E+10	1	-1E+10	1
4902624	1	C	07/01/2024	11:36	-128.929	46.296	0																										
4902624	2	C	07/11/2024	21:26	-128.893	46.368	0	0.30	0	16.1208	0	32.3544	0	23.687	0	0.298	0	237.9	4	96.4	4	-1E+10	1	-1e10	1	-1e10	1	-1E+10	1	-1E+10	1	-1E+10	1
4902624	2	C	07/11/2024	21:26	-128.893	46.368	0	0.40	0	16.1230	0	32.3530	0	23.686	0	0.397	0	238.1	4	96.5	4	-1E+10	1	-1e10	1	-1e10	1	-1E+10	1	-1E+10	1	-1E+10	1
4902624	2	C	07/11/2024	21:26	-128.893	46.368	0	0.90	0	16.1216	0	32.3544	0	23.687	0	0.893	0	-1e10	1	-1e10	1	-1E+10	1	0.2190	4	0.000975	0	-1E+10	1	-1E+10	1	-1E+10	1
4902624	2	C	07/11/2024	21:26	-128.893	46.368	0	1.10	0	16.1211	0	32.3549	0	23.688	0	1.091	0	-1e10	1	-1e10	1	-1E+10	1	0.2263	4	0.000963	0	-1E+10	1	-1E+10	1	-1E+10	1
4902624	2	C	07/11/2024	21:26	-128.893	46.368	0	1.40	0	16.1203	0	32.3557	0	23.688	0	1.388	0	-1e10	1	-1e10	1	-1E+10	1	0.2190	4	0.000881	0	-1E+10	1	-1E+10	1	-1E+10	1
4902624	2	C	07/11/2024	21:26	-128.893	46.368	0	1.50	0	16.1200	0	32.3560	0	23.689	0	1.488	0	-1e10	1	-1e10	1	-1E+10	1	-1e10	1	-1e10	1	-1E+10	1	-1E+10	1	-1E+10	1
4902624	2	C	07/11/2024	21:26	-128.893	46.368	0	1.70	0	16.1198	0	32.3562	0	23.689	0	1.686	0	237.9	4	96.3	4	-1E+10	1	0.1898	4	0.000881	0	-1E+10	1	-1E+10	1	-1E+10	1
4902624	2	C	07/11/2024	21:26	-128.893	46.368	0	1.80	0	16.1197	0	32.3563	0	23.689	0	1.785	0	-1e10	1	-1e10	1	-1E+10	1	0.2117	4	0.001069	0	-1E+10	1	-1E+10	1	-1E+10	1
4902624	2	C	07/11/2024	21:26	-128.893	46.368	0	2.00	0	16.1195	0	32.3565	0	23.689	0	1.984	0	-1e10	1	-1e10	1	-1E+10	1	0.2482	4	0.000963	0	-1E+10	1	-1E+10	1	-1E+10	1
4902624	2	C	07/11/2024	21:26	-128.893	46.368	0	2.20	0	16.1194	0	32.3566	0	23.689	0	2.182	0	-1e10	1	-1e10	1	-1E+10	1	0.2190	4	0.000893	0	-1E+10	1	-1E+10	1	-1E+10	1
4902624	2	C	07/11/2024	21:26	-128.893	46.368	0	2.40	0	16.1192	0	32.3568	0	23.690	0	2.380	0	238.0	4	96.4	4	-1E+10	1	0.2263	4	0.000940	0	-1E+10	1	-1E+10	1	-1E+10	1
4902624	2	C	07/11/2024	21:26	-128.893	46.368	0	2.50	0	16.1191	0	32.3569	0	23.690	0	2.479	0	-1e10	1	-1e10	1	-1E+10	1	0.2117	4	0.000893	0	-1E+10	1	-1E+10	1	-1E+10	1
4902624	2	C	07/11/2024	21:26	-128.893	46.368	0	2.60	0	16.1190	0	32.3570	0	23.690	0	2.579	0	-1e10	1	-1e10	1	-1E+10	1	-1e10	1	-1e10	1	-1E+10	1	-1E+10	1	-1E+10	1
4902624	2	C	07/11/2024	21:26	-128.893	46.368	0	3.00	0	16.1194	0	32.3570	0	23.690	0	2.975	0	-1e10	1	-1e10	1	-1E+10	1	0.2263	4	0.000905	0	-1E+10	1	-1E+10	1	-1E+10	1
4902624	2	C	07/11/2024	21:26	-128.893	46.368	0	3.10	0	16.1196	0	32.3570	0	23.690	0	3.074	0	-1e10	1	-1e10	1	-1E+10	1	0.2117	4	0.000916	0	-1E+10	1	-1E+10	1	-1E+10	1
4902624	2	C	07/11/2024	21:26	-128.893	46.368	0	3.30	0	16.1198	0	32.3570	0	23.690	0	3.273	0	237.9	4	96.4	4	-1E+10	1	0.2190	4	0.000928	0	-1E+10	1	-1E+10	1	-1E+10	1
4902624	2	C	07/11/2024	21:26	-128.893	46.368	0	3.50	0	16.1200	0	32.3570	0	23.690	0	3.471	0	-1e10	1	-1e10	1	-1E+10	1	0.2190	4	0.000905	0	-1E+10	1	-1E+10	1	-1E+10	1
4902624	2	C	07/11/2024	21:26	-128.893	46.368	0	3.80	0	16.1209	0	32.3570	0	23.689	0	3.769	0	-1e10	1	-1e10	1	-1E+10	1	0.2482	4	0.000928	0	-1E+10	1	-1E+10	1	-1E+10	1
4902624	2	C	07/11/2024	21:26	-128.893	46.368	0	4.00	0	16.1215	0	32.3570	0	23.689	0	3.967	0	-1e10	1	-1e10	1	-1E+10	1	0.2409	4	0.000905	0	-1E+10	1	-1E+10	1	-1E+10	1
4902624	2	C	07/11/2024	21:26	-128.893	46.368	0	4.20	0	16.1221	0	32.3570	0	23.689	0	4.165	0	-1e10	1	-1e10	1	-1E+10	1	0.2409	4	0.001198	0	-1E+10	1	-1E+10	1	-1E+10	1
4902624	2	C	07/11/2024	21:26	-128.893	46.368	0	4.40	0	16.1227	0	32.3570	0	23.689	0	4.364	0	237.8	4	96.3	4	-1E+10	1	0.2336	4	0.000951	0	-1E+10	1	-1E+10	1	-1E+10	1
4902624	2	C	07/11/2024	21:26	-128.893	46.368	0	4.50	0	16.1230	0	32.3570	0	23.689	0	4.463	0	-1e10	1	-1e10	1	-1E+10	1	-1e10	1	-1e10	1	-1E+10	1	-1E+10	1	-1E+10	1
4902624	2	C	07/11/2024	21:26	-128.893	46.368	0	4.80	0	16.1230	0	32.3570	0	23.689	0	4.760	0	-1e10	1	-1e10	1	-1E+10	1	0.2555	4	0.000893	0	-1E+10	1	-1E+10	1	-1E+10	1
4902624	2	C	07/11/2024	21:26	-128.893	46.368	0	5.10	0	16.1230	0	32.3570	0	23.689	0	5.058	0	-1e10	1	-1e10	1	-1E+10	1	0.2409	4	0.001116	0	-1E+10	1	-1E+10	1	-1E+10	1
4902624	2	C	07/11/2024	21:26	-128.893	46.368	0	5.30	0	16.1230	0	32.3570	0	23.689	0	5.256	0	-1e10	1	-1e10	1	-1E+10	1	0.2555	4	0.000916	0	-1E+10	1	-1E+10	1	-1E+10	1
4902624	2	C	07/11/2024	21:26	-128.893	46.368	0	5.50	0	16.1230	0	32.3570	0	23.689	0	5.455	0	238.2	4	96.5	4	-1E+10	1	0.2555	4	0.000905	0	-1E+10	1	-1E+10	1	-1E+10	1
4902624	2	C	07/11/2024	21:26	-128.893	46.368	0	5.70	0	16.1230	0	32.3568	0	23.689	0	5.653	0	-1e10	1	-1e10	1	-1E+10	1	0.2628	4	0.000881	0	-1E+10	1	-1E+10	1	-1E+10	1
4902624	2	C	07/11/2024	21:26	-128.893	46.368	0	5.90	0	16.1230	0	32.3566	0	23.689	0	5.851	0	-1e10	1	-1e10	1	-1E+10	1	0.2628	4	0.001045	0	-1E+10	1	-1E+10	1	-1E+10	1
4902624	2	C	07/11/2024	21:26	-128.893	46.368	0	6.20	0	16.1230	0	32.3563	0	23.688	0	6.149	0	-1e10	1	-1e10	1	-1E+10	1	0.2628	4	0.000940	0	-1E+10	1	-1E+10	1	-1E+10	1
4902624	2	C	07/11/2024	21:26	-128.893	46.368	0	6.50	0	16.1230	0	32.3560	0	23.688	0	6.446	0	-1e10	1	-1e10	1	-1E+10	1	-1e10	1	-1e10	1	-1E+10	1	-1E+10	1	-1E+10	1
4902624	2	C	07/11/2024	21:26	-128.893	46.368	0	6.60	0	16.1229	0	32.3561	0	23.688	0	6.545	0	238.3	4	96.5	4	-1E+10	1	0.2628	4	0.000893	0	-1E+10	1	-1E+10	1	-1E+10	1
4902624	2	C	07/11/2024	21:26	-128.893	46.368	0	6.80	0	16.1227	0	32.3563	0	23.689	0	6.744	0	-1e10	1	-1e10	1	-1E+10	1	0.2847	4	0.000905	0	-1E+10	1	-1E+10	1	-1E+10	1
4902624	2	C	07/11/2024	21:26	-128.893	46.368	0	7.00	0	16.1225	0	32.3565	0	23.689	0	6.942	0	-1e10	1	-1e10	1	-1E+10	1	0.2774	4	0.001033	0	-1E+10	1	-1E+10	1	-1E+10	1
4902624	2	C	07/11/2024	21:26	-128.893	46.368	0	7.30	0	16.1222	0	32.3568	0	23.689	0	7.240	0	-1e10	1	-1e10	1	-1E+10	1	0.2993	4	0.001045	0	-1E+10	1	-1E+10	1	-1E+10	1
4902624	2	C	07/11/2024	21:26	-128.893	46.368	0	7.50	0	16.1220	0	32.3570	0	23.689	0	7.438	0	-1e10	1	-1e10	1	-1E+10	1	0.3139	4	0.001010	0	-1E+10	1	-1E+10	1	-1E+10	1
4902624	2	C	07/11/2024	21:26	-128.893	46.368	0	7.70	0	16.1216	0	32.3568	0	23.689	0	7.636	0	238.5	4	96.6	4	-1E+10	1	0.3066	4	0.000916	0	-1E+10	1	-1E+10	1	-1E+10	1
4902624	2	C	07/11/2024	21:26	-128.893	46.368	0	7.90	0	16.1212	0	32.3566	0	23.689	0	7.835	0	-1e10	1	-1e10	1	-1E+10	1	0.3139	4	0.000940	0	-1E+10	1	-1E+10	1	-1E+10	1
4902624	2	C	07/11/2024	21:26	-128.893	46.368	0	8.10	0	16.1208	0	32.3564	0	23.689	0	8.033	0	-1e10	1	-1e10	1	-1E+10	1	0.2993	4	0.000916	0	-1E+10	1	-1E+10	1	-1E+10	1
4902624	2	C	07/11/2024	21:26	-128.893	46.368	0	8.50	0	16.1200	0	32.3560	0	23.689	0	8.430	0	-1e10	1	-1e10	1	-1E+10	1	-1e10	1	-1e10	1	-1E+10	1	-1E+10	1	-1E+10	1
4902624	2	C	07/11/2024	21:26	-128.893	46.368	0	8.60	0	16.1201	0	32.3560	0	23.689	0	8.529	0	-1e10	1	-1e10	1	-1E+10	1	0.3066	4	0.000951	0	-1E+10	1	-1E+10	1	-1E+10	1
4902624	2	C	07/11/2024	21:26	-128.893	46.368	0	8.80	0	16.1203	0	32.3560	0	23.689	0	8.727	0	238.8	4	96.7	4	-1E+10	1	0.2993	4	0.001069	0	-1E+10	1	-1E+10	1	-1E+10	1
4902624	2	C	07/11/2024	21:26	-128.893	46.368	0	9.10	0	16.1206	0	32.3560	0	23.689	0	9.025	0	-1e10	1	-1e10	1	-1E+10	1	0.3139	4	0.001045	0	-1E+10	1	-1E+10	1	-1E+10	1
4902624	2	C	07/11/2024	21:26	-128.893	46.368	0	9.30	0	16.1208	0	32.3560	0	23.689	0	9.223	0	-1e10	1	-1e10	1	-1E+10	1	0.3139	4	0.000916	0	-1E+10	1	-1E+10	1	-1E+10	1
4902624	2	C	07/11/2024	21:26	-128.893	46.368	0	9.50	0	16.1210	0	32.3560	0	23.689	0	9.421	0	-1e10	1	-1e10	1	-1E+10	1	0.3358	4	0.000940	0	-1E+10	1	-1E+10	1	-1E+10	1
4902624	2	C	07/11/2024	21:26	-128.893	46.368	0	10.00	0	16.1191	0	32.3563	0	23.689	0	9.917	0	239.2	4	96.9	4	-1E+10	1	0.3535	4	0.001074	0	-1E+10	1	-1E+10	1	-1E+10	1
4902624	2	C	07/11/2024	21:26	-128.893	46.368	0	11.10	0	16.1150	0	32.3570	0	23.691	0	11.008	0	-1e10	1	-1e10	1	-1E+10	1	-1e10	1	-1e10	1	-1E+10	1	-1E+10	1	-1E+10	1
4902624	2	C	07/11/2024	21:26	-128.893	46.368	0	11.20	0	16.1151	0	32.3569	0	23.691	0	11.107	0	239.6	4	97.1	4	-1E+10	1	0.4161	4	0.000963	0	-1E+10	1	-1E+10	1	-1E+10	1
4902624	2	C	07/11/2024	21:26	-128.893	46.368	0	12.40	0	16.1164	0	32.3556	0	23.690	0	12.297	0	240.4	4	97.3	4	-1E+10	1	0.4453	4	0.000963	0	-1E+10	1	-1E+10	1	-1E+10	1
4902624	2	C	07/11/2024	21:26	-128.893	46.368	0	13.00	0	16.1170	0	32.3550	0	23.689	0	12.892	0	-1e10	1	-1e10	1	-1E+10	1	-1e10	1	-1e10	1	-1E+10	1	-1E+10	1	-1E+10	1
4902624	2	C	07/11/2024	21:26	-128.893	46.368	0	13.30	0	16.1137	0	32.3545	0	23.689	0	13.190	0	241.0	4	97.6	4	-1E+10	1	0.4672	4	0.000986	0	-1E+10	1	-1E+10	1	-1E+10	1
4902624	2	C	07/11/2024	21:26	-128.893	46.368	0	14.10	0	16.1049	0	32.3534	0	23.691	0	13.983	0	241.5	4	97.8	4	-1E+10	1	0.4831	4	0.000952	0	-1E+10	1	-1E+10	1	-1E+10	1
4902624	2	C	07/11/2024	21:26	-128.893	46.368	0	14.90	0	16.0961	0	32.3521	0	23.692	0	14.777	0	242.6	4	98.2	4	-1E+10	1	0.4991	4	0.000940	0	-1E+10	1	-1E+10	1	-1E+10	1
4902624	2	C	07/11/2024	21:26	-128.893	46.368	0	15.00	0	16.0950	0	32.3520	0	23.692	0	14.876	0	-1e10	1	-1e10	1	-1E+10	1	-1e10	1	-1e10	1	-1E+10	1	-1E+10	1	-1E+10	1
4902624	2	C	07/11/2024	21:26	-128.893	46.368	0	15.80	0	16.0446	0	32.3528	0	23.704	0	15.669	0	243.8	4	98.6	4	-1E+10	1	0.5411	4	0.000944	0	-1E+10	1	-1E+10	1	-1E+10	1
4902624	2	C	07/11/2024	21:26	-128.893	46.368	0	16.70	0	15.9879	0	32.3537	0	23.717	0	16.562	0	245.4	4	99.1	4	-1E+10	1	0.6088	4	0.000975	0	-1E+10	1	-1E+10	1	-1E+10	1
4902624	2	C	07/11/2024	21:26	-128.893	46.368	0	17.00	0	15.9690	0	32.3540	0	23.722	0	16.859	0	-1e10	1	-1e10	1	-1E+10	1	-1e10	1	-1e10	1	-1E+10	1	-1E+10	1	-1E+10	1
4902624	2	C	07/11/2024	21:26	-128.893	46.368	0	17.50	0	15.9273	0	32.3533	0	23.730	0	17.355	0	246.8	4	99.6	4	-1E+10	1	0.6409	4	0.001019	0	-1E+10	1	-1E+10	1	-1E+10	1
4902624	2	C	07/11/2024	21:26	-128.893	46.368	0	18.30	0	15.8607	0	32.3521	0	23.744	0	18.148	0	248.2	4	100.0	4	-1E+10	1	0.6643	4	0.001057	0	-1E+10	1	-1E+10	1	-1E+10	1
4902624	2	C	07/11/2024	21:26	-128.893	46.368	0	19.10	0	15.7940	0	32.3510	0	23.758	0	18.942	0	250.1	4	100.7	4	-1E+10	1	0.7373	4	0.001280	0	-1E+10	1	-1E+10	1	-1E+10	1
4902624	2	C	07/11/2024	21:26	-128.893	46.368	0	20.10	0	15.5880	0	32.3485	0	23.802	0	19.933	0	252.7	4	101.3	4	-1E+10	1	0.8906	4	0.001209	0	-1E+10	1	-1E+10	1	-1E+10	1
4902624	2	C	07/11/2024	21:26	-128.893	46.368	0	20.70	0	15.4644	0	32.3470	0	23.828	0	20.528	0	254.5	4	101.8	4	-1E+10	1	0.9295	4	0.001350	0	-1E+10	1	-1E+10	1	-1E+10	1
4902624	2	C	07/11/2024	21:26	-128.893	46.368	0	21.10	0	15.3820	0	32.3460	0	23.845	0	20.925	0	-1e10	1	-1e10	1	-1E+10	1	-1e10	1	-1e10	1	-1E+10	1	-1E+10	1	-1E+10	1
4902624	2	C	07/11/2024	21:26	-128.893	46.368	0	21.30	0	15.3149	0	32.3451	0	23.859	0	21.123	0	256.4	4	102.2	4	-1E+10	1	0.9753	4	0.001350	0	-1E+10	1	-1E+10	1	-1E+10	1
4902624	2	C	07/11/2024	21:26	-128.893	46.368	0	21.70	0	15.1808	0	32.3432	0	23.887	0	21.520	0	257.6	4	102.4	4	-1E+10	1	1.0074	4	0.001567	0	-1E+10	1	-1E+10	1	-1E+10	1
4902624	2	C	07/11/2024	21:26	-128.893	46.368	0	22.10	0	15.0467	0	32.3413	0	23.914	0	21.917	0	259.5	4	102.9	4	-1E+10	1	1.0132	4	0.001606	0	-1E+10	1	-1E+10	1	-1E+10	1
4902624	2	C	07/11/2024	21:26	-128.893	46.368	0	22.50	0	14.9126	0	32.3394	0	23.942	0	22.313	0	260.5	4	103.0	4	-1E+10	1	1.0220	4	0.001268	0	-1E+10	1	-1E+10	1	-1E+10	1
4902624	2	C	07/11/2024	21:26	-128.893	46.368	0	23.00	0	14.7450	0	32.3370	0	23.976	0	22.809	0	261.9	4	103.3	4	-1E+10	1	1.1133	4	0.001293	0	-1E+10	1	-1E+10	1	-1E+10	1
4902624	2	C	07/11/2024	21:26	-128.893	46.368	0	23.50	0	14.5279	0	32.3354	0	24.020	0	23.305	0	263.9	4	103.6	4	-1E+10	1	1.1315	4	0.001420	0	-1E+10	1	-1E+10	1	-1E+10	1
4902624	2	C	07/11/2024	21:26	-128.893	46.368	0	24.00	0	14.3108	0	32.3338	0	24.065	0	23.801	0	264.9	4	103.5	4	-1E+10	1	1.1437	4	0.001372	0	-1E+10	1	-1E+10	1	-1E+10	1
4902624	2	C	07/11/2024	21:26	-128.893	46.368	0	24.60	0	14.0503	0	32.3319	0	24.117	0	24.396	0	265.5	4	103.2	4	-1E+10	1	1.1583	4	0.001313	0	-1E+10	1	-1E+10	1	-1E+10	1
4902624	2	C	07/11/2024	21:26	-128.893	46.368	0	24.90	0	13.9200	0	32.3310	0	24.143	0	24.693	0	-1e10	1	-1e10	1	-1E+10	1	-1e10	1	-1e10	1	-1E+10	1	-1E+10	1	-1E+10	1
4902624	2	C	07/11/2024	21:26	-128.893	46.368	0	25.30	0	13.7762	0	32.3342	0	24.175	0	25.090	0	266.2	4	102.9	4	-1E+10	1	1.2319	4	0.001338	0	-1E+10	1	-1E+10	1	-1E+10	1
4902624	2	C	07/11/2024	21:26	-128.893	46.368	0	26.00	0	13.5246	0	32.3398	0	24.230	0	25.784	0	267.4	4	102.8	4	-1E+10	1	1.2693	4	0.001445	0	-1E+10	1	-1E+10	1	-1E+10	1
4902624	2	C	07/11/2024	21:26	-128.893	46.368	0	26.80	0	13.2369	0	32.3462	0	24.292	0	26.577	0	268.2	4	102.6	4	-1E+10	1	1.3140	4	0.001437	0	-1E+10	1	-1E+10	1	-1E+10	1
4902624	2	C	07/11/2024	21:26	-128.893	46.368	0	26.90	0	13.2010	0	32.3470	0	24.300	0	26.677	0	-1e10	1	-1e10	1	-1E+10	1	-1e10	1	-1e10	1	-1E+10	1	-1E+10	1	-1E+10	1
4902624	2	C	07/11/2024	21:26	-128.893	46.368	0	27.60	0	13.0982	0	32.3467	0	24.320	0	27.371	0	268.0	4	102.2	4	-1E+10	1	1.3833	4	0.001362	0	-1E+10	1	-1E+10	1	-1E+10	1
4902624	2	C	07/11/2024	21:26	-128.893	46.368	0	28.40	0	12.9808	0	32.3463	0	24.343	0	28.164	0	268.1	4	102.0	4	-1E+10	1	1.4461	4	0.001375	0	-1E+10	1	-1E+10	1	-1E+10	1
4902624	2	C	07/11/2024	21:26	-128.893	46.368	0	29.10	0	12.8780	0	32.3460	0	24.363	0	28.858	0	-1e10	1	-1e10	1	-1E+10	1	-1e10	1	-1e10	1	-1E+10	1	-1E+10	1	-1E+10	1
4902624	2	C	07/11/2024	21:26	-128.893	46.368	0	29.20	0	12.8576	0	32.3461	0	24.367	0	28.957	0	267.8	4	101.6	4	-1E+10	1	1.4837	4	0.001472	0	-1E+10	1	-1E+10	1	-1E+10	1
4902624	2	C	07/11/2024	21:26	-128.893	46.368	0	30.10	0	12.6740	0	32.3465	0	24.403	0	29.850	0	267.8	4	101.2	4	-1E+10	1	1.4859	4	0.001328	0	-1E+10	1	-1E+10	1	-1E+10	1
4902624	2	C	07/11/2024	21:26	-128.893	46.368	0	31.00	0	12.4904	0	32.3470	0	24.438	0	30.742	0	267.5	4	100.8	4	-1E+10	1	1.4381	4	0.001174	0	-1E+10	1	-1E+10	1	-1E+10	1
4902624	2	C	07/11/2024	21:26	-128.893	46.368	0	31.10	0	12.4700	0	32.3470	0	24.442	0	30.841	0	-1e10	1	-1e10	1	-1E+10	1	-1e10	1	-1e10	1	-1E+10	1	-1E+10	1	-1E+10	1
4902624	2	C	07/11/2024	21:26	-128.893	46.368	0	31.90	0	12.3188	0	32.3466	0	24.470	0	31.635	0	267.6	4	100.4	4	-1E+10	1	1.4560	4	0.001184	0	-1E+10	1	-1E+10	1	-1E+10	1
4902624	2	C	07/11/2024	21:26	-128.893	46.368	0	32.90	0	12.1299	0	32.3461	0	24.506	0	32.626	0	267.7	4	100.1	4	-1E+10	1	1.4795	4	0.001141	0	-1E+10	1	-1E+10	1	-1E+10	1
4902624	2	C	07/11/2024	21:26	-128.893	46.368	0	33.00	0	12.1110	0	32.3460	0	24.509	0	32.725	0	-1e10	1	-1e10	1	-1E+10	1	-1e10	1	-1e10	1	-1E+10	1	-1E+10	1	-1E+10	1
4902624	2	C	07/11/2024	21:26	-128.893	46.368	0	33.80	0	12.0770	0	32.3476	0	24.517	0	33.519	0	267.5	4	99.9	4	-1E+10	1	1.5111	4	0.001146	0	-1E+10	1	-1E+10	1	-1E+10	1
4902624	2	C	07/11/2024	21:26	-128.893	46.368	0	34.80	0	12.0345	0	32.3496	0	24.526	0	34.510	0	267.2	4	99.7	4	-1E+10	1	1.5403	4	0.001092	0	-1E+10	1	-1E+10	1	-1E+10	1
4902624	2	C	07/11/2024	21:26	-128.893	46.368	0	35.00	0	12.0260	0	32.3500	0	24.528	0	34.709	0	-1e10	1	-1e10	1	-1E+10	1	-1e10	1	-1e10	1	-1E+10	1	-1E+10	1	-1E+10	1
4902624	2	C	07/11/2024	21:26	-128.893	46.368	0	35.90	0	11.9310	0	32.3559	0	24.550	0	35.601	0	267.1	4	99.5	4	-1E+10	1	1.5483	4	0.001028	0	-1E+10	1	-1E+10	1	-1E+10	1
4902624	2	C	07/11/2024	21:26	-128.893	46.368	0	36.90	0	11.8256	0	32.3624	0	24.575	0	36.593	0	267.0	4	99.2	4	-1E+10	1	1.5525	4	0.000998	0	-1E+10	1	-1E+10	1	-1E+10	1
4902624	2	C	07/11/2024	21:26	-128.893	46.368	0	37.00	0	11.8150	0	32.3630	0	24.577	0	36.692	0	-1e10	1	-1e10	1	-1E+10	1	-1e10	1	-1e10	1	-1E+10	1	-1E+10	1	-1E+10	1
4902624	2	C	07/11/2024	21:26	-128.893	46.368	0	37.90	0	11.7830	0	32.3621	0	24.583	0	37.584	0	266.6	4	98.9	4	-1E+10	1	1.5768	4	0.000958	0	-1E+10	1	-1E+10	1	-1E+10	1
4902624	2	C	07/11/2024	21:26	-128.893	46.368	0	39.00	0	11.7440	0	32.3610	0	24.589	0	38.675	0	264.4	4	98.1	4	-1E+10	1	1.5768	4	0.000994	0	-1E+10	1	-1E+10	1	-1E+10	1
4902624	2	C	07/11/2024	21:26	-128.893	46.368	0	40.00	0	11.6392	0	32.3662	0	24.612	0	39.666	0	266.3	4	98.5	4	-1E+10	1	1.5695	4	0.000963	0	-1E+10	1	-1E+10	1	-1E+10	1
4902624	2	C	07/11/2024	21:26	-128.893	46.368	0	41.10	0	11.5240	0	32.3720	0	24.638	0	40.757	0	264.4	4	97.6	4	-1E+10	1	1.5571	4	0.000913	0	-1E+10	1	-1E+10	1	-1E+10	1
4902624	2	C	07/11/2024	21:26	-128.893	46.368	0	42.10	0	11.3970	0	32.3740	0	24.662	0	41.749	0	266.2	4	98.0	4	-1E+10	1	1.5452	4	0.000904	0	-1E+10	1	-1E+10	1	-1E+10	1
4902624	2	C	07/11/2024	21:26	-128.893	46.368	0	43.10	0	11.2700	0	32.3760	0	24.686	0	42.740	0	-1e10	1	-1e10	1	-1E+10	1	-1e10	1	-1e10	1	-1E+10	1	-1E+10	1	-1E+10	1
4902624	2	C	07/11/2024	21:26	-128.893	46.368	0	43.20	0	11.2535	0	32.3768	0	24.690	0	42.839	0	266.1	4	97.7	4	-1E+10	1	1.5217	4	0.000889	0	-1E+10	1	-1E+10	1	-1E+10	1
4902624	2	C	07/11/2024	21:26	-128.893	46.368	0	44.20	0	11.0882	0	32.3853	0	24.726	0	43.831	0	266.3	4	97.4	4	-1E+10	1	1.5038	4	0.000881	0	-1E+10	1	-1E+10	1	-1E+10	1
4902624	2	C	07/11/2024	21:26	-128.893	46.368	0	45.00	0	10.9560	0	32.3920	0	24.754	0	44.624	0	-1e10	1	-1e10	1	-1E+10	1	-1e10	1	-1e10	1	-1E+10	1	-1E+10	1	-1E+10	1
4902624	2	C	07/11/2024	21:26	-128.893	46.368	0	45.30	0	10.9020	0	32.3932	0	24.765	0	44.922	0	266.6	4	97.1	4	-1E+10	1	1.4937	4	0.000867	0	-1E+10	1	-1E+10	1	-1E+10	1
4902624	2	C	07/11/2024	21:26	-128.893	46.368	0	46.30	0	10.7220	0	32.3972	0	24.799	0	45.913	0	266.8	4	96.9	4	-1E+10	1	1.4863	4	0.000843	0	-1E+10	1	-1E+10	1	-1E+10	1
4902624	2	C	07/11/2024	21:26	-128.893	46.368	0	47.00	0	10.5960	0	32.4000	0	24.823	0	46.607	0	-1e10	1	-1e10	1	-1E+10	1	-1e10	1	-1e10	1	-1E+10	1	-1E+10	1	-1E+10	1
4902624	2	C	07/11/2024	21:26	-128.893	46.368	0	47.30	0	10.5486	0	32.4001	0	24.831	0	46.905	0	267.0	4	96.6	4	-1E+10	1	1.4611	4	0.000827	0	-1E+10	1	-1E+10	1	-1E+10	1
4902624	2	C	07/11/2024	21:26	-128.893	46.368	0	48.40	0	10.3747	0	32.4007	0	24.861	0	47.995	0	267.0	4	96.2	4	-1E+10	1	1.3870	4	0.000787	0	-1E+10	1	-1E+10	1	-1E+10	1
4902624	2	C	07/11/2024	21:26	-128.893	46.368	0	49.10	0	10.2640	0	32.4010	0	24.880	0	48.689	0	-1e10	1	-1e10	1	-1E+10	1	-1e10	1	-1e10	1	-1E+10	1	-1E+10	1	-1E+10	1
4902624	2	C	07/11/2024	21:26	-128.893	46.368	0	49.50	0	10.2053	0	32.3995	0	24.889	0	49.086	0	266.7	4	95.8	4	-1E+10	1	1.4117	4	0.000817	0	-1E+10	1	-1E+10	1	-1E+10	1
4902624	2	C	07/11/2024	21:26	-128.893	46.368	0	50.60	0	10.0437	0	32.3955	0	24.913	0	50.177	0	266.3	4	95.3	4	-1E+10	1	1.3888	4	0.000778	0	-1E+10	1	-1E+10	1	-1E+10	1
4902624	2	C	07/11/2024	21:26	-128.893	46.368	0	51.00	0	9.9850	0	32.3940	0	24.921	0	50.573	0	-1e10	1	-1e10	1	-1E+10	1	-1e10	1	-1e10	1	-1E+10	1	-1E+10	1	-1E+10	1
4902624	2	C	07/11/2024	21:26	-128.893	46.368	0	51.80	0	9.9198	0	32.3900	0	24.929	0	51.367	0	266.1	4	94.9	4	-1E+10	1	1.3562	4	0.000771	0	-1E+10	1	-1E+10	1	-1E+10	1
4902624	2	C	07/11/2024	21:26	-128.893	46.368	0	53.00	0	9.8220	0	32.3840	0	24.941	0	52.556	0	262.5	4	93.5	4	-1E+10	1	1.3067	4	0.000769	0	-1E+10	1	-1E+10	1	-1E+10	1
4902624	2	C	07/11/2024	21:26	-128.893	46.368	0	54.20	0	9.7140	0	32.3864	0	24.960	0	53.746	0	264.8	4	94.0	4	-1E+10	1	1.2669	4	0.000737	0	-1E+10	1	-1E+10	1	-1E+10	1
4902624	2	C	07/11/2024	21:26	-128.893	46.368	0	55.00	0	9.6420	0	32.3880	0	24.973	0	54.539	0	-1e10	1	-1e10	1	-1E+10	1	-1e10	1	-1e10	1	-1E+10	1	-1E+10	1	-1E+10	1
4902624	2	C	07/11/2024	21:26	-128.893	46.368	0	55.30	0	9.6222	0	32.3883	0	24.976	0	54.837	0	264.2	4	93.7	4	-1E+10	1	1.2264	4	0.000693	0	-1E+10	1	-1E+10	1	-1E+10	1
4902624	2	C	07/11/2024	21:26	-128.893	46.368	0	56.50	0	9.5430	0	32.3895	0	24.990	0	56.027	0	263.5	4	93.3	4	-1E+10	1	1.1670	4	0.000763	0	-1E+10	1	-1E+10	1	-1E+10	1
4902624	2	C	07/11/2024	21:26	-128.893	46.368	0	57.00	0	9.5100	0	32.3900	0	24.996	0	56.522	0	-1e10	1	-1e10	1	-1E+10	1	-1e10	1	-1e10	1	-1E+10	1	-1E+10	1	-1E+10	1
4902624	2	C	07/11/2024	21:26	-128.893	46.368	0	57.70	0	9.4855	0	32.3924	0	25.002	0	57.216	0	262.9	4	92.9	4	-1E+10	1	1.2483	4	0.001326	0	-1E+10	1	-1E+10	1	-1E+10	1
4902624	2	C	07/11/2024	21:26	-128.893	46.368	0	58.90	0	9.4435	0	32.3966	0	25.012	0	58.406	0	262.2	4	92.6	4	-1E+10	1	1.0293	4	0.000681	0	-1E+10	1	-1E+10	1	-1E+10	1
4902624	2	C	07/11/2024	21:26	-128.893	46.368	0	59.00	0	9.4400	0	32.3970	0	25.012	0	58.505	0	-1e10	1	-1e10	1	-1E+10	1	-1e10	1	-1e10	1	-1E+10	1	-1E+10	1	-1E+10	1
4902624	2	C	07/11/2024	21:26	-128.893	46.368	0	60.10	0	9.4168	0	32.4011	0	25.019	0	59.596	0	261.6	4	92.3	4	-1E+10	1	1.0001	4	0.000662	0	-1E+10	1	-1E+10	1	-1E+10	1
4902624	2	C	07/11/2024	21:26	-128.893	46.368	0	60.90	0	9.4000	0	32.4040	0	25.024	0	60.389	0	-1e10	1	-1e10	1	-1E+10	1	-1e10	1	-1e10	1	-1E+10	1	-1E+10	1	-1E+10	1
4902624	2	C	07/11/2024	21:26	-128.893	46.368	0	61.30	0	9.3886	0	32.4048	0	25.027	0	60.786	0	261.2	4	92.1	4	-1E+10	1	0.9654	4	0.000640	0	-1E+10	1	-1E+10	1	-1E+10	1
4902624	2	C	07/11/2024	21:26	-128.893	46.368	0	62.50	0	9.3543	0	32.4070	0	25.034	0	61.975	0	260.7	4	91.9	4	-1E+10	1	0.9384	4	0.000625	0	-1E+10	1	-1E+10	1	-1E+10	1
4902624	2	C	07/11/2024	21:26	-128.893	46.368	0	63.00	0	9.3400	0	32.4080	0	25.037	0	62.471	0	-1e10	1	-1e10	1	-1E+10	1	-1e10	1	-1e10	1	-1E+10	1	-1E+10	1	-1E+10	1
4902624	2	C	07/11/2024	21:26	-128.893	46.368	0	63.70	0	9.3218	0	32.4084	0	25.040	0	63.165	0	260.2	4	91.6	4	-1E+10	1	0.8857	4	0.000630	0	-1E+10	1	-1E+10	1	-1E+10	1
4902624	2	C	07/11/2024	21:26	-128.893	46.368	0	64.90	0	9.2906	0	32.4090	0	25.046	0	64.355	0	259.7	4	91.4	4	-1E+10	1	0.8322	4	0.000628	0	-1E+10	1	-1E+10	1	-1E+10	1
4902624	2	C	07/11/2024	21:26	-128.893	46.368	0	65.00	0	9.2880	0	32.4090	0	25.046	0	64.454	0	-1e10	1	-1e10	1	-1E+10	1	-1e10	1	-1e10	1	-1E+10	1	-1E+10	1	-1E+10	1
4902624	2	C	07/11/2024	21:26	-128.893	46.368	0	66.00	0	9.2696	0	32.4111	0	25.051	0	65.446	0	259.1	4	91.2	4	-1E+10	1	0.7709	4	0.000585	0	-1E+10	1	-1E+10	1	-1E+10	1
4902624	2	C	07/11/2024	21:26	-128.893	46.368	0	66.90	0	9.2530	0	32.4130	0	25.055	0	66.338	0	-1e10	1	-1e10	1	-1E+10	1	-1e10	1	-1e10	1	-1E+10	1	-1E+10	1	-1E+10	1
4902624	2	C	07/11/2024	21:26	-128.893	46.368	0	67.00	0	9.2520	0	32.4132	0	25.055	0	66.437	0	258.7	4	91.0	4	-1E+10	1	0.7081	4	0.000543	0	-1E+10	1	-1E+10	1	-1E+10	1
4902624	2	C	07/11/2024	21:26	-128.893	46.368	0	67.80	0	9.2440	0	32.4146	0	25.057	0	67.230	0	258.1	4	90.8	4	-1E+10	1	0.6797	4	0.000561	0	-1E+10	1	-1E+10	1	-1E+10	1
4902624	2	C	07/11/2024	21:26	-128.893	46.368	0	68.50	0	9.2370	0	32.4159	0	25.060	0	67.924	0	257.7	4	90.6	4	-1E+10	1	0.6570	4	0.000552	0	-1E+10	1	-1E+10	1	-1E+10	1
4902624	2	C	07/11/2024	21:26	-128.893	46.368	0	69.10	0	9.2310	0	32.4170	0	25.061	0	68.519	0	-1e10	1	-1e10	1	-1E+10	1	-1e10	1	-1e10	1	-1E+10	1	-1E+10	1	-1E+10	1
4902624	2	C	07/11/2024	21:26	-128.893	46.368	0	69.20	0	9.2280	0	32.4172	0	25.062	0	68.618	0	257.2	4	90.4	4	-1E+10	1	0.6132	4	0.000540	0	-1E+10	1	-1E+10	1	-1E+10	1
4902624	2	C	07/11/2024	21:26	-128.893	46.368	0	70.10	0	9.2010	0	32.4190	0	25.068	0	69.510	0	256.6	4	90.2	4	-1E+10	1	0.5913	4	0.000540	0	-1E+10	1	-1E+10	1	-1E+10	1
4902624	2	C	07/11/2024	21:26	-128.893	46.368	0	70.80	0	9.1800	0	32.4204	0	25.072	0	70.204	0	256.1	4	89.9	4	-1E+10	1	0.5453	4	0.000511	0	-1E+10	1	-1E+10	1	-1E+10	1
4902624	2	C	07/11/2024	21:26	-128.893	46.368	0	71.10	0	9.1710	0	32.4210	0	25.074	0	70.502	0	-1e10	1	-1e10	1	-1E+10	1	-1e10	1	-1e10	1	-1E+10	1	-1E+10	1	-1E+10	1
4902624	2	C	07/11/2024	21:26	-128.893	46.368	0	71.50	0	9.1575	0	32.4227	0	25.077	0	70.898	0	255.6	4	89.7	4	-1E+10	1	0.4964	4	0.000469	0	-1E+10	1	-1E+10	1	-1E+10	1
4902624	2	C	07/11/2024	21:26	-128.893	46.368	0	72.30	0	9.1306	0	32.4261	0	25.084	0	71.692	0	255.0	4	89.5	4	-1E+10	1	0.4542	4	0.000427	0	-1E+10	1	-1E+10	1	-1E+10	1
4902624	2	C	07/11/2024	21:26	-128.893	46.368	0	73.00	0	9.1070	0	32.4290	0	25.090	0	72.385	0	251.5	4	88.2	4	-1E+10	1	0.4292	4	0.000422	0	-1E+10	1	-1E+10	1	-1E+10	1
4902624	2	C	07/11/2024	21:26	-128.893	46.368	0	73.80	0	9.0854	0	32.4322	0	25.096	0	73.179	0	254.1	4	89.0	4	-1E+10	1	0.4051	4	0.000445	0	-1E+10	1	-1E+10	1	-1E+10	1
4902624	2	C	07/11/2024	21:26	-128.893	46.368	0	74.60	0	9.0638	0	32.4354	0	25.102	0	73.972	0	253.5	4	88.8	4	-1E+10	1	0.3812	4	0.000437	0	-1E+10	1	-1E+10	1	-1E+10	1
4902624	2	C	07/11/2024	21:26	-128.893	46.368	0	75.00	0	9.0530	0	32.4370	0	25.105	0	74.368	0	-1e10	1	-1e10	1	-1E+10	1	-1e10	1	-1e10	1	-1E+10	1	-1E+10	1	-1E+10	1
4902624	2	C	07/11/2024	21:26	-128.893	46.368	0	75.40	0	9.0433	0	32.4389	0	25.108	0	74.765	0	252.6	4	88.4	4	-1E+10	1	0.3942	4	0.000458	0	-1E+10	1	-1E+10	1	-1E+10	1
4902624	2	C	07/11/2024	21:26	-128.893	46.368	0	76.30	0	9.0215	0	32.4432	0	25.115	0	75.657	0	251.9	4	88.2	4	-1E+10	1	0.3548	4	0.000426	0	-1E+10	1	-1E+10	1	-1E+10	1
4902624	2	C	07/11/2024	21:26	-128.893	46.368	0	76.90	0	9.0070	0	32.4460	0	25.119	0	76.252	0	-1e10	1	-1e10	1	-1E+10	1	-1e10	1	-1e10	1	-1E+10	1	-1E+10	1	-1E+10	1
4902624	2	C	07/11/2024	21:26	-128.893	46.368	0	77.10	0	9.0020	0	32.4461	0	25.120	0	76.450	0	251.3	4	87.9	4	-1E+10	1	0.3568	4	0.000433	0	-1E+10	1	-1E+10	1	-1E+10	1
4902624	2	C	07/11/2024	21:26	-128.893	46.368	0	77.90	0	8.9820	0	32.4465	0	25.123	0	77.243	0	250.5	4	87.6	4	-1E+10	1	0.3424	4	0.000426	0	-1E+10	1	-1E+10	1	-1E+10	1
4902624	2	C	07/11/2024	21:26	-128.893	46.368	0	78.70	0	8.9620	0	32.4469	0	25.127	0	78.036	0	249.8	4	87.3	4	-1E+10	1	0.3321	4	0.000423	0	-1E+10	1	-1E+10	1	-1E+10	1
4902624	2	C	07/11/2024	21:26	-128.893	46.368	0	78.90	0	8.9570	0	32.4470	0	25.128	0	78.235	0	-1e10	1	-1e10	1	-1E+10	1	-1e10	1	-1e10	1	-1E+10	1	-1E+10	1	-1E+10	1
4902624	2	C	07/11/2024	21:26	-128.893	46.368	0	79.50	0	8.9318	0	32.4491	0	25.133	0	78.830	0	249.0	4	87.0	4	-1E+10	1	0.3203	4	0.000419	0	-1E+10	1	-1E+10	1	-1E+10	1
4902624	2	C	07/11/2024	21:26	-128.893	46.368	0	80.40	0	8.8940	0	32.4522	0	25.142	0	79.722	0	248.0	4	86.5	4	-1E+10	1	0.2862	4	0.000416	0	-1E+10	1	-1E+10	1	-1E+10	1
4902624	2	C	07/11/2024	21:26	-128.893	46.368	0	80.90	0	8.8730	0	32.4540	0	25.146	0	80.217	0	-1e10	1	-1e10	1	-1E+10	1	-1e10	1	-1e10	1	-1E+10	1	-1E+10	1	-1E+10	1
4902624	2	C	07/11/2024	21:26	-128.893	46.368	0	81.20	0	8.8680	0	32.4571	0	25.149	0	80.515	0	246.9	4	86.1	4	-1E+10	1	0.2568	4	0.000410	0	-1E+10	1	-1E+10	1	-1E+10	1
4902624	2	C	07/11/2024	21:26	-128.893	46.368	0	82.10	0	8.8530	0	32.4666	0	25.159	0	81.407	0	245.9	4	85.8	4	-1E+10	1	0.2628	4	0.000353	0	-1E+10	1	-1E+10	1	-1E+10	1
4902624	2	C	07/11/2024	21:26	-128.893	46.368	0	82.90	0	8.8397	0	32.4750	0	25.168	0	82.200	0	244.8	4	85.3	4	-1E+10	1	0.2482	4	0.000353	0	-1E+10	1	-1E+10	1	-1E+10	1
4902624	2	C	07/11/2024	21:26	-128.893	46.368	0	83.00	0	8.8380	0	32.4760	0	25.169	0	82.299	0	-1e10	1	-1e10	1	-1E+10	1	-1e10	1	-1e10	1	-1E+10	1	-1E+10	1	-1E+10	1
4902624	2	C	07/11/2024	21:26	-128.893	46.368	0	83.80	0	8.8112	0	32.4812	0	25.177	0	83.092	0	243.4	4	84.8	4	-1E+10	1	0.2840	4	0.000381	0	-1E+10	1	-1E+10	1	-1E+10	1
4902624	2	C	07/11/2024	21:26	-128.893	46.368	0	84.60	0	8.7844	0	32.4864	0	25.185	0	83.885	0	242.1	4	84.3	4	-1E+10	1	0.2570	4	0.000383	0	-1E+10	1	-1E+10	1	-1E+10	1
4902624	2	C	07/11/2024	21:26	-128.893	46.368	0	85.00	0	8.7710	0	32.4890	0	25.189	0	84.282	0	-1e10	1	-1e10	1	-1E+10	1	-1e10	1	-1e10	1	-1E+10	1	-1E+10	1	-1E+10	1
4902624	2	C	07/11/2024	21:26	-128.893	46.368	0	85.50	0	8.7598	0	32.4972	0	25.197	0	84.778	0	240.7	4	83.8	4	-1E+10	1	0.2417	4	0.000391	0	-1E+10	1	-1E+10	1	-1E+10	1
4902624	2	C	07/11/2024	21:26	-128.893	46.368	0	86.40	0	8.7395	0	32.5121	0	25.212	0	85.670	0	239.1	4	83.2	4	-1E+10	1	0.2373	4	0.000429	0	-1E+10	1	-1E+10	1	-1E+10	1
4902624	2	C	07/11/2024	21:26	-128.893	46.368	0	87.00	0	8.7260	0	32.5220	0	25.222	0	86.265	0	-1e10	1	-1e10	1	-1E+10	1	-1e10	1	-1e10	1	-1E+10	1	-1E+10	1	-1E+10	1
4902624	2	C	07/11/2024	21:26	-128.893	46.368	0	87.30	0	8.7181	0	32.5256	0	25.226	0	86.562	0	237.3	4	82.5	4	-1E+10	1	0.2290	4	0.000411	0	-1E+10	1	-1E+10	1	-1E+10	1
4902624	2	C	07/11/2024	21:26	-128.893	46.368	0	88.20	0	8.6942	0	32.5364	0	25.238	0	87.454	0	235.2	4	81.8	4	-1E+10	1	0.2368	4	0.000332	0	-1E+10	1	-1E+10	1	-1E+10	1
4902624	2	C	07/11/2024	21:26	-128.893	46.368	0	89.00	0	8.6730	0	32.5460	0	25.249	0	88.247	0	-1e10	1	-1e10	1	-1E+10	1	-1e10	1	-1e10	1	-1E+10	1	-1E+10	1	-1E+10	1
4902624	2	C	07/11/2024	21:26	-128.893	46.368	0	89.10	0	8.6679	0	32.5474	0	25.251	0	88.347	0	233.0	4	81.0	4	-1E+10	1	0.2482	4	0.000336	0	-1E+10	1	-1E+10	1	-1E+10	1
4902624	2	C	07/11/2024	21:26	-128.893	46.368	0	90.00	0	8.6219	0	32.5602	0	25.268	0	89.239	0	231.0	4	80.2	4	-1E+10	1	0.2482	4	0.000317	0	-1E+10	1	-1E+10	1	-1E+10	1
4902624	2	C	07/11/2024	21:26	-128.893	46.368	0	90.90	0	8.5760	0	32.5730	0	25.285	0	90.131	0	-1e10	1	-1e10	1	-1E+10	1	-1e10	1	-1e10	1	-1E+10	1	-1E+10	1	-1E+10	1
4902624	2	C	07/11/2024	21:26	-128.893	46.368	0	91.00	0	8.5709	0	32.5750	0	25.287	0	90.230	0	229.1	4	79.4	4	-1E+10	1	0.2217	4	0.000317	0	-1E+10	1	-1E+10	1	-1E+10	1
4902624	2	C	07/11/2024	21:26	-128.893	46.368	0	91.90	0	8.5250	0	32.5930	0	25.308	0	91.122	0	227.0	4	78.7	4	-1E+10	1	0.2365	4	0.000308	0	-1E+10	1	-1E+10	1	-1E+10	1
4902624	2	C	07/11/2024	21:26	-128.893	46.368	0	92.90	0	8.4741	0	32.6130	0	25.331	0	92.114	0	225.0	4	77.9	4	-1E+10	1	0.2197	4	0.000323	0	-1E+10	1	-1E+10	1	-1E+10	1
4902624	2	C	07/11/2024	21:26	-128.893	46.368	0	93.00	0	8.4690	0	32.6150	0	25.334	0	92.213	0	-1e10	1	-1e10	1	-1E+10	1	-1e10	1	-1e10	1	-1E+10	1	-1E+10	1	-1E+10	1
4902624	2	C	07/11/2024	21:26	-128.893	46.368	0	93.80	0	8.3951	0	32.6329	0	25.359	0	93.006	0	223.6	4	77.3	4	-1E+10	1	0.2007	4	0.000364	0	-1E+10	1	-1E+10	1	-1E+10	1
4902624	2	C	07/11/2024	21:26	-128.893	46.368	0	94.70	0	8.3120	0	32.6530	0	25.387	0	93.898	0	222.3	4	76.7	4	-1E+10	1	0.1986	4	0.000561	0	-1E+10	1	-1E+10	1	-1E+10	1
4902624	2	C	07/11/2024	21:26	-128.893	46.368	0	95.10	0	8.2750	0	32.6620	0	25.399	0	94.294	0	-1e10	1	-1e10	1	-1E+10	1	-1e10	1	-1e10	1	-1E+10	1	-1E+10	1	-1E+10	1
4902624	2	C	07/11/2024	21:26	-128.893	46.368	0	95.70	0	8.2542	0	32.6712	0	25.410	0	94.889	0	220.9	4	76.1	4	-1E+10	1	0.2090	4	0.000779	0	-1E+10	1	-1E+10	1	-1E+10	1
4902624	2	C	07/11/2024	21:26	-128.893	46.368	0	96.70	0	8.2194	0	32.6864	0	25.427	0	95.880	0	219.4	4	75.6	4	-1E+10	1	0.1825	4	0.000352	0	-1E+10	1	-1E+10	1	-1E+10	1
4902624	2	C	07/11/2024	21:26	-128.893	46.368	0	97.00	0	8.2090	0	32.6910	0	25.432	0	96.178	0	-1e10	1	-1e10	1	-1E+10	1	-1e10	1	-1e10	1	-1E+10	1	-1E+10	1	-1E+10	1
4902624	2	C	07/11/2024	21:26	-128.893	46.368	0	97.70	0	8.1750	0	32.7100	0	25.452	0	96.872	0	218.0	4	75.0	4	-1E+10	1	0.1825	4	0.000352	0	-1E+10	1	-1E+10	1	-1E+10	1
4902624	2	C	07/11/2024	21:26	-128.893	46.368	0	98.70	0	8.1264	0	32.7371	0	25.480	0	97.863	0	216.9	4	74.6	4	-1E+10	1	0.1898	4	0.000352	0	-1E+10	1	-1E+10	1	-1E+10	1
4902624	2	C	07/11/2024	21:26	-128.893	46.368	0	99.10	0	8.1070	0	32.7480	0	25.492	0	98.260	0	-1e10	1	-1e10	1	-1E+10	1	-1e10	1	-1e10	1	-1E+10	1	-1E+10	1	-1E+10	1
4902624	2	C	07/11/2024	21:26	-128.893	46.368	0	99.80	0	8.0878	0	32.7575	0	25.502	0	98.953	0	215.7	4	74.1	4	-1E+10	1	0.1774	4	0.000332	0	-1E+10	1	-1E+10	1	-1E+10	1
4902624	2	C	07/11/2024	21:26	-128.893	46.368	0	100.80	0	8.0603	0	32.7710	0	25.517	0	99.945	0	214.6	4	73.7	4	-1E+10	1	0.1849	4	0.000321	0	-1E+10	1	-1E+10	1	-1E+10	1
4902624	2	C	07/11/2024	21:26	-128.893	46.368	0	101.10	0	8.0520	0	32.7750	0	25.521	0	100.242	0	-1e10	1	-1e10	1	-1E+10	1	-1e10	1	-1e10	1	-1E+10	1	-1E+10	1	-1E+10	1
4902624	2	C	07/11/2024	21:26	-128.893	46.368	0	101.90	0	8.0326	0	32.7876	0	25.534	0	101.035	0	213.6	4	73.3	4	-1E+10	1	0.1759	4	0.000347	0	-1E+10	1	-1E+10	1	-1E+10	1
4902624	2	C	07/11/2024	21:26	-128.893	46.368	0	102.90	0	8.0084	0	32.8034	0	25.550	0	102.026	0	212.8	4	73.0	4	-1E+10	1	0.1679	4	0.000376	0	-1E+10	1	-1E+10	1	-1E+10	1
4902624	2	C	07/11/2024	21:26	-128.893	46.368	0	103.00	0	8.0060	0	32.8050	0	25.551	0	102.126	0	-1e10	1	-1e10	1	-1E+10	1	-1e10	1	-1e10	1	-1E+10	1	-1E+10	1	-1E+10	1
4902624	2	C	07/11/2024	21:26	-128.893	46.368	0	104.00	0	7.9784	0	32.8269	0	25.572	0	103.117	0	211.7	4	72.6	4	-1E+10	1	0.1579	4	0.000366	0	-1E+10	1	-1E+10	1	-1E+10	1
4902624	2	C	07/11/2024	21:26	-128.893	46.368	0	105.10	0	7.9480	0	32.8510	0	25.596	0	104.207	0	207.5	4	71.1	4	-1E+10	1	0.1551	4	0.000331	0	-1E+10	1	-1E+10	1	-1E+10	1
4902624	2	C	07/11/2024	21:26	-128.893	46.368	0	106.20	0	7.9301	0	32.8649	0	25.609	0	105.298	0	210.3	4	72.1	4	-1E+10	1	0.1612	4	0.000321	0	-1E+10	1	-1E+10	1	-1E+10	1
4902624	2	C	07/11/2024	21:26	-128.893	46.368	0	107.00	0	7.9170	0	32.8750	0	25.619	0	106.091	0	-1e10	1	-1e10	1	-1E+10	1	-1e10	1	-1e10	1	-1E+10	1	-1E+10	1	-1E+10	1
4902624	2	C	07/11/2024	21:26	-128.893	46.368	0	107.30	0	7.9120	0	32.8815	0	25.625	0	106.388	0	209.5	4	71.8	4	-1E+10	1	0.1460	4	0.000329	0	-1E+10	1	-1E+10	1	-1E+10	1
4902624	2	C	07/11/2024	21:26	-128.893	46.368	0	108.50	0	7.8923	0	32.9072	0	25.648	0	107.577	0	209.1	4	71.6	4	-1E+10	1	0.1460	4	0.000329	0	-1E+10	1	-1E+10	1	-1E+10	1
4902624	2	C	07/11/2024	21:26	-128.893	46.368	0	109.00	0	7.8840	0	32.9180	0	25.658	0	108.073	0	-1e10	1	-1e10	1	-1E+10	1	-1e10	1	-1e10	1	-1E+10	1	-1E+10	1	-1E+10	1
4902624	2	C	07/11/2024	21:26	-128.893	46.368	0	109.50	0	7.8765	0	32.9297	0	25.668	0	108.569	0	208.6	4	71.4	4	-1E+10	1	0.1460	4	0.000341	0	-1E+10	1	-1E+10	1	-1E+10	1
4902624	2	C	07/11/2024	21:26	-128.893	46.368	0	110.40	0	7.8630	0	32.9509	0	25.686	0	109.461	0	208.7	4	71.4	4	-1E+10	1	0.1400	4	0.000341	0	-1E+10	1	-1E+10	1	-1E+10	1
4902624	2	C	07/11/2024	21:26	-128.893	46.368	0	111.00	0	7.8540	0	32.9650	0	25.699	0	110.055	0	-1e10	1	-1e10	1	-1E+10	1	-1e10	1	-1e10	1	-1E+10	1	-1E+10	1	-1E+10	1
4902624	2	C	07/11/2024	21:26	-128.893	46.368	0	111.20	0	7.8519	0	32.9720	0	25.705	0	110.254	0	208.6	4	71.4	4	-1E+10	1	0.1144	4	0.000317	0	-1E+10	1	-1E+10	1	-1E+10	1
4902624	2	C	07/11/2024	21:26	-128.893	46.368	0	111.90	0	7.8446	0	32.9967	0	25.725	0	110.948	0	207.9	4	71.2	4	-1E+10	1	0.1022	4	0.000305	0	-1E+10	1	-1E+10	1	-1E+10	1
4902624	2	C	07/11/2024	21:26	-128.893	46.368	0	112.70	0	7.8362	0	33.0249	0	25.748	0	111.741	0	207.8	4	71.1	4	-1E+10	1	0.1103	4	0.000313	0	-1E+10	1	-1E+10	1	-1E+10	1
4902624	2	C	07/11/2024	21:26	-128.893	46.368	0	113.10	0	7.8320	0	33.0390	0	25.760	0	112.137	0	-1e10	1	-1e10	1	-1E+10	1	-1e10	1	-1e10	1	-1E+10	1	-1E+10	1	-1E+10	1
4902624	2	C	07/11/2024	21:26	-128.893	46.368	0	113.40	0	7.8265	0	33.0406	0	25.762	0	112.434	0	207.4	4	71.0	4	-1E+10	1	0.1234	4	0.000318	0	-1E+10	1	-1E+10	1	-1E+10	1
4902624	2	C	07/11/2024	21:26	-128.893	46.368	0	114.20	0	7.8117	0	33.0448	0	25.768	0	113.227	0	207.5	4	71.0	4	-1E+10	1	0.1356	4	0.000315	0	-1E+10	1	-1E+10	1	-1E+10	1
4902624	2	C	07/11/2024	21:26	-128.893	46.368	0	114.90	0	7.7988	0	33.0485	0	25.772	0	113.921	0	207.7	4	71.1	4	-1E+10	1	0.1152	4	0.000347	0	-1E+10	1	-1E+10	1	-1E+10	1
4902624	2	C	07/11/2024	21:26	-128.893	46.368	0	115.00	0	7.7970	0	33.0490	0	25.773	0	114.020	0	-1e10	1	-1e10	1	-1E+10	1	-1e10	1	-1e10	1	-1E+10	1	-1E+10	1	-1E+10	1
4902624	2	C	07/11/2024	21:26	-128.893	46.368	0	115.70	0	7.7827	0	33.0553	0	25.780	0	114.714	0	208.3	4	71.2	4	-1E+10	1	0.1022	4	0.000681	0	-1E+10	1	-1E+10	1	-1E+10	1
4902624	2	C	07/11/2024	21:26	-128.893	46.368	0	116.50	0	7.7663	0	33.0626	0	25.788	0	115.507	0	208.9	4	71.4	4	-1E+10	1	0.0892	4	0.000389	0	-1E+10	1	-1E+10	1	-1E+10	1
4902624	2	C	07/11/2024	21:26	-128.893	46.368	0	117.10	0	7.7540	0	33.0680	0	25.794	0	116.102	0	-1e10	1	-1e10	1	-1E+10	1	-1e10	1	-1e10	1	-1E+10	1	-1E+10	1	-1E+10	1
4902624	2	C	07/11/2024	21:26	-128.893	46.368	0	117.30	0	7.7552	0	33.0712	0	25.796	0	116.300	0	210.0	4	71.8	4	-1E+10	1	0.1004	4	0.000332	0	-1E+10	1	-1E+10	1	-1E+10	1
4902624	2	C	07/11/2024	21:26	-128.893	46.368	0	118.10	0	7.7600	0	33.0840	0	25.806	0	117.093	0	211.0	4	72.1	4	-1E+10	1	0.0976	4	0.000314	0	-1E+10	1	-1E+10	1	-1E+10	1
4902624	2	C	07/11/2024	21:26	-128.893	46.368	0	119.00	0	7.7654	0	33.0984	0	25.816	0	117.985	0	211.5	4	72.3	4	-1E+10	1	0.0803	4	0.000311	0	-1E+10	1	-1E+10	1	-1E+10	1
4902624	2	C	07/11/2024	21:26	-128.893	46.368	0	119.10	0	7.7660	0	33.1000	0	25.818	0	118.084	0	-1e10	1	-1e10	1	-1E+10	1	-1e10	1	-1e10	1	-1E+10	1	-1E+10	1	-1E+10	1
4902624	2	C	07/11/2024	21:26	-128.893	46.368	0	119.80	0	7.7726	0	33.1239	0	25.835	0	118.778	0	210.9	4	72.1	4	-1E+10	1	0.0657	4	0.000309	0	-1E+10	1	-1E+10	1	-1E+10	1
4902624	2	C	07/11/2024	21:26	-128.893	46.368	0	120.70	0	7.7812	0	33.1547	0	25.858	0	119.670	0	210.1	4	71.9	4	-1E+10	1	0.0723	4	0.000297	0	-1E+10	1	-1E+10	1	-1E+10	1
4902624	2	C	07/11/2024	21:26	-128.893	46.368	0	121.00	0	7.7840	0	33.1650	0	25.866	0	119.967	0	-1e10	1	-1e10	1	-1E+10	1	-1e10	1	-1e10	1	-1E+10	1	-1E+10	1	-1E+10	1
4902624	2	C	07/11/2024	21:26	-128.893	46.368	0	121.60	0	7.7741	0	33.1788	0	25.878	0	120.562	0	209.3	4	71.6	4	-1E+10	1	0.0876	4	0.000316	0	-1E+10	1	-1E+10	1	-1E+10	1
4902624	2	C	07/11/2024	21:26	-128.893	46.368	0	122.50	0	7.7592	0	33.1995	0	25.897	0	121.454	0	208.6	4	71.4	4	-1E+10	1	0.0876	4	0.000364	0	-1E+10	1	-1E+10	1	-1E+10	1
4902624	2	C	07/11/2024	21:26	-128.893	46.368	0	123.00	0	7.7510	0	33.2110	0	25.907	0	121.950	0	-1e10	1	-1e10	1	-1E+10	1	-1e10	1	-1e10	1	-1E+10	1	-1E+10	1	-1E+10	1
4902624	2	C	07/11/2024	21:26	-128.893	46.368	0	123.40	0	7.7442	0	33.2164	0	25.912	0	122.346	0	207.6	4	71.0	4	-1E+10	1	0.0511	4	0.000293	0	-1E+10	1	-1E+10	1	-1E+10	1
4902624	2	C	07/11/2024	21:26	-128.893	46.368	0	124.30	0	7.7289	0	33.2285	0	25.924	0	123.238	0	206.6	4	70.7	4	-1E+10	1	0.0571	4	0.000293	0	-1E+10	1	-1E+10	1	-1E+10	1
4902624	2	C	07/11/2024	21:26	-128.893	46.368	0	125.00	0	7.7170	0	33.2380	0	25.933	0	123.932	0	-1e10	1	-1e10	1	-1E+10	1	-1e10	1	-1e10	1	-1E+10	1	-1E+10	1	-1E+10	1
4902624	2	C	07/11/2024	21:26	-128.893	46.368	0	125.30	0	7.7101	0	33.2428	0	25.938	0	124.229	0	205.6	4	70.3	4	-1E+10	1	0.0584	4	0.000362	0	-1E+10	1	-1E+10	1	-1E+10	1
4902624	2	C	07/11/2024	21:26	-128.893	46.368	0	126.20	0	7.6894	0	33.2572	0	25.952	0	125.122	0	204.4	4	69.9	4	-1E+10	1	0.0540	4	0.000359	0	-1E+10	1	-1E+10	1	-1E+10	1
4902624	2	C	07/11/2024	21:26	-128.893	46.368	0	127.00	0	7.6710	0	33.2700	0	25.965	0	125.914	0	-1e10	1	-1e10	1	-1E+10	1	-1e10	1	-1e10	1	-1E+10	1	-1E+10	1	-1E+10	1
4902624	2	C	07/11/2024	21:26	-128.893	46.368	0	127.10	0	7.6684	0	33.2713	0	25.966	0	126.014	0	203.1	4	69.4	4	-1E+10	1	0.0511	4	0.000330	0	-1E+10	1	-1E+10	1	-1E+10	1
4902624	2	C	07/11/2024	21:26	-128.893	46.368	0	128.10	0	7.6424	0	33.2843	0	25.980	0	127.005	0	201.7	4	68.9	4	-1E+10	1	0.0487	4	0.000317	0	-1E+10	1	-1E+10	1	-1E+10	1
4902624	2	C	07/11/2024	21:26	-128.893	46.368	0	129.00	0	7.6190	0	33.2960	0	25.993	0	127.897	0	196.2	4	67.0	4	-1E+10	1	0.0454	4	0.000317	0	-1E+10	1	-1E+10	1	-1E+10	1
4902624	2	C	07/11/2024	21:26	-128.893	46.368	0	130.00	0	7.5695	0	33.3160	0	26.015	0	128.888	0	198.4	4	67.7	4	-1E+10	1	0.0550	4	0.000313	0	-1E+10	1	-1E+10	1	-1E+10	1
4902624	2	C	07/11/2024	21:26	-128.893	46.368	0	130.90	0	7.5250	0	33.3340	0	26.036	0	129.780	0	-1e10	1	-1e10	1	-1E+10	1	-1e10	1	-1e10	1	-1E+10	1	-1E+10	1	-1E+10	1
4902624	2	C	07/11/2024	21:26	-128.893	46.368	0	131.10	0	7.5117	0	33.3385	0	26.041	0	129.978	0	197.0	4	67.1	4	-1E+10	1	0.0365	4	0.000293	0	-1E+10	1	-1E+10	1	-1E+10	1
4902624	2	C	07/11/2024	21:26	-128.893	46.368	0	132.10	0	7.4450	0	33.3609	0	26.068	0	130.969	0	195.8	4	66.6	4	-1E+10	1	0.0426	4	0.000342	0	-1E+10	1	-1E+10	1	-1E+10	1
4902624	2	C	07/11/2024	21:26	-128.893	46.368	0	133.00	0	7.3850	0	33.3810	0	26.092	0	131.861	0	-1e10	1	-1e10	1	-1E+10	1	-1e10	1	-1e10	1	-1E+10	1	-1E+10	1	-1E+10	1
4902624	2	C	07/11/2024	21:26	-128.893	46.368	0	133.10	0	7.3793	0	33.3824	0	26.094	0	131.960	0	194.9	4	66.2	4	-1E+10	1	0.0438	4	0.000315	0	-1E+10	1	-1E+10	1	-1E+10	1
4902624	2	C	07/11/2024	21:26	-128.893	46.368	0	134.20	0	7.3166	0	33.3978	0	26.115	0	133.051	0	193.9	4	65.8	4	-1E+10	1	0.0590	4	0.000321	0	-1E+10	1	-1E+10	1	-1E+10	1
4902624	2	C	07/11/2024	21:26	-128.893	46.368	0	135.00	0	7.2710	0	33.4090	0	26.130	0	133.843	0	-1e10	1	-1e10	1	-1E+10	1	-1e10	1	-1e10	1	-1E+10	1	-1E+10	1	-1E+10	1
4902624	2	C	07/11/2024	21:26	-128.893	46.368	0	135.20	0	7.2625	0	33.4123	0	26.134	0	134.042	0	193.1	4	65.4	4	-1E+10	1	0.0511	4	0.000358	0	-1E+10	1	-1E+10	1	-1E+10	1
4902624	2	C	07/11/2024	21:26	-128.893	46.368	0	136.20	0	7.2197	0	33.4286	0	26.153	0	135.033	0	192.6	4	65.2	4	-1E+10	1	0.0453	4	0.000378	0	-1E+10	1	-1E+10	1	-1E+10	1
4902624	2	C	07/11/2024	21:26	-128.893	46.368	0	137.20	0	7.1770	0	33.4450	0	26.172	0	136.024	0	187.8	4	63.5	4	-1E+10	1	0.0560	4	0.000352	0	-1E+10	1	-1E+10	1	-1E+10	1
4902624	2	C	07/11/2024	21:26	-128.893	46.368	0	138.20	0	7.1638	0	33.4524	0	26.179	0	137.015	0	191.2	4	64.7	4	-1E+10	1	0.0511	4	0.000340	0	-1E+10	1	-1E+10	1	-1E+10	1
4902624	2	C	07/11/2024	21:26	-128.893	46.368	0	139.10	0	7.1520	0	33.4590	0	26.186	0	137.907	0	-1e10	1	-1e10	1	-1E+10	1	-1e10	1	-1e10	1	-1E+10	1	-1E+10	1	-1E+10	1
4902624	2	C	07/11/2024	21:26	-128.893	46.368	0	139.20	0	7.1512	0	33.4595	0	26.187	0	138.006	0	190.4	4	64.4	4	-1E+10	1	0.0511	4	0.000399	0	-1E+10	1	-1E+10	1	-1E+10	1
4902624	2	C	07/11/2024	21:26	-128.893	46.368	0	140.30	0	7.1419	0	33.4653	0	26.193	0	139.096	0	189.5	4	64.1	4	-1E+10	1	0.0511	4	0.000364	0	-1E+10	1	-1E+10	1	-1E+10	1
4902624	2	C	07/11/2024	21:26	-128.893	46.368	0	141.00	0	7.1360	0	33.4690	0	26.196	0	139.790	0	-1e10	1	-1e10	1	-1E+10	1	-1e10	1	-1e10	1	-1E+10	1	-1E+10	1	-1E+10	1
4902624	2	C	07/11/2024	21:26	-128.893	46.368	0	141.50	0	7.1310	0	33.4733	0	26.200	0	140.286	0	188.4	4	63.7	4	-1E+10	1	0.0584	4	0.000305	0	-1E+10	1	-1E+10	1	-1E+10	1
4902624	2	C	07/11/2024	21:26	-128.893	46.368	0	142.40	0	7.1220	0	33.4809	0	26.208	0	141.178	0	187.6	4	63.4	4	-1E+10	1	0.0474	4	0.000331	0	-1E+10	1	-1E+10	1	-1E+10	1
4902624	2	C	07/11/2024	21:26	-128.893	46.368	0	143.00	0	7.1160	0	33.4860	0	26.212	0	141.772	0	-1e10	1	-1e10	1	-1E+10	1	-1e10	1	-1e10	1	-1E+10	1	-1E+10	1	-1E+10	1
4902624	2	C	07/11/2024	21:26	-128.893	46.368	0	143.30	0	7.1150	0	33.4897	0	26.216	0	142.070	0	186.7	4	63.1	4	-1E+10	1	0.0482	4	0.000340	0	-1E+10	1	-1E+10	1	-1E+10	1
4902624	2	C	07/11/2024	21:26	-128.893	46.368	0	144.30	0	7.1115	0	33.5023	0	26.226	0	143.061	0	185.7	4	62.8	4	-1E+10	1	0.0444	4	0.000346	0	-1E+10	1	-1E+10	1	-1E+10	1
4902624	2	C	07/11/2024	21:26	-128.893	46.368	0	145.00	0	7.1090	0	33.5110	0	26.233	0	143.754	0	-1e10	1	-1e10	1	-1E+10	1	-1e10	1	-1e10	1	-1E+10	1	-1E+10	1	-1E+10	1
4902624	2	C	07/11/2024	21:26	-128.893	46.368	0	145.40	0	7.0992	0	33.5184	0	26.240	0	144.151	0	184.5	4	62.3	4	-1E+10	1	0.0365	4	0.000364	0	-1E+10	1	-1E+10	1	-1E+10	1
4902624	2	C	07/11/2024	21:26	-128.893	46.368	0	146.40	0	7.0747	0	33.5369	0	26.258	0	145.142	0	183.3	4	61.9	4	-1E+10	1	0.0380	4	0.000389	0	-1E+10	1	-1E+10	1	-1E+10	1
4902624	2	C	07/11/2024	21:26	-128.893	46.368	0	147.00	0	7.0600	0	33.5480	0	26.269	0	145.736	0	-1e10	1	-1e10	1	-1E+10	1	-1e10	1	-1e10	1	-1E+10	1	-1E+10	1	-1E+10	1
4902624	2	C	07/11/2024	21:26	-128.893	46.368	0	147.40	0	7.0616	0	33.5556	0	26.275	0	146.133	0	182.2	4	61.5	4	-1E+10	1	0.0426	4	0.000399	0	-1E+10	1	-1E+10	1	-1E+10	1
4902624	2	C	07/11/2024	21:26	-128.893	46.368	0	148.40	0	7.0656	0	33.5746	0	26.289	0	147.124	0	180.7	4	61.0	4	-1E+10	1	0.0365	4	0.000399	0	-1E+10	1	-1E+10	1	-1E+10	1
4902624	2	C	07/11/2024	21:26	-128.893	46.368	0	149.00	0	7.0680	0	33.5860	0	26.298	0	147.719	0	-1e10	1	-1e10	1	-1E+10	1	-1e10	1	-1e10	1	-1E+10	1	-1E+10	1	-1E+10	1
4902624	2	C	07/11/2024	21:26	-128.893	46.368	0	149.50	0	7.0682	0	33.5965	0	26.306	0	148.214	0	179.1	4	60.5	4	-1E+10	1	0.0365	4	0.000439	0	-1E+10	1	-1E+10	1	-1E+10	1
4902624	2	C	07/11/2024	21:26	-128.893	46.368	0	150.60	0	7.0688	0	33.6196	0	26.324	0	149.304	0	177.7	4	60.1	4	-1E+10	1	0.0246	4	0.000398	0	-1E+10	1	-1E+10	1	-1E+10	1
4902624	2	C	07/11/2024	21:26	-128.893	46.368	0	151.00	0	7.0690	0	33.6280	0	26.331	0	149.701	0	-1e10	1	-1e10	1	-1E+10	1	-1e10	1	-1e10	1	-1E+10	1	-1E+10	1	-1E+10	1
4902624	2	C	07/11/2024	21:26	-128.893	46.368	0	151.60	0	7.0699	0	33.6373	0	26.338	0	150.295	0	176.7	4	59.7	4	-1E+10	1	0.0399	4	0.000373	0	-1E+10	1	-1E+10	1	-1E+10	1
4902624	2	C	07/11/2024	21:26	-128.893	46.368	0	152.70	0	7.0715	0	33.6544	0	26.351	0	151.385	0	175.7	4	59.4	4	-1E+10	1	0.0444	4	0.000391	0	-1E+10	1	-1E+10	1	-1E+10	1
4902624	2	C	07/11/2024	21:26	-128.893	46.368	0	153.00	0	7.0720	0	33.6590	0	26.355	0	151.683	0	-1e10	1	-1e10	1	-1E+10	1	-1e10	1	-1e10	1	-1E+10	1	-1E+10	1	-1E+10	1
4902624	2	C	07/11/2024	21:26	-128.893	46.368	0	153.80	0	7.0780	0	33.6674	0	26.361	0	152.475	0	175.3	4	59.2	4	-1E+10	1	0.0392	4	0.000405	0	-1E+10	1	-1E+10	1	-1E+10	1
4902624	2	C	07/11/2024	21:26	-128.893	46.368	0	154.90	0	7.0862	0	33.6790	0	26.369	0	153.566	0	175.1	4	59.2	4	-1E+10	1	0.0487	4	0.000379	0	-1E+10	1	-1E+10	1	-1E+10	1
4902624	2	C	07/11/2024	21:26	-128.893	46.368	0	155.00	0	7.0870	0	33.6800	0	26.369	0	153.665	0	-1e10	1	-1e10	1	-1E+10	1	-1e10	1	-1e10	1	-1E+10	1	-1E+10	1	-1E+10	1
4902624	2	C	07/11/2024	21:26	-128.893	46.368	0	156.00	0	7.0794	0	33.6814	0	26.371	0	154.656	0	174.8	4	59.1	4	-1E+10	1	0.0584	4	0.000384	0	-1E+10	1	-1E+10	1	-1E+10	1
4902624	2	C	07/11/2024	21:26	-128.893	46.368	0	157.00	0	7.0718	0	33.6829	0	26.374	0	155.647	0	174.6	4	59.0	4	-1E+10	1	0.0584	4	0.000375	0	-1E+10	1	-1E+10	1	-1E+10	1
4902624	2	C	07/11/2024	21:26	-128.893	46.368	0	157.10	0	7.0710	0	33.6830	0	26.374	0	155.746	0	-1e10	1	-1e10	1	-1E+10	1	-1e10	1	-1e10	1	-1E+10	1	-1E+10	1	-1E+10	1
4902624	2	C	07/11/2024	21:26	-128.893	46.368	0	158.10	0	7.0731	0	33.6872	0	26.377	0	156.737	0	174.5	4	59.0	4	-1E+10	1	0.0365	4	0.000411	0	-1E+10	1	-1E+10	1	-1E+10	1
4902624	2	C	07/11/2024	21:26	-128.893	46.368	0	159.00	0	7.0750	0	33.6910	0	26.380	0	157.629	0	-1e10	1	-1e10	1	-1E+10	1	-1e10	1	-1e10	1	-1E+10	1	-1E+10	1	-1E+10	1
4902624	2	C	07/11/2024	21:26	-128.893	46.368	0	159.30	0	7.0726	0	33.6914	0	26.380	0	157.926	0	174.5	4	59.0	4	-1E+10	1	0.0553	4	0.000451	0	-1E+10	1	-1E+10	1	-1E+10	1
4902624	2	C	07/11/2024	21:26	-128.893	46.368	0	160.40	0	7.0637	0	33.6930	0	26.383	0	159.016	0	174.6	4	59.0	4	-1E+10	1	0.0432	4	0.000433	0	-1E+10	1	-1E+10	1	-1E+10	1
4902624	2	C	07/11/2024	21:26	-128.893	46.368	0	161.10	0	7.0580	0	33.6940	0	26.384	0	159.710	0	-1e10	1	-1e10	1	-1E+10	1	-1e10	1	-1e10	1	-1E+10	1	-1E+10	1	-1E+10	1
4902624	2	C	07/11/2024	21:26	-128.893	46.368	0	161.50	0	7.0523	0	33.6951	0	26.386	0	160.106	0	174.6	4	59.0	4	-1E+10	1	0.0365	4	0.000407	0	-1E+10	1	-1E+10	1	-1E+10	1
4902624	2	C	07/11/2024	21:26	-128.893	46.368	0	162.60	0	7.0367	0	33.6979	0	26.390	0	161.196	0	174.6	4	59.0	4	-1E+10	1	0.0402	4	0.000410	0	-1E+10	1	-1E+10	1	-1E+10	1
4902624	2	C	07/11/2024	21:26	-128.893	46.368	0	163.00	0	7.0310	0	33.6990	0	26.392	0	161.593	0	-1e10	1	-1e10	1	-1E+10	1	-1e10	1	-1e10	1	-1E+10	1	-1E+10	1	-1E+10	1
4902624	2	C	07/11/2024	21:26	-128.893	46.368	0	163.70	0	6.9907	0	33.6962	0	26.395	0	162.286	0	174.5	4	58.9	4	-1E+10	1	0.0438	4	0.000429	0	-1E+10	1	-1E+10	1	-1E+10	1
4902624	2	C	07/11/2024	21:26	-128.893	46.368	0	164.90	0	6.9218	0	33.6914	0	26.401	0	163.475	0	173.6	4	58.5	4	-1E+10	1	0.0474	4	0.000431	0	-1E+10	1	-1E+10	1	-1E+10	1
4902624	2	C	07/11/2024	21:26	-128.893	46.368	0	165.00	0	6.9160	0	33.6910	0	26.401	0	163.575	0	-1e10	1	-1e10	1	-1E+10	1	-1e10	1	-1e10	1	-1E+10	1	-1E+10	1	-1E+10	1
4902624	2	C	07/11/2024	21:26	-128.893	46.368	0	166.00	0	6.9102	0	33.6931	0	26.404	0	164.566	0	172.6	4	58.1	4	-1E+10	1	0.0550	4	0.000389	0	-1E+10	1	-1E+10	1	-1E+10	1
4902624	2	C	07/11/2024	21:26	-128.893	46.368	0	166.90	0	6.9050	0	33.6950	0	26.406	0	165.457	0	-1e10	1	-1e10	1	-1E+10	1	-1e10	1	-1e10	1	-1E+10	1	-1E+10	1	-1E+10	1
4902624	2	C	07/11/2024	21:26	-128.893	46.368	0	167.10	0	6.9049	0	33.6955	0	26.406	0	165.656	0	171.5	4	57.7	4	-1E+10	1	0.0365	4	0.000399	0	-1E+10	1	-1E+10	1	-1E+10	1
4902624	2	C	07/11/2024	21:26	-128.893	46.368	0	168.30	0	6.9043	0	33.6983	0	26.409	0	166.845	0	170.3	4	57.4	4	-1E+10	1	0.0490	4	0.000419	0	-1E+10	1	-1E+10	1	-1E+10	1
4902624	2	C	07/11/2024	21:26	-128.893	46.368	0	169.00	0	6.9040	0	33.7000	0	26.410	0	167.538	0	-1e10	1	-1e10	1	-1E+10	1	-1e10	1	-1e10	1	-1E+10	1	-1E+10	1	-1E+10	1
4902624	2	C	07/11/2024	21:26	-128.893	46.368	0	169.50	0	6.9037	0	33.7038	0	26.413	0	168.034	0	169.2	4	57.0	4	-1E+10	1	0.0511	4	0.000432	0	-1E+10	1	-1E+10	1	-1E+10	1
4902624	2	C	07/11/2024	21:26	-128.893	46.368	0	170.70	0	6.9032	0	33.7127	0	26.420	0	169.223	0	168.1	4	56.6	4	-1E+10	1	0.0459	4	0.000434	0	-1E+10	1	-1E+10	1	-1E+10	1
4902624	2	C	07/11/2024	21:26	-128.893	46.368	0	171.00	0	6.9030	0	33.7150	0	26.422	0	169.520	0	-1e10	1	-1e10	1	-1E+10	1	-1e10	1	-1e10	1	-1E+10	1	-1E+10	1	-1E+10	1
4902624	2	C	07/11/2024	21:26	-128.893	46.368	0	171.80	0	6.9014	0	33.7186	0	26.425	0	170.313	0	167.1	4	56.3	4	-1E+10	1	0.0481	4	0.000448	0	-1E+10	1	-1E+10	1	-1E+10	1
4902624	2	C	07/11/2024	21:26	-128.893	46.368	0	173.00	0	6.8990	0	33.7240	0	26.430	0	171.502	0	162.3	4	54.7	4	-1E+10	1	0.0426	4	0.000437	0	-1E+10	1	-1E+10	1	-1E+10	1
4902624	2	C	07/11/2024	21:26	-128.893	46.368	0	174.20	0	6.8960	0	33.7282	0	26.433	0	172.691	0	165.3	4	55.7	4	-1E+10	1	0.0438	4	0.000475	0	-1E+10	1	-1E+10	1	-1E+10	1
4902624	2	C	07/11/2024	21:26	-128.893	46.368	0	175.00	0	6.8940	0	33.7310	0	26.436	0	173.484	0	-1e10	1	-1e10	1	-1E+10	1	-1e10	1	-1e10	1	-1E+10	1	-1E+10	1	-1E+10	1
4902624	2	C	07/11/2024	21:26	-128.893	46.368	0	175.40	0	6.8918	0	33.7328	0	26.438	0	173.880	0	164.5	4	55.4	4	-1E+10	1	0.0511	4	0.000482	0	-1E+10	1	-1E+10	1	-1E+10	1
4902624	2	C	07/11/2024	21:26	-128.893	46.368	0	176.60	0	6.8852	0	33.7382	0	26.443	0	175.069	0	163.7	4	55.1	4	-1E+10	1	0.0511	4	0.000407	0	-1E+10	1	-1E+10	1	-1E+10	1
4902624	2	C	07/11/2024	21:26	-128.893	46.368	0	177.00	0	6.8830	0	33.7400	0	26.445	0	175.466	0	-1e10	1	-1e10	1	-1E+10	1	-1e10	1	-1e10	1	-1E+10	1	-1E+10	1	-1E+10	1
4902624	2	C	07/11/2024	21:26	-128.893	46.368	0	177.80	0	6.8786	0	33.7428	0	26.447	0	176.259	0	162.9	4	54.9	4	-1E+10	1	0.0511	4	0.000432	0	-1E+10	1	-1E+10	1	-1E+10	1
4902624	2	C	07/11/2024	21:26	-128.893	46.368	0	179.00	0	6.8720	0	33.7470	0	26.452	0	177.448	0	158.4	4	53.3	4	-1E+10	1	0.0511	4	0.000422	0	-1E+10	1	-1E+10	1	-1E+10	1
4902624	2	C	07/11/2024	21:26	-128.893	46.368	0	180.40	0	6.8613	0	33.7517	0	26.457	0	178.835	0	161.6	4	54.4	4	-1E+10	1	0.0365	4	0.000469	0	-1E+10	1	-1E+10	1	-1E+10	1
4902624	2	C	07/11/2024	21:26	-128.893	46.368	0	181.10	0	6.8560	0	33.7540	0	26.459	0	179.529	0	-1e10	1	-1e10	1	-1E+10	1	-1e10	1	-1e10	1	-1E+10	1	-1E+10	1	-1E+10	1
4902624	2	C	07/11/2024	21:26	-128.893	46.368	0	181.50	0	6.8544	0	33.7547	0	26.460	0	179.925	0	161.2	4	54.3	4	-1E+10	1	0.0584	4	0.000445	0	-1E+10	1	-1E+10	1	-1E+10	1
4902624	2	C	07/11/2024	21:26	-128.893	46.368	0	182.40	0	6.8509	0	33.7562	0	26.462	0	180.817	0	160.9	4	54.1	4	-1E+10	1	0.0432	4	0.000437	0	-1E+10	1	-1E+10	1	-1E+10	1
4902624	2	C	07/11/2024	21:26	-128.893	46.368	0	182.90	0	6.8490	0	33.7570	0	26.463	0	181.312	0	-1e10	1	-1e10	1	-1E+10	1	-1e10	1	-1e10	1	-1E+10	1	-1E+10	1	-1E+10	1
4902624	2	C	07/11/2024	21:26	-128.893	46.368	0	183.30	0	6.8463	0	33.7578	0	26.464	0	181.708	0	160.4	4	54.0	4	-1E+10	1	0.0329	4	0.000422	0	-1E+10	1	-1E+10	1	-1E+10	1
4902624	2	C	07/11/2024	21:26	-128.893	46.368	0	184.10	0	6.8410	0	33.7593	0	26.465	0	182.501	0	159.9	4	53.8	4	-1E+10	1	0.0386	4	0.000430	0	-1E+10	1	-1E+10	1	-1E+10	1
4902624	2	C	07/11/2024	21:26	-128.893	46.368	0	184.80	0	6.8363	0	33.7606	0	26.467	0	183.195	0	159.5	4	53.7	4	-1E+10	1	0.0487	4	0.000449	0	-1E+10	1	-1E+10	1	-1E+10	1
4902624	2	C	07/11/2024	21:26	-128.893	46.368	0	185.00	0	6.8350	0	33.7610	0	26.468	0	183.393	0	-1e10	1	-1e10	1	-1E+10	1	-1e10	1	-1e10	1	-1E+10	1	-1E+10	1	-1E+10	1
4902624	2	C	07/11/2024	21:26	-128.893	46.368	0	185.50	0	6.8321	0	33.7618	0	26.469	0	183.888	0	159.1	4	53.5	4	-1E+10	1	0.0430	4	0.000426	0	-1E+10	1	-1E+10	1	-1E+10	1
4902624	2	C	07/11/2024	21:26	-128.893	46.368	0	186.30	0	6.8275	0	33.7631	0	26.470	0	184.681	0	158.7	4	53.4	4	-1E+10	1	0.0365	4	0.000363	0	-1E+10	1	-1E+10	1	-1E+10	1
4902624	2	C	07/11/2024	21:26	-128.893	46.368	0	186.90	0	6.8240	0	33.7640	0	26.471	0	185.276	0	-1e10	1	-1e10	1	-1E+10	1	-1e10	1	-1e10	1	-1E+10	1	-1E+10	1	-1E+10	1
4902624	2	C	07/11/2024	21:26	-128.893	46.368	0	187.00	0	6.8210	0	33.7644	0	26.472	0	185.375	0	158.2	4	53.2	4	-1E+10	1	0.0584	4	0.000445	0	-1E+10	1	-1E+10	1	-1E+10	1
4902624	2	C	07/11/2024	21:26	-128.893	46.368	0	187.70	0	6.8000	0	33.7674	0	26.477	0	186.068	0	157.8	4	53.0	4	-1E+10	1	0.0456	4	0.000425	0	-1E+10	1	-1E+10	1	-1E+10	1
4902624	2	C	07/11/2024	21:26	-128.893	46.368	0	188.40	0	6.7790	0	33.7704	0	26.483	0	186.762	0	157.4	4	52.9	4	-1E+10	1	0.0350	4	0.000436	0	-1E+10	1	-1E+10	1	-1E+10	1
4902624	2	C	07/11/2024	21:26	-128.893	46.368	0	189.00	0	6.7610	0	33.7730	0	26.487	0	187.356	0	-1e10	1	-1e10	1	-1E+10	1	-1e10	1	-1e10	1	-1E+10	1	-1E+10	1	-1E+10	1
4902624	2	C	07/11/2024	21:26	-128.893	46.368	0	189.20	0	6.7598	0	33.7731	0	26.487	0	187.555	0	156.9	4	52.7	4	-1E+10	1	0.0375	4	0.000425	0	-1E+10	1	-1E+10	1	-1E+10	1
4902624	2	C	07/11/2024	21:26	-128.893	46.368	0	189.90	0	6.7556	0	33.7734	0	26.488	0	188.248	0	156.4	4	52.5	4	-1E+10	1	0.0402	4	0.000422	0	-1E+10	1	-1E+10	1	-1E+10	1
4902624	2	C	07/11/2024	21:26	-128.893	46.368	0	190.60	0	6.7514	0	33.7738	0	26.489	0	188.942	0	155.8	4	52.3	4	-1E+10	1	0.0389	4	0.000430	0	-1E+10	1	-1E+10	1	-1E+10	1
4902624	2	C	07/11/2024	21:26	-128.893	46.368	0	191.00	0	6.7490	0	33.7740	0	26.489	0	189.338	0	-1e10	1	-1e10	1	-1E+10	1	-1e10	1	-1e10	1	-1E+10	1	-1E+10	1	-1E+10	1
4902624	2	C	07/11/2024	21:26	-128.893	46.368	0	191.40	0	6.7456	0	33.7753	0	26.491	0	189.734	0	155.1	4	52.1	4	-1E+10	1	0.0420	4	0.000428	0	-1E+10	1	-1E+10	1	-1E+10	1
4902624	2	C	07/11/2024	21:26	-128.893	46.368	0	192.20	0	6.7387	0	33.7780	0	26.494	0	190.527	0	154.7	4	51.9	4	-1E+10	1	0.0365	4	0.000453	0	-1E+10	1	-1E+10	1	-1E+10	1
4902624	2	C	07/11/2024	21:26	-128.893	46.368	0	192.90	0	6.7327	0	33.7803	0	26.497	0	191.221	0	154.3	4	51.8	4	-1E+10	1	0.0365	4	0.000481	0	-1E+10	1	-1E+10	1	-1E+10	1
4902624	2	C	07/11/2024	21:26	-128.893	46.368	0	193.10	0	6.7310	0	33.7810	0	26.497	0	191.419	0	-1e10	1	-1e10	1	-1E+10	1	-1e10	1	-1e10	1	-1E+10	1	-1E+10	1	-1E+10	1
4902624	2	C	07/11/2024	21:26	-128.893	46.368	0	193.70	0	6.7250	0	33.7813	0	26.498	0	192.013	0	153.8	4	51.6	4	-1E+10	1	0.0365	4	0.000439	0	-1E+10	1	-1E+10	1	-1E+10	1
4902624	2	C	07/11/2024	21:26	-128.893	46.368	0	194.40	0	6.7180	0	33.7817	0	26.500	0	192.707	0	153.3	4	51.5	4	-1E+10	1	0.0474	4	0.000434	0	-1E+10	1	-1E+10	1	-1E+10	1
4902624	2	C	07/11/2024	21:26	-128.893	46.368	0	194.90	0	6.7130	0	33.7820	0	26.501	0	193.202	0	-1e10	1	-1e10	1	-1E+10	1	-1e10	1	-1e10	1	-1E+10	1	-1E+10	1	-1E+10	1
4902624	2	C	07/11/2024	21:26	-128.893	46.368	0	195.10	0	6.7099	0	33.7824	0	26.501	0	193.400	0	152.9	4	51.3	4	-1E+10	1	0.0470	4	0.000427	0	-1E+10	1	-1E+10	1	-1E+10	1
4902624	2	C	07/11/2024	21:26	-128.893	46.368	0	195.90	0	6.6973	0	33.7839	0	26.504	0	194.193	0	152.4	4	51.1	4	-1E+10	1	0.0438	4	0.000458	0	-1E+10	1	-1E+10	1	-1E+10	1
4902624	2	C	07/11/2024	21:26	-128.893	46.368	0	196.70	0	6.6847	0	33.7854	0	26.507	0	194.986	0	152.0	4	51.0	4	-1E+10	1	0.0438	4	0.000486	0	-1E+10	1	-1E+10	1	-1E+10	1
4902624	2	C	07/11/2024	21:26	-128.893	46.368	0	197.00	0	6.6800	0	33.7860	0	26.508	0	195.283	0	-1e10	1	-1e10	1	-1E+10	1	-1e10	1	-1e10	1	-1E+10	1	-1E+10	1	-1E+10	1
4902624	2	C	07/11/2024	21:26	-128.893	46.368	0	197.50	0	6.6750	0	33.7862	0	26.509	0	195.778	0	151.4	4	50.8	4	-1E+10	1	0.0462	4	0.000684	0	-1E+10	1	-1E+10	1	-1E+10	1
4902624	2	C	07/11/2024	21:26	-128.893	46.368	0	198.20	0	6.6680	0	33.7866	0	26.510	0	196.472	0	150.9	4	50.6	4	-1E+10	1	0.0503	4	0.001062	0	-1E+10	1	-1E+10	1	-1E+10	1
4902624	2	C	07/11/2024	21:26	-128.893	46.368	0	199.00	0	6.6600	0	33.7870	0	26.512	0	197.265	0	150.2	4	50.3	4	-1E+10	1	0.0438	4	0.000457	0	-1E+10	1	-1E+10	1	-1E+10	1
4902624	2	C	07/11/2024	21:26	-128.893	46.368	0	199.10	0	6.6590	0	33.7870	0	26.512	0	197.364	0	-1e10	1	-1e10	1	-1E+10	1	-1e10	1	-1e10	1	-1E+10	1	-1E+10	1	-1E+10	1
4902624	2	C	07/11/2024	21:26	-128.893	46.368	0	199.80	0	6.6535	0	33.7881	0	26.513	0	198.057	0	149.5	4	50.1	4	-1E+10	1	0.0365	4	0.000434	0	-1E+10	1	-1E+10	1	-1E+10	1
4902624	2	C	07/11/2024	21:26	-128.893	46.368	0	200.60	0	6.6472	0	33.7894	0	26.515	0	198.850	0	148.7	4	49.8	4	-1E+10	1	0.0365	4	0.000424	0	-1E+10	1	-1E+10	1	-1E+10	1
4902624	2	C	07/11/2024	21:26	-128.893	46.368	0	201.00	0	6.6440	0	33.7900	0	26.516	0	199.246	0	-1e10	1	-1e10	1	-1E+10	1	-1e10	1	-1e10	1	-1E+10	1	-1E+10	1	-1E+10	1
4902624	2	C	07/11/2024	21:26	-128.893	46.368	0	201.40	0	6.6404	0	33.7908	0	26.517	0	199.643	0	148.1	4	49.6	4	-1E+10	1	0.0414	4	0.000406	0	-1E+10	1	-1E+10	1	-1E+10	1
4902624	2	C	07/11/2024	21:26	-128.893	46.368	0	202.20	0	6.6332	0	33.7924	0	26.519	0	200.435	0	147.6	4	49.4	4	-1E+10	1	0.0484	4	0.000413	0	-1E+10	1	-1E+10	1	-1E+10	1
4902624	2	C	07/11/2024	21:26	-128.893	46.368	0	203.00	0	6.6260	0	33.7940	0	26.522	0	201.228	0	143.5	4	48.1	4	-1E+10	1	0.0511	4	0.000434	0	-1E+10	1	-1E+10	1	-1E+10	1
4902624	2	C	07/11/2024	21:26	-128.893	46.368	0	203.90	0	6.6143	0	33.7944	0	26.524	0	202.120	0	146.4	4	49.0	4	-1E+10	1	0.0453	4	0.000455	0	-1E+10	1	-1E+10	1	-1E+10	1
4902624	2	C	07/11/2024	21:26	-128.893	46.368	0	204.60	0	6.6052	0	33.7948	0	26.525	0	202.813	0	145.5	4	48.7	4	-1E+10	1	0.0438	4	0.000461	0	-1E+10	1	-1E+10	1	-1E+10	1
4902624	2	C	07/11/2024	21:26	-128.893	46.368	0	205.00	0	6.6000	0	33.7950	0	26.526	0	203.209	0	-1e10	1	-1e10	1	-1E+10	1	-1e10	1	-1e10	1	-1E+10	1	-1E+10	1	-1E+10	1
4902624	2	C	07/11/2024	21:26	-128.893	46.368	0	205.50	0	6.5955	0	33.7960	0	26.527	0	203.705	0	144.6	4	48.4	4	-1E+10	1	0.0832	4	0.000415	0	-1E+10	1	-1E+10	1	-1E+10	1
4902624	2	C	07/11/2024	21:26	-128.893	46.368	0	206.30	0	6.5883	0	33.7976	0	26.529	0	204.497	0	143.8	4	48.1	4	-1E+10	1	0.0365	4	0.000434	0	-1E+10	1	-1E+10	1	-1E+10	1
4902624	2	C	07/11/2024	21:26	-128.893	46.368	0	207.00	0	6.5820	0	33.7990	0	26.531	0	205.191	0	-1e10	1	-1e10	1	-1E+10	1	-1e10	1	-1e10	1	-1E+10	1	-1E+10	1	-1E+10	1
4902624	2	C	07/11/2024	21:26	-128.893	46.368	0	207.20	0	6.5777	0	33.7992	0	26.532	0	205.389	0	143.1	4	47.9	4	-1E+10	1	0.0431	4	0.000444	0	-1E+10	1	-1E+10	1	-1E+10	1
4902624	2	C	07/11/2024	21:26	-128.893	46.368	0	208.00	0	6.5604	0	33.8001	0	26.535	0	206.182	0	142.3	4	47.6	4	-1E+10	1	0.0438	4	0.000427	0	-1E+10	1	-1E+10	1	-1E+10	1
4902624	2	C	07/11/2024	21:26	-128.893	46.368	0	208.80	0	6.5432	0	33.8009	0	26.538	0	206.974	0	141.6	4	47.3	4	-1E+10	1	0.0438	4	0.000450	0	-1E+10	1	-1E+10	1	-1E+10	1
4902624	2	C	07/11/2024	21:26	-128.893	46.368	0	208.90	0	6.5410	0	33.8010	0	26.538	0	207.073	0	-1e10	1	-1e10	1	-1E+10	1	-1e10	1	-1e10	1	-1E+10	1	-1E+10	1	-1E+10	1
4902624	2	C	07/11/2024	21:26	-128.893	46.368	0	209.70	0	6.5338	0	33.8021	0	26.540	0	207.866	0	140.7	4	47.0	4	-1E+10	1	0.0405	4	0.000463	0	-1E+10	1	-1E+10	1	-1E+10	1
4902624	2	C	07/11/2024	21:26	-128.893	46.368	0	210.60	0	6.5256	0	33.8034	0	26.542	0	208.758	0	139.8	4	46.7	4	-1E+10	1	0.0392	4	0.000444	0	-1E+10	1	-1E+10	1	-1E+10	1
4902624	2	C	07/11/2024	21:26	-128.893	46.368	0	211.00	0	6.5220	0	33.8040	0	26.543	0	209.154	0	-1e10	1	-1e10	1	-1E+10	1	-1e10	1	-1e10	1	-1E+10	1	-1E+10	1	-1E+10	1
4902624	2	C	07/11/2024	21:26	-128.893	46.368	0	211.50	0	6.5192	0	33.8050	0	26.544	0	209.649	0	138.9	4	46.4	4	-1E+10	1	0.0438	4	0.000409	0	-1E+10	1	-1E+10	1	-1E+10	1
4902624	2	C	07/11/2024	21:26	-128.893	46.368	0	212.40	0	6.5143	0	33.8068	0	26.547	0	210.541	0	138.0	4	46.1	4	-1E+10	1	0.0425	4	0.000393	0	-1E+10	1	-1E+10	1	-1E+10	1
4902624	2	C	07/11/2024	21:26	-128.893	46.368	0	213.00	0	6.5110	0	33.8080	0	26.548	0	211.135	0	-1e10	1	-1e10	1	-1E+10	1	-1e10	1	-1e10	1	-1E+10	1	-1E+10	1	-1E+10	1
4902624	2	C	07/11/2024	21:26	-128.893	46.368	0	213.30	0	6.5096	0	33.8089	0	26.549	0	211.433	0	137.1	4	45.8	4	-1E+10	1	0.0365	4	0.000422	0	-1E+10	1	-1E+10	1	-1E+10	1
4902624	2	C	07/11/2024	21:26	-128.893	46.368	0	214.20	0	6.5053	0	33.8114	0	26.551	0	212.324	0	136.3	4	45.5	4	-1E+10	1	0.0365	4	0.000434	0	-1E+10	1	-1E+10	1	-1E+10	1
4902624	2	C	07/11/2024	21:26	-128.893	46.368	0	215.10	0	6.5010	0	33.8140	0	26.554	0	213.216	0	132.5	4	44.3	4	-1E+10	1	0.0425	4	0.000434	0	-1E+10	1	-1E+10	1	-1E+10	1
4902624	2	C	07/11/2024	21:26	-128.893	46.368	0	216.00	0	6.4963	0	33.8154	0	26.556	0	214.108	0	135.4	4	45.2	4	-1E+10	1	0.0484	4	0.000411	0	-1E+10	1	-1E+10	1	-1E+10	1
4902624	2	C	07/11/2024	21:26	-128.893	46.368	0	217.00	0	6.4910	0	33.8170	0	26.558	0	215.098	0	131.7	4	44.0	4	-1E+10	1	0.0560	4	0.000406	0	-1E+10	1	-1E+10	1	-1E+10	1
4902624	2	C	07/11/2024	21:26	-128.893	46.368	0	217.90	0	6.4799	0	33.8174	0	26.559	0	215.990	0	134.6	4	44.9	4	-1E+10	1	0.0548	4	0.000398	0	-1E+10	1	-1E+10	1	-1E+10	1
4902624	2	C	07/11/2024	21:26	-128.893	46.368	0	218.80	0	6.4687	0	33.8179	0	26.561	0	216.882	0	134.2	4	44.8	4	-1E+10	1	0.0511	4	0.000390	0	-1E+10	1	-1E+10	1	-1E+10	1
4902624	2	C	07/11/2024	21:26	-128.893	46.368	0	219.10	0	6.4650	0	33.8180	0	26.562	0	217.179	0	-1e10	1	-1e10	1	-1E+10	1	-1e10	1	-1e10	1	-1E+10	1	-1E+10	1	-1E+10	1
4902624	2	C	07/11/2024	21:26	-128.893	46.368	0	219.80	0	6.4576	0	33.8184	0	26.563	0	217.872	0	133.8	4	44.6	4	-1E+10	1	0.0479	4	0.000388	0	-1E+10	1	-1E+10	1	-1E+10	1
4902624	2	C	07/11/2024	21:26	-128.893	46.368	0	220.70	0	6.4482	0	33.8188	0	26.565	0	218.764	0	133.4	4	44.5	4	-1E+10	1	0.0402	4	0.000361	0	-1E+10	1	-1E+10	1	-1E+10	1
4902624	2	C	07/11/2024	21:26	-128.893	46.368	0	221.00	0	6.4450	0	33.8190	0	26.565	0	219.061	0	-1e10	1	-1e10	1	-1E+10	1	-1e10	1	-1e10	1	-1E+10	1	-1E+10	1	-1E+10	1
4902624	2	C	07/11/2024	21:26	-128.893	46.368	0	221.70	0	6.4383	0	33.8193	0	26.566	0	219.755	0	132.9	4	44.3	4	-1E+10	1	0.0584	4	0.000410	0	-1E+10	1	-1E+10	1	-1E+10	1
4902624	2	C	07/11/2024	21:26	-128.893	46.368	0	222.70	0	6.4288	0	33.8198	0	26.568	0	220.745	0	132.4	4	44.1	4	-1E+10	1	0.0462	4	0.000429	0	-1E+10	1	-1E+10	1	-1E+10	1
4902624	2	C	07/11/2024	21:26	-128.893	46.368	0	223.10	0	6.4250	0	33.8200	0	26.569	0	221.142	0	-1e10	1	-1e10	1	-1E+10	1	-1e10	1	-1e10	1	-1E+10	1	-1E+10	1	-1E+10	1
4902624	2	C	07/11/2024	21:26	-128.893	46.368	0	223.60	0	6.4233	0	33.8203	0	26.569	0	221.637	0	131.9	4	44.0	4	-1E+10	1	0.0495	4	0.000379	0	-1E+10	1	-1E+10	1	-1E+10	1
4902624	2	C	07/11/2024	21:26	-128.893	46.368	0	224.60	0	6.4200	0	33.8208	0	26.570	0	222.628	0	131.4	4	43.8	4	-1E+10	1	0.0560	4	0.000582	0	-1E+10	1	-1E+10	1	-1E+10	1
4902624	2	C	07/11/2024	21:26	-128.893	46.368	0	224.90	0	6.4190	0	33.8210	0	26.570	0	222.925	0	-1e10	1	-1e10	1	-1E+10	1	-1e10	1	-1e10	1	-1E+10	1	-1E+10	1	-1E+10	1
4902624	2	C	07/11/2024	21:26	-128.893	46.368	0	225.60	0	6.4170	0	33.8210	0	26.571	0	223.618	0	130.9	4	43.6	4	-1E+10	1	0.0584	4	0.000545	0	-1E+10	1	-1E+10	1	-1E+10	1
4902624	2	C	07/11/2024	21:26	-128.893	46.368	0	226.60	0	6.4141	0	33.8210	0	26.571	0	224.609	0	130.3	4	43.4	4	-1E+10	1	0.0519	4	0.000784	0	-1E+10	1	-1E+10	1	-1E+10	1
4902624	2	C	07/11/2024	21:26	-128.893	46.368	0	227.00	0	6.4130	0	33.8210	0	26.571	0	225.005	0	-1e10	1	-1e10	1	-1E+10	1	-1e10	1	-1e10	1	-1E+10	1	-1E+10	1	-1E+10	1
4902624	2	C	07/11/2024	21:26	-128.893	46.368	0	227.50	0	6.4082	0	33.8213	0	26.572	0	225.501	0	129.6	4	43.2	4	-1E+10	1	0.0438	4	0.001071	0	-1E+10	1	-1E+10	1	-1E+10	1
4902624	2	C	07/11/2024	21:26	-128.893	46.368	0	228.50	0	6.3988	0	33.8217	0	26.574	0	226.491	0	128.9	4	42.9	4	-1E+10	1	0.0467	4	0.000623	0	-1E+10	1	-1E+10	1	-1E+10	1
4902624	2	C	07/11/2024	21:26	-128.893	46.368	0	229.00	0	6.3940	0	33.8220	0	26.574	0	226.987	0	-1e10	1	-1e10	1	-1E+10	1	-1e10	1	-1e10	1	-1E+10	1	-1E+10	1	-1E+10	1
4902624	2	C	07/11/2024	21:26	-128.893	46.368	0	229.50	0	6.3872	0	33.8223	0	26.575	0	227.482	0	128.1	4	42.7	4	-1E+10	1	0.0584	4	0.000401	0	-1E+10	1	-1E+10	1	-1E+10	1
4902624	2	C	07/11/2024	21:26	-128.893	46.368	0	230.40	0	6.3748	0	33.8227	0	26.577	0	228.374	0	127.3	4	42.4	4	-1E+10	1	0.0596	4	0.000410	0	-1E+10	1	-1E+10	1	-1E+10	1
4902624	2	C	07/11/2024	21:26	-128.893	46.368	0	230.90	0	6.3680	0	33.8230	0	26.579	0	228.869	0	-1e10	1	-1e10	1	-1E+10	1	-1e10	1	-1e10	1	-1E+10	1	-1E+10	1	-1E+10	1
4902624	2	C	07/11/2024	21:26	-128.893	46.368	0	231.40	0	6.3606	0	33.8240	0	26.580	0	229.364	0	126.5	4	42.1	4	-1E+10	1	0.0657	4	0.000410	0	-1E+10	1	-1E+10	1	-1E+10	1
4902624	2	C	07/11/2024	21:26	-128.893	46.368	0	232.40	0	6.3459	0	33.8259	0	26.584	0	230.355	0	125.7	4	41.9	4	-1E+10	1	0.0353	4	0.000390	0	-1E+10	1	-1E+10	1	-1E+10	1
4902624	2	C	07/11/2024	21:26	-128.893	46.368	0	233.00	0	6.3370	0	33.8270	0	26.586	0	230.949	0	-1e10	1	-1e10	1	-1E+10	1	-1e10	1	-1e10	1	-1E+10	1	-1E+10	1	-1E+10	1
4902624	2	C	07/11/2024	21:26	-128.893	46.368	0	233.40	0	6.3332	0	33.8272	0	26.586	0	231.345	0	125.1	4	41.6	4	-1E+10	1	0.0350	4	0.000358	0	-1E+10	1	-1E+10	1	-1E+10	1
4902624	2	C	07/11/2024	21:26	-128.893	46.368	0	234.40	0	6.3237	0	33.8277	0	26.588	0	232.336	0	124.3	4	41.3	4	-1E+10	1	0.0462	4	0.000343	0	-1E+10	1	-1E+10	1	-1E+10	1
4902624	2	C	07/11/2024	21:26	-128.893	46.368	0	235.10	0	6.3170	0	33.8280	0	26.589	0	233.030	0	-1e10	1	-1e10	1	-1E+10	1	-1e10	1	-1e10	1	-1E+10	1	-1E+10	1	-1E+10	1
4902624	2	C	07/11/2024	21:26	-128.893	46.368	0	235.40	0	6.3146	0	33.8283	0	26.590	0	233.327	0	123.5	4	41.1	4	-1E+10	1	0.0438	4	0.000357	0	-1E+10	1	-1E+10	1	-1E+10	1
4902624	2	C	07/11/2024	21:26	-128.893	46.368	0	236.40	0	6.3067	0	33.8294	0	26.591	0	234.317	0	122.7	4	40.8	4	-1E+10	1	0.0365	4	0.000375	0	-1E+10	1	-1E+10	1	-1E+10	1
4902624	2	C	07/11/2024	21:26	-128.893	46.368	0	237.00	0	6.3020	0	33.8300	0	26.593	0	234.912	0	-1e10	1	-1e10	1	-1E+10	1	-1e10	1	-1e10	1	-1E+10	1	-1E+10	1	-1E+10	1
4902624	2	C	07/11/2024	21:26	-128.893	46.368	0	237.30	0	6.2987	0	33.8307	0	26.594	0	235.209	0	122.0	4	40.5	4	-1E+10	1	0.0365	4	0.000375	0	-1E+10	1	-1E+10	1	-1E+10	1
4902624	2	C	07/11/2024	21:26	-128.893	46.368	0	238.30	0	6.2877	0	33.8333	0	26.597	0	236.200	0	121.3	4	40.3	4	-1E+10	1	0.0365	4	0.000386	0	-1E+10	1	-1E+10	1	-1E+10	1
4902624	2	C	07/11/2024	21:26	-128.893	46.368	0	239.00	0	6.2800	0	33.8350	0	26.599	0	236.893	0	-1e10	1	-1e10	1	-1E+10	1	-1e10	1	-1e10	1	-1E+10	1	-1E+10	1	-1E+10	1
4902624	2	C	07/11/2024	21:26	-128.893	46.368	0	239.30	0	6.2752	0	33.8353	0	26.600	0	237.190	0	120.8	4	40.1	4	-1E+10	1	0.0365	4	0.000445	0	-1E+10	1	-1E+10	1	-1E+10	1
4902624	2	C	07/11/2024	21:26	-128.893	46.368	0	240.30	0	6.2592	0	33.8363	0	26.603	0	238.181	0	120.3	4	40.0	4	-1E+10	1	0.1095	4	0.000363	0	-1E+10	1	-1E+10	1	-1E+10	1
4902624	2	C	07/11/2024	21:26	-128.893	46.368	0	241.00	0	6.2480	0	33.8370	0	26.605	0	238.874	0	-1e10	1	-1e10	1	-1E+10	1	-1e10	1	-1e10	1	-1E+10	1	-1E+10	1	-1E+10	1
4902624	2	C	07/11/2024	21:26	-128.893	46.368	0	241.30	0	6.2441	0	33.8373	0	26.606	0	239.171	0	119.8	4	39.8	4	-1E+10	1	0.0547	4	0.000382	0	-1E+10	1	-1E+10	1	-1E+10	1
4902624	2	C	07/11/2024	21:26	-128.893	46.368	0	242.30	0	6.2313	0	33.8382	0	26.608	0	240.162	0	119.4	4	39.6	4	-1E+10	1	0.0438	4	0.000347	0	-1E+10	1	-1E+10	1	-1E+10	1
4902624	2	C	07/11/2024	21:26	-128.893	46.368	0	243.10	0	6.2210	0	33.8390	0	26.610	0	240.954	0	-1e10	1	-1e10	1	-1E+10	1	-1e10	1	-1e10	1	-1E+10	1	-1E+10	1	-1E+10	1
4902624	2	C	07/11/2024	21:26	-128.893	46.368	0	243.20	0	6.2203	0	33.8391	0	26.610	0	241.053	0	119.0	4	39.5	4	-1E+10	1	0.0402	4	0.000416	0	-1E+10	1	-1E+10	1	-1E+10	1
4902624	2	C	07/11/2024	21:26	-128.893	46.368	0	244.20	0	6.2135	0	33.8396	0	26.612	0	242.044	0	118.6	4	39.4	4	-1E+10	1	0.0398	4	0.000461	0	-1E+10	1	-1E+10	1	-1E+10	1
4902624	2	C	07/11/2024	21:26	-128.893	46.368	0	245.00	0	6.2080	0	33.8400	0	26.613	0	242.837	0	-1e10	1	-1e10	1	-1E+10	1	-1e10	1	-1e10	1	-1E+10	1	-1E+10	1	-1E+10	1
4902624	2	C	07/11/2024	21:26	-128.893	46.368	0	245.20	0	6.2075	0	33.8400	0	26.613	0	243.035	0	118.1	4	39.2	4	-1E+10	1	0.0438	4	0.000395	0	-1E+10	1	-1E+10	1	-1E+10	1
4902624	2	C	07/11/2024	21:26	-128.893	46.368	0	246.20	0	6.2048	0	33.8400	0	26.613	0	244.025	0	117.6	4	39.0	4	-1E+10	1	0.0453	4	0.000365	0	-1E+10	1	-1E+10	1	-1E+10	1
4902624	2	C	07/11/2024	21:26	-128.893	46.368	0	246.90	0	6.2030	0	33.8400	0	26.613	0	244.719	0	-1e10	1	-1e10	1	-1E+10	1	-1e10	1	-1e10	1	-1E+10	1	-1E+10	1	-1E+10	1
4902624	2	C	07/11/2024	21:26	-128.893	46.368	0	247.20	0	6.1994	0	33.8403	0	26.614	0	245.016	0	117.1	4	38.8	4	-1E+10	1	0.0571	4	0.000396	0	-1E+10	1	-1E+10	1	-1E+10	1
4902624	2	C	07/11/2024	21:26	-128.893	46.368	0	248.20	0	6.1874	0	33.8413	0	26.616	0	246.006	0	116.5	4	38.6	4	-1E+10	1	0.0438	4	0.000492	0	-1E+10	1	-1E+10	1	-1E+10	1
4902624	2	C	07/11/2024	21:26	-128.893	46.368	0	248.90	0	6.1790	0	33.8420	0	26.618	0	246.700	0	-1e10	1	-1e10	1	-1E+10	1	-1e10	1	-1e10	1	-1E+10	1	-1E+10	1	-1E+10	1
4902624	2	C	07/11/2024	21:26	-128.893	46.368	0	249.20	0	6.1766	0	33.8420	0	26.618	0	246.997	0	116.0	4	38.5	4	-1E+10	1	0.0377	4	0.000414	0	-1E+10	1	-1E+10	1	-1E+10	1
4902624	2	C	07/11/2024	21:26	-128.893	46.368	0	250.20	0	6.1686	0	33.8420	0	26.619	0	247.987	0	115.4	4	38.3	4	-1E+10	1	0.0423	4	0.000407	0	-1E+10	1	-1E+10	1	-1E+10	1
4902624	2	C	07/11/2024	21:26	-128.893	46.368	0	250.90	0	6.1630	0	33.8420	0	26.620	0	248.681	0	-1e10	1	-1e10	1	-1E+10	1	-1e10	1	-1e10	1	-1E+10	1	-1E+10	1	-1E+10	1
4902624	2	C	07/11/2024	21:26	-128.893	46.368	0	251.20	0	6.1586	0	33.8421	0	26.621	0	248.978	0	114.8	4	38.1	4	-1E+10	1	0.0487	4	0.000386	0	-1E+10	1	-1E+10	1	-1E+10	1
4902624	2	C	07/11/2024	21:26	-128.893	46.368	0	252.20	0	6.1438	0	33.8426	0	26.623	0	249.969	0	114.1	4	37.8	4	-1E+10	1	0.0511	4	0.000380	0	-1E+10	1	-1E+10	1	-1E+10	1
4902624	2	C	07/11/2024	21:26	-128.893	46.368	0	253.00	0	6.1320	0	33.8430	0	26.625	0	250.761	0	-1e10	1	-1e10	1	-1E+10	1	-1e10	1	-1e10	1	-1E+10	1	-1E+10	1	-1E+10	1
4902624	2	C	07/11/2024	21:26	-128.893	46.368	0	253.20	0	6.1288	0	33.8431	0	26.625	0	250.959	0	113.4	4	37.6	4	-1E+10	1	0.0511	4	0.000372	0	-1E+10	1	-1E+10	1	-1E+10	1
4902624	2	C	07/11/2024	21:26	-128.893	46.368	0	254.20	0	6.1129	0	33.8435	0	26.628	0	251.950	0	112.7	4	37.3	4	-1E+10	1	0.0511	4	0.000355	0	-1E+10	1	-1E+10	1	-1E+10	1
4902624	2	C	07/11/2024	21:26	-128.893	46.368	0	255.20	0	6.0970	0	33.8440	0	26.630	0	252.940	0	109.1	4	36.1	4	-1E+10	1	0.0493	4	0.000354	0	-1E+10	1	-1E+10	1	-1E+10	1
4902624	2	C	07/11/2024	21:26	-128.893	46.368	0	256.10	0	6.0822	0	33.8451	0	26.633	0	253.832	0	111.0	4	36.7	4	-1E+10	1	0.0438	4	0.000327	0	-1E+10	1	-1E+10	1	-1E+10	1
4902624	2	C	07/11/2024	21:26	-128.893	46.368	0	256.90	0	6.0690	0	33.8460	0	26.635	0	254.624	0	-1e10	1	-1e10	1	-1E+10	1	-1e10	1	-1e10	1	-1E+10	1	-1E+10	1	-1E+10	1
4902624	2	C	07/11/2024	21:26	-128.893	46.368	0	257.20	0	6.0660	0	33.8465	0	26.636	0	254.921	0	110.2	4	36.5	4	-1E+10	1	0.0584	4	0.000398	0	-1E+10	1	-1E+10	1	-1E+10	1
4902624	2	C	07/11/2024	21:26	-128.893	46.368	0	258.10	0	6.0570	0	33.8479	0	26.638	0	255.813	0	109.3	4	36.1	4	-1E+10	1	0.0644	4	0.000379	0	-1E+10	1	-1E+10	1	-1E+10	1
4902624	2	C	07/11/2024	21:26	-128.893	46.368	0	258.80	0	6.0500	0	33.8490	0	26.640	0	256.506	0	-1e10	1	-1e10	1	-1E+10	1	-1e10	1	-1e10	1	-1E+10	1	-1E+10	1	-1E+10	1
4902624	2	C	07/11/2024	21:26	-128.893	46.368	0	259.10	0	6.0489	0	33.8497	0	26.640	0	256.803	0	108.7	4	35.9	4	-1E+10	1	0.0754	4	0.000414	0	-1E+10	1	-1E+10	1	-1E+10	1
4902624	2	C	07/11/2024	21:26	-128.893	46.368	0	260.10	0	6.0453	0	33.8520	0	26.643	0	257.794	0	108.2	4	35.8	4	-1E+10	1	0.0584	4	0.000398	0	-1E+10	1	-1E+10	1	-1E+10	1
4902624	2	C	07/11/2024	21:26	-128.893	46.368	0	261.00	0	6.0420	0	33.8540	0	26.645	0	258.685	0	-1e10	1	-1e10	1	-1E+10	1	-1e10	1	-1e10	1	-1E+10	1	-1E+10	1	-1E+10	1
4902624	2	C	07/11/2024	21:26	-128.893	46.368	0	261.10	0	6.0396	0	33.8539	0	26.645	0	258.784	0	107.9	4	35.7	4	-1E+10	1	0.0438	4	0.000362	0	-1E+10	1	-1E+10	1	-1E+10	1
4902624	2	C	07/11/2024	21:26	-128.893	46.368	0	262.00	0	6.0183	0	33.8535	0	26.647	0	259.676	0	107.5	4	35.5	4	-1E+10	1	0.0462	4	0.000359	0	-1E+10	1	-1E+10	1	-1E+10	1
4902624	2	C	07/11/2024	21:26	-128.893	46.368	0	262.90	0	5.9970	0	33.8530	0	26.650	0	260.567	0	-1e10	1	-1e10	1	-1E+10	1	-1e10	1	-1e10	1	-1E+10	1	-1E+10	1	-1E+10	1
4902624	2	C	07/11/2024	21:26	-128.893	46.368	0	263.00	0	5.9947	0	33.8530	0	26.650	0	260.666	0	107.1	4	35.4	4	-1E+10	1	0.0511	4	0.000384	0	-1E+10	1	-1E+10	1	-1E+10	1
4902624	2	C	07/11/2024	21:26	-128.893	46.368	0	264.00	0	5.9715	0	33.8530	0	26.653	0	261.657	0	106.6	4	35.2	4	-1E+10	1	0.0523	4	0.000410	0	-1E+10	1	-1E+10	1	-1E+10	1
4902624	2	C	07/11/2024	21:26	-128.893	46.368	0	265.00	0	5.9483	0	33.8530	0	26.656	0	262.647	0	105.9	4	34.9	4	-1E+10	1	0.0584	4	0.000351	0	-1E+10	1	-1E+10	1	-1E+10	1
4902624	2	C	07/11/2024	21:26	-128.893	46.368	0	265.10	0	5.9460	0	33.8530	0	26.656	0	262.746	0	-1e10	1	-1e10	1	-1E+10	1	-1e10	1	-1e10	1	-1E+10	1	-1E+10	1	-1E+10	1
4902624	2	C	07/11/2024	21:26	-128.893	46.368	0	266.00	0	5.9276	0	33.8526	0	26.658	0	263.638	0	105.3	4	34.7	4	-1E+10	1	0.0645	4	0.000361	0	-1E+10	1	-1E+10	1	-1E+10	1
4902624	2	C	07/11/2024	21:26	-128.893	46.368	0	267.00	0	5.9071	0	33.8521	0	26.660	0	264.628	0	104.5	4	34.4	4	-1E+10	1	0.0657	4	0.000381	0	-1E+10	1	-1E+10	1	-1E+10	1
4902624	2	C	07/11/2024	21:26	-128.893	46.368	0	267.10	0	5.9050	0	33.8520	0	26.660	0	264.727	0	-1e10	1	-1e10	1	-1E+10	1	-1e10	1	-1e10	1	-1E+10	1	-1E+10	1	-1E+10	1
4902624	2	C	07/11/2024	21:26	-128.893	46.368	0	268.00	0	5.8927	0	33.8529	0	26.663	0	265.619	0	103.8	4	34.2	4	-1E+10	1	0.0551	4	0.000352	0	-1E+10	1	-1E+10	1	-1E+10	1
4902624	2	C	07/11/2024	21:26	-128.893	46.368	0	268.90	0	5.8804	0	33.8539	0	26.665	0	266.510	0	103.0	4	33.9	4	-1E+10	1	0.0511	4	0.000339	0	-1E+10	1	-1E+10	1	-1E+10	1
4902624	2	C	07/11/2024	21:26	-128.893	46.368	0	269.00	0	5.8790	0	33.8540	0	26.665	0	266.609	0	-1e10	1	-1e10	1	-1E+10	1	-1e10	1	-1e10	1	-1E+10	1	-1E+10	1	-1E+10	1
4902624	2	C	07/11/2024	21:26	-128.893	46.368	0	269.90	0	5.8714	0	33.8549	0	26.667	0	267.501	0	102.2	4	33.7	4	-1E+10	1	0.0511	4	0.000344	0	-1E+10	1	-1E+10	1	-1E+10	1
4902624	2	C	07/11/2024	21:26	-128.893	46.368	0	270.90	0	5.8629	0	33.8559	0	26.669	0	268.491	0	101.5	4	33.4	4	-1E+10	1	0.0487	4	0.000359	0	-1E+10	1	-1E+10	1	-1E+10	1
4902624	2	C	07/11/2024	21:26	-128.893	46.368	0	271.00	0	5.8620	0	33.8560	0	26.669	0	268.590	0	-1e10	1	-1e10	1	-1E+10	1	-1e10	1	-1e10	1	-1E+10	1	-1E+10	1	-1E+10	1
4902624	2	C	07/11/2024	21:26	-128.893	46.368	0	271.90	0	5.8534	0	33.8569	0	26.671	0	269.481	0	100.8	4	33.2	4	-1E+10	1	0.0462	4	0.000370	0	-1E+10	1	-1E+10	1	-1E+10	1
4902624	2	C	07/11/2024	21:26	-128.893	46.368	0	272.90	0	5.8439	0	33.8579	0	26.673	0	270.472	0	99.9	4	32.9	4	-1E+10	1	0.0584	4	0.000351	0	-1E+10	1	-1E+10	1	-1E+10	1
4902624	2	C	07/11/2024	21:26	-128.893	46.368	0	273.00	0	5.8430	0	33.8580	0	26.673	0	270.571	0	-1e10	1	-1e10	1	-1E+10	1	-1e10	1	-1e10	1	-1E+10	1	-1E+10	1	-1E+10	1
4902624	2	C	07/11/2024	21:26	-128.893	46.368	0	273.90	0	5.8498	0	33.8603	0	26.674	0	271.462	0	99.1	4	32.6	4	-1E+10	1	0.0511	4	0.000433	0	-1E+10	1	-1E+10	1	-1E+10	1
4902624	2	C	07/11/2024	21:26	-128.893	46.368	0	274.90	0	5.8572	0	33.8627	0	26.675	0	272.453	0	98.5	4	32.4	4	-1E+10	1	0.0450	4	0.000374	0	-1E+10	1	-1E+10	1	-1E+10	1
4902624	2	C	07/11/2024	21:26	-128.893	46.368	0	275.00	0	5.8580	0	33.8630	0	26.675	0	272.552	0	-1e10	1	-1e10	1	-1E+10	1	-1e10	1	-1e10	1	-1E+10	1	-1E+10	1	-1E+10	1
4902624	2	C	07/11/2024	21:26	-128.893	46.368	0	275.90	0	5.8458	0	33.8634	0	26.677	0	273.443	0	97.9	4	32.2	4	-1E+10	1	0.0584	4	0.000339	0	-1E+10	1	-1E+10	1	-1E+10	1
4902624	2	C	07/11/2024	21:26	-128.893	46.368	0	276.90	0	5.8323	0	33.8639	0	26.679	0	274.434	0	97.0	4	31.9	4	-1E+10	1	0.0569	4	0.000327	0	-1E+10	1	-1E+10	1	-1E+10	1
4902624	2	C	07/11/2024	21:26	-128.893	46.368	0	277.00	0	5.8310	0	33.8640	0	26.679	0	274.533	0	-1e10	1	-1e10	1	-1E+10	1	-1e10	1	-1e10	1	-1E+10	1	-1E+10	1	-1E+10	1
4902624	2	C	07/11/2024	21:26	-128.893	46.368	0	277.90	0	5.8157	0	33.8640	0	26.681	0	275.424	0	95.9	4	31.6	4	-1E+10	1	0.0584	4	0.000339	0	-1E+10	1	-1E+10	1	-1E+10	1
4902624	2	C	07/11/2024	21:26	-128.893	46.368	0	278.90	0	5.7987	0	33.8640	0	26.683	0	276.415	0	94.8	4	31.2	4	-1E+10	1	0.0584	4	0.000355	0	-1E+10	1	-1E+10	1	-1E+10	1
4902624	2	C	07/11/2024	21:26	-128.893	46.368	0	279.00	0	5.7970	0	33.8640	0	26.683	0	276.514	0	-1e10	1	-1e10	1	-1E+10	1	-1e10	1	-1e10	1	-1E+10	1	-1E+10	1	-1E+10	1
4902624	2	C	07/11/2024	21:26	-128.893	46.368	0	279.90	0	5.7979	0	33.8657	0	26.684	0	277.405	0	93.6	4	30.8	4	-1E+10	1	0.0465	4	0.000375	0	-1E+10	1	-1E+10	1	-1E+10	1
4902624	2	C	07/11/2024	21:26	-128.893	46.368	0	280.90	0	5.7988	0	33.8676	0	26.686	0	278.395	0	92.4	4	30.4	4	-1E+10	1	0.0572	4	0.000424	0	-1E+10	1	-1E+10	1	-1E+10	1
4902624	2	C	07/11/2024	21:26	-128.893	46.368	0	281.10	0	5.7990	0	33.8680	0	26.686	0	278.593	0	-1e10	1	-1e10	1	-1E+10	1	-1e10	1	-1e10	1	-1E+10	1	-1E+10	1	-1E+10	1
4902624	2	C	07/11/2024	21:26	-128.893	46.368	0	282.00	0	5.7940	0	33.8720	0	26.690	0	279.485	0	91.3	4	30.0	4	-1E+10	1	0.0438	4	0.000327	0	-1E+10	1	-1E+10	1	-1E+10	1
4902624	2	C	07/11/2024	21:26	-128.893	46.368	0	282.90	0	5.7890	0	33.8760	0	26.694	0	280.376	0	-1e10	1	-1e10	1	-1E+10	1	-1e10	1	-1e10	1	-1E+10	1	-1E+10	1	-1E+10	1
4902624	2	C	07/11/2024	21:26	-128.893	46.368	0	283.00	0	5.7887	0	33.8763	0	26.694	0	280.475	0	90.3	4	29.7	4	-1E+10	1	0.0560	4	0.000347	0	-1E+10	1	-1E+10	1	-1E+10	1
4902624	2	C	07/11/2024	21:26	-128.893	46.368	0	284.00	0	5.7861	0	33.8789	0	26.696	0	281.466	0	89.3	4	29.3	4	-1E+10	1	0.0584	4	0.000341	0	-1E+10	1	-1E+10	1	-1E+10	1
4902624	2	C	07/11/2024	21:26	-128.893	46.368	0	284.80	0	5.7840	0	33.8810	0	26.698	0	282.258	0	-1e10	1	-1e10	1	-1E+10	1	-1e10	1	-1e10	1	-1E+10	1	-1E+10	1	-1E+10	1
4902624	2	C	07/11/2024	21:26	-128.893	46.368	0	285.00	0	5.7849	0	33.8817	0	26.699	0	282.456	0	88.5	4	29.1	4	-1E+10	1	0.0539	4	0.000317	0	-1E+10	1	-1E+10	1	-1E+10	1
4902624	2	C	07/11/2024	21:26	-128.893	46.368	0	286.10	0	5.7899	0	33.8857	0	26.701	0	283.545	0	87.8	4	28.9	4	-1E+10	1	0.0511	4	0.000345	0	-1E+10	1	-1E+10	1	-1E+10	1
4902624	2	C	07/11/2024	21:26	-128.893	46.368	0	287.00	0	5.7940	0	33.8890	0	26.703	0	284.437	0	-1e10	1	-1e10	1	-1E+10	1	-1e10	1	-1e10	1	-1E+10	1	-1E+10	1	-1E+10	1
4902624	2	C	07/11/2024	21:26	-128.893	46.368	0	287.10	0	5.7941	0	33.8891	0	26.704	0	284.536	0	87.2	4	28.7	4	-1E+10	1	0.0511	4	0.000373	0	-1E+10	1	-1E+10	1	-1E+10	1
4902624	2	C	07/11/2024	21:26	-128.893	46.368	0	288.20	0	5.7951	0	33.8901	0	26.704	0	285.625	0	86.4	4	28.4	4	-1E+10	1	0.0487	4	0.000343	0	-1E+10	1	-1E+10	1	-1E+10	1
4902624	2	C	07/11/2024	21:26	-128.893	46.368	0	289.10	0	5.7960	0	33.8910	0	26.705	0	286.517	0	-1e10	1	-1e10	1	-1E+10	1	-1e10	1	-1e10	1	-1E+10	1	-1E+10	1	-1E+10	1
4902624	2	C	07/11/2024	21:26	-128.893	46.368	0	289.20	0	5.7941	0	33.8911	0	26.705	0	286.616	0	85.6	4	28.1	4	-1E+10	1	0.0450	4	0.000325	0	-1E+10	1	-1E+10	1	-1E+10	1
4902624	2	C	07/11/2024	21:26	-128.893	46.368	0	290.20	0	5.7746	0	33.8922	0	26.708	0	287.606	0	84.8	4	27.9	4	-1E+10	1	0.0511	4	0.000315	0	-1E+10	1	-1E+10	1	-1E+10	1
4902624	2	C	07/11/2024	21:26	-128.893	46.368	0	291.00	0	5.7590	0	33.8930	0	26.711	0	288.398	0	-1e10	1	-1e10	1	-1E+10	1	-1e10	1	-1e10	1	-1E+10	1	-1E+10	1	-1E+10	1
4902624	2	C	07/11/2024	21:26	-128.893	46.368	0	291.30	0	5.7529	0	33.8930	0	26.712	0	288.695	0	83.8	4	27.5	4	-1E+10	1	0.0511	4	0.000339	0	-1E+10	1	-1E+10	1	-1E+10	1
4902624	2	C	07/11/2024	21:26	-128.893	46.368	0	292.40	0	5.7303	0	33.8930	0	26.714	0	289.785	0	82.7	4	27.1	4	-1E+10	1	0.0449	4	0.000329	0	-1E+10	1	-1E+10	1	-1E+10	1
4902624	2	C	07/11/2024	21:26	-128.893	46.368	0	293.00	0	5.7180	0	33.8930	0	26.716	0	290.379	0	-1e10	1	-1e10	1	-1E+10	1	-1e10	1	-1e10	1	-1E+10	1	-1E+10	1	-1E+10	1
4902624	2	C	07/11/2024	21:26	-128.893	46.368	0	293.50	0	5.7105	0	33.8935	0	26.717	0	290.874	0	81.4	4	26.7	4	-1E+10	1	0.0590	4	0.000311	0	-1E+10	1	-1E+10	1	-1E+10	1
4902624	2	C	07/11/2024	21:26	-128.893	46.368	0	294.50	0	5.6955	0	33.8945	0	26.720	0	291.865	0	80.0	4	26.3	4	-1E+10	1	0.0617	4	0.000296	0	-1E+10	1	-1E+10	1	-1E+10	1
4902624	2	C	07/11/2024	21:26	-128.893	46.368	0	295.00	0	5.6880	0	33.8950	0	26.721	0	292.360	0	-1e10	1	-1e10	1	-1E+10	1	-1e10	1	-1e10	1	-1E+10	1	-1E+10	1	-1E+10	1
4902624	2	C	07/11/2024	21:26	-128.893	46.368	0	295.60	0	5.6953	0	33.8966	0	26.722	0	292.954	0	78.6	4	25.8	4	-1E+10	1	0.0517	4	0.000313	0	-1E+10	1	-1E+10	1	-1E+10	1
4902624	2	C	07/11/2024	21:26	-128.893	46.368	0	296.70	0	5.7086	0	33.8995	0	26.722	0	294.043	0	77.2	4	25.3	4	-1E+10	1	0.0465	4	0.000330	0	-1E+10	1	-1E+10	1	-1E+10	1
4902624	2	C	07/11/2024	21:26	-128.893	46.368	0	296.90	0	5.7110	0	33.9000	0	26.722	0	294.241	0	-1e10	1	-1e10	1	-1E+10	1	-1e10	1	-1e10	1	-1E+10	1	-1E+10	1	-1E+10	1
4902624	2	C	07/11/2024	21:26	-128.893	46.368	0	297.80	0	5.7350	0	33.9077	0	26.726	0	295.133	0	76.3	4	25.1	4	-1E+10	1	0.0482	4	0.000325	0	-1E+10	1	-1E+10	1	-1E+10	1
4902624	2	C	07/11/2024	21:26	-128.893	46.368	0	298.90	0	5.7643	0	33.9171	0	26.729	0	296.222	0	75.6	4	24.8	4	-1E+10	1	0.0435	4	0.000341	0	-1E+10	1	-1E+10	1	-1E+10	1
4902624	2	C	07/11/2024	21:26	-128.893	46.368	0	299.00	0	5.7670	0	33.9180	0	26.730	0	296.321	0	-1e10	1	-1e10	1	-1E+10	1	-1e10	1	-1e10	1	-1E+10	1	-1E+10	1	-1E+10	1
4902624	2	C	07/11/2024	21:26	-128.893	46.368	0	305.30	0	5.7600	0	33.9320	0	26.742	0	302.560	0	-1e10	1	-1e10	1	-1E+10	1	-1e10	1	-1e10	1	-1E+10	1	-1E+10	1	-1E+10	1
4902624	2	C	07/11/2024	21:26	-128.893	46.368	0	309.50	0	5.7535	0	33.9363	0	26.746	0	306.719	0	71.6	4	23.5	4	-1E+10	1	0.0371	4	0.000385	0	-1E+10	1	-1E+10	1	-1E+10	1
4902624	2	C	07/11/2024	21:26	-128.893	46.368	0	315.00	0	5.7450	0	33.9420	0	26.752	0	312.166	0	-1e10	1	-1e10	1	-1E+10	1	-1e10	1	-1e10	1	-1E+10	1	-1E+10	1	-1E+10	1
4902624	2	C	07/11/2024	21:26	-128.893	46.368	0	320.10	0	5.7065	0	33.9420	0	26.756	0	317.216	0	69.8	4	22.9	4	-1E+10	1	0.0514	4	0.000371	0	-1E+10	1	-1E+10	1	-1E+10	1
4902624	2	C	07/11/2024	21:26	-128.893	46.368	0	324.80	0	5.6710	0	33.9420	0	26.761	0	321.870	0	-1e10	1	-1e10	1	-1E+10	1	-1e10	1	-1e10	1	-1E+10	1	-1E+10	1	-1E+10	1
4902624	2	C	07/11/2024	21:26	-128.893	46.368	0	330.50	0	5.6518	0	33.9486	0	26.768	0	327.514	0	66.0	4	21.6	4	-1E+10	1	0.0581	4	0.000303	0	-1E+10	1	-1E+10	1	-1E+10	1
4902624	2	C	07/11/2024	21:26	-128.893	46.368	0	335.20	0	5.6360	0	33.9540	0	26.775	0	332.168	0	-1e10	1	-1e10	1	-1E+10	1	-1e10	1	-1e10	1	-1E+10	1	-1E+10	1	-1E+10	1
4902624	2	C	07/11/2024	21:26	-128.893	46.368	0	340.80	0	5.6105	0	33.9602	0	26.783	0	337.712	0	62.6	4	20.5	4	-1E+10	1	0.0517	4	0.000303	0	-1E+10	1	-1E+10	1	-1E+10	1
4902624	2	C	07/11/2024	21:26	-128.893	46.368	0	345.10	0	5.5910	0	33.9650	0	26.789	0	341.970	0	-1e10	1	-1e10	1	-1E+10	1	-1e10	1	-1e10	1	-1E+10	1	-1E+10	1	-1E+10	1
4902624	2	C	07/11/2024	21:26	-128.893	46.368	0	350.90	0	5.5423	0	33.9633	0	26.793	0	347.712	0	62.4	4	20.4	4	-1E+10	1	0.0654	4	0.000291	0	-1E+10	1	-1E+10	1	-1E+10	1
4902624	2	C	07/11/2024	21:26	-128.893	46.368	0	355.10	0	5.5070	0	33.9620	0	26.797	0	351.871	0	-1e10	1	-1e10	1	-1E+10	1	-1e10	1	-1e10	1	-1E+10	1	-1E+10	1	-1E+10	1
4902624	2	C	07/11/2024	21:26	-128.893	46.368	0	361.00	0	5.4730	0	33.9644	0	26.803	0	357.712	0	59.5	4	19.4	4	-1E+10	1	0.0584	4	0.000280	0	-1E+10	1	-1E+10	1	-1E+10	1
4902624	2	C	07/11/2024	21:26	-128.893	46.368	0	365.00	0	5.4500	0	33.9660	0	26.807	0	361.672	0	-1e10	1	-1e10	1	-1E+10	1	-1e10	1	-1e10	1	-1E+10	1	-1E+10	1	-1E+10	1
4902624	2	C	07/11/2024	21:26	-128.893	46.368	0	371.30	0	5.3609	0	33.9654	0	26.817	0	367.909	0	58.2	4	19.0	4	-1E+10	1	0.0584	4	0.000291	0	-1E+10	1	-1E+10	1	-1E+10	1
4902624	2	C	07/11/2024	21:26	-128.893	46.368	0	374.90	0	5.3100	0	33.9650	0	26.822	0	371.473	0	-1e10	1	-1e10	1	-1E+10	1	-1e10	1	-1e10	1	-1E+10	1	-1E+10	1	-1E+10	1
4902624	2	C	07/11/2024	21:26	-128.893	46.368	0	381.90	0	5.2722	0	33.9699	0	26.831	0	378.403	0	55.4	4	18.0	4	-1E+10	1	0.0584	4	0.000290	0	-1E+10	1	-1E+10	1	-1E+10	1
4902624	2	C	07/11/2024	21:26	-128.893	46.368	0	384.90	0	5.2560	0	33.9720	0	26.834	0	381.372	0	-1e10	1	-1e10	1	-1E+10	1	-1e10	1	-1e10	1	-1E+10	1	-1E+10	1	-1E+10	1
4902624	2	C	07/11/2024	21:26	-128.893	46.368	0	393.00	0	5.1964	0	33.9776	0	26.846	0	389.391	0	51.7	4	16.8	4	-1E+10	1	0.0581	4	0.000256	0	-1E+10	1	-1E+10	1	-1E+10	1
4902624	2	C	07/11/2024	21:26	-128.893	46.368	0	395.10	0	5.1810	0	33.9790	0	26.849	0	391.469	0	-1e10	1	-1e10	1	-1E+10	1	-1e10	1	-1e10	1	-1E+10	1	-1E+10	1	-1E+10	1
4902624	2	C	07/11/2024	21:26	-128.893	46.368	0	404.30	0	5.1628	0	33.9936	0	26.862	0	400.576	0	48.8	4	15.8	4	-1E+10	1	0.0507	4	0.000267	0	-1E+10	1	-1E+10	1	-1E+10	1
4902624	2	C	07/11/2024	21:26	-128.893	46.368	0	405.20	0	5.1610	0	33.9950	0	26.864	0	401.467	0	-1e10	1	-1e10	1	-1E+10	1	-1e10	1	-1e10	1	-1E+10	1	-1E+10	1	-1E+10	1
4902624	2	C	07/11/2024	21:26	-128.893	46.368	0	413.20	0	5.1218	0	34.0007	0	26.873	0	409.385	0	47.2	4	15.3	4	-1E+10	1	0.0444	4	0.000255	0	-1E+10	1	-1E+10	1	-1E+10	1
4902624	2	C	07/11/2024	21:26	-128.893	46.368	0	415.00	0	5.1130	0	34.0020	0	26.875	0	411.167	0	-1e10	1	-1e10	1	-1E+10	1	-1e10	1	-1e10	1	-1E+10	1	-1E+10	1	-1E+10	1
4902624	2	C	07/11/2024	21:26	-128.893	46.368	0	421.00	0	5.0799	0	34.0063	0	26.882	0	417.105	0	45.5	4	14.7	4	-1E+10	1	0.0581	4	0.000232	0	-1E+10	1	-1E+10	1	-1E+10	1
4902624	2	C	07/11/2024	21:26	-128.893	46.368	0	424.80	0	5.0590	0	34.0090	0	26.887	0	420.866	0	-1e10	1	-1e10	1	-1E+10	1	-1e10	1	-1e10	1	-1E+10	1	-1E+10	1	-1E+10	1
4902624	2	C	07/11/2024	21:26	-128.893	46.368	0	429.30	0	5.0305	0	34.0121	0	26.893	0	425.320	0	43.7	4	14.1	4	-1E+10	1	0.0511	4	0.000222	0	-1E+10	1	-1E+10	1	-1E+10	1
4902624	2	C	07/11/2024	21:26	-128.893	46.368	0	434.90	0	4.9950	0	34.0160	0	26.900	0	430.862	0	-1e10	1	-1e10	1	-1E+10	1	-1e10	1	-1e10	1	-1E+10	1	-1E+10	1	-1E+10	1
4902624	2	C	07/11/2024	21:26	-128.893	46.368	0	438.30	0	4.9819	0	34.0194	0	26.904	0	434.227	0	41.4	4	13.4	4	-1E+10	1	0.0513	4	0.000280	0	-1E+10	1	-1E+10	1	-1E+10	1
4902624	2	C	07/11/2024	21:26	-128.893	46.368	0	445.00	0	4.9560	0	34.0260	0	26.912	0	440.858	0	-1e10	1	-1e10	1	-1E+10	1	-1e10	1	-1e10	1	-1E+10	1	-1E+10	1	-1E+10	1
4902624	2	C	07/11/2024	21:26	-128.893	46.368	0	447.90	0	4.9431	0	34.0292	0	26.916	0	443.728	0	39.3	4	12.7	4	-1E+10	1	0.0581	4	0.000298	0	-1E+10	1	-1E+10	1	-1E+10	1
4902624	2	C	07/11/2024	21:26	-128.893	46.368	0	455.10	0	4.9110	0	34.0370	0	26.926	0	450.853	0	-1e10	1	-1e10	1	-1E+10	1	-1e10	1	-1e10	1	-1E+10	1	-1E+10	1	-1E+10	1
4902624	2	C	07/11/2024	21:26	-128.893	46.368	0	458.00	0	4.9023	0	34.0399	0	26.929	0	453.723	0	37.0	4	11.9	4	-1E+10	1	0.0514	4	0.000208	0	-1E+10	1	-1E+10	1	-1E+10	1
4902624	2	C	07/11/2024	21:26	-128.893	46.368	0	465.10	0	4.8810	0	34.0470	0	26.937	0	460.748	0	-1e10	1	-1e10	1	-1E+10	1	-1e10	1	-1e10	1	-1E+10	1	-1E+10	1	-1E+10	1
4902624	2	C	07/11/2024	21:26	-128.893	46.368	0	468.40	0	4.8684	0	34.0490	0	26.940	0	464.014	0	35.1	4	11.3	4	-1E+10	1	0.0587	4	0.000197	0	-1E+10	1	-1E+10	1	-1E+10	1
4902624	2	C	07/11/2024	21:26	-128.893	46.368	0	474.80	0	4.8440	0	34.0530	0	26.946	0	470.347	0	-1e10	1	-1e10	1	-1E+10	1	-1e10	1	-1e10	1	-1E+10	1	-1E+10	1	-1E+10	1
4902624	2	C	07/11/2024	21:26	-128.893	46.368	0	478.80	0	4.8216	0	34.0555	0	26.951	0	474.305	0	33.6	4	10.8	4	-1E+10	1	0.0651	4	0.000207	0	-1E+10	1	-1E+10	1	-1E+10	1
4902624	2	C	07/11/2024	21:26	-128.893	46.368	0	484.60	0	4.7890	0	34.0590	0	26.957	0	480.043	0	-1e10	1	-1e10	1	-1E+10	1	-1e10	1	-1e10	1	-1E+10	1	-1E+10	1	-1E+10	1
4902624	2	C	07/11/2024	21:26	-128.893	46.368	0	489.20	0	4.7558	0	34.0612	0	26.963	0	484.595	0	32.3	4	10.4	4	-1E+10	1	0.0517	4	0.000173	0	-1E+10	1	-1E+10	1	-1E+10	1
4902624	2	C	07/11/2024	21:26	-128.893	46.368	0	495.00	0	4.7140	0	34.0640	0	26.970	0	490.333	0	-1e10	1	-1e10	1	-1E+10	1	-1e10	1	-1e10	1	-1E+10	1	-1E+10	1	-1E+10	1
4902624	2	C	07/11/2024	21:26	-128.893	46.368	0	499.40	0	4.7092	0	34.0697	0	26.975	0	494.687	0	29.7	4	9.5	4	-1E+10	1	0.0657	4	0.000187	0	-1E+10	1	-1E+10	1	-1E+10	1
4902624	2	C	07/11/2024	21:26	-128.893	46.368	0	505.10	0	4.7030	0	34.0770	0	26.981	0	500.326	0	-1e10	1	-1e10	1	-1E+10	1	-1e10	1	-1e10	1	-1E+10	1	-1E+10	1	-1E+10	1
4902624	2	C	07/11/2024	21:26	-128.893	46.368	0	509.30	0	4.6782	0	34.0799	0	26.986	0	504.481	0	28.4	4	9.1	4	-1E+10	1	0.0653	4	0.000253	0	-1E+10	1	-1E+10	1	-1E+10	1
4902624	2	C	07/11/2024	21:26	-128.893	46.368	0	515.10	0	4.6440	0	34.0840	0	26.993	0	510.219	0	-1e10	1	-1e10	1	-1E+10	1	-1e10	1	-1e10	1	-1E+10	1	-1E+10	1	-1E+10	1
4902624	2	C	07/11/2024	21:26	-128.893	46.368	0	519.20	0	4.6332	0	34.0890	0	26.999	0	514.275	0	26.3	4	8.4	4	-1E+10	1	0.0514	4	0.000196	0	-1E+10	1	-1E+10	1	-1E+10	1
4902624	2	C	07/11/2024	21:26	-128.893	46.368	0	525.00	0	4.6180	0	34.0960	0	27.006	0	520.013	0	-1e10	1	-1e10	1	-1E+10	1	-1e10	1	-1e10	1	-1E+10	1	-1E+10	1	-1E+10	1
4902624	2	C	07/11/2024	21:26	-128.893	46.368	0	529.00	0	4.6103	0	34.1000	0	27.010	0	523.970	0	24.5	4	7.8	4	-1E+10	1	0.0587	4	0.000184	0	-1E+10	1	-1E+10	1	-1E+10	1
4902624	2	C	07/11/2024	21:26	-128.893	46.368	0	534.90	0	4.5990	0	34.1060	0	27.016	0	529.806	0	-1e10	1	-1e10	1	-1E+10	1	-1e10	1	-1e10	1	-1E+10	1	-1E+10	1	-1E+10	1
4902624	2	C	07/11/2024	21:26	-128.893	46.368	0	538.70	0	4.5934	0	34.1090	0	27.019	0	533.565	0	23.2	4	7.4	4	-1E+10	1	0.0653	4	0.000171	0	-1E+10	1	-1E+10	1	-1E+10	1
4902624	2	C	07/11/2024	21:26	-128.893	46.368	0	545.10	0	4.5840	0	34.1140	0	27.024	0	539.896	0	-1e10	1	-1e10	1	-1E+10	1	-1e10	1	-1e10	1	-1E+10	1	-1E+10	1	-1E+10	1
4902624	2	C	07/11/2024	21:26	-128.893	46.368	0	548.50	0	4.5749	0	34.1168	0	27.027	0	543.259	0	21.8	4	7.0	4	-1E+10	1	0.0578	4	0.000149	0	-1E+10	1	-1E+10	1	-1E+10	1
4902624	2	C	07/11/2024	21:26	-128.893	46.368	0	554.80	0	4.5580	0	34.1220	0	27.033	0	549.491	0	-1e10	1	-1e10	1	-1E+10	1	-1e10	1	-1e10	1	-1E+10	1	-1E+10	1	-1E+10	1
4902624	2	C	07/11/2024	21:26	-128.893	46.368	0	558.50	0	4.5410	0	34.1253	0	27.038	0	553.150	0	20.6	4	6.6	4	-1E+10	1	0.0444	4	0.000153	0	-1E+10	1	-1E+10	1	-1E+10	1
4902624	2	C	07/11/2024	21:26	-128.893	46.368	0	564.80	0	4.5120	0	34.1310	0	27.046	0	559.381	0	-1e10	1	-1e10	1	-1E+10	1	-1e10	1	-1e10	1	-1E+10	1	-1E+10	1	-1E+10	1
4902624	2	C	07/11/2024	21:26	-128.893	46.368	0	568.70	0	4.5007	0	34.1341	0	27.049	0	563.239	0	19.4	4	6.2	4	-1E+10	1	0.0581	4	0.000262	0	-1E+10	1	-1E+10	1	-1E+10	1
4902624	2	C	07/11/2024	21:26	-128.893	46.368	0	574.80	0	4.4830	0	34.1390	0	27.055	0	569.272	0	-1e10	1	-1e10	1	-1E+10	1	-1e10	1	-1e10	1	-1E+10	1	-1E+10	1	-1E+10	1
4902624	2	C	07/11/2024	21:26	-128.893	46.368	0	579.20	0	4.4636	0	34.1430	0	27.060	0	573.623	0	18.1	4	5.8	4	-1E+10	1	0.0514	4	0.000172	0	-1E+10	1	-1E+10	1	-1E+10	1
4902624	2	C	07/11/2024	21:26	-128.893	46.368	0	584.80	0	4.4390	0	34.1480	0	27.067	0	579.162	0	-1e10	1	-1e10	1	-1E+10	1	-1e10	1	-1e10	1	-1E+10	1	-1E+10	1	-1E+10	1
4902624	2	C	07/11/2024	21:26	-128.893	46.368	0	590.10	0	4.4276	0	34.1522	0	27.072	0	584.403	0	17.1	4	5.4	4	-1E+10	1	0.0581	4	0.000171	0	-1E+10	1	-1E+10	1	-1E+10	1
4902624	2	C	07/11/2024	21:26	-128.893	46.368	0	595.00	0	4.4170	0	34.1560	0	27.076	0	589.249	0	-1e10	1	-1e10	1	-1E+10	1	-1e10	1	-1e10	1	-1E+10	1	-1E+10	1	-1E+10	1
4902624	2	C	07/11/2024	21:26	-128.893	46.368	0	601.50	0	4.3968	0	34.1610	0	27.082	0	595.677	0	16.1	4	5.1	4	-1E+10	1	0.0517	4	0.000148	0	-1E+10	1	-1E+10	1	-1E+10	1
4902624	2	C	07/11/2024	21:26	-128.893	46.368	0	605.30	0	4.3850	0	34.1640	0	27.086	0	599.435	0	-1e10	1	-1e10	1	-1E+10	1	-1e10	1	-1e10	1	-1E+10	1	-1E+10	1	-1E+10	1
4902624	2	C	07/11/2024	21:26	-128.893	46.368	0	612.00	0	4.3723	0	34.1711	0	27.093	0	606.060	0	15.2	4	4.8	4	-1E+10	1	0.0654	4	0.000150	0	-1E+10	1	-1E+10	1	-1E+10	1
4902624	2	C	07/11/2024	21:26	-128.893	46.368	0	614.80	0	4.3670	0	34.1740	0	27.096	0	608.829	0	-1e10	1	-1e10	1	-1E+10	1	-1e10	1	-1e10	1	-1E+10	1	-1E+10	1	-1E+10	1
4902624	2	C	07/11/2024	21:26	-128.893	46.368	0	619.20	0	4.3518	0	34.1775	0	27.100	0	613.179	0	14.4	4	4.6	4	-1E+10	1	0.0582	4	0.000182	0	-1E+10	1	-1E+10	1	-1E+10	1
4902624	2	C	07/11/2024	21:26	-128.893	46.368	0	624.90	0	4.3320	0	34.1820	0	27.106	0	618.816	0	-1e10	1	-1e10	1	-1E+10	1	-1e10	1	-1e10	1	-1E+10	1	-1E+10	1	-1E+10	1
4902624	2	C	07/11/2024	21:26	-128.893	46.368	0	627.20	0	4.3217	0	34.1839	0	27.108	0	621.090	0	13.9	4	4.4	4	-1E+10	1	0.0511	4	0.000137	0	-1E+10	1	-1E+10	1	-1E+10	1
4902624	2	C	07/11/2024	21:26	-128.893	46.368	0	634.70	0	4.2880	0	34.1900	0	27.117	0	628.505	0	-1e10	1	-1e10	1	-1E+10	1	-1e10	1	-1e10	1	-1E+10	1	-1E+10	1	-1E+10	1
4902624	2	C	07/11/2024	21:26	-128.893	46.368	0	635.70	0	4.2850	0	34.1908	0	27.118	0	629.494	0	13.3	4	4.2	4	-1E+10	1	0.0514	4	0.000159	0	-1E+10	1	-1E+10	1	-1E+10	1
4902624	2	C	07/11/2024	21:26	-128.893	46.368	0	644.60	0	4.2582	0	34.1977	0	27.126	0	638.293	0	12.9	4	4.1	4	-1E+10	1	0.0584	4	0.000149	0	-1E+10	1	-1E+10	1	-1E+10	1
4902624	2	C	07/11/2024	21:26	-128.893	46.368	0	645.00	0	4.2570	0	34.1980	0	27.127	0	638.689	0	-1e10	1	-1e10	1	-1E+10	1	-1e10	1	-1e10	1	-1E+10	1	-1E+10	1	-1E+10	1
4902624	2	C	07/11/2024	21:26	-128.893	46.368	0	654.00	0	4.2426	0	34.2034	0	27.132	0	647.587	0	12.4	4	4.0	4	-1E+10	1	0.0581	4	0.000182	0	-1E+10	1	-1E+10	1	-1E+10	1
4902624	2	C	07/11/2024	21:26	-128.893	46.368	0	655.00	0	4.2410	0	34.2040	0	27.133	0	648.576	0	-1e10	1	-1e10	1	-1E+10	1	-1e10	1	-1e10	1	-1E+10	1	-1E+10	1	-1E+10	1
4902624	2	C	07/11/2024	21:26	-128.893	46.368	0	663.80	0	4.2210	0	34.2084	0	27.139	0	657.275	0	12.1	4	3.8	4	-1E+10	1	0.0511	4	0.000170	0	-1E+10	1	-1E+10	1	-1E+10	1
4902624	2	C	07/11/2024	21:26	-128.893	46.368	0	665.10	0	4.2180	0	34.2090	0	27.140	0	658.561	0	-1e10	1	-1e10	1	-1E+10	1	-1e10	1	-1e10	1	-1E+10	1	-1E+10	1	-1E+10	1
4902624	2	C	07/11/2024	21:26	-128.893	46.368	0	674.10	0	4.2029	0	34.2143	0	27.145	0	667.458	0	11.6	4	3.7	4	-1E+10	1	0.0511	4	0.000147	0	-1E+10	1	-1E+10	1	-1E+10	1
4902624	2	C	07/11/2024	21:26	-128.893	46.368	0	675.20	0	4.2010	0	34.2150	0	27.146	0	668.545	0	-1e10	1	-1e10	1	-1E+10	1	-1e10	1	-1e10	1	-1E+10	1	-1E+10	1	-1E+10	1
4902624	2	C	07/11/2024	21:26	-128.893	46.368	0	684.50	0	4.1841	0	34.2216	0	27.153	0	677.738	0	11.2	4	3.6	4	-1E+10	1	0.0514	4	0.000148	0	-1E+10	1	-1E+10	1	-1E+10	1
4902624	2	C	07/11/2024	21:26	-128.893	46.368	0	685.10	0	4.1830	0	34.2220	0	27.154	0	678.331	0	-1e10	1	-1e10	1	-1E+10	1	-1e10	1	-1e10	1	-1E+10	1	-1E+10	1	-1E+10	1
4902624	2	C	07/11/2024	21:26	-128.893	46.368	0	695.00	0	4.1680	0	34.2280	0	27.160	0	688.117	0	-1e10	1	-1e10	1	-1E+10	1	-1e10	1	-1e10	1	-1E+10	1	-1E+10	1	-1E+10	1
4902624	2	C	07/11/2024	21:26	-128.893	46.368	0	695.10	0	4.1678	0	34.2281	0	27.160	0	688.216	0	10.9	4	3.5	4	-1E+10	1	0.0581	4	0.000170	0	-1E+10	1	-1E+10	1	-1E+10	1
4902624	2	C	07/11/2024	21:26	-128.893	46.368	0	705.00	0	4.1450	0	34.2330	0	27.167	0	698.001	0	-1e10	1	-1e10	1	-1E+10	1	-1e10	1	-1e10	1	-1E+10	1	-1E+10	1	-1E+10	1
4902624	2	C	07/11/2024	21:26	-128.893	46.368	0	705.60	0	4.1438	0	34.2332	0	27.167	0	698.594	0	10.6	4	3.4	4	-1E+10	1	0.0517	4	0.000159	0	-1E+10	1	-1E+10	1	-1E+10	1
4902624	2	C	07/11/2024	21:26	-128.893	46.368	0	715.10	0	4.1240	0	34.2360	0	27.171	0	707.984	0	-1e10	1	-1e10	1	-1E+10	1	-1e10	1	-1e10	1	-1E+10	1	-1E+10	1	-1E+10	1
4902624	2	C	07/11/2024	21:26	-128.893	46.368	0	716.10	0	4.1217	0	34.2366	0	27.172	0	708.972	0	10.4	4	3.3	4	-1E+10	1	0.0654	4	0.000169	0	-1E+10	1	-1E+10	1	-1E+10	1
4902624	2	C	07/11/2024	21:26	-128.893	46.368	0	725.10	0	4.1010	0	34.2420	0	27.178	0	717.867	0	-1e10	1	-1e10	1	-1E+10	1	-1e10	1	-1e10	1	-1E+10	1	-1E+10	1	-1E+10	1
4902624	2	C	07/11/2024	21:26	-128.893	46.368	0	726.40	0	4.0992	0	34.2425	0	27.179	0	719.152	0	10.1	4	3.2	4	-1E+10	1	0.0587	4	0.000147	0	-1E+10	1	-1E+10	1	-1E+10	1
4902624	2	C	07/11/2024	21:26	-128.893	46.368	0	735.20	0	4.0870	0	34.2460	0	27.183	0	727.849	0	-1e10	1	-1e10	1	-1E+10	1	-1e10	1	-1e10	1	-1E+10	1	-1E+10	1	-1E+10	1
4902624	2	C	07/11/2024	21:26	-128.893	46.368	0	736.70	0	4.0849	0	34.2466	0	27.184	0	729.331	0	10.1	4	3.2	4	-1E+10	1	0.0648	4	0.000147	0	-1E+10	1	-1E+10	1	-1E+10	1
4902624	2	C	07/11/2024	21:26	-128.893	46.368	0	745.10	0	4.0730	0	34.2500	0	27.188	0	737.633	0	-1e10	1	-1e10	1	-1E+10	1	-1e10	1	-1e10	1	-1E+10	1	-1E+10	1	-1E+10	1
4902624	2	C	07/11/2024	21:26	-128.893	46.368	0	746.80	0	4.0700	0	34.2509	0	27.189	0	739.312	0	49.0	4	15.5	4	-1E+10	1	0.0444	4	0.000147	0	-1E+10	1	-1E+10	1	-1E+10	1
4902624	2	C	07/11/2024	21:26	-128.893	46.368	0	754.80	0	4.0560	0	34.2550	0	27.194	0	747.218	0	-1e10	1	-1e10	1	-1E+10	1	-1e10	1	-1e10	1	-1E+10	1	-1E+10	1	-1E+10	1
4902624	2	C	07/11/2024	21:26	-128.893	46.368	0	756.80	0	4.0502	0	34.2567	0	27.196	0	749.194	0	48.3	4	15.3	4	-1E+10	1	0.0581	4	0.000162	0	-1E+10	1	-1E+10	1	-1E+10	1
4902624	2	C	07/11/2024	21:26	-128.893	46.368	0	765.10	0	4.0260	0	34.2640	0	27.204	0	757.396	0	-1e10	1	-1e10	1	-1E+10	1	-1e10	1	-1e10	1	-1E+10	1	-1E+10	1	-1E+10	1
4902624	2	C	07/11/2024	21:26	-128.893	46.368	0	766.80	0	4.0204	0	34.2652	0	27.205	0	759.076	0	68.0	4	21.5	4	-1E+10	1	0.0511	4	0.000261	0	-1E+10	1	-1E+10	1	-1E+10	1
4902624	2	C	07/11/2024	21:26	-128.893	46.368	0	775.10	0	3.9930	0	34.2710	0	27.213	0	767.277	0	-1e10	1	-1e10	1	-1E+10	1	-1e10	1	-1e10	1	-1E+10	1	-1E+10	1	-1E+10	1
4902624	2	C	07/11/2024	21:26	-128.893	46.368	0	776.90	0	3.9869	0	34.2724	0	27.215	0	769.055	0	61.2	4	19.3	4	-1E+10	1	0.0511	4	0.000170	0	-1E+10	1	-1E+10	1	-1E+10	1
4902624	2	C	07/11/2024	21:26	-128.893	46.368	0	785.20	0	3.9590	0	34.2790	0	27.223	0	777.256	0	-1e10	1	-1e10	1	-1E+10	1	-1e10	1	-1e10	1	-1E+10	1	-1E+10	1	-1E+10	1
4902624	2	C	07/11/2024	21:26	-128.893	46.368	0	787.10	0	3.9536	0	34.2807	0	27.225	0	779.133	0	57.3	4	18.1	4	-1E+10	1	0.0511	4	0.000169	0	-1E+10	1	-1E+10	1	-1E+10	1
4902624	2	C	07/11/2024	21:26	-128.893	46.368	0	795.00	0	3.9310	0	34.2880	0	27.233	0	786.938	0	-1e10	1	-1e10	1	-1E+10	1	-1e10	1	-1e10	1	-1E+10	1	-1E+10	1	-1E+10	1
4902624	2	C	07/11/2024	21:26	-128.893	46.368	0	797.50	0	3.9269	0	34.2890	0	27.234	0	789.408	0	70.8	4	22.3	4	-1E+10	1	0.0511	4	0.000159	0	-1E+10	1	-1E+10	1	-1E+10	1
4902624	2	C	07/11/2024	21:26	-128.893	46.368	0	804.80	0	3.9150	0	34.2920	0	27.238	0	796.620	0	-1e10	1	-1e10	1	-1E+10	1	-1e10	1	-1e10	1	-1E+10	1	-1E+10	1	-1E+10	1
4902624	2	C	07/11/2024	21:26	-128.893	46.368	0	808.30	0	3.9042	0	34.2941	0	27.241	0	800.078	0	58.1	4	18.3	4	-1E+10	1	0.0518	4	0.000179	0	-1E+10	1	-1E+10	1	-1E+10	1
4902624	2	C	07/11/2024	21:26	-128.893	46.368	0	814.80	0	3.8840	0	34.2980	0	27.246	0	806.499	0	-1e10	1	-1e10	1	-1E+10	1	-1e10	1	-1e10	1	-1E+10	1	-1E+10	1	-1E+10	1
4902624	2	C	07/11/2024	21:26	-128.893	46.368	0	819.20	0	3.8722	0	34.3002	0	27.249	0	810.846	0	60.4	4	19.0	4	-1E+10	1	0.0657	4	0.000146	0	-1E+10	1	-1E+10	1	-1E+10	1
4902624	2	C	07/11/2024	21:26	-128.893	46.368	0	824.90	0	3.8570	0	34.3030	0	27.252	0	816.477	0	-1e10	1	-1e10	1	-1E+10	1	-1e10	1	-1e10	1	-1E+10	1	-1E+10	1	-1E+10	1
4902624	2	C	07/11/2024	21:26	-128.893	46.368	0	830.40	0	3.8412	0	34.3063	0	27.257	0	821.910	0	59.9	4	18.9	4	-1E+10	1	0.0651	4	0.000157	0	-1E+10	1	-1E+10	1	-1E+10	1
4902624	2	C	07/11/2024	21:26	-128.893	46.368	0	835.00	0	3.8280	0	34.3090	0	27.260	0	826.454	0	-1e10	1	-1e10	1	-1E+10	1	-1e10	1	-1e10	1	-1E+10	1	-1E+10	1	-1E+10	1
4902624	2	C	07/11/2024	21:26	-128.893	46.368	0	842.10	0	3.8128	0	34.3131	0	27.265	0	833.467	0	62.0	4	19.5	4	-1E+10	1	0.0514	4	0.000157	0	-1E+10	1	-1E+10	1	-1E+10	1
4902624	2	C	07/11/2024	21:26	-128.893	46.368	0	845.30	0	3.8060	0	34.3150	0	27.267	0	836.628	0	-1e10	1	-1e10	1	-1E+10	1	-1e10	1	-1e10	1	-1E+10	1	-1E+10	1	-1E+10	1
4902624	2	C	07/11/2024	21:26	-128.893	46.368	0	853.00	0	3.7873	0	34.3197	0	27.273	0	844.233	0	60.3	4	19.0	4	-1E+10	1	0.0581	4	0.000145	0	-1E+10	1	-1E+10	1	-1E+10	1
4902624	2	C	07/11/2024	21:26	-128.893	46.368	0	855.20	0	3.7820	0	34.3210	0	27.275	0	846.406	0	-1e10	1	-1e10	1	-1E+10	1	-1e10	1	-1e10	1	-1E+10	1	-1E+10	1	-1E+10	1
4902624	2	C	07/11/2024	21:26	-128.893	46.368	0	860.70	0	3.7738	0	34.3237	0	27.278	0	851.838	0	59.2	4	18.6	4	-1E+10	1	0.0519	4	0.000146	0	-1E+10	1	-1E+10	1	-1E+10	1
4902624	2	C	07/11/2024	21:26	-128.893	46.368	0	865.20	0	3.7670	0	34.3260	0	27.280	0	856.283	0	-1e10	1	-1e10	1	-1E+10	1	-1e10	1	-1e10	1	-1E+10	1	-1E+10	1	-1E+10	1
4902624	2	C	07/11/2024	21:26	-128.893	46.368	0	868.70	0	3.7601	0	34.3271	0	27.282	0	859.740	0	54.6	4	17.2	4	-1E+10	1	0.0722	4	0.000156	0	-1E+10	1	-1E+10	1	-1E+10	1
4902624	2	C	07/11/2024	21:26	-128.893	46.368	0	874.80	0	3.7480	0	34.3290	0	27.284	0	865.764	0	-1e10	1	-1e10	1	-1E+10	1	-1e10	1	-1e10	1	-1E+10	1	-1E+10	1	-1E+10	1
4902624	2	C	07/11/2024	21:26	-128.893	46.368	0	877.10	0	3.7447	0	34.3304	0	27.286	0	868.035	0	58.2	4	18.3	4	-1E+10	1	0.0514	4	0.000146	0	-1E+10	1	-1E+10	1	-1E+10	1
4902624	2	C	07/11/2024	21:26	-128.893	46.368	0	884.70	0	3.7340	0	34.3350	0	27.291	0	875.541	0	-1e10	1	-1e10	1	-1E+10	1	-1e10	1	-1e10	1	-1E+10	1	-1E+10	1	-1E+10	1
4902624	2	C	07/11/2024	21:26	-128.893	46.368	0	885.70	0	3.7315	0	34.3357	0	27.291	0	876.529	0	59.3	4	18.6	4	-1E+10	1	0.0589	4	0.000168	0	-1E+10	1	-1E+10	1	-1E+10	1
4902624	2	C	07/11/2024	21:26	-128.893	46.368	0	894.80	0	3.7083	0	34.3419	0	27.299	0	885.515	0	64.2	4	20.2	4	-1E+10	1	0.0724	4	0.000157	0	-1E+10	1	-1E+10	1	-1E+10	1
4902624	2	C	07/11/2024	21:26	-128.893	46.368	0	894.90	0	3.7080	0	34.3420	0	27.299	0	885.614	0	-1e10	1	-1e10	1	-1E+10	1	-1e10	1	-1e10	1	-1E+10	1	-1E+10	1	-1E+10	1
4902624	2	C	07/11/2024	21:26	-128.893	46.368	0	904.10	0	3.6882	0	34.3474	0	27.305	0	894.699	0	63.2	4	19.8	4	-1E+10	1	0.0586	4	0.000156	0	-1E+10	1	-1E+10	1	-1E+10	1
4902624	2	C	07/11/2024	21:26	-128.893	46.368	0	905.10	0	3.6860	0	34.3480	0	27.306	0	895.686	0	-1e10	1	-1e10	1	-1E+10	1	-1e10	1	-1e10	1	-1E+10	1	-1E+10	1	-1E+10	1
4902624	2	C	07/11/2024	21:26	-128.893	46.368	0	913.80	0	3.6747	0	34.3524	0	27.311	0	904.277	0	64.1	4	20.1	4	-1E+10	1	0.0648	4	0.000156	0	-1E+10	1	-1E+10	1	-1E+10	1
4902624	2	C	07/11/2024	21:26	-128.893	46.368	0	915.10	0	3.6730	0	34.3530	0	27.311	0	905.560	0	-1e10	1	-1e10	1	-1E+10	1	-1e10	1	-1e10	1	-1E+10	1	-1E+10	1	-1E+10	1
4902624	2	C	07/11/2024	21:26	-128.893	46.368	0	923.70	0	3.6517	0	34.3573	0	27.317	0	914.052	0	65.4	4	20.5	4	-1E+10	1	0.0441	4	0.000157	0	-1E+10	1	-1E+10	1	-1E+10	1
4902624	2	C	07/11/2024	21:26	-128.893	46.368	0	925.20	0	3.6480	0	34.3580	0	27.318	0	915.533	0	-1e10	1	-1e10	1	-1E+10	1	-1e10	1	-1e10	1	-1E+10	1	-1E+10	1	-1E+10	1
4902624	2	C	07/11/2024	21:26	-128.893	46.368	0	934.00	0	3.6276	0	34.3607	0	27.322	0	924.222	0	65.3	4	20.5	4	-1E+10	1	0.0518	4	0.000166	0	-1E+10	1	-1E+10	1	-1E+10	1
4902624	2	C	07/11/2024	21:26	-128.893	46.368	0	935.10	0	3.6250	0	34.3610	0	27.322	0	925.308	0	-1e10	1	-1e10	1	-1E+10	1	-1e10	1	-1e10	1	-1E+10	1	-1E+10	1	-1E+10	1
4902624	2	C	07/11/2024	21:26	-128.893	46.368	0	944.50	0	3.6041	0	34.3648	0	27.328	0	934.588	0	68.0	4	21.3	4	-1E+10	1	0.0652	4	0.000135	0	-1E+10	1	-1E+10	1	-1E+10	1
4902624	2	C	07/11/2024	21:26	-128.893	46.368	0	945.00	0	3.6030	0	34.3650	0	27.328	0	935.082	0	-1e10	1	-1e10	1	-1E+10	1	-1e10	1	-1e10	1	-1E+10	1	-1E+10	1	-1E+10	1
4902624	2	C	07/11/2024	21:26	-128.893	46.368	0	955.00	0	3.5540	0	34.3660	0	27.333	0	944.955	0	-1e10	1	-1e10	1	-1E+10	1	-1e10	1	-1e10	1	-1E+10	1	-1E+10	1	-1E+10	1
4902624	2	C	07/11/2024	21:26	-128.893	46.368	0	955.30	0	3.5535	0	34.3661	0	27.334	0	945.251	0	66.7	4	20.9	4	-1E+10	1	0.0514	4	0.000200	0	-1E+10	1	-1E+10	1	-1E+10	1
4902624	2	C	07/11/2024	21:26	-128.893	46.368	0	965.00	0	3.5370	0	34.3690	0	27.338	0	954.827	0	-1e10	1	-1e10	1	-1E+10	1	-1e10	1	-1e10	1	-1E+10	1	-1E+10	1	-1E+10	1
4902624	2	C	07/11/2024	21:26	-128.893	46.368	0	966.20	0	3.5349	0	34.3695	0	27.338	0	956.011	0	65.9	4	20.6	4	-1E+10	1	0.0584	4	0.000132	0	-1E+10	1	-1E+10	1	-1E+10	1
4902624	2	C	07/11/2024	21:26	-128.893	46.368	0	975.10	0	3.5190	0	34.3730	0	27.342	0	964.797	0	-1e10	1	-1e10	1	-1E+10	1	-1e10	1	-1e10	1	-1E+10	1	-1E+10	1	-1E+10	1
4902624	2	C	07/11/2024	21:26	-128.893	46.368	0	977.20	0	3.5149	0	34.3744	0	27.344	0	966.870	0	66.0	4	20.6	4	-1E+10	1	0.0587	4	0.000133	0	-1E+10	1	-1E+10	1	-1E+10	1
4902624	2	C	07/11/2024	21:26	-128.893	46.368	0	985.30	0	3.4990	0	34.3800	0	27.350	0	974.865	0	-1e10	1	-1e10	1	-1E+10	1	-1e10	1	-1e10	1	-1E+10	1	-1E+10	1	-1E+10	1
4902624	2	C	07/11/2024	21:26	-128.893	46.368	0	988.50	0	3.4990	0	34.3820	0	27.352	0	978.024	0	70.1	4	21.9	4	-1E+10	1	0.0655	4	0.000144	0	-1E+10	1	-1E+10	1	-1E+10	1
4902624	2	C	07/11/2024	21:26	-128.893	46.368	0	995.00	0	3.4990	0	34.3860	0	27.355	0	984.440	0	-1e10	1	-1e10	1	-1E+10	1	-1e10	1	-1e10	1	-1E+10	1	-1E+10	1	-1E+10	1
4902624	2	C	07/11/2024	21:26	-128.893	46.368	0	1005.50	0	3.4818	0	34.3896	0	27.360	0	994.804	0	67.2	4	21.0	4	-1E+10	1	0.0586	4	0.000168	0	-1E+10	1	-1E+10	1	-1E+10	1
4902624	2	C	07/11/2024	21:26	-128.893	46.368	0	1024.30	0	3.4510	0	34.3960	0	27.368	0	1013.358	0	-1e10	1	-1e10	1	-1E+10	1	-1e10	1	-1e10	1	-1E+10	1	-1E+10	1	-1E+10	1
4902624	2	C	07/11/2024	21:26	-128.893	46.368	0	1028.30	0	3.4413	0	34.3973	0	27.370	0	1017.306	0	59.7	4	18.6	4	-1E+10	1	0.0655	4	0.000201	0	-1E+10	1	-1E+10	1	-1E+10	1
4902624	2	C	07/11/2024	21:26	-128.893	46.368	0	1051.00	0	3.3865	0	34.4050	0	27.381	0	1039.707	0	61.1	4	19.0	4	-1E+10	1	0.0584	4	0.000144	0	-1E+10	1	-1E+10	1	-1E+10	1
4902624	2	C	07/11/2024	21:26	-128.893	46.368	0	1073.90	0	3.3312	0	34.4127	0	27.393	0	1062.303	0	56.6	4	17.6	4	-1E+10	1	0.0584	4	0.000177	0	-1E+10	1	-1E+10	1	-1E+10	1
4902624	2	C	07/11/2024	21:26	-128.893	46.368	0	1074.80	0	3.3290	0	34.4130	0	27.393	0	1063.191	0	-1e10	1	-1e10	1	-1E+10	1	-1e10	1	-1e10	1	-1E+10	1	-1E+10	1	-1E+10	1
4902624	2	C	07/11/2024	21:26	-128.893	46.368	0	1097.30	0	3.2763	0	34.4205	0	27.404	0	1085.390	0	58.2	4	18.1	4	-1E+10	1	0.0582	4	0.000154	0	-1E+10	1	-1E+10	1	-1E+10	1
4902624	2	C	07/11/2024	21:26	-128.893	46.368	0	1121.20	0	3.2203	0	34.4284	0	27.416	0	1108.967	0	71.0	4	22.0	4	-1E+10	1	0.0516	4	0.000165	0	-1E+10	1	-1E+10	1	-1E+10	1
4902624	2	C	07/11/2024	21:26	-128.893	46.368	0	1126.00	0	3.2090	0	34.4300	0	27.418	0	1113.702	0	-1e10	1	-1e10	1	-1E+10	1	-1e10	1	-1e10	1	-1E+10	1	-1E+10	1	-1E+10	1
4902624	2	C	07/11/2024	21:26	-128.893	46.368	0	1139.70	0	3.1740	0	34.4340	0	27.425	0	1127.216	0	63.5	4	19.7	4	-1E+10	1	0.0726	4	0.000153	0	-1E+10	1	-1E+10	1	-1E+10	1
4902624	2	C	07/11/2024	21:26	-128.893	46.368	0	1155.90	0	3.1326	0	34.4386	0	27.432	0	1143.194	0	61.8	4	19.1	4	-1E+10	1	0.0512	4	0.000153	0	-1E+10	1	-1E+10	1	-1E+10	1
4902624	2	C	07/11/2024	21:26	-128.893	46.368	0	1173.00	0	3.0888	0	34.4436	0	27.440	0	1160.059	0	70.9	4	21.9	4	-1E+10	1	0.0582	4	0.000154	0	-1E+10	1	-1E+10	1	-1E+10	1
4902624	2	C	07/11/2024	21:26	-128.893	46.368	0	1174.50	0	3.0850	0	34.4440	0	27.441	0	1161.538	0	-1e10	1	-1e10	1	-1E+10	1	-1e10	1	-1e10	1	-1E+10	1	-1E+10	1	-1E+10	1
4902624	2	C	07/11/2024	21:26	-128.893	46.368	0	1191.30	0	3.0456	0	34.4483	0	27.448	0	1178.106	0	73.1	4	22.6	4	-1E+10	1	0.0512	4	0.000187	0	-1E+10	1	-1E+10	1	-1E+10	1
4902624	2	C	07/11/2024	21:26	-128.893	46.368	0	1210.90	0	2.9996	0	34.4533	0	27.456	0	1197.433	0	71.3	4	22.0	4	-1E+10	1	0.0583	4	0.000130	0	-1E+10	1	-1E+10	1	-1E+10	1
4902624	2	C	07/11/2024	21:26	-128.893	46.368	0	1225.20	0	2.9660	0	34.4570	0	27.462	0	1211.533	0	-1e10	1	-1e10	1	-1E+10	1	-1e10	1	-1e10	1	-1E+10	1	-1E+10	1	-1E+10	1
4902624	2	C	07/11/2024	21:26	-128.893	46.368	0	1231.60	0	2.9535	0	34.4585	0	27.465	0	1217.843	0	65.1	4	20.1	4	-1E+10	1	0.0513	4	0.000164	0	-1E+10	1	-1E+10	1	-1E+10	1
4902624	2	C	07/11/2024	21:26	-128.893	46.368	0	1252.80	0	2.9121	0	34.4637	0	27.473	0	1238.744	0	71.5	4	22.0	4	-1E+10	1	0.0584	4	0.000152	0	-1E+10	1	-1E+10	1	-1E+10	1
4902624	2	C	07/11/2024	21:26	-128.893	46.368	0	1274.80	0	2.8692	0	34.4690	0	27.481	0	1260.431	0	74.1	4	22.8	4	-1E+10	1	0.0582	4	0.000152	0	-1E+10	1	-1E+10	1	-1E+10	1
4902624	2	C	07/11/2024	21:26	-128.893	46.368	0	1274.90	0	2.8690	0	34.4690	0	27.481	0	1260.530	0	-1e10	1	-1e10	1	-1E+10	1	-1e10	1	-1e10	1	-1E+10	1	-1E+10	1	-1E+10	1
4902624	2	C	07/11/2024	21:26	-128.893	46.368	0	1297.40	0	2.8177	0	34.4748	0	27.490	0	1282.707	0	70.8	4	21.8	4	-1E+10	1	0.0511	4	0.000151	0	-1E+10	1	-1E+10	1	-1E+10	1
4902624	2	C	07/11/2024	21:26	-128.893	46.368	0	1320.60	0	2.7647	0	34.4808	0	27.500	0	1305.573	0	68.8	4	21.1	4	-1E+10	1	0.0514	4	0.000151	0	-1E+10	1	-1E+10	1	-1E+10	1
4902624	2	C	07/11/2024	21:26	-128.893	46.368	0	1325.30	0	2.7540	0	34.4820	0	27.502	0	1310.205	0	-1e10	1	-1e10	1	-1E+10	1	-1e10	1	-1e10	1	-1E+10	1	-1E+10	1	-1E+10	1
4902624	2	C	07/11/2024	21:26	-128.893	46.368	0	1343.80	0	2.7207	0	34.4861	0	27.508	0	1328.436	0	77.1	4	23.6	4	-1E+10	1	0.0653	4	0.000162	0	-1E+10	1	-1E+10	1	-1E+10	1
4902624	2	C	07/11/2024	21:26	-128.893	46.368	0	1367.40	0	2.6783	0	34.4914	0	27.516	0	1351.690	0	76.5	4	23.4	4	-1E+10	1	0.0440	4	0.000138	0	-1E+10	1	-1E+10	1	-1E+10	1
4902624	2	C	07/11/2024	21:26	-128.893	46.368	0	1374.80	0	2.6650	0	34.4930	0	27.518	0	1358.981	0	-1e10	1	-1e10	1	-1E+10	1	-1e10	1	-1e10	1	-1E+10	1	-1E+10	1	-1E+10	1
4902624	2	C	07/11/2024	21:26	-128.893	46.368	0	1391.40	0	2.6384	0	34.4966	0	27.524	0	1375.336	0	82.5	4	25.3	4	-1E+10	1	0.0513	4	0.000115	0	-1E+10	1	-1E+10	1	-1E+10	1
4902624	2	C	07/11/2024	21:26	-128.893	46.368	0	1411.60	0	2.6061	0	34.5010	0	27.530	0	1395.236	0	86.8	4	26.6	4	-1E+10	1	0.0584	4	0.000127	0	-1E+10	1	-1E+10	1	-1E+10	1
4902624	2	C	07/11/2024	21:26	-128.893	46.368	0	1425.40	0	2.5840	0	34.5040	0	27.534	0	1408.830	0	-1e10	1	-1e10	1	-1E+10	1	-1e10	1	-1e10	1	-1E+10	1	-1E+10	1	-1E+10	1
4902624	2	C	07/11/2024	21:26	-128.893	46.368	0	1428.40	0	2.5791	0	34.5046	0	27.535	0	1411.786	0	87.1	4	26.6	4	-1E+10	1	0.0582	4	0.000172	0	-1E+10	1	-1E+10	1	-1E+10	1
4902624	2	C	07/11/2024	21:26	-128.893	46.368	0	1445.60	0	2.5508	0	34.5081	0	27.541	0	1428.727	0	85.1	4	26.0	4	-1E+10	1	0.0511	4	0.000138	0	-1E+10	1	-1E+10	1	-1E+10	1
4902624	2	C	07/11/2024	21:26	-128.893	46.368	0	1463.50	0	2.5214	0	34.5117	0	27.546	0	1446.357	0	83.2	4	25.4	4	-1E+10	1	0.0513	4	0.000173	0	-1E+10	1	-1E+10	1	-1E+10	1
4902624	2	C	07/11/2024	21:26	-128.893	46.368	0	1474.70	0	2.5030	0	34.5140	0	27.550	0	1457.387	0	-1e10	1	-1e10	1	-1E+10	1	-1e10	1	-1e10	1	-1E+10	1	-1E+10	1	-1E+10	1
4902624	2	C	07/11/2024	21:26	-128.893	46.368	0	1482.30	0	2.4902	0	34.5157	0	27.552	0	1464.872	0	80.1	4	24.4	4	-1E+10	1	0.0581	4	0.000194	0	-1E+10	1	-1E+10	1	-1E+10	1
4902624	2	C	07/11/2024	21:26	-128.893	46.368	0	1502.20	0	2.4565	0	34.5200	0	27.558	0	1484.468	0	78.3	4	23.9	4	-1E+10	1	0.0439	4	0.000114	0	-1E+10	1	-1E+10	1	-1E+10	1
4902624	2	C	07/11/2024	21:26	-128.893	46.368	0	1523.20	0	2.4210	0	34.5246	0	27.565	0	1505.145	0	80.5	4	24.5	4	-1E+10	1	0.0514	4	0.000148	0	-1E+10	1	-1E+10	1	-1E+10	1
4902624	2	C	07/11/2024	21:26	-128.893	46.368	0	1525.00	0	2.4180	0	34.5250	0	27.566	0	1506.917	0	-1e10	1	-1e10	1	-1E+10	1	-1e10	1	-1e10	1	-1E+10	1	-1E+10	1	-1E+10	1
4902624	2	C	07/11/2024	21:26	-128.893	46.368	0	1545.30	0	2.3859	0	34.5290	0	27.572	0	1526.904	0	105.3	4	32.0	4	-1E+10	1	0.0657	4	0.000159	0	-1E+10	1	-1E+10	1	-1E+10	1
4902624	2	C	07/11/2024	21:26	-128.893	46.368	0	1568.50	0	2.3492	0	34.5336	0	27.578	0	1549.742	0	84.1	4	25.6	4	-1E+10	1	0.0657	4	0.000125	0	-1E+10	1	-1E+10	1	-1E+10	1
4902624	2	C	07/11/2024	21:26	-128.893	46.368	0	1575.60	0	2.3380	0	34.5350	0	27.581	0	1556.731	0	-1e10	1	-1e10	1	-1E+10	1	-1e10	1	-1e10	1	-1E+10	1	-1E+10	1	-1E+10	1
4902624	2	C	07/11/2024	21:26	-128.893	46.368	0	1588.50	0	2.3245	0	34.5371	0	27.583	0	1569.429	0	94.5	4	28.7	4	-1E+10	1	0.0654	4	0.000146	0	-1E+10	1	-1E+10	1	-1E+10	1
4902624	2	C	07/11/2024	21:26	-128.893	46.368	0	1604.80	0	2.3074	0	34.5398	0	27.587	0	1585.472	0	99.8	4	30.3	4	-1E+10	1	0.0510	4	0.000112	0	-1E+10	1	-1E+10	1	-1E+10	1
4902624	2	C	07/11/2024	21:26	-128.893	46.368	0	1622.50	0	2.2889	0	34.5427	0	27.591	0	1602.892	0	101.5	4	30.8	4	-1E+10	1	0.0440	4	0.000135	0	-1E+10	1	-1E+10	1	-1E+10	1
4902624	2	C	07/11/2024	21:26	-128.893	46.368	0	1624.30	0	2.2870	0	34.5430	0	27.591	0	1604.664	0	-1e10	1	-1e10	1	-1E+10	1	-1e10	1	-1e10	1	-1E+10	1	-1E+10	1	-1E+10	1
4902624	2	C	07/11/2024	21:26	-128.893	46.368	0	1641.60	0	2.2658	0	34.5457	0	27.595	0	1621.688	0	106.4	4	32.3	4	-1E+10	1	0.0512	4	0.000149	0	-1E+10	1	-1E+10	1	-1E+10	1
4902624	2	C	07/11/2024	21:26	-128.893	46.368	0	1661.70	0	2.2413	0	34.5489	0	27.600	0	1641.467	0	107.3	4	32.5	4	-1E+10	1	0.0580	4	0.000272	0	-1E+10	1	-1E+10	1	-1E+10	1
4902624	2	C	07/11/2024	21:26	-128.893	46.368	0	1675.00	0	2.2250	0	34.5510	0	27.603	0	1654.553	0	-1e10	1	-1e10	1	-1E+10	1	-1e10	1	-1e10	1	-1E+10	1	-1E+10	1	-1E+10	1
4902624	2	C	07/11/2024	21:26	-128.893	46.368	0	1682.60	0	2.2171	0	34.5521	0	27.605	0	1662.030	0	113.6	4	34.4	4	-1E+10	1	0.0368	4	0.000133	0	-1E+10	1	-1E+10	1	-1E+10	1
4902624	2	C	07/11/2024	21:26	-128.893	46.368	0	1703.80	0	2.1950	0	34.5550	0	27.609	0	1682.887	0	120.1	4	36.4	4	-1E+10	1	0.0512	4	0.000099	0	-1E+10	1	-1E+10	1	-1E+10	1
4902624	2	C	07/11/2024	21:26	-128.893	46.368	0	1724.90	0	2.1730	0	34.5580	0	27.613	0	1703.644	0	-1e10	1	-1e10	1	-1E+10	1	-1e10	1	-1e10	1	-1E+10	1	-1E+10	1	-1E+10	1
4902624	2	C	07/11/2024	21:26	-128.893	46.368	0	1725.40	0	2.1725	0	34.5581	0	27.613	0	1704.135	0	123.8	4	37.5	4	-1E+10	1	0.0585	4	0.000145	0	-1E+10	1	-1E+10	1	-1E+10	1
4902624	2	C	07/11/2024	21:26	-128.893	46.368	0	1747.30	0	2.1494	0	34.5616	0	27.618	0	1725.676	0	126.5	4	38.3	4	-1E+10	1	0.0655	4	0.000168	0	-1E+10	1	-1E+10	1	-1E+10	1
4902624	2	C	07/11/2024	21:26	-128.893	46.368	0	1769.50	0	2.1261	0	34.5651	0	27.623	0	1747.510	0	129.1	4	39.0	4	-1E+10	1	0.0584	4	0.000143	0	-1E+10	1	-1E+10	1	-1E+10	1
4902624	2	C	07/11/2024	21:26	-128.893	46.368	0	1775.30	0	2.1200	0	34.5660	0	27.624	0	1753.214	0	-1e10	1	-1e10	1	-1E+10	1	-1e10	1	-1e10	1	-1E+10	1	-1E+10	1	-1E+10	1
4902624	2	C	07/11/2024	21:26	-128.893	46.368	0	1791.70	0	2.1055	0	34.5680	0	27.627	0	1769.342	0	131.7	4	39.8	4	-1E+10	1	0.0583	4	0.000110	0	-1E+10	1	-1E+10	1	-1E+10	1
4902624	2	C	07/11/2024	21:26	-128.893	46.368	0	1814.00	0	2.0858	0	34.5707	0	27.631	0	1791.270	0	133.6	4	40.4	4	-1E+10	1	0.0514	4	0.000155	0	-1E+10	1	-1E+10	1	-1E+10	1
4902624	2	C	07/11/2024	21:26	-128.893	46.368	0	1825.10	0	2.0760	0	34.5720	0	27.632	0	1802.184	0	-1e10	1	-1e10	1	-1E+10	1	-1e10	1	-1e10	1	-1E+10	1	-1E+10	1	-1E+10	1
4902624	2	C	07/11/2024	21:26	-128.893	46.368	0	1836.30	0	2.0655	0	34.5738	0	27.635	0	1813.195	0	135.6	4	40.9	4	-1E+10	1	0.0657	4	0.000142	0	-1E+10	1	-1E+10	1	-1E+10	1
4902624	2	C	07/11/2024	21:26	-128.893	46.368	0	1859.00	0	2.0442	0	34.5774	0	27.640	0	1835.512	0	137.6	4	41.5	4	-1E+10	1	0.0656	4	0.000108	0	-1E+10	1	-1E+10	1	-1E+10	1
4902624	2	C	07/11/2024	21:26	-128.893	46.368	0	1875.20	0	2.0290	0	34.5800	0	27.643	0	1851.437	0	-1e10	1	-1e10	1	-1E+10	1	-1e10	1	-1e10	1	-1E+10	1	-1E+10	1	-1E+10	1
4902624	2	C	07/11/2024	21:26	-128.893	46.368	0	1881.80	0	2.0216	0	34.5812	0	27.644	0	1857.924	0	140.1	4	42.3	4	-1E+10	1	0.0584	4	0.000143	0	-1E+10	1	-1E+10	1	-1E+10	1
4902624	2	C	07/11/2024	21:26	-128.893	46.368	0	1904.80	0	1.9958	0	34.5853	0	27.650	0	1880.531	0	142.2	4	42.9	4	-1E+10	1	0.0582	4	0.000176	0	-1E+10	1	-1E+10	1	-1E+10	1
4902624	2	C	07/11/2024	21:26	-128.893	46.368	0	1925.20	0	1.9730	0	34.5890	0	27.655	0	1900.580	0	-1e10	1	-1e10	1	-1E+10	1	-1e10	1	-1e10	1	-1E+10	1	-1E+10	1	-1E+10	1
4902624	2	C	07/11/2024	21:26	-128.893	46.368	0	1928.10	0	1.9706	0	34.5895	0	27.655	0	1903.430	0	143.8	4	43.3	4	-1E+10	1	0.0509	4	0.000107	0	-1E+10	1	-1E+10	1	-1E+10	1
4902624	2	C	07/11/2024	21:26	-128.893	46.368	0	1952.00	0	1.9504	0	34.5936	0	27.660	0	1926.916	0	144.5	4	43.5	4	-1E+10	1	0.0437	4	0.000118	0	-1E+10	1	-1E+10	1	-1E+10	1
4902624	2	C	07/11/2024	21:26	-128.893	46.368	0	1971.50	0	1.9340	0	34.5970	0	27.664	0	1946.076	0	-1e10	1	-1e10	1	-1E+10	1	-1e10	1	-1e10	1	-1E+10	1	-1E+10	1	-1E+10	1
4902624	2	C	07/11/2024	21:26	-128.893	46.368	0	1976.80	0	-1e10	1	-1e10	1	-1e10	1	1951.284	0	149.7	4	-1e10	4	-1E+10	1	0.0372	4	0.000168	0	-1E+10	1	-1E+10	1	-1E+10	1
4902624	2	C	07/11/2024	21:26	-128.893	46.368	0	1992.70	0	-1e10	1	-1e10	1	-1e10	1	1966.905	0	142.0	4	-1e10	4	-1E+10	1	0.0584	4	0.000236	0	-1E+10	1	-1E+10	1	-1E+10	1
4902624	2	C	07/11/2024	21:26	-128.893	46.368	0																										
4902624	3	C	07/21/2024	16:31	-128.854	46.477	0	0.20	0	17.4080	0	32.2729	0	23.327	0	0.198	0	231.2	4	96.0	4	-1E+10	1	0.2664	4	-0.000373	8	-1E+10	1	-1E+10	1	-1E+10	1
4902624	3	C	07/21/2024	16:31	-128.854	46.477	0	0.50	0	17.3900	0	32.2810	0	23.338	0	0.496	0	-1e10	1	-1e10	1	-1E+10	1	-1e10	1	-1e10	1	-1E+10	1	-1E+10	1	-1E+10	1
4902624	3	C	07/21/2024	16:31	-128.854	46.477	0	0.60	0	17.3896	0	32.2818	0	23.339	0	0.595	0	231.5	4	96.0	4	-1E+10	1	0.3358	4	-0.000354	8	-1E+10	1	-1E+10	1	-1E+10	1
4902624	3	C	07/21/2024	16:31	-128.854	46.477	0	1.00	0	17.3878	0	32.2849	0	23.341	0	0.992	0	-1e10	1	-1e10	1	-1E+10	1	-0.0292	4	-0.000221	8	-1E+10	1	-1E+10	1	-1E+10	1
4902624	3	C	07/21/2024	16:31	-128.854	46.477	0	1.20	0	17.3869	0	32.2864	0	23.343	0	1.190	0	-1e10	1	-1e10	1	-1E+10	1	0.0073	4	-0.000314	8	-1E+10	1	-1E+10	1	-1E+10	1
4902624	3	C	07/21/2024	16:31	-128.854	46.477	0	1.30	0	17.3864	0	32.2872	0	23.343	0	1.289	0	-1e10	1	-1e10	1	-1E+10	1	0.0146	4	-0.000350	8	-1E+10	1	-1E+10	1	-1E+10	1
4902624	3	C	07/21/2024	16:31	-128.854	46.477	0	1.40	0	17.3860	0	32.2880	0	23.344	0	1.388	0	-1e10	1	-1e10	1	-1E+10	1	-1e10	1	-1e10	1	-1E+10	1	-1E+10	1	-1E+10	1
4902624	3	C	07/21/2024	16:31	-128.854	46.477	0	1.50	0	17.3855	0	32.2881	0	23.344	0	1.488	0	-1e10	1	-1e10	1	-1E+10	1	0.2993	4	0.000331	0	-1E+10	1	-1E+10	1	-1E+10	1
4902624	3	C	07/21/2024	16:31	-128.854	46.477	0	1.60	0	17.3849	0	32.2882	0	23.345	0	1.587	0	-1e10	1	-1e10	1	-1E+10	1	0.0730	4	0.000342	0	-1E+10	1	-1E+10	1	-1E+10	1
4902624	3	C	07/21/2024	16:31	-128.854	46.477	0	1.70	0	17.3844	0	32.2883	0	23.345	0	1.686	0	-1e10	1	-1e10	1	-1E+10	1	0.2190	4	0.001035	0	-1E+10	1	-1E+10	1	-1E+10	1
4902624	3	C	07/21/2024	16:31	-128.854	46.477	0	1.90	0	17.3833	0	32.2885	0	23.345	0	1.884	0	231.7	4	96.1	4	-1E+10	1	0.2044	4	0.000906	0	-1E+10	1	-1E+10	1	-1E+10	1
4902624	3	C	07/21/2024	16:31	-128.854	46.477	0	2.10	0	17.3822	0	32.2886	0	23.346	0	2.083	0	-1e10	1	-1e10	1	-1E+10	1	0.2336	4	0.001023	0	-1E+10	1	-1E+10	1	-1E+10	1
4902624	3	C	07/21/2024	16:31	-128.854	46.477	0	2.30	0	17.3811	0	32.2888	0	23.346	0	2.281	0	-1e10	1	-1e10	1	-1E+10	1	0.2044	4	0.000847	0	-1E+10	1	-1E+10	1	-1E+10	1
4902624	3	C	07/21/2024	16:31	-128.854	46.477	0	2.50	0	17.3800	0	32.2890	0	23.346	0	2.479	0	231.9	4	96.2	4	-1E+10	1	0.2044	4	0.000952	0	-1E+10	1	-1E+10	1	-1E+10	1
4902624	3	C	07/21/2024	16:31	-128.854	46.477	0	2.60	0	17.3799	0	32.2889	0	23.346	0	2.579	0	-1e10	1	-1e10	1	-1E+10	1	0.2263	4	0.000941	0	-1E+10	1	-1E+10	1	-1E+10	1
4902624	3	C	07/21/2024	16:31	-128.854	46.477	0	2.80	0	17.3797	0	32.2887	0	23.346	0	2.777	0	-1e10	1	-1e10	1	-1E+10	1	0.2044	4	0.000929	0	-1E+10	1	-1E+10	1	-1E+10	1
4902624	3	C	07/21/2024	16:31	-128.854	46.477	0	2.90	0	17.3796	0	32.2886	0	23.346	0	2.876	0	-1e10	1	-1e10	1	-1E+10	1	0.2044	4	0.000906	0	-1E+10	1	-1E+10	1	-1E+10	1
4902624	3	C	07/21/2024	16:31	-128.854	46.477	0	3.10	0	17.3794	0	32.2884	0	23.346	0	3.074	0	-1e10	1	-1e10	1	-1E+10	1	0.2263	4	0.000941	0	-1E+10	1	-1E+10	1	-1E+10	1
4902624	3	C	07/21/2024	16:31	-128.854	46.477	0	3.20	0	17.3793	0	32.2883	0	23.346	0	3.174	0	232.2	4	96.3	4	-1E+10	1	0.2336	4	0.000953	0	-1E+10	1	-1E+10	1	-1E+10	1
4902624	3	C	07/21/2024	16:31	-128.854	46.477	0	3.50	0	17.3790	0	32.2880	0	23.346	0	3.471	0	-1e10	1	-1e10	1	-1E+10	1	-1e10	1	-1e10	1	-1E+10	1	-1E+10	1	-1E+10	1
4902624	3	C	07/21/2024	16:31	-128.854	46.477	0	3.60	0	17.3792	0	32.2880	0	23.346	0	3.570	0	-1e10	1	-1e10	1	-1E+10	1	0.2336	4	0.000917	0	-1E+10	1	-1E+10	1	-1E+10	1
4902624	3	C	07/21/2024	16:31	-128.854	46.477	0	3.70	0	17.3794	0	32.2880	0	23.346	0	3.669	0	-1e10	1	-1e10	1	-1E+10	1	0.2117	4	0.000941	0	-1E+10	1	-1E+10	1	-1E+10	1
4902624	3	C	07/21/2024	16:31	-128.854	46.477	0	3.80	0	17.3796	0	32.2880	0	23.346	0	3.769	0	-1e10	1	-1e10	1	-1E+10	1	0.2336	4	0.000906	0	-1E+10	1	-1E+10	1	-1E+10	1
4902624	3	C	07/21/2024	16:31	-128.854	46.477	0	4.00	0	17.3800	0	32.2880	0	23.346	0	3.967	0	232.6	4	96.5	4	-1E+10	1	0.2263	4	0.000964	0	-1E+10	1	-1E+10	1	-1E+10	1
4902624	3	C	07/21/2024	16:31	-128.854	46.477	0	4.10	0	17.3802	0	32.2880	0	23.346	0	4.066	0	-1e10	1	-1e10	1	-1E+10	1	0.2263	4	0.000953	0	-1E+10	1	-1E+10	1	-1E+10	1
4902624	3	C	07/21/2024	16:31	-128.854	46.477	0	4.30	0	17.3806	0	32.2880	0	23.346	0	4.264	0	-1e10	1	-1e10	1	-1E+10	1	0.2263	4	0.000941	0	-1E+10	1	-1E+10	1	-1E+10	1
4902624	3	C	07/21/2024	16:31	-128.854	46.477	0	4.40	0	17.3808	0	32.2880	0	23.346	0	4.364	0	-1e10	1	-1e10	1	-1E+10	1	0.2190	4	0.000894	0	-1E+10	1	-1E+10	1	-1E+10	1
4902624	3	C	07/21/2024	16:31	-128.854	46.477	0	4.50	0	17.3810	0	32.2880	0	23.345	0	4.463	0	-1e10	1	-1e10	1	-1E+10	1	-1e10	1	-1e10	1	-1E+10	1	-1E+10	1	-1E+10	1
4902624	3	C	07/21/2024	16:31	-128.854	46.477	0	4.70	0	17.3808	0	32.2878	0	23.345	0	4.661	0	233.0	4	96.6	4	-1E+10	1	0.2336	4	0.000941	0	-1E+10	1	-1E+10	1	-1E+10	1
4902624	3	C	07/21/2024	16:31	-128.854	46.477	0	4.90	0	17.3806	0	32.2876	0	23.345	0	4.860	0	-1e10	1	-1e10	1	-1E+10	1	0.2336	4	0.000929	0	-1E+10	1	-1E+10	1	-1E+10	1
4902624	3	C	07/21/2024	16:31	-128.854	46.477	0	5.00	0	17.3805	0	32.2875	0	23.345	0	4.959	0	-1e10	1	-1e10	1	-1E+10	1	0.2336	4	0.000906	0	-1E+10	1	-1E+10	1	-1E+10	1
4902624	3	C	07/21/2024	16:31	-128.854	46.477	0	5.10	0	17.3805	0	32.2875	0	23.345	0	5.058	0	-1e10	1	-1e10	1	-1E+10	1	0.2409	4	0.000941	0	-1E+10	1	-1E+10	1	-1E+10	1
4902624	3	C	07/21/2024	16:31	-128.854	46.477	0	5.30	0	17.3803	0	32.2873	0	23.345	0	5.256	0	-1e10	1	-1e10	1	-1E+10	1	0.2555	4	0.000929	0	-1E+10	1	-1E+10	1	-1E+10	1
4902624	3	C	07/21/2024	16:31	-128.854	46.477	0	5.40	0	17.3802	0	32.2872	0	23.345	0	5.355	0	233.8	4	97.0	4	-1E+10	1	0.2336	4	0.000906	0	-1E+10	1	-1E+10	1	-1E+10	1
4902624	3	C	07/21/2024	16:31	-128.854	46.477	0	5.60	0	17.3800	0	32.2870	0	23.345	0	5.554	0	-1e10	1	-1e10	1	-1E+10	1	0.2409	4	0.000882	0	-1E+10	1	-1E+10	1	-1E+10	1
4902624	3	C	07/21/2024	16:31	-128.854	46.477	0	5.70	0	17.3800	0	32.2867	0	23.345	0	5.653	0	-1e10	1	-1e10	1	-1E+10	1	0.2555	4	0.000929	0	-1E+10	1	-1E+10	1	-1E+10	1
4902624	3	C	07/21/2024	16:31	-128.854	46.477	0	6.00	0	17.3800	0	32.2857	0	23.344	0	5.950	0	-1e10	1	-1e10	1	-1E+10	1	0.2555	4	0.000929	0	-1E+10	1	-1E+10	1	-1E+10	1
4902624	3	C	07/21/2024	16:31	-128.854	46.477	0	6.10	0	17.3800	0	32.2853	0	23.344	0	6.050	0	234.6	4	97.3	4	-1E+10	1	0.2628	4	0.000917	0	-1E+10	1	-1E+10	1	-1E+10	1
4902624	3	C	07/21/2024	16:31	-128.854	46.477	0	6.20	0	17.3800	0	32.2850	0	23.344	0	6.149	0	-1e10	1	-1e10	1	-1E+10	1	0.2628	4	0.000906	0	-1E+10	1	-1E+10	1	-1E+10	1
4902624	3	C	07/21/2024	16:31	-128.854	46.477	0	6.40	0	17.3800	0	32.2843	0	23.343	0	6.347	0	-1e10	1	-1e10	1	-1E+10	1	0.2628	4	0.000964	0	-1E+10	1	-1E+10	1	-1E+10	1
4902624	3	C	07/21/2024	16:31	-128.854	46.477	0	6.50	0	17.3800	0	32.2840	0	23.343	0	6.446	0	-1e10	1	-1e10	1	-1E+10	1	0.2701	4	0.000929	0	-1E+10	1	-1E+10	1	-1E+10	1
4902624	3	C	07/21/2024	16:31	-128.854	46.477	0	6.60	0	17.3781	0	32.2838	0	23.343	0	6.545	0	-1e10	1	-1e10	1	-1E+10	1	0.2774	4	0.000906	0	-1E+10	1	-1E+10	1	-1E+10	1
4902624	3	C	07/21/2024	16:31	-128.854	46.477	0	6.70	0	17.3762	0	32.2836	0	23.343	0	6.645	0	235.7	4	97.8	4	-1E+10	1	0.2482	4	0.000929	0	-1E+10	1	-1E+10	1	-1E+10	1
4902624	3	C	07/21/2024	16:31	-128.854	46.477	0	6.90	0	17.3724	0	32.2832	0	23.344	0	6.843	0	-1e10	1	-1e10	1	-1E+10	1	0.2774	4	0.000894	0	-1E+10	1	-1E+10	1	-1E+10	1
4902624	3	C	07/21/2024	16:31	-128.854	46.477	0	7.10	0	17.3686	0	32.2828	0	23.345	0	7.041	0	-1e10	1	-1e10	1	-1E+10	1	0.2920	4	0.000906	0	-1E+10	1	-1E+10	1	-1E+10	1
4902624	3	C	07/21/2024	16:31	-128.854	46.477	0	7.20	0	17.3667	0	32.2826	0	23.345	0	7.140	0	-1e10	1	-1e10	1	-1E+10	1	0.3066	4	0.000882	0	-1E+10	1	-1E+10	1	-1E+10	1
4902624	3	C	07/21/2024	16:31	-128.854	46.477	0	7.40	0	17.3629	0	32.2822	0	23.345	0	7.339	0	237.6	4	98.5	4	-1E+10	1	0.2993	4	0.000882	0	-1E+10	1	-1E+10	1	-1E+10	1
4902624	3	C	07/21/2024	16:31	-128.854	46.477	0	7.50	0	17.3610	0	32.2820	0	23.346	0	7.438	0	-1e10	1	-1e10	1	-1E+10	1	-1e10	1	-1e10	1	-1E+10	1	-1E+10	1	-1E+10	1
4902624	3	C	07/21/2024	16:31	-128.854	46.477	0	7.60	0	17.3488	0	32.2827	0	23.349	0	7.537	0	-1e10	1	-1e10	1	-1E+10	1	0.3212	4	0.000906	0	-1E+10	1	-1E+10	1	-1E+10	1
4902624	3	C	07/21/2024	16:31	-128.854	46.477	0	7.70	0	17.3366	0	32.2834	0	23.353	0	7.636	0	-1e10	1	-1e10	1	-1E+10	1	0.3212	4	0.000917	0	-1E+10	1	-1E+10	1	-1E+10	1
4902624	3	C	07/21/2024	16:31	-128.854	46.477	0	7.80	0	17.3244	0	32.2841	0	23.356	0	7.735	0	-1e10	1	-1e10	1	-1E+10	1	0.3212	4	0.000952	0	-1E+10	1	-1E+10	1	-1E+10	1
4902624	3	C	07/21/2024	16:31	-128.854	46.477	0	7.90	0	17.3122	0	32.2848	0	23.359	0	7.835	0	-1e10	1	-1e10	1	-1E+10	1	0.3577	4	0.000952	0	-1E+10	1	-1E+10	1	-1E+10	1
4902624	3	C	07/21/2024	16:31	-128.854	46.477	0	8.20	0	17.2756	0	32.2869	0	23.370	0	8.132	0	239.8	4	99.3	4	-1E+10	1	0.3577	4	0.000988	0	-1E+10	1	-1E+10	1	-1E+10	1
4902624	3	C	07/21/2024	16:31	-128.854	46.477	0	8.40	0	17.2512	0	32.2883	0	23.377	0	8.331	0	-1e10	1	-1e10	1	-1E+10	1	0.3577	4	0.000976	0	-1E+10	1	-1E+10	1	-1E+10	1
4902624	3	C	07/21/2024	16:31	-128.854	46.477	0	8.50	0	17.2390	0	32.2890	0	23.380	0	8.430	0	-1e10	1	-1e10	1	-1E+10	1	0.3577	4	0.001023	0	-1E+10	1	-1E+10	1	-1E+10	1
4902624	3	C	07/21/2024	16:31	-128.854	46.477	0	8.70	0	17.1570	0	32.3016	0	23.409	0	8.628	0	-1e10	1	-1e10	1	-1E+10	1	0.3577	4	0.001023	0	-1E+10	1	-1E+10	1	-1E+10	1
4902624	3	C	07/21/2024	16:31	-128.854	46.477	0	8.90	0	17.0750	0	32.3142	0	23.438	0	8.826	0	242.4	4	100.0	4	-1E+10	1	0.3796	4	0.001082	0	-1E+10	1	-1E+10	1	-1E+10	1
4902624	3	C	07/21/2024	16:31	-128.854	46.477	0	9.10	0	16.9930	0	32.3268	0	23.467	0	9.025	0	-1e10	1	-1e10	1	-1E+10	1	0.3796	4	0.001070	0	-1E+10	1	-1E+10	1	-1E+10	1
4902624	3	C	07/21/2024	16:31	-128.854	46.477	0	9.20	0	16.9520	0	32.3331	0	23.481	0	9.124	0	-1e10	1	-1e10	1	-1E+10	1	0.4015	4	0.001234	0	-1E+10	1	-1E+10	1	-1E+10	1
4902624	3	C	07/21/2024	16:31	-128.854	46.477	0	9.40	0	16.8700	0	32.3457	0	23.510	0	9.322	0	-1e10	1	-1e10	1	-1E+10	1	0.4234	4	0.001211	0	-1E+10	1	-1E+10	1	-1E+10	1
4902624	3	C	07/21/2024	16:31	-128.854	46.477	0	9.50	0	16.8290	0	32.3520	0	23.524	0	9.421	0	-1e10	1	-1e10	1	-1E+10	1	-1e10	1	-1e10	1	-1E+10	1	-1E+10	1	-1E+10	1
4902624	3	C	07/21/2024	16:31	-128.854	46.477	0	9.80	0	16.7216	0	32.3570	0	23.553	0	9.719	0	245.0	4	100.4	4	-1E+10	1	0.4526	4	0.001363	0	-1E+10	1	-1E+10	1	-1E+10	1
4902624	3	C	07/21/2024	16:31	-128.854	46.477	0	10.70	0	16.3994	0	32.3720	0	23.638	0	10.611	0	245.7	4	100.1	4	-1E+10	1	0.4461	4	0.001286	0	-1E+10	1	-1E+10	1	-1E+10	1
4902624	3	C	07/21/2024	16:31	-128.854	46.477	0	11.00	0	16.2920	0	32.3770	0	23.666	0	10.909	0	-1e10	1	-1e10	1	-1E+10	1	-1e10	1	-1e10	1	-1E+10	1	-1E+10	1	-1E+10	1
4902624	3	C	07/21/2024	16:31	-128.854	46.477	0	11.70	0	16.2098	0	32.3752	0	23.683	0	11.603	0	246.2	4	99.9	4	-1E+10	1	0.5013	4	0.001344	0	-1E+10	1	-1E+10	1	-1E+10	1
4902624	3	C	07/21/2024	16:31	-128.854	46.477	0	12.70	0	16.0925	0	32.3725	0	23.708	0	12.595	0	246.5	4	99.8	4	-1E+10	1	0.5475	4	0.001357	0	-1E+10	1	-1E+10	1	-1E+10	1
4902624	3	C	07/21/2024	16:31	-128.854	46.477	0	12.90	0	16.0690	0	32.3720	0	23.713	0	12.793	0	-1e10	1	-1e10	1	-1E+10	1	-1e10	1	-1e10	1	-1E+10	1	-1E+10	1	-1E+10	1
4902624	3	C	07/21/2024	16:31	-128.854	46.477	0	13.70	0	16.0266	0	32.3712	0	23.722	0	13.586	0	246.9	4	99.8	4	-1E+10	1	0.6044	4	0.001389	0	-1E+10	1	-1E+10	1	-1E+10	1
4902624	3	C	07/21/2024	16:31	-128.854	46.477	0	14.60	0	15.9789	0	32.3703	0	23.732	0	14.479	0	247.2	4	99.9	4	-1E+10	1	0.6698	4	0.001486	0	-1E+10	1	-1E+10	1	-1E+10	1
4902624	3	C	07/21/2024	16:31	-128.854	46.477	0	14.90	0	15.9630	0	32.3700	0	23.735	0	14.777	0	-1e10	1	-1e10	1	-1E+10	1	-1e10	1	-1e10	1	-1E+10	1	-1E+10	1	-1E+10	1
4902624	3	C	07/21/2024	16:31	-128.854	46.477	0	15.60	0	15.9320	0	32.3700	0	23.742	0	15.471	0	247.5	4	99.9	4	-1E+10	1	0.7183	4	0.001605	0	-1E+10	1	-1E+10	1	-1E+10	1
4902624	3	C	07/21/2024	16:31	-128.854	46.477	0	16.50	0	15.8921	0	32.3700	0	23.751	0	16.363	0	247.9	4	100.0	4	-1E+10	1	0.8103	4	0.001563	0	-1E+10	1	-1E+10	1	-1E+10	1
4902624	3	C	07/21/2024	16:31	-128.854	46.477	0	17.00	0	15.8700	0	32.3700	0	23.756	0	16.859	0	-1e10	1	-1e10	1	-1E+10	1	-1e10	1	-1e10	1	-1E+10	1	-1E+10	1	-1E+10	1
4902624	3	C	07/21/2024	16:31	-128.854	46.477	0	17.40	0	15.8530	0	32.3694	0	23.759	0	17.256	0	248.2	4	100.0	4	-1E+10	1	0.8906	4	0.001680	0	-1E+10	1	-1E+10	1	-1E+10	1
4902624	3	C	07/21/2024	16:31	-128.854	46.477	0	18.50	0	15.8064	0	32.3679	0	23.769	0	18.347	0	248.6	4	100.1	4	-1E+10	1	0.9417	4	0.001516	0	-1E+10	1	-1E+10	1	-1E+10	1
4902624	3	C	07/21/2024	16:31	-128.854	46.477	0	19.10	0	15.7810	0	32.3670	0	23.774	0	18.941	0	-1e10	1	-1e10	1	-1E+10	1	-1e10	1	-1e10	1	-1E+10	1	-1E+10	1	-1E+10	1
4902624	3	C	07/21/2024	16:31	-128.854	46.477	0	19.20	0	15.7708	0	32.3664	0	23.775	0	19.041	0	249.0	4	100.2	4	-1E+10	1	1.0074	4	0.001856	0	-1E+10	1	-1E+10	1	-1E+10	1
4902624	3	C	07/21/2024	16:31	-128.854	46.477	0	19.50	0	15.7402	0	32.3645	0	23.781	0	19.338	0	249.2	4	100.2	4	-1E+10	1	1.0293	4	0.001792	0	-1E+10	1	-1E+10	1	-1E+10	1
4902624	3	C	07/21/2024	16:31	-128.854	46.477	0	19.80	0	15.7095	0	32.3626	0	23.786	0	19.636	0	249.6	4	100.3	4	-1E+10	1	1.0585	4	0.002319	0	-1E+10	1	-1E+10	1	-1E+10	1
4902624	3	C	07/21/2024	16:31	-128.854	46.477	0	20.00	0	15.6891	0	32.3613	0	23.790	0	19.834	0	250.0	4	100.4	4	-1E+10	1	1.1205	4	0.002366	0	-1E+10	1	-1E+10	1	-1E+10	1
4902624	3	C	07/21/2024	16:31	-128.854	46.477	0	20.20	0	15.6687	0	32.3601	0	23.793	0	20.032	0	250.3	4	100.5	4	-1E+10	1	1.2081	4	0.001867	0	-1E+10	1	-1E+10	1	-1E+10	1
4902624	3	C	07/21/2024	16:31	-128.854	46.477	0	20.40	0	15.6483	0	32.3588	0	23.797	0	20.231	0	251.0	4	100.8	4	-1E+10	1	1.2337	4	0.001836	0	-1E+10	1	-1E+10	1	-1E+10	1
4902624	3	C	07/21/2024	16:31	-128.854	46.477	0	20.60	0	15.6278	0	32.3575	0	23.800	0	20.429	0	251.6	4	100.9	4	-1E+10	1	1.2045	4	0.001727	0	-1E+10	1	-1E+10	1	-1E+10	1
4902624	3	C	07/21/2024	16:31	-128.854	46.477	0	21.00	0	15.5870	0	32.3550	0	23.807	0	20.826	0	252.6	4	101.3	4	-1E+10	1	1.3140	4	0.001655	0	-1E+10	1	-1E+10	1	-1E+10	1
4902624	3	C	07/21/2024	16:31	-128.854	46.477	0	21.20	0	15.4965	0	32.3538	0	23.826	0	21.024	0	253.3	4	101.4	4	-1E+10	1	1.4235	4	0.001973	0	-1E+10	1	-1E+10	1	-1E+10	1
4902624	3	C	07/21/2024	16:31	-128.854	46.477	0	21.60	0	15.3154	0	32.3515	0	23.864	0	21.421	0	255.0	4	101.7	4	-1E+10	1	1.4293	4	0.001710	0	-1E+10	1	-1E+10	1	-1E+10	1
4902624	3	C	07/21/2024	16:31	-128.854	46.477	0	22.00	0	15.1344	0	32.3492	0	23.902	0	21.817	0	256.5	4	101.9	4	-1E+10	1	1.4527	4	0.001721	0	-1E+10	1	-1E+10	1	-1E+10	1
4902624	3	C	07/21/2024	16:31	-128.854	46.477	0	22.50	0	14.9081	0	32.3463	0	23.948	0	22.313	0	258.6	4	102.3	4	-1E+10	1	1.4819	4	0.001832	0	-1E+10	1	-1E+10	1	-1E+10	1
4902624	3	C	07/21/2024	16:31	-128.854	46.477	0	22.90	0	14.7270	0	32.3440	0	23.985	0	22.710	0	-1e10	1	-1e10	1	-1E+10	1	-1e10	1	-1e10	1	-1E+10	1	-1E+10	1	-1E+10	1
4902624	3	C	07/21/2024	16:31	-128.854	46.477	0	23.10	0	14.6142	0	32.3436	0	24.008	0	22.908	0	260.9	4	102.6	4	-1E+10	1	1.5330	4	0.001897	0	-1E+10	1	-1E+10	1	-1E+10	1
4902624	3	C	07/21/2024	16:31	-128.854	46.477	0	23.80	0	14.2194	0	32.3422	0	24.090	0	23.602	0	262.5	4	102.4	4	-1E+10	1	1.5549	4	0.001785	0	-1E+10	1	-1E+10	1	-1E+10	1
4902624	3	C	07/21/2024	16:31	-128.854	46.477	0	24.50	0	13.8246	0	32.3408	0	24.170	0	24.296	0	262.6	4	101.6	4	-1E+10	1	1.4444	4	0.001544	0	-1E+10	1	-1E+10	1	-1E+10	1
4902624	3	C	07/21/2024	16:31	-128.854	46.477	0	24.90	0	13.5990	0	32.3400	0	24.215	0	24.693	0	-1e10	1	-1e10	1	-1E+10	1	-1e10	1	-1e10	1	-1E+10	1	-1E+10	1	-1E+10	1
4902624	3	C	07/21/2024	16:31	-128.854	46.477	0	25.40	0	13.4247	0	32.3388	0	24.249	0	25.189	0	264.9	4	101.7	4	-1E+10	1	1.3855	4	0.001359	0	-1E+10	1	-1E+10	1	-1E+10	1
4902624	3	C	07/21/2024	16:31	-128.854	46.477	0	26.10	0	13.1807	0	32.3371	0	24.296	0	25.883	0	265.1	4	101.2	4	-1E+10	1	1.3651	4	0.001351	0	-1E+10	1	-1E+10	1	-1E+10	1
4902624	3	C	07/21/2024	16:31	-128.854	46.477	0	27.00	0	12.8670	0	32.3350	0	24.356	0	26.775	0	262.8	4	99.7	4	-1E+10	1	1.2994	4	0.001351	0	-1E+10	1	-1E+10	1	-1E+10	1
4902624	3	C	07/21/2024	16:31	-128.854	46.477	0	27.90	0	12.7980	0	32.3341	0	24.369	0	27.668	0	264.9	4	100.4	4	-1E+10	1	1.2784	4	0.001279	0	-1E+10	1	-1E+10	1	-1E+10	1
4902624	3	C	07/21/2024	16:31	-128.854	46.477	0	28.70	0	12.7367	0	32.3334	0	24.380	0	28.461	0	264.9	4	100.3	4	-1E+10	1	1.2821	4	0.001244	0	-1E+10	1	-1E+10	1	-1E+10	1
4902624	3	C	07/21/2024	16:31	-128.854	46.477	0	29.10	0	12.7060	0	32.3330	0	24.386	0	28.858	0	-1e10	1	-1e10	1	-1E+10	1	-1e10	1	-1e10	1	-1E+10	1	-1E+10	1	-1E+10	1
4902624	3	C	07/21/2024	16:31	-128.854	46.477	0	29.70	0	12.6154	0	32.3351	0	24.405	0	29.453	0	264.8	4	100.0	4	-1E+10	1	1.2928	4	0.001219	0	-1E+10	1	-1E+10	1	-1E+10	1
4902624	3	C	07/21/2024	16:31	-128.854	46.477	0	30.60	0	12.4795	0	32.3382	0	24.434	0	30.345	0	264.9	4	99.7	4	-1E+10	1	1.3315	4	0.001178	0	-1E+10	1	-1E+10	1	-1E+10	1
4902624	3	C	07/21/2024	16:31	-128.854	46.477	0	31.10	0	12.4040	0	32.3400	0	24.449	0	30.841	0	-1e10	1	-1e10	1	-1E+10	1	-1e10	1	-1e10	1	-1E+10	1	-1E+10	1	-1E+10	1
4902624	3	C	07/21/2024	16:31	-128.854	46.477	0	31.60	0	12.3243	0	32.3390	0	24.464	0	31.337	0	265.1	4	99.5	4	-1E+10	1	1.4089	4	0.001124	0	-1E+10	1	-1E+10	1	-1E+10	1
4902624	3	C	07/21/2024	16:31	-128.854	46.477	0	32.60	0	12.1648	0	32.3370	0	24.492	0	32.328	0	265.0	4	99.1	4	-1E+10	1	1.4567	4	0.001106	0	-1E+10	1	-1E+10	1	-1E+10	1
4902624	3	C	07/21/2024	16:31	-128.854	46.477	0	33.10	0	12.0850	0	32.3360	0	24.506	0	32.824	0	-1e10	1	-1e10	1	-1E+10	1	-1e10	1	-1e10	1	-1E+10	1	-1E+10	1	-1E+10	1
4902624	3	C	07/21/2024	16:31	-128.854	46.477	0	33.50	0	12.0472	0	32.3362	0	24.513	0	33.221	0	264.6	4	98.7	4	-1E+10	1	1.4089	4	0.001058	0	-1E+10	1	-1E+10	1	-1E+10	1
4902624	3	C	07/21/2024	16:31	-128.854	46.477	0	34.50	0	11.9527	0	32.3367	0	24.531	0	34.212	0	264.6	4	98.5	4	-1E+10	1	1.4235	4	0.001034	0	-1E+10	1	-1E+10	1	-1E+10	1
4902624	3	C	07/21/2024	16:31	-128.854	46.477	0	35.10	0	11.8960	0	32.3370	0	24.542	0	34.807	0	-1e10	1	-1e10	1	-1E+10	1	-1e10	1	-1e10	1	-1E+10	1	-1E+10	1	-1E+10	1
4902624	3	C	07/21/2024	16:31	-128.854	46.477	0	35.60	0	11.8539	0	32.3370	0	24.550	0	35.303	0	264.3	4	98.2	4	-1E+10	1	1.5100	4	0.001044	0	-1E+10	1	-1E+10	1	-1E+10	1
4902624	3	C	07/21/2024	16:31	-128.854	46.477	0	36.60	0	11.7697	0	32.3370	0	24.565	0	36.295	0	264.1	4	98.0	4	-1E+10	1	1.5500	4	0.001035	0	-1E+10	1	-1E+10	1	-1E+10	1
4902624	3	C	07/21/2024	16:31	-128.854	46.477	0	37.00	0	11.7360	0	32.3370	0	24.572	0	36.691	0	-1e10	1	-1e10	1	-1E+10	1	-1e10	1	-1e10	1	-1E+10	1	-1E+10	1	-1E+10	1
4902624	3	C	07/21/2024	16:31	-128.854	46.477	0	37.60	0	11.6293	0	32.3395	0	24.593	0	37.286	0	264.0	4	97.7	4	-1E+10	1	1.5753	4	0.001039	0	-1E+10	1	-1E+10	1	-1E+10	1
4902624	3	C	07/21/2024	16:31	-128.854	46.477	0	38.70	0	11.4336	0	32.3442	0	24.632	0	38.377	0	263.9	4	97.2	4	-1E+10	1	1.6133	4	0.001052	0	-1E+10	1	-1E+10	1	-1E+10	1
4902624	3	C	07/21/2024	16:31	-128.854	46.477	0	38.90	0	11.3980	0	32.3450	0	24.639	0	38.575	0	-1e10	1	-1e10	1	-1E+10	1	-1e10	1	-1e10	1	-1E+10	1	-1E+10	1	-1E+10	1
4902624	3	C	07/21/2024	16:31	-128.854	46.477	0	39.80	0	11.2476	0	32.3450	0	24.666	0	39.468	0	263.7	4	96.8	4	-1E+10	1	1.6717	4	0.001054	0	-1E+10	1	-1E+10	1	-1E+10	1
4902624	3	C	07/21/2024	16:31	-128.854	46.477	0	40.90	0	11.0637	0	32.3450	0	24.699	0	40.558	0	263.4	4	96.3	4	-1E+10	1	1.7427	4	0.001046	0	-1E+10	1	-1E+10	1	-1E+10	1
4902624	3	C	07/21/2024	16:31	-128.854	46.477	0	41.00	0	11.0470	0	32.3450	0	24.702	0	40.658	0	-1e10	1	-1e10	1	-1E+10	1	-1e10	1	-1e10	1	-1E+10	1	-1E+10	1	-1E+10	1
4902624	3	C	07/21/2024	16:31	-128.854	46.477	0	42.00	0	10.9891	0	32.3397	0	24.708	0	41.649	0	263.0	4	96.0	4	-1E+10	1	1.7677	4	0.001037	0	-1E+10	1	-1E+10	1	-1E+10	1
4902624	3	C	07/21/2024	16:31	-128.854	46.477	0	42.90	0	10.9370	0	32.3350	0	24.713	0	42.542	0	-1e10	1	-1e10	1	-1E+10	1	-1e10	1	-1e10	1	-1E+10	1	-1E+10	1	-1E+10	1
4902624	3	C	07/21/2024	16:31	-128.854	46.477	0	43.10	0	10.9235	0	32.3346	0	24.715	0	42.740	0	262.6	4	95.7	4	-1E+10	1	1.7739	4	0.000987	0	-1E+10	1	-1E+10	1	-1E+10	1
4902624	3	C	07/21/2024	16:31	-128.854	46.477	0	44.20	0	10.8492	0	32.3324	0	24.727	0	43.831	0	262.4	4	95.5	4	-1E+10	1	1.7368	4	0.000997	0	-1E+10	1	-1E+10	1	-1E+10	1
4902624	3	C	07/21/2024	16:31	-128.854	46.477	0	44.90	0	10.8020	0	32.3310	0	24.734	0	44.525	0	-1e10	1	-1e10	1	-1E+10	1	-1e10	1	-1e10	1	-1E+10	1	-1E+10	1	-1E+10	1
4902624	3	C	07/21/2024	16:31	-128.854	46.477	0	45.40	0	10.7520	0	32.3302	0	24.742	0	45.020	0	262.5	4	95.3	4	-1E+10	1	1.7240	4	0.000980	0	-1E+10	1	-1E+10	1	-1E+10	1
4902624	3	C	07/21/2024	16:31	-128.854	46.477	0	46.50	0	10.6420	0	32.3286	0	24.760	0	46.111	0	262.5	4	95.1	4	-1E+10	1	1.6975	4	0.000947	0	-1E+10	1	-1E+10	1	-1E+10	1
4902624	3	C	07/21/2024	16:31	-128.854	46.477	0	46.90	0	10.6020	0	32.3280	0	24.766	0	46.508	0	-1e10	1	-1e10	1	-1E+10	1	-1e10	1	-1e10	1	-1E+10	1	-1E+10	1	-1E+10	1
4902624	3	C	07/21/2024	16:31	-128.854	46.477	0	47.60	0	10.5219	0	32.3290	0	24.781	0	47.202	0	262.7	4	94.9	4	-1E+10	1	1.6535	4	0.000920	0	-1E+10	1	-1E+10	1	-1E+10	1
4902624	3	C	07/21/2024	16:31	-128.854	46.477	0	48.70	0	10.3959	0	32.3307	0	24.803	0	48.292	0	263.0	4	94.8	4	-1E+10	1	1.5622	4	0.000880	0	-1E+10	1	-1E+10	1	-1E+10	1
4902624	3	C	07/21/2024	16:31	-128.854	46.477	0	48.90	0	10.3730	0	32.3310	0	24.807	0	48.491	0	-1e10	1	-1e10	1	-1E+10	1	-1e10	1	-1e10	1	-1E+10	1	-1E+10	1	-1E+10	1
4902624	3	C	07/21/2024	16:31	-128.854	46.477	0	49.80	0	10.2478	0	32.3343	0	24.831	0	49.383	0	263.5	4	94.6	4	-1E+10	1	1.4551	4	0.000839	0	-1E+10	1	-1E+10	1	-1E+10	1
4902624	3	C	07/21/2024	16:31	-128.854	46.477	0	50.90	0	10.0948	0	32.3383	0	24.860	0	50.474	0	263.6	4	94.4	4	-1E+10	1	1.4235	4	0.000839	0	-1E+10	1	-1E+10	1	-1E+10	1
4902624	3	C	07/21/2024	16:31	-128.854	46.477	0	51.10	0	10.0670	0	32.3390	0	24.865	0	50.672	0	-1e10	1	-1e10	1	-1E+10	1	-1e10	1	-1e10	1	-1E+10	1	-1E+10	1	-1E+10	1
4902624	3	C	07/21/2024	16:31	-128.854	46.477	0	52.00	0	10.0022	0	32.3404	0	24.877	0	51.564	0	263.8	4	94.3	4	-1E+10	1	1.3432	4	0.000811	0	-1E+10	1	-1E+10	1	-1E+10	1
4902624	3	C	07/21/2024	16:31	-128.854	46.477	0	53.10	0	9.9230	0	32.3420	0	24.891	0	52.655	0	260.7	4	93.0	4	-1E+10	1	1.1753	4	0.000769	0	-1E+10	1	-1E+10	1	-1E+10	1
4902624	3	C	07/21/2024	16:31	-128.854	46.477	0	54.20	0	9.8059	0	32.3503	0	24.917	0	53.746	0	264.3	4	94.1	4	-1E+10	1	1.0826	4	0.000735	0	-1E+10	1	-1E+10	1	-1E+10	1
4902624	3	C	07/21/2024	16:31	-128.854	46.477	0	55.10	0	9.7100	0	32.3570	0	24.938	0	54.638	0	-1e10	1	-1e10	1	-1E+10	1	-1e10	1	-1e10	1	-1E+10	1	-1E+10	1	-1E+10	1
4902624	3	C	07/21/2024	16:31	-128.854	46.477	0	55.30	0	9.7079	0	32.3594	0	24.940	0	54.836	0	264.1	4	93.8	4	-1E+10	1	1.0001	4	0.000692	0	-1E+10	1	-1E+10	1	-1E+10	1
4902624	3	C	07/21/2024	16:31	-128.854	46.477	0	56.50	0	9.6953	0	32.3738	0	24.953	0	56.026	0	263.5	4	93.5	4	-1E+10	1	0.9264	4	0.000656	0	-1E+10	1	-1E+10	1	-1E+10	1
4902624	3	C	07/21/2024	16:31	-128.854	46.477	0	57.10	0	9.6890	0	32.3810	0	24.960	0	56.621	0	-1e10	1	-1e10	1	-1E+10	1	-1e10	1	-1e10	1	-1E+10	1	-1E+10	1	-1E+10	1
4902624	3	C	07/21/2024	16:31	-128.854	46.477	0	57.60	0	9.6543	0	32.3805	0	24.965	0	57.117	0	263.1	4	93.3	4	-1E+10	1	0.8626	4	0.000654	0	-1E+10	1	-1E+10	1	-1E+10	1
4902624	3	C	07/21/2024	16:31	-128.854	46.477	0	58.70	0	9.5778	0	32.3793	0	24.977	0	58.207	0	262.9	4	93.1	4	-1E+10	1	0.7682	4	0.000621	0	-1E+10	1	-1E+10	1	-1E+10	1
4902624	3	C	07/21/2024	16:31	-128.854	46.477	0	59.00	0	9.5570	0	32.3790	0	24.980	0	58.505	0	-1e10	1	-1e10	1	-1E+10	1	-1e10	1	-1e10	1	-1E+10	1	-1E+10	1	-1E+10	1
4902624	3	C	07/21/2024	16:31	-128.854	46.477	0	59.90	0	9.4580	0	32.3709	0	24.989	0	59.397	0	262.8	4	92.8	4	-1E+10	1	0.6902	4	0.000593	0	-1E+10	1	-1E+10	1	-1E+10	1
4902624	3	C	07/21/2024	16:31	-128.854	46.477	0	61.00	0	9.3370	0	32.3610	0	25.001	0	60.488	0	258.7	4	91.1	4	-1E+10	1	0.6680	4	0.000604	0	-1E+10	1	-1E+10	1	-1E+10	1
4902624	3	C	07/21/2024	16:31	-128.854	46.477	0	62.10	0	9.3073	0	32.3615	0	25.006	0	61.578	0	262.0	4	92.2	4	-1E+10	1	0.6373	4	0.000587	0	-1E+10	1	-1E+10	1	-1E+10	1
4902624	3	C	07/21/2024	16:31	-128.854	46.477	0	63.00	0	9.2830	0	32.3620	0	25.010	0	62.471	0	-1e10	1	-1e10	1	-1E+10	1	-1e10	1	-1e10	1	-1E+10	1	-1E+10	1	-1E+10	1
4902624	3	C	07/21/2024	16:31	-128.854	46.477	0	63.20	0	9.2765	0	32.3618	0	25.011	0	62.669	0	261.6	4	92.0	4	-1E+10	1	0.6497	4	0.000577	0	-1E+10	1	-1E+10	1	-1E+10	1
4902624	3	C	07/21/2024	16:31	-128.854	46.477	0	64.40	0	9.2375	0	32.3606	0	25.016	0	63.859	0	261.1	4	91.8	4	-1E+10	1	0.6059	4	0.000565	0	-1E+10	1	-1E+10	1	-1E+10	1
4902624	3	C	07/21/2024	16:31	-128.854	46.477	0	65.00	0	9.2180	0	32.3600	0	25.019	0	64.453	0	-1e10	1	-1e10	1	-1E+10	1	-1e10	1	-1e10	1	-1E+10	1	-1E+10	1	-1E+10	1
4902624	3	C	07/21/2024	16:31	-128.854	46.477	0	65.50	0	9.1803	0	32.3625	0	25.027	0	64.949	0	260.7	4	91.5	4	-1E+10	1	0.5750	4	0.000565	0	-1E+10	1	-1E+10	1	-1E+10	1
4902624	3	C	07/21/2024	16:31	-128.854	46.477	0	66.70	0	9.0897	0	32.3685	0	25.046	0	66.139	0	260.3	4	91.2	4	-1E+10	1	0.5329	4	0.000540	0	-1E+10	1	-1E+10	1	-1E+10	1
4902624	3	C	07/21/2024	16:31	-128.854	46.477	0	67.00	0	9.0670	0	32.3700	0	25.050	0	66.436	0	-1e10	1	-1e10	1	-1E+10	1	-1e10	1	-1e10	1	-1E+10	1	-1E+10	1	-1E+10	1
4902624	3	C	07/21/2024	16:31	-128.854	46.477	0	67.80	0	9.0266	0	32.3704	0	25.057	0	67.229	0	259.6	4	90.8	4	-1E+10	1	0.4672	4	0.000515	0	-1E+10	1	-1E+10	1	-1E+10	1
4902624	3	C	07/21/2024	16:31	-128.854	46.477	0	68.90	0	8.9710	0	32.3710	0	25.066	0	68.320	0	255.2	4	89.2	4	-1E+10	1	0.4125	4	0.000495	0	-1E+10	1	-1E+10	1	-1E+10	1
4902624	3	C	07/21/2024	16:31	-128.854	46.477	0	70.20	0	8.9041	0	32.3729	0	25.078	0	69.609	0	258.6	4	90.2	4	-1E+10	1	0.3744	4	0.000479	0	-1E+10	1	-1E+10	1	-1E+10	1
4902624	3	C	07/21/2024	16:31	-128.854	46.477	0	71.00	0	8.8630	0	32.3740	0	25.085	0	70.402	0	-1e10	1	-1e10	1	-1E+10	1	-1e10	1	-1e10	1	-1E+10	1	-1E+10	1	-1E+10	1
4902624	3	C	07/21/2024	16:31	-128.854	46.477	0	71.30	0	8.8543	0	32.3745	0	25.087	0	70.699	0	258.3	4	90.0	4	-1E+10	1	0.3522	4	0.000468	0	-1E+10	1	-1E+10	1	-1E+10	1
4902624	3	C	07/21/2024	16:31	-128.854	46.477	0	72.40	0	8.8224	0	32.3761	0	25.093	0	71.790	0	258.0	4	89.8	4	-1E+10	1	0.3347	4	0.000440	0	-1E+10	1	-1E+10	1	-1E+10	1
4902624	3	C	07/21/2024	16:31	-128.854	46.477	0	73.00	0	8.8050	0	32.3770	0	25.096	0	72.385	0	-1e10	1	-1e10	1	-1E+10	1	-1e10	1	-1e10	1	-1E+10	1	-1E+10	1	-1E+10	1
4902624	3	C	07/21/2024	16:31	-128.854	46.477	0	73.50	0	8.7938	0	32.3815	0	25.101	0	72.880	0	257.6	4	89.7	4	-1E+10	1	0.3285	4	0.000401	0	-1E+10	1	-1E+10	1	-1E+10	1
4902624	3	C	07/21/2024	16:31	-128.854	46.477	0	74.60	0	8.7690	0	32.3914	0	25.113	0	73.971	0	257.3	4	89.5	4	-1E+10	1	0.3285	4	0.000401	0	-1E+10	1	-1E+10	1	-1E+10	1
4902624	3	C	07/21/2024	16:31	-128.854	46.477	0	75.00	0	8.7600	0	32.3950	0	25.117	0	74.368	0	-1e10	1	-1e10	1	-1E+10	1	-1e10	1	-1e10	1	-1E+10	1	-1E+10	1	-1E+10	1
4902624	3	C	07/21/2024	16:31	-128.854	46.477	0	75.30	0	8.7829	0	32.3997	0	25.117	0	74.665	0	257.0	4	89.4	4	-1E+10	1	0.3413	4	0.000411	0	-1E+10	1	-1E+10	1	-1E+10	1
4902624	3	C	07/21/2024	16:31	-128.854	46.477	0	76.00	0	8.8363	0	32.4108	0	25.118	0	75.359	0	256.4	4	89.3	4	-1E+10	1	0.3382	4	0.000412	0	-1E+10	1	-1E+10	1	-1E+10	1
4902624	3	C	07/21/2024	16:31	-128.854	46.477	0	76.80	0	8.8974	0	32.4234	0	25.118	0	76.152	0	255.9	4	89.3	4	-1E+10	1	0.3358	4	0.000386	0	-1E+10	1	-1E+10	1	-1E+10	1
4902624	3	C	07/21/2024	16:31	-128.854	46.477	0	76.90	0	8.9050	0	32.4250	0	25.119	0	76.251	0	-1e10	1	-1e10	1	-1E+10	1	-1e10	1	-1e10	1	-1E+10	1	-1E+10	1	-1E+10	1
4902624	3	C	07/21/2024	16:31	-128.854	46.477	0	77.50	0	8.9204	0	32.4307	0	25.121	0	76.846	0	255.6	4	89.2	4	-1E+10	1	0.3385	4	0.000383	0	-1E+10	1	-1E+10	1	-1E+10	1
4902624	3	C	07/21/2024	16:31	-128.854	46.477	0	78.30	0	8.9410	0	32.4383	0	25.123	0	77.639	0	255.2	4	89.1	4	-1E+10	1	0.3365	4	0.000420	0	-1E+10	1	-1E+10	1	-1E+10	1
4902624	3	C	07/21/2024	16:31	-128.854	46.477	0	79.00	0	8.9590	0	32.4450	0	25.126	0	78.333	0	-1e10	1	-1e10	1	-1E+10	1	-1e10	1	-1e10	1	-1E+10	1	-1E+10	1	-1E+10	1
4902624	3	C	07/21/2024	16:31	-128.854	46.477	0	79.10	0	8.9571	0	32.4448	0	25.126	0	78.432	0	254.9	4	89.1	4	-1E+10	1	0.3236	4	0.000432	0	-1E+10	1	-1E+10	1	-1E+10	1
4902624	3	C	07/21/2024	16:31	-128.854	46.477	0	79.90	0	8.9419	0	32.4432	0	25.127	0	79.225	0	254.5	4	88.9	4	-1E+10	1	0.3431	4	0.000377	0	-1E+10	1	-1E+10	1	-1E+10	1
4902624	3	C	07/21/2024	16:31	-128.854	46.477	0	80.70	0	8.9267	0	32.4416	0	25.128	0	80.018	0	254.1	4	88.7	4	-1E+10	1	0.3139	4	0.000377	0	-1E+10	1	-1E+10	1	-1E+10	1
4902624	3	C	07/21/2024	16:31	-128.854	46.477	0	81.00	0	8.9210	0	32.4410	0	25.129	0	80.316	0	-1e10	1	-1e10	1	-1E+10	1	-1e10	1	-1e10	1	-1E+10	1	-1E+10	1	-1E+10	1
4902624	3	C	07/21/2024	16:31	-128.854	46.477	0	81.50	0	8.9172	0	32.4429	0	25.131	0	80.811	0	253.6	4	88.6	4	-1E+10	1	0.3139	4	0.000387	0	-1E+10	1	-1E+10	1	-1E+10	1
4902624	3	C	07/21/2024	16:31	-128.854	46.477	0	82.30	0	8.9111	0	32.4460	0	25.134	0	81.605	0	253.2	4	88.4	4	-1E+10	1	0.2986	4	0.000397	0	-1E+10	1	-1E+10	1	-1E+10	1
4902624	3	C	07/21/2024	16:31	-128.854	46.477	0	83.10	0	8.9050	0	32.4490	0	25.137	0	82.398	0	248.5	4	86.8	4	-1E+10	1	0.2874	4	0.000393	0	-1E+10	1	-1E+10	1	-1E+10	1
4902624	3	C	07/21/2024	16:31	-128.854	46.477	0	83.90	0	8.9086	0	32.4566	0	25.143	0	83.191	0	251.8	4	87.9	4	-1E+10	1	0.2957	4	0.000371	0	-1E+10	1	-1E+10	1	-1E+10	1
4902624	3	C	07/21/2024	16:31	-128.854	46.477	0	84.80	0	8.9126	0	32.4651	0	25.149	0	84.083	0	251.2	4	87.7	4	-1E+10	1	0.2907	4	0.000379	0	-1E+10	1	-1E+10	1	-1E+10	1
4902624	3	C	07/21/2024	16:31	-128.854	46.477	0	85.10	0	8.9140	0	32.4680	0	25.151	0	84.380	0	-1e10	1	-1e10	1	-1E+10	1	-1e10	1	-1e10	1	-1E+10	1	-1E+10	1	-1E+10	1
4902624	3	C	07/21/2024	16:31	-128.854	46.477	0	85.70	0	8.8682	0	32.4636	0	25.155	0	84.975	0	250.5	4	87.4	4	-1E+10	1	0.2660	4	0.000416	0	-1E+10	1	-1E+10	1	-1E+10	1
4902624	3	C	07/21/2024	16:31	-128.854	46.477	0	86.50	0	8.8072	0	32.4577	0	25.159	0	85.768	0	249.8	4	87.0	4	-1E+10	1	0.2737	4	0.000385	0	-1E+10	1	-1E+10	1	-1E+10	1
4902624	3	C	07/21/2024	16:31	-128.854	46.477	0	87.00	0	8.7690	0	32.4540	0	25.162	0	86.264	0	-1e10	1	-1e10	1	-1E+10	1	-1e10	1	-1e10	1	-1E+10	1	-1E+10	1	-1E+10	1
4902624	3	C	07/21/2024	16:31	-128.854	46.477	0	87.40	0	8.7946	0	32.4602	0	25.163	0	86.660	0	248.9	4	86.7	4	-1E+10	1	0.2409	4	0.000354	0	-1E+10	1	-1E+10	1	-1E+10	1
4902624	3	C	07/21/2024	16:31	-128.854	46.477	0	88.30	0	8.8522	0	32.4742	0	25.165	0	87.553	0	247.8	4	86.4	4	-1E+10	1	0.2708	4	0.000354	0	-1E+10	1	-1E+10	1	-1E+10	1
4902624	3	C	07/21/2024	16:31	-128.854	46.477	0	89.00	0	8.8970	0	32.4850	0	25.167	0	88.246	0	-1e10	1	-1e10	1	-1E+10	1	-1e10	1	-1e10	1	-1E+10	1	-1E+10	1	-1E+10	1
4902624	3	C	07/21/2024	16:31	-128.854	46.477	0	89.30	0	8.9103	0	32.4913	0	25.170	0	88.544	0	246.3	4	86.0	4	-1E+10	1	0.2579	4	0.000395	0	-1E+10	1	-1E+10	1	-1E+10	1
4902624	3	C	07/21/2024	16:31	-128.854	46.477	0	90.20	0	8.9504	0	32.5102	0	25.178	0	89.436	0	245.0	4	85.7	4	-1E+10	1	0.2506	4	0.000369	0	-1E+10	1	-1E+10	1	-1E+10	1
4902624	3	C	07/21/2024	16:31	-128.854	46.477	0	91.00	0	8.9860	0	32.5270	0	25.186	0	90.229	0	-1e10	1	-1e10	1	-1E+10	1	-1e10	1	-1e10	1	-1E+10	1	-1E+10	1	-1E+10	1
4902624	3	C	07/21/2024	16:31	-128.854	46.477	0	91.10	0	8.9825	0	32.5271	0	25.187	0	90.328	0	243.7	4	85.3	4	-1E+10	1	0.2449	4	0.000343	0	-1E+10	1	-1E+10	1	-1E+10	1
4902624	3	C	07/21/2024	16:31	-128.854	46.477	0	92.10	0	8.9480	0	32.5281	0	25.193	0	91.320	0	242.5	4	84.8	4	-1E+10	1	0.2279	4	0.000341	0	-1E+10	1	-1E+10	1	-1E+10	1
4902624	3	C	07/21/2024	16:31	-128.854	46.477	0	93.00	0	8.9170	0	32.5290	0	25.198	0	92.212	0	237.6	4	83.0	4	-1E+10	1	0.2093	4	0.000357	0	-1E+10	1	-1E+10	1	-1E+10	1
4902624	3	C	07/21/2024	16:31	-128.854	46.477	0	93.90	0	8.8684	0	32.5331	0	25.209	0	93.104	0	239.9	4	83.7	4	-1E+10	1	0.2044	4	0.000365	0	-1E+10	1	-1E+10	1	-1E+10	1
4902624	3	C	07/21/2024	16:31	-128.854	46.477	0	94.90	0	8.8144	0	32.5375	0	25.221	0	94.095	0	238.5	4	83.2	4	-1E+10	1	0.2044	4	0.000365	0	-1E+10	1	-1E+10	1	-1E+10	1
4902624	3	C	07/21/2024	16:31	-128.854	46.477	0	95.00	0	8.8090	0	32.5380	0	25.222	0	94.194	0	-1e10	1	-1e10	1	-1E+10	1	-1e10	1	-1e10	1	-1E+10	1	-1E+10	1	-1E+10	1
4902624	3	C	07/21/2024	16:31	-128.854	46.477	0	95.90	0	8.7481	0	32.5466	0	25.238	0	95.086	0	237.1	4	82.6	4	-1E+10	1	0.2117	4	0.000330	0	-1E+10	1	-1E+10	1	-1E+10	1
4902624	3	C	07/21/2024	16:31	-128.854	46.477	0	96.90	0	8.6805	0	32.5561	0	25.256	0	96.078	0	236.1	4	82.1	4	-1E+10	1	0.2056	4	0.000313	0	-1E+10	1	-1E+10	1	-1E+10	1
4902624	3	C	07/21/2024	16:31	-128.854	46.477	0	97.10	0	8.6670	0	32.5580	0	25.259	0	96.276	0	-1e10	1	-1e10	1	-1E+10	1	-1e10	1	-1e10	1	-1E+10	1	-1E+10	1	-1E+10	1
4902624	3	C	07/21/2024	16:31	-128.854	46.477	0	97.80	0	8.6359	0	32.5631	0	25.268	0	96.970	0	234.8	4	81.6	4	-1E+10	1	0.2001	4	0.000328	0	-1E+10	1	-1E+10	1	-1E+10	1
4902624	3	C	07/21/2024	16:31	-128.854	46.477	0	98.80	0	8.5914	0	32.5703	0	25.280	0	97.961	0	233.4	4	81.0	4	-1E+10	1	0.1930	4	0.000335	0	-1E+10	1	-1E+10	1	-1E+10	1
4902624	3	C	07/21/2024	16:31	-128.854	46.477	0	98.90	0	8.5870	0	32.5710	0	25.282	0	98.060	0	-1e10	1	-1e10	1	-1E+10	1	-1e10	1	-1e10	1	-1E+10	1	-1E+10	1	-1E+10	1
4902624	3	C	07/21/2024	16:31	-128.854	46.477	0	99.80	0	8.5440	0	32.5812	0	25.296	0	98.952	0	232.1	4	80.5	4	-1E+10	1	0.1861	4	0.000324	0	-1E+10	1	-1E+10	1	-1E+10	1
4902624	3	C	07/21/2024	16:31	-128.854	46.477	0	100.80	0	8.4963	0	32.5926	0	25.312	0	99.944	0	230.4	4	79.8	4	-1E+10	1	0.1752	4	0.000318	0	-1E+10	1	-1E+10	1	-1E+10	1
4902624	3	C	07/21/2024	16:31	-128.854	46.477	0	101.10	0	8.4820	0	32.5960	0	25.317	0	100.241	0	-1e10	1	-1e10	1	-1E+10	1	-1e10	1	-1e10	1	-1E+10	1	-1E+10	1	-1E+10	1
4902624	3	C	07/21/2024	16:31	-128.854	46.477	0	101.80	0	8.4400	0	32.5991	0	25.326	0	100.935	0	228.4	4	79.0	4	-1E+10	1	0.1606	4	0.000316	0	-1E+10	1	-1E+10	1	-1E+10	1
4902624	3	C	07/21/2024	16:31	-128.854	46.477	0	102.90	0	8.3740	0	32.6040	0	25.339	0	102.025	0	222.7	4	76.9	4	-1E+10	1	0.1617	4	0.000310	0	-1E+10	1	-1E+10	1	-1E+10	1
4902624	3	C	07/21/2024	16:31	-128.854	46.477	0	104.00	0	8.2925	0	32.6215	0	25.365	0	103.116	0	224.5	4	77.4	4	-1E+10	1	0.1679	4	0.000330	0	-1E+10	1	-1E+10	1	-1E+10	1
4902624	3	C	07/21/2024	16:31	-128.854	46.477	0	105.10	0	8.2110	0	32.6390	0	25.391	0	104.206	0	218.9	4	75.4	4	-1E+10	1	0.1555	4	0.000330	0	-1E+10	1	-1E+10	1	-1E+10	1
4902624	3	C	07/21/2024	16:31	-128.854	46.477	0	106.20	0	8.1815	0	32.6581	0	25.410	0	105.296	0	221.0	4	76.0	4	-1E+10	1	0.1652	4	0.000320	0	-1E+10	1	-1E+10	1	-1E+10	1
4902624	3	C	07/21/2024	16:31	-128.854	46.477	0	107.00	0	8.1600	0	32.6720	0	25.424	0	106.089	0	-1e10	1	-1e10	1	-1E+10	1	-1e10	1	-1e10	1	-1E+10	1	-1E+10	1	-1E+10	1
4902624	3	C	07/21/2024	16:31	-128.854	46.477	0	107.20	0	8.1553	0	32.6754	0	25.428	0	106.288	0	219.2	4	75.4	4	-1E+10	1	0.1626	4	0.000310	0	-1E+10	1	-1E+10	1	-1E+10	1
4902624	3	C	07/21/2024	16:31	-128.854	46.477	0	108.30	0	8.1294	0	32.6941	0	25.446	0	107.378	0	217.4	4	74.7	4	-1E+10	1	0.1460	4	0.000322	0	-1E+10	1	-1E+10	1	-1E+10	1
4902624	3	C	07/21/2024	16:31	-128.854	46.477	0	109.00	0	8.1130	0	32.7060	0	25.458	0	108.072	0	-1e10	1	-1e10	1	-1E+10	1	-1e10	1	-1e10	1	-1E+10	1	-1E+10	1	-1E+10	1
4902624	3	C	07/21/2024	16:31	-128.854	46.477	0	109.40	0	8.1062	0	32.7110	0	25.463	0	108.468	0	215.5	4	74.1	4	-1E+10	1	0.1341	4	0.000330	0	-1E+10	1	-1E+10	1	-1E+10	1
4902624	3	C	07/21/2024	16:31	-128.854	46.477	0	110.40	0	8.0892	0	32.7235	0	25.475	0	109.460	0	213.4	4	73.3	4	-1E+10	1	0.1314	4	0.000303	0	-1E+10	1	-1E+10	1	-1E+10	1
4902624	3	C	07/21/2024	16:31	-128.854	46.477	0	111.00	0	8.0790	0	32.7310	0	25.483	0	110.054	0	-1e10	1	-1e10	1	-1E+10	1	-1e10	1	-1e10	1	-1E+10	1	-1E+10	1	-1E+10	1
4902624	3	C	07/21/2024	16:31	-128.854	46.477	0	111.50	0	8.0513	0	32.7673	0	25.515	0	110.550	0	211.2	4	72.5	4	-1E+10	1	0.1292	4	0.000278	0	-1E+10	1	-1E+10	1	-1E+10	1
4902624	3	C	07/21/2024	16:31	-128.854	46.477	0	112.60	0	7.9902	0	32.8470	0	25.587	0	111.640	0	209.2	4	71.8	4	-1E+10	1	0.1241	4	0.000295	0	-1E+10	1	-1E+10	1	-1E+10	1
4902624	3	C	07/21/2024	16:31	-128.854	46.477	0	113.00	0	7.9680	0	32.8760	0	25.613	0	112.037	0	-1e10	1	-1e10	1	-1E+10	1	-1e10	1	-1e10	1	-1E+10	1	-1E+10	1	-1E+10	1
4902624	3	C	07/21/2024	16:31	-128.854	46.477	0	113.70	0	7.9516	0	32.9064	0	25.639	0	112.731	0	207.9	4	71.3	4	-1E+10	1	0.1217	4	0.000297	0	-1E+10	1	-1E+10	1	-1E+10	1
4902624	3	C	07/21/2024	16:31	-128.854	46.477	0	114.70	0	7.9281	0	32.9500	0	25.676	0	113.722	0	206.3	4	70.7	4	-1E+10	1	0.1095	4	0.000306	0	-1E+10	1	-1E+10	1	-1E+10	1
4902624	3	C	07/21/2024	16:31	-128.854	46.477	0	115.00	0	7.9210	0	32.9630	0	25.688	0	114.019	0	-1e10	1	-1e10	1	-1E+10	1	-1e10	1	-1e10	1	-1E+10	1	-1E+10	1	-1E+10	1
4902624	3	C	07/21/2024	16:31	-128.854	46.477	0	115.80	0	7.8998	0	32.9718	0	25.698	0	114.812	0	204.5	4	70.1	4	-1E+10	1	0.1038	4	0.000334	0	-1E+10	1	-1E+10	1	-1E+10	1
4902624	3	C	07/21/2024	16:31	-128.854	46.477	0	116.90	0	7.8706	0	32.9839	0	25.711	0	115.902	0	202.8	4	69.4	4	-1E+10	1	0.0847	4	0.000295	0	-1E+10	1	-1E+10	1	-1E+10	1
4902624	3	C	07/21/2024	16:31	-128.854	46.477	0	117.00	0	7.8680	0	32.9850	0	25.713	0	116.002	0	-1e10	1	-1e10	1	-1E+10	1	-1e10	1	-1e10	1	-1E+10	1	-1E+10	1	-1E+10	1
4902624	3	C	07/21/2024	16:31	-128.854	46.477	0	117.90	0	7.8122	0	33.0066	0	25.738	0	116.894	0	201.8	4	69.0	4	-1E+10	1	0.0848	4	0.000290	0	-1E+10	1	-1E+10	1	-1E+10	1
4902624	3	C	07/21/2024	16:31	-128.854	46.477	0	118.90	0	7.7502	0	33.0306	0	25.765	0	117.885	0	201.0	4	68.7	4	-1E+10	1	0.0942	4	0.000295	0	-1E+10	1	-1E+10	1	-1E+10	1
4902624	3	C	07/21/2024	16:31	-128.854	46.477	0	119.00	0	7.7440	0	33.0330	0	25.768	0	117.984	0	-1e10	1	-1e10	1	-1E+10	1	-1e10	1	-1e10	1	-1E+10	1	-1E+10	1	-1E+10	1
4902624	3	C	07/21/2024	16:31	-128.854	46.477	0	119.80	0	7.7168	0	33.0434	0	25.780	0	118.777	0	200.1	4	68.3	4	-1E+10	1	0.0928	4	0.000305	0	-1E+10	1	-1E+10	1	-1E+10	1
4902624	3	C	07/21/2024	16:31	-128.854	46.477	0	120.40	0	7.6964	0	33.0512	0	25.789	0	119.372	0	199.3	4	68.0	4	-1E+10	1	0.0761	4	0.000321	0	-1E+10	1	-1E+10	1	-1E+10	1
4902624	3	C	07/21/2024	16:31	-128.854	46.477	0	121.00	0	7.6760	0	33.0590	0	25.798	0	119.966	0	-1e10	1	-1e10	1	-1E+10	1	-1e10	1	-1e10	1	-1E+10	1	-1E+10	1	-1E+10	1
4902624	3	C	07/21/2024	16:31	-128.854	46.477	0	121.10	0	7.6727	0	33.0606	0	25.800	0	120.065	0	198.3	4	67.6	4	-1E+10	1	0.0673	4	0.000330	0	-1E+10	1	-1E+10	1	-1E+10	1
4902624	3	C	07/21/2024	16:31	-128.854	46.477	0	121.80	0	7.6496	0	33.0718	0	25.812	0	120.759	0	197.4	4	67.3	4	-1E+10	1	0.0730	4	0.000330	0	-1E+10	1	-1E+10	1	-1E+10	1
4902624	3	C	07/21/2024	16:31	-128.854	46.477	0	122.40	0	7.6298	0	33.0814	0	25.822	0	121.354	0	196.5	4	67.0	4	-1E+10	1	0.0876	4	0.000377	0	-1E+10	1	-1E+10	1	-1E+10	1
4902624	3	C	07/21/2024	16:31	-128.854	46.477	0	123.00	0	7.6100	0	33.0910	0	25.833	0	121.949	0	-1e10	1	-1e10	1	-1E+10	1	-1e10	1	-1e10	1	-1E+10	1	-1E+10	1	-1E+10	1
4902624	3	C	07/21/2024	16:31	-128.854	46.477	0	123.10	0	7.6072	0	33.0930	0	25.835	0	122.048	0	196.0	4	66.8	4	-1E+10	1	0.0748	4	0.000346	0	-1E+10	1	-1E+10	1	-1E+10	1
4902624	3	C	07/21/2024	16:31	-128.854	46.477	0	123.70	0	7.5904	0	33.1050	0	25.847	0	122.642	0	195.4	4	66.6	4	-1E+10	1	0.0684	4	0.000356	0	-1E+10	1	-1E+10	1	-1E+10	1
4902624	3	C	07/21/2024	16:31	-128.854	46.477	0	124.40	0	7.5708	0	33.1190	0	25.860	0	123.336	0	195.0	4	66.4	4	-1E+10	1	0.0657	4	0.000352	0	-1E+10	1	-1E+10	1	-1E+10	1
4902624	3	C	07/21/2024	16:31	-128.854	46.477	0	125.00	0	7.5540	0	33.1310	0	25.872	0	123.931	0	-1e10	1	-1e10	1	-1E+10	1	-1e10	1	-1e10	1	-1E+10	1	-1E+10	1	-1E+10	1
4902624	3	C	07/21/2024	16:31	-128.854	46.477	0	125.10	0	7.5518	0	33.1332	0	25.874	0	124.030	0	194.6	4	66.2	4	-1E+10	1	0.0657	4	0.000342	0	-1E+10	1	-1E+10	1	-1E+10	1
4902624	3	C	07/21/2024	16:31	-128.854	46.477	0	125.80	0	7.5368	0	33.1482	0	25.888	0	124.724	0	194.5	4	66.2	4	-1E+10	1	0.0633	4	0.000334	0	-1E+10	1	-1E+10	1	-1E+10	1
4902624	3	C	07/21/2024	16:31	-128.854	46.477	0	126.60	0	7.5196	0	33.1654	0	25.904	0	125.517	0	194.4	4	66.1	4	-1E+10	1	0.0584	4	0.000318	0	-1E+10	1	-1E+10	1	-1E+10	1
4902624	3	C	07/21/2024	16:31	-128.854	46.477	0	127.00	0	7.5110	0	33.1740	0	25.912	0	125.913	0	-1e10	1	-1e10	1	-1E+10	1	-1e10	1	-1e10	1	-1E+10	1	-1E+10	1	-1E+10	1
4902624	3	C	07/21/2024	16:31	-128.854	46.477	0	127.40	0	7.5066	0	33.1786	0	25.916	0	126.310	0	194.5	4	66.2	4	-1E+10	1	0.0584	4	0.000331	0	-1E+10	1	-1E+10	1	-1E+10	1
4902624	3	C	07/21/2024	16:31	-128.854	46.477	0	128.10	0	7.4989	0	33.1866	0	25.924	0	127.003	0	194.8	4	66.3	4	-1E+10	1	0.0584	4	0.000377	0	-1E+10	1	-1E+10	1	-1E+10	1
4902624	3	C	07/21/2024	16:31	-128.854	46.477	0	128.90	0	7.4901	0	33.1959	0	25.932	0	127.796	0	195.3	4	66.4	4	-1E+10	1	0.0701	4	0.000395	0	-1E+10	1	-1E+10	1	-1E+10	1
4902624	3	C	07/21/2024	16:31	-128.854	46.477	0	129.00	0	7.4890	0	33.1970	0	25.933	0	127.895	0	-1e10	1	-1e10	1	-1E+10	1	-1e10	1	-1e10	1	-1E+10	1	-1E+10	1	-1E+10	1
4902624	3	C	07/21/2024	16:31	-128.854	46.477	0	129.70	0	7.4799	0	33.2057	0	25.941	0	128.589	0	196.2	4	66.7	4	-1E+10	1	0.0620	4	0.000321	0	-1E+10	1	-1E+10	1	-1E+10	1
4902624	3	C	07/21/2024	16:31	-128.854	46.477	0	130.50	0	7.4695	0	33.2158	0	25.951	0	129.382	0	197.2	4	67.0	4	-1E+10	1	0.0584	4	0.000309	0	-1E+10	1	-1E+10	1	-1E+10	1
4902624	3	C	07/21/2024	16:31	-128.854	46.477	0	131.00	0	7.4630	0	33.2220	0	25.957	0	129.878	0	-1e10	1	-1e10	1	-1E+10	1	-1e10	1	-1e10	1	-1E+10	1	-1E+10	1	-1E+10	1
4902624	3	C	07/21/2024	16:31	-128.854	46.477	0	131.40	0	7.4561	0	33.2287	0	25.963	0	130.274	0	198.7	4	67.5	4	-1E+10	1	0.0584	4	0.000342	0	-1E+10	1	-1E+10	1	-1E+10	1
4902624	3	C	07/21/2024	16:31	-128.854	46.477	0	132.30	0	7.4404	0	33.2439	0	25.977	0	131.166	0	200.2	4	68.0	4	-1E+10	1	0.0552	4	0.000344	0	-1E+10	1	-1E+10	1	-1E+10	1
4902624	3	C	07/21/2024	16:31	-128.854	46.477	0	132.90	0	7.4300	0	33.2540	0	25.986	0	131.761	0	-1e10	1	-1e10	1	-1E+10	1	-1e10	1	-1e10	1	-1E+10	1	-1E+10	1	-1E+10	1
4902624	3	C	07/21/2024	16:31	-128.854	46.477	0	133.10	0	7.4295	0	33.2579	0	25.989	0	131.959	0	201.7	4	68.5	4	-1E+10	1	0.0511	4	0.000318	0	-1E+10	1	-1E+10	1	-1E+10	1
4902624	3	C	07/21/2024	16:31	-128.854	46.477	0	134.00	0	7.4274	0	33.2755	0	26.004	0	132.851	0	203.3	4	69.1	4	-1E+10	1	0.0524	4	0.000312	0	-1E+10	1	-1E+10	1	-1E+10	1
4902624	3	C	07/21/2024	16:31	-128.854	46.477	0	134.90	0	7.4252	0	33.2930	0	26.018	0	133.743	0	204.4	4	69.5	4	-1E+10	1	0.0584	4	0.000283	0	-1E+10	1	-1E+10	1	-1E+10	1
4902624	3	C	07/21/2024	16:31	-128.854	46.477	0	135.00	0	7.4250	0	33.2950	0	26.019	0	133.842	0	-1e10	1	-1e10	1	-1E+10	1	-1e10	1	-1e10	1	-1E+10	1	-1E+10	1	-1E+10	1
4902624	3	C	07/21/2024	16:31	-128.854	46.477	0	135.80	0	7.4292	0	33.3118	0	26.032	0	134.635	0	204.0	4	69.3	4	-1E+10	1	0.0438	4	0.000330	0	-1E+10	1	-1E+10	1	-1E+10	1
4902624	3	C	07/21/2024	16:31	-128.854	46.477	0	136.70	0	7.4339	0	33.3306	0	26.046	0	135.527	0	203.5	4	69.2	4	-1E+10	1	0.0438	4	0.000330	0	-1E+10	1	-1E+10	1	-1E+10	1
4902624	3	C	07/21/2024	16:31	-128.854	46.477	0	137.10	0	7.4360	0	33.3390	0	26.052	0	135.923	0	-1e10	1	-1e10	1	-1E+10	1	-1e10	1	-1e10	1	-1E+10	1	-1E+10	1	-1E+10	1
4902624	3	C	07/21/2024	16:31	-128.854	46.477	0	137.60	0	7.4257	0	33.3482	0	26.061	0	136.419	0	203.0	4	69.0	4	-1E+10	1	0.0438	4	0.000300	0	-1E+10	1	-1E+10	1	-1E+10	1
4902624	3	C	07/21/2024	16:31	-128.854	46.477	0	138.60	0	7.4052	0	33.3665	0	26.078	0	137.410	0	202.6	4	68.8	4	-1E+10	1	0.0487	4	0.000290	0	-1E+10	1	-1E+10	1	-1E+10	1
4902624	3	C	07/21/2024	16:31	-128.854	46.477	0	138.90	0	7.3990	0	33.3720	0	26.084	0	137.707	0	-1e10	1	-1e10	1	-1E+10	1	-1e10	1	-1e10	1	-1E+10	1	-1E+10	1	-1E+10	1
4902624	3	C	07/21/2024	16:31	-128.854	46.477	0	139.50	0	7.3884	0	33.3774	0	26.089	0	138.302	0	201.9	4	68.6	4	-1E+10	1	0.0548	4	0.000318	0	-1E+10	1	-1E+10	1	-1E+10	1
4902624	3	C	07/21/2024	16:31	-128.854	46.477	0	140.50	0	7.3708	0	33.3865	0	26.099	0	139.293	0	201.2	4	68.3	4	-1E+10	1	0.0557	4	0.000363	0	-1E+10	1	-1E+10	1	-1E+10	1
4902624	3	C	07/21/2024	16:31	-128.854	46.477	0	141.00	0	7.3620	0	33.3910	0	26.104	0	139.789	0	-1e10	1	-1e10	1	-1E+10	1	-1e10	1	-1e10	1	-1E+10	1	-1E+10	1	-1E+10	1
4902624	3	C	07/21/2024	16:31	-128.854	46.477	0	141.50	0	7.3525	0	33.3960	0	26.109	0	140.284	0	200.7	4	68.1	4	-1E+10	1	0.0445	4	0.000379	0	-1E+10	1	-1E+10	1	-1E+10	1
4902624	3	C	07/21/2024	16:31	-128.854	46.477	0	142.40	0	7.3355	0	33.4050	0	26.118	0	141.176	0	200.2	4	68.0	4	-1E+10	1	0.0316	4	0.000338	0	-1E+10	1	-1E+10	1	-1E+10	1
4902624	3	C	07/21/2024	16:31	-128.854	46.477	0	142.90	0	7.3260	0	33.4100	0	26.124	0	141.672	0	-1e10	1	-1e10	1	-1E+10	1	-1e10	1	-1e10	1	-1E+10	1	-1E+10	1	-1E+10	1
4902624	3	C	07/21/2024	16:31	-128.854	46.477	0	143.40	0	7.3212	0	33.4157	0	26.129	0	142.167	0	199.6	4	67.7	4	-1E+10	1	0.0438	4	0.000377	0	-1E+10	1	-1E+10	1	-1E+10	1
4902624	3	C	07/21/2024	16:31	-128.854	46.477	0	144.50	0	7.3108	0	33.4283	0	26.140	0	143.257	0	198.7	4	67.4	4	-1E+10	1	0.0376	4	0.000337	0	-1E+10	1	-1E+10	1	-1E+10	1
4902624	3	C	07/21/2024	16:31	-128.854	46.477	0	145.00	0	7.3060	0	33.4340	0	26.145	0	143.753	0	-1e10	1	-1e10	1	-1E+10	1	-1e10	1	-1e10	1	-1E+10	1	-1E+10	1	-1E+10	1
4902624	3	C	07/21/2024	16:31	-128.854	46.477	0	145.50	0	7.2948	0	33.4435	0	26.154	0	144.248	0	197.9	4	67.1	4	-1E+10	1	0.0482	4	0.000320	0	-1E+10	1	-1E+10	1	-1E+10	1
4902624	3	C	07/21/2024	16:31	-128.854	46.477	0	146.60	0	7.2700	0	33.4644	0	26.174	0	145.339	0	196.9	4	66.8	4	-1E+10	1	0.0511	4	0.000326	0	-1E+10	1	-1E+10	1	-1E+10	1
4902624	3	C	07/21/2024	16:31	-128.854	46.477	0	147.00	0	7.2610	0	33.4720	0	26.181	0	145.735	0	-1e10	1	-1e10	1	-1E+10	1	-1e10	1	-1e10	1	-1E+10	1	-1E+10	1	-1E+10	1
4902624	3	C	07/21/2024	16:31	-128.854	46.477	0	147.70	0	7.2575	0	33.4741	0	26.184	0	146.429	0	195.8	4	66.4	4	-1E+10	1	0.0393	4	0.000336	0	-1E+10	1	-1E+10	1	-1E+10	1
4902624	3	C	07/21/2024	16:31	-128.854	46.477	0	148.70	0	7.2525	0	33.4771	0	26.187	0	147.420	0	194.5	4	65.9	4	-1E+10	1	0.0345	4	0.000363	0	-1E+10	1	-1E+10	1	-1E+10	1
4902624	3	C	07/21/2024	16:31	-128.854	46.477	0	149.00	0	7.2510	0	33.4780	0	26.188	0	147.717	0	-1e10	1	-1e10	1	-1E+10	1	-1e10	1	-1e10	1	-1E+10	1	-1E+10	1	-1E+10	1
4902624	3	C	07/21/2024	16:31	-128.854	46.477	0	149.80	0	7.2322	0	33.4900	0	26.200	0	148.510	0	193.0	4	65.4	4	-1E+10	1	0.0438	4	0.000380	0	-1E+10	1	-1E+10	1	-1E+10	1
4902624	3	C	07/21/2024	16:31	-128.854	46.477	0	150.80	0	7.2087	0	33.5050	0	26.215	0	149.501	0	191.7	4	64.9	4	-1E+10	1	0.0427	4	0.000345	0	-1E+10	1	-1E+10	1	-1E+10	1
4902624	3	C	07/21/2024	16:31	-128.854	46.477	0	151.00	0	7.2040	0	33.5080	0	26.218	0	149.699	0	-1e10	1	-1e10	1	-1E+10	1	-1e10	1	-1e10	1	-1E+10	1	-1E+10	1	-1E+10	1
4902624	3	C	07/21/2024	16:31	-128.854	46.477	0	151.90	0	7.1873	0	33.5179	0	26.228	0	150.591	0	190.4	4	64.5	4	-1E+10	1	0.0365	4	0.000365	0	-1E+10	1	-1E+10	1	-1E+10	1
4902624	3	C	07/21/2024	16:31	-128.854	46.477	0	153.00	0	7.1670	0	33.5300	0	26.240	0	151.681	0	184.3	4	62.4	4	-1E+10	1	0.0511	4	0.000364	0	-1E+10	1	-1E+10	1	-1E+10	1
4902624	3	C	07/21/2024	16:31	-128.854	46.477	0	154.10	0	7.1472	0	33.5410	0	26.252	0	152.771	0	187.6	4	63.5	4	-1E+10	1	0.0511	4	0.000355	0	-1E+10	1	-1E+10	1	-1E+10	1
4902624	3	C	07/21/2024	16:31	-128.854	46.477	0	155.00	0	7.1310	0	33.5500	0	26.261	0	153.663	0	-1e10	1	-1e10	1	-1E+10	1	-1e10	1	-1e10	1	-1E+10	1	-1E+10	1	-1E+10	1
4902624	3	C	07/21/2024	16:31	-128.854	46.477	0	155.20	0	7.1278	0	33.5524	0	26.263	0	153.861	0	186.3	4	63.0	4	-1E+10	1	0.0511	4	0.000345	0	-1E+10	1	-1E+10	1	-1E+10	1
4902624	3	C	07/21/2024	16:31	-128.854	46.477	0	156.30	0	7.1102	0	33.5656	0	26.276	0	154.951	0	185.1	4	62.6	4	-1E+10	1	0.0418	4	0.000491	0	-1E+10	1	-1E+10	1	-1E+10	1
4902624	3	C	07/21/2024	16:31	-128.854	46.477	0	157.00	0	7.0990	0	33.5740	0	26.284	0	155.645	0	-1e10	1	-1e10	1	-1E+10	1	-1e10	1	-1e10	1	-1E+10	1	-1E+10	1	-1E+10	1
4902624	3	C	07/21/2024	16:31	-128.854	46.477	0	157.40	0	7.0970	0	33.5752	0	26.285	0	156.042	0	183.8	4	62.1	4	-1E+10	1	0.0444	4	0.000443	0	-1E+10	1	-1E+10	1	-1E+10	1
4902624	3	C	07/21/2024	16:31	-128.854	46.477	0	158.50	0	7.0915	0	33.5785	0	26.289	0	157.132	0	182.5	4	61.7	4	-1E+10	1	0.0483	4	0.000334	0	-1E+10	1	-1E+10	1	-1E+10	1
4902624	3	C	07/21/2024	16:31	-128.854	46.477	0	159.00	0	7.0890	0	33.5800	0	26.290	0	157.627	0	-1e10	1	-1e10	1	-1E+10	1	-1e10	1	-1e10	1	-1E+10	1	-1E+10	1	-1E+10	1
4902624	3	C	07/21/2024	16:31	-128.854	46.477	0	159.50	0	7.0864	0	33.5812	0	26.292	0	158.123	0	181.2	4	61.2	4	-1E+10	1	0.0438	4	0.000339	0	-1E+10	1	-1E+10	1	-1E+10	1
4902624	3	C	07/21/2024	16:31	-128.854	46.477	0	160.60	0	7.0806	0	33.5838	0	26.294	0	159.213	0	179.5	4	60.6	4	-1E+10	1	0.0427	4	0.000331	0	-1E+10	1	-1E+10	1	-1E+10	1
4902624	3	C	07/21/2024	16:31	-128.854	46.477	0	161.10	0	7.0780	0	33.5850	0	26.296	0	159.708	0	-1e10	1	-1e10	1	-1E+10	1	-1e10	1	-1e10	1	-1E+10	1	-1E+10	1	-1E+10	1
4902624	3	C	07/21/2024	16:31	-128.854	46.477	0	161.70	0	7.0723	0	33.5882	0	26.299	0	160.303	0	177.7	4	60.0	4	-1E+10	1	0.0365	4	0.000341	0	-1E+10	1	-1E+10	1	-1E+10	1
4902624	3	C	07/21/2024	16:31	-128.854	46.477	0	162.80	0	7.0619	0	33.5939	0	26.305	0	161.393	0	176.3	4	59.6	4	-1E+10	1	0.0550	4	0.000380	0	-1E+10	1	-1E+10	1	-1E+10	1
4902624	3	C	07/21/2024	16:31	-128.854	46.477	0	163.00	0	7.0600	0	33.5950	0	26.306	0	161.591	0	-1e10	1	-1e10	1	-1E+10	1	-1e10	1	-1e10	1	-1E+10	1	-1E+10	1	-1E+10	1
4902624	3	C	07/21/2024	16:31	-128.854	46.477	0	163.90	0	7.0474	0	33.6035	0	26.315	0	162.483	0	175.2	4	59.2	4	-1E+10	1	0.0524	4	0.000350	0	-1E+10	1	-1E+10	1	-1E+10	1
4902624	3	C	07/21/2024	16:31	-128.854	46.477	0	165.00	0	7.0320	0	33.6140	0	26.325	0	163.573	0	169.7	4	57.3	4	-1E+10	1	0.0620	4	0.000359	0	-1E+10	1	-1E+10	1	-1E+10	1
4902624	3	C	07/21/2024	16:31	-128.854	46.477	0	166.20	0	7.0212	0	33.6212	0	26.332	0	164.762	0	173.3	4	58.5	4	-1E+10	1	0.0556	4	0.000373	0	-1E+10	1	-1E+10	1	-1E+10	1
4902624	3	C	07/21/2024	16:31	-128.854	46.477	0	167.00	0	7.0140	0	33.6260	0	26.337	0	165.555	0	-1e10	1	-1e10	1	-1E+10	1	-1e10	1	-1e10	1	-1E+10	1	-1E+10	1	-1E+10	1
4902624	3	C	07/21/2024	16:31	-128.854	46.477	0	167.30	0	7.0154	0	33.6286	0	26.339	0	165.852	0	172.4	4	58.2	4	-1E+10	1	0.0465	4	0.000384	0	-1E+10	1	-1E+10	1	-1E+10	1
4902624	3	C	07/21/2024	16:31	-128.854	46.477	0	168.40	0	7.0207	0	33.6380	0	26.345	0	166.942	0	171.5	4	57.9	4	-1E+10	1	0.0359	4	0.000413	0	-1E+10	1	-1E+10	1	-1E+10	1
4902624	3	C	07/21/2024	16:31	-128.854	46.477	0	169.10	0	7.0240	0	33.6440	0	26.350	0	167.636	0	-1e10	1	-1e10	1	-1E+10	1	-1e10	1	-1e10	1	-1E+10	1	-1E+10	1	-1E+10	1
4902624	3	C	07/21/2024	16:31	-128.854	46.477	0	169.50	0	7.0274	0	33.6480	0	26.352	0	168.032	0	170.7	4	57.6	4	-1E+10	1	0.0344	4	0.000427	0	-1E+10	1	-1E+10	1	-1E+10	1
4902624	3	C	07/21/2024	16:31	-128.854	46.477	0	170.60	0	7.0366	0	33.6590	0	26.360	0	169.122	0	170.1	4	57.4	4	-1E+10	1	0.0451	4	0.000403	0	-1E+10	1	-1E+10	1	-1E+10	1
4902624	3	C	07/21/2024	16:31	-128.854	46.477	0	171.00	0	7.0400	0	33.6630	0	26.363	0	169.519	0	-1e10	1	-1e10	1	-1E+10	1	-1e10	1	-1e10	1	-1E+10	1	-1E+10	1	-1E+10	1
4902624	3	C	07/21/2024	16:31	-128.854	46.477	0	171.70	0	7.0239	0	33.6651	0	26.366	0	170.212	0	169.9	4	57.4	4	-1E+10	1	0.0500	4	0.000374	0	-1E+10	1	-1E+10	1	-1E+10	1
4902624	3	C	07/21/2024	16:31	-128.854	46.477	0	172.80	0	6.9986	0	33.6684	0	26.372	0	171.302	0	169.5	4	57.2	4	-1E+10	1	0.0438	4	0.000423	0	-1E+10	1	-1E+10	1	-1E+10	1
4902624	3	C	07/21/2024	16:31	-128.854	46.477	0	173.00	0	6.9940	0	33.6690	0	26.374	0	171.500	0	-1e10	1	-1e10	1	-1E+10	1	-1e10	1	-1e10	1	-1E+10	1	-1E+10	1	-1E+10	1
4902624	3	C	07/21/2024	16:31	-128.854	46.477	0	173.90	0	6.9855	0	33.6699	0	26.375	0	172.392	0	168.6	4	56.9	4	-1E+10	1	0.0562	4	0.000384	0	-1E+10	1	-1E+10	1	-1E+10	1
4902624	3	C	07/21/2024	16:31	-128.854	46.477	0	174.90	0	6.9760	0	33.6710	0	26.378	0	173.383	0	-1e10	1	-1e10	1	-1E+10	1	-1e10	1	-1e10	1	-1E+10	1	-1E+10	1	-1E+10	1
4902624	3	C	07/21/2024	16:31	-128.854	46.477	0	175.00	0	6.9752	0	33.6716	0	26.378	0	173.482	0	167.9	4	56.6	4	-1E+10	1	0.0465	4	0.000405	0	-1E+10	1	-1E+10	1	-1E+10	1
4902624	3	C	07/21/2024	16:31	-128.854	46.477	0	176.00	0	6.9676	0	33.6773	0	26.384	0	174.473	0	167.1	4	56.4	4	-1E+10	1	0.0438	4	0.000411	0	-1E+10	1	-1E+10	1	-1E+10	1
4902624	3	C	07/21/2024	16:31	-128.854	46.477	0	177.00	0	6.9600	0	33.6830	0	26.389	0	175.464	0	-1e10	1	-1e10	1	-1E+10	1	-1e10	1	-1e10	1	-1E+10	1	-1E+10	1	-1E+10	1
4902624	3	C	07/21/2024	16:31	-128.854	46.477	0	177.10	0	6.9576	0	33.6835	0	26.390	0	175.563	0	166.1	4	56.0	4	-1E+10	1	0.0472	4	0.000433	0	-1E+10	1	-1E+10	1	-1E+10	1
4902624	3	C	07/21/2024	16:31	-128.854	46.477	0	178.20	0	6.9314	0	33.6887	0	26.398	0	176.653	0	164.6	4	55.5	4	-1E+10	1	0.0538	4	0.000446	0	-1E+10	1	-1E+10	1	-1E+10	1
4902624	3	C	07/21/2024	16:31	-128.854	46.477	0	179.10	0	6.9100	0	33.6930	0	26.404	0	177.545	0	-1e10	1	-1e10	1	-1E+10	1	-1e10	1	-1e10	1	-1E+10	1	-1E+10	1	-1E+10	1
4902624	3	C	07/21/2024	16:31	-128.854	46.477	0	179.30	0	6.9080	0	33.6949	0	26.406	0	177.743	0	163.2	4	55.0	4	-1E+10	1	0.0539	4	0.000412	0	-1E+10	1	-1E+10	1	-1E+10	1
4902624	3	C	07/21/2024	16:31	-128.854	46.477	0	180.40	0	6.8970	0	33.7053	0	26.415	0	178.833	0	162.0	4	54.6	4	-1E+10	1	0.0449	4	0.000384	0	-1E+10	1	-1E+10	1	-1E+10	1
4902624	3	C	07/21/2024	16:31	-128.854	46.477	0	181.00	0	6.8910	0	33.7110	0	26.421	0	179.428	0	-1e10	1	-1e10	1	-1E+10	1	-1e10	1	-1e10	1	-1E+10	1	-1E+10	1	-1E+10	1
4902624	3	C	07/21/2024	16:31	-128.854	46.477	0	181.50	0	6.8837	0	33.7152	0	26.425	0	179.923	0	161.1	4	54.2	4	-1E+10	1	0.0511	4	0.000365	0	-1E+10	1	-1E+10	1	-1E+10	1
4902624	3	C	07/21/2024	16:31	-128.854	46.477	0	182.60	0	6.8678	0	33.7246	0	26.434	0	181.013	0	160.1	4	53.9	4	-1E+10	1	0.0438	4	0.000400	0	-1E+10	1	-1E+10	1	-1E+10	1
4902624	3	C	07/21/2024	16:31	-128.854	46.477	0	183.00	0	6.8620	0	33.7280	0	26.438	0	181.409	0	-1e10	1	-1e10	1	-1E+10	1	-1e10	1	-1e10	1	-1E+10	1	-1E+10	1	-1E+10	1
4902624	3	C	07/21/2024	16:31	-128.854	46.477	0	183.70	0	6.8582	0	33.7301	0	26.440	0	182.103	0	158.7	4	53.4	4	-1E+10	1	0.0500	4	0.000439	0	-1E+10	1	-1E+10	1	-1E+10	1
4902624	3	C	07/21/2024	16:31	-128.854	46.477	0	184.80	0	6.8521	0	33.7334	0	26.444	0	183.193	0	157.1	4	52.9	4	-1E+10	1	0.0410	4	0.000414	0	-1E+10	1	-1E+10	1	-1E+10	1
4902624	3	C	07/21/2024	16:31	-128.854	46.477	0	185.00	0	6.8510	0	33.7340	0	26.444	0	183.391	0	-1e10	1	-1e10	1	-1E+10	1	-1e10	1	-1e10	1	-1E+10	1	-1E+10	1	-1E+10	1
4902624	3	C	07/21/2024	16:31	-128.854	46.477	0	185.90	0	6.8505	0	33.7389	0	26.448	0	184.283	0	155.4	4	52.3	4	-1E+10	1	0.0411	4	0.000467	0	-1E+10	1	-1E+10	1	-1E+10	1
4902624	3	C	07/21/2024	16:31	-128.854	46.477	0	187.00	0	6.8500	0	33.7450	0	26.453	0	185.373	0	150.3	4	50.6	4	-1E+10	1	0.0474	4	0.000458	0	-1E+10	1	-1E+10	1	-1E+10	1
4902624	3	C	07/21/2024	16:31	-128.854	46.477	0	188.10	0	6.8428	0	33.7500	0	26.458	0	186.463	0	153.6	4	51.7	4	-1E+10	1	0.0511	4	0.000418	0	-1E+10	1	-1E+10	1	-1E+10	1
4902624	3	C	07/21/2024	16:31	-128.854	46.477	0	189.00	0	6.8370	0	33.7540	0	26.462	0	187.354	0	-1e10	1	-1e10	1	-1E+10	1	-1e10	1	-1e10	1	-1E+10	1	-1E+10	1	-1E+10	1
4902624	3	C	07/21/2024	16:31	-128.854	46.477	0	189.30	0	6.8349	0	33.7543	0	26.462	0	187.652	0	152.6	4	51.3	4	-1E+10	1	0.0511	4	0.000425	0	-1E+10	1	-1E+10	1	-1E+10	1
4902624	3	C	07/21/2024	16:31	-128.854	46.477	0	190.40	0	6.8270	0	33.7553	0	26.464	0	188.742	0	151.3	4	50.9	4	-1E+10	1	0.0521	4	0.000405	0	-1E+10	1	-1E+10	1	-1E+10	1
4902624	3	C	07/21/2024	16:31	-128.854	46.477	0	191.10	0	6.8220	0	33.7560	0	26.465	0	189.435	0	-1e10	1	-1e10	1	-1E+10	1	-1e10	1	-1e10	1	-1E+10	1	-1E+10	1	-1E+10	1
4902624	3	C	07/21/2024	16:31	-128.854	46.477	0	191.60	0	6.8117	0	33.7571	0	26.468	0	189.931	0	149.8	4	50.4	4	-1E+10	1	0.0584	4	0.000435	0	-1E+10	1	-1E+10	1	-1E+10	1
4902624	3	C	07/21/2024	16:31	-128.854	46.477	0	192.70	0	6.7892	0	33.7594	0	26.473	0	191.021	0	147.7	4	49.6	4	-1E+10	1	0.0584	4	0.000405	0	-1E+10	1	-1E+10	1	-1E+10	1
4902624	3	C	07/21/2024	16:31	-128.854	46.477	0	193.00	0	6.7830	0	33.7600	0	26.474	0	191.318	0	-1e10	1	-1e10	1	-1E+10	1	-1e10	1	-1e10	1	-1E+10	1	-1E+10	1	-1E+10	1
4902624	3	C	07/21/2024	16:31	-128.854	46.477	0	193.80	0	6.7702	0	33.7656	0	26.480	0	192.110	0	145.4	4	48.9	4	-1E+10	1	0.0584	4	0.000409	0	-1E+10	1	-1E+10	1	-1E+10	1
4902624	3	C	07/21/2024	16:31	-128.854	46.477	0	195.00	0	6.7510	0	33.7740	0	26.489	0	193.299	0	139.9	4	47.0	4	-1E+10	1	0.0438	4	0.000411	0	-1E+10	1	-1E+10	1	-1E+10	1
4902624	3	C	07/21/2024	16:31	-128.854	46.477	0	196.10	0	6.7438	0	33.7789	0	26.494	0	194.389	0	142.1	4	47.7	4	-1E+10	1	0.0432	4	0.000395	0	-1E+10	1	-1E+10	1	-1E+10	1
4902624	3	C	07/21/2024	16:31	-128.854	46.477	0	197.00	0	6.7380	0	33.7830	0	26.498	0	195.281	0	-1e10	1	-1e10	1	-1E+10	1	-1e10	1	-1e10	1	-1E+10	1	-1E+10	1	-1E+10	1
4902624	3	C	07/21/2024	16:31	-128.854	46.477	0	197.30	0	6.7350	0	33.7848	0	26.500	0	195.578	0	141.0	4	47.3	4	-1E+10	1	0.0511	4	0.000371	0	-1E+10	1	-1E+10	1	-1E+10	1
4902624	3	C	07/21/2024	16:31	-128.854	46.477	0	198.40	0	6.7240	0	33.7914	0	26.507	0	196.668	0	140.1	4	47.0	4	-1E+10	1	0.0511	4	0.000373	0	-1E+10	1	-1E+10	1	-1E+10	1
4902624	3	C	07/21/2024	16:31	-128.854	46.477	0	199.00	0	6.7180	0	33.7950	0	26.510	0	197.263	0	-1e10	1	-1e10	1	-1E+10	1	-1e10	1	-1e10	1	-1E+10	1	-1E+10	1	-1E+10	1
4902624	3	C	07/21/2024	16:31	-128.854	46.477	0	199.60	0	6.7150	0	33.7956	0	26.511	0	197.857	0	139.1	4	46.7	4	-1E+10	1	0.0495	4	0.000390	0	-1E+10	1	-1E+10	1	-1E+10	1
4902624	3	C	07/21/2024	16:31	-128.854	46.477	0	200.70	0	6.7095	0	33.7967	0	26.513	0	198.947	0	138.1	4	46.3	4	-1E+10	1	0.0438	4	0.000400	0	-1E+10	1	-1E+10	1	-1E+10	1
4902624	3	C	07/21/2024	16:31	-128.854	46.477	0	201.00	0	6.7080	0	33.7970	0	26.513	0	199.244	0	-1e10	1	-1e10	1	-1E+10	1	-1e10	1	-1e10	1	-1E+10	1	-1E+10	1	-1E+10	1
4902624	3	C	07/21/2024	16:31	-128.854	46.477	0	201.90	0	6.7057	0	33.7984	0	26.515	0	200.136	0	137.0	4	46.0	4	-1E+10	1	0.0438	4	0.000411	0	-1E+10	1	-1E+10	1	-1E+10	1
4902624	3	C	07/21/2024	16:31	-128.854	46.477	0	203.00	0	6.7030	0	33.8000	0	26.516	0	201.226	0	-1e10	1	-1e10	1	-1E+10	1	-1e10	1	-1e10	1	-1E+10	1	-1E+10	1	-1E+10	1
4902624	3	C	07/21/2024	16:31	-128.854	46.477	0	203.10	0	6.7026	0	33.8002	0	26.516	0	201.325	0	136.0	4	45.6	4	-1E+10	1	0.0501	4	0.000421	0	-1E+10	1	-1E+10	1	-1E+10	1
4902624	3	C	07/21/2024	16:31	-128.854	46.477	0	204.30	0	6.6978	0	33.8026	0	26.519	0	202.514	0	135.0	4	45.3	4	-1E+10	1	0.0459	4	0.000398	0	-1E+10	1	-1E+10	1	-1E+10	1
4902624	3	C	07/21/2024	16:31	-128.854	46.477	0	205.00	0	6.6950	0	33.8040	0	26.520	0	203.207	0	-1e10	1	-1e10	1	-1E+10	1	-1e10	1	-1e10	1	-1E+10	1	-1E+10	1	-1E+10	1
4902624	3	C	07/21/2024	16:31	-128.854	46.477	0	205.50	0	6.6940	0	33.8043	0	26.521	0	203.703	0	134.0	4	44.9	4	-1E+10	1	0.0438	4	0.000388	0	-1E+10	1	-1E+10	1	-1E+10	1
4902624	3	C	07/21/2024	16:31	-128.854	46.477	0	206.60	0	6.6918	0	33.8048	0	26.522	0	204.793	0	133.0	4	44.6	4	-1E+10	1	0.0404	4	0.000404	0	-1E+10	1	-1E+10	1	-1E+10	1
4902624	3	C	07/21/2024	16:31	-128.854	46.477	0	207.00	0	6.6910	0	33.8050	0	26.522	0	205.189	0	-1e10	1	-1e10	1	-1E+10	1	-1e10	1	-1e10	1	-1E+10	1	-1E+10	1	-1E+10	1
4902624	3	C	07/21/2024	16:31	-128.854	46.477	0	207.80	0	6.6854	0	33.8066	0	26.524	0	205.981	0	131.8	4	44.2	4	-1E+10	1	0.0386	4	0.000426	0	-1E+10	1	-1E+10	1	-1E+10	1
4902624	3	C	07/21/2024	16:31	-128.854	46.477	0	209.00	0	6.6770	0	33.8090	0	26.527	0	207.170	0	127.2	4	42.7	4	-1E+10	1	0.0462	4	0.000695	0	-1E+10	1	-1E+10	1	-1E+10	1
4902624	3	C	07/21/2024	16:31	-128.854	46.477	0	210.20	0	6.6759	0	33.8113	0	26.529	0	208.359	0	129.7	4	43.5	4	-1E+10	1	0.0584	4	0.001769	0	-1E+10	1	-1E+10	1	-1E+10	1
4902624	3	C	07/21/2024	16:31	-128.854	46.477	0	211.10	0	6.6750	0	33.8130	0	26.530	0	209.251	0	-1e10	1	-1e10	1	-1E+10	1	-1e10	1	-1e10	1	-1E+10	1	-1E+10	1	-1E+10	1
4902624	3	C	07/21/2024	16:31	-128.854	46.477	0	211.40	0	6.6725	0	33.8133	0	26.531	0	209.548	0	128.7	4	43.2	4	-1E+10	1	0.0584	4	0.000411	0	-1E+10	1	-1E+10	1	-1E+10	1
4902624	3	C	07/21/2024	16:31	-128.854	46.477	0	212.60	0	6.6624	0	33.8146	0	26.533	0	210.737	0	127.4	4	42.7	4	-1E+10	1	0.0467	4	0.000392	0	-1E+10	1	-1E+10	1	-1E+10	1
4902624	3	C	07/21/2024	16:31	-128.854	46.477	0	213.00	0	6.6590	0	33.8150	0	26.534	0	211.133	0	-1e10	1	-1e10	1	-1E+10	1	-1e10	1	-1e10	1	-1E+10	1	-1E+10	1	-1E+10	1
4902624	3	C	07/21/2024	16:31	-128.854	46.477	0	213.80	0	6.6552	0	33.8154	0	26.535	0	211.926	0	125.9	4	42.2	4	-1E+10	1	0.0548	4	0.000405	0	-1E+10	1	-1E+10	1	-1E+10	1
4902624	3	C	07/21/2024	16:31	-128.854	46.477	0	214.90	0	6.6500	0	33.8160	0	26.536	0	213.016	0	-1e10	1	-1e10	1	-1E+10	1	-1e10	1	-1e10	1	-1E+10	1	-1E+10	1	-1E+10	1
4902624	3	C	07/21/2024	16:31	-128.854	46.477	0	215.10	0	6.6509	0	33.8165	0	26.536	0	213.214	0	124.0	4	41.5	4	-1E+10	1	0.0532	4	0.000420	0	-1E+10	1	-1E+10	1	-1E+10	1
4902624	3	C	07/21/2024	16:31	-128.854	46.477	0	216.30	0	6.6563	0	33.8195	0	26.538	0	214.403	0	122.2	4	40.9	4	-1E+10	1	0.0594	4	0.000395	0	-1E+10	1	-1E+10	1	-1E+10	1
4902624	3	C	07/21/2024	16:31	-128.854	46.477	0	216.90	0	6.6590	0	33.8210	0	26.539	0	214.997	0	-1e10	1	-1e10	1	-1E+10	1	-1e10	1	-1e10	1	-1E+10	1	-1E+10	1	-1E+10	1
4902624	3	C	07/21/2024	16:31	-128.854	46.477	0	217.40	0	6.6619	0	33.8231	0	26.540	0	215.492	0	120.8	4	40.5	4	-1E+10	1	0.0657	4	0.000434	0	-1E+10	1	-1E+10	1	-1E+10	1
4902624	3	C	07/21/2024	16:31	-128.854	46.477	0	218.40	0	6.6676	0	33.8274	0	26.543	0	216.483	0	119.8	4	40.2	4	-1E+10	1	0.0604	4	0.000509	0	-1E+10	1	-1E+10	1	-1E+10	1
4902624	3	C	07/21/2024	16:31	-128.854	46.477	0	219.00	0	6.6710	0	33.8300	0	26.544	0	217.078	0	-1e10	1	-1e10	1	-1E+10	1	-1e10	1	-1e10	1	-1E+10	1	-1E+10	1	-1E+10	1
4902624	3	C	07/21/2024	16:31	-128.854	46.477	0	219.20	0	6.6710	0	33.8304	0	26.545	0	217.276	0	119.0	4	39.9	4	-1E+10	1	0.0519	4	0.000605	0	-1E+10	1	-1E+10	1	-1E+10	1
4902624	3	C	07/21/2024	16:31	-128.854	46.477	0	220.00	0	6.6710	0	33.8320	0	26.546	0	218.068	0	118.3	4	39.7	4	-1E+10	1	0.0584	4	0.001314	0	-1E+10	1	-1E+10	1	-1E+10	1
4902624	3	C	07/21/2024	16:31	-128.854	46.477	0	220.80	0	6.6710	0	33.8336	0	26.547	0	218.861	0	117.7	4	39.5	4	-1E+10	1	0.0803	4	0.006359	0	-1E+10	1	-1E+10	1	-1E+10	1
4902624	3	C	07/21/2024	16:31	-128.854	46.477	0	221.00	0	6.6710	0	33.8340	0	26.547	0	219.059	0	-1e10	1	-1e10	1	-1E+10	1	-1e10	1	-1e10	1	-1E+10	1	-1E+10	1	-1E+10	1
4902624	3	C	07/21/2024	16:31	-128.854	46.477	0	221.60	0	6.6685	0	33.8359	0	26.549	0	219.653	0	117.1	4	39.3	4	-1E+10	1	0.0608	4	0.001969	0	-1E+10	1	-1E+10	1	-1E+10	1
4902624	3	C	07/21/2024	16:31	-128.854	46.477	0	222.30	0	6.6655	0	33.8381	0	26.551	0	220.347	0	116.7	4	39.1	4	-1E+10	1	0.0496	4	0.000878	0	-1E+10	1	-1E+10	1	-1E+10	1
4902624	3	C	07/21/2024	16:31	-128.854	46.477	0	222.90	0	6.6630	0	33.8400	0	26.553	0	220.941	0	-1e10	1	-1e10	1	-1E+10	1	-1e10	1	-1e10	1	-1E+10	1	-1E+10	1	-1E+10	1
4902624	3	C	07/21/2024	16:31	-128.854	46.477	0	223.10	0	6.6624	0	33.8404	0	26.554	0	221.139	0	116.1	4	38.9	4	-1E+10	1	0.0480	4	0.000544	0	-1E+10	1	-1E+10	1	-1E+10	1
4902624	3	C	07/21/2024	16:31	-128.854	46.477	0	224.00	0	6.6595	0	33.8420	0	26.555	0	222.031	0	115.5	4	38.7	4	-1E+10	1	0.0467	4	0.000535	0	-1E+10	1	-1E+10	1	-1E+10	1
4902624	3	C	07/21/2024	16:31	-128.854	46.477	0	224.80	0	6.6570	0	33.8435	0	26.557	0	222.824	0	114.8	4	38.5	4	-1E+10	1	0.0438	4	0.001610	0	-1E+10	1	-1E+10	1	-1E+10	1
4902624	3	C	07/21/2024	16:31	-128.854	46.477	0	225.10	0	6.6560	0	33.8440	0	26.557	0	223.121	0	-1e10	1	-1e10	1	-1E+10	1	-1e10	1	-1e10	1	-1E+10	1	-1E+10	1	-1E+10	1
4902624	3	C	07/21/2024	16:31	-128.854	46.477	0	225.60	0	6.6531	0	33.8448	0	26.558	0	223.616	0	114.1	4	38.2	4	-1E+10	1	0.0487	4	0.002736	0	-1E+10	1	-1E+10	1	-1E+10	1
4902624	3	C	07/21/2024	16:31	-128.854	46.477	0	226.40	0	6.6485	0	33.8461	0	26.560	0	224.409	0	113.4	4	38.0	4	-1E+10	1	0.0642	4	0.000924	0	-1E+10	1	-1E+10	1	-1E+10	1
4902624	3	C	07/21/2024	16:31	-128.854	46.477	0	227.00	0	6.6450	0	33.8470	0	26.561	0	225.003	0	-1e10	1	-1e10	1	-1E+10	1	-1e10	1	-1e10	1	-1E+10	1	-1E+10	1	-1E+10	1
4902624	3	C	07/21/2024	16:31	-128.854	46.477	0	227.30	0	6.6392	0	33.8473	0	26.562	0	225.300	0	112.9	4	37.8	4	-1E+10	1	0.0511	4	0.000786	0	-1E+10	1	-1E+10	1	-1E+10	1
4902624	3	C	07/21/2024	16:31	-128.854	46.477	0	228.10	0	6.6235	0	33.8481	0	26.565	0	226.093	0	112.3	4	37.6	4	-1E+10	1	0.0394	4	0.001199	0	-1E+10	1	-1E+10	1	-1E+10	1
4902624	3	C	07/21/2024	16:31	-128.854	46.477	0	228.90	0	6.6079	0	33.8489	0	26.568	0	226.885	0	111.9	4	37.5	4	-1E+10	1	0.0474	4	0.000669	0	-1E+10	1	-1E+10	1	-1E+10	1
4902624	3	C	07/21/2024	16:31	-128.854	46.477	0	229.00	0	6.6060	0	33.8490	0	26.568	0	226.984	0	-1e10	1	-1e10	1	-1E+10	1	-1e10	1	-1e10	1	-1E+10	1	-1E+10	1	-1E+10	1
4902624	3	C	07/21/2024	16:31	-128.854	46.477	0	229.80	0	6.5988	0	33.8498	0	26.570	0	227.777	0	111.4	4	37.3	4	-1E+10	1	0.0397	4	0.001927	0	-1E+10	1	-1E+10	1	-1E+10	1
4902624	3	C	07/21/2024	16:31	-128.854	46.477	0	230.60	0	6.5915	0	33.8505	0	26.571	0	228.569	0	110.8	4	37.1	4	-1E+10	1	0.0409	4	0.001164	0	-1E+10	1	-1E+10	1	-1E+10	1
4902624	3	C	07/21/2024	16:31	-128.854	46.477	0	231.10	0	6.5870	0	33.8510	0	26.572	0	229.065	0	-1e10	1	-1e10	1	-1E+10	1	-1e10	1	-1e10	1	-1E+10	1	-1E+10	1	-1E+10	1
4902624	3	C	07/21/2024	16:31	-128.854	46.477	0	231.50	0	6.5811	0	33.8518	0	26.574	0	229.461	0	110.4	4	36.9	4	-1E+10	1	0.0392	4	0.000434	0	-1E+10	1	-1E+10	1	-1E+10	1
4902624	3	C	07/21/2024	16:31	-128.854	46.477	0	232.30	0	6.5693	0	33.8535	0	26.576	0	230.253	0	110.0	4	36.8	4	-1E+10	1	0.0438	4	0.000440	0	-1E+10	1	-1E+10	1	-1E+10	1
4902624	3	C	07/21/2024	16:31	-128.854	46.477	0	233.00	0	6.5590	0	33.8550	0	26.579	0	230.947	0	-1e10	1	-1e10	1	-1E+10	1	-1e10	1	-1e10	1	-1E+10	1	-1E+10	1	-1E+10	1
4902624	3	C	07/21/2024	16:31	-128.854	46.477	0	233.20	0	6.5547	0	33.8555	0	26.580	0	231.145	0	109.7	4	36.7	4	-1E+10	1	0.0723	4	0.000701	0	-1E+10	1	-1E+10	1	-1E+10	1
4902624	3	C	07/21/2024	16:31	-128.854	46.477	0	234.00	0	6.5375	0	33.8575	0	26.584	0	231.937	0	109.5	4	36.6	4	-1E+10	1	0.1022	4	0.001103	0	-1E+10	1	-1E+10	1	-1E+10	1
4902624	3	C	07/21/2024	16:31	-128.854	46.477	0	234.90	0	6.5181	0	33.8597	0	26.588	0	232.829	0	109.4	4	36.6	4	-1E+10	1	0.0511	4	0.000364	0	-1E+10	1	-1E+10	1	-1E+10	1
4902624	3	C	07/21/2024	16:31	-128.854	46.477	0	235.00	0	6.5160	0	33.8600	0	26.589	0	232.928	0	-1e10	1	-1e10	1	-1E+10	1	-1e10	1	-1e10	1	-1E+10	1	-1E+10	1	-1E+10	1
4902624	3	C	07/21/2024	16:31	-128.854	46.477	0	235.80	0	6.5096	0	33.8616	0	26.591	0	233.721	0	109.4	4	36.5	4	-1E+10	1	0.0511	4	0.000364	0	-1E+10	1	-1E+10	1	-1E+10	1
4902624	3	C	07/21/2024	16:31	-128.854	46.477	0	236.80	0	6.5016	0	33.8636	0	26.593	0	234.711	0	109.5	4	36.6	4	-1E+10	1	0.0511	4	0.000364	0	-1E+10	1	-1E+10	1	-1E+10	1
4902624	3	C	07/21/2024	16:31	-128.854	46.477	0	237.00	0	6.5000	0	33.8640	0	26.594	0	234.909	0	-1e10	1	-1e10	1	-1E+10	1	-1e10	1	-1e10	1	-1E+10	1	-1E+10	1	-1E+10	1
4902624	3	C	07/21/2024	16:31	-128.854	46.477	0	237.60	0	6.4867	0	33.8643	0	26.596	0	235.504	0	109.6	4	36.6	4	-1E+10	1	0.0641	4	0.000406	0	-1E+10	1	-1E+10	1	-1E+10	1
4902624	3	C	07/21/2024	16:31	-128.854	46.477	0	238.40	0	6.4691	0	33.8647	0	26.598	0	236.296	0	109.7	4	36.6	4	-1E+10	1	0.0564	4	0.000396	0	-1E+10	1	-1E+10	1	-1E+10	1
4902624	3	C	07/21/2024	16:31	-128.854	46.477	0	238.90	0	6.4580	0	33.8650	0	26.600	0	236.791	0	-1e10	1	-1e10	1	-1E+10	1	-1e10	1	-1e10	1	-1E+10	1	-1E+10	1	-1E+10	1
4902624	3	C	07/21/2024	16:31	-128.854	46.477	0	239.30	0	6.4540	0	33.8646	0	26.600	0	237.188	0	109.8	4	36.6	4	-1E+10	1	0.0511	4	0.000376	0	-1E+10	1	-1E+10	1	-1E+10	1
4902624	3	C	07/21/2024	16:31	-128.854	46.477	0	240.20	0	6.4450	0	33.8637	0	26.601	0	238.079	0	109.8	4	36.6	4	-1E+10	1	0.0511	4	0.000397	0	-1E+10	1	-1E+10	1	-1E+10	1
4902624	3	C	07/21/2024	16:31	-128.854	46.477	0	240.90	0	6.4380	0	33.8630	0	26.601	0	238.773	0	-1e10	1	-1e10	1	-1E+10	1	-1e10	1	-1e10	1	-1E+10	1	-1E+10	1	-1E+10	1
4902624	3	C	07/21/2024	16:31	-128.854	46.477	0	241.10	0	6.4318	0	33.8629	0	26.602	0	238.971	0	109.9	4	36.6	4	-1E+10	1	0.0531	4	0.000424	0	-1E+10	1	-1E+10	1	-1E+10	1
4902624	3	C	07/21/2024	16:31	-128.854	46.477	0	242.00	0	6.4039	0	33.8624	0	26.605	0	239.862	0	109.7	4	36.6	4	-1E+10	1	0.0577	4	0.000360	0	-1E+10	1	-1E+10	1	-1E+10	1
4902624	3	C	07/21/2024	16:31	-128.854	46.477	0	242.90	0	6.3760	0	33.8620	0	26.608	0	240.754	0	106.4	4	35.4	4	-1E+10	1	0.0511	4	0.000327	0	-1E+10	1	-1E+10	1	-1E+10	1
4902624	3	C	07/21/2024	16:31	-128.854	46.477	0	243.80	0	6.3700	0	33.8620	0	26.609	0	241.645	0	108.9	4	36.3	4	-1E+10	1	0.0511	4	0.000376	0	-1E+10	1	-1E+10	1	-1E+10	1
4902624	3	C	07/21/2024	16:31	-128.854	46.477	0	244.80	0	6.3633	0	33.8620	0	26.610	0	242.636	0	108.6	4	36.2	4	-1E+10	1	0.0572	4	0.000364	0	-1E+10	1	-1E+10	1	-1E+10	1
4902624	3	C	07/21/2024	16:31	-128.854	46.477	0	245.00	0	6.3620	0	33.8620	0	26.610	0	242.834	0	-1e10	1	-1e10	1	-1E+10	1	-1e10	1	-1e10	1	-1E+10	1	-1E+10	1	-1E+10	1
4902624	3	C	07/21/2024	16:31	-128.854	46.477	0	245.70	0	6.3557	0	33.8630	0	26.612	0	243.527	0	108.6	4	36.2	4	-1E+10	1	0.0538	4	0.000348	0	-1E+10	1	-1E+10	1	-1E+10	1
4902624	3	C	07/21/2024	16:31	-128.854	46.477	0	246.60	0	6.3475	0	33.8643	0	26.614	0	244.419	0	108.5	4	36.1	4	-1E+10	1	0.0552	4	0.000354	0	-1E+10	1	-1E+10	1	-1E+10	1
4902624	3	C	07/21/2024	16:31	-128.854	46.477	0	247.10	0	6.3430	0	33.8650	0	26.615	0	244.914	0	-1e10	1	-1e10	1	-1E+10	1	-1e10	1	-1e10	1	-1E+10	1	-1E+10	1	-1E+10	1
4902624	3	C	07/21/2024	16:31	-128.854	46.477	0	247.60	0	6.3301	0	33.8653	0	26.617	0	245.410	0	108.6	4	36.1	4	-1E+10	1	0.0544	4	0.000370	0	-1E+10	1	-1E+10	1	-1E+10	1
4902624	3	C	07/21/2024	16:31	-128.854	46.477	0	248.50	0	6.3069	0	33.8657	0	26.620	0	246.301	0	108.6	4	36.1	4	-1E+10	1	0.0484	4	0.000384	0	-1E+10	1	-1E+10	1	-1E+10	1
4902624	3	C	07/21/2024	16:31	-128.854	46.477	0	249.00	0	6.2940	0	33.8660	0	26.622	0	246.796	0	-1e10	1	-1e10	1	-1E+10	1	-1e10	1	-1e10	1	-1E+10	1	-1E+10	1	-1E+10	1
4902624	3	C	07/21/2024	16:31	-128.854	46.477	0	249.40	0	6.2858	0	33.8656	0	26.623	0	247.193	0	108.4	4	36.0	4	-1E+10	1	0.0438	4	0.000385	0	-1E+10	1	-1E+10	1	-1E+10	1
4902624	3	C	07/21/2024	16:31	-128.854	46.477	0	250.40	0	6.2653	0	33.8646	0	26.625	0	248.183	0	108.0	4	35.9	4	-1E+10	1	0.0451	4	0.000339	0	-1E+10	1	-1E+10	1	-1E+10	1
4902624	3	C	07/21/2024	16:31	-128.854	46.477	0	251.00	0	6.2530	0	33.8640	0	26.626	0	248.777	0	-1e10	1	-1e10	1	-1E+10	1	-1e10	1	-1e10	1	-1E+10	1	-1E+10	1	-1E+10	1
4902624	3	C	07/21/2024	16:31	-128.854	46.477	0	251.30	0	6.2522	0	33.8643	0	26.626	0	249.075	0	107.7	4	35.8	4	-1E+10	1	0.0511	4	0.000387	0	-1E+10	1	-1E+10	1	-1E+10	1
4902624	3	C	07/21/2024	16:31	-128.854	46.477	0	252.30	0	6.2498	0	33.8653	0	26.627	0	250.065	0	107.4	4	35.7	4	-1E+10	1	0.0511	4	0.000355	0	-1E+10	1	-1E+10	1	-1E+10	1
4902624	3	C	07/21/2024	16:31	-128.854	46.477	0	253.00	0	6.2480	0	33.8660	0	26.628	0	250.759	0	-1e10	1	-1e10	1	-1E+10	1	-1e10	1	-1e10	1	-1E+10	1	-1E+10	1	-1E+10	1
4902624	3	C	07/21/2024	16:31	-128.854	46.477	0	253.20	0	6.2457	0	33.8662	0	26.629	0	250.957	0	107.2	4	35.6	4	-1E+10	1	0.0511	4	0.000390	0	-1E+10	1	-1E+10	1	-1E+10	1
4902624	3	C	07/21/2024	16:31	-128.854	46.477	0	254.10	0	6.2354	0	33.8671	0	26.631	0	251.848	0	107.1	4	35.6	4	-1E+10	1	0.0511	4	0.000354	0	-1E+10	1	-1E+10	1	-1E+10	1
4902624	3	C	07/21/2024	16:31	-128.854	46.477	0	255.00	0	6.2250	0	33.8680	0	26.633	0	252.740	0	-1e10	1	-1e10	1	-1E+10	1	-1e10	1	-1e10	1	-1E+10	1	-1E+10	1	-1E+10	1
4902624	3	C	07/21/2024	16:31	-128.854	46.477	0	255.10	0	6.2245	0	33.8680	0	26.633	0	252.839	0	106.9	4	35.5	4	-1E+10	1	0.0471	4	0.000322	0	-1E+10	1	-1E+10	1	-1E+10	1
4902624	3	C	07/21/2024	16:31	-128.854	46.477	0	256.00	0	6.2205	0	33.8680	0	26.633	0	253.730	0	106.7	4	35.4	4	-1E+10	1	0.0496	4	0.000336	0	-1E+10	1	-1E+10	1	-1E+10	1
4902624	3	C	07/21/2024	16:31	-128.854	46.477	0	256.90	0	6.2165	0	33.8680	0	26.634	0	254.622	0	106.5	4	35.3	4	-1E+10	1	0.0544	4	0.000367	0	-1E+10	1	-1E+10	1	-1E+10	1
4902624	3	C	07/21/2024	16:31	-128.854	46.477	0	257.00	0	6.2160	0	33.8680	0	26.634	0	254.721	0	-1e10	1	-1e10	1	-1E+10	1	-1e10	1	-1e10	1	-1E+10	1	-1E+10	1	-1E+10	1
4902624	3	C	07/21/2024	16:31	-128.854	46.477	0	257.90	0	6.2133	0	33.8680	0	26.634	0	255.612	0	106.2	4	35.3	4	-1E+10	1	0.0438	4	0.000376	0	-1E+10	1	-1E+10	1	-1E+10	1
4902624	3	C	07/21/2024	16:31	-128.854	46.477	0	258.80	0	6.2106	0	33.8680	0	26.635	0	256.504	0	106.0	4	35.2	4	-1E+10	1	0.0438	4	0.000376	0	-1E+10	1	-1E+10	1	-1E+10	1
4902624	3	C	07/21/2024	16:31	-128.854	46.477	0	259.00	0	6.2100	0	33.8680	0	26.635	0	256.702	0	-1e10	1	-1e10	1	-1E+10	1	-1e10	1	-1e10	1	-1E+10	1	-1E+10	1	-1E+10	1
4902624	3	C	07/21/2024	16:31	-128.854	46.477	0	259.70	0	6.2040	0	33.8680	0	26.635	0	257.395	0	105.7	4	35.1	4	-1E+10	1	0.0584	4	0.000376	0	-1E+10	1	-1E+10	1	-1E+10	1
4902624	3	C	07/21/2024	16:31	-128.854	46.477	0	260.60	0	6.1963	0	33.8680	0	26.636	0	258.286	0	105.4	4	35.0	4	-1E+10	1	0.0465	4	0.000376	0	-1E+10	1	-1E+10	1	-1E+10	1
4902624	3	C	07/21/2024	16:31	-128.854	46.477	0	261.10	0	6.1920	0	33.8680	0	26.637	0	258.782	0	-1e10	1	-1e10	1	-1E+10	1	-1e10	1	-1e10	1	-1E+10	1	-1E+10	1	-1E+10	1
4902624	3	C	07/21/2024	16:31	-128.854	46.477	0	261.60	0	6.1747	0	33.8678	0	26.639	0	259.277	0	105.1	4	34.9	4	-1E+10	1	0.0491	4	0.000478	0	-1E+10	1	-1E+10	1	-1E+10	1
4902624	3	C	07/21/2024	16:31	-128.854	46.477	0	262.50	0	6.1437	0	33.8673	0	26.642	0	260.168	0	104.6	4	34.7	4	-1E+10	1	0.0560	4	0.000399	0	-1E+10	1	-1E+10	1	-1E+10	1
4902624	3	C	07/21/2024	16:31	-128.854	46.477	0	263.10	0	6.1230	0	33.8670	0	26.645	0	260.763	0	-1e10	1	-1e10	1	-1E+10	1	-1e10	1	-1e10	1	-1E+10	1	-1E+10	1	-1E+10	1
4902624	3	C	07/21/2024	16:31	-128.854	46.477	0	263.40	0	6.1181	0	33.8672	0	26.646	0	261.060	0	104.1	4	34.5	4	-1E+10	1	0.0474	4	0.000352	0	-1E+10	1	-1E+10	1	-1E+10	1
4902624	3	C	07/21/2024	16:31	-128.854	46.477	0	264.40	0	6.1018	0	33.8677	0	26.648	0	262.050	0	103.5	4	34.3	4	-1E+10	1	0.0365	4	0.000360	0	-1E+10	1	-1E+10	1	-1E+10	1
4902624	3	C	07/21/2024	16:31	-128.854	46.477	0	265.00	0	6.0920	0	33.8680	0	26.650	0	262.645	0	-1e10	1	-1e10	1	-1E+10	1	-1e10	1	-1e10	1	-1E+10	1	-1E+10	1	-1E+10	1
4902624	3	C	07/21/2024	16:31	-128.854	46.477	0	265.30	0	6.0918	0	33.8680	0	26.650	0	262.942	0	102.9	4	34.1	4	-1E+10	1	0.0397	4	0.000347	0	-1E+10	1	-1E+10	1	-1E+10	1
4902624	3	C	07/21/2024	16:31	-128.854	46.477	0	266.20	0	6.0914	0	33.8680	0	26.650	0	263.833	0	102.2	4	33.8	4	-1E+10	1	0.0471	4	0.000333	0	-1E+10	1	-1E+10	1	-1E+10	1
4902624	3	C	07/21/2024	16:31	-128.854	46.477	0	266.90	0	6.0910	0	33.8680	0	26.650	0	264.526	0	-1e10	1	-1e10	1	-1E+10	1	-1e10	1	-1e10	1	-1E+10	1	-1E+10	1	-1E+10	1
4902624	3	C	07/21/2024	16:31	-128.854	46.477	0	267.10	0	6.0896	0	33.8684	0	26.650	0	264.725	0	101.4	4	33.6	4	-1E+10	1	0.0292	4	0.000352	0	-1E+10	1	-1E+10	1	-1E+10	1
4902624	3	C	07/21/2024	16:31	-128.854	46.477	0	268.00	0	6.0831	0	33.8701	0	26.652	0	265.616	0	100.7	4	33.3	4	-1E+10	1	0.0531	4	0.000323	0	-1E+10	1	-1E+10	1	-1E+10	1
4902624	3	C	07/21/2024	16:31	-128.854	46.477	0	269.00	0	6.0760	0	33.8720	0	26.655	0	266.606	0	97.4	4	32.2	4	-1E+10	1	0.0389	4	0.000359	0	-1E+10	1	-1E+10	1	-1E+10	1
4902624	3	C	07/21/2024	16:31	-128.854	46.477	0	269.90	0	6.0711	0	33.8738	0	26.657	0	267.498	0	99.6	4	32.9	4	-1E+10	1	0.0462	4	0.000325	0	-1E+10	1	-1E+10	1	-1E+10	1
4902624	3	C	07/21/2024	16:31	-128.854	46.477	0	270.80	0	6.0661	0	33.8756	0	26.659	0	268.389	0	99.1	4	32.8	4	-1E+10	1	0.0511	4	0.000316	0	-1E+10	1	-1E+10	1	-1E+10	1
4902624	3	C	07/21/2024	16:31	-128.854	46.477	0	271.00	0	6.0650	0	33.8760	0	26.659	0	268.587	0	-1e10	1	-1e10	1	-1E+10	1	-1e10	1	-1e10	1	-1E+10	1	-1E+10	1	-1E+10	1
4902624	3	C	07/21/2024	16:31	-128.854	46.477	0	271.80	0	6.0545	0	33.8764	0	26.661	0	269.380	0	98.6	4	32.6	4	-1E+10	1	0.0511	4	0.000324	0	-1E+10	1	-1E+10	1	-1E+10	1
4902624	3	C	07/21/2024	16:31	-128.854	46.477	0	272.70	0	6.0426	0	33.8769	0	26.663	0	270.271	0	98.1	4	32.4	4	-1E+10	1	0.0511	4	0.000320	0	-1E+10	1	-1E+10	1	-1E+10	1
4902624	3	C	07/21/2024	16:31	-128.854	46.477	0	272.90	0	6.0400	0	33.8770	0	26.663	0	270.469	0	-1e10	1	-1e10	1	-1E+10	1	-1e10	1	-1e10	1	-1E+10	1	-1E+10	1	-1E+10	1
4902624	3	C	07/21/2024	16:31	-128.854	46.477	0	273.70	0	6.0293	0	33.8774	0	26.665	0	271.262	0	97.5	4	32.2	4	-1E+10	1	0.0484	4	0.000337	0	-1E+10	1	-1E+10	1	-1E+10	1
4902624	3	C	07/21/2024	16:31	-128.854	46.477	0	274.60	0	6.0173	0	33.8778	0	26.667	0	272.153	0	96.9	4	32.0	4	-1E+10	1	0.0365	4	0.000375	0	-1E+10	1	-1E+10	1	-1E+10	1
4902624	3	C	07/21/2024	16:31	-128.854	46.477	0	275.00	0	6.0120	0	33.8780	0	26.668	0	272.549	0	-1e10	1	-1e10	1	-1E+10	1	-1e10	1	-1e10	1	-1E+10	1	-1E+10	1	-1E+10	1
4902624	3	C	07/21/2024	16:31	-128.854	46.477	0	275.50	0	6.0097	0	33.8783	0	26.668	0	273.044	0	96.2	4	31.8	4	-1E+10	1	0.0438	4	0.000340	0	-1E+10	1	-1E+10	1	-1E+10	1
4902624	3	C	07/21/2024	16:31	-128.854	46.477	0	276.50	0	6.0052	0	33.8787	0	26.669	0	274.035	0	95.4	4	31.5	4	-1E+10	1	0.0560	4	0.000340	0	-1E+10	1	-1E+10	1	-1E+10	1
4902624	3	C	07/21/2024	16:31	-128.854	46.477	0	277.00	0	6.0030	0	33.8790	0	26.670	0	274.530	0	-1e10	1	-1e10	1	-1E+10	1	-1e10	1	-1e10	1	-1E+10	1	-1E+10	1	-1E+10	1
4902624	3	C	07/21/2024	16:31	-128.854	46.477	0	277.40	0	6.0048	0	33.8794	0	26.670	0	274.926	0	94.5	4	31.2	4	-1E+10	1	0.0584	4	0.000452	0	-1E+10	1	-1E+10	1	-1E+10	1
4902624	3	C	07/21/2024	16:31	-128.854	46.477	0	278.40	0	6.0093	0	33.8804	0	26.670	0	275.917	0	93.8	4	31.0	4	-1E+10	1	0.0628	4	0.000488	0	-1E+10	1	-1E+10	1	-1E+10	1
4902624	3	C	07/21/2024	16:31	-128.854	46.477	0	279.00	0	6.0120	0	33.8810	0	26.670	0	276.511	0	-1e10	1	-1e10	1	-1E+10	1	-1e10	1	-1e10	1	-1E+10	1	-1E+10	1	-1E+10	1
4902624	3	C	07/21/2024	16:31	-128.854	46.477	0	279.30	0	6.0097	0	33.8818	0	26.671	0	276.808	0	93.4	4	30.9	4	-1E+10	1	0.0591	4	0.000416	0	-1E+10	1	-1E+10	1	-1E+10	1
4902624	3	C	07/21/2024	16:31	-128.854	46.477	0	280.30	0	6.0023	0	33.8843	0	26.674	0	277.798	0	93.1	4	30.7	4	-1E+10	1	0.0487	4	0.000340	0	-1E+10	1	-1E+10	1	-1E+10	1
4902624	3	C	07/21/2024	16:31	-128.854	46.477	0	281.00	0	5.9970	0	33.8860	0	26.676	0	278.492	0	-1e10	1	-1e10	1	-1E+10	1	-1e10	1	-1e10	1	-1E+10	1	-1E+10	1	-1E+10	1
4902624	3	C	07/21/2024	16:31	-128.854	46.477	0	281.20	0	5.9939	0	33.8862	0	26.676	0	278.690	0	92.5	4	30.6	4	-1E+10	1	0.0438	4	0.000323	0	-1E+10	1	-1E+10	1	-1E+10	1
4902624	3	C	07/21/2024	16:31	-128.854	46.477	0	282.20	0	5.9784	0	33.8872	0	26.679	0	279.680	0	91.9	4	30.3	4	-1E+10	1	0.0425	4	0.000367	0	-1E+10	1	-1E+10	1	-1E+10	1
4902624	3	C	07/21/2024	16:31	-128.854	46.477	0	283.00	0	5.9660	0	33.8880	0	26.681	0	280.472	0	-1e10	1	-1e10	1	-1E+10	1	-1e10	1	-1e10	1	-1E+10	1	-1E+10	1	-1E+10	1
4902624	3	C	07/21/2024	16:31	-128.854	46.477	0	283.10	0	5.9654	0	33.8883	0	26.682	0	280.571	0	91.4	4	30.2	4	-1E+10	1	0.0365	4	0.000328	0	-1E+10	1	-1E+10	1	-1E+10	1
4902624	3	C	07/21/2024	16:31	-128.854	46.477	0	284.10	0	5.9594	0	33.8908	0	26.684	0	281.562	0	91.2	4	30.1	4	-1E+10	1	0.0548	4	0.000309	0	-1E+10	1	-1E+10	1	-1E+10	1
4902624	3	C	07/21/2024	16:31	-128.854	46.477	0	285.00	0	5.9540	0	33.8930	0	26.687	0	282.453	0	-1e10	1	-1e10	1	-1E+10	1	-1e10	1	-1e10	1	-1E+10	1	-1E+10	1	-1E+10	1
4902624	3	C	07/21/2024	16:31	-128.854	46.477	0	285.10	0	5.9522	0	33.8929	0	26.687	0	282.552	0	90.8	4	30.0	4	-1E+10	1	0.0389	4	0.000326	0	-1E+10	1	-1E+10	1	-1E+10	1
4902624	3	C	07/21/2024	16:31	-128.854	46.477	0	286.00	0	5.9361	0	33.8925	0	26.689	0	283.444	0	90.4	4	29.8	4	-1E+10	1	0.0462	4	0.000391	0	-1E+10	1	-1E+10	1	-1E+10	1
4902624	3	C	07/21/2024	16:31	-128.854	46.477	0	286.90	0	5.9200	0	33.8920	0	26.690	0	284.335	0	-1e10	1	-1e10	1	-1E+10	1	-1e10	1	-1e10	1	-1E+10	1	-1E+10	1	-1E+10	1
4902624	3	C	07/21/2024	16:31	-128.854	46.477	0	287.00	0	5.9195	0	33.8920	0	26.690	0	284.434	0	89.9	4	29.6	4	-1E+10	1	0.0511	4	0.000397	0	-1E+10	1	-1E+10	1	-1E+10	1
4902624	3	C	07/21/2024	16:31	-128.854	46.477	0	287.90	0	5.9148	0	33.8920	0	26.691	0	285.325	0	89.2	4	29.4	4	-1E+10	1	0.0482	4	0.000366	0	-1E+10	1	-1E+10	1	-1E+10	1
4902624	3	C	07/21/2024	16:31	-128.854	46.477	0	288.90	0	5.9095	0	33.8920	0	26.692	0	286.316	0	88.5	4	29.2	4	-1E+10	1	0.0503	4	0.000336	0	-1E+10	1	-1E+10	1	-1E+10	1
4902624	3	C	07/21/2024	16:31	-128.854	46.477	0	289.00	0	5.9090	0	33.8920	0	26.692	0	286.415	0	-1e10	1	-1e10	1	-1E+10	1	-1e10	1	-1e10	1	-1E+10	1	-1E+10	1	-1E+10	1
4902624	3	C	07/21/2024	16:31	-128.854	46.477	0	289.80	0	5.9118	0	33.8948	0	26.694	0	287.207	0	88.0	4	29.0	4	-1E+10	1	0.0535	4	0.000375	0	-1E+10	1	-1E+10	1	-1E+10	1
4902624	3	C	07/21/2024	16:31	-128.854	46.477	0	291.00	0	5.9160	0	33.8990	0	26.696	0	288.395	0	85.4	4	28.1	4	-1E+10	1	0.0441	4	0.000485	0	-1E+10	1	-1E+10	1	-1E+10	1
4902624	3	C	07/21/2024	16:31	-128.854	46.477	0	293.00	0	5.9240	0	33.9020	0	26.698	0	290.376	0	-1e10	1	-1e10	1	-1E+10	1	-1e10	1	-1e10	1	-1E+10	1	-1E+10	1	-1E+10	1
4902624	3	C	07/21/2024	16:31	-128.854	46.477	0	295.00	0	5.9160	0	33.9050	0	26.701	0	292.357	0	-1e10	1	-1e10	1	-1E+10	1	-1e10	1	-1e10	1	-1E+10	1	-1E+10	1	-1E+10	1
4902624	3	C	07/21/2024	16:31	-128.854	46.477	0	297.10	0	5.9070	0	33.9070	0	26.704	0	294.436	0	-1e10	1	-1e10	1	-1E+10	1	-1e10	1	-1e10	1	-1E+10	1	-1E+10	1	-1E+10	1
4902624	3	C	07/21/2024	16:31	-128.854	46.477	0	299.00	0	5.8920	0	33.9070	0	26.706	0	296.318	0	-1e10	1	-1e10	1	-1E+10	1	-1e10	1	-1e10	1	-1E+10	1	-1E+10	1	-1E+10	1
4902624	3	C	07/21/2024	16:31	-128.854	46.477	0	300.70	0	5.8790	0	33.9070	0	26.707	0	298.002	0	85.4	4	28.1	4	-1E+10	1	0.0511	4	0.000316	0	-1E+10	1	-1E+10	1	-1E+10	1
4902624	3	C	07/21/2024	16:31	-128.854	46.477	0	305.00	0	5.8460	0	33.9070	0	26.711	0	302.260	0	-1e10	1	-1e10	1	-1E+10	1	-1e10	1	-1e10	1	-1E+10	1	-1E+10	1	-1E+10	1
4902624	3	C	07/21/2024	16:31	-128.854	46.477	0	310.80	0	5.7903	0	33.9111	0	26.722	0	308.003	0	81.0	4	26.6	4	-1E+10	1	0.0514	4	0.000317	0	-1E+10	1	-1E+10	1	-1E+10	1
4902624	3	C	07/21/2024	16:31	-128.854	46.477	0	315.00	0	5.7500	0	33.9140	0	26.729	0	312.162	0	-1e10	1	-1e10	1	-1E+10	1	-1e10	1	-1e10	1	-1E+10	1	-1E+10	1	-1E+10	1
4902624	3	C	07/21/2024	16:31	-128.854	46.477	0	321.10	0	5.6920	0	33.9146	0	26.736	0	318.203	0	79.7	4	26.2	4	-1E+10	1	0.0581	4	0.000327	0	-1E+10	1	-1E+10	1	-1E+10	1
4902624	3	C	07/21/2024	16:31	-128.854	46.477	0	325.20	0	5.6530	0	33.9150	0	26.742	0	322.263	0	-1e10	1	-1e10	1	-1E+10	1	-1e10	1	-1e10	1	-1E+10	1	-1E+10	1	-1E+10	1
4902624	3	C	07/21/2024	16:31	-128.854	46.477	0	331.70	0	5.6088	0	33.9170	0	26.749	0	328.699	0	76.7	4	25.1	4	-1E+10	1	0.0511	4	0.000294	0	-1E+10	1	-1E+10	1	-1E+10	1
4902624	3	C	07/21/2024	16:31	-128.854	46.477	0	334.90	0	5.5870	0	33.9180	0	26.752	0	331.867	0	-1e10	1	-1e10	1	-1E+10	1	-1e10	1	-1e10	1	-1E+10	1	-1E+10	1	-1E+10	1
4902624	3	C	07/21/2024	16:31	-128.854	46.477	0	342.70	0	5.5246	0	33.9219	0	26.763	0	339.590	0	72.6	4	23.7	4	-1E+10	1	0.0514	4	0.000314	0	-1E+10	1	-1E+10	1	-1E+10	1
4902624	3	C	07/21/2024	16:31	-128.854	46.477	0	344.90	0	5.5070	0	33.9230	0	26.766	0	341.768	0	-1e10	1	-1e10	1	-1E+10	1	-1e10	1	-1e10	1	-1E+10	1	-1E+10	1	-1E+10	1
4902624	3	C	07/21/2024	16:31	-128.854	46.477	0	353.80	0	5.4119	0	33.9265	0	26.780	0	350.580	0	68.8	4	22.4	4	-1E+10	1	0.0579	4	0.000269	0	-1E+10	1	-1E+10	1	-1E+10	1
4902624	3	C	07/21/2024	16:31	-128.854	46.477	0	355.10	0	5.3980	0	33.9270	0	26.782	0	351.867	0	-1e10	1	-1e10	1	-1E+10	1	-1e10	1	-1e10	1	-1E+10	1	-1E+10	1	-1E+10	1
4902624	3	C	07/21/2024	16:31	-128.854	46.477	0	364.70	0	5.3510	0	33.9300	0	26.790	0	361.371	0	-1e10	1	-1e10	1	-1E+10	1	-1e10	1	-1e10	1	-1E+10	1	-1E+10	1	-1E+10	1
4902624	3	C	07/21/2024	16:31	-128.854	46.477	0	365.40	0	5.3492	0	33.9309	0	26.791	0	362.064	0	65.2	4	21.2	4	-1E+10	1	0.0438	4	0.000257	0	-1E+10	1	-1E+10	1	-1E+10	1
4902624	3	C	07/21/2024	16:31	-128.854	46.477	0	374.80	0	5.3250	0	33.9430	0	26.803	0	371.370	0	-1e10	1	-1e10	1	-1E+10	1	-1e10	1	-1e10	1	-1E+10	1	-1E+10	1	-1E+10	1
4902624	3	C	07/21/2024	16:31	-128.854	46.477	0	377.10	0	5.3027	0	33.9459	0	26.808	0	373.647	0	59.7	4	19.4	4	-1E+10	1	0.0444	4	0.000245	0	-1E+10	1	-1E+10	1	-1E+10	1
4902624	3	C	07/21/2024	16:31	-128.854	46.477	0	385.00	0	5.2260	0	33.9560	0	26.825	0	381.468	0	-1e10	1	-1e10	1	-1E+10	1	-1e10	1	-1e10	1	-1E+10	1	-1E+10	1	-1E+10	1
4902624	3	C	07/21/2024	16:31	-128.854	46.477	0	389.00	0	5.2482	0	33.9703	0	26.834	0	385.427	0	52.1	4	16.9	4	-1E+10	1	0.0584	4	0.000237	0	-1E+10	1	-1E+10	1	-1E+10	1
4902624	3	C	07/21/2024	16:31	-128.854	46.477	0	395.10	0	5.2820	0	33.9920	0	26.847	0	391.465	0	-1e10	1	-1e10	1	-1E+10	1	-1e10	1	-1e10	1	-1E+10	1	-1E+10	1	-1E+10	1
4902624	3	C	07/21/2024	16:31	-128.854	46.477	0	400.90	0	5.2613	0	33.9960	0	26.853	0	397.206	0	49.9	4	16.2	4	-1E+10	1	0.0578	4	0.000302	0	-1E+10	1	-1E+10	1	-1E+10	1
4902624	3	C	07/21/2024	16:31	-128.854	46.477	0	405.20	0	5.2460	0	33.9990	0	26.857	0	401.463	0	-1e10	1	-1e10	1	-1E+10	1	-1e10	1	-1e10	1	-1E+10	1	-1E+10	1	-1E+10	1
4902624	3	C	07/21/2024	16:31	-128.854	46.477	0	408.80	0	5.2048	0	33.9997	0	26.863	0	405.026	0	48.9	4	15.9	4	-1E+10	1	0.0441	4	0.000246	0	-1E+10	1	-1E+10	1	-1E+10	1
4902624	3	C	07/21/2024	16:31	-128.854	46.477	0	414.80	0	5.1360	0	34.0010	0	26.872	0	410.965	0	-1e10	1	-1e10	1	-1E+10	1	-1e10	1	-1e10	1	-1E+10	1	-1E+10	1	-1E+10	1
4902624	3	C	07/21/2024	16:31	-128.854	46.477	0	416.80	0	5.1332	0	34.0040	0	26.874	0	412.944	0	47.5	4	15.4	4	-1E+10	1	0.0514	4	0.000266	0	-1E+10	1	-1E+10	1	-1E+10	1
4902624	3	C	07/21/2024	16:31	-128.854	46.477	0	424.80	0	5.1221	0	34.0159	0	26.885	0	420.862	0	43.5	4	14.1	4	-1E+10	1	0.0581	4	0.000211	0	-1E+10	1	-1E+10	1	-1E+10	1
4902624	3	C	07/21/2024	16:31	-128.854	46.477	0	424.90	0	5.1220	0	34.0160	0	26.885	0	420.961	0	-1e10	1	-1e10	1	-1E+10	1	-1e10	1	-1e10	1	-1E+10	1	-1E+10	1	-1E+10	1
4902624	3	C	07/21/2024	16:31	-128.854	46.477	0	433.00	0	5.1487	0	34.0322	0	26.895	0	428.978	0	41.7	4	13.5	4	-1E+10	1	0.0514	4	0.000244	0	-1E+10	1	-1E+10	1	-1E+10	1
4902624	3	C	07/21/2024	16:31	-128.854	46.477	0	434.90	0	5.1550	0	34.0360	0	26.897	0	430.858	0	-1e10	1	-1e10	1	-1E+10	1	-1e10	1	-1e10	1	-1E+10	1	-1E+10	1	-1E+10	1
4902624	3	C	07/21/2024	16:31	-128.854	46.477	0	441.20	0	5.0845	0	34.0304	0	26.901	0	437.093	0	43.6	4	14.1	4	-1E+10	1	0.0579	4	0.000222	0	-1E+10	1	-1E+10	1	-1E+10	1
4902624	3	C	07/21/2024	16:31	-128.854	46.477	0	445.00	0	5.0420	0	34.0270	0	26.903	0	440.853	0	-1e10	1	-1e10	1	-1E+10	1	-1e10	1	-1e10	1	-1E+10	1	-1E+10	1	-1E+10	1
4902624	3	C	07/21/2024	16:31	-128.854	46.477	0	449.60	0	4.9704	0	34.0233	0	26.908	0	445.405	0	44.5	4	14.4	4	-1E+10	1	0.0443	4	0.000243	0	-1E+10	1	-1E+10	1	-1E+10	1
4902624	3	C	07/21/2024	16:31	-128.854	46.477	0	454.90	0	4.8880	0	34.0190	0	26.914	0	450.650	0	-1e10	1	-1e10	1	-1E+10	1	-1e10	1	-1e10	1	-1E+10	1	-1E+10	1	-1E+10	1
4902624	3	C	07/21/2024	16:31	-128.854	46.477	0	458.20	0	4.8919	0	34.0239	0	26.918	0	453.916	0	41.1	4	13.3	4	-1E+10	1	0.0581	4	0.000209	0	-1E+10	1	-1E+10	1	-1E+10	1
4902624	3	C	07/21/2024	16:31	-128.854	46.477	0	465.00	0	4.9000	0	34.0340	0	26.925	0	460.645	0	-1e10	1	-1e10	1	-1E+10	1	-1e10	1	-1e10	1	-1E+10	1	-1E+10	1	-1E+10	1
4902624	3	C	07/21/2024	16:31	-128.854	46.477	0	466.80	0	4.8721	0	34.0317	0	26.926	0	462.426	0	42.8	4	13.8	4	-1E+10	1	0.0514	4	0.000201	0	-1E+10	1	-1E+10	1	-1E+10	1
4902624	3	C	07/21/2024	16:31	-128.854	46.477	0	475.00	0	4.7450	0	34.0210	0	26.932	0	470.540	0	-1e10	1	-1e10	1	-1E+10	1	-1e10	1	-1e10	1	-1E+10	1	-1E+10	1	-1E+10	1
4902624	3	C	07/21/2024	16:31	-128.854	46.477	0	475.60	0	4.7402	0	34.0212	0	26.933	0	471.133	0	42.6	4	13.7	4	-1E+10	1	0.0581	4	0.000298	0	-1E+10	1	-1E+10	1	-1E+10	1
4902624	3	C	07/21/2024	16:31	-128.854	46.477	0	484.50	0	4.6692	0	34.0248	0	26.943	0	479.940	0	40.5	4	13.0	4	-1E+10	1	0.0513	4	0.000198	0	-1E+10	1	-1E+10	1	-1E+10	1
4902624	3	C	07/21/2024	16:31	-128.854	46.477	0	484.90	0	4.6660	0	34.0250	0	26.944	0	480.335	0	-1e10	1	-1e10	1	-1E+10	1	-1e10	1	-1e10	1	-1E+10	1	-1E+10	1	-1E+10	1
4902624	3	C	07/21/2024	16:31	-128.854	46.477	0	493.70	0	4.6114	0	34.0338	0	26.957	0	489.042	0	37.8	4	12.1	4	-1E+10	1	0.0579	4	0.000222	0	-1E+10	1	-1E+10	1	-1E+10	1
4902624	3	C	07/21/2024	16:31	-128.854	46.477	0	494.90	0	4.6040	0	34.0350	0	26.959	0	490.229	0	-1e10	1	-1e10	1	-1E+10	1	-1e10	1	-1e10	1	-1E+10	1	-1E+10	1	-1E+10	1
4902624	3	C	07/21/2024	16:31	-128.854	46.477	0	503.30	0	4.5714	0	34.0453	0	26.970	0	498.540	0	35.4	4	11.3	4	-1E+10	1	0.0447	4	0.000254	0	-1E+10	1	-1E+10	1	-1E+10	1
4902624	3	C	07/21/2024	16:31	-128.854	46.477	0	504.70	0	4.5660	0	34.0470	0	26.972	0	499.925	0	-1e10	1	-1e10	1	-1E+10	1	-1e10	1	-1e10	1	-1E+10	1	-1E+10	1	-1E+10	1
4902624	3	C	07/21/2024	16:31	-128.854	46.477	0	513.20	0	4.5311	0	34.0530	0	26.981	0	508.334	0	32.9	4	10.5	4	-1E+10	1	0.0657	4	0.000197	0	-1E+10	1	-1E+10	1	-1E+10	1
4902624	3	C	07/21/2024	16:31	-128.854	46.477	0	514.70	0	4.5250	0	34.0540	0	26.983	0	509.818	0	-1e10	1	-1e10	1	-1E+10	1	-1e10	1	-1e10	1	-1E+10	1	-1E+10	1	-1E+10	1
4902624	3	C	07/21/2024	16:31	-128.854	46.477	0	523.40	0	4.5711	0	34.0719	0	26.992	0	518.425	0	28.4	4	9.1	4	-1E+10	1	0.0651	4	0.000184	0	-1E+10	1	-1E+10	1	-1E+10	1
4902624	3	C	07/21/2024	16:31	-128.854	46.477	0	524.90	0	4.5790	0	34.0750	0	26.993	0	519.909	0	-1e10	1	-1e10	1	-1E+10	1	-1e10	1	-1e10	1	-1E+10	1	-1E+10	1	-1E+10	1
4902624	3	C	07/21/2024	16:31	-128.854	46.477	0	533.90	0	4.6594	0	34.0986	0	27.004	0	528.812	0	25.2	4	8.1	4	-1E+10	1	0.0508	4	0.000151	0	-1E+10	1	-1E+10	1	-1E+10	1
4902624	3	C	07/21/2024	16:31	-128.854	46.477	0	535.20	0	4.6710	0	34.1020	0	27.005	0	530.098	0	-1e10	1	-1e10	1	-1E+10	1	-1e10	1	-1e10	1	-1E+10	1	-1E+10	1	-1E+10	1
4902624	3	C	07/21/2024	16:31	-128.854	46.477	0	544.50	0	4.6511	0	34.1092	0	27.013	0	539.297	0	24.0	4	7.7	4	-1E+10	1	0.0445	4	0.000162	0	-1E+10	1	-1E+10	1	-1E+10	1
4902624	3	C	07/21/2024	16:31	-128.854	46.477	0	545.50	0	4.6490	0	34.1100	0	27.014	0	540.286	0	-1e10	1	-1e10	1	-1E+10	1	-1e10	1	-1e10	1	-1E+10	1	-1E+10	1	-1E+10	1
4902624	3	C	07/21/2024	16:31	-128.854	46.477	0	555.00	0	4.6094	0	34.1159	0	27.023	0	549.683	0	23.6	4	7.5	4	-1E+10	1	0.0581	4	0.000163	0	-1E+10	1	-1E+10	1	-1E+10	1
4902624	3	C	07/21/2024	16:31	-128.854	46.477	0	555.10	0	4.6090	0	34.1160	0	27.023	0	549.782	0	-1e10	1	-1e10	1	-1E+10	1	-1e10	1	-1e10	1	-1E+10	1	-1E+10	1	-1E+10	1
4902624	3	C	07/21/2024	16:31	-128.854	46.477	0	564.90	0	4.4880	0	34.1120	0	27.033	0	559.475	0	-1e10	1	-1e10	1	-1E+10	1	-1e10	1	-1e10	1	-1E+10	1	-1E+10	1	-1E+10	1
4902624	3	C	07/21/2024	16:31	-128.854	46.477	0	565.50	0	4.4821	0	34.1123	0	27.034	0	560.068	0	23.5	4	7.5	4	-1E+10	1	0.0518	4	0.000195	0	-1E+10	1	-1E+10	1	-1E+10	1
4902624	3	C	07/21/2024	16:31	-128.854	46.477	0	575.10	0	4.3880	0	34.1170	0	27.048	0	569.563	0	-1e10	1	-1e10	1	-1E+10	1	-1e10	1	-1e10	1	-1E+10	1	-1E+10	1	-1E+10	1
4902624	3	C	07/21/2024	16:31	-128.854	46.477	0	575.90	0	4.3811	0	34.1174	0	27.049	0	570.354	0	22.3	4	7.1	4	-1E+10	1	0.0657	4	0.000172	0	-1E+10	1	-1E+10	1	-1E+10	1
4902624	3	C	07/21/2024	16:31	-128.854	46.477	0	585.00	0	4.3020	0	34.1220	0	27.061	0	579.354	0	-1e10	1	-1e10	1	-1E+10	1	-1e10	1	-1e10	1	-1E+10	1	-1E+10	1	-1E+10	1
4902624	3	C	07/21/2024	16:31	-128.854	46.477	0	586.30	0	4.2959	0	34.1229	0	27.062	0	580.639	0	21.5	4	6.8	4	-1E+10	1	0.0657	4	0.000159	0	-1E+10	1	-1E+10	1	-1E+10	1
4902624	3	C	07/21/2024	16:31	-128.854	46.477	0	595.00	0	4.2550	0	34.1290	0	27.071	0	589.243	0	-1e10	1	-1e10	1	-1E+10	1	-1e10	1	-1e10	1	-1E+10	1	-1E+10	1	-1E+10	1
4902624	3	C	07/21/2024	16:31	-128.854	46.477	0	596.80	0	4.2539	0	34.1311	0	27.073	0	591.023	0	20.2	4	6.4	4	-1E+10	1	0.0657	4	0.000115	0	-1E+10	1	-1E+10	1	-1E+10	1
4902624	3	C	07/21/2024	16:31	-128.854	46.477	0	605.20	0	4.2490	0	34.1410	0	27.082	0	599.330	0	-1e10	1	-1e10	1	-1E+10	1	-1e10	1	-1e10	1	-1E+10	1	-1E+10	1	-1E+10	1
4902624	3	C	07/21/2024	16:31	-128.854	46.477	0	607.40	0	4.2606	0	34.1454	0	27.084	0	601.505	0	17.6	4	5.6	4	-1E+10	1	0.0657	4	0.000139	0	-1E+10	1	-1E+10	1	-1E+10	1
4902624	3	C	07/21/2024	16:31	-128.854	46.477	0	615.10	0	4.3010	0	34.1610	0	27.092	0	609.119	0	-1e10	1	-1e10	1	-1E+10	1	-1e10	1	-1e10	1	-1E+10	1	-1E+10	1	-1E+10	1
4902624	3	C	07/21/2024	16:31	-128.854	46.477	0	618.20	0	4.3104	0	34.1657	0	27.095	0	612.184	0	15.8	4	5.0	4	-1E+10	1	0.0654	4	0.000172	0	-1E+10	1	-1E+10	1	-1E+10	1
4902624	3	C	07/21/2024	16:31	-128.854	46.477	0	625.00	0	4.3310	0	34.1760	0	27.101	0	618.908	0	-1e10	1	-1e10	1	-1E+10	1	-1e10	1	-1e10	1	-1E+10	1	-1E+10	1	-1E+10	1
4902624	3	C	07/21/2024	16:31	-128.854	46.477	0	629.10	0	4.3306	0	34.1805	0	27.105	0	622.962	0	14.4	4	4.6	4	-1E+10	1	0.0584	4	0.000161	0	-1E+10	1	-1E+10	1	-1E+10	1
4902624	3	C	07/21/2024	16:31	-128.854	46.477	0	635.00	0	4.3300	0	34.1870	0	27.110	0	628.796	0	-1e10	1	-1e10	1	-1E+10	1	-1e10	1	-1e10	1	-1E+10	1	-1E+10	1	-1E+10	1
4902624	3	C	07/21/2024	16:31	-128.854	46.477	0	640.30	0	4.3195	0	34.1917	0	27.115	0	634.036	0	13.5	4	4.3	4	-1E+10	1	0.0587	4	0.000161	0	-1E+10	1	-1E+10	1	-1E+10	1
4902624	3	C	07/21/2024	16:31	-128.854	46.477	0	645.10	0	4.3100	0	34.1960	0	27.119	0	638.781	0	-1e10	1	-1e10	1	-1E+10	1	-1e10	1	-1e10	1	-1E+10	1	-1E+10	1	-1E+10	1
4902624	3	C	07/21/2024	16:31	-128.854	46.477	0	651.80	0	4.2903	0	34.1988	0	27.124	0	645.405	0	13.0	4	4.1	4	-1E+10	1	0.0657	4	0.000160	0	-1E+10	1	-1E+10	1	-1E+10	1
4902624	3	C	07/21/2024	16:31	-128.854	46.477	0	654.60	0	4.2820	0	34.2000	0	27.126	0	648.174	0	-1e10	1	-1e10	1	-1E+10	1	-1e10	1	-1e10	1	-1E+10	1	-1E+10	1	-1E+10	1
4902624	3	C	07/21/2024	16:31	-128.854	46.477	0	663.60	0	4.2624	0	34.2053	0	27.132	0	657.071	0	12.4	4	3.9	4	-1E+10	1	0.0650	4	0.000150	0	-1E+10	1	-1E+10	1	-1E+10	1
4902624	3	C	07/21/2024	16:31	-128.854	46.477	0	664.70	0	4.2600	0	34.2060	0	27.133	0	658.158	0	-1e10	1	-1e10	1	-1E+10	1	-1e10	1	-1e10	1	-1E+10	1	-1E+10	1	-1E+10	1
4902624	3	C	07/21/2024	16:31	-128.854	46.477	0	673.60	0	4.2403	0	34.2146	0	27.142	0	666.957	0	11.9	4	3.8	4	-1E+10	1	0.0511	4	0.000172	0	-1E+10	1	-1E+10	1	-1E+10	1
4902624	3	C	07/21/2024	16:31	-128.854	46.477	0	675.10	0	4.2370	0	34.2160	0	27.143	0	668.439	0	-1e10	1	-1e10	1	-1E+10	1	-1e10	1	-1e10	1	-1E+10	1	-1E+10	1	-1E+10	1
4902624	3	C	07/21/2024	16:31	-128.854	46.477	0	681.60	0	4.2168	0	34.2199	0	27.148	0	674.865	0	11.5	4	3.7	4	-1E+10	1	0.0511	4	0.000161	0	-1E+10	1	-1E+10	1	-1E+10	1
4902624	3	C	07/21/2024	16:31	-128.854	46.477	0	685.10	0	4.2060	0	34.2220	0	27.151	0	678.325	0	-1e10	1	-1e10	1	-1E+10	1	-1e10	1	-1e10	1	-1E+10	1	-1E+10	1	-1E+10	1
4902624	3	C	07/21/2024	16:31	-128.854	46.477	0	690.20	0	4.1777	0	34.2235	0	27.155	0	683.366	0	11.2	4	3.6	4	-1E+10	1	0.0521	4	0.000182	0	-1E+10	1	-1E+10	1	-1E+10	1
4902624	3	C	07/21/2024	16:31	-128.854	46.477	0	695.00	0	4.1510	0	34.2250	0	27.159	0	688.110	0	-1e10	1	-1e10	1	-1E+10	1	-1e10	1	-1e10	1	-1E+10	1	-1E+10	1	-1E+10	1
4902624	3	C	07/21/2024	16:31	-128.854	46.477	0	699.10	0	4.1415	0	34.2267	0	27.162	0	692.163	0	11.0	4	3.5	4	-1E+10	1	0.0721	4	0.000150	0	-1E+10	1	-1E+10	1	-1E+10	1
4902624	3	C	07/21/2024	16:31	-128.854	46.477	0	704.90	0	4.1280	0	34.2290	0	27.165	0	697.896	0	-1e10	1	-1e10	1	-1E+10	1	-1e10	1	-1e10	1	-1E+10	1	-1E+10	1	-1E+10	1
4902624	3	C	07/21/2024	16:31	-128.854	46.477	0	708.40	0	4.1205	0	34.2314	0	27.168	0	701.355	0	10.6	4	3.4	4	-1E+10	1	0.0511	4	0.000182	0	-1E+10	1	-1E+10	1	-1E+10	1
4902624	3	C	07/21/2024	16:31	-128.854	46.477	0	715.20	0	4.1060	0	34.2360	0	27.173	0	708.076	0	-1e10	1	-1e10	1	-1E+10	1	-1e10	1	-1e10	1	-1E+10	1	-1E+10	1	-1E+10	1
4902624	3	C	07/21/2024	16:31	-128.854	46.477	0	718.20	0	4.1002	0	34.2384	0	27.176	0	711.041	0	10.3	4	3.3	4	-1E+10	1	0.0514	4	0.000160	0	-1E+10	1	-1E+10	1	-1E+10	1
4902624	3	C	07/21/2024	16:31	-128.854	46.477	0	725.00	0	4.0870	0	34.2440	0	27.181	0	717.761	0	-1e10	1	-1e10	1	-1E+10	1	-1e10	1	-1e10	1	-1E+10	1	-1E+10	1	-1E+10	1
4902624	3	C	07/21/2024	16:31	-128.854	46.477	0	728.50	0	4.0803	0	34.2461	0	27.184	0	721.220	0	10.0	4	3.2	4	-1E+10	1	0.0587	4	0.000160	0	-1E+10	1	-1E+10	1	-1E+10	1
4902624	3	C	07/21/2024	16:31	-128.854	46.477	0	735.00	0	4.0680	0	34.2500	0	27.188	0	727.644	0	-1e10	1	-1e10	1	-1E+10	1	-1e10	1	-1e10	1	-1E+10	1	-1E+10	1	-1E+10	1
4902624	3	C	07/21/2024	16:31	-128.854	46.477	0	739.20	0	4.0579	0	34.2521	0	27.191	0	731.795	0	9.7	4	3.1	4	-1E+10	1	0.0654	4	0.000160	0	-1E+10	1	-1E+10	1	-1E+10	1
4902624	3	C	07/21/2024	16:31	-128.854	46.477	0	745.00	0	4.0440	0	34.2550	0	27.195	0	737.526	0	-1e10	1	-1e10	1	-1E+10	1	-1e10	1	-1e10	1	-1E+10	1	-1E+10	1	-1E+10	1
4902624	3	C	07/21/2024	16:31	-128.854	46.477	0	750.30	0	4.0308	0	34.2576	0	27.198	0	742.764	0	9.5	4	3.0	4	-1E+10	1	0.0584	4	0.000171	0	-1E+10	1	-1E+10	1	-1E+10	1
4902624	3	C	07/21/2024	16:31	-128.854	46.477	0	755.00	0	4.0190	0	34.2600	0	27.201	0	747.408	0	-1e10	1	-1e10	1	-1E+10	1	-1e10	1	-1e10	1	-1E+10	1	-1E+10	1	-1E+10	1
4902624	3	C	07/21/2024	16:31	-128.854	46.477	0	761.80	0	3.9998	0	34.2648	0	27.207	0	754.127	0	9.2	4	2.9	4	-1E+10	1	0.0584	4	0.000171	0	-1E+10	1	-1E+10	1	-1E+10	1
4902624	3	C	07/21/2024	16:31	-128.854	46.477	0	764.90	0	3.9910	0	34.2670	0	27.210	0	757.191	0	-1e10	1	-1e10	1	-1E+10	1	-1e10	1	-1e10	1	-1E+10	1	-1E+10	1	-1E+10	1
4902624	3	C	07/21/2024	16:31	-128.854	46.477	0	773.70	0	3.9727	0	34.2731	0	27.217	0	765.886	0	8.9	4	2.8	4	-1E+10	1	0.0584	4	0.000171	0	-1E+10	1	-1E+10	1	-1E+10	1
4902624	3	C	07/21/2024	16:31	-128.854	46.477	0	775.00	0	3.9700	0	34.2740	0	27.218	0	767.170	0	-1e10	1	-1e10	1	-1E+10	1	-1e10	1	-1e10	1	-1E+10	1	-1E+10	1	-1E+10	1
4902624	3	C	07/21/2024	16:31	-128.854	46.477	0	785.30	0	3.9460	0	34.2800	0	27.225	0	777.347	0	-1e10	1	-1e10	1	-1E+10	1	-1e10	1	-1e10	1	-1E+10	1	-1E+10	1	-1E+10	1
4902624	3	C	07/21/2024	16:31	-128.854	46.477	0	785.60	0	3.9456	0	34.2801	0	27.225	0	777.643	0	12.2	4	3.8	4	-1E+10	1	0.0590	4	0.000182	0	-1E+10	1	-1E+10	1	-1E+10	1
4902624	3	C	07/21/2024	16:31	-128.854	46.477	0	795.00	0	3.9330	0	34.2840	0	27.229	0	786.930	0	-1e10	1	-1e10	1	-1E+10	1	-1e10	1	-1e10	1	-1E+10	1	-1E+10	1	-1E+10	1
4902624	3	C	07/21/2024	16:31	-128.854	46.477	0	797.80	0	3.9267	0	34.2854	0	27.231	0	789.697	0	58.9	4	18.6	4	-1E+10	1	0.0728	4	0.000170	0	-1E+10	1	-1E+10	1	-1E+10	1
4902624	3	C	07/21/2024	16:31	-128.854	46.477	0	804.80	0	3.9110	0	34.2890	0	27.236	0	796.612	0	-1e10	1	-1e10	1	-1E+10	1	-1e10	1	-1e10	1	-1E+10	1	-1E+10	1	-1E+10	1
4902624	3	C	07/21/2024	16:31	-128.854	46.477	0	810.00	0	3.9059	0	34.2911	0	27.238	0	801.749	0	62.0	4	19.6	4	-1E+10	1	0.0657	4	0.000148	0	-1E+10	1	-1E+10	1	-1E+10	1
4902624	3	C	07/21/2024	16:31	-128.854	46.477	0	814.90	0	3.9010	0	34.2930	0	27.240	0	806.590	0	-1e10	1	-1e10	1	-1E+10	1	-1e10	1	-1e10	1	-1E+10	1	-1E+10	1	-1E+10	1
4902624	3	C	07/21/2024	16:31	-128.854	46.477	0	822.40	0	3.8789	0	34.2981	0	27.246	0	813.999	0	53.6	4	16.9	4	-1E+10	1	0.0657	4	0.000170	0	-1E+10	1	-1E+10	1	-1E+10	1
4902624	3	C	07/21/2024	16:31	-128.854	46.477	0	825.10	0	3.8710	0	34.3000	0	27.249	0	816.666	0	-1e10	1	-1e10	1	-1E+10	1	-1e10	1	-1e10	1	-1E+10	1	-1E+10	1	-1E+10	1
4902624	3	C	07/21/2024	16:31	-128.854	46.477	0	834.70	0	3.8472	0	34.3048	0	27.255	0	826.149	0	65.9	4	20.8	4	-1E+10	1	0.0651	4	0.000159	0	-1E+10	1	-1E+10	1	-1E+10	1
4902624	3	C	07/21/2024	16:31	-128.854	46.477	0	835.20	0	3.8460	0	34.3050	0	27.255	0	826.643	0	-1e10	1	-1e10	1	-1E+10	1	-1e10	1	-1e10	1	-1E+10	1	-1E+10	1	-1E+10	1
4902624	3	C	07/21/2024	16:31	-128.854	46.477	0	845.20	0	3.8280	0	34.3090	0	27.260	0	836.520	0	-1e10	1	-1e10	1	-1E+10	1	-1e10	1	-1e10	1	-1E+10	1	-1E+10	1	-1E+10	1
4902624	3	C	07/21/2024	16:31	-128.854	46.477	0	847.20	0	3.8234	0	34.3100	0	27.262	0	838.496	0	67.4	4	21.2	4	-1E+10	1	0.0523	4	0.000170	0	-1E+10	1	-1E+10	1	-1E+10	1
4902624	3	C	07/21/2024	16:31	-128.854	46.477	0	855.20	0	3.8050	0	34.3140	0	27.267	0	846.398	0	-1e10	1	-1e10	1	-1E+10	1	-1e10	1	-1e10	1	-1E+10	1	-1E+10	1	-1E+10	1
4902624	3	C	07/21/2024	16:31	-128.854	46.477	0	856.50	0	3.8015	0	34.3147	0	27.268	0	847.682	0	68.4	4	21.5	4	-1E+10	1	0.0722	4	0.000169	0	-1E+10	1	-1E+10	1	-1E+10	1
4902624	3	C	07/21/2024	16:31	-128.854	46.477	0	864.50	0	3.7796	0	34.3187	0	27.273	0	855.583	0	67.6	4	21.2	4	-1E+10	1	0.0514	4	0.000159	0	-1E+10	1	-1E+10	1	-1E+10	1
4902624	3	C	07/21/2024	16:31	-128.854	46.477	0	865.10	0	3.7780	0	34.3190	0	27.273	0	856.175	0	-1e10	1	-1e10	1	-1E+10	1	-1e10	1	-1e10	1	-1E+10	1	-1E+10	1	-1E+10	1
4902624	3	C	07/21/2024	16:31	-128.854	46.477	0	872.60	0	3.7606	0	34.3220	0	27.278	0	863.582	0	56.7	4	17.8	4	-1E+10	1	0.0584	4	0.000180	0	-1E+10	1	-1E+10	1	-1E+10	1
4902624	3	C	07/21/2024	16:31	-128.854	46.477	0	875.00	0	3.7550	0	34.3230	0	27.279	0	865.953	0	-1e10	1	-1e10	1	-1E+10	1	-1e10	1	-1e10	1	-1E+10	1	-1E+10	1	-1E+10	1
4902624	3	C	07/21/2024	16:31	-128.854	46.477	0	880.80	0	3.7463	0	34.3253	0	27.282	0	871.681	0	54.3	4	17.1	4	-1E+10	1	0.0584	4	0.000147	0	-1E+10	1	-1E+10	1	-1E+10	1
4902624	3	C	07/21/2024	16:31	-128.854	46.477	0	885.00	0	3.7400	0	34.3270	0	27.284	0	875.828	0	-1e10	1	-1e10	1	-1E+10	1	-1e10	1	-1e10	1	-1E+10	1	-1E+10	1	-1E+10	1
4902624	3	C	07/21/2024	16:31	-128.854	46.477	0	889.10	0	3.7330	0	34.3291	0	27.286	0	879.877	0	51.0	4	16.0	4	-1E+10	1	0.0581	4	0.000158	0	-1E+10	1	-1E+10	1	-1E+10	1
4902624	3	C	07/21/2024	16:31	-128.854	46.477	0	895.00	0	3.7230	0	34.3320	0	27.289	0	885.704	0	-1e10	1	-1e10	1	-1E+10	1	-1e10	1	-1e10	1	-1E+10	1	-1E+10	1	-1E+10	1
4902624	3	C	07/21/2024	16:31	-128.854	46.477	0	897.40	0	3.7173	0	34.3337	0	27.291	0	888.074	0	62.5	4	19.6	4	-1E+10	1	0.0516	4	0.000158	0	-1E+10	1	-1E+10	1	-1E+10	1
4902624	3	C	07/21/2024	16:31	-128.854	46.477	0	905.10	0	3.6990	0	34.3390	0	27.297	0	895.677	0	-1e10	1	-1e10	1	-1E+10	1	-1e10	1	-1e10	1	-1E+10	1	-1E+10	1	-1E+10	1
4902624	3	C	07/21/2024	16:31	-128.854	46.477	0	906.00	0	3.6967	0	34.3395	0	27.298	0	896.566	0	65.3	4	20.5	4	-1E+10	1	0.0654	4	0.000157	0	-1E+10	1	-1E+10	1	-1E+10	1
4902624	3	C	07/21/2024	16:31	-128.854	46.477	0	914.50	0	3.6746	0	34.3446	0	27.304	0	904.959	0	59.1	4	18.5	4	-1E+10	1	0.0581	4	0.000145	0	-1E+10	1	-1E+10	1	-1E+10	1
4902624	3	C	07/21/2024	16:31	-128.854	46.477	0	915.10	0	3.6730	0	34.3450	0	27.305	0	905.551	0	-1e10	1	-1e10	1	-1E+10	1	-1e10	1	-1e10	1	-1E+10	1	-1E+10	1	-1E+10	1
4902624	3	C	07/21/2024	16:31	-128.854	46.477	0	923.30	0	3.6672	0	34.3491	0	27.309	0	913.648	0	55.9	4	17.5	4	-1E+10	1	0.0514	4	0.000134	0	-1E+10	1	-1E+10	1	-1E+10	1
4902624	3	C	07/21/2024	16:31	-128.854	46.477	0	925.00	0	3.6660	0	34.3500	0	27.310	0	915.326	0	-1e10	1	-1e10	1	-1E+10	1	-1e10	1	-1e10	1	-1E+10	1	-1E+10	1	-1E+10	1
4902624	3	C	07/21/2024	16:31	-128.854	46.477	0	932.30	0	3.6521	0	34.3522	0	27.313	0	922.534	0	54.3	4	17.0	4	-1E+10	1	0.0581	4	0.000145	0	-1E+10	1	-1E+10	1	-1E+10	1
4902624	3	C	07/21/2024	16:31	-128.854	46.477	0	935.00	0	3.6470	0	34.3530	0	27.314	0	925.200	0	-1e10	1	-1e10	1	-1E+10	1	-1e10	1	-1e10	1	-1E+10	1	-1E+10	1	-1E+10	1
4902624	3	C	07/21/2024	16:31	-128.854	46.477	0	941.40	0	3.6318	0	34.3549	0	27.317	0	931.518	0	55.6	4	17.4	4	-1E+10	1	0.0514	4	0.000134	0	-1E+10	1	-1E+10	1	-1E+10	1
4902624	3	C	07/21/2024	16:31	-128.854	46.477	0	945.10	0	3.6230	0	34.3560	0	27.319	0	935.171	0	-1e10	1	-1e10	1	-1E+10	1	-1e10	1	-1e10	1	-1E+10	1	-1E+10	1	-1E+10	1
4902624	3	C	07/21/2024	16:31	-128.854	46.477	0	950.50	0	3.6052	0	34.3582	0	27.322	0	940.502	0	52.9	4	16.6	4	-1E+10	1	0.0584	4	0.000146	0	-1E+10	1	-1E+10	1	-1E+10	1
4902624	3	C	07/21/2024	16:31	-128.854	46.477	0	955.10	0	3.5900	0	34.3600	0	27.325	0	945.044	0	-1e10	1	-1e10	1	-1E+10	1	-1e10	1	-1e10	1	-1E+10	1	-1E+10	1	-1E+10	1
4902624	3	C	07/21/2024	16:31	-128.854	46.477	0	959.90	0	3.5785	0	34.3619	0	27.328	0	949.782	0	47.4	4	14.8	4	-1E+10	1	0.0587	4	0.000157	0	-1E+10	1	-1E+10	1	-1E+10	1
4902624	3	C	07/21/2024	16:31	-128.854	46.477	0	965.10	0	3.5660	0	34.3640	0	27.331	0	954.916	0	-1e10	1	-1e10	1	-1E+10	1	-1e10	1	-1e10	1	-1E+10	1	-1E+10	1	-1E+10	1
4902624	3	C	07/21/2024	16:31	-128.854	46.477	0	969.70	0	3.5537	0	34.3659	0	27.333	0	959.457	0	57.9	4	18.1	4	-1E+10	1	0.0657	4	0.000156	0	-1E+10	1	-1E+10	1	-1E+10	1
4902624	3	C	07/21/2024	16:31	-128.854	46.477	0	974.80	0	3.5400	0	34.3680	0	27.336	0	964.491	0	-1e10	1	-1e10	1	-1E+10	1	-1e10	1	-1e10	1	-1E+10	1	-1E+10	1	-1E+10	1
4902624	3	C	07/21/2024	16:31	-128.854	46.477	0	979.60	0	3.5311	0	34.3704	0	27.339	0	969.229	0	51.5	4	16.1	4	-1E+10	1	0.0654	4	0.000134	0	-1E+10	1	-1E+10	1	-1E+10	1
4902624	3	C	07/21/2024	16:31	-128.854	46.477	0	985.00	0	3.5210	0	34.3730	0	27.342	0	974.559	0	-1e10	1	-1e10	1	-1E+10	1	-1e10	1	-1e10	1	-1E+10	1	-1E+10	1	-1E+10	1
4902624	3	C	07/21/2024	16:31	-128.854	46.477	0	989.60	0	3.5138	0	34.3753	0	27.345	0	979.100	0	52.1	4	16.3	4	-1E+10	1	0.0586	4	0.000145	0	-1E+10	1	-1E+10	1	-1E+10	1
4902624	3	C	07/21/2024	16:31	-128.854	46.477	0	995.20	0	3.5050	0	34.3780	0	27.348	0	984.627	0	-1e10	1	-1e10	1	-1E+10	1	-1e10	1	-1e10	1	-1E+10	1	-1E+10	1	-1E+10	1
4902624	3	C	07/21/2024	16:31	-128.854	46.477	0	1006.70	0	3.4876	0	34.3834	0	27.354	0	995.978	0	51.4	4	16.1	4	-1E+10	1	0.0657	4	0.000144	0	-1E+10	1	-1E+10	1	-1E+10	1
4902624	3	C	07/21/2024	16:31	-128.854	46.477	0	1025.00	0	3.4600	0	34.3920	0	27.364	0	1014.039	0	-1e10	1	-1e10	1	-1E+10	1	-1e10	1	-1e10	1	-1E+10	1	-1E+10	1	-1E+10	1
4902624	3	C	07/21/2024	16:31	-128.854	46.477	0	1027.90	0	3.4529	0	34.3932	0	27.365	0	1016.901	0	49.4	4	15.4	4	-1E+10	1	0.0654	4	0.000145	0	-1E+10	1	-1E+10	1	-1E+10	1
4902624	3	C	07/21/2024	16:31	-128.854	46.477	0	1050.10	0	3.3981	0	34.4026	0	27.378	0	1038.808	0	50.5	4	15.7	4	-1E+10	1	0.0514	4	0.000169	0	-1E+10	1	-1E+10	1	-1E+10	1
4902624	3	C	07/21/2024	16:31	-128.854	46.477	0	1072.80	0	3.3422	0	34.4121	0	27.391	0	1061.207	0	59.4	4	18.5	4	-1E+10	1	0.0657	4	0.000225	0	-1E+10	1	-1E+10	1	-1E+10	1
4902624	3	C	07/21/2024	16:31	-128.854	46.477	0	1074.90	0	3.3370	0	34.4130	0	27.392	0	1063.279	0	-1e10	1	-1e10	1	-1E+10	1	-1e10	1	-1e10	1	-1E+10	1	-1E+10	1	-1E+10	1
4902624	3	C	07/21/2024	16:31	-128.854	46.477	0	1096.10	0	3.2858	0	34.4201	0	27.403	0	1084.195	0	56.8	4	17.7	4	-1E+10	1	0.0659	4	0.000201	0	-1E+10	1	-1E+10	1	-1E+10	1
4902624	3	C	07/21/2024	16:31	-128.854	46.477	0	1119.70	0	3.2288	0	34.4281	0	27.415	0	1107.476	0	57.9	4	18.0	4	-1E+10	1	0.0728	4	0.000167	0	-1E+10	1	-1E+10	1	-1E+10	1
4902624	3	C	07/21/2024	16:31	-128.854	46.477	0	1125.40	0	3.2150	0	34.4300	0	27.418	0	1113.099	0	-1e10	1	-1e10	1	-1E+10	1	-1e10	1	-1e10	1	-1E+10	1	-1E+10	1	-1E+10	1
4902624	3	C	07/21/2024	16:31	-128.854	46.477	0	1141.60	0	3.1765	0	34.4346	0	27.425	0	1129.078	0	73.5	4	22.8	4	-1E+10	1	0.0657	4	0.000189	0	-1E+10	1	-1E+10	1	-1E+10	1
4902624	3	C	07/21/2024	16:31	-128.854	46.477	0	1157.80	0	3.1380	0	34.4392	0	27.432	0	1145.056	0	77.4	4	24.0	4	-1E+10	1	0.0657	4	0.000154	0	-1E+10	1	-1E+10	1	-1E+10	1
4902624	3	C	07/21/2024	16:31	-128.854	46.477	0	1174.60	0	3.0980	0	34.4440	0	27.440	0	1161.625	0	-1e10	1	-1e10	1	-1E+10	1	-1e10	1	-1e10	1	-1E+10	1	-1E+10	1	-1E+10	1
4902624	3	C	07/21/2024	16:31	-128.854	46.477	0	1174.80	0	3.0975	0	34.4441	0	27.440	0	1161.822	0	83.5	4	25.8	4	-1E+10	1	0.0654	4	0.000166	0	-1E+10	1	-1E+10	1	-1E+10	1
4902624	3	C	07/21/2024	16:31	-128.854	46.477	0	1192.60	0	3.0542	0	34.4487	0	27.448	0	1179.376	0	73.6	4	22.8	4	-1E+10	1	0.0514	4	0.000177	0	-1E+10	1	-1E+10	1	-1E+10	1
4902624	3	C	07/21/2024	16:31	-128.854	46.477	0	1211.20	0	3.0089	0	34.4535	0	27.456	0	1197.717	0	81.3	4	25.1	4	-1E+10	1	0.0655	4	0.000153	0	-1E+10	1	-1E+10	1	-1E+10	1
4902624	3	C	07/21/2024	16:31	-128.854	46.477	0	1224.70	0	2.9760	0	34.4570	0	27.462	0	1211.027	0	-1e10	1	-1e10	1	-1E+10	1	-1e10	1	-1e10	1	-1E+10	1	-1E+10	1	-1E+10	1
4902624	3	C	07/21/2024	16:31	-128.854	46.477	0	1230.70	0	2.9642	0	34.4583	0	27.464	0	1216.943	0	84.6	4	26.1	4	-1E+10	1	0.0582	4	0.000141	0	-1E+10	1	-1E+10	1	-1E+10	1
4902624	3	C	07/21/2024	16:31	-128.854	46.477	0	1251.50	0	2.9233	0	34.4629	0	27.471	0	1237.449	0	84.6	4	26.1	4	-1E+10	1	0.0511	4	0.000141	0	-1E+10	1	-1E+10	1	-1E+10	1
4902624	3	C	07/21/2024	16:31	-128.854	46.477	0	1273.30	0	2.8803	0	34.4676	0	27.479	0	1258.940	0	92.6	4	28.5	4	-1E+10	1	0.0511	4	0.000152	0	-1E+10	1	-1E+10	1	-1E+10	1
4902624	3	C	07/21/2024	16:31	-128.854	46.477	0	1275.00	0	2.8770	0	34.4680	0	27.479	0	1260.615	0	-1e10	1	-1e10	1	-1E+10	1	-1e10	1	-1e10	1	-1E+10	1	-1E+10	1	-1E+10	1
4902624	3	C	07/21/2024	16:31	-128.854	46.477	0	1295.70	0	2.8370	0	34.4726	0	27.487	0	1281.019	0	95.5	4	29.4	4	-1E+10	1	0.0514	4	0.000141	0	-1E+10	1	-1E+10	1	-1E+10	1
4902624	3	C	07/21/2024	16:31	-128.854	46.477	0	1318.80	0	2.7924	0	34.4777	0	27.495	0	1303.786	0	103.6	4	31.8	4	-1E+10	1	0.0657	4	0.000163	0	-1E+10	1	-1E+10	1	-1E+10	1
4902624	3	C	07/21/2024	16:31	-128.854	46.477	0	1324.70	0	2.7810	0	34.4790	0	27.497	0	1309.600	0	-1e10	1	-1e10	1	-1E+10	1	-1e10	1	-1e10	1	-1E+10	1	-1E+10	1	-1E+10	1
4902624	3	C	07/21/2024	16:31	-128.854	46.477	0	1342.20	0	2.7513	0	34.4828	0	27.503	0	1326.846	0	112.9	4	34.7	4	-1E+10	1	0.0656	4	0.000140	0	-1E+10	1	-1E+10	1	-1E+10	1
4902624	3	C	07/21/2024	16:31	-128.854	46.477	0	1366.00	0	2.7110	0	34.4879	0	27.510	0	1350.297	0	114.6	4	35.1	4	-1E+10	1	0.0582	4	0.000140	0	-1E+10	1	-1E+10	1	-1E+10	1
4902624	3	C	07/21/2024	16:31	-128.854	46.477	0	1376.00	0	2.6940	0	34.4900	0	27.514	0	1360.150	0	-1e10	1	-1e10	1	-1E+10	1	-1e10	1	-1e10	1	-1E+10	1	-1E+10	1	-1E+10	1
4902624	3	C	07/21/2024	16:31	-128.854	46.477	0	1383.00	0	2.6817	0	34.4916	0	27.516	0	1367.047	0	83.0	4	25.4	4	-1E+10	1	0.0512	4	0.000162	0	-1E+10	1	-1E+10	1	-1E+10	1
4902624	3	C	07/21/2024	16:31	-128.854	46.477	0	1399.70	0	2.6523	0	34.4953	0	27.522	0	1383.499	0	82.0	4	25.1	4	-1E+10	1	0.0584	4	0.000139	0	-1E+10	1	-1E+10	1	-1E+10	1
4902624	3	C	07/21/2024	16:31	-128.854	46.477	0	1416.70	0	2.6224	0	34.4992	0	27.527	0	1400.246	0	76.3	4	23.4	4	-1E+10	1	0.0583	4	0.000162	0	-1E+10	1	-1E+10	1	-1E+10	1
4902624	3	C	07/21/2024	16:31	-128.854	46.477	0	1424.90	0	2.6080	0	34.5010	0	27.530	0	1408.324	0	-1e10	1	-1e10	1	-1E+10	1	-1e10	1	-1e10	1	-1E+10	1	-1E+10	1	-1E+10	1
4902624	3	C	07/21/2024	16:31	-128.854	46.477	0	1434.40	0	2.5945	0	34.5031	0	27.533	0	1417.681	0	70.5	4	21.6	4	-1E+10	1	0.0513	4	0.000149	0	-1E+10	1	-1E+10	1	-1E+10	1
4902624	3	C	07/21/2024	16:31	-128.854	46.477	0	1452.50	0	2.5688	0	34.5071	0	27.538	0	1435.509	0	71.4	4	21.8	4	-1E+10	1	0.0586	4	0.000115	0	-1E+10	1	-1E+10	1	-1E+10	1
4902624	3	C	07/21/2024	16:31	-128.854	46.477	0	1471.30	0	2.5421	0	34.5112	0	27.544	0	1454.024	0	76.1	4	23.3	4	-1E+10	1	0.0654	4	0.000115	0	-1E+10	1	-1E+10	1	-1E+10	1
4902624	3	C	07/21/2024	16:31	-128.854	46.477	0	1474.90	0	2.5370	0	34.5120	0	27.545	0	1457.569	0	-1e10	1	-1e10	1	-1E+10	1	-1e10	1	-1e10	1	-1E+10	1	-1E+10	1	-1E+10	1
4902624	3	C	07/21/2024	16:31	-128.854	46.477	0	1490.90	0	2.5111	0	34.5152	0	27.550	0	1473.326	0	112.1	4	34.2	4	-1E+10	1	0.0514	4	0.000149	0	-1E+10	1	-1E+10	1	-1E+10	1
4902624	3	C	07/21/2024	16:31	-128.854	46.477	0	1511.10	0	2.4784	0	34.5192	0	27.556	0	1493.216	0	131.3	4	40.0	4	-1E+10	1	0.0654	4	0.000137	0	-1E+10	1	-1E+10	1	-1E+10	1
4902624	3	C	07/21/2024	16:31	-128.854	46.477	0	1524.90	0	2.4560	0	34.5220	0	27.560	0	1506.804	0	-1e10	1	-1e10	1	-1E+10	1	-1e10	1	-1e10	1	-1E+10	1	-1E+10	1	-1E+10	1
4902624	3	C	07/21/2024	16:31	-128.854	46.477	0	1532.00	0	2.4446	0	34.5233	0	27.562	0	1513.794	0	158.6	4	48.3	4	-1E+10	1	0.0511	4	0.000125	0	-1E+10	1	-1E+10	1	-1E+10	1
4902624	3	C	07/21/2024	16:31	-128.854	46.477	0	1553.90	0	2.4096	0	34.5272	0	27.568	0	1535.354	0	187.1	4	57.0	4	-1E+10	1	0.0513	4	0.000136	0	-1E+10	1	-1E+10	1	-1E+10	1
4902624	3	C	07/21/2024	16:31	-128.854	46.477	0	1574.90	0	2.3760	0	34.5310	0	27.574	0	1556.027	0	-1e10	1	-1e10	1	-1E+10	1	-1e10	1	-1e10	1	-1E+10	1	-1E+10	1	-1E+10	1
4902624	3	C	07/21/2024	16:31	-128.854	46.477	0	1576.50	0	2.3740	0	34.5313	0	27.575	0	1557.602	0	197.6	4	60.1	4	-1E+10	1	0.0582	4	0.000113	0	-1E+10	1	-1E+10	1	-1E+10	1
4902624	3	C	07/21/2024	16:31	-128.854	46.477	0	1599.60	0	2.3459	0	34.5354	0	27.580	0	1580.338	0	178.3	4	54.2	4	-1E+10	1	0.0512	4	0.000124	0	-1E+10	1	-1E+10	1	-1E+10	1
4902624	3	C	07/21/2024	16:31	-128.854	46.477	0	1623.40	0	2.3168	0	34.5396	0	27.586	0	1603.762	0	175.0	4	53.2	4	-1E+10	1	0.0582	4	0.000134	0	-1E+10	1	-1E+10	1	-1E+10	1
4902624	3	C	07/21/2024	16:31	-128.854	46.477	0	1625.70	0	2.3140	0	34.5400	0	27.587	0	1606.025	0	-1e10	1	-1e10	1	-1E+10	1	-1e10	1	-1e10	1	-1E+10	1	-1E+10	1	-1E+10	1
4902624	3	C	07/21/2024	16:31	-128.854	46.477	0	1642.00	0	2.2903	0	34.5430	0	27.591	0	1622.066	0	173.1	4	52.6	4	-1E+10	1	0.0511	4	0.000078	0	-1E+10	1	-1E+10	1	-1E+10	1
4902624	3	C	07/21/2024	16:31	-128.854	46.477	0	1658.30	0	2.2667	0	34.5460	0	27.596	0	1638.105	0	167.2	4	50.7	4	-1E+10	1	0.0510	4	0.000146	0	-1E+10	1	-1E+10	1	-1E+10	1
4902624	3	C	07/21/2024	16:31	-128.854	46.477	0	1674.60	0	2.2430	0	34.5490	0	27.600	0	1654.143	0	-1e10	1	-1e10	1	-1E+10	1	-1e10	1	-1e10	1	-1E+10	1	-1E+10	1	-1E+10	1
4902624	3	C	07/21/2024	16:31	-128.854	46.477	0	1675.30	0	2.2420	0	34.5491	0	27.600	0	1654.831	0	162.9	4	49.4	4	-1E+10	1	0.0440	4	0.000146	0	-1E+10	1	-1E+10	1	-1E+10	1
4902624	3	C	07/21/2024	16:31	-128.854	46.477	0	1692.90	0	2.2181	0	34.5527	0	27.605	0	1672.147	0	164.3	4	49.8	4	-1E+10	1	0.0512	4	0.000157	0	-1E+10	1	-1E+10	1	-1E+10	1
4902624	3	C	07/21/2024	16:31	-128.854	46.477	0	1711.60	0	2.1927	0	34.5564	0	27.610	0	1690.543	0	160.3	4	48.6	4	-1E+10	1	0.0579	4	0.000133	0	-1E+10	1	-1E+10	1	-1E+10	1
4902624	3	C	07/21/2024	16:31	-128.854	46.477	0	1724.60	0	2.1750	0	34.5590	0	27.614	0	1703.331	0	-1e10	1	-1e10	1	-1E+10	1	-1e10	1	-1e10	1	-1E+10	1	-1E+10	1	-1E+10	1
4902624	3	C	07/21/2024	16:31	-128.854	46.477	0	1730.80	0	2.1691	0	34.5599	0	27.615	0	1709.430	0	161.9	4	49.0	4	-1E+10	1	0.0366	4	0.000122	0	-1E+10	1	-1E+10	1	-1E+10	1
4902624	3	C	07/21/2024	16:31	-128.854	46.477	0	1750.70	0	2.1502	0	34.5626	0	27.619	0	1729.003	0	164.3	4	49.7	4	-1E+10	1	0.0438	4	0.000133	0	-1E+10	1	-1E+10	1	-1E+10	1
4902624	3	C	07/21/2024	16:31	-128.854	46.477	0	1771.30	0	2.1306	0	34.5655	0	27.623	0	1749.263	0	166.9	4	50.5	4	-1E+10	1	0.0438	4	0.000122	0	-1E+10	1	-1E+10	1	-1E+10	1
4902624	3	C	07/21/2024	16:31	-128.854	46.477	0	1775.10	0	2.1270	0	34.5660	0	27.623	0	1753.000	0	-1e10	1	-1e10	1	-1E+10	1	-1e10	1	-1e10	1	-1E+10	1	-1E+10	1	-1E+10	1
4902624	3	C	07/21/2024	16:31	-128.854	46.477	0	1792.90	0	2.1115	0	34.5682	0	27.626	0	1770.504	0	170.1	4	51.4	4	-1E+10	1	0.0443	4	0.000155	0	-1E+10	1	-1E+10	1	-1E+10	1
4902624	3	C	07/21/2024	16:31	-128.854	46.477	0	1815.40	0	2.0920	0	34.5709	0	27.630	0	1792.628	0	173.3	4	52.4	4	-1E+10	1	0.0654	4	0.000113	0	-1E+10	1	-1E+10	1	-1E+10	1
4902624	3	C	07/21/2024	16:31	-128.854	46.477	0	1824.60	0	2.0840	0	34.5720	0	27.632	0	1801.674	0	-1e10	1	-1e10	1	-1E+10	1	-1e10	1	-1e10	1	-1E+10	1	-1E+10	1	-1E+10	1
4902624	3	C	07/21/2024	16:31	-128.854	46.477	0	1838.50	0	2.0713	0	34.5742	0	27.635	0	1815.340	0	176.9	4	53.4	4	-1E+10	1	0.0509	4	0.000327	0	-1E+10	1	-1E+10	1	-1E+10	1
4902624	3	C	07/21/2024	16:31	-128.854	46.477	0	1862.10	0	2.0498	0	34.5778	0	27.639	0	1838.541	0	181.2	4	54.7	4	-1E+10	1	0.0365	4	0.000108	0	-1E+10	1	-1E+10	1	-1E+10	1
4902624	3	C	07/21/2024	16:31	-128.854	46.477	0	1876.20	0	2.0370	0	34.5800	0	27.642	0	1852.401	0	-1e10	1	-1e10	1	-1E+10	1	-1e10	1	-1e10	1	-1E+10	1	-1E+10	1	-1E+10	1
4902624	3	C	07/21/2024	16:31	-128.854	46.477	0	1880.90	0	2.0335	0	34.5806	0	27.643	0	1857.021	0	184.3	4	55.6	4	-1E+10	1	0.0367	4	0.000146	0	-1E+10	1	-1E+10	1	-1E+10	1
4902624	3	C	07/21/2024	16:31	-128.854	46.477	0	1898.00	0	2.0209	0	34.5827	0	27.646	0	1873.828	0	186.6	4	56.3	4	-1E+10	1	0.0440	4	0.000303	0	-1E+10	1	-1E+10	1	-1E+10	1
4902624	3	C	07/21/2024	16:31	-128.854	46.477	0	1916.10	0	2.0074	0	34.5849	0	27.649	0	1891.617	0	171.4	4	51.7	4	-1E+10	1	0.0511	4	0.000165	0	-1E+10	1	-1E+10	1	-1E+10	1
4902624	3	C	07/21/2024	16:31	-128.854	46.477	0	1924.80	0	2.0010	0	34.5860	0	27.650	0	1900.167	0	-1e10	1	-1e10	1	-1E+10	1	-1e10	1	-1e10	1	-1E+10	1	-1E+10	1	-1E+10	1
4902624	3	C	07/21/2024	16:31	-128.854	46.477	0	1934.90	0	1.9943	0	34.5871	0	27.652	0	1910.093	0	172.8	4	52.1	4	-1E+10	1	0.0508	4	0.000141	0	-1E+10	1	-1E+10	1	-1E+10	1
4902624	3	C	07/21/2024	16:31	-128.854	46.477	0	1954.50	0	1.9814	0	34.5893	0	27.654	0	1929.353	0	174.8	4	52.7	4	-1E+10	1	0.0365	4	0.000107	0	-1E+10	1	-1E+10	1	-1E+10	1
4902624	3	C	07/21/2024	16:31	-128.854	46.477	0	1961.10	0	1.9770	0	34.5900	0	27.655	0	1935.838	0	-1e10	1	-1e10	1	-1E+10	1	-1e10	1	-1e10	1	-1E+10	1	-1E+10	1	-1E+10	1
4902624	3	C	07/21/2024	16:31	-128.854	46.477	0	1971.20	0	-1e10	1	-1e10	1	-1e10	1	1945.762	0	179.3	4	-1e10	4	-1E+10	1	0.0365	4	0.000143	0	-1E+10	1	-1E+10	1	-1E+10	1
4902624	3	C	07/21/2024	16:31	-128.854	46.477	0																										
4902624	4	C	07/31/2024	11:38	-128.768	46.668	0	0.20	0	17.4154	8	32.4360	8	23.451	0	0.198	0	231.6	4	96.2	4	-1E+10	1	1.3505	4	0.001245	0	-1E+10	1	-1E+10	1	-1E+10	1
4902624	4	C	07/31/2024	11:38	-128.768	46.668	0	0.30	0	17.4423	8	32.4170	8	23.430	0	0.298	0	233.0	4	96.8	4	-1E+10	1	1.3578	4	0.001222	0	-1E+10	1	-1E+10	1	-1E+10	1
4902624	4	C	07/31/2024	11:38	-128.768	46.668	0	0.50	0	17.4960	8	32.3790	8	23.388	0	0.496	0	-1e10	1	-1e10	1	-1E+10	1	-1e10	1	-1e10	1	-1E+10	1	-1E+10	1	-1E+10	1
4902624	4	C	07/31/2024	11:38	-128.768	46.668	0	0.80	0	17.4972	8	32.3814	8	23.389	0	0.793	0	232.9	4	96.9	4	-1E+10	1	1.3213	4	0.001198	0	-1E+10	1	-1E+10	1	-1E+10	1
4902624	4	C	07/31/2024	11:38	-128.768	46.668	0	1.10	0	17.4984	8	32.3838	8	23.391	0	1.091	0	-1e10	1	-1e10	1	-1E+10	1	1.3870	4	0.001187	0	-1E+10	1	-1E+10	1	-1E+10	1
4902624	4	C	07/31/2024	11:38	-128.768	46.668	0	1.20	0	17.4988	8	32.3846	8	23.391	0	1.190	0	-1e10	1	-1e10	1	-1E+10	1	1.3578	4	0.001269	0	-1E+10	1	-1E+10	1	-1E+10	1
4902624	4	C	07/31/2024	11:38	-128.768	46.668	0	1.30	0	17.4992	8	32.3854	8	23.392	0	1.289	0	-1e10	1	-1e10	1	-1E+10	1	1.3286	4	0.001198	0	-1E+10	1	-1E+10	1	-1E+10	1
4902624	4	C	07/31/2024	11:38	-128.768	46.668	0	1.50	0	17.5000	0	32.3870	0	23.393	0	1.488	0	-1e10	1	-1e10	1	-1E+10	1	1.4089	4	0.001293	0	-1E+10	1	-1E+10	1	-1E+10	1
4902624	4	C	07/31/2024	11:38	-128.768	46.668	0	1.60	0	17.4999	0	32.3872	0	23.393	0	1.587	0	-1e10	1	-1e10	1	-1E+10	1	1.4965	4	0.001210	0	-1E+10	1	-1E+10	1	-1E+10	1
4902624	4	C	07/31/2024	11:38	-128.768	46.668	0	1.80	0	17.4997	0	32.3876	0	23.394	0	1.785	0	-1e10	1	-1e10	1	-1E+10	1	1.4454	4	0.001280	0	-1E+10	1	-1E+10	1	-1E+10	1
4902624	4	C	07/31/2024	11:38	-128.768	46.668	0	1.90	0	17.4996	0	32.3878	0	23.394	0	1.884	0	233.0	4	96.9	4	-1E+10	1	1.3359	4	0.001233	0	-1E+10	1	-1E+10	1	-1E+10	1
4902624	4	C	07/31/2024	11:38	-128.768	46.668	0	2.10	0	17.4994	0	32.3882	0	23.394	0	2.083	0	-1e10	1	-1e10	1	-1E+10	1	1.4016	4	0.001351	0	-1E+10	1	-1E+10	1	-1E+10	1
4902624	4	C	07/31/2024	11:38	-128.768	46.668	0	2.40	0	17.4991	0	32.3888	0	23.395	0	2.380	0	-1e10	1	-1e10	1	-1E+10	1	1.5914	4	0.001890	0	-1E+10	1	-1E+10	1	-1E+10	1
4902624	4	C	07/31/2024	11:38	-128.768	46.668	0	2.50	0	17.4990	0	32.3890	0	23.395	0	2.479	0	233.5	4	97.1	4	-1E+10	1	1.3432	4	0.001117	0	-1E+10	1	-1E+10	1	-1E+10	1
4902624	4	C	07/31/2024	11:38	-128.768	46.668	0	2.70	0	17.4986	0	32.3886	0	23.395	0	2.678	0	-1e10	1	-1e10	1	-1E+10	1	1.3651	4	0.001292	0	-1E+10	1	-1E+10	1	-1E+10	1
4902624	4	C	07/31/2024	11:38	-128.768	46.668	0	2.80	0	17.4984	0	32.3884	0	23.394	0	2.777	0	-1e10	1	-1e10	1	-1E+10	1	1.3359	4	0.001151	0	-1E+10	1	-1E+10	1	-1E+10	1
4902624	4	C	07/31/2024	11:38	-128.768	46.668	0	3.00	0	17.4980	0	32.3880	0	23.394	0	2.975	0	-1e10	1	-1e10	1	-1E+10	1	1.3797	4	0.001280	0	-1E+10	1	-1E+10	1	-1E+10	1
4902624	4	C	07/31/2024	11:38	-128.768	46.668	0	3.10	0	17.4978	0	32.3878	0	23.394	0	3.074	0	-1e10	1	-1e10	1	-1E+10	1	1.5184	4	0.001456	0	-1E+10	1	-1E+10	1	-1E+10	1
4902624	4	C	07/31/2024	11:38	-128.768	46.668	0	3.30	0	17.4974	0	32.3874	0	23.394	0	3.273	0	233.5	4	97.1	4	-1E+10	1	1.3578	4	0.001280	0	-1E+10	1	-1E+10	1	-1E+10	1
4902624	4	C	07/31/2024	11:38	-128.768	46.668	0	3.50	0	17.4970	0	32.3870	0	23.394	0	3.471	0	-1e10	1	-1e10	1	-1E+10	1	-1e10	1	-1e10	1	-1E+10	1	-1E+10	1	-1E+10	1
4902624	4	C	07/31/2024	11:38	-128.768	46.668	0	3.60	0	17.4834	0	32.3877	0	23.398	0	3.570	0	-1e10	1	-1e10	1	-1E+10	1	1.3651	4	0.001269	0	-1E+10	1	-1E+10	1	-1E+10	1
4902624	4	C	07/31/2024	11:38	-128.768	46.668	0	3.70	0	17.4698	0	32.3884	0	23.401	0	3.669	0	-1e10	1	-1e10	1	-1E+10	1	1.3432	4	0.001128	0	-1E+10	1	-1E+10	1	-1E+10	1
4902624	4	C	07/31/2024	11:38	-128.768	46.668	0	4.00	0	17.4290	0	32.3905	0	23.413	0	3.967	0	-1e10	1	-1e10	1	-1E+10	1	1.3578	4	0.001339	0	-1E+10	1	-1E+10	1	-1E+10	1
4902624	4	C	07/31/2024	11:38	-128.768	46.668	0	4.10	0	17.4154	0	32.3912	0	23.416	0	4.066	0	233.9	4	97.2	4	-1E+10	1	1.3505	4	0.001163	0	-1E+10	1	-1E+10	1	-1E+10	1
4902624	4	C	07/31/2024	11:38	-128.768	46.668	0	4.30	0	17.3882	0	32.3926	0	23.424	0	4.264	0	-1e10	1	-1e10	1	-1E+10	1	1.3213	4	0.001198	0	-1E+10	1	-1E+10	1	-1E+10	1
4902624	4	C	07/31/2024	11:38	-128.768	46.668	0	4.50	0	17.3610	0	32.3940	0	23.431	0	4.463	0	-1e10	1	-1e10	1	-1E+10	1	1.5330	4	0.001457	0	-1E+10	1	-1E+10	1	-1E+10	1
4902624	4	C	07/31/2024	11:38	-128.768	46.668	0	4.60	0	17.3541	0	32.3935	0	23.433	0	4.562	0	-1e10	1	-1e10	1	-1E+10	1	1.3870	4	0.001304	0	-1E+10	1	-1E+10	1	-1E+10	1
4902624	4	C	07/31/2024	11:38	-128.768	46.668	0	4.80	0	17.3403	0	32.3924	0	23.435	0	4.760	0	-1e10	1	-1e10	1	-1E+10	1	1.4235	4	0.001257	0	-1E+10	1	-1E+10	1	-1E+10	1
4902624	4	C	07/31/2024	11:38	-128.768	46.668	0	5.10	0	17.3195	0	32.3907	0	23.439	0	5.058	0	234.2	4	97.1	4	-1E+10	1	1.5038	4	0.001316	0	-1E+10	1	-1E+10	1	-1E+10	1
4902624	4	C	07/31/2024	11:38	-128.768	46.668	0	5.30	0	17.3057	0	32.3896	0	23.441	0	5.256	0	-1e10	1	-1e10	1	-1E+10	1	1.4235	4	0.001198	0	-1E+10	1	-1E+10	1	-1E+10	1
4902624	4	C	07/31/2024	11:38	-128.768	46.668	0	5.50	0	17.2919	0	32.3885	0	23.444	0	5.454	0	-1e10	1	-1e10	1	-1E+10	1	1.4673	4	0.001714	0	-1E+10	1	-1E+10	1	-1E+10	1
4902624	4	C	07/31/2024	11:38	-128.768	46.668	0	5.60	0	17.2850	0	32.3880	0	23.445	0	5.554	0	-1e10	1	-1e10	1	-1E+10	1	1.5549	4	0.001246	0	-1E+10	1	-1E+10	1	-1E+10	1
4902624	4	C	07/31/2024	11:38	-128.768	46.668	0	5.90	0	17.2803	0	32.3880	0	23.446	0	5.851	0	234.3	4	97.1	4	-1E+10	1	1.5768	4	0.001409	0	-1E+10	1	-1E+10	1	-1E+10	1
4902624	4	C	07/31/2024	11:38	-128.768	46.668	0	6.00	0	17.2788	0	32.3880	0	23.446	0	5.950	0	-1e10	1	-1e10	1	-1E+10	1	1.4235	4	0.001257	0	-1E+10	1	-1E+10	1	-1E+10	1
4902624	4	C	07/31/2024	11:38	-128.768	46.668	0	6.20	0	17.2757	0	32.3880	0	23.447	0	6.149	0	-1e10	1	-1e10	1	-1E+10	1	1.3724	4	0.001339	0	-1E+10	1	-1E+10	1	-1E+10	1
4902624	4	C	07/31/2024	11:38	-128.768	46.668	0	6.50	0	17.2710	0	32.3880	0	23.448	0	6.446	0	-1e10	1	-1e10	1	-1E+10	1	1.3505	4	0.001222	0	-1E+10	1	-1E+10	1	-1E+10	1
4902624	4	C	07/31/2024	11:38	-128.768	46.668	0	6.70	0	17.2690	0	32.3880	0	23.449	0	6.644	0	234.5	4	97.1	4	-1E+10	1	1.4600	4	0.001198	0	-1E+10	1	-1E+10	1	-1E+10	1
4902624	4	C	07/31/2024	11:38	-128.768	46.668	0	6.90	0	17.2670	0	32.3880	0	23.449	0	6.843	0	-1e10	1	-1e10	1	-1E+10	1	1.5622	4	0.001597	0	-1E+10	1	-1E+10	1	-1E+10	1
4902624	4	C	07/31/2024	11:38	-128.768	46.668	0	7.10	0	17.2650	0	32.3880	0	23.450	0	7.041	0	-1e10	1	-1e10	1	-1E+10	1	1.3870	4	0.001363	0	-1E+10	1	-1E+10	1	-1E+10	1
4902624	4	C	07/31/2024	11:38	-128.768	46.668	0	7.30	0	17.2630	0	32.3880	0	23.450	0	7.240	0	-1e10	1	-1e10	1	-1E+10	1	1.3724	4	0.001222	0	-1E+10	1	-1E+10	1	-1E+10	1
4902624	4	C	07/31/2024	11:38	-128.768	46.668	0	7.40	0	17.2620	0	32.3880	0	23.450	0	7.339	0	-1e10	1	-1e10	1	-1E+10	1	1.4308	4	0.001175	0	-1E+10	1	-1E+10	1	-1E+10	1
4902624	4	C	07/31/2024	11:38	-128.768	46.668	0	7.60	0	17.2600	0	32.3878	0	23.451	0	7.537	0	234.6	4	97.1	4	-1E+10	1	1.4308	4	0.001316	0	-1E+10	1	-1E+10	1	-1E+10	1
4902624	4	C	07/31/2024	11:38	-128.768	46.668	0	8.00	0	17.2560	0	32.3874	0	23.451	0	7.934	0	-1e10	1	-1e10	1	-1E+10	1	1.4089	4	0.001386	0	-1E+10	1	-1E+10	1	-1E+10	1
4902624	4	C	07/31/2024	11:38	-128.768	46.668	0	8.20	0	17.2540	0	32.3872	0	23.452	0	8.132	0	-1e10	1	-1e10	1	-1E+10	1	1.4527	4	0.001269	0	-1E+10	1	-1E+10	1	-1E+10	1
4902624	4	C	07/31/2024	11:38	-128.768	46.668	0	8.30	0	17.2530	0	32.3871	0	23.452	0	8.231	0	-1e10	1	-1e10	1	-1E+10	1	1.4089	4	0.001222	0	-1E+10	1	-1E+10	1	-1E+10	1
4902624	4	C	07/31/2024	11:38	-128.768	46.668	0	8.40	0	17.2520	0	32.3870	0	23.452	0	8.330	0	-1e10	1	-1e10	1	-1E+10	1	-1e10	1	-1e10	1	-1E+10	1	-1E+10	1	-1E+10	1
4902624	4	C	07/31/2024	11:38	-128.768	46.668	0	8.50	0	17.2512	0	32.3871	0	23.452	0	8.430	0	234.8	4	97.2	4	-1E+10	1	1.4162	4	0.001257	0	-1E+10	1	-1E+10	1	-1E+10	1
4902624	4	C	07/31/2024	11:38	-128.768	46.668	0	8.70	0	17.2495	0	32.3873	0	23.453	0	8.628	0	-1e10	1	-1e10	1	-1E+10	1	1.3943	4	0.001280	0	-1E+10	1	-1E+10	1	-1E+10	1
4902624	4	C	07/31/2024	11:38	-128.768	46.668	0	8.90	0	17.2479	0	32.3875	0	23.453	0	8.826	0	-1e10	1	-1e10	1	-1E+10	1	1.4016	4	0.001198	0	-1E+10	1	-1E+10	1	-1E+10	1
4902624	4	C	07/31/2024	11:38	-128.768	46.668	0	9.00	0	17.2471	0	32.3875	0	23.454	0	8.925	0	-1e10	1	-1e10	1	-1E+10	1	1.4235	4	0.001175	0	-1E+10	1	-1E+10	1	-1E+10	1
4902624	4	C	07/31/2024	11:38	-128.768	46.668	0	9.40	0	17.2438	0	32.3879	0	23.455	0	9.322	0	235.1	4	97.3	4	-1E+10	1	1.4624	4	0.001233	0	-1E+10	1	-1E+10	1	-1E+10	1
4902624	4	C	07/31/2024	11:38	-128.768	46.668	0	9.50	0	17.2430	0	32.3880	0	23.455	0	9.421	0	-1e10	1	-1e10	1	-1E+10	1	-1e10	1	-1e10	1	-1E+10	1	-1E+10	1	-1E+10	1
4902624	4	C	07/31/2024	11:38	-128.768	46.668	0	9.60	0	17.2424	0	32.3879	0	23.455	0	9.520	0	-1e10	1	-1e10	1	-1E+10	1	1.4819	4	0.001210	0	-1E+10	1	-1E+10	1	-1E+10	1
4902624	4	C	07/31/2024	11:38	-128.768	46.668	0	10.30	0	17.2380	0	32.3875	0	23.456	0	10.215	0	235.5	4	97.5	4	-1E+10	1	1.4198	4	0.001340	0	-1E+10	1	-1E+10	1	-1E+10	1
4902624	4	C	07/31/2024	11:38	-128.768	46.668	0	11.10	0	17.2330	0	32.3870	0	23.457	0	11.008	0	-1e10	1	-1e10	1	-1E+10	1	-1e10	1	-1e10	1	-1E+10	1	-1E+10	1	-1E+10	1
4902624	4	C	07/31/2024	11:38	-128.768	46.668	0	11.20	0	17.2319	0	32.3870	0	23.457	0	11.107	0	235.8	4	97.6	4	-1E+10	1	1.4507	4	0.001298	0	-1E+10	1	-1E+10	1	-1E+10	1
4902624	4	C	07/31/2024	11:38	-128.768	46.668	0	12.00	0	17.2235	0	32.3870	0	23.459	0	11.900	0	236.2	4	97.7	4	-1E+10	1	1.4695	4	0.001249	0	-1E+10	1	-1E+10	1	-1E+10	1
4902624	4	C	07/31/2024	11:38	-128.768	46.668	0	12.90	0	17.2141	0	32.3870	0	23.461	0	12.793	0	236.8	4	98.0	4	-1E+10	1	1.4795	4	0.001241	0	-1E+10	1	-1E+10	1	-1E+10	1
4902624	4	C	07/31/2024	11:38	-128.768	46.668	0	13.00	0	17.2130	0	32.3870	0	23.461	0	12.892	0	-1e10	1	-1e10	1	-1E+10	1	-1e10	1	-1e10	1	-1E+10	1	-1E+10	1	-1E+10	1
4902624	4	C	07/31/2024	11:38	-128.768	46.668	0	13.80	0	17.1940	0	32.3862	0	23.465	0	13.685	0	237.3	4	98.1	4	-1E+10	1	1.4933	4	0.001192	0	-1E+10	1	-1E+10	1	-1E+10	1
4902624	4	C	07/31/2024	11:38	-128.768	46.668	0	14.50	0	17.1773	0	32.3856	0	23.469	0	14.380	0	238.0	4	98.4	4	-1E+10	1	1.4819	4	0.001210	0	-1E+10	1	-1E+10	1	-1E+10	1
4902624	4	C	07/31/2024	11:38	-128.768	46.668	0	15.10	0	17.1630	0	32.3850	0	23.472	0	14.975	0	-1e10	1	-1e10	1	-1E+10	1	-1e10	1	-1e10	1	-1E+10	1	-1E+10	1	-1E+10	1
4902624	4	C	07/31/2024	11:38	-128.768	46.668	0	15.50	0	17.1472	0	32.3844	0	23.475	0	15.371	0	238.8	4	98.7	4	-1E+10	1	1.5841	4	0.001327	0	-1E+10	1	-1E+10	1	-1E+10	1
4902624	4	C	07/31/2024	11:38	-128.768	46.668	0	16.30	0	17.1156	0	32.3831	0	23.481	0	16.165	0	239.7	4	99.0	4	-1E+10	1	1.6498	4	0.001409	0	-1E+10	1	-1E+10	1	-1E+10	1
4902624	4	C	07/31/2024	11:38	-128.768	46.668	0	17.00	0	17.0880	0	32.3820	0	23.487	0	16.859	0	240.6	4	99.3	4	-1E+10	1	1.6345	4	0.001426	0	-1E+10	1	-1E+10	1	-1E+10	1
4902624	4	C	07/31/2024	11:38	-128.768	46.668	0	17.70	0	17.0331	0	32.3809	0	23.499	0	17.553	0	241.3	4	99.5	4	-1E+10	1	1.6311	4	0.001355	0	-1E+10	1	-1E+10	1	-1E+10	1
4902624	4	C	07/31/2024	11:38	-128.768	46.668	0	18.50	0	16.9704	0	32.3796	0	23.513	0	18.346	0	242.6	4	99.9	4	-1E+10	1	1.6759	4	0.002031	0	-1E+10	1	-1E+10	1	-1E+10	1
4902624	4	C	07/31/2024	11:38	-128.768	46.668	0	18.90	0	16.9390	0	32.3790	0	23.519	0	18.743	0	-1e10	1	-1e10	1	-1E+10	1	-1e10	1	-1e10	1	-1E+10	1	-1E+10	1	-1E+10	1
4902624	4	C	07/31/2024	11:38	-128.768	46.668	0	19.20	0	16.8886	0	32.3779	0	23.530	0	19.040	0	244.0	4	100.3	4	-1E+10	1	1.7301	4	0.002557	0	-1E+10	1	-1E+10	1	-1E+10	1
4902624	4	C	07/31/2024	11:38	-128.768	46.668	0	20.00	0	16.7541	0	32.3748	0	23.559	0	19.834	0	245.5	4	100.7	4	-1E+10	1	1.7390	4	0.001391	0	-1E+10	1	-1E+10	1	-1E+10	1
4902624	4	C	07/31/2024	11:38	-128.768	46.668	0	20.80	0	16.6196	0	32.3718	0	23.588	0	20.627	0	247.1	4	101.1	4	-1E+10	1	1.8104	4	0.001527	0	-1E+10	1	-1E+10	1	-1E+10	1
4902624	4	C	07/31/2024	11:38	-128.768	46.668	0	21.00	0	16.5860	0	32.3710	0	23.595	0	20.825	0	-1e10	1	-1e10	1	-1E+10	1	-1e10	1	-1e10	1	-1E+10	1	-1E+10	1	-1E+10	1
4902624	4	C	07/31/2024	11:38	-128.768	46.668	0	21.60	0	16.4417	0	32.3697	0	23.627	0	21.420	0	248.6	4	101.3	4	-1E+10	1	1.8469	4	0.001527	0	-1E+10	1	-1E+10	1	-1E+10	1
4902624	4	C	07/31/2024	11:38	-128.768	46.668	0	22.40	0	16.2493	0	32.3681	0	23.670	0	22.214	0	250.4	4	101.7	4	-1E+10	1	2.0675	4	0.001495	0	-1E+10	1	-1E+10	1	-1E+10	1
4902624	4	C	07/31/2024	11:38	-128.768	46.668	0	22.90	0	16.1290	0	32.3670	0	23.696	0	22.709	0	-1e10	1	-1e10	1	-1E+10	1	-1e10	1	-1e10	1	-1E+10	1	-1E+10	1	-1E+10	1
4902624	4	C	07/31/2024	11:38	-128.768	46.668	0	23.20	0	16.0441	0	32.3646	0	23.713	0	23.007	0	252.2	4	102.0	4	-1E+10	1	2.2112	4	0.001559	0	-1E+10	1	-1E+10	1	-1E+10	1
4902624	4	C	07/31/2024	11:38	-128.768	46.668	0	24.10	0	15.7894	0	32.3574	0	23.765	0	23.899	0	253.4	4	102.0	4	-1E+10	1	2.1397	4	0.001636	0	-1E+10	1	-1E+10	1	-1E+10	1
4902624	4	C	07/31/2024	11:38	-128.768	46.668	0	24.90	0	15.5630	0	32.3510	0	23.810	0	24.693	0	-1e10	1	-1e10	1	-1E+10	1	-1e10	1	-1e10	1	-1E+10	1	-1E+10	1	-1E+10	1
4902624	4	C	07/31/2024	11:38	-128.768	46.668	0	25.00	0	15.5460	0	32.3508	0	23.813	0	24.792	0	254.5	4	101.9	4	-1E+10	1	2.0128	4	0.001651	0	-1E+10	1	-1E+10	1	-1E+10	1
4902624	4	C	07/31/2024	11:38	-128.768	46.668	0	26.00	0	15.3760	0	32.3488	0	23.849	0	25.783	0	255.8	4	102.1	4	-1E+10	1	1.9849	4	0.001594	0	-1E+10	1	-1E+10	1	-1E+10	1
4902624	4	C	07/31/2024	11:38	-128.768	46.668	0	26.90	0	15.2230	0	32.3470	0	23.881	0	26.676	0	256.2	4	102.0	4	-1E+10	1	1.9579	4	0.001536	0	-1E+10	1	-1E+10	1	-1E+10	1
4902624	4	C	07/31/2024	11:38	-128.768	46.668	0	27.90	0	15.0735	0	32.3465	0	23.913	0	27.667	0	257.9	4	102.3	4	-1E+10	1	1.9102	4	0.001589	0	-1E+10	1	-1E+10	1	-1E+10	1
4902624	4	C	07/31/2024	11:38	-128.768	46.668	0	28.90	0	14.9240	0	32.3460	0	23.945	0	28.659	0	259.2	4	102.6	4	-1E+10	1	1.9345	4	0.001667	0	-1E+10	1	-1E+10	1	-1E+10	1
4902624	4	C	07/31/2024	11:38	-128.768	46.668	0	29.00	0	14.9090	0	32.3460	0	23.948	0	28.758	0	-1e10	1	-1e10	1	-1E+10	1	-1e10	1	-1e10	1	-1E+10	1	-1E+10	1	-1E+10	1
4902624	4	C	07/31/2024	11:38	-128.768	46.668	0	30.10	0	14.5922	0	32.3488	0	24.017	0	29.849	0	260.5	4	102.4	4	-1E+10	1	1.9564	4	0.001573	0	-1E+10	1	-1E+10	1	-1E+10	1
4902624	4	C	07/31/2024	11:38	-128.768	46.668	0	31.00	0	14.3330	0	32.3510	0	24.073	0	30.741	0	260.0	4	101.7	4	-1E+10	1	2.0221	4	0.001564	0	-1E+10	1	-1E+10	1	-1E+10	1
4902624	4	C	07/31/2024	11:38	-128.768	46.668	0	31.90	0	14.2584	0	32.3459	0	24.085	0	31.634	0	261.0	4	101.9	4	-1E+10	1	1.9686	4	0.001616	0	-1E+10	1	-1E+10	1	-1E+10	1
4902624	4	C	07/31/2024	11:38	-128.768	46.668	0	32.70	0	14.1921	0	32.3413	0	24.095	0	32.427	0	261.2	4	101.8	4	-1E+10	1	1.9686	4	0.001585	0	-1E+10	1	-1E+10	1	-1E+10	1
4902624	4	C	07/31/2024	11:38	-128.768	46.668	0	33.10	0	14.1590	0	32.3390	0	24.100	0	32.824	0	-1e10	1	-1e10	1	-1E+10	1	-1e10	1	-1e10	1	-1E+10	1	-1E+10	1	-1E+10	1
4902624	4	C	07/31/2024	11:38	-128.768	46.668	0	33.40	0	14.1213	0	32.3369	0	24.107	0	33.121	0	261.1	4	101.7	4	-1E+10	1	1.9832	4	0.001530	0	-1E+10	1	-1E+10	1	-1E+10	1
4902624	4	C	07/31/2024	11:38	-128.768	46.668	0	34.00	0	14.0458	0	32.3328	0	24.119	0	33.716	0	261.4	4	101.6	4	-1E+10	1	1.9689	4	0.001508	0	-1E+10	1	-1E+10	1	-1E+10	1
4902624	4	C	07/31/2024	11:38	-128.768	46.668	0	34.50	0	13.9829	0	32.3294	0	24.129	0	34.212	0	261.6	4	101.6	4	-1E+10	1	1.9543	4	0.001546	0	-1E+10	1	-1E+10	1	-1E+10	1
4902624	4	C	07/31/2024	11:38	-128.768	46.668	0	35.00	0	13.9200	0	32.3260	0	24.140	0	34.708	0	-1e10	1	-1e10	1	-1E+10	1	-1e10	1	-1e10	1	-1E+10	1	-1E+10	1	-1E+10	1
4902624	4	C	07/31/2024	11:38	-128.768	46.668	0	35.20	0	13.8597	0	32.3273	0	24.153	0	34.906	0	262.5	4	101.6	4	-1E+10	1	1.9574	4	0.001627	0	-1E+10	1	-1E+10	1	-1E+10	1
4902624	4	C	07/31/2024	11:38	-128.768	46.668	0	35.80	0	13.6788	0	32.3312	0	24.193	0	35.501	0	263.0	4	101.5	4	-1E+10	1	1.9619	4	0.001560	0	-1E+10	1	-1E+10	1	-1E+10	1
4902624	4	C	07/31/2024	11:38	-128.768	46.668	0	36.50	0	13.4678	0	32.3358	0	24.239	0	36.195	0	263.9	4	101.4	4	-1E+10	1	1.8469	4	0.001550	0	-1E+10	1	-1E+10	1	-1E+10	1
4902624	4	C	07/31/2024	11:38	-128.768	46.668	0	37.00	0	13.3170	0	32.3390	0	24.271	0	36.691	0	-1e10	1	-1e10	1	-1E+10	1	-1e10	1	-1e10	1	-1E+10	1	-1E+10	1	-1E+10	1
4902624	4	C	07/31/2024	11:38	-128.768	46.668	0	37.30	0	13.2368	0	32.3387	0	24.287	0	36.988	0	264.4	4	101.1	4	-1E+10	1	1.8339	4	0.001612	0	-1E+10	1	-1E+10	1	-1E+10	1
4902624	4	C	07/31/2024	11:38	-128.768	46.668	0	38.00	0	13.0495	0	32.3380	0	24.323	0	37.682	0	265.4	4	101.1	4	-1E+10	1	1.8487	4	0.001559	0	-1E+10	1	-1E+10	1	-1E+10	1
4902624	4	C	07/31/2024	11:38	-128.768	46.668	0	38.80	0	12.8355	0	32.3372	0	24.364	0	38.476	0	265.5	4	100.7	4	-1E+10	1	1.8433	4	0.001518	0	-1E+10	1	-1E+10	1	-1E+10	1
4902624	4	C	07/31/2024	11:38	-128.768	46.668	0	39.00	0	12.7820	0	32.3370	0	24.375	0	38.674	0	-1e10	1	-1e10	1	-1E+10	1	-1e10	1	-1e10	1	-1E+10	1	-1E+10	1	-1E+10	1
4902624	4	C	07/31/2024	11:38	-128.768	46.668	0	39.60	0	12.6644	0	32.3370	0	24.397	0	39.269	0	265.4	4	100.3	4	-1E+10	1	1.7695	4	0.001492	0	-1E+10	1	-1E+10	1	-1E+10	1
4902624	4	C	07/31/2024	11:38	-128.768	46.668	0	40.30	0	12.5272	0	32.3370	0	24.424	0	39.963	0	265.7	4	100.1	4	-1E+10	1	1.7091	4	0.001475	0	-1E+10	1	-1E+10	1	-1E+10	1
4902624	4	C	07/31/2024	11:38	-128.768	46.668	0	41.00	0	12.3900	0	32.3370	0	24.450	0	40.657	0	-1e10	1	-1e10	1	-1E+10	1	-1e10	1	-1e10	1	-1E+10	1	-1E+10	1	-1E+10	1
4902624	4	C	07/31/2024	11:38	-128.768	46.668	0	41.10	0	12.3806	0	32.3370	0	24.452	0	40.756	0	265.7	4	99.8	4	-1E+10	1	1.6732	4	0.001457	0	-1E+10	1	-1E+10	1	-1E+10	1
4902624	4	C	07/31/2024	11:38	-128.768	46.668	0	42.00	0	12.2955	0	32.3365	0	24.467	0	41.648	0	265.5	4	99.6	4	-1E+10	1	1.6279	4	0.001420	0	-1E+10	1	-1E+10	1	-1E+10	1
4902624	4	C	07/31/2024	11:38	-128.768	46.668	0	42.90	0	12.2105	0	32.3360	0	24.483	0	42.541	0	265.0	4	99.2	4	-1E+10	1	1.5622	4	0.001362	0	-1E+10	1	-1E+10	1	-1E+10	1
4902624	4	C	07/31/2024	11:38	-128.768	46.668	0	43.00	0	12.2010	0	32.3360	0	24.485	0	42.640	0	-1e10	1	-1e10	1	-1E+10	1	-1e10	1	-1e10	1	-1E+10	1	-1E+10	1	-1E+10	1
4902624	4	C	07/31/2024	11:38	-128.768	46.668	0	43.80	0	12.1154	0	32.3368	0	24.501	0	43.433	0	264.8	4	99.0	4	-1E+10	1	1.5476	4	0.001421	0	-1E+10	1	-1E+10	1	-1E+10	1
4902624	4	C	07/31/2024	11:38	-128.768	46.668	0	44.80	0	12.0084	0	32.3378	0	24.522	0	44.425	0	264.7	4	98.7	4	-1E+10	1	1.4481	4	0.001378	0	-1E+10	1	-1E+10	1	-1E+10	1
4902624	4	C	07/31/2024	11:38	-128.768	46.668	0	45.00	0	11.9870	0	32.3380	0	24.526	0	44.623	0	-1e10	1	-1e10	1	-1E+10	1	-1e10	1	-1e10	1	-1E+10	1	-1E+10	1	-1E+10	1
4902624	4	C	07/31/2024	11:38	-128.768	46.668	0	45.70	0	11.9471	0	32.3380	0	24.534	0	45.317	0	264.5	4	98.5	4	-1E+10	1	1.4328	4	0.001425	0	-1E+10	1	-1E+10	1	-1E+10	1
4902624	4	C	07/31/2024	11:38	-128.768	46.668	0	46.60	0	11.8958	0	32.3380	0	24.543	0	46.209	0	264.2	4	98.3	4	-1E+10	1	1.4551	4	0.001382	0	-1E+10	1	-1E+10	1	-1E+10	1
4902624	4	C	07/31/2024	11:38	-128.768	46.668	0	47.00	0	11.8730	0	32.3380	0	24.547	0	46.606	0	-1e10	1	-1e10	1	-1E+10	1	-1e10	1	-1e10	1	-1E+10	1	-1E+10	1	-1E+10	1
4902624	4	C	07/31/2024	11:38	-128.768	46.668	0	47.50	0	11.7927	0	32.3406	0	24.564	0	47.102	0	264.1	4	98.0	4	-1E+10	1	1.4345	4	0.001350	0	-1E+10	1	-1E+10	1	-1E+10	1
4902624	4	C	07/31/2024	11:38	-128.768	46.668	0	48.40	0	11.6483	0	32.3454	0	24.594	0	47.994	0	264.5	4	97.9	4	-1E+10	1	1.4275	4	0.001334	0	-1E+10	1	-1E+10	1	-1E+10	1
4902624	4	C	07/31/2024	11:38	-128.768	46.668	0	48.90	0	11.5680	0	32.3480	0	24.611	0	48.490	0	-1e10	1	-1e10	1	-1E+10	1	-1e10	1	-1e10	1	-1E+10	1	-1E+10	1	-1E+10	1
4902624	4	C	07/31/2024	11:38	-128.768	46.668	0	49.40	0	11.5230	0	32.3428	0	24.615	0	48.986	0	264.2	4	97.5	4	-1E+10	1	1.5053	4	0.001268	0	-1E+10	1	-1E+10	1	-1E+10	1
4902624	4	C	07/31/2024	11:38	-128.768	46.668	0	50.40	0	11.4330	0	32.3322	0	24.623	0	49.977	0	263.9	4	97.2	4	-1E+10	1	1.5330	4	0.001155	0	-1E+10	1	-1E+10	1	-1E+10	1
4902624	4	C	07/31/2024	11:38	-128.768	46.668	0	50.90	0	11.3880	0	32.3270	0	24.627	0	50.473	0	-1e10	1	-1e10	1	-1E+10	1	-1e10	1	-1e10	1	-1E+10	1	-1E+10	1	-1E+10	1
4902624	4	C	07/31/2024	11:38	-128.768	46.668	0	51.40	0	11.3237	0	32.3281	0	24.640	0	50.969	0	263.8	4	96.9	4	-1E+10	1	1.4965	4	0.001057	0	-1E+10	1	-1E+10	1	-1E+10	1
4902624	4	C	07/31/2024	11:38	-128.768	46.668	0	52.40	0	11.1950	0	32.3304	0	24.664	0	51.960	0	264.2	4	96.8	4	-1E+10	1	1.4843	4	0.001008	0	-1E+10	1	-1E+10	1	-1E+10	1
4902624	4	C	07/31/2024	11:38	-128.768	46.668	0	53.10	0	11.1050	0	32.3320	0	24.682	0	52.654	0	-1e10	1	-1e10	1	-1E+10	1	-1e10	1	-1e10	1	-1E+10	1	-1E+10	1	-1E+10	1
4902624	4	C	07/31/2024	11:38	-128.768	46.668	0	53.30	0	11.0823	0	32.3325	0	24.686	0	52.852	0	264.4	4	96.7	4	-1E+10	1	1.4535	4	0.000999	0	-1E+10	1	-1E+10	1	-1E+10	1
4902624	4	C	07/31/2024	11:38	-128.768	46.668	0	54.30	0	10.9686	0	32.3352	0	24.708	0	53.844	0	264.5	4	96.5	4	-1E+10	1	1.3821	4	0.000998	0	-1E+10	1	-1E+10	1	-1E+10	1
4902624	4	C	07/31/2024	11:38	-128.768	46.668	0	55.00	0	10.8890	0	32.3370	0	24.724	0	54.538	0	-1e10	1	-1e10	1	-1E+10	1	-1e10	1	-1e10	1	-1E+10	1	-1E+10	1	-1E+10	1
4902624	4	C	07/31/2024	11:38	-128.768	46.668	0	55.30	0	10.8577	0	32.3384	0	24.730	0	54.835	0	264.8	4	96.4	4	-1E+10	1	1.3140	4	0.000975	0	-1E+10	1	-1E+10	1	-1E+10	1
4902624	4	C	07/31/2024	11:38	-128.768	46.668	0	56.30	0	10.7535	0	32.3432	0	24.752	0	55.827	0	265.1	4	96.3	4	-1E+10	1	1.2395	4	0.000959	0	-1E+10	1	-1E+10	1	-1E+10	1
4902624	4	C	07/31/2024	11:38	-128.768	46.668	0	56.90	0	10.6910	0	32.3460	0	24.765	0	56.422	0	-1e10	1	-1e10	1	-1E+10	1	-1e10	1	-1e10	1	-1E+10	1	-1E+10	1	-1E+10	1
4902624	4	C	07/31/2024	11:38	-128.768	46.668	0	57.40	0	10.6360	0	32.3480	0	24.776	0	56.917	0	265.4	4	96.1	4	-1E+10	1	1.1930	4	0.000984	0	-1E+10	1	-1E+10	1	-1E+10	1
4902624	4	C	07/31/2024	11:38	-128.768	46.668	0	58.50	0	10.5150	0	32.3524	0	24.800	0	58.008	0	265.2	4	95.8	4	-1E+10	1	1.2118	4	0.001019	0	-1E+10	1	-1E+10	1	-1E+10	1
4902624	4	C	07/31/2024	11:38	-128.768	46.668	0	58.90	0	10.4710	0	32.3540	0	24.809	0	58.405	0	-1e10	1	-1e10	1	-1E+10	1	-1e10	1	-1e10	1	-1E+10	1	-1E+10	1	-1E+10	1
4902624	4	C	07/31/2024	11:38	-128.768	46.668	0	59.60	0	10.4395	0	32.3568	0	24.816	0	59.099	0	265.0	4	95.6	4	-1E+10	1	1.2118	4	0.001069	0	-1E+10	1	-1E+10	1	-1E+10	1
4902624	4	C	07/31/2024	11:38	-128.768	46.668	0	60.70	0	10.3900	0	32.3612	0	24.828	0	60.189	0	264.9	4	95.4	4	-1E+10	1	1.2410	4	0.001010	0	-1E+10	1	-1E+10	1	-1E+10	1
4902624	4	C	07/31/2024	11:38	-128.768	46.668	0	60.90	0	10.3810	0	32.3620	0	24.830	0	60.387	0	-1e10	1	-1e10	1	-1E+10	1	-1e10	1	-1e10	1	-1E+10	1	-1E+10	1	-1E+10	1
4902624	4	C	07/31/2024	11:38	-128.768	46.668	0	61.80	0	10.3386	0	32.3633	0	24.839	0	61.280	0	264.6	4	95.2	4	-1E+10	1	1.1972	4	0.000998	0	-1E+10	1	-1E+10	1	-1E+10	1
4902624	4	C	07/31/2024	11:38	-128.768	46.668	0	62.90	0	10.2867	0	32.3649	0	24.849	0	62.370	0	264.3	4	95.0	4	-1E+10	1	1.2096	4	0.001018	0	-1E+10	1	-1E+10	1	-1E+10	1
4902624	4	C	07/31/2024	11:38	-128.768	46.668	0	63.00	0	10.2820	0	32.3650	0	24.850	0	62.469	0	-1e10	1	-1e10	1	-1E+10	1	-1e10	1	-1e10	1	-1E+10	1	-1E+10	1	-1E+10	1
4902624	4	C	07/31/2024	11:38	-128.768	46.668	0	64.00	0	10.2390	0	32.3620	0	24.854	0	63.461	0	264.0	4	94.8	4	-1E+10	1	1.1580	4	0.000974	0	-1E+10	1	-1E+10	1	-1E+10	1
4902624	4	C	07/31/2024	11:38	-128.768	46.668	0	65.00	0	10.1960	0	32.3590	0	24.859	0	64.452	0	260.9	4	93.6	4	-1E+10	1	1.1102	4	0.000927	0	-1E+10	1	-1E+10	1	-1E+10	1
4902624	4	C	07/31/2024	11:38	-128.768	46.668	0	66.20	0	10.0446	0	32.3670	0	24.891	0	65.642	0	263.5	4	94.2	4	-1E+10	1	1.0759	4	0.000923	0	-1E+10	1	-1E+10	1	-1E+10	1
4902624	4	C	07/31/2024	11:38	-128.768	46.668	0	67.10	0	9.9310	0	32.3730	0	24.914	0	66.534	0	-1e10	1	-1e10	1	-1E+10	1	-1e10	1	-1e10	1	-1E+10	1	-1E+10	1	-1E+10	1
4902624	4	C	07/31/2024	11:38	-128.768	46.668	0	67.30	0	9.9058	0	32.3722	0	24.918	0	66.733	0	263.0	4	93.8	4	-1E+10	1	1.0749	4	0.000930	0	-1E+10	1	-1E+10	1	-1E+10	1
4902624	4	C	07/31/2024	11:38	-128.768	46.668	0	68.40	0	9.7675	0	32.3675	0	24.937	0	67.823	0	262.8	4	93.4	4	-1E+10	1	1.0794	4	0.000893	0	-1E+10	1	-1E+10	1	-1E+10	1
4902624	4	C	07/31/2024	11:38	-128.768	46.668	0	69.00	0	9.6920	0	32.3650	0	24.947	0	68.418	0	-1e10	1	-1e10	1	-1E+10	1	-1e10	1	-1e10	1	-1E+10	1	-1E+10	1	-1E+10	1
4902624	4	C	07/31/2024	11:38	-128.768	46.668	0	69.60	0	9.6626	0	32.3665	0	24.953	0	69.013	0	262.5	4	93.1	4	-1E+10	1	1.0522	4	0.000824	0	-1E+10	1	-1E+10	1	-1E+10	1
4902624	4	C	07/31/2024	11:38	-128.768	46.668	0	70.80	0	9.6038	0	32.3695	0	24.965	0	70.202	0	262.0	4	92.8	4	-1E+10	1	1.0147	4	0.000764	0	-1E+10	1	-1E+10	1	-1E+10	1
4902624	4	C	07/31/2024	11:38	-128.768	46.668	0	71.00	0	9.5940	0	32.3700	0	24.967	0	70.401	0	-1e10	1	-1e10	1	-1E+10	1	-1e10	1	-1e10	1	-1E+10	1	-1E+10	1	-1E+10	1
4902624	4	C	07/31/2024	11:38	-128.768	46.668	0	72.00	0	9.5059	0	32.3729	0	24.983	0	71.392	0	261.7	4	92.5	4	-1E+10	1	0.9052	4	0.000717	0	-1E+10	1	-1E+10	1	-1E+10	1
4902624	4	C	07/31/2024	11:38	-128.768	46.668	0	73.10	0	9.4090	0	32.3760	0	25.001	0	72.483	0	-1e10	1	-1e10	1	-1E+10	1	-1e10	1	-1e10	1	-1E+10	1	-1E+10	1	-1E+10	1
4902624	4	C	07/31/2024	11:38	-128.768	46.668	0	73.20	0	9.3997	0	32.3753	0	25.002	0	72.582	0	261.4	4	92.2	4	-1E+10	1	0.8176	4	0.000697	0	-1E+10	1	-1E+10	1	-1E+10	1
4902624	4	C	07/31/2024	11:38	-128.768	46.668	0	74.40	0	9.2886	0	32.3671	0	25.013	0	73.771	0	261.1	4	91.9	4	-1E+10	1	0.7933	4	0.000678	0	-1E+10	1	-1E+10	1	-1E+10	1
4902624	4	C	07/31/2024	11:38	-128.768	46.668	0	75.00	0	9.2330	0	32.3630	0	25.019	0	74.366	0	-1e10	1	-1e10	1	-1E+10	1	-1e10	1	-1e10	1	-1E+10	1	-1E+10	1	-1E+10	1
4902624	4	C	07/31/2024	11:38	-128.768	46.668	0	75.60	0	9.2000	0	32.3657	0	25.026	0	74.961	0	260.7	4	91.6	4	-1E+10	1	0.7416	4	0.000649	0	-1E+10	1	-1E+10	1	-1E+10	1
4902624	4	C	07/31/2024	11:38	-128.768	46.668	0	76.80	0	9.1340	0	32.3711	0	25.041	0	76.151	0	260.4	4	91.3	4	-1E+10	1	0.7154	4	0.000658	0	-1E+10	1	-1E+10	1	-1E+10	1
4902624	4	C	07/31/2024	11:38	-128.768	46.668	0	77.00	0	9.1230	0	32.3720	0	25.043	0	76.349	0	-1e10	1	-1e10	1	-1E+10	1	-1e10	1	-1e10	1	-1E+10	1	-1E+10	1	-1E+10	1
4902624	4	C	07/31/2024	11:38	-128.768	46.668	0	78.00	0	9.1110	0	32.3700	0	25.044	0	77.340	0	260.0	4	91.1	4	-1E+10	1	0.6966	4	0.000673	0	-1E+10	1	-1E+10	1	-1E+10	1
4902624	4	C	07/31/2024	11:38	-128.768	46.668	0	79.00	0	9.0990	0	32.3680	0	25.044	0	78.332	0	-1e10	1	-1e10	1	-1E+10	1	-1e10	1	-1e10	1	-1E+10	1	-1E+10	1	-1E+10	1
4902624	4	C	07/31/2024	11:38	-128.768	46.668	0	79.20	0	9.0920	0	32.3686	0	25.045	0	78.530	0	259.4	4	90.9	4	-1E+10	1	0.6442	4	0.000649	0	-1E+10	1	-1E+10	1	-1E+10	1
4902624	4	C	07/31/2024	11:38	-128.768	46.668	0	80.40	0	9.0500	0	32.3722	0	25.055	0	79.720	0	259.1	4	90.7	4	-1E+10	1	0.6263	4	0.000616	0	-1E+10	1	-1E+10	1	-1E+10	1
4902624	4	C	07/31/2024	11:38	-128.768	46.668	0	81.00	0	9.0290	0	32.3740	0	25.060	0	80.314	0	-1e10	1	-1e10	1	-1E+10	1	-1e10	1	-1e10	1	-1E+10	1	-1E+10	1	-1E+10	1
4902624	4	C	07/31/2024	11:38	-128.768	46.668	0	81.60	0	9.0246	0	32.3765	0	25.062	0	80.909	0	258.5	4	90.4	4	-1E+10	1	0.6205	4	0.000588	0	-1E+10	1	-1E+10	1	-1E+10	1
4902624	4	C	07/31/2024	11:38	-128.768	46.668	0	82.80	0	9.0157	0	32.3816	0	25.068	0	82.099	0	258.0	4	90.2	4	-1E+10	1	0.5971	4	0.000606	0	-1E+10	1	-1E+10	1	-1E+10	1
4902624	4	C	07/31/2024	11:38	-128.768	46.668	0	82.90	0	9.0150	0	32.3820	0	25.068	0	82.198	0	-1e10	1	-1e10	1	-1E+10	1	-1e10	1	-1e10	1	-1E+10	1	-1E+10	1	-1E+10	1
4902624	4	C	07/31/2024	11:38	-128.768	46.668	0	84.10	0	9.0213	0	32.3894	0	25.073	0	83.387	0	257.5	4	90.1	4	-1E+10	1	0.5609	4	0.000924	0	-1E+10	1	-1E+10	1	-1E+10	1
4902624	4	C	07/31/2024	11:38	-128.768	46.668	0	85.00	0	9.0260	0	32.3950	0	25.076	0	84.280	0	-1e10	1	-1e10	1	-1E+10	1	-1e10	1	-1e10	1	-1E+10	1	-1E+10	1	-1E+10	1
4902624	4	C	07/31/2024	11:38	-128.768	46.668	0	85.30	0	9.0290	0	32.3976	0	25.078	0	84.577	0	256.6	4	89.8	4	-1E+10	1	0.5548	4	0.000685	0	-1E+10	1	-1E+10	1	-1E+10	1
4902624	4	C	07/31/2024	11:38	-128.768	46.668	0	86.40	0	9.0400	0	32.4070	0	25.084	0	85.668	0	255.8	4	89.5	4	-1E+10	1	0.5378	4	0.000553	0	-1E+10	1	-1E+10	1	-1E+10	1
4902624	4	C	07/31/2024	11:38	-128.768	46.668	0	87.10	0	9.0470	0	32.4130	0	25.087	0	86.361	0	-1e10	1	-1e10	1	-1E+10	1	-1e10	1	-1e10	1	-1E+10	1	-1E+10	1	-1E+10	1
4902624	4	C	07/31/2024	11:38	-128.768	46.668	0	87.70	0	9.0375	0	32.4139	0	25.090	0	86.956	0	255.0	4	89.3	4	-1E+10	1	0.5153	4	0.000546	0	-1E+10	1	-1E+10	1	-1E+10	1
4902624	4	C	07/31/2024	11:38	-128.768	46.668	0	88.90	0	9.0186	0	32.4158	0	25.094	0	88.146	0	254.2	4	88.9	4	-1E+10	1	0.5037	4	0.000545	0	-1E+10	1	-1E+10	1	-1E+10	1
4902624	4	C	07/31/2024	11:38	-128.768	46.668	0	89.00	0	9.0170	0	32.4160	0	25.094	0	88.245	0	-1e10	1	-1e10	1	-1E+10	1	-1e10	1	-1e10	1	-1E+10	1	-1E+10	1	-1E+10	1
4902624	4	C	07/31/2024	11:38	-128.768	46.668	0	90.10	0	9.0144	0	32.4191	0	25.097	0	89.335	0	253.2	4	88.6	4	-1E+10	1	0.4881	4	0.000534	0	-1E+10	1	-1E+10	1	-1E+10	1
4902624	4	C	07/31/2024	11:38	-128.768	46.668	0	91.10	0	9.0120	0	32.4220	0	25.100	0	90.327	0	-1e10	1	-1e10	1	-1E+10	1	-1e10	1	-1e10	1	-1E+10	1	-1E+10	1	-1E+10	1
4902624	4	C	07/31/2024	11:38	-128.768	46.668	0	91.30	0	9.0144	0	32.4235	0	25.101	0	90.525	0	252.1	4	88.2	4	-1E+10	1	0.4818	4	0.000564	0	-1E+10	1	-1E+10	1	-1E+10	1
4902624	4	C	07/31/2024	11:38	-128.768	46.668	0	92.40	0	9.0276	0	32.4318	0	25.105	0	91.615	0	250.9	4	87.8	4	-1E+10	1	0.4161	4	0.000494	0	-1E+10	1	-1E+10	1	-1E+10	1
4902624	4	C	07/31/2024	11:38	-128.768	46.668	0	93.10	0	9.0360	0	32.4370	0	25.108	0	92.309	0	-1e10	1	-1e10	1	-1E+10	1	-1e10	1	-1e10	1	-1E+10	1	-1E+10	1	-1E+10	1
4902624	4	C	07/31/2024	11:38	-128.768	46.668	0	93.60	0	9.0313	0	32.4415	0	25.112	0	92.805	0	249.7	4	87.4	4	-1E+10	1	0.3942	4	0.000447	0	-1E+10	1	-1E+10	1	-1E+10	1
4902624	4	C	07/31/2024	11:38	-128.768	46.668	0	94.30	0	9.0246	0	32.4477	0	25.118	0	93.499	0	248.9	4	87.1	4	-1E+10	1	0.3686	4	0.000455	0	-1E+10	1	-1E+10	1	-1E+10	1
4902624	4	C	07/31/2024	11:38	-128.768	46.668	0	95.00	0	9.0180	0	32.4540	0	25.124	0	94.193	0	244.5	4	85.6	4	-1E+10	1	0.3368	4	0.000425	0	-1E+10	1	-1E+10	1	-1E+10	1
4902624	4	C	07/31/2024	11:38	-128.768	46.668	0	95.80	0	9.0008	0	32.4628	0	25.134	0	94.986	0	246.5	4	86.3	4	-1E+10	1	0.3334	4	0.000393	0	-1E+10	1	-1E+10	1	-1E+10	1
4902624	4	C	07/31/2024	11:38	-128.768	46.668	0	96.50	0	8.9858	0	32.4705	0	25.142	0	95.680	0	245.2	4	85.8	4	-1E+10	1	0.3334	4	0.000392	0	-1E+10	1	-1E+10	1	-1E+10	1
4902624	4	C	07/31/2024	11:38	-128.768	46.668	0	97.00	0	8.9750	0	32.4760	0	25.148	0	96.175	0	-1e10	1	-1e10	1	-1E+10	1	-1e10	1	-1e10	1	-1E+10	1	-1E+10	1	-1E+10	1
4902624	4	C	07/31/2024	11:38	-128.768	46.668	0	97.20	0	8.9622	0	32.4755	0	25.150	0	96.373	0	244.0	4	85.3	4	-1E+10	1	0.3118	4	0.000405	0	-1E+10	1	-1E+10	1	-1E+10	1
4902624	4	C	07/31/2024	11:38	-128.768	46.668	0	98.00	0	8.9112	0	32.4736	0	25.156	0	97.166	0	242.8	4	84.8	4	-1E+10	1	0.2896	4	0.000427	0	-1E+10	1	-1E+10	1	-1E+10	1
4902624	4	C	07/31/2024	11:38	-128.768	46.668	0	98.70	0	8.8665	0	32.4720	0	25.162	0	97.860	0	241.6	4	84.3	4	-1E+10	1	0.2555	4	0.000400	0	-1E+10	1	-1E+10	1	-1E+10	1
4902624	4	C	07/31/2024	11:38	-128.768	46.668	0	99.10	0	8.8410	0	32.4710	0	25.165	0	98.257	0	-1e10	1	-1e10	1	-1E+10	1	-1e10	1	-1e10	1	-1E+10	1	-1E+10	1	-1E+10	1
4902624	4	C	07/31/2024	11:38	-128.768	46.668	0	99.70	0	8.7903	0	32.4761	0	25.176	0	98.852	0	239.9	4	83.5	4	-1E+10	1	0.2628	4	0.000341	0	-1E+10	1	-1E+10	1	-1E+10	1
4902624	4	C	07/31/2024	11:38	-128.768	46.668	0	100.40	0	8.7311	0	32.4820	0	25.190	0	99.545	0	238.3	4	82.9	4	-1E+10	1	0.2482	4	0.000365	0	-1E+10	1	-1E+10	1	-1E+10	1
4902624	4	C	07/31/2024	11:38	-128.768	46.668	0	101.10	0	8.6720	0	32.4880	0	25.204	0	100.239	0	234.1	4	81.3	4	-1E+10	1	0.2431	4	0.000348	0	-1E+10	1	-1E+10	1	-1E+10	1
4902624	4	C	07/31/2024	11:38	-128.768	46.668	0	101.80	0	8.6492	0	32.4987	0	25.216	0	100.933	0	235.8	4	81.9	4	-1E+10	1	0.2377	4	0.000346	0	-1E+10	1	-1E+10	1	-1E+10	1
4902624	4	C	07/31/2024	11:38	-128.768	46.668	0	102.60	0	8.6231	0	32.5109	0	25.229	0	101.726	0	234.1	4	81.3	4	-1E+10	1	0.2336	4	0.000348	0	-1E+10	1	-1E+10	1	-1E+10	1
4902624	4	C	07/31/2024	11:38	-128.768	46.668	0	103.00	0	8.6100	0	32.5170	0	25.236	0	102.123	0	-1e10	1	-1e10	1	-1E+10	1	-1e10	1	-1e10	1	-1E+10	1	-1E+10	1	-1E+10	1
4902624	4	C	07/31/2024	11:38	-128.768	46.668	0	103.40	0	8.5858	0	32.5194	0	25.241	0	102.519	0	232.4	4	80.6	4	-1E+10	1	0.2281	4	0.000337	0	-1E+10	1	-1E+10	1	-1E+10	1
4902624	4	C	07/31/2024	11:38	-128.768	46.668	0	104.20	0	8.5374	0	32.5242	0	25.253	0	103.312	0	230.6	4	79.9	4	-1E+10	1	0.2190	4	0.000337	0	-1E+10	1	-1E+10	1	-1E+10	1
4902624	4	C	07/31/2024	11:38	-128.768	46.668	0	105.00	0	8.4890	0	32.5290	0	25.264	0	104.105	0	225.3	4	78.0	4	-1E+10	1	0.2135	4	0.000347	0	-1E+10	1	-1E+10	1	-1E+10	1
4902624	4	C	07/31/2024	11:38	-128.768	46.668	0	105.70	0	8.4414	0	32.5412	0	25.280	0	104.799	0	226.6	4	78.4	4	-1E+10	1	0.1995	4	0.000329	0	-1E+10	1	-1E+10	1	-1E+10	1
4902624	4	C	07/31/2024	11:38	-128.768	46.668	0	106.50	0	8.3870	0	32.5552	0	25.299	0	105.592	0	224.9	4	77.7	4	-1E+10	1	0.2190	4	0.000329	0	-1E+10	1	-1E+10	1	-1E+10	1
4902624	4	C	07/31/2024	11:38	-128.768	46.668	0	107.00	0	8.3530	0	32.5640	0	25.311	0	106.088	0	-1e10	1	-1e10	1	-1E+10	1	-1e10	1	-1e10	1	-1E+10	1	-1E+10	1	-1E+10	1
4902624	4	C	07/31/2024	11:38	-128.768	46.668	0	107.30	0	8.3320	0	32.5745	0	25.323	0	106.385	0	222.7	4	76.8	4	-1E+10	1	0.1898	4	0.000339	0	-1E+10	1	-1E+10	1	-1E+10	1
4902624	4	C	07/31/2024	11:38	-128.768	46.668	0	108.10	0	8.2760	0	32.6025	0	25.353	0	107.178	0	220.6	4	76.0	4	-1E+10	1	0.1935	4	0.000315	0	-1E+10	1	-1E+10	1	-1E+10	1
4902624	4	C	07/31/2024	11:38	-128.768	46.668	0	109.00	0	8.2130	0	32.6340	0	25.387	0	108.070	0	214.9	4	74.0	4	-1E+10	1	0.1920	4	0.000322	0	-1E+10	1	-1E+10	1	-1E+10	1
4902624	4	C	07/31/2024	11:38	-128.768	46.668	0	109.90	0	8.1486	0	32.6700	0	25.425	0	108.962	0	216.7	4	74.5	4	-1E+10	1	0.1818	4	0.000329	0	-1E+10	1	-1E+10	1	-1E+10	1
4902624	4	C	07/31/2024	11:38	-128.768	46.668	0	110.80	0	8.0842	0	32.7060	0	25.462	0	109.854	0	215.5	4	74.0	4	-1E+10	1	0.1752	4	0.000329	0	-1E+10	1	-1E+10	1	-1E+10	1
4902624	4	C	07/31/2024	11:38	-128.768	46.668	0	110.90	0	8.0770	0	32.7100	0	25.466	0	109.953	0	-1e10	1	-1e10	1	-1E+10	1	-1e10	1	-1e10	1	-1E+10	1	-1E+10	1	-1E+10	1
4902624	4	C	07/31/2024	11:38	-128.768	46.668	0	111.70	0	8.0618	0	32.7199	0	25.476	0	110.746	0	214.0	4	73.5	4	-1E+10	1	0.1752	4	0.000316	0	-1E+10	1	-1E+10	1	-1E+10	1
4902624	4	C	07/31/2024	11:38	-128.768	46.668	0	112.60	0	8.0446	0	32.7310	0	25.488	0	111.638	0	212.6	4	73.0	4	-1E+10	1	0.1765	4	0.000298	0	-1E+10	1	-1E+10	1	-1E+10	1
4902624	4	C	07/31/2024	11:38	-128.768	46.668	0	113.00	0	8.0370	0	32.7360	0	25.493	0	112.035	0	-1e10	1	-1e10	1	-1E+10	1	-1e10	1	-1e10	1	-1E+10	1	-1E+10	1	-1E+10	1
4902624	4	C	07/31/2024	11:38	-128.768	46.668	0	113.50	0	8.0220	0	32.7489	0	25.505	0	112.530	0	211.1	4	72.4	4	-1E+10	1	0.1825	4	0.000318	0	-1E+10	1	-1E+10	1	-1E+10	1
4902624	4	C	07/31/2024	11:38	-128.768	46.668	0	114.40	0	7.9950	0	32.7720	0	25.527	0	113.422	0	209.4	4	71.8	4	-1E+10	1	0.1533	4	0.000341	0	-1E+10	1	-1E+10	1	-1E+10	1
4902624	4	C	07/31/2024	11:38	-128.768	46.668	0	115.10	0	7.9740	0	32.7900	0	25.544	0	114.116	0	-1e10	1	-1e10	1	-1E+10	1	-1e10	1	-1e10	1	-1E+10	1	-1E+10	1	-1E+10	1
4902624	4	C	07/31/2024	11:38	-128.768	46.668	0	115.40	0	7.9604	0	32.8022	0	25.556	0	114.414	0	207.9	4	71.2	4	-1E+10	1	0.1411	4	0.000312	0	-1E+10	1	-1E+10	1	-1E+10	1
4902624	4	C	07/31/2024	11:38	-128.768	46.668	0	116.40	0	7.9152	0	32.8427	0	25.594	0	115.405	0	206.4	4	70.7	4	-1E+10	1	0.1281	4	0.000306	0	-1E+10	1	-1E+10	1	-1E+10	1
4902624	4	C	07/31/2024	11:38	-128.768	46.668	0	117.00	0	7.8880	0	32.8670	0	25.617	0	116.000	0	-1e10	1	-1e10	1	-1E+10	1	-1e10	1	-1e10	1	-1E+10	1	-1E+10	1	-1E+10	1
4902624	4	C	07/31/2024	11:38	-128.768	46.668	0	117.30	0	7.8774	0	32.8759	0	25.626	0	116.297	0	205.0	4	70.2	4	-1E+10	1	0.1329	4	0.000299	0	-1E+10	1	-1E+10	1	-1E+10	1
4902624	4	C	07/31/2024	11:38	-128.768	46.668	0	118.30	0	7.8422	0	32.9054	0	25.654	0	117.288	0	203.8	4	69.7	4	-1E+10	1	0.1204	4	0.000288	0	-1E+10	1	-1E+10	1	-1E+10	1
4902624	4	C	07/31/2024	11:38	-128.768	46.668	0	119.10	0	7.8140	0	32.9290	0	25.676	0	118.081	0	-1e10	1	-1e10	1	-1E+10	1	-1e10	1	-1e10	1	-1E+10	1	-1E+10	1	-1E+10	1
4902624	4	C	07/31/2024	11:38	-128.768	46.668	0	119.30	0	7.8079	0	32.9338	0	25.681	0	118.279	0	202.9	4	69.4	4	-1E+10	1	0.1071	4	0.000286	0	-1E+10	1	-1E+10	1	-1E+10	1
4902624	4	C	07/31/2024	11:38	-128.768	46.668	0	120.30	0	7.7774	0	32.9581	0	25.704	0	119.270	0	202.0	4	69.0	4	-1E+10	1	0.1168	4	0.000301	0	-1E+10	1	-1E+10	1	-1E+10	1
4902624	4	C	07/31/2024	11:38	-128.768	46.668	0	121.00	0	7.7560	0	32.9750	0	25.721	0	119.964	0	-1e10	1	-1e10	1	-1E+10	1	-1e10	1	-1e10	1	-1E+10	1	-1E+10	1	-1E+10	1
4902624	4	C	07/31/2024	11:38	-128.768	46.668	0	121.30	0	7.7484	0	32.9819	0	25.727	0	120.262	0	201.1	4	68.7	4	-1E+10	1	0.1180	4	0.000329	0	-1E+10	1	-1E+10	1	-1E+10	1
4902624	4	C	07/31/2024	11:38	-128.768	46.668	0	122.30	0	7.7228	0	33.0049	0	25.749	0	121.253	0	200.4	4	68.4	4	-1E+10	1	0.1241	4	0.000329	0	-1E+10	1	-1E+10	1	-1E+10	1
4902624	4	C	07/31/2024	11:38	-128.768	46.668	0	123.00	0	7.7050	0	33.0210	0	25.764	0	121.946	0	-1e10	1	-1e10	1	-1E+10	1	-1e10	1	-1e10	1	-1E+10	1	-1E+10	1	-1E+10	1
4902624	4	C	07/31/2024	11:38	-128.768	46.668	0	123.30	0	7.6974	0	33.0276	0	25.771	0	122.244	0	199.6	4	68.1	4	-1E+10	1	0.0998	4	0.000319	0	-1E+10	1	-1E+10	1	-1E+10	1
4902624	4	C	07/31/2024	11:38	-128.768	46.668	0	124.10	0	7.6769	0	33.0452	0	25.787	0	123.037	0	198.9	4	67.9	4	-1E+10	1	0.0949	4	0.000335	0	-1E+10	1	-1E+10	1	-1E+10	1
4902624	4	C	07/31/2024	11:38	-128.768	46.668	0	124.80	0	7.6591	0	33.0606	0	25.802	0	123.730	0	198.4	4	67.7	4	-1E+10	1	0.0903	4	0.000326	0	-1E+10	1	-1E+10	1	-1E+10	1
4902624	4	C	07/31/2024	11:38	-128.768	46.668	0	125.00	0	7.6540	0	33.0650	0	25.806	0	123.929	0	-1e10	1	-1e10	1	-1E+10	1	-1e10	1	-1e10	1	-1E+10	1	-1E+10	1	-1E+10	1
4902624	4	C	07/31/2024	11:38	-128.768	46.668	0	125.40	0	7.6442	0	33.0730	0	25.814	0	124.325	0	197.9	4	67.5	4	-1E+10	1	0.0845	4	0.000297	0	-1E+10	1	-1E+10	1	-1E+10	1
4902624	4	C	07/31/2024	11:38	-128.768	46.668	0	126.10	0	7.6270	0	33.0870	0	25.827	0	125.019	0	197.4	4	67.3	4	-1E+10	1	0.0772	4	0.000276	0	-1E+10	1	-1E+10	1	-1E+10	1
4902624	4	C	07/31/2024	11:38	-128.768	46.668	0	126.70	0	7.6123	0	33.0990	0	25.839	0	125.614	0	196.8	4	67.1	4	-1E+10	1	0.0748	4	0.000288	0	-1E+10	1	-1E+10	1	-1E+10	1
4902624	4	C	07/31/2024	11:38	-128.768	46.668	0	127.00	0	7.6050	0	33.1050	0	25.845	0	125.911	0	-1e10	1	-1e10	1	-1E+10	1	-1e10	1	-1e10	1	-1E+10	1	-1E+10	1	-1E+10	1
4902624	4	C	07/31/2024	11:38	-128.768	46.668	0	127.40	0	7.5924	0	33.1170	0	25.856	0	126.307	0	196.1	4	66.8	4	-1E+10	1	0.0803	4	0.000306	0	-1E+10	1	-1E+10	1	-1E+10	1
4902624	4	C	07/31/2024	11:38	-128.768	46.668	0	128.10	0	7.5703	0	33.1380	0	25.875	0	127.001	0	195.5	4	66.6	4	-1E+10	1	0.0803	4	0.000306	0	-1E+10	1	-1E+10	1	-1E+10	1
4902624	4	C	07/31/2024	11:38	-128.768	46.668	0	128.80	0	7.5483	0	33.1590	0	25.895	0	127.695	0	194.9	4	66.3	4	-1E+10	1	0.0657	4	0.000353	0	-1E+10	1	-1E+10	1	-1E+10	1
4902624	4	C	07/31/2024	11:38	-128.768	46.668	0	129.00	0	7.5420	0	33.1650	0	25.901	0	127.893	0	-1e10	1	-1e10	1	-1E+10	1	-1e10	1	-1e10	1	-1E+10	1	-1E+10	1	-1E+10	1
4902624	4	C	07/31/2024	11:38	-128.768	46.668	0	129.50	0	7.5354	0	33.1697	0	25.905	0	128.389	0	194.3	4	66.1	4	-1E+10	1	0.0827	4	0.000343	0	-1E+10	1	-1E+10	1	-1E+10	1
4902624	4	C	07/31/2024	11:38	-128.768	46.668	0	130.20	0	7.5262	0	33.1764	0	25.912	0	129.083	0	193.8	4	65.9	4	-1E+10	1	0.0785	4	0.000304	0	-1E+10	1	-1E+10	1	-1E+10	1
4902624	4	C	07/31/2024	11:38	-128.768	46.668	0	130.90	0	7.5170	0	33.1830	0	25.918	0	129.776	0	189.3	4	64.4	4	-1E+10	1	0.0855	4	0.000296	0	-1E+10	1	-1E+10	1	-1E+10	1
4902624	4	C	07/31/2024	11:38	-128.768	46.668	0	131.60	0	7.5090	0	33.1907	0	25.925	0	130.470	0	192.8	4	65.6	4	-1E+10	1	0.0852	4	0.000290	0	-1E+10	1	-1E+10	1	-1E+10	1
4902624	4	C	07/31/2024	11:38	-128.768	46.668	0	132.30	0	7.5009	0	33.1984	0	25.933	0	131.164	0	192.0	4	65.3	4	-1E+10	1	0.0730	4	0.000288	0	-1E+10	1	-1E+10	1	-1E+10	1
4902624	4	C	07/31/2024	11:38	-128.768	46.668	0	132.90	0	7.4940	0	33.2050	0	25.939	0	131.758	0	-1e10	1	-1e10	1	-1E+10	1	-1e10	1	-1e10	1	-1E+10	1	-1E+10	1	-1E+10	1
4902624	4	C	07/31/2024	11:38	-128.768	46.668	0	133.10	0	7.4910	0	33.2093	0	25.943	0	131.957	0	191.3	4	65.1	4	-1E+10	1	0.0748	4	0.000333	0	-1E+10	1	-1E+10	1	-1E+10	1
4902624	4	C	07/31/2024	11:38	-128.768	46.668	0	133.90	0	7.4790	0	33.2265	0	25.958	0	132.750	0	190.6	4	64.8	4	-1E+10	1	0.0788	4	0.000308	0	-1E+10	1	-1E+10	1	-1E+10	1
4902624	4	C	07/31/2024	11:38	-128.768	46.668	0	134.70	0	7.4670	0	33.2437	0	25.973	0	133.542	0	189.6	4	64.5	4	-1E+10	1	0.0730	4	0.000317	0	-1E+10	1	-1E+10	1	-1E+10	1
4902624	4	C	07/31/2024	11:38	-128.768	46.668	0	134.90	0	7.4640	0	33.2480	0	25.977	0	133.741	0	-1e10	1	-1e10	1	-1E+10	1	-1e10	1	-1e10	1	-1E+10	1	-1E+10	1	-1E+10	1
4902624	4	C	07/31/2024	11:38	-128.768	46.668	0	135.50	0	7.4555	0	33.2622	0	25.989	0	134.335	0	188.5	4	64.1	4	-1E+10	1	0.0730	4	0.000346	0	-1E+10	1	-1E+10	1	-1E+10	1
4902624	4	C	07/31/2024	11:38	-128.768	46.668	0	136.30	0	7.4443	0	33.2811	0	26.006	0	135.128	0	187.4	4	63.7	4	-1E+10	1	0.0675	4	0.000335	0	-1E+10	1	-1E+10	1	-1E+10	1
4902624	4	C	07/31/2024	11:38	-128.768	46.668	0	137.10	0	7.4330	0	33.3000	0	26.022	0	135.921	0	-1e10	1	-1e10	1	-1E+10	1	-1e10	1	-1e10	1	-1E+10	1	-1E+10	1	-1E+10	1
4902624	4	C	07/31/2024	11:38	-128.768	46.668	0	137.20	0	7.4303	0	33.3028	0	26.025	0	136.020	0	186.3	4	63.3	4	-1E+10	1	0.0611	4	0.000322	0	-1E+10	1	-1E+10	1	-1E+10	1
4902624	4	C	07/31/2024	11:38	-128.768	46.668	0	138.10	0	7.4055	0	33.3285	0	26.048	0	136.912	0	185.6	4	63.0	4	-1E+10	1	0.0657	4	0.000317	0	-1E+10	1	-1E+10	1	-1E+10	1
4902624	4	C	07/31/2024	11:38	-128.768	46.668	0	139.00	0	7.3807	0	33.3541	0	26.072	0	137.804	0	184.6	4	62.7	4	-1E+10	1	0.0665	4	0.000317	0	-1E+10	1	-1E+10	1	-1E+10	1
4902624	4	C	07/31/2024	11:38	-128.768	46.668	0	139.10	0	7.3780	0	33.3570	0	26.075	0	137.903	0	-1e10	1	-1e10	1	-1E+10	1	-1e10	1	-1e10	1	-1E+10	1	-1E+10	1	-1E+10	1
4902624	4	C	07/31/2024	11:38	-128.768	46.668	0	139.80	0	7.3717	0	33.3640	0	26.081	0	138.597	0	183.5	4	62.3	4	-1E+10	1	0.0562	4	0.000317	0	-1E+10	1	-1E+10	1	-1E+10	1
4902624	4	C	07/31/2024	11:38	-128.768	46.668	0	140.70	0	7.3637	0	33.3730	0	26.089	0	139.489	0	182.3	4	61.9	4	-1E+10	1	0.0555	4	0.000315	0	-1E+10	1	-1E+10	1	-1E+10	1
4902624	4	C	07/31/2024	11:38	-128.768	46.668	0	141.00	0	7.3610	0	33.3760	0	26.092	0	139.786	0	-1e10	1	-1e10	1	-1E+10	1	-1e10	1	-1e10	1	-1E+10	1	-1E+10	1	-1E+10	1
4902624	4	C	07/31/2024	11:38	-128.768	46.668	0	141.50	0	7.3472	0	33.3860	0	26.102	0	140.282	0	181.3	4	61.5	4	-1E+10	1	0.0730	4	0.000306	0	-1E+10	1	-1E+10	1	-1E+10	1
4902624	4	C	07/31/2024	11:38	-128.768	46.668	0	142.30	0	7.3251	0	33.4020	0	26.117	0	141.075	0	179.9	4	61.0	4	-1E+10	1	0.0511	4	0.000364	0	-1E+10	1	-1E+10	1	-1E+10	1
4902624	4	C	07/31/2024	11:38	-128.768	46.668	0	143.10	0	7.3030	0	33.4180	0	26.133	0	141.867	0	-1e10	1	-1e10	1	-1E+10	1	-1e10	1	-1e10	1	-1E+10	1	-1E+10	1	-1E+10	1
4902624	4	C	07/31/2024	11:38	-128.768	46.668	0	143.30	0	7.2992	0	33.4207	0	26.136	0	142.066	0	178.2	4	60.4	4	-1E+10	1	0.0511	4	0.000296	0	-1E+10	1	-1E+10	1	-1E+10	1
4902624	4	C	07/31/2024	11:38	-128.768	46.668	0	144.20	0	7.2820	0	33.4327	0	26.148	0	142.958	0	176.5	4	59.8	4	-1E+10	1	0.0511	4	0.000297	0	-1E+10	1	-1E+10	1	-1E+10	1
4902624	4	C	07/31/2024	11:38	-128.768	46.668	0	145.10	0	7.2649	0	33.4447	0	26.159	0	143.849	0	174.6	4	59.2	4	-1E+10	1	0.0552	4	0.000312	0	-1E+10	1	-1E+10	1	-1E+10	1
4902624	4	C	07/31/2024	11:38	-128.768	46.668	0	145.20	0	7.2630	0	33.4460	0	26.161	0	143.949	0	-1e10	1	-1e10	1	-1E+10	1	-1e10	1	-1e10	1	-1E+10	1	-1E+10	1	-1E+10	1
4902624	4	C	07/31/2024	11:38	-128.768	46.668	0	146.10	0	7.2460	0	33.4585	0	26.173	0	144.840	0	172.5	4	58.4	4	-1E+10	1	0.0584	4	0.000329	0	-1E+10	1	-1E+10	1	-1E+10	1
4902624	4	C	07/31/2024	11:38	-128.768	46.668	0	147.00	0	7.2290	0	33.4710	0	26.185	0	145.732	0	-1e10	1	-1e10	1	-1E+10	1	-1e10	1	-1e10	1	-1E+10	1	-1E+10	1	-1E+10	1
4902624	4	C	07/31/2024	11:38	-128.768	46.668	0	147.10	0	7.2262	0	33.4733	0	26.187	0	145.832	0	170.5	4	57.8	4	-1E+10	1	0.0535	4	0.000341	0	-1E+10	1	-1E+10	1	-1E+10	1
4902624	4	C	07/31/2024	11:38	-128.768	46.668	0	148.10	0	7.1981	0	33.4961	0	26.209	0	146.823	0	169.6	4	57.4	4	-1E+10	1	0.0451	4	0.000349	0	-1E+10	1	-1E+10	1	-1E+10	1
4902624	4	C	07/31/2024	11:38	-128.768	46.668	0	149.10	0	7.1700	0	33.5190	0	26.231	0	147.814	0	-1e10	1	-1e10	1	-1E+10	1	-1e10	1	-1e10	1	-1E+10	1	-1E+10	1	-1E+10	1
4902624	4	C	07/31/2024	11:38	-128.768	46.668	0	149.20	0	7.1697	0	33.5193	0	26.231	0	147.913	0	168.4	4	57.0	4	-1E+10	1	0.0511	4	0.000384	0	-1E+10	1	-1E+10	1	-1E+10	1
4902624	4	C	07/31/2024	11:38	-128.768	46.668	0	150.20	0	7.1665	0	33.5225	0	26.234	0	148.904	0	167.2	4	56.6	4	-1E+10	1	0.0511	4	0.000364	0	-1E+10	1	-1E+10	1	-1E+10	1
4902624	4	C	07/31/2024	11:38	-128.768	46.668	0	151.00	0	7.1640	0	33.5250	0	26.237	0	149.696	0	-1e10	1	-1e10	1	-1E+10	1	-1e10	1	-1e10	1	-1E+10	1	-1E+10	1	-1E+10	1
4902624	4	C	07/31/2024	11:38	-128.768	46.668	0	151.20	0	7.1626	0	33.5275	0	26.239	0	149.895	0	165.8	4	56.1	4	-1E+10	1	0.0389	4	0.000345	0	-1E+10	1	-1E+10	1	-1E+10	1
4902624	4	C	07/31/2024	11:38	-128.768	46.668	0	152.20	0	7.1558	0	33.5402	0	26.250	0	150.886	0	164.4	4	55.6	4	-1E+10	1	0.0599	4	0.000369	0	-1E+10	1	-1E+10	1	-1E+10	1
4902624	4	C	07/31/2024	11:38	-128.768	46.668	0	152.90	0	7.1510	0	33.5490	0	26.257	0	151.579	0	-1e10	1	-1e10	1	-1E+10	1	-1e10	1	-1e10	1	-1E+10	1	-1E+10	1	-1E+10	1
4902624	4	C	07/31/2024	11:38	-128.768	46.668	0	153.20	0	7.1474	0	33.5521	0	26.260	0	151.877	0	163.1	4	55.2	4	-1E+10	1	0.0560	4	0.000360	0	-1E+10	1	-1E+10	1	-1E+10	1
4902624	4	C	07/31/2024	11:38	-128.768	46.668	0	154.30	0	7.1343	0	33.5637	0	26.271	0	152.967	0	161.5	4	54.6	4	-1E+10	1	0.0550	4	0.000359	0	-1E+10	1	-1E+10	1	-1E+10	1
4902624	4	C	07/31/2024	11:38	-128.768	46.668	0	155.00	0	7.1260	0	33.5710	0	26.278	0	153.660	0	-1e10	1	-1e10	1	-1E+10	1	-1e10	1	-1e10	1	-1E+10	1	-1E+10	1	-1E+10	1
4902624	4	C	07/31/2024	11:38	-128.768	46.668	0	155.30	0	7.1244	0	33.5734	0	26.280	0	153.958	0	159.8	4	54.1	4	-1E+10	1	0.0555	4	0.000364	0	-1E+10	1	-1E+10	1	-1E+10	1
4902624	4	C	07/31/2024	11:38	-128.768	46.668	0	156.30	0	7.1188	0	33.5814	0	26.287	0	154.949	0	158.1	4	53.5	4	-1E+10	1	0.0533	4	0.000361	0	-1E+10	1	-1E+10	1	-1E+10	1
4902624	4	C	07/31/2024	11:38	-128.768	46.668	0	157.00	0	7.1150	0	33.5870	0	26.292	0	155.642	0	-1e10	1	-1e10	1	-1E+10	1	-1e10	1	-1e10	1	-1E+10	1	-1E+10	1	-1E+10	1
4902624	4	C	07/31/2024	11:38	-128.768	46.668	0	157.40	0	7.1126	0	33.5916	0	26.296	0	156.039	0	156.2	4	52.8	4	-1E+10	1	0.0562	4	0.000358	0	-1E+10	1	-1E+10	1	-1E+10	1
4902624	4	C	07/31/2024	11:38	-128.768	46.668	0	158.50	0	7.1060	0	33.6043	0	26.307	0	157.129	0	154.7	4	52.3	4	-1E+10	1	0.0438	4	0.000388	0	-1E+10	1	-1E+10	1	-1E+10	1
4902624	4	C	07/31/2024	11:38	-128.768	46.668	0	159.00	0	7.1030	0	33.6100	0	26.312	0	157.624	0	-1e10	1	-1e10	1	-1E+10	1	-1e10	1	-1e10	1	-1E+10	1	-1E+10	1	-1E+10	1
4902624	4	C	07/31/2024	11:38	-128.768	46.668	0	159.50	0	7.1015	0	33.6130	0	26.315	0	158.120	0	153.5	4	51.9	4	-1E+10	1	0.0657	4	0.000364	0	-1E+10	1	-1E+10	1	-1E+10	1
4902624	4	C	07/31/2024	11:38	-128.768	46.668	0	160.60	0	7.0982	0	33.6196	0	26.320	0	159.210	0	152.1	4	51.4	4	-1E+10	1	0.0438	4	0.000376	0	-1E+10	1	-1E+10	1	-1E+10	1
4902624	4	C	07/31/2024	11:38	-128.768	46.668	0	161.00	0	7.0970	0	33.6220	0	26.322	0	159.606	0	-1e10	1	-1e10	1	-1E+10	1	-1e10	1	-1e10	1	-1E+10	1	-1E+10	1	-1E+10	1
4902624	4	C	07/31/2024	11:38	-128.768	46.668	0	161.70	0	7.0974	0	33.6248	0	26.324	0	160.300	0	150.4	4	50.9	4	-1E+10	1	0.0562	4	0.000346	0	-1E+10	1	-1E+10	1	-1E+10	1
4902624	4	C	07/31/2024	11:38	-128.768	46.668	0	162.80	0	7.0979	0	33.6292	0	26.328	0	161.390	0	148.7	4	50.3	4	-1E+10	1	0.0524	4	0.000379	0	-1E+10	1	-1E+10	1	-1E+10	1
4902624	4	C	07/31/2024	11:38	-128.768	46.668	0	163.00	0	7.0980	0	33.6300	0	26.328	0	161.588	0	-1e10	1	-1e10	1	-1E+10	1	-1e10	1	-1e10	1	-1E+10	1	-1E+10	1	-1E+10	1
4902624	4	C	07/31/2024	11:38	-128.768	46.668	0	163.90	0	7.0980	0	33.6354	0	26.333	0	162.480	0	146.7	4	49.6	4	-1E+10	1	0.0511	4	0.000371	0	-1E+10	1	-1E+10	1	-1E+10	1
4902624	4	C	07/31/2024	11:38	-128.768	46.668	0	165.00	0	7.0980	0	33.6420	0	26.338	0	163.570	0	141.3	4	47.8	4	-1E+10	1	0.0548	4	0.000364	0	-1E+10	1	-1E+10	1	-1E+10	1
4902624	4	C	07/31/2024	11:38	-128.768	46.668	0	166.20	0	7.0992	0	33.6522	0	26.346	0	164.759	0	143.3	4	48.5	4	-1E+10	1	0.0523	4	0.000374	0	-1E+10	1	-1E+10	1	-1E+10	1
4902624	4	C	07/31/2024	11:38	-128.768	46.668	0	167.00	0	7.1000	0	33.6590	0	26.351	0	165.552	0	-1e10	1	-1e10	1	-1E+10	1	-1e10	1	-1e10	1	-1E+10	1	-1E+10	1	-1E+10	1
4902624	4	C	07/31/2024	11:38	-128.768	46.668	0	167.30	0	7.0994	0	33.6611	0	26.353	0	165.849	0	141.8	4	48.0	4	-1E+10	1	0.0480	4	0.000391	0	-1E+10	1	-1E+10	1	-1E+10	1
4902624	4	C	07/31/2024	11:38	-128.768	46.668	0	168.50	0	7.0970	0	33.6695	0	26.360	0	167.038	0	140.3	4	47.5	4	-1E+10	1	0.0584	4	0.000399	0	-1E+10	1	-1E+10	1	-1E+10	1
4902624	4	C	07/31/2024	11:38	-128.768	46.668	0	169.00	0	7.0960	0	33.6730	0	26.363	0	167.534	0	-1e10	1	-1e10	1	-1E+10	1	-1e10	1	-1e10	1	-1E+10	1	-1E+10	1	-1E+10	1
4902624	4	C	07/31/2024	11:38	-128.768	46.668	0	169.70	0	7.0950	0	33.6793	0	26.368	0	168.227	0	139.0	4	47.0	4	-1E+10	1	0.0584	4	0.000399	0	-1E+10	1	-1E+10	1	-1E+10	1
4902624	4	C	07/31/2024	11:38	-128.768	46.668	0	170.90	0	7.0932	0	33.6901	0	26.377	0	169.417	0	137.6	4	46.5	4	-1E+10	1	0.0657	4	0.000446	0	-1E+10	1	-1E+10	1	-1E+10	1
4902624	4	C	07/31/2024	11:38	-128.768	46.668	0	171.00	0	7.0930	0	33.6910	0	26.377	0	169.516	0	-1e10	1	-1e10	1	-1E+10	1	-1e10	1	-1e10	1	-1E+10	1	-1E+10	1	-1E+10	1
4902624	4	C	07/31/2024	11:38	-128.768	46.668	0	172.00	0	7.0935	0	33.7000	0	26.384	0	170.507	0	136.5	4	46.2	4	-1E+10	1	0.0485	4	0.000409	0	-1E+10	1	-1E+10	1	-1E+10	1
4902624	4	C	07/31/2024	11:38	-128.768	46.668	0	173.00	0	7.0940	0	33.7090	0	26.391	0	171.497	0	-1e10	1	-1e10	1	-1E+10	1	-1e10	1	-1e10	1	-1E+10	1	-1E+10	1	-1E+10	1
4902624	4	C	07/31/2024	11:38	-128.768	46.668	0	173.20	0	7.0918	0	33.7110	0	26.393	0	171.696	0	135.5	4	45.8	4	-1E+10	1	0.0626	4	0.000407	0	-1E+10	1	-1E+10	1	-1E+10	1
4902624	4	C	07/31/2024	11:38	-128.768	46.668	0	174.40	0	7.0786	0	33.7230	0	26.405	0	172.885	0	134.6	4	45.5	4	-1E+10	1	0.0560	4	0.000397	0	-1E+10	1	-1E+10	1	-1E+10	1
4902624	4	C	07/31/2024	11:38	-128.768	46.668	0	175.00	0	7.0720	0	33.7290	0	26.410	0	173.479	0	-1e10	1	-1e10	1	-1E+10	1	-1e10	1	-1e10	1	-1E+10	1	-1E+10	1	-1E+10	1
4902624	4	C	07/31/2024	11:38	-128.768	46.668	0	175.60	0	7.0654	0	33.7326	0	26.414	0	174.074	0	133.6	4	45.2	4	-1E+10	1	0.0438	4	0.000393	0	-1E+10	1	-1E+10	1	-1E+10	1
4902624	4	C	07/31/2024	11:38	-128.768	46.668	0	176.80	0	7.0522	0	33.7398	0	26.421	0	175.263	0	132.8	4	44.9	4	-1E+10	1	0.0438	4	0.000413	0	-1E+10	1	-1E+10	1	-1E+10	1
4902624	4	C	07/31/2024	11:38	-128.768	46.668	0	177.00	0	7.0500	0	33.7410	0	26.423	0	175.461	0	-1e10	1	-1e10	1	-1E+10	1	-1e10	1	-1e10	1	-1E+10	1	-1E+10	1	-1E+10	1
4902624	4	C	07/31/2024	11:38	-128.768	46.668	0	178.00	0	7.0384	0	33.7463	0	26.428	0	176.452	0	132.0	4	44.6	4	-1E+10	1	0.0438	4	0.000442	0	-1E+10	1	-1E+10	1	-1E+10	1
4902624	4	C	07/31/2024	11:38	-128.768	46.668	0	178.90	0	7.0280	0	33.7510	0	26.434	0	177.344	0	-1e10	1	-1e10	1	-1E+10	1	-1e10	1	-1e10	1	-1E+10	1	-1E+10	1	-1E+10	1
4902624	4	C	07/31/2024	11:38	-128.768	46.668	0	179.30	0	7.0248	0	33.7530	0	26.436	0	177.740	0	131.3	4	44.4	4	-1E+10	1	0.0453	4	0.000420	0	-1E+10	1	-1E+10	1	-1E+10	1
4902624	4	C	07/31/2024	11:38	-128.768	46.668	0	180.50	0	7.0152	0	33.7590	0	26.442	0	178.929	0	130.9	4	44.2	4	-1E+10	1	0.0511	4	0.000411	0	-1E+10	1	-1E+10	1	-1E+10	1
4902624	4	C	07/31/2024	11:38	-128.768	46.668	0	180.90	0	7.0120	0	33.7610	0	26.444	0	179.325	0	-1e10	1	-1e10	1	-1E+10	1	-1e10	1	-1e10	1	-1E+10	1	-1E+10	1	-1E+10	1
4902624	4	C	07/31/2024	11:38	-128.768	46.668	0	181.80	0	7.0093	0	33.7624	0	26.445	0	180.217	0	130.7	4	44.1	4	-1E+10	1	0.0448	4	0.000401	0	-1E+10	1	-1E+10	1	-1E+10	1
4902624	4	C	07/31/2024	11:38	-128.768	46.668	0	182.90	0	7.0060	0	33.7640	0	26.447	0	181.307	0	-1e10	1	-1e10	1	-1E+10	1	-1e10	1	-1e10	1	-1E+10	1	-1E+10	1	-1E+10	1
4902624	4	C	07/31/2024	11:38	-128.768	46.668	0	183.10	0	7.0039	0	33.7646	0	26.448	0	181.505	0	130.4	4	44.0	4	-1E+10	1	0.0500	4	0.000429	0	-1E+10	1	-1E+10	1	-1E+10	1
4902624	4	C	07/31/2024	11:38	-128.768	46.668	0	184.30	0	6.9913	0	33.7682	0	26.452	0	182.694	0	130.1	4	43.9	4	-1E+10	1	0.0511	4	0.000419	0	-1E+10	1	-1E+10	1	-1E+10	1
4902624	4	C	07/31/2024	11:38	-128.768	46.668	0	184.90	0	6.9850	0	33.7700	0	26.454	0	183.289	0	-1e10	1	-1e10	1	-1E+10	1	-1e10	1	-1e10	1	-1E+10	1	-1E+10	1	-1E+10	1
4902624	4	C	07/31/2024	11:38	-128.768	46.668	0	185.60	0	6.9766	0	33.7721	0	26.457	0	183.982	0	129.7	4	43.8	4	-1E+10	1	0.0511	4	0.000398	0	-1E+10	1	-1E+10	1	-1E+10	1
4902624	4	C	07/31/2024	11:38	-128.768	46.668	0	186.80	0	6.9622	0	33.7757	0	26.462	0	185.171	0	129.4	4	43.7	4	-1E+10	1	0.0455	4	0.000410	0	-1E+10	1	-1E+10	1	-1E+10	1
4902624	4	C	07/31/2024	11:38	-128.768	46.668	0	186.90	0	6.9610	0	33.7760	0	26.462	0	185.270	0	-1e10	1	-1e10	1	-1E+10	1	-1e10	1	-1e10	1	-1E+10	1	-1E+10	1	-1E+10	1
4902624	4	C	07/31/2024	11:38	-128.768	46.668	0	188.10	0	6.9520	0	33.7790	0	26.466	0	186.459	0	129.1	4	43.5	4	-1E+10	1	0.0365	4	0.000477	0	-1E+10	1	-1E+10	1	-1E+10	1
4902624	4	C	07/31/2024	11:38	-128.768	46.668	0	188.90	0	6.9460	0	33.7810	0	26.468	0	187.252	0	-1e10	1	-1e10	1	-1E+10	1	-1e10	1	-1e10	1	-1E+10	1	-1E+10	1	-1E+10	1
4902624	4	C	07/31/2024	11:38	-128.768	46.668	0	189.30	0	6.9397	0	33.7827	0	26.471	0	187.648	0	128.4	4	43.3	4	-1E+10	1	0.0394	4	0.000523	0	-1E+10	1	-1E+10	1	-1E+10	1
4902624	4	C	07/31/2024	11:38	-128.768	46.668	0	190.60	0	6.9193	0	33.7883	0	26.478	0	188.937	0	128.1	4	43.2	4	-1E+10	1	0.0584	4	0.000411	0	-1E+10	1	-1E+10	1	-1E+10	1
4902624	4	C	07/31/2024	11:38	-128.768	46.668	0	191.00	0	6.9130	0	33.7900	0	26.480	0	189.333	0	-1e10	1	-1e10	1	-1E+10	1	-1e10	1	-1e10	1	-1E+10	1	-1E+10	1	-1E+10	1
4902624	4	C	07/31/2024	11:38	-128.768	46.668	0	191.80	0	6.9102	0	33.7908	0	26.481	0	190.125	0	127.8	4	43.1	4	-1E+10	1	0.0511	4	0.000481	0	-1E+10	1	-1E+10	1	-1E+10	1
4902624	4	C	07/31/2024	11:38	-128.768	46.668	0	193.00	0	6.9060	0	33.7920	0	26.483	0	191.314	0	-1e10	1	-1e10	1	-1E+10	1	-1e10	1	-1e10	1	-1E+10	1	-1E+10	1	-1E+10	1
4902624	4	C	07/31/2024	11:38	-128.768	46.668	0	193.10	0	6.9051	0	33.7922	0	26.483	0	191.414	0	127.5	4	43.0	4	-1E+10	1	0.0511	4	0.000400	0	-1E+10	1	-1E+10	1	-1E+10	1
4902624	4	C	07/31/2024	11:38	-128.768	46.668	0	194.30	0	6.8949	0	33.7946	0	26.486	0	192.603	0	127.2	4	42.9	4	-1E+10	1	0.0462	4	0.000411	0	-1E+10	1	-1E+10	1	-1E+10	1
4902624	4	C	07/31/2024	11:38	-128.768	46.668	0	195.00	0	6.8890	0	33.7960	0	26.488	0	193.296	0	-1e10	1	-1e10	1	-1E+10	1	-1e10	1	-1e10	1	-1E+10	1	-1E+10	1	-1E+10	1
4902624	4	C	07/31/2024	11:38	-128.768	46.668	0	195.50	0	6.8850	0	33.7965	0	26.489	0	193.791	0	126.9	4	42.7	4	-1E+10	1	0.0523	4	0.000409	0	-1E+10	1	-1E+10	1	-1E+10	1
4902624	4	C	07/31/2024	11:38	-128.768	46.668	0	196.60	0	6.8762	0	33.7976	0	26.491	0	194.881	0	126.5	4	42.6	4	-1E+10	1	0.0544	4	0.000425	0	-1E+10	1	-1E+10	1	-1E+10	1
4902624	4	C	07/31/2024	11:38	-128.768	46.668	0	197.00	0	6.8730	0	33.7980	0	26.492	0	195.278	0	-1e10	1	-1e10	1	-1E+10	1	-1e10	1	-1e10	1	-1E+10	1	-1E+10	1	-1E+10	1
4902624	4	C	07/31/2024	11:38	-128.768	46.668	0	197.40	0	6.8652	0	33.7994	0	26.494	0	195.674	0	126.3	4	42.5	4	-1E+10	1	0.0489	4	0.000432	0	-1E+10	1	-1E+10	1	-1E+10	1
4902624	4	C	07/31/2024	11:38	-128.768	46.668	0	198.20	0	6.8496	0	33.8022	0	26.498	0	196.467	0	126.1	4	42.5	4	-1E+10	1	0.0438	4	0.000593	0	-1E+10	1	-1E+10	1	-1E+10	1
4902624	4	C	07/31/2024	11:38	-128.768	46.668	0	199.00	0	6.8340	0	33.8050	0	26.503	0	197.259	0	-1e10	1	-1e10	1	-1E+10	1	-1e10	1	-1e10	1	-1E+10	1	-1E+10	1	-1E+10	1
4902624	4	C	07/31/2024	11:38	-128.768	46.668	0	199.10	0	6.8330	0	33.8051	0	26.503	0	197.358	0	126.0	4	42.4	4	-1E+10	1	0.0482	4	0.001638	0	-1E+10	1	-1E+10	1	-1E+10	1
4902624	4	C	07/31/2024	11:38	-128.768	46.668	0	199.90	0	6.8246	0	33.8064	0	26.505	0	198.151	0	125.8	4	42.3	4	-1E+10	1	0.0657	4	0.000399	0	-1E+10	1	-1E+10	1	-1E+10	1
4902624	4	C	07/31/2024	11:38	-128.768	46.668	0	200.60	0	6.8172	0	33.8074	0	26.507	0	198.844	0	125.6	4	42.3	4	-1E+10	1	0.0487	4	0.000399	0	-1E+10	1	-1E+10	1	-1E+10	1
4902624	4	C	07/31/2024	11:38	-128.768	46.668	0	201.00	0	6.8130	0	33.8080	0	26.508	0	199.241	0	-1e10	1	-1e10	1	-1E+10	1	-1e10	1	-1e10	1	-1E+10	1	-1E+10	1	-1E+10	1
4902624	4	C	07/31/2024	11:38	-128.768	46.668	0	201.40	0	6.8073	0	33.8088	0	26.509	0	199.637	0	125.5	4	42.2	4	-1E+10	1	0.0438	4	0.000381	0	-1E+10	1	-1E+10	1	-1E+10	1
4902624	4	C	07/31/2024	11:38	-128.768	46.668	0	202.20	0	6.7959	0	33.8103	0	26.512	0	200.430	0	125.3	4	42.1	4	-1E+10	1	0.0438	4	0.000391	0	-1E+10	1	-1E+10	1	-1E+10	1
4902624	4	C	07/31/2024	11:38	-128.768	46.668	0	203.00	0	6.7844	0	33.8118	0	26.515	0	201.222	0	125.2	4	42.1	4	-1E+10	1	0.0474	4	0.000393	0	-1E+10	1	-1E+10	1	-1E+10	1
4902624	4	C	07/31/2024	11:38	-128.768	46.668	0	203.10	0	6.7830	0	33.8120	0	26.515	0	201.321	0	-1e10	1	-1e10	1	-1E+10	1	-1e10	1	-1e10	1	-1E+10	1	-1E+10	1	-1E+10	1
4902624	4	C	07/31/2024	11:38	-128.768	46.668	0	203.80	0	6.7738	0	33.8138	0	26.518	0	202.015	0	125.2	4	42.1	4	-1E+10	1	0.0538	4	0.000405	0	-1E+10	1	-1E+10	1	-1E+10	1
4902624	4	C	07/31/2024	11:38	-128.768	46.668	0	204.60	0	6.7633	0	33.8159	0	26.521	0	202.807	0	125.1	4	42.0	4	-1E+10	1	0.0584	4	0.000442	0	-1E+10	1	-1E+10	1	-1E+10	1
4902624	4	C	07/31/2024	11:38	-128.768	46.668	0	205.00	0	6.7580	0	33.8170	0	26.522	0	203.204	0	-1e10	1	-1e10	1	-1E+10	1	-1e10	1	-1e10	1	-1E+10	1	-1E+10	1	-1E+10	1
4902624	4	C	07/31/2024	11:38	-128.768	46.668	0	205.40	0	6.7552	0	33.8172	0	26.523	0	203.600	0	125.1	4	42.0	4	-1E+10	1	0.0584	4	0.000451	0	-1E+10	1	-1E+10	1	-1E+10	1
4902624	4	C	07/31/2024	11:38	-128.768	46.668	0	206.20	0	6.7496	0	33.8176	0	26.524	0	204.393	0	125.0	4	42.0	4	-1E+10	1	0.0584	4	0.000422	0	-1E+10	1	-1E+10	1	-1E+10	1
4902624	4	C	07/31/2024	11:38	-128.768	46.668	0	207.00	0	6.7440	0	33.8180	0	26.525	0	205.185	0	121.8	4	40.9	4	-1E+10	1	0.0584	4	0.000433	0	-1E+10	1	-1E+10	1	-1E+10	1
4902624	4	C	07/31/2024	11:38	-128.768	46.668	0	207.90	0	6.7417	0	33.8185	0	26.526	0	206.077	0	124.9	4	42.0	4	-1E+10	1	0.0438	4	0.000399	0	-1E+10	1	-1E+10	1	-1E+10	1
4902624	4	C	07/31/2024	11:38	-128.768	46.668	0	208.60	0	6.7400	0	33.8188	0	26.526	0	206.770	0	124.9	4	41.9	4	-1E+10	1	0.0495	4	0.000408	0	-1E+10	1	-1E+10	1	-1E+10	1
4902624	4	C	07/31/2024	11:38	-128.768	46.668	0	209.00	0	6.7390	0	33.8190	0	26.526	0	207.167	0	-1e10	1	-1e10	1	-1E+10	1	-1e10	1	-1e10	1	-1E+10	1	-1E+10	1	-1E+10	1
4902624	4	C	07/31/2024	11:38	-128.768	46.668	0	209.30	0	6.7349	0	33.8194	0	26.527	0	207.464	0	124.8	4	41.9	4	-1E+10	1	0.0470	4	0.000404	0	-1E+10	1	-1E+10	1	-1E+10	1
4902624	4	C	07/31/2024	11:38	-128.768	46.668	0	210.10	0	6.7238	0	33.8206	0	26.530	0	208.257	0	124.9	4	41.9	4	-1E+10	1	0.0503	4	0.000409	0	-1E+10	1	-1E+10	1	-1E+10	1
4902624	4	C	07/31/2024	11:38	-128.768	46.668	0	210.90	0	6.7128	0	33.8217	0	26.532	0	209.049	0	124.9	4	41.9	4	-1E+10	1	0.0562	4	0.000412	0	-1E+10	1	-1E+10	1	-1E+10	1
4902624	4	C	07/31/2024	11:38	-128.768	46.668	0	211.10	0	6.7100	0	33.8220	0	26.533	0	209.247	0	-1e10	1	-1e10	1	-1E+10	1	-1e10	1	-1e10	1	-1E+10	1	-1E+10	1	-1E+10	1
4902624	4	C	07/31/2024	11:38	-128.768	46.668	0	211.80	0	6.7052	0	33.8227	0	26.534	0	209.941	0	125.0	4	42.0	4	-1E+10	1	0.0511	4	0.000393	0	-1E+10	1	-1E+10	1	-1E+10	1
4902624	4	C	07/31/2024	11:38	-128.768	46.668	0	212.50	0	6.7004	0	33.8235	0	26.535	0	210.634	0	125.2	4	42.0	4	-1E+10	1	0.0511	4	0.000408	0	-1E+10	1	-1E+10	1	-1E+10	1
4902624	4	C	07/31/2024	11:38	-128.768	46.668	0	213.00	0	6.6970	0	33.8240	0	26.536	0	211.130	0	-1e10	1	-1e10	1	-1E+10	1	-1e10	1	-1e10	1	-1E+10	1	-1E+10	1	-1E+10	1
4902624	4	C	07/31/2024	11:38	-128.768	46.668	0	213.40	0	6.6938	0	33.8240	0	26.536	0	211.526	0	125.4	4	42.1	4	-1E+10	1	0.0511	4	0.000387	0	-1E+10	1	-1E+10	1	-1E+10	1
4902624	4	C	07/31/2024	11:38	-128.768	46.668	0	214.20	0	6.6874	0	33.8240	0	26.537	0	212.318	0	125.6	4	42.1	4	-1E+10	1	0.0453	4	0.000396	0	-1E+10	1	-1E+10	1	-1E+10	1
4902624	4	C	07/31/2024	11:38	-128.768	46.668	0	215.00	0	6.6810	0	33.8240	0	26.538	0	213.111	0	122.5	4	41.1	4	-1E+10	1	0.0438	4	0.000469	0	-1E+10	1	-1E+10	1	-1E+10	1
4902624	4	C	07/31/2024	11:38	-128.768	46.668	0	215.80	0	6.6726	0	33.8248	0	26.540	0	213.904	0	125.9	4	42.2	4	-1E+10	1	0.0438	4	0.000450	0	-1E+10	1	-1E+10	1	-1E+10	1
4902624	4	C	07/31/2024	11:38	-128.768	46.668	0	216.70	0	6.6631	0	33.8257	0	26.542	0	214.795	0	126.2	4	42.3	4	-1E+10	1	0.0511	4	0.000393	0	-1E+10	1	-1E+10	1	-1E+10	1
4902624	4	C	07/31/2024	11:38	-128.768	46.668	0	217.00	0	6.6600	0	33.8260	0	26.543	0	215.092	0	-1e10	1	-1e10	1	-1E+10	1	-1e10	1	-1e10	1	-1E+10	1	-1E+10	1	-1E+10	1
4902624	4	C	07/31/2024	11:38	-128.768	46.668	0	217.50	0	6.6568	0	33.8263	0	26.543	0	215.588	0	126.6	4	42.4	4	-1E+10	1	0.0557	4	0.000386	0	-1E+10	1	-1E+10	1	-1E+10	1
4902624	4	C	07/31/2024	11:38	-128.768	46.668	0	218.40	0	6.6512	0	33.8267	0	26.544	0	216.479	0	127.0	4	42.6	4	-1E+10	1	0.0482	4	0.000408	0	-1E+10	1	-1E+10	1	-1E+10	1
4902624	4	C	07/31/2024	11:38	-128.768	46.668	0	218.90	0	6.6480	0	33.8270	0	26.545	0	216.975	0	-1e10	1	-1e10	1	-1E+10	1	-1e10	1	-1e10	1	-1E+10	1	-1E+10	1	-1E+10	1
4902624	4	C	07/31/2024	11:38	-128.768	46.668	0	219.20	0	6.6436	0	33.8271	0	26.546	0	217.272	0	127.6	4	42.7	4	-1E+10	1	0.0478	4	0.001078	0	-1E+10	1	-1E+10	1	-1E+10	1
4902624	4	C	07/31/2024	11:38	-128.768	46.668	0	220.10	0	6.6306	0	33.8276	0	26.548	0	218.163	0	128.2	4	42.9	4	-1E+10	1	0.0657	4	0.004188	0	-1E+10	1	-1E+10	1	-1E+10	1
4902624	4	C	07/31/2024	11:38	-128.768	46.668	0	220.90	0	6.6190	0	33.8280	0	26.550	0	218.956	0	125.8	4	42.1	4	-1E+10	1	0.0584	4	0.000397	0	-1E+10	1	-1E+10	1	-1E+10	1
4902624	4	C	07/31/2024	11:38	-128.768	46.668	0	221.80	0	6.5933	0	33.8280	0	26.553	0	219.848	0	129.7	4	43.4	4	-1E+10	1	0.0518	4	0.000399	0	-1E+10	1	-1E+10	1	-1E+10	1
4902624	4	C	07/31/2024	11:38	-128.768	46.668	0	222.60	0	6.5705	0	33.8280	0	26.556	0	220.640	0	130.4	4	43.6	4	-1E+10	1	0.0562	4	0.000390	0	-1E+10	1	-1E+10	1	-1E+10	1
4902624	4	C	07/31/2024	11:38	-128.768	46.668	0	222.90	0	6.5620	0	33.8280	0	26.557	0	220.937	0	-1e10	1	-1e10	1	-1E+10	1	-1e10	1	-1e10	1	-1E+10	1	-1E+10	1	-1E+10	1
4902624	4	C	07/31/2024	11:38	-128.768	46.668	0	223.40	0	6.5515	0	33.8270	0	26.558	0	221.433	0	130.9	4	43.8	4	-1E+10	1	0.0538	4	0.000394	0	-1E+10	1	-1E+10	1	-1E+10	1
4902624	4	C	07/31/2024	11:38	-128.768	46.668	0	224.20	0	6.5348	0	33.8255	0	26.559	0	222.225	0	131.3	4	43.9	4	-1E+10	1	0.0478	4	0.000388	0	-1E+10	1	-1E+10	1	-1E+10	1
4902624	4	C	07/31/2024	11:38	-128.768	46.668	0	225.00	0	6.5180	0	33.8240	0	26.560	0	223.018	0	-1e10	1	-1e10	1	-1E+10	1	-1e10	1	-1e10	1	-1E+10	1	-1E+10	1	-1E+10	1
4902624	4	C	07/31/2024	11:38	-128.768	46.668	0	225.10	0	6.5164	0	33.8239	0	26.560	0	223.117	0	131.7	4	44.0	4	-1E+10	1	0.0438	4	0.000379	0	-1E+10	1	-1E+10	1	-1E+10	1
4902624	4	C	07/31/2024	11:38	-128.768	46.668	0	226.00	0	6.5020	0	33.8230	0	26.561	0	224.008	0	132.1	4	44.1	4	-1E+10	1	0.0474	4	0.000387	0	-1E+10	1	-1E+10	1	-1E+10	1
4902624	4	C	07/31/2024	11:38	-128.768	46.668	0	226.80	0	6.4892	0	33.8222	0	26.562	0	224.801	0	132.4	4	44.2	4	-1E+10	1	0.0552	4	0.000390	0	-1E+10	1	-1E+10	1	-1E+10	1
4902624	4	C	07/31/2024	11:38	-128.768	46.668	0	227.00	0	6.4860	0	33.8220	0	26.562	0	224.999	0	-1e10	1	-1e10	1	-1E+10	1	-1e10	1	-1e10	1	-1E+10	1	-1E+10	1	-1E+10	1
4902624	4	C	07/31/2024	11:38	-128.768	46.668	0	227.70	0	6.4573	0	33.8213	0	26.566	0	225.692	0	132.6	4	44.2	4	-1E+10	1	0.0438	4	0.000407	0	-1E+10	1	-1E+10	1	-1E+10	1
4902624	4	C	07/31/2024	11:38	-128.768	46.668	0	228.60	0	6.4204	0	33.8204	0	26.570	0	226.584	0	132.7	4	44.2	4	-1E+10	1	0.0438	4	0.000446	0	-1E+10	1	-1E+10	1	-1E+10	1
4902624	4	C	07/31/2024	11:38	-128.768	46.668	0	229.00	0	6.4040	0	33.8200	0	26.571	0	226.980	0	-1e10	1	-1e10	1	-1E+10	1	-1e10	1	-1e10	1	-1E+10	1	-1E+10	1	-1E+10	1
4902624	4	C	07/31/2024	11:38	-128.768	46.668	0	229.40	0	6.3936	0	33.8196	0	26.572	0	227.377	0	132.4	4	44.1	4	-1E+10	1	0.0438	4	0.000364	0	-1E+10	1	-1E+10	1	-1E+10	1
4902624	4	C	07/31/2024	11:38	-128.768	46.668	0	230.30	0	6.3702	0	33.8187	0	26.575	0	228.268	0	132.2	4	44.0	4	-1E+10	1	0.0504	4	0.000395	0	-1E+10	1	-1E+10	1	-1E+10	1
4902624	4	C	07/31/2024	11:38	-128.768	46.668	0	231.00	0	6.3520	0	33.8180	0	26.577	0	228.962	0	-1e10	1	-1e10	1	-1E+10	1	-1e10	1	-1e10	1	-1E+10	1	-1E+10	1	-1E+10	1
4902624	4	C	07/31/2024	11:38	-128.768	46.668	0	231.10	0	6.3500	0	33.8179	0	26.577	0	229.061	0	131.8	4	43.9	4	-1E+10	1	0.0465	4	0.000384	0	-1E+10	1	-1E+10	1	-1E+10	1
4902624	4	C	07/31/2024	11:38	-128.768	46.668	0	232.00	0	6.3315	0	33.8170	0	26.578	0	229.952	0	131.4	4	43.7	4	-1E+10	1	0.0575	4	0.000419	0	-1E+10	1	-1E+10	1	-1E+10	1
4902624	4	C	07/31/2024	11:38	-128.768	46.668	0	232.90	0	6.3130	0	33.8161	0	26.580	0	230.844	0	130.7	4	43.5	4	-1E+10	1	0.0538	4	0.000394	0	-1E+10	1	-1E+10	1	-1E+10	1
4902624	4	C	07/31/2024	11:38	-128.768	46.668	0	233.00	0	6.3110	0	33.8160	0	26.580	0	230.943	0	-1e10	1	-1e10	1	-1E+10	1	-1e10	1	-1e10	1	-1E+10	1	-1E+10	1	-1E+10	1
4902624	4	C	07/31/2024	11:38	-128.768	46.668	0	233.70	0	6.3007	0	33.8164	0	26.582	0	231.636	0	129.7	4	43.1	4	-1E+10	1	0.0460	4	0.000359	0	-1E+10	1	-1E+10	1	-1E+10	1
4902624	4	C	07/31/2024	11:38	-128.768	46.668	0	234.60	0	6.2874	0	33.8168	0	26.584	0	232.528	0	128.5	4	42.7	4	-1E+10	1	0.0495	4	0.000380	0	-1E+10	1	-1E+10	1	-1E+10	1
4902624	4	C	07/31/2024	11:38	-128.768	46.668	0	234.90	0	6.2830	0	33.8170	0	26.585	0	232.825	0	-1e10	1	-1e10	1	-1E+10	1	-1e10	1	-1e10	1	-1E+10	1	-1E+10	1	-1E+10	1
4902624	4	C	07/31/2024	11:38	-128.768	46.668	0	235.50	0	6.2839	0	33.8184	0	26.586	0	233.419	0	127.7	4	42.4	4	-1E+10	1	0.0465	4	0.000392	0	-1E+10	1	-1E+10	1	-1E+10	1
4902624	4	C	07/31/2024	11:38	-128.768	46.668	0	236.40	0	6.2851	0	33.8206	0	26.587	0	234.311	0	126.9	4	42.2	4	-1E+10	1	0.0584	4	0.000364	0	-1E+10	1	-1E+10	1	-1E+10	1
4902624	4	C	07/31/2024	11:38	-128.768	46.668	0	237.00	0	6.2860	0	33.8220	0	26.588	0	234.905	0	-1e10	1	-1e10	1	-1E+10	1	-1e10	1	-1e10	1	-1E+10	1	-1E+10	1	-1E+10	1
4902624	4	C	07/31/2024	11:38	-128.768	46.668	0	237.30	0	6.2852	0	33.8220	0	26.588	0	235.202	0	126.2	4	41.9	4	-1E+10	1	0.0453	4	0.000480	0	-1E+10	1	-1E+10	1	-1E+10	1
4902624	4	C	07/31/2024	11:38	-128.768	46.668	0	238.20	0	6.2830	0	33.8220	0	26.589	0	236.094	0	125.4	4	41.7	4	-1E+10	1	0.0438	4	0.000388	0	-1E+10	1	-1E+10	1	-1E+10	1
4902624	4	C	07/31/2024	11:38	-128.768	46.668	0	239.00	0	6.2810	0	33.8220	0	26.589	0	236.886	0	-1e10	1	-1e10	1	-1E+10	1	-1e10	1	-1e10	1	-1E+10	1	-1E+10	1	-1E+10	1
4902624	4	C	07/31/2024	11:38	-128.768	46.668	0	239.10	0	6.2806	0	33.8223	0	26.589	0	236.985	0	124.5	4	41.4	4	-1E+10	1	0.0438	4	0.000392	0	-1E+10	1	-1E+10	1	-1E+10	1
4902624	4	C	07/31/2024	11:38	-128.768	46.668	0	240.00	0	6.2765	0	33.8245	0	26.592	0	237.877	0	123.8	4	41.1	4	-1E+10	1	0.0438	4	0.000379	0	-1E+10	1	-1E+10	1	-1E+10	1
4902624	4	C	07/31/2024	11:38	-128.768	46.668	0	240.90	0	6.2724	0	33.8267	0	26.594	0	238.768	0	123.1	4	40.9	4	-1E+10	1	0.0406	4	0.000369	0	-1E+10	1	-1E+10	1	-1E+10	1
4902624	4	C	07/31/2024	11:38	-128.768	46.668	0	241.00	0	6.2720	0	33.8270	0	26.594	0	238.868	0	-1e10	1	-1e10	1	-1E+10	1	-1e10	1	-1e10	1	-1E+10	1	-1E+10	1	-1E+10	1
4902624	4	C	07/31/2024	11:38	-128.768	46.668	0	241.80	0	6.2684	0	33.8274	0	26.595	0	239.660	0	122.4	4	40.7	4	-1E+10	1	0.0471	4	0.000529	0	-1E+10	1	-1E+10	1	-1E+10	1
4902624	4	C	07/31/2024	11:38	-128.768	46.668	0	242.70	0	6.2643	0	33.8279	0	26.596	0	240.552	0	121.5	4	40.4	4	-1E+10	1	0.0617	4	0.000727	0	-1E+10	1	-1E+10	1	-1E+10	1
4902624	4	C	07/31/2024	11:38	-128.768	46.668	0	243.00	0	6.2630	0	33.8280	0	26.596	0	240.849	0	-1e10	1	-1e10	1	-1E+10	1	-1e10	1	-1e10	1	-1E+10	1	-1E+10	1	-1E+10	1
4902624	4	C	07/31/2024	11:38	-128.768	46.668	0	243.60	0	6.2603	0	33.8289	0	26.597	0	241.443	0	120.6	4	40.1	4	-1E+10	1	0.0438	4	0.000410	0	-1E+10	1	-1E+10	1	-1E+10	1
4902624	4	C	07/31/2024	11:38	-128.768	46.668	0	244.60	0	6.2558	0	33.8304	0	26.599	0	242.434	0	119.9	4	39.8	4	-1E+10	1	0.0438	4	0.000352	0	-1E+10	1	-1E+10	1	-1E+10	1
4902624	4	C	07/31/2024	11:38	-128.768	46.668	0	245.00	0	6.2540	0	33.8310	0	26.600	0	242.830	0	-1e10	1	-1e10	1	-1E+10	1	-1e10	1	-1e10	1	-1E+10	1	-1E+10	1	-1E+10	1
4902624	4	C	07/31/2024	11:38	-128.768	46.668	0	245.40	0	6.2516	0	33.8314	0	26.600	0	243.226	0	119.1	4	39.6	4	-1E+10	1	0.0438	4	0.000417	0	-1E+10	1	-1E+10	1	-1E+10	1
4902624	4	C	07/31/2024	11:38	-128.768	46.668	0	246.30	0	6.2462	0	33.8323	0	26.602	0	244.118	0	118.4	4	39.3	4	-1E+10	1	0.0392	4	0.000404	0	-1E+10	1	-1E+10	1	-1E+10	1
4902624	4	C	07/31/2024	11:38	-128.768	46.668	0	247.00	0	6.2420	0	33.8330	0	26.603	0	244.811	0	-1e10	1	-1e10	1	-1E+10	1	-1e10	1	-1e10	1	-1E+10	1	-1E+10	1	-1E+10	1
4902624	4	C	07/31/2024	11:38	-128.768	46.668	0	247.30	0	6.2380	0	33.8333	0	26.604	0	245.108	0	117.6	4	39.1	4	-1E+10	1	0.0414	4	0.000363	0	-1E+10	1	-1E+10	1	-1E+10	1
4902624	4	C	07/31/2024	11:38	-128.768	46.668	0	248.20	0	6.2258	0	33.8342	0	26.606	0	246.000	0	116.8	4	38.8	4	-1E+10	1	0.0438	4	0.000748	0	-1E+10	1	-1E+10	1	-1E+10	1
4902624	4	C	07/31/2024	11:38	-128.768	46.668	0	249.00	0	6.2150	0	33.8350	0	26.608	0	246.792	0	-1e10	1	-1e10	1	-1E+10	1	-1e10	1	-1e10	1	-1E+10	1	-1E+10	1	-1E+10	1
4902624	4	C	07/31/2024	11:38	-128.768	46.668	0	249.10	0	6.2114	0	33.8350	0	26.608	0	246.891	0	115.7	4	38.4	4	-1E+10	1	0.0465	4	0.000819	0	-1E+10	1	-1E+10	1	-1E+10	1
4902624	4	C	07/31/2024	11:38	-128.768	46.668	0	250.00	0	6.1792	0	33.8350	0	26.612	0	247.783	0	114.4	4	37.9	4	-1E+10	1	0.0526	4	0.000361	0	-1E+10	1	-1E+10	1	-1E+10	1
4902624	4	C	07/31/2024	11:38	-128.768	46.668	0	250.90	0	6.1470	0	33.8350	0	26.616	0	248.674	0	110.2	4	36.5	4	-1E+10	1	0.0577	4	0.000352	0	-1E+10	1	-1E+10	1	-1E+10	1
4902624	4	C	07/31/2024	11:38	-128.768	46.668	0	251.90	0	6.1406	0	33.8364	0	26.618	0	249.665	0	111.7	4	37.0	4	-1E+10	1	0.0511	4	0.000352	0	-1E+10	1	-1E+10	1	-1E+10	1
4902624	4	C	07/31/2024	11:38	-128.768	46.668	0	252.80	0	6.1349	0	33.8376	0	26.620	0	250.556	0	110.3	4	36.5	4	-1E+10	1	0.0511	4	0.000332	0	-1E+10	1	-1E+10	1	-1E+10	1
4902624	4	C	07/31/2024	11:38	-128.768	46.668	0	253.10	0	6.1330	0	33.8380	0	26.621	0	250.853	0	-1e10	1	-1e10	1	-1E+10	1	-1e10	1	-1e10	1	-1E+10	1	-1E+10	1	-1E+10	1
4902624	4	C	07/31/2024	11:38	-128.768	46.668	0	253.70	0	6.1327	0	33.8399	0	26.622	0	251.447	0	108.9	4	36.1	4	-1E+10	1	0.0460	4	0.000336	0	-1E+10	1	-1E+10	1	-1E+10	1
4902624	4	C	07/31/2024	11:38	-128.768	46.668	0	254.70	0	6.1322	0	33.8431	0	26.625	0	252.438	0	107.5	4	35.6	4	-1E+10	1	0.0484	4	0.000355	0	-1E+10	1	-1E+10	1	-1E+10	1
4902624	4	C	07/31/2024	11:38	-128.768	46.668	0	255.00	0	6.1320	0	33.8440	0	26.625	0	252.735	0	-1e10	1	-1e10	1	-1E+10	1	-1e10	1	-1e10	1	-1E+10	1	-1E+10	1	-1E+10	1
4902624	4	C	07/31/2024	11:38	-128.768	46.668	0	255.60	0	6.1421	0	33.8468	0	26.626	0	253.329	0	106.2	4	35.2	4	-1E+10	1	0.0511	4	0.000358	0	-1E+10	1	-1E+10	1	-1E+10	1
4902624	4	C	07/31/2024	11:38	-128.768	46.668	0	256.60	0	6.1589	0	33.8516	0	26.628	0	254.320	0	105.4	4	34.9	4	-1E+10	1	0.0438	4	0.000344	0	-1E+10	1	-1E+10	1	-1E+10	1
4902624	4	C	07/31/2024	11:38	-128.768	46.668	0	256.90	0	6.1640	0	33.8530	0	26.629	0	254.617	0	-1e10	1	-1e10	1	-1E+10	1	-1e10	1	-1e10	1	-1E+10	1	-1E+10	1	-1E+10	1
4902624	4	C	07/31/2024	11:38	-128.768	46.668	0	257.60	0	6.1686	0	33.8562	0	26.630	0	255.310	0	104.7	4	34.7	4	-1E+10	1	0.0372	4	0.000341	0	-1E+10	1	-1E+10	1	-1E+10	1
4902624	4	C	07/31/2024	11:38	-128.768	46.668	0	258.50	0	6.1744	0	33.8602	0	26.633	0	256.202	0	104.2	4	34.5	4	-1E+10	1	0.0523	4	0.000365	0	-1E+10	1	-1E+10	1	-1E+10	1
4902624	4	C	07/31/2024	11:38	-128.768	46.668	0	258.90	0	6.1770	0	33.8620	0	26.634	0	256.598	0	-1e10	1	-1e10	1	-1E+10	1	-1e10	1	-1e10	1	-1E+10	1	-1E+10	1	-1E+10	1
4902624	4	C	07/31/2024	11:38	-128.768	46.668	0	259.50	0	6.1770	0	33.8629	0	26.635	0	257.192	0	103.7	4	34.4	4	-1E+10	1	0.0584	4	0.000375	0	-1E+10	1	-1E+10	1	-1E+10	1
4902624	4	C	07/31/2024	11:38	-128.768	46.668	0	260.50	0	6.1770	0	33.8643	0	26.636	0	258.183	0	103.3	4	34.3	4	-1E+10	1	0.0438	4	0.000387	0	-1E+10	1	-1E+10	1	-1E+10	1
4902624	4	C	07/31/2024	11:38	-128.768	46.668	0	261.00	0	6.1770	0	33.8650	0	26.636	0	258.678	0	-1e10	1	-1e10	1	-1E+10	1	-1e10	1	-1e10	1	-1E+10	1	-1E+10	1	-1E+10	1
4902624	4	C	07/31/2024	11:38	-128.768	46.668	0	261.40	0	6.1766	0	33.8652	0	26.637	0	259.074	0	102.9	4	34.1	4	-1E+10	1	0.0617	4	0.000483	0	-1E+10	1	-1E+10	1	-1E+10	1
4902624	4	C	07/31/2024	11:38	-128.768	46.668	0	262.40	0	6.1757	0	33.8657	0	26.637	0	260.065	0	102.5	4	34.0	4	-1E+10	1	0.0560	4	0.000387	0	-1E+10	1	-1E+10	1	-1E+10	1
4902624	4	C	07/31/2024	11:38	-128.768	46.668	0	263.10	0	6.1750	0	33.8660	0	26.638	0	260.758	0	-1e10	1	-1e10	1	-1E+10	1	-1e10	1	-1e10	1	-1E+10	1	-1E+10	1	-1E+10	1
4902624	4	C	07/31/2024	11:38	-128.768	46.668	0	263.40	0	6.1728	0	33.8665	0	26.638	0	261.055	0	102.0	4	33.8	4	-1E+10	1	0.0560	4	0.000359	0	-1E+10	1	-1E+10	1	-1E+10	1
4902624	4	C	07/31/2024	11:38	-128.768	46.668	0	264.30	0	6.1662	0	33.8679	0	26.640	0	261.947	0	101.6	4	33.7	4	-1E+10	1	0.0548	4	0.000393	0	-1E+10	1	-1E+10	1	-1E+10	1
4902624	4	C	07/31/2024	11:38	-128.768	46.668	0	265.00	0	6.1610	0	33.8690	0	26.642	0	262.640	0	-1e10	1	-1e10	1	-1E+10	1	-1e10	1	-1e10	1	-1E+10	1	-1E+10	1	-1E+10	1
4902624	4	C	07/31/2024	11:38	-128.768	46.668	0	265.30	0	6.1595	0	33.8691	0	26.642	0	262.937	0	101.3	4	33.6	4	-1E+10	1	0.0511	4	0.000379	0	-1E+10	1	-1E+10	1	-1E+10	1
4902624	4	C	07/31/2024	11:38	-128.768	46.668	0	266.30	0	6.1545	0	33.8696	0	26.643	0	263.928	0	101.0	4	33.5	4	-1E+10	1	0.0496	4	0.000328	0	-1E+10	1	-1E+10	1	-1E+10	1
4902624	4	C	07/31/2024	11:38	-128.768	46.668	0	267.00	0	6.1510	0	33.8700	0	26.644	0	264.621	0	-1e10	1	-1e10	1	-1E+10	1	-1e10	1	-1e10	1	-1E+10	1	-1E+10	1	-1E+10	1
4902624	4	C	07/31/2024	11:38	-128.768	46.668	0	267.30	0	6.1472	0	33.8700	0	26.644	0	264.918	0	100.7	4	33.4	4	-1E+10	1	0.0438	4	0.000383	0	-1E+10	1	-1E+10	1	-1E+10	1
4902624	4	C	07/31/2024	11:38	-128.768	46.668	0	268.20	0	6.1358	0	33.8700	0	26.646	0	265.809	0	100.3	4	33.2	4	-1E+10	1	0.0438	4	0.000422	0	-1E+10	1	-1E+10	1	-1E+10	1
4902624	4	C	07/31/2024	11:38	-128.768	46.668	0	268.90	0	6.1270	0	33.8700	0	26.647	0	266.503	0	-1e10	1	-1e10	1	-1E+10	1	-1e10	1	-1e10	1	-1E+10	1	-1E+10	1	-1E+10	1
4902624	4	C	07/31/2024	11:38	-128.768	46.668	0	269.20	0	6.1240	0	33.8701	0	26.647	0	266.800	0	99.8	4	33.1	4	-1E+10	1	0.0377	4	0.000383	0	-1E+10	1	-1E+10	1	-1E+10	1
4902624	4	C	07/31/2024	11:38	-128.768	46.668	0	270.20	0	6.1140	0	33.8706	0	26.649	0	267.790	0	99.3	4	32.9	4	-1E+10	1	0.0423	4	0.000366	0	-1E+10	1	-1E+10	1	-1E+10	1
4902624	4	C	07/31/2024	11:38	-128.768	46.668	0	270.90	0	6.1070	0	33.8710	0	26.650	0	268.484	0	-1e10	1	-1e10	1	-1E+10	1	-1e10	1	-1e10	1	-1E+10	1	-1E+10	1	-1E+10	1
4902624	4	C	07/31/2024	11:38	-128.768	46.668	0	271.20	0	6.1004	0	33.8708	0	26.651	0	268.781	0	98.8	4	32.7	4	-1E+10	1	0.0487	4	0.000348	0	-1E+10	1	-1E+10	1	-1E+10	1
4902624	4	C	07/31/2024	11:38	-128.768	46.668	0	272.20	0	6.0784	0	33.8703	0	26.653	0	269.771	0	98.1	4	32.5	4	-1E+10	1	0.0548	4	0.000346	0	-1E+10	1	-1E+10	1	-1E+10	1
4902624	4	C	07/31/2024	11:38	-128.768	46.668	0	272.90	0	6.0630	0	33.8700	0	26.655	0	270.464	0	-1e10	1	-1e10	1	-1E+10	1	-1e10	1	-1e10	1	-1E+10	1	-1E+10	1	-1E+10	1
4902624	4	C	07/31/2024	11:38	-128.768	46.668	0	273.20	0	6.0606	0	33.8703	0	26.655	0	270.762	0	97.4	4	32.2	4	-1E+10	1	0.0555	4	0.000356	0	-1E+10	1	-1E+10	1	-1E+10	1
4902624	4	C	07/31/2024	11:38	-128.768	46.668	0	274.20	0	6.0526	0	33.8713	0	26.657	0	271.752	0	96.7	4	32.0	4	-1E+10	1	0.0511	4	0.000363	0	-1E+10	1	-1E+10	1	-1E+10	1
4902624	4	C	07/31/2024	11:38	-128.768	46.668	0	274.90	0	6.0470	0	33.8720	0	26.659	0	272.445	0	-1e10	1	-1e10	1	-1E+10	1	-1e10	1	-1e10	1	-1E+10	1	-1E+10	1	-1E+10	1
4902624	4	C	07/31/2024	11:38	-128.768	46.668	0	275.20	0	6.0384	0	33.8724	0	26.660	0	272.742	0	96.0	4	31.7	4	-1E+10	1	0.0511	4	0.000358	0	-1E+10	1	-1E+10	1	-1E+10	1
4902624	4	C	07/31/2024	11:38	-128.768	46.668	0	276.30	0	6.0070	0	33.8740	0	26.665	0	273.832	0	95.2	4	31.4	4	-1E+10	1	0.0511	4	0.000328	0	-1E+10	1	-1E+10	1	-1E+10	1
4902624	4	C	07/31/2024	11:38	-128.768	46.668	0	277.00	0	5.9870	0	33.8750	0	26.668	0	274.525	0	-1e10	1	-1e10	1	-1E+10	1	-1e10	1	-1e10	1	-1E+10	1	-1E+10	1	-1E+10	1
4902624	4	C	07/31/2024	11:38	-128.768	46.668	0	277.30	0	5.9842	0	33.8755	0	26.669	0	274.822	0	94.3	4	31.1	4	-1E+10	1	0.0438	4	0.000351	0	-1E+10	1	-1E+10	1	-1E+10	1
4902624	4	C	07/31/2024	11:38	-128.768	46.668	0	278.30	0	5.9747	0	33.8771	0	26.672	0	275.813	0	93.5	4	30.9	4	-1E+10	1	0.0499	4	0.000342	0	-1E+10	1	-1E+10	1	-1E+10	1
4902624	4	C	07/31/2024	11:38	-128.768	46.668	0	278.90	0	5.9690	0	33.8780	0	26.673	0	276.407	0	-1e10	1	-1e10	1	-1E+10	1	-1e10	1	-1e10	1	-1E+10	1	-1E+10	1	-1E+10	1
4902624	4	C	07/31/2024	11:38	-128.768	46.668	0	279.30	0	5.9650	0	33.8790	0	26.674	0	276.803	0	92.8	4	30.6	4	-1E+10	1	0.0608	4	0.000371	0	-1E+10	1	-1E+10	1	-1E+10	1
4902624	4	C	07/31/2024	11:38	-128.768	46.668	0	280.30	0	5.9550	0	33.8813	0	26.677	0	277.793	0	92.1	4	30.4	4	-1E+10	1	0.0613	4	0.000351	0	-1E+10	1	-1E+10	1	-1E+10	1
4902624	4	C	07/31/2024	11:38	-128.768	46.668	0	281.00	0	5.9480	0	33.8830	0	26.680	0	278.487	0	-1e10	1	-1e10	1	-1E+10	1	-1e10	1	-1e10	1	-1E+10	1	-1E+10	1	-1E+10	1
4902624	4	C	07/31/2024	11:38	-128.768	46.668	0	281.30	0	5.9474	0	33.8833	0	26.680	0	278.784	0	91.4	4	30.2	4	-1E+10	1	0.0511	4	0.000334	0	-1E+10	1	-1E+10	1	-1E+10	1
4902624	4	C	07/31/2024	11:38	-128.768	46.668	0	282.30	0	5.9454	0	33.8843	0	26.681	0	279.774	0	90.8	4	29.9	4	-1E+10	1	0.0487	4	0.000343	0	-1E+10	1	-1E+10	1	-1E+10	1
4902624	4	C	07/31/2024	11:38	-128.768	46.668	0	283.00	0	5.9440	0	33.8850	0	26.682	0	280.467	0	-1e10	1	-1e10	1	-1E+10	1	-1e10	1	-1e10	1	-1E+10	1	-1E+10	1	-1E+10	1
4902624	4	C	07/31/2024	11:38	-128.768	46.668	0	283.40	0	5.9416	0	33.8856	0	26.683	0	280.864	0	90.1	4	29.7	4	-1E+10	1	0.0524	4	0.000354	0	-1E+10	1	-1E+10	1	-1E+10	1
4902624	4	C	07/31/2024	11:38	-128.768	46.668	0	284.40	0	5.9356	0	33.8871	0	26.684	0	281.854	0	89.3	4	29.4	4	-1E+10	1	0.0389	4	0.000357	0	-1E+10	1	-1E+10	1	-1E+10	1
4902624	4	C	07/31/2024	11:38	-128.768	46.668	0	285.00	0	5.9320	0	33.8880	0	26.686	0	282.448	0	-1e10	1	-1e10	1	-1E+10	1	-1e10	1	-1e10	1	-1E+10	1	-1E+10	1	-1E+10	1
4902624	4	C	07/31/2024	11:38	-128.768	46.668	0	285.40	0	5.9314	0	33.8888	0	26.686	0	282.844	0	88.5	4	29.2	4	-1E+10	1	0.0511	4	0.000328	0	-1E+10	1	-1E+10	1	-1E+10	1
4902624	4	C	07/31/2024	11:38	-128.768	46.668	0	286.40	0	5.9298	0	33.8909	0	26.688	0	283.835	0	87.8	4	28.9	4	-1E+10	1	0.0633	4	0.000338	0	-1E+10	1	-1E+10	1	-1E+10	1
4902624	4	C	07/31/2024	11:38	-128.768	46.668	0	286.90	0	5.9290	0	33.8920	0	26.689	0	284.330	0	-1e10	1	-1e10	1	-1E+10	1	-1e10	1	-1e10	1	-1E+10	1	-1E+10	1	-1E+10	1
4902624	4	C	07/31/2024	11:38	-128.768	46.668	0	287.40	0	5.9302	0	33.8927	0	26.690	0	284.825	0	87.1	4	28.7	4	-1E+10	1	0.0551	4	0.000340	0	-1E+10	1	-1E+10	1	-1E+10	1
4902624	4	C	07/31/2024	11:38	-128.768	46.668	0	288.50	0	5.9328	0	33.8943	0	26.691	0	285.914	0	86.4	4	28.5	4	-1E+10	1	0.0657	4	0.000339	0	-1E+10	1	-1E+10	1	-1E+10	1
4902624	4	C	07/31/2024	11:38	-128.768	46.668	0	289.00	0	5.9340	0	33.8950	0	26.691	0	286.410	0	-1e10	1	-1e10	1	-1E+10	1	-1e10	1	-1e10	1	-1E+10	1	-1E+10	1	-1E+10	1
4902624	4	C	07/31/2024	11:38	-128.768	46.668	0	289.50	0	5.9348	0	33.8961	0	26.692	0	286.905	0	85.7	4	28.3	4	-1E+10	1	0.0657	4	0.000334	0	-1E+10	1	-1E+10	1	-1E+10	1
4902624	4	C	07/31/2024	11:38	-128.768	46.668	0	290.60	0	5.9365	0	33.8984	0	26.693	0	287.994	0	85.3	4	28.1	4	-1E+10	1	0.0584	4	0.000338	0	-1E+10	1	-1E+10	1	-1E+10	1
4902624	4	C	07/31/2024	11:38	-128.768	46.668	0	290.90	0	5.9370	0	33.8990	0	26.694	0	288.291	0	-1e10	1	-1e10	1	-1E+10	1	-1e10	1	-1e10	1	-1E+10	1	-1E+10	1	-1E+10	1
4902624	4	C	07/31/2024	11:38	-128.768	46.668	0	291.60	0	5.9080	0	33.8980	0	26.697	0	288.985	0	84.8	4	27.9	4	-1E+10	1	0.0526	4	0.000351	0	-1E+10	1	-1E+10	1	-1E+10	1
4902624	4	C	07/31/2024	11:38	-128.768	46.668	0	292.70	0	5.8624	0	33.8964	0	26.701	0	290.074	0	83.8	4	27.6	4	-1E+10	1	0.0494	4	0.000351	0	-1E+10	1	-1E+10	1	-1E+10	1
4902624	4	C	07/31/2024	11:38	-128.768	46.668	0	293.00	0	5.8500	0	33.8960	0	26.702	0	290.371	0	-1e10	1	-1e10	1	-1E+10	1	-1e10	1	-1e10	1	-1E+10	1	-1E+10	1	-1E+10	1
4902624	4	C	07/31/2024	11:38	-128.768	46.668	0	293.90	0	5.8702	0	33.9010	0	26.704	0	291.262	0	83.0	4	27.4	4	-1E+10	1	0.0581	4	0.000351	0	-1E+10	1	-1E+10	1	-1E+10	1
4902624	4	C	07/31/2024	11:38	-128.768	46.668	0	295.00	0	5.8950	0	33.9070	0	26.705	0	292.352	0	-1e10	1	-1e10	1	-1E+10	1	-1e10	1	-1e10	1	-1E+10	1	-1E+10	1	-1E+10	1
4902624	4	C	07/31/2024	11:38	-128.768	46.668	0	297.10	0	5.9040	0	33.9110	0	26.707	0	294.431	0	-1e10	1	-1e10	1	-1E+10	1	-1e10	1	-1e10	1	-1E+10	1	-1E+10	1	-1E+10	1
4902624	4	C	07/31/2024	11:38	-128.768	46.668	0	299.00	0	5.8900	0	33.9130	0	26.711	0	296.313	0	-1e10	1	-1e10	1	-1E+10	1	-1e10	1	-1e10	1	-1E+10	1	-1E+10	1	-1E+10	1
4902624	4	C	07/31/2024	11:38	-128.768	46.668	0	304.40	0	5.8412	0	33.9130	0	26.717	0	301.660	0	81.5	4	26.8	4	-1E+10	1	0.0511	4	0.000348	0	-1E+10	1	-1E+10	1	-1E+10	1
4902624	4	C	07/31/2024	11:38	-128.768	46.668	0	305.20	0	5.8340	0	33.9130	0	26.718	0	302.453	0	-1e10	1	-1e10	1	-1E+10	1	-1e10	1	-1e10	1	-1E+10	1	-1E+10	1	-1E+10	1
4902624	4	C	07/31/2024	11:38	-128.768	46.668	0	315.10	0	5.7528	0	33.9130	0	26.728	0	312.256	0	79.7	4	26.2	4	-1E+10	1	0.0508	4	0.000283	0	-1E+10	1	-1E+10	1	-1E+10	1
4902624	4	C	07/31/2024	11:38	-128.768	46.668	0	315.20	0	5.7520	0	33.9130	0	26.728	0	312.355	0	-1e10	1	-1e10	1	-1E+10	1	-1e10	1	-1e10	1	-1E+10	1	-1E+10	1	-1E+10	1
4902624	4	C	07/31/2024	11:38	-128.768	46.668	0	325.10	0	5.6210	0	33.9130	0	26.744	0	322.158	0	-1e10	1	-1e10	1	-1E+10	1	-1e10	1	-1e10	1	-1E+10	1	-1E+10	1	-1E+10	1
4902624	4	C	07/31/2024	11:38	-128.768	46.668	0	326.20	0	5.6116	0	33.9131	0	26.745	0	323.247	0	78.6	4	25.7	4	-1E+10	1	0.0441	4	0.000337	0	-1E+10	1	-1E+10	1	-1E+10	1
4902624	4	C	07/31/2024	11:38	-128.768	46.668	0	335.10	0	5.5360	0	33.9140	0	26.755	0	332.059	0	-1e10	1	-1e10	1	-1E+10	1	-1e10	1	-1e10	1	-1E+10	1	-1E+10	1	-1E+10	1
4902624	4	C	07/31/2024	11:38	-128.768	46.668	0	337.20	0	5.5169	0	33.9140	0	26.757	0	334.139	0	77.7	4	25.4	4	-1E+10	1	0.0511	4	0.000291	0	-1E+10	1	-1E+10	1	-1E+10	1
4902624	4	C	07/31/2024	11:38	-128.768	46.668	0	345.30	0	5.4430	0	33.9140	0	26.766	0	342.159	0	-1e10	1	-1e10	1	-1E+10	1	-1e10	1	-1e10	1	-1E+10	1	-1E+10	1	-1E+10	1
4902624	4	C	07/31/2024	11:38	-128.768	46.668	0	348.50	0	5.4192	0	33.9147	0	26.769	0	345.327	0	76.1	4	24.8	4	-1E+10	1	0.0511	4	0.000575	0	-1E+10	1	-1E+10	1	-1E+10	1
4902624	4	C	07/31/2024	11:38	-128.768	46.668	0	355.10	0	5.3700	0	33.9160	0	26.776	0	351.861	0	-1e10	1	-1e10	1	-1E+10	1	-1e10	1	-1e10	1	-1E+10	1	-1E+10	1	-1E+10	1
4902624	4	C	07/31/2024	11:38	-128.768	46.668	0	359.80	0	5.3164	0	33.9141	0	26.781	0	356.514	0	75.8	4	24.6	4	-1E+10	1	0.0511	4	0.000291	0	-1E+10	1	-1E+10	1	-1E+10	1
4902624	4	C	07/31/2024	11:38	-128.768	46.668	0	365.00	0	5.2570	0	33.9120	0	26.787	0	361.662	0	-1e10	1	-1e10	1	-1E+10	1	-1e10	1	-1e10	1	-1E+10	1	-1E+10	1	-1E+10	1
4902624	4	C	07/31/2024	11:38	-128.768	46.668	0	370.90	0	5.2159	0	33.9132	0	26.792	0	367.503	0	73.1	4	23.7	4	-1E+10	1	0.0508	4	0.000270	0	-1E+10	1	-1E+10	1	-1E+10	1
4902624	4	C	07/31/2024	11:38	-128.768	46.668	0	374.90	0	5.1880	0	33.9140	0	26.796	0	371.463	0	-1e10	1	-1e10	1	-1E+10	1	-1e10	1	-1e10	1	-1E+10	1	-1E+10	1	-1E+10	1
4902624	4	C	07/31/2024	11:38	-128.768	46.668	0	382.00	0	5.1497	0	33.9239	0	26.809	0	378.491	0	65.7	4	21.3	4	-1E+10	1	0.0438	4	0.000315	0	-1E+10	1	-1E+10	1	-1E+10	1
4902624	4	C	07/31/2024	11:38	-128.768	46.668	0	384.90	0	5.1340	0	33.9280	0	26.814	0	381.362	0	-1e10	1	-1e10	1	-1E+10	1	-1e10	1	-1e10	1	-1E+10	1	-1E+10	1	-1E+10	1
4902624	4	C	07/31/2024	11:38	-128.768	46.668	0	393.20	0	5.2229	0	33.9590	0	26.828	0	389.578	0	56.6	4	18.4	4	-1E+10	1	0.0441	4	0.000314	0	-1E+10	1	-1E+10	1	-1E+10	1
4902624	4	C	07/31/2024	11:38	-128.768	46.668	0	394.80	0	5.2400	0	33.9650	0	26.831	0	391.161	0	-1e10	1	-1e10	1	-1E+10	1	-1e10	1	-1e10	1	-1E+10	1	-1E+10	1	-1E+10	1
4902624	4	C	07/31/2024	11:38	-128.768	46.668	0	404.60	0	5.1677	0	33.9690	0	26.842	0	400.862	0	53.9	4	17.5	4	-1E+10	1	0.0517	4	0.000279	0	-1E+10	1	-1E+10	1	-1E+10	1
4902624	4	C	07/31/2024	11:38	-128.768	46.668	0	404.70	0	5.1670	0	33.9690	0	26.843	0	400.961	0	-1e10	1	-1e10	1	-1E+10	1	-1e10	1	-1e10	1	-1E+10	1	-1E+10	1	-1E+10	1
4902624	4	C	07/31/2024	11:38	-128.768	46.668	0	414.80	0	5.0870	0	33.9810	0	26.861	0	410.957	0	-1e10	1	-1e10	1	-1E+10	1	-1e10	1	-1e10	1	-1E+10	1	-1E+10	1	-1E+10	1
4902624	4	C	07/31/2024	11:38	-128.768	46.668	0	415.80	0	5.0825	0	33.9822	0	26.863	0	411.947	0	50.1	4	16.2	4	-1E+10	1	0.0657	4	0.000257	0	-1E+10	1	-1E+10	1	-1E+10	1
4902624	4	C	07/31/2024	11:38	-128.768	46.668	0	424.90	0	5.0420	0	33.9930	0	26.876	0	420.954	0	-1e10	1	-1e10	1	-1E+10	1	-1e10	1	-1e10	1	-1E+10	1	-1E+10	1	-1E+10	1
4902624	4	C	07/31/2024	11:38	-128.768	46.668	0	427.10	0	5.0372	0	33.9954	0	26.879	0	423.131	0	47.1	4	15.2	4	-1E+10	1	0.0647	4	0.000278	0	-1E+10	1	-1E+10	1	-1E+10	1
4902624	4	C	07/31/2024	11:38	-128.768	46.668	0	435.00	0	5.0200	0	34.0040	0	26.887	0	430.949	0	-1e10	1	-1e10	1	-1E+10	1	-1e10	1	-1e10	1	-1E+10	1	-1E+10	1	-1E+10	1
4902624	4	C	07/31/2024	11:38	-128.768	46.668	0	438.60	0	5.0076	0	34.0065	0	26.891	0	434.512	0	45.1	4	14.6	4	-1E+10	1	0.0382	4	0.000387	0	-1E+10	1	-1E+10	1	-1E+10	1
4902624	4	C	07/31/2024	11:38	-128.768	46.668	0	445.20	0	4.9850	0	34.0110	0	26.897	0	441.043	0	-1e10	1	-1e10	1	-1E+10	1	-1e10	1	-1e10	1	-1E+10	1	-1E+10	1	-1E+10	1
4902624	4	C	07/31/2024	11:38	-128.768	46.668	0	447.00	0	4.9795	0	34.0125	0	26.899	0	442.825	0	43.7	4	14.1	4	-1E+10	1	0.0722	4	0.003618	0	-1E+10	1	-1E+10	1	-1E+10	1
4902624	4	C	07/31/2024	11:38	-128.768	46.668	0	454.90	0	4.9556	0	34.0188	0	26.907	0	450.642	0	42.7	4	13.8	4	-1E+10	1	0.0514	4	0.000232	0	-1E+10	1	-1E+10	1	-1E+10	1
4902624	4	C	07/31/2024	11:38	-128.768	46.668	0	455.10	0	4.9550	0	34.0190	0	26.907	0	450.840	0	-1e10	1	-1e10	1	-1E+10	1	-1e10	1	-1e10	1	-1E+10	1	-1E+10	1	-1E+10	1
4902624	4	C	07/31/2024	11:38	-128.768	46.668	0	462.80	0	4.9055	0	34.0221	0	26.915	0	458.460	0	41.4	4	13.3	4	-1E+10	1	0.0587	4	0.000219	0	-1E+10	1	-1E+10	1	-1E+10	1
4902624	4	C	07/31/2024	11:38	-128.768	46.668	0	464.90	0	4.8920	0	34.0230	0	26.917	0	460.538	0	-1e10	1	-1e10	1	-1E+10	1	-1e10	1	-1e10	1	-1E+10	1	-1E+10	1	-1E+10	1
4902624	4	C	07/31/2024	11:38	-128.768	46.668	0	471.20	0	4.8695	0	34.0281	0	26.924	0	466.772	0	39.6	4	12.7	4	-1E+10	1	0.0652	4	0.000185	0	-1E+10	1	-1E+10	1	-1E+10	1
4902624	4	C	07/31/2024	11:38	-128.768	46.668	0	474.70	0	4.8570	0	34.0310	0	26.927	0	470.235	0	-1e10	1	-1e10	1	-1E+10	1	-1e10	1	-1e10	1	-1E+10	1	-1E+10	1	-1E+10	1
4902624	4	C	07/31/2024	11:38	-128.768	46.668	0	480.10	0	4.8432	0	34.0363	0	26.933	0	475.578	0	37.7	4	12.1	4	-1E+10	1	0.0514	4	0.000176	0	-1E+10	1	-1E+10	1	-1E+10	1
4902624	4	C	07/31/2024	11:38	-128.768	46.668	0	484.90	0	4.8310	0	34.0410	0	26.938	0	480.327	0	-1e10	1	-1e10	1	-1E+10	1	-1e10	1	-1e10	1	-1E+10	1	-1E+10	1	-1E+10	1
4902624	4	C	07/31/2024	11:38	-128.768	46.668	0	489.10	0	4.8037	0	34.0431	0	26.943	0	484.482	0	36.2	4	11.6	4	-1E+10	1	0.0584	4	0.000230	0	-1E+10	1	-1E+10	1	-1E+10	1
4902624	4	C	07/31/2024	11:38	-128.768	46.668	0	494.90	0	4.7660	0	34.0460	0	26.950	0	490.221	0	-1e10	1	-1e10	1	-1E+10	1	-1e10	1	-1e10	1	-1E+10	1	-1E+10	1	-1E+10	1
4902624	4	C	07/31/2024	11:38	-128.768	46.668	0	498.50	0	4.7471	0	34.0489	0	26.954	0	493.783	0	34.6	4	11.1	4	-1E+10	1	0.0586	4	0.000185	0	-1E+10	1	-1E+10	1	-1E+10	1
4902624	4	C	07/31/2024	11:38	-128.768	46.668	0	505.00	0	4.7130	0	34.0540	0	26.962	0	500.213	0	-1e10	1	-1e10	1	-1E+10	1	-1e10	1	-1e10	1	-1E+10	1	-1E+10	1	-1E+10	1
4902624	4	C	07/31/2024	11:38	-128.768	46.668	0	508.20	0	4.6949	0	34.0575	0	26.967	0	503.379	0	32.8	4	10.5	4	-1E+10	1	0.0651	4	0.000185	0	-1E+10	1	-1E+10	1	-1E+10	1
4902624	4	C	07/31/2024	11:38	-128.768	46.668	0	515.10	0	4.6560	0	34.0650	0	26.977	0	510.205	0	-1e10	1	-1e10	1	-1E+10	1	-1e10	1	-1e10	1	-1E+10	1	-1E+10	1	-1E+10	1
4902624	4	C	07/31/2024	11:38	-128.768	46.668	0	518.00	0	4.6336	0	34.0659	0	26.980	0	513.074	0	32.0	4	10.3	4	-1E+10	1	0.0517	4	0.000199	0	-1E+10	1	-1E+10	1	-1E+10	1
4902624	4	C	07/31/2024	11:38	-128.768	46.668	0	524.80	0	4.5810	0	34.0680	0	26.988	0	519.801	0	-1e10	1	-1e10	1	-1E+10	1	-1e10	1	-1e10	1	-1E+10	1	-1E+10	1	-1E+10	1
4902624	4	C	07/31/2024	11:38	-128.768	46.668	0	528.10	0	4.5618	0	34.0699	0	26.991	0	523.065	0	30.9	4	9.9	4	-1E+10	1	0.0653	4	0.000252	0	-1E+10	1	-1E+10	1	-1E+10	1
4902624	4	C	07/31/2024	11:38	-128.768	46.668	0	535.10	0	4.5210	0	34.0740	0	26.999	0	529.989	0	-1e10	1	-1e10	1	-1E+10	1	-1e10	1	-1e10	1	-1E+10	1	-1E+10	1	-1E+10	1
4902624	4	C	07/31/2024	11:38	-128.768	46.668	0	538.30	0	4.5125	0	34.0762	0	27.002	0	533.155	0	29.4	4	9.4	4	-1E+10	1	0.0584	4	0.000194	0	-1E+10	1	-1E+10	1	-1E+10	1
4902624	4	C	07/31/2024	11:38	-128.768	46.668	0	545.30	0	4.4940	0	34.0810	0	27.008	0	540.079	0	-1e10	1	-1e10	1	-1E+10	1	-1e10	1	-1e10	1	-1E+10	1	-1E+10	1	-1E+10	1
4902624	4	C	07/31/2024	11:38	-128.768	46.668	0	548.50	0	4.4876	0	34.0839	0	27.011	0	543.244	0	27.8	4	8.9	4	-1E+10	1	0.0581	4	0.000149	0	-1E+10	1	-1E+10	1	-1E+10	1
4902624	4	C	07/31/2024	11:38	-128.768	46.668	0	555.30	0	4.4740	0	34.0900	0	27.017	0	549.970	0	-1e10	1	-1e10	1	-1E+10	1	-1e10	1	-1e10	1	-1E+10	1	-1E+10	1	-1E+10	1
4902624	4	C	07/31/2024	11:38	-128.768	46.668	0	558.90	0	4.4624	0	34.0925	0	27.020	0	553.531	0	26.2	4	8.4	4	-1E+10	1	0.0518	4	0.000142	0	-1E+10	1	-1E+10	1	-1E+10	1
4902624	4	C	07/31/2024	11:38	-128.768	46.668	0	565.20	0	4.4420	0	34.0970	0	27.026	0	559.762	0	-1e10	1	-1e10	1	-1E+10	1	-1e10	1	-1e10	1	-1E+10	1	-1E+10	1	-1E+10	1
4902624	4	C	07/31/2024	11:38	-128.768	46.668	0	569.20	0	4.4198	0	34.0982	0	27.029	0	563.718	0	25.3	4	8.1	4	-1E+10	1	0.0654	4	0.000229	0	-1E+10	1	-1E+10	1	-1E+10	1
4902624	4	C	07/31/2024	11:38	-128.768	46.668	0	575.10	0	4.3870	0	34.1000	0	27.034	0	569.553	0	-1e10	1	-1e10	1	-1E+10	1	-1e10	1	-1e10	1	-1E+10	1	-1E+10	1	-1E+10	1
4902624	4	C	07/31/2024	11:38	-128.768	46.668	0	579.40	0	4.3616	0	34.1039	0	27.040	0	573.805	0	23.8	4	7.6	4	-1E+10	1	0.0587	4	0.000172	0	-1E+10	1	-1E+10	1	-1E+10	1
4902624	4	C	07/31/2024	11:38	-128.768	46.668	0	585.10	0	4.3280	0	34.1090	0	27.048	0	579.442	0	-1e10	1	-1e10	1	-1E+10	1	-1e10	1	-1e10	1	-1E+10	1	-1E+10	1	-1E+10	1
4902624	4	C	07/31/2024	11:38	-128.768	46.668	0	589.50	0	4.3153	0	34.1167	0	27.055	0	583.794	0	21.4	4	6.8	4	-1E+10	1	0.0654	4	0.000162	0	-1E+10	1	-1E+10	1	-1E+10	1
4902624	4	C	07/31/2024	11:38	-128.768	46.668	0	594.80	0	4.3000	0	34.1260	0	27.064	0	589.035	0	-1e10	1	-1e10	1	-1E+10	1	-1e10	1	-1e10	1	-1E+10	1	-1E+10	1	-1E+10	1
4902624	4	C	07/31/2024	11:38	-128.768	46.668	0	599.60	0	4.2971	0	34.1312	0	27.069	0	593.781	0	19.6	4	6.2	4	-1E+10	1	0.0578	4	0.000183	0	-1E+10	1	-1E+10	1	-1E+10	1
4902624	4	C	07/31/2024	11:38	-128.768	46.668	0	604.90	0	4.2940	0	34.1370	0	27.074	0	599.022	0	-1e10	1	-1e10	1	-1E+10	1	-1e10	1	-1e10	1	-1E+10	1	-1E+10	1	-1E+10	1
4902624	4	C	07/31/2024	11:38	-128.768	46.668	0	610.10	0	4.2898	0	34.1432	0	27.079	0	604.164	0	18.1	4	5.8	4	-1E+10	1	0.0438	4	0.000148	0	-1E+10	1	-1E+10	1	-1E+10	1
4902624	4	C	07/31/2024	11:38	-128.768	46.668	0	614.90	0	4.2860	0	34.1490	0	27.084	0	608.911	0	-1e10	1	-1e10	1	-1E+10	1	-1e10	1	-1e10	1	-1E+10	1	-1E+10	1	-1E+10	1
4902624	4	C	07/31/2024	11:38	-128.768	46.668	0	620.70	0	4.2791	0	34.1553	0	27.090	0	614.646	0	17.0	4	5.4	4	-1E+10	1	0.0443	4	0.000138	0	-1E+10	1	-1E+10	1	-1E+10	1
4902624	4	C	07/31/2024	11:38	-128.768	46.668	0	625.00	0	4.2740	0	34.1600	0	27.094	0	618.897	0	-1e10	1	-1e10	1	-1E+10	1	-1e10	1	-1e10	1	-1E+10	1	-1E+10	1	-1E+10	1
4902624	4	C	07/31/2024	11:38	-128.768	46.668	0	631.50	0	4.2573	0	34.1658	0	27.101	0	625.324	0	16.3	4	5.2	4	-1E+10	1	0.0587	4	0.000161	0	-1E+10	1	-1E+10	1	-1E+10	1
4902624	4	C	07/31/2024	11:38	-128.768	46.668	0	635.10	0	4.2480	0	34.1690	0	27.104	0	628.883	0	-1e10	1	-1e10	1	-1E+10	1	-1e10	1	-1e10	1	-1E+10	1	-1E+10	1	-1E+10	1
4902624	4	C	07/31/2024	11:38	-128.768	46.668	0	642.70	0	4.2142	0	34.1713	0	27.110	0	636.397	0	16.1	4	5.1	4	-1E+10	1	0.0652	4	0.000169	0	-1E+10	1	-1E+10	1	-1E+10	1
4902624	4	C	07/31/2024	11:38	-128.768	46.668	0	645.00	0	4.2040	0	34.1720	0	27.111	0	638.671	0	-1e10	1	-1e10	1	-1E+10	1	-1e10	1	-1e10	1	-1E+10	1	-1E+10	1	-1E+10	1
4902624	4	C	07/31/2024	11:38	-128.768	46.668	0	653.90	0	4.1467	0	34.1764	0	27.121	0	647.470	0	15.4	4	4.9	4	-1E+10	1	0.0514	4	0.000103	0	-1E+10	1	-1E+10	1	-1E+10	1
4902624	4	C	07/31/2024	11:38	-128.768	46.668	0	655.10	0	4.1390	0	34.1770	0	27.122	0	648.656	0	-1e10	1	-1e10	1	-1E+10	1	-1e10	1	-1e10	1	-1E+10	1	-1E+10	1	-1E+10	1
4902624	4	C	07/31/2024	11:38	-128.768	46.668	0	665.00	0	4.1350	0	34.1880	0	27.131	0	658.443	0	-1e10	1	-1e10	1	-1E+10	1	-1e10	1	-1e10	1	-1E+10	1	-1E+10	1	-1E+10	1
4902624	4	C	07/31/2024	11:38	-128.768	46.668	0	665.40	0	4.1376	0	34.1888	0	27.132	0	658.839	0	13.5	4	4.3	4	-1E+10	1	0.0584	4	0.000137	0	-1E+10	1	-1E+10	1	-1E+10	1
4902624	4	C	07/31/2024	11:38	-128.768	46.668	0	675.00	0	4.1990	0	34.2090	0	27.142	0	668.329	0	-1e10	1	-1e10	1	-1E+10	1	-1e10	1	-1e10	1	-1E+10	1	-1E+10	1	-1E+10	1
4902624	4	C	07/31/2024	11:38	-128.768	46.668	0	677.10	0	4.1975	0	34.2109	0	27.143	0	670.405	0	12.0	4	3.8	4	-1E+10	1	0.0581	4	0.000148	0	-1E+10	1	-1E+10	1	-1E+10	1
4902624	4	C	07/31/2024	11:38	-128.768	46.668	0	684.90	0	4.1920	0	34.2180	0	27.150	0	678.115	0	-1e10	1	-1e10	1	-1E+10	1	-1e10	1	-1e10	1	-1E+10	1	-1E+10	1	-1E+10	1
4902624	4	C	07/31/2024	11:38	-128.768	46.668	0	686.10	0	4.1894	0	34.2185	0	27.150	0	679.301	0	11.8	4	3.7	4	-1E+10	1	0.0519	4	0.000147	0	-1E+10	1	-1E+10	1	-1E+10	1
4902624	4	C	07/31/2024	11:38	-128.768	46.668	0	694.20	0	4.1717	0	34.2217	0	27.155	0	687.307	0	11.5	4	3.6	4	-1E+10	1	0.0727	4	0.000137	0	-1E+10	1	-1E+10	1	-1E+10	1
4902624	4	C	07/31/2024	11:38	-128.768	46.668	0	695.00	0	4.1700	0	34.2220	0	27.155	0	688.098	0	-1e10	1	-1e10	1	-1E+10	1	-1e10	1	-1e10	1	-1E+10	1	-1E+10	1	-1E+10	1
4902624	4	C	07/31/2024	11:38	-128.768	46.668	0	702.60	0	4.1700	0	34.2267	0	27.159	0	695.610	0	11.2	4	3.5	4	-1E+10	1	0.0652	4	0.000148	0	-1E+10	1	-1E+10	1	-1E+10	1
4902624	4	C	07/31/2024	11:38	-128.768	46.668	0	704.80	0	4.1700	0	34.2280	0	27.160	0	697.784	0	-1e10	1	-1e10	1	-1E+10	1	-1e10	1	-1e10	1	-1E+10	1	-1E+10	1	-1E+10	1
4902624	4	C	07/31/2024	11:38	-128.768	46.668	0	711.30	0	4.1557	0	34.2332	0	27.166	0	704.209	0	10.8	4	3.4	4	-1E+10	1	0.0514	4	0.000159	0	-1E+10	1	-1E+10	1	-1E+10	1
4902624	4	C	07/31/2024	11:38	-128.768	46.668	0	714.80	0	4.1480	0	34.2360	0	27.169	0	707.668	0	-1e10	1	-1e10	1	-1E+10	1	-1e10	1	-1e10	1	-1E+10	1	-1E+10	1	-1E+10	1
4902624	4	C	07/31/2024	11:38	-128.768	46.668	0	720.30	0	4.1351	0	34.2392	0	27.173	0	713.104	0	10.4	4	3.3	4	-1E+10	1	0.0581	4	0.000148	0	-1E+10	1	-1E+10	1	-1E+10	1
4902624	4	C	07/31/2024	11:38	-128.768	46.668	0	725.00	0	4.1240	0	34.2420	0	27.176	0	717.749	0	-1e10	1	-1e10	1	-1E+10	1	-1e10	1	-1e10	1	-1E+10	1	-1E+10	1	-1E+10	1
4902624	4	C	07/31/2024	11:38	-128.768	46.668	0	729.60	0	4.1154	0	34.2447	0	27.179	0	722.295	0	10.1	4	3.2	4	-1E+10	1	0.0511	4	0.000159	0	-1E+10	1	-1E+10	1	-1E+10	1
4902624	4	C	07/31/2024	11:38	-128.768	46.668	0	735.20	0	4.1050	0	34.2480	0	27.183	0	727.829	0	-1e10	1	-1e10	1	-1E+10	1	-1e10	1	-1e10	1	-1E+10	1	-1E+10	1	-1E+10	1
4902624	4	C	07/31/2024	11:38	-128.768	46.668	0	739.00	0	4.0958	0	34.2503	0	27.186	0	731.584	0	9.9	4	3.1	4	-1E+10	1	0.0517	4	0.000149	0	-1E+10	1	-1E+10	1	-1E+10	1
4902624	4	C	07/31/2024	11:38	-128.768	46.668	0	745.10	0	4.0810	0	34.2540	0	27.190	0	737.612	0	-1e10	1	-1e10	1	-1E+10	1	-1e10	1	-1e10	1	-1E+10	1	-1E+10	1	-1E+10	1
4902624	4	C	07/31/2024	11:38	-128.768	46.668	0	748.50	0	4.0664	0	34.2557	0	27.193	0	740.972	0	9.6	4	3.0	4	-1E+10	1	0.0657	4	0.000184	0	-1E+10	1	-1E+10	1	-1E+10	1
4902624	4	C	07/31/2024	11:38	-128.768	46.668	0	754.90	0	4.0390	0	34.2590	0	27.199	0	747.296	0	-1e10	1	-1e10	1	-1E+10	1	-1e10	1	-1e10	1	-1E+10	1	-1E+10	1	-1E+10	1
4902624	4	C	07/31/2024	11:38	-128.768	46.668	0	758.20	0	4.0243	0	34.2620	0	27.202	0	750.557	0	9.3	4	2.9	4	-1E+10	1	0.0651	4	0.000216	0	-1E+10	1	-1E+10	1	-1E+10	1
4902624	4	C	07/31/2024	11:38	-128.768	46.668	0	764.80	0	3.9950	0	34.2680	0	27.210	0	757.078	0	-1e10	1	-1e10	1	-1E+10	1	-1e10	1	-1e10	1	-1E+10	1	-1E+10	1	-1E+10	1
4902624	4	C	07/31/2024	11:38	-128.768	46.668	0	768.10	0	3.9882	0	34.2693	0	27.212	0	760.339	0	9.1	4	2.9	4	-1E+10	1	0.0511	4	0.000171	0	-1E+10	1	-1E+10	1	-1E+10	1
4902624	4	C	07/31/2024	11:38	-128.768	46.668	0	775.00	0	3.9740	0	34.2720	0	27.216	0	767.157	0	-1e10	1	-1e10	1	-1E+10	1	-1e10	1	-1e10	1	-1E+10	1	-1E+10	1	-1E+10	1
4902624	4	C	07/31/2024	11:38	-128.768	46.668	0	778.10	0	3.9684	0	34.2735	0	27.217	0	770.220	0	9.1	4	2.9	4	-1E+10	1	0.0508	4	0.000181	0	-1E+10	1	-1E+10	1	-1E+10	1
4902624	4	C	07/31/2024	11:38	-128.768	46.668	0	785.00	0	3.9560	0	34.2770	0	27.222	0	777.037	0	-1e10	1	-1e10	1	-1E+10	1	-1e10	1	-1e10	1	-1E+10	1	-1E+10	1	-1E+10	1
4902624	4	C	07/31/2024	11:38	-128.768	46.668	0	788.20	0	3.9462	0	34.2793	0	27.224	0	780.198	0	44.4	4	14.0	4	-1E+10	1	0.0441	4	0.000158	0	-1E+10	1	-1E+10	1	-1E+10	1
4902624	4	C	07/31/2024	11:38	-128.768	46.668	0	794.80	0	3.9260	0	34.2840	0	27.230	0	786.719	0	-1e10	1	-1e10	1	-1E+10	1	-1e10	1	-1e10	1	-1E+10	1	-1E+10	1	-1E+10	1
4902624	4	C	07/31/2024	11:38	-128.768	46.668	0	798.60	0	3.9156	0	34.2874	0	27.234	0	790.473	0	37.8	4	11.9	4	-1E+10	1	0.0514	4	0.000146	0	-1E+10	1	-1E+10	1	-1E+10	1
4902624	4	C	07/31/2024	11:38	-128.768	46.668	0	805.00	0	3.8980	0	34.2930	0	27.240	0	796.796	0	-1e10	1	-1e10	1	-1E+10	1	-1e10	1	-1e10	1	-1E+10	1	-1E+10	1	-1E+10	1
4902624	4	C	07/31/2024	11:38	-128.768	46.668	0	809.20	0	3.8880	0	34.2955	0	27.243	0	800.945	0	32.0	4	10.1	4	-1E+10	1	0.0584	4	0.000135	0	-1E+10	1	-1E+10	1	-1E+10	1
4902624	4	C	07/31/2024	11:38	-128.768	46.668	0	815.10	0	3.8740	0	34.2990	0	27.248	0	806.773	0	-1e10	1	-1e10	1	-1E+10	1	-1e10	1	-1e10	1	-1E+10	1	-1E+10	1	-1E+10	1
4902624	4	C	07/31/2024	11:38	-128.768	46.668	0	820.10	0	3.8641	0	34.3020	0	27.251	0	811.713	0	48.5	4	15.3	4	-1E+10	1	0.0581	4	0.000146	0	-1E+10	1	-1E+10	1	-1E+10	1
4902624	4	C	07/31/2024	11:38	-128.768	46.668	0	825.20	0	3.8540	0	34.3050	0	27.254	0	816.751	0	-1e10	1	-1e10	1	-1E+10	1	-1e10	1	-1e10	1	-1E+10	1	-1E+10	1	-1E+10	1
4902624	4	C	07/31/2024	11:38	-128.768	46.668	0	831.30	0	3.8464	0	34.3069	0	27.257	0	822.776	0	25.3	4	8.0	4	-1E+10	1	0.0514	4	0.000135	0	-1E+10	1	-1E+10	1	-1E+10	1
4902624	4	C	07/31/2024	11:38	-128.768	46.668	0	834.80	0	3.8420	0	34.3080	0	27.258	0	826.233	0	-1e10	1	-1e10	1	-1E+10	1	-1e10	1	-1e10	1	-1E+10	1	-1E+10	1	-1E+10	1
4902624	4	C	07/31/2024	11:38	-128.768	46.668	0	842.80	0	3.8247	0	34.3119	0	27.263	0	834.135	0	61.3	4	19.3	4	-1E+10	1	0.0584	4	0.000146	0	-1E+10	1	-1E+10	1	-1E+10	1
4902624	4	C	07/31/2024	11:38	-128.768	46.668	0	845.00	0	3.8200	0	34.3130	0	27.264	0	836.308	0	-1e10	1	-1e10	1	-1E+10	1	-1e10	1	-1e10	1	-1E+10	1	-1E+10	1	-1E+10	1
4902624	4	C	07/31/2024	11:38	-128.768	46.668	0	854.50	0	3.7941	0	34.3178	0	27.271	0	845.691	0	56.8	4	17.9	4	-1E+10	1	0.0584	4	0.000146	0	-1E+10	1	-1E+10	1	-1E+10	1
4902624	4	C	07/31/2024	11:38	-128.768	46.668	0	854.90	0	3.7930	0	34.3180	0	27.271	0	846.086	0	-1e10	1	-1e10	1	-1E+10	1	-1e10	1	-1e10	1	-1E+10	1	-1E+10	1	-1E+10	1
4902624	4	C	07/31/2024	11:38	-128.768	46.668	0	864.70	0	3.7720	0	34.3220	0	27.276	0	855.765	0	-1e10	1	-1e10	1	-1E+10	1	-1e10	1	-1e10	1	-1E+10	1	-1E+10	1	-1E+10	1
4902624	4	C	07/31/2024	11:38	-128.768	46.668	0	866.70	0	3.7675	0	34.3230	0	27.278	0	857.741	0	60.6	4	19.1	4	-1E+10	1	0.0591	4	0.000159	0	-1E+10	1	-1E+10	1	-1E+10	1
4902624	4	C	07/31/2024	11:38	-128.768	46.668	0	875.00	0	3.7490	0	34.3270	0	27.283	0	865.938	0	-1e10	1	-1e10	1	-1E+10	1	-1e10	1	-1e10	1	-1E+10	1	-1E+10	1	-1E+10	1
4902624	4	C	07/31/2024	11:38	-128.768	46.668	0	876.50	0	3.7460	0	34.3278	0	27.284	0	867.419	0	61.6	4	19.4	4	-1E+10	1	0.0726	4	0.000179	0	-1E+10	1	-1E+10	1	-1E+10	1
4902624	4	C	07/31/2024	11:38	-128.768	46.668	0	884.60	0	3.7298	0	34.3318	0	27.288	0	875.418	0	64.5	4	20.3	4	-1E+10	1	0.0657	4	0.000147	0	-1E+10	1	-1E+10	1	-1E+10	1
4902624	4	C	07/31/2024	11:38	-128.768	46.668	0	885.00	0	3.7290	0	34.3320	0	27.289	0	875.813	0	-1e10	1	-1e10	1	-1E+10	1	-1e10	1	-1e10	1	-1E+10	1	-1E+10	1	-1E+10	1
4902624	4	C	07/31/2024	11:38	-128.768	46.668	0	893.00	0	3.7100	0	34.3360	0	27.294	0	883.713	0	64.5	4	20.3	4	-1E+10	1	0.0654	4	0.000181	0	-1E+10	1	-1E+10	1	-1E+10	1
4902624	4	C	07/31/2024	11:38	-128.768	46.668	0	895.10	0	3.7050	0	34.3370	0	27.295	0	885.787	0	-1e10	1	-1e10	1	-1E+10	1	-1e10	1	-1e10	1	-1E+10	1	-1E+10	1	-1E+10	1
4902624	4	C	07/31/2024	11:38	-128.768	46.668	0	901.60	0	3.6899	0	34.3396	0	27.299	0	892.205	0	86.1	4	27.0	4	-1E+10	1	0.0587	4	0.000182	0	-1E+10	1	-1E+10	1	-1E+10	1
4902624	4	C	07/31/2024	11:38	-128.768	46.668	0	905.00	0	3.6820	0	34.3410	0	27.301	0	895.563	0	-1e10	1	-1e10	1	-1E+10	1	-1e10	1	-1e10	1	-1E+10	1	-1E+10	1	-1E+10	1
4902624	4	C	07/31/2024	11:38	-128.768	46.668	0	910.40	0	3.6704	0	34.3443	0	27.304	0	900.895	0	94.0	4	29.5	4	-1E+10	1	0.0657	4	0.000202	0	-1E+10	1	-1E+10	1	-1E+10	1
4902624	4	C	07/31/2024	11:38	-128.768	46.668	0	914.80	0	3.6610	0	34.3470	0	27.308	0	905.239	0	-1e10	1	-1e10	1	-1E+10	1	-1e10	1	-1e10	1	-1E+10	1	-1E+10	1	-1E+10	1
4902624	4	C	07/31/2024	11:38	-128.768	46.668	0	919.20	0	3.6504	0	34.3496	0	27.311	0	909.584	0	99.2	4	31.1	4	-1E+10	1	0.0652	4	0.000168	0	-1E+10	1	-1E+10	1	-1E+10	1
4902624	4	C	07/31/2024	11:38	-128.768	46.668	0	924.80	0	3.6370	0	34.3530	0	27.315	0	915.113	0	-1e10	1	-1e10	1	-1E+10	1	-1e10	1	-1e10	1	-1E+10	1	-1E+10	1	-1E+10	1
4902624	4	C	07/31/2024	11:38	-128.768	46.668	0	927.90	0	3.6264	0	34.3545	0	27.317	0	918.174	0	101.8	4	31.9	4	-1E+10	1	0.0514	4	0.000146	0	-1E+10	1	-1E+10	1	-1E+10	1
4902624	4	C	07/31/2024	11:38	-128.768	46.668	0	935.00	0	3.6020	0	34.3580	0	27.322	0	925.184	0	-1e10	1	-1e10	1	-1E+10	1	-1e10	1	-1e10	1	-1E+10	1	-1E+10	1	-1E+10	1
4902624	4	C	07/31/2024	11:38	-128.768	46.668	0	936.70	0	3.5976	0	34.3589	0	27.323	0	926.862	0	110.4	4	34.6	4	-1E+10	1	0.0584	4	0.000157	0	-1E+10	1	-1E+10	1	-1E+10	1
4902624	4	C	07/31/2024	11:38	-128.768	46.668	0	945.00	0	3.5760	0	34.3630	0	27.329	0	935.056	0	-1e10	1	-1e10	1	-1E+10	1	-1e10	1	-1e10	1	-1E+10	1	-1E+10	1	-1E+10	1
4902624	4	C	07/31/2024	11:38	-128.768	46.668	0	945.50	0	3.5752	0	34.3633	0	27.329	0	935.550	0	110.6	4	34.6	4	-1E+10	1	0.0579	4	0.000168	0	-1E+10	1	-1E+10	1	-1E+10	1
4902624	4	C	07/31/2024	11:38	-128.768	46.668	0	954.40	0	3.5610	0	34.3677	0	27.334	0	944.336	0	111.2	4	34.8	4	-1E+10	1	0.0444	4	0.000156	0	-1E+10	1	-1E+10	1	-1E+10	1
4902624	4	C	07/31/2024	11:38	-128.768	46.668	0	955.00	0	3.5600	0	34.3680	0	27.334	0	944.928	0	-1e10	1	-1e10	1	-1E+10	1	-1e10	1	-1e10	1	-1E+10	1	-1E+10	1	-1E+10	1
4902624	4	C	07/31/2024	11:38	-128.768	46.668	0	963.40	0	3.5473	0	34.3722	0	27.339	0	953.221	0	110.7	4	34.6	4	-1E+10	1	0.0584	4	0.000156	0	-1E+10	1	-1E+10	1	-1E+10	1
4902624	4	C	07/31/2024	11:38	-128.768	46.668	0	964.90	0	3.5450	0	34.3730	0	27.340	0	954.701	0	-1e10	1	-1e10	1	-1E+10	1	-1e10	1	-1e10	1	-1E+10	1	-1E+10	1	-1E+10	1
4902624	4	C	07/31/2024	11:38	-128.768	46.668	0	972.40	0	3.5323	0	34.3767	0	27.344	0	962.105	0	108.6	4	34.0	4	-1E+10	1	0.0586	4	0.000157	0	-1E+10	1	-1E+10	1	-1E+10	1
4902624	4	C	07/31/2024	11:38	-128.768	46.668	0	974.90	0	3.5280	0	34.3780	0	27.346	0	964.573	0	-1e10	1	-1e10	1	-1E+10	1	-1e10	1	-1e10	1	-1E+10	1	-1E+10	1	-1E+10	1
4902624	4	C	07/31/2024	11:38	-128.768	46.668	0	981.40	0	3.5127	0	34.3805	0	27.349	0	970.989	0	114.2	4	35.7	4	-1E+10	1	0.0654	4	0.000167	0	-1E+10	1	-1E+10	1	-1E+10	1
4902624	4	C	07/31/2024	11:38	-128.768	46.668	0	985.10	0	3.5040	0	34.3820	0	27.351	0	974.641	0	-1e10	1	-1e10	1	-1E+10	1	-1e10	1	-1e10	1	-1E+10	1	-1E+10	1	-1E+10	1
4902624	4	C	07/31/2024	11:38	-128.768	46.668	0	990.30	0	3.4989	0	34.3856	0	27.355	0	979.774	0	115.5	4	36.1	4	-1E+10	1	0.0586	4	0.000145	0	-1E+10	1	-1E+10	1	-1E+10	1
4902624	4	C	07/31/2024	11:38	-128.768	46.668	0	995.20	0	3.4940	0	34.3890	0	27.358	0	984.610	0	-1e10	1	-1e10	1	-1E+10	1	-1e10	1	-1e10	1	-1E+10	1	-1E+10	1	-1E+10	1
4902624	4	C	07/31/2024	11:38	-128.768	46.668	0	999.50	0	3.4850	0	34.3905	0	27.360	0	988.854	0	115.6	4	36.1	4	-1E+10	1	0.0655	4	0.000155	0	-1E+10	1	-1E+10	1	-1E+10	1
4902624	4	C	07/31/2024	11:38	-128.768	46.668	0	1018.60	0	3.4450	0	34.3969	0	27.369	0	1007.705	0	138.6	4	43.2	4	-1E+10	1	0.0583	4	0.000133	0	-1E+10	1	-1E+10	1	-1E+10	1
4902624	4	C	07/31/2024	11:38	-128.768	46.668	0	1024.80	0	3.4320	0	34.3990	0	27.372	0	1013.824	0	-1e10	1	-1e10	1	-1E+10	1	-1e10	1	-1e10	1	-1E+10	1	-1E+10	1	-1E+10	1
4902624	4	C	07/31/2024	11:38	-128.768	46.668	0	1038.80	0	3.4044	0	34.4035	0	27.378	0	1027.639	0	136.4	4	42.5	4	-1E+10	1	0.0513	4	0.000155	0	-1E+10	1	-1E+10	1	-1E+10	1
4902624	4	C	07/31/2024	11:38	-128.768	46.668	0	1060.20	0	3.3623	0	34.4104	0	27.388	0	1048.756	0	140.3	4	43.7	4	-1E+10	1	0.0582	4	0.000143	0	-1E+10	1	-1E+10	1	-1E+10	1
4902624	4	C	07/31/2024	11:38	-128.768	46.668	0	1074.60	0	3.3340	0	34.4150	0	27.394	0	1062.964	0	-1e10	1	-1e10	1	-1E+10	1	-1e10	1	-1e10	1	-1E+10	1	-1E+10	1	-1E+10	1
4902624	4	C	07/31/2024	11:38	-128.768	46.668	0	1082.70	0	3.3187	0	34.4171	0	27.397	0	1070.956	0	157.8	4	49.1	4	-1E+10	1	0.0511	4	0.000143	0	-1E+10	1	-1E+10	1	-1E+10	1
4902624	4	C	07/31/2024	11:38	-128.768	46.668	0	1106.60	0	3.2735	0	34.4231	0	27.407	0	1094.534	0	166.2	4	51.6	4	-1E+10	1	0.0519	4	0.000143	0	-1E+10	1	-1E+10	1	-1E+10	1
4902624	4	C	07/31/2024	11:38	-128.768	46.668	0	1124.80	0	3.2391	0	34.4277	0	27.414	0	1112.487	0	171.1	4	53.1	4	-1E+10	1	0.0796	4	0.000154	0	-1E+10	1	-1E+10	1	-1E+10	1
4902624	4	C	07/31/2024	11:38	-128.768	46.668	0	1125.90	0	3.2370	0	34.4280	0	27.414	0	1113.572	0	-1e10	1	-1e10	1	-1E+10	1	-1e10	1	-1e10	1	-1E+10	1	-1E+10	1	-1E+10	1
4902624	4	C	07/31/2024	11:38	-128.768	46.668	0	1140.90	0	3.2078	0	34.4317	0	27.420	0	1128.368	0	193.3	4	60.0	4	-1E+10	1	0.0512	4	0.000142	0	-1E+10	1	-1E+10	1	-1E+10	1
4902624	4	C	07/31/2024	11:38	-128.768	46.668	0	1157.80	0	3.1749	0	34.4358	0	27.426	0	1145.036	0	194.1	4	60.2	4	-1E+10	1	0.0584	4	0.000143	0	-1E+10	1	-1E+10	1	-1E+10	1
4902624	4	C	07/31/2024	11:38	-128.768	46.668	0	1174.70	0	3.1420	0	34.4400	0	27.433	0	1161.703	0	-1e10	1	-1e10	1	-1E+10	1	-1e10	1	-1e10	1	-1E+10	1	-1E+10	1	-1E+10	1
4902624	4	C	07/31/2024	11:38	-128.768	46.668	0	1175.50	0	3.1400	0	34.4402	0	27.433	0	1162.492	0	179.5	4	55.6	4	-1E+10	1	0.0583	4	0.000177	0	-1E+10	1	-1E+10	1	-1E+10	1
4902624	4	C	07/31/2024	11:38	-128.768	46.668	0	1193.50	0	3.0959	0	34.4449	0	27.441	0	1180.243	0	170.4	4	52.7	4	-1E+10	1	0.0516	4	0.000176	0	-1E+10	1	-1E+10	1	-1E+10	1
4902624	4	C	07/31/2024	11:38	-128.768	46.668	0	1211.80	0	3.0511	0	34.4496	0	27.449	0	1198.287	0	161.9	4	50.0	4	-1E+10	1	0.0728	4	0.000154	0	-1E+10	1	-1E+10	1	-1E+10	1
4902624	4	C	07/31/2024	11:38	-128.768	46.668	0	1224.90	0	3.0190	0	34.4530	0	27.455	0	1211.203	0	-1e10	1	-1e10	1	-1E+10	1	-1e10	1	-1e10	1	-1E+10	1	-1E+10	1	-1E+10	1
4902624	4	C	07/31/2024	11:38	-128.768	46.668	0	1230.90	0	3.0047	0	34.4547	0	27.457	0	1217.119	0	167.2	4	51.6	4	-1E+10	1	0.0584	4	0.000210	0	-1E+10	1	-1E+10	1	-1E+10	1
4902624	4	C	07/31/2024	11:38	-128.768	46.668	0	1250.20	0	2.9589	0	34.4601	0	27.466	0	1236.146	0	174.9	4	53.9	4	-1E+10	1	0.0585	4	0.000141	0	-1E+10	1	-1E+10	1	-1E+10	1
4902624	4	C	07/31/2024	11:38	-128.768	46.668	0	1269.70	0	2.9126	0	34.4655	0	27.474	0	1255.369	0	178.4	4	55.0	4	-1E+10	1	0.0656	4	0.000152	0	-1E+10	1	-1E+10	1	-1E+10	1
4902624	4	C	07/31/2024	11:38	-128.768	46.668	0	1275.00	0	2.9000	0	34.4670	0	27.477	0	1260.593	0	-1e10	1	-1e10	1	-1E+10	1	-1e10	1	-1e10	1	-1E+10	1	-1E+10	1	-1E+10	1
4902624	4	C	07/31/2024	11:38	-128.768	46.668	0	1289.80	0	2.8689	0	34.4706	0	27.482	0	1275.181	0	158.0	4	48.6	4	-1E+10	1	0.0584	4	0.000152	0	-1E+10	1	-1E+10	1	-1E+10	1
4902624	4	C	07/31/2024	11:38	-128.768	46.668	0	1310.40	0	2.8255	0	34.4755	0	27.490	0	1295.484	0	197.5	4	60.7	4	-1E+10	1	0.0582	4	0.000175	0	-1E+10	1	-1E+10	1	-1E+10	1
4902624	4	C	07/31/2024	11:38	-128.768	46.668	0	1324.90	0	2.7950	0	34.4790	0	27.496	0	1309.774	0	-1e10	1	-1e10	1	-1E+10	1	-1e10	1	-1e10	1	-1E+10	1	-1E+10	1	-1E+10	1
4902624	4	C	07/31/2024	11:38	-128.768	46.668	0	1331.50	0	2.7827	0	34.4803	0	27.498	0	1316.278	0	197.5	4	60.7	4	-1E+10	1	0.0511	4	0.000152	0	-1E+10	1	-1E+10	1	-1E+10	1
4902624	4	C	07/31/2024	11:38	-128.768	46.668	0	1353.10	0	2.7423	0	34.4846	0	27.505	0	1337.563	0	169.6	4	52.1	4	-1E+10	1	0.0513	4	0.000163	0	-1E+10	1	-1E+10	1	-1E+10	1
4902624	4	C	07/31/2024	11:38	-128.768	46.668	0	1375.00	0	2.7014	0	34.4890	0	27.512	0	1359.141	0	146.1	4	44.8	4	-1E+10	1	0.0586	4	0.000162	0	-1E+10	1	-1E+10	1	-1E+10	1
4902624	4	C	07/31/2024	11:38	-128.768	46.668	0	1375.20	0	2.7010	0	34.4890	0	27.512	0	1359.338	0	-1e10	1	-1e10	1	-1E+10	1	-1e10	1	-1e10	1	-1E+10	1	-1E+10	1	-1E+10	1
4902624	4	C	07/31/2024	11:38	-128.768	46.668	0	1395.60	0	2.6693	0	34.4939	0	27.519	0	1379.436	0	137.6	4	42.2	4	-1E+10	1	0.0656	4	0.000139	0	-1E+10	1	-1E+10	1	-1E+10	1
4902624	4	C	07/31/2024	11:38	-128.768	46.668	0	1411.40	0	2.6447	0	34.4978	0	27.524	0	1395.001	0	134.7	4	41.2	4	-1E+10	1	0.0585	4	0.000162	0	-1E+10	1	-1E+10	1	-1E+10	1
4902624	4	C	07/31/2024	11:38	-128.768	46.668	0	1424.70	0	2.6240	0	34.5010	0	27.529	0	1408.102	0	-1e10	1	-1e10	1	-1E+10	1	-1e10	1	-1e10	1	-1E+10	1	-1E+10	1	-1E+10	1
4902624	4	C	07/31/2024	11:38	-128.768	46.668	0	1428.40	0	2.6181	0	34.5018	0	27.530	0	1411.746	0	146.7	4	44.9	4	-1E+10	1	0.0657	4	0.000150	0	-1E+10	1	-1E+10	1	-1E+10	1
4902624	4	C	07/31/2024	11:38	-128.768	46.668	0	1446.20	0	2.5897	0	34.5057	0	27.535	0	1429.279	0	81.6	4	25.0	4	-1E+10	1	0.0656	4	0.000150	0	-1E+10	1	-1E+10	1	-1E+10	1
4902624	4	C	07/31/2024	11:38	-128.768	46.668	0	1465.10	0	2.5596	0	34.5099	0	27.541	0	1447.893	0	87.3	4	26.7	4	-1E+10	1	0.0584	4	0.000173	0	-1E+10	1	-1E+10	1	-1E+10	1
4902624	4	C	07/31/2024	11:38	-128.768	46.668	0	1474.90	0	2.5440	0	34.5120	0	27.545	0	1457.544	0	-1e10	1	-1e10	1	-1E+10	1	-1e10	1	-1e10	1	-1E+10	1	-1E+10	1	-1E+10	1
4902624	4	C	07/31/2024	11:38	-128.768	46.668	0	1484.90	0	2.5271	0	34.5140	0	27.548	0	1467.392	0	88.2	4	26.9	4	-1E+10	1	0.0584	4	0.000159	0	-1E+10	1	-1E+10	1	-1E+10	1
4902624	4	C	07/31/2024	11:38	-128.768	46.668	0	1505.40	0	2.4924	0	34.5181	0	27.554	0	1487.578	0	89.9	4	27.4	4	-1E+10	1	0.0583	4	0.000091	0	-1E+10	1	-1E+10	1	-1E+10	1
4902624	4	C	07/31/2024	11:38	-128.768	46.668	0	1525.10	0	2.4590	0	34.5220	0	27.560	0	1506.974	0	-1e10	1	-1e10	1	-1E+10	1	-1e10	1	-1e10	1	-1E+10	1	-1E+10	1	-1E+10	1
4902624	4	C	07/31/2024	11:38	-128.768	46.668	0	1526.50	0	2.4567	0	34.5223	0	27.560	0	1508.353	0	85.0	4	25.9	4	-1E+10	1	0.0511	4	0.000137	0	-1E+10	1	-1E+10	1	-1E+10	1
4902624	4	C	07/31/2024	11:38	-128.768	46.668	0	1548.20	0	2.4210	0	34.5266	0	27.567	0	1529.716	0	95.4	4	29.1	4	-1E+10	1	0.0511	4	0.000136	0	-1E+10	1	-1E+10	1	-1E+10	1
4902624	4	C	07/31/2024	11:38	-128.768	46.668	0	1570.90	0	2.3837	0	34.5312	0	27.574	0	1552.062	0	96.1	4	29.2	4	-1E+10	1	0.0511	4	0.000136	0	-1E+10	1	-1E+10	1	-1E+10	1
4902624	4	C	07/31/2024	11:38	-128.768	46.668	0	1575.00	0	2.3770	0	34.5320	0	27.575	0	1556.098	0	-1e10	1	-1e10	1	-1E+10	1	-1e10	1	-1e10	1	-1E+10	1	-1E+10	1	-1E+10	1
4902624	4	C	07/31/2024	11:38	-128.768	46.668	0	1594.60	0	2.3538	0	34.5351	0	27.579	0	1575.390	0	100.9	4	30.7	4	-1E+10	1	0.0513	4	0.000124	0	-1E+10	1	-1E+10	1	-1E+10	1
4902624	4	C	07/31/2024	11:38	-128.768	46.668	0	1614.80	0	2.3298	0	34.5383	0	27.584	0	1595.270	0	105.6	4	32.1	4	-1E+10	1	0.0583	4	0.000136	0	-1E+10	1	-1E+10	1	-1E+10	1
4902624	4	C	07/31/2024	11:38	-128.768	46.668	0	1625.60	0	2.3170	0	34.5400	0	27.587	0	1605.899	0	-1e10	1	-1e10	1	-1E+10	1	-1e10	1	-1e10	1	-1E+10	1	-1E+10	1	-1E+10	1
4902624	4	C	07/31/2024	11:38	-128.768	46.668	0	1630.90	0	2.3111	0	34.5408	0	27.588	0	1611.114	0	111.2	4	33.8	4	-1E+10	1	0.0511	4	0.000158	0	-1E+10	1	-1E+10	1	-1E+10	1
4902624	4	C	07/31/2024	11:38	-128.768	46.668	0	1647.90	0	2.2920	0	34.5432	0	27.591	0	1627.843	0	112.5	4	34.2	4	-1E+10	1	0.0510	4	0.000124	0	-1E+10	1	-1E+10	1	-1E+10	1
4902624	4	C	07/31/2024	11:38	-128.768	46.668	0	1665.60	0	2.2722	0	34.5457	0	27.595	0	1645.259	0	112.2	4	34.1	4	-1E+10	1	0.0440	4	0.000180	0	-1E+10	1	-1E+10	1	-1E+10	1
4902624	4	C	07/31/2024	11:38	-128.768	46.668	0	1674.70	0	2.2620	0	34.5470	0	27.597	0	1654.212	0	-1e10	1	-1e10	1	-1E+10	1	-1e10	1	-1e10	1	-1E+10	1	-1E+10	1	-1E+10	1
4902624	4	C	07/31/2024	11:38	-128.768	46.668	0	1683.90	0	2.2520	0	34.5485	0	27.599	0	1663.263	0	93.5	4	28.4	4	-1E+10	1	0.0514	4	0.000133	0	-1E+10	1	-1E+10	1	-1E+10	1
4902624	4	C	07/31/2024	11:38	-128.768	46.668	0	1703.00	0	2.2311	0	34.5515	0	27.603	0	1682.054	0	100.1	4	30.3	4	-1E+10	1	0.0656	4	0.000100	0	-1E+10	1	-1E+10	1	-1E+10	1
4902624	4	C	07/31/2024	11:38	-128.768	46.668	0	1722.60	0	2.2097	0	34.5546	0	27.607	0	1701.334	0	115.6	4	35.0	4	-1E+10	1	0.0583	4	0.000180	0	-1E+10	1	-1E+10	1	-1E+10	1
4902624	4	C	07/31/2024	11:38	-128.768	46.668	0	1725.10	0	2.2070	0	34.5550	0	27.608	0	1703.793	0	-1e10	1	-1e10	1	-1E+10	1	-1e10	1	-1e10	1	-1E+10	1	-1E+10	1	-1E+10	1
4902624	4	C	07/31/2024	11:38	-128.768	46.668	0	1742.30	0	2.1901	0	34.5574	0	27.611	0	1720.711	0	98.5	4	29.8	4	-1E+10	1	0.0514	4	0.000168	0	-1E+10	1	-1E+10	1	-1E+10	1
4902624	4	C	07/31/2024	11:38	-128.768	46.668	0	1762.50	0	2.1702	0	34.5603	0	27.615	0	1740.578	0	101.2	4	30.6	4	-1E+10	1	0.0656	4	0.000133	0	-1E+10	1	-1E+10	1	-1E+10	1
4902624	4	C	07/31/2024	11:38	-128.768	46.668	0	1774.90	0	2.1580	0	34.5620	0	27.618	0	1752.772	0	-1e10	1	-1e10	1	-1E+10	1	-1e10	1	-1e10	1	-1E+10	1	-1E+10	1	-1E+10	1
4902624	4	C	07/31/2024	11:38	-128.768	46.668	0	1783.10	0	2.1503	0	34.5632	0	27.619	0	1760.836	0	103.1	4	31.2	4	-1E+10	1	0.0584	4	0.000155	0	-1E+10	1	-1E+10	1	-1E+10	1
4902624	4	C	07/31/2024	11:38	-128.768	46.668	0	1803.90	0	2.1307	0	34.5661	0	27.623	0	1781.289	0	105.7	4	32.0	4	-1E+10	1	0.0583	4	0.000132	0	-1E+10	1	-1E+10	1	-1E+10	1
4902624	4	C	07/31/2024	11:38	-128.768	46.668	0	1824.80	0	2.1110	0	34.5690	0	27.627	0	1801.839	0	-1e10	1	-1e10	1	-1E+10	1	-1e10	1	-1e10	1	-1E+10	1	-1E+10	1	-1E+10	1
4902624	4	C	07/31/2024	11:38	-128.768	46.668	0	1825.10	0	2.1107	0	34.5690	0	27.627	0	1802.134	0	107.6	4	32.5	4	-1E+10	1	0.0509	4	0.000155	0	-1E+10	1	-1E+10	1	-1E+10	1
4902624	4	C	07/31/2024	11:38	-128.768	46.668	0	1846.90	0	2.0874	0	34.5725	0	27.632	0	1823.566	0	109.6	4	33.1	4	-1E+10	1	0.0443	4	0.000154	0	-1E+10	1	-1E+10	1	-1E+10	1
4902624	4	C	07/31/2024	11:38	-128.768	46.668	0	1869.50	0	2.0633	0	34.5761	0	27.637	0	1845.782	0	111.3	4	33.6	4	-1E+10	1	0.0654	4	0.000142	0	-1E+10	1	-1E+10	1	-1E+10	1
4902624	4	C	07/31/2024	11:38	-128.768	46.668	0	1875.40	0	2.0570	0	34.5770	0	27.638	0	1851.582	0	-1e10	1	-1e10	1	-1E+10	1	-1e10	1	-1e10	1	-1E+10	1	-1E+10	1	-1E+10	1
4902624	4	C	07/31/2024	11:38	-128.768	46.668	0	1892.10	0	2.0380	0	34.5800	0	27.642	0	1867.997	0	113.9	4	34.4	4	-1E+10	1	0.0511	4	0.000131	0	-1E+10	1	-1E+10	1	-1E+10	1
4902624	4	C	07/31/2024	11:38	-128.768	46.668	0	1908.20	0	2.0197	0	34.5830	0	27.646	0	1883.820	0	115.3	4	34.8	4	-1E+10	1	0.0511	4	0.000142	0	-1E+10	1	-1E+10	1	-1E+10	1
4902624	4	C	07/31/2024	11:38	-128.768	46.668	0	1924.70	0	2.0010	0	34.5860	0	27.650	0	1900.036	0	-1e10	1	-1e10	1	-1E+10	1	-1e10	1	-1e10	1	-1E+10	1	-1E+10	1	-1E+10	1
4902624	4	C	07/31/2024	11:38	-128.768	46.668	0	1925.30	0	2.0005	0	34.5861	0	27.650	0	1900.625	0	116.4	4	35.1	4	-1E+10	1	0.0513	4	0.000129	0	-1E+10	1	-1E+10	1	-1E+10	1
4902624	4	C	07/31/2024	11:38	-128.768	46.668	0	1943.30	0	1.9869	0	34.5883	0	27.653	0	1918.314	0	117.5	4	35.4	4	-1E+10	1	0.0584	4	0.000107	0	-1E+10	1	-1E+10	1	-1E+10	1
4902624	4	C	07/31/2024	11:38	-128.768	46.668	0	1962.20	0	1.9727	0	34.5907	0	27.656	0	1936.885	0	117.4	4	35.4	4	-1E+10	1	0.0580	4	0.000141	0	-1E+10	1	-1E+10	1	-1E+10	1
4902624	4	C	07/31/2024	11:38	-128.768	46.668	0	1964.40	0	1.9710	0	34.5910	0	27.657	0	1939.046	0	-1e10	1	-1e10	1	-1E+10	1	-1e10	1	-1e10	1	-1E+10	1	-1E+10	1	-1E+10	1
4902624	4	C	07/31/2024	11:38	-128.768	46.668	0	1978.30	0	-1e10	1	-1e10	1	-1e10	1	1952.703	0	118.7	4	-1e10	4	-1E+10	1	0.0438	4	0.000154	0	-1E+10	1	-1E+10	1	-1E+10	1
4902624	4	C	07/31/2024	11:38	-128.768	46.668	0																										
4902624	5	C	08/10/2024	06:33	-128.647	46.852	0	0.00	0	17.9502	0	32.3646	0	23.268	0	0.000	0	226.6	4	95.0	4	-1E+10	1	0.6278	4	0.000918	0	-1E+10	1	-1E+10	1	-1E+10	1
4902624	5	C	08/10/2024	06:33	-128.647	46.852	0	0.30	0	17.9538	0	32.3634	0	23.266	0	0.298	0	226.6	4	95.1	4	-1E+10	1	0.6132	4	0.000906	0	-1E+10	1	-1E+10	1	-1E+10	1
4902624	5	C	08/10/2024	06:33	-128.647	46.852	0	0.40	0	17.9550	0	32.3630	0	23.265	0	0.397	0	-1e10	1	-1e10	1	-1E+10	1	-1e10	1	-1e10	1	-1E+10	1	-1E+10	1	-1E+10	1
4902624	5	C	08/10/2024	06:33	-128.647	46.852	0	0.50	0	17.9550	0	32.3644	0	23.267	0	0.496	0	226.6	4	95.0	4	-1E+10	1	0.6424	4	0.000882	0	-1E+10	1	-1E+10	1	-1E+10	1
4902624	5	C	08/10/2024	06:33	-128.647	46.852	0	0.90	0	17.9550	0	32.3698	0	23.271	0	0.893	0	-1e10	1	-1e10	1	-1E+10	1	0.6935	4	0.000882	0	-1E+10	1	-1E+10	1	-1E+10	1
4902624	5	C	08/10/2024	06:33	-128.647	46.852	0	1.00	0	17.9550	0	32.3712	0	23.272	0	0.992	0	226.5	4	95.0	4	-1E+10	1	0.6497	4	0.000929	0	-1E+10	1	-1E+10	1	-1E+10	1
4902624	5	C	08/10/2024	06:33	-128.647	46.852	0	1.20	0	17.9550	0	32.3739	0	23.274	0	1.190	0	-1e10	1	-1e10	1	-1E+10	1	0.6351	4	0.000847	0	-1E+10	1	-1E+10	1	-1E+10	1
4902624	5	C	08/10/2024	06:33	-128.647	46.852	0	1.30	0	17.9550	0	32.3753	0	23.275	0	1.289	0	-1e10	1	-1e10	1	-1E+10	1	0.6205	4	0.001082	0	-1E+10	1	-1E+10	1	-1E+10	1
4902624	5	C	08/10/2024	06:33	-128.647	46.852	0	1.50	0	17.9550	0	32.3780	0	23.277	0	1.488	0	-1e10	1	-1e10	1	-1E+10	1	-1e10	1	-1e10	1	-1E+10	1	-1E+10	1	-1E+10	1
4902624	5	C	08/10/2024	06:33	-128.647	46.852	0	1.60	0	17.9551	0	32.3782	0	23.277	0	1.587	0	-1e10	1	-1e10	1	-1E+10	1	0.6132	4	0.001023	0	-1E+10	1	-1E+10	1	-1E+10	1
4902624	5	C	08/10/2024	06:33	-128.647	46.852	0	1.90	0	17.9554	0	32.3788	0	23.278	0	1.884	0	-1e10	1	-1e10	1	-1E+10	1	0.6132	4	0.000894	0	-1E+10	1	-1E+10	1	-1E+10	1
4902624	5	C	08/10/2024	06:33	-128.647	46.852	0	2.30	0	17.9558	0	32.3796	0	23.278	0	2.281	0	226.5	4	95.0	4	-1E+10	1	0.6570	4	0.000910	0	-1E+10	1	-1E+10	1	-1E+10	1
4902624	5	C	08/10/2024	06:33	-128.647	46.852	0	2.50	0	17.9560	0	32.3800	0	23.278	0	2.479	0	-1e10	1	-1e10	1	-1E+10	1	-1e10	1	-1e10	1	-1E+10	1	-1E+10	1	-1E+10	1
4902624	5	C	08/10/2024	06:33	-128.647	46.852	0	2.70	0	17.9560	0	32.3800	0	23.278	0	2.678	0	-1e10	1	-1e10	1	-1E+10	1	0.6278	4	0.000894	0	-1E+10	1	-1E+10	1	-1E+10	1
4902624	5	C	08/10/2024	06:33	-128.647	46.852	0	2.80	0	17.9560	0	32.3800	0	23.278	0	2.777	0	-1e10	1	-1e10	1	-1E+10	1	0.6205	4	0.000918	0	-1E+10	1	-1E+10	1	-1E+10	1
4902624	5	C	08/10/2024	06:33	-128.647	46.852	0	3.00	0	17.9560	0	32.3800	0	23.278	0	2.975	0	226.4	4	95.0	4	-1E+10	1	0.6205	4	0.001222	0	-1E+10	1	-1E+10	1	-1E+10	1
4902624	5	C	08/10/2024	06:33	-128.647	46.852	0	3.10	0	17.9560	0	32.3800	0	23.278	0	3.074	0	-1e10	1	-1e10	1	-1E+10	1	0.6570	4	0.001234	0	-1E+10	1	-1E+10	1	-1E+10	1
4902624	5	C	08/10/2024	06:33	-128.647	46.852	0	3.30	0	17.9560	0	32.3800	0	23.278	0	3.273	0	-1e10	1	-1e10	1	-1E+10	1	0.7008	4	0.001293	0	-1E+10	1	-1E+10	1	-1E+10	1
4902624	5	C	08/10/2024	06:33	-128.647	46.852	0	3.50	0	17.9560	0	32.3800	0	23.278	0	3.471	0	-1e10	1	-1e10	1	-1E+10	1	-1e10	1	-1e10	1	-1E+10	1	-1E+10	1	-1E+10	1
4902624	5	C	08/10/2024	06:33	-128.647	46.852	0	3.80	0	17.9560	0	32.3800	0	23.278	0	3.768	0	226.4	4	95.0	4	-1E+10	1	0.7957	4	0.001140	0	-1E+10	1	-1E+10	1	-1E+10	1
4902624	5	C	08/10/2024	06:33	-128.647	46.852	0	4.10	0	17.9560	0	32.3800	0	23.278	0	4.066	0	-1e10	1	-1e10	1	-1E+10	1	0.6935	4	0.000906	0	-1E+10	1	-1E+10	1	-1E+10	1
4902624	5	C	08/10/2024	06:33	-128.647	46.852	0	4.20	0	17.9560	0	32.3800	0	23.278	0	4.165	0	-1e10	1	-1e10	1	-1E+10	1	0.6351	4	0.000906	0	-1E+10	1	-1E+10	1	-1E+10	1
4902624	5	C	08/10/2024	06:33	-128.647	46.852	0	4.40	0	17.9560	0	32.3800	0	23.278	0	4.363	0	-1e10	1	-1e10	1	-1E+10	1	0.6351	4	0.000953	0	-1E+10	1	-1E+10	1	-1E+10	1
4902624	5	C	08/10/2024	06:33	-128.647	46.852	0	4.60	0	17.9564	0	32.3800	0	23.278	0	4.562	0	226.5	4	95.0	4	-1E+10	1	0.6351	4	0.001234	0	-1E+10	1	-1E+10	1	-1E+10	1
4902624	5	C	08/10/2024	06:33	-128.647	46.852	0	4.70	0	17.9566	0	32.3800	0	23.278	0	4.661	0	-1e10	1	-1e10	1	-1E+10	1	0.6278	4	0.000918	0	-1E+10	1	-1E+10	1	-1E+10	1
4902624	5	C	08/10/2024	06:33	-128.647	46.852	0	5.00	0	17.9572	0	32.3800	0	23.278	0	4.959	0	-1e10	1	-1e10	1	-1E+10	1	0.6132	4	0.000988	0	-1E+10	1	-1E+10	1	-1E+10	1
4902624	5	C	08/10/2024	06:33	-128.647	46.852	0	5.10	0	17.9574	0	32.3800	0	23.278	0	5.058	0	-1e10	1	-1e10	1	-1E+10	1	0.7008	4	0.001082	0	-1E+10	1	-1E+10	1	-1E+10	1
4902624	5	C	08/10/2024	06:33	-128.647	46.852	0	5.40	0	17.9580	0	32.3800	0	23.278	0	5.355	0	-1e10	1	-1e10	1	-1E+10	1	-1e10	1	-1e10	1	-1E+10	1	-1E+10	1	-1E+10	1
4902624	5	C	08/10/2024	06:33	-128.647	46.852	0	5.50	0	17.9580	0	32.3800	0	23.278	0	5.454	0	226.6	4	95.1	4	-1E+10	1	0.6205	4	0.000988	0	-1E+10	1	-1E+10	1	-1E+10	1
4902624	5	C	08/10/2024	06:33	-128.647	46.852	0	5.70	0	17.9580	0	32.3800	0	23.278	0	5.653	0	-1e10	1	-1e10	1	-1E+10	1	0.6862	4	0.001105	0	-1E+10	1	-1E+10	1	-1E+10	1
4902624	5	C	08/10/2024	06:33	-128.647	46.852	0	5.90	0	17.9580	0	32.3800	0	23.278	0	5.851	0	-1e10	1	-1e10	1	-1E+10	1	0.6497	4	0.001000	0	-1E+10	1	-1E+10	1	-1E+10	1
4902624	5	C	08/10/2024	06:33	-128.647	46.852	0	6.10	0	17.9580	0	32.3800	0	23.278	0	6.049	0	-1e10	1	-1e10	1	-1E+10	1	0.6205	4	0.000941	0	-1E+10	1	-1E+10	1	-1E+10	1
4902624	5	C	08/10/2024	06:33	-128.647	46.852	0	6.30	0	17.9580	0	32.3800	0	23.278	0	6.248	0	-1e10	1	-1e10	1	-1E+10	1	0.6205	4	0.001011	0	-1E+10	1	-1E+10	1	-1E+10	1
4902624	5	C	08/10/2024	06:33	-128.647	46.852	0	6.50	0	17.9580	0	32.3800	0	23.278	0	6.446	0	226.7	4	95.1	4	-1E+10	1	0.6497	4	0.001011	0	-1E+10	1	-1E+10	1	-1E+10	1
4902624	5	C	08/10/2024	06:33	-128.647	46.852	0	6.60	0	17.9580	0	32.3800	0	23.278	0	6.545	0	-1e10	1	-1e10	1	-1E+10	1	0.6643	4	0.001187	0	-1E+10	1	-1E+10	1	-1E+10	1
4902624	5	C	08/10/2024	06:33	-128.647	46.852	0	6.80	0	17.9580	0	32.3800	0	23.278	0	6.744	0	-1e10	1	-1e10	1	-1E+10	1	0.6278	4	0.000917	0	-1E+10	1	-1E+10	1	-1E+10	1
4902624	5	C	08/10/2024	06:33	-128.647	46.852	0	7.20	0	17.9580	0	32.3800	0	23.278	0	7.140	0	-1e10	1	-1e10	1	-1E+10	1	0.7519	4	0.001234	0	-1E+10	1	-1E+10	1	-1E+10	1
4902624	5	C	08/10/2024	06:33	-128.647	46.852	0	7.30	0	17.9580	0	32.3800	0	23.278	0	7.239	0	226.7	4	95.1	4	-1E+10	1	0.6497	4	0.000847	0	-1E+10	1	-1E+10	1	-1E+10	1
4902624	5	C	08/10/2024	06:33	-128.647	46.852	0	7.50	0	17.9580	0	32.3800	0	23.278	0	7.438	0	-1e10	1	-1e10	1	-1E+10	1	0.7738	4	0.001082	0	-1E+10	1	-1E+10	1	-1E+10	1
4902624	5	C	08/10/2024	06:33	-128.647	46.852	0	7.70	0	17.9578	0	32.3800	0	23.278	0	7.636	0	-1e10	1	-1e10	1	-1E+10	1	0.6424	4	0.000953	0	-1E+10	1	-1E+10	1	-1E+10	1
4902624	5	C	08/10/2024	06:33	-128.647	46.852	0	7.80	0	17.9577	0	32.3800	0	23.278	0	7.735	0	-1e10	1	-1e10	1	-1E+10	1	0.8541	4	0.000929	0	-1E+10	1	-1E+10	1	-1E+10	1
4902624	5	C	08/10/2024	06:33	-128.647	46.852	0	8.10	0	17.9574	0	32.3800	0	23.278	0	8.033	0	-1e10	1	-1e10	1	-1E+10	1	0.6935	4	0.000859	0	-1E+10	1	-1E+10	1	-1E+10	1
4902624	5	C	08/10/2024	06:33	-128.647	46.852	0	8.20	0	17.9573	0	32.3800	0	23.278	0	8.132	0	227.0	4	95.2	4	-1E+10	1	0.7227	4	0.001000	0	-1E+10	1	-1E+10	1	-1E+10	1
4902624	5	C	08/10/2024	06:33	-128.647	46.852	0	8.50	0	17.9570	0	32.3800	0	23.278	0	8.429	0	-1e10	1	-1e10	1	-1E+10	1	-1e10	1	-1e10	1	-1E+10	1	-1E+10	1	-1E+10	1
4902624	5	C	08/10/2024	06:33	-128.647	46.852	0	8.60	0	17.9571	0	32.3800	0	23.278	0	8.529	0	-1e10	1	-1e10	1	-1E+10	1	0.9928	4	0.001539	0	-1E+10	1	-1E+10	1	-1E+10	1
4902624	5	C	08/10/2024	06:33	-128.647	46.852	0	8.70	0	17.9572	0	32.3800	0	23.278	0	8.628	0	-1e10	1	-1e10	1	-1E+10	1	0.6789	4	0.000976	0	-1E+10	1	-1E+10	1	-1E+10	1
4902624	5	C	08/10/2024	06:33	-128.647	46.852	0	8.90	0	17.9574	0	32.3800	0	23.278	0	8.826	0	-1e10	1	-1e10	1	-1E+10	1	0.7154	4	0.000906	0	-1E+10	1	-1E+10	1	-1E+10	1
4902624	5	C	08/10/2024	06:33	-128.647	46.852	0	9.10	0	17.9576	0	32.3800	0	23.278	0	9.024	0	227.0	4	95.3	4	-1E+10	1	0.7227	4	0.001363	0	-1E+10	1	-1E+10	1	-1E+10	1
4902624	5	C	08/10/2024	06:33	-128.647	46.852	0	9.30	0	17.9578	0	32.3800	0	23.278	0	9.223	0	-1e10	1	-1e10	1	-1E+10	1	0.6935	4	0.000894	0	-1E+10	1	-1E+10	1	-1E+10	1
4902624	5	C	08/10/2024	06:33	-128.647	46.852	0	9.40	0	17.9579	0	32.3800	0	23.278	0	9.322	0	-1e10	1	-1e10	1	-1E+10	1	0.6205	4	0.000976	0	-1E+10	1	-1E+10	1	-1E+10	1
4902624	5	C	08/10/2024	06:33	-128.647	46.852	0	9.50	0	17.9580	0	32.3800	0	23.278	0	9.421	0	-1e10	1	-1e10	1	-1E+10	1	-1e10	1	-1e10	1	-1E+10	1	-1E+10	1	-1E+10	1
4902624	5	C	08/10/2024	06:33	-128.647	46.852	0	9.60	0	17.9580	0	32.3800	0	23.278	0	9.520	0	-1e10	1	-1e10	1	-1E+10	1	0.7519	4	0.001305	0	-1E+10	1	-1E+10	1	-1E+10	1
4902624	5	C	08/10/2024	06:33	-128.647	46.852	0	10.00	0	17.9580	0	32.3800	0	23.278	0	9.917	0	227.2	4	95.3	4	-1E+10	1	0.6737	4	0.000892	0	-1E+10	1	-1E+10	1	-1E+10	1
4902624	5	C	08/10/2024	06:33	-128.647	46.852	0	10.80	0	17.9580	0	32.3800	0	23.278	0	10.710	0	227.4	4	95.4	4	-1E+10	1	0.6563	4	0.000933	0	-1E+10	1	-1E+10	1	-1E+10	1
4902624	5	C	08/10/2024	06:33	-128.647	46.852	0	11.00	0	17.9580	0	32.3800	0	23.278	0	10.909	0	-1e10	1	-1e10	1	-1E+10	1	-1e10	1	-1e10	1	-1E+10	1	-1E+10	1	-1E+10	1
4902624	5	C	08/10/2024	06:33	-128.647	46.852	0	11.80	0	17.9580	0	32.3800	0	23.278	0	11.702	0	227.6	4	95.5	4	-1E+10	1	0.6919	4	0.000963	0	-1E+10	1	-1E+10	1	-1E+10	1
4902624	5	C	08/10/2024	06:33	-128.647	46.852	0	12.70	0	17.9580	0	32.3800	0	23.278	0	12.594	0	228.0	4	95.7	4	-1E+10	1	0.6789	4	0.000917	0	-1E+10	1	-1E+10	1	-1E+10	1
4902624	5	C	08/10/2024	06:33	-128.647	46.852	0	12.90	0	17.9580	0	32.3800	0	23.278	0	12.793	0	-1e10	1	-1e10	1	-1E+10	1	-1e10	1	-1e10	1	-1E+10	1	-1E+10	1	-1E+10	1
4902624	5	C	08/10/2024	06:33	-128.647	46.852	0	13.70	0	17.9588	0	32.3800	0	23.278	0	13.586	0	228.4	4	95.8	4	-1E+10	1	0.6424	4	0.000917	0	-1E+10	1	-1E+10	1	-1E+10	1
4902624	5	C	08/10/2024	06:33	-128.647	46.852	0	14.70	0	17.9597	0	32.3800	0	23.278	0	14.578	0	228.9	4	96.1	4	-1E+10	1	0.8979	4	0.001035	0	-1E+10	1	-1E+10	1	-1E+10	1
4902624	5	C	08/10/2024	06:33	-128.647	46.852	0	15.00	0	17.9600	0	32.3800	0	23.278	0	14.875	0	-1e10	1	-1e10	1	-1E+10	1	-1e10	1	-1e10	1	-1E+10	1	-1E+10	1	-1E+10	1
4902624	5	C	08/10/2024	06:33	-128.647	46.852	0	15.70	0	17.9597	0	32.3797	0	23.278	0	15.569	0	229.5	4	96.3	4	-1E+10	1	0.7096	4	0.000861	0	-1E+10	1	-1E+10	1	-1E+10	1
4902624	5	C	08/10/2024	06:33	-128.647	46.852	0	16.80	0	17.9591	0	32.3791	0	23.277	0	16.660	0	230.3	4	96.6	4	-1E+10	1	0.6497	4	0.000909	0	-1E+10	1	-1E+10	1	-1E+10	1
4902624	5	C	08/10/2024	06:33	-128.647	46.852	0	17.00	0	17.9590	0	32.3790	0	23.277	0	16.858	0	-1e10	1	-1e10	1	-1E+10	1	-1e10	1	-1e10	1	-1E+10	1	-1E+10	1	-1E+10	1
4902624	5	C	08/10/2024	06:33	-128.647	46.852	0	17.90	0	17.9563	0	32.3795	0	23.278	0	17.751	0	231.3	4	97.1	4	-1E+10	1	0.6424	4	0.000917	0	-1E+10	1	-1E+10	1	-1E+10	1
4902624	5	C	08/10/2024	06:33	-128.647	46.852	0	19.00	0	17.9530	0	32.3800	0	23.280	0	18.842	0	232.7	4	97.6	4	-1E+10	1	0.6409	4	0.001009	0	-1E+10	1	-1E+10	1	-1E+10	1
4902624	5	C	08/10/2024	06:33	-128.647	46.852	0	20.00	0	17.9425	0	32.3785	0	23.281	0	19.833	0	234.2	4	98.2	4	-1E+10	1	0.6922	4	0.001122	0	-1E+10	1	-1E+10	1	-1E+10	1
4902624	5	C	08/10/2024	06:33	-128.647	46.852	0	20.80	0	17.9341	0	32.3773	0	23.282	0	20.627	0	235.6	4	98.8	4	-1E+10	1	0.7592	4	0.000973	0	-1E+10	1	-1E+10	1	-1E+10	1
4902624	5	C	08/10/2024	06:33	-128.647	46.852	0	21.00	0	17.9320	0	32.3770	0	23.283	0	20.825	0	-1e10	1	-1e10	1	-1E+10	1	-1e10	1	-1e10	1	-1E+10	1	-1E+10	1	-1E+10	1
4902624	5	C	08/10/2024	06:33	-128.647	46.852	0	21.50	0	17.8546	0	32.3762	0	23.301	0	21.321	0	237.1	4	99.3	4	-1E+10	1	0.7081	4	0.000870	0	-1E+10	1	-1E+10	1	-1E+10	1
4902624	5	C	08/10/2024	06:33	-128.647	46.852	0	22.00	0	17.7773	0	32.3754	0	23.319	0	21.817	0	239.6	4	100.2	4	-1E+10	1	0.8176	4	0.000941	0	-1E+10	1	-1E+10	1	-1E+10	1
4902624	5	C	08/10/2024	06:33	-128.647	46.852	0	22.50	0	17.6999	0	32.3746	0	23.337	0	22.312	0	242.7	4	101.3	4	-1E+10	1	1.0804	4	0.001082	0	-1E+10	1	-1E+10	1	-1E+10	1
4902624	5	C	08/10/2024	06:33	-128.647	46.852	0	22.90	0	17.6380	0	32.3740	0	23.351	0	22.709	0	246.7	4	102.9	4	-1E+10	1	1.2507	4	0.001144	0	-1E+10	1	-1E+10	1	-1E+10	1
4902624	5	C	08/10/2024	06:33	-128.647	46.852	0	23.50	0	17.3469	0	32.3720	0	23.419	0	23.304	0	251.4	4	104.2	4	-1E+10	1	1.6571	4	0.001363	0	-1E+10	1	-1E+10	1	-1E+10	1
4902624	5	C	08/10/2024	06:33	-128.647	46.852	0	24.20	0	17.0072	0	32.3697	0	23.497	0	23.998	0	255.0	4	105.1	4	-1E+10	1	2.0927	4	0.001759	0	-1E+10	1	-1E+10	1	-1E+10	1
4902624	5	C	08/10/2024	06:33	-128.647	46.852	0	24.90	0	16.6675	0	32.3673	0	23.574	0	24.692	0	258.1	4	105.7	4	-1E+10	1	2.3392	4	0.002034	0	-1E+10	1	-1E+10	1	-1E+10	1
4902624	5	C	08/10/2024	06:33	-128.647	46.852	0	25.00	0	16.6190	0	32.3670	0	23.584	0	24.791	0	-1e10	1	-1e10	1	-1E+10	1	-1e10	1	-1e10	1	-1E+10	1	-1E+10	1	-1E+10	1
4902624	5	C	08/10/2024	06:33	-128.647	46.852	0	25.80	0	16.3150	0	32.3562	0	23.646	0	25.585	0	260.4	4	105.9	4	-1E+10	1	2.3587	4	0.001877	0	-1E+10	1	-1E+10	1	-1E+10	1
4902624	5	C	08/10/2024	06:33	-128.647	46.852	0	26.70	0	15.9730	0	32.3441	0	23.713	0	26.477	0	261.0	4	105.4	4	-1E+10	1	2.4083	4	0.001880	0	-1E+10	1	-1E+10	1	-1E+10	1
4902624	5	C	08/10/2024	06:33	-128.647	46.852	0	27.00	0	15.8590	0	32.3400	0	23.736	0	26.775	0	-1e10	1	-1e10	1	-1E+10	1	-1e10	1	-1e10	1	-1E+10	1	-1E+10	1	-1E+10	1
4902624	5	C	08/10/2024	06:33	-128.647	46.852	0	27.60	0	15.6523	0	32.3436	0	23.784	0	27.369	0	262.4	4	105.3	4	-1E+10	1	2.5039	4	0.001938	0	-1E+10	1	-1E+10	1	-1E+10	1
4902624	5	C	08/10/2024	06:33	-128.647	46.852	0	28.70	0	15.2733	0	32.3502	0	23.873	0	28.460	0	264.1	4	105.2	4	-1E+10	1	2.5331	4	0.002184	0	-1E+10	1	-1E+10	1	-1E+10	1
4902624	5	C	08/10/2024	06:33	-128.647	46.852	0	29.00	0	15.1700	0	32.3520	0	23.896	0	28.758	0	-1e10	1	-1e10	1	-1E+10	1	-1e10	1	-1e10	1	-1E+10	1	-1E+10	1	-1E+10	1
4902624	5	C	08/10/2024	06:33	-128.647	46.852	0	29.70	0	14.9743	0	32.3485	0	23.936	0	29.452	0	264.9	4	104.9	4	-1E+10	1	2.4236	4	0.001973	0	-1E+10	1	-1E+10	1	-1E+10	1
4902624	5	C	08/10/2024	06:33	-128.647	46.852	0	30.30	0	14.8067	0	32.3455	0	23.969	0	30.047	0	265.5	4	104.8	4	-1E+10	1	2.3907	4	0.001920	0	-1E+10	1	-1E+10	1	-1E+10	1
4902624	5	C	08/10/2024	06:33	-128.647	46.852	0	30.90	0	14.6390	0	32.3425	0	24.003	0	30.642	0	266.0	4	104.6	4	-1E+10	1	2.4017	4	0.001932	0	-1E+10	1	-1E+10	1	-1E+10	1
4902624	5	C	08/10/2024	06:33	-128.647	46.852	0	31.00	0	14.6110	0	32.3420	0	24.008	0	30.741	0	-1e10	1	-1e10	1	-1E+10	1	-1e10	1	-1e10	1	-1E+10	1	-1E+10	1	-1E+10	1
4902624	5	C	08/10/2024	06:33	-128.647	46.852	0	31.60	0	14.4231	0	32.3458	0	24.051	0	31.336	0	266.4	4	104.3	4	-1E+10	1	2.4236	4	0.001911	0	-1E+10	1	-1E+10	1	-1E+10	1
4902624	5	C	08/10/2024	06:33	-128.647	46.852	0	32.30	0	14.2039	0	32.3502	0	24.100	0	32.030	0	267.1	4	104.2	4	-1E+10	1	2.3606	4	0.001826	0	-1E+10	1	-1E+10	1	-1E+10	1
4902624	5	C	08/10/2024	06:33	-128.647	46.852	0	32.90	0	14.0160	0	32.3540	0	24.141	0	32.625	0	-1e10	1	-1e10	1	-1E+10	1	-1e10	1	-1e10	1	-1E+10	1	-1E+10	1	-1E+10	1
4902624	5	C	08/10/2024	06:33	-128.647	46.852	0	33.00	0	14.0022	0	32.3541	0	24.144	0	32.724	0	267.8	4	104.0	4	-1E+10	1	2.3037	4	0.001854	0	-1E+10	1	-1E+10	1	-1E+10	1
4902624	5	C	08/10/2024	06:33	-128.647	46.852	0	33.70	0	13.9059	0	32.3548	0	24.165	0	33.418	0	268.2	4	104.0	4	-1E+10	1	2.4632	4	0.002788	0	-1E+10	1	-1E+10	1	-1E+10	1
4902624	5	C	08/10/2024	06:33	-128.647	46.852	0	34.30	0	13.8233	0	32.3553	0	24.182	0	34.013	0	268.3	4	103.8	4	-1E+10	1	2.5212	4	0.004381	0	-1E+10	1	-1E+10	1	-1E+10	1
4902624	5	C	08/10/2024	06:33	-128.647	46.852	0	35.00	0	13.7270	0	32.3560	0	24.202	0	34.707	0	266.4	4	102.9	4	-1E+10	1	2.2338	4	0.001689	0	-1E+10	1	-1E+10	1	-1E+10	1
4902624	5	C	08/10/2024	06:33	-128.647	46.852	0	35.70	0	13.6083	0	32.3612	0	24.230	0	35.401	0	268.7	4	103.5	4	-1E+10	1	2.1444	4	0.001784	0	-1E+10	1	-1E+10	1	-1E+10	1
4902624	5	C	08/10/2024	06:33	-128.647	46.852	0	36.40	0	13.4897	0	32.3665	0	24.258	0	36.095	0	269.0	4	103.4	4	-1E+10	1	2.1425	4	0.001647	0	-1E+10	1	-1E+10	1	-1E+10	1
4902624	5	C	08/10/2024	06:33	-128.647	46.852	0	37.00	0	13.3880	0	32.3710	0	24.282	0	36.690	0	-1e10	1	-1e10	1	-1E+10	1	-1e10	1	-1e10	1	-1E+10	1	-1E+10	1	-1E+10	1
4902624	5	C	08/10/2024	06:33	-128.647	46.852	0	37.10	0	13.3704	0	32.3716	0	24.286	0	36.789	0	268.6	4	103.0	4	-1E+10	1	2.1462	4	0.001656	0	-1E+10	1	-1E+10	1	-1E+10	1
4902624	5	C	08/10/2024	06:33	-128.647	46.852	0	37.90	0	13.2296	0	32.3769	0	24.318	0	37.582	0	268.5	4	102.7	4	-1E+10	1	2.0691	4	0.001626	0	-1E+10	1	-1E+10	1	-1E+10	1
4902624	5	C	08/10/2024	06:33	-128.647	46.852	0	38.60	0	13.1064	0	32.3814	0	24.346	0	38.277	0	268.3	4	102.4	4	-1E+10	1	1.9719	4	0.001600	0	-1E+10	1	-1E+10	1	-1E+10	1
4902624	5	C	08/10/2024	06:33	-128.647	46.852	0	39.00	0	13.0360	0	32.3840	0	24.362	0	38.673	0	-1e10	1	-1e10	1	-1E+10	1	-1e10	1	-1e10	1	-1E+10	1	-1E+10	1	-1E+10	1
4902624	5	C	08/10/2024	06:33	-128.647	46.852	0	39.40	0	12.9747	0	32.3846	0	24.374	0	39.070	0	268.3	4	102.1	4	-1E+10	1	1.8980	4	0.001613	0	-1E+10	1	-1E+10	1	-1E+10	1
4902624	5	C	08/10/2024	06:33	-128.647	46.852	0	40.20	0	12.8520	0	32.3857	0	24.399	0	39.863	0	267.9	4	101.7	4	-1E+10	1	1.8630	4	0.001534	0	-1E+10	1	-1E+10	1	-1E+10	1
4902624	5	C	08/10/2024	06:33	-128.647	46.852	0	41.00	0	12.7293	0	32.3869	0	24.424	0	40.656	0	267.5	4	101.3	4	-1E+10	1	1.8396	4	0.001469	0	-1E+10	1	-1E+10	1	-1E+10	1
4902624	5	C	08/10/2024	06:33	-128.647	46.852	0	41.10	0	12.7140	0	32.3870	0	24.427	0	40.755	0	-1e10	1	-1e10	1	-1E+10	1	-1e10	1	-1e10	1	-1E+10	1	-1E+10	1	-1E+10	1
4902624	5	C	08/10/2024	06:33	-128.647	46.852	0	41.80	0	12.5719	0	32.3821	0	24.450	0	41.449	0	267.4	4	100.9	4	-1E+10	1	1.7666	4	0.001410	0	-1E+10	1	-1E+10	1	-1E+10	1
4902624	5	C	08/10/2024	06:33	-128.647	46.852	0	42.70	0	12.3892	0	32.3758	0	24.480	0	42.342	0	267.6	4	100.6	4	-1E+10	1	1.6549	4	0.001368	0	-1E+10	1	-1E+10	1	-1E+10	1
4902624	5	C	08/10/2024	06:33	-128.647	46.852	0	43.10	0	12.3080	0	32.3730	0	24.493	0	42.738	0	-1e10	1	-1e10	1	-1E+10	1	-1e10	1	-1e10	1	-1E+10	1	-1E+10	1	-1E+10	1
4902624	5	C	08/10/2024	06:33	-128.647	46.852	0	43.60	0	12.2559	0	32.3712	0	24.502	0	43.234	0	267.6	4	100.3	4	-1E+10	1	1.6213	4	0.001448	0	-1E+10	1	-1E+10	1	-1E+10	1
4902624	5	C	08/10/2024	06:33	-128.647	46.852	0	44.50	0	12.1621	0	32.3678	0	24.517	0	44.126	0	267.4	4	100.1	4	-1E+10	1	1.5739	4	0.001452	0	-1E+10	1	-1E+10	1	-1E+10	1
4902624	5	C	08/10/2024	06:33	-128.647	46.852	0	45.00	0	12.1100	0	32.3660	0	24.525	0	44.622	0	-1e10	1	-1e10	1	-1E+10	1	-1e10	1	-1e10	1	-1E+10	1	-1E+10	1	-1E+10	1
4902624	5	C	08/10/2024	06:33	-128.647	46.852	0	45.40	0	12.0722	0	32.3652	0	24.532	0	45.019	0	267.4	4	99.8	4	-1E+10	1	1.5244	4	0.001369	0	-1E+10	1	-1E+10	1	-1E+10	1
4902624	5	C	08/10/2024	06:33	-128.647	46.852	0	46.40	0	11.9777	0	32.3632	0	24.548	0	46.010	0	267.2	4	99.6	4	-1E+10	1	1.4806	4	0.001429	0	-1E+10	1	-1E+10	1	-1E+10	1
4902624	5	C	08/10/2024	06:33	-128.647	46.852	0	47.00	0	11.9210	0	32.3620	0	24.557	0	46.605	0	-1e10	1	-1e10	1	-1E+10	1	-1e10	1	-1e10	1	-1E+10	1	-1E+10	1	-1E+10	1
4902624	5	C	08/10/2024	06:33	-128.647	46.852	0	47.20	0	11.9004	0	32.3616	0	24.561	0	46.804	0	267.1	4	99.4	4	-1E+10	1	1.4495	4	0.001629	0	-1E+10	1	-1E+10	1	-1E+10	1
4902624	5	C	08/10/2024	06:33	-128.647	46.852	0	48.20	0	11.7972	0	32.3595	0	24.578	0	47.795	0	267.1	4	99.2	4	-1E+10	1	1.4129	4	0.001314	0	-1E+10	1	-1E+10	1	-1E+10	1
4902624	5	C	08/10/2024	06:33	-128.647	46.852	0	48.90	0	11.7250	0	32.3580	0	24.590	0	48.489	0	-1e10	1	-1e10	1	-1E+10	1	-1e10	1	-1e10	1	-1E+10	1	-1E+10	1	-1E+10	1
4902624	5	C	08/10/2024	06:33	-128.647	46.852	0	49.10	0	11.6887	0	32.3586	0	24.597	0	48.687	0	267.0	4	98.9	4	-1E+10	1	1.3651	4	0.001304	0	-1E+10	1	-1E+10	1	-1E+10	1
4902624	5	C	08/10/2024	06:33	-128.647	46.852	0	50.10	0	11.5073	0	32.3614	0	24.633	0	49.679	0	267.3	4	98.6	4	-1E+10	1	1.4016	4	0.001246	0	-1E+10	1	-1E+10	1	-1E+10	1
4902624	5	C	08/10/2024	06:33	-128.647	46.852	0	51.00	0	11.3440	0	32.3640	0	24.664	0	50.571	0	-1e10	1	-1e10	1	-1E+10	1	-1e10	1	-1e10	1	-1E+10	1	-1E+10	1	-1E+10	1
4902624	5	C	08/10/2024	06:33	-128.647	46.852	0	51.10	0	11.3342	0	32.3640	0	24.666	0	50.670	0	267.1	4	98.2	4	-1E+10	1	1.3914	4	0.001234	0	-1E+10	1	-1E+10	1	-1E+10	1
4902624	5	C	08/10/2024	06:33	-128.647	46.852	0	52.00	0	11.2465	0	32.3640	0	24.681	0	51.563	0	267.1	4	98.0	4	-1E+10	1	1.4056	4	0.001182	0	-1E+10	1	-1E+10	1	-1E+10	1
4902624	5	C	08/10/2024	06:33	-128.647	46.852	0	53.00	0	11.1490	0	32.3640	0	24.699	0	52.554	0	263.8	4	96.6	4	-1E+10	1	1.4418	4	0.001163	0	-1E+10	1	-1E+10	1	-1E+10	1
4902624	5	C	08/10/2024	06:33	-128.647	46.852	0	54.00	0	11.0633	0	32.3659	0	24.715	0	53.546	0	266.5	4	97.4	4	-1E+10	1	1.4585	4	0.001180	0	-1E+10	1	-1E+10	1	-1E+10	1
4902624	5	C	08/10/2024	06:33	-128.647	46.852	0	55.00	0	10.9776	0	32.3678	0	24.732	0	54.537	0	266.2	4	97.2	4	-1E+10	1	1.4534	4	0.001302	0	-1E+10	1	-1E+10	1	-1E+10	1
4902624	5	C	08/10/2024	06:33	-128.647	46.852	0	55.10	0	10.9690	0	32.3680	0	24.734	0	54.636	0	-1e10	1	-1e10	1	-1E+10	1	-1e10	1	-1e10	1	-1E+10	1	-1E+10	1	-1E+10	1
4902624	5	C	08/10/2024	06:33	-128.647	46.852	0	56.00	0	10.8695	0	32.3708	0	24.753	0	55.528	0	266.1	4	96.9	4	-1E+10	1	1.4600	4	0.001383	0	-1E+10	1	-1E+10	1	-1E+10	1
4902624	5	C	08/10/2024	06:33	-128.647	46.852	0	56.90	0	10.7701	0	32.3737	0	24.773	0	56.421	0	265.8	4	96.6	4	-1E+10	1	1.4381	4	0.001023	0	-1E+10	1	-1E+10	1	-1E+10	1
4902624	5	C	08/10/2024	06:33	-128.647	46.852	0	57.00	0	10.7590	0	32.3740	0	24.775	0	56.520	0	-1e10	1	-1e10	1	-1E+10	1	-1e10	1	-1e10	1	-1E+10	1	-1E+10	1	-1E+10	1
4902624	5	C	08/10/2024	06:33	-128.647	46.852	0	57.90	0	10.6474	0	32.3772	0	24.797	0	57.412	0	265.9	4	96.4	4	-1E+10	1	1.4308	4	0.000999	0	-1E+10	1	-1E+10	1	-1E+10	1
4902624	5	C	08/10/2024	06:33	-128.647	46.852	0	59.00	0	10.5110	0	32.3810	0	24.823	0	58.503	0	262.7	4	94.9	4	-1E+10	1	1.3999	4	0.000920	0	-1E+10	1	-1E+10	1	-1E+10	1
4902624	5	C	08/10/2024	06:33	-128.647	46.852	0	60.00	0	10.3510	0	32.3940	0	24.860	0	59.494	0	266.0	4	95.8	4	-1E+10	1	1.3629	4	0.000876	0	-1E+10	1	-1E+10	1	-1E+10	1
4902624	5	C	08/10/2024	06:33	-128.647	46.852	0	61.00	0	10.1910	0	32.4070	0	24.898	0	60.486	0	-1e10	1	-1e10	1	-1E+10	1	-1e10	1	-1e10	1	-1E+10	1	-1E+10	1	-1E+10	1
4902624	5	C	08/10/2024	06:33	-128.647	46.852	0	61.10	0	10.1857	0	32.4072	0	24.899	0	60.585	0	265.7	4	95.4	4	-1E+10	1	1.3169	4	0.000823	0	-1E+10	1	-1E+10	1	-1E+10	1
4902624	5	C	08/10/2024	06:33	-128.647	46.852	0	62.20	0	10.1274	0	32.4094	0	24.910	0	61.675	0	265.3	4	95.1	4	-1E+10	1	1.3151	4	0.000793	0	-1E+10	1	-1E+10	1	-1E+10	1
4902624	5	C	08/10/2024	06:33	-128.647	46.852	0	63.00	0	10.0850	0	32.4110	0	24.918	0	62.468	0	-1e10	1	-1e10	1	-1E+10	1	-1e10	1	-1e10	1	-1E+10	1	-1E+10	1	-1E+10	1
4902624	5	C	08/10/2024	06:33	-128.647	46.852	0	63.20	0	10.0741	0	32.4127	0	24.922	0	62.667	0	265.0	4	94.9	4	-1E+10	1	1.3111	4	0.000788	0	-1E+10	1	-1E+10	1	-1E+10	1
4902624	5	C	08/10/2024	06:33	-128.647	46.852	0	64.30	0	10.0141	0	32.4221	0	24.939	0	63.757	0	264.6	4	94.6	4	-1E+10	1	1.2450	4	0.000799	0	-1E+10	1	-1E+10	1	-1E+10	1
4902624	5	C	08/10/2024	06:33	-128.647	46.852	0	65.00	0	9.9760	0	32.4280	0	24.950	0	64.451	0	-1e10	1	-1e10	1	-1E+10	1	-1e10	1	-1e10	1	-1E+10	1	-1E+10	1	-1E+10	1
4902624	5	C	08/10/2024	06:33	-128.647	46.852	0	65.30	0	9.9587	0	32.4300	0	24.954	0	64.749	0	264.2	4	94.4	4	-1E+10	1	1.1792	4	0.000797	0	-1E+10	1	-1E+10	1	-1E+10	1
4902624	5	C	08/10/2024	06:33	-128.647	46.852	0	66.40	0	9.8955	0	32.4371	0	24.970	0	65.839	0	263.8	4	94.1	4	-1E+10	1	1.1400	4	0.000765	0	-1E+10	1	-1E+10	1	-1E+10	1
4902624	5	C	08/10/2024	06:33	-128.647	46.852	0	67.00	0	9.8610	0	32.4410	0	24.979	0	66.434	0	-1e10	1	-1e10	1	-1E+10	1	-1e10	1	-1e10	1	-1E+10	1	-1E+10	1	-1E+10	1
4902624	5	C	08/10/2024	06:33	-128.647	46.852	0	67.40	0	9.8389	0	32.4402	0	24.982	0	66.831	0	263.4	4	93.8	4	-1E+10	1	1.1461	4	0.000765	0	-1E+10	1	-1E+10	1	-1E+10	1
4902624	5	C	08/10/2024	06:33	-128.647	46.852	0	68.50	0	9.7781	0	32.4381	0	24.990	0	67.921	0	262.9	4	93.5	4	-1E+10	1	1.1242	4	0.000706	0	-1E+10	1	-1E+10	1	-1E+10	1
4902624	5	C	08/10/2024	06:33	-128.647	46.852	0	69.10	0	9.7450	0	32.4370	0	24.995	0	68.516	0	-1e10	1	-1e10	1	-1E+10	1	-1e10	1	-1e10	1	-1E+10	1	-1E+10	1	-1E+10	1
4902624	5	C	08/10/2024	06:33	-128.647	46.852	0	69.50	0	9.7317	0	32.4370	0	24.997	0	68.912	0	262.3	4	93.2	4	-1E+10	1	1.1120	4	0.000755	0	-1E+10	1	-1E+10	1	-1E+10	1
4902624	5	C	08/10/2024	06:33	-128.647	46.852	0	70.60	0	9.6953	0	32.4370	0	25.003	0	70.003	0	261.8	4	93.0	4	-1E+10	1	1.0742	4	0.000735	0	-1E+10	1	-1E+10	1	-1E+10	1
4902624	5	C	08/10/2024	06:33	-128.647	46.852	0	71.00	0	9.6820	0	32.4370	0	25.005	0	70.400	0	-1e10	1	-1e10	1	-1E+10	1	-1e10	1	-1e10	1	-1E+10	1	-1E+10	1	-1E+10	1
4902624	5	C	08/10/2024	06:33	-128.647	46.852	0	71.70	0	9.6509	0	32.4374	0	25.010	0	71.093	0	261.1	4	92.6	4	-1E+10	1	1.0260	4	0.000704	0	-1E+10	1	-1E+10	1	-1E+10	1
4902624	5	C	08/10/2024	06:33	-128.647	46.852	0	72.70	0	9.6063	0	32.4379	0	25.018	0	72.085	0	260.5	4	92.3	4	-1E+10	1	1.0141	4	0.000716	0	-1E+10	1	-1E+10	1	-1E+10	1
4902624	5	C	08/10/2024	06:33	-128.647	46.852	0	73.00	0	9.5930	0	32.4380	0	25.020	0	72.382	0	-1e10	1	-1e10	1	-1E+10	1	-1e10	1	-1e10	1	-1E+10	1	-1E+10	1	-1E+10	1
4902624	5	C	08/10/2024	06:33	-128.647	46.852	0	73.80	0	9.5774	0	32.4404	0	25.025	0	73.175	0	260.0	4	92.1	4	-1E+10	1	1.0050	4	0.000737	0	-1E+10	1	-1E+10	1	-1E+10	1
4902624	5	C	08/10/2024	06:33	-128.647	46.852	0	74.80	0	9.5579	0	32.4434	0	25.030	0	74.167	0	259.2	4	91.8	4	-1E+10	1	0.9576	4	0.000723	0	-1E+10	1	-1E+10	1	-1E+10	1
4902624	5	C	08/10/2024	06:33	-128.647	46.852	0	75.00	0	9.5540	0	32.4440	0	25.031	0	74.365	0	-1e10	1	-1e10	1	-1E+10	1	-1e10	1	-1e10	1	-1E+10	1	-1E+10	1	-1E+10	1
4902624	5	C	08/10/2024	06:33	-128.647	46.852	0	75.90	0	9.4946	0	32.4440	0	25.041	0	75.257	0	258.6	4	91.5	4	-1E+10	1	0.8867	4	0.000689	0	-1E+10	1	-1E+10	1	-1E+10	1
4902624	5	C	08/10/2024	06:33	-128.647	46.852	0	77.00	0	9.4220	0	32.4440	0	25.052	0	76.348	0	254.6	4	89.9	4	-1E+10	1	0.8249	4	0.000663	0	-1E+10	1	-1E+10	1	-1E+10	1
4902624	5	C	08/10/2024	06:33	-128.647	46.852	0	78.00	0	9.3175	0	32.4365	0	25.063	0	77.339	0	257.9	4	90.8	4	-1E+10	1	0.7519	4	0.000651	0	-1E+10	1	-1E+10	1	-1E+10	1
4902624	5	C	08/10/2024	06:33	-128.647	46.852	0	79.00	0	9.2130	0	32.4290	0	25.074	0	78.330	0	-1e10	1	-1e10	1	-1E+10	1	-1e10	1	-1e10	1	-1E+10	1	-1E+10	1	-1E+10	1
4902624	5	C	08/10/2024	06:33	-128.647	46.852	0	79.10	0	9.2092	0	32.4293	0	25.075	0	78.429	0	257.4	4	90.5	4	-1E+10	1	0.6424	4	0.000609	0	-1E+10	1	-1E+10	1	-1E+10	1
4902624	5	C	08/10/2024	06:33	-128.647	46.852	0	80.20	0	9.1668	0	32.4320	0	25.083	0	79.520	0	257.0	4	90.2	4	-1E+10	1	0.5952	4	0.000568	0	-1E+10	1	-1E+10	1	-1E+10	1
4902624	5	C	08/10/2024	06:33	-128.647	46.852	0	81.00	0	9.1360	0	32.4340	0	25.090	0	80.313	0	-1e10	1	-1e10	1	-1E+10	1	-1e10	1	-1e10	1	-1E+10	1	-1E+10	1	-1E+10	1
4902624	5	C	08/10/2024	06:33	-128.647	46.852	0	81.30	0	9.1316	0	32.4361	0	25.092	0	80.610	0	256.4	4	89.9	4	-1E+10	1	0.5604	4	0.000578	0	-1E+10	1	-1E+10	1	-1E+10	1
4902624	5	C	08/10/2024	06:33	-128.647	46.852	0	82.30	0	9.1172	0	32.4431	0	25.100	0	81.602	0	255.6	4	89.7	4	-1E+10	1	0.5216	4	0.000589	0	-1E+10	1	-1E+10	1	-1E+10	1
4902624	5	C	08/10/2024	06:33	-128.647	46.852	0	83.00	0	9.1070	0	32.4480	0	25.105	0	82.296	0	-1e10	1	-1e10	1	-1E+10	1	-1e10	1	-1e10	1	-1E+10	1	-1E+10	1	-1E+10	1
4902624	5	C	08/10/2024	06:33	-128.647	46.852	0	83.40	0	9.1026	0	32.4499	0	25.108	0	82.692	0	255.4	4	89.5	4	-1E+10	1	0.4756	4	0.000542	0	-1E+10	1	-1E+10	1	-1E+10	1
4902624	5	C	08/10/2024	06:33	-128.647	46.852	0	84.50	0	9.0904	0	32.4551	0	25.113	0	83.783	0	254.8	4	89.3	4	-1E+10	1	0.4426	4	0.000483	0	-1E+10	1	-1E+10	1	-1E+10	1
4902624	5	C	08/10/2024	06:33	-128.647	46.852	0	84.90	0	9.0860	0	32.4570	0	25.116	0	84.179	0	-1e10	1	-1e10	1	-1E+10	1	-1e10	1	-1e10	1	-1E+10	1	-1E+10	1	-1E+10	1
4902624	5	C	08/10/2024	06:33	-128.647	46.852	0	85.40	0	9.0930	0	32.4613	0	25.118	0	84.675	0	254.1	4	89.1	4	-1E+10	1	0.4307	4	0.000483	0	-1E+10	1	-1E+10	1	-1E+10	1
4902624	5	C	08/10/2024	06:33	-128.647	46.852	0	86.20	0	9.1042	0	32.4680	0	25.121	0	85.468	0	253.5	4	88.9	4	-1E+10	1	0.4088	4	0.000530	0	-1E+10	1	-1E+10	1	-1E+10	1
4902624	5	C	08/10/2024	06:33	-128.647	46.852	0	86.90	0	9.1140	0	32.4740	0	25.125	0	86.162	0	249.3	4	87.4	4	-1E+10	1	0.3960	4	0.000478	0	-1E+10	1	-1E+10	1	-1E+10	1
4902624	5	C	08/10/2024	06:33	-128.647	46.852	0	87.50	0	9.1014	0	32.4776	0	25.129	0	86.757	0	252.5	4	88.6	4	-1E+10	1	0.3760	4	0.000500	0	-1E+10	1	-1E+10	1	-1E+10	1
4902624	5	C	08/10/2024	06:33	-128.647	46.852	0	88.10	0	9.0888	0	32.4812	0	25.134	0	87.351	0	251.9	4	88.3	4	-1E+10	1	0.3613	4	0.000459	0	-1E+10	1	-1E+10	1	-1E+10	1
4902624	5	C	08/10/2024	06:33	-128.647	46.852	0	88.80	0	9.0741	0	32.4854	0	25.140	0	88.045	0	251.6	4	88.2	4	-1E+10	1	0.3431	4	0.000418	0	-1E+10	1	-1E+10	1	-1E+10	1
4902624	5	C	08/10/2024	06:33	-128.647	46.852	0	88.90	0	9.0720	0	32.4860	0	25.141	0	88.144	0	-1e10	1	-1e10	1	-1E+10	1	-1e10	1	-1e10	1	-1E+10	1	-1E+10	1	-1E+10	1
4902624	5	C	08/10/2024	06:33	-128.647	46.852	0	89.40	0	9.0632	0	32.4860	0	25.142	0	88.640	0	251.1	4	88.0	4	-1E+10	1	0.3248	4	0.000445	0	-1E+10	1	-1E+10	1	-1E+10	1
4902624	5	C	08/10/2024	06:33	-128.647	46.852	0	90.10	0	9.0509	0	32.4860	0	25.144	0	89.334	0	250.4	4	87.7	4	-1E+10	1	0.3139	4	0.000461	0	-1E+10	1	-1E+10	1	-1E+10	1
4902624	5	C	08/10/2024	06:33	-128.647	46.852	0	90.70	0	9.0403	0	32.4860	0	25.146	0	89.929	0	249.8	4	87.5	4	-1E+10	1	0.3176	4	0.000411	0	-1E+10	1	-1E+10	1	-1E+10	1
4902624	5	C	08/10/2024	06:33	-128.647	46.852	0	91.00	0	9.0350	0	32.4860	0	25.146	0	90.226	0	-1e10	1	-1e10	1	-1E+10	1	-1e10	1	-1e10	1	-1E+10	1	-1E+10	1	-1E+10	1
4902624	5	C	08/10/2024	06:33	-128.647	46.852	0	91.40	0	9.0249	0	32.4862	0	25.148	0	90.623	0	249.2	4	87.2	4	-1E+10	1	0.3431	4	0.000401	0	-1E+10	1	-1E+10	1	-1E+10	1
4902624	5	C	08/10/2024	06:33	-128.647	46.852	0	92.20	0	9.0047	0	32.4866	0	25.152	0	91.416	0	248.5	4	86.9	4	-1E+10	1	0.3139	4	0.000401	0	-1E+10	1	-1E+10	1	-1E+10	1
4902624	5	C	08/10/2024	06:33	-128.647	46.852	0	92.80	0	8.9895	0	32.4869	0	25.154	0	92.010	0	247.9	4	86.7	4	-1E+10	1	0.3014	4	0.000384	0	-1E+10	1	-1E+10	1	-1E+10	1
4902624	5	C	08/10/2024	06:33	-128.647	46.852	0	92.90	0	8.9870	0	32.4870	0	25.155	0	92.109	0	-1e10	1	-1e10	1	-1E+10	1	-1e10	1	-1e10	1	-1E+10	1	-1E+10	1	-1E+10	1
4902624	5	C	08/10/2024	06:33	-128.647	46.852	0	93.40	0	8.9579	0	32.4890	0	25.161	0	92.605	0	247.1	4	86.4	4	-1E+10	1	0.2810	4	0.000393	0	-1E+10	1	-1E+10	1	-1E+10	1
4902624	5	C	08/10/2024	06:33	-128.647	46.852	0	94.20	0	8.9114	0	32.4923	0	25.171	0	93.398	0	246.5	4	86.1	4	-1E+10	1	0.2620	4	0.000374	0	-1E+10	1	-1E+10	1	-1E+10	1
4902624	5	C	08/10/2024	06:33	-128.647	46.852	0	94.90	0	8.8706	0	32.4952	0	25.179	0	94.092	0	245.6	4	85.7	4	-1E+10	1	0.2586	4	0.000364	0	-1E+10	1	-1E+10	1	-1E+10	1
4902624	5	C	08/10/2024	06:33	-128.647	46.852	0	95.10	0	8.8590	0	32.4960	0	25.181	0	94.290	0	-1e10	1	-1e10	1	-1E+10	1	-1e10	1	-1e10	1	-1E+10	1	-1E+10	1	-1E+10	1
4902624	5	C	08/10/2024	06:33	-128.647	46.852	0	95.60	0	8.8469	0	32.4976	0	25.185	0	94.786	0	244.6	4	85.3	4	-1E+10	1	0.2579	4	0.000381	0	-1E+10	1	-1E+10	1	-1E+10	1
4902624	5	C	08/10/2024	06:33	-128.647	46.852	0	96.30	0	8.8299	0	32.4998	0	25.189	0	95.480	0	243.3	4	84.8	4	-1E+10	1	0.2474	4	0.000387	0	-1E+10	1	-1E+10	1	-1E+10	1
4902624	5	C	08/10/2024	06:33	-128.647	46.852	0	97.00	0	8.8130	0	32.5020	0	25.193	0	96.174	0	-1e10	1	-1e10	1	-1E+10	1	-1e10	1	-1e10	1	-1E+10	1	-1E+10	1	-1E+10	1
4902624	5	C	08/10/2024	06:33	-128.647	46.852	0	97.10	0	8.8101	0	32.5028	0	25.194	0	96.273	0	242.0	4	84.3	4	-1E+10	1	0.2409	4	0.000377	0	-1E+10	1	-1E+10	1	-1E+10	1
4902624	5	C	08/10/2024	06:33	-128.647	46.852	0	97.90	0	8.7864	0	32.5097	0	25.203	0	97.066	0	240.6	4	83.8	4	-1E+10	1	0.2263	4	0.000354	0	-1E+10	1	-1E+10	1	-1E+10	1
4902624	5	C	08/10/2024	06:33	-128.647	46.852	0	98.70	0	8.7628	0	32.5164	0	25.212	0	97.859	0	239.0	4	83.2	4	-1E+10	1	0.2198	4	0.000343	0	-1E+10	1	-1E+10	1	-1E+10	1
4902624	5	C	08/10/2024	06:33	-128.647	46.852	0	99.00	0	8.7540	0	32.5190	0	25.216	0	98.156	0	-1e10	1	-1e10	1	-1E+10	1	-1e10	1	-1e10	1	-1E+10	1	-1E+10	1	-1E+10	1
4902624	5	C	08/10/2024	06:33	-128.647	46.852	0	99.50	0	8.7175	0	32.5243	0	25.225	0	98.652	0	237.4	4	82.6	4	-1E+10	1	0.2088	4	0.000325	0	-1E+10	1	-1E+10	1	-1E+10	1
4902624	5	C	08/10/2024	06:33	-128.647	46.852	0	100.40	0	8.6518	0	32.5337	0	25.243	0	99.544	0	236.1	4	82.0	4	-1E+10	1	0.1947	4	0.000334	0	-1E+10	1	-1E+10	1	-1E+10	1
4902624	5	C	08/10/2024	06:33	-128.647	46.852	0	101.00	0	8.6080	0	32.5400	0	25.254	0	100.139	0	-1e10	1	-1e10	1	-1E+10	1	-1e10	1	-1e10	1	-1E+10	1	-1E+10	1	-1E+10	1
4902624	5	C	08/10/2024	06:33	-128.647	46.852	0	101.20	0	8.5985	0	32.5409	0	25.256	0	100.337	0	234.8	4	81.5	4	-1E+10	1	0.1898	4	0.000330	0	-1E+10	1	-1E+10	1	-1E+10	1
4902624	5	C	08/10/2024	06:33	-128.647	46.852	0	102.10	0	8.5559	0	32.5452	0	25.266	0	101.229	0	233.6	4	81.0	4	-1E+10	1	0.1963	4	0.000308	0	-1E+10	1	-1E+10	1	-1E+10	1
4902624	5	C	08/10/2024	06:33	-128.647	46.852	0	102.90	0	8.5180	0	32.5490	0	25.275	0	102.022	0	228.6	4	79.2	4	-1E+10	1	0.1947	4	0.000295	0	-1E+10	1	-1E+10	1	-1E+10	1
4902624	5	C	08/10/2024	06:33	-128.647	46.852	0	103.80	0	8.5013	0	32.5576	0	25.284	0	102.914	0	231.0	4	80.0	4	-1E+10	1	0.1774	4	0.000313	0	-1E+10	1	-1E+10	1	-1E+10	1
4902624	5	C	08/10/2024	06:33	-128.647	46.852	0	104.70	0	8.4846	0	32.5661	0	25.293	0	103.806	0	229.6	4	79.5	4	-1E+10	1	0.1789	4	0.000348	0	-1E+10	1	-1E+10	1	-1E+10	1
4902624	5	C	08/10/2024	06:33	-128.647	46.852	0	105.00	0	8.4790	0	32.5690	0	25.296	0	104.103	0	-1e10	1	-1e10	1	-1E+10	1	-1e10	1	-1e10	1	-1E+10	1	-1E+10	1	-1E+10	1
4902624	5	C	08/10/2024	06:33	-128.647	46.852	0	105.70	0	8.4402	0	32.5851	0	25.315	0	104.797	0	228.2	4	78.9	4	-1E+10	1	0.1606	4	0.000318	0	-1E+10	1	-1E+10	1	-1E+10	1
4902624	5	C	08/10/2024	06:33	-128.647	46.852	0	106.60	0	8.3902	0	32.6058	0	25.339	0	105.689	0	226.7	4	78.3	4	-1E+10	1	0.1533	4	0.000307	0	-1E+10	1	-1E+10	1	-1E+10	1
4902624	5	C	08/10/2024	06:33	-128.647	46.852	0	107.00	0	8.3680	0	32.6150	0	25.349	0	106.086	0	-1e10	1	-1e10	1	-1E+10	1	-1e10	1	-1e10	1	-1E+10	1	-1E+10	1	-1E+10	1
4902624	5	C	08/10/2024	06:33	-128.647	46.852	0	107.50	0	8.3507	0	32.6193	0	25.355	0	106.581	0	225.0	4	77.7	4	-1E+10	1	0.1772	4	0.000307	0	-1E+10	1	-1E+10	1	-1E+10	1
4902624	5	C	08/10/2024	06:33	-128.647	46.852	0	108.50	0	8.3162	0	32.6278	0	25.367	0	107.573	0	223.4	4	77.1	4	-1E+10	1	0.1679	4	0.000291	0	-1E+10	1	-1E+10	1	-1E+10	1
4902624	5	C	08/10/2024	06:33	-128.647	46.852	0	109.00	0	8.2990	0	32.6320	0	25.373	0	108.068	0	-1e10	1	-1e10	1	-1E+10	1	-1e10	1	-1e10	1	-1E+10	1	-1E+10	1	-1E+10	1
4902624	5	C	08/10/2024	06:33	-128.647	46.852	0	109.50	0	8.2590	0	32.6507	0	25.393	0	108.564	0	222.0	4	76.5	4	-1E+10	1	0.1557	4	0.000307	0	-1E+10	1	-1E+10	1	-1E+10	1
4902624	5	C	08/10/2024	06:33	-128.647	46.852	0	110.50	0	8.1790	0	32.6883	0	25.434	0	109.555	0	221.3	4	76.1	4	-1E+10	1	0.1612	4	0.000306	0	-1E+10	1	-1E+10	1	-1E+10	1
4902624	5	C	08/10/2024	06:33	-128.647	46.852	0	111.00	0	8.1390	0	32.7070	0	25.455	0	110.051	0	-1e10	1	-1e10	1	-1E+10	1	-1e10	1	-1e10	1	-1E+10	1	-1E+10	1	-1E+10	1
4902624	5	C	08/10/2024	06:33	-128.647	46.852	0	111.50	0	8.1283	0	32.7230	0	25.469	0	110.546	0	220.4	4	75.8	4	-1E+10	1	0.1630	4	0.000287	0	-1E+10	1	-1E+10	1	-1E+10	1
4902624	5	C	08/10/2024	06:33	-128.647	46.852	0	112.60	0	8.1046	0	32.7582	0	25.500	0	111.636	0	219.9	4	75.6	4	-1E+10	1	0.1513	4	0.000275	0	-1E+10	1	-1E+10	1	-1E+10	1
4902624	5	C	08/10/2024	06:33	-128.647	46.852	0	113.00	0	8.0960	0	32.7710	0	25.512	0	112.033	0	-1e10	1	-1e10	1	-1E+10	1	-1e10	1	-1e10	1	-1E+10	1	-1E+10	1	-1E+10	1
4902624	5	C	08/10/2024	06:33	-128.647	46.852	0	113.60	0	8.1074	0	32.7911	0	25.526	0	112.628	0	219.1	4	75.3	4	-1E+10	1	0.1438	4	0.000287	0	-1E+10	1	-1E+10	1	-1E+10	1
4902624	5	C	08/10/2024	06:33	-128.647	46.852	0	114.70	0	8.1283	0	32.8279	0	25.552	0	113.718	0	218.0	4	75.0	4	-1E+10	1	0.1314	4	0.000307	0	-1E+10	1	-1E+10	1	-1E+10	1
4902624	5	C	08/10/2024	06:33	-128.647	46.852	0	115.00	0	8.1340	0	32.8380	0	25.559	0	114.015	0	-1e10	1	-1e10	1	-1E+10	1	-1e10	1	-1e10	1	-1E+10	1	-1E+10	1	-1E+10	1
4902624	5	C	08/10/2024	06:33	-128.647	46.852	0	115.70	0	8.1280	0	32.8499	0	25.569	0	114.709	0	217.1	4	74.7	4	-1E+10	1	0.1314	4	0.000287	0	-1E+10	1	-1E+10	1	-1E+10	1
4902624	5	C	08/10/2024	06:33	-128.647	46.852	0	116.80	0	8.1187	0	32.8686	0	25.585	0	115.799	0	216.4	4	74.4	4	-1E+10	1	0.1195	4	0.000284	0	-1E+10	1	-1E+10	1	-1E+10	1
4902624	5	C	08/10/2024	06:33	-128.647	46.852	0	117.00	0	8.1170	0	32.8720	0	25.588	0	115.998	0	-1e10	1	-1e10	1	-1E+10	1	-1e10	1	-1e10	1	-1E+10	1	-1E+10	1	-1E+10	1
4902624	5	C	08/10/2024	06:33	-128.647	46.852	0	117.80	0	8.1046	0	32.8804	0	25.596	0	116.790	0	215.5	4	74.1	4	-1E+10	1	0.1363	4	0.000291	0	-1E+10	1	-1E+10	1	-1E+10	1
4902624	5	C	08/10/2024	06:33	-128.647	46.852	0	118.90	0	8.0876	0	32.8920	0	25.608	0	117.881	0	214.6	4	73.8	4	-1E+10	1	0.1303	4	0.000307	0	-1E+10	1	-1E+10	1	-1E+10	1
4902624	5	C	08/10/2024	06:33	-128.647	46.852	0	119.00	0	8.0860	0	32.8930	0	25.609	0	117.980	0	-1e10	1	-1e10	1	-1E+10	1	-1e10	1	-1e10	1	-1E+10	1	-1E+10	1	-1E+10	1
4902624	5	C	08/10/2024	06:33	-128.647	46.852	0	120.00	0	8.0705	0	32.9040	0	25.620	0	118.971	0	213.7	4	73.5	4	-1E+10	1	0.1135	4	0.000292	0	-1E+10	1	-1E+10	1	-1E+10	1
4902624	5	C	08/10/2024	06:33	-128.647	46.852	0	121.00	0	8.0550	0	32.9150	0	25.631	0	119.962	0	208.4	4	71.6	4	-1E+10	1	0.1073	4	0.000281	0	-1E+10	1	-1E+10	1	-1E+10	1
4902624	5	C	08/10/2024	06:33	-128.647	46.852	0	122.10	0	8.0478	0	32.9194	0	25.635	0	121.052	0	211.3	4	72.6	4	-1E+10	1	0.1034	4	0.000326	0	-1E+10	1	-1E+10	1	-1E+10	1
4902624	5	C	08/10/2024	06:33	-128.647	46.852	0	123.00	0	8.0420	0	32.9230	0	25.639	0	121.944	0	-1e10	1	-1e10	1	-1E+10	1	-1e10	1	-1e10	1	-1E+10	1	-1E+10	1	-1E+10	1
4902624	5	C	08/10/2024	06:33	-128.647	46.852	0	123.10	0	8.0410	0	32.9238	0	25.640	0	122.043	0	210.0	4	72.2	4	-1E+10	1	0.1095	4	0.000307	0	-1E+10	1	-1E+10	1	-1E+10	1
4902624	5	C	08/10/2024	06:33	-128.647	46.852	0	124.20	0	8.0306	0	32.9326	0	25.648	0	123.134	0	208.6	4	71.7	4	-1E+10	1	0.1022	4	0.000318	0	-1E+10	1	-1E+10	1	-1E+10	1
4902624	5	C	08/10/2024	06:33	-128.647	46.852	0	125.00	0	8.0230	0	32.9390	0	25.654	0	123.927	0	-1e10	1	-1e10	1	-1E+10	1	-1e10	1	-1e10	1	-1E+10	1	-1E+10	1	-1E+10	1
4902624	5	C	08/10/2024	06:33	-128.647	46.852	0	125.20	0	8.0209	0	32.9415	0	25.656	0	124.125	0	207.0	4	71.1	4	-1E+10	1	0.1078	4	0.000291	0	-1E+10	1	-1E+10	1	-1E+10	1
4902624	5	C	08/10/2024	06:33	-128.647	46.852	0	126.30	0	8.0093	0	32.9552	0	25.669	0	125.215	0	205.5	4	70.6	4	-1E+10	1	0.1144	4	0.000291	0	-1E+10	1	-1E+10	1	-1E+10	1
4902624	5	C	08/10/2024	06:33	-128.647	46.852	0	127.00	0	8.0020	0	32.9640	0	25.677	0	125.909	0	-1e10	1	-1e10	1	-1E+10	1	-1e10	1	-1e10	1	-1E+10	1	-1E+10	1	-1E+10	1
4902624	5	C	08/10/2024	06:33	-128.647	46.852	0	127.30	0	7.9871	0	32.9724	0	25.686	0	126.206	0	204.1	4	70.1	4	-1E+10	1	0.1212	4	0.000288	0	-1E+10	1	-1E+10	1	-1E+10	1
4902624	5	C	08/10/2024	06:33	-128.647	46.852	0	128.40	0	7.9327	0	33.0032	0	25.718	0	127.296	0	202.9	4	69.6	4	-1E+10	1	0.1044	4	0.000271	0	-1E+10	1	-1E+10	1	-1E+10	1
4902624	5	C	08/10/2024	06:33	-128.647	46.852	0	129.00	0	7.9030	0	33.0200	0	25.735	0	127.891	0	-1e10	1	-1e10	1	-1E+10	1	-1e10	1	-1e10	1	-1E+10	1	-1E+10	1	-1E+10	1
4902624	5	C	08/10/2024	06:33	-128.647	46.852	0	129.40	0	7.8828	0	33.0300	0	25.746	0	128.287	0	201.7	4	69.1	4	-1E+10	1	0.0876	4	0.000275	0	-1E+10	1	-1E+10	1	-1E+10	1
4902624	5	C	08/10/2024	06:33	-128.647	46.852	0	130.60	0	7.8222	0	33.0600	0	25.778	0	129.477	0	200.8	4	68.7	4	-1E+10	1	0.0916	4	0.000326	0	-1E+10	1	-1E+10	1	-1E+10	1
4902624	5	C	08/10/2024	06:33	-128.647	46.852	0	131.00	0	7.8020	0	33.0700	0	25.789	0	129.873	0	-1e10	1	-1e10	1	-1E+10	1	-1e10	1	-1e10	1	-1E+10	1	-1E+10	1	-1E+10	1
4902624	5	C	08/10/2024	06:33	-128.647	46.852	0	131.70	0	7.7891	0	33.0774	0	25.797	0	130.567	0	199.7	4	68.3	4	-1E+10	1	0.0955	4	0.000355	0	-1E+10	1	-1E+10	1	-1E+10	1
4902624	5	C	08/10/2024	06:33	-128.647	46.852	0	132.70	0	7.7705	0	33.0878	0	25.808	0	131.558	0	198.5	4	67.9	4	-1E+10	1	0.0730	4	0.000283	0	-1E+10	1	-1E+10	1	-1E+10	1
4902624	5	C	08/10/2024	06:33	-128.647	46.852	0	133.00	0	7.7650	0	33.0910	0	25.811	0	131.855	0	-1e10	1	-1e10	1	-1E+10	1	-1e10	1	-1e10	1	-1E+10	1	-1E+10	1	-1E+10	1
4902624	5	C	08/10/2024	06:33	-128.647	46.852	0	133.90	0	7.7380	0	33.1108	0	25.830	0	132.747	0	197.4	4	67.5	4	-1E+10	1	0.0793	4	0.000303	0	-1E+10	1	-1E+10	1	-1E+10	1
4902624	5	C	08/10/2024	06:33	-128.647	46.852	0	135.00	0	7.7050	0	33.1350	0	25.854	0	133.838	0	192.1	4	65.6	4	-1E+10	1	0.0803	4	0.000287	0	-1E+10	1	-1E+10	1	-1E+10	1
4902624	5	C	08/10/2024	06:33	-128.647	46.852	0	136.10	0	7.6747	0	33.1553	0	25.874	0	134.928	0	195.2	4	66.6	4	-1E+10	1	0.0709	4	0.000275	0	-1E+10	1	-1E+10	1	-1E+10	1
4902624	5	C	08/10/2024	06:33	-128.647	46.852	0	137.00	0	7.6500	0	33.1720	0	25.891	0	135.820	0	-1e10	1	-1e10	1	-1E+10	1	-1e10	1	-1e10	1	-1E+10	1	-1E+10	1	-1E+10	1
4902624	5	C	08/10/2024	06:33	-128.647	46.852	0	137.20	0	7.6439	0	33.1766	0	25.895	0	136.018	0	194.1	4	66.2	4	-1E+10	1	0.0620	4	0.000271	0	-1E+10	1	-1E+10	1	-1E+10	1
4902624	5	C	08/10/2024	06:33	-128.647	46.852	0	138.30	0	7.6104	0	33.2019	0	25.920	0	137.108	0	193.2	4	65.9	4	-1E+10	1	0.0617	4	0.000271	0	-1E+10	1	-1E+10	1	-1E+10	1
4902624	5	C	08/10/2024	06:33	-128.647	46.852	0	139.00	0	7.5890	0	33.2180	0	25.936	0	137.802	0	-1e10	1	-1e10	1	-1E+10	1	-1e10	1	-1e10	1	-1E+10	1	-1E+10	1	-1E+10	1
4902624	5	C	08/10/2024	06:33	-128.647	46.852	0	139.30	0	7.5740	0	33.2295	0	25.947	0	138.099	0	192.3	4	65.5	4	-1E+10	1	0.0608	4	0.000279	0	-1E+10	1	-1E+10	1	-1E+10	1
4902624	5	C	08/10/2024	06:33	-128.647	46.852	0	140.40	0	7.5190	0	33.2719	0	25.988	0	139.189	0	191.7	4	65.3	4	-1E+10	1	0.0511	4	0.000291	0	-1E+10	1	-1E+10	1	-1E+10	1
4902624	5	C	08/10/2024	06:33	-128.647	46.852	0	141.00	0	7.4890	0	33.2950	0	26.010	0	139.784	0	-1e10	1	-1e10	1	-1E+10	1	-1e10	1	-1e10	1	-1E+10	1	-1E+10	1	-1E+10	1
4902624	5	C	08/10/2024	06:33	-128.647	46.852	0	141.20	0	7.4853	0	33.2975	0	26.013	0	139.982	0	191.1	4	65.0	4	-1E+10	1	0.0511	4	0.000283	0	-1E+10	1	-1E+10	1	-1E+10	1
4902624	5	C	08/10/2024	06:33	-128.647	46.852	0	142.00	0	7.4705	0	33.3075	0	26.023	0	140.775	0	190.4	4	64.8	4	-1E+10	1	0.0584	4	0.000271	0	-1E+10	1	-1E+10	1	-1E+10	1
4902624	5	C	08/10/2024	06:33	-128.647	46.852	0	142.80	0	7.4557	0	33.3175	0	26.033	0	141.568	0	189.4	4	64.4	4	-1E+10	1	0.0657	4	0.000318	0	-1E+10	1	-1E+10	1	-1E+10	1
4902624	5	C	08/10/2024	06:33	-128.647	46.852	0	143.00	0	7.4520	0	33.3200	0	26.035	0	141.766	0	-1e10	1	-1e10	1	-1E+10	1	-1e10	1	-1e10	1	-1E+10	1	-1E+10	1	-1E+10	1
4902624	5	C	08/10/2024	06:33	-128.647	46.852	0	143.40	0	7.4456	0	33.3278	0	26.042	0	142.162	0	188.9	4	64.2	4	-1E+10	1	0.0602	4	0.000300	0	-1E+10	1	-1E+10	1	-1E+10	1
4902624	5	C	08/10/2024	06:33	-128.647	46.852	0	144.00	0	7.4360	0	33.3395	0	26.053	0	142.757	0	188.0	4	63.9	4	-1E+10	1	0.0501	4	0.000288	0	-1E+10	1	-1E+10	1	-1E+10	1
4902624	5	C	08/10/2024	06:33	-128.647	46.852	0	144.70	0	7.4248	0	33.3531	0	26.065	0	143.451	0	187.1	4	63.6	4	-1E+10	1	0.0474	4	0.000312	0	-1E+10	1	-1E+10	1	-1E+10	1
4902624	5	C	08/10/2024	06:33	-128.647	46.852	0	145.00	0	7.4200	0	33.3590	0	26.070	0	143.748	0	-1e10	1	-1e10	1	-1E+10	1	-1e10	1	-1e10	1	-1E+10	1	-1E+10	1	-1E+10	1
4902624	5	C	08/10/2024	06:33	-128.647	46.852	0	145.40	0	7.4130	0	33.3706	0	26.081	0	144.144	0	186.2	4	63.3	4	-1E+10	1	0.0487	4	0.000334	0	-1E+10	1	-1E+10	1	-1E+10	1
4902624	5	C	08/10/2024	06:33	-128.647	46.852	0	146.10	0	7.4008	0	33.3909	0	26.098	0	144.838	0	185.3	4	63.0	4	-1E+10	1	0.0428	4	0.000316	0	-1E+10	1	-1E+10	1	-1E+10	1
4902624	5	C	08/10/2024	06:33	-128.647	46.852	0	146.80	0	7.3885	0	33.4112	0	26.116	0	145.532	0	184.4	4	62.7	4	-1E+10	1	0.0374	4	0.000314	0	-1E+10	1	-1E+10	1	-1E+10	1
4902624	5	C	08/10/2024	06:33	-128.647	46.852	0	147.00	0	7.3850	0	33.4170	0	26.121	0	145.730	0	-1e10	1	-1e10	1	-1E+10	1	-1e10	1	-1e10	1	-1E+10	1	-1E+10	1	-1E+10	1
4902624	5	C	08/10/2024	06:33	-128.647	46.852	0	147.50	0	7.3726	0	33.4265	0	26.130	0	146.225	0	183.5	4	62.4	4	-1E+10	1	0.0438	4	0.000365	0	-1E+10	1	-1E+10	1	-1E+10	1
4902624	5	C	08/10/2024	06:33	-128.647	46.852	0	148.30	0	7.3528	0	33.4416	0	26.145	0	147.018	0	182.6	4	62.0	4	-1E+10	1	0.0438	4	0.000313	0	-1E+10	1	-1E+10	1	-1E+10	1
4902624	5	C	08/10/2024	06:33	-128.647	46.852	0	148.90	0	7.3380	0	33.4530	0	26.156	0	147.613	0	-1e10	1	-1e10	1	-1E+10	1	-1e10	1	-1e10	1	-1E+10	1	-1E+10	1	-1E+10	1
4902624	5	C	08/10/2024	06:33	-128.647	46.852	0	149.00	0	7.3347	0	33.4544	0	26.157	0	147.712	0	181.4	4	61.6	4	-1E+10	1	0.0493	4	0.000350	0	-1E+10	1	-1E+10	1	-1E+10	1
4902624	5	C	08/10/2024	06:33	-128.647	46.852	0	149.80	0	7.3087	0	33.4656	0	26.170	0	148.505	0	179.9	4	61.0	4	-1E+10	1	0.0462	4	0.000365	0	-1E+10	1	-1E+10	1	-1E+10	1
4902624	5	C	08/10/2024	06:33	-128.647	46.852	0	150.50	0	7.2860	0	33.4754	0	26.181	0	149.198	0	178.3	4	60.5	4	-1E+10	1	0.0438	4	0.000355	0	-1E+10	1	-1E+10	1	-1E+10	1
4902624	5	C	08/10/2024	06:33	-128.647	46.852	0	150.90	0	7.2730	0	33.4810	0	26.187	0	149.595	0	-1e10	1	-1e10	1	-1E+10	1	-1e10	1	-1e10	1	-1E+10	1	-1E+10	1	-1E+10	1
4902624	5	C	08/10/2024	06:33	-128.647	46.852	0	151.30	0	7.2739	0	33.4881	0	26.192	0	149.991	0	176.4	4	59.8	4	-1E+10	1	0.0438	4	0.000347	0	-1E+10	1	-1E+10	1	-1E+10	1
4902624	5	C	08/10/2024	06:33	-128.647	46.852	0	152.10	0	7.2757	0	33.5023	0	26.203	0	150.784	0	174.4	4	59.1	4	-1E+10	1	0.0496	4	0.000334	0	-1E+10	1	-1E+10	1	-1E+10	1
4902624	5	C	08/10/2024	06:33	-128.647	46.852	0	152.90	0	7.2775	0	33.5165	0	26.214	0	151.577	0	172.3	4	58.5	4	-1E+10	1	0.0555	4	0.000318	0	-1E+10	1	-1E+10	1	-1E+10	1
4902624	5	C	08/10/2024	06:33	-128.647	46.852	0	153.10	0	7.2780	0	33.5200	0	26.217	0	151.775	0	-1e10	1	-1e10	1	-1E+10	1	-1e10	1	-1e10	1	-1E+10	1	-1E+10	1	-1E+10	1
4902624	5	C	08/10/2024	06:33	-128.647	46.852	0	153.70	0	7.2960	0	33.5356	0	26.227	0	152.370	0	170.8	4	58.0	4	-1E+10	1	0.0438	4	0.000365	0	-1E+10	1	-1E+10	1	-1E+10	1
4902624	5	C	08/10/2024	06:33	-128.647	46.852	0	154.50	0	7.3200	0	33.5564	0	26.240	0	153.162	0	169.8	4	57.7	4	-1E+10	1	0.0657	4	0.000341	0	-1E+10	1	-1E+10	1	-1E+10	1
4902624	5	C	08/10/2024	06:33	-128.647	46.852	0	155.10	0	7.3380	0	33.5720	0	26.250	0	153.757	0	-1e10	1	-1e10	1	-1E+10	1	-1e10	1	-1e10	1	-1E+10	1	-1E+10	1	-1E+10	1
4902624	5	C	08/10/2024	06:33	-128.647	46.852	0	155.30	0	7.3374	0	33.5748	0	26.252	0	153.955	0	169.1	4	57.5	4	-1E+10	1	0.0540	4	0.000379	0	-1E+10	1	-1E+10	1	-1E+10	1
4902624	5	C	08/10/2024	06:33	-128.647	46.852	0	156.20	0	7.3347	0	33.5874	0	26.262	0	154.847	0	168.3	4	57.2	4	-1E+10	1	0.0613	4	0.000347	0	-1E+10	1	-1E+10	1	-1E+10	1
4902624	5	C	08/10/2024	06:33	-128.647	46.852	0	157.00	0	7.3323	0	33.5986	0	26.271	0	155.640	0	167.5	4	56.9	4	-1E+10	1	0.0576	4	0.000330	0	-1E+10	1	-1E+10	1	-1E+10	1
4902624	5	C	08/10/2024	06:33	-128.647	46.852	0	157.10	0	7.3320	0	33.6000	0	26.272	0	155.739	0	-1e10	1	-1e10	1	-1E+10	1	-1e10	1	-1e10	1	-1E+10	1	-1E+10	1	-1E+10	1
4902624	5	C	08/10/2024	06:33	-128.647	46.852	0	157.90	0	7.3180	0	33.6156	0	26.287	0	156.532	0	166.9	4	56.7	4	-1E+10	1	0.0544	4	0.000346	0	-1E+10	1	-1E+10	1	-1E+10	1
4902624	5	C	08/10/2024	06:33	-128.647	46.852	0	158.80	0	7.3022	0	33.6331	0	26.303	0	157.423	0	166.4	4	56.5	4	-1E+10	1	0.0562	4	0.000358	0	-1E+10	1	-1E+10	1	-1E+10	1
4902624	5	C	08/10/2024	06:33	-128.647	46.852	0	159.10	0	7.2970	0	33.6390	0	26.308	0	157.721	0	-1e10	1	-1e10	1	-1E+10	1	-1e10	1	-1e10	1	-1E+10	1	-1E+10	1	-1E+10	1
4902624	5	C	08/10/2024	06:33	-128.647	46.852	0	159.70	0	7.2961	0	33.6409	0	26.310	0	158.315	0	165.8	4	56.3	4	-1E+10	1	0.0495	4	0.000347	0	-1E+10	1	-1E+10	1	-1E+10	1
4902624	5	C	08/10/2024	06:33	-128.647	46.852	0	160.60	0	7.2946	0	33.6437	0	26.312	0	159.207	0	165.3	4	56.1	4	-1E+10	1	0.0451	4	0.000365	0	-1E+10	1	-1E+10	1	-1E+10	1
4902624	5	C	08/10/2024	06:33	-128.647	46.852	0	161.00	0	7.2940	0	33.6450	0	26.313	0	159.604	0	-1e10	1	-1e10	1	-1E+10	1	-1e10	1	-1e10	1	-1E+10	1	-1E+10	1	-1E+10	1
4902624	5	C	08/10/2024	06:33	-128.647	46.852	0	161.50	0	7.2933	0	33.6468	0	26.315	0	160.099	0	164.7	4	56.0	4	-1E+10	1	0.0511	4	0.000365	0	-1E+10	1	-1E+10	1	-1E+10	1
4902624	5	C	08/10/2024	06:33	-128.647	46.852	0	162.40	0	7.2919	0	33.6499	0	26.317	0	160.991	0	164.2	4	55.8	4	-1E+10	1	0.0392	4	0.000336	0	-1E+10	1	-1E+10	1	-1E+10	1
4902624	5	C	08/10/2024	06:33	-128.647	46.852	0	163.00	0	7.2910	0	33.6520	0	26.319	0	161.585	0	-1e10	1	-1e10	1	-1E+10	1	-1e10	1	-1e10	1	-1E+10	1	-1E+10	1	-1E+10	1
4902624	5	C	08/10/2024	06:33	-128.647	46.852	0	163.40	0	7.2872	0	33.6552	0	26.322	0	161.982	0	163.5	4	55.5	4	-1E+10	1	0.0423	4	0.000367	0	-1E+10	1	-1E+10	1	-1E+10	1
4902624	5	C	08/10/2024	06:33	-128.647	46.852	0	164.30	0	7.2786	0	33.6624	0	26.329	0	162.874	0	162.8	4	55.3	4	-1E+10	1	0.0438	4	0.000399	0	-1E+10	1	-1E+10	1	-1E+10	1
4902624	5	C	08/10/2024	06:33	-128.647	46.852	0	165.00	0	7.2720	0	33.6680	0	26.334	0	163.567	0	-1e10	1	-1e10	1	-1E+10	1	-1e10	1	-1e10	1	-1E+10	1	-1E+10	1	-1E+10	1
4902624	5	C	08/10/2024	06:33	-128.647	46.852	0	165.30	0	7.2707	0	33.6702	0	26.336	0	163.865	0	162.3	4	55.1	4	-1E+10	1	0.0438	4	0.000369	0	-1E+10	1	-1E+10	1	-1E+10	1
4902624	5	C	08/10/2024	06:33	-128.647	46.852	0	166.30	0	7.2665	0	33.6776	0	26.343	0	164.855	0	161.8	4	54.9	4	-1E+10	1	0.0438	4	0.000355	0	-1E+10	1	-1E+10	1	-1E+10	1
4902624	5	C	08/10/2024	06:33	-128.647	46.852	0	166.90	0	7.2640	0	33.6820	0	26.347	0	165.450	0	-1e10	1	-1e10	1	-1E+10	1	-1e10	1	-1e10	1	-1E+10	1	-1E+10	1	-1E+10	1
4902624	5	C	08/10/2024	06:33	-128.647	46.852	0	167.30	0	7.2625	0	33.6831	0	26.348	0	165.846	0	161.3	4	54.8	4	-1E+10	1	0.0511	4	0.000365	0	-1E+10	1	-1E+10	1	-1E+10	1
4902624	5	C	08/10/2024	06:33	-128.647	46.852	0	168.30	0	7.2587	0	33.6860	0	26.351	0	166.837	0	160.9	4	54.6	4	-1E+10	1	0.0608	4	0.000361	0	-1E+10	1	-1E+10	1	-1E+10	1
4902624	5	C	08/10/2024	06:33	-128.647	46.852	0	169.00	0	7.2560	0	33.6880	0	26.352	0	167.531	0	-1e10	1	-1e10	1	-1E+10	1	-1e10	1	-1e10	1	-1E+10	1	-1E+10	1	-1E+10	1
4902624	5	C	08/10/2024	06:33	-128.647	46.852	0	169.30	0	7.2546	0	33.6883	0	26.353	0	167.828	0	160.3	4	54.4	4	-1E+10	1	0.0672	4	0.000358	0	-1E+10	1	-1E+10	1	-1E+10	1
4902624	5	C	08/10/2024	06:33	-128.647	46.852	0	170.40	0	7.2494	0	33.6895	0	26.355	0	168.918	0	159.8	4	54.2	4	-1E+10	1	0.0663	4	0.000376	0	-1E+10	1	-1E+10	1	-1E+10	1
4902624	5	C	08/10/2024	06:33	-128.647	46.852	0	170.90	0	7.2470	0	33.6900	0	26.355	0	169.414	0	-1e10	1	-1e10	1	-1E+10	1	-1e10	1	-1e10	1	-1E+10	1	-1E+10	1	-1E+10	1
4902624	5	C	08/10/2024	06:33	-128.647	46.852	0	171.40	0	7.2427	0	33.6914	0	26.357	0	169.909	0	159.2	4	54.0	4	-1E+10	1	0.0438	4	0.000376	0	-1E+10	1	-1E+10	1	-1E+10	1
4902624	5	C	08/10/2024	06:33	-128.647	46.852	0	172.50	0	7.2333	0	33.6946	0	26.361	0	170.999	0	158.4	4	53.8	4	-1E+10	1	0.0623	4	0.000376	0	-1E+10	1	-1E+10	1	-1E+10	1
4902624	5	C	08/10/2024	06:33	-128.647	46.852	0	173.00	0	7.2290	0	33.6960	0	26.363	0	171.495	0	-1e10	1	-1e10	1	-1E+10	1	-1e10	1	-1e10	1	-1E+10	1	-1E+10	1	-1E+10	1
4902624	5	C	08/10/2024	06:33	-128.647	46.852	0	173.50	0	7.2204	0	33.6984	0	26.366	0	171.990	0	157.5	4	53.4	4	-1E+10	1	0.0423	4	0.000395	0	-1E+10	1	-1E+10	1	-1E+10	1
4902624	5	C	08/10/2024	06:33	-128.647	46.852	0	174.60	0	7.2016	0	33.7036	0	26.372	0	173.080	0	156.5	4	53.1	4	-1E+10	1	0.0459	4	0.000384	0	-1E+10	1	-1E+10	1	-1E+10	1
4902624	5	C	08/10/2024	06:33	-128.647	46.852	0	175.10	0	7.1930	0	33.7060	0	26.375	0	173.575	0	-1e10	1	-1e10	1	-1E+10	1	-1e10	1	-1e10	1	-1E+10	1	-1E+10	1	-1E+10	1
4902624	5	C	08/10/2024	06:33	-128.647	46.852	0	175.80	0	7.1856	0	33.7092	0	26.379	0	174.269	0	155.6	4	52.7	4	-1E+10	1	0.0432	4	0.000357	0	-1E+10	1	-1E+10	1	-1E+10	1
4902624	5	C	08/10/2024	06:33	-128.647	46.852	0	176.80	0	7.1751	0	33.7136	0	26.384	0	175.260	0	154.5	4	52.4	4	-1E+10	1	0.0418	4	0.000358	0	-1E+10	1	-1E+10	1	-1E+10	1
4902624	5	C	08/10/2024	06:33	-128.647	46.852	0	177.10	0	7.1720	0	33.7150	0	26.385	0	175.557	0	-1e10	1	-1e10	1	-1E+10	1	-1e10	1	-1e10	1	-1E+10	1	-1E+10	1	-1E+10	1
4902624	5	C	08/10/2024	06:33	-128.647	46.852	0	178.00	0	7.1578	0	33.7221	0	26.393	0	176.449	0	153.6	4	52.0	4	-1E+10	1	0.0511	4	0.000388	0	-1E+10	1	-1E+10	1	-1E+10	1
4902624	5	C	08/10/2024	06:33	-128.647	46.852	0	179.00	0	7.1420	0	33.7300	0	26.401	0	177.440	0	-1e10	1	-1e10	1	-1E+10	1	-1e10	1	-1e10	1	-1E+10	1	-1E+10	1	-1E+10	1
4902624	5	C	08/10/2024	06:33	-128.647	46.852	0	179.10	0	7.1405	0	33.7308	0	26.402	0	177.539	0	152.5	4	51.7	4	-1E+10	1	0.0489	4	0.000397	0	-1E+10	1	-1E+10	1	-1E+10	1
4902624	5	C	08/10/2024	06:33	-128.647	46.852	0	180.20	0	7.1237	0	33.7395	0	26.411	0	178.629	0	151.7	4	51.4	4	-1E+10	1	0.0365	4	0.000447	0	-1E+10	1	-1E+10	1	-1E+10	1
4902624	5	C	08/10/2024	06:33	-128.647	46.852	0	180.90	0	7.1130	0	33.7450	0	26.417	0	179.322	0	-1e10	1	-1e10	1	-1E+10	1	-1e10	1	-1e10	1	-1E+10	1	-1E+10	1	-1E+10	1
4902624	5	C	08/10/2024	06:33	-128.647	46.852	0	181.40	0	7.1106	0	33.7460	0	26.418	0	179.818	0	150.9	4	51.1	4	-1E+10	1	0.0584	4	0.000376	0	-1E+10	1	-1E+10	1	-1E+10	1
4902624	5	C	08/10/2024	06:33	-128.647	46.852	0	182.50	0	7.1054	0	33.7480	0	26.421	0	180.908	0	150.1	4	50.8	4	-1E+10	1	0.0527	4	0.000367	0	-1E+10	1	-1E+10	1	-1E+10	1
4902624	5	C	08/10/2024	06:33	-128.647	46.852	0	183.00	0	7.1030	0	33.7490	0	26.422	0	181.403	0	-1e10	1	-1e10	1	-1E+10	1	-1e10	1	-1e10	1	-1E+10	1	-1E+10	1	-1E+10	1
4902624	5	C	08/10/2024	06:33	-128.647	46.852	0	183.70	0	7.0978	0	33.7511	0	26.424	0	182.097	0	149.2	4	50.5	4	-1E+10	1	0.0558	4	0.000395	0	-1E+10	1	-1E+10	1	-1E+10	1
4902624	5	C	08/10/2024	06:33	-128.647	46.852	0	184.90	0	7.0887	0	33.7547	0	26.428	0	183.286	0	148.3	4	50.2	4	-1E+10	1	0.0541	4	0.000412	0	-1E+10	1	-1E+10	1	-1E+10	1
4902624	5	C	08/10/2024	06:33	-128.647	46.852	0	185.00	0	7.0880	0	33.7550	0	26.429	0	183.385	0	-1e10	1	-1e10	1	-1E+10	1	-1e10	1	-1e10	1	-1E+10	1	-1E+10	1	-1E+10	1
4902624	5	C	08/10/2024	06:33	-128.647	46.852	0	186.10	0	7.0562	0	33.7573	0	26.435	0	184.475	0	147.3	4	49.8	4	-1E+10	1	0.0511	4	0.000623	0	-1E+10	1	-1E+10	1	-1E+10	1
4902624	5	C	08/10/2024	06:33	-128.647	46.852	0	186.90	0	7.0330	0	33.7590	0	26.439	0	185.267	0	-1e10	1	-1e10	1	-1E+10	1	-1e10	1	-1e10	1	-1E+10	1	-1E+10	1	-1E+10	1
4902624	5	C	08/10/2024	06:33	-128.647	46.852	0	187.30	0	7.0233	0	33.7601	0	26.441	0	185.664	0	146.3	4	49.4	4	-1E+10	1	0.0487	4	0.000689	0	-1E+10	1	-1E+10	1	-1E+10	1
4902624	5	C	08/10/2024	06:33	-128.647	46.852	0	188.50	0	6.9941	0	33.7636	0	26.448	0	186.853	0	145.3	4	49.1	4	-1E+10	1	0.0438	4	0.000404	0	-1E+10	1	-1E+10	1	-1E+10	1
4902624	5	C	08/10/2024	06:33	-128.647	46.852	0	189.00	0	6.9820	0	33.7650	0	26.451	0	187.348	0	-1e10	1	-1e10	1	-1E+10	1	-1e10	1	-1e10	1	-1E+10	1	-1E+10	1	-1E+10	1
4902624	5	C	08/10/2024	06:33	-128.647	46.852	0	189.70	0	6.9657	0	33.7690	0	26.456	0	188.042	0	144.2	4	48.7	4	-1E+10	1	0.0459	4	0.000418	0	-1E+10	1	-1E+10	1	-1E+10	1
4902624	5	C	08/10/2024	06:33	-128.647	46.852	0	190.90	0	6.9377	0	33.7759	0	26.466	0	189.231	0	143.5	4	48.4	4	-1E+10	1	0.0584	4	0.000388	0	-1E+10	1	-1E+10	1	-1E+10	1
4902624	5	C	08/10/2024	06:33	-128.647	46.852	0	191.10	0	6.9330	0	33.7770	0	26.467	0	189.429	0	-1e10	1	-1e10	1	-1E+10	1	-1e10	1	-1e10	1	-1E+10	1	-1E+10	1	-1E+10	1
4902624	5	C	08/10/2024	06:33	-128.647	46.852	0	192.10	0	6.9209	0	33.7770	0	26.469	0	190.420	0	142.7	4	48.1	4	-1E+10	1	0.0526	4	0.000388	0	-1E+10	1	-1E+10	1	-1E+10	1
4902624	5	C	08/10/2024	06:33	-128.647	46.852	0	193.00	0	6.9100	0	33.7770	0	26.470	0	191.311	0	-1e10	1	-1e10	1	-1E+10	1	-1e10	1	-1e10	1	-1E+10	1	-1E+10	1	-1E+10	1
4902624	5	C	08/10/2024	06:33	-128.647	46.852	0	193.40	0	6.9050	0	33.7784	0	26.472	0	191.708	0	141.9	4	47.8	4	-1E+10	1	0.0399	4	0.000415	0	-1E+10	1	-1E+10	1	-1E+10	1
4902624	5	C	08/10/2024	06:33	-128.647	46.852	0	194.70	0	6.8888	0	33.7830	0	26.478	0	192.996	0	140.7	4	47.4	4	-1E+10	1	0.0414	4	0.000400	0	-1E+10	1	-1E+10	1	-1E+10	1
4902624	5	C	08/10/2024	06:33	-128.647	46.852	0	195.00	0	6.8850	0	33.7840	0	26.479	0	193.293	0	-1e10	1	-1e10	1	-1E+10	1	-1e10	1	-1e10	1	-1E+10	1	-1E+10	1	-1E+10	1
4902624	5	C	08/10/2024	06:33	-128.647	46.852	0	195.90	0	6.8730	0	33.7861	0	26.482	0	194.184	0	139.6	4	47.0	4	-1E+10	1	0.0472	4	0.000404	0	-1E+10	1	-1E+10	1	-1E+10	1
4902624	5	C	08/10/2024	06:33	-128.647	46.852	0	197.10	0	6.8570	0	33.7890	0	26.487	0	195.373	0	-1e10	1	-1e10	1	-1E+10	1	-1e10	1	-1e10	1	-1E+10	1	-1E+10	1	-1E+10	1
4902624	5	C	08/10/2024	06:33	-128.647	46.852	0	197.20	0	6.8562	0	33.7892	0	26.487	0	195.472	0	138.7	4	46.7	4	-1E+10	1	0.0511	4	0.000428	0	-1E+10	1	-1E+10	1	-1E+10	1
4902624	5	C	08/10/2024	06:33	-128.647	46.852	0	198.50	0	6.8465	0	33.7911	0	26.490	0	196.760	0	137.9	4	46.4	4	-1E+10	1	0.0462	4	0.000423	0	-1E+10	1	-1E+10	1	-1E+10	1
4902624	5	C	08/10/2024	06:33	-128.647	46.852	0	199.10	0	6.8420	0	33.7920	0	26.491	0	197.355	0	-1e10	1	-1e10	1	-1E+10	1	-1e10	1	-1e10	1	-1E+10	1	-1E+10	1	-1E+10	1
4902624	5	C	08/10/2024	06:33	-128.647	46.852	0	199.70	0	6.8417	0	33.7920	0	26.491	0	197.949	0	137.0	4	46.1	4	-1E+10	1	0.0394	4	0.000403	0	-1E+10	1	-1E+10	1	-1E+10	1
4902624	5	C	08/10/2024	06:33	-128.647	46.852	0	201.00	0	6.8411	0	33.7920	0	26.491	0	199.237	0	135.9	4	45.8	4	-1E+10	1	0.0584	4	0.000423	0	-1E+10	1	-1E+10	1	-1E+10	1
4902624	5	C	08/10/2024	06:33	-128.647	46.852	0	201.10	0	6.8410	0	33.7920	0	26.491	0	199.336	0	-1e10	1	-1e10	1	-1E+10	1	-1e10	1	-1e10	1	-1E+10	1	-1E+10	1	-1E+10	1
4902624	5	C	08/10/2024	06:33	-128.647	46.852	0	202.20	0	6.8333	0	33.7942	0	26.494	0	200.426	0	135.1	4	45.4	4	-1E+10	1	0.0365	4	0.000411	0	-1E+10	1	-1E+10	1	-1E+10	1
4902624	5	C	08/10/2024	06:33	-128.647	46.852	0	203.10	0	6.8270	0	33.7960	0	26.496	0	201.318	0	-1e10	1	-1e10	1	-1E+10	1	-1e10	1	-1e10	1	-1E+10	1	-1E+10	1	-1E+10	1
4902624	5	C	08/10/2024	06:33	-128.647	46.852	0	203.40	0	6.8239	0	33.7966	0	26.497	0	201.615	0	134.6	4	45.3	4	-1E+10	1	0.0482	4	0.000393	0	-1E+10	1	-1E+10	1	-1E+10	1
4902624	5	C	08/10/2024	06:33	-128.647	46.852	0	204.70	0	6.8102	0	33.7992	0	26.501	0	202.903	0	133.9	4	45.0	4	-1E+10	1	0.0462	4	0.000388	0	-1E+10	1	-1E+10	1	-1E+10	1
4902624	5	C	08/10/2024	06:33	-128.647	46.852	0	205.10	0	6.8060	0	33.8000	0	26.502	0	203.299	0	-1e10	1	-1e10	1	-1E+10	1	-1e10	1	-1e10	1	-1E+10	1	-1E+10	1	-1E+10	1
4902624	5	C	08/10/2024	06:33	-128.647	46.852	0	205.90	0	6.7916	0	33.8020	0	26.506	0	204.092	0	133.0	4	44.7	4	-1E+10	1	0.0438	4	0.000407	0	-1E+10	1	-1E+10	1	-1E+10	1
4902624	5	C	08/10/2024	06:33	-128.647	46.852	0	207.10	0	6.7700	0	33.8050	0	26.511	0	205.281	0	-1e10	1	-1e10	1	-1E+10	1	-1e10	1	-1e10	1	-1E+10	1	-1E+10	1	-1E+10	1
4902624	5	C	08/10/2024	06:33	-128.647	46.852	0	207.20	0	6.7692	0	33.8051	0	26.511	0	205.380	0	132.0	4	44.3	4	-1E+10	1	0.0438	4	0.000406	0	-1E+10	1	-1E+10	1	-1E+10	1
4902624	5	C	08/10/2024	06:33	-128.647	46.852	0	208.50	0	6.7589	0	33.8057	0	26.513	0	206.668	0	130.9	4	44.0	4	-1E+10	1	0.0438	4	0.000405	0	-1E+10	1	-1E+10	1	-1E+10	1
4902624	5	C	08/10/2024	06:33	-128.647	46.852	0	209.00	0	6.7550	0	33.8060	0	26.514	0	207.163	0	-1e10	1	-1e10	1	-1E+10	1	-1e10	1	-1e10	1	-1E+10	1	-1E+10	1	-1E+10	1
4902624	5	C	08/10/2024	06:33	-128.647	46.852	0	209.80	0	6.7508	0	33.8068	0	26.515	0	207.956	0	129.8	4	43.6	4	-1E+10	1	0.0404	4	0.000429	0	-1E+10	1	-1E+10	1	-1E+10	1
4902624	5	C	08/10/2024	06:33	-128.647	46.852	0	210.90	0	6.7450	0	33.8080	0	26.517	0	209.046	0	-1e10	1	-1e10	1	-1E+10	1	-1e10	1	-1e10	1	-1E+10	1	-1E+10	1	-1E+10	1
4902624	5	C	08/10/2024	06:33	-128.647	46.852	0	211.00	0	6.7439	0	33.8083	0	26.517	0	209.145	0	128.6	4	43.2	4	-1E+10	1	0.0311	4	0.000411	0	-1E+10	1	-1E+10	1	-1E+10	1
4902624	5	C	08/10/2024	06:33	-128.647	46.852	0	212.30	0	6.7296	0	33.8122	0	26.522	0	210.433	0	127.3	4	42.7	4	-1E+10	1	0.0438	4	0.000411	0	-1E+10	1	-1E+10	1	-1E+10	1
4902624	5	C	08/10/2024	06:33	-128.647	46.852	0	212.90	0	6.7230	0	33.8140	0	26.525	0	211.027	0	-1e10	1	-1e10	1	-1E+10	1	-1e10	1	-1e10	1	-1E+10	1	-1E+10	1	-1E+10	1
4902624	5	C	08/10/2024	06:33	-128.647	46.852	0	213.50	0	6.7182	0	33.8149	0	26.526	0	211.621	0	126.2	4	42.4	4	-1E+10	1	0.0438	4	0.000411	0	-1E+10	1	-1E+10	1	-1E+10	1
4902624	5	C	08/10/2024	06:33	-128.647	46.852	0	214.80	0	6.7078	0	33.8169	0	26.529	0	212.909	0	125.4	4	42.1	4	-1E+10	1	0.0438	4	0.000402	0	-1E+10	1	-1E+10	1	-1E+10	1
4902624	5	C	08/10/2024	06:33	-128.647	46.852	0	214.90	0	6.7070	0	33.8170	0	26.529	0	213.008	0	-1e10	1	-1e10	1	-1E+10	1	-1e10	1	-1e10	1	-1E+10	1	-1E+10	1	-1E+10	1
4902624	5	C	08/10/2024	06:33	-128.647	46.852	0	216.10	0	6.6973	0	33.8187	0	26.532	0	214.197	0	125.0	4	41.9	4	-1E+10	1	0.0438	4	0.000368	0	-1E+10	1	-1E+10	1	-1E+10	1
4902624	5	C	08/10/2024	06:33	-128.647	46.852	0	217.00	0	6.6900	0	33.8200	0	26.534	0	215.089	0	-1e10	1	-1e10	1	-1E+10	1	-1e10	1	-1e10	1	-1E+10	1	-1E+10	1	-1E+10	1
4902624	5	C	08/10/2024	06:33	-128.647	46.852	0	217.40	0	6.6866	0	33.8202	0	26.534	0	215.485	0	124.6	4	41.8	4	-1E+10	1	0.0474	4	0.000376	0	-1E+10	1	-1E+10	1	-1E+10	1
4902624	5	C	08/10/2024	06:33	-128.647	46.852	0	218.60	0	6.6764	0	33.8208	0	26.536	0	216.674	0	124.1	4	41.6	4	-1E+10	1	0.0487	4	0.000384	0	-1E+10	1	-1E+10	1	-1E+10	1
4902624	5	C	08/10/2024	06:33	-128.647	46.852	0	219.00	0	6.6730	0	33.8210	0	26.537	0	217.070	0	-1e10	1	-1e10	1	-1E+10	1	-1e10	1	-1e10	1	-1E+10	1	-1E+10	1	-1E+10	1
4902624	5	C	08/10/2024	06:33	-128.647	46.852	0	219.90	0	6.6685	0	33.8210	0	26.538	0	217.962	0	123.5	4	41.4	4	-1E+10	1	0.0462	4	0.000364	0	-1E+10	1	-1E+10	1	-1E+10	1
4902624	5	C	08/10/2024	06:33	-128.647	46.852	0	221.00	0	6.6630	0	33.8210	0	26.538	0	219.051	0	-1e10	1	-1e10	1	-1E+10	1	-1e10	1	-1e10	1	-1E+10	1	-1E+10	1	-1E+10	1
4902624	5	C	08/10/2024	06:33	-128.647	46.852	0	221.20	0	6.6615	0	33.8212	0	26.539	0	219.250	0	123.0	4	41.2	4	-1E+10	1	0.0511	4	0.000392	0	-1E+10	1	-1E+10	1	-1E+10	1
4902624	5	C	08/10/2024	06:33	-128.647	46.852	0	222.40	0	6.6523	0	33.8223	0	26.541	0	220.438	0	122.6	4	41.1	4	-1E+10	1	0.0511	4	0.000411	0	-1E+10	1	-1E+10	1	-1E+10	1
4902624	5	C	08/10/2024	06:33	-128.647	46.852	0	223.10	0	6.6470	0	33.8230	0	26.542	0	221.132	0	-1e10	1	-1e10	1	-1E+10	1	-1e10	1	-1e10	1	-1E+10	1	-1E+10	1	-1E+10	1
4902624	5	C	08/10/2024	06:33	-128.647	46.852	0	223.70	0	6.6371	0	33.8245	0	26.544	0	221.726	0	122.2	4	40.9	4	-1E+10	1	0.0438	4	0.000376	0	-1E+10	1	-1E+10	1	-1E+10	1
4902624	5	C	08/10/2024	06:33	-128.647	46.852	0	225.00	0	6.6156	0	33.8278	0	26.550	0	223.014	0	122.0	4	40.9	4	-1E+10	1	0.0438	4	0.000417	0	-1E+10	1	-1E+10	1	-1E+10	1
4902624	5	C	08/10/2024	06:33	-128.647	46.852	0	225.10	0	6.6140	0	33.8280	0	26.550	0	223.113	0	-1e10	1	-1e10	1	-1E+10	1	-1e10	1	-1e10	1	-1E+10	1	-1E+10	1	-1E+10	1
4902624	5	C	08/10/2024	06:33	-128.647	46.852	0	226.30	0	6.5996	0	33.8286	0	26.553	0	224.302	0	121.8	4	40.8	4	-1E+10	1	0.0538	4	0.000407	0	-1E+10	1	-1E+10	1	-1E+10	1
4902624	5	C	08/10/2024	06:33	-128.647	46.852	0	227.10	0	6.5900	0	33.8290	0	26.554	0	225.094	0	-1e10	1	-1e10	1	-1E+10	1	-1e10	1	-1e10	1	-1E+10	1	-1E+10	1	-1E+10	1
4902624	5	C	08/10/2024	06:33	-128.647	46.852	0	227.50	0	6.5858	0	33.8290	0	26.555	0	225.491	0	121.4	4	40.6	4	-1E+10	1	0.0541	4	0.000372	0	-1E+10	1	-1E+10	1	-1E+10	1
4902624	5	C	08/10/2024	06:33	-128.647	46.852	0	228.70	0	6.5732	0	33.8290	0	26.557	0	226.679	0	120.9	4	40.4	4	-1E+10	1	0.0511	4	0.000359	0	-1E+10	1	-1E+10	1	-1E+10	1
4902624	5	C	08/10/2024	06:33	-128.647	46.852	0	229.10	0	6.5690	0	33.8290	0	26.557	0	227.076	0	-1e10	1	-1e10	1	-1E+10	1	-1e10	1	-1e10	1	-1E+10	1	-1E+10	1	-1E+10	1
4902624	5	C	08/10/2024	06:33	-128.647	46.852	0	229.70	0	6.5583	0	33.8296	0	26.559	0	227.670	0	120.1	4	40.2	4	-1E+10	1	0.0511	4	0.000386	0	-1E+10	1	-1E+10	1	-1E+10	1
4902624	5	C	08/10/2024	06:33	-128.647	46.852	0	230.60	0	6.5422	0	33.8306	0	26.562	0	228.561	0	119.4	4	39.9	4	-1E+10	1	0.0493	4	0.000408	0	-1E+10	1	-1E+10	1	-1E+10	1
4902624	5	C	08/10/2024	06:33	-128.647	46.852	0	231.00	0	6.5350	0	33.8310	0	26.563	0	228.958	0	-1e10	1	-1e10	1	-1E+10	1	-1e10	1	-1e10	1	-1E+10	1	-1E+10	1	-1E+10	1
4902624	5	C	08/10/2024	06:33	-128.647	46.852	0	231.40	0	6.5306	0	33.8316	0	26.564	0	229.354	0	118.7	4	39.7	4	-1E+10	1	0.0467	4	0.000371	0	-1E+10	1	-1E+10	1	-1E+10	1
4902624	5	C	08/10/2024	06:33	-128.647	46.852	0	232.20	0	6.5218	0	33.8328	0	26.566	0	230.146	0	118.3	4	39.5	4	-1E+10	1	0.0584	4	0.000399	0	-1E+10	1	-1E+10	1	-1E+10	1
4902624	5	C	08/10/2024	06:33	-128.647	46.852	0	233.00	0	6.5130	0	33.8340	0	26.568	0	230.939	0	114.7	4	38.3	4	-1E+10	1	0.0389	4	0.000337	0	-1E+10	1	-1E+10	1	-1E+10	1
4902624	5	C	08/10/2024	06:33	-128.647	46.852	0	233.80	0	6.5023	0	33.8348	0	26.570	0	231.731	0	117.4	4	39.2	4	-1E+10	1	0.0535	4	0.000548	0	-1E+10	1	-1E+10	1	-1E+10	1
4902624	5	C	08/10/2024	06:33	-128.647	46.852	0	234.70	0	6.4903	0	33.8356	0	26.573	0	232.623	0	116.8	4	39.0	4	-1E+10	1	0.0533	4	0.000528	0	-1E+10	1	-1E+10	1	-1E+10	1
4902624	5	C	08/10/2024	06:33	-128.647	46.852	0	235.10	0	6.4850	0	33.8360	0	26.574	0	233.019	0	-1e10	1	-1e10	1	-1E+10	1	-1e10	1	-1e10	1	-1E+10	1	-1E+10	1	-1E+10	1
4902624	5	C	08/10/2024	06:33	-128.647	46.852	0	235.50	0	6.4798	0	33.8364	0	26.575	0	233.415	0	116.2	4	38.8	4	-1E+10	1	0.0511	4	0.000435	0	-1E+10	1	-1E+10	1	-1E+10	1
4902624	5	C	08/10/2024	06:33	-128.647	46.852	0	236.20	0	6.4707	0	33.8371	0	26.576	0	234.109	0	115.5	4	38.5	4	-1E+10	1	0.0511	4	0.000373	0	-1E+10	1	-1E+10	1	-1E+10	1
4902624	5	C	08/10/2024	06:33	-128.647	46.852	0	237.10	0	6.4590	0	33.8380	0	26.579	0	235.000	0	111.6	4	37.2	4	-1E+10	1	0.0453	4	0.000364	0	-1E+10	1	-1E+10	1	-1E+10	1
4902624	5	C	08/10/2024	06:33	-128.647	46.852	0	237.90	0	6.4464	0	33.8388	0	26.581	0	235.793	0	114.0	4	38.0	4	-1E+10	1	0.0420	4	0.000367	0	-1E+10	1	-1E+10	1	-1E+10	1
4902624	5	C	08/10/2024	06:33	-128.647	46.852	0	238.70	0	6.4337	0	33.8397	0	26.583	0	236.585	0	113.2	4	37.7	4	-1E+10	1	0.0548	4	0.000370	0	-1E+10	1	-1E+10	1	-1E+10	1
4902624	5	C	08/10/2024	06:33	-128.647	46.852	0	239.00	0	6.4290	0	33.8400	0	26.584	0	236.882	0	-1e10	1	-1e10	1	-1E+10	1	-1e10	1	-1e10	1	-1E+10	1	-1E+10	1	-1E+10	1
4902624	5	C	08/10/2024	06:33	-128.647	46.852	0	239.50	0	6.4261	0	33.8414	0	26.586	0	237.378	0	112.5	4	37.5	4	-1E+10	1	0.0438	4	0.000350	0	-1E+10	1	-1E+10	1	-1E+10	1
4902624	5	C	08/10/2024	06:33	-128.647	46.852	0	240.30	0	6.4216	0	33.8437	0	26.588	0	238.170	0	111.8	4	37.3	4	-1E+10	1	0.0438	4	0.000341	0	-1E+10	1	-1E+10	1	-1E+10	1
4902624	5	C	08/10/2024	06:33	-128.647	46.852	0	241.10	0	6.4170	0	33.8460	0	26.590	0	238.963	0	108.1	4	36.0	4	-1E+10	1	0.0496	4	0.000416	0	-1E+10	1	-1E+10	1	-1E+10	1
4902624	5	C	08/10/2024	06:33	-128.647	46.852	0	242.00	0	6.4039	0	33.8487	0	26.594	0	239.854	0	110.5	4	36.8	4	-1E+10	1	0.0383	4	0.000373	0	-1E+10	1	-1E+10	1	-1E+10	1
4902624	5	C	08/10/2024	06:33	-128.647	46.852	0	242.80	0	6.3924	0	33.8511	0	26.598	0	240.647	0	109.9	4	36.6	4	-1E+10	1	0.0467	4	0.000338	0	-1E+10	1	-1E+10	1	-1E+10	1
4902624	5	C	08/10/2024	06:33	-128.647	46.852	0	243.10	0	6.3880	0	33.8520	0	26.599	0	240.944	0	-1e10	1	-1e10	1	-1E+10	1	-1e10	1	-1e10	1	-1E+10	1	-1E+10	1	-1E+10	1
4902624	5	C	08/10/2024	06:33	-128.647	46.852	0	243.60	0	6.3838	0	33.8525	0	26.600	0	241.439	0	109.5	4	36.5	4	-1E+10	1	0.0474	4	0.000340	0	-1E+10	1	-1E+10	1	-1E+10	1
4902624	5	C	08/10/2024	06:33	-128.647	46.852	0	244.40	0	6.3771	0	33.8534	0	26.601	0	242.231	0	109.1	4	36.3	4	-1E+10	1	0.0438	4	0.000352	0	-1E+10	1	-1E+10	1	-1E+10	1
4902624	5	C	08/10/2024	06:33	-128.647	46.852	0	245.00	0	6.3720	0	33.8540	0	26.603	0	242.826	0	-1e10	1	-1e10	1	-1E+10	1	-1e10	1	-1e10	1	-1E+10	1	-1E+10	1	-1E+10	1
4902624	5	C	08/10/2024	06:33	-128.647	46.852	0	245.30	0	6.3704	0	33.8541	0	26.603	0	243.123	0	108.8	4	36.2	4	-1E+10	1	0.0460	4	0.000358	0	-1E+10	1	-1E+10	1	-1E+10	1
4902624	5	C	08/10/2024	06:33	-128.647	46.852	0	246.10	0	6.3660	0	33.8545	0	26.604	0	243.915	0	108.4	4	36.1	4	-1E+10	1	0.0504	4	0.000377	0	-1E+10	1	-1E+10	1	-1E+10	1
4902624	5	C	08/10/2024	06:33	-128.647	46.852	0	247.00	0	6.3610	0	33.8550	0	26.605	0	244.807	0	105.0	4	35.0	4	-1E+10	1	0.0438	4	0.000385	0	-1E+10	1	-1E+10	1	-1E+10	1
4902624	5	C	08/10/2024	06:33	-128.647	46.852	0	247.80	0	6.3542	0	33.8558	0	26.606	0	245.599	0	107.5	4	35.8	4	-1E+10	1	0.0365	4	0.000376	0	-1E+10	1	-1E+10	1	-1E+10	1
4902624	5	C	08/10/2024	06:33	-128.647	46.852	0	248.70	0	6.3465	0	33.8567	0	26.608	0	246.491	0	107.1	4	35.6	4	-1E+10	1	0.0365	4	0.000376	0	-1E+10	1	-1E+10	1	-1E+10	1
4902624	5	C	08/10/2024	06:33	-128.647	46.852	0	249.00	0	6.3440	0	33.8570	0	26.609	0	246.788	0	-1e10	1	-1e10	1	-1E+10	1	-1e10	1	-1e10	1	-1E+10	1	-1E+10	1	-1E+10	1
4902624	5	C	08/10/2024	06:33	-128.647	46.852	0	249.50	0	6.3400	0	33.8577	0	26.610	0	247.283	0	106.7	4	35.5	4	-1E+10	1	0.0416	4	0.000376	0	-1E+10	1	-1E+10	1	-1E+10	1
4902624	5	C	08/10/2024	06:33	-128.647	46.852	0	250.30	0	6.3336	0	33.8590	0	26.612	0	248.075	0	106.5	4	35.4	4	-1E+10	1	0.0560	4	0.000395	0	-1E+10	1	-1E+10	1	-1E+10	1
4902624	5	C	08/10/2024	06:33	-128.647	46.852	0	251.00	0	6.3280	0	33.8600	0	26.613	0	248.769	0	-1e10	1	-1e10	1	-1E+10	1	-1e10	1	-1e10	1	-1E+10	1	-1E+10	1	-1E+10	1
4902624	5	C	08/10/2024	06:33	-128.647	46.852	0	251.20	0	6.3258	0	33.8601	0	26.613	0	248.967	0	106.2	4	35.3	4	-1E+10	1	0.0511	4	0.000399	0	-1E+10	1	-1E+10	1	-1E+10	1
4902624	5	C	08/10/2024	06:33	-128.647	46.852	0	252.00	0	6.3170	0	33.8605	0	26.615	0	249.759	0	106.0	4	35.3	4	-1E+10	1	0.0453	4	0.000377	0	-1E+10	1	-1E+10	1	-1E+10	1
4902624	5	C	08/10/2024	06:33	-128.647	46.852	0	252.90	0	6.3071	0	33.8610	0	26.617	0	250.651	0	105.8	4	35.2	4	-1E+10	1	0.0625	4	0.000352	0	-1E+10	1	-1E+10	1	-1E+10	1
4902624	5	C	08/10/2024	06:33	-128.647	46.852	0	253.00	0	6.3060	0	33.8610	0	26.617	0	250.750	0	-1e10	1	-1e10	1	-1E+10	1	-1e10	1	-1e10	1	-1E+10	1	-1E+10	1	-1E+10	1
4902624	5	C	08/10/2024	06:33	-128.647	46.852	0	253.80	0	6.2812	0	33.8591	0	26.618	0	251.542	0	105.4	4	35.0	4	-1E+10	1	0.0511	4	0.000352	0	-1E+10	1	-1E+10	1	-1E+10	1
4902624	5	C	08/10/2024	06:33	-128.647	46.852	0	254.60	0	6.2565	0	33.8572	0	26.620	0	252.335	0	104.9	4	34.8	4	-1E+10	1	0.0511	4	0.000352	0	-1E+10	1	-1E+10	1	-1E+10	1
4902624	5	C	08/10/2024	06:33	-128.647	46.852	0	255.10	0	6.2410	0	33.8560	0	26.621	0	252.830	0	-1e10	1	-1e10	1	-1E+10	1	-1e10	1	-1e10	1	-1E+10	1	-1E+10	1	-1E+10	1
4902624	5	C	08/10/2024	06:33	-128.647	46.852	0	255.50	0	6.2374	0	33.8560	0	26.622	0	253.226	0	104.3	4	34.6	4	-1E+10	1	0.0511	4	0.000352	0	-1E+10	1	-1E+10	1	-1E+10	1
4902624	5	C	08/10/2024	06:33	-128.647	46.852	0	256.30	0	6.2303	0	33.8560	0	26.623	0	254.018	0	103.6	4	34.4	4	-1E+10	1	0.0397	4	0.000352	0	-1E+10	1	-1E+10	1	-1E+10	1
4902624	5	C	08/10/2024	06:33	-128.647	46.852	0	257.00	0	6.2240	0	33.8560	0	26.623	0	254.712	0	-1e10	1	-1e10	1	-1E+10	1	-1e10	1	-1e10	1	-1E+10	1	-1E+10	1	-1E+10	1
4902624	5	C	08/10/2024	06:33	-128.647	46.852	0	257.20	0	6.2250	0	33.8564	0	26.623	0	254.910	0	102.8	4	34.1	4	-1E+10	1	0.0518	4	0.000336	0	-1E+10	1	-1E+10	1	-1E+10	1
4902624	5	C	08/10/2024	06:33	-128.647	46.852	0	258.00	0	6.2292	0	33.8579	0	26.624	0	255.702	0	102.0	4	33.9	4	-1E+10	1	0.0484	4	0.000345	0	-1E+10	1	-1E+10	1	-1E+10	1
4902624	5	C	08/10/2024	06:33	-128.647	46.852	0	258.90	0	6.2340	0	33.8596	0	26.625	0	256.594	0	101.2	4	33.6	4	-1E+10	1	0.0447	4	0.000355	0	-1E+10	1	-1E+10	1	-1E+10	1
4902624	5	C	08/10/2024	06:33	-128.647	46.852	0	259.10	0	6.2350	0	33.8600	0	26.625	0	256.792	0	-1e10	1	-1e10	1	-1E+10	1	-1e10	1	-1e10	1	-1E+10	1	-1E+10	1	-1E+10	1
4902624	5	C	08/10/2024	06:33	-128.647	46.852	0	259.80	0	6.2372	0	33.8629	0	26.627	0	257.485	0	100.5	4	33.4	4	-1E+10	1	0.0555	4	0.000350	0	-1E+10	1	-1E+10	1	-1E+10	1
4902624	5	C	08/10/2024	06:33	-128.647	46.852	0	260.60	0	6.2397	0	33.8663	0	26.629	0	258.278	0	99.9	4	33.2	4	-1E+10	1	0.0511	4	0.000358	0	-1E+10	1	-1E+10	1	-1E+10	1
4902624	5	C	08/10/2024	06:33	-128.647	46.852	0	261.00	0	6.2410	0	33.8680	0	26.631	0	258.674	0	-1e10	1	-1e10	1	-1E+10	1	-1e10	1	-1e10	1	-1E+10	1	-1E+10	1	-1E+10	1
4902624	5	C	08/10/2024	06:33	-128.647	46.852	0	261.50	0	6.2390	0	33.8693	0	26.632	0	259.169	0	99.4	4	33.0	4	-1E+10	1	0.0511	4	0.000329	0	-1E+10	1	-1E+10	1	-1E+10	1
4902624	5	C	08/10/2024	06:33	-128.647	46.852	0	262.30	0	6.2358	0	33.8713	0	26.634	0	259.961	0	99.0	4	32.9	4	-1E+10	1	0.0511	4	0.000294	0	-1E+10	1	-1E+10	1	-1E+10	1
4902624	5	C	08/10/2024	06:33	-128.647	46.852	0	263.00	0	6.2330	0	33.8730	0	26.636	0	260.655	0	-1e10	1	-1e10	1	-1E+10	1	-1e10	1	-1e10	1	-1E+10	1	-1E+10	1	-1E+10	1
4902624	5	C	08/10/2024	06:33	-128.647	46.852	0	263.20	0	6.2311	0	33.8733	0	26.636	0	260.853	0	98.7	4	32.8	4	-1E+10	1	0.0577	4	0.000325	0	-1E+10	1	-1E+10	1	-1E+10	1
4902624	5	C	08/10/2024	06:33	-128.647	46.852	0	264.00	0	6.2235	0	33.8746	0	26.638	0	261.645	0	98.4	4	32.7	4	-1E+10	1	0.0584	4	0.000353	0	-1E+10	1	-1E+10	1	-1E+10	1
4902624	5	C	08/10/2024	06:33	-128.647	46.852	0	264.90	0	6.2150	0	33.8760	0	26.640	0	262.536	0	95.5	4	31.7	4	-1E+10	1	0.0487	4	0.000348	0	-1E+10	1	-1E+10	1	-1E+10	1
4902624	5	C	08/10/2024	06:33	-128.647	46.852	0	265.70	0	6.2050	0	33.8768	0	26.642	0	263.329	0	98.0	4	32.5	4	-1E+10	1	0.0438	4	0.000341	0	-1E+10	1	-1E+10	1	-1E+10	1
4902624	5	C	08/10/2024	06:33	-128.647	46.852	0	266.50	0	6.1950	0	33.8776	0	26.644	0	264.121	0	97.8	4	32.5	4	-1E+10	1	0.0416	4	0.000333	0	-1E+10	1	-1E+10	1	-1E+10	1
4902624	5	C	08/10/2024	06:33	-128.647	46.852	0	266.90	0	6.1900	0	33.8780	0	26.645	0	264.517	0	-1e10	1	-1e10	1	-1E+10	1	-1e10	1	-1e10	1	-1E+10	1	-1E+10	1	-1E+10	1
4902624	5	C	08/10/2024	06:33	-128.647	46.852	0	267.40	0	6.1858	0	33.8777	0	26.645	0	265.013	0	97.6	4	32.4	4	-1E+10	1	0.0414	4	0.000320	0	-1E+10	1	-1E+10	1	-1E+10	1
4902624	5	C	08/10/2024	06:33	-128.647	46.852	0	268.20	0	6.1789	0	33.8773	0	26.646	0	265.805	0	97.4	4	32.3	4	-1E+10	1	0.0577	4	0.000332	0	-1E+10	1	-1E+10	1	-1E+10	1
4902624	5	C	08/10/2024	06:33	-128.647	46.852	0	268.90	0	6.1730	0	33.8770	0	26.647	0	266.498	0	-1e10	1	-1e10	1	-1E+10	1	-1e10	1	-1e10	1	-1E+10	1	-1E+10	1	-1E+10	1
4902624	5	C	08/10/2024	06:33	-128.647	46.852	0	269.10	0	6.1709	0	33.8771	0	26.647	0	266.696	0	97.0	4	32.2	4	-1E+10	1	0.0511	4	0.000364	0	-1E+10	1	-1E+10	1	-1E+10	1
4902624	5	C	08/10/2024	06:33	-128.647	46.852	0	269.90	0	6.1625	0	33.8775	0	26.648	0	267.489	0	96.8	4	32.1	4	-1E+10	1	0.0511	4	0.000326	0	-1E+10	1	-1E+10	1	-1E+10	1
4902624	5	C	08/10/2024	06:33	-128.647	46.852	0	270.80	0	6.1531	0	33.8779	0	26.650	0	268.380	0	96.5	4	32.0	4	-1E+10	1	0.0575	4	0.000389	0	-1E+10	1	-1E+10	1	-1E+10	1
4902624	5	C	08/10/2024	06:33	-128.647	46.852	0	271.10	0	6.1500	0	33.8780	0	26.650	0	268.677	0	-1e10	1	-1e10	1	-1E+10	1	-1e10	1	-1e10	1	-1E+10	1	-1E+10	1	-1E+10	1
4902624	5	C	08/10/2024	06:33	-128.647	46.852	0	271.60	0	6.1450	0	33.8780	0	26.651	0	269.172	0	96.2	4	31.9	4	-1E+10	1	0.0491	4	0.000347	0	-1E+10	1	-1E+10	1	-1E+10	1
4902624	5	C	08/10/2024	06:33	-128.647	46.852	0	272.50	0	6.1360	0	33.8780	0	26.652	0	270.064	0	95.8	4	31.8	4	-1E+10	1	0.0438	4	0.000323	0	-1E+10	1	-1E+10	1	-1E+10	1
4902624	5	C	08/10/2024	06:33	-128.647	46.852	0	273.10	0	6.1300	0	33.8780	0	26.653	0	270.658	0	-1e10	1	-1e10	1	-1E+10	1	-1e10	1	-1e10	1	-1E+10	1	-1E+10	1	-1E+10	1
4902624	5	C	08/10/2024	06:33	-128.647	46.852	0	273.30	0	6.1254	0	33.8781	0	26.653	0	270.856	0	95.5	4	31.6	4	-1E+10	1	0.0470	4	0.000334	0	-1E+10	1	-1E+10	1	-1E+10	1
4902624	5	C	08/10/2024	06:33	-128.647	46.852	0	274.10	0	6.1068	0	33.8785	0	26.656	0	271.648	0	95.1	4	31.5	4	-1E+10	1	0.0489	4	0.000344	0	-1E+10	1	-1E+10	1	-1E+10	1
4902624	5	C	08/10/2024	06:33	-128.647	46.852	0	275.00	0	6.0860	0	33.8790	0	26.659	0	272.540	0	92.2	4	30.5	4	-1E+10	1	0.0453	4	0.000347	0	-1E+10	1	-1E+10	1	-1E+10	1
4902624	5	C	08/10/2024	06:33	-128.647	46.852	0	275.80	0	6.0708	0	33.8790	0	26.661	0	273.332	0	94.5	4	31.3	4	-1E+10	1	0.0511	4	0.000329	0	-1E+10	1	-1E+10	1	-1E+10	1
4902624	5	C	08/10/2024	06:33	-128.647	46.852	0	276.70	0	6.0538	0	33.8790	0	26.663	0	274.223	0	94.1	4	31.1	4	-1E+10	1	0.0438	4	0.000434	0	-1E+10	1	-1E+10	1	-1E+10	1
4902624	5	C	08/10/2024	06:33	-128.647	46.852	0	276.90	0	6.0500	0	33.8790	0	26.664	0	274.421	0	-1e10	1	-1e10	1	-1E+10	1	-1e10	1	-1e10	1	-1E+10	1	-1E+10	1	-1E+10	1
4902624	5	C	08/10/2024	06:33	-128.647	46.852	0	277.60	0	6.0444	0	33.8790	0	26.664	0	275.115	0	93.7	4	31.0	4	-1E+10	1	0.0438	4	0.000329	0	-1E+10	1	-1E+10	1	-1E+10	1
4902624	5	C	08/10/2024	06:33	-128.647	46.852	0	278.40	0	6.0380	0	33.8790	0	26.665	0	275.907	0	93.3	4	30.8	4	-1E+10	1	0.0489	4	0.000350	0	-1E+10	1	-1E+10	1	-1E+10	1
4902624	5	C	08/10/2024	06:33	-128.647	46.852	0	278.90	0	6.0340	0	33.8790	0	26.666	0	276.402	0	-1e10	1	-1e10	1	-1E+10	1	-1e10	1	-1e10	1	-1E+10	1	-1E+10	1	-1E+10	1
4902624	5	C	08/10/2024	06:33	-128.647	46.852	0	279.20	0	6.0314	0	33.8793	0	26.666	0	276.699	0	92.7	4	30.7	4	-1E+10	1	0.0511	4	0.000338	0	-1E+10	1	-1E+10	1	-1E+10	1
4902624	5	C	08/10/2024	06:33	-128.647	46.852	0	280.10	0	6.0237	0	33.8801	0	26.668	0	277.591	0	92.1	4	30.5	4	-1E+10	1	0.0584	4	0.000323	0	-1E+10	1	-1E+10	1	-1E+10	1
4902624	5	C	08/10/2024	06:33	-128.647	46.852	0	281.00	0	6.0160	0	33.8810	0	26.670	0	278.482	0	89.1	4	29.4	4	-1E+10	1	0.0599	4	0.000319	0	-1E+10	1	-1E+10	1	-1E+10	1
4902624	5	C	08/10/2024	06:33	-128.647	46.852	0	281.80	0	6.0076	0	33.8818	0	26.671	0	279.274	0	91.1	4	30.1	4	-1E+10	1	0.0511	4	0.000316	0	-1E+10	1	-1E+10	1	-1E+10	1
4902624	5	C	08/10/2024	06:33	-128.647	46.852	0	282.60	0	5.9992	0	33.8826	0	26.673	0	280.067	0	90.4	4	29.9	4	-1E+10	1	0.0504	4	0.000347	0	-1E+10	1	-1E+10	1	-1E+10	1
4902624	5	C	08/10/2024	06:33	-128.647	46.852	0	283.00	0	5.9950	0	33.8830	0	26.674	0	280.463	0	-1e10	1	-1e10	1	-1E+10	1	-1e10	1	-1e10	1	-1E+10	1	-1E+10	1	-1E+10	1
4902624	5	C	08/10/2024	06:33	-128.647	46.852	0	283.50	0	5.9925	0	33.8838	0	26.675	0	280.958	0	89.8	4	29.7	4	-1E+10	1	0.0438	4	0.000305	0	-1E+10	1	-1E+10	1	-1E+10	1
4902624	5	C	08/10/2024	06:33	-128.647	46.852	0	284.30	0	5.9885	0	33.8850	0	26.676	0	281.750	0	89.2	4	29.5	4	-1E+10	1	0.0555	4	0.000314	0	-1E+10	1	-1E+10	1	-1E+10	1
4902624	5	C	08/10/2024	06:33	-128.647	46.852	0	285.00	0	5.9850	0	33.8860	0	26.677	0	282.443	0	-1e10	1	-1e10	1	-1E+10	1	-1e10	1	-1e10	1	-1E+10	1	-1E+10	1	-1E+10	1
4902624	5	C	08/10/2024	06:33	-128.647	46.852	0	285.20	0	5.9844	0	33.8865	0	26.678	0	282.642	0	88.6	4	29.2	4	-1E+10	1	0.0527	4	0.000317	0	-1E+10	1	-1E+10	1	-1E+10	1
4902624	5	C	08/10/2024	06:33	-128.647	46.852	0	286.00	0	5.9820	0	33.8885	0	26.680	0	283.434	0	88.0	4	29.0	4	-1E+10	1	0.0555	4	0.000401	0	-1E+10	1	-1E+10	1	-1E+10	1
4902624	5	C	08/10/2024	06:33	-128.647	46.852	0	286.80	0	5.9796	0	33.8905	0	26.682	0	284.226	0	87.4	4	28.9	4	-1E+10	1	0.0555	4	0.000397	0	-1E+10	1	-1E+10	1	-1E+10	1
4902624	5	C	08/10/2024	06:33	-128.647	46.852	0	287.00	0	5.9790	0	33.8910	0	26.682	0	284.424	0	-1e10	1	-1e10	1	-1E+10	1	-1e10	1	-1e10	1	-1E+10	1	-1E+10	1	-1E+10	1
4902624	5	C	08/10/2024	06:33	-128.647	46.852	0	287.70	0	5.9734	0	33.8917	0	26.683	0	285.117	0	86.9	4	28.7	4	-1E+10	1	0.0566	4	0.000336	0	-1E+10	1	-1E+10	1	-1E+10	1
4902624	5	C	08/10/2024	06:33	-128.647	46.852	0	288.60	0	5.9662	0	33.8926	0	26.685	0	286.009	0	86.3	4	28.5	4	-1E+10	1	0.0630	4	0.000353	0	-1E+10	1	-1E+10	1	-1E+10	1
4902624	5	C	08/10/2024	06:33	-128.647	46.852	0	289.00	0	5.9630	0	33.8930	0	26.686	0	286.405	0	-1e10	1	-1e10	1	-1E+10	1	-1e10	1	-1e10	1	-1E+10	1	-1E+10	1	-1E+10	1
4902624	5	C	08/10/2024	06:33	-128.647	46.852	0	289.40	0	5.9576	0	33.8942	0	26.687	0	286.801	0	85.7	4	28.3	4	-1E+10	1	0.0577	4	0.000297	0	-1E+10	1	-1E+10	1	-1E+10	1
4902624	5	C	08/10/2024	06:33	-128.647	46.852	0	290.30	0	5.9454	0	33.8969	0	26.691	0	287.692	0	85.3	4	28.1	4	-1E+10	1	0.0511	4	0.000328	0	-1E+10	1	-1E+10	1	-1E+10	1
4902624	5	C	08/10/2024	06:33	-128.647	46.852	0	291.00	0	5.9360	0	33.8990	0	26.694	0	288.385	0	-1e10	1	-1e10	1	-1E+10	1	-1e10	1	-1e10	1	-1E+10	1	-1E+10	1	-1E+10	1
4902624	5	C	08/10/2024	06:33	-128.647	46.852	0	291.20	0	5.9347	0	33.8992	0	26.694	0	288.583	0	85.0	4	28.0	4	-1E+10	1	0.0511	4	0.000317	0	-1E+10	1	-1E+10	1	-1E+10	1
4902624	5	C	08/10/2024	06:33	-128.647	46.852	0	292.10	0	5.9291	0	33.9002	0	26.696	0	289.475	0	84.6	4	27.9	4	-1E+10	1	0.0445	4	0.000317	0	-1E+10	1	-1E+10	1	-1E+10	1
4902624	5	C	08/10/2024	06:33	-128.647	46.852	0	292.90	0	5.9240	0	33.9010	0	26.697	0	290.267	0	-1e10	1	-1e10	1	-1E+10	1	-1e10	1	-1e10	1	-1E+10	1	-1E+10	1	-1E+10	1
4902624	5	C	08/10/2024	06:33	-128.647	46.852	0	293.00	0	5.9230	0	33.9011	0	26.697	0	290.366	0	84.3	4	27.8	4	-1E+10	1	0.0438	4	0.000291	0	-1E+10	1	-1E+10	1	-1E+10	1
4902624	5	C	08/10/2024	06:33	-128.647	46.852	0	293.90	0	5.9145	0	33.9025	0	26.699	0	291.257	0	84.0	4	27.7	4	-1E+10	1	0.0535	4	0.000289	0	-1E+10	1	-1E+10	1	-1E+10	1
4902624	5	C	08/10/2024	06:33	-128.647	46.852	0	294.80	0	5.9060	0	33.9039	0	26.701	0	292.149	0	83.7	4	27.6	4	-1E+10	1	0.0624	4	0.000306	0	-1E+10	1	-1E+10	1	-1E+10	1
4902624	5	C	08/10/2024	06:33	-128.647	46.852	0	294.90	0	5.9050	0	33.9040	0	26.702	0	292.248	0	-1e10	1	-1e10	1	-1E+10	1	-1e10	1	-1e10	1	-1E+10	1	-1E+10	1	-1E+10	1
4902624	5	C	08/10/2024	06:33	-128.647	46.852	0	295.70	0	5.8966	0	33.9048	0	26.703	0	293.040	0	83.5	4	27.5	4	-1E+10	1	0.0628	4	0.000321	0	-1E+10	1	-1E+10	1	-1E+10	1
4902624	5	C	08/10/2024	06:33	-128.647	46.852	0	296.60	0	5.8872	0	33.9056	0	26.705	0	293.931	0	83.3	4	27.4	4	-1E+10	1	0.0535	4	0.000325	0	-1E+10	1	-1E+10	1	-1E+10	1
4902624	5	C	08/10/2024	06:33	-128.647	46.852	0	297.00	0	5.8830	0	33.9060	0	26.706	0	294.327	0	-1e10	1	-1e10	1	-1E+10	1	-1e10	1	-1e10	1	-1E+10	1	-1E+10	1	-1E+10	1
4902624	5	C	08/10/2024	06:33	-128.647	46.852	0	297.60	0	5.8793	0	33.9063	0	26.707	0	294.921	0	83.0	4	27.4	4	-1E+10	1	0.0444	4	0.000317	0	-1E+10	1	-1E+10	1	-1E+10	1
4902624	5	C	08/10/2024	06:33	-128.647	46.852	0	299.10	0	5.8700	0	33.9070	0	26.708	0	296.407	0	-1e10	1	-1e10	1	-1E+10	1	-1e10	1	-1e10	1	-1E+10	1	-1E+10	1	-1E+10	1
4902624	5	C	08/10/2024	06:33	-128.647	46.852	0	304.90	0	5.8150	0	33.9080	0	26.716	0	302.150	0	-1e10	1	-1e10	1	-1E+10	1	-1e10	1	-1e10	1	-1E+10	1	-1E+10	1	-1E+10	1
4902624	5	C	08/10/2024	06:33	-128.647	46.852	0	307.20	0	5.7963	0	33.9098	0	26.720	0	304.428	0	79.6	4	26.2	4	-1E+10	1	0.0581	4	0.000316	0	-1E+10	1	-1E+10	1	-1E+10	1
4902624	5	C	08/10/2024	06:33	-128.647	46.852	0	315.00	0	5.7330	0	33.9160	0	26.733	0	312.152	0	-1e10	1	-1e10	1	-1E+10	1	-1e10	1	-1e10	1	-1E+10	1	-1E+10	1	-1E+10	1
4902624	5	C	08/10/2024	06:33	-128.647	46.852	0	317.60	0	5.7238	0	33.9189	0	26.736	0	314.726	0	75.7	4	24.9	4	-1E+10	1	0.0514	4	0.000292	0	-1E+10	1	-1E+10	1	-1E+10	1
4902624	5	C	08/10/2024	06:33	-128.647	46.852	0	324.90	0	5.6980	0	33.9270	0	26.746	0	321.954	0	-1e10	1	-1e10	1	-1E+10	1	-1e10	1	-1e10	1	-1E+10	1	-1E+10	1	-1E+10	1
4902624	5	C	08/10/2024	06:33	-128.647	46.852	0	328.50	0	5.6692	0	33.9281	0	26.750	0	325.519	0	72.8	4	23.9	4	-1E+10	1	0.0584	4	0.000269	0	-1E+10	1	-1E+10	1	-1E+10	1
4902624	5	C	08/10/2024	06:33	-128.647	46.852	0	334.90	0	5.6180	0	33.9300	0	26.758	0	331.856	0	-1e10	1	-1e10	1	-1E+10	1	-1e10	1	-1e10	1	-1E+10	1	-1E+10	1	-1E+10	1
4902624	5	C	08/10/2024	06:33	-128.647	46.852	0	339.60	0	5.5924	0	33.9342	0	26.764	0	336.509	0	69.4	4	22.7	4	-1E+10	1	0.0584	4	0.000258	0	-1E+10	1	-1E+10	1	-1E+10	1
4902624	5	C	08/10/2024	06:33	-128.647	46.852	0	345.00	0	5.5630	0	33.9390	0	26.772	0	341.856	0	-1e10	1	-1e10	1	-1E+10	1	-1e10	1	-1e10	1	-1E+10	1	-1E+10	1	-1E+10	1
4902624	5	C	08/10/2024	06:33	-128.647	46.852	0	350.80	0	5.5257	0	33.9430	0	26.779	0	347.598	0	66.5	4	21.7	4	-1E+10	1	0.0587	4	0.000258	0	-1E+10	1	-1E+10	1	-1E+10	1
4902624	5	C	08/10/2024	06:33	-128.647	46.852	0	355.10	0	5.4980	0	33.9460	0	26.785	0	351.855	0	-1e10	1	-1e10	1	-1E+10	1	-1e10	1	-1e10	1	-1E+10	1	-1E+10	1	-1E+10	1
4902624	5	C	08/10/2024	06:33	-128.647	46.852	0	361.70	0	5.4551	0	33.9486	0	26.792	0	358.389	0	64.4	4	21.0	4	-1E+10	1	0.0654	4	0.000280	0	-1E+10	1	-1E+10	1	-1E+10	1
4902624	5	C	08/10/2024	06:33	-128.647	46.852	0	365.10	0	5.4330	0	33.9500	0	26.796	0	361.755	0	-1e10	1	-1e10	1	-1E+10	1	-1e10	1	-1e10	1	-1E+10	1	-1E+10	1	-1E+10	1
4902624	5	C	08/10/2024	06:33	-128.647	46.852	0	372.70	0	5.3501	0	33.9523	0	26.808	0	369.279	0	62.0	4	20.2	4	-1E+10	1	0.0581	4	0.000258	0	-1E+10	1	-1E+10	1	-1E+10	1
4902624	5	C	08/10/2024	06:33	-128.647	46.852	0	375.00	0	5.3250	0	33.9530	0	26.811	0	371.555	0	-1e10	1	-1e10	1	-1E+10	1	-1e10	1	-1e10	1	-1E+10	1	-1E+10	1	-1E+10	1
4902624	5	C	08/10/2024	06:33	-128.647	46.852	0	383.70	0	5.2667	0	33.9591	0	26.823	0	380.168	0	59.2	4	19.2	4	-1E+10	1	0.0511	4	0.000268	0	-1E+10	1	-1E+10	1	-1E+10	1
4902624	5	C	08/10/2024	06:33	-128.647	46.852	0	385.00	0	5.2580	0	33.9600	0	26.825	0	381.454	0	-1e10	1	-1e10	1	-1E+10	1	-1e10	1	-1e10	1	-1E+10	1	-1E+10	1	-1E+10	1
4902624	5	C	08/10/2024	06:33	-128.647	46.852	0	394.70	0	5.2280	0	33.9690	0	26.835	0	391.056	0	-1e10	1	-1e10	1	-1E+10	1	-1e10	1	-1e10	1	-1E+10	1	-1E+10	1	-1E+10	1
4902624	5	C	08/10/2024	06:33	-128.647	46.852	0	394.80	0	5.2275	0	33.9691	0	26.836	0	391.155	0	56.2	4	18.3	4	-1E+10	1	0.0514	4	0.000234	0	-1E+10	1	-1E+10	1	-1E+10	1
4902624	5	C	08/10/2024	06:33	-128.647	46.852	0	404.80	0	5.1730	0	33.9800	0	26.851	0	401.053	0	-1e10	1	-1e10	1	-1E+10	1	-1e10	1	-1e10	1	-1E+10	1	-1E+10	1	-1E+10	1
4902624	5	C	08/10/2024	06:33	-128.647	46.852	0	406.20	0	5.1619	0	33.9804	0	26.852	0	402.439	0	53.4	4	17.3	4	-1E+10	1	0.0581	4	0.000234	0	-1E+10	1	-1E+10	1	-1E+10	1
4902624	5	C	08/10/2024	06:33	-128.647	46.852	0	414.80	0	5.0940	0	33.9830	0	26.862	0	410.950	0	-1e10	1	-1e10	1	-1E+10	1	-1e10	1	-1e10	1	-1E+10	1	-1E+10	1	-1E+10	1
4902624	5	C	08/10/2024	06:33	-128.647	46.852	0	417.90	0	5.0759	0	33.9833	0	26.864	0	414.019	0	52.5	4	17.0	4	-1E+10	1	0.0514	4	0.000234	0	-1E+10	1	-1E+10	1	-1E+10	1
4902624	5	C	08/10/2024	06:33	-128.647	46.852	0	425.10	0	5.0340	0	33.9840	0	26.870	0	421.144	0	-1e10	1	-1e10	1	-1E+10	1	-1e10	1	-1e10	1	-1E+10	1	-1E+10	1	-1E+10	1
4902624	5	C	08/10/2024	06:33	-128.647	46.852	0	429.50	0	4.9970	0	33.9875	0	26.877	0	425.499	0	50.5	4	16.3	4	-1E+10	1	0.0586	4	0.000244	0	-1E+10	1	-1E+10	1	-1E+10	1
4902624	5	C	08/10/2024	06:33	-128.647	46.852	0	435.20	0	4.9490	0	33.9920	0	26.886	0	431.140	0	-1e10	1	-1e10	1	-1E+10	1	-1e10	1	-1e10	1	-1E+10	1	-1E+10	1	-1E+10	1
4902624	5	C	08/10/2024	06:33	-128.647	46.852	0	441.30	0	4.9108	0	33.9975	0	26.895	0	437.177	0	47.4	4	15.3	4	-1E+10	1	0.0663	4	0.000222	0	-1E+10	1	-1E+10	1	-1E+10	1
4902624	5	C	08/10/2024	06:33	-128.647	46.852	0	445.10	0	4.8870	0	34.0010	0	26.900	0	440.937	0	-1e10	1	-1e10	1	-1E+10	1	-1e10	1	-1e10	1	-1E+10	1	-1E+10	1	-1E+10	1
4902624	5	C	08/10/2024	06:33	-128.647	46.852	0	451.20	0	4.8840	0	34.0076	0	26.906	0	446.973	0	45.0	4	14.5	4	-1E+10	1	0.0792	4	0.000233	0	-1E+10	1	-1E+10	1	-1E+10	1
4902624	5	C	08/10/2024	06:33	-128.647	46.852	0	455.20	0	4.8820	0	34.0120	0	26.909	0	450.932	0	-1e10	1	-1e10	1	-1E+10	1	-1e10	1	-1e10	1	-1E+10	1	-1E+10	1	-1E+10	1
4902624	5	C	08/10/2024	06:33	-128.647	46.852	0	459.00	0	4.8683	0	34.0158	0	26.914	0	454.692	0	43.2	4	13.9	4	-1E+10	1	0.0514	4	0.000243	0	-1E+10	1	-1E+10	1	-1E+10	1
4902624	5	C	08/10/2024	06:33	-128.647	46.852	0	465.20	0	4.8460	0	34.0220	0	26.921	0	460.827	0	-1e10	1	-1e10	1	-1E+10	1	-1e10	1	-1e10	1	-1E+10	1	-1E+10	1	-1E+10	1
4902624	5	C	08/10/2024	06:33	-128.647	46.852	0	466.90	0	4.8307	0	34.0234	0	26.924	0	462.509	0	41.8	4	13.4	4	-1E+10	1	0.0581	4	0.000480	0	-1E+10	1	-1E+10	1	-1E+10	1
4902624	5	C	08/10/2024	06:33	-128.647	46.852	0	475.10	0	4.7569	0	34.0299	0	26.938	0	470.622	0	41.6	4	13.4	4	-1E+10	1	0.0518	4	0.000197	0	-1E+10	1	-1E+10	1	-1E+10	1
4902624	5	C	08/10/2024	06:33	-128.647	46.852	0	475.20	0	4.7560	0	34.0300	0	26.938	0	470.721	0	-1e10	1	-1e10	1	-1E+10	1	-1e10	1	-1e10	1	-1E+10	1	-1E+10	1	-1E+10	1
4902624	5	C	08/10/2024	06:33	-128.647	46.852	0	483.50	0	4.6074	0	34.0184	0	26.945	0	478.934	0	42.9	4	13.7	4	-1E+10	1	0.0654	4	0.000175	0	-1E+10	1	-1E+10	1	-1E+10	1
4902624	5	C	08/10/2024	06:33	-128.647	46.852	0	485.20	0	4.5770	0	34.0160	0	26.946	0	480.616	0	-1e10	1	-1e10	1	-1E+10	1	-1e10	1	-1e10	1	-1E+10	1	-1E+10	1	-1E+10	1
4902624	5	C	08/10/2024	06:33	-128.647	46.852	0	492.10	0	4.5485	0	34.0217	0	26.954	0	487.442	0	40.7	4	13.0	4	-1E+10	1	0.0584	4	0.000186	0	-1E+10	1	-1E+10	1	-1E+10	1
4902624	5	C	08/10/2024	06:33	-128.647	46.852	0	494.90	0	4.5370	0	34.0240	0	26.957	0	490.213	0	-1e10	1	-1e10	1	-1E+10	1	-1e10	1	-1e10	1	-1E+10	1	-1E+10	1	-1E+10	1
4902624	5	C	08/10/2024	06:33	-128.647	46.852	0	501.20	0	4.5164	0	34.0302	0	26.964	0	496.445	0	38.8	4	12.4	4	-1E+10	1	0.0582	4	0.000197	0	-1E+10	1	-1E+10	1	-1E+10	1
4902624	5	C	08/10/2024	06:33	-128.647	46.852	0	505.00	0	4.5040	0	34.0340	0	26.969	0	500.205	0	-1e10	1	-1e10	1	-1E+10	1	-1e10	1	-1e10	1	-1E+10	1	-1E+10	1	-1E+10	1
4902624	5	C	08/10/2024	06:33	-128.647	46.852	0	510.90	0	4.5005	0	34.0387	0	26.973	0	506.041	0	37.1	4	11.8	4	-1E+10	1	0.0517	4	0.000185	0	-1E+10	1	-1E+10	1	-1E+10	1
4902624	5	C	08/10/2024	06:33	-128.647	46.852	0	515.00	0	4.4980	0	34.0420	0	26.976	0	510.097	0	-1e10	1	-1e10	1	-1E+10	1	-1e10	1	-1e10	1	-1E+10	1	-1E+10	1	-1E+10	1
4902624	5	C	08/10/2024	06:33	-128.647	46.852	0	520.90	0	4.4879	0	34.0462	0	26.980	0	515.934	0	35.2	4	11.2	4	-1E+10	1	0.0654	4	0.000174	0	-1E+10	1	-1E+10	1	-1E+10	1
4902624	5	C	08/10/2024	06:33	-128.647	46.852	0	524.90	0	4.4810	0	34.0490	0	26.983	0	519.891	0	-1e10	1	-1e10	1	-1E+10	1	-1e10	1	-1e10	1	-1E+10	1	-1E+10	1	-1E+10	1
4902624	5	C	08/10/2024	06:33	-128.647	46.852	0	531.50	0	4.4703	0	34.0563	0	26.990	0	526.420	0	32.8	4	10.5	4	-1E+10	1	0.0581	4	0.000174	0	-1E+10	1	-1E+10	1	-1E+10	1
4902624	5	C	08/10/2024	06:33	-128.647	46.852	0	534.80	0	4.4650	0	34.0600	0	26.994	0	529.684	0	-1e10	1	-1e10	1	-1E+10	1	-1e10	1	-1e10	1	-1E+10	1	-1E+10	1	-1E+10	1
4902624	5	C	08/10/2024	06:33	-128.647	46.852	0	542.60	0	4.4559	0	34.0653	0	26.999	0	537.399	0	31.0	4	9.9	4	-1E+10	1	0.0514	4	0.000174	0	-1E+10	1	-1E+10	1	-1E+10	1
4902624	5	C	08/10/2024	06:33	-128.647	46.852	0	545.10	0	4.4530	0	34.0670	0	27.001	0	539.872	0	-1e10	1	-1e10	1	-1E+10	1	-1e10	1	-1e10	1	-1E+10	1	-1E+10	1	-1E+10	1
4902624	5	C	08/10/2024	06:33	-128.647	46.852	0	554.00	0	4.4269	0	34.0769	0	27.012	0	548.675	0	28.8	4	9.2	4	-1E+10	1	0.0578	4	0.000172	0	-1E+10	1	-1E+10	1	-1E+10	1
4902624	5	C	08/10/2024	06:33	-128.647	46.852	0	555.00	0	4.4240	0	34.0780	0	27.013	0	549.664	0	-1e10	1	-1e10	1	-1E+10	1	-1e10	1	-1e10	1	-1E+10	1	-1E+10	1	-1E+10	1
4902624	5	C	08/10/2024	06:33	-128.647	46.852	0	565.00	0	4.4070	0	34.0870	0	27.022	0	559.554	0	-1e10	1	-1e10	1	-1E+10	1	-1e10	1	-1e10	1	-1E+10	1	-1E+10	1	-1E+10	1
4902624	5	C	08/10/2024	06:33	-128.647	46.852	0	565.50	0	4.4052	0	34.0872	0	27.022	0	560.049	0	27.1	4	8.6	4	-1E+10	1	0.0438	4	0.000137	0	-1E+10	1	-1E+10	1	-1E+10	1
4902624	5	C	08/10/2024	06:33	-128.647	46.852	0	575.00	0	4.3710	0	34.0920	0	27.030	0	569.444	0	-1e10	1	-1e10	1	-1E+10	1	-1e10	1	-1e10	1	-1E+10	1	-1E+10	1	-1E+10	1
4902624	5	C	08/10/2024	06:33	-128.647	46.852	0	577.00	0	4.3657	0	34.0938	0	27.032	0	571.422	0	25.5	4	8.1	4	-1E+10	1	0.0448	4	0.000341	0	-1E+10	1	-1E+10	1	-1E+10	1
4902624	5	C	08/10/2024	06:33	-128.647	46.852	0	584.80	0	4.3450	0	34.1010	0	27.040	0	579.136	0	-1e10	1	-1e10	1	-1E+10	1	-1e10	1	-1e10	1	-1E+10	1	-1E+10	1	-1E+10	1
4902624	5	C	08/10/2024	06:33	-128.647	46.852	0	588.50	0	4.3355	0	34.1058	0	27.044	0	582.795	0	23.3	4	7.4	4	-1E+10	1	0.0654	4	0.003864	0	-1E+10	1	-1E+10	1	-1E+10	1
4902624	5	C	08/10/2024	06:33	-128.647	46.852	0	594.90	0	4.3190	0	34.1140	0	27.053	0	589.124	0	-1e10	1	-1e10	1	-1E+10	1	-1e10	1	-1e10	1	-1E+10	1	-1E+10	1	-1E+10	1
4902624	5	C	08/10/2024	06:33	-128.647	46.852	0	600.00	0	4.3149	0	34.1176	0	27.056	0	594.167	0	21.8	4	6.9	4	-1E+10	1	0.0584	4	0.000149	0	-1E+10	1	-1E+10	1	-1E+10	1
4902624	5	C	08/10/2024	06:33	-128.647	46.852	0	604.90	0	4.3110	0	34.1210	0	27.059	0	599.012	0	-1e10	1	-1e10	1	-1E+10	1	-1e10	1	-1e10	1	-1E+10	1	-1E+10	1	-1E+10	1
4902624	5	C	08/10/2024	06:33	-128.647	46.852	0	611.40	0	4.2956	0	34.1268	0	27.066	0	605.440	0	20.3	4	6.5	4	-1E+10	1	0.0584	4	0.000150	0	-1E+10	1	-1E+10	1	-1E+10	1
4902624	5	C	08/10/2024	06:33	-128.647	46.852	0	615.00	0	4.2870	0	34.1300	0	27.069	0	608.999	0	-1e10	1	-1e10	1	-1E+10	1	-1e10	1	-1e10	1	-1E+10	1	-1E+10	1	-1E+10	1
4902624	5	C	08/10/2024	06:33	-128.647	46.852	0	623.00	0	4.2708	0	34.1369	0	27.076	0	616.909	0	18.8	4	6.0	4	-1E+10	1	0.0587	4	0.000161	0	-1E+10	1	-1E+10	1	-1E+10	1
4902624	5	C	08/10/2024	06:33	-128.647	46.852	0	625.40	0	4.2660	0	34.1390	0	27.079	0	619.282	0	-1e10	1	-1e10	1	-1E+10	1	-1e10	1	-1e10	1	-1E+10	1	-1E+10	1	-1E+10	1
4902624	5	C	08/10/2024	06:33	-128.647	46.852	0	634.70	0	4.2490	0	34.1490	0	27.088	0	628.477	0	16.7	4	5.3	4	-1E+10	1	0.0657	4	0.000160	0	-1E+10	1	-1E+10	1	-1E+10	1
4902624	5	C	08/10/2024	06:33	-128.647	46.852	0	644.90	0	4.2450	0	34.1630	0	27.100	0	638.562	0	-1e10	1	-1e10	1	-1E+10	1	-1e10	1	-1e10	1	-1E+10	1	-1E+10	1	-1E+10	1
4902624	5	C	08/10/2024	06:33	-128.647	46.852	0	646.40	0	4.2420	0	34.1643	0	27.101	0	640.045	0	15.9	4	5.1	4	-1E+10	1	0.0655	4	0.000149	0	-1E+10	1	-1E+10	1	-1E+10	1
4902624	5	C	08/10/2024	06:33	-128.647	46.852	0	654.90	0	4.2250	0	34.1720	0	27.109	0	648.448	0	-1e10	1	-1e10	1	-1E+10	1	-1e10	1	-1e10	1	-1E+10	1	-1E+10	1	-1E+10	1
4902624	5	C	08/10/2024	06:33	-128.647	46.852	0	658.20	0	4.2162	0	34.1744	0	27.112	0	651.710	0	15.4	4	4.9	4	-1E+10	1	0.0578	4	0.000149	0	-1E+10	1	-1E+10	1	-1E+10	1
4902624	5	C	08/10/2024	06:33	-128.647	46.852	0	664.70	0	4.1990	0	34.1790	0	27.118	0	658.136	0	-1e10	1	-1e10	1	-1E+10	1	-1e10	1	-1e10	1	-1E+10	1	-1E+10	1	-1E+10	1
4902624	5	C	08/10/2024	06:33	-128.647	46.852	0	670.10	0	4.1790	0	34.1822	0	27.122	0	663.474	0	14.9	4	4.7	4	-1E+10	1	0.0454	4	0.000160	0	-1E+10	1	-1E+10	1	-1E+10	1
4902624	5	C	08/10/2024	06:33	-128.647	46.852	0	674.70	0	4.1620	0	34.1850	0	27.126	0	668.021	0	-1e10	1	-1e10	1	-1E+10	1	-1e10	1	-1e10	1	-1E+10	1	-1E+10	1	-1E+10	1
4902624	5	C	08/10/2024	06:33	-128.647	46.852	0	681.80	0	4.1559	0	34.1905	0	27.131	0	675.039	0	14.2	4	4.5	4	-1E+10	1	0.0787	4	0.000147	0	-1E+10	1	-1E+10	1	-1E+10	1
4902624	5	C	08/10/2024	06:33	-128.647	46.852	0	685.10	0	4.1530	0	34.1930	0	27.134	0	678.301	0	-1e10	1	-1e10	1	-1E+10	1	-1e10	1	-1e10	1	-1E+10	1	-1E+10	1	-1E+10	1
4902624	5	C	08/10/2024	06:33	-128.647	46.852	0	690.70	0	4.1200	0	34.1958	0	27.139	0	683.836	0	14.1	4	4.5	4	-1E+10	1	0.0517	4	0.000125	0	-1E+10	1	-1E+10	1	-1E+10	1
4902624	5	C	08/10/2024	06:33	-128.647	46.852	0	695.10	0	4.0940	0	34.1980	0	27.144	0	688.185	0	-1e10	1	-1e10	1	-1E+10	1	-1e10	1	-1e10	1	-1E+10	1	-1E+10	1	-1E+10	1
4902624	5	C	08/10/2024	06:33	-128.647	46.852	0	698.50	0	4.0885	0	34.2014	0	27.147	0	691.546	0	13.5	4	4.3	4	-1E+10	1	0.0660	4	0.000126	0	-1E+10	1	-1E+10	1	-1E+10	1
4902624	5	C	08/10/2024	06:33	-128.647	46.852	0	705.00	0	4.0780	0	34.2080	0	27.154	0	697.970	0	-1e10	1	-1e10	1	-1E+10	1	-1e10	1	-1e10	1	-1E+10	1	-1E+10	1	-1E+10	1
4902624	5	C	08/10/2024	06:33	-128.647	46.852	0	706.60	0	4.0770	0	34.2098	0	27.155	0	699.552	0	12.5	4	4.0	4	-1E+10	1	0.0722	4	0.000149	0	-1E+10	1	-1E+10	1	-1E+10	1
4902624	5	C	08/10/2024	06:33	-128.647	46.852	0	714.90	0	4.0720	0	34.2190	0	27.163	0	707.755	0	-1e10	1	-1e10	1	-1E+10	1	-1e10	1	-1e10	1	-1E+10	1	-1E+10	1	-1E+10	1
4902624	5	C	08/10/2024	06:33	-128.647	46.852	0	715.10	0	4.0721	0	34.2192	0	27.163	0	707.952	0	11.9	4	3.8	4	-1E+10	1	0.0518	4	0.000161	0	-1E+10	1	-1E+10	1	-1E+10	1
4902624	5	C	08/10/2024	06:33	-128.647	46.852	0	724.00	0	4.0766	0	34.2282	0	27.170	0	716.748	0	11.0	4	3.5	4	-1E+10	1	0.0651	4	0.000171	0	-1E+10	1	-1E+10	1	-1E+10	1
4902624	5	C	08/10/2024	06:33	-128.647	46.852	0	724.80	0	4.0770	0	34.2290	0	27.170	0	717.539	0	-1e10	1	-1e10	1	-1E+10	1	-1e10	1	-1e10	1	-1E+10	1	-1E+10	1	-1E+10	1
4902624	5	C	08/10/2024	06:33	-128.647	46.852	0	733.30	0	4.0989	0	34.2399	0	27.177	0	725.939	0	10.3	4	3.3	4	-1E+10	1	0.0514	4	0.000159	0	-1E+10	1	-1E+10	1	-1E+10	1
4902624	5	C	08/10/2024	06:33	-128.647	46.852	0	734.90	0	4.1030	0	34.2420	0	27.178	0	727.520	0	-1e10	1	-1e10	1	-1E+10	1	-1e10	1	-1e10	1	-1E+10	1	-1E+10	1	-1E+10	1
4902624	5	C	08/10/2024	06:33	-128.647	46.852	0	742.90	0	4.0766	0	34.2476	0	27.185	0	735.426	0	10.1	4	3.2	4	-1E+10	1	0.0581	4	0.000149	0	-1E+10	1	-1E+10	1	-1E+10	1
4902624	5	C	08/10/2024	06:33	-128.647	46.852	0	744.90	0	4.0700	0	34.2490	0	27.187	0	737.402	0	-1e10	1	-1e10	1	-1E+10	1	-1e10	1	-1e10	1	-1E+10	1	-1E+10	1	-1E+10	1
4902624	5	C	08/10/2024	06:33	-128.647	46.852	0	753.00	0	4.0405	0	34.2523	0	27.193	0	745.406	0	10.0	4	3.2	4	-1E+10	1	0.0517	4	0.000172	0	-1E+10	1	-1E+10	1	-1E+10	1
4902624	5	C	08/10/2024	06:33	-128.647	46.852	0	754.80	0	4.0340	0	34.2530	0	27.194	0	747.185	0	-1e10	1	-1e10	1	-1E+10	1	-1e10	1	-1e10	1	-1E+10	1	-1E+10	1	-1E+10	1
4902624	5	C	08/10/2024	06:33	-128.647	46.852	0	763.40	0	4.0391	0	34.2598	0	27.199	0	755.682	0	9.4	4	3.0	4	-1E+10	1	0.0652	4	0.000196	0	-1E+10	1	-1E+10	1	-1E+10	1
4902624	5	C	08/10/2024	06:33	-128.647	46.852	0	764.90	0	4.0400	0	34.2610	0	27.200	0	757.164	0	-1e10	1	-1e10	1	-1E+10	1	-1e10	1	-1e10	1	-1E+10	1	-1E+10	1	-1E+10	1
4902624	5	C	08/10/2024	06:33	-128.647	46.852	0	774.20	0	4.0290	0	34.2674	0	27.206	0	766.353	0	9.1	4	2.9	4	-1E+10	1	0.0519	4	0.000238	0	-1E+10	1	-1E+10	1	-1E+10	1
4902624	5	C	08/10/2024	06:33	-128.647	46.852	0	775.00	0	4.0280	0	34.2680	0	27.207	0	767.144	0	-1e10	1	-1e10	1	-1E+10	1	-1e10	1	-1e10	1	-1E+10	1	-1E+10	1	-1E+10	1
4902624	5	C	08/10/2024	06:33	-128.647	46.852	0	785.00	0	4.0090	0	34.2730	0	27.213	0	777.024	0	8.8	4	2.8	4	-1E+10	1	0.0725	4	0.000147	0	-1E+10	1	-1E+10	1	-1E+10	1
4902624	5	C	08/10/2024	06:33	-128.647	46.852	0	795.00	0	3.9870	0	34.2780	0	27.219	0	786.903	0	-1e10	1	-1e10	1	-1E+10	1	-1e10	1	-1e10	1	-1E+10	1	-1E+10	1	-1E+10	1
4902624	5	C	08/10/2024	06:33	-128.647	46.852	0	796.00	0	3.9833	0	34.2786	0	27.220	0	787.891	0	13.2	4	4.2	4	-1E+10	1	0.0581	4	0.000149	0	-1E+10	1	-1E+10	1	-1E+10	1
4902624	5	C	08/10/2024	06:33	-128.647	46.852	0	805.10	0	3.9500	0	34.2840	0	27.228	0	796.881	0	-1e10	1	-1e10	1	-1E+10	1	-1e10	1	-1e10	1	-1E+10	1	-1E+10	1	-1E+10	1
4902624	5	C	08/10/2024	06:33	-128.647	46.852	0	807.10	0	3.9450	0	34.2848	0	27.229	0	798.857	0	9.3	4	2.9	4	-1E+10	1	0.0514	4	0.000203	0	-1E+10	1	-1E+10	1	-1E+10	1
4902624	5	C	08/10/2024	06:33	-128.647	46.852	0	815.10	0	3.9250	0	34.2880	0	27.234	0	806.760	0	-1e10	1	-1e10	1	-1E+10	1	-1e10	1	-1e10	1	-1E+10	1	-1E+10	1	-1E+10	1
4902624	5	C	08/10/2024	06:33	-128.647	46.852	0	818.50	0	3.9185	0	34.2894	0	27.235	0	810.118	0	26.0	4	8.2	4	-1E+10	1	0.0584	4	0.000136	0	-1E+10	1	-1E+10	1	-1E+10	1
4902624	5	C	08/10/2024	06:33	-128.647	46.852	0	825.00	0	3.9060	0	34.2920	0	27.239	0	816.539	0	-1e10	1	-1e10	1	-1E+10	1	-1e10	1	-1e10	1	-1E+10	1	-1E+10	1	-1E+10	1
4902624	5	C	08/10/2024	06:33	-128.647	46.852	0	829.90	0	3.8950	0	34.2949	0	27.242	0	821.379	0	64.9	8	20.5	8	-1E+10	1	0.0584	4	0.000157	0	-1E+10	1	-1E+10	1	-1E+10	1
4902624	5	C	08/10/2024	06:33	-128.647	46.852	0	835.20	0	3.8830	0	34.2980	0	27.246	0	826.614	0	-1e10	1	-1e10	1	-1E+10	1	-1e10	1	-1e10	1	-1E+10	1	-1E+10	1	-1E+10	1
4902624	5	C	08/10/2024	06:33	-128.647	46.852	0	841.50	0	3.8661	0	34.3025	0	27.251	0	832.837	0	16.2	8	5.1	8	-1E+10	1	0.0587	4	0.000123	0	-1E+10	1	-1E+10	1	-1E+10	1
4902624	5	C	08/10/2024	06:33	-128.647	46.852	0	844.90	0	3.8570	0	34.3050	0	27.254	0	836.195	0	-1e10	1	-1e10	1	-1E+10	1	-1e10	1	-1e10	1	-1E+10	1	-1E+10	1	-1E+10	1
4902624	5	C	08/10/2024	06:33	-128.647	46.852	0	853.20	0	3.8402	0	34.3084	0	27.259	0	844.393	0	47.8	4	15.1	4	-1E+10	1	0.0651	4	0.000125	0	-1E+10	1	-1E+10	1	-1E+10	1
4902624	5	C	08/10/2024	06:33	-128.647	46.852	0	854.80	0	3.8370	0	34.3090	0	27.259	0	845.973	0	-1e10	1	-1e10	1	-1E+10	1	-1e10	1	-1e10	1	-1E+10	1	-1E+10	1	-1E+10	1
4902624	5	C	08/10/2024	06:33	-128.647	46.852	0	864.90	0	3.8108	0	34.3158	0	27.268	0	855.948	0	46.8	4	14.7	4	-1E+10	1	0.0514	4	0.000169	0	-1E+10	1	-1E+10	1	-1E+10	1
4902624	5	C	08/10/2024	06:33	-128.647	46.852	0	865.20	0	3.8100	0	34.3160	0	27.268	0	856.245	0	-1e10	1	-1e10	1	-1E+10	1	-1e10	1	-1e10	1	-1E+10	1	-1E+10	1	-1E+10	1
4902624	5	C	08/10/2024	06:33	-128.647	46.852	0	875.00	0	3.7790	0	34.3220	0	27.276	0	865.923	0	-1e10	1	-1e10	1	-1E+10	1	-1e10	1	-1e10	1	-1E+10	1	-1E+10	1	-1E+10	1
4902624	5	C	08/10/2024	06:33	-128.647	46.852	0	876.80	0	3.7740	0	34.3229	0	27.277	0	867.700	0	55.6	4	17.5	4	-1E+10	1	0.0581	4	0.000146	0	-1E+10	1	-1E+10	1	-1E+10	1
4902624	5	C	08/10/2024	06:33	-128.647	46.852	0	885.00	0	3.7510	0	34.3270	0	27.283	0	875.798	0	-1e10	1	-1e10	1	-1E+10	1	-1e10	1	-1e10	1	-1E+10	1	-1E+10	1	-1E+10	1
4902624	5	C	08/10/2024	06:33	-128.647	46.852	0	888.70	0	3.7442	0	34.3289	0	27.285	0	879.452	0	52.4	4	16.5	4	-1E+10	1	0.0514	4	0.000147	0	-1E+10	1	-1E+10	1	-1E+10	1
4902624	5	C	08/10/2024	06:33	-128.647	46.852	0	894.80	0	3.7330	0	34.3320	0	27.288	0	885.476	0	-1e10	1	-1e10	1	-1E+10	1	-1e10	1	-1e10	1	-1E+10	1	-1E+10	1	-1E+10	1
4902624	5	C	08/10/2024	06:33	-128.647	46.852	0	900.80	0	3.7209	0	34.3344	0	27.292	0	891.400	0	48.0	4	15.1	4	-1E+10	1	0.0584	4	0.000157	0	-1E+10	1	-1E+10	1	-1E+10	1
4902624	5	C	08/10/2024	06:33	-128.647	46.852	0	904.70	0	3.7130	0	34.3360	0	27.294	0	895.251	0	-1e10	1	-1e10	1	-1E+10	1	-1e10	1	-1e10	1	-1E+10	1	-1E+10	1	-1E+10	1
4902624	5	C	08/10/2024	06:33	-128.647	46.852	0	912.50	0	3.6908	0	34.3398	0	27.299	0	902.953	0	56.6	4	17.8	4	-1E+10	1	0.0584	4	0.000136	0	-1E+10	1	-1E+10	1	-1E+10	1
4902624	5	C	08/10/2024	06:33	-128.647	46.852	0	914.90	0	3.6840	0	34.3410	0	27.301	0	905.323	0	-1e10	1	-1e10	1	-1E+10	1	-1e10	1	-1e10	1	-1E+10	1	-1E+10	1	-1E+10	1
4902624	5	C	08/10/2024	06:33	-128.647	46.852	0	920.60	0	3.6711	0	34.3449	0	27.305	0	910.951	0	55.7	4	17.5	4	-1E+10	1	0.0579	4	0.000168	0	-1E+10	1	-1E+10	1	-1E+10	1
4902624	5	C	08/10/2024	06:33	-128.647	46.852	0	925.10	0	3.6610	0	34.3480	0	27.308	0	915.394	0	-1e10	1	-1e10	1	-1E+10	1	-1e10	1	-1e10	1	-1E+10	1	-1E+10	1	-1E+10	1
4902624	5	C	08/10/2024	06:33	-128.647	46.852	0	928.70	0	3.6520	0	34.3494	0	27.311	0	918.948	0	56.0	4	17.5	4	-1E+10	1	0.0443	4	0.000147	0	-1E+10	1	-1E+10	1	-1E+10	1
4902624	5	C	08/10/2024	06:33	-128.647	46.852	0	935.10	0	3.6360	0	34.3520	0	27.314	0	925.267	0	-1e10	1	-1e10	1	-1E+10	1	-1e10	1	-1e10	1	-1E+10	1	-1E+10	1	-1E+10	1
4902624	5	C	08/10/2024	06:33	-128.647	46.852	0	937.00	0	3.6325	0	34.3532	0	27.315	0	927.142	0	55.1	4	17.3	4	-1E+10	1	0.0581	4	0.000167	0	-1E+10	1	-1E+10	1	-1E+10	1
4902624	5	C	08/10/2024	06:33	-128.647	46.852	0	944.90	0	3.6180	0	34.3580	0	27.321	0	934.942	0	-1e10	1	-1e10	1	-1E+10	1	-1e10	1	-1e10	1	-1E+10	1	-1E+10	1	-1E+10	1
4902624	5	C	08/10/2024	06:33	-128.647	46.852	0	945.50	0	3.6167	0	34.3582	0	27.321	0	935.534	0	53.2	4	16.7	4	-1E+10	1	0.0511	4	0.000123	0	-1E+10	1	-1E+10	1	-1E+10	1
4902624	5	C	08/10/2024	06:33	-128.647	46.852	0	954.10	0	3.5975	0	34.3607	0	27.325	0	944.024	0	57.1	4	17.9	4	-1E+10	1	0.0513	4	0.000145	0	-1E+10	1	-1E+10	1	-1E+10	1
4902624	5	C	08/10/2024	06:33	-128.647	46.852	0	955.20	0	3.5950	0	34.3610	0	27.325	0	945.110	0	-1e10	1	-1e10	1	-1E+10	1	-1e10	1	-1e10	1	-1E+10	1	-1E+10	1	-1E+10	1
4902624	5	C	08/10/2024	06:33	-128.647	46.852	0	963.00	0	3.5808	0	34.3634	0	27.329	0	952.810	0	54.2	4	17.0	4	-1E+10	1	0.0584	4	0.000146	0	-1E+10	1	-1E+10	1	-1E+10	1
4902624	5	C	08/10/2024	06:33	-128.647	46.852	0	965.10	0	3.5770	0	34.3640	0	27.330	0	954.883	0	-1e10	1	-1e10	1	-1E+10	1	-1e10	1	-1e10	1	-1E+10	1	-1E+10	1	-1E+10	1
4902624	5	C	08/10/2024	06:33	-128.647	46.852	0	971.90	0	3.5673	0	34.3682	0	27.334	0	961.595	0	50.0	4	15.7	4	-1E+10	1	0.0589	4	0.000157	0	-1E+10	1	-1E+10	1	-1E+10	1
4902624	5	C	08/10/2024	06:33	-128.647	46.852	0	974.90	0	3.5630	0	34.3700	0	27.336	0	964.556	0	-1e10	1	-1e10	1	-1E+10	1	-1e10	1	-1e10	1	-1E+10	1	-1E+10	1	-1E+10	1
4902624	5	C	08/10/2024	06:33	-128.647	46.852	0	980.90	0	3.5485	0	34.3718	0	27.339	0	970.479	0	67.2	4	21.0	4	-1E+10	1	0.0725	4	0.000145	0	-1E+10	1	-1E+10	1	-1E+10	1
4902624	5	C	08/10/2024	06:33	-128.647	46.852	0	984.80	0	3.5390	0	34.3730	0	27.341	0	974.328	0	-1e10	1	-1e10	1	-1E+10	1	-1e10	1	-1e10	1	-1E+10	1	-1E+10	1	-1E+10	1
4902624	5	C	08/10/2024	06:33	-128.647	46.852	0	990.30	0	3.5271	0	34.3757	0	27.344	0	979.757	0	68.7	4	21.5	4	-1E+10	1	0.0586	4	0.000156	0	-1E+10	1	-1E+10	1	-1E+10	1
4902624	5	C	08/10/2024	06:33	-128.647	46.852	0	995.00	0	3.5170	0	34.3780	0	27.347	0	984.396	0	-1e10	1	-1e10	1	-1E+10	1	-1e10	1	-1e10	1	-1E+10	1	-1E+10	1	-1E+10	1
4902624	5	C	08/10/2024	06:33	-128.647	46.852	0	1004.60	0	3.4992	0	34.3832	0	27.353	0	993.871	0	69.1	4	21.6	4	-1E+10	1	0.0656	4	0.000145	0	-1E+10	1	-1E+10	1	-1E+10	1
4902624	5	C	08/10/2024	06:33	-128.647	46.852	0	1024.30	0	3.4627	0	34.3938	0	27.365	0	1013.313	0	65.6	4	20.5	4	-1E+10	1	0.0584	4	0.000156	0	-1E+10	1	-1E+10	1	-1E+10	1
4902624	5	C	08/10/2024	06:33	-128.647	46.852	0	1024.70	0	3.4620	0	34.3940	0	27.365	0	1013.708	0	-1e10	1	-1e10	1	-1E+10	1	-1e10	1	-1e10	1	-1E+10	1	-1E+10	1	-1E+10	1
4902624	5	C	08/10/2024	06:33	-128.647	46.852	0	1045.20	0	3.4169	0	34.4014	0	27.375	0	1033.937	0	63.9	4	19.9	4	-1E+10	1	0.0584	4	0.000155	0	-1E+10	1	-1E+10	1	-1E+10	1
4902624	5	C	08/10/2024	06:33	-128.647	46.852	0	1066.80	0	3.3694	0	34.4092	0	27.386	0	1055.250	0	62.7	4	19.5	4	-1E+10	1	0.0584	4	0.000132	0	-1E+10	1	-1E+10	1	-1E+10	1
4902624	5	C	08/10/2024	06:33	-128.647	46.852	0	1074.70	0	3.3520	0	34.4120	0	27.390	0	1063.045	0	-1e10	1	-1e10	1	-1E+10	1	-1e10	1	-1e10	1	-1E+10	1	-1E+10	1	-1E+10	1
4902624	5	C	08/10/2024	06:33	-128.647	46.852	0	1088.70	0	3.3201	0	34.4164	0	27.397	0	1076.857	0	56.2	4	17.5	4	-1E+10	1	0.0583	4	0.000132	0	-1E+10	1	-1E+10	1	-1E+10	1
4902624	5	C	08/10/2024	06:33	-128.647	46.852	0	1111.10	0	3.2689	0	34.4236	0	27.407	0	1098.955	0	56.3	4	17.5	4	-1E+10	1	0.0513	4	0.000155	0	-1E+10	1	-1E+10	1	-1E+10	1
4902624	5	C	08/10/2024	06:33	-128.647	46.852	0	1125.10	0	3.2370	0	34.4280	0	27.414	0	1112.764	0	-1e10	1	-1e10	1	-1E+10	1	-1e10	1	-1e10	1	-1E+10	1	-1E+10	1	-1E+10	1
4902624	5	C	08/10/2024	06:33	-128.647	46.852	0	1134.10	0	3.2144	0	34.4309	0	27.418	0	1121.642	0	73.8	4	22.9	4	-1E+10	1	0.0586	4	0.000155	0	-1E+10	1	-1E+10	1	-1E+10	1
4902624	5	C	08/10/2024	06:33	-128.647	46.852	0	1150.20	0	3.1740	0	34.4361	0	27.426	0	1137.521	0	60.4	4	18.7	4	-1E+10	1	0.0656	4	0.000166	0	-1E+10	1	-1E+10	1	-1E+10	1
4902624	5	C	08/10/2024	06:33	-128.647	46.852	0	1166.40	0	3.1333	0	34.4413	0	27.434	0	1153.498	0	68.6	4	21.2	4	-1E+10	1	0.0582	4	0.000142	0	-1E+10	1	-1E+10	1	-1E+10	1
4902624	5	C	08/10/2024	06:33	-128.647	46.852	0	1174.90	0	3.1120	0	34.4440	0	27.439	0	1161.881	0	-1e10	1	-1e10	1	-1E+10	1	-1e10	1	-1e10	1	-1E+10	1	-1E+10	1	-1E+10	1
4902624	5	C	08/10/2024	06:33	-128.647	46.852	0	1183.20	0	3.0915	0	34.4460	0	27.442	0	1170.066	0	74.6	4	23.1	4	-1E+10	1	0.0513	4	0.000143	0	-1E+10	1	-1E+10	1	-1E+10	1
4902624	5	C	08/10/2024	06:33	-128.647	46.852	0	1200.60	0	3.0485	0	34.4502	0	27.449	0	1187.224	0	81.8	4	25.3	4	-1E+10	1	0.0584	4	0.000165	0	-1E+10	1	-1E+10	1	-1E+10	1
4902624	5	C	08/10/2024	06:33	-128.647	46.852	0	1219.00	0	3.0031	0	34.4546	0	27.457	0	1205.366	0	104.4	4	32.3	4	-1E+10	1	0.0584	4	0.000165	0	-1E+10	1	-1E+10	1	-1E+10	1
4902624	5	C	08/10/2024	06:33	-128.647	46.852	0	1224.70	0	2.9890	0	34.4560	0	27.460	0	1210.986	0	-1e10	1	-1e10	1	-1E+10	1	-1e10	1	-1e10	1	-1E+10	1	-1E+10	1	-1E+10	1
4902624	5	C	08/10/2024	06:33	-128.647	46.852	0	1238.10	0	2.9617	0	34.4592	0	27.465	0	1224.197	0	114.7	4	35.4	4	-1E+10	1	0.0583	4	0.000164	0	-1E+10	1	-1E+10	1	-1E+10	1
4902624	5	C	08/10/2024	06:33	-128.647	46.852	0	1258.00	0	2.9211	0	34.4639	0	27.472	0	1243.814	0	124.4	4	38.3	4	-1E+10	1	0.0512	4	0.000141	0	-1E+10	1	-1E+10	1	-1E+10	1
4902624	5	C	08/10/2024	06:33	-128.647	46.852	0	1275.20	0	2.8860	0	34.4680	0	27.479	0	1260.769	0	-1e10	1	-1e10	1	-1E+10	1	-1e10	1	-1e10	1	-1E+10	1	-1E+10	1	-1E+10	1
4902624	5	C	08/10/2024	06:33	-128.647	46.852	0	1279.10	0	2.8799	0	34.4688	0	27.480	0	1264.613	0	133.6	4	41.1	4	-1E+10	1	0.0582	4	0.000130	0	-1E+10	1	-1E+10	1	-1E+10	1
4902624	5	C	08/10/2024	06:33	-128.647	46.852	0	1301.20	0	2.8456	0	34.4732	0	27.487	0	1286.395	0	137.0	4	42.1	4	-1E+10	1	0.0514	4	0.000164	0	-1E+10	1	-1E+10	1	-1E+10	1
4902624	5	C	08/10/2024	06:33	-128.647	46.852	0	1324.30	0	2.8097	0	34.4778	0	27.493	0	1309.161	0	128.9	4	39.6	4	-1E+10	1	0.0656	4	0.000152	0	-1E+10	1	-1E+10	1	-1E+10	1
4902624	5	C	08/10/2024	06:33	-128.647	46.852	0	1325.40	0	2.8080	0	34.4780	0	27.494	0	1310.245	0	-1e10	1	-1e10	1	-1E+10	1	-1e10	1	-1e10	1	-1E+10	1	-1E+10	1	-1E+10	1
4902624	5	C	08/10/2024	06:33	-128.647	46.852	0	1347.40	0	2.7715	0	34.4829	0	27.501	0	1331.924	0	103.4	4	31.8	4	-1E+10	1	0.0584	4	0.000163	0	-1E+10	1	-1E+10	1	-1E+10	1
4902624	5	C	08/10/2024	06:33	-128.647	46.852	0	1363.30	0	2.7451	0	34.4864	0	27.506	0	1347.590	0	109.9	4	33.7	4	-1E+10	1	0.0584	4	0.000140	0	-1E+10	1	-1E+10	1	-1E+10	1
4902624	5	C	08/10/2024	06:33	-128.647	46.852	0	1374.80	0	2.7260	0	34.4890	0	27.510	0	1358.921	0	-1e10	1	-1e10	1	-1E+10	1	-1e10	1	-1e10	1	-1E+10	1	-1E+10	1	-1E+10	1
4902624	5	C	08/10/2024	06:33	-128.647	46.852	0	1380.00	0	2.7173	0	34.4899	0	27.512	0	1364.044	0	95.2	4	29.2	4	-1E+10	1	0.0581	4	0.000151	0	-1E+10	1	-1E+10	1	-1E+10	1
4902624	5	C	08/10/2024	06:33	-128.647	46.852	0	1397.50	0	2.6879	0	34.4931	0	27.517	0	1381.284	0	96.6	4	29.6	4	-1E+10	1	0.0439	4	0.000127	0	-1E+10	1	-1E+10	1	-1E+10	1
4902624	5	C	08/10/2024	06:33	-128.647	46.852	0	1415.60	0	2.6576	0	34.4964	0	27.522	0	1399.114	0	88.3	4	27.1	4	-1E+10	1	0.0511	4	0.000117	0	-1E+10	1	-1E+10	1	-1E+10	1
4902624	5	C	08/10/2024	06:33	-128.647	46.852	0	1424.30	0	2.6430	0	34.4980	0	27.525	0	1407.684	0	-1e10	1	-1e10	1	-1E+10	1	-1e10	1	-1e10	1	-1E+10	1	-1E+10	1	-1E+10	1
4902624	5	C	08/10/2024	06:33	-128.647	46.852	0	1434.30	0	2.6246	0	34.5004	0	27.528	0	1417.534	0	89.9	4	27.5	4	-1E+10	1	0.0512	4	0.000173	0	-1E+10	1	-1E+10	1	-1E+10	1
4902624	5	C	08/10/2024	06:33	-128.647	46.852	0	1453.80	0	2.5888	0	34.5050	0	27.535	0	1436.740	0	97.2	4	29.7	4	-1E+10	1	0.0584	4	0.000126	0	-1E+10	1	-1E+10	1	-1E+10	1
4902624	5	C	08/10/2024	06:33	-128.647	46.852	0	1473.80	0	2.5520	0	34.5097	0	27.542	0	1456.436	0	95.9	4	29.3	4	-1E+10	1	0.0581	4	0.000115	0	-1E+10	1	-1E+10	1	-1E+10	1
4902624	5	C	08/10/2024	06:33	-128.647	46.852	0	1474.90	0	2.5500	0	34.5100	0	27.542	0	1457.519	0	-1e10	1	-1e10	1	-1E+10	1	-1e10	1	-1e10	1	-1E+10	1	-1E+10	1	-1E+10	1
4902624	5	C	08/10/2024	06:33	-128.647	46.852	0	1494.20	0	2.5188	0	34.5142	0	27.549	0	1476.524	0	96.9	4	29.6	4	-1E+10	1	0.0439	4	0.000160	0	-1E+10	1	-1E+10	1	-1E+10	1
4902624	5	C	08/10/2024	06:33	-128.647	46.852	0	1514.70	0	2.4857	0	34.5187	0	27.555	0	1496.709	0	87.2	4	26.6	4	-1E+10	1	0.0511	4	0.000126	0	-1E+10	1	-1E+10	1	-1E+10	1
4902624	5	C	08/10/2024	06:33	-128.647	46.852	0	1525.00	0	2.4690	0	34.5210	0	27.558	0	1506.850	0	-1e10	1	-1e10	1	-1E+10	1	-1e10	1	-1e10	1	-1E+10	1	-1E+10	1	-1E+10	1
4902624	5	C	08/10/2024	06:33	-128.647	46.852	0	1535.20	0	2.4543	0	34.5228	0	27.561	0	1516.892	0	91.8	4	28.0	4	-1E+10	1	0.0512	4	0.000160	0	-1E+10	1	-1E+10	1	-1E+10	1
4902624	5	C	08/10/2024	06:33	-128.647	46.852	0	1555.90	0	2.4243	0	34.5266	0	27.567	0	1537.270	0	92.7	4	28.2	4	-1E+10	1	0.0584	4	0.000136	0	-1E+10	1	-1E+10	1	-1E+10	1
4902624	5	C	08/10/2024	06:33	-128.647	46.852	0	1574.80	0	2.3970	0	34.5300	0	27.572	0	1555.875	0	-1e10	1	-1e10	1	-1E+10	1	-1e10	1	-1e10	1	-1E+10	1	-1E+10	1	-1E+10	1
4902624	5	C	08/10/2024	06:33	-128.647	46.852	0	1577.10	0	2.3938	0	34.5304	0	27.572	0	1558.138	0	95.4	4	29.0	4	-1E+10	1	0.0583	4	0.000124	0	-1E+10	1	-1E+10	1	-1E+10	1
4902624	5	C	08/10/2024	06:33	-128.647	46.852	0	1598.80	0	2.3641	0	34.5343	0	27.578	0	1579.497	0	105.9	4	32.2	4	-1E+10	1	0.0511	4	0.000113	0	-1E+10	1	-1E+10	1	-1E+10	1
4902624	5	C	08/10/2024	06:33	-128.647	46.852	0	1620.70	0	2.3340	0	34.5382	0	27.584	0	1601.049	0	95.5	4	29.0	4	-1E+10	1	0.0511	4	0.000136	0	-1E+10	1	-1E+10	1	-1E+10	1
4902624	5	C	08/10/2024	06:33	-128.647	46.852	0	1625.10	0	2.3280	0	34.5390	0	27.585	0	1605.379	0	-1e10	1	-1e10	1	-1E+10	1	-1e10	1	-1e10	1	-1E+10	1	-1E+10	1	-1E+10	1
4902624	5	C	08/10/2024	06:33	-128.647	46.852	0	1642.80	0	2.3042	0	34.5422	0	27.589	0	1622.797	0	102.7	4	31.2	4	-1E+10	1	0.0510	4	0.000158	0	-1E+10	1	-1E+10	1	-1E+10	1
4902624	5	C	08/10/2024	06:33	-128.647	46.852	0	1665.40	0	2.2737	0	34.5462	0	27.595	0	1645.034	0	107.3	4	32.6	4	-1E+10	1	0.0438	4	0.000146	0	-1E+10	1	-1E+10	1	-1E+10	1
4902624	5	C	08/10/2024	06:33	-128.647	46.852	0	1675.60	0	2.2600	0	34.5480	0	27.598	0	1655.069	0	-1e10	1	-1e10	1	-1E+10	1	-1e10	1	-1e10	1	-1E+10	1	-1E+10	1	-1E+10	1
4902624	5	C	08/10/2024	06:33	-128.647	46.852	0	1686.40	0	2.2471	0	34.5498	0	27.600	0	1665.695	0	109.4	4	33.2	4	-1E+10	1	0.0439	4	0.000146	0	-1E+10	1	-1E+10	1	-1E+10	1
4902624	5	C	08/10/2024	06:33	-128.647	46.852	0	1703.20	0	2.2271	0	34.5525	0	27.604	0	1682.222	0	103.4	4	31.4	4	-1E+10	1	0.0514	4	0.000145	0	-1E+10	1	-1E+10	1	-1E+10	1
4902624	5	C	08/10/2024	06:33	-128.647	46.852	0	1720.80	0	2.2061	0	34.5554	0	27.608	0	1699.535	0	106.9	4	32.4	4	-1E+10	1	0.0655	4	0.000122	0	-1E+10	1	-1E+10	1	-1E+10	1
4902624	5	C	08/10/2024	06:33	-128.647	46.852	0	1724.20	0	2.2020	0	34.5560	0	27.609	0	1702.879	0	-1e10	1	-1e10	1	-1E+10	1	-1e10	1	-1e10	1	-1E+10	1	-1E+10	1	-1E+10	1
4902624	5	C	08/10/2024	06:33	-128.647	46.852	0	1739.30	0	2.1829	0	34.5587	0	27.613	0	1717.731	0	111.7	4	33.8	4	-1E+10	1	0.0583	4	0.000111	0	-1E+10	1	-1E+10	1	-1E+10	1
4902624	5	C	08/10/2024	06:33	-128.647	46.852	0	1759.00	0	2.1581	0	34.5622	0	27.618	0	1737.106	0	113.1	4	34.2	4	-1E+10	1	0.0510	4	0.000155	0	-1E+10	1	-1E+10	1	-1E+10	1
4902624	5	C	08/10/2024	06:33	-128.647	46.852	0	1774.90	0	2.1380	0	34.5650	0	27.622	0	1752.743	0	-1e10	1	-1e10	1	-1E+10	1	-1e10	1	-1e10	1	-1E+10	1	-1E+10	1	-1E+10	1
4902624	5	C	08/10/2024	06:33	-128.647	46.852	0	1780.00	0	2.1327	0	34.5658	0	27.623	0	1757.758	0	115.4	4	34.9	4	-1E+10	1	0.0442	4	0.000110	0	-1E+10	1	-1E+10	1	-1E+10	1
4902624	5	C	08/10/2024	06:33	-128.647	46.852	0	1802.40	0	2.1093	0	34.5693	0	27.628	0	1779.784	0	117.7	4	35.6	4	-1E+10	1	0.0652	4	0.000132	0	-1E+10	1	-1E+10	1	-1E+10	1
4902624	5	C	08/10/2024	06:33	-128.647	46.852	0	1825.30	0	2.0854	0	34.5729	0	27.633	0	1802.300	0	119.2	4	36.0	4	-1E+10	1	0.0441	4	0.000131	0	-1E+10	1	-1E+10	1	-1E+10	1
4902624	5	C	08/10/2024	06:33	-128.647	46.852	0	1825.70	0	2.0850	0	34.5730	0	27.633	0	1802.693	0	-1e10	1	-1e10	1	-1E+10	1	-1e10	1	-1e10	1	-1E+10	1	-1E+10	1	-1E+10	1
4902624	5	C	08/10/2024	06:33	-128.647	46.852	0	1841.00	0	2.0719	0	34.5752	0	27.635	0	1817.735	0	120.1	4	36.3	4	-1E+10	1	0.0584	4	0.000120	0	-1E+10	1	-1E+10	1	-1E+10	1
4902624	5	C	08/10/2024	06:33	-128.647	46.852	0	1857.50	0	2.0579	0	34.5775	0	27.639	0	1833.955	0	121.2	4	36.6	4	-1E+10	1	0.0583	4	0.000120	0	-1E+10	1	-1E+10	1	-1E+10	1
4902624	5	C	08/10/2024	06:33	-128.647	46.852	0	1874.90	0	2.0430	0	34.5800	0	27.642	0	1851.059	0	-1e10	1	-1e10	1	-1E+10	1	-1e10	1	-1e10	1	-1E+10	1	-1E+10	1	-1E+10	1
4902624	5	C	08/10/2024	06:33	-128.647	46.852	0	1875.40	0	2.0426	0	34.5801	0	27.642	0	1851.551	0	122.4	4	36.9	4	-1E+10	1	0.0513	4	0.000131	0	-1E+10	1	-1E+10	1	-1E+10	1
4902624	5	C	08/10/2024	06:33	-128.647	46.852	0	1893.90	0	2.0289	0	34.5819	0	27.644	0	1869.734	0	122.9	4	37.1	4	-1E+10	1	0.0581	4	0.000119	0	-1E+10	1	-1E+10	1	-1E+10	1
4902624	5	C	08/10/2024	06:33	-128.647	46.852	0	1913.40	0	2.0145	0	34.5839	0	27.647	0	1888.899	0	123.6	4	37.3	4	-1E+10	1	0.0439	4	0.000130	0	-1E+10	1	-1E+10	1	-1E+10	1
4902624	5	C	08/10/2024	06:33	-128.647	46.852	0	1924.90	0	2.0060	0	34.5850	0	27.649	0	1900.200	0	-1e10	1	-1e10	1	-1E+10	1	-1e10	1	-1e10	1	-1E+10	1	-1E+10	1	-1E+10	1
4902624	5	C	08/10/2024	06:33	-128.647	46.852	0	1933.50	0	1.9998	0	34.5862	0	27.650	0	1908.651	0	124.1	4	37.4	4	-1E+10	1	0.0510	4	0.000142	0	-1E+10	1	-1E+10	1	-1E+10	1
4902624	5	C	08/10/2024	06:33	-128.647	46.852	0	1953.90	0	1.9850	0	34.5890	0	27.654	0	1928.697	0	123.9	4	37.3	4	-1E+10	1	0.0440	4	0.000152	0	-1E+10	1	-1E+10	1	-1E+10	1
4902624	5	C	08/10/2024	06:33	-128.647	46.852	0	1960.80	0	1.9800	0	34.5900	0	27.655	0	1935.477	0	-1e10	1	-1e10	1	-1E+10	1	-1e10	1	-1e10	1	-1E+10	1	-1E+10	1	-1E+10	1
4902624	5	C	08/10/2024	06:33	-128.647	46.852	0	1971.00	0	-1e10	1	-1e10	1	-1e10	1	1945.498	0	126.9	4	-1e10	4	-1E+10	1	0.0511	4	0.000143	0	-1E+10	1	-1E+10	1	-1E+10	1
4902624	5	C	08/10/2024	06:33	-128.647	46.852	0																										
4902624	6	C	08/20/2024	01:32	-128.600	46.966	0	0.10	0	18.1799	0	32.1977	0	23.085	0	0.099	0	223.3	4	94.0	4	-1E+10	1	0.1168	4	0.000554	0	-1E+10	1	-1E+10	1	-1E+10	1
4902624	6	C	08/20/2024	01:32	-128.600	46.966	0	0.50	0	18.1890	0	32.2160	0	23.096	0	0.496	0	-1e10	1	-1e10	1	-1E+10	1	-1e10	1	-1e10	1	-1E+10	1	-1E+10	1	-1E+10	1
4902624	6	C	08/20/2024	01:32	-128.600	46.966	0	1.00	0	18.1890	0	32.2170	0	23.097	0	0.992	0	-1e10	1	-1e10	1	-1E+10	1	0.1022	4	0.000414	0	-1E+10	1	-1E+10	1	-1E+10	1
4902624	6	C	08/20/2024	01:32	-128.600	46.966	0	1.10	0	18.1890	0	32.2172	0	23.097	0	1.091	0	-1e10	1	-1e10	1	-1E+10	1	0.0876	4	0.000566	0	-1E+10	1	-1E+10	1	-1E+10	1
4902624	6	C	08/20/2024	01:32	-128.600	46.966	0	1.30	0	18.1890	0	32.2176	0	23.098	0	1.289	0	-1e10	1	-1e10	1	-1E+10	1	0.1241	4	0.000496	0	-1E+10	1	-1E+10	1	-1E+10	1
4902624	6	C	08/20/2024	01:32	-128.600	46.966	0	1.50	0	18.1890	0	32.2180	0	23.098	0	1.488	0	-1e10	1	-1e10	1	-1E+10	1	-1e10	1	-1e10	1	-1E+10	1	-1E+10	1	-1E+10	1
4902624	6	C	08/20/2024	01:32	-128.600	46.966	0	1.70	0	18.1899	0	32.2178	0	23.097	0	1.686	0	224.2	4	94.4	4	-1E+10	1	0.1095	4	0.000449	0	-1E+10	1	-1E+10	1	-1E+10	1
4902624	6	C	08/20/2024	01:32	-128.600	46.966	0	1.80	0	18.1903	0	32.2177	0	23.097	0	1.785	0	-1e10	1	-1e10	1	-1E+10	1	0.1168	4	0.000812	0	-1E+10	1	-1E+10	1	-1E+10	1
4902624	6	C	08/20/2024	01:32	-128.600	46.966	0	2.00	0	18.1912	0	32.2174	0	23.097	0	1.983	0	-1e10	1	-1e10	1	-1E+10	1	0.1387	4	0.000519	0	-1E+10	1	-1E+10	1	-1E+10	1
4902624	6	C	08/20/2024	01:32	-128.600	46.966	0	2.20	0	18.1921	0	32.2172	0	23.097	0	2.182	0	-1e10	1	-1e10	1	-1E+10	1	0.1168	4	0.000437	0	-1E+10	1	-1E+10	1	-1E+10	1
4902624	6	C	08/20/2024	01:32	-128.600	46.966	0	2.40	0	18.1930	0	32.2170	0	23.096	0	2.380	0	224.2	4	94.4	4	-1E+10	1	0.1168	4	0.000414	0	-1E+10	1	-1E+10	1	-1E+10	1
4902624	6	C	08/20/2024	01:32	-128.600	46.966	0	2.60	0	18.1928	0	32.2172	0	23.096	0	2.578	0	-1e10	1	-1e10	1	-1E+10	1	0.1314	4	0.000484	0	-1E+10	1	-1E+10	1	-1E+10	1
4902624	6	C	08/20/2024	01:32	-128.600	46.966	0	2.70	0	18.1927	0	32.2173	0	23.096	0	2.678	0	-1e10	1	-1e10	1	-1E+10	1	0.1168	4	0.000425	0	-1E+10	1	-1E+10	1	-1E+10	1
4902624	6	C	08/20/2024	01:32	-128.600	46.966	0	3.20	0	18.1923	0	32.2177	0	23.097	0	3.173	0	-1e10	1	-1e10	1	-1E+10	1	0.1095	4	0.000367	0	-1E+10	1	-1E+10	1	-1E+10	1
4902624	6	C	08/20/2024	01:32	-128.600	46.966	0	3.40	0	18.1921	0	32.2179	0	23.097	0	3.372	0	224.3	4	94.4	4	-1E+10	1	0.1168	4	0.000449	0	-1E+10	1	-1E+10	1	-1E+10	1
4902624	6	C	08/20/2024	01:32	-128.600	46.966	0	3.50	0	18.1920	0	32.2180	0	23.097	0	3.471	0	-1e10	1	-1e10	1	-1E+10	1	-1e10	1	-1e10	1	-1E+10	1	-1E+10	1	-1E+10	1
4902624	6	C	08/20/2024	01:32	-128.600	46.966	0	3.60	0	18.1918	0	32.2179	0	23.097	0	3.570	0	-1e10	1	-1e10	1	-1E+10	1	0.1314	4	0.000390	0	-1E+10	1	-1E+10	1	-1E+10	1
4902624	6	C	08/20/2024	01:32	-128.600	46.966	0	3.70	0	18.1916	0	32.2178	0	23.097	0	3.669	0	-1e10	1	-1e10	1	-1E+10	1	0.1168	4	0.000367	0	-1E+10	1	-1E+10	1	-1E+10	1
4902624	6	C	08/20/2024	01:32	-128.600	46.966	0	4.00	0	18.1910	0	32.2175	0	23.097	0	3.967	0	-1e10	1	-1e10	1	-1E+10	1	0.1168	4	0.000437	0	-1E+10	1	-1E+10	1	-1E+10	1
4902624	6	C	08/20/2024	01:32	-128.600	46.966	0	4.10	0	18.1908	0	32.2174	0	23.097	0	4.066	0	-1e10	1	-1e10	1	-1E+10	1	0.1241	4	0.000601	0	-1E+10	1	-1E+10	1	-1E+10	1
4902624	6	C	08/20/2024	01:32	-128.600	46.966	0	4.30	0	18.1904	0	32.2172	0	23.097	0	4.264	0	224.4	4	94.5	4	-1E+10	1	0.1825	4	0.000531	0	-1E+10	1	-1E+10	1	-1E+10	1
4902624	6	C	08/20/2024	01:32	-128.600	46.966	0	4.50	0	18.1900	0	32.2170	0	23.097	0	4.463	0	-1e10	1	-1e10	1	-1E+10	1	0.1168	4	0.000367	0	-1E+10	1	-1E+10	1	-1E+10	1
4902624	6	C	08/20/2024	01:32	-128.600	46.966	0	4.90	0	18.1904	0	32.2170	0	23.097	0	4.859	0	-1e10	1	-1e10	1	-1E+10	1	0.1095	4	0.000402	0	-1E+10	1	-1E+10	1	-1E+10	1
4902624	6	C	08/20/2024	01:32	-128.600	46.966	0	5.00	0	18.1905	0	32.2170	0	23.097	0	4.958	0	-1e10	1	-1e10	1	-1E+10	1	0.1460	4	0.000425	0	-1E+10	1	-1E+10	1	-1E+10	1
4902624	6	C	08/20/2024	01:32	-128.600	46.966	0	5.20	0	18.1907	0	32.2170	0	23.097	0	5.157	0	224.7	4	94.6	4	-1E+10	1	0.1460	4	0.000460	0	-1E+10	1	-1E+10	1	-1E+10	1
4902624	6	C	08/20/2024	01:32	-128.600	46.966	0	5.40	0	18.1909	0	32.2170	0	23.097	0	5.355	0	-1e10	1	-1e10	1	-1E+10	1	0.1095	4	0.000460	0	-1E+10	1	-1E+10	1	-1E+10	1
4902624	6	C	08/20/2024	01:32	-128.600	46.966	0	5.50	0	18.1910	0	32.2170	0	23.097	0	5.454	0	-1e10	1	-1e10	1	-1E+10	1	-1e10	1	-1e10	1	-1E+10	1	-1E+10	1	-1E+10	1
4902624	6	C	08/20/2024	01:32	-128.600	46.966	0	5.60	0	18.1908	0	32.2170	0	23.097	0	5.553	0	-1e10	1	-1e10	1	-1E+10	1	0.1241	4	0.000425	0	-1E+10	1	-1E+10	1	-1E+10	1
4902624	6	C	08/20/2024	01:32	-128.600	46.966	0	5.80	0	18.1903	0	32.2170	0	23.097	0	5.752	0	-1e10	1	-1e10	1	-1E+10	1	0.1168	4	0.000402	0	-1E+10	1	-1E+10	1	-1E+10	1
4902624	6	C	08/20/2024	01:32	-128.600	46.966	0	6.10	0	18.1897	0	32.2170	0	23.097	0	6.049	0	224.7	4	94.6	4	-1E+10	1	0.1241	4	0.000437	0	-1E+10	1	-1E+10	1	-1E+10	1
4902624	6	C	08/20/2024	01:32	-128.600	46.966	0	6.30	0	18.1892	0	32.2170	0	23.097	0	6.248	0	-1e10	1	-1e10	1	-1E+10	1	0.1241	4	0.000402	0	-1E+10	1	-1E+10	1	-1E+10	1
4902624	6	C	08/20/2024	01:32	-128.600	46.966	0	6.40	0	18.1890	0	32.2170	0	23.097	0	6.347	0	-1e10	1	-1e10	1	-1E+10	1	0.1168	4	0.000414	0	-1E+10	1	-1E+10	1	-1E+10	1
4902624	6	C	08/20/2024	01:32	-128.600	46.966	0	6.60	0	18.1864	0	32.2174	0	23.098	0	6.545	0	-1e10	1	-1e10	1	-1E+10	1	0.1314	4	0.000425	0	-1E+10	1	-1E+10	1	-1E+10	1
4902624	6	C	08/20/2024	01:32	-128.600	46.966	0	6.80	0	18.1838	0	32.2178	0	23.099	0	6.743	0	-1e10	1	-1e10	1	-1E+10	1	0.1314	4	0.000449	0	-1E+10	1	-1E+10	1	-1E+10	1
4902624	6	C	08/20/2024	01:32	-128.600	46.966	0	7.00	0	18.1812	0	32.2182	0	23.100	0	6.942	0	225.1	4	94.7	4	-1E+10	1	0.1241	4	0.000437	0	-1E+10	1	-1E+10	1	-1E+10	1
4902624	6	C	08/20/2024	01:32	-128.600	46.966	0	7.20	0	18.1786	0	32.2186	0	23.101	0	7.140	0	-1e10	1	-1e10	1	-1E+10	1	0.1314	4	0.000531	0	-1E+10	1	-1E+10	1	-1E+10	1
4902624	6	C	08/20/2024	01:32	-128.600	46.966	0	7.40	0	18.1760	0	32.2190	0	23.102	0	7.338	0	-1e10	1	-1e10	1	-1E+10	1	0.1460	4	0.000414	0	-1E+10	1	-1E+10	1	-1E+10	1
4902624	6	C	08/20/2024	01:32	-128.600	46.966	0	7.60	0	18.1708	0	32.2194	0	23.104	0	7.537	0	-1e10	1	-1e10	1	-1E+10	1	0.1314	4	0.000460	0	-1E+10	1	-1E+10	1	-1E+10	1
4902624	6	C	08/20/2024	01:32	-128.600	46.966	0	7.90	0	18.1630	0	32.2200	0	23.106	0	7.834	0	225.5	4	94.9	4	-1E+10	1	0.1241	4	0.000496	0	-1E+10	1	-1E+10	1	-1E+10	1
4902624	6	C	08/20/2024	01:32	-128.600	46.966	0	8.10	0	18.1578	0	32.2204	0	23.108	0	8.033	0	-1e10	1	-1e10	1	-1E+10	1	0.1387	4	0.000378	0	-1E+10	1	-1E+10	1	-1E+10	1
4902624	6	C	08/20/2024	01:32	-128.600	46.966	0	8.30	0	18.1526	0	32.2208	0	23.109	0	8.231	0	-1e10	1	-1e10	1	-1E+10	1	0.1752	4	0.000425	0	-1E+10	1	-1E+10	1	-1E+10	1
4902624	6	C	08/20/2024	01:32	-128.600	46.966	0	8.40	0	18.1500	0	32.2210	0	23.110	0	8.330	0	-1e10	1	-1e10	1	-1E+10	1	0.1679	4	0.000672	0	-1E+10	1	-1E+10	1	-1E+10	1
4902624	6	C	08/20/2024	01:32	-128.600	46.966	0	8.60	0	18.1484	0	32.2210	0	23.110	0	8.528	0	-1e10	1	-1e10	1	-1E+10	1	0.1387	4	0.000449	0	-1E+10	1	-1E+10	1	-1E+10	1
4902624	6	C	08/20/2024	01:32	-128.600	46.966	0	8.80	0	18.1467	0	32.2210	0	23.111	0	8.727	0	225.7	4	94.9	4	-1E+10	1	0.1314	4	0.000449	0	-1E+10	1	-1E+10	1	-1E+10	1
4902624	6	C	08/20/2024	01:32	-128.600	46.966	0	9.00	0	18.1451	0	32.2210	0	23.111	0	8.925	0	-1e10	1	-1e10	1	-1E+10	1	0.1241	4	0.000414	0	-1E+10	1	-1E+10	1	-1E+10	1
4902624	6	C	08/20/2024	01:32	-128.600	46.966	0	9.40	0	18.1418	0	32.2210	0	23.112	0	9.322	0	-1e10	1	-1e10	1	-1E+10	1	0.1241	4	0.000437	0	-1E+10	1	-1E+10	1	-1E+10	1
4902624	6	C	08/20/2024	01:32	-128.600	46.966	0	9.50	0	18.1410	0	32.2210	0	23.112	0	9.421	0	-1e10	1	-1e10	1	-1E+10	1	-1e10	1	-1e10	1	-1E+10	1	-1E+10	1	-1E+10	1
4902624	6	C	08/20/2024	01:32	-128.600	46.966	0	9.60	0	18.1391	0	32.2212	0	23.113	0	9.520	0	-1e10	1	-1e10	1	-1E+10	1	0.1606	4	0.000449	0	-1E+10	1	-1E+10	1	-1E+10	1
4902624	6	C	08/20/2024	01:32	-128.600	46.966	0	9.80	0	18.1352	0	32.2216	0	23.114	0	9.718	0	226.1	4	95.1	4	-1E+10	1	0.1314	4	0.000484	0	-1E+10	1	-1E+10	1	-1E+10	1
4902624	6	C	08/20/2024	01:32	-128.600	46.966	0	10.80	0	18.1158	0	32.2234	0	23.120	0	10.710	0	226.6	4	95.3	4	-1E+10	1	0.1497	4	0.000431	0	-1E+10	1	-1E+10	1	-1E+10	1
4902624	6	C	08/20/2024	01:32	-128.600	46.966	0	11.10	0	18.1100	0	32.2240	0	23.122	0	11.008	0	-1e10	1	-1e10	1	-1E+10	1	-1e10	1	-1e10	1	-1E+10	1	-1E+10	1	-1E+10	1
4902624	6	C	08/20/2024	01:32	-128.600	46.966	0	11.80	0	18.0942	0	32.2240	0	23.126	0	11.702	0	227.1	4	95.4	4	-1E+10	1	0.1518	4	0.000474	0	-1E+10	1	-1E+10	1	-1E+10	1
4902624	6	C	08/20/2024	01:32	-128.600	46.966	0	12.80	0	18.0715	0	32.2240	0	23.131	0	12.693	0	227.6	4	95.6	4	-1E+10	1	0.1539	4	0.000482	0	-1E+10	1	-1E+10	1	-1E+10	1
4902624	6	C	08/20/2024	01:32	-128.600	46.966	0	13.00	0	18.0670	0	32.2240	0	23.133	0	12.892	0	-1e10	1	-1e10	1	-1E+10	1	-1e10	1	-1e10	1	-1E+10	1	-1E+10	1	-1E+10	1
4902624	6	C	08/20/2024	01:32	-128.600	46.966	0	13.80	0	18.0506	0	32.2236	0	23.136	0	13.685	0	228.2	4	95.8	4	-1E+10	1	0.1411	4	0.000532	0	-1E+10	1	-1E+10	1	-1E+10	1
4902624	6	C	08/20/2024	01:32	-128.600	46.966	0	14.90	0	18.0280	0	32.2230	0	23.141	0	14.776	0	228.9	4	96.1	4	-1E+10	1	0.1679	4	0.000543	0	-1E+10	1	-1E+10	1	-1E+10	1
4902624	6	C	08/20/2024	01:32	-128.600	46.966	0	15.00	0	18.0260	0	32.2230	0	23.142	0	14.875	0	-1e10	1	-1e10	1	-1E+10	1	-1e10	1	-1e10	1	-1E+10	1	-1E+10	1	-1E+10	1
4902624	6	C	08/20/2024	01:32	-128.600	46.966	0	15.90	0	18.0108	0	32.2221	0	23.145	0	15.767	0	229.7	4	96.4	4	-1E+10	1	0.1606	4	0.000496	0	-1E+10	1	-1E+10	1	-1E+10	1
4902624	6	C	08/20/2024	01:32	-128.600	46.966	0	16.90	0	17.9940	0	32.2210	0	23.148	0	16.759	0	-1e10	1	-1e10	1	-1E+10	1	-1e10	1	-1e10	1	-1E+10	1	-1E+10	1	-1E+10	1
4902624	6	C	08/20/2024	01:32	-128.600	46.966	0	17.00	0	17.9919	0	32.2210	0	23.149	0	16.858	0	230.7	4	96.8	4	-1E+10	1	0.1825	4	0.000484	0	-1E+10	1	-1E+10	1	-1E+10	1
4902624	6	C	08/20/2024	01:32	-128.600	46.966	0	18.10	0	17.9683	0	32.2210	0	23.154	0	17.949	0	232.0	4	97.2	4	-1E+10	1	0.1898	4	0.000507	0	-1E+10	1	-1E+10	1	-1E+10	1
4902624	6	C	08/20/2024	01:32	-128.600	46.966	0	18.80	0	17.9533	0	32.2210	0	23.158	0	18.643	0	232.9	4	97.6	4	-1E+10	1	0.2117	4	0.000413	0	-1E+10	1	-1E+10	1	-1E+10	1
4902624	6	C	08/20/2024	01:32	-128.600	46.966	0	19.00	0	17.9490	0	32.2210	0	23.159	0	18.841	0	-1e10	1	-1e10	1	-1E+10	1	-1e10	1	-1e10	1	-1E+10	1	-1E+10	1	-1E+10	1
4902624	6	C	08/20/2024	01:32	-128.600	46.966	0	19.20	0	17.9290	0	32.2214	0	23.164	0	19.040	0	233.5	4	97.8	4	-1E+10	1	0.2159	4	0.000447	0	-1E+10	1	-1E+10	1	-1E+10	1
4902624	6	C	08/20/2024	01:32	-128.600	46.966	0	19.60	0	17.8890	0	32.2223	0	23.175	0	19.436	0	235.0	4	98.4	4	-1E+10	1	0.2226	4	0.000469	0	-1E+10	1	-1E+10	1	-1E+10	1
4902624	6	C	08/20/2024	01:32	-128.600	46.966	0	19.90	0	17.8590	0	32.2229	0	23.182	0	19.734	0	236.2	4	98.8	4	-1E+10	1	0.2336	4	0.000460	0	-1E+10	1	-1E+10	1	-1E+10	1
4902624	6	C	08/20/2024	01:32	-128.600	46.966	0	20.20	0	17.8290	0	32.2235	0	23.190	0	20.031	0	237.8	4	99.4	4	-1E+10	1	0.2920	4	0.000542	0	-1E+10	1	-1E+10	1	-1E+10	1
4902624	6	C	08/20/2024	01:32	-128.600	46.966	0	20.50	0	17.7990	0	32.2242	0	23.198	0	20.329	0	240.0	4	100.3	4	-1E+10	1	0.2701	4	0.000683	0	-1E+10	1	-1E+10	1	-1E+10	1
4902624	6	C	08/20/2024	01:32	-128.600	46.966	0	20.80	0	17.7690	0	32.2248	0	23.205	0	20.626	0	242.4	4	101.2	4	-1E+10	1	0.3084	4	0.000639	0	-1E+10	1	-1E+10	1	-1E+10	1
4902624	6	C	08/20/2024	01:32	-128.600	46.966	0	20.90	0	17.7590	0	32.2250	0	23.208	0	20.726	0	-1e10	1	-1e10	1	-1E+10	1	-1e10	1	-1e10	1	-1E+10	1	-1E+10	1	-1E+10	1
4902624	6	C	08/20/2024	01:32	-128.600	46.966	0	21.20	0	17.6028	0	32.2364	0	23.254	0	21.023	0	246.0	4	102.4	4	-1E+10	1	0.3760	4	0.000704	0	-1E+10	1	-1E+10	1	-1E+10	1
4902624	6	C	08/20/2024	01:32	-128.600	46.966	0	21.60	0	17.3947	0	32.2516	0	23.315	0	21.420	0	250.7	4	104.0	4	-1E+10	1	0.5037	4	0.000808	0	-1E+10	1	-1E+10	1	-1E+10	1
4902624	6	C	08/20/2024	01:32	-128.600	46.966	0	22.10	0	17.1344	0	32.2706	0	23.391	0	21.915	0	255.5	4	105.5	4	-1E+10	1	0.5220	4	0.000748	0	-1E+10	1	-1E+10	1	-1E+10	1
4902624	6	C	08/20/2024	01:32	-128.600	46.966	0	22.60	0	16.8742	0	32.2896	0	23.466	0	22.411	0	257.8	4	105.9	4	-1E+10	1	0.5052	4	0.000688	0	-1E+10	1	-1E+10	1	-1E+10	1
4902624	6	C	08/20/2024	01:32	-128.600	46.966	0	22.90	0	16.7180	0	32.3010	0	23.511	0	22.709	0	-1e10	1	-1e10	1	-1E+10	1	-1e10	1	-1e10	1	-1E+10	1	-1E+10	1	-1E+10	1
4902624	6	C	08/20/2024	01:32	-128.600	46.966	0	23.10	0	16.6513	0	32.3042	0	23.529	0	22.907	0	260.4	4	106.5	4	-1E+10	1	0.5426	4	0.000733	0	-1E+10	1	-1E+10	1	-1E+10	1
4902624	6	C	08/20/2024	01:32	-128.600	46.966	0	23.60	0	16.4846	0	32.3122	0	23.573	0	23.403	0	262.9	4	107.2	4	-1E+10	1	0.5089	4	0.000675	0	-1E+10	1	-1E+10	1	-1E+10	1
4902624	6	C	08/20/2024	01:32	-128.600	46.966	0	24.20	0	16.2845	0	32.3218	0	23.626	0	23.998	0	264.9	4	107.6	4	-1E+10	1	0.5402	4	0.000695	0	-1E+10	1	-1E+10	1	-1E+10	1
4902624	6	C	08/20/2024	01:32	-128.600	46.966	0	24.80	0	16.0844	0	32.3314	0	23.679	0	24.593	0	267.6	4	108.3	4	-1E+10	1	0.5767	4	0.000730	0	-1E+10	1	-1E+10	1	-1E+10	1
4902624	6	C	08/20/2024	01:32	-128.600	46.966	0	24.90	0	16.0510	0	32.3330	0	23.687	0	24.692	0	-1e10	1	-1e10	1	-1E+10	1	-1e10	1	-1e10	1	-1E+10	1	-1E+10	1	-1E+10	1
4902624	6	C	08/20/2024	01:32	-128.600	46.966	0	25.50	0	15.7794	0	32.3428	0	23.756	0	25.287	0	270.0	4	108.6	4	-1E+10	1	0.7925	4	0.001332	0	-1E+10	1	-1E+10	1	-1E+10	1
4902624	6	C	08/20/2024	01:32	-128.600	46.966	0	26.30	0	15.4172	0	32.3559	0	23.845	0	26.080	0	271.4	4	108.4	4	-1E+10	1	0.9028	4	0.001090	0	-1E+10	1	-1E+10	1	-1E+10	1
4902624	6	C	08/20/2024	01:32	-128.600	46.966	0	27.10	0	15.0550	0	32.3690	0	23.934	0	26.873	0	271.0	4	107.5	4	-1E+10	1	0.9636	4	0.000896	0	-1E+10	1	-1E+10	1	-1E+10	1
4902624	6	C	08/20/2024	01:32	-128.600	46.966	0	28.00	0	14.7831	0	32.3704	0	23.994	0	27.766	0	273.2	4	107.8	4	-1E+10	1	1.0329	4	0.000976	0	-1E+10	1	-1E+10	1	-1E+10	1
4902624	6	C	08/20/2024	01:32	-128.600	46.966	0	28.90	0	14.5112	0	32.3718	0	24.052	0	28.658	0	273.9	4	107.5	4	-1E+10	1	1.1050	4	0.001055	0	-1E+10	1	-1E+10	1	-1E+10	1
4902624	6	C	08/20/2024	01:32	-128.600	46.966	0	29.00	0	14.4810	0	32.3720	0	24.059	0	28.757	0	-1e10	1	-1e10	1	-1E+10	1	-1e10	1	-1e10	1	-1E+10	1	-1E+10	1	-1E+10	1
4902624	6	C	08/20/2024	01:32	-128.600	46.966	0	29.80	0	14.3130	0	32.3707	0	24.093	0	29.551	0	274.3	4	107.2	4	-1E+10	1	1.1948	4	0.001125	0	-1E+10	1	-1E+10	1	-1E+10	1
4902624	6	C	08/20/2024	01:32	-128.600	46.966	0	30.80	0	14.1030	0	32.3692	0	24.135	0	30.542	0	274.5	4	106.8	4	-1E+10	1	1.3596	4	0.001440	0	-1E+10	1	-1E+10	1	-1E+10	1
4902624	6	C	08/20/2024	01:32	-128.600	46.966	0	30.90	0	14.0820	0	32.3690	0	24.139	0	30.641	0	-1e10	1	-1e10	1	-1E+10	1	-1e10	1	-1e10	1	-1E+10	1	-1E+10	1	-1E+10	1
4902624	6	C	08/20/2024	01:32	-128.600	46.966	0	31.70	0	13.8637	0	32.3770	0	24.190	0	31.435	0	274.8	4	106.4	4	-1E+10	1	1.4965	4	0.001809	0	-1E+10	1	-1E+10	1	-1E+10	1
4902624	6	C	08/20/2024	01:32	-128.600	46.966	0	32.90	0	13.5363	0	32.3890	0	24.266	0	32.624	0	275.4	4	106.0	4	-1E+10	1	1.7009	4	0.001504	0	-1E+10	1	-1E+10	1	-1E+10	1
4902624	6	C	08/20/2024	01:32	-128.600	46.966	0	33.00	0	13.5090	0	32.3900	0	24.272	0	32.724	0	-1e10	1	-1e10	1	-1E+10	1	-1e10	1	-1e10	1	-1E+10	1	-1E+10	1	-1E+10	1
4902624	6	C	08/20/2024	01:32	-128.600	46.966	0	33.80	0	13.3518	0	32.3916	0	24.305	0	33.517	0	275.3	4	105.6	4	-1E+10	1	1.9418	4	0.001575	0	-1E+10	1	-1E+10	1	-1E+10	1
4902624	6	C	08/20/2024	01:32	-128.600	46.966	0	34.70	0	13.1749	0	32.3934	0	24.341	0	34.409	0	274.8	4	105.0	4	-1E+10	1	2.0002	4	0.001504	0	-1E+10	1	-1E+10	1	-1E+10	1
4902624	6	C	08/20/2024	01:32	-128.600	46.966	0	35.00	0	13.1160	0	32.3940	0	24.353	0	34.707	0	-1e10	1	-1e10	1	-1E+10	1	-1e10	1	-1e10	1	-1E+10	1	-1E+10	1	-1E+10	1
4902624	6	C	08/20/2024	01:32	-128.600	46.966	0	35.30	0	13.0899	0	32.3943	0	24.359	0	35.004	0	274.7	4	104.8	4	-1E+10	1	1.9953	4	0.001559	0	-1E+10	1	-1E+10	1	-1E+10	1
4902624	6	C	08/20/2024	01:32	-128.600	46.966	0	35.90	0	13.0377	0	32.3949	0	24.370	0	35.599	0	274.2	4	104.5	4	-1E+10	1	2.0586	4	0.001657	0	-1E+10	1	-1E+10	1	-1E+10	1
4902624	6	C	08/20/2024	01:32	-128.600	46.966	0	36.60	0	12.9768	0	32.3956	0	24.382	0	36.293	0	273.8	4	104.2	4	-1E+10	1	2.1425	4	0.001795	0	-1E+10	1	-1E+10	1	-1E+10	1
4902624	6	C	08/20/2024	01:32	-128.600	46.966	0	37.00	0	12.9420	0	32.3960	0	24.389	0	36.690	0	-1e10	1	-1e10	1	-1E+10	1	-1e10	1	-1e10	1	-1E+10	1	-1E+10	1	-1E+10	1
4902624	6	C	08/20/2024	01:32	-128.600	46.966	0	37.20	0	12.9063	0	32.3975	0	24.397	0	36.888	0	273.5	4	103.9	4	-1E+10	1	2.1590	4	0.001879	0	-1E+10	1	-1E+10	1	-1E+10	1
4902624	6	C	08/20/2024	01:32	-128.600	46.966	0	38.00	0	12.7636	0	32.4034	0	24.430	0	37.681	0	273.4	4	103.6	4	-1E+10	1	2.1848	4	0.001910	0	-1E+10	1	-1E+10	1	-1E+10	1
4902624	6	C	08/20/2024	01:32	-128.600	46.966	0	38.70	0	12.6387	0	32.4085	0	24.458	0	38.375	0	273.0	4	103.2	4	-1E+10	1	2.2549	4	0.002050	0	-1E+10	1	-1E+10	1	-1E+10	1
4902624	6	C	08/20/2024	01:32	-128.600	46.966	0	38.90	0	12.6030	0	32.4100	0	24.466	0	38.574	0	-1e10	1	-1e10	1	-1E+10	1	-1e10	1	-1e10	1	-1E+10	1	-1E+10	1	-1E+10	1
4902624	6	C	08/20/2024	01:32	-128.600	46.966	0	39.40	0	12.5294	0	32.4105	0	24.480	0	39.069	0	272.8	4	102.9	4	-1E+10	1	2.2265	4	0.002689	0	-1E+10	1	-1E+10	1	-1E+10	1
4902624	6	C	08/20/2024	01:32	-128.600	46.966	0	40.20	0	12.4117	0	32.4112	0	24.503	0	39.863	0	272.8	4	102.6	4	-1E+10	1	2.1811	4	0.001844	0	-1E+10	1	-1E+10	1	-1E+10	1
4902624	6	C	08/20/2024	01:32	-128.600	46.966	0	41.00	0	12.2940	0	32.4120	0	24.526	0	40.656	0	269.3	4	101.1	4	-1E+10	1	2.1307	4	0.001770	0	-1E+10	1	-1E+10	1	-1E+10	1
4902624	6	C	08/20/2024	01:32	-128.600	46.966	0	41.80	0	12.2426	0	32.4093	0	24.534	0	41.449	0	271.8	4	101.9	4	-1E+10	1	2.1550	4	0.001758	0	-1E+10	1	-1E+10	1	-1E+10	1
4902624	6	C	08/20/2024	01:32	-128.600	46.966	0	42.60	0	12.1911	0	32.4067	0	24.541	0	42.242	0	271.2	4	101.5	4	-1E+10	1	2.1389	4	0.001707	0	-1E+10	1	-1E+10	1	-1E+10	1
4902624	6	C	08/20/2024	01:32	-128.600	46.966	0	43.10	0	12.1590	0	32.4050	0	24.546	0	42.738	0	-1e10	1	-1e10	1	-1E+10	1	-1e10	1	-1e10	1	-1E+10	1	-1E+10	1	-1E+10	1
4902624	6	C	08/20/2024	01:32	-128.600	46.966	0	43.40	0	12.1181	0	32.4036	0	24.553	0	43.035	0	270.7	4	101.2	4	-1E+10	1	2.0823	4	0.001652	0	-1E+10	1	-1E+10	1	-1E+10	1
4902624	6	C	08/20/2024	01:32	-128.600	46.966	0	44.30	0	11.9952	0	32.3996	0	24.573	0	43.928	0	270.6	4	100.9	4	-1E+10	1	2.0075	4	0.001629	0	-1E+10	1	-1E+10	1	-1E+10	1
4902624	6	C	08/20/2024	01:32	-128.600	46.966	0	45.10	0	11.8860	0	32.3960	0	24.590	0	44.721	0	267.2	4	99.4	4	-1E+10	1	1.9535	4	0.001616	0	-1E+10	1	-1E+10	1	-1E+10	1
4902624	6	C	08/20/2024	01:32	-128.600	46.966	0	46.00	0	11.8282	0	32.3955	0	24.600	0	45.613	0	269.9	4	100.3	4	-1E+10	1	1.9272	4	0.001563	0	-1E+10	1	-1E+10	1	-1E+10	1
4902624	6	C	08/20/2024	01:32	-128.600	46.966	0	46.80	0	11.7768	0	32.3951	0	24.609	0	46.406	0	269.5	4	100.0	4	-1E+10	1	1.9199	4	0.001551	0	-1E+10	1	-1E+10	1	-1E+10	1
4902624	6	C	08/20/2024	01:32	-128.600	46.966	0	47.00	0	11.7640	0	32.3950	0	24.612	0	46.605	0	-1e10	1	-1e10	1	-1E+10	1	-1e10	1	-1e10	1	-1E+10	1	-1E+10	1	-1E+10	1
4902624	6	C	08/20/2024	01:32	-128.600	46.966	0	47.70	0	11.7231	0	32.3946	0	24.619	0	47.299	0	268.9	4	99.7	4	-1E+10	1	1.9020	4	0.001542	0	-1E+10	1	-1E+10	1	-1E+10	1
4902624	6	C	08/20/2024	01:32	-128.600	46.966	0	48.50	0	11.6763	0	32.3942	0	24.627	0	48.092	0	268.6	4	99.5	4	-1E+10	1	1.8639	4	0.001492	0	-1E+10	1	-1E+10	1	-1E+10	1
4902624	6	C	08/20/2024	01:32	-128.600	46.966	0	49.00	0	11.6470	0	32.3940	0	24.632	0	48.588	0	-1e10	1	-1e10	1	-1E+10	1	-1e10	1	-1e10	1	-1E+10	1	-1E+10	1	-1E+10	1
4902624	6	C	08/20/2024	01:32	-128.600	46.966	0	49.30	0	11.6181	0	32.3931	0	24.637	0	48.885	0	268.2	4	99.2	4	-1E+10	1	1.7861	4	0.001417	0	-1E+10	1	-1E+10	1	-1E+10	1
4902624	6	C	08/20/2024	01:32	-128.600	46.966	0	50.20	0	11.5312	0	32.3904	0	24.651	0	49.777	0	267.9	4	98.9	4	-1E+10	1	1.6766	4	0.001401	0	-1E+10	1	-1E+10	1	-1E+10	1
4902624	6	C	08/20/2024	01:32	-128.600	46.966	0	51.00	0	11.4540	0	32.3880	0	24.663	0	50.571	0	264.2	4	97.4	4	-1E+10	1	1.6146	4	0.001431	0	-1E+10	1	-1E+10	1	-1E+10	1
4902624	6	C	08/20/2024	01:32	-128.600	46.966	0	51.80	0	11.3932	0	32.3868	0	24.673	0	51.364	0	267.2	4	98.4	4	-1E+10	1	1.5832	4	0.001428	0	-1E+10	1	-1E+10	1	-1E+10	1
4902624	6	C	08/20/2024	01:32	-128.600	46.966	0	52.60	0	11.3324	0	32.3856	0	24.683	0	52.157	0	266.8	4	98.1	4	-1E+10	1	1.5315	4	0.001311	0	-1E+10	1	-1E+10	1	-1E+10	1
4902624	6	C	08/20/2024	01:32	-128.600	46.966	0	53.00	0	11.3020	0	32.3850	0	24.688	0	52.553	0	-1e10	1	-1e10	1	-1E+10	1	-1e10	1	-1e10	1	-1E+10	1	-1E+10	1	-1E+10	1
4902624	6	C	08/20/2024	01:32	-128.600	46.966	0	53.50	0	11.2227	0	32.3853	0	24.702	0	53.049	0	266.7	4	97.8	4	-1E+10	1	1.5841	4	0.001363	0	-1E+10	1	-1E+10	1	-1E+10	1
4902624	6	C	08/20/2024	01:32	-128.600	46.966	0	54.40	0	11.0801	0	32.3857	0	24.728	0	53.942	0	266.4	4	97.4	4	-1E+10	1	1.5775	4	0.001268	0	-1E+10	1	-1E+10	1	-1E+10	1
4902624	6	C	08/20/2024	01:32	-128.600	46.966	0	55.00	0	10.9850	0	32.3860	0	24.745	0	54.536	0	-1e10	1	-1e10	1	-1E+10	1	-1e10	1	-1e10	1	-1E+10	1	-1E+10	1	-1E+10	1
4902624	6	C	08/20/2024	01:32	-128.600	46.966	0	55.30	0	10.9214	0	32.3874	0	24.757	0	54.834	0	266.3	4	97.1	4	-1E+10	1	1.5249	4	0.001300	0	-1E+10	1	-1E+10	1	-1E+10	1
4902624	6	C	08/20/2024	01:32	-128.600	46.966	0	56.20	0	10.7306	0	32.3914	0	24.793	0	55.726	0	266.1	4	96.6	4	-1E+10	1	1.5131	4	0.001254	0	-1E+10	1	-1E+10	1	-1E+10	1
4902624	6	C	08/20/2024	01:32	-128.600	46.966	0	57.00	0	10.5610	0	32.3950	0	24.825	0	56.519	0	-1e10	1	-1e10	1	-1E+10	1	-1e10	1	-1e10	1	-1E+10	1	-1E+10	1	-1E+10	1
4902624	6	C	08/20/2024	01:32	-128.600	46.966	0	57.10	0	10.5466	0	32.3964	0	24.829	0	56.618	0	266.1	4	96.2	4	-1E+10	1	1.4792	4	0.001190	0	-1E+10	1	-1E+10	1	-1E+10	1
4902624	6	C	08/20/2024	01:32	-128.600	46.966	0	58.00	0	10.4167	0	32.4093	0	24.861	0	57.511	0	266.0	4	95.9	4	-1E+10	1	1.4060	4	0.001096	0	-1E+10	1	-1E+10	1	-1E+10	1
4902624	6	C	08/20/2024	01:32	-128.600	46.966	0	59.00	0	10.2724	0	32.4236	0	24.897	0	58.502	0	265.5	4	95.5	4	-1E+10	1	1.3096	4	0.001002	0	-1E+10	1	-1E+10	1	-1E+10	1
4902624	6	C	08/20/2024	01:32	-128.600	46.966	0	59.10	0	10.2580	0	32.4250	0	24.900	0	58.601	0	-1e10	1	-1e10	1	-1E+10	1	-1e10	1	-1e10	1	-1E+10	1	-1E+10	1	-1E+10	1
4902624	6	C	08/20/2024	01:32	-128.600	46.966	0	60.00	0	10.2099	0	32.4309	0	24.913	0	59.494	0	265.0	4	95.2	4	-1E+10	1	1.2653	4	0.000972	0	-1E+10	1	-1E+10	1	-1E+10	1
4902624	6	C	08/20/2024	01:32	-128.600	46.966	0	61.00	0	10.1564	0	32.4374	0	24.927	0	60.485	0	264.2	4	94.8	4	-1E+10	1	1.2439	4	0.000941	0	-1E+10	1	-1E+10	1	-1E+10	1
4902624	6	C	08/20/2024	01:32	-128.600	46.966	0	61.10	0	10.1510	0	32.4380	0	24.928	0	60.584	0	-1e10	1	-1e10	1	-1E+10	1	-1e10	1	-1e10	1	-1E+10	1	-1E+10	1	-1E+10	1
4902624	6	C	08/20/2024	01:32	-128.600	46.966	0	62.00	0	10.0662	0	32.4389	0	24.943	0	61.476	0	264.1	4	94.6	4	-1E+10	1	1.1887	4	0.000924	0	-1E+10	1	-1E+10	1	-1E+10	1
4902624	6	C	08/20/2024	01:32	-128.600	46.966	0	63.00	0	9.9720	0	32.4400	0	24.960	0	62.468	0	259.6	4	92.7	4	-1E+10	1	1.1461	4	0.000840	0	-1E+10	1	-1E+10	1	-1E+10	1
4902624	6	C	08/20/2024	01:32	-128.600	46.966	0	64.00	0	9.9425	0	32.4415	0	24.966	0	63.459	0	263.0	4	93.9	4	-1E+10	1	1.1096	4	0.000865	0	-1E+10	1	-1E+10	1	-1E+10	1
4902624	6	C	08/20/2024	01:32	-128.600	46.966	0	65.00	0	9.9130	0	32.4430	0	24.972	0	64.451	0	-1e10	1	-1e10	1	-1E+10	1	-1e10	1	-1e10	1	-1E+10	1	-1E+10	1	-1E+10	1
4902624	6	C	08/20/2024	01:32	-128.600	46.966	0	65.10	0	9.9072	0	32.4436	0	24.973	0	64.550	0	262.6	4	93.7	4	-1E+10	1	1.0426	4	0.001446	0	-1E+10	1	-1E+10	1	-1E+10	1
4902624	6	C	08/20/2024	01:32	-128.600	46.966	0	66.10	0	9.8492	0	32.4501	0	24.988	0	65.541	0	261.9	4	93.4	4	-1E+10	1	0.9806	4	0.001043	0	-1E+10	1	-1E+10	1	-1E+10	1
4902624	6	C	08/20/2024	01:32	-128.600	46.966	0	67.00	0	9.7970	0	32.4560	0	25.001	0	66.433	0	-1e10	1	-1e10	1	-1E+10	1	-1e10	1	-1e10	1	-1E+10	1	-1E+10	1	-1E+10	1
4902624	6	C	08/20/2024	01:32	-128.600	46.966	0	67.20	0	9.7912	0	32.4569	0	25.003	0	66.632	0	261.5	4	93.1	4	-1E+10	1	0.9484	4	0.000796	0	-1E+10	1	-1E+10	1	-1E+10	1
4902624	6	C	08/20/2024	01:32	-128.600	46.966	0	68.20	0	9.7622	0	32.4614	0	25.011	0	67.623	0	261.0	4	92.8	4	-1E+10	1	0.9072	4	0.000808	0	-1E+10	1	-1E+10	1	-1E+10	1
4902624	6	C	08/20/2024	01:32	-128.600	46.966	0	69.00	0	9.7390	0	32.4650	0	25.018	0	68.416	0	-1e10	1	-1e10	1	-1E+10	1	-1e10	1	-1e10	1	-1E+10	1	-1E+10	1	-1E+10	1
4902624	6	C	08/20/2024	01:32	-128.600	46.966	0	69.30	0	9.7395	0	32.4682	0	25.020	0	68.713	0	260.3	4	92.6	4	-1E+10	1	0.8419	4	0.000882	0	-1E+10	1	-1E+10	1	-1E+10	1
4902624	6	C	08/20/2024	01:32	-128.600	46.966	0	70.40	0	9.7411	0	32.4797	0	25.029	0	69.804	0	259.7	4	92.4	4	-1E+10	1	0.8204	4	0.000979	0	-1E+10	1	-1E+10	1	-1E+10	1
4902624	6	C	08/20/2024	01:32	-128.600	46.966	0	71.00	0	9.7420	0	32.4860	0	25.034	0	70.399	0	-1e10	1	-1e10	1	-1E+10	1	-1e10	1	-1e10	1	-1E+10	1	-1E+10	1	-1E+10	1
4902624	6	C	08/20/2024	01:32	-128.600	46.966	0	71.40	0	9.7320	0	32.4858	0	25.035	0	70.795	0	259.3	4	92.2	4	-1E+10	1	0.7811	4	0.000753	0	-1E+10	1	-1E+10	1	-1E+10	1
4902624	6	C	08/20/2024	01:32	-128.600	46.966	0	72.50	0	9.7045	0	32.4853	0	25.039	0	71.886	0	258.8	4	92.0	4	-1E+10	1	0.7738	4	0.000824	0	-1E+10	1	-1E+10	1	-1E+10	1
4902624	6	C	08/20/2024	01:32	-128.600	46.966	0	73.00	0	9.6920	0	32.4850	0	25.041	0	72.381	0	-1e10	1	-1e10	1	-1E+10	1	-1e10	1	-1e10	1	-1E+10	1	-1E+10	1	-1E+10	1
4902624	6	C	08/20/2024	01:32	-128.600	46.966	0	73.60	0	9.6713	0	32.4850	0	25.044	0	72.976	0	258.2	4	91.7	4	-1E+10	1	0.7367	4	0.000744	0	-1E+10	1	-1E+10	1	-1E+10	1
4902624	6	C	08/20/2024	01:32	-128.600	46.966	0	74.70	0	9.6334	0	32.4850	0	25.050	0	74.067	0	257.6	4	91.4	4	-1E+10	1	0.6845	4	0.000689	0	-1E+10	1	-1E+10	1	-1E+10	1
4902624	6	C	08/20/2024	01:32	-128.600	46.966	0	75.00	0	9.6230	0	32.4850	0	25.052	0	74.364	0	-1e10	1	-1e10	1	-1E+10	1	-1e10	1	-1e10	1	-1E+10	1	-1E+10	1	-1E+10	1
4902624	6	C	08/20/2024	01:32	-128.600	46.966	0	75.80	0	9.5914	0	32.4873	0	25.059	0	75.157	0	256.8	4	91.0	4	-1E+10	1	0.6550	4	0.000634	0	-1E+10	1	-1E+10	1	-1E+10	1
4902624	6	C	08/20/2024	01:32	-128.600	46.966	0	76.90	0	9.5479	0	32.4904	0	25.069	0	76.248	0	256.3	4	90.8	4	-1E+10	1	0.6241	4	0.000607	0	-1E+10	1	-1E+10	1	-1E+10	1
4902624	6	C	08/20/2024	01:32	-128.600	46.966	0	77.10	0	9.5400	0	32.4910	0	25.070	0	76.446	0	-1e10	1	-1e10	1	-1E+10	1	-1e10	1	-1e10	1	-1E+10	1	-1E+10	1	-1E+10	1
4902624	6	C	08/20/2024	01:32	-128.600	46.966	0	78.00	0	9.5135	0	32.4905	0	25.074	0	77.338	0	255.7	4	90.5	4	-1E+10	1	0.5874	4	0.000619	0	-1E+10	1	-1E+10	1	-1E+10	1
4902624	6	C	08/20/2024	01:32	-128.600	46.966	0	79.00	0	9.4840	0	32.4900	0	25.078	0	78.330	0	-1e10	1	-1e10	1	-1E+10	1	-1e10	1	-1e10	1	-1E+10	1	-1E+10	1	-1E+10	1
4902624	6	C	08/20/2024	01:32	-128.600	46.966	0	79.10	0	9.4791	0	32.4898	0	25.079	0	78.429	0	255.0	4	90.2	4	-1E+10	1	0.5541	4	0.000640	0	-1E+10	1	-1E+10	1	-1E+10	1
4902624	6	C	08/20/2024	01:32	-128.600	46.966	0	80.20	0	9.4253	0	32.4881	0	25.086	0	79.519	0	254.5	4	89.9	4	-1E+10	1	0.5079	4	0.000554	0	-1E+10	1	-1E+10	1	-1E+10	1
4902624	6	C	08/20/2024	01:32	-128.600	46.966	0	80.90	0	9.3910	0	32.4870	0	25.091	0	80.213	0	-1e10	1	-1e10	1	-1E+10	1	-1e10	1	-1e10	1	-1E+10	1	-1E+10	1	-1E+10	1
4902624	6	C	08/20/2024	01:32	-128.600	46.966	0	81.40	0	9.3510	0	32.4851	0	25.096	0	80.709	0	254.0	4	89.6	4	-1E+10	1	0.4453	4	0.000554	0	-1E+10	1	-1E+10	1	-1E+10	1
4902624	6	C	08/20/2024	01:32	-128.600	46.966	0	82.50	0	9.2630	0	32.4809	0	25.107	0	81.799	0	253.6	4	89.2	4	-1E+10	1	0.4338	4	0.000572	0	-1E+10	1	-1E+10	1	-1E+10	1
4902624	6	C	08/20/2024	01:32	-128.600	46.966	0	83.00	0	9.2230	0	32.4790	0	25.111	0	82.295	0	-1e10	1	-1e10	1	-1E+10	1	-1e10	1	-1e10	1	-1E+10	1	-1E+10	1	-1E+10	1
4902624	6	C	08/20/2024	01:32	-128.600	46.966	0	83.70	0	9.2062	0	32.4797	0	25.115	0	82.989	0	252.9	4	88.9	4	-1E+10	1	0.4143	4	0.000542	0	-1E+10	1	-1E+10	1	-1E+10	1
4902624	6	C	08/20/2024	01:32	-128.600	46.966	0	84.90	0	9.1774	0	32.4809	0	25.120	0	84.178	0	252.3	4	88.6	4	-1E+10	1	0.3853	4	0.000485	0	-1E+10	1	-1E+10	1	-1E+10	1
4902624	6	C	08/20/2024	01:32	-128.600	46.966	0	85.00	0	9.1750	0	32.4810	0	25.121	0	84.277	0	-1e10	1	-1e10	1	-1E+10	1	-1e10	1	-1e10	1	-1E+10	1	-1E+10	1	-1E+10	1
4902624	6	C	08/20/2024	01:32	-128.600	46.966	0	86.00	0	9.1570	0	32.4815	0	25.124	0	85.269	0	251.6	4	88.3	4	-1E+10	1	0.3598	4	0.000485	0	-1E+10	1	-1E+10	1	-1E+10	1
4902624	6	C	08/20/2024	01:32	-128.600	46.966	0	87.00	0	9.1390	0	32.4820	0	25.127	0	86.260	0	-1e10	1	-1e10	1	-1E+10	1	-1e10	1	-1e10	1	-1E+10	1	-1E+10	1	-1E+10	1
4902624	6	C	08/20/2024	01:32	-128.600	46.966	0	87.20	0	9.1239	0	32.4822	0	25.130	0	86.458	0	251.0	4	88.1	4	-1E+10	1	0.3325	4	0.000489	0	-1E+10	1	-1E+10	1	-1E+10	1
4902624	6	C	08/20/2024	01:32	-128.600	46.966	0	88.40	0	9.0333	0	32.4834	0	25.145	0	87.648	0	250.7	4	87.8	4	-1E+10	1	0.3042	4	0.000452	0	-1E+10	1	-1E+10	1	-1E+10	1
4902624	6	C	08/20/2024	01:32	-128.600	46.966	0	89.00	0	8.9880	0	32.4840	0	25.152	0	88.243	0	-1e10	1	-1e10	1	-1E+10	1	-1e10	1	-1e10	1	-1E+10	1	-1E+10	1	-1E+10	1
4902624	6	C	08/20/2024	01:32	-128.600	46.966	0	89.60	0	8.9670	0	32.4828	0	25.154	0	88.837	0	250.1	4	87.5	4	-1E+10	1	0.2878	4	0.000477	0	-1E+10	1	-1E+10	1	-1E+10	1
4902624	6	C	08/20/2024	01:32	-128.600	46.966	0	90.80	0	8.9250	0	32.4804	0	25.159	0	90.027	0	249.4	4	87.1	4	-1E+10	1	0.3066	4	0.000436	0	-1E+10	1	-1E+10	1	-1E+10	1
4902624	6	C	08/20/2024	01:32	-128.600	46.966	0	91.00	0	8.9180	0	32.4800	0	25.160	0	90.225	0	-1e10	1	-1e10	1	-1E+10	1	-1e10	1	-1e10	1	-1E+10	1	-1E+10	1	-1E+10	1
4902624	6	C	08/20/2024	01:32	-128.600	46.966	0	92.00	0	8.9140	0	32.4795	0	25.160	0	91.216	0	248.5	4	86.8	4	-1E+10	1	0.2920	4	0.000413	0	-1E+10	1	-1E+10	1	-1E+10	1
4902624	6	C	08/20/2024	01:32	-128.600	46.966	0	93.00	0	8.9100	0	32.4790	0	25.160	0	92.208	0	-1e10	1	-1e10	1	-1E+10	1	-1e10	1	-1e10	1	-1E+10	1	-1E+10	1	-1E+10	1
4902624	6	C	08/20/2024	01:32	-128.600	46.966	0	93.20	0	8.9093	0	32.4792	0	25.161	0	92.406	0	247.6	4	86.5	4	-1E+10	1	0.2857	4	0.000443	0	-1E+10	1	-1E+10	1	-1E+10	1
4902624	6	C	08/20/2024	01:32	-128.600	46.966	0	94.40	0	8.9051	0	32.4804	0	25.162	0	93.595	0	246.5	4	86.1	4	-1E+10	1	0.2652	4	0.000417	0	-1E+10	1	-1E+10	1	-1E+10	1
4902624	6	C	08/20/2024	01:32	-128.600	46.966	0	95.00	0	8.9030	0	32.4810	0	25.163	0	94.190	0	-1e10	1	-1e10	1	-1E+10	1	-1e10	1	-1e10	1	-1E+10	1	-1E+10	1	-1E+10	1
4902624	6	C	08/20/2024	01:32	-128.600	46.966	0	95.60	0	8.9255	0	32.4900	0	25.167	0	94.785	0	245.2	4	85.7	4	-1E+10	1	0.2509	4	0.000379	0	-1E+10	1	-1E+10	1	-1E+10	1
4902624	6	C	08/20/2024	01:32	-128.600	46.966	0	96.80	0	8.9705	0	32.5080	0	25.174	0	95.974	0	243.9	4	85.3	4	-1E+10	1	0.2326	4	0.000372	0	-1E+10	1	-1E+10	1	-1E+10	1
4902624	6	C	08/20/2024	01:32	-128.600	46.966	0	97.00	0	8.9780	0	32.5110	0	25.175	0	96.173	0	-1e10	1	-1e10	1	-1E+10	1	-1e10	1	-1e10	1	-1E+10	1	-1E+10	1	-1E+10	1
4902624	6	C	08/20/2024	01:32	-128.600	46.966	0	98.00	0	8.9294	0	32.5134	0	25.184	0	97.164	0	242.7	4	84.8	4	-1E+10	1	0.2164	4	0.000369	0	-1E+10	1	-1E+10	1	-1E+10	1
4902624	6	C	08/20/2024	01:32	-128.600	46.966	0	99.10	0	8.8760	0	32.5160	0	25.195	0	98.254	0	-1e10	1	-1e10	1	-1E+10	1	-1e10	1	-1e10	1	-1E+10	1	-1E+10	1	-1E+10	1
4902624	6	C	08/20/2024	01:32	-128.600	46.966	0	99.20	0	8.8649	0	32.5159	0	25.196	0	98.353	0	241.8	4	84.4	4	-1E+10	1	0.2083	4	0.000360	0	-1E+10	1	-1E+10	1	-1E+10	1
4902624	6	C	08/20/2024	01:32	-128.600	46.966	0	100.40	0	8.7323	0	32.5146	0	25.216	0	99.543	0	240.9	4	83.8	4	-1E+10	1	0.1950	4	0.000458	0	-1E+10	1	-1E+10	1	-1E+10	1
4902624	6	C	08/20/2024	01:32	-128.600	46.966	0	101.00	0	8.6660	0	32.5140	0	25.225	0	100.137	0	-1e10	1	-1e10	1	-1E+10	1	-1e10	1	-1e10	1	-1E+10	1	-1E+10	1	-1E+10	1
4902624	6	C	08/20/2024	01:32	-128.600	46.966	0	101.60	0	8.6153	0	32.5155	0	25.234	0	100.732	0	240.2	4	83.3	4	-1E+10	1	0.1825	4	0.000941	0	-1E+10	1	-1E+10	1	-1E+10	1
4902624	6	C	08/20/2024	01:32	-128.600	46.966	0	103.00	0	8.4970	0	32.5190	0	25.254	0	102.120	0	-1e10	1	-1e10	1	-1E+10	1	-1e10	1	-1e10	1	-1E+10	1	-1E+10	1	-1E+10	1
4902624	6	C	08/20/2024	01:32	-128.600	46.966	0	103.10	0	8.4938	0	32.5196	0	25.255	0	102.219	0	238.8	4	82.7	4	-1E+10	1	0.1825	4	0.000342	0	-1E+10	1	-1E+10	1	-1E+10	1
4902624	6	C	08/20/2024	01:32	-128.600	46.966	0	104.30	0	8.4554	0	32.5275	0	25.267	0	103.408	0	237.9	4	82.3	4	-1E+10	1	0.2117	4	0.000366	0	-1E+10	1	-1E+10	1	-1E+10	1
4902624	6	C	08/20/2024	01:32	-128.600	46.966	0	105.00	0	8.4330	0	32.5320	0	25.274	0	104.102	0	-1e10	1	-1e10	1	-1E+10	1	-1e10	1	-1e10	1	-1E+10	1	-1E+10	1	-1E+10	1
4902624	6	C	08/20/2024	01:32	-128.600	46.966	0	105.30	0	8.4258	0	32.5345	0	25.277	0	104.400	0	237.0	4	81.9	4	-1E+10	1	0.1856	4	0.000307	0	-1E+10	1	-1E+10	1	-1E+10	1
4902624	6	C	08/20/2024	01:32	-128.600	46.966	0	106.30	0	8.4018	0	32.5430	0	25.288	0	105.391	0	236.0	4	81.5	4	-1E+10	1	0.1861	4	0.000331	0	-1E+10	1	-1E+10	1	-1E+10	1
4902624	6	C	08/20/2024	01:32	-128.600	46.966	0	107.00	0	8.3850	0	32.5490	0	25.295	0	106.085	0	-1e10	1	-1e10	1	-1E+10	1	-1e10	1	-1e10	1	-1E+10	1	-1E+10	1	-1E+10	1
4902624	6	C	08/20/2024	01:32	-128.600	46.966	0	107.30	0	8.3799	0	32.5517	0	25.298	0	106.382	0	235.2	4	81.2	4	-1E+10	1	0.1825	4	0.000342	0	-1E+10	1	-1E+10	1	-1E+10	1
4902624	6	C	08/20/2024	01:32	-128.600	46.966	0	108.00	0	8.3680	0	32.5580	0	25.304	0	107.076	0	234.3	4	80.9	4	-1E+10	1	0.1723	4	0.000311	0	-1E+10	1	-1E+10	1	-1E+10	1
4902624	6	C	08/20/2024	01:32	-128.600	46.966	0	108.80	0	8.3544	0	32.5652	0	25.312	0	107.869	0	233.3	4	80.5	4	-1E+10	1	0.1809	4	0.000321	0	-1E+10	1	-1E+10	1	-1E+10	1
4902624	6	C	08/20/2024	01:32	-128.600	46.966	0	109.00	0	8.3510	0	32.5670	0	25.314	0	108.067	0	-1e10	1	-1e10	1	-1E+10	1	-1e10	1	-1e10	1	-1E+10	1	-1E+10	1	-1E+10	1
4902624	6	C	08/20/2024	01:32	-128.600	46.966	0	109.60	0	8.3486	0	32.5682	0	25.315	0	108.662	0	232.1	4	80.1	4	-1E+10	1	0.1679	4	0.000342	0	-1E+10	1	-1E+10	1	-1E+10	1
4902624	6	C	08/20/2024	01:32	-128.600	46.966	0	110.30	0	8.3458	0	32.5696	0	25.317	0	109.356	0	230.8	4	79.7	4	-1E+10	1	0.1971	4	0.000284	0	-1E+10	1	-1E+10	1	-1E+10	1
4902624	6	C	08/20/2024	01:32	-128.600	46.966	0	111.00	0	8.3430	0	32.5710	0	25.318	0	110.049	0	225.3	4	77.7	4	-1E+10	1	0.1752	4	0.000321	0	-1E+10	1	-1E+10	1	-1E+10	1
4902624	6	C	08/20/2024	01:32	-128.600	46.966	0	111.80	0	8.3370	0	32.5782	0	25.325	0	110.842	0	227.9	4	78.6	4	-1E+10	1	0.1557	4	0.000298	0	-1E+10	1	-1E+10	1	-1E+10	1
4902624	6	C	08/20/2024	01:32	-128.600	46.966	0	112.50	0	8.3317	0	32.5845	0	25.331	0	111.536	0	226.4	4	78.1	4	-1E+10	1	0.1658	4	0.000305	0	-1E+10	1	-1E+10	1	-1E+10	1
4902624	6	C	08/20/2024	01:32	-128.600	46.966	0	113.00	0	8.3280	0	32.5890	0	25.335	0	112.032	0	-1e10	1	-1e10	1	-1E+10	1	-1e10	1	-1e10	1	-1E+10	1	-1E+10	1	-1E+10	1
4902624	6	C	08/20/2024	01:32	-128.600	46.966	0	113.20	0	8.3188	0	32.5951	0	25.341	0	112.230	0	225.0	4	77.6	4	-1E+10	1	0.1582	4	0.000315	0	-1E+10	1	-1E+10	1	-1E+10	1
4902624	6	C	08/20/2024	01:32	-128.600	46.966	0	114.00	0	8.2822	0	32.6195	0	25.365	0	113.023	0	223.7	4	77.1	4	-1E+10	1	0.1533	4	0.000312	0	-1E+10	1	-1E+10	1	-1E+10	1
4902624	6	C	08/20/2024	01:32	-128.600	46.966	0	114.70	0	8.2502	0	32.6409	0	25.387	0	113.717	0	222.5	4	76.6	4	-1E+10	1	0.1560	4	0.000316	0	-1E+10	1	-1E+10	1	-1E+10	1
4902624	6	C	08/20/2024	01:32	-128.600	46.966	0	114.90	0	8.2410	0	32.6470	0	25.393	0	113.915	0	-1e10	1	-1e10	1	-1E+10	1	-1e10	1	-1e10	1	-1E+10	1	-1E+10	1	-1E+10	1
4902624	6	C	08/20/2024	01:32	-128.600	46.966	0	115.50	0	8.2372	0	32.6571	0	25.402	0	114.510	0	220.9	4	76.1	4	-1E+10	1	0.1579	4	0.000414	0	-1E+10	1	-1E+10	1	-1E+10	1
4902624	6	C	08/20/2024	01:32	-128.600	46.966	0	116.20	0	8.2328	0	32.6689	0	25.411	0	115.203	0	218.7	4	75.3	4	-1E+10	1	0.1489	4	0.000509	0	-1E+10	1	-1E+10	1	-1E+10	1
4902624	6	C	08/20/2024	01:32	-128.600	46.966	0	116.80	0	8.2290	0	32.6790	0	25.420	0	115.798	0	-1e10	1	-1e10	1	-1E+10	1	-1e10	1	-1e10	1	-1E+10	1	-1E+10	1	-1E+10	1
4902624	6	C	08/20/2024	01:32	-128.600	46.966	0	117.00	0	8.2263	0	32.6844	0	25.425	0	115.996	0	216.4	4	74.6	4	-1E+10	1	0.1314	4	0.000331	0	-1E+10	1	-1E+10	1	-1E+10	1
4902624	6	C	08/20/2024	01:32	-128.600	46.966	0	117.80	0	8.2154	0	32.7058	0	25.443	0	116.789	0	214.3	4	73.8	4	-1E+10	1	0.1533	4	0.000284	0	-1E+10	1	-1E+10	1	-1E+10	1
4902624	6	C	08/20/2024	01:32	-128.600	46.966	0	118.50	0	8.2058	0	32.7246	0	25.459	0	117.483	0	212.3	4	73.1	4	-1E+10	1	0.1363	4	0.000338	0	-1E+10	1	-1E+10	1	-1E+10	1
4902624	6	C	08/20/2024	01:32	-128.600	46.966	0	119.00	0	8.1990	0	32.7380	0	25.471	0	117.979	0	-1e10	1	-1e10	1	-1E+10	1	-1e10	1	-1e10	1	-1E+10	1	-1E+10	1	-1E+10	1
4902624	6	C	08/20/2024	01:32	-128.600	46.966	0	119.40	0	8.1746	0	32.7594	0	25.491	0	118.375	0	210.4	4	72.4	4	-1E+10	1	0.1263	4	0.000313	0	-1E+10	1	-1E+10	1	-1E+10	1
4902624	6	C	08/20/2024	01:32	-128.600	46.966	0	120.20	0	8.1258	0	32.8022	0	25.532	0	119.168	0	207.5	4	71.4	4	-1E+10	1	0.1160	4	0.000295	0	-1E+10	1	-1E+10	1	-1E+10	1
4902624	6	C	08/20/2024	01:32	-128.600	46.966	0	121.00	0	8.0770	0	32.8450	0	25.572	0	119.961	0	-1e10	1	-1e10	1	-1E+10	1	-1e10	1	-1e10	1	-1E+10	1	-1E+10	1	-1E+10	1
4902624	6	C	08/20/2024	01:32	-128.600	46.966	0	121.10	0	8.0642	0	32.8491	0	25.578	0	120.060	0	206.0	4	70.8	4	-1E+10	1	0.0985	4	0.000284	0	-1E+10	1	-1E+10	1	-1E+10	1
4902624	6	C	08/20/2024	01:32	-128.600	46.966	0	122.00	0	7.9486	0	32.8861	0	25.623	0	120.952	0	204.4	4	70.1	4	-1E+10	1	0.0949	4	0.000284	0	-1E+10	1	-1E+10	1	-1E+10	1
4902624	6	C	08/20/2024	01:32	-128.600	46.966	0	122.90	0	7.8330	0	32.9230	0	25.669	0	121.844	0	198.7	4	68.0	4	-1E+10	1	0.1071	4	0.000345	0	-1E+10	1	-1E+10	1	-1E+10	1
4902624	6	C	08/20/2024	01:32	-128.600	46.966	0	123.90	0	7.7901	0	32.9563	0	25.701	0	122.835	0	202.4	4	69.2	4	-1E+10	1	0.0864	4	0.000587	0	-1E+10	1	-1E+10	1	-1E+10	1
4902624	6	C	08/20/2024	01:32	-128.600	46.966	0	124.90	0	7.7473	0	32.9897	0	25.734	0	123.826	0	201.6	4	68.9	4	-1E+10	1	0.0803	4	0.000284	0	-1E+10	1	-1E+10	1	-1E+10	1
4902624	6	C	08/20/2024	01:32	-128.600	46.966	0	125.00	0	7.7430	0	32.9930	0	25.737	0	123.925	0	-1e10	1	-1e10	1	-1E+10	1	-1e10	1	-1e10	1	-1E+10	1	-1E+10	1	-1E+10	1
4902624	6	C	08/20/2024	01:32	-128.600	46.966	0	126.10	0	7.7150	0	33.0299	0	25.770	0	125.016	0	199.9	4	68.2	4	-1E+10	1	0.0949	4	0.000295	0	-1E+10	1	-1E+10	1	-1E+10	1
4902624	6	C	08/20/2024	01:32	-128.600	46.966	0	127.00	0	7.6920	0	33.0600	0	25.797	0	125.908	0	195.9	4	66.8	4	-1E+10	1	0.0818	4	0.000285	0	-1E+10	1	-1E+10	1	-1E+10	1
4902624	6	C	08/20/2024	01:32	-128.600	46.966	0	127.90	0	7.6825	0	33.0893	0	25.821	0	126.799	0	200.0	4	68.3	4	-1E+10	1	0.0803	4	0.000284	0	-1E+10	1	-1E+10	1	-1E+10	1
4902624	6	C	08/20/2024	01:32	-128.600	46.966	0	128.90	0	7.6720	0	33.1217	0	25.848	0	127.791	0	199.6	4	68.1	4	-1E+10	1	0.0773	4	0.000313	0	-1E+10	1	-1E+10	1	-1E+10	1
4902624	6	C	08/20/2024	01:32	-128.600	46.966	0	129.00	0	7.6710	0	33.1250	0	25.851	0	127.890	0	-1e10	1	-1e10	1	-1E+10	1	-1e10	1	-1e10	1	-1E+10	1	-1E+10	1	-1E+10	1
4902624	6	C	08/20/2024	01:32	-128.600	46.966	0	129.90	0	7.6599	0	33.1520	0	25.874	0	128.782	0	199.1	4	67.9	4	-1E+10	1	0.0730	4	0.000336	0	-1E+10	1	-1E+10	1	-1E+10	1
4902624	6	C	08/20/2024	01:32	-128.600	46.966	0	131.00	0	7.6462	0	33.1850	0	25.902	0	129.872	0	198.6	4	67.8	4	-1E+10	1	0.0681	4	0.000283	0	-1E+10	1	-1E+10	1	-1E+10	1
4902624	6	C	08/20/2024	01:32	-128.600	46.966	0	131.10	0	7.6450	0	33.1880	0	25.904	0	129.971	0	-1e10	1	-1e10	1	-1E+10	1	-1e10	1	-1e10	1	-1E+10	1	-1E+10	1	-1E+10	1
4902624	6	C	08/20/2024	01:32	-128.600	46.966	0	132.10	0	7.6082	0	33.2133	0	25.929	0	130.962	0	198.4	4	67.7	4	-1E+10	1	0.0567	4	0.000265	0	-1E+10	1	-1E+10	1	-1E+10	1
4902624	6	C	08/20/2024	01:32	-128.600	46.966	0	133.00	0	7.5750	0	33.2360	0	25.952	0	131.854	0	-1e10	1	-1e10	1	-1E+10	1	-1e10	1	-1e10	1	-1E+10	1	-1E+10	1	-1E+10	1
4902624	6	C	08/20/2024	01:32	-128.600	46.966	0	133.10	0	7.5727	0	33.2407	0	25.956	0	131.953	0	198.7	4	67.7	4	-1E+10	1	0.0511	4	0.000283	0	-1E+10	1	-1E+10	1	-1E+10	1
4902624	6	C	08/20/2024	01:32	-128.600	46.966	0	134.20	0	7.5474	0	33.2930	0	26.001	0	133.043	0	198.3	4	67.6	4	-1E+10	1	0.0438	4	0.000272	0	-1E+10	1	-1E+10	1	-1E+10	1
4902624	6	C	08/20/2024	01:32	-128.600	46.966	0	135.00	0	7.5290	0	33.3310	0	26.033	0	133.836	0	-1e10	1	-1e10	1	-1E+10	1	-1e10	1	-1e10	1	-1E+10	1	-1E+10	1	-1E+10	1
4902624	6	C	08/20/2024	01:32	-128.600	46.966	0	135.30	0	7.5188	0	33.3346	0	26.037	0	134.133	0	198.4	4	67.6	4	-1E+10	1	0.0562	4	0.000292	0	-1E+10	1	-1E+10	1	-1E+10	1
4902624	6	C	08/20/2024	01:32	-128.600	46.966	0	136.40	0	7.4814	0	33.3478	0	26.053	0	135.224	0	198.8	4	67.7	4	-1E+10	1	0.0584	4	0.000279	0	-1E+10	1	-1E+10	1	-1E+10	1
4902624	6	C	08/20/2024	01:32	-128.600	46.966	0	137.00	0	7.4610	0	33.3550	0	26.061	0	135.818	0	-1e10	1	-1e10	1	-1E+10	1	-1e10	1	-1e10	1	-1E+10	1	-1E+10	1	-1E+10	1
4902624	6	C	08/20/2024	01:32	-128.600	46.966	0	137.40	0	7.4566	0	33.3580	0	26.064	0	136.215	0	199.2	4	67.8	4	-1E+10	1	0.0584	4	0.000286	0	-1E+10	1	-1E+10	1	-1E+10	1
4902624	6	C	08/20/2024	01:32	-128.600	46.966	0	138.40	0	7.4456	0	33.3655	0	26.072	0	137.206	0	199.7	4	67.9	4	-1E+10	1	0.0584	4	0.000334	0	-1E+10	1	-1E+10	1	-1E+10	1
4902624	6	C	08/20/2024	01:32	-128.600	46.966	0	139.00	0	7.4390	0	33.3700	0	26.076	0	137.800	0	-1e10	1	-1e10	1	-1E+10	1	-1e10	1	-1e10	1	-1E+10	1	-1E+10	1	-1E+10	1
4902624	6	C	08/20/2024	01:32	-128.600	46.966	0	139.10	0	7.4363	0	33.3723	0	26.079	0	137.899	0	200.1	4	68.1	4	-1E+10	1	0.0568	4	0.000347	0	-1E+10	1	-1E+10	1	-1E+10	1
4902624	6	C	08/20/2024	01:32	-128.600	46.966	0	139.90	0	7.4146	0	33.3910	0	26.096	0	138.692	0	200.1	4	68.0	4	-1E+10	1	0.0501	4	0.000290	0	-1E+10	1	-1E+10	1	-1E+10	1
4902624	6	C	08/20/2024	01:32	-128.600	46.966	0	140.60	0	7.3956	0	33.4073	0	26.112	0	139.386	0	199.8	4	67.9	4	-1E+10	1	0.0454	4	0.000328	0	-1E+10	1	-1E+10	1	-1E+10	1
4902624	6	C	08/20/2024	01:32	-128.600	46.966	0	141.10	0	7.3820	0	33.4190	0	26.123	0	139.881	0	-1e10	1	-1e10	1	-1E+10	1	-1e10	1	-1e10	1	-1E+10	1	-1E+10	1	-1E+10	1
4902624	6	C	08/20/2024	01:32	-128.600	46.966	0	141.40	0	7.3738	0	33.4224	0	26.127	0	140.179	0	199.6	4	67.8	4	-1E+10	1	0.0584	4	0.000307	0	-1E+10	1	-1E+10	1	-1E+10	1
4902624	6	C	08/20/2024	01:32	-128.600	46.966	0	142.10	0	7.3545	0	33.4305	0	26.136	0	140.872	0	199.4	4	67.7	4	-1E+10	1	0.0527	4	0.000307	0	-1E+10	1	-1E+10	1	-1E+10	1
4902624	6	C	08/20/2024	01:32	-128.600	46.966	0	142.90	0	7.3325	0	33.4397	0	26.146	0	141.665	0	199.2	4	67.6	4	-1E+10	1	0.0511	4	0.000297	0	-1E+10	1	-1E+10	1	-1E+10	1
4902624	6	C	08/20/2024	01:32	-128.600	46.966	0	143.10	0	7.3270	0	33.4420	0	26.149	0	141.863	0	-1e10	1	-1e10	1	-1E+10	1	-1e10	1	-1e10	1	-1E+10	1	-1E+10	1	-1E+10	1
4902624	6	C	08/20/2024	01:32	-128.600	46.966	0	143.60	0	7.3191	0	33.4488	0	26.155	0	142.359	0	199.1	4	67.6	4	-1E+10	1	0.0511	4	0.000316	0	-1E+10	1	-1E+10	1	-1E+10	1
4902624	6	C	08/20/2024	01:32	-128.600	46.966	0	144.40	0	7.3065	0	33.4598	0	26.166	0	143.152	0	198.8	4	67.4	4	-1E+10	1	0.0511	4	0.000309	0	-1E+10	1	-1E+10	1	-1E+10	1
4902624	6	C	08/20/2024	01:32	-128.600	46.966	0	145.00	0	7.2970	0	33.4680	0	26.173	0	143.746	0	-1e10	1	-1e10	1	-1E+10	1	-1e10	1	-1e10	1	-1E+10	1	-1E+10	1	-1E+10	1
4902624	6	C	08/20/2024	01:32	-128.600	46.966	0	145.20	0	7.2924	0	33.4706	0	26.176	0	143.945	0	198.6	4	67.4	4	-1E+10	1	0.0538	4	0.000310	0	-1E+10	1	-1E+10	1	-1E+10	1
4902624	6	C	08/20/2024	01:32	-128.600	46.966	0	146.00	0	7.2740	0	33.4810	0	26.187	0	144.737	0	198.4	4	67.3	4	-1E+10	1	0.0540	4	0.000350	0	-1E+10	1	-1E+10	1	-1E+10	1
4902624	6	C	08/20/2024	01:32	-128.600	46.966	0	146.80	0	7.2556	0	33.4914	0	26.198	0	145.530	0	198.1	4	67.1	4	-1E+10	1	0.0445	4	0.000342	0	-1E+10	1	-1E+10	1	-1E+10	1
4902624	6	C	08/20/2024	01:32	-128.600	46.966	0	147.00	0	7.2510	0	33.4940	0	26.200	0	145.728	0	-1e10	1	-1e10	1	-1E+10	1	-1e10	1	-1e10	1	-1E+10	1	-1E+10	1	-1E+10	1
4902624	6	C	08/20/2024	01:32	-128.600	46.966	0	147.70	0	7.2468	0	33.4989	0	26.205	0	146.422	0	197.7	4	67.0	4	-1E+10	1	0.0511	4	0.000342	0	-1E+10	1	-1E+10	1	-1E+10	1
4902624	6	C	08/20/2024	01:32	-128.600	46.966	0	148.50	0	7.2420	0	33.5045	0	26.210	0	147.215	0	197.3	4	66.9	4	-1E+10	1	0.0365	4	0.000283	0	-1E+10	1	-1E+10	1	-1E+10	1
4902624	6	C	08/20/2024	01:32	-128.600	46.966	0	149.00	0	7.2390	0	33.5080	0	26.213	0	147.710	0	-1e10	1	-1e10	1	-1E+10	1	-1e10	1	-1e10	1	-1E+10	1	-1E+10	1	-1E+10	1
4902624	6	C	08/20/2024	01:32	-128.600	46.966	0	149.40	0	7.2368	0	33.5122	0	26.217	0	148.107	0	196.7	4	66.6	4	-1E+10	1	0.0431	4	0.000315	0	-1E+10	1	-1E+10	1	-1E+10	1
4902624	6	C	08/20/2024	01:32	-128.600	46.966	0	150.20	0	7.2324	0	33.5206	0	26.224	0	148.900	0	195.9	4	66.4	4	-1E+10	1	0.0392	4	0.000326	0	-1E+10	1	-1E+10	1	-1E+10	1
4902624	6	C	08/20/2024	01:32	-128.600	46.966	0	151.00	0	7.2280	0	33.5290	0	26.231	0	149.692	0	-1e10	1	-1e10	1	-1E+10	1	-1e10	1	-1e10	1	-1E+10	1	-1E+10	1	-1E+10	1
4902624	6	C	08/20/2024	01:32	-128.600	46.966	0	151.10	0	7.2255	0	33.5303	0	26.232	0	149.791	0	195.1	4	66.1	4	-1E+10	1	0.0456	4	0.000308	0	-1E+10	1	-1E+10	1	-1E+10	1
4902624	6	C	08/20/2024	01:32	-128.600	46.966	0	152.00	0	7.2030	0	33.5415	0	26.244	0	150.683	0	194.5	4	65.9	4	-1E+10	1	0.0471	4	0.000308	0	-1E+10	1	-1E+10	1	-1E+10	1
4902624	6	C	08/20/2024	01:32	-128.600	46.966	0	152.90	0	7.1805	0	33.5527	0	26.256	0	151.575	0	194.0	4	65.7	4	-1E+10	1	0.0438	4	0.000323	0	-1E+10	1	-1E+10	1	-1E+10	1
4902624	6	C	08/20/2024	01:32	-128.600	46.966	0	153.00	0	7.1780	0	33.5540	0	26.258	0	151.674	0	-1e10	1	-1e10	1	-1E+10	1	-1e10	1	-1e10	1	-1E+10	1	-1E+10	1	-1E+10	1
4902624	6	C	08/20/2024	01:32	-128.600	46.966	0	153.80	0	7.1724	0	33.5576	0	26.261	0	152.467	0	193.3	4	65.4	4	-1E+10	1	0.0438	4	0.000321	0	-1E+10	1	-1E+10	1	-1E+10	1
4902624	6	C	08/20/2024	01:32	-128.600	46.966	0	154.70	0	7.1661	0	33.5616	0	26.265	0	153.359	0	192.5	4	65.2	4	-1E+10	1	0.0438	4	0.000290	0	-1E+10	1	-1E+10	1	-1E+10	1
4902624	6	C	08/20/2024	01:32	-128.600	46.966	0	155.00	0	7.1640	0	33.5630	0	26.267	0	153.656	0	-1e10	1	-1e10	1	-1E+10	1	-1e10	1	-1e10	1	-1E+10	1	-1E+10	1	-1E+10	1
4902624	6	C	08/20/2024	01:32	-128.600	46.966	0	155.70	0	7.1595	0	33.5651	0	26.269	0	154.350	0	191.6	4	64.8	4	-1E+10	1	0.0438	4	0.000354	0	-1E+10	1	-1E+10	1	-1E+10	1
4902624	6	C	08/20/2024	01:32	-128.600	46.966	0	156.70	0	7.1529	0	33.5681	0	26.272	0	155.341	0	190.5	4	64.5	4	-1E+10	1	0.0438	4	0.000344	0	-1E+10	1	-1E+10	1	-1E+10	1
4902624	6	C	08/20/2024	01:32	-128.600	46.966	0	157.00	0	7.1510	0	33.5690	0	26.273	0	155.638	0	-1e10	1	-1e10	1	-1E+10	1	-1e10	1	-1e10	1	-1E+10	1	-1E+10	1	-1E+10	1
4902624	6	C	08/20/2024	01:32	-128.600	46.966	0	157.70	0	7.1479	0	33.5732	0	26.277	0	156.332	0	189.5	4	64.1	4	-1E+10	1	0.0438	4	0.000321	0	-1E+10	1	-1E+10	1	-1E+10	1
4902624	6	C	08/20/2024	01:32	-128.600	46.966	0	158.70	0	7.1434	0	33.5792	0	26.282	0	157.323	0	188.5	4	63.8	4	-1E+10	1	0.0387	4	0.000367	0	-1E+10	1	-1E+10	1	-1E+10	1
4902624	6	C	08/20/2024	01:32	-128.600	46.966	0	159.00	0	7.1420	0	33.5810	0	26.284	0	157.620	0	-1e10	1	-1e10	1	-1E+10	1	-1e10	1	-1e10	1	-1E+10	1	-1E+10	1	-1E+10	1
4902624	6	C	08/20/2024	01:32	-128.600	46.966	0	159.70	0	7.1317	0	33.5873	0	26.290	0	158.314	0	187.7	4	63.5	4	-1E+10	1	0.0402	4	0.000348	0	-1E+10	1	-1E+10	1	-1E+10	1
4902624	6	C	08/20/2024	01:32	-128.600	46.966	0	160.70	0	7.1169	0	33.5964	0	26.299	0	159.305	0	186.9	4	63.2	4	-1E+10	1	0.0438	4	0.000316	0	-1E+10	1	-1E+10	1	-1E+10	1
4902624	6	C	08/20/2024	01:32	-128.600	46.966	0	161.10	0	7.1110	0	33.6000	0	26.303	0	159.701	0	-1e10	1	-1e10	1	-1E+10	1	-1e10	1	-1e10	1	-1E+10	1	-1E+10	1	-1E+10	1
4902624	6	C	08/20/2024	01:32	-128.600	46.966	0	161.70	0	7.1094	0	33.6016	0	26.305	0	160.296	0	185.7	4	62.8	4	-1E+10	1	0.0460	4	0.000323	0	-1E+10	1	-1E+10	1	-1E+10	1
4902624	6	C	08/20/2024	01:32	-128.600	46.966	0	162.80	0	7.1065	0	33.6045	0	26.307	0	161.386	0	184.5	4	62.4	4	-1E+10	1	0.0499	4	0.000311	0	-1E+10	1	-1E+10	1	-1E+10	1
4902624	6	C	08/20/2024	01:32	-128.600	46.966	0	163.00	0	7.1060	0	33.6050	0	26.308	0	161.584	0	-1e10	1	-1e10	1	-1E+10	1	-1e10	1	-1e10	1	-1E+10	1	-1E+10	1	-1E+10	1
4902624	6	C	08/20/2024	01:32	-128.600	46.966	0	163.80	0	7.1016	0	33.6110	0	26.313	0	162.376	0	183.4	4	62.0	4	-1E+10	1	0.0438	4	0.000330	0	-1E+10	1	-1E+10	1	-1E+10	1
4902624	6	C	08/20/2024	01:32	-128.600	46.966	0	164.90	0	7.0955	0	33.6192	0	26.320	0	163.466	0	182.2	4	61.6	4	-1E+10	1	0.0365	4	0.000354	0	-1E+10	1	-1E+10	1	-1E+10	1
4902624	6	C	08/20/2024	01:32	-128.600	46.966	0	165.00	0	7.0950	0	33.6200	0	26.321	0	163.566	0	-1e10	1	-1e10	1	-1E+10	1	-1e10	1	-1e10	1	-1E+10	1	-1E+10	1	-1E+10	1
4902624	6	C	08/20/2024	01:32	-128.600	46.966	0	165.90	0	7.0873	0	33.6245	0	26.326	0	164.457	0	181.0	4	61.2	4	-1E+10	1	0.0477	4	0.000336	0	-1E+10	1	-1E+10	1	-1E+10	1
4902624	6	C	08/20/2024	01:32	-128.600	46.966	0	167.00	0	7.0780	0	33.6300	0	26.331	0	165.547	0	174.8	4	59.1	4	-1E+10	1	0.0511	4	0.000352	0	-1E+10	1	-1E+10	1	-1E+10	1
4902624	6	C	08/20/2024	01:32	-128.600	46.966	0	168.10	0	7.0641	0	33.6329	0	26.335	0	166.637	0	178.3	4	60.2	4	-1E+10	1	0.0380	4	0.000330	0	-1E+10	1	-1E+10	1	-1E+10	1
4902624	6	C	08/20/2024	01:32	-128.600	46.966	0	168.90	0	7.0540	0	33.6350	0	26.339	0	167.430	0	-1e10	1	-1e10	1	-1E+10	1	-1e10	1	-1e10	1	-1E+10	1	-1E+10	1	-1E+10	1
4902624	6	C	08/20/2024	01:32	-128.600	46.966	0	169.10	0	7.0500	0	33.6360	0	26.340	0	167.628	0	177.0	4	59.8	4	-1E+10	1	0.0332	4	0.000307	0	-1E+10	1	-1E+10	1	-1E+10	1
4902624	6	C	08/20/2024	01:32	-128.600	46.966	0	170.20	0	7.0280	0	33.6418	0	26.347	0	168.718	0	175.7	4	59.3	4	-1E+10	1	0.0365	4	0.000312	0	-1E+10	1	-1E+10	1	-1E+10	1
4902624	6	C	08/20/2024	01:32	-128.600	46.966	0	171.00	0	7.0120	0	33.6460	0	26.353	0	169.511	0	-1e10	1	-1e10	1	-1E+10	1	-1e10	1	-1e10	1	-1E+10	1	-1E+10	1	-1E+10	1
4902624	6	C	08/20/2024	01:32	-128.600	46.966	0	171.30	0	7.0096	0	33.6477	0	26.355	0	169.808	0	174.7	4	58.9	4	-1E+10	1	0.0418	4	0.000323	0	-1E+10	1	-1E+10	1	-1E+10	1
4902624	6	C	08/20/2024	01:32	-128.600	46.966	0	172.40	0	7.0007	0	33.6540	0	26.361	0	170.898	0	173.7	4	58.6	4	-1E+10	1	0.0533	4	0.000334	0	-1E+10	1	-1E+10	1	-1E+10	1
4902624	6	C	08/20/2024	01:32	-128.600	46.966	0	173.10	0	6.9950	0	33.6580	0	26.365	0	171.592	0	-1e10	1	-1e10	1	-1E+10	1	-1e10	1	-1e10	1	-1E+10	1	-1E+10	1	-1E+10	1
4902624	6	C	08/20/2024	01:32	-128.600	46.966	0	173.50	0	6.9918	0	33.6603	0	26.367	0	171.988	0	173.0	4	58.4	4	-1E+10	1	0.0550	4	0.000345	0	-1E+10	1	-1E+10	1	-1E+10	1
4902624	6	C	08/20/2024	01:32	-128.600	46.966	0	174.60	0	6.9832	0	33.6667	0	26.373	0	173.078	0	172.7	4	58.3	4	-1E+10	1	0.0365	4	0.000365	0	-1E+10	1	-1E+10	1	-1E+10	1
4902624	6	C	08/20/2024	01:32	-128.600	46.966	0	175.00	0	6.9800	0	33.6690	0	26.375	0	173.474	0	-1e10	1	-1e10	1	-1E+10	1	-1e10	1	-1e10	1	-1E+10	1	-1E+10	1	-1E+10	1
4902624	6	C	08/20/2024	01:32	-128.600	46.966	0	175.70	0	6.9706	0	33.6742	0	26.381	0	174.168	0	172.6	4	58.2	4	-1E+10	1	0.0438	4	0.000354	0	-1E+10	1	-1E+10	1	-1E+10	1
4902624	6	C	08/20/2024	01:32	-128.600	46.966	0	176.90	0	6.9543	0	33.6832	0	26.390	0	175.357	0	172.0	4	58.0	4	-1E+10	1	0.0501	4	0.000384	0	-1E+10	1	-1E+10	1	-1E+10	1
4902624	6	C	08/20/2024	01:32	-128.600	46.966	0	177.00	0	6.9530	0	33.6840	0	26.391	0	175.456	0	-1e10	1	-1e10	1	-1E+10	1	-1e10	1	-1e10	1	-1E+10	1	-1E+10	1	-1E+10	1
4902624	6	C	08/20/2024	01:32	-128.600	46.966	0	178.00	0	6.9350	0	33.6905	0	26.399	0	176.447	0	171.5	4	57.8	4	-1E+10	1	0.0464	4	0.000381	0	-1E+10	1	-1E+10	1	-1E+10	1
4902624	6	C	08/20/2024	01:32	-128.600	46.966	0	179.00	0	6.9170	0	33.6970	0	26.406	0	177.438	0	-1e10	1	-1e10	1	-1E+10	1	-1e10	1	-1e10	1	-1E+10	1	-1E+10	1	-1E+10	1
4902624	6	C	08/20/2024	01:32	-128.600	46.966	0	179.20	0	6.9126	0	33.6987	0	26.408	0	177.636	0	171.4	4	57.8	4	-1E+10	1	0.0392	4	0.000377	0	-1E+10	1	-1E+10	1	-1E+10	1
4902624	6	C	08/20/2024	01:32	-128.600	46.966	0	180.40	0	6.8863	0	33.7090	0	26.420	0	178.825	0	171.2	4	57.7	4	-1E+10	1	0.0404	4	0.000357	0	-1E+10	1	-1E+10	1	-1E+10	1
4902624	6	C	08/20/2024	01:32	-128.600	46.966	0	181.10	0	6.8710	0	33.7150	0	26.426	0	179.519	0	-1e10	1	-1e10	1	-1E+10	1	-1e10	1	-1e10	1	-1E+10	1	-1E+10	1	-1E+10	1
4902624	6	C	08/20/2024	01:32	-128.600	46.966	0	181.50	0	6.8674	0	33.7168	0	26.428	0	179.915	0	170.9	4	57.5	4	-1E+10	1	0.0438	4	0.000384	0	-1E+10	1	-1E+10	1	-1E+10	1
4902624	6	C	08/20/2024	01:32	-128.600	46.966	0	182.70	0	6.8566	0	33.7222	0	26.434	0	181.104	0	170.4	4	57.3	4	-1E+10	1	0.0425	4	0.000460	0	-1E+10	1	-1E+10	1	-1E+10	1
4902624	6	C	08/20/2024	01:32	-128.600	46.966	0	183.10	0	6.8530	0	33.7240	0	26.436	0	181.500	0	-1e10	1	-1e10	1	-1E+10	1	-1e10	1	-1e10	1	-1E+10	1	-1E+10	1	-1E+10	1
4902624	6	C	08/20/2024	01:32	-128.600	46.966	0	183.90	0	6.8406	0	33.7293	0	26.442	0	182.293	0	169.8	4	57.1	4	-1E+10	1	0.0396	4	0.000342	0	-1E+10	1	-1E+10	1	-1E+10	1
4902624	6	C	08/20/2024	01:32	-128.600	46.966	0	184.90	0	6.8250	0	33.7360	0	26.449	0	183.284	0	-1e10	1	-1e10	1	-1E+10	1	-1e10	1	-1e10	1	-1E+10	1	-1E+10	1	-1E+10	1
4902624	6	C	08/20/2024	01:32	-128.600	46.966	0	185.00	0	6.8240	0	33.7362	0	26.450	0	183.383	0	169.3	4	56.9	4	-1E+10	1	0.0511	4	0.000471	0	-1E+10	1	-1E+10	1	-1E+10	1
4902624	6	C	08/20/2024	01:32	-128.600	46.966	0	186.20	0	6.8120	0	33.7385	0	26.453	0	184.572	0	168.5	4	56.6	4	-1E+10	1	0.0453	4	0.000349	0	-1E+10	1	-1E+10	1	-1E+10	1
4902624	6	C	08/20/2024	01:32	-128.600	46.966	0	187.00	0	6.8040	0	33.7400	0	26.455	0	185.364	0	-1e10	1	-1e10	1	-1E+10	1	-1e10	1	-1e10	1	-1E+10	1	-1E+10	1	-1E+10	1
4902624	6	C	08/20/2024	01:32	-128.600	46.966	0	187.40	0	6.8010	0	33.7404	0	26.456	0	185.761	0	167.7	4	56.4	4	-1E+10	1	0.0548	4	0.000327	0	-1E+10	1	-1E+10	1	-1E+10	1
4902624	6	C	08/20/2024	01:32	-128.600	46.966	0	188.60	0	6.7920	0	33.7416	0	26.458	0	186.950	0	166.9	4	56.1	4	-1E+10	1	0.0443	4	0.000337	0	-1E+10	1	-1E+10	1	-1E+10	1
4902624	6	C	08/20/2024	01:32	-128.600	46.966	0	189.00	0	6.7890	0	33.7420	0	26.459	0	187.346	0	-1e10	1	-1e10	1	-1E+10	1	-1e10	1	-1e10	1	-1E+10	1	-1E+10	1	-1E+10	1
4902624	6	C	08/20/2024	01:32	-128.600	46.966	0	189.80	0	6.7826	0	33.7436	0	26.461	0	188.139	0	166.0	4	55.8	4	-1E+10	1	0.0438	4	0.000371	0	-1E+10	1	-1E+10	1	-1E+10	1
4902624	6	C	08/20/2024	01:32	-128.600	46.966	0	191.00	0	6.7730	0	33.7460	0	26.464	0	189.328	0	160.4	4	53.9	4	-1E+10	1	0.0481	4	0.000376	0	-1E+10	1	-1E+10	1	-1E+10	1
4902624	6	C	08/20/2024	01:32	-128.600	46.966	0	192.20	0	6.7604	0	33.7514	0	26.470	0	190.517	0	164.0	4	55.1	4	-1E+10	1	0.0464	4	0.000346	0	-1E+10	1	-1E+10	1	-1E+10	1
4902624	6	C	08/20/2024	01:32	-128.600	46.966	0	193.00	0	6.7520	0	33.7550	0	26.474	0	191.309	0	-1e10	1	-1e10	1	-1E+10	1	-1e10	1	-1e10	1	-1E+10	1	-1E+10	1	-1E+10	1
4902624	6	C	08/20/2024	01:32	-128.600	46.966	0	193.40	0	6.7474	0	33.7560	0	26.475	0	191.706	0	163.1	4	54.7	4	-1E+10	1	0.0480	4	0.000348	0	-1E+10	1	-1E+10	1	-1E+10	1
4902624	6	C	08/20/2024	01:32	-128.600	46.966	0	194.50	0	6.7347	0	33.7588	0	26.479	0	192.795	0	162.0	4	54.4	4	-1E+10	1	0.0365	4	0.000330	0	-1E+10	1	-1E+10	1	-1E+10	1
4902624	6	C	08/20/2024	01:32	-128.600	46.966	0	195.00	0	6.7290	0	33.7600	0	26.481	0	193.291	0	-1e10	1	-1e10	1	-1E+10	1	-1e10	1	-1e10	1	-1E+10	1	-1E+10	1	-1E+10	1
4902624	6	C	08/20/2024	01:32	-128.600	46.966	0	195.70	0	6.7210	0	33.7624	0	26.484	0	193.984	0	161.1	4	54.1	4	-1E+10	1	0.0365	4	0.000353	0	-1E+10	1	-1E+10	1	-1E+10	1
4902624	6	C	08/20/2024	01:32	-128.600	46.966	0	196.90	0	6.7071	0	33.7666	0	26.489	0	195.173	0	160.0	4	53.7	4	-1E+10	1	0.0365	4	0.000373	0	-1E+10	1	-1E+10	1	-1E+10	1
4902624	6	C	08/20/2024	01:32	-128.600	46.966	0	197.00	0	6.7060	0	33.7670	0	26.490	0	195.272	0	-1e10	1	-1e10	1	-1E+10	1	-1e10	1	-1e10	1	-1E+10	1	-1E+10	1	-1E+10	1
4902624	6	C	08/20/2024	01:32	-128.600	46.966	0	198.10	0	6.6901	0	33.7703	0	26.494	0	196.362	0	159.0	4	53.3	4	-1E+10	1	0.0678	4	0.000352	0	-1E+10	1	-1E+10	1	-1E+10	1
4902624	6	C	08/20/2024	01:32	-128.600	46.966	0	199.00	0	6.6770	0	33.7730	0	26.498	0	197.254	0	-1e10	1	-1e10	1	-1E+10	1	-1e10	1	-1e10	1	-1E+10	1	-1E+10	1	-1E+10	1
4902624	6	C	08/20/2024	01:32	-128.600	46.966	0	199.20	0	6.6736	0	33.7738	0	26.499	0	197.452	0	157.7	4	52.9	4	-1E+10	1	0.0633	4	0.000355	0	-1E+10	1	-1E+10	1	-1E+10	1
4902624	6	C	08/20/2024	01:32	-128.600	46.966	0	200.40	0	6.6530	0	33.7783	0	26.506	0	198.641	0	156.7	4	52.5	4	-1E+10	1	0.0438	4	0.000340	0	-1E+10	1	-1E+10	1	-1E+10	1
4902624	6	C	08/20/2024	01:32	-128.600	46.966	0	201.10	0	6.6410	0	33.7810	0	26.509	0	199.334	0	-1e10	1	-1e10	1	-1E+10	1	-1e10	1	-1e10	1	-1E+10	1	-1E+10	1	-1E+10	1
4902624	6	C	08/20/2024	01:32	-128.600	46.966	0	201.50	0	6.6399	0	33.7818	0	26.510	0	199.731	0	155.7	4	52.1	4	-1E+10	1	0.0365	4	0.000334	0	-1E+10	1	-1E+10	1	-1E+10	1
4902624	6	C	08/20/2024	01:32	-128.600	46.966	0	202.70	0	6.6368	0	33.7844	0	26.513	0	200.920	0	154.8	4	51.8	4	-1E+10	1	0.0383	4	0.000582	0	-1E+10	1	-1E+10	1	-1E+10	1
4902624	6	C	08/20/2024	01:32	-128.600	46.966	0	203.00	0	6.6360	0	33.7850	0	26.513	0	201.217	0	-1e10	1	-1e10	1	-1E+10	1	-1e10	1	-1e10	1	-1E+10	1	-1E+10	1	-1E+10	1
4902624	6	C	08/20/2024	01:32	-128.600	46.966	0	203.80	0	6.6272	0	33.7858	0	26.515	0	202.009	0	153.9	4	51.5	4	-1E+10	1	0.0427	4	0.001066	0	-1E+10	1	-1E+10	1	-1E+10	1
4902624	6	C	08/20/2024	01:32	-128.600	46.966	0	204.90	0	6.6150	0	33.7870	0	26.518	0	203.099	0	148.7	4	49.8	4	-1E+10	1	0.0365	4	0.000339	0	-1E+10	1	-1E+10	1	-1E+10	1
4902624	6	C	08/20/2024	01:32	-128.600	46.966	0	206.10	0	6.6041	0	33.7876	0	26.519	0	204.288	0	152.1	4	50.9	4	-1E+10	1	0.0365	4	0.000381	0	-1E+10	1	-1E+10	1	-1E+10	1
4902624	6	C	08/20/2024	01:32	-128.600	46.966	0	207.00	0	6.5960	0	33.7880	0	26.521	0	205.180	0	-1e10	1	-1e10	1	-1E+10	1	-1e10	1	-1e10	1	-1E+10	1	-1E+10	1	-1E+10	1
4902624	6	C	08/20/2024	01:32	-128.600	46.966	0	207.20	0	6.5933	0	33.7883	0	26.522	0	205.378	0	150.9	4	50.5	4	-1E+10	1	0.0425	4	0.000360	0	-1E+10	1	-1E+10	1	-1E+10	1
4902624	6	C	08/20/2024	01:32	-128.600	46.966	0	208.30	0	6.5784	0	33.7900	0	26.525	0	206.468	0	149.6	4	50.0	4	-1E+10	1	0.0438	4	0.000436	0	-1E+10	1	-1E+10	1	-1E+10	1
4902624	6	C	08/20/2024	01:32	-128.600	46.966	0	209.00	0	6.5690	0	33.7910	0	26.527	0	207.161	0	-1e10	1	-1e10	1	-1E+10	1	-1e10	1	-1e10	1	-1E+10	1	-1E+10	1	-1E+10	1
4902624	6	C	08/20/2024	01:32	-128.600	46.966	0	209.50	0	6.5623	0	33.7920	0	26.528	0	207.656	0	148.1	4	49.5	4	-1E+10	1	0.0402	4	0.000429	0	-1E+10	1	-1E+10	1	-1E+10	1
4902624	6	C	08/20/2024	01:32	-128.600	46.966	0	210.60	0	6.5477	0	33.7940	0	26.532	0	208.746	0	146.6	4	49.0	4	-1E+10	1	0.0365	4	0.000368	0	-1E+10	1	-1E+10	1	-1E+10	1
4902624	6	C	08/20/2024	01:32	-128.600	46.966	0	211.10	0	6.5410	0	33.7950	0	26.534	0	209.241	0	-1e10	1	-1e10	1	-1E+10	1	-1e10	1	-1e10	1	-1E+10	1	-1E+10	1	-1E+10	1
4902624	6	C	08/20/2024	01:32	-128.600	46.966	0	211.70	0	6.5341	0	33.7959	0	26.535	0	209.836	0	144.9	4	48.4	4	-1E+10	1	0.0365	4	0.000353	0	-1E+10	1	-1E+10	1	-1E+10	1
4902624	6	C	08/20/2024	01:32	-128.600	46.966	0	212.90	0	6.5202	0	33.7978	0	26.539	0	211.025	0	143.0	4	47.8	4	-1E+10	1	0.0376	4	0.000355	0	-1E+10	1	-1E+10	1	-1E+10	1
4902624	6	C	08/20/2024	01:32	-128.600	46.966	0	213.00	0	6.5190	0	33.7980	0	26.539	0	211.124	0	-1e10	1	-1e10	1	-1E+10	1	-1e10	1	-1e10	1	-1E+10	1	-1E+10	1	-1E+10	1
4902624	6	C	08/20/2024	01:32	-128.600	46.966	0	214.00	0	6.5105	0	33.7990	0	26.541	0	212.114	0	140.9	4	47.1	4	-1E+10	1	0.0438	4	0.000365	0	-1E+10	1	-1E+10	1	-1E+10	1
4902624	6	C	08/20/2024	01:32	-128.600	46.966	0	215.00	0	6.5020	0	33.8000	0	26.543	0	213.105	0	-1e10	1	-1e10	1	-1E+10	1	-1e10	1	-1e10	1	-1E+10	1	-1E+10	1	-1E+10	1
4902624	6	C	08/20/2024	01:32	-128.600	46.966	0	215.20	0	6.4995	0	33.8007	0	26.544	0	213.303	0	138.4	4	46.2	4	-1E+10	1	0.0438	4	0.000377	0	-1E+10	1	-1E+10	1	-1E+10	1
4902624	6	C	08/20/2024	01:32	-128.600	46.966	0	216.40	0	6.4845	0	33.8049	0	26.549	0	214.492	0	136.5	4	45.6	4	-1E+10	1	0.0375	4	0.000367	0	-1E+10	1	-1E+10	1	-1E+10	1
4902624	6	C	08/20/2024	01:32	-128.600	46.966	0	217.00	0	6.4770	0	33.8070	0	26.552	0	215.086	0	-1e10	1	-1e10	1	-1E+10	1	-1e10	1	-1e10	1	-1E+10	1	-1E+10	1	-1E+10	1
4902624	6	C	08/20/2024	01:32	-128.600	46.966	0	217.50	0	6.4720	0	33.8085	0	26.553	0	215.582	0	135.2	4	45.1	4	-1E+10	1	0.0466	4	0.000373	0	-1E+10	1	-1E+10	1	-1E+10	1
4902624	6	C	08/20/2024	01:32	-128.600	46.966	0	218.60	0	6.4610	0	33.8118	0	26.557	0	216.672	0	134.0	4	44.7	4	-1E+10	1	0.0468	4	0.000377	0	-1E+10	1	-1E+10	1	-1E+10	1
4902624	6	C	08/20/2024	01:32	-128.600	46.966	0	219.00	0	6.4570	0	33.8130	0	26.559	0	217.068	0	-1e10	1	-1e10	1	-1E+10	1	-1e10	1	-1e10	1	-1E+10	1	-1E+10	1	-1E+10	1
4902624	6	C	08/20/2024	01:32	-128.600	46.966	0	219.80	0	6.4494	0	33.8138	0	26.561	0	217.860	0	132.9	4	44.3	4	-1E+10	1	0.0511	4	0.000388	0	-1E+10	1	-1E+10	1	-1E+10	1
4902624	6	C	08/20/2024	01:32	-128.600	46.966	0	221.00	0	6.4380	0	33.8150	0	26.563	0	219.049	0	127.9	4	42.7	4	-1E+10	1	0.0506	4	0.000400	0	-1E+10	1	-1E+10	1	-1E+10	1
4902624	6	C	08/20/2024	01:32	-128.600	46.966	0	222.20	0	6.4289	0	33.8161	0	26.565	0	220.238	0	130.4	4	43.5	4	-1E+10	1	0.0347	4	0.000385	0	-1E+10	1	-1E+10	1	-1E+10	1
4902624	6	C	08/20/2024	01:32	-128.600	46.966	0	223.10	0	6.4220	0	33.8170	0	26.567	0	221.129	0	-1e10	1	-1e10	1	-1E+10	1	-1e10	1	-1e10	1	-1E+10	1	-1E+10	1	-1E+10	1
4902624	6	C	08/20/2024	01:32	-128.600	46.966	0	223.30	0	6.4208	0	33.8174	0	26.567	0	221.328	0	129.1	4	43.0	4	-1E+10	1	0.0302	4	0.000344	0	-1E+10	1	-1E+10	1	-1E+10	1
4902624	6	C	08/20/2024	01:32	-128.600	46.966	0	224.50	0	6.4139	0	33.8199	0	26.570	0	222.516	0	128.0	4	42.7	4	-1E+10	1	0.0365	4	0.000377	0	-1E+10	1	-1E+10	1	-1E+10	1
4902624	6	C	08/20/2024	01:32	-128.600	46.966	0	225.00	0	6.4110	0	33.8210	0	26.571	0	223.012	0	-1e10	1	-1e10	1	-1E+10	1	-1e10	1	-1e10	1	-1E+10	1	-1E+10	1	-1E+10	1
4902624	6	C	08/20/2024	01:32	-128.600	46.966	0	225.80	0	6.4094	0	33.8226	0	26.573	0	223.804	0	127.0	4	42.3	4	-1E+10	1	0.0365	4	0.000365	0	-1E+10	1	-1E+10	1	-1E+10	1
4902624	6	C	08/20/2024	01:32	-128.600	46.966	0	226.60	0	6.4078	0	33.8242	0	26.574	0	224.597	0	126.6	4	42.2	4	-1E+10	1	0.0423	4	0.000384	0	-1E+10	1	-1E+10	1	-1E+10	1
4902624	6	C	08/20/2024	01:32	-128.600	46.966	0	227.00	0	6.4070	0	33.8250	0	26.575	0	224.993	0	-1e10	1	-1e10	1	-1E+10	1	-1e10	1	-1e10	1	-1E+10	1	-1E+10	1	-1E+10	1
4902624	6	C	08/20/2024	01:32	-128.600	46.966	0	227.40	0	6.4056	0	33.8252	0	26.575	0	225.389	0	126.0	4	42.0	4	-1E+10	1	0.0487	4	0.001827	0	-1E+10	1	-1E+10	1	-1E+10	1
4902624	6	C	08/20/2024	01:32	-128.600	46.966	0	228.10	0	6.4032	0	33.8256	0	26.576	0	226.083	0	125.3	4	41.8	4	-1E+10	1	0.0511	4	0.001733	0	-1E+10	1	-1E+10	1	-1E+10	1
4902624	6	C	08/20/2024	01:32	-128.600	46.966	0	228.90	0	6.4004	0	33.8260	0	26.577	0	226.875	0	124.7	4	41.5	4	-1E+10	1	0.0699	4	0.001054	0	-1E+10	1	-1E+10	1	-1E+10	1
4902624	6	C	08/20/2024	01:32	-128.600	46.966	0	229.00	0	6.4000	0	33.8260	0	26.577	0	226.974	0	-1e10	1	-1e10	1	-1E+10	1	-1e10	1	-1e10	1	-1E+10	1	-1E+10	1	-1E+10	1
4902624	6	C	08/20/2024	01:32	-128.600	46.966	0	229.60	0	6.3961	0	33.8263	0	26.577	0	227.568	0	124.0	4	41.3	4	-1E+10	1	0.0754	4	0.001174	0	-1E+10	1	-1E+10	1	-1E+10	1
4902624	6	C	08/20/2024	01:32	-128.600	46.966	0	230.40	0	6.3909	0	33.8267	0	26.578	0	228.361	0	123.2	4	41.0	4	-1E+10	1	0.0414	4	0.000549	0	-1E+10	1	-1E+10	1	-1E+10	1
4902624	6	C	08/20/2024	01:32	-128.600	46.966	0	231.00	0	6.3870	0	33.8270	0	26.579	0	228.955	0	-1e10	1	-1e10	1	-1E+10	1	-1e10	1	-1e10	1	-1E+10	1	-1E+10	1	-1E+10	1
4902624	6	C	08/20/2024	01:32	-128.600	46.966	0	231.10	0	6.3858	0	33.8272	0	26.579	0	229.054	0	122.3	4	40.7	4	-1E+10	1	0.0584	4	0.000658	0	-1E+10	1	-1E+10	1	-1E+10	1
4902624	6	C	08/20/2024	01:32	-128.600	46.966	0	231.80	0	6.3773	0	33.8283	0	26.581	0	229.748	0	121.4	4	40.4	4	-1E+10	1	0.0803	4	0.005151	0	-1E+10	1	-1E+10	1	-1E+10	1
4902624	6	C	08/20/2024	01:32	-128.600	46.966	0	232.60	0	6.3676	0	33.8295	0	26.584	0	230.540	0	120.5	4	40.1	4	-1E+10	1	0.0686	4	0.003321	0	-1E+10	1	-1E+10	1	-1E+10	1
4902624	6	C	08/20/2024	01:32	-128.600	46.966	0	232.90	0	6.3640	0	33.8300	0	26.585	0	230.837	0	-1e10	1	-1e10	1	-1E+10	1	-1e10	1	-1e10	1	-1E+10	1	-1E+10	1	-1E+10	1
4902624	6	C	08/20/2024	01:32	-128.600	46.966	0	233.30	0	6.3627	0	33.8310	0	26.586	0	231.234	0	119.6	4	39.8	4	-1E+10	1	0.0566	4	0.001522	0	-1E+10	1	-1E+10	1	-1E+10	1
4902624	6	C	08/20/2024	01:32	-128.600	46.966	0	234.10	0	6.3600	0	33.8329	0	26.587	0	232.026	0	118.8	4	39.5	4	-1E+10	1	0.0602	4	0.000849	0	-1E+10	1	-1E+10	1	-1E+10	1
4902624	6	C	08/20/2024	01:32	-128.600	46.966	0	234.80	0	6.3577	0	33.8345	0	26.589	0	232.720	0	118.0	4	39.3	4	-1E+10	1	0.0625	4	0.000797	0	-1E+10	1	-1E+10	1	-1E+10	1
4902624	6	C	08/20/2024	01:32	-128.600	46.966	0	235.00	0	6.3570	0	33.8350	0	26.589	0	232.918	0	-1e10	1	-1e10	1	-1E+10	1	-1e10	1	-1e10	1	-1E+10	1	-1E+10	1	-1E+10	1
4902624	6	C	08/20/2024	01:32	-128.600	46.966	0	235.60	0	6.3513	0	33.8361	0	26.591	0	233.512	0	117.3	4	39.1	4	-1E+10	1	0.0535	4	0.000764	0	-1E+10	1	-1E+10	1	-1E+10	1
4902624	6	C	08/20/2024	01:32	-128.600	46.966	0	236.40	0	6.3437	0	33.8377	0	26.593	0	234.304	0	116.7	4	38.8	4	-1E+10	1	0.0474	4	0.001506	0	-1E+10	1	-1E+10	1	-1E+10	1
4902624	6	C	08/20/2024	01:32	-128.600	46.966	0	237.10	0	6.3370	0	33.8390	0	26.595	0	234.998	0	-1e10	1	-1e10	1	-1E+10	1	-1e10	1	-1e10	1	-1E+10	1	-1E+10	1	-1E+10	1
4902624	6	C	08/20/2024	01:32	-128.600	46.966	0	237.20	0	6.3375	0	33.8394	0	26.595	0	235.097	0	116.1	4	38.6	4	-1E+10	1	0.0602	4	0.002749	0	-1E+10	1	-1E+10	1	-1E+10	1
4902624	6	C	08/20/2024	01:32	-128.600	46.966	0	238.00	0	6.3419	0	33.8426	0	26.597	0	235.889	0	115.7	4	38.5	4	-1E+10	1	0.0628	4	0.002181	0	-1E+10	1	-1E+10	1	-1E+10	1
4902624	6	C	08/20/2024	01:32	-128.600	46.966	0	238.80	0	6.3464	0	33.8458	0	26.599	0	236.682	0	115.2	4	38.4	4	-1E+10	1	0.0511	4	0.002406	0	-1E+10	1	-1E+10	1	-1E+10	1
4902624	6	C	08/20/2024	01:32	-128.600	46.966	0	239.10	0	6.3480	0	33.8470	0	26.600	0	236.979	0	-1e10	1	-1e10	1	-1E+10	1	-1e10	1	-1e10	1	-1E+10	1	-1E+10	1	-1E+10	1
4902624	6	C	08/20/2024	01:32	-128.600	46.966	0	239.60	0	6.3450	0	33.8475	0	26.601	0	237.474	0	114.8	4	38.2	4	-1E+10	1	0.0584	4	0.000787	0	-1E+10	1	-1E+10	1	-1E+10	1
4902624	6	C	08/20/2024	01:32	-128.600	46.966	0	240.50	0	6.3396	0	33.8484	0	26.602	0	238.366	0	114.3	4	38.1	4	-1E+10	1	0.0518	4	0.000439	0	-1E+10	1	-1E+10	1	-1E+10	1
4902624	6	C	08/20/2024	01:32	-128.600	46.966	0	241.10	0	6.3360	0	33.8490	0	26.603	0	238.960	0	-1e10	1	-1e10	1	-1E+10	1	-1e10	1	-1e10	1	-1E+10	1	-1E+10	1	-1E+10	1
4902624	6	C	08/20/2024	01:32	-128.600	46.966	0	241.30	0	6.3357	0	33.8496	0	26.604	0	239.158	0	114.0	4	37.9	4	-1E+10	1	0.0613	4	0.002264	0	-1E+10	1	-1E+10	1	-1E+10	1
4902624	6	C	08/20/2024	01:32	-128.600	46.966	0	242.10	0	6.3344	0	33.8522	0	26.606	0	239.951	0	113.7	4	37.8	4	-1E+10	1	0.0576	4	0.001551	0	-1E+10	1	-1E+10	1	-1E+10	1
4902624	6	C	08/20/2024	01:32	-128.600	46.966	0	242.90	0	6.3332	0	33.8547	0	26.608	0	240.743	0	113.5	4	37.8	4	-1E+10	1	0.0540	4	0.000346	0	-1E+10	1	-1E+10	1	-1E+10	1
4902624	6	C	08/20/2024	01:32	-128.600	46.966	0	243.00	0	6.3330	0	33.8550	0	26.608	0	240.842	0	-1e10	1	-1e10	1	-1E+10	1	-1e10	1	-1e10	1	-1E+10	1	-1E+10	1	-1E+10	1
4902624	6	C	08/20/2024	01:32	-128.600	46.966	0	243.80	0	6.3174	0	33.8554	0	26.611	0	241.635	0	113.3	4	37.7	4	-1E+10	1	0.0562	4	0.000346	0	-1E+10	1	-1E+10	1	-1E+10	1
4902624	6	C	08/20/2024	01:32	-128.600	46.966	0	244.70	0	6.2998	0	33.8559	0	26.613	0	242.526	0	112.8	4	37.5	4	-1E+10	1	0.0493	4	0.000347	0	-1E+10	1	-1E+10	1	-1E+10	1
4902624	6	C	08/20/2024	01:32	-128.600	46.966	0	245.00	0	6.2940	0	33.8560	0	26.614	0	242.823	0	-1e10	1	-1e10	1	-1E+10	1	-1e10	1	-1e10	1	-1E+10	1	-1E+10	1	-1E+10	1
4902624	6	C	08/20/2024	01:32	-128.600	46.966	0	245.50	0	6.2925	0	33.8552	0	26.614	0	243.318	0	112.3	4	37.3	4	-1E+10	1	0.0451	4	0.000628	0	-1E+10	1	-1E+10	1	-1E+10	1
4902624	6	C	08/20/2024	01:32	-128.600	46.966	0	246.40	0	6.2898	0	33.8539	0	26.613	0	244.210	0	111.8	4	37.2	4	-1E+10	1	0.0511	4	0.001655	0	-1E+10	1	-1E+10	1	-1E+10	1
4902624	6	C	08/20/2024	01:32	-128.600	46.966	0	247.00	0	6.2880	0	33.8530	0	26.613	0	244.804	0	-1e10	1	-1e10	1	-1E+10	1	-1e10	1	-1e10	1	-1E+10	1	-1E+10	1	-1E+10	1
4902624	6	C	08/20/2024	01:32	-128.600	46.966	0	247.20	0	6.2884	0	33.8535	0	26.613	0	245.002	0	111.2	4	37.0	4	-1E+10	1	0.0511	4	0.000735	0	-1E+10	1	-1E+10	1	-1E+10	1
4902624	6	C	08/20/2024	01:32	-128.600	46.966	0	248.10	0	6.2902	0	33.8558	0	26.615	0	245.894	0	110.7	4	36.8	4	-1E+10	1	0.0568	4	0.000396	0	-1E+10	1	-1E+10	1	-1E+10	1
4902624	6	C	08/20/2024	01:32	-128.600	46.966	0	249.00	0	6.2920	0	33.8580	0	26.616	0	246.785	0	107.2	4	35.6	4	-1E+10	1	0.0482	4	0.000365	0	-1E+10	1	-1E+10	1	-1E+10	1
4902624	6	C	08/20/2024	01:32	-128.600	46.966	0	249.90	0	6.2902	0	33.8594	0	26.617	0	247.677	0	110.1	4	36.6	4	-1E+10	1	0.0482	4	0.000372	0	-1E+10	1	-1E+10	1	-1E+10	1
4902624	6	C	08/20/2024	01:32	-128.600	46.966	0	250.70	0	6.2886	0	33.8605	0	26.619	0	248.469	0	109.9	4	36.5	4	-1E+10	1	0.0511	4	0.000392	0	-1E+10	1	-1E+10	1	-1E+10	1
4902624	6	C	08/20/2024	01:32	-128.600	46.966	0	251.00	0	6.2880	0	33.8610	0	26.619	0	248.766	0	-1e10	1	-1e10	1	-1E+10	1	-1e10	1	-1e10	1	-1E+10	1	-1E+10	1	-1E+10	1
4902624	6	C	08/20/2024	01:32	-128.600	46.966	0	251.50	0	6.2863	0	33.8615	0	26.620	0	249.261	0	109.7	4	36.5	4	-1E+10	1	0.0511	4	0.000399	0	-1E+10	1	-1E+10	1	-1E+10	1
4902624	6	C	08/20/2024	01:32	-128.600	46.966	0	252.40	0	6.2831	0	33.8624	0	26.621	0	250.153	0	109.6	4	36.4	4	-1E+10	1	0.0511	4	0.000366	0	-1E+10	1	-1E+10	1	-1E+10	1
4902624	6	C	08/20/2024	01:32	-128.600	46.966	0	253.00	0	6.2810	0	33.8630	0	26.622	0	250.747	0	-1e10	1	-1e10	1	-1E+10	1	-1e10	1	-1e10	1	-1E+10	1	-1E+10	1	-1E+10	1
4902624	6	C	08/20/2024	01:32	-128.600	46.966	0	253.30	0	6.2751	0	33.8627	0	26.622	0	251.044	0	109.5	4	36.4	4	-1E+10	1	0.0511	4	0.000376	0	-1E+10	1	-1E+10	1	-1E+10	1
4902624	6	C	08/20/2024	01:32	-128.600	46.966	0	254.10	0	6.2595	0	33.8620	0	26.623	0	251.837	0	109.4	4	36.3	4	-1E+10	1	0.0511	4	0.000341	0	-1E+10	1	-1E+10	1	-1E+10	1
4902624	6	C	08/20/2024	01:32	-128.600	46.966	0	255.00	0	6.2420	0	33.8611	0	26.625	0	252.728	0	109.2	4	36.3	4	-1E+10	1	0.0511	4	0.000379	0	-1E+10	1	-1E+10	1	-1E+10	1
4902624	6	C	08/20/2024	01:32	-128.600	46.966	0	255.10	0	6.2400	0	33.8610	0	26.625	0	252.827	0	-1e10	1	-1e10	1	-1E+10	1	-1e10	1	-1e10	1	-1E+10	1	-1E+10	1	-1E+10	1
4902624	6	C	08/20/2024	01:32	-128.600	46.966	0	255.90	0	6.2181	0	33.8593	0	26.627	0	253.620	0	108.9	4	36.2	4	-1E+10	1	0.0604	4	0.000373	0	-1E+10	1	-1E+10	1	-1E+10	1
4902624	6	C	08/20/2024	01:32	-128.600	46.966	0	256.80	0	6.1935	0	33.8574	0	26.628	0	254.511	0	108.5	4	36.0	4	-1E+10	1	0.0576	4	0.000371	0	-1E+10	1	-1E+10	1	-1E+10	1
4902624	6	C	08/20/2024	01:32	-128.600	46.966	0	257.00	0	6.1880	0	33.8570	0	26.629	0	254.709	0	-1e10	1	-1e10	1	-1E+10	1	-1e10	1	-1e10	1	-1E+10	1	-1E+10	1	-1E+10	1
4902624	6	C	08/20/2024	01:32	-128.600	46.966	0	257.70	0	6.1744	0	33.8570	0	26.630	0	255.402	0	108.2	4	35.9	4	-1E+10	1	0.0511	4	0.000699	0	-1E+10	1	-1E+10	1	-1E+10	1
4902624	6	C	08/20/2024	01:32	-128.600	46.966	0	258.60	0	6.1568	0	33.8570	0	26.633	0	256.294	0	107.7	4	35.7	4	-1E+10	1	0.0511	4	0.000787	0	-1E+10	1	-1E+10	1	-1E+10	1
4902624	6	C	08/20/2024	01:32	-128.600	46.966	0	258.90	0	6.1510	0	33.8570	0	26.633	0	256.591	0	-1e10	1	-1e10	1	-1E+10	1	-1e10	1	-1e10	1	-1E+10	1	-1E+10	1	-1E+10	1
4902624	6	C	08/20/2024	01:32	-128.600	46.966	0	259.50	0	6.1461	0	33.8573	0	26.634	0	257.185	0	107.3	4	35.5	4	-1E+10	1	0.0511	4	0.000389	0	-1E+10	1	-1E+10	1	-1E+10	1
4902624	6	C	08/20/2024	01:32	-128.600	46.966	0	260.40	0	6.1389	0	33.8577	0	26.636	0	258.077	0	106.7	4	35.4	4	-1E+10	1	0.0498	4	0.000435	0	-1E+10	1	-1E+10	1	-1E+10	1
4902624	6	C	08/20/2024	01:32	-128.600	46.966	0	261.00	0	6.1340	0	33.8580	0	26.636	0	258.671	0	-1e10	1	-1e10	1	-1E+10	1	-1e10	1	-1e10	1	-1E+10	1	-1E+10	1	-1E+10	1
4902624	6	C	08/20/2024	01:32	-128.600	46.966	0	261.30	0	6.1311	0	33.8583	0	26.637	0	258.968	0	106.2	4	35.2	4	-1E+10	1	0.0438	4	0.000435	0	-1E+10	1	-1E+10	1	-1E+10	1
4902624	6	C	08/20/2024	01:32	-128.600	46.966	0	262.20	0	6.1226	0	33.8592	0	26.639	0	259.860	0	105.7	4	35.0	4	-1E+10	1	0.0438	4	0.000377	0	-1E+10	1	-1E+10	1	-1E+10	1
4902624	6	C	08/20/2024	01:32	-128.600	46.966	0	263.00	0	6.1150	0	33.8600	0	26.640	0	260.652	0	-1e10	1	-1e10	1	-1E+10	1	-1e10	1	-1e10	1	-1E+10	1	-1E+10	1	-1E+10	1
4902624	6	C	08/20/2024	01:32	-128.600	46.966	0	263.10	0	6.1140	0	33.8602	0	26.641	0	260.751	0	105.2	4	34.8	4	-1E+10	1	0.0381	4	0.000346	0	-1E+10	1	-1E+10	1	-1E+10	1
4902624	6	C	08/20/2024	01:32	-128.600	46.966	0	264.00	0	6.1050	0	33.8620	0	26.643	0	261.642	0	104.8	4	34.7	4	-1E+10	1	0.0504	4	0.000408	0	-1E+10	1	-1E+10	1	-1E+10	1
4902624	6	C	08/20/2024	01:32	-128.600	46.966	0	264.90	0	6.0960	0	33.8638	0	26.646	0	262.534	0	104.5	4	34.6	4	-1E+10	1	0.0551	4	0.000399	0	-1E+10	1	-1E+10	1	-1E+10	1
4902624	6	C	08/20/2024	01:32	-128.600	46.966	0	265.00	0	6.0950	0	33.8640	0	26.646	0	262.633	0	-1e10	1	-1e10	1	-1E+10	1	-1e10	1	-1e10	1	-1E+10	1	-1E+10	1	-1E+10	1
4902624	6	C	08/20/2024	01:32	-128.600	46.966	0	265.80	0	6.0881	0	33.8644	0	26.647	0	263.425	0	104.2	4	34.5	4	-1E+10	1	0.0511	4	0.000372	0	-1E+10	1	-1E+10	1	-1E+10	1
4902624	6	C	08/20/2024	01:32	-128.600	46.966	0	266.70	0	6.0804	0	33.8648	0	26.649	0	264.316	0	103.9	4	34.4	4	-1E+10	1	0.0458	4	0.000415	0	-1E+10	1	-1E+10	1	-1E+10	1
4902624	6	C	08/20/2024	01:32	-128.600	46.966	0	267.10	0	6.0770	0	33.8650	0	26.649	0	264.713	0	-1e10	1	-1e10	1	-1E+10	1	-1e10	1	-1e10	1	-1E+10	1	-1E+10	1	-1E+10	1
4902624	6	C	08/20/2024	01:32	-128.600	46.966	0	267.60	0	6.0730	0	33.8652	0	26.650	0	265.208	0	103.6	4	34.3	4	-1E+10	1	0.0405	4	0.000395	0	-1E+10	1	-1E+10	1	-1E+10	1
4902624	6	C	08/20/2024	01:32	-128.600	46.966	0	268.50	0	6.0658	0	33.8657	0	26.651	0	266.099	0	103.3	4	34.2	4	-1E+10	1	0.0584	4	0.000376	0	-1E+10	1	-1E+10	1	-1E+10	1
4902624	6	C	08/20/2024	01:32	-128.600	46.966	0	269.10	0	6.0610	0	33.8660	0	26.652	0	266.693	0	-1e10	1	-1e10	1	-1E+10	1	-1e10	1	-1e10	1	-1E+10	1	-1E+10	1	-1E+10	1
4902624	6	C	08/20/2024	01:32	-128.600	46.966	0	269.40	0	6.0586	0	33.8660	0	26.652	0	266.991	0	102.9	4	34.0	4	-1E+10	1	0.0511	4	0.000388	0	-1E+10	1	-1E+10	1	-1E+10	1
4902624	6	C	08/20/2024	01:32	-128.600	46.966	0	270.30	0	6.0514	0	33.8660	0	26.653	0	267.882	0	102.5	4	33.9	4	-1E+10	1	0.0571	4	0.000359	0	-1E+10	1	-1E+10	1	-1E+10	1
4902624	6	C	08/20/2024	01:32	-128.600	46.966	0	271.10	0	6.0450	0	33.8660	0	26.654	0	268.674	0	-1e10	1	-1e10	1	-1E+10	1	-1e10	1	-1e10	1	-1E+10	1	-1E+10	1	-1E+10	1
4902624	6	C	08/20/2024	01:32	-128.600	46.966	0	271.20	0	6.0445	0	33.8662	0	26.654	0	268.773	0	102.1	4	33.8	4	-1E+10	1	0.0584	4	0.000360	0	-1E+10	1	-1E+10	1	-1E+10	1
4902624	6	C	08/20/2024	01:32	-128.600	46.966	0	272.10	0	6.0395	0	33.8680	0	26.656	0	269.665	0	101.9	4	33.7	4	-1E+10	1	0.0538	4	0.000364	0	-1E+10	1	-1E+10	1	-1E+10	1
4902624	6	C	08/20/2024	01:32	-128.600	46.966	0	273.00	0	6.0345	0	33.8698	0	26.658	0	270.556	0	101.7	4	33.6	4	-1E+10	1	0.0474	4	0.000382	0	-1E+10	1	-1E+10	1	-1E+10	1
4902624	6	C	08/20/2024	01:32	-128.600	46.966	0	273.10	0	6.0340	0	33.8700	0	26.659	0	270.655	0	-1e10	1	-1e10	1	-1E+10	1	-1e10	1	-1e10	1	-1E+10	1	-1E+10	1	-1E+10	1
4902624	6	C	08/20/2024	01:32	-128.600	46.966	0	273.90	0	6.0273	0	33.8708	0	26.660	0	271.447	0	101.5	4	33.6	4	-1E+10	1	0.0438	4	0.000393	0	-1E+10	1	-1E+10	1	-1E+10	1
4902624	6	C	08/20/2024	01:32	-128.600	46.966	0	274.90	0	6.0188	0	33.8719	0	26.662	0	272.438	0	101.4	4	33.5	4	-1E+10	1	0.0487	4	0.000454	0	-1E+10	1	-1E+10	1	-1E+10	1
4902624	6	C	08/20/2024	01:32	-128.600	46.966	0	275.00	0	6.0180	0	33.8720	0	26.662	0	272.537	0	-1e10	1	-1e10	1	-1E+10	1	-1e10	1	-1e10	1	-1E+10	1	-1E+10	1	-1E+10	1
4902624	6	C	08/20/2024	01:32	-128.600	46.966	0	275.80	0	6.0089	0	33.8720	0	26.663	0	273.329	0	101.2	4	33.4	4	-1E+10	1	0.0644	4	0.000664	0	-1E+10	1	-1E+10	1	-1E+10	1
4902624	6	C	08/20/2024	01:32	-128.600	46.966	0	276.70	0	5.9986	0	33.8720	0	26.665	0	274.220	0	101.0	4	33.4	4	-1E+10	1	0.0584	4	0.000376	0	-1E+10	1	-1E+10	1	-1E+10	1
4902624	6	C	08/20/2024	01:32	-128.600	46.966	0	277.10	0	5.9940	0	33.8720	0	26.665	0	274.617	0	-1e10	1	-1e10	1	-1E+10	1	-1e10	1	-1e10	1	-1E+10	1	-1E+10	1	-1E+10	1
4902624	6	C	08/20/2024	01:32	-128.600	46.966	0	277.60	0	5.9910	0	33.8717	0	26.665	0	275.112	0	100.8	4	33.3	4	-1E+10	1	0.0524	4	0.000366	0	-1E+10	1	-1E+10	1	-1E+10	1
4902624	6	C	08/20/2024	01:32	-128.600	46.966	0	278.60	0	5.9850	0	33.8713	0	26.666	0	276.102	0	100.5	4	33.2	4	-1E+10	1	0.0576	4	0.000375	0	-1E+10	1	-1E+10	1	-1E+10	1
4902624	6	C	08/20/2024	01:32	-128.600	46.966	0	279.10	0	5.9820	0	33.8710	0	26.666	0	276.597	0	-1e10	1	-1e10	1	-1E+10	1	-1e10	1	-1e10	1	-1E+10	1	-1E+10	1	-1E+10	1
4902624	6	C	08/20/2024	01:32	-128.600	46.966	0	279.50	0	5.9731	0	33.8708	0	26.667	0	276.994	0	100.1	4	33.1	4	-1E+10	1	0.0584	4	0.000384	0	-1E+10	1	-1E+10	1	-1E+10	1
4902624	6	C	08/20/2024	01:32	-128.600	46.966	0	280.40	0	5.9531	0	33.8703	0	26.669	0	277.885	0	99.6	4	32.9	4	-1E+10	1	0.0584	4	0.000825	0	-1E+10	1	-1E+10	1	-1E+10	1
4902624	6	C	08/20/2024	01:32	-128.600	46.966	0	280.90	0	5.9420	0	33.8700	0	26.670	0	278.380	0	-1e10	1	-1e10	1	-1E+10	1	-1e10	1	-1e10	1	-1E+10	1	-1E+10	1	-1E+10	1
4902624	6	C	08/20/2024	01:32	-128.600	46.966	0	281.30	0	5.9433	0	33.8702	0	26.670	0	278.776	0	99.0	4	32.6	4	-1E+10	1	0.0535	4	0.001013	0	-1E+10	1	-1E+10	1	-1E+10	1
4902624	6	C	08/20/2024	01:32	-128.600	46.966	0	282.30	0	5.9467	0	33.8707	0	26.670	0	279.767	0	98.3	4	32.4	4	-1E+10	1	0.0465	4	0.000357	0	-1E+10	1	-1E+10	1	-1E+10	1
4902624	6	C	08/20/2024	01:32	-128.600	46.966	0	283.00	0	5.9490	0	33.8710	0	26.670	0	280.460	0	-1e10	1	-1e10	1	-1E+10	1	-1e10	1	-1e10	1	-1E+10	1	-1E+10	1	-1E+10	1
4902624	6	C	08/20/2024	01:32	-128.600	46.966	0	283.20	0	5.9506	0	33.8716	0	26.670	0	280.658	0	97.9	4	32.3	4	-1E+10	1	0.0511	4	0.000381	0	-1E+10	1	-1E+10	1	-1E+10	1
4902624	6	C	08/20/2024	01:32	-128.600	46.966	0	284.10	0	5.9578	0	33.8743	0	26.672	0	281.549	0	97.5	4	32.2	4	-1E+10	1	0.0511	4	0.000364	0	-1E+10	1	-1E+10	1	-1E+10	1
4902624	6	C	08/20/2024	01:32	-128.600	46.966	0	285.00	0	5.9650	0	33.8770	0	26.673	0	282.440	0	94.2	4	31.1	4	-1E+10	1	0.0511	4	0.000361	0	-1E+10	1	-1E+10	1	-1E+10	1
4902624	6	C	08/20/2024	01:32	-128.600	46.966	0	286.20	0	5.9614	0	33.8770	0	26.673	0	283.629	0	96.4	4	31.8	4	-1E+10	1	0.0292	4	0.000341	0	-1E+10	1	-1E+10	1	-1E+10	1
4902624	6	C	08/20/2024	01:32	-128.600	46.966	0	287.00	0	5.9590	0	33.8770	0	26.674	0	284.421	0	-1e10	1	-1e10	1	-1E+10	1	-1e10	1	-1e10	1	-1E+10	1	-1E+10	1	-1E+10	1
4902624	6	C	08/20/2024	01:32	-128.600	46.966	0	287.30	0	5.9584	0	33.8770	0	26.674	0	284.718	0	95.8	4	31.6	4	-1E+10	1	0.0511	4	0.000353	0	-1E+10	1	-1E+10	1	-1E+10	1
4902624	6	C	08/20/2024	01:32	-128.600	46.966	0	288.20	0	5.9565	0	33.8770	0	26.674	0	285.610	0	95.2	4	31.4	4	-1E+10	1	0.0511	4	0.000364	0	-1E+10	1	-1E+10	1	-1E+10	1
4902624	6	C	08/20/2024	01:32	-128.600	46.966	0	288.90	0	5.9550	0	33.8770	0	26.674	0	286.303	0	-1e10	1	-1e10	1	-1E+10	1	-1e10	1	-1e10	1	-1E+10	1	-1E+10	1	-1E+10	1
4902624	6	C	08/20/2024	01:32	-128.600	46.966	0	289.30	0	5.9546	0	33.8780	0	26.675	0	286.699	0	94.4	4	31.2	4	-1E+10	1	0.0511	4	0.000376	0	-1E+10	1	-1E+10	1	-1E+10	1
4902624	6	C	08/20/2024	01:32	-128.600	46.966	0	290.40	0	5.9536	0	33.8806	0	26.677	0	287.788	0	93.8	4	31.0	4	-1E+10	1	0.0438	4	0.000388	0	-1E+10	1	-1E+10	1	-1E+10	1
4902624	6	C	08/20/2024	01:32	-128.600	46.966	0	291.00	0	5.9530	0	33.8820	0	26.678	0	288.382	0	-1e10	1	-1e10	1	-1E+10	1	-1e10	1	-1e10	1	-1E+10	1	-1E+10	1	-1E+10	1
4902624	6	C	08/20/2024	01:32	-128.600	46.966	0	291.40	0	5.9524	0	33.8830	0	26.679	0	288.779	0	-1e10	1	-1e10	1	-1E+10	1	0.0511	4	0.000329	0	-1E+10	1	-1E+10	1	-1E+10	1
4902624	6	C	08/20/2024	01:32	-128.600	46.966	0	292.50	0	5.9509	0	33.8856	0	26.681	0	289.868	0	-1e10	1	-1e10	1	-1E+10	1	0.0584	4	0.000352	0	-1E+10	1	-1E+10	1	-1E+10	1
4902624	6	C	08/20/2024	01:32	-128.600	46.966	0	293.10	0	5.9500	0	33.8870	0	26.683	0	290.462	0	-1e10	1	-1e10	1	-1E+10	1	-1e10	1	-1e10	1	-1E+10	1	-1E+10	1	-1E+10	1
4902624	6	C	08/20/2024	01:32	-128.600	46.966	0	293.60	0	5.9505	0	33.8883	0	26.684	0	290.957	0	-1e10	1	-1e10	1	-1E+10	1	0.0438	4	0.000341	0	-1E+10	1	-1E+10	1	-1E+10	1
4902624	6	C	08/20/2024	01:32	-128.600	46.966	0	294.50	0	5.9515	0	33.8907	0	26.685	0	291.848	0	-1e10	1	-1e10	1	-1E+10	1	0.0584	4	0.000329	0	-1E+10	1	-1E+10	1	-1E+10	1
4902624	6	C	08/20/2024	01:32	-128.600	46.966	0	295.00	0	5.9520	0	33.8920	0	26.686	0	292.344	0	-1e10	1	-1e10	1	-1E+10	1	-1e10	1	-1e10	1	-1E+10	1	-1E+10	1	-1E+10	1
4902624	6	C	08/20/2024	01:32	-128.600	46.966	0	295.70	0	5.9413	0	33.8916	0	26.687	0	293.037	0	-1e10	1	-1e10	1	-1E+10	1	0.0511	4	0.000352	0	-1E+10	1	-1E+10	1	-1E+10	1
4902624	6	C	08/20/2024	01:32	-128.600	46.966	0	296.80	0	5.9245	0	33.8911	0	26.689	0	294.126	0	-1e10	1	-1e10	1	-1E+10	1	0.0584	4	0.000364	0	-1E+10	1	-1E+10	1	-1E+10	1
4902624	6	C	08/20/2024	01:32	-128.600	46.966	0	296.90	0	5.9230	0	33.8910	0	26.689	0	294.225	0	-1e10	1	-1e10	1	-1E+10	1	-1e10	1	-1e10	1	-1E+10	1	-1E+10	1	-1E+10	1
4902624	6	C	08/20/2024	01:32	-128.600	46.966	0	297.70	0	5.9092	0	33.8903	0	26.690	0	295.017	0	-1e10	1	-1e10	1	-1E+10	1	0.0657	4	0.000423	0	-1E+10	1	-1E+10	1	-1E+10	1
4902624	6	C	08/20/2024	01:32	-128.600	46.966	0	298.60	0	5.8936	0	33.8895	0	26.692	0	295.909	0	-1e10	1	-1e10	1	-1E+10	1	0.0584	4	0.000352	0	-1E+10	1	-1E+10	1	-1E+10	1
4902624	6	C	08/20/2024	01:32	-128.600	46.966	0	299.10	0	5.8850	0	33.8890	0	26.692	0	296.404	0	-1e10	1	-1e10	1	-1E+10	1	-1e10	1	-1e10	1	-1E+10	1	-1E+10	1	-1E+10	1
4902624	6	C	08/20/2024	01:32	-128.600	46.966	0	300.10	0	5.8779	0	33.8893	0	26.694	0	297.394	0	90.8	4	29.9	4	-1E+10	1	0.0509	4	0.000393	0	-1E+10	1	-1E+10	1	-1E+10	1
4902624	6	C	08/20/2024	01:32	-128.600	46.966	0	305.00	0	5.8430	0	33.8910	0	26.699	0	302.246	0	-1e10	1	-1e10	1	-1E+10	1	-1e10	1	-1e10	1	-1E+10	1	-1E+10	1	-1E+10	1
4902624	6	C	08/20/2024	01:32	-128.600	46.966	0	309.60	0	5.8256	0	33.8966	0	26.706	0	306.801	0	86.1	4	28.3	4	-1E+10	1	0.0438	4	0.000552	0	-1E+10	1	-1E+10	1	-1E+10	1
4902624	6	C	08/20/2024	01:32	-128.600	46.966	0	314.80	0	5.8060	0	33.9030	0	26.713	0	311.950	0	-1e10	1	-1e10	1	-1E+10	1	-1e10	1	-1e10	1	-1E+10	1	-1E+10	1	-1E+10	1
4902624	6	C	08/20/2024	01:32	-128.600	46.966	0	319.30	0	5.7868	0	33.9061	0	26.718	0	316.406	0	82.6	4	27.2	4	-1E+10	1	0.0441	4	0.000295	0	-1E+10	1	-1E+10	1	-1E+10	1
4902624	6	C	08/20/2024	01:32	-128.600	46.966	0	324.90	0	5.7630	0	33.9100	0	26.724	0	321.951	0	-1e10	1	-1e10	1	-1E+10	1	-1e10	1	-1e10	1	-1E+10	1	-1E+10	1	-1E+10	1
4902624	6	C	08/20/2024	01:32	-128.600	46.966	0	329.20	0	5.7398	0	33.9147	0	26.731	0	326.209	0	78.1	4	25.7	4	-1E+10	1	0.0511	4	0.000339	0	-1E+10	1	-1E+10	1	-1E+10	1
4902624	6	C	08/20/2024	01:32	-128.600	46.966	0	334.90	0	5.7090	0	33.9210	0	26.740	0	331.852	0	-1e10	1	-1e10	1	-1E+10	1	-1e10	1	-1e10	1	-1E+10	1	-1E+10	1	-1E+10	1
4902624	6	C	08/20/2024	01:32	-128.600	46.966	0	339.30	0	5.6857	0	33.9249	0	26.746	0	336.209	0	74.1	4	24.3	4	-1E+10	1	0.0511	4	0.000308	0	-1E+10	1	-1E+10	1	-1E+10	1
4902624	6	C	08/20/2024	01:32	-128.600	46.966	0	345.10	0	5.6550	0	33.9300	0	26.753	0	341.951	0	-1e10	1	-1e10	1	-1E+10	1	-1e10	1	-1e10	1	-1E+10	1	-1E+10	1	-1E+10	1
4902624	6	C	08/20/2024	01:32	-128.600	46.966	0	349.40	0	5.6269	0	33.9330	0	26.759	0	346.208	0	71.7	4	23.5	4	-1E+10	1	0.0511	4	0.000383	0	-1E+10	1	-1E+10	1	-1E+10	1
4902624	6	C	08/20/2024	01:32	-128.600	46.966	0	355.20	0	5.5890	0	33.9370	0	26.767	0	351.950	0	-1e10	1	-1e10	1	-1E+10	1	-1e10	1	-1e10	1	-1E+10	1	-1E+10	1	-1E+10	1
4902624	6	C	08/20/2024	01:32	-128.600	46.966	0	359.60	0	5.5155	0	33.9317	0	26.772	0	356.306	0	73.0	4	23.8	4	-1E+10	1	0.0508	4	0.000295	0	-1E+10	1	-1E+10	1	-1E+10	1
4902624	6	C	08/20/2024	01:32	-128.600	46.966	0	365.20	0	5.4220	0	33.9250	0	26.778	0	361.850	0	-1e10	1	-1e10	1	-1E+10	1	-1e10	1	-1e10	1	-1E+10	1	-1E+10	1	-1E+10	1
4902624	6	C	08/20/2024	01:32	-128.600	46.966	0	369.80	0	5.3445	0	33.9221	0	26.784	0	366.404	0	73.1	4	23.8	4	-1E+10	1	0.0435	4	0.000338	0	-1E+10	1	-1E+10	1	-1E+10	1
4902624	6	C	08/20/2024	01:32	-128.600	46.966	0	374.70	0	5.2620	0	33.9190	0	26.792	0	371.255	0	-1e10	1	-1e10	1	-1E+10	1	-1e10	1	-1e10	1	-1E+10	1	-1E+10	1	-1E+10	1
4902624	6	C	08/20/2024	01:32	-128.600	46.966	0	380.10	0	5.1989	0	33.9201	0	26.800	0	376.600	0	70.9	4	23.0	4	-1E+10	1	0.0373	4	0.000281	0	-1E+10	1	-1E+10	1	-1E+10	1
4902624	6	C	08/20/2024	01:32	-128.600	46.966	0	384.80	0	5.1440	0	33.9210	0	26.807	0	381.252	0	-1e10	1	-1e10	1	-1E+10	1	-1e10	1	-1e10	1	-1E+10	1	-1E+10	1	-1E+10	1
4902624	6	C	08/20/2024	01:32	-128.600	46.966	0	390.70	0	5.0891	0	33.9228	0	26.815	0	387.092	0	68.7	4	22.2	4	-1E+10	1	0.0581	4	0.000282	0	-1E+10	1	-1E+10	1	-1E+10	1
4902624	6	C	08/20/2024	01:32	-128.600	46.966	0	394.90	0	5.0500	0	33.9240	0	26.820	0	391.250	0	-1e10	1	-1e10	1	-1E+10	1	-1e10	1	-1e10	1	-1E+10	1	-1E+10	1	-1E+10	1
4902624	6	C	08/20/2024	01:32	-128.600	46.966	0	401.40	0	4.9960	0	33.9292	0	26.830	0	397.683	0	65.3	4	21.1	4	-1E+10	1	0.0511	4	0.000303	0	-1E+10	1	-1E+10	1	-1E+10	1
4902624	6	C	08/20/2024	01:32	-128.600	46.966	0	404.90	0	4.9670	0	33.9320	0	26.836	0	401.148	0	-1e10	1	-1e10	1	-1E+10	1	-1e10	1	-1e10	1	-1E+10	1	-1E+10	1	-1E+10	1
4902624	6	C	08/20/2024	01:32	-128.600	46.966	0	412.10	0	4.9064	0	33.9384	0	26.848	0	408.274	0	61.2	4	19.7	4	-1E+10	1	0.0511	4	0.000269	0	-1E+10	1	-1E+10	1	-1E+10	1
4902624	6	C	08/20/2024	01:32	-128.600	46.966	0	415.00	0	4.8820	0	33.9410	0	26.853	0	411.144	0	-1e10	1	-1e10	1	-1E+10	1	-1e10	1	-1e10	1	-1E+10	1	-1E+10	1	-1E+10	1
4902624	6	C	08/20/2024	01:32	-128.600	46.966	0	422.90	0	4.8202	0	33.9512	0	26.868	0	418.963	0	57.3	4	18.4	4	-1E+10	1	0.0516	4	0.000269	0	-1E+10	1	-1E+10	1	-1E+10	1
4902624	6	C	08/20/2024	01:32	-128.600	46.966	0	425.10	0	4.8030	0	33.9540	0	26.872	0	421.140	0	-1e10	1	-1e10	1	-1E+10	1	-1e10	1	-1e10	1	-1E+10	1	-1E+10	1	-1E+10	1
4902624	6	C	08/20/2024	01:32	-128.600	46.966	0	434.20	0	4.7552	0	33.9657	0	26.887	0	430.146	0	53.8	4	17.3	4	-1E+10	1	0.0654	4	0.000268	0	-1E+10	1	-1E+10	1	-1E+10	1
4902624	6	C	08/20/2024	01:32	-128.600	46.966	0	435.20	0	4.7500	0	33.9670	0	26.888	0	431.135	0	-1e10	1	-1e10	1	-1E+10	1	-1e10	1	-1e10	1	-1E+10	1	-1E+10	1	-1E+10	1
4902624	6	C	08/20/2024	01:32	-128.600	46.966	0	445.00	0	4.7130	0	33.9770	0	26.900	0	440.833	0	-1e10	1	-1e10	1	-1E+10	1	-1e10	1	-1e10	1	-1E+10	1	-1E+10	1	-1E+10	1
4902624	6	C	08/20/2024	01:32	-128.600	46.966	0	445.80	0	4.7122	0	33.9780	0	26.901	0	441.625	0	50.8	4	16.3	4	-1E+10	1	0.0584	4	0.000245	0	-1E+10	1	-1E+10	1	-1E+10	1
4902624	6	C	08/20/2024	01:32	-128.600	46.966	0	455.10	0	4.7030	0	33.9890	0	26.911	0	450.828	0	-1e10	1	-1e10	1	-1E+10	1	-1e10	1	-1e10	1	-1E+10	1	-1E+10	1	-1E+10	1
4902624	6	C	08/20/2024	01:32	-128.600	46.966	0	457.80	0	4.6975	0	33.9909	0	26.913	0	453.500	0	48.2	4	15.4	4	-1E+10	1	0.0588	4	0.000245	0	-1E+10	1	-1E+10	1	-1E+10	1
4902624	6	C	08/20/2024	01:32	-128.600	46.966	0	465.00	0	4.6830	0	33.9960	0	26.919	0	460.624	0	-1e10	1	-1e10	1	-1E+10	1	-1e10	1	-1e10	1	-1E+10	1	-1E+10	1	-1E+10	1
4902624	6	C	08/20/2024	01:32	-128.600	46.966	0	467.90	0	4.6748	0	34.0003	0	26.923	0	463.493	0	45.4	4	14.5	4	-1E+10	1	0.0654	4	0.000243	0	-1E+10	1	-1E+10	1	-1E+10	1
4902624	6	C	08/20/2024	01:32	-128.600	46.966	0	475.20	0	4.6540	0	34.0110	0	26.934	0	470.716	0	-1e10	1	-1e10	1	-1E+10	1	-1e10	1	-1e10	1	-1E+10	1	-1E+10	1	-1E+10	1
4902624	6	C	08/20/2024	01:32	-128.600	46.966	0	475.70	0	4.6520	0	34.0117	0	26.935	0	471.211	0	42.7	4	13.7	4	-1E+10	1	0.0581	4	0.000199	0	-1E+10	1	-1E+10	1	-1E+10	1
4902624	6	C	08/20/2024	01:32	-128.600	46.966	0	483.90	0	4.6188	0	34.0233	0	26.948	0	479.324	0	40.2	4	12.9	4	-1E+10	1	0.0516	4	0.000232	0	-1E+10	1	-1E+10	1	-1E+10	1
4902624	6	C	08/20/2024	01:32	-128.600	46.966	0	485.10	0	4.6140	0	34.0250	0	26.950	0	480.512	0	-1e10	1	-1e10	1	-1E+10	1	-1e10	1	-1e10	1	-1E+10	1	-1E+10	1	-1E+10	1
4902624	6	C	08/20/2024	01:32	-128.600	46.966	0	492.50	0	4.6125	0	34.0326	0	26.956	0	487.833	0	38.7	4	12.4	4	-1E+10	1	0.0650	4	0.000209	0	-1E+10	1	-1E+10	1	-1E+10	1
4902624	6	C	08/20/2024	01:32	-128.600	46.966	0	494.90	0	4.6120	0	34.0350	0	26.958	0	490.207	0	-1e10	1	-1e10	1	-1E+10	1	-1e10	1	-1e10	1	-1E+10	1	-1E+10	1	-1E+10	1
4902624	6	C	08/20/2024	01:32	-128.600	46.966	0	501.20	0	4.5877	0	34.0387	0	26.964	0	496.440	0	37.0	4	11.8	4	-1E+10	1	0.0511	4	0.000198	0	-1E+10	1	-1E+10	1	-1E+10	1
4902624	6	C	08/20/2024	01:32	-128.600	46.966	0	505.00	0	4.5730	0	34.0410	0	26.967	0	500.199	0	-1e10	1	-1e10	1	-1E+10	1	-1e10	1	-1e10	1	-1E+10	1	-1E+10	1	-1E+10	1
4902624	6	C	08/20/2024	01:32	-128.600	46.966	0	510.20	0	4.5555	0	34.0467	0	26.973	0	505.344	0	34.7	4	11.1	4	-1E+10	1	0.0513	4	0.000186	0	-1E+10	1	-1E+10	1	-1E+10	1
4902624	6	C	08/20/2024	01:32	-128.600	46.966	0	515.10	0	4.5390	0	34.0520	0	26.979	0	510.191	0	-1e10	1	-1e10	1	-1E+10	1	-1e10	1	-1e10	1	-1E+10	1	-1E+10	1	-1E+10	1
4902624	6	C	08/20/2024	01:32	-128.600	46.966	0	519.50	0	4.5280	0	34.0564	0	26.984	0	514.544	0	32.7	4	10.4	4	-1E+10	1	0.0582	4	0.000196	0	-1E+10	1	-1E+10	1	-1E+10	1
4902624	6	C	08/20/2024	01:32	-128.600	46.966	0	525.10	0	4.5140	0	34.0620	0	26.990	0	520.083	0	-1e10	1	-1e10	1	-1E+10	1	-1e10	1	-1e10	1	-1E+10	1	-1E+10	1	-1E+10	1
4902624	6	C	08/20/2024	01:32	-128.600	46.966	0	529.20	0	4.5020	0	34.0661	0	26.995	0	524.139	0	30.7	4	9.8	4	-1E+10	1	0.0514	4	0.000151	0	-1E+10	1	-1E+10	1	-1E+10	1
4902624	6	C	08/20/2024	01:32	-128.600	46.966	0	535.00	0	4.4850	0	34.0720	0	27.001	0	529.876	0	-1e10	1	-1e10	1	-1E+10	1	-1e10	1	-1e10	1	-1E+10	1	-1E+10	1	-1E+10	1
4902624	6	C	08/20/2024	01:32	-128.600	46.966	0	539.00	0	4.4749	0	34.0756	0	27.005	0	533.833	0	28.9	4	9.2	4	-1E+10	1	0.0584	4	0.000163	0	-1E+10	1	-1E+10	1	-1E+10	1
4902624	6	C	08/20/2024	01:32	-128.600	46.966	0	544.90	0	4.4600	0	34.0810	0	27.011	0	539.668	0	-1e10	1	-1e10	1	-1E+10	1	-1e10	1	-1e10	1	-1E+10	1	-1E+10	1	-1E+10	1
4902624	6	C	08/20/2024	01:32	-128.600	46.966	0	549.00	0	4.4530	0	34.0839	0	27.014	0	543.724	0	27.5	4	8.8	4	-1E+10	1	0.0586	4	0.000174	0	-1E+10	1	-1E+10	1	-1E+10	1
4902624	6	C	08/20/2024	01:32	-128.600	46.966	0	554.80	0	4.4430	0	34.0880	0	27.019	0	549.460	0	-1e10	1	-1e10	1	-1E+10	1	-1e10	1	-1e10	1	-1E+10	1	-1E+10	1	-1E+10	1
4902624	6	C	08/20/2024	01:32	-128.600	46.966	0	559.00	0	4.4393	0	34.0922	0	27.022	0	553.614	0	25.4	4	8.1	4	-1E+10	1	0.0654	4	0.000173	0	-1E+10	1	-1E+10	1	-1E+10	1
4902624	6	C	08/20/2024	01:32	-128.600	46.966	0	564.90	0	4.4340	0	34.0980	0	27.028	0	559.449	0	-1e10	1	-1e10	1	-1E+10	1	-1e10	1	-1e10	1	-1E+10	1	-1E+10	1	-1E+10	1
4902624	6	C	08/20/2024	01:32	-128.600	46.966	0	569.20	0	4.4238	0	34.1035	0	27.033	0	563.702	0	23.2	4	7.4	4	-1E+10	1	0.0581	4	0.000151	0	-1E+10	1	-1E+10	1	-1E+10	1
4902624	6	C	08/20/2024	01:32	-128.600	46.966	0	575.00	0	4.4100	0	34.1110	0	27.041	0	569.438	0	-1e10	1	-1e10	1	-1E+10	1	-1e10	1	-1e10	1	-1E+10	1	-1E+10	1	-1E+10	1
4902624	6	C	08/20/2024	01:32	-128.600	46.966	0	579.40	0	4.4051	0	34.1181	0	27.047	0	573.790	0	20.6	4	6.6	4	-1E+10	1	0.0514	4	0.000173	0	-1E+10	1	-1E+10	1	-1E+10	1
4902624	6	C	08/20/2024	01:32	-128.600	46.966	0	584.90	0	4.3990	0	34.1270	0	27.055	0	579.229	0	-1e10	1	-1e10	1	-1E+10	1	-1e10	1	-1e10	1	-1E+10	1	-1E+10	1	-1E+10	1
4902624	6	C	08/20/2024	01:32	-128.600	46.966	0	589.70	0	4.3883	0	34.1333	0	27.061	0	583.975	0	18.9	4	6.0	4	-1E+10	1	0.0581	4	0.000151	0	-1E+10	1	-1E+10	1	-1E+10	1
4902624	6	C	08/20/2024	01:32	-128.600	46.966	0	594.80	0	4.3770	0	34.1400	0	27.067	0	589.019	0	-1e10	1	-1e10	1	-1E+10	1	-1e10	1	-1e10	1	-1E+10	1	-1E+10	1	-1E+10	1
4902624	6	C	08/20/2024	01:32	-128.600	46.966	0	600.10	0	4.3856	0	34.1480	0	27.073	0	594.260	0	17.1	4	5.5	4	-1E+10	1	0.0514	4	0.000173	0	-1E+10	1	-1E+10	1	-1E+10	1
4902624	6	C	08/20/2024	01:32	-128.600	46.966	0	604.70	0	4.3930	0	34.1550	0	27.078	0	598.808	0	-1e10	1	-1e10	1	-1E+10	1	-1e10	1	-1e10	1	-1E+10	1	-1E+10	1	-1E+10	1
4902624	6	C	08/20/2024	01:32	-128.600	46.966	0	610.60	0	4.4279	0	34.1705	0	27.086	0	604.642	0	14.9	4	4.8	4	-1E+10	1	0.0587	4	0.000150	0	-1E+10	1	-1E+10	1	-1E+10	1
4902624	6	C	08/20/2024	01:32	-128.600	46.966	0	615.00	0	4.4540	0	34.1820	0	27.093	0	608.993	0	-1e10	1	-1e10	1	-1E+10	1	-1e10	1	-1e10	1	-1E+10	1	-1E+10	1	-1E+10	1
4902624	6	C	08/20/2024	01:32	-128.600	46.966	0	621.40	0	4.4515	0	34.1908	0	27.100	0	615.321	0	13.7	4	4.4	4	-1E+10	1	0.0657	4	0.000163	0	-1E+10	1	-1E+10	1	-1E+10	1
4902624	6	C	08/20/2024	01:32	-128.600	46.966	0	625.20	0	4.4500	0	34.1960	0	27.104	0	619.078	0	-1e10	1	-1e10	1	-1E+10	1	-1e10	1	-1e10	1	-1E+10	1	-1E+10	1	-1E+10	1
4902624	6	C	08/20/2024	01:32	-128.600	46.966	0	632.60	0	4.3874	0	34.1975	0	27.112	0	626.394	0	13.2	4	4.2	4	-1E+10	1	0.0657	4	0.000196	0	-1E+10	1	-1E+10	1	-1E+10	1
4902624	6	C	08/20/2024	01:32	-128.600	46.966	0	634.90	0	4.3680	0	34.1980	0	27.115	0	628.668	0	-1e10	1	-1e10	1	-1E+10	1	-1e10	1	-1e10	1	-1E+10	1	-1E+10	1	-1E+10	1
4902624	6	C	08/20/2024	01:32	-128.600	46.966	0	644.10	0	4.3735	0	34.2072	0	27.122	0	637.764	0	12.4	4	3.9	4	-1E+10	1	0.0651	4	0.000172	0	-1E+10	1	-1E+10	1	-1E+10	1
4902624	6	C	08/20/2024	01:32	-128.600	46.966	0	644.90	0	4.3740	0	34.2080	0	27.122	0	638.555	0	-1e10	1	-1e10	1	-1E+10	1	-1e10	1	-1e10	1	-1E+10	1	-1E+10	1	-1E+10	1
4902624	6	C	08/20/2024	01:32	-128.600	46.966	0	655.00	0	4.3700	0	34.2180	0	27.131	0	648.540	0	-1e10	1	-1e10	1	-1E+10	1	-1e10	1	-1e10	1	-1E+10	1	-1E+10	1	-1E+10	1
4902624	6	C	08/20/2024	01:32	-128.600	46.966	0	655.80	0	4.3657	0	34.2182	0	27.131	0	649.331	0	11.9	4	3.8	4	-1E+10	1	0.0511	4	0.000162	0	-1E+10	1	-1E+10	1	-1E+10	1
4902624	6	C	08/20/2024	01:32	-128.600	46.966	0	665.10	0	4.3160	0	34.2200	0	27.138	0	658.524	0	-1e10	1	-1e10	1	-1E+10	1	-1e10	1	-1e10	1	-1E+10	1	-1E+10	1	-1E+10	1
4902624	6	C	08/20/2024	01:32	-128.600	46.966	0	667.50	0	4.3170	0	34.2219	0	27.139	0	660.897	0	11.5	4	3.7	4	-1E+10	1	0.0518	4	0.000183	0	-1E+10	1	-1E+10	1	-1E+10	1
4902624	6	C	08/20/2024	01:32	-128.600	46.966	0	675.00	0	4.3200	0	34.2280	0	27.144	0	668.311	0	-1e10	1	-1e10	1	-1E+10	1	-1e10	1	-1e10	1	-1E+10	1	-1E+10	1	-1E+10	1
4902624	6	C	08/20/2024	01:32	-128.600	46.966	0	675.40	0	4.3183	0	34.2281	0	27.144	0	668.706	0	11.1	4	3.5	4	-1E+10	1	0.0654	4	0.000148	0	-1E+10	1	-1E+10	1	-1E+10	1
4902624	6	C	08/20/2024	01:32	-128.600	46.966	0	683.50	0	4.2830	0	34.2305	0	27.150	0	676.712	0	11.1	4	3.5	4	-1E+10	1	0.0581	4	0.000127	0	-1E+10	1	-1E+10	1	-1E+10	1
4902624	6	C	08/20/2024	01:32	-128.600	46.966	0	685.10	0	4.2760	0	34.2310	0	27.151	0	678.294	0	-1e10	1	-1e10	1	-1E+10	1	-1e10	1	-1e10	1	-1E+10	1	-1E+10	1	-1E+10	1
4902624	6	C	08/20/2024	01:32	-128.600	46.966	0	691.90	0	4.1949	0	34.2269	0	27.156	0	685.015	0	11.1	4	3.5	4	-1E+10	1	0.0514	4	0.000160	0	-1E+10	1	-1E+10	1	-1E+10	1
4902624	6	C	08/20/2024	01:32	-128.600	46.966	0	695.00	0	4.1580	0	34.2250	0	27.159	0	688.079	0	-1e10	1	-1e10	1	-1E+10	1	-1e10	1	-1e10	1	-1E+10	1	-1E+10	1	-1E+10	1
4902624	6	C	08/20/2024	01:32	-128.600	46.966	0	700.70	0	4.1511	0	34.2290	0	27.163	0	693.713	0	10.7	4	3.4	4	-1E+10	1	0.0581	4	0.000149	0	-1E+10	1	-1E+10	1	-1E+10	1
4902624	6	C	08/20/2024	01:32	-128.600	46.966	0	704.90	0	4.1460	0	34.2320	0	27.166	0	697.864	0	-1e10	1	-1e10	1	-1E+10	1	-1e10	1	-1e10	1	-1E+10	1	-1E+10	1	-1E+10	1
4902624	6	C	08/20/2024	01:32	-128.600	46.966	0	709.80	0	4.1450	0	34.2373	0	27.170	0	702.707	0	10.4	4	3.3	4	-1E+10	1	0.0517	4	0.000149	0	-1E+10	1	-1E+10	1	-1E+10	1
4902624	6	C	08/20/2024	01:32	-128.600	46.966	0	715.00	0	4.1440	0	34.2430	0	27.175	0	707.846	0	-1e10	1	-1e10	1	-1E+10	1	-1e10	1	-1e10	1	-1E+10	1	-1E+10	1	-1E+10	1
4902624	6	C	08/20/2024	01:32	-128.600	46.966	0	719.40	0	4.1365	0	34.2456	0	27.178	0	712.195	0	10.1	4	3.2	4	-1E+10	1	0.0654	4	0.000149	0	-1E+10	1	-1E+10	1	-1E+10	1
4902624	6	C	08/20/2024	01:32	-128.600	46.966	0	725.00	0	4.1270	0	34.2490	0	27.181	0	717.729	0	-1e10	1	-1e10	1	-1E+10	1	-1e10	1	-1e10	1	-1E+10	1	-1E+10	1	-1E+10	1
4902624	6	C	08/20/2024	01:32	-128.600	46.966	0	729.50	0	4.1097	0	34.2504	0	27.184	0	722.176	0	10.1	4	3.2	4	-1E+10	1	0.0587	4	0.000148	0	-1E+10	1	-1E+10	1	-1E+10	1
4902624	6	C	08/20/2024	01:32	-128.600	46.966	0	734.90	0	4.0890	0	34.2520	0	27.188	0	727.512	0	-1e10	1	-1e10	1	-1E+10	1	-1e10	1	-1e10	1	-1E+10	1	-1E+10	1	-1E+10	1
4902624	6	C	08/20/2024	01:32	-128.600	46.966	0	739.90	0	4.0598	0	34.2525	0	27.191	0	732.453	0	10.1	4	3.2	4	-1E+10	1	0.0654	4	0.000138	0	-1E+10	1	-1E+10	1	-1E+10	1
4902624	6	C	08/20/2024	01:32	-128.600	46.966	0	745.00	0	4.0300	0	34.2530	0	27.195	0	737.493	0	-1e10	1	-1e10	1	-1E+10	1	-1e10	1	-1e10	1	-1E+10	1	-1E+10	1	-1E+10	1
4902624	6	C	08/20/2024	01:32	-128.600	46.966	0	750.70	0	4.0140	0	34.2558	0	27.199	0	743.125	0	9.8	4	3.1	4	-1E+10	1	0.0589	4	0.000161	0	-1E+10	1	-1E+10	1	-1E+10	1
4902624	6	C	08/20/2024	01:32	-128.600	46.966	0	755.00	0	4.0020	0	34.2580	0	27.201	0	747.374	0	-1e10	1	-1e10	1	-1E+10	1	-1e10	1	-1e10	1	-1E+10	1	-1E+10	1	-1E+10	1
4902624	6	C	08/20/2024	01:32	-128.600	46.966	0	761.80	0	4.0027	0	34.2649	0	27.207	0	754.093	0	9.3	4	2.9	4	-1E+10	1	0.0724	4	0.000181	0	-1E+10	1	-1E+10	1	-1E+10	1
4902624	6	C	08/20/2024	01:32	-128.600	46.966	0	764.90	0	4.0030	0	34.2680	0	27.209	0	757.156	0	-1e10	1	-1e10	1	-1E+10	1	-1e10	1	-1e10	1	-1E+10	1	-1E+10	1	-1E+10	1
4902624	6	C	08/20/2024	01:32	-128.600	46.966	0	773.10	0	3.9762	0	34.2712	0	27.215	0	765.258	0	9.2	4	2.9	4	-1E+10	1	0.0584	4	0.000137	0	-1E+10	1	-1E+10	1	-1E+10	1
4902624	6	C	08/20/2024	01:32	-128.600	46.966	0	775.00	0	3.9700	0	34.2720	0	27.216	0	767.136	0	-1e10	1	-1e10	1	-1E+10	1	-1e10	1	-1e10	1	-1E+10	1	-1E+10	1	-1E+10	1
4902624	6	C	08/20/2024	01:32	-128.600	46.966	0	784.40	0	3.9672	0	34.2794	0	27.222	0	776.423	0	8.7	4	2.7	4	-1E+10	1	0.0587	4	0.000148	0	-1E+10	1	-1E+10	1	-1E+10	1
4902624	6	C	08/20/2024	01:32	-128.600	46.966	0	785.10	0	3.9670	0	34.2800	0	27.223	0	777.114	0	-1e10	1	-1e10	1	-1E+10	1	-1e10	1	-1e10	1	-1E+10	1	-1E+10	1	-1E+10	1
4902624	6	C	08/20/2024	01:32	-128.600	46.966	0	795.00	0	3.9710	0	34.2890	0	27.230	0	786.895	0	-1e10	1	-1e10	1	-1E+10	1	-1e10	1	-1e10	1	-1E+10	1	-1E+10	1	-1E+10	1
4902624	6	C	08/20/2024	01:32	-128.600	46.966	0	796.10	0	3.9655	0	34.2891	0	27.230	0	787.982	0	8.5	4	2.7	4	-1E+10	1	0.0660	4	0.000147	0	-1E+10	1	-1E+10	1	-1E+10	1
4902624	6	C	08/20/2024	01:32	-128.600	46.966	0	805.20	0	3.9200	0	34.2900	0	27.236	0	796.972	0	-1e10	1	-1e10	1	-1E+10	1	-1e10	1	-1e10	1	-1E+10	1	-1E+10	1	-1E+10	1
4902624	6	C	08/20/2024	01:32	-128.600	46.966	0	808.00	0	3.9153	0	34.2909	0	27.237	0	799.738	0	39.8	4	12.5	4	-1E+10	1	0.0723	4	0.000136	0	-1E+10	1	-1E+10	1	-1E+10	1
4902624	6	C	08/20/2024	01:32	-128.600	46.966	0	814.80	0	3.9040	0	34.2930	0	27.240	0	806.455	0	-1e10	1	-1e10	1	-1E+10	1	-1e10	1	-1e10	1	-1E+10	1	-1E+10	1	-1E+10	1
4902624	6	C	08/20/2024	01:32	-128.600	46.966	0	820.10	0	3.8886	0	34.2956	0	27.243	0	811.690	0	27.0	4	8.5	4	-1E+10	1	0.0517	4	0.000148	0	-1E+10	1	-1E+10	1	-1E+10	1
4902624	6	C	08/20/2024	01:32	-128.600	46.966	0	825.10	0	3.8740	0	34.2980	0	27.247	0	816.629	0	-1e10	1	-1e10	1	-1E+10	1	-1e10	1	-1e10	1	-1E+10	1	-1E+10	1	-1E+10	1
4902624	6	C	08/20/2024	01:32	-128.600	46.966	0	832.10	0	3.8597	0	34.3009	0	27.251	0	823.544	0	15.8	4	5.0	4	-1E+10	1	0.0657	4	0.000171	0	-1E+10	1	-1E+10	1	-1E+10	1
4902624	6	C	08/20/2024	01:32	-128.600	46.966	0	834.90	0	3.8540	0	34.3020	0	27.252	0	826.309	0	-1e10	1	-1e10	1	-1E+10	1	-1e10	1	-1e10	1	-1E+10	1	-1E+10	1	-1E+10	1
4902624	6	C	08/20/2024	01:32	-128.600	46.966	0	844.00	0	3.8356	0	34.3072	0	27.258	0	835.298	0	8.0	4	2.5	4	-1E+10	1	0.0654	4	0.000181	0	-1E+10	1	-1E+10	1	-1E+10	1
4902624	6	C	08/20/2024	01:32	-128.600	46.966	0	845.30	0	3.8330	0	34.3080	0	27.259	0	836.582	0	-1e10	1	-1e10	1	-1E+10	1	-1e10	1	-1e10	1	-1E+10	1	-1E+10	1	-1E+10	1
4902624	6	C	08/20/2024	01:32	-128.600	46.966	0	855.10	0	3.8130	0	34.3140	0	27.266	0	846.261	0	-1e10	1	-1e10	1	-1E+10	1	-1e10	1	-1e10	1	-1E+10	1	-1E+10	1	-1E+10	1
4902624	6	C	08/20/2024	01:32	-128.600	46.966	0	855.90	0	3.8112	0	34.3145	0	27.266	0	847.051	0	21.0	4	6.6	4	-1E+10	1	0.0584	4	0.000147	0	-1E+10	1	-1E+10	1	-1E+10	1
4902624	6	C	08/20/2024	01:32	-128.600	46.966	0	865.00	0	3.7910	0	34.3200	0	27.273	0	856.038	0	-1e10	1	-1e10	1	-1E+10	1	-1e10	1	-1e10	1	-1E+10	1	-1E+10	1	-1E+10	1
4902624	6	C	08/20/2024	01:32	-128.600	46.966	0	868.00	0	3.7837	0	34.3212	0	27.275	0	859.001	0	46.8	4	14.7	4	-1E+10	1	0.0587	4	0.000157	0	-1E+10	1	-1E+10	1	-1E+10	1
4902624	6	C	08/20/2024	01:32	-128.600	46.966	0	874.90	0	3.7670	0	34.3240	0	27.279	0	865.815	0	-1e10	1	-1e10	1	-1E+10	1	-1e10	1	-1e10	1	-1E+10	1	-1E+10	1	-1E+10	1
4902624	6	C	08/20/2024	01:32	-128.600	46.966	0	879.90	0	3.7554	0	34.3265	0	27.282	0	870.753	0	50.6	4	15.9	4	-1E+10	1	0.0654	4	0.000124	0	-1E+10	1	-1E+10	1	-1E+10	1
4902624	6	C	08/20/2024	01:32	-128.600	46.966	0	884.80	0	3.7440	0	34.3290	0	27.285	0	875.591	0	-1e10	1	-1e10	1	-1E+10	1	-1e10	1	-1e10	1	-1E+10	1	-1E+10	1	-1E+10	1
4902624	6	C	08/20/2024	01:32	-128.600	46.966	0	891.60	0	3.7258	0	34.3330	0	27.290	0	882.306	0	56.4	4	17.7	4	-1E+10	1	0.0584	4	0.000135	0	-1E+10	1	-1E+10	1	-1E+10	1
4902624	6	C	08/20/2024	01:32	-128.600	46.966	0	894.90	0	3.7170	0	34.3350	0	27.292	0	885.565	0	-1e10	1	-1e10	1	-1E+10	1	-1e10	1	-1e10	1	-1E+10	1	-1E+10	1	-1E+10	1
4902624	6	C	08/20/2024	01:32	-128.600	46.966	0	903.30	0	3.6999	0	34.3399	0	27.298	0	893.859	0	56.0	4	17.6	4	-1E+10	1	0.0587	4	0.000145	0	-1E+10	1	-1E+10	1	-1E+10	1
4902624	6	C	08/20/2024	01:32	-128.600	46.966	0	905.20	0	3.6960	0	34.3410	0	27.299	0	895.736	0	-1e10	1	-1e10	1	-1E+10	1	-1e10	1	-1e10	1	-1E+10	1	-1E+10	1	-1E+10	1
4902624	6	C	08/20/2024	01:32	-128.600	46.966	0	914.60	0	3.6723	0	34.3457	0	27.305	0	905.017	0	54.4	4	17.1	4	-1E+10	1	0.0651	4	0.000113	0	-1E+10	1	-1E+10	1	-1E+10	1
4902624	6	C	08/20/2024	01:32	-128.600	46.966	0	915.10	0	3.6710	0	34.3460	0	27.306	0	905.511	0	-1e10	1	-1e10	1	-1E+10	1	-1e10	1	-1e10	1	-1E+10	1	-1E+10	1	-1E+10	1
4902624	6	C	08/20/2024	01:32	-128.600	46.966	0	925.00	0	3.6540	0	34.3510	0	27.312	0	915.285	0	-1e10	1	-1e10	1	-1E+10	1	-1e10	1	-1e10	1	-1E+10	1	-1E+10	1	-1E+10	1
4902624	6	C	08/20/2024	01:32	-128.600	46.966	0	926.00	0	3.6526	0	34.3513	0	27.312	0	916.273	0	53.1	4	16.6	4	-1E+10	1	0.0514	4	0.000146	0	-1E+10	1	-1E+10	1	-1E+10	1
4902624	6	C	08/20/2024	01:32	-128.600	46.966	0	935.00	0	3.6400	0	34.3540	0	27.315	0	925.158	0	-1e10	1	-1e10	1	-1E+10	1	-1e10	1	-1e10	1	-1E+10	1	-1E+10	1	-1E+10	1
4902624	6	C	08/20/2024	01:32	-128.600	46.966	0	937.50	0	3.6360	0	34.3550	0	27.317	0	927.626	0	50.4	4	15.8	4	-1E+10	1	0.0581	4	0.000146	0	-1E+10	1	-1E+10	1	-1E+10	1
4902624	6	C	08/20/2024	01:32	-128.600	46.966	0	945.00	0	3.6240	0	34.3580	0	27.320	0	935.031	0	-1e10	1	-1e10	1	-1E+10	1	-1e10	1	-1e10	1	-1E+10	1	-1E+10	1	-1E+10	1
4902624	6	C	08/20/2024	01:32	-128.600	46.966	0	949.00	0	3.6149	0	34.3600	0	27.323	0	938.979	0	50.8	4	15.9	4	-1E+10	1	0.0517	4	0.000134	0	-1E+10	1	-1E+10	1	-1E+10	1
4902624	6	C	08/20/2024	01:32	-128.600	46.966	0	955.10	0	3.6010	0	34.3630	0	27.326	0	945.001	0	-1e10	1	-1e10	1	-1E+10	1	-1e10	1	-1e10	1	-1E+10	1	-1E+10	1	-1E+10	1
4902624	6	C	08/20/2024	01:32	-128.600	46.966	0	957.90	0	3.5934	0	34.3644	0	27.328	0	947.765	0	52.7	4	16.5	4	-1E+10	1	0.0657	4	0.000123	0	-1E+10	1	-1E+10	1	-1E+10	1
4902624	6	C	08/20/2024	01:32	-128.600	46.966	0	965.10	0	3.5740	0	34.3680	0	27.333	0	954.873	0	-1e10	1	-1e10	1	-1E+10	1	-1e10	1	-1e10	1	-1E+10	1	-1E+10	1	-1E+10	1
4902624	6	C	08/20/2024	01:32	-128.600	46.966	0	965.80	0	3.5721	0	34.3685	0	27.334	0	955.564	0	53.1	4	16.6	4	-1E+10	1	0.0650	4	0.000147	0	-1E+10	1	-1E+10	1	-1E+10	1
4902624	6	C	08/20/2024	01:32	-128.600	46.966	0	973.80	0	3.5510	0	34.3740	0	27.340	0	963.460	0	48.5	4	15.2	4	-1E+10	1	0.0518	4	0.000168	0	-1E+10	1	-1E+10	1	-1E+10	1
4902624	6	C	08/20/2024	01:32	-128.600	46.966	0	975.30	0	3.5470	0	34.3750	0	27.341	0	964.941	0	-1e10	1	-1e10	1	-1E+10	1	-1e10	1	-1e10	1	-1E+10	1	-1E+10	1	-1E+10	1
4902624	6	C	08/20/2024	01:32	-128.600	46.966	0	982.10	0	3.5378	0	34.3785	0	27.345	0	971.653	0	58.9	4	18.4	4	-1E+10	1	0.0650	4	0.000147	0	-1E+10	1	-1E+10	1	-1E+10	1
4902624	6	C	08/20/2024	01:32	-128.600	46.966	0	984.90	0	3.5340	0	34.3800	0	27.347	0	974.417	0	-1e10	1	-1e10	1	-1E+10	1	-1e10	1	-1e10	1	-1E+10	1	-1E+10	1	-1E+10	1
4902624	6	C	08/20/2024	01:32	-128.600	46.966	0	990.80	0	3.5181	0	34.3824	0	27.350	0	980.240	0	51.0	4	15.9	4	-1E+10	1	0.0513	4	0.000179	0	-1E+10	1	-1E+10	1	-1E+10	1
4902624	6	C	08/20/2024	01:32	-128.600	46.966	0	994.90	0	3.5070	0	34.3840	0	27.353	0	984.287	0	-1e10	1	-1e10	1	-1E+10	1	-1e10	1	-1e10	1	-1E+10	1	-1E+10	1	-1E+10	1
4902624	6	C	08/20/2024	01:32	-128.600	46.966	0	1004.80	0	3.4871	0	34.3883	0	27.358	0	994.058	0	65.1	4	20.3	4	-1E+10	1	0.0586	4	0.000145	0	-1E+10	1	-1E+10	1	-1E+10	1
4902624	6	C	08/20/2024	01:32	-128.600	46.966	0	1024.10	0	3.4484	0	34.3967	0	27.368	0	1013.105	0	69.2	4	21.6	4	-1E+10	1	0.0654	4	0.000156	0	-1E+10	1	-1E+10	1	-1E+10	1
4902624	6	C	08/20/2024	01:32	-128.600	46.966	0	1024.80	0	3.4470	0	34.3970	0	27.369	0	1013.796	0	-1e10	1	-1e10	1	-1E+10	1	-1e10	1	-1e10	1	-1E+10	1	-1E+10	1	-1E+10	1
4902624	6	C	08/20/2024	01:32	-128.600	46.966	0	1044.70	0	3.4047	0	34.4037	0	27.378	0	1033.433	0	66.5	4	20.7	4	-1E+10	1	0.0512	4	0.000122	0	-1E+10	1	-1E+10	1	-1E+10	1
4902624	6	C	08/20/2024	01:32	-128.600	46.966	0	1066.90	0	3.3574	0	34.4112	0	27.389	0	1055.338	0	67.8	4	21.1	4	-1E+10	1	0.0584	4	0.000144	0	-1E+10	1	-1E+10	1	-1E+10	1
4902624	6	C	08/20/2024	01:32	-128.600	46.966	0	1075.10	0	3.3400	0	34.4140	0	27.393	0	1063.428	0	-1e10	1	-1e10	1	-1E+10	1	-1e10	1	-1e10	1	-1E+10	1	-1E+10	1	-1E+10	1
4902624	6	C	08/20/2024	01:32	-128.600	46.966	0	1090.60	0	3.3065	0	34.4187	0	27.400	0	1078.720	0	71.7	4	22.3	4	-1E+10	1	0.0585	4	0.000121	0	-1E+10	1	-1E+10	1	-1E+10	1
4902624	6	C	08/20/2024	01:32	-128.600	46.966	0	1115.00	0	3.2538	0	34.4260	0	27.411	0	1102.790	0	58.0	4	18.0	4	-1E+10	1	0.0657	4	0.000132	0	-1E+10	1	-1E+10	1	-1E+10	1
4902624	6	C	08/20/2024	01:32	-128.600	46.966	0	1125.10	0	3.2320	0	34.4290	0	27.415	0	1112.753	0	-1e10	1	-1e10	1	-1E+10	1	-1e10	1	-1e10	1	-1E+10	1	-1E+10	1	-1E+10	1
4902624	6	C	08/20/2024	01:32	-128.600	46.966	0	1139.30	0	3.1989	0	34.4333	0	27.422	0	1126.759	0	68.8	4	21.3	4	-1E+10	1	0.0655	4	0.000132	0	-1E+10	1	-1E+10	1	-1E+10	1
4902624	6	C	08/20/2024	01:32	-128.600	46.966	0	1155.70	0	3.1606	0	34.4382	0	27.429	0	1142.934	0	102.9	4	31.9	4	-1E+10	1	0.0586	4	0.000155	0	-1E+10	1	-1E+10	1	-1E+10	1
4902624	6	C	08/20/2024	01:32	-128.600	46.966	0	1172.60	0	3.1211	0	34.4433	0	27.437	0	1159.600	0	112.8	4	34.9	4	-1E+10	1	0.0656	4	0.000154	0	-1E+10	1	-1E+10	1	-1E+10	1
4902624	6	C	08/20/2024	01:32	-128.600	46.966	0	1174.80	0	3.1160	0	34.4440	0	27.438	0	1161.770	0	-1e10	1	-1e10	1	-1E+10	1	-1e10	1	-1e10	1	-1E+10	1	-1E+10	1	-1E+10	1
4902624	6	C	08/20/2024	01:32	-128.600	46.966	0	1189.90	0	3.0852	0	34.4470	0	27.444	0	1176.660	0	71.5	4	22.1	4	-1E+10	1	0.0585	4	0.000120	0	-1E+10	1	-1E+10	1	-1E+10	1
4902624	6	C	08/20/2024	01:32	-128.600	46.966	0	1207.40	0	3.0495	0	34.4505	0	27.450	0	1193.916	0	69.5	4	21.5	4	-1E+10	1	0.0657	4	0.000166	0	-1E+10	1	-1E+10	1	-1E+10	1
4902624	6	C	08/20/2024	01:32	-128.600	46.966	0	1224.80	0	3.0140	0	34.4540	0	27.456	0	1211.072	0	-1e10	1	-1e10	1	-1E+10	1	-1e10	1	-1e10	1	-1E+10	1	-1E+10	1	-1E+10	1
4902624	6	C	08/20/2024	01:32	-128.600	46.966	0	1225.10	0	3.0133	0	34.4541	0	27.456	0	1211.367	0	67.8	4	20.9	4	-1E+10	1	0.0657	4	0.000154	0	-1E+10	1	-1E+10	1	-1E+10	1
4902624	6	C	08/20/2024	01:32	-128.600	46.966	0	1243.10	0	2.9731	0	34.4584	0	27.463	0	1229.113	0	110.1	4	34.0	4	-1E+10	1	0.0657	4	0.000154	0	-1E+10	1	-1E+10	1	-1E+10	1
4902624	6	C	08/20/2024	01:32	-128.600	46.966	0	1261.50	0	2.9320	0	34.4629	0	27.470	0	1247.251	0	142.9	4	44.0	4	-1E+10	1	0.0659	4	0.000176	0	-1E+10	1	-1E+10	1	-1E+10	1
4902624	6	C	08/20/2024	01:32	-128.600	46.966	0	1274.50	0	2.9030	0	34.4660	0	27.476	0	1260.066	0	-1e10	1	-1e10	1	-1E+10	1	-1e10	1	-1e10	1	-1E+10	1	-1E+10	1	-1E+10	1
4902624	6	C	08/20/2024	01:32	-128.600	46.966	0	1280.10	0	2.8916	0	34.4673	0	27.478	0	1265.585	0	149.9	4	46.2	4	-1E+10	1	0.0725	4	0.000164	0	-1E+10	1	-1E+10	1	-1E+10	1
4902624	6	C	08/20/2024	01:32	-128.600	46.966	0	1299.50	0	2.8523	0	34.4720	0	27.485	0	1284.706	0	145.4	4	44.8	4	-1E+10	1	0.0512	4	0.000152	0	-1E+10	1	-1E+10	1	-1E+10	1
4902624	6	C	08/20/2024	01:32	-128.600	46.966	0	1319.40	0	2.8120	0	34.4767	0	27.492	0	1304.318	0	140.0	4	43.0	4	-1E+10	1	0.0584	4	0.000141	0	-1E+10	1	-1E+10	1	-1E+10	1
4902624	6	C	08/20/2024	01:32	-128.600	46.966	0	1324.80	0	2.8010	0	34.4780	0	27.494	0	1309.640	0	-1e10	1	-1e10	1	-1E+10	1	-1e10	1	-1e10	1	-1E+10	1	-1E+10	1	-1E+10	1
4902624	6	C	08/20/2024	01:32	-128.600	46.966	0	1339.90	0	2.7728	0	34.4819	0	27.500	0	1324.520	0	110.5	4	33.9	4	-1E+10	1	0.0582	4	0.000141	0	-1E+10	1	-1E+10	1	-1E+10	1
4902624	6	C	08/20/2024	01:32	-128.600	46.966	0	1361.10	0	2.7333	0	34.4874	0	27.508	0	1345.409	0	78.0	4	23.9	4	-1E+10	1	0.0512	4	0.000163	0	-1E+10	1	-1E+10	1	-1E+10	1
4902624	6	C	08/20/2024	01:32	-128.600	46.966	0	1375.20	0	2.7070	0	34.4910	0	27.513	0	1359.301	0	-1e10	1	-1e10	1	-1E+10	1	-1e10	1	-1e10	1	-1E+10	1	-1E+10	1	-1E+10	1
4902624	6	C	08/20/2024	01:32	-128.600	46.966	0	1382.80	0	2.6919	0	34.4928	0	27.516	0	1366.788	0	73.9	4	22.7	4	-1E+10	1	0.0584	4	0.000163	0	-1E+10	1	-1E+10	1	-1E+10	1
4902624	6	C	08/20/2024	01:32	-128.600	46.966	0	1405.00	0	2.6476	0	34.4981	0	27.524	0	1388.658	0	118.6	4	36.3	4	-1E+10	1	0.0586	4	0.000150	0	-1E+10	1	-1E+10	1	-1E+10	1
4902624	6	C	08/20/2024	01:32	-128.600	46.966	0	1422.80	0	2.6122	0	34.5024	0	27.531	0	1406.192	0	141.0	4	43.1	4	-1E+10	1	0.0655	4	0.000128	0	-1E+10	1	-1E+10	1	-1E+10	1
4902624	6	C	08/20/2024	01:32	-128.600	46.966	0	1425.40	0	2.6070	0	34.5030	0	27.532	0	1408.753	0	-1e10	1	-1e10	1	-1E+10	1	-1e10	1	-1e10	1	-1E+10	1	-1E+10	1	-1E+10	1
4902624	6	C	08/20/2024	01:32	-128.600	46.966	0	1438.70	0	2.5875	0	34.5054	0	27.535	0	1421.853	0	152.3	4	46.6	4	-1E+10	1	0.0584	4	0.000150	0	-1E+10	1	-1E+10	1	-1E+10	1
4902624	6	C	08/20/2024	01:32	-128.600	46.966	0	1455.50	0	2.5628	0	34.5085	0	27.540	0	1438.399	0	158.9	4	48.6	4	-1E+10	1	0.0584	4	0.000139	0	-1E+10	1	-1E+10	1	-1E+10	1
4902624	6	C	08/20/2024	01:32	-128.600	46.966	0	1472.60	0	2.5376	0	34.5117	0	27.545	0	1455.239	0	161.2	4	49.2	4	-1E+10	1	0.0584	4	0.000196	0	-1E+10	1	-1E+10	1	-1E+10	1
4902624	6	C	08/20/2024	01:32	-128.600	46.966	0	1474.40	0	2.5350	0	34.5120	0	27.545	0	1457.011	0	-1e10	1	-1e10	1	-1E+10	1	-1e10	1	-1e10	1	-1E+10	1	-1E+10	1	-1E+10	1
4902624	6	C	08/20/2024	01:32	-128.600	46.966	0	1490.90	0	2.5065	0	34.5159	0	27.551	0	1473.259	0	165.1	4	50.4	4	-1E+10	1	0.0584	4	0.000126	0	-1E+10	1	-1E+10	1	-1E+10	1
4902624	6	C	08/20/2024	01:32	-128.600	46.966	0	1510.10	0	2.4734	0	34.5205	0	27.557	0	1492.164	0	167.8	4	51.2	4	-1E+10	1	0.0584	4	0.000126	0	-1E+10	1	-1E+10	1	-1E+10	1
4902624	6	C	08/20/2024	01:32	-128.600	46.966	0	1524.80	0	2.4480	0	34.5240	0	27.562	0	1506.638	0	-1e10	1	-1e10	1	-1E+10	1	-1e10	1	-1e10	1	-1E+10	1	-1E+10	1	-1E+10	1
4902624	6	C	08/20/2024	01:32	-128.600	46.966	0	1530.20	0	2.4403	0	34.5250	0	27.564	0	1511.954	0	171.0	4	52.1	4	-1E+10	1	0.0583	4	0.000126	0	-1E+10	1	-1E+10	1	-1E+10	1
4902624	6	C	08/20/2024	01:32	-128.600	46.966	0	1551.20	0	2.4104	0	34.5287	0	27.569	0	1532.627	0	171.8	4	52.3	4	-1E+10	1	0.0511	4	0.000148	0	-1E+10	1	-1E+10	1	-1E+10	1
4902624	6	C	08/20/2024	01:32	-128.600	46.966	0	1572.80	0	2.3797	0	34.5325	0	27.575	0	1553.890	0	166.9	4	50.8	4	-1E+10	1	0.0511	4	0.000137	0	-1E+10	1	-1E+10	1	-1E+10	1
4902624	6	C	08/20/2024	01:32	-128.600	46.966	0	1575.40	0	2.3760	0	34.5330	0	27.576	0	1556.449	0	-1e10	1	-1e10	1	-1E+10	1	-1e10	1	-1e10	1	-1E+10	1	-1E+10	1	-1E+10	1
4902624	6	C	08/20/2024	01:32	-128.600	46.966	0	1595.50	0	2.3482	0	34.5366	0	27.581	0	1576.232	0	171.4	4	52.1	4	-1E+10	1	0.0511	4	0.000159	0	-1E+10	1	-1E+10	1	-1E+10	1
4902624	6	C	08/20/2024	01:32	-128.600	46.966	0	1618.70	0	2.3160	0	34.5408	0	27.587	0	1599.064	0	176.0	4	53.5	4	-1E+10	1	0.0512	4	0.000136	0	-1E+10	1	-1E+10	1	-1E+10	1
4902624	6	C	08/20/2024	01:32	-128.600	46.966	0	1625.20	0	2.3070	0	34.5420	0	27.589	0	1605.461	0	-1e10	1	-1e10	1	-1E+10	1	-1e10	1	-1e10	1	-1E+10	1	-1E+10	1	-1E+10	1
4902624	6	C	08/20/2024	01:32	-128.600	46.966	0	1642.50	0	2.2870	0	34.5444	0	27.593	0	1622.485	0	175.2	4	53.2	4	-1E+10	1	0.0582	4	0.000135	0	-1E+10	1	-1E+10	1	-1E+10	1
4902624	6	C	08/20/2024	01:32	-128.600	46.966	0	1666.00	0	2.2599	0	34.5477	0	27.598	0	1645.607	0	167.6	4	50.9	4	-1E+10	1	0.0511	4	0.000123	0	-1E+10	1	-1E+10	1	-1E+10	1
4902624	6	C	08/20/2024	01:32	-128.600	46.966	0	1675.40	0	2.2490	0	34.5490	0	27.600	0	1654.855	0	-1e10	1	-1e10	1	-1E+10	1	-1e10	1	-1e10	1	-1E+10	1	-1E+10	1	-1E+10	1
4902624	6	C	08/20/2024	01:32	-128.600	46.966	0	1682.70	0	2.2397	0	34.5503	0	27.601	0	1662.037	0	161.8	4	49.1	4	-1E+10	1	0.0511	4	0.000135	0	-1E+10	1	-1E+10	1	-1E+10	1
4902624	6	C	08/20/2024	01:32	-128.600	46.966	0	1700.10	0	2.2174	0	34.5535	0	27.606	0	1679.155	0	159.3	4	48.3	4	-1E+10	1	0.0511	4	0.000135	0	-1E+10	1	-1E+10	1	-1E+10	1
4902624	6	C	08/20/2024	01:32	-128.600	46.966	0	1718.20	0	2.1943	0	34.5568	0	27.610	0	1696.959	0	157.3	4	47.7	4	-1E+10	1	0.0513	4	0.000146	0	-1E+10	1	-1E+10	1	-1E+10	1
4902624	6	C	08/20/2024	01:32	-128.600	46.966	0	1724.70	0	2.1860	0	34.5580	0	27.612	0	1703.353	0	-1e10	1	-1e10	1	-1E+10	1	-1e10	1	-1e10	1	-1E+10	1	-1E+10	1	-1E+10	1
4902624	6	C	08/20/2024	01:32	-128.600	46.966	0	1737.30	0	2.1724	0	34.5600	0	27.615	0	1715.746	0	147.0	4	44.5	4	-1E+10	1	0.0584	4	0.000146	0	-1E+10	1	-1E+10	1	-1E+10	1
4902624	6	C	08/20/2024	01:32	-128.600	46.966	0	1757.50	0	2.1507	0	34.5632	0	27.619	0	1735.613	0	110.6	4	33.5	4	-1E+10	1	0.0580	4	0.000167	0	-1E+10	1	-1E+10	1	-1E+10	1
4902624	6	C	08/20/2024	01:32	-128.600	46.966	0	1774.90	0	2.1320	0	34.5660	0	27.623	0	1752.724	0	-1e10	1	-1e10	1	-1E+10	1	-1e10	1	-1e10	1	-1E+10	1	-1E+10	1	-1E+10	1
4902624	6	C	08/20/2024	01:32	-128.600	46.966	0	1778.50	0	2.1285	0	34.5666	0	27.624	0	1756.264	0	113.4	4	34.3	4	-1E+10	1	0.0368	4	0.000121	0	-1E+10	1	-1E+10	1	-1E+10	1
4902624	6	C	08/20/2024	01:32	-128.600	46.966	0	1799.90	0	2.1075	0	34.5700	0	27.628	0	1777.307	0	111.5	4	33.7	4	-1E+10	1	0.0511	4	0.000132	0	-1E+10	1	-1E+10	1	-1E+10	1
4902624	6	C	08/20/2024	01:32	-128.600	46.966	0	1821.80	0	2.0860	0	34.5735	0	27.633	0	1798.840	0	108.0	4	32.6	4	-1E+10	1	0.0509	4	0.000132	0	-1E+10	1	-1E+10	1	-1E+10	1
4902624	6	C	08/20/2024	01:32	-128.600	46.966	0	1824.90	0	2.0830	0	34.5740	0	27.634	0	1801.888	0	-1e10	1	-1e10	1	-1E+10	1	-1e10	1	-1e10	1	-1E+10	1	-1E+10	1	-1E+10	1
4902624	6	C	08/20/2024	01:32	-128.600	46.966	0	1843.60	0	2.0667	0	34.5766	0	27.637	0	1820.272	0	111.9	4	33.8	4	-1E+10	1	0.0441	4	0.000120	0	-1E+10	1	-1E+10	1	-1E+10	1
4902624	6	C	08/20/2024	01:32	-128.600	46.966	0	1866.30	0	2.0470	0	34.5797	0	27.641	0	1842.586	0	118.9	4	35.9	4	-1E+10	1	0.0581	4	0.000108	0	-1E+10	1	-1E+10	1	-1E+10	1
4902624	6	C	08/20/2024	01:32	-128.600	46.966	0	1875.50	0	2.0390	0	34.5810	0	27.643	0	1851.629	0	-1e10	1	-1e10	1	-1E+10	1	-1e10	1	-1e10	1	-1E+10	1	-1E+10	1	-1E+10	1
4902624	6	C	08/20/2024	01:32	-128.600	46.966	0	1887.40	0	2.0298	0	34.5825	0	27.645	0	1863.326	0	128.8	4	38.8	4	-1E+10	1	0.0441	4	0.000119	0	-1E+10	1	-1E+10	1	-1E+10	1
4902624	6	C	08/20/2024	01:32	-128.600	46.966	0	1903.30	0	2.0176	0	34.5844	0	27.647	0	1878.953	0	124.9	4	37.7	4	-1E+10	1	0.0584	4	0.000130	0	-1E+10	1	-1E+10	1	-1E+10	1
4902624	6	C	08/20/2024	01:32	-128.600	46.966	0	1920.10	0	2.0046	0	34.5864	0	27.650	0	1895.463	0	118.4	4	35.7	4	-1E+10	1	0.0584	4	0.000107	0	-1E+10	1	-1E+10	1	-1E+10	1
4902624	6	C	08/20/2024	01:32	-128.600	46.966	0	1924.80	0	2.0010	0	34.5870	0	27.651	0	1900.082	0	-1e10	1	-1e10	1	-1E+10	1	-1e10	1	-1e10	1	-1E+10	1	-1E+10	1	-1E+10	1
4902624	6	C	08/20/2024	01:32	-128.600	46.966	0	1937.70	0	1.9903	0	34.5887	0	27.653	0	1912.758	0	128.3	4	38.7	4	-1E+10	1	0.0582	4	0.000130	0	-1E+10	1	-1E+10	1	-1E+10	1
4902624	6	C	08/20/2024	01:32	-128.600	46.966	0	1956.00	0	1.9751	0	34.5911	0	27.656	0	1930.740	0	131.9	4	39.7	4	-1E+10	1	0.0511	4	0.000130	0	-1E+10	1	-1E+10	1	-1E+10	1
4902624	6	C	08/20/2024	01:32	-128.600	46.966	0	1970.60	0	1.9630	0	34.5930	0	27.659	0	1945.085	0	-1e10	1	-1e10	1	-1E+10	1	-1e10	1	-1e10	1	-1E+10	1	-1E+10	1	-1E+10	1
4902624	6	C	08/20/2024	01:32	-128.600	46.966	0	1974.90	0	-1e10	1	-1e10	1	-1e10	1	1949.309	0	139.3	4	-1e10	4	-1E+10	1	0.0507	4	0.000155	0	-1E+10	1	-1E+10	1	-1E+10	1
4902624	6	C	08/20/2024	01:32	-128.600	46.966	0	1990.70	0	-1e10	1	-1e10	1	-1e10	1	1964.832	0	133.0	4	-1e10	4	-1E+10	1	0.0365	4	0.000155	0	-1E+10	1	-1E+10	1	-1E+10	1
4902624	6	C	08/20/2024	01:32	-128.600	46.966	0																										
4902624	7	C	08/30/2024	20:36	-128.557	47.138	0	0.00	0	17.9172	0	32.2775	0	23.209	0	0.000	0	-1e10	1	-1e10	1	-1E+10	1	-0.1095	8	-0.000033	8	-1E+10	1	-1E+10	1	-1E+10	1
4902624	7	C	08/30/2024	20:36	-128.557	47.138	0	0.10	0	17.9163	0	32.2780	0	23.210	0	0.099	0	-1e10	1	-1e10	1	-1E+10	1	-0.0511	4	0.000554	0	-1E+10	1	-1E+10	1	-1E+10	1
4902624	7	C	08/30/2024	20:36	-128.557	47.138	0	0.30	0	17.9147	0	32.2790	0	23.211	0	0.298	0	227.3	4	95.2	4	-1E+10	1	0.1460	4	0.000566	0	-1E+10	1	-1E+10	1	-1E+10	1
4902624	7	C	08/30/2024	20:36	-128.557	47.138	0	0.40	0	17.9138	0	32.2795	0	23.212	0	0.397	0	227.3	4	95.2	4	-1E+10	1	0.1606	4	0.000296	0	-1E+10	1	-1E+10	1	-1E+10	1
4902624	7	C	08/30/2024	20:36	-128.557	47.138	0	0.50	0	17.9130	0	32.2800	0	23.212	0	0.496	0	227.4	4	95.3	4	-1E+10	1	0.1022	4	0.000601	0	-1E+10	1	-1E+10	1	-1E+10	1
4902624	7	C	08/30/2024	20:36	-128.557	47.138	0	1.30	0	17.9034	0	32.2896	0	23.222	0	1.289	0	227.4	4	95.2	4	-1E+10	1	0.1168	4	0.000683	0	-1E+10	1	-1E+10	1	-1E+10	1
4902624	7	C	08/30/2024	20:36	-128.557	47.138	0	1.40	0	17.9022	0	32.2908	0	23.223	0	1.388	0	-1e10	1	-1e10	1	-1E+10	1	0.1387	4	0.000601	0	-1E+10	1	-1E+10	1	-1E+10	1
4902624	7	C	08/30/2024	20:36	-128.557	47.138	0	1.50	0	17.9010	0	32.2920	0	23.224	0	1.488	0	-1e10	1	-1e10	1	-1E+10	1	0.1022	4	0.000613	0	-1E+10	1	-1E+10	1	-1E+10	1
4902624	7	C	08/30/2024	20:36	-128.557	47.138	0	1.70	0	17.9010	0	32.2926	0	23.225	0	1.686	0	-1e10	1	-1e10	1	-1E+10	1	0.0146	4	0.000660	0	-1E+10	1	-1E+10	1	-1E+10	1
4902624	7	C	08/30/2024	20:36	-128.557	47.138	0	1.80	0	17.9010	0	32.2929	0	23.225	0	1.785	0	-1e10	1	-1e10	1	-1E+10	1	0.1606	4	0.000566	0	-1E+10	1	-1E+10	1	-1E+10	1
4902624	7	C	08/30/2024	20:36	-128.557	47.138	0	1.90	0	17.9010	0	32.2932	0	23.225	0	1.884	0	-1e10	1	-1e10	1	-1E+10	1	0.0949	4	0.000554	0	-1E+10	1	-1E+10	1	-1E+10	1
4902624	7	C	08/30/2024	20:36	-128.557	47.138	0	2.00	0	17.9010	0	32.2935	0	23.225	0	1.983	0	-1e10	1	-1e10	1	-1E+10	1	0.1095	4	0.000601	0	-1E+10	1	-1E+10	1	-1E+10	1
4902624	7	C	08/30/2024	20:36	-128.557	47.138	0	2.10	0	17.9010	0	32.2938	0	23.226	0	2.083	0	-1e10	1	-1e10	1	-1E+10	1	0.0876	4	0.000660	0	-1E+10	1	-1E+10	1	-1E+10	1
4902624	7	C	08/30/2024	20:36	-128.557	47.138	0	2.40	0	17.9010	0	32.2947	0	23.226	0	2.380	0	-1e10	1	-1e10	1	-1E+10	1	0.0949	4	0.000742	0	-1E+10	1	-1E+10	1	-1E+10	1
4902624	7	C	08/30/2024	20:36	-128.557	47.138	0	2.50	0	17.9010	0	32.2950	0	23.227	0	2.479	0	227.1	4	95.1	4	-1E+10	1	0.0438	4	0.000636	0	-1E+10	1	-1E+10	1	-1E+10	1
4902624	7	C	08/30/2024	20:36	-128.557	47.138	0	2.60	0	17.9009	0	32.2950	0	23.227	0	2.578	0	-1e10	1	-1e10	1	-1E+10	1	0.0657	4	0.000648	0	-1E+10	1	-1E+10	1	-1E+10	1
4902624	7	C	08/30/2024	20:36	-128.557	47.138	0	2.70	0	17.9008	0	32.2950	0	23.227	0	2.678	0	-1e10	1	-1e10	1	-1E+10	1	0.0949	4	0.000566	0	-1E+10	1	-1E+10	1	-1E+10	1
4902624	7	C	08/30/2024	20:36	-128.557	47.138	0	2.80	0	17.9007	0	32.2950	0	23.227	0	2.777	0	-1e10	1	-1e10	1	-1E+10	1	0.0876	4	0.000554	0	-1E+10	1	-1E+10	1	-1E+10	1
4902624	7	C	08/30/2024	20:36	-128.557	47.138	0	3.00	0	17.9005	0	32.2950	0	23.227	0	2.975	0	227.3	4	95.2	4	-1E+10	1	0.1022	4	0.000730	0	-1E+10	1	-1E+10	1	-1E+10	1
4902624	7	C	08/30/2024	20:36	-128.557	47.138	0	3.10	0	17.9004	0	32.2950	0	23.227	0	3.074	0	-1e10	1	-1e10	1	-1E+10	1	0.0949	4	0.000613	0	-1E+10	1	-1E+10	1	-1E+10	1
4902624	7	C	08/30/2024	20:36	-128.557	47.138	0	3.30	0	17.9002	0	32.2950	0	23.227	0	3.273	0	227.2	4	95.2	4	-1E+10	1	0.0292	4	0.000859	0	-1E+10	1	-1E+10	1	-1E+10	1
4902624	7	C	08/30/2024	20:36	-128.557	47.138	0	3.50	0	17.9000	0	32.2950	0	23.227	0	3.471	0	-1e10	1	-1e10	1	-1E+10	1	-1e10	1	-1e10	1	-1E+10	1	-1E+10	1	-1E+10	1
4902624	7	C	08/30/2024	20:36	-128.557	47.138	0	3.80	0	17.9000	0	32.2947	0	23.227	0	3.768	0	-1e10	1	-1e10	1	-1E+10	1	0.1241	4	0.000554	0	-1E+10	1	-1E+10	1	-1E+10	1
4902624	7	C	08/30/2024	20:36	-128.557	47.138	0	4.20	0	17.9000	0	32.2942	0	23.226	0	4.165	0	227.4	4	95.2	4	-1E+10	1	0.0292	4	0.000660	0	-1E+10	1	-1E+10	1	-1E+10	1
4902624	7	C	08/30/2024	20:36	-128.557	47.138	0	4.40	0	17.9000	0	32.2940	0	23.226	0	4.363	0	-1e10	1	-1e10	1	-1E+10	1	-1e10	1	-1e10	1	-1E+10	1	-1E+10	1	-1E+10	1
4902624	7	C	08/30/2024	20:36	-128.557	47.138	0	4.50	0	17.8999	0	32.2941	0	23.226	0	4.463	0	-1e10	1	-1e10	1	-1E+10	1	0.1460	4	0.000953	0	-1E+10	1	-1E+10	1	-1E+10	1
4902624	7	C	08/30/2024	20:36	-128.557	47.138	0	4.70	0	17.8997	0	32.2943	0	23.226	0	4.661	0	-1e10	1	-1e10	1	-1E+10	1	0.1095	4	0.001152	0	-1E+10	1	-1E+10	1	-1E+10	1
4902624	7	C	08/30/2024	20:36	-128.557	47.138	0	4.90	0	17.8995	0	32.2945	0	23.227	0	4.859	0	-1e10	1	-1e10	1	-1E+10	1	0.1825	4	0.000836	0	-1E+10	1	-1E+10	1	-1E+10	1
4902624	7	C	08/30/2024	20:36	-128.557	47.138	0	5.00	0	17.8995	0	32.2945	0	23.227	0	4.958	0	227.2	4	95.2	4	-1E+10	1	0.0949	4	0.000671	0	-1E+10	1	-1E+10	1	-1E+10	1
4902624	7	C	08/30/2024	20:36	-128.557	47.138	0	5.20	0	17.8993	0	32.2947	0	23.227	0	5.157	0	-1e10	1	-1e10	1	-1E+10	1	0.0511	4	0.000695	0	-1E+10	1	-1E+10	1	-1E+10	1
4902624	7	C	08/30/2024	20:36	-128.557	47.138	0	5.40	0	17.8991	0	32.2949	0	23.227	0	5.355	0	-1e10	1	-1e10	1	-1E+10	1	0.0730	4	0.000824	0	-1E+10	1	-1E+10	1	-1E+10	1
4902624	7	C	08/30/2024	20:36	-128.557	47.138	0	5.50	0	17.8990	0	32.2950	0	23.227	0	5.454	0	-1e10	1	-1e10	1	-1E+10	1	-1e10	1	-1e10	1	-1E+10	1	-1E+10	1	-1E+10	1
4902624	7	C	08/30/2024	20:36	-128.557	47.138	0	5.60	0	17.8986	0	32.2950	0	23.227	0	5.553	0	-1e10	1	-1e10	1	-1E+10	1	0.0730	4	0.000613	0	-1E+10	1	-1E+10	1	-1E+10	1
4902624	7	C	08/30/2024	20:36	-128.557	47.138	0	6.00	0	17.8970	0	32.2950	0	23.228	0	5.950	0	227.5	4	95.3	4	-1E+10	1	0.0876	4	0.000624	0	-1E+10	1	-1E+10	1	-1E+10	1
4902624	7	C	08/30/2024	20:36	-128.557	47.138	0	6.20	0	17.8962	0	32.2950	0	23.228	0	6.148	0	-1e10	1	-1e10	1	-1E+10	1	0.1241	4	0.000695	0	-1E+10	1	-1E+10	1	-1E+10	1
4902624	7	C	08/30/2024	20:36	-128.557	47.138	0	6.40	0	17.8954	0	32.2950	0	23.228	0	6.347	0	-1e10	1	-1e10	1	-1E+10	1	0.1022	4	0.000624	0	-1E+10	1	-1E+10	1	-1E+10	1
4902624	7	C	08/30/2024	20:36	-128.557	47.138	0	6.50	0	17.8950	0	32.2950	0	23.228	0	6.446	0	-1e10	1	-1e10	1	-1E+10	1	-1e10	1	-1e10	1	-1E+10	1	-1E+10	1	-1E+10	1
4902624	7	C	08/30/2024	20:36	-128.557	47.138	0	6.60	0	17.8952	0	32.2949	0	23.228	0	6.545	0	-1e10	1	-1e10	1	-1E+10	1	0.1168	4	0.000577	0	-1E+10	1	-1E+10	1	-1E+10	1
4902624	7	C	08/30/2024	20:36	-128.557	47.138	0	6.80	0	17.8956	0	32.2947	0	23.228	0	6.743	0	-1e10	1	-1e10	1	-1E+10	1	0.1022	4	0.000683	0	-1E+10	1	-1E+10	1	-1E+10	1
4902624	7	C	08/30/2024	20:36	-128.557	47.138	0	7.00	0	17.8960	0	32.2945	0	23.228	0	6.942	0	227.4	4	95.3	4	-1E+10	1	0.1022	4	0.000636	0	-1E+10	1	-1E+10	1	-1E+10	1
4902624	7	C	08/30/2024	20:36	-128.557	47.138	0	7.30	0	17.8966	0	32.2942	0	23.227	0	7.239	0	-1e10	1	-1e10	1	-1E+10	1	0.1022	4	0.000624	0	-1E+10	1	-1E+10	1	-1E+10	1
4902624	7	C	08/30/2024	20:36	-128.557	47.138	0	7.50	0	17.8970	0	32.2940	0	23.227	0	7.438	0	-1e10	1	-1e10	1	-1E+10	1	0.0949	4	0.000660	0	-1E+10	1	-1E+10	1	-1E+10	1
4902624	7	C	08/30/2024	20:36	-128.557	47.138	0	7.90	0	17.8958	0	32.2944	0	23.228	0	7.834	0	-1e10	1	-1e10	1	-1E+10	1	0.1168	4	0.000660	0	-1E+10	1	-1E+10	1	-1E+10	1
4902624	7	C	08/30/2024	20:36	-128.557	47.138	0	8.10	0	17.8952	0	32.2946	0	23.228	0	8.033	0	227.6	4	95.3	4	-1E+10	1	0.1168	4	0.000742	0	-1E+10	1	-1E+10	1	-1E+10	1
4902624	7	C	08/30/2024	20:36	-128.557	47.138	0	8.30	0	17.8946	0	32.2948	0	23.228	0	8.231	0	-1e10	1	-1e10	1	-1E+10	1	0.1168	4	0.000636	0	-1E+10	1	-1E+10	1	-1E+10	1
4902624	7	C	08/30/2024	20:36	-128.557	47.138	0	8.50	0	17.8940	0	32.2950	0	23.229	0	8.429	0	-1e10	1	-1e10	1	-1E+10	1	-1e10	1	-1e10	1	-1E+10	1	-1E+10	1	-1E+10	1
4902624	7	C	08/30/2024	20:36	-128.557	47.138	0	8.60	0	17.8936	0	32.2950	0	23.229	0	8.528	0	-1e10	1	-1e10	1	-1E+10	1	0.1168	4	0.000601	0	-1E+10	1	-1E+10	1	-1E+10	1
4902624	7	C	08/30/2024	20:36	-128.557	47.138	0	8.80	0	17.8928	0	32.2950	0	23.229	0	8.727	0	-1e10	1	-1e10	1	-1E+10	1	0.1095	4	0.000671	0	-1E+10	1	-1E+10	1	-1E+10	1
4902624	7	C	08/30/2024	20:36	-128.557	47.138	0	9.00	0	17.8920	0	32.2950	0	23.229	0	8.925	0	-1e10	1	-1e10	1	-1E+10	1	0.1095	4	0.000542	0	-1E+10	1	-1E+10	1	-1E+10	1
4902624	7	C	08/30/2024	20:36	-128.557	47.138	0	9.20	0	17.8912	0	32.2950	0	23.229	0	9.123	0	228.0	4	95.5	4	-1E+10	1	0.1168	4	0.000577	0	-1E+10	1	-1E+10	1	-1E+10	1
4902624	7	C	08/30/2024	20:36	-128.557	47.138	0	9.50	0	17.8900	0	32.2950	0	23.230	0	9.421	0	-1e10	1	-1e10	1	-1E+10	1	-1e10	1	-1e10	1	-1E+10	1	-1E+10	1	-1E+10	1
4902624	7	C	08/30/2024	20:36	-128.557	47.138	0	9.70	0	17.8881	0	32.2954	0	23.230	0	9.619	0	-1e10	1	-1e10	1	-1E+10	1	0.1241	4	0.000683	0	-1E+10	1	-1E+10	1	-1E+10	1
4902624	7	C	08/30/2024	20:36	-128.557	47.138	0	9.90	0	17.8863	0	32.2958	0	23.231	0	9.817	0	-1e10	1	-1e10	1	-1E+10	1	0.1241	4	0.000765	0	-1E+10	1	-1E+10	1	-1E+10	1
4902624	7	C	08/30/2024	20:36	-128.557	47.138	0	10.30	0	17.8825	0	32.2966	0	23.233	0	10.214	0	228.1	4	95.5	4	-1E+10	1	0.1241	4	0.000730	0	-1E+10	1	-1E+10	1	-1E+10	1
4902624	7	C	08/30/2024	20:36	-128.557	47.138	0	11.00	0	17.8760	0	32.2980	0	23.235	0	10.908	0	-1e10	1	-1e10	1	-1E+10	1	-1e10	1	-1e10	1	-1E+10	1	-1E+10	1	-1E+10	1
4902624	7	C	08/30/2024	20:36	-128.557	47.138	0	11.30	0	17.8745	0	32.2988	0	23.236	0	11.206	0	228.5	4	95.7	4	-1E+10	1	0.1353	4	0.000667	0	-1E+10	1	-1E+10	1	-1E+10	1
4902624	7	C	08/30/2024	20:36	-128.557	47.138	0	12.50	0	17.8685	0	32.3018	0	23.240	0	12.396	0	228.9	4	95.8	4	-1E+10	1	0.1327	4	0.000600	0	-1E+10	1	-1E+10	1	-1E+10	1
4902624	7	C	08/30/2024	20:36	-128.557	47.138	0	13.00	0	17.8660	0	32.3030	0	23.242	0	12.892	0	-1e10	1	-1e10	1	-1E+10	1	-1e10	1	-1e10	1	-1E+10	1	-1E+10	1	-1E+10	1
4902624	7	C	08/30/2024	20:36	-128.557	47.138	0	13.50	0	17.8647	0	32.3041	0	23.243	0	13.387	0	229.3	4	96.0	4	-1E+10	1	0.1460	4	0.000605	0	-1E+10	1	-1E+10	1	-1E+10	1
4902624	7	C	08/30/2024	20:36	-128.557	47.138	0	14.60	0	17.8618	0	32.3064	0	23.245	0	14.478	0	230.0	4	96.3	4	-1E+10	1	0.1569	4	0.000624	0	-1E+10	1	-1E+10	1	-1E+10	1
4902624	7	C	08/30/2024	20:36	-128.557	47.138	0	14.90	0	17.8610	0	32.3070	0	23.246	0	14.776	0	-1e10	1	-1e10	1	-1E+10	1	-1e10	1	-1e10	1	-1E+10	1	-1E+10	1	-1E+10	1
4902624	7	C	08/30/2024	20:36	-128.557	47.138	0	15.80	0	17.8596	0	32.3092	0	23.248	0	15.668	0	230.6	4	96.5	4	-1E+10	1	0.1545	4	0.000670	0	-1E+10	1	-1E+10	1	-1E+10	1
4902624	7	C	08/30/2024	20:36	-128.557	47.138	0	16.90	0	17.8580	0	32.3120	0	23.251	0	16.759	0	231.3	4	96.8	4	-1E+10	1	0.1523	4	0.000701	0	-1E+10	1	-1E+10	1	-1E+10	1
4902624	7	C	08/30/2024	20:36	-128.557	47.138	0	18.10	0	17.8574	0	32.3137	0	23.252	0	17.949	0	232.4	4	97.3	4	-1E+10	1	0.1669	4	0.000653	0	-1E+10	1	-1E+10	1	-1E+10	1
4902624	7	C	08/30/2024	20:36	-128.557	47.138	0	19.00	0	17.8570	0	32.3150	0	23.253	0	18.841	0	-1e10	1	-1e10	1	-1E+10	1	-1e10	1	-1e10	1	-1E+10	1	-1E+10	1	-1E+10	1
4902624	7	C	08/30/2024	20:36	-128.557	47.138	0	19.30	0	17.8567	0	32.3153	0	23.253	0	19.139	0	233.5	4	97.7	4	-1E+10	1	0.1606	4	0.000613	0	-1E+10	1	-1E+10	1	-1E+10	1
4902624	7	C	08/30/2024	20:36	-128.557	47.138	0	20.40	0	17.8556	0	32.3164	0	23.255	0	20.229	0	234.7	4	98.3	4	-1E+10	1	0.1752	4	0.000671	0	-1E+10	1	-1E+10	1	-1E+10	1
4902624	7	C	08/30/2024	20:36	-128.557	47.138	0	21.00	0	17.8550	0	32.3170	0	23.255	0	20.824	0	-1e10	1	-1e10	1	-1E+10	1	-1e10	1	-1e10	1	-1E+10	1	-1E+10	1	-1E+10	1
4902624	7	C	08/30/2024	20:36	-128.557	47.138	0	21.70	0	17.8519	0	32.3181	0	23.257	0	21.518	0	236.6	4	99.0	4	-1E+10	1	0.1752	4	0.000648	0	-1E+10	1	-1E+10	1	-1E+10	1
4902624	7	C	08/30/2024	20:36	-128.557	47.138	0	22.60	0	17.8478	0	32.3194	0	23.259	0	22.411	0	238.0	4	99.6	4	-1E+10	1	0.1807	4	0.000736	0	-1E+10	1	-1E+10	1	-1E+10	1
4902624	7	C	08/30/2024	20:36	-128.557	47.138	0	23.00	0	17.8460	0	32.3200	0	23.260	0	22.808	0	-1e10	1	-1e10	1	-1E+10	1	-1e10	1	-1e10	1	-1E+10	1	-1E+10	1	-1E+10	1
4902624	7	C	08/30/2024	20:36	-128.557	47.138	0	23.40	0	17.8422	0	32.3188	0	23.260	0	23.204	0	239.9	4	100.4	4	-1E+10	1	0.2099	4	0.000860	0	-1E+10	1	-1E+10	1	-1E+10	1
4902624	7	C	08/30/2024	20:36	-128.557	47.138	0	24.10	0	17.8356	0	32.3167	0	23.260	0	23.898	0	241.7	4	101.1	4	-1E+10	1	0.2305	4	0.000810	0	-1E+10	1	-1E+10	1	-1E+10	1
4902624	7	C	08/30/2024	20:36	-128.557	47.138	0	24.60	0	17.8308	0	32.3152	0	23.260	0	24.394	0	243.5	4	101.9	4	-1E+10	1	0.2312	4	0.000710	0	-1E+10	1	-1E+10	1	-1E+10	1
4902624	7	C	08/30/2024	20:36	-128.557	47.138	0	25.00	0	17.8270	0	32.3140	0	23.260	0	24.791	0	246.3	4	103.1	4	-1E+10	1	0.2263	4	0.000671	0	-1E+10	1	-1E+10	1	-1E+10	1
4902624	7	C	08/30/2024	20:36	-128.557	47.138	0	25.40	0	17.7314	0	32.3132	0	23.282	0	25.187	0	249.0	4	104.0	4	-1E+10	1	0.1971	4	0.000659	0	-1E+10	1	-1E+10	1	-1E+10	1
4902624	7	C	08/30/2024	20:36	-128.557	47.138	0	25.80	0	17.6358	0	32.3125	0	23.305	0	25.584	0	253.9	4	105.8	4	-1E+10	1	0.2409	4	0.000695	0	-1E+10	1	-1E+10	1	-1E+10	1
4902624	7	C	08/30/2024	20:36	-128.557	47.138	0	26.30	0	17.5162	0	32.3115	0	23.332	0	26.080	0	258.0	4	107.3	4	-1E+10	1	0.2618	4	0.000979	0	-1E+10	1	-1E+10	1	-1E+10	1
4902624	7	C	08/30/2024	20:36	-128.557	47.138	0	27.00	0	17.3489	0	32.3102	0	23.371	0	26.774	0	266.0	4	110.3	4	-1E+10	1	0.5986	4	0.001194	0	-1E+10	1	-1E+10	1	-1E+10	1
4902624	7	C	08/30/2024	20:36	-128.557	47.138	0	27.10	0	17.3250	0	32.3100	0	23.376	0	26.873	0	-1e10	1	-1e10	1	-1E+10	1	-1e10	1	-1e10	1	-1E+10	1	-1E+10	1	-1E+10	1
4902624	7	C	08/30/2024	20:36	-128.557	47.138	0	28.00	0	16.2436	0	32.3455	0	23.654	0	27.765	0	272.6	4	110.7	4	-1E+10	1	0.9052	4	0.001541	0	-1E+10	1	-1E+10	1	-1E+10	1
4902624	7	C	08/30/2024	20:36	-128.557	47.138	0	29.00	0	15.0420	0	32.3850	0	23.949	0	28.757	0	273.5	4	108.5	4	-1E+10	1	0.9984	4	0.001650	0	-1E+10	1	-1E+10	1	-1E+10	1
4902624	7	C	08/30/2024	20:36	-128.557	47.138	0	30.00	0	14.6309	0	32.3692	0	24.025	0	29.748	0	275.8	4	108.5	4	-1E+10	1	1.0658	4	0.001631	0	-1E+10	1	-1E+10	1	-1E+10	1
4902624	7	C	08/30/2024	20:36	-128.557	47.138	0	30.90	0	14.2610	0	32.3550	0	24.092	0	30.641	0	-1e10	1	-1e10	1	-1E+10	1	-1e10	1	-1e10	1	-1E+10	1	-1E+10	1	-1E+10	1
4902624	7	C	08/30/2024	20:36	-128.557	47.138	0	31.00	0	14.2490	0	32.3550	0	24.094	0	30.740	0	275.5	4	107.6	4	-1E+10	1	1.1704	4	0.001668	0	-1E+10	1	-1E+10	1	-1E+10	1
4902624	7	C	08/30/2024	20:36	-128.557	47.138	0	31.90	0	14.1415	0	32.3555	0	24.117	0	31.632	0	275.5	4	107.3	4	-1E+10	1	1.2734	4	0.001948	0	-1E+10	1	-1E+10	1	-1E+10	1
4902624	7	C	08/30/2024	20:36	-128.557	47.138	0	32.70	0	14.0458	0	32.3558	0	24.137	0	32.426	0	275.3	4	107.0	4	-1E+10	1	1.4746	4	0.003252	0	-1E+10	1	-1E+10	1	-1E+10	1
4902624	7	C	08/30/2024	20:36	-128.557	47.138	0	33.10	0	13.9980	0	32.3560	0	24.147	0	32.822	0	-1e10	1	-1e10	1	-1E+10	1	-1e10	1	-1e10	1	-1E+10	1	-1E+10	1	-1E+10	1
4902624	7	C	08/30/2024	20:36	-128.557	47.138	0	33.20	0	13.9885	0	32.3558	0	24.149	0	32.921	0	275.0	4	106.8	4	-1E+10	1	1.3797	4	0.002349	0	-1E+10	1	-1E+10	1	-1E+10	1
4902624	7	C	08/30/2024	20:36	-128.557	47.138	0	33.80	0	13.9313	0	32.3549	0	24.160	0	33.516	0	274.9	4	106.6	4	-1E+10	1	1.4162	4	0.002525	0	-1E+10	1	-1E+10	1	-1E+10	1
4902624	7	C	08/30/2024	20:36	-128.557	47.138	0	34.20	0	13.8932	0	32.3543	0	24.167	0	33.913	0	274.7	4	106.5	4	-1E+10	1	1.4571	4	0.002403	0	-1E+10	1	-1E+10	1	-1E+10	1
4902624	7	C	08/30/2024	20:36	-128.557	47.138	0	34.60	0	13.8551	0	32.3536	0	24.174	0	34.309	0	274.7	4	106.4	4	-1E+10	1	1.5494	4	0.002196	0	-1E+10	1	-1E+10	1	-1E+10	1
4902624	7	C	08/30/2024	20:36	-128.557	47.138	0	35.00	0	13.8170	0	32.3530	0	24.181	0	34.706	0	-1e10	1	-1e10	1	-1E+10	1	-1e10	1	-1e10	1	-1E+10	1	-1E+10	1	-1E+10	1
4902624	7	C	08/30/2024	20:36	-128.557	47.138	0	35.10	0	13.7877	0	32.3531	0	24.187	0	34.805	0	274.7	4	106.2	4	-1E+10	1	1.9564	4	0.002708	0	-1E+10	1	-1E+10	1	-1E+10	1
4902624	7	C	08/30/2024	20:36	-128.557	47.138	0	35.60	0	13.6409	0	32.3536	0	24.218	0	35.301	0	274.3	4	105.8	4	-1E+10	1	2.1170	4	0.002859	0	-1E+10	1	-1E+10	1	-1E+10	1
4902624	7	C	08/30/2024	20:36	-128.557	47.138	0	36.20	0	13.4648	0	32.3542	0	24.253	0	35.896	0	273.5	4	105.1	4	-1E+10	1	2.0847	4	0.002689	0	-1E+10	1	-1E+10	1	-1E+10	1
4902624	7	C	08/30/2024	20:36	-128.557	47.138	0	36.80	0	13.2887	0	32.3548	0	24.289	0	36.491	0	273.3	4	104.6	4	-1E+10	1	2.1347	4	0.002390	0	-1E+10	1	-1E+10	1	-1E+10	1
4902624	7	C	08/30/2024	20:36	-128.557	47.138	0	37.00	0	13.2300	0	32.3550	0	24.301	0	36.689	0	-1e10	1	-1e10	1	-1E+10	1	-1e10	1	-1e10	1	-1E+10	1	-1E+10	1	-1E+10	1
4902624	7	C	08/30/2024	20:36	-128.557	47.138	0	37.40	0	13.1338	0	32.3550	0	24.320	0	37.086	0	273.1	4	104.2	4	-1E+10	1	2.2502	4	0.001765	0	-1E+10	1	-1E+10	1	-1E+10	1
4902624	7	C	08/30/2024	20:36	-128.557	47.138	0	38.10	0	12.9655	0	32.3550	0	24.353	0	37.780	0	272.4	4	103.6	4	-1E+10	1	2.1097	4	0.001785	0	-1E+10	1	-1E+10	1	-1E+10	1
4902624	7	C	08/30/2024	20:36	-128.557	47.138	0	38.70	0	12.8212	0	32.3550	0	24.381	0	38.375	0	272.3	4	103.3	4	-1E+10	1	2.4455	4	0.002126	0	-1E+10	1	-1E+10	1	-1E+10	1
4902624	7	C	08/30/2024	20:36	-128.557	47.138	0	39.10	0	12.7250	0	32.3550	0	24.400	0	38.771	0	-1e10	1	-1e10	1	-1E+10	1	-1e10	1	-1e10	1	-1E+10	1	-1E+10	1	-1E+10	1
4902624	7	C	08/30/2024	20:36	-128.557	47.138	0	39.50	0	12.6848	0	32.3546	0	24.407	0	39.168	0	271.6	4	102.7	4	-1E+10	1	2.4844	4	0.002261	0	-1E+10	1	-1E+10	1	-1E+10	1
4902624	7	C	08/30/2024	20:36	-128.557	47.138	0	40.20	0	12.6144	0	32.3538	0	24.420	0	39.862	0	270.8	4	102.3	4	-1E+10	1	2.6371	4	0.002093	0	-1E+10	1	-1E+10	1	-1E+10	1
4902624	7	C	08/30/2024	20:36	-128.557	47.138	0	40.90	0	12.5441	0	32.3531	0	24.433	0	40.556	0	270.3	4	101.9	4	-1E+10	1	2.8735	4	0.002090	0	-1E+10	1	-1E+10	1	-1E+10	1
4902624	7	C	08/30/2024	20:36	-128.557	47.138	0	41.00	0	12.5340	0	32.3530	0	24.435	0	40.655	0	-1e10	1	-1e10	1	-1E+10	1	-1e10	1	-1e10	1	-1E+10	1	-1E+10	1	-1E+10	1
4902624	7	C	08/30/2024	20:36	-128.557	47.138	0	41.60	0	12.4827	0	32.3515	0	24.443	0	41.250	0	269.6	4	101.5	4	-1E+10	1	2.8754	4	0.002345	0	-1E+10	1	-1E+10	1	-1E+10	1
4902624	7	C	08/30/2024	20:36	-128.557	47.138	0	42.40	0	12.4143	0	32.3495	0	24.455	0	42.043	0	268.9	4	101.1	4	-1E+10	1	2.6621	4	0.002292	0	-1E+10	1	-1E+10	1	-1E+10	1
4902624	7	C	08/30/2024	20:36	-128.557	47.138	0	43.00	0	12.3630	0	32.3480	0	24.464	0	42.638	0	-1e10	1	-1e10	1	-1E+10	1	-1e10	1	-1e10	1	-1E+10	1	-1E+10	1	-1E+10	1
4902624	7	C	08/30/2024	20:36	-128.557	47.138	0	43.10	0	12.3463	0	32.3485	0	24.467	0	42.737	0	268.3	4	100.8	4	-1E+10	1	2.5085	4	0.001691	0	-1E+10	1	-1E+10	1	-1E+10	1
4902624	7	C	08/30/2024	20:36	-128.557	47.138	0	43.90	0	12.2132	0	32.3525	0	24.495	0	43.530	0	267.6	4	100.2	4	-1E+10	1	2.5007	4	0.001972	0	-1E+10	1	-1E+10	1	-1E+10	1
4902624	7	C	08/30/2024	20:36	-128.557	47.138	0	44.70	0	12.0799	0	32.3565	0	24.523	0	44.324	0	267.3	4	99.8	4	-1E+10	1	2.5915	4	0.001398	0	-1E+10	1	-1E+10	1	-1E+10	1
4902624	7	C	08/30/2024	20:36	-128.557	47.138	0	45.00	0	12.0300	0	32.3580	0	24.534	0	44.621	0	-1e10	1	-1e10	1	-1E+10	1	-1e10	1	-1e10	1	-1E+10	1	-1E+10	1	-1E+10	1
4902624	7	C	08/30/2024	20:36	-128.557	47.138	0	45.60	0	11.9373	0	32.3586	0	24.552	0	45.216	0	267.0	4	99.4	4	-1E+10	1	2.5455	4	0.001462	0	-1E+10	1	-1E+10	1	-1E+10	1
4902624	7	C	08/30/2024	20:36	-128.557	47.138	0	46.40	0	11.8137	0	32.3594	0	24.575	0	46.009	0	266.5	4	99.0	4	-1E+10	1	2.3928	4	0.001596	0	-1E+10	1	-1E+10	1	-1E+10	1
4902624	7	C	08/30/2024	20:36	-128.557	47.138	0	47.00	0	11.7210	0	32.3600	0	24.592	0	46.604	0	-1e10	1	-1e10	1	-1E+10	1	-1e10	1	-1e10	1	-1E+10	1	-1E+10	1	-1E+10	1
4902624	7	C	08/30/2024	20:36	-128.557	47.138	0	47.30	0	11.6627	0	32.3618	0	24.605	0	46.901	0	266.5	4	98.7	4	-1E+10	1	2.2484	4	0.001584	0	-1E+10	1	-1E+10	1	-1E+10	1
4902624	7	C	08/30/2024	20:36	-128.557	47.138	0	48.20	0	11.4876	0	32.3672	0	24.641	0	47.794	0	266.6	4	98.3	4	-1E+10	1	2.1568	4	0.001486	0	-1E+10	1	-1E+10	1	-1E+10	1
4902624	7	C	08/30/2024	20:36	-128.557	47.138	0	49.00	0	11.3320	0	32.3720	0	24.672	0	48.587	0	-1e10	1	-1e10	1	-1E+10	1	-1e10	1	-1e10	1	-1E+10	1	-1E+10	1	-1E+10	1
4902624	7	C	08/30/2024	20:36	-128.557	47.138	0	49.10	0	11.3219	0	32.3723	0	24.674	0	48.686	0	266.2	4	97.8	4	-1E+10	1	2.1112	4	0.001394	0	-1E+10	1	-1E+10	1	-1E+10	1
4902624	7	C	08/30/2024	20:36	-128.557	47.138	0	50.10	0	11.2209	0	32.3747	0	24.694	0	49.677	0	265.4	4	97.4	4	-1E+10	1	2.0610	4	0.001390	0	-1E+10	1	-1E+10	1	-1E+10	1
4902624	7	C	08/30/2024	20:36	-128.557	47.138	0	51.00	0	11.1300	0	32.3770	0	24.712	0	50.570	0	262.0	4	95.9	4	-1E+10	1	1.9717	4	0.001455	0	-1E+10	1	-1E+10	1	-1E+10	1
4902624	7	C	08/30/2024	20:36	-128.557	47.138	0	52.00	0	11.0211	0	32.3765	0	24.731	0	51.561	0	264.8	4	96.7	4	-1E+10	1	1.9053	4	0.001316	0	-1E+10	1	-1E+10	1	-1E+10	1
4902624	7	C	08/30/2024	20:36	-128.557	47.138	0	52.90	0	10.9230	0	32.3760	0	24.748	0	52.454	0	-1e10	1	-1e10	1	-1E+10	1	-1e10	1	-1e10	1	-1E+10	1	-1E+10	1	-1E+10	1
4902624	7	C	08/30/2024	20:36	-128.557	47.138	0	53.00	0	10.9094	0	32.3766	0	24.751	0	52.553	0	264.2	4	96.3	4	-1E+10	1	1.8834	4	0.001293	0	-1E+10	1	-1E+10	1	-1E+10	1
4902624	7	C	08/30/2024	20:36	-128.557	47.138	0	54.00	0	10.7732	0	32.3823	0	24.779	0	53.544	0	264.1	4	96.0	4	-1E+10	1	1.8226	4	0.001254	0	-1E+10	1	-1E+10	1	-1E+10	1
4902624	7	C	08/30/2024	20:36	-128.557	47.138	0	55.00	0	10.6370	0	32.3880	0	24.807	0	54.536	0	260.7	4	94.5	4	-1E+10	1	1.8157	4	0.001203	0	-1E+10	1	-1E+10	1	-1E+10	1
4902624	7	C	08/30/2024	20:36	-128.557	47.138	0	55.90	0	10.5992	0	32.3867	0	24.812	0	55.428	0	263.5	4	95.4	4	-1E+10	1	1.7870	4	0.001243	0	-1E+10	1	-1E+10	1	-1E+10	1
4902624	7	C	08/30/2024	20:36	-128.557	47.138	0	56.90	0	10.5572	0	32.3851	0	24.818	0	56.419	0	263.2	4	95.2	4	-1E+10	1	1.7009	4	0.001181	0	-1E+10	1	-1E+10	1	-1E+10	1
4902624	7	C	08/30/2024	20:36	-128.557	47.138	0	57.00	0	10.5530	0	32.3850	0	24.819	0	56.518	0	-1e10	1	-1e10	1	-1E+10	1	-1e10	1	-1e10	1	-1E+10	1	-1E+10	1	-1E+10	1
4902624	7	C	08/30/2024	20:36	-128.557	47.138	0	57.90	0	10.4463	0	32.3906	0	24.842	0	57.411	0	262.8	4	94.9	4	-1E+10	1	1.6206	4	0.001025	0	-1E+10	1	-1E+10	1	-1E+10	1
4902624	7	C	08/30/2024	20:36	-128.557	47.138	0	59.00	0	10.3159	0	32.3974	0	24.869	0	58.501	0	262.9	4	94.6	4	-1E+10	1	1.5191	4	0.000957	0	-1E+10	1	-1E+10	1	-1E+10	1
4902624	7	C	08/30/2024	20:36	-128.557	47.138	0	59.10	0	10.3040	0	32.3980	0	24.871	0	58.600	0	-1e10	1	-1e10	1	-1E+10	1	-1e10	1	-1e10	1	-1E+10	1	-1E+10	1	-1E+10	1
4902624	7	C	08/30/2024	20:36	-128.557	47.138	0	60.00	0	10.2581	0	32.4008	0	24.881	0	59.493	0	262.5	4	94.4	4	-1E+10	1	1.3919	4	0.000960	0	-1E+10	1	-1E+10	1	-1E+10	1
4902624	7	C	08/30/2024	20:36	-128.557	47.138	0	61.00	0	10.2070	0	32.4040	0	24.892	0	60.484	0	258.7	4	92.9	4	-1E+10	1	1.3116	4	0.000927	0	-1E+10	1	-1E+10	1	-1E+10	1
4902624	7	C	08/30/2024	20:36	-128.557	47.138	0	62.00	0	10.1520	0	32.4115	0	24.908	0	61.475	0	262.1	4	94.0	4	-1E+10	1	1.2264	4	0.000917	0	-1E+10	1	-1E+10	1	-1E+10	1
4902624	7	C	08/30/2024	20:36	-128.557	47.138	0	63.00	0	10.0970	0	32.4190	0	24.923	0	62.467	0	-1e10	1	-1e10	1	-1E+10	1	-1e10	1	-1e10	1	-1E+10	1	-1E+10	1	-1E+10	1
4902624	7	C	08/30/2024	20:36	-128.557	47.138	0	63.10	0	10.0908	0	32.4199	0	24.924	0	62.566	0	261.7	4	93.8	4	-1E+10	1	1.0950	4	0.000823	0	-1E+10	1	-1E+10	1	-1E+10	1
4902624	7	C	08/30/2024	20:36	-128.557	47.138	0	64.10	0	10.0293	0	32.4294	0	24.942	0	63.557	0	261.3	4	93.5	4	-1E+10	1	0.9855	4	0.000784	0	-1E+10	1	-1E+10	1	-1E+10	1
4902624	7	C	08/30/2024	20:36	-128.557	47.138	0	64.90	0	9.9800	0	32.4370	0	24.956	0	64.350	0	-1e10	1	-1e10	1	-1E+10	1	-1e10	1	-1e10	1	-1E+10	1	-1E+10	1	-1E+10	1
4902624	7	C	08/30/2024	20:36	-128.557	47.138	0	65.10	0	9.9717	0	32.4381	0	24.958	0	64.549	0	260.9	4	93.2	4	-1E+10	1	0.9187	4	0.000762	0	-1E+10	1	-1E+10	1	-1E+10	1
4902624	7	C	08/30/2024	20:36	-128.557	47.138	0	66.20	0	9.9261	0	32.4444	0	24.971	0	65.639	0	260.2	4	92.9	4	-1E+10	1	0.8428	4	0.000747	0	-1E+10	1	-1E+10	1	-1E+10	1
4902624	7	C	08/30/2024	20:36	-128.557	47.138	0	67.00	0	9.8930	0	32.4490	0	24.980	0	66.432	0	-1e10	1	-1e10	1	-1E+10	1	-1e10	1	-1e10	1	-1E+10	1	-1E+10	1	-1E+10	1
4902624	7	C	08/30/2024	20:36	-128.557	47.138	0	67.30	0	9.8873	0	32.4498	0	24.981	0	66.730	0	259.7	4	92.6	4	-1E+10	1	0.8198	4	0.000768	0	-1E+10	1	-1E+10	1	-1E+10	1
4902624	7	C	08/30/2024	20:36	-128.557	47.138	0	68.40	0	9.8664	0	32.4525	0	24.987	0	67.820	0	258.9	4	92.3	4	-1E+10	1	0.8013	4	0.000771	0	-1E+10	1	-1E+10	1	-1E+10	1
4902624	7	C	08/30/2024	20:36	-128.557	47.138	0	69.00	0	9.8550	0	32.4540	0	24.990	0	68.415	0	-1e10	1	-1e10	1	-1E+10	1	-1e10	1	-1e10	1	-1E+10	1	-1E+10	1	-1E+10	1
4902624	7	C	08/30/2024	20:36	-128.557	47.138	0	69.40	0	9.8356	0	32.4564	0	24.995	0	68.812	0	258.2	4	92.0	4	-1E+10	1	0.7139	4	0.000708	0	-1E+10	1	-1E+10	1	-1E+10	1
4902624	7	C	08/30/2024	20:36	-128.557	47.138	0	70.50	0	9.7823	0	32.4630	0	25.009	0	69.902	0	257.5	4	91.6	4	-1E+10	1	0.6974	4	0.000715	0	-1E+10	1	-1E+10	1	-1E+10	1
4902624	7	C	08/30/2024	20:36	-128.557	47.138	0	71.00	0	9.7580	0	32.4660	0	25.015	0	70.398	0	-1e10	1	-1e10	1	-1E+10	1	-1e10	1	-1e10	1	-1E+10	1	-1E+10	1	-1E+10	1
4902624	7	C	08/30/2024	20:36	-128.557	47.138	0	71.60	0	9.7262	0	32.4657	0	25.020	0	70.992	0	256.8	4	91.3	4	-1E+10	1	0.6789	4	0.000636	0	-1E+10	1	-1E+10	1	-1E+10	1
4902624	7	C	08/30/2024	20:36	-128.557	47.138	0	72.70	0	9.6679	0	32.4651	0	25.029	0	72.083	0	256.4	4	91.0	4	-1E+10	1	0.6295	4	0.000645	0	-1E+10	1	-1E+10	1	-1E+10	1
4902624	7	C	08/30/2024	20:36	-128.557	47.138	0	73.00	0	9.6520	0	32.4650	0	25.032	0	72.380	0	-1e10	1	-1e10	1	-1E+10	1	-1e10	1	-1e10	1	-1E+10	1	-1E+10	1	-1E+10	1
4902624	7	C	08/30/2024	20:36	-128.557	47.138	0	73.80	0	9.6032	0	32.4667	0	25.041	0	73.173	0	255.8	4	90.7	4	-1E+10	1	0.5787	4	0.000647	0	-1E+10	1	-1E+10	1	-1E+10	1
4902624	7	C	08/30/2024	20:36	-128.557	47.138	0	74.90	0	9.5360	0	32.4690	0	25.054	0	74.264	0	251.7	4	89.1	4	-1E+10	1	0.5553	4	0.000647	0	-1E+10	1	-1E+10	1	-1E+10	1
4902624	7	C	08/30/2024	20:36	-128.557	47.138	0	76.10	0	9.5069	0	32.4730	0	25.061	0	75.453	0	254.8	4	90.1	4	-1E+10	1	0.5318	4	0.000603	0	-1E+10	1	-1E+10	1	-1E+10	1
4902624	7	C	08/30/2024	20:36	-128.557	47.138	0	77.00	0	9.4850	0	32.4760	0	25.067	0	76.346	0	-1e10	1	-1e10	1	-1E+10	1	-1e10	1	-1e10	1	-1E+10	1	-1E+10	1	-1E+10	1
4902624	7	C	08/30/2024	20:36	-128.557	47.138	0	77.20	0	9.4759	0	32.4760	0	25.069	0	76.544	0	254.2	4	89.9	4	-1E+10	1	0.4970	4	0.000580	0	-1E+10	1	-1E+10	1	-1E+10	1
4902624	7	C	08/30/2024	20:36	-128.557	47.138	0	78.30	0	9.4258	0	32.4760	0	25.077	0	77.634	0	253.6	4	89.6	4	-1E+10	1	0.4630	4	0.000590	0	-1E+10	1	-1E+10	1	-1E+10	1
4902624	7	C	08/30/2024	20:36	-128.557	47.138	0	79.00	0	9.3940	0	32.4760	0	25.082	0	78.328	0	-1e10	1	-1e10	1	-1E+10	1	-1e10	1	-1e10	1	-1E+10	1	-1E+10	1	-1E+10	1
4902624	7	C	08/30/2024	20:36	-128.557	47.138	0	79.50	0	9.3902	0	32.4770	0	25.083	0	78.824	0	253.0	4	89.3	4	-1E+10	1	0.4481	4	0.000561	0	-1E+10	1	-1E+10	1	-1E+10	1
4902624	7	C	08/30/2024	20:36	-128.557	47.138	0	80.60	0	9.3818	0	32.4790	0	25.086	0	79.914	0	252.3	4	89.0	4	-1E+10	1	0.4234	4	0.000542	0	-1E+10	1	-1E+10	1	-1E+10	1
4902624	7	C	08/30/2024	20:36	-128.557	47.138	0	81.10	0	9.3780	0	32.4800	0	25.088	0	80.410	0	-1e10	1	-1e10	1	-1E+10	1	-1e10	1	-1e10	1	-1E+10	1	-1E+10	1	-1E+10	1
4902624	7	C	08/30/2024	20:36	-128.557	47.138	0	81.80	0	9.3430	0	32.4804	0	25.093	0	81.104	0	251.6	4	88.7	4	-1E+10	1	0.3869	4	0.000448	0	-1E+10	1	-1E+10	1	-1E+10	1
4902624	7	C	08/30/2024	20:36	-128.557	47.138	0	83.00	0	9.2830	0	32.4810	0	25.103	0	82.293	0	-1e10	1	-1e10	1	-1E+10	1	-1e10	1	-1e10	1	-1E+10	1	-1E+10	1	-1E+10	1
4902624	7	C	08/30/2024	20:36	-128.557	47.138	0	83.10	0	9.2804	0	32.4809	0	25.104	0	82.393	0	250.9	4	88.3	4	-1E+10	1	0.3431	4	0.000459	0	-1E+10	1	-1E+10	1	-1E+10	1
4902624	7	C	08/30/2024	20:36	-128.557	47.138	0	84.10	0	9.2550	0	32.4794	0	25.107	0	83.384	0	250.5	4	88.2	4	-1E+10	1	0.3379	4	0.000451	0	-1E+10	1	-1E+10	1	-1E+10	1
4902624	7	C	08/30/2024	20:36	-128.557	47.138	0	85.00	0	9.2320	0	32.4780	0	25.109	0	84.276	0	-1e10	1	-1e10	1	-1E+10	1	-1e10	1	-1e10	1	-1E+10	1	-1E+10	1	-1E+10	1
4902624	7	C	08/30/2024	20:36	-128.557	47.138	0	85.10	0	9.2317	0	32.4789	0	25.110	0	84.375	0	249.8	4	87.9	4	-1E+10	1	0.3314	4	0.000476	0	-1E+10	1	-1E+10	1	-1E+10	1
4902624	7	C	08/30/2024	20:36	-128.557	47.138	0	86.10	0	9.2282	0	32.4879	0	25.118	0	85.366	0	249.1	4	87.6	4	-1E+10	1	0.3205	4	0.000488	0	-1E+10	1	-1E+10	1	-1E+10	1
4902624	7	C	08/30/2024	20:36	-128.557	47.138	0	87.00	0	9.2250	0	32.4960	0	25.124	0	86.259	0	244.6	4	86.0	4	-1E+10	1	0.3107	4	0.000472	0	-1E+10	1	-1E+10	1	-1E+10	1
4902624	7	C	08/30/2024	20:36	-128.557	47.138	0	87.70	0	9.2151	0	32.4989	0	25.128	0	86.952	0	247.8	4	87.1	4	-1E+10	1	0.3024	4	0.000463	0	-1E+10	1	-1E+10	1	-1E+10	1
4902624	7	C	08/30/2024	20:36	-128.557	47.138	0	88.40	0	9.2051	0	32.5019	0	25.132	0	87.646	0	247.1	4	86.9	4	-1E+10	1	0.2957	4	0.000480	0	-1E+10	1	-1E+10	1	-1E+10	1
4902624	7	C	08/30/2024	20:36	-128.557	47.138	0	88.90	0	9.1980	0	32.5040	0	25.135	0	88.142	0	-1e10	1	-1e10	1	-1E+10	1	-1e10	1	-1e10	1	-1E+10	1	-1E+10	1	-1E+10	1
4902624	7	C	08/30/2024	20:36	-128.557	47.138	0	89.00	0	9.1972	0	32.5043	0	25.135	0	88.241	0	246.4	4	86.6	4	-1E+10	1	0.3066	4	0.000506	0	-1E+10	1	-1E+10	1	-1E+10	1
4902624	7	C	08/30/2024	20:36	-128.557	47.138	0	89.80	0	9.1903	0	32.5067	0	25.138	0	89.034	0	245.5	4	86.3	4	-1E+10	1	0.3066	4	0.000436	0	-1E+10	1	-1E+10	1	-1E+10	1
4902624	7	C	08/30/2024	20:36	-128.557	47.138	0	90.50	0	9.1844	0	32.5088	0	25.141	0	89.728	0	244.7	4	86.0	4	-1E+10	1	0.3066	4	0.000495	0	-1E+10	1	-1E+10	1	-1E+10	1
4902624	7	C	08/30/2024	20:36	-128.557	47.138	0	90.90	0	9.1810	0	32.5100	0	25.142	0	90.125	0	-1e10	1	-1e10	1	-1E+10	1	-1e10	1	-1e10	1	-1E+10	1	-1E+10	1	-1E+10	1
4902624	7	C	08/30/2024	20:36	-128.557	47.138	0	91.10	0	9.1789	0	32.5113	0	25.144	0	90.323	0	243.8	4	85.7	4	-1E+10	1	0.3121	4	0.000459	0	-1E+10	1	-1E+10	1	-1E+10	1
4902624	7	C	08/30/2024	20:36	-128.557	47.138	0	91.70	0	9.1726	0	32.5151	0	25.148	0	90.918	0	242.9	4	85.3	4	-1E+10	1	0.3042	4	0.000442	0	-1E+10	1	-1E+10	1	-1E+10	1
4902624	7	C	08/30/2024	20:36	-128.557	47.138	0	92.40	0	9.1653	0	32.5195	0	25.152	0	91.611	0	241.9	4	85.0	4	-1E+10	1	0.2823	4	0.000428	0	-1E+10	1	-1E+10	1	-1E+10	1
4902624	7	C	08/30/2024	20:36	-128.557	47.138	0	93.10	0	9.1580	0	32.5240	0	25.157	0	92.305	0	237.2	4	83.3	4	-1E+10	1	0.2555	4	0.000405	0	-1E+10	1	-1E+10	1	-1E+10	1
4902624	7	C	08/30/2024	20:36	-128.557	47.138	0	93.90	0	9.1172	0	32.5316	0	25.169	0	93.098	0	240.1	4	84.3	4	-1E+10	1	0.2393	4	0.000392	0	-1E+10	1	-1E+10	1	-1E+10	1
4902624	7	C	08/30/2024	20:36	-128.557	47.138	0	94.60	0	9.0814	0	32.5382	0	25.180	0	93.792	0	239.3	4	83.9	4	-1E+10	1	0.2336	4	0.000401	0	-1E+10	1	-1E+10	1	-1E+10	1
4902624	7	C	08/30/2024	20:36	-128.557	47.138	0	95.00	0	9.0610	0	32.5420	0	25.186	0	94.189	0	-1e10	1	-1e10	1	-1E+10	1	-1e10	1	-1e10	1	-1E+10	1	-1E+10	1	-1E+10	1
4902624	7	C	08/30/2024	20:36	-128.557	47.138	0	95.30	0	9.0468	0	32.5426	0	25.189	0	94.486	0	238.4	4	83.6	4	-1E+10	1	0.2409	4	0.000377	0	-1E+10	1	-1E+10	1	-1E+10	1
4902624	7	C	08/30/2024	20:36	-128.557	47.138	0	96.00	0	9.0135	0	32.5440	0	25.195	0	95.180	0	237.7	4	83.2	4	-1E+10	1	0.2295	4	0.000368	0	-1E+10	1	-1E+10	1	-1E+10	1
4902624	7	C	08/30/2024	20:36	-128.557	47.138	0	96.80	0	8.9755	0	32.5456	0	25.202	0	95.973	0	236.5	4	82.7	4	-1E+10	1	0.2166	4	0.000405	0	-1E+10	1	-1E+10	1	-1E+10	1
4902624	7	C	08/30/2024	20:36	-128.557	47.138	0	97.00	0	8.9660	0	32.5460	0	25.204	0	96.171	0	-1e10	1	-1e10	1	-1E+10	1	-1e10	1	-1e10	1	-1E+10	1	-1E+10	1	-1E+10	1
4902624	7	C	08/30/2024	20:36	-128.557	47.138	0	97.60	0	8.9328	0	32.5536	0	25.215	0	96.766	0	235.2	4	82.2	4	-1E+10	1	0.2619	4	0.000468	0	-1E+10	1	-1E+10	1	-1E+10	1
4902624	7	C	08/30/2024	20:36	-128.557	47.138	0	98.40	0	8.8886	0	32.5637	0	25.230	0	97.559	0	234.1	4	81.8	4	-1E+10	1	0.2409	4	0.000455	0	-1E+10	1	-1E+10	1	-1E+10	1
4902624	7	C	08/30/2024	20:36	-128.557	47.138	0	98.90	0	8.8610	0	32.5700	0	25.239	0	98.054	0	-1e10	1	-1e10	1	-1E+10	1	-1e10	1	-1e10	1	-1E+10	1	-1E+10	1	-1E+10	1
4902624	7	C	08/30/2024	20:36	-128.557	47.138	0	99.20	0	8.8504	0	32.5742	0	25.244	0	98.352	0	232.8	4	81.3	4	-1E+10	1	0.1898	4	0.000386	0	-1E+10	1	-1E+10	1	-1E+10	1
4902624	7	C	08/30/2024	20:36	-128.557	47.138	0	100.10	0	8.8184	0	32.5868	0	25.259	0	99.244	0	231.7	4	80.8	4	-1E+10	1	0.1898	4	0.000330	0	-1E+10	1	-1E+10	1	-1E+10	1
4902624	7	C	08/30/2024	20:36	-128.557	47.138	0	100.90	0	8.7900	0	32.5980	0	25.272	0	100.037	0	226.6	4	79.0	4	-1E+10	1	0.1956	4	0.000380	0	-1E+10	1	-1E+10	1	-1E+10	1
4902624	7	C	08/30/2024	20:36	-128.557	47.138	0	101.70	0	8.7744	0	32.6038	0	25.279	0	100.830	0	229.2	4	79.9	4	-1E+10	1	0.2190	4	0.000436	0	-1E+10	1	-1E+10	1	-1E+10	1
4902624	7	C	08/30/2024	20:36	-128.557	47.138	0	102.50	0	8.7587	0	32.6096	0	25.286	0	101.623	0	227.9	4	79.4	4	-1E+10	1	0.2117	4	0.000342	0	-1E+10	1	-1E+10	1	-1E+10	1
4902624	7	C	08/30/2024	20:36	-128.557	47.138	0	103.10	0	8.7470	0	32.6140	0	25.291	0	102.217	0	-1e10	1	-1e10	1	-1E+10	1	-1e10	1	-1e10	1	-1E+10	1	-1E+10	1	-1E+10	1
4902624	7	C	08/30/2024	20:36	-128.557	47.138	0	103.30	0	8.7392	0	32.6179	0	25.295	0	102.416	0	226.6	4	78.9	4	-1E+10	1	0.1752	4	0.000330	0	-1E+10	1	-1E+10	1	-1E+10	1
4902624	7	C	08/30/2024	20:36	-128.557	47.138	0	104.10	0	8.7081	0	32.6335	0	25.312	0	103.209	0	225.3	4	78.4	4	-1E+10	1	0.1635	4	0.000321	0	-1E+10	1	-1E+10	1	-1E+10	1
4902624	7	C	08/30/2024	20:36	-128.557	47.138	0	105.00	0	8.6730	0	32.6510	0	25.331	0	104.101	0	220.1	4	76.6	4	-1E+10	1	0.1657	4	0.000319	0	-1E+10	1	-1E+10	1	-1E+10	1
4902624	7	C	08/30/2024	20:36	-128.557	47.138	0	105.80	0	8.6378	0	32.6710	0	25.352	0	104.894	0	222.8	4	77.4	4	-1E+10	1	0.1841	4	0.000332	0	-1E+10	1	-1E+10	1	-1E+10	1
4902624	7	C	08/30/2024	20:36	-128.557	47.138	0	106.70	0	8.5982	0	32.6935	0	25.376	0	105.786	0	221.8	4	77.0	4	-1E+10	1	0.1898	4	0.000336	0	-1E+10	1	-1E+10	1	-1E+10	1
4902624	7	C	08/30/2024	20:36	-128.557	47.138	0	107.00	0	8.5850	0	32.7010	0	25.384	0	106.083	0	-1e10	1	-1e10	1	-1E+10	1	-1e10	1	-1e10	1	-1E+10	1	-1E+10	1	-1E+10	1
4902624	7	C	08/30/2024	20:36	-128.557	47.138	0	107.50	0	8.5740	0	32.7065	0	25.390	0	106.579	0	220.9	4	76.7	4	-1E+10	1	0.1825	4	0.000327	0	-1E+10	1	-1E+10	1	-1E+10	1
4902624	7	C	08/30/2024	20:36	-128.557	47.138	0	108.40	0	8.5542	0	32.7164	0	25.401	0	107.471	0	219.8	4	76.3	4	-1E+10	1	0.1770	4	0.000322	0	-1E+10	1	-1E+10	1	-1E+10	1
4902624	7	C	08/30/2024	20:36	-128.557	47.138	0	109.00	0	8.5410	0	32.7230	0	25.408	0	108.065	0	-1e10	1	-1e10	1	-1E+10	1	-1e10	1	-1e10	1	-1E+10	1	-1E+10	1	-1E+10	1
4902624	7	C	08/30/2024	20:36	-128.557	47.138	0	109.20	0	8.5394	0	32.7246	0	25.409	0	108.264	0	218.8	4	75.9	4	-1E+10	1	0.1635	4	0.000337	0	-1E+10	1	-1E+10	1	-1E+10	1
4902624	7	C	08/30/2024	20:36	-128.557	47.138	0	110.00	0	8.5329	0	32.7311	0	25.415	0	109.057	0	217.5	4	75.5	4	-1E+10	1	0.1752	4	0.000354	0	-1E+10	1	-1E+10	1	-1E+10	1
4902624	7	C	08/30/2024	20:36	-128.557	47.138	0	110.70	0	8.5272	0	32.7368	0	25.421	0	109.750	0	215.7	4	74.8	4	-1E+10	1	0.1582	4	0.000372	0	-1E+10	1	-1E+10	1	-1E+10	1
4902624	7	C	08/30/2024	20:36	-128.557	47.138	0	111.10	0	8.5240	0	32.7400	0	25.424	0	110.147	0	-1e10	1	-1e10	1	-1E+10	1	-1e10	1	-1e10	1	-1E+10	1	-1E+10	1	-1E+10	1
4902624	7	C	08/30/2024	20:36	-128.557	47.138	0	111.60	0	8.5112	0	32.7542	0	25.437	0	110.642	0	214.0	4	74.2	4	-1E+10	1	0.1647	4	0.000341	0	-1E+10	1	-1E+10	1	-1E+10	1
4902624	7	C	08/30/2024	20:36	-128.557	47.138	0	112.40	0	8.4908	0	32.7771	0	25.458	0	111.435	0	212.3	4	73.6	4	-1E+10	1	0.1767	4	0.000337	0	-1E+10	1	-1E+10	1	-1E+10	1
4902624	7	C	08/30/2024	20:36	-128.557	47.138	0	113.10	0	8.4730	0	32.7970	0	25.476	0	112.129	0	-1e10	1	-1e10	1	-1E+10	1	-1e10	1	-1e10	1	-1E+10	1	-1E+10	1	-1E+10	1
4902624	7	C	08/30/2024	20:36	-128.557	47.138	0	113.30	0	8.4681	0	32.8019	0	25.481	0	112.327	0	211.3	4	73.2	4	-1E+10	1	0.1935	4	0.000342	0	-1E+10	1	-1E+10	1	-1E+10	1
4902624	7	C	08/30/2024	20:36	-128.557	47.138	0	114.20	0	8.4460	0	32.8240	0	25.501	0	113.219	0	210.6	4	73.0	4	-1E+10	1	0.1979	4	0.000389	0	-1E+10	1	-1E+10	1	-1E+10	1
4902624	7	C	08/30/2024	20:36	-128.557	47.138	0	115.10	0	8.4240	0	32.8460	0	25.522	0	114.111	0	206.1	4	71.4	4	-1E+10	1	0.1825	4	0.000428	0	-1E+10	1	-1E+10	1	-1E+10	1
4902624	7	C	08/30/2024	20:36	-128.557	47.138	0	116.00	0	8.3675	0	32.8730	0	25.552	0	115.003	0	209.4	4	72.5	4	-1E+10	1	0.1679	4	0.000381	0	-1E+10	1	-1E+10	1	-1E+10	1
4902624	7	C	08/30/2024	20:36	-128.557	47.138	0	116.90	0	8.3110	0	32.9000	0	25.581	0	115.895	0	-1e10	1	-1e10	1	-1E+10	1	-1e10	1	-1e10	1	-1E+10	1	-1E+10	1	-1E+10	1
4902624	7	C	08/30/2024	20:36	-128.557	47.138	0	117.00	0	8.3031	0	32.9032	0	25.585	0	115.995	0	209.0	4	72.2	4	-1E+10	1	0.1679	4	0.000307	0	-1E+10	1	-1E+10	1	-1E+10	1
4902624	7	C	08/30/2024	20:36	-128.557	47.138	0	118.00	0	8.2239	0	32.9348	0	25.621	0	116.986	0	208.6	4	72.0	4	-1E+10	1	0.1168	4	0.000283	0	-1E+10	1	-1E+10	1	-1E+10	1
4902624	7	C	08/30/2024	20:36	-128.557	47.138	0	119.00	0	8.1448	0	32.9665	0	25.658	0	117.977	0	208.1	4	71.7	4	-1E+10	1	0.1168	4	0.004321	0	-1E+10	1	-1E+10	1	-1E+10	1
4902624	7	C	08/30/2024	20:36	-128.557	47.138	0	119.30	0	8.1210	0	32.9760	0	25.669	0	118.274	0	-1e10	1	-1e10	1	-1E+10	1	-1e10	1	-1e10	1	-1E+10	1	-1E+10	1	-1E+10	1
4902624	7	C	08/30/2024	20:36	-128.557	47.138	0	120.00	0	8.1054	0	32.9865	0	25.679	0	118.968	0	207.0	4	71.3	4	-1E+10	1	0.1265	4	0.001930	0	-1E+10	1	-1E+10	1	-1E+10	1
4902624	7	C	08/30/2024	20:36	-128.557	47.138	0	121.10	0	8.0810	0	33.0030	0	25.696	0	120.058	0	201.8	4	69.5	4	-1E+10	1	0.1082	4	0.000315	0	-1E+10	1	-1E+10	1	-1E+10	1
4902624	7	C	08/30/2024	20:36	-128.557	47.138	0	122.20	0	8.0306	0	33.0227	0	25.719	0	121.148	0	205.3	4	70.6	4	-1E+10	1	0.0913	4	0.000301	0	-1E+10	1	-1E+10	1	-1E+10	1
4902624	7	C	08/30/2024	20:36	-128.557	47.138	0	123.00	0	7.9940	0	33.0370	0	25.735	0	121.941	0	-1e10	1	-1e10	1	-1E+10	1	-1e10	1	-1e10	1	-1E+10	1	-1E+10	1	-1E+10	1
4902624	7	C	08/30/2024	20:36	-128.557	47.138	0	123.30	0	7.9989	0	33.0433	0	25.740	0	122.239	0	204.3	4	70.2	4	-1E+10	1	0.0876	4	0.000317	0	-1E+10	1	-1E+10	1	-1E+10	1
4902624	7	C	08/30/2024	20:36	-128.557	47.138	0	124.50	0	8.0185	0	33.0686	0	25.757	0	123.428	0	203.2	4	69.9	4	-1E+10	1	0.0894	4	0.000345	0	-1E+10	1	-1E+10	1	-1E+10	1
4902624	7	C	08/30/2024	20:36	-128.557	47.138	0	124.90	0	8.0250	0	33.0770	0	25.762	0	123.824	0	-1e10	1	-1e10	1	-1E+10	1	-1e10	1	-1e10	1	-1E+10	1	-1E+10	1	-1E+10	1
4902624	7	C	08/30/2024	20:36	-128.557	47.138	0	125.60	0	8.0135	0	33.0834	0	25.769	0	124.518	0	202.1	4	69.5	4	-1E+10	1	0.0937	4	0.000281	0	-1E+10	1	-1E+10	1	-1E+10	1
4902624	7	C	08/30/2024	20:36	-128.557	47.138	0	126.60	0	7.9972	0	33.0925	0	25.778	0	125.509	0	201.1	4	69.1	4	-1E+10	1	0.0876	4	0.000271	0	-1E+10	1	-1E+10	1	-1E+10	1
4902624	7	C	08/30/2024	20:36	-128.557	47.138	0	127.10	0	7.9890	0	33.0970	0	25.783	0	126.005	0	-1e10	1	-1e10	1	-1E+10	1	-1e10	1	-1e10	1	-1E+10	1	-1E+10	1	-1E+10	1
4902624	7	C	08/30/2024	20:36	-128.557	47.138	0	127.40	0	7.9841	0	33.1003	0	25.787	0	126.302	0	200.3	4	68.8	4	-1E+10	1	0.0934	4	0.000290	0	-1E+10	1	-1E+10	1	-1E+10	1
4902624	7	C	08/30/2024	20:36	-128.557	47.138	0	128.10	0	7.9727	0	33.1081	0	25.794	0	126.996	0	199.4	4	68.5	4	-1E+10	1	0.0949	4	0.000324	0	-1E+10	1	-1E+10	1	-1E+10	1
4902624	7	C	08/30/2024	20:36	-128.557	47.138	0	128.70	0	7.9629	0	33.1147	0	25.801	0	127.590	0	198.6	4	68.2	4	-1E+10	1	0.0903	4	0.000309	0	-1E+10	1	-1E+10	1	-1E+10	1
4902624	7	C	08/30/2024	20:36	-128.557	47.138	0	129.00	0	7.9580	0	33.1180	0	25.804	0	127.888	0	-1e10	1	-1e10	1	-1E+10	1	-1e10	1	-1e10	1	-1E+10	1	-1E+10	1	-1E+10	1
4902624	7	C	08/30/2024	20:36	-128.557	47.138	0	129.30	0	7.9550	0	33.1231	0	25.809	0	128.185	0	197.6	4	67.9	4	-1E+10	1	0.0876	4	0.000295	0	-1E+10	1	-1E+10	1	-1E+10	1
4902624	7	C	08/30/2024	20:36	-128.557	47.138	0	130.00	0	7.9480	0	33.1350	0	25.819	0	128.879	0	196.5	4	67.5	4	-1E+10	1	0.0900	4	0.000287	0	-1E+10	1	-1E+10	1	-1E+10	1
4902624	7	C	08/30/2024	20:36	-128.557	47.138	0	130.70	0	7.9410	0	33.1469	0	25.829	0	129.572	0	195.4	4	67.1	4	-1E+10	1	0.0998	4	0.000283	0	-1E+10	1	-1E+10	1	-1E+10	1
4902624	7	C	08/30/2024	20:36	-128.557	47.138	0	131.00	0	7.9380	0	33.1520	0	25.834	0	129.870	0	-1e10	1	-1e10	1	-1E+10	1	-1e10	1	-1e10	1	-1E+10	1	-1E+10	1	-1E+10	1
4902624	7	C	08/30/2024	20:36	-128.557	47.138	0	131.40	0	7.9176	0	33.1602	0	25.843	0	130.266	0	193.7	4	66.5	4	-1E+10	1	0.1079	4	0.000311	0	-1E+10	1	-1E+10	1	-1E+10	1
4902624	7	C	08/30/2024	20:36	-128.557	47.138	0	132.20	0	7.8768	0	33.1766	0	25.862	0	131.059	0	192.3	4	65.9	4	-1E+10	1	0.0949	4	0.000342	0	-1E+10	1	-1E+10	1	-1E+10	1
4902624	7	C	08/30/2024	20:36	-128.557	47.138	0	133.00	0	7.8360	0	33.1930	0	25.881	0	131.852	0	186.6	4	64.0	4	-1E+10	1	0.0949	4	0.000354	0	-1E+10	1	-1E+10	1	-1E+10	1
4902624	7	C	08/30/2024	20:36	-128.557	47.138	0	133.80	0	7.7819	0	33.2006	0	25.895	0	132.645	0	189.5	4	64.9	4	-1E+10	1	0.0891	4	0.000307	0	-1E+10	1	-1E+10	1	-1E+10	1
4902624	7	C	08/30/2024	20:36	-128.557	47.138	0	134.70	0	7.7210	0	33.2092	0	25.910	0	133.537	0	188.4	4	64.4	4	-1E+10	1	0.0825	4	0.000319	0	-1E+10	1	-1E+10	1	-1E+10	1
4902624	7	C	08/30/2024	20:36	-128.557	47.138	0	135.10	0	7.6940	0	33.2130	0	25.917	0	133.933	0	-1e10	1	-1e10	1	-1E+10	1	-1e10	1	-1e10	1	-1E+10	1	-1E+10	1	-1E+10	1
4902624	7	C	08/30/2024	20:36	-128.557	47.138	0	135.50	0	7.6854	0	33.2154	0	25.920	0	134.330	0	187.3	4	64.0	4	-1E+10	1	0.0620	4	0.000323	0	-1E+10	1	-1E+10	1	-1E+10	1
4902624	7	C	08/30/2024	20:36	-128.557	47.138	0	136.30	0	7.6682	0	33.2202	0	25.926	0	135.122	0	186.0	4	63.5	4	-1E+10	1	0.0584	4	0.000318	0	-1E+10	1	-1E+10	1	-1E+10	1
4902624	7	C	08/30/2024	20:36	-128.557	47.138	0	137.10	0	7.6510	0	33.2250	0	25.932	0	135.915	0	180.7	4	61.7	4	-1E+10	1	0.0701	4	0.000311	0	-1E+10	1	-1E+10	1	-1E+10	1
4902624	7	C	08/30/2024	20:36	-128.557	47.138	0	138.00	0	7.6377	0	33.2354	0	25.943	0	136.807	0	183.7	4	62.7	4	-1E+10	1	0.0767	4	0.000292	0	-1E+10	1	-1E+10	1	-1E+10	1
4902624	7	C	08/30/2024	20:36	-128.557	47.138	0	138.80	0	7.6259	0	33.2447	0	25.952	0	137.600	0	182.6	4	62.3	4	-1E+10	1	0.0642	4	0.000288	0	-1E+10	1	-1E+10	1	-1E+10	1
4902624	7	C	08/30/2024	20:36	-128.557	47.138	0	139.00	0	7.6230	0	33.2470	0	25.954	0	137.798	0	-1e10	1	-1e10	1	-1E+10	1	-1e10	1	-1e10	1	-1E+10	1	-1E+10	1	-1E+10	1
4902624	7	C	08/30/2024	20:36	-128.557	47.138	0	139.60	0	7.6135	0	33.2543	0	25.961	0	138.393	0	181.4	4	61.9	4	-1E+10	1	0.0584	4	0.000307	0	-1E+10	1	-1E+10	1	-1E+10	1
4902624	7	C	08/30/2024	20:36	-128.557	47.138	0	140.40	0	7.6009	0	33.2639	0	25.970	0	139.186	0	180.3	4	61.5	4	-1E+10	1	0.0759	4	0.000307	0	-1E+10	1	-1E+10	1	-1E+10	1
4902624	7	C	08/30/2024	20:36	-128.557	47.138	0	140.90	0	7.5930	0	33.2700	0	25.976	0	139.681	0	-1e10	1	-1e10	1	-1E+10	1	-1e10	1	-1e10	1	-1E+10	1	-1E+10	1	-1E+10	1
4902624	7	C	08/30/2024	20:36	-128.557	47.138	0	141.20	0	7.5706	0	33.2804	0	25.987	0	139.978	0	179.4	4	61.1	4	-1E+10	1	0.0803	4	0.000289	0	-1E+10	1	-1E+10	1	-1E+10	1
4902624	7	C	08/30/2024	20:36	-128.557	47.138	0	142.00	0	7.5108	0	33.3082	0	26.018	0	140.771	0	178.6	4	60.8	4	-1E+10	1	0.0803	4	0.000353	0	-1E+10	1	-1E+10	1	-1E+10	1
4902624	7	C	08/30/2024	20:36	-128.557	47.138	0	142.80	0	7.4510	0	33.3360	0	26.048	0	141.564	0	177.4	4	60.3	4	-1E+10	1	0.0745	4	0.000363	0	-1E+10	1	-1E+10	1	-1E+10	1
4902624	7	C	08/30/2024	20:36	-128.557	47.138	0	143.00	0	7.4360	0	33.3430	0	26.056	0	141.762	0	-1e10	1	-1e10	1	-1E+10	1	-1e10	1	-1e10	1	-1E+10	1	-1E+10	1	-1E+10	1
4902624	7	C	08/30/2024	20:36	-128.557	47.138	0	143.70	0	7.4062	0	33.3584	0	26.072	0	142.456	0	176.5	4	60.0	4	-1E+10	1	0.0630	4	0.000315	0	-1E+10	1	-1E+10	1	-1E+10	1
4902624	7	C	08/30/2024	20:36	-128.557	47.138	0	144.60	0	7.3680	0	33.3782	0	26.093	0	143.348	0	176.3	4	59.9	4	-1E+10	1	0.0584	4	0.000356	0	-1E+10	1	-1E+10	1	-1E+10	1
4902624	7	C	08/30/2024	20:36	-128.557	47.138	0	145.00	0	7.3510	0	33.3870	0	26.102	0	143.744	0	-1e10	1	-1e10	1	-1E+10	1	-1e10	1	-1e10	1	-1E+10	1	-1E+10	1	-1E+10	1
4902624	7	C	08/30/2024	20:36	-128.557	47.138	0	145.40	0	7.3438	0	33.3920	0	26.107	0	144.141	0	176.7	4	60.0	4	-1E+10	1	0.0591	4	0.000390	0	-1E+10	1	-1E+10	1	-1E+10	1
4902624	7	C	08/30/2024	20:36	-128.557	47.138	0	146.30	0	7.3275	0	33.4031	0	26.118	0	145.032	0	176.8	4	60.0	4	-1E+10	1	0.0657	4	0.000295	0	-1E+10	1	-1E+10	1	-1E+10	1
4902624	7	C	08/30/2024	20:36	-128.557	47.138	0	147.10	0	7.3130	0	33.4130	0	26.128	0	145.825	0	-1e10	1	-1e10	1	-1E+10	1	-1e10	1	-1e10	1	-1E+10	1	-1E+10	1	-1E+10	1
4902624	7	C	08/30/2024	20:36	-128.557	47.138	0	147.20	0	7.3104	0	33.4148	0	26.130	0	145.924	0	176.7	4	59.9	4	-1E+10	1	0.0730	4	0.000365	0	-1E+10	1	-1E+10	1	-1E+10	1
4902624	7	C	08/30/2024	20:36	-128.557	47.138	0	148.10	0	7.2874	0	33.4308	0	26.145	0	146.816	0	176.4	4	59.8	4	-1E+10	1	0.0611	4	0.000308	0	-1E+10	1	-1E+10	1	-1E+10	1
4902624	7	C	08/30/2024	20:36	-128.557	47.138	0	148.90	0	7.2670	0	33.4450	0	26.159	0	147.609	0	-1e10	1	-1e10	1	-1E+10	1	-1e10	1	-1e10	1	-1E+10	1	-1E+10	1	-1E+10	1
4902624	7	C	08/30/2024	20:36	-128.557	47.138	0	149.00	0	7.2640	0	33.4471	0	26.162	0	147.708	0	176.6	4	59.8	4	-1E+10	1	0.0538	4	0.000302	0	-1E+10	1	-1E+10	1	-1E+10	1
4902624	7	C	08/30/2024	20:36	-128.557	47.138	0	149.90	0	7.2370	0	33.4660	0	26.180	0	148.600	0	176.8	4	59.9	4	-1E+10	1	0.0552	4	0.000306	0	-1E+10	1	-1E+10	1	-1E+10	1
4902624	7	C	08/30/2024	20:36	-128.557	47.138	0	150.80	0	7.2100	0	33.4849	0	26.199	0	149.492	0	176.5	4	59.8	4	-1E+10	1	0.0584	4	0.000312	0	-1E+10	1	-1E+10	1	-1E+10	1
4902624	7	C	08/30/2024	20:36	-128.557	47.138	0	150.90	0	7.2070	0	33.4870	0	26.201	0	149.591	0	-1e10	1	-1e10	1	-1E+10	1	-1e10	1	-1e10	1	-1E+10	1	-1E+10	1	-1E+10	1
4902624	7	C	08/30/2024	20:36	-128.557	47.138	0	151.70	0	7.1975	0	33.4975	0	26.210	0	150.384	0	176.2	4	59.7	4	-1E+10	1	0.0584	4	0.000321	0	-1E+10	1	-1E+10	1	-1E+10	1
4902624	7	C	08/30/2024	20:36	-128.557	47.138	0	152.70	0	7.1857	0	33.5107	0	26.222	0	151.375	0	175.7	4	59.5	4	-1E+10	1	0.0584	4	0.000330	0	-1E+10	1	-1E+10	1	-1E+10	1
4902624	7	C	08/30/2024	20:36	-128.557	47.138	0	153.10	0	7.1810	0	33.5160	0	26.227	0	151.771	0	-1e10	1	-1e10	1	-1E+10	1	-1e10	1	-1e10	1	-1E+10	1	-1E+10	1	-1E+10	1
4902624	7	C	08/30/2024	20:36	-128.557	47.138	0	153.60	0	7.1732	0	33.5235	0	26.234	0	152.266	0	175.6	4	59.4	4	-1E+10	1	0.0571	4	0.000332	0	-1E+10	1	-1E+10	1	-1E+10	1
4902624	7	C	08/30/2024	20:36	-128.557	47.138	0	154.50	0	7.1592	0	33.5370	0	26.247	0	153.158	0	175.8	4	59.5	4	-1E+10	1	0.0511	4	0.000342	0	-1E+10	1	-1E+10	1	-1E+10	1
4902624	7	C	08/30/2024	20:36	-128.557	47.138	0	154.90	0	7.1530	0	33.5430	0	26.252	0	153.555	0	-1e10	1	-1e10	1	-1E+10	1	-1e10	1	-1e10	1	-1E+10	1	-1E+10	1	-1E+10	1
4902624	7	C	08/30/2024	20:36	-128.557	47.138	0	155.40	0	7.1547	0	33.5463	0	26.255	0	154.050	0	175.9	4	59.5	4	-1E+10	1	0.0571	4	0.000361	0	-1E+10	1	-1E+10	1	-1E+10	1
4902624	7	C	08/30/2024	20:36	-128.557	47.138	0	156.30	0	7.1577	0	33.5523	0	26.259	0	154.942	0	175.9	4	59.5	4	-1E+10	1	0.0584	4	0.000310	0	-1E+10	1	-1E+10	1	-1E+10	1
4902624	7	C	08/30/2024	20:36	-128.557	47.138	0	157.00	0	7.1600	0	33.5570	0	26.262	0	155.636	0	-1e10	1	-1e10	1	-1E+10	1	-1e10	1	-1e10	1	-1E+10	1	-1E+10	1	-1E+10	1
4902624	7	C	08/30/2024	20:36	-128.557	47.138	0	157.20	0	7.1612	0	33.5582	0	26.263	0	155.834	0	175.4	4	59.4	4	-1E+10	1	0.0538	4	0.000287	0	-1E+10	1	-1E+10	1	-1E+10	1
4902624	7	C	08/30/2024	20:36	-128.557	47.138	0	158.10	0	7.1666	0	33.5636	0	26.267	0	156.726	0	174.6	4	59.1	4	-1E+10	1	0.0592	4	0.000315	0	-1E+10	1	-1E+10	1	-1E+10	1
4902624	7	C	08/30/2024	20:36	-128.557	47.138	0	159.00	0	7.1720	0	33.5690	0	26.270	0	157.618	0	-1e10	1	-1e10	1	-1E+10	1	-1e10	1	-1e10	1	-1E+10	1	-1E+10	1	-1E+10	1
4902624	7	C	08/30/2024	20:36	-128.557	47.138	0	159.10	0	7.1701	0	33.5703	0	26.272	0	157.717	0	173.7	4	58.8	4	-1E+10	1	0.0560	4	0.000334	0	-1E+10	1	-1E+10	1	-1E+10	1
4902624	7	C	08/30/2024	20:36	-128.557	47.138	0	160.00	0	7.1531	0	33.5816	0	26.283	0	158.608	0	173.3	4	58.6	4	-1E+10	1	0.0474	4	0.000318	0	-1E+10	1	-1E+10	1	-1E+10	1
4902624	7	C	08/30/2024	20:36	-128.557	47.138	0	160.90	0	7.1360	0	33.5930	0	26.294	0	159.500	0	168.5	4	57.0	4	-1E+10	1	0.0478	4	0.000338	0	-1E+10	1	-1E+10	1	-1E+10	1
4902624	7	C	08/30/2024	20:36	-128.557	47.138	0	161.90	0	7.1284	0	33.6035	0	26.303	0	160.491	0	172.8	4	58.5	4	-1E+10	1	0.0555	4	0.000407	0	-1E+10	1	-1E+10	1	-1E+10	1
4902624	7	C	08/30/2024	20:36	-128.557	47.138	0	162.90	0	7.1208	0	33.6140	0	26.313	0	161.482	0	172.9	4	58.5	4	-1E+10	1	0.0451	4	0.000339	0	-1E+10	1	-1E+10	1	-1E+10	1
4902624	7	C	08/30/2024	20:36	-128.557	47.138	0	163.00	0	7.1200	0	33.6150	0	26.314	0	161.581	0	-1e10	1	-1e10	1	-1E+10	1	-1e10	1	-1e10	1	-1E+10	1	-1E+10	1	-1E+10	1
4902624	7	C	08/30/2024	20:36	-128.557	47.138	0	163.80	0	7.1086	0	33.6217	0	26.321	0	162.374	0	172.7	4	58.4	4	-1E+10	1	0.0511	4	0.000330	0	-1E+10	1	-1E+10	1	-1E+10	1
4902624	7	C	08/30/2024	20:36	-128.557	47.138	0	164.90	0	7.0930	0	33.6310	0	26.330	0	163.464	0	168.1	4	56.8	4	-1E+10	1	0.0511	4	0.000320	0	-1E+10	1	-1E+10	1	-1E+10	1
4902624	7	C	08/30/2024	20:36	-128.557	47.138	0	165.90	0	7.0882	0	33.6367	0	26.335	0	164.455	0	172.1	4	58.2	4	-1E+10	1	0.0686	4	0.000731	0	-1E+10	1	-1E+10	1	-1E+10	1
4902624	7	C	08/30/2024	20:36	-128.557	47.138	0	166.90	0	7.0835	0	33.6424	0	26.340	0	165.446	0	171.6	4	58.0	4	-1E+10	1	0.0633	4	0.000506	0	-1E+10	1	-1E+10	1	-1E+10	1
4902624	7	C	08/30/2024	20:36	-128.557	47.138	0	167.00	0	7.0830	0	33.6430	0	26.341	0	165.545	0	-1e10	1	-1e10	1	-1E+10	1	-1e10	1	-1e10	1	-1E+10	1	-1E+10	1	-1E+10	1
4902624	7	C	08/30/2024	20:36	-128.557	47.138	0	167.90	0	7.0794	0	33.6507	0	26.347	0	166.437	0	171.1	4	57.8	4	-1E+10	1	0.0550	4	0.000341	0	-1E+10	1	-1E+10	1	-1E+10	1
4902624	7	C	08/30/2024	20:36	-128.557	47.138	0	169.00	0	7.0750	0	33.6600	0	26.355	0	167.527	0	166.0	4	56.1	4	-1E+10	1	0.0540	4	0.000346	0	-1E+10	1	-1E+10	1	-1E+10	1
4902624	7	C	08/30/2024	20:36	-128.557	47.138	0	170.00	0	7.0661	0	33.6684	0	26.363	0	168.517	0	169.8	4	57.4	4	-1E+10	1	0.0539	4	0.000353	0	-1E+10	1	-1E+10	1	-1E+10	1
4902624	7	C	08/30/2024	20:36	-128.557	47.138	0	170.90	0	7.0580	0	33.6760	0	26.370	0	169.409	0	-1e10	1	-1e10	1	-1E+10	1	-1e10	1	-1e10	1	-1E+10	1	-1E+10	1	-1E+10	1
4902624	7	C	08/30/2024	20:36	-128.557	47.138	0	171.10	0	7.0550	0	33.6770	0	26.372	0	169.607	0	169.2	4	57.2	4	-1E+10	1	0.0449	4	0.000359	0	-1E+10	1	-1E+10	1	-1E+10	1
4902624	7	C	08/30/2024	20:36	-128.557	47.138	0	172.20	0	7.0388	0	33.6828	0	26.378	0	170.697	0	168.8	4	57.0	4	-1E+10	1	0.0511	4	0.000400	0	-1E+10	1	-1E+10	1	-1E+10	1
4902624	7	C	08/30/2024	20:36	-128.557	47.138	0	173.00	0	7.0270	0	33.6870	0	26.383	0	171.490	0	-1e10	1	-1e10	1	-1E+10	1	-1e10	1	-1e10	1	-1E+10	1	-1E+10	1	-1E+10	1
4902624	7	C	08/30/2024	20:36	-128.557	47.138	0	173.30	0	7.0194	0	33.6880	0	26.385	0	171.787	0	167.9	4	56.7	4	-1E+10	1	0.0438	4	0.000388	0	-1E+10	1	-1E+10	1	-1E+10	1
4902624	7	C	08/30/2024	20:36	-128.557	47.138	0	174.40	0	6.9913	0	33.6919	0	26.392	0	172.877	0	166.5	4	56.2	4	-1E+10	1	0.0438	4	0.000425	0	-1E+10	1	-1E+10	1	-1E+10	1
4902624	7	C	08/30/2024	20:36	-128.557	47.138	0	175.00	0	6.9760	0	33.6940	0	26.396	0	173.472	0	-1e10	1	-1e10	1	-1E+10	1	-1e10	1	-1e10	1	-1E+10	1	-1E+10	1	-1E+10	1
4902624	7	C	08/30/2024	20:36	-128.557	47.138	0	175.60	0	6.9775	0	33.6997	0	26.400	0	174.066	0	165.7	4	55.9	4	-1E+10	1	0.0590	4	0.000419	0	-1E+10	1	-1E+10	1	-1E+10	1
4902624	7	C	08/30/2024	20:36	-128.557	47.138	0	176.70	0	6.9802	0	33.7102	0	26.408	0	175.156	0	165.0	4	55.7	4	-1E+10	1	0.0572	4	0.000384	0	-1E+10	1	-1E+10	1	-1E+10	1
4902624	7	C	08/30/2024	20:36	-128.557	47.138	0	177.00	0	6.9810	0	33.7130	0	26.410	0	175.453	0	-1e10	1	-1e10	1	-1E+10	1	-1e10	1	-1e10	1	-1E+10	1	-1E+10	1	-1E+10	1
4902624	7	C	08/30/2024	20:36	-128.557	47.138	0	177.90	0	6.9450	0	33.7166	0	26.418	0	176.345	0	164.1	4	55.3	4	-1E+10	1	0.0511	4	0.000377	0	-1E+10	1	-1E+10	1	-1E+10	1
4902624	7	C	08/30/2024	20:36	-128.557	47.138	0	179.00	0	6.9010	0	33.7210	0	26.427	0	177.435	0	158.8	4	53.5	4	-1E+10	1	0.0444	4	0.000385	0	-1E+10	1	-1E+10	1	-1E+10	1
4902624	7	C	08/30/2024	20:36	-128.557	47.138	0	180.10	0	6.8949	0	33.7226	0	26.429	0	178.525	0	162.1	4	54.6	4	-1E+10	1	0.0341	4	0.000375	0	-1E+10	1	-1E+10	1	-1E+10	1
4902624	7	C	08/30/2024	20:36	-128.557	47.138	0	181.00	0	6.8900	0	33.7240	0	26.431	0	179.417	0	-1e10	1	-1e10	1	-1E+10	1	-1e10	1	-1e10	1	-1E+10	1	-1E+10	1	-1E+10	1
4902624	7	C	08/30/2024	20:36	-128.557	47.138	0	181.30	0	6.8860	0	33.7252	0	26.433	0	179.714	0	160.7	4	54.1	4	-1E+10	1	0.0574	4	0.000375	0	-1E+10	1	-1E+10	1	-1E+10	1
4902624	7	C	08/30/2024	20:36	-128.557	47.138	0	182.50	0	6.8698	0	33.7300	0	26.438	0	180.903	0	159.3	4	53.6	4	-1E+10	1	0.0511	4	0.000435	0	-1E+10	1	-1E+10	1	-1E+10	1
4902624	7	C	08/30/2024	20:36	-128.557	47.138	0	183.00	0	6.8630	0	33.7320	0	26.441	0	181.398	0	-1e10	1	-1e10	1	-1E+10	1	-1e10	1	-1e10	1	-1E+10	1	-1E+10	1	-1E+10	1
4902624	7	C	08/30/2024	20:36	-128.557	47.138	0	183.70	0	6.8518	0	33.7355	0	26.445	0	182.092	0	158.0	4	53.2	4	-1E+10	1	0.0448	4	0.000395	0	-1E+10	1	-1E+10	1	-1E+10	1
4902624	7	C	08/30/2024	20:36	-128.557	47.138	0	184.80	0	6.8342	0	33.7410	0	26.452	0	183.182	0	156.6	4	52.7	4	-1E+10	1	0.0438	4	0.000371	0	-1E+10	1	-1E+10	1	-1E+10	1
4902624	7	C	08/30/2024	20:36	-128.557	47.138	0	185.00	0	6.8310	0	33.7420	0	26.453	0	183.380	0	-1e10	1	-1e10	1	-1E+10	1	-1e10	1	-1e10	1	-1E+10	1	-1E+10	1	-1E+10	1
4902624	7	C	08/30/2024	20:36	-128.557	47.138	0	186.10	0	6.8173	0	33.7442	0	26.457	0	184.470	0	155.1	4	52.2	4	-1E+10	1	0.0438	4	0.000373	0	-1E+10	1	-1E+10	1	-1E+10	1
4902624	7	C	08/30/2024	20:36	-128.557	47.138	0	187.00	0	6.8060	0	33.7460	0	26.460	0	185.362	0	-1e10	1	-1e10	1	-1E+10	1	-1e10	1	-1e10	1	-1E+10	1	-1E+10	1	-1E+10	1
4902624	7	C	08/30/2024	20:36	-128.557	47.138	0	187.20	0	6.8027	0	33.7465	0	26.461	0	185.560	0	153.7	4	51.7	4	-1E+10	1	0.0506	4	0.000366	0	-1E+10	1	-1E+10	1	-1E+10	1
4902624	7	C	08/30/2024	20:36	-128.557	47.138	0	188.50	0	6.7810	0	33.7496	0	26.466	0	186.848	0	152.2	4	51.1	4	-1E+10	1	0.0523	4	0.000373	0	-1E+10	1	-1E+10	1	-1E+10	1
4902624	7	C	08/30/2024	20:36	-128.557	47.138	0	189.10	0	6.7710	0	33.7510	0	26.468	0	187.442	0	-1e10	1	-1e10	1	-1E+10	1	-1e10	1	-1e10	1	-1E+10	1	-1E+10	1	-1E+10	1
4902624	7	C	08/30/2024	20:36	-128.557	47.138	0	189.70	0	6.7596	0	33.7523	0	26.471	0	188.037	0	150.5	4	50.5	4	-1E+10	1	0.0462	4	0.000404	0	-1E+10	1	-1E+10	1	-1E+10	1
4902624	7	C	08/30/2024	20:36	-128.557	47.138	0	190.90	0	6.7369	0	33.7548	0	26.476	0	189.226	0	148.3	4	49.8	4	-1E+10	1	0.0501	4	0.000409	0	-1E+10	1	-1E+10	1	-1E+10	1
4902624	7	C	08/30/2024	20:36	-128.557	47.138	0	191.00	0	6.7350	0	33.7550	0	26.476	0	189.325	0	-1e10	1	-1e10	1	-1E+10	1	-1e10	1	-1e10	1	-1E+10	1	-1E+10	1	-1E+10	1
4902624	7	C	08/30/2024	20:36	-128.557	47.138	0	192.20	0	6.7236	0	33.7592	0	26.481	0	190.514	0	146.0	4	49.0	4	-1E+10	1	0.0438	4	0.000388	0	-1E+10	1	-1E+10	1	-1E+10	1
4902624	7	C	08/30/2024	20:36	-128.557	47.138	0	193.00	0	6.7160	0	33.7620	0	26.484	0	191.306	0	-1e10	1	-1e10	1	-1E+10	1	-1e10	1	-1e10	1	-1E+10	1	-1E+10	1	-1E+10	1
4902624	7	C	08/30/2024	20:36	-128.557	47.138	0	193.40	0	6.7122	0	33.7634	0	26.486	0	191.702	0	143.6	4	48.2	4	-1E+10	1	0.0511	4	0.000376	0	-1E+10	1	-1E+10	1	-1E+10	1
4902624	7	C	08/30/2024	20:36	-128.557	47.138	0	194.70	0	6.6999	0	33.7680	0	26.491	0	192.990	0	141.1	4	47.3	4	-1E+10	1	0.0574	4	0.000417	0	-1E+10	1	-1E+10	1	-1E+10	1
4902624	7	C	08/30/2024	20:36	-128.557	47.138	0	195.00	0	6.6970	0	33.7690	0	26.492	0	193.288	0	-1e10	1	-1e10	1	-1E+10	1	-1e10	1	-1e10	1	-1E+10	1	-1E+10	1	-1E+10	1
4902624	7	C	08/30/2024	20:36	-128.557	47.138	0	195.90	0	6.6923	0	33.7720	0	26.495	0	194.179	0	138.6	4	46.5	4	-1E+10	1	0.0487	4	0.000376	0	-1E+10	1	-1E+10	1	-1E+10	1
4902624	7	C	08/30/2024	20:36	-128.557	47.138	0	197.10	0	6.6860	0	33.7760	0	26.499	0	195.368	0	-1e10	1	-1e10	1	-1E+10	1	-1e10	1	-1e10	1	-1E+10	1	-1E+10	1	-1E+10	1
4902624	7	C	08/30/2024	20:36	-128.557	47.138	0	197.20	0	6.6859	0	33.7766	0	26.500	0	195.467	0	136.0	4	45.6	4	-1E+10	1	0.0438	4	0.000367	0	-1E+10	1	-1E+10	1	-1E+10	1
4902624	7	C	08/30/2024	20:36	-128.557	47.138	0	198.50	0	6.6846	0	33.7851	0	26.507	0	196.755	0	133.8	4	44.9	4	-1E+10	1	0.0399	4	0.000389	0	-1E+10	1	-1E+10	1	-1E+10	1
4902624	7	C	08/30/2024	20:36	-128.557	47.138	0	199.10	0	6.6840	0	33.7890	0	26.510	0	197.350	0	-1e10	1	-1e10	1	-1E+10	1	-1e10	1	-1e10	1	-1E+10	1	-1E+10	1	-1E+10	1
4902624	7	C	08/30/2024	20:36	-128.557	47.138	0	199.70	0	6.6827	0	33.7922	0	26.513	0	197.944	0	132.7	4	44.5	4	-1E+10	1	0.0414	4	0.000404	0	-1E+10	1	-1E+10	1	-1E+10	1
4902624	7	C	08/30/2024	20:36	-128.557	47.138	0	201.00	0	6.6800	0	33.7990	0	26.518	0	199.232	0	128.3	4	43.0	4	-1E+10	1	0.0527	4	0.000407	0	-1E+10	1	-1E+10	1	-1E+10	1
4902624	7	C	08/30/2024	20:36	-128.557	47.138	0	202.30	0	6.6748	0	33.8029	0	26.522	0	200.520	0	131.2	4	44.0	4	-1E+10	1	0.0574	4	0.000390	0	-1E+10	1	-1E+10	1	-1E+10	1
4902624	7	C	08/30/2024	20:36	-128.557	47.138	0	203.00	0	6.6720	0	33.8050	0	26.524	0	201.214	0	-1e10	1	-1e10	1	-1E+10	1	-1e10	1	-1e10	1	-1E+10	1	-1E+10	1	-1E+10	1
4902624	7	C	08/30/2024	20:36	-128.557	47.138	0	203.60	0	6.6555	0	33.8056	0	26.527	0	201.808	0	130.1	4	43.6	4	-1E+10	1	0.0511	4	0.000400	0	-1E+10	1	-1E+10	1	-1E+10	1
4902624	7	C	08/30/2024	20:36	-128.557	47.138	0	204.90	0	6.6198	0	33.8069	0	26.533	0	203.096	0	128.7	4	43.1	4	-1E+10	1	0.0392	4	0.000390	0	-1E+10	1	-1E+10	1	-1E+10	1
4902624	7	C	08/30/2024	20:36	-128.557	47.138	0	205.00	0	6.6170	0	33.8070	0	26.533	0	203.195	0	-1e10	1	-1e10	1	-1E+10	1	-1e10	1	-1e10	1	-1E+10	1	-1E+10	1	-1E+10	1
4902624	7	C	08/30/2024	20:36	-128.557	47.138	0	206.20	0	6.6188	0	33.8118	0	26.537	0	204.384	0	127.7	4	42.8	4	-1E+10	1	0.0477	4	0.001056	0	-1E+10	1	-1E+10	1	-1E+10	1
4902624	7	C	08/30/2024	20:36	-128.557	47.138	0	207.00	0	6.6200	0	33.8150	0	26.539	0	205.176	0	-1e10	1	-1e10	1	-1E+10	1	-1e10	1	-1e10	1	-1E+10	1	-1E+10	1	-1E+10	1
4902624	7	C	08/30/2024	20:36	-128.557	47.138	0	207.50	0	6.6216	0	33.8163	0	26.540	0	205.672	0	127.1	4	42.6	4	-1E+10	1	0.0511	4	0.000677	0	-1E+10	1	-1E+10	1	-1E+10	1
4902624	7	C	08/30/2024	20:36	-128.557	47.138	0	208.80	0	6.6257	0	33.8197	0	26.542	0	206.960	0	126.8	4	42.5	4	-1E+10	1	0.0511	4	0.000388	0	-1E+10	1	-1E+10	1	-1E+10	1
4902624	7	C	08/30/2024	20:36	-128.557	47.138	0	208.90	0	6.6260	0	33.8200	0	26.542	0	207.059	0	-1e10	1	-1e10	1	-1E+10	1	-1e10	1	-1e10	1	-1E+10	1	-1E+10	1	-1E+10	1
4902624	7	C	08/30/2024	20:36	-128.557	47.138	0	210.10	0	6.6117	0	33.8211	0	26.545	0	208.248	0	126.5	4	42.4	4	-1E+10	1	0.0450	4	0.000403	0	-1E+10	1	-1E+10	1	-1E+10	1
4902624	7	C	08/30/2024	20:36	-128.557	47.138	0	211.00	0	6.6010	0	33.8220	0	26.547	0	209.139	0	-1e10	1	-1e10	1	-1E+10	1	-1e10	1	-1e10	1	-1E+10	1	-1E+10	1	-1E+10	1
4902624	7	C	08/30/2024	20:36	-128.557	47.138	0	211.30	0	6.5938	0	33.8220	0	26.548	0	209.436	0	126.0	4	42.2	4	-1E+10	1	0.0388	4	0.000412	0	-1E+10	1	-1E+10	1	-1E+10	1
4902624	7	C	08/30/2024	20:36	-128.557	47.138	0	212.60	0	6.5626	0	33.8220	0	26.552	0	210.724	0	125.3	4	41.9	4	-1E+10	1	0.0448	4	0.000388	0	-1E+10	1	-1E+10	1	-1E+10	1
4902624	7	C	08/30/2024	20:36	-128.557	47.138	0	213.00	0	6.5530	0	33.8220	0	26.553	0	211.120	0	-1e10	1	-1e10	1	-1E+10	1	-1e10	1	-1e10	1	-1E+10	1	-1E+10	1	-1E+10	1
4902624	7	C	08/30/2024	20:36	-128.557	47.138	0	213.90	0	6.5509	0	33.8233	0	26.555	0	212.012	0	124.7	4	41.7	4	-1E+10	1	0.0511	4	0.000388	0	-1E+10	1	-1E+10	1	-1E+10	1
4902624	7	C	08/30/2024	20:36	-128.557	47.138	0	215.10	0	6.5480	0	33.8250	0	26.556	0	213.201	0	-1e10	1	-1e10	1	-1E+10	1	-1e10	1	-1e10	1	-1E+10	1	-1E+10	1	-1E+10	1
4902624	7	C	08/30/2024	20:36	-128.557	47.138	0	215.20	0	6.5490	0	33.8254	0	26.557	0	213.300	0	124.6	4	41.7	4	-1E+10	1	0.0657	4	0.000400	0	-1E+10	1	-1E+10	1	-1E+10	1
4902624	7	C	08/30/2024	20:36	-128.557	47.138	0	216.50	0	6.5620	0	33.8302	0	26.559	0	214.588	0	124.9	4	41.8	4	-1E+10	1	0.0594	4	0.000420	0	-1E+10	1	-1E+10	1	-1E+10	1
4902624	7	C	08/30/2024	20:36	-128.557	47.138	0	217.00	0	6.5670	0	33.8320	0	26.560	0	215.083	0	-1e10	1	-1e10	1	-1E+10	1	-1e10	1	-1e10	1	-1E+10	1	-1E+10	1	-1E+10	1
4902624	7	C	08/30/2024	20:36	-128.557	47.138	0	217.80	0	6.5514	0	33.8324	0	26.562	0	215.876	0	125.4	4	41.9	4	-1E+10	1	0.0484	4	0.000391	0	-1E+10	1	-1E+10	1	-1E+10	1
4902624	7	C	08/30/2024	20:36	-128.557	47.138	0	218.90	0	6.5300	0	33.8330	0	26.565	0	216.965	0	-1e10	1	-1e10	1	-1E+10	1	-1e10	1	-1e10	1	-1E+10	1	-1E+10	1	-1E+10	1
4902624	7	C	08/30/2024	20:36	-128.557	47.138	0	219.10	0	6.5231	0	33.8326	0	26.566	0	217.163	0	125.7	4	42.0	4	-1E+10	1	0.0483	4	0.000391	0	-1E+10	1	-1E+10	1	-1E+10	1
4902624	7	C	08/30/2024	20:36	-128.557	47.138	0	220.30	0	6.4820	0	33.8303	0	26.569	0	218.352	0	125.6	4	41.9	4	-1E+10	1	0.0443	4	0.000389	0	-1E+10	1	-1E+10	1	-1E+10	1
4902624	7	C	08/30/2024	20:36	-128.557	47.138	0	221.00	0	6.4580	0	33.8290	0	26.571	0	219.046	0	-1e10	1	-1e10	1	-1E+10	1	-1e10	1	-1e10	1	-1E+10	1	-1E+10	1	-1E+10	1
4902624	7	C	08/30/2024	20:36	-128.557	47.138	0	221.70	0	6.4342	0	33.8276	0	26.573	0	219.739	0	124.9	4	41.7	4	-1E+10	1	0.0474	4	0.000403	0	-1E+10	1	-1E+10	1	-1E+10	1
4902624	7	C	08/30/2024	20:36	-128.557	47.138	0	222.90	0	6.3934	0	33.8252	0	26.577	0	220.928	0	124.0	4	41.3	4	-1E+10	1	0.0633	4	0.000439	0	-1E+10	1	-1E+10	1	-1E+10	1
4902624	7	C	08/30/2024	20:36	-128.557	47.138	0	223.00	0	6.3900	0	33.8250	0	26.577	0	221.027	0	-1e10	1	-1e10	1	-1E+10	1	-1e10	1	-1e10	1	-1E+10	1	-1E+10	1	-1E+10	1
4902624	7	C	08/30/2024	20:36	-128.557	47.138	0	224.20	0	6.3852	0	33.8274	0	26.580	0	222.216	0	123.1	4	41.0	4	-1E+10	1	0.0511	4	0.000407	0	-1E+10	1	-1E+10	1	-1E+10	1
4902624	7	C	08/30/2024	20:36	-128.557	47.138	0	225.00	0	6.3820	0	33.8290	0	26.581	0	223.008	0	-1e10	1	-1e10	1	-1E+10	1	-1e10	1	-1e10	1	-1E+10	1	-1E+10	1	-1E+10	1
4902624	7	C	08/30/2024	20:36	-128.557	47.138	0	225.40	0	6.3832	0	33.8300	0	26.582	0	223.404	0	122.4	4	40.8	4	-1E+10	1	0.0511	4	0.000435	0	-1E+10	1	-1E+10	1	-1E+10	1
4902624	7	C	08/30/2024	20:36	-128.557	47.138	0	226.60	0	6.3868	0	33.8330	0	26.584	0	224.593	0	121.8	4	40.6	4	-1E+10	1	0.0448	4	0.000374	0	-1E+10	1	-1E+10	1	-1E+10	1
4902624	7	C	08/30/2024	20:36	-128.557	47.138	0	227.00	0	6.3880	0	33.8340	0	26.585	0	224.989	0	-1e10	1	-1e10	1	-1E+10	1	-1e10	1	-1e10	1	-1E+10	1	-1E+10	1	-1E+10	1
4902624	7	C	08/30/2024	20:36	-128.557	47.138	0	227.60	0	6.3868	0	33.8352	0	26.586	0	225.584	0	121.2	4	40.4	4	-1E+10	1	0.0438	4	0.000355	0	-1E+10	1	-1E+10	1	-1E+10	1
4902624	7	C	08/30/2024	20:36	-128.557	47.138	0	228.50	0	6.3850	0	33.8370	0	26.587	0	226.475	0	120.8	4	40.2	4	-1E+10	1	0.0438	4	0.000361	0	-1E+10	1	-1E+10	1	-1E+10	1
4902624	7	C	08/30/2024	20:36	-128.557	47.138	0	229.00	0	6.3840	0	33.8380	0	26.588	0	226.970	0	-1e10	1	-1e10	1	-1E+10	1	-1e10	1	-1e10	1	-1E+10	1	-1E+10	1	-1E+10	1
4902624	7	C	08/30/2024	20:36	-128.557	47.138	0	229.30	0	6.3811	0	33.8382	0	26.589	0	227.268	0	120.4	4	40.1	4	-1E+10	1	0.0511	4	0.000693	0	-1E+10	1	-1E+10	1	-1E+10	1
4902624	7	C	08/30/2024	20:36	-128.557	47.138	0	230.10	0	6.3735	0	33.8386	0	26.590	0	228.060	0	120.0	4	40.0	4	-1E+10	1	0.0584	4	0.000806	0	-1E+10	1	-1E+10	1	-1E+10	1
4902624	7	C	08/30/2024	20:36	-128.557	47.138	0	230.90	0	6.3659	0	33.8390	0	26.591	0	228.853	0	119.6	4	39.8	4	-1E+10	1	0.0540	4	0.000485	0	-1E+10	1	-1E+10	1	-1E+10	1
4902624	7	C	08/30/2024	20:36	-128.557	47.138	0	231.00	0	6.3650	0	33.8390	0	26.592	0	228.952	0	-1e10	1	-1e10	1	-1E+10	1	-1e10	1	-1e10	1	-1E+10	1	-1E+10	1	-1E+10	1
4902624	7	C	08/30/2024	20:36	-128.557	47.138	0	231.80	0	6.3538	0	33.8394	0	26.593	0	229.744	0	119.2	4	39.7	4	-1E+10	1	0.0438	4	0.000757	0	-1E+10	1	-1E+10	1	-1E+10	1
4902624	7	C	08/30/2024	20:36	-128.557	47.138	0	232.60	0	6.3426	0	33.8398	0	26.595	0	230.537	0	118.9	4	39.6	4	-1E+10	1	0.0493	4	0.001209	0	-1E+10	1	-1E+10	1	-1E+10	1
4902624	7	C	08/30/2024	20:36	-128.557	47.138	0	233.00	0	6.3370	0	33.8400	0	26.596	0	230.933	0	-1e10	1	-1e10	1	-1E+10	1	-1e10	1	-1e10	1	-1E+10	1	-1E+10	1	-1E+10	1
4902624	7	C	08/30/2024	20:36	-128.557	47.138	0	233.40	0	6.3262	0	33.8394	0	26.597	0	231.329	0	118.4	4	39.4	4	-1E+10	1	0.0599	4	0.000827	0	-1E+10	1	-1E+10	1	-1E+10	1
4902624	7	C	08/30/2024	20:36	-128.557	47.138	0	234.20	0	6.3046	0	33.8382	0	26.599	0	232.121	0	117.9	4	39.2	4	-1E+10	1	0.0365	4	0.000423	0	-1E+10	1	-1E+10	1	-1E+10	1
4902624	7	C	08/30/2024	20:36	-128.557	47.138	0	235.00	0	6.2830	0	33.8370	0	26.601	0	232.914	0	-1e10	1	-1e10	1	-1E+10	1	-1e10	1	-1e10	1	-1E+10	1	-1E+10	1	-1E+10	1
4902624	7	C	08/30/2024	20:36	-128.557	47.138	0	235.20	0	6.2807	0	33.8369	0	26.601	0	233.112	0	114.5	4	38.1	4	-1E+10	1	0.0438	4	0.000388	0	-1E+10	1	-1E+10	1	-1E+10	1
4902624	7	C	08/30/2024	20:36	-128.557	47.138	0	236.00	0	6.2716	0	33.8365	0	26.602	0	233.904	0	116.2	4	38.6	4	-1E+10	1	0.0511	4	0.001573	0	-1E+10	1	-1E+10	1	-1E+10	1
4902624	7	C	08/30/2024	20:36	-128.557	47.138	0	236.70	0	6.2636	0	33.8362	0	26.602	0	234.598	0	115.6	4	38.4	4	-1E+10	1	0.0511	4	0.001220	0	-1E+10	1	-1E+10	1	-1E+10	1
4902624	7	C	08/30/2024	20:36	-128.557	47.138	0	237.10	0	6.2590	0	33.8360	0	26.603	0	234.994	0	-1e10	1	-1e10	1	-1E+10	1	-1e10	1	-1e10	1	-1E+10	1	-1E+10	1	-1E+10	1
4902624	7	C	08/30/2024	20:36	-128.557	47.138	0	237.40	0	6.2569	0	33.8368	0	26.604	0	235.291	0	114.8	4	38.1	4	-1E+10	1	0.0576	4	0.001579	0	-1E+10	1	-1E+10	1	-1E+10	1
4902624	7	C	08/30/2024	20:36	-128.557	47.138	0	238.30	0	6.2508	0	33.8392	0	26.606	0	236.183	0	114.1	4	37.9	4	-1E+10	1	0.0620	4	0.001285	0	-1E+10	1	-1E+10	1	-1E+10	1
4902624	7	C	08/30/2024	20:36	-128.557	47.138	0	239.00	0	6.2460	0	33.8410	0	26.608	0	236.876	0	-1e10	1	-1e10	1	-1E+10	1	-1e10	1	-1e10	1	-1E+10	1	-1E+10	1	-1E+10	1
4902624	7	C	08/30/2024	20:36	-128.557	47.138	0	239.10	0	6.2451	0	33.8411	0	26.609	0	236.975	0	113.4	4	37.7	4	-1E+10	1	0.0526	4	0.000371	0	-1E+10	1	-1E+10	1	-1E+10	1
4902624	7	C	08/30/2024	20:36	-128.557	47.138	0	239.90	0	6.2383	0	33.8424	0	26.611	0	237.768	0	112.7	4	37.4	4	-1E+10	1	0.0467	4	0.000416	0	-1E+10	1	-1E+10	1	-1E+10	1
4902624	7	C	08/30/2024	20:36	-128.557	47.138	0	240.70	0	6.2316	0	33.8436	0	26.612	0	238.560	0	112.0	4	37.2	4	-1E+10	1	0.0584	4	0.000482	0	-1E+10	1	-1E+10	1	-1E+10	1
4902624	7	C	08/30/2024	20:36	-128.557	47.138	0	241.00	0	6.2290	0	33.8440	0	26.613	0	238.857	0	-1e10	1	-1e10	1	-1E+10	1	-1e10	1	-1e10	1	-1E+10	1	-1E+10	1	-1E+10	1
4902624	7	C	08/30/2024	20:36	-128.557	47.138	0	241.50	0	6.2257	0	33.8447	0	26.614	0	239.352	0	111.3	4	36.9	4	-1E+10	1	0.0511	4	0.000517	0	-1E+10	1	-1E+10	1	-1E+10	1
4902624	7	C	08/30/2024	20:36	-128.557	47.138	0	242.30	0	6.2206	0	33.8460	0	26.616	0	240.145	0	110.5	4	36.7	4	-1E+10	1	0.0511	4	0.000423	0	-1E+10	1	-1E+10	1	-1E+10	1
4902624	7	C	08/30/2024	20:36	-128.557	47.138	0	243.00	0	6.2160	0	33.8470	0	26.617	0	240.838	0	-1e10	1	-1e10	1	-1E+10	1	-1e10	1	-1e10	1	-1E+10	1	-1E+10	1	-1E+10	1
4902624	7	C	08/30/2024	20:36	-128.557	47.138	0	243.10	0	6.2155	0	33.8473	0	26.617	0	240.937	0	109.8	4	36.4	4	-1E+10	1	0.0562	4	0.000387	0	-1E+10	1	-1E+10	1	-1E+10	1
4902624	7	C	08/30/2024	20:36	-128.557	47.138	0	243.90	0	6.2119	0	33.8493	0	26.619	0	241.730	0	109.1	4	36.2	4	-1E+10	1	0.0584	4	0.000383	0	-1E+10	1	-1E+10	1	-1E+10	1
4902624	7	C	08/30/2024	20:36	-128.557	47.138	0	244.70	0	6.2083	0	33.8512	0	26.621	0	242.522	0	108.5	4	36.0	4	-1E+10	1	0.0548	4	0.000394	0	-1E+10	1	-1E+10	1	-1E+10	1
4902624	7	C	08/30/2024	20:36	-128.557	47.138	0	245.00	0	6.2070	0	33.8520	0	26.622	0	242.819	0	-1e10	1	-1e10	1	-1E+10	1	-1e10	1	-1e10	1	-1E+10	1	-1E+10	1	-1E+10	1
4902624	7	C	08/30/2024	20:36	-128.557	47.138	0	245.50	0	6.2032	0	33.8530	0	26.623	0	243.315	0	107.9	4	35.8	4	-1E+10	1	0.0535	4	0.000384	0	-1E+10	1	-1E+10	1	-1E+10	1
4902624	7	C	08/30/2024	20:36	-128.557	47.138	0	246.30	0	6.1972	0	33.8546	0	26.625	0	244.107	0	107.3	4	35.6	4	-1E+10	1	0.0552	4	0.000368	0	-1E+10	1	-1E+10	1	-1E+10	1
4902624	7	C	08/30/2024	20:36	-128.557	47.138	0	247.00	0	6.1920	0	33.8560	0	26.627	0	244.800	0	-1e10	1	-1e10	1	-1E+10	1	-1e10	1	-1e10	1	-1E+10	1	-1E+10	1	-1E+10	1
4902624	7	C	08/30/2024	20:36	-128.557	47.138	0	247.10	0	6.1913	0	33.8562	0	26.628	0	244.899	0	106.8	4	35.4	4	-1E+10	1	0.0445	4	0.000446	0	-1E+10	1	-1E+10	1	-1E+10	1
4902624	7	C	08/30/2024	20:36	-128.557	47.138	0	248.00	0	6.1849	0	33.8579	0	26.630	0	245.791	0	106.4	4	35.3	4	-1E+10	1	0.0511	4	0.000681	0	-1E+10	1	-1E+10	1	-1E+10	1
4902624	7	C	08/30/2024	20:36	-128.557	47.138	0	248.80	0	6.1791	0	33.8594	0	26.632	0	246.583	0	105.9	4	35.1	4	-1E+10	1	0.0394	4	0.000446	0	-1E+10	1	-1E+10	1	-1E+10	1
4902624	7	C	08/30/2024	20:36	-128.557	47.138	0	249.10	0	6.1770	0	33.8600	0	26.632	0	246.880	0	-1e10	1	-1e10	1	-1E+10	1	-1e10	1	-1e10	1	-1E+10	1	-1E+10	1	-1E+10	1
4902624	7	C	08/30/2024	20:36	-128.557	47.138	0	249.70	0	6.1783	0	33.8613	0	26.633	0	247.475	0	105.6	4	35.0	4	-1E+10	1	0.0493	4	0.000398	0	-1E+10	1	-1E+10	1	-1E+10	1
4902624	7	C	08/30/2024	20:36	-128.557	47.138	0	250.50	0	6.1799	0	33.8629	0	26.634	0	248.267	0	105.2	4	34.9	4	-1E+10	1	0.0511	4	0.000391	0	-1E+10	1	-1E+10	1	-1E+10	1
4902624	7	C	08/30/2024	20:36	-128.557	47.138	0	251.00	0	6.1810	0	33.8640	0	26.635	0	248.762	0	-1e10	1	-1e10	1	-1E+10	1	-1e10	1	-1e10	1	-1E+10	1	-1E+10	1	-1E+10	1
4902624	7	C	08/30/2024	20:36	-128.557	47.138	0	251.30	0	6.1810	0	33.8641	0	26.635	0	249.059	0	104.9	4	34.8	4	-1E+10	1	0.0584	4	0.000394	0	-1E+10	1	-1E+10	1	-1E+10	1
4902624	7	C	08/30/2024	20:36	-128.557	47.138	0	252.20	0	6.1810	0	33.8646	0	26.636	0	249.951	0	104.5	4	34.7	4	-1E+10	1	0.1079	4	0.000483	0	-1E+10	1	-1E+10	1	-1E+10	1
4902624	7	C	08/30/2024	20:36	-128.557	47.138	0	253.00	0	6.1810	0	33.8650	0	26.636	0	250.743	0	101.1	4	33.5	4	-1E+10	1	0.1278	4	0.000531	0	-1E+10	1	-1E+10	1	-1E+10	1
4902624	7	C	08/30/2024	20:36	-128.557	47.138	0	253.90	0	6.1765	0	33.8655	0	26.637	0	251.635	0	103.7	4	34.4	4	-1E+10	1	0.0540	4	0.000397	0	-1E+10	1	-1E+10	1	-1E+10	1
4902624	7	C	08/30/2024	20:36	-128.557	47.138	0	254.70	0	6.1725	0	33.8659	0	26.638	0	252.427	0	103.3	4	34.2	4	-1E+10	1	0.0657	4	0.000388	0	-1E+10	1	-1E+10	1	-1E+10	1
4902624	7	C	08/30/2024	20:36	-128.557	47.138	0	255.00	0	6.1710	0	33.8660	0	26.638	0	252.724	0	-1e10	1	-1e10	1	-1E+10	1	-1e10	1	-1e10	1	-1E+10	1	-1E+10	1	-1E+10	1
4902624	7	C	08/30/2024	20:36	-128.557	47.138	0	255.50	0	6.1673	0	33.8665	0	26.639	0	253.219	0	102.8	4	34.1	4	-1E+10	1	0.0438	4	0.001092	0	-1E+10	1	-1E+10	1	-1E+10	1
4902624	7	C	08/30/2024	20:36	-128.557	47.138	0	256.40	0	6.1605	0	33.8674	0	26.640	0	254.111	0	102.3	4	33.9	4	-1E+10	1	0.0498	4	0.000583	0	-1E+10	1	-1E+10	1	-1E+10	1
4902624	7	C	08/30/2024	20:36	-128.557	47.138	0	257.00	0	6.1560	0	33.8680	0	26.641	0	254.705	0	-1e10	1	-1e10	1	-1E+10	1	-1e10	1	-1e10	1	-1E+10	1	-1E+10	1	-1E+10	1
4902624	7	C	08/30/2024	20:36	-128.557	47.138	0	257.20	0	6.1548	0	33.8682	0	26.642	0	254.903	0	101.9	4	33.8	4	-1E+10	1	0.0511	4	0.000420	0	-1E+10	1	-1E+10	1	-1E+10	1
4902624	7	C	08/30/2024	20:36	-128.557	47.138	0	258.10	0	6.1492	0	33.8690	0	26.643	0	255.795	0	101.6	4	33.7	4	-1E+10	1	0.0465	4	0.000388	0	-1E+10	1	-1E+10	1	-1E+10	1
4902624	7	C	08/30/2024	20:36	-128.557	47.138	0	258.90	0	6.1442	0	33.8698	0	26.644	0	256.587	0	101.2	4	33.6	4	-1E+10	1	0.0471	4	0.000388	0	-1E+10	1	-1E+10	1	-1E+10	1
4902624	7	C	08/30/2024	20:36	-128.557	47.138	0	259.10	0	6.1430	0	33.8700	0	26.645	0	256.785	0	-1e10	1	-1e10	1	-1E+10	1	-1e10	1	-1e10	1	-1E+10	1	-1E+10	1	-1E+10	1
4902624	7	C	08/30/2024	20:36	-128.557	47.138	0	259.80	0	6.1393	0	33.8704	0	26.645	0	257.478	0	100.9	4	33.4	4	-1E+10	1	0.0533	4	0.000398	0	-1E+10	1	-1E+10	1	-1E+10	1
4902624	7	C	08/30/2024	20:36	-128.557	47.138	0	260.70	0	6.1346	0	33.8708	0	26.646	0	258.370	0	100.6	4	33.3	4	-1E+10	1	0.0566	4	0.000405	0	-1E+10	1	-1E+10	1	-1E+10	1
4902624	7	C	08/30/2024	20:36	-128.557	47.138	0	261.00	0	6.1330	0	33.8710	0	26.647	0	258.667	0	-1e10	1	-1e10	1	-1E+10	1	-1e10	1	-1e10	1	-1E+10	1	-1E+10	1	-1E+10	1
4902624	7	C	08/30/2024	20:36	-128.557	47.138	0	261.50	0	6.1347	0	33.8722	0	26.648	0	259.162	0	100.3	4	33.2	4	-1E+10	1	0.0511	4	0.000357	0	-1E+10	1	-1E+10	1	-1E+10	1
4902624	7	C	08/30/2024	20:36	-128.557	47.138	0	262.30	0	6.1375	0	33.8742	0	26.649	0	259.954	0	100.0	4	33.1	4	-1E+10	1	0.0511	4	0.000376	0	-1E+10	1	-1E+10	1	-1E+10	1
4902624	7	C	08/30/2024	20:36	-128.557	47.138	0	263.00	0	6.1400	0	33.8760	0	26.650	0	260.648	0	-1e10	1	-1e10	1	-1E+10	1	-1e10	1	-1e10	1	-1E+10	1	-1E+10	1	-1E+10	1
4902624	7	C	08/30/2024	20:36	-128.557	47.138	0	263.20	0	6.1403	0	33.8762	0	26.650	0	260.846	0	99.7	4	33.0	4	-1E+10	1	0.0451	4	0.000376	0	-1E+10	1	-1E+10	1	-1E+10	1
4902624	7	C	08/30/2024	20:36	-128.557	47.138	0	264.10	0	6.1417	0	33.8771	0	26.651	0	261.737	0	99.4	4	32.9	4	-1E+10	1	0.0438	4	0.000923	0	-1E+10	1	-1E+10	1	-1E+10	1
4902624	7	C	08/30/2024	20:36	-128.557	47.138	0	265.00	0	6.1430	0	33.8780	0	26.651	0	262.629	0	96.3	4	31.9	4	-1E+10	1	0.0438	4	0.000562	0	-1E+10	1	-1E+10	1	-1E+10	1
4902624	7	C	08/30/2024	20:36	-128.557	47.138	0	265.90	0	6.1383	0	33.8794	0	26.653	0	263.520	0	98.8	4	32.8	4	-1E+10	1	0.0398	4	0.000353	0	-1E+10	1	-1E+10	1	-1E+10	1
4902624	7	C	08/30/2024	20:36	-128.557	47.138	0	266.80	0	6.1335	0	33.8808	0	26.655	0	264.411	0	98.7	4	32.7	4	-1E+10	1	0.0397	4	0.000354	0	-1E+10	1	-1E+10	1	-1E+10	1
4902624	7	C	08/30/2024	20:36	-128.557	47.138	0	266.90	0	6.1330	0	33.8810	0	26.655	0	264.510	0	-1e10	1	-1e10	1	-1E+10	1	-1e10	1	-1e10	1	-1E+10	1	-1E+10	1	-1E+10	1
4902624	7	C	08/30/2024	20:36	-128.557	47.138	0	267.70	0	6.1234	0	33.8810	0	26.656	0	265.303	0	98.5	4	32.6	4	-1E+10	1	0.0518	4	0.000366	0	-1E+10	1	-1E+10	1	-1E+10	1
4902624	7	C	08/30/2024	20:36	-128.557	47.138	0	268.60	0	6.1126	0	33.8810	0	26.657	0	266.194	0	98.3	4	32.6	4	-1E+10	1	0.0617	4	0.000409	0	-1E+10	1	-1E+10	1	-1E+10	1
4902624	7	C	08/30/2024	20:36	-128.557	47.138	0	268.90	0	6.1090	0	33.8810	0	26.658	0	266.491	0	-1e10	1	-1e10	1	-1E+10	1	-1e10	1	-1e10	1	-1E+10	1	-1E+10	1	-1E+10	1
4902624	7	C	08/30/2024	20:36	-128.557	47.138	0	269.50	0	6.1036	0	33.8810	0	26.658	0	267.085	0	98.0	4	32.5	4	-1E+10	1	0.0438	4	0.000399	0	-1E+10	1	-1E+10	1	-1E+10	1
4902624	7	C	08/30/2024	20:36	-128.557	47.138	0	270.50	0	6.0946	0	33.8810	0	26.660	0	268.076	0	97.7	4	32.3	4	-1E+10	1	0.0438	4	0.000341	0	-1E+10	1	-1E+10	1	-1E+10	1
4902624	7	C	08/30/2024	20:36	-128.557	47.138	0	270.90	0	6.0910	0	33.8810	0	26.660	0	268.472	0	-1e10	1	-1e10	1	-1E+10	1	-1e10	1	-1e10	1	-1E+10	1	-1E+10	1	-1E+10	1
4902624	7	C	08/30/2024	20:36	-128.557	47.138	0	271.40	0	6.0895	0	33.8812	0	26.660	0	268.967	0	97.4	4	32.2	4	-1E+10	1	0.0498	4	0.000360	0	-1E+10	1	-1E+10	1	-1E+10	1
4902624	7	C	08/30/2024	20:36	-128.557	47.138	0	272.30	0	6.0868	0	33.8817	0	26.661	0	269.859	0	97.0	4	32.1	4	-1E+10	1	0.0460	4	0.000348	0	-1E+10	1	-1E+10	1	-1E+10	1
4902624	7	C	08/30/2024	20:36	-128.557	47.138	0	272.90	0	6.0850	0	33.8820	0	26.662	0	270.453	0	-1e10	1	-1e10	1	-1E+10	1	-1e10	1	-1e10	1	-1E+10	1	-1E+10	1	-1E+10	1
4902624	7	C	08/30/2024	20:36	-128.557	47.138	0	273.20	0	6.0821	0	33.8821	0	26.662	0	270.750	0	96.8	4	32.0	4	-1E+10	1	0.0526	4	0.000341	0	-1E+10	1	-1E+10	1	-1E+10	1
4902624	7	C	08/30/2024	20:36	-128.557	47.138	0	274.10	0	6.0736	0	33.8826	0	26.664	0	271.641	0	96.6	4	32.0	4	-1E+10	1	0.0511	4	0.000352	0	-1E+10	1	-1E+10	1	-1E+10	1
4902624	7	C	08/30/2024	20:36	-128.557	47.138	0	275.00	0	6.0650	0	33.8830	0	26.665	0	272.533	0	93.6	4	31.0	4	-1E+10	1	0.0491	4	0.000385	0	-1E+10	1	-1E+10	1	-1E+10	1
4902624	7	C	08/30/2024	20:36	-128.557	47.138	0	276.00	0	6.0445	0	33.8835	0	26.668	0	273.523	0	96.0	4	31.7	4	-1E+10	1	0.0584	4	0.000394	0	-1E+10	1	-1E+10	1	-1E+10	1
4902624	7	C	08/30/2024	20:36	-128.557	47.138	0	276.90	0	6.0261	0	33.8839	0	26.671	0	274.414	0	95.6	4	31.6	4	-1E+10	1	0.0584	4	0.000325	0	-1E+10	1	-1E+10	1	-1E+10	1
4902624	7	C	08/30/2024	20:36	-128.557	47.138	0	277.00	0	6.0240	0	33.8840	0	26.671	0	274.513	0	-1e10	1	-1e10	1	-1E+10	1	-1e10	1	-1e10	1	-1E+10	1	-1E+10	1	-1E+10	1
4902624	7	C	08/30/2024	20:36	-128.557	47.138	0	277.90	0	5.9934	0	33.8835	0	26.674	0	275.405	0	95.0	4	31.4	4	-1E+10	1	0.0584	4	0.000305	0	-1E+10	1	-1E+10	1	-1E+10	1
4902624	7	C	08/30/2024	20:36	-128.557	47.138	0	278.80	0	5.9628	0	33.8831	0	26.678	0	276.296	0	94.4	4	31.1	4	-1E+10	1	0.0524	4	0.000313	0	-1E+10	1	-1E+10	1	-1E+10	1
4902624	7	C	08/30/2024	20:36	-128.557	47.138	0	279.00	0	5.9560	0	33.8830	0	26.679	0	276.494	0	-1e10	1	-1e10	1	-1E+10	1	-1e10	1	-1e10	1	-1E+10	1	-1E+10	1	-1E+10	1
4902624	7	C	08/30/2024	20:36	-128.557	47.138	0	279.80	0	5.9440	0	33.8826	0	26.680	0	277.286	0	93.7	4	30.9	4	-1E+10	1	0.0569	4	0.000354	0	-1E+10	1	-1E+10	1	-1E+10	1
4902624	7	C	08/30/2024	20:36	-128.557	47.138	0	280.70	0	5.9305	0	33.8821	0	26.681	0	278.178	0	92.9	4	30.6	4	-1E+10	1	0.0491	4	0.000334	0	-1E+10	1	-1E+10	1	-1E+10	1
4902624	7	C	08/30/2024	20:36	-128.557	47.138	0	281.00	0	5.9260	0	33.8820	0	26.682	0	278.475	0	-1e10	1	-1e10	1	-1E+10	1	-1e10	1	-1e10	1	-1E+10	1	-1E+10	1	-1E+10	1
4902624	7	C	08/30/2024	20:36	-128.557	47.138	0	281.70	0	5.9231	0	33.8824	0	26.682	0	279.168	0	92.0	4	30.3	4	-1E+10	1	0.0474	4	0.000305	0	-1E+10	1	-1E+10	1	-1E+10	1
4902624	7	C	08/30/2024	20:36	-128.557	47.138	0	282.70	0	5.9188	0	33.8829	0	26.683	0	280.158	0	91.1	4	30.0	4	-1E+10	1	0.0511	4	0.000303	0	-1E+10	1	-1E+10	1	-1E+10	1
4902624	7	C	08/30/2024	20:36	-128.557	47.138	0	282.90	0	5.9180	0	33.8830	0	26.683	0	280.356	0	-1e10	1	-1e10	1	-1E+10	1	-1e10	1	-1e10	1	-1E+10	1	-1E+10	1	-1E+10	1
4902624	7	C	08/30/2024	20:36	-128.557	47.138	0	283.70	0	5.9233	0	33.8845	0	26.684	0	281.149	0	90.2	4	29.7	4	-1E+10	1	0.0511	4	0.000321	0	-1E+10	1	-1E+10	1	-1E+10	1
4902624	7	C	08/30/2024	20:36	-128.557	47.138	0	284.70	0	5.9300	0	33.8864	0	26.685	0	282.139	0	89.5	4	29.5	4	-1E+10	1	0.0487	4	0.000337	0	-1E+10	1	-1E+10	1	-1E+10	1
4902624	7	C	08/30/2024	20:36	-128.557	47.138	0	285.00	0	5.9320	0	33.8870	0	26.685	0	282.436	0	-1e10	1	-1e10	1	-1E+10	1	-1e10	1	-1e10	1	-1E+10	1	-1E+10	1	-1E+10	1
4902624	7	C	08/30/2024	20:36	-128.557	47.138	0	285.70	0	5.9342	0	33.8914	0	26.688	0	283.129	0	89.2	4	29.4	4	-1E+10	1	0.0365	4	0.000376	0	-1E+10	1	-1E+10	1	-1E+10	1
4902624	7	C	08/30/2024	20:36	-128.557	47.138	0	286.60	0	5.9371	0	33.8971	0	26.692	0	284.021	0	89.3	4	29.4	4	-1E+10	1	0.0511	4	0.000352	0	-1E+10	1	-1E+10	1	-1E+10	1
4902624	7	C	08/30/2024	20:36	-128.557	47.138	0	286.90	0	5.9380	0	33.8990	0	26.694	0	284.318	0	-1e10	1	-1e10	1	-1E+10	1	-1e10	1	-1e10	1	-1E+10	1	-1E+10	1	-1E+10	1
4902624	7	C	08/30/2024	20:36	-128.557	47.138	0	287.60	0	5.9212	0	33.8986	0	26.695	0	285.011	0	89.2	4	29.4	4	-1E+10	1	0.0572	4	0.000372	0	-1E+10	1	-1E+10	1	-1E+10	1
4902624	7	C	08/30/2024	20:36	-128.557	47.138	0	288.60	0	5.8972	0	33.8981	0	26.698	0	286.001	0	89.0	4	29.3	4	-1E+10	1	0.0487	4	0.000344	0	-1E+10	1	-1E+10	1	-1E+10	1
4902624	7	C	08/30/2024	20:36	-128.557	47.138	0	288.90	0	5.8900	0	33.8980	0	26.699	0	286.298	0	-1e10	1	-1e10	1	-1E+10	1	-1e10	1	-1e10	1	-1E+10	1	-1E+10	1	-1E+10	1
4902624	7	C	08/30/2024	20:36	-128.557	47.138	0	289.60	0	5.8781	0	33.8973	0	26.700	0	286.991	0	88.7	4	29.2	4	-1E+10	1	0.0438	4	0.000322	0	-1E+10	1	-1E+10	1	-1E+10	1
4902624	7	C	08/30/2024	20:36	-128.557	47.138	0	290.60	0	5.8611	0	33.8963	0	26.701	0	287.982	0	88.4	4	29.1	4	-1E+10	1	0.0474	4	0.000311	0	-1E+10	1	-1E+10	1	-1E+10	1
4902624	7	C	08/30/2024	20:36	-128.557	47.138	0	290.90	0	5.8560	0	33.8960	0	26.701	0	288.279	0	-1e10	1	-1e10	1	-1E+10	1	-1e10	1	-1e10	1	-1E+10	1	-1E+10	1	-1E+10	1
4902624	7	C	08/30/2024	20:36	-128.557	47.138	0	291.60	0	5.8448	0	33.8953	0	26.702	0	288.972	0	87.9	4	28.9	4	-1E+10	1	0.0511	4	0.000296	0	-1E+10	1	-1E+10	1	-1E+10	1
4902624	7	C	08/30/2024	20:36	-128.557	47.138	0	292.60	0	5.8288	0	33.8943	0	26.703	0	289.962	0	87.3	4	28.7	4	-1E+10	1	0.0511	4	0.000286	0	-1E+10	1	-1E+10	1	-1E+10	1
4902624	7	C	08/30/2024	20:36	-128.557	47.138	0	292.90	0	5.8240	0	33.8940	0	26.704	0	290.259	0	-1e10	1	-1e10	1	-1E+10	1	-1e10	1	-1e10	1	-1E+10	1	-1E+10	1	-1E+10	1
4902624	7	C	08/30/2024	20:36	-128.557	47.138	0	293.60	0	5.8219	0	33.8944	0	26.704	0	290.953	0	86.6	4	28.5	4	-1E+10	1	0.0511	4	0.000296	0	-1E+10	1	-1E+10	1	-1E+10	1
4902624	7	C	08/30/2024	20:36	-128.557	47.138	0	294.90	0	5.8180	0	33.8950	0	26.705	0	292.240	0	-1e10	1	-1e10	1	-1E+10	1	-1e10	1	-1e10	1	-1E+10	1	-1E+10	1	-1E+10	1
4902624	7	C	08/30/2024	20:36	-128.557	47.138	0	297.00	0	5.7980	0	33.8970	0	26.709	0	294.320	0	-1e10	1	-1e10	1	-1E+10	1	-1e10	1	-1e10	1	-1E+10	1	-1E+10	1	-1E+10	1
4902624	7	C	08/30/2024	20:36	-128.557	47.138	0	299.00	0	5.8040	0	33.9030	0	26.713	0	296.300	0	-1e10	1	-1e10	1	-1E+10	1	-1e10	1	-1e10	1	-1E+10	1	-1E+10	1	-1E+10	1
4902624	7	C	08/30/2024	20:36	-128.557	47.138	0	303.90	0	5.7615	0	33.9054	0	26.721	0	301.152	0	81.9	4	26.9	4	-1E+10	1	0.0511	4	0.000362	0	-1E+10	1	-1E+10	1	-1E+10	1
4902624	7	C	08/30/2024	20:36	-128.557	47.138	0	305.00	0	5.7520	0	33.9060	0	26.722	0	302.241	0	-1e10	1	-1e10	1	-1E+10	1	-1e10	1	-1e10	1	-1E+10	1	-1E+10	1	-1E+10	1
4902624	7	C	08/30/2024	20:36	-128.557	47.138	0	314.40	0	5.6912	0	33.9136	0	26.736	0	311.549	0	77.9	4	25.5	4	-1E+10	1	0.0514	4	0.000329	0	-1E+10	1	-1E+10	1	-1E+10	1
4902624	7	C	08/30/2024	20:36	-128.557	47.138	0	314.90	0	5.6880	0	33.9140	0	26.736	0	312.044	0	-1e10	1	-1e10	1	-1E+10	1	-1e10	1	-1e10	1	-1E+10	1	-1E+10	1	-1E+10	1
4902624	7	C	08/30/2024	20:36	-128.557	47.138	0	325.10	0	5.6810	0	33.9270	0	26.748	0	322.144	0	73.1	4	24.0	4	-1E+10	1	0.0581	4	0.000342	0	-1E+10	1	-1E+10	1	-1E+10	1
4902624	7	C	08/30/2024	20:36	-128.557	47.138	0	335.00	0	5.5740	0	33.9240	0	26.758	0	331.946	0	-1e10	1	-1e10	1	-1E+10	1	-1e10	1	-1e10	1	-1E+10	1	-1E+10	1	-1E+10	1
4902624	7	C	08/30/2024	20:36	-128.557	47.138	0	336.00	0	5.5598	0	33.9230	0	26.759	0	332.936	0	77.0	4	25.2	4	-1E+10	1	0.0508	4	0.000395	0	-1E+10	1	-1E+10	1	-1E+10	1
4902624	7	C	08/30/2024	20:36	-128.557	47.138	0	345.00	0	5.4320	0	33.9140	0	26.767	0	341.847	0	-1e10	1	-1e10	1	-1E+10	1	-1e10	1	-1e10	1	-1E+10	1	-1E+10	1	-1E+10	1
4902624	7	C	08/30/2024	20:36	-128.557	47.138	0	347.10	0	5.3956	0	33.9121	0	26.770	0	343.926	0	77.8	4	25.3	4	-1E+10	1	0.0448	4	0.000316	0	-1E+10	1	-1E+10	1	-1E+10	1
4902624	7	C	08/30/2024	20:36	-128.557	47.138	0	355.10	0	5.2570	0	33.9050	0	26.781	0	351.846	0	-1e10	1	-1e10	1	-1E+10	1	-1e10	1	-1e10	1	-1E+10	1	-1E+10	1	-1E+10	1
4902624	7	C	08/30/2024	20:36	-128.557	47.138	0	358.10	0	5.2187	0	33.9047	0	26.785	0	354.816	0	76.5	4	24.8	4	-1E+10	1	0.0650	4	0.000306	0	-1E+10	1	-1E+10	1	-1E+10	1
4902624	7	C	08/30/2024	20:36	-128.557	47.138	0	365.20	0	5.1280	0	33.9040	0	26.795	0	361.844	0	-1e10	1	-1e10	1	-1E+10	1	-1e10	1	-1e10	1	-1E+10	1	-1E+10	1	-1E+10	1
4902624	7	C	08/30/2024	20:36	-128.557	47.138	0	369.20	0	5.0984	0	33.9076	0	26.801	0	365.804	0	70.8	4	22.9	4	-1E+10	1	0.0506	4	0.000337	0	-1E+10	1	-1E+10	1	-1E+10	1
4902624	7	C	08/30/2024	20:36	-128.557	47.138	0	375.20	0	5.0540	0	33.9130	0	26.811	0	371.744	0	-1e10	1	-1e10	1	-1E+10	1	-1e10	1	-1e10	1	-1E+10	1	-1E+10	1	-1E+10	1
4902624	7	C	08/30/2024	20:36	-128.557	47.138	0	380.40	0	5.0635	0	33.9261	0	26.820	0	376.891	0	62.8	4	20.3	4	-1E+10	1	0.0378	4	0.000270	0	-1E+10	1	-1E+10	1	-1E+10	1
4902624	7	C	08/30/2024	20:36	-128.557	47.138	0	385.10	0	5.0720	0	33.9380	0	26.829	0	381.543	0	-1e10	1	-1e10	1	-1E+10	1	-1e10	1	-1e10	1	-1E+10	1	-1E+10	1	-1E+10	1
4902624	7	C	08/30/2024	20:36	-128.557	47.138	0	391.70	0	5.1262	0	33.9583	0	26.839	0	388.076	0	54.6	4	17.7	4	-1E+10	1	0.0654	4	0.000281	0	-1E+10	1	-1E+10	1	-1E+10	1
4902624	7	C	08/30/2024	20:36	-128.557	47.138	0	395.20	0	5.1550	0	33.9690	0	26.844	0	391.541	0	-1e10	1	-1e10	1	-1E+10	1	-1e10	1	-1e10	1	-1E+10	1	-1E+10	1	-1E+10	1
4902624	7	C	08/30/2024	20:36	-128.557	47.138	0	403.30	0	5.1650	0	33.9815	0	26.853	0	399.558	0	50.3	4	16.3	4	-1E+10	1	0.0584	4	0.000290	0	-1E+10	1	-1E+10	1	-1E+10	1
4902624	7	C	08/30/2024	20:36	-128.557	47.138	0	404.90	0	5.1670	0	33.9840	0	26.854	0	401.141	0	-1e10	1	-1e10	1	-1E+10	1	-1e10	1	-1e10	1	-1E+10	1	-1E+10	1	-1E+10	1
4902624	7	C	08/30/2024	20:36	-128.557	47.138	0	414.80	0	5.1347	0	33.9977	0	26.869	0	410.940	0	47.2	4	15.3	4	-1E+10	1	0.0587	4	0.000244	0	-1E+10	1	-1E+10	1	-1E+10	1
4902624	7	C	08/30/2024	20:36	-128.557	47.138	0	415.00	0	5.1340	0	33.9980	0	26.869	0	411.138	0	-1e10	1	-1e10	1	-1E+10	1	-1e10	1	-1e10	1	-1E+10	1	-1E+10	1	-1E+10	1
4902624	7	C	08/30/2024	20:36	-128.557	47.138	0	425.00	0	5.0850	0	34.0080	0	26.883	0	421.034	0	-1e10	1	-1e10	1	-1E+10	1	-1e10	1	-1e10	1	-1E+10	1	-1E+10	1	-1E+10	1
4902624	7	C	08/30/2024	20:36	-128.557	47.138	0	426.20	0	5.0789	0	34.0090	0	26.884	0	422.222	0	44.6	4	14.4	4	-1E+10	1	0.0660	4	0.000222	0	-1E+10	1	-1E+10	1	-1E+10	1
4902624	7	C	08/30/2024	20:36	-128.557	47.138	0	434.90	0	5.0350	0	34.0160	0	26.895	0	430.832	0	-1e10	1	-1e10	1	-1E+10	1	-1e10	1	-1e10	1	-1E+10	1	-1E+10	1	-1E+10	1
4902624	7	C	08/30/2024	20:36	-128.557	47.138	0	437.60	0	5.0139	0	34.0171	0	26.898	0	433.504	0	42.8	4	13.8	4	-1E+10	1	0.0720	4	0.000223	0	-1E+10	1	-1E+10	1	-1E+10	1
4902624	7	C	08/30/2024	20:36	-128.557	47.138	0	445.00	0	4.9560	0	34.0200	0	26.907	0	440.826	0	-1e10	1	-1e10	1	-1E+10	1	-1e10	1	-1e10	1	-1E+10	1	-1E+10	1	-1E+10	1
4902624	7	C	08/30/2024	20:36	-128.557	47.138	0	449.00	0	4.9309	0	34.0231	0	26.913	0	444.785	0	40.7	4	13.1	4	-1E+10	1	0.0508	4	0.000244	0	-1E+10	1	-1E+10	1	-1E+10	1
4902624	7	C	08/30/2024	20:36	-128.557	47.138	0	455.20	0	4.8920	0	34.0280	0	26.921	0	450.920	0	-1e10	1	-1e10	1	-1E+10	1	-1e10	1	-1e10	1	-1E+10	1	-1E+10	1	-1E+10	1
4902624	7	C	08/30/2024	20:36	-128.557	47.138	0	460.50	0	4.8585	0	34.0323	0	26.928	0	456.164	0	38.7	4	12.5	4	-1E+10	1	0.0448	4	0.000221	0	-1E+10	1	-1E+10	1	-1E+10	1
4902624	7	C	08/30/2024	20:36	-128.557	47.138	0	465.00	0	4.8300	0	34.0360	0	26.934	0	460.617	0	-1e10	1	-1e10	1	-1E+10	1	-1e10	1	-1e10	1	-1E+10	1	-1E+10	1	-1E+10	1
4902624	7	C	08/30/2024	20:36	-128.557	47.138	0	469.10	0	4.8060	0	34.0389	0	26.939	0	464.674	0	37.4	4	12.0	4	-1E+10	1	0.0652	4	0.000209	0	-1E+10	1	-1E+10	1	-1E+10	1
4902624	7	C	08/30/2024	20:36	-128.557	47.138	0	474.90	0	4.7720	0	34.0430	0	26.946	0	470.412	0	-1e10	1	-1e10	1	-1E+10	1	-1e10	1	-1e10	1	-1E+10	1	-1E+10	1	-1E+10	1
4902624	7	C	08/30/2024	20:36	-128.557	47.138	0	477.10	0	4.7621	0	34.0445	0	26.949	0	472.589	0	36.1	4	11.6	4	-1E+10	1	0.0514	4	0.000186	0	-1E+10	1	-1E+10	1	-1E+10	1
4902624	7	C	08/30/2024	20:36	-128.557	47.138	0	484.90	0	4.7270	0	34.0500	0	26.957	0	480.306	0	-1e10	1	-1e10	1	-1E+10	1	-1e10	1	-1e10	1	-1E+10	1	-1E+10	1	-1E+10	1
4902624	7	C	08/30/2024	20:36	-128.557	47.138	0	485.60	0	4.7255	0	34.0506	0	26.958	0	480.999	0	34.4	4	11.0	4	-1E+10	1	0.0584	4	0.000186	0	-1E+10	1	-1E+10	1	-1E+10	1
4902624	7	C	08/30/2024	20:36	-128.557	47.138	0	494.40	0	4.7063	0	34.0585	0	26.966	0	489.705	0	32.3	4	10.4	4	-1E+10	1	0.0587	4	0.000196	0	-1E+10	1	-1E+10	1	-1E+10	1
4902624	7	C	08/30/2024	20:36	-128.557	47.138	0	495.00	0	4.7050	0	34.0590	0	26.967	0	490.299	0	-1e10	1	-1e10	1	-1E+10	1	-1e10	1	-1e10	1	-1E+10	1	-1E+10	1	-1E+10	1
4902624	7	C	08/30/2024	20:36	-128.557	47.138	0	503.60	0	4.6876	0	34.0703	0	26.978	0	498.807	0	30.6	4	9.8	4	-1E+10	1	0.0654	4	0.000151	0	-1E+10	1	-1E+10	1	-1E+10	1
4902624	7	C	08/30/2024	20:36	-128.557	47.138	0	504.90	0	4.6850	0	34.0720	0	26.979	0	500.093	0	-1e10	1	-1e10	1	-1E+10	1	-1e10	1	-1e10	1	-1E+10	1	-1E+10	1	-1E+10	1
4902624	7	C	08/30/2024	20:36	-128.557	47.138	0	513.00	0	4.6081	0	34.0744	0	26.990	0	508.106	0	30.4	4	9.7	4	-1E+10	1	0.0581	4	0.000163	0	-1E+10	1	-1E+10	1	-1E+10	1
4902624	7	C	08/30/2024	20:36	-128.557	47.138	0	514.90	0	4.5900	0	34.0750	0	26.992	0	509.985	0	-1e10	1	-1e10	1	-1E+10	1	-1e10	1	-1e10	1	-1E+10	1	-1E+10	1	-1E+10	1
4902624	7	C	08/30/2024	20:36	-128.557	47.138	0	522.80	0	4.5394	0	34.0774	0	27.000	0	517.800	0	28.9	4	9.2	4	-1E+10	1	0.0514	4	0.000185	0	-1E+10	1	-1E+10	1	-1E+10	1
4902624	7	C	08/30/2024	20:36	-128.557	47.138	0	524.90	0	4.5260	0	34.0780	0	27.002	0	519.877	0	-1e10	1	-1e10	1	-1E+10	1	-1e10	1	-1e10	1	-1E+10	1	-1E+10	1	-1E+10	1
4902624	7	C	08/30/2024	20:36	-128.557	47.138	0	532.90	0	4.5155	0	34.0869	0	27.010	0	527.790	0	26.9	4	8.6	4	-1E+10	1	0.0581	4	0.000162	0	-1E+10	1	-1E+10	1	-1E+10	1
4902624	7	C	08/30/2024	20:36	-128.557	47.138	0	534.80	0	4.5130	0	34.0890	0	27.012	0	529.670	0	-1e10	1	-1e10	1	-1E+10	1	-1e10	1	-1e10	1	-1E+10	1	-1E+10	1	-1E+10	1
4902624	7	C	08/30/2024	20:36	-128.557	47.138	0	543.00	0	4.4846	0	34.0947	0	27.019	0	537.781	0	25.2	4	8.0	4	-1E+10	1	0.0514	4	0.000162	0	-1E+10	1	-1E+10	1	-1E+10	1
4902624	7	C	08/30/2024	20:36	-128.557	47.138	0	544.90	0	4.4780	0	34.0960	0	27.021	0	539.660	0	-1e10	1	-1e10	1	-1E+10	1	-1e10	1	-1e10	1	-1E+10	1	-1E+10	1	-1E+10	1
4902624	7	C	08/30/2024	20:36	-128.557	47.138	0	553.60	0	4.4632	0	34.1056	0	27.030	0	548.265	0	23.4	4	7.5	4	-1E+10	1	0.0584	4	0.000151	0	-1E+10	1	-1E+10	1	-1E+10	1
4902624	7	C	08/30/2024	20:36	-128.557	47.138	0	554.90	0	4.4610	0	34.1070	0	27.032	0	549.551	0	-1e10	1	-1e10	1	-1E+10	1	-1e10	1	-1e10	1	-1E+10	1	-1E+10	1	-1E+10	1
4902624	7	C	08/30/2024	20:36	-128.557	47.138	0	564.10	0	4.4300	0	34.1170	0	27.043	0	558.649	0	21.9	4	7.0	4	-1E+10	1	0.0581	4	0.000162	0	-1E+10	1	-1E+10	1	-1E+10	1
4902624	7	C	08/30/2024	20:36	-128.557	47.138	0	565.00	0	4.4270	0	34.1180	0	27.044	0	559.540	0	-1e10	1	-1e10	1	-1E+10	1	-1e10	1	-1e10	1	-1E+10	1	-1E+10	1	-1E+10	1
4902624	7	C	08/30/2024	20:36	-128.557	47.138	0	574.90	0	4.4140	0	34.1260	0	27.052	0	569.330	0	-1e10	1	-1e10	1	-1E+10	1	-1e10	1	-1e10	1	-1E+10	1	-1E+10	1	-1E+10	1
4902624	7	C	08/30/2024	20:36	-128.557	47.138	0	575.00	0	4.4135	0	34.1260	0	27.052	0	569.429	0	20.6	4	6.6	4	-1E+10	1	0.0514	4	0.000172	0	-1E+10	1	-1E+10	1	-1E+10	1
4902624	7	C	08/30/2024	20:36	-128.557	47.138	0	585.00	0	4.3620	0	34.1310	0	27.062	0	579.318	0	-1e10	1	-1e10	1	-1E+10	1	-1e10	1	-1e10	1	-1E+10	1	-1E+10	1	-1E+10	1
4902624	7	C	08/30/2024	20:36	-128.557	47.138	0	586.00	0	4.3607	0	34.1317	0	27.062	0	580.307	0	19.5	4	6.2	4	-1E+10	1	0.0584	4	0.000139	0	-1E+10	1	-1E+10	1	-1E+10	1
4902624	7	C	08/30/2024	20:36	-128.557	47.138	0	594.80	0	4.3490	0	34.1380	0	27.069	0	589.009	0	-1e10	1	-1e10	1	-1E+10	1	-1e10	1	-1e10	1	-1E+10	1	-1E+10	1	-1E+10	1
4902624	7	C	08/30/2024	20:36	-128.557	47.138	0	597.20	0	4.3516	0	34.1408	0	27.071	0	591.383	0	18.0	4	5.7	4	-1E+10	1	0.0578	4	0.000150	0	-1E+10	1	-1E+10	1	-1E+10	1
4902624	7	C	08/30/2024	20:36	-128.557	47.138	0	605.00	0	4.3600	0	34.1500	0	27.077	0	599.095	0	-1e10	1	-1e10	1	-1E+10	1	-1e10	1	-1e10	1	-1E+10	1	-1E+10	1	-1E+10	1
4902624	7	C	08/30/2024	20:36	-128.557	47.138	0	608.40	0	4.3542	0	34.1541	0	27.081	0	602.457	0	16.4	4	5.2	4	-1E+10	1	0.0441	4	0.000162	0	-1E+10	1	-1E+10	1	-1E+10	1
4902624	7	C	08/30/2024	20:36	-128.557	47.138	0	615.00	0	4.3430	0	34.1620	0	27.089	0	608.983	0	-1e10	1	-1e10	1	-1E+10	1	-1e10	1	-1e10	1	-1E+10	1	-1E+10	1	-1E+10	1
4902624	7	C	08/30/2024	20:36	-128.557	47.138	0	620.10	0	4.3368	0	34.1666	0	27.093	0	614.026	0	15.4	4	4.9	4	-1E+10	1	0.0511	4	0.000185	0	-1E+10	1	-1E+10	1	-1E+10	1
4902624	7	C	08/30/2024	20:36	-128.557	47.138	0	624.90	0	4.3310	0	34.1710	0	27.097	0	618.772	0	-1e10	1	-1e10	1	-1E+10	1	-1e10	1	-1e10	1	-1E+10	1	-1E+10	1	-1E+10	1
4902624	7	C	08/30/2024	20:36	-128.557	47.138	0	631.80	0	4.3208	0	34.1751	0	27.102	0	625.594	0	14.5	4	4.6	4	-1E+10	1	0.0509	4	0.000184	0	-1E+10	1	-1E+10	1	-1E+10	1
4902624	7	C	08/30/2024	20:36	-128.557	47.138	0	635.00	0	4.3160	0	34.1770	0	27.104	0	628.757	0	-1e10	1	-1e10	1	-1E+10	1	-1e10	1	-1e10	1	-1E+10	1	-1E+10	1	-1E+10	1
4902624	7	C	08/30/2024	20:36	-128.557	47.138	0	644.00	0	4.3015	0	34.1870	0	27.113	0	637.655	0	13.5	4	4.3	4	-1E+10	1	0.0446	4	0.000171	0	-1E+10	1	-1E+10	1	-1E+10	1
4902624	7	C	08/30/2024	20:36	-128.557	47.138	0	644.90	0	4.3000	0	34.1880	0	27.114	0	638.545	0	-1e10	1	-1e10	1	-1E+10	1	-1e10	1	-1e10	1	-1E+10	1	-1E+10	1	-1E+10	1
4902624	7	C	08/30/2024	20:36	-128.557	47.138	0	652.90	0	4.2663	0	34.1943	0	27.123	0	646.454	0	13.1	4	4.2	4	-1E+10	1	0.0580	4	0.000138	0	-1E+10	1	-1E+10	1	-1E+10	1
4902624	7	C	08/30/2024	20:36	-128.557	47.138	0	655.10	0	4.2570	0	34.1960	0	27.125	0	648.628	0	-1e10	1	-1e10	1	-1E+10	1	-1e10	1	-1e10	1	-1E+10	1	-1E+10	1	-1E+10	1
4902624	7	C	08/30/2024	20:36	-128.557	47.138	0	660.80	0	4.2406	0	34.1988	0	27.129	0	654.263	0	12.7	4	4.0	4	-1E+10	1	0.0507	4	0.000150	0	-1E+10	1	-1E+10	1	-1E+10	1
4902624	7	C	08/30/2024	20:36	-128.557	47.138	0	665.20	0	4.2280	0	34.2010	0	27.132	0	658.613	0	-1e10	1	-1e10	1	-1E+10	1	-1e10	1	-1e10	1	-1E+10	1	-1E+10	1	-1E+10	1
4902624	7	C	08/30/2024	20:36	-128.557	47.138	0	669.00	0	4.2292	0	34.2049	0	27.135	0	662.369	0	12.1	4	3.8	4	-1E+10	1	0.0449	4	0.000162	0	-1E+10	1	-1E+10	1	-1E+10	1
4902624	7	C	08/30/2024	20:36	-128.557	47.138	0	675.00	0	4.2310	0	34.2110	0	27.140	0	668.300	0	-1e10	1	-1e10	1	-1E+10	1	-1e10	1	-1e10	1	-1E+10	1	-1E+10	1	-1E+10	1
4902624	7	C	08/30/2024	20:36	-128.557	47.138	0	677.30	0	4.2333	0	34.2145	0	27.142	0	670.573	0	11.4	4	3.6	4	-1E+10	1	0.0650	4	0.000184	0	-1E+10	1	-1E+10	1	-1E+10	1
4902624	7	C	08/30/2024	20:36	-128.557	47.138	0	685.00	0	4.2410	0	34.2260	0	27.151	0	678.184	0	-1e10	1	-1e10	1	-1E+10	1	-1e10	1	-1e10	1	-1E+10	1	-1E+10	1	-1E+10	1
4902624	7	C	08/30/2024	20:36	-128.557	47.138	0	685.80	0	4.2368	0	34.2263	0	27.152	0	678.975	0	11.0	4	3.5	4	-1E+10	1	0.0518	4	0.000183	0	-1E+10	1	-1E+10	1	-1E+10	1
4902624	7	C	08/30/2024	20:36	-128.557	47.138	0	694.30	0	4.1922	0	34.2298	0	27.159	0	687.377	0	10.7	4	3.4	4	-1E+10	1	0.0654	4	0.000171	0	-1E+10	1	-1E+10	1	-1E+10	1
4902624	7	C	08/30/2024	20:36	-128.557	47.138	0	694.90	0	4.1890	0	34.2300	0	27.159	0	687.970	0	-1e10	1	-1e10	1	-1E+10	1	-1e10	1	-1e10	1	-1E+10	1	-1E+10	1	-1E+10	1
4902624	7	C	08/30/2024	20:36	-128.557	47.138	0	703.10	0	4.1673	0	34.2340	0	27.165	0	696.074	0	10.3	4	3.3	4	-1E+10	1	0.0587	4	0.000148	0	-1E+10	1	-1E+10	1	-1E+10	1
4902624	7	C	08/30/2024	20:36	-128.557	47.138	0	705.10	0	4.1620	0	34.2350	0	27.166	0	698.051	0	-1e10	1	-1e10	1	-1E+10	1	-1e10	1	-1e10	1	-1E+10	1	-1E+10	1	-1E+10	1
4902624	7	C	08/30/2024	20:36	-128.557	47.138	0	712.10	0	4.1705	0	34.2435	0	27.172	0	704.969	0	9.8	4	3.1	4	-1E+10	1	0.0651	4	0.000137	0	-1E+10	1	-1E+10	1	-1E+10	1
4902624	7	C	08/30/2024	20:36	-128.557	47.138	0	715.00	0	4.1740	0	34.2470	0	27.175	0	707.835	0	-1e10	1	-1e10	1	-1E+10	1	-1e10	1	-1e10	1	-1E+10	1	-1E+10	1	-1E+10	1
4902624	7	C	08/30/2024	20:36	-128.557	47.138	0	721.10	0	4.1647	0	34.2520	0	27.180	0	713.863	0	9.5	4	3.0	4	-1E+10	1	0.0514	4	0.000148	0	-1E+10	1	-1E+10	1	-1E+10	1
4902624	7	C	08/30/2024	20:36	-128.557	47.138	0	724.80	0	4.1590	0	34.2550	0	27.183	0	717.520	0	-1e10	1	-1e10	1	-1E+10	1	-1e10	1	-1e10	1	-1E+10	1	-1E+10	1	-1E+10	1
4902624	7	C	08/30/2024	20:36	-128.557	47.138	0	730.30	0	4.1431	0	34.2583	0	27.187	0	722.955	0	9.3	4	2.9	4	-1E+10	1	0.0584	4	0.000149	0	-1E+10	1	-1E+10	1	-1E+10	1
4902624	7	C	08/30/2024	20:36	-128.557	47.138	0	734.80	0	4.1300	0	34.2610	0	27.191	0	727.402	0	-1e10	1	-1e10	1	-1E+10	1	-1e10	1	-1e10	1	-1E+10	1	-1E+10	1	-1E+10	1
4902624	7	C	08/30/2024	20:36	-128.557	47.138	0	739.50	0	4.1173	0	34.2643	0	27.195	0	732.047	0	9.0	4	2.8	4	-1E+10	1	0.0581	4	0.000171	0	-1E+10	1	-1E+10	1	-1E+10	1
4902624	7	C	08/30/2024	20:36	-128.557	47.138	0	744.80	0	4.1030	0	34.2680	0	27.199	0	737.284	0	-1e10	1	-1e10	1	-1E+10	1	-1e10	1	-1e10	1	-1E+10	1	-1E+10	1	-1E+10	1
4902624	7	C	08/30/2024	20:36	-128.557	47.138	0	748.90	0	4.0957	0	34.2708	0	27.202	0	741.335	0	8.7	4	2.8	4	-1E+10	1	0.0511	4	0.000148	0	-1E+10	1	-1E+10	1	-1E+10	1
4902624	7	C	08/30/2024	20:36	-128.557	47.138	0	754.90	0	4.0850	0	34.2750	0	27.207	0	747.264	0	-1e10	1	-1e10	1	-1E+10	1	-1e10	1	-1e10	1	-1E+10	1	-1E+10	1	-1E+10	1
4902624	7	C	08/30/2024	20:36	-128.557	47.138	0	758.50	0	4.0769	0	34.2775	0	27.209	0	750.821	0	8.6	4	2.7	4	-1E+10	1	0.0514	4	0.000160	0	-1E+10	1	-1E+10	1	-1E+10	1
4902624	7	C	08/30/2024	20:36	-128.557	47.138	0	765.10	0	4.0620	0	34.2820	0	27.215	0	757.342	0	-1e10	1	-1e10	1	-1E+10	1	-1e10	1	-1e10	1	-1E+10	1	-1E+10	1	-1E+10	1
4902624	7	C	08/30/2024	20:36	-128.557	47.138	0	768.40	0	4.0520	0	34.2833	0	27.217	0	760.603	0	8.3	4	2.6	4	-1E+10	1	0.0587	4	0.000160	0	-1E+10	1	-1E+10	1	-1E+10	1
4902624	7	C	08/30/2024	20:36	-128.557	47.138	0	775.00	0	4.0320	0	34.2860	0	27.221	0	767.124	0	-1e10	1	-1e10	1	-1E+10	1	-1e10	1	-1e10	1	-1E+10	1	-1E+10	1	-1E+10	1
4902624	7	C	08/30/2024	20:36	-128.557	47.138	0	778.30	0	4.0240	0	34.2877	0	27.223	0	770.384	0	8.2	4	2.6	4	-1E+10	1	0.0654	4	0.000170	0	-1E+10	1	-1E+10	1	-1E+10	1
4902624	7	C	08/30/2024	20:36	-128.557	47.138	0	784.90	0	4.0080	0	34.2910	0	27.227	0	776.905	0	-1e10	1	-1e10	1	-1E+10	1	-1e10	1	-1e10	1	-1E+10	1	-1E+10	1	-1E+10	1
4902624	7	C	08/30/2024	20:36	-128.557	47.138	0	788.50	0	4.0000	0	34.2928	0	27.230	0	780.461	0	8.1	4	2.6	4	-1E+10	1	0.0584	4	0.000148	0	-1E+10	1	-1E+10	1	-1E+10	1
4902624	7	C	08/30/2024	20:36	-128.557	47.138	0	794.80	0	3.9860	0	34.2960	0	27.234	0	786.685	0	-1e10	1	-1e10	1	-1E+10	1	-1e10	1	-1e10	1	-1E+10	1	-1E+10	1	-1E+10	1
4902624	7	C	08/30/2024	20:36	-128.557	47.138	0	798.80	0	3.9801	0	34.2980	0	27.236	0	790.637	0	7.9	4	2.5	4	-1E+10	1	0.0580	4	0.000159	0	-1E+10	1	-1E+10	1	-1E+10	1
4902624	7	C	08/30/2024	20:36	-128.557	47.138	0	805.00	0	3.9710	0	34.3010	0	27.239	0	796.761	0	-1e10	1	-1e10	1	-1E+10	1	-1e10	1	-1e10	1	-1E+10	1	-1E+10	1	-1E+10	1
4902624	7	C	08/30/2024	20:36	-128.557	47.138	0	809.10	0	3.9755	0	34.3055	0	27.242	0	800.812	0	7.7	4	2.4	4	-1E+10	1	0.0505	4	0.000148	0	-1E+10	1	-1E+10	1	-1E+10	1
4902624	7	C	08/30/2024	20:36	-128.557	47.138	0	815.00	0	3.9820	0	34.3120	0	27.247	0	806.640	0	-1e10	1	-1e10	1	-1E+10	1	-1e10	1	-1e10	1	-1E+10	1	-1E+10	1	-1E+10	1
4902624	7	C	08/30/2024	20:36	-128.557	47.138	0	819.70	0	3.9782	0	34.3153	0	27.250	0	811.282	0	7.7	4	2.4	4	-1E+10	1	0.0370	4	0.000159	0	-1E+10	1	-1E+10	1	-1E+10	1
4902624	7	C	08/30/2024	20:36	-128.557	47.138	0	825.00	0	3.9740	0	34.3190	0	27.253	0	816.518	0	-1e10	1	-1e10	1	-1E+10	1	-1e10	1	-1e10	1	-1E+10	1	-1E+10	1	-1E+10	1
4902624	7	C	08/30/2024	20:36	-128.557	47.138	0	830.40	0	3.9587	0	34.3201	0	27.256	0	821.852	0	7.7	4	2.4	4	-1E+10	1	0.0514	4	0.000158	0	-1E+10	1	-1E+10	1	-1E+10	1
4902624	7	C	08/30/2024	20:36	-128.557	47.138	0	834.90	0	3.9460	0	34.3210	0	27.258	0	826.296	0	-1e10	1	-1e10	1	-1E+10	1	-1e10	1	-1e10	1	-1E+10	1	-1E+10	1	-1E+10	1
4902624	7	C	08/30/2024	20:36	-128.557	47.138	0	841.20	0	3.9183	0	34.3204	0	27.260	0	832.519	0	7.8	4	2.5	4	-1E+10	1	0.0584	4	0.000136	0	-1E+10	1	-1E+10	1	-1E+10	1
4902624	7	C	08/30/2024	20:36	-128.557	47.138	0	844.90	0	3.9020	0	34.3200	0	27.262	0	836.173	0	-1e10	1	-1e10	1	-1E+10	1	-1e10	1	-1e10	1	-1E+10	1	-1E+10	1	-1E+10	1
4902624	7	C	08/30/2024	20:36	-128.557	47.138	0	852.00	0	3.8417	0	34.3164	0	27.265	0	843.186	0	34.9	4	11.0	4	-1E+10	1	0.0584	4	0.000147	0	-1E+10	1	-1E+10	1	-1E+10	1
4902624	7	C	08/30/2024	20:36	-128.557	47.138	0	854.90	0	3.8170	0	34.3150	0	27.266	0	846.050	0	-1e10	1	-1e10	1	-1E+10	1	-1e10	1	-1e10	1	-1E+10	1	-1E+10	1	-1E+10	1
4902624	7	C	08/30/2024	20:36	-128.557	47.138	0	863.20	0	3.7952	0	34.3175	0	27.270	0	854.247	0	34.9	4	11.0	4	-1E+10	1	0.0584	4	0.000148	0	-1E+10	1	-1E+10	1	-1E+10	1
4902624	7	C	08/30/2024	20:36	-128.557	47.138	0	864.80	0	3.7910	0	34.3180	0	27.271	0	855.827	0	-1e10	1	-1e10	1	-1E+10	1	-1e10	1	-1e10	1	-1E+10	1	-1E+10	1	-1E+10	1
4902624	7	C	08/30/2024	20:36	-128.557	47.138	0	874.60	0	3.7665	0	34.3229	0	27.278	0	865.505	0	30.2	4	9.5	4	-1E+10	1	0.0593	4	0.000181	0	-1E+10	1	-1E+10	1	-1E+10	1
4902624	7	C	08/30/2024	20:36	-128.557	47.138	0	874.80	0	3.7660	0	34.3230	0	27.278	0	865.703	0	-1e10	1	-1e10	1	-1E+10	1	-1e10	1	-1e10	1	-1E+10	1	-1E+10	1	-1E+10	1
4902624	7	C	08/30/2024	20:36	-128.557	47.138	0	885.20	0	3.7460	0	34.3290	0	27.285	0	875.973	0	-1e10	1	-1e10	1	-1E+10	1	-1e10	1	-1e10	1	-1E+10	1	-1E+10	1	-1E+10	1
4902624	7	C	08/30/2024	20:36	-128.557	47.138	0	886.20	0	3.7436	0	34.3295	0	27.285	0	876.960	0	48.3	4	15.2	4	-1E+10	1	0.0797	4	0.000158	0	-1E+10	1	-1E+10	1	-1E+10	1
4902624	7	C	08/30/2024	20:36	-128.557	47.138	0	895.10	0	3.7220	0	34.3340	0	27.291	0	885.748	0	-1e10	1	-1e10	1	-1E+10	1	-1e10	1	-1e10	1	-1E+10	1	-1E+10	1	-1E+10	1
4902624	7	C	08/30/2024	20:36	-128.557	47.138	0	897.90	0	3.7175	0	34.3354	0	27.293	0	888.513	0	50.1	4	15.7	4	-1E+10	1	0.0657	4	0.000147	0	-1E+10	1	-1E+10	1	-1E+10	1
4902624	7	C	08/30/2024	20:36	-128.557	47.138	0	905.00	0	3.7060	0	34.3390	0	27.297	0	895.524	0	-1e10	1	-1e10	1	-1E+10	1	-1e10	1	-1e10	1	-1E+10	1	-1E+10	1	-1E+10	1
4902624	7	C	08/30/2024	20:36	-128.557	47.138	0	908.30	0	3.7004	0	34.3406	0	27.299	0	898.782	0	51.9	4	16.3	4	-1E+10	1	0.0657	4	0.000157	0	-1E+10	1	-1E+10	1	-1E+10	1
4902624	7	C	08/30/2024	20:36	-128.557	47.138	0	915.10	0	3.6890	0	34.3440	0	27.302	0	905.496	0	-1e10	1	-1e10	1	-1E+10	1	-1e10	1	-1e10	1	-1E+10	1	-1E+10	1	-1E+10	1
4902624	7	C	08/30/2024	20:36	-128.557	47.138	0	916.10	0	3.6868	0	34.3445	0	27.303	0	906.484	0	52.6	4	16.5	4	-1E+10	1	0.0657	4	0.000156	0	-1E+10	1	-1E+10	1	-1E+10	1
4902624	7	C	08/30/2024	20:36	-128.557	47.138	0	924.40	0	3.6685	0	34.3486	0	27.308	0	914.678	0	51.0	4	16.0	4	-1E+10	1	0.0650	4	0.000415	0	-1E+10	1	-1E+10	1	-1E+10	1
4902624	7	C	08/30/2024	20:36	-128.557	47.138	0	925.10	0	3.6670	0	34.3490	0	27.309	0	915.369	0	-1e10	1	-1e10	1	-1E+10	1	-1e10	1	-1e10	1	-1E+10	1	-1E+10	1	-1E+10	1
4902624	7	C	08/30/2024	20:36	-128.557	47.138	0	932.90	0	3.6449	0	34.3545	0	27.315	0	923.070	0	50.6	4	15.9	4	-1E+10	1	0.0514	4	0.000169	0	-1E+10	1	-1E+10	1	-1E+10	1
4902624	7	C	08/30/2024	20:36	-128.557	47.138	0	935.00	0	3.6390	0	34.3560	0	27.317	0	925.143	0	-1e10	1	-1e10	1	-1E+10	1	-1e10	1	-1e10	1	-1E+10	1	-1E+10	1	-1E+10	1
4902624	7	C	08/30/2024	20:36	-128.557	47.138	0	941.70	0	3.6228	0	34.3601	0	27.322	0	931.758	0	49.1	4	15.4	4	-1E+10	1	0.0586	4	0.000170	0	-1E+10	1	-1E+10	1	-1E+10	1
4902624	7	C	08/30/2024	20:36	-128.557	47.138	0	944.90	0	3.6150	0	34.3620	0	27.324	0	934.917	0	-1e10	1	-1e10	1	-1E+10	1	-1e10	1	-1e10	1	-1E+10	1	-1E+10	1	-1E+10	1
4902624	7	C	08/30/2024	20:36	-128.557	47.138	0	950.90	0	3.5992	0	34.3644	0	27.328	0	940.840	0	49.6	4	15.5	4	-1E+10	1	0.0657	4	0.000191	0	-1E+10	1	-1E+10	1	-1E+10	1
4902624	7	C	08/30/2024	20:36	-128.557	47.138	0	954.80	0	3.5890	0	34.3660	0	27.330	0	944.690	0	-1e10	1	-1e10	1	-1E+10	1	-1e10	1	-1e10	1	-1E+10	1	-1E+10	1	-1E+10	1
4902624	7	C	08/30/2024	20:36	-128.557	47.138	0	960.10	0	3.5779	0	34.3681	0	27.333	0	949.922	0	49.9	4	15.6	4	-1E+10	1	0.0657	4	0.000157	0	-1E+10	1	-1E+10	1	-1E+10	1
4902624	7	C	08/30/2024	20:36	-128.557	47.138	0	964.80	0	3.5680	0	34.3700	0	27.335	0	954.561	0	-1e10	1	-1e10	1	-1E+10	1	-1e10	1	-1e10	1	-1E+10	1	-1E+10	1	-1E+10	1
4902624	7	C	08/30/2024	20:36	-128.557	47.138	0	969.80	0	3.5635	0	34.3720	0	27.337	0	959.497	0	54.2	4	17.0	4	-1E+10	1	0.0651	4	0.000145	0	-1E+10	1	-1E+10	1	-1E+10	1
4902624	7	C	08/30/2024	20:36	-128.557	47.138	0	974.80	0	3.5590	0	34.3740	0	27.339	0	964.432	0	-1e10	1	-1e10	1	-1E+10	1	-1e10	1	-1e10	1	-1E+10	1	-1E+10	1	-1E+10	1
4902624	7	C	08/30/2024	20:36	-128.557	47.138	0	979.70	0	3.5492	0	34.3755	0	27.342	0	969.269	0	55.2	4	17.3	4	-1E+10	1	0.0511	4	0.000135	0	-1E+10	1	-1E+10	1	-1E+10	1
4902624	7	C	08/30/2024	20:36	-128.557	47.138	0	984.80	0	3.5390	0	34.3770	0	27.344	0	974.303	0	-1e10	1	-1e10	1	-1E+10	1	-1e10	1	-1e10	1	-1E+10	1	-1E+10	1	-1E+10	1
4902624	7	C	08/30/2024	20:36	-128.557	47.138	0	989.50	0	3.5274	0	34.3798	0	27.347	0	978.942	0	54.1	4	16.9	4	-1E+10	1	0.0511	4	0.000157	0	-1E+10	1	-1E+10	1	-1E+10	1
4902624	7	C	08/30/2024	20:36	-128.557	47.138	0	994.90	0	3.5140	0	34.3830	0	27.351	0	984.271	0	-1e10	1	-1e10	1	-1E+10	1	-1e10	1	-1e10	1	-1E+10	1	-1E+10	1	-1E+10	1
4902624	7	C	08/30/2024	20:36	-128.557	47.138	0	1001.60	0	3.4984	0	34.3862	0	27.355	0	990.884	0	53.7	4	16.8	4	-1E+10	1	0.0511	4	0.000156	0	-1E+10	1	-1E+10	1	-1E+10	1
4902624	7	C	08/30/2024	20:36	-128.557	47.138	0	1022.10	0	3.4508	0	34.3958	0	27.368	0	1011.115	0	56.0	4	17.5	4	-1E+10	1	0.0512	4	0.000122	0	-1E+10	1	-1E+10	1	-1E+10	1
4902624	7	C	08/30/2024	20:36	-128.557	47.138	0	1024.60	0	3.4450	0	34.3970	0	27.369	0	1013.582	0	-1e10	1	-1e10	1	-1E+10	1	-1e10	1	-1e10	1	-1E+10	1	-1E+10	1	-1E+10	1
4902624	7	C	08/30/2024	20:36	-128.557	47.138	0	1043.10	0	3.4067	0	34.4032	0	27.378	0	1031.838	0	56.3	4	17.6	4	-1E+10	1	0.0584	4	0.000190	0	-1E+10	1	-1E+10	1	-1E+10	1
4902624	7	C	08/30/2024	20:36	-128.557	47.138	0	1064.10	0	3.3632	0	34.4102	0	27.388	0	1052.558	0	64.6	4	20.1	4	-1E+10	1	0.0582	4	0.000133	0	-1E+10	1	-1E+10	1	-1E+10	1
4902624	7	C	08/30/2024	20:36	-128.557	47.138	0	1075.30	0	3.3400	0	34.4140	0	27.393	0	1063.609	0	-1e10	1	-1e10	1	-1E+10	1	-1e10	1	-1e10	1	-1E+10	1	-1E+10	1	-1E+10	1
4902624	7	C	08/30/2024	20:36	-128.557	47.138	0	1085.40	0	3.3172	0	34.4172	0	27.398	0	1073.573	0	109.8	4	34.2	4	-1E+10	1	0.0516	4	0.000156	0	-1E+10	1	-1E+10	1	-1E+10	1
4902624	7	C	08/30/2024	20:36	-128.557	47.138	0	1107.50	0	3.2672	0	34.4243	0	27.408	0	1095.375	0	110.1	4	34.2	4	-1E+10	1	0.0725	4	0.000166	0	-1E+10	1	-1E+10	1	-1E+10	1
4902624	7	C	08/30/2024	20:36	-128.557	47.138	0	1125.30	0	3.2270	0	34.4300	0	27.417	0	1112.933	0	-1e10	1	-1e10	1	-1E+10	1	-1e10	1	-1e10	1	-1E+10	1	-1E+10	1	-1E+10	1
4902624	7	C	08/30/2024	20:36	-128.557	47.138	0	1130.30	0	3.2142	0	34.4314	0	27.419	0	1117.864	0	82.4	4	25.6	4	-1E+10	1	0.0513	4	0.000120	0	-1E+10	1	-1E+10	1	-1E+10	1
4902624	7	C	08/30/2024	20:36	-128.557	47.138	0	1151.50	0	3.1602	0	34.4374	0	27.429	0	1138.774	0	67.5	4	20.9	4	-1E+10	1	0.0586	4	0.000131	0	-1E+10	1	-1E+10	1	-1E+10	1
4902624	7	C	08/30/2024	20:36	-128.557	47.138	0	1167.60	0	3.1191	0	34.4419	0	27.436	0	1154.651	0	73.0	4	22.6	4	-1E+10	1	0.0654	4	0.000142	0	-1E+10	1	-1E+10	1	-1E+10	1
4902624	7	C	08/30/2024	20:36	-128.557	47.138	0	1175.10	0	3.1000	0	34.4440	0	27.440	0	1162.047	0	-1e10	1	-1e10	1	-1E+10	1	-1e10	1	-1e10	1	-1E+10	1	-1E+10	1	-1E+10	1
4902624	7	C	08/30/2024	20:36	-128.557	47.138	0	1184.60	0	3.0784	0	34.4465	0	27.444	0	1171.416	0	73.8	4	22.8	4	-1E+10	1	0.0512	4	0.000131	0	-1E+10	1	-1E+10	1	-1E+10	1
4902624	7	C	08/30/2024	20:36	-128.557	47.138	0	1202.40	0	3.0379	0	34.4511	0	27.451	0	1188.967	0	89.0	4	27.5	4	-1E+10	1	0.0587	4	0.000153	0	-1E+10	1	-1E+10	1	-1E+10	1
4902624	7	C	08/30/2024	20:36	-128.557	47.138	0	1220.70	0	2.9963	0	34.4559	0	27.459	0	1207.010	0	93.7	4	28.9	4	-1E+10	1	0.0725	4	0.000131	0	-1E+10	1	-1E+10	1	-1E+10	1
4902624	7	C	08/30/2024	20:36	-128.557	47.138	0	1224.80	0	2.9870	0	34.4570	0	27.461	0	1211.052	0	-1e10	1	-1e10	1	-1E+10	1	-1e10	1	-1e10	1	-1E+10	1	-1E+10	1	-1E+10	1
4902624	7	C	08/30/2024	20:36	-128.557	47.138	0	1239.70	0	2.9594	0	34.4603	0	27.466	0	1225.742	0	111.6	4	34.4	4	-1E+10	1	0.0510	4	0.000165	0	-1E+10	1	-1E+10	1	-1E+10	1
4902624	7	C	08/30/2024	20:36	-128.557	47.138	0	1259.40	0	2.9229	0	34.4646	0	27.473	0	1245.162	0	113.3	4	34.9	4	-1E+10	1	0.0439	4	0.000153	0	-1E+10	1	-1E+10	1	-1E+10	1
4902624	7	C	08/30/2024	20:36	-128.557	47.138	0	1275.00	0	2.8940	0	34.4680	0	27.478	0	1260.539	0	-1e10	1	-1e10	1	-1E+10	1	-1e10	1	-1e10	1	-1E+10	1	-1E+10	1	-1E+10	1
4902624	7	C	08/30/2024	20:36	-128.557	47.138	0	1279.80	0	2.8862	0	34.4691	0	27.480	0	1265.270	0	104.6	4	32.2	4	-1E+10	1	0.0513	4	0.000141	0	-1E+10	1	-1E+10	1	-1E+10	1
4902624	7	C	08/30/2024	20:36	-128.557	47.138	0	1300.80	0	2.8519	0	34.4737	0	27.486	0	1285.967	0	115.0	4	35.4	4	-1E+10	1	0.0583	4	0.000152	0	-1E+10	1	-1E+10	1	-1E+10	1
4902624	7	C	08/30/2024	20:36	-128.557	47.138	0	1322.70	0	2.8161	0	34.4785	0	27.493	0	1307.550	0	117.4	4	36.1	4	-1E+10	1	0.0511	4	0.000152	0	-1E+10	1	-1E+10	1	-1E+10	1
4902624	7	C	08/30/2024	20:36	-128.557	47.138	0	1325.20	0	2.8120	0	34.4790	0	27.494	0	1310.013	0	-1e10	1	-1e10	1	-1E+10	1	-1e10	1	-1e10	1	-1E+10	1	-1E+10	1	-1E+10	1
4902624	7	C	08/30/2024	20:36	-128.557	47.138	0	1344.50	0	2.7746	0	34.4832	0	27.501	0	1329.031	0	115.0	4	35.3	4	-1E+10	1	0.0512	4	0.000151	0	-1E+10	1	-1E+10	1	-1E+10	1
4902624	7	C	08/30/2024	20:36	-128.557	47.138	0	1367.30	0	2.7305	0	34.4882	0	27.509	0	1351.496	0	107.9	4	33.1	4	-1E+10	1	0.0582	4	0.000129	0	-1E+10	1	-1E+10	1	-1E+10	1
4902624	7	C	08/30/2024	20:36	-128.557	47.138	0	1375.30	0	2.7150	0	34.4900	0	27.512	0	1359.378	0	-1e10	1	-1e10	1	-1E+10	1	-1e10	1	-1e10	1	-1E+10	1	-1E+10	1	-1E+10	1
4902624	7	C	08/30/2024	20:36	-128.557	47.138	0	1388.80	0	2.6916	0	34.4927	0	27.516	0	1372.678	0	101.4	4	31.1	4	-1E+10	1	0.0513	4	0.000185	0	-1E+10	1	-1E+10	1	-1E+10	1
4902624	7	C	08/30/2024	20:36	-128.557	47.138	0	1404.50	0	2.6644	0	34.4959	0	27.521	0	1388.144	0	111.1	4	34.0	4	-1E+10	1	0.0581	4	0.000139	0	-1E+10	1	-1E+10	1	-1E+10	1
4902624	7	C	08/30/2024	20:36	-128.557	47.138	0	1421.10	0	2.6356	0	34.4992	0	27.526	0	1404.495	0	138.8	8	42.5	8	-1E+10	1	0.0441	4	0.000117	0	-1E+10	1	-1E+10	1	-1E+10	1
4902624	7	C	08/30/2024	20:36	-128.557	47.138	0	1424.90	0	2.6290	0	34.5000	0	27.527	0	1408.238	0	-1e10	1	-1e10	1	-1E+10	1	-1e10	1	-1e10	1	-1E+10	1	-1E+10	1	-1E+10	1
4902624	7	C	08/30/2024	20:36	-128.557	47.138	0	1438.10	0	2.6113	0	34.5032	0	27.532	0	1421.239	0	112.6	8	34.5	8	-1E+10	1	0.0584	4	0.000173	0	-1E+10	1	-1E+10	1	-1E+10	1
4902624	7	C	08/30/2024	20:36	-128.557	47.138	0	1456.20	0	2.5870	0	34.5075	0	27.537	0	1439.065	0	140.2	4	42.9	4	-1E+10	1	0.0582	4	0.000115	0	-1E+10	1	-1E+10	1	-1E+10	1
4902624	7	C	08/30/2024	20:36	-128.557	47.138	0	1474.80	0	2.5620	0	34.5120	0	27.543	0	1457.382	0	-1e10	1	-1e10	1	-1E+10	1	-1e10	1	-1e10	1	-1E+10	1	-1E+10	1	-1E+10	1
4902624	7	C	08/30/2024	20:36	-128.557	47.138	0	1475.20	0	2.5613	0	34.5121	0	27.543	0	1457.776	0	150.3	4	45.9	4	-1E+10	1	0.0514	4	0.000108	0	-1E+10	1	-1E+10	1	-1E+10	1
4902624	7	C	08/30/2024	20:36	-128.557	47.138	0	1495.00	0	2.5290	0	34.5160	0	27.549	0	1477.273	0	154.3	4	47.1	4	-1E+10	1	0.0653	4	0.000149	0	-1E+10	1	-1E+10	1	-1E+10	1
4902624	7	C	08/30/2024	20:36	-128.557	47.138	0	1515.20	0	2.4960	0	34.5200	0	27.555	0	1497.162	0	138.1	4	42.1	4	-1E+10	1	0.0442	4	0.000126	0	-1E+10	1	-1E+10	1	-1E+10	1
4902624	7	C	08/30/2024	20:36	-128.557	47.138	0	1525.00	0	2.4800	0	34.5220	0	27.558	0	1506.811	0	-1e10	1	-1e10	1	-1E+10	1	-1e10	1	-1e10	1	-1E+10	1	-1E+10	1	-1E+10	1
4902624	7	C	08/30/2024	20:36	-128.557	47.138	0	1535.90	0	2.4630	0	34.5240	0	27.561	0	1517.542	0	137.4	4	41.9	4	-1E+10	1	0.0652	4	0.000137	0	-1E+10	1	-1E+10	1	-1E+10	1
4902624	7	C	08/30/2024	20:36	-128.557	47.138	0	1557.70	0	2.4291	0	34.5279	0	27.567	0	1539.002	0	144.4	4	44.0	4	-1E+10	1	0.0369	4	0.000148	0	-1E+10	1	-1E+10	1	-1E+10	1
4902624	7	C	08/30/2024	20:36	-128.557	47.138	0	1574.50	0	2.4030	0	34.5310	0	27.572	0	1555.538	0	-1e10	1	-1e10	1	-1E+10	1	-1e10	1	-1e10	1	-1E+10	1	-1E+10	1	-1E+10	1
4902624	7	C	08/30/2024	20:36	-128.557	47.138	0	1580.50	0	2.3954	0	34.5318	0	27.573	0	1561.444	0	150.5	4	45.8	4	-1E+10	1	0.0582	4	0.000159	0	-1E+10	1	-1E+10	1	-1E+10	1
4902624	7	C	08/30/2024	20:36	-128.557	47.138	0	1604.10	0	2.3655	0	34.5350	0	27.579	0	1584.671	0	155.1	4	47.2	4	-1E+10	1	0.0511	4	0.000113	0	-1E+10	1	-1E+10	1	-1E+10	1
4902624	7	C	08/30/2024	20:36	-128.557	47.138	0	1625.60	0	2.3383	0	34.5380	0	27.583	0	1605.829	0	149.6	4	45.5	4	-1E+10	1	0.0507	4	0.000135	0	-1E+10	1	-1E+10	1	-1E+10	1
4902624	7	C	08/30/2024	20:36	-128.557	47.138	0	1625.80	0	2.3380	0	34.5380	0	27.583	0	1606.026	0	-1e10	1	-1e10	1	-1E+10	1	-1e10	1	-1e10	1	-1E+10	1	-1E+10	1	-1E+10	1
4902624	7	C	08/30/2024	20:36	-128.557	47.138	0	1641.40	0	2.3200	0	34.5406	0	27.587	0	1621.377	0	151.4	4	46.0	4	-1E+10	1	0.0366	4	0.000112	0	-1E+10	1	-1E+10	1	-1E+10	1
4902624	7	C	08/30/2024	20:36	-128.557	47.138	0	1657.90	0	2.3010	0	34.5433	0	27.591	0	1637.612	0	151.4	4	46.0	4	-1E+10	1	0.0440	4	0.000146	0	-1E+10	1	-1E+10	1	-1E+10	1
4902624	7	C	08/30/2024	20:36	-128.557	47.138	0	1674.40	0	2.2820	0	34.5460	0	27.594	0	1653.845	0	-1e10	1	-1e10	1	-1E+10	1	-1e10	1	-1e10	1	-1E+10	1	-1E+10	1	-1E+10	1
4902624	7	C	08/30/2024	20:36	-128.557	47.138	0	1674.90	0	2.2814	0	34.5461	0	27.595	0	1654.337	0	154.7	4	47.0	4	-1E+10	1	0.0511	4	0.000123	0	-1E+10	1	-1E+10	1	-1E+10	1
4902624	7	C	08/30/2024	20:36	-128.557	47.138	0	1692.60	0	2.2597	0	34.5489	0	27.599	0	1671.750	0	154.8	4	47.0	4	-1E+10	1	0.0511	4	0.000134	0	-1E+10	1	-1E+10	1	-1E+10	1
4902624	7	C	08/30/2024	20:36	-128.557	47.138	0	1711.50	0	2.2365	0	34.5519	0	27.603	0	1690.342	0	156.8	4	47.6	4	-1E+10	1	0.0511	4	0.000134	0	-1E+10	1	-1E+10	1	-1E+10	1
4902624	7	C	08/30/2024	20:36	-128.557	47.138	0	1725.00	0	2.2200	0	34.5540	0	27.606	0	1703.621	0	-1e10	1	-1e10	1	-1E+10	1	-1e10	1	-1e10	1	-1E+10	1	-1E+10	1	-1E+10	1
4902624	7	C	08/30/2024	20:36	-128.557	47.138	0	1730.90	0	2.2133	0	34.5549	0	27.607	0	1709.424	0	159.3	4	48.3	4	-1E+10	1	0.0511	4	0.000134	0	-1E+10	1	-1E+10	1	-1E+10	1
4902624	7	C	08/30/2024	20:36	-128.557	47.138	0	1751.10	0	2.1904	0	34.5582	0	27.612	0	1729.291	0	161.7	4	49.0	4	-1E+10	1	0.0512	4	0.000145	0	-1E+10	1	-1E+10	1	-1E+10	1
4902624	7	C	08/30/2024	20:36	-128.557	47.138	0	1772.00	0	2.1667	0	34.5615	0	27.617	0	1749.845	0	163.6	4	49.5	4	-1E+10	1	0.0581	4	0.000144	0	-1E+10	1	-1E+10	1	-1E+10	1
4902624	7	C	08/30/2024	20:36	-128.557	47.138	0	1775.30	0	2.1630	0	34.5620	0	27.617	0	1753.090	0	-1e10	1	-1e10	1	-1E+10	1	-1e10	1	-1e10	1	-1E+10	1	-1E+10	1	-1E+10	1
4902624	7	C	08/30/2024	20:36	-128.557	47.138	0	1793.40	0	2.1435	0	34.5649	0	27.621	0	1770.888	0	166.8	4	50.5	4	-1E+10	1	0.0438	4	0.000121	0	-1E+10	1	-1E+10	1	-1E+10	1
4902624	7	C	08/30/2024	20:36	-128.557	47.138	0	1815.50	0	2.1196	0	34.5686	0	27.626	0	1792.618	0	169.0	4	51.1	4	-1E+10	1	0.0438	4	0.000155	0	-1E+10	1	-1E+10	1	-1E+10	1
4902624	7	C	08/30/2024	20:36	-128.557	47.138	0	1824.40	0	2.1100	0	34.5700	0	27.628	0	1801.368	0	-1e10	1	-1e10	1	-1E+10	1	-1e10	1	-1e10	1	-1E+10	1	-1E+10	1	-1E+10	1
4902624	7	C	08/30/2024	20:36	-128.557	47.138	0	1838.60	0	2.0963	0	34.5720	0	27.631	0	1815.328	0	171.6	4	51.9	4	-1E+10	1	0.0439	4	0.000131	0	-1E+10	1	-1E+10	1	-1E+10	1
4902624	7	C	08/30/2024	20:36	-128.557	47.138	0	1860.20	0	2.0755	0	34.5749	0	27.635	0	1836.561	0	173.5	4	52.4	4	-1E+10	1	0.0512	4	0.000131	0	-1E+10	1	-1E+10	1	-1E+10	1
4902624	7	C	08/30/2024	20:36	-128.557	47.138	0	1875.30	0	2.0610	0	34.5770	0	27.638	0	1851.404	0	-1e10	1	-1e10	1	-1E+10	1	-1e10	1	-1e10	1	-1E+10	1	-1E+10	1	-1E+10	1
4902624	7	C	08/30/2024	20:36	-128.557	47.138	0	1877.00	0	2.0596	0	34.5772	0	27.638	0	1853.075	0	175.5	4	53.0	4	-1E+10	1	0.0579	4	0.000130	0	-1E+10	1	-1E+10	1	-1E+10	1
4902624	7	C	08/30/2024	20:36	-128.557	47.138	0	1894.30	0	2.0448	0	34.5797	0	27.642	0	1870.078	0	177.0	4	53.4	4	-1E+10	1	0.0367	4	0.000108	0	-1E+10	1	-1E+10	1	-1E+10	1
4902624	7	C	08/30/2024	20:36	-128.557	47.138	0	1912.70	0	2.0292	0	34.5823	0	27.645	0	1888.161	0	178.2	4	53.8	4	-1E+10	1	0.0511	4	0.000153	0	-1E+10	1	-1E+10	1	-1E+10	1
4902624	7	C	08/30/2024	20:36	-128.557	47.138	0	1924.70	0	2.0190	0	34.5840	0	27.647	0	1899.954	0	-1e10	1	-1e10	1	-1E+10	1	-1e10	1	-1e10	1	-1E+10	1	-1E+10	1	-1E+10	1
4902624	7	C	08/30/2024	20:36	-128.557	47.138	0	1932.00	0	2.0126	0	34.5850	0	27.649	0	1907.127	0	179.7	4	54.2	4	-1E+10	1	0.0511	4	0.000118	0	-1E+10	1	-1E+10	1	-1E+10	1
4902624	7	C	08/30/2024	20:36	-128.557	47.138	0	1952.00	0	1.9950	0	34.5879	0	27.652	0	1926.779	0	180.8	4	54.5	4	-1E+10	1	0.0507	4	0.000118	0	-1E+10	1	-1E+10	1	-1E+10	1
4902624	7	C	08/30/2024	20:36	-128.557	47.138	0	1959.90	0	1.9880	0	34.5890	0	27.654	0	1934.541	0	-1e10	1	-1e10	1	-1E+10	1	-1e10	1	-1e10	1	-1E+10	1	-1E+10	1	-1E+10	1
4902624	7	C	08/30/2024	20:36	-128.557	47.138	0	1969.00	0	-1e10	1	-1e10	1	-1e10	1	1943.482	0	187.7	4	-1e10	4	-1E+10	1	0.0365	4	0.000132	0	-1E+10	1	-1E+10	1	-1E+10	1
4902624	7	C	08/30/2024	20:36	-128.557	47.138	0																										
4902624	8	C	09/09/2024	15:37	-128.506	47.293	0	0.00	0	17.7557	0	32.3380	0	23.294	0	0.000	0	-1e10	1	-1e10	1	-1E+10	1	0.2920	4	0.001058	0	-1E+10	1	-1E+10	1	-1E+10	1
4902624	8	C	09/09/2024	15:37	-128.506	47.293	0	0.30	0	17.7687	0	32.3335	0	23.288	0	0.298	0	227.0	4	94.9	4	-1E+10	1	0.2263	4	0.001269	0	-1E+10	1	-1E+10	1	-1E+10	1
4902624	8	C	09/09/2024	15:37	-128.506	47.293	0	0.40	0	17.7730	0	32.3320	0	23.286	0	0.397	0	-1e10	1	-1e10	1	-1E+10	1	0.2263	4	0.001211	0	-1E+10	1	-1E+10	1	-1E+10	1
4902624	8	C	09/09/2024	15:37	-128.506	47.293	0	0.90	0	17.7739	0	32.3397	0	23.291	0	0.893	0	-1e10	1	-1e10	1	-1E+10	1	0.2263	4	0.001164	0	-1E+10	1	-1E+10	1	-1E+10	1
4902624	8	C	09/09/2024	15:37	-128.506	47.293	0	1.10	0	17.7743	0	32.3428	0	23.294	0	1.091	0	-1e10	1	-1e10	1	-1E+10	1	0.2336	4	0.001211	0	-1E+10	1	-1E+10	1	-1E+10	1
4902624	8	C	09/09/2024	15:37	-128.506	47.293	0	1.20	0	17.7745	0	32.3444	0	23.295	0	1.190	0	-1e10	1	-1e10	1	-1E+10	1	0.2482	4	0.001175	0	-1E+10	1	-1E+10	1	-1E+10	1
4902624	8	C	09/09/2024	15:37	-128.506	47.293	0	1.30	0	17.7746	0	32.3459	0	23.296	0	1.289	0	226.8	4	94.8	4	-1E+10	1	0.2190	4	0.001305	0	-1E+10	1	-1E+10	1	-1E+10	1
4902624	8	C	09/09/2024	15:37	-128.506	47.293	0	1.50	0	17.7750	0	32.3490	0	23.298	0	1.488	0	-1e10	1	-1e10	1	-1E+10	1	0.2117	4	0.001234	0	-1E+10	1	-1E+10	1	-1E+10	1
4902624	8	C	09/09/2024	15:37	-128.506	47.293	0	1.60	0	17.7748	0	32.3490	0	23.298	0	1.587	0	-1e10	1	-1e10	1	-1E+10	1	0.2409	4	0.001222	0	-1E+10	1	-1E+10	1	-1E+10	1
4902624	8	C	09/09/2024	15:37	-128.506	47.293	0	1.70	0	17.7746	0	32.3490	0	23.298	0	1.686	0	-1e10	1	-1e10	1	-1E+10	1	0.2482	4	0.001246	0	-1E+10	1	-1E+10	1	-1E+10	1
4902624	8	C	09/09/2024	15:37	-128.506	47.293	0	1.80	0	17.7744	0	32.3490	0	23.298	0	1.785	0	-1e10	1	-1e10	1	-1E+10	1	0.2336	4	0.001175	0	-1E+10	1	-1E+10	1	-1E+10	1
4902624	8	C	09/09/2024	15:37	-128.506	47.293	0	2.00	0	17.7740	0	32.3490	0	23.298	0	1.983	0	-1e10	1	-1e10	1	-1E+10	1	0.2263	4	0.001246	0	-1E+10	1	-1E+10	1	-1E+10	1
4902624	8	C	09/09/2024	15:37	-128.506	47.293	0	2.30	0	17.7734	0	32.3490	0	23.299	0	2.281	0	226.7	4	94.8	4	-1E+10	1	0.2263	4	0.001258	0	-1E+10	1	-1E+10	1	-1E+10	1
4902624	8	C	09/09/2024	15:37	-128.506	47.293	0	2.50	0	17.7730	0	32.3490	0	23.299	0	2.479	0	-1e10	1	-1e10	1	-1E+10	1	-1e10	1	-1e10	1	-1E+10	1	-1E+10	1	-1E+10	1
4902624	8	C	09/09/2024	15:37	-128.506	47.293	0	2.80	0	17.7757	0	32.3487	0	23.298	0	2.777	0	226.6	4	94.7	4	-1E+10	1	0.2526	4	0.001229	0	-1E+10	1	-1E+10	1	-1E+10	1
4902624	8	C	09/09/2024	15:37	-128.506	47.293	0	3.00	0	17.7775	0	32.3485	0	23.297	0	2.975	0	-1e10	1	-1e10	1	-1E+10	1	0.2701	4	0.001258	0	-1E+10	1	-1E+10	1	-1E+10	1
4902624	8	C	09/09/2024	15:37	-128.506	47.293	0	3.10	0	17.7785	0	32.3485	0	23.297	0	3.074	0	-1e10	1	-1e10	1	-1E+10	1	0.2628	4	0.001175	0	-1E+10	1	-1E+10	1	-1E+10	1
4902624	8	C	09/09/2024	15:37	-128.506	47.293	0	3.30	0	17.7803	0	32.3483	0	23.296	0	3.272	0	-1e10	1	-1e10	1	-1E+10	1	0.2701	4	0.001187	0	-1E+10	1	-1E+10	1	-1E+10	1
4902624	8	C	09/09/2024	15:37	-128.506	47.293	0	3.50	0	17.7821	0	32.3481	0	23.296	0	3.471	0	-1e10	1	-1e10	1	-1E+10	1	0.2628	4	0.001258	0	-1E+10	1	-1E+10	1	-1E+10	1
4902624	8	C	09/09/2024	15:37	-128.506	47.293	0	3.60	0	17.7830	0	32.3480	0	23.296	0	3.570	0	-1e10	1	-1e10	1	-1E+10	1	-1e10	1	-1e10	1	-1E+10	1	-1E+10	1	-1E+10	1
4902624	8	C	09/09/2024	15:37	-128.506	47.293	0	3.80	0	17.7832	0	32.3480	0	23.296	0	3.768	0	226.7	4	94.8	4	-1E+10	1	0.2701	4	0.001234	0	-1E+10	1	-1E+10	1	-1E+10	1
4902624	8	C	09/09/2024	15:37	-128.506	47.293	0	4.00	0	17.7834	0	32.3480	0	23.295	0	3.967	0	-1e10	1	-1e10	1	-1E+10	1	0.2774	4	0.001281	0	-1E+10	1	-1E+10	1	-1E+10	1
4902624	8	C	09/09/2024	15:37	-128.506	47.293	0	4.10	0	17.7836	0	32.3480	0	23.295	0	4.066	0	-1e10	1	-1e10	1	-1E+10	1	0.2774	4	0.001281	0	-1E+10	1	-1E+10	1	-1E+10	1
4902624	8	C	09/09/2024	15:37	-128.506	47.293	0	4.20	0	17.7837	0	32.3480	0	23.295	0	4.165	0	-1e10	1	-1e10	1	-1E+10	1	0.2628	4	0.001340	0	-1E+10	1	-1E+10	1	-1E+10	1
4902624	8	C	09/09/2024	15:37	-128.506	47.293	0	4.40	0	17.7839	0	32.3480	0	23.295	0	4.363	0	226.7	4	94.8	4	-1E+10	1	0.2701	4	0.001305	0	-1E+10	1	-1E+10	1	-1E+10	1
4902624	8	C	09/09/2024	15:37	-128.506	47.293	0	4.50	0	17.7840	0	32.3480	0	23.295	0	4.462	0	-1e10	1	-1e10	1	-1E+10	1	0.2628	4	0.001199	0	-1E+10	1	-1E+10	1	-1E+10	1
4902624	8	C	09/09/2024	15:37	-128.506	47.293	0	4.70	0	17.7844	0	32.3480	0	23.295	0	4.661	0	-1e10	1	-1e10	1	-1E+10	1	0.2555	4	0.001328	0	-1E+10	1	-1E+10	1	-1E+10	1
4902624	8	C	09/09/2024	15:37	-128.506	47.293	0	4.90	0	17.7847	0	32.3480	0	23.295	0	4.859	0	-1e10	1	-1e10	1	-1E+10	1	0.2701	4	0.001281	0	-1E+10	1	-1E+10	1	-1E+10	1
4902624	8	C	09/09/2024	15:37	-128.506	47.293	0	5.20	0	17.7853	0	32.3480	0	23.295	0	5.157	0	226.8	4	94.8	4	-1E+10	1	0.2701	4	0.001293	0	-1E+10	1	-1E+10	1	-1E+10	1
4902624	8	C	09/09/2024	15:37	-128.506	47.293	0	5.30	0	17.7855	0	32.3480	0	23.295	0	5.256	0	-1e10	1	-1e10	1	-1E+10	1	0.2628	4	0.001340	0	-1E+10	1	-1E+10	1	-1E+10	1
4902624	8	C	09/09/2024	15:37	-128.506	47.293	0	5.50	0	17.7858	0	32.3480	0	23.295	0	5.454	0	-1e10	1	-1e10	1	-1E+10	1	0.2701	4	0.001222	0	-1E+10	1	-1E+10	1	-1E+10	1
4902624	8	C	09/09/2024	15:37	-128.506	47.293	0	5.60	0	17.7860	0	32.3480	0	23.295	0	5.553	0	-1e10	1	-1e10	1	-1E+10	1	-1e10	1	-1e10	1	-1E+10	1	-1E+10	1	-1E+10	1
4902624	8	C	09/09/2024	15:37	-128.506	47.293	0	6.00	0	17.7856	0	32.3480	0	23.295	0	5.950	0	226.7	4	94.8	4	-1E+10	1	0.2701	4	0.001234	0	-1E+10	1	-1E+10	1	-1E+10	1
4902624	8	C	09/09/2024	15:37	-128.506	47.293	0	6.10	0	17.7854	0	32.3480	0	23.295	0	6.049	0	-1e10	1	-1e10	1	-1E+10	1	0.2774	4	0.001234	0	-1E+10	1	-1E+10	1	-1E+10	1
4902624	8	C	09/09/2024	15:37	-128.506	47.293	0	6.40	0	17.7851	0	32.3480	0	23.295	0	6.347	0	-1e10	1	-1e10	1	-1E+10	1	0.2701	4	0.001293	0	-1E+10	1	-1E+10	1	-1E+10	1
4902624	8	C	09/09/2024	15:37	-128.506	47.293	0	6.50	0	17.7850	0	32.3480	0	23.295	0	6.446	0	-1e10	1	-1e10	1	-1E+10	1	-1e10	1	-1e10	1	-1E+10	1	-1E+10	1	-1E+10	1
4902624	8	C	09/09/2024	15:37	-128.506	47.293	0	6.60	0	17.7849	0	32.3480	0	23.295	0	6.545	0	-1e10	1	-1e10	1	-1E+10	1	0.2701	4	0.001222	0	-1E+10	1	-1E+10	1	-1E+10	1
4902624	8	C	09/09/2024	15:37	-128.506	47.293	0	6.70	0	17.7848	0	32.3480	0	23.295	0	6.644	0	226.8	4	94.8	4	-1E+10	1	0.2701	4	0.001234	0	-1E+10	1	-1E+10	1	-1E+10	1
4902624	8	C	09/09/2024	15:37	-128.506	47.293	0	6.90	0	17.7846	0	32.3480	0	23.295	0	6.842	0	-1e10	1	-1e10	1	-1E+10	1	0.2628	4	0.001293	0	-1E+10	1	-1E+10	1	-1E+10	1
4902624	8	C	09/09/2024	15:37	-128.506	47.293	0	7.00	0	17.7845	0	32.3480	0	23.295	0	6.942	0	-1e10	1	-1e10	1	-1E+10	1	0.2774	4	0.001258	0	-1E+10	1	-1E+10	1	-1E+10	1
4902624	8	C	09/09/2024	15:37	-128.506	47.293	0	7.20	0	17.7843	0	32.3480	0	23.295	0	7.140	0	-1e10	1	-1e10	1	-1E+10	1	0.2847	4	0.001222	0	-1E+10	1	-1E+10	1	-1E+10	1
4902624	8	C	09/09/2024	15:37	-128.506	47.293	0	7.30	0	17.7842	0	32.3480	0	23.295	0	7.239	0	-1e10	1	-1e10	1	-1E+10	1	0.2701	4	0.001246	0	-1E+10	1	-1E+10	1	-1E+10	1
4902624	8	C	09/09/2024	15:37	-128.506	47.293	0	7.50	0	17.7840	0	32.3480	0	23.295	0	7.437	0	-1e10	1	-1e10	1	-1E+10	1	-1e10	1	-1e10	1	-1E+10	1	-1E+10	1	-1E+10	1
4902624	8	C	09/09/2024	15:37	-128.506	47.293	0	7.60	0	17.7840	0	32.3480	0	23.296	0	7.537	0	226.9	4	94.9	4	-1E+10	1	0.2628	4	0.001398	0	-1E+10	1	-1E+10	1	-1E+10	1
4902624	8	C	09/09/2024	15:37	-128.506	47.293	0	7.90	0	17.7840	0	32.3480	0	23.296	0	7.834	0	-1e10	1	-1e10	1	-1E+10	1	0.2628	4	0.001269	0	-1E+10	1	-1E+10	1	-1E+10	1
4902624	8	C	09/09/2024	15:37	-128.506	47.293	0	8.10	0	17.7840	0	32.3480	0	23.296	0	8.032	0	-1e10	1	-1e10	1	-1E+10	1	0.2774	4	0.001328	0	-1E+10	1	-1E+10	1	-1E+10	1
4902624	8	C	09/09/2024	15:37	-128.506	47.293	0	8.20	0	17.7840	0	32.3480	0	23.296	0	8.132	0	-1e10	1	-1e10	1	-1E+10	1	0.2774	4	0.001222	0	-1E+10	1	-1E+10	1	-1E+10	1
4902624	8	C	09/09/2024	15:37	-128.506	47.293	0	8.40	0	17.7840	0	32.3480	0	23.296	0	8.330	0	226.9	4	94.9	4	-1E+10	1	0.2774	4	0.001234	0	-1E+10	1	-1E+10	1	-1E+10	1
4902624	8	C	09/09/2024	15:37	-128.506	47.293	0	8.50	0	17.7840	0	32.3480	0	23.296	0	8.429	0	-1e10	1	-1e10	1	-1E+10	1	-1e10	1	-1e10	1	-1E+10	1	-1E+10	1	-1E+10	1
4902624	8	C	09/09/2024	15:37	-128.506	47.293	0	8.60	0	17.7842	0	32.3480	0	23.295	0	8.528	0	-1e10	1	-1e10	1	-1E+10	1	0.2774	4	0.001258	0	-1E+10	1	-1E+10	1	-1E+10	1
4902624	8	C	09/09/2024	15:37	-128.506	47.293	0	8.80	0	17.7846	0	32.3480	0	23.295	0	8.727	0	-1e10	1	-1e10	1	-1E+10	1	0.2628	4	0.001269	0	-1E+10	1	-1E+10	1	-1E+10	1
4902624	8	C	09/09/2024	15:37	-128.506	47.293	0	9.00	0	17.7850	0	32.3480	0	23.295	0	8.925	0	-1e10	1	-1e10	1	-1E+10	1	0.2774	4	0.001258	0	-1E+10	1	-1E+10	1	-1E+10	1
4902624	8	C	09/09/2024	15:37	-128.506	47.293	0	9.30	0	17.7856	0	32.3480	0	23.295	0	9.222	0	227.0	4	94.9	4	-1E+10	1	0.2920	4	0.001187	0	-1E+10	1	-1E+10	1	-1E+10	1
4902624	8	C	09/09/2024	15:37	-128.506	47.293	0	9.50	0	17.7860	0	32.3480	0	23.295	0	9.421	0	-1e10	1	-1e10	1	-1E+10	1	0.2774	4	0.001410	0	-1E+10	1	-1E+10	1	-1E+10	1
4902624	8	C	09/09/2024	15:37	-128.506	47.293	0	10.30	0	17.7860	0	32.3480	0	23.295	0	10.214	0	227.0	4	94.9	4	-1E+10	1	0.2935	4	0.001253	0	-1E+10	1	-1E+10	1	-1E+10	1
4902624	8	C	09/09/2024	15:37	-128.506	47.293	0	10.90	0	17.7860	0	32.3480	0	23.295	0	10.809	0	-1e10	1	-1e10	1	-1E+10	1	-1e10	1	-1e10	1	-1E+10	1	-1E+10	1	-1E+10	1
4902624	8	C	09/09/2024	15:37	-128.506	47.293	0	11.40	0	17.7862	0	32.3480	0	23.295	0	11.305	0	227.1	4	95.0	4	-1E+10	1	0.3032	4	0.001276	0	-1E+10	1	-1E+10	1	-1E+10	1
4902624	8	C	09/09/2024	15:37	-128.506	47.293	0	12.50	0	17.7868	0	32.3480	0	23.295	0	12.396	0	227.3	4	95.0	4	-1E+10	1	0.3040	4	0.001280	0	-1E+10	1	-1E+10	1	-1E+10	1
4902624	8	C	09/09/2024	15:37	-128.506	47.293	0	13.00	0	17.7870	0	32.3480	0	23.295	0	12.891	0	-1e10	1	-1e10	1	-1E+10	1	-1e10	1	-1e10	1	-1E+10	1	-1E+10	1	-1E+10	1
4902624	8	C	09/09/2024	15:37	-128.506	47.293	0	13.70	0	17.7866	0	32.3480	0	23.295	0	13.585	0	227.4	4	95.1	4	-1E+10	1	0.3029	4	0.001255	0	-1E+10	1	-1E+10	1	-1E+10	1
4902624	8	C	09/09/2024	15:37	-128.506	47.293	0	14.80	0	17.7861	0	32.3480	0	23.295	0	14.676	0	227.6	4	95.2	4	-1E+10	1	0.3149	4	0.001236	0	-1E+10	1	-1E+10	1	-1E+10	1
4902624	8	C	09/09/2024	15:37	-128.506	47.293	0	15.00	0	17.7860	0	32.3480	0	23.295	0	14.875	0	-1e10	1	-1e10	1	-1E+10	1	-1e10	1	-1e10	1	-1E+10	1	-1E+10	1	-1E+10	1
4902624	8	C	09/09/2024	15:37	-128.506	47.293	0	16.00	0	17.7865	0	32.3480	0	23.295	0	15.866	0	227.7	4	95.2	4	-1E+10	1	0.3212	4	0.001175	0	-1E+10	1	-1E+10	1	-1E+10	1
4902624	8	C	09/09/2024	15:37	-128.506	47.293	0	17.00	0	17.7870	0	32.3480	0	23.295	0	16.858	0	-1e10	1	-1e10	1	-1E+10	1	-1e10	1	-1e10	1	-1E+10	1	-1E+10	1	-1E+10	1
4902624	8	C	09/09/2024	15:37	-128.506	47.293	0	17.10	0	17.7871	0	32.3480	0	23.295	0	16.957	0	227.8	4	95.3	4	-1E+10	1	0.3027	4	0.001195	0	-1E+10	1	-1E+10	1	-1E+10	1
4902624	8	C	09/09/2024	15:37	-128.506	47.293	0	18.30	0	17.7883	0	32.3480	0	23.295	0	18.147	0	228.2	4	95.4	4	-1E+10	1	0.3115	4	0.001160	0	-1E+10	1	-1E+10	1	-1E+10	1
4902624	8	C	09/09/2024	15:37	-128.506	47.293	0	19.00	0	17.7890	0	32.3480	0	23.295	0	18.841	0	-1e10	1	-1e10	1	-1E+10	1	-1e10	1	-1e10	1	-1E+10	1	-1E+10	1	-1E+10	1
4902624	8	C	09/09/2024	15:37	-128.506	47.293	0	19.40	0	17.7888	0	32.3480	0	23.295	0	19.238	0	228.5	4	95.6	4	-1E+10	1	0.3280	4	0.001393	0	-1E+10	1	-1E+10	1	-1E+10	1
4902624	8	C	09/09/2024	15:37	-128.506	47.293	0	20.60	0	17.7882	0	32.3480	0	23.295	0	20.427	0	228.9	4	95.7	4	-1E+10	1	0.3248	4	0.001363	0	-1E+10	1	-1E+10	1	-1E+10	1
4902624	8	C	09/09/2024	15:37	-128.506	47.293	0	21.00	0	17.7880	0	32.3480	0	23.295	0	20.824	0	-1e10	1	-1e10	1	-1E+10	1	-1e10	1	-1e10	1	-1E+10	1	-1E+10	1	-1E+10	1
4902624	8	C	09/09/2024	15:37	-128.506	47.293	0	21.70	0	17.7880	0	32.3480	0	23.295	0	21.518	0	229.4	4	95.9	4	-1E+10	1	0.3112	4	0.001220	0	-1E+10	1	-1E+10	1	-1E+10	1
4902624	8	C	09/09/2024	15:37	-128.506	47.293	0	22.90	0	17.7880	0	32.3480	0	23.295	0	22.708	0	229.8	4	96.1	4	-1E+10	1	0.3094	4	0.001230	0	-1E+10	1	-1E+10	1	-1E+10	1
4902624	8	C	09/09/2024	15:37	-128.506	47.293	0	23.10	0	17.7880	0	32.3480	0	23.295	0	22.906	0	-1e10	1	-1e10	1	-1E+10	1	-1e10	1	-1e10	1	-1E+10	1	-1E+10	1	-1E+10	1
4902624	8	C	09/09/2024	15:37	-128.506	47.293	0	23.90	0	17.7880	0	32.3480	0	23.295	0	23.700	0	230.6	4	96.4	4	-1E+10	1	0.3161	4	0.001212	0	-1E+10	1	-1E+10	1	-1E+10	1
4902624	8	C	09/09/2024	15:37	-128.506	47.293	0	25.00	0	17.7880	0	32.3480	0	23.295	0	24.790	0	231.4	4	96.8	4	-1E+10	1	0.3285	4	0.001351	0	-1E+10	1	-1E+10	1	-1E+10	1
4902624	8	C	09/09/2024	15:37	-128.506	47.293	0	25.90	0	17.7876	0	32.3480	0	23.295	0	25.683	0	232.3	4	97.1	4	-1E+10	1	0.2993	4	0.001199	0	-1E+10	1	-1E+10	1	-1E+10	1
4902624	8	C	09/09/2024	15:37	-128.506	47.293	0	26.70	0	17.7872	0	32.3480	0	23.296	0	26.476	0	233.3	4	97.6	4	-1E+10	1	0.3139	4	0.001152	0	-1E+10	1	-1E+10	1	-1E+10	1
4902624	8	C	09/09/2024	15:37	-128.506	47.293	0	27.10	0	17.7870	0	32.3480	0	23.296	0	26.873	0	-1e10	1	-1e10	1	-1E+10	1	-1e10	1	-1e10	1	-1E+10	1	-1E+10	1	-1E+10	1
4902624	8	C	09/09/2024	15:37	-128.506	47.293	0	27.40	0	17.7843	0	32.3475	0	23.296	0	27.170	0	234.5	4	98.1	4	-1E+10	1	0.3139	4	0.001222	0	-1E+10	1	-1E+10	1	-1E+10	1
4902624	8	C	09/09/2024	15:37	-128.506	47.293	0	27.80	0	17.7807	0	32.3469	0	23.296	0	27.567	0	235.4	4	98.4	4	-1E+10	1	0.3139	4	0.001344	0	-1E+10	1	-1E+10	1	-1E+10	1
4902624	8	C	09/09/2024	15:37	-128.506	47.293	0	28.20	0	17.7772	0	32.3463	0	23.297	0	27.963	0	236.7	4	98.9	4	-1E+10	1	0.3095	4	0.001297	0	-1E+10	1	-1E+10	1	-1E+10	1
4902624	8	C	09/09/2024	15:37	-128.506	47.293	0	28.60	0	17.7736	0	32.3456	0	23.297	0	28.360	0	237.7	4	99.4	4	-1E+10	1	0.3124	4	0.001232	0	-1E+10	1	-1E+10	1	-1E+10	1
4902624	8	C	09/09/2024	15:37	-128.506	47.293	0	28.90	0	17.7709	0	32.3452	0	23.297	0	28.657	0	239.2	4	100.0	4	-1E+10	1	0.3212	4	0.001210	0	-1E+10	1	-1E+10	1	-1E+10	1
4902624	8	C	09/09/2024	15:37	-128.506	47.293	0	29.00	0	17.7700	0	32.3450	0	23.297	0	28.756	0	-1e10	1	-1e10	1	-1E+10	1	-1e10	1	-1e10	1	-1E+10	1	-1E+10	1	-1E+10	1
4902624	8	C	09/09/2024	15:37	-128.506	47.293	0	29.20	0	17.7431	0	32.3434	0	23.303	0	28.955	0	240.4	4	100.4	4	-1E+10	1	0.4526	4	0.001351	0	-1E+10	1	-1E+10	1	-1E+10	1
4902624	8	C	09/09/2024	15:37	-128.506	47.293	0	29.40	0	17.7163	0	32.3418	0	23.308	0	29.153	0	241.2	4	100.7	4	-1E+10	1	0.4599	4	0.001404	0	-1E+10	1	-1E+10	1	-1E+10	1
4902624	8	C	09/09/2024	15:37	-128.506	47.293	0	29.60	0	17.6894	0	32.3401	0	23.313	0	29.351	0	243.5	4	101.6	4	-1E+10	1	0.4672	4	0.001457	0	-1E+10	1	-1E+10	1	-1E+10	1
4902624	8	C	09/09/2024	15:37	-128.506	47.293	0	29.90	0	17.6491	0	32.3377	0	23.321	0	29.649	0	245.4	4	102.3	4	-1E+10	1	0.4745	4	0.001504	0	-1E+10	1	-1E+10	1	-1E+10	1
4902624	8	C	09/09/2024	15:37	-128.506	47.293	0	30.10	0	17.6223	0	32.3361	0	23.326	0	29.847	0	247.2	4	103.0	4	-1E+10	1	0.4818	4	0.001515	0	-1E+10	1	-1E+10	1	-1E+10	1
4902624	8	C	09/09/2024	15:37	-128.506	47.293	0	30.30	0	17.5954	0	32.3345	0	23.331	0	30.045	0	249.4	4	103.9	4	-1E+10	1	0.5548	4	0.001461	0	-1E+10	1	-1E+10	1	-1E+10	1
4902624	8	C	09/09/2024	15:37	-128.506	47.293	0	30.60	0	17.5551	0	32.3320	0	23.339	0	30.343	0	252.4	4	105.1	4	-1E+10	1	0.6400	4	0.001558	0	-1E+10	1	-1E+10	1	-1E+10	1
4902624	8	C	09/09/2024	15:37	-128.506	47.293	0	30.90	0	17.5149	0	32.3296	0	23.347	0	30.640	0	256.2	4	106.6	4	-1E+10	1	0.6886	4	0.001535	0	-1E+10	1	-1E+10	1	-1E+10	1
4902624	8	C	09/09/2024	15:37	-128.506	47.293	0	31.10	0	17.4880	0	32.3280	0	23.352	0	30.839	0	-1e10	1	-1e10	1	-1E+10	1	-1e10	1	-1e10	1	-1E+10	1	-1E+10	1	-1E+10	1
4902624	8	C	09/09/2024	15:37	-128.506	47.293	0	31.20	0	17.4132	0	32.3279	0	23.370	0	30.938	0	259.8	4	107.9	4	-1E+10	1	0.7519	4	0.001598	0	-1E+10	1	-1E+10	1	-1E+10	1
4902624	8	C	09/09/2024	15:37	-128.506	47.293	0	31.60	0	17.1140	0	32.3278	0	23.440	0	31.334	0	264.2	4	109.1	4	-1E+10	1	0.9156	4	0.001797	0	-1E+10	1	-1E+10	1	-1E+10	1
4902624	8	C	09/09/2024	15:37	-128.506	47.293	0	32.20	0	16.6652	0	32.3274	0	23.544	0	31.929	0	270.5	4	110.7	4	-1E+10	1	1.3536	4	0.002042	0	-1E+10	1	-1E+10	1	-1E+10	1
4902624	8	C	09/09/2024	15:37	-128.506	47.293	0	33.00	0	16.0668	0	32.3270	0	23.680	0	32.723	0	275.5	4	111.5	4	-1E+10	1	2.3202	4	0.002323	0	-1E+10	1	-1E+10	1	-1E+10	1
4902624	8	C	09/09/2024	15:37	-128.506	47.293	0	33.10	0	15.9920	0	32.3270	0	23.696	0	32.822	0	-1e10	1	-1e10	1	-1E+10	1	-1e10	1	-1e10	1	-1E+10	1	-1E+10	1	-1E+10	1
4902624	8	C	09/09/2024	15:37	-128.506	47.293	0	34.00	0	15.0763	0	32.3531	0	23.918	0	33.714	0	278.5	4	110.5	4	-1E+10	1	2.4601	4	0.003428	0	-1E+10	1	-1E+10	1	-1E+10	1
4902624	8	C	09/09/2024	15:37	-128.506	47.293	0	35.10	0	13.9570	0	32.3850	0	24.178	0	34.805	0	277.0	4	107.5	4	-1E+10	1	2.2316	4	0.001919	0	-1E+10	1	-1E+10	1	-1E+10	1
4902624	8	C	09/09/2024	15:37	-128.506	47.293	0	36.10	0	13.7338	0	32.3734	0	24.214	0	35.796	0	277.8	4	107.3	4	-1E+10	1	2.0440	4	0.001579	0	-1E+10	1	-1E+10	1	-1E+10	1
4902624	8	C	09/09/2024	15:37	-128.506	47.293	0	37.00	0	13.5330	0	32.3630	0	24.247	0	36.689	0	-1e10	1	-1e10	1	-1E+10	1	-1e10	1	-1e10	1	-1E+10	1	-1E+10	1	-1E+10	1
4902624	8	C	09/09/2024	15:37	-128.506	47.293	0	37.20	0	13.4893	0	32.3653	0	24.257	0	36.887	0	277.2	4	106.6	4	-1E+10	1	1.9934	4	0.001555	0	-1E+10	1	-1E+10	1	-1E+10	1
4902624	8	C	09/09/2024	15:37	-128.506	47.293	0	38.40	0	13.2270	0	32.3790	0	24.320	0	38.077	0	277.1	4	106.0	4	-1E+10	1	1.9965	4	0.001443	0	-1E+10	1	-1E+10	1	-1E+10	1
4902624	8	C	09/09/2024	15:37	-128.506	47.293	0	39.10	0	13.0740	0	32.3870	0	24.356	0	38.771	0	-1e10	1	-1e10	1	-1E+10	1	-1e10	1	-1e10	1	-1E+10	1	-1E+10	1	-1E+10	1
4902624	8	C	09/09/2024	15:37	-128.506	47.293	0	39.50	0	13.0052	0	32.3870	0	24.370	0	39.167	0	276.7	4	105.4	4	-1E+10	1	2.0632	4	0.001393	0	-1E+10	1	-1E+10	1	-1E+10	1
4902624	8	C	09/09/2024	15:37	-128.506	47.293	0	40.50	0	12.8331	0	32.3870	0	24.404	0	40.159	0	276.5	4	104.9	4	-1E+10	1	2.1608	4	0.001527	0	-1E+10	1	-1E+10	1	-1E+10	1
4902624	8	C	09/09/2024	15:37	-128.506	47.293	0	41.00	0	12.7470	0	32.3870	0	24.420	0	40.655	0	-1e10	1	-1e10	1	-1E+10	1	-1e10	1	-1e10	1	-1E+10	1	-1E+10	1	-1E+10	1
4902624	8	C	09/09/2024	15:37	-128.506	47.293	0	41.40	0	12.6843	0	32.3853	0	24.431	0	41.051	0	276.1	4	104.4	4	-1E+10	1	2.1783	4	0.001640	0	-1E+10	1	-1E+10	1	-1E+10	1
4902624	8	C	09/09/2024	15:37	-128.506	47.293	0	42.20	0	12.5588	0	32.3820	0	24.453	0	41.844	0	275.5	4	103.9	4	-1E+10	1	2.2484	4	0.001762	0	-1E+10	1	-1E+10	1	-1E+10	1
4902624	8	C	09/09/2024	15:37	-128.506	47.293	0	42.90	0	12.4490	0	32.3790	0	24.471	0	42.538	0	272.9	4	102.7	4	-1E+10	1	2.2630	4	0.002098	0	-1E+10	1	-1E+10	1	-1E+10	1
4902624	8	C	09/09/2024	15:37	-128.506	47.293	0	43.60	0	12.3267	0	32.3767	0	24.493	0	43.232	0	274.9	4	103.2	4	-1E+10	1	2.5504	4	0.001598	0	-1E+10	1	-1E+10	1	-1E+10	1
4902624	8	C	09/09/2024	15:37	-128.506	47.293	0	44.20	0	12.2218	0	32.3747	0	24.511	0	43.827	0	273.8	4	102.6	4	-1E+10	1	2.6143	4	0.001549	0	-1E+10	1	-1E+10	1	-1E+10	1
4902624	8	C	09/09/2024	15:37	-128.506	47.293	0	44.90	0	12.0995	0	32.3723	0	24.532	0	44.521	0	273.2	4	102.1	4	-1E+10	1	2.4382	4	0.001539	0	-1E+10	1	-1E+10	1	-1E+10	1
4902624	8	C	09/09/2024	15:37	-128.506	47.293	0	45.00	0	12.0820	0	32.3720	0	24.535	0	44.620	0	-1e10	1	-1e10	1	-1E+10	1	-1e10	1	-1e10	1	-1E+10	1	-1E+10	1	-1E+10	1
4902624	8	C	09/09/2024	15:37	-128.506	47.293	0	45.60	0	11.9765	0	32.3739	0	24.556	0	45.215	0	272.1	4	101.4	4	-1E+10	1	2.3311	4	0.001364	0	-1E+10	1	-1E+10	1	-1E+10	1
4902624	8	C	09/09/2024	15:37	-128.506	47.293	0	46.30	0	11.8533	0	32.3761	0	24.581	0	45.909	0	271.2	4	100.8	4	-1E+10	1	2.2922	4	0.001300	0	-1E+10	1	-1E+10	1	-1E+10	1
4902624	8	C	09/09/2024	15:37	-128.506	47.293	0	47.00	0	11.7302	0	32.3784	0	24.605	0	46.603	0	270.6	4	100.3	4	-1E+10	1	2.2442	4	0.001418	0	-1E+10	1	-1E+10	1	-1E+10	1
4902624	8	C	09/09/2024	15:37	-128.506	47.293	0	47.20	0	11.6950	0	32.3790	0	24.612	0	46.802	0	-1e10	1	-1e10	1	-1E+10	1	-1e10	1	-1e10	1	-1E+10	1	-1E+10	1	-1E+10	1
4902624	8	C	09/09/2024	15:37	-128.506	47.293	0	47.70	0	11.6008	0	32.3809	0	24.631	0	47.297	0	270.7	4	100.1	4	-1E+10	1	2.2828	4	0.001314	0	-1E+10	1	-1E+10	1	-1E+10	1
4902624	8	C	09/09/2024	15:37	-128.506	47.293	0	48.40	0	11.4690	0	32.3837	0	24.657	0	47.991	0	270.2	4	99.6	4	-1E+10	1	2.1407	4	0.001297	0	-1E+10	1	-1E+10	1	-1E+10	1
4902624	8	C	09/09/2024	15:37	-128.506	47.293	0	49.00	0	11.3560	0	32.3860	0	24.679	0	48.586	0	-1e10	1	-1e10	1	-1E+10	1	-1e10	1	-1e10	1	-1E+10	1	-1E+10	1	-1E+10	1
4902624	8	C	09/09/2024	15:37	-128.506	47.293	0	49.10	0	11.3402	0	32.3861	0	24.682	0	48.685	0	269.4	4	99.1	4	-1E+10	1	2.1535	4	0.001738	0	-1E+10	1	-1E+10	1	-1E+10	1
4902624	8	C	09/09/2024	15:37	-128.506	47.293	0	49.90	0	11.2138	0	32.3869	0	24.705	0	49.478	0	268.7	4	98.5	4	-1E+10	1	2.1097	4	0.001328	0	-1E+10	1	-1E+10	1	-1E+10	1
4902624	8	C	09/09/2024	15:37	-128.506	47.293	0	50.70	0	11.0874	0	32.3877	0	24.728	0	50.272	0	267.8	4	98.0	4	-1E+10	1	2.0837	4	0.001244	0	-1E+10	1	-1E+10	1	-1E+10	1
4902624	8	C	09/09/2024	15:37	-128.506	47.293	0	51.00	0	11.0400	0	32.3880	0	24.737	0	50.569	0	-1e10	1	-1e10	1	-1E+10	1	-1e10	1	-1e10	1	-1E+10	1	-1E+10	1	-1E+10	1
4902624	8	C	09/09/2024	15:37	-128.506	47.293	0	51.40	0	10.9941	0	32.3882	0	24.745	0	50.966	0	267.0	4	97.5	4	-1E+10	1	2.1418	4	0.001206	0	-1E+10	1	-1E+10	1	-1E+10	1
4902624	8	C	09/09/2024	15:37	-128.506	47.293	0	52.30	0	10.8908	0	32.3886	0	24.763	0	51.858	0	266.4	4	97.0	4	-1E+10	1	2.1234	4	0.001187	0	-1E+10	1	-1E+10	1	-1E+10	1
4902624	8	C	09/09/2024	15:37	-128.506	47.293	0	53.10	0	10.7990	0	32.3890	0	24.780	0	52.651	0	262.9	4	95.6	4	-1E+10	1	2.0075	4	0.001122	0	-1E+10	1	-1E+10	1	-1E+10	1
4902624	8	C	09/09/2024	15:37	-128.506	47.293	0	54.00	0	10.6941	0	32.3922	0	24.800	0	53.543	0	265.6	4	96.4	4	-1E+10	1	1.9086	4	0.001041	0	-1E+10	1	-1E+10	1	-1E+10	1
4902624	8	C	09/09/2024	15:37	-128.506	47.293	0	54.90	0	10.5893	0	32.3953	0	24.821	0	54.436	0	265.4	4	96.1	4	-1E+10	1	1.8307	4	0.001003	0	-1E+10	1	-1E+10	1	-1E+10	1
4902624	8	C	09/09/2024	15:37	-128.506	47.293	0	55.10	0	10.5660	0	32.3960	0	24.825	0	54.634	0	-1e10	1	-1e10	1	-1E+10	1	-1e10	1	-1e10	1	-1E+10	1	-1E+10	1	-1E+10	1
4902624	8	C	09/09/2024	15:37	-128.506	47.293	0	55.80	0	10.4980	0	32.4007	0	24.841	0	55.328	0	265.3	4	95.8	4	-1E+10	1	1.6522	4	0.000970	0	-1E+10	1	-1E+10	1	-1E+10	1
4902624	8	C	09/09/2024	15:37	-128.506	47.293	0	56.80	0	10.4009	0	32.4073	0	24.862	0	56.319	0	264.9	4	95.5	4	-1E+10	1	1.5549	4	0.000940	0	-1E+10	1	-1E+10	1	-1E+10	1
4902624	8	C	09/09/2024	15:37	-128.506	47.293	0	57.20	0	10.3620	0	32.4100	0	24.871	0	56.716	0	-1e10	1	-1e10	1	-1E+10	1	-1e10	1	-1e10	1	-1E+10	1	-1E+10	1	-1E+10	1
4902624	8	C	09/09/2024	15:37	-128.506	47.293	0	57.70	0	10.3275	0	32.4108	0	24.877	0	57.212	0	264.5	4	95.2	4	-1E+10	1	1.4175	4	0.000931	0	-1E+10	1	-1E+10	1	-1E+10	1
4902624	8	C	09/09/2024	15:37	-128.506	47.293	0	58.70	0	10.2586	0	32.4124	0	24.890	0	58.203	0	264.1	4	94.9	4	-1E+10	1	1.3111	4	0.000863	0	-1E+10	1	-1E+10	1	-1E+10	1
4902624	8	C	09/09/2024	15:37	-128.506	47.293	0	59.10	0	10.2310	0	32.4130	0	24.895	0	58.599	0	-1e10	1	-1e10	1	-1E+10	1	-1e10	1	-1e10	1	-1E+10	1	-1E+10	1	-1E+10	1
4902624	8	C	09/09/2024	15:37	-128.506	47.293	0	59.60	0	10.2099	0	32.4122	0	24.898	0	59.095	0	263.7	4	94.7	4	-1E+10	1	1.2967	4	0.000884	0	-1E+10	1	-1E+10	1	-1E+10	1
4902624	8	C	09/09/2024	15:37	-128.506	47.293	0	60.60	0	10.1678	0	32.4106	0	24.904	0	60.087	0	263.1	4	94.4	4	-1E+10	1	1.2702	4	0.000899	0	-1E+10	1	-1E+10	1	-1E+10	1
4902624	8	C	09/09/2024	15:37	-128.506	47.293	0	61.00	0	10.1510	0	32.4100	0	24.907	0	60.483	0	-1e10	1	-1e10	1	-1E+10	1	-1e10	1	-1e10	1	-1E+10	1	-1E+10	1	-1E+10	1
4902624	8	C	09/09/2024	15:37	-128.506	47.293	0	61.60	0	10.1297	0	32.4094	0	24.910	0	61.078	0	262.6	4	94.1	4	-1E+10	1	1.2235	4	0.000879	0	-1E+10	1	-1E+10	1	-1E+10	1
4902624	8	C	09/09/2024	15:37	-128.506	47.293	0	62.50	0	10.0977	0	32.4085	0	24.914	0	61.970	0	261.8	4	93.8	4	-1E+10	1	1.1872	4	0.000852	0	-1E+10	1	-1E+10	1	-1E+10	1
4902624	8	C	09/09/2024	15:37	-128.506	47.293	0	63.00	0	10.0800	0	32.4080	0	24.917	0	62.466	0	-1e10	1	-1e10	1	-1E+10	1	-1e10	1	-1e10	1	-1E+10	1	-1E+10	1	-1E+10	1
4902624	8	C	09/09/2024	15:37	-128.506	47.293	0	63.50	0	10.0478	0	32.4095	0	24.923	0	62.962	0	261.1	4	93.4	4	-1E+10	1	1.1607	4	0.000846	0	-1E+10	1	-1E+10	1	-1E+10	1
4902624	8	C	09/09/2024	15:37	-128.506	47.293	0	64.60	0	9.9768	0	32.4128	0	24.938	0	64.052	0	260.5	4	93.1	4	-1E+10	1	1.1607	4	0.000905	0	-1E+10	1	-1E+10	1	-1E+10	1
4902624	8	C	09/09/2024	15:37	-128.506	47.293	0	65.00	0	9.9510	0	32.4140	0	24.943	0	64.449	0	-1e10	1	-1e10	1	-1E+10	1	-1e10	1	-1e10	1	-1E+10	1	-1E+10	1	-1E+10	1
4902624	8	C	09/09/2024	15:37	-128.506	47.293	0	65.60	0	9.9042	0	32.4137	0	24.950	0	65.043	0	260.0	4	92.8	4	-1E+10	1	1.0512	4	0.000858	0	-1E+10	1	-1E+10	1	-1E+10	1
4902624	8	C	09/09/2024	15:37	-128.506	47.293	0	66.60	0	9.8262	0	32.4132	0	24.963	0	66.035	0	259.5	4	92.4	4	-1E+10	1	1.0208	4	0.001044	0	-1E+10	1	-1E+10	1	-1E+10	1
4902624	8	C	09/09/2024	15:37	-128.506	47.293	0	67.00	0	9.7950	0	32.4130	0	24.968	0	66.431	0	-1e10	1	-1e10	1	-1E+10	1	-1e10	1	-1e10	1	-1E+10	1	-1E+10	1	-1E+10	1
4902624	8	C	09/09/2024	15:37	-128.506	47.293	0	67.70	0	9.7482	0	32.4134	0	24.976	0	67.125	0	258.9	4	92.0	4	-1E+10	1	0.9692	4	0.000837	0	-1E+10	1	-1E+10	1	-1E+10	1
4902624	8	C	09/09/2024	15:37	-128.506	47.293	0	68.70	0	9.6814	0	32.4139	0	24.987	0	68.117	0	258.5	4	91.8	4	-1E+10	1	0.8789	4	0.000750	0	-1E+10	1	-1E+10	1	-1E+10	1
4902624	8	C	09/09/2024	15:37	-128.506	47.293	0	68.90	0	9.6680	0	32.4140	0	24.989	0	68.315	0	-1e10	1	-1e10	1	-1E+10	1	-1e10	1	-1e10	1	-1E+10	1	-1E+10	1	-1E+10	1
4902624	8	C	09/09/2024	15:37	-128.506	47.293	0	69.80	0	9.6101	0	32.4144	0	24.999	0	69.207	0	257.9	4	91.4	4	-1E+10	1	0.8243	4	0.000783	0	-1E+10	1	-1E+10	1	-1E+10	1
4902624	8	C	09/09/2024	15:37	-128.506	47.293	0	70.80	0	9.5459	0	32.4149	0	25.010	0	70.198	0	257.4	4	91.1	4	-1E+10	1	0.8064	4	0.000771	0	-1E+10	1	-1E+10	1	-1E+10	1
4902624	8	C	09/09/2024	15:37	-128.506	47.293	0	71.00	0	9.5330	0	32.4150	0	25.012	0	70.397	0	-1e10	1	-1e10	1	-1E+10	1	-1e10	1	-1e10	1	-1E+10	1	-1E+10	1	-1E+10	1
4902624	8	C	09/09/2024	15:37	-128.506	47.293	0	71.90	0	9.4934	0	32.4186	0	25.021	0	71.289	0	256.7	4	90.8	4	-1E+10	1	0.7731	4	0.000699	0	-1E+10	1	-1E+10	1	-1E+10	1
4902624	8	C	09/09/2024	15:37	-128.506	47.293	0	73.00	0	9.4450	0	32.4230	0	25.032	0	72.379	0	252.6	4	89.2	4	-1E+10	1	0.7294	4	0.000676	0	-1E+10	1	-1E+10	1	-1E+10	1
4902624	8	C	09/09/2024	15:37	-128.506	47.293	0	74.10	0	9.3952	0	32.4230	0	25.040	0	73.470	0	255.7	4	90.2	4	-1E+10	1	0.6862	4	0.000706	0	-1E+10	1	-1E+10	1	-1E+10	1
4902624	8	C	09/09/2024	15:37	-128.506	47.293	0	75.10	0	9.3500	0	32.4230	0	25.047	0	74.461	0	251.6	4	88.7	4	-1E+10	1	0.6637	4	0.000624	0	-1E+10	1	-1E+10	1	-1E+10	1
4902624	8	C	09/09/2024	15:37	-128.506	47.293	0	76.20	0	9.3373	0	32.4253	0	25.051	0	75.552	0	254.5	4	89.7	4	-1E+10	1	0.6453	4	0.000647	0	-1E+10	1	-1E+10	1	-1E+10	1
4902624	8	C	09/09/2024	15:37	-128.506	47.293	0	77.00	0	9.3280	0	32.4270	0	25.054	0	76.345	0	-1e10	1	-1e10	1	-1E+10	1	-1e10	1	-1e10	1	-1E+10	1	-1E+10	1	-1E+10	1
4902624	8	C	09/09/2024	15:37	-128.506	47.293	0	77.30	0	9.3196	0	32.4277	0	25.056	0	76.642	0	253.8	4	89.4	4	-1E+10	1	0.6272	4	0.000659	0	-1E+10	1	-1E+10	1	-1E+10	1
4902624	8	C	09/09/2024	15:37	-128.506	47.293	0	78.30	0	9.2916	0	32.4302	0	25.062	0	77.633	0	253.0	4	89.0	4	-1E+10	1	0.5913	4	0.000629	0	-1E+10	1	-1E+10	1	-1E+10	1
4902624	8	C	09/09/2024	15:37	-128.506	47.293	0	79.00	0	9.2720	0	32.4320	0	25.067	0	78.327	0	-1e10	1	-1e10	1	-1E+10	1	-1e10	1	-1e10	1	-1E+10	1	-1E+10	1	-1E+10	1
4902624	8	C	09/09/2024	15:37	-128.506	47.293	0	79.30	0	9.2622	0	32.4330	0	25.069	0	78.625	0	252.2	4	88.7	4	-1E+10	1	0.5488	4	0.000583	0	-1E+10	1	-1E+10	1	-1E+10	1
4902624	8	C	09/09/2024	15:37	-128.506	47.293	0	80.40	0	9.2265	0	32.4369	0	25.078	0	79.715	0	251.3	4	88.4	4	-1E+10	1	0.4915	4	0.000553	0	-1E+10	1	-1E+10	1	-1E+10	1
4902624	8	C	09/09/2024	15:37	-128.506	47.293	0	81.00	0	9.2070	0	32.4390	0	25.083	0	80.310	0	-1e10	1	-1e10	1	-1E+10	1	-1e10	1	-1e10	1	-1E+10	1	-1E+10	1	-1E+10	1
4902624	8	C	09/09/2024	15:37	-128.506	47.293	0	81.40	0	9.1876	0	32.4416	0	25.088	0	80.706	0	250.5	4	88.0	4	-1E+10	1	0.4167	4	0.000544	0	-1E+10	1	-1E+10	1	-1E+10	1
4902624	8	C	09/09/2024	15:37	-128.506	47.293	0	82.50	0	9.1342	0	32.4487	0	25.102	0	81.797	0	249.8	4	87.6	4	-1E+10	1	0.3796	4	0.000494	0	-1E+10	1	-1E+10	1	-1E+10	1
4902624	8	C	09/09/2024	15:37	-128.506	47.293	0	83.00	0	9.1100	0	32.4520	0	25.108	0	82.292	0	-1e10	1	-1e10	1	-1E+10	1	-1e10	1	-1e10	1	-1E+10	1	-1E+10	1	-1E+10	1
4902624	8	C	09/09/2024	15:37	-128.506	47.293	0	83.50	0	9.1050	0	32.4552	0	25.111	0	82.788	0	249.1	4	87.3	4	-1E+10	1	0.3869	4	0.000518	0	-1E+10	1	-1E+10	1	-1E+10	1
4902624	8	C	09/09/2024	15:37	-128.506	47.293	0	84.60	0	9.0940	0	32.4624	0	25.119	0	83.878	0	248.4	4	87.1	4	-1E+10	1	0.3869	4	0.000483	0	-1E+10	1	-1E+10	1	-1E+10	1
4902624	8	C	09/09/2024	15:37	-128.506	47.293	0	85.00	0	9.0900	0	32.4650	0	25.121	0	84.275	0	-1e10	1	-1e10	1	-1E+10	1	-1e10	1	-1e10	1	-1E+10	1	-1E+10	1	-1E+10	1
4902624	8	C	09/09/2024	15:37	-128.506	47.293	0	85.60	0	9.0876	0	32.4653	0	25.122	0	84.870	0	247.6	4	86.8	4	-1E+10	1	0.3626	4	0.000453	0	-1E+10	1	-1E+10	1	-1E+10	1
4902624	8	C	09/09/2024	15:37	-128.506	47.293	0	86.60	0	9.0836	0	32.4658	0	25.123	0	85.861	0	246.5	4	86.4	4	-1E+10	1	0.3524	4	0.000507	0	-1E+10	1	-1E+10	1	-1E+10	1
4902624	8	C	09/09/2024	15:37	-128.506	47.293	0	87.00	0	9.0820	0	32.4660	0	25.123	0	86.257	0	-1e10	1	-1e10	1	-1E+10	1	-1e10	1	-1e10	1	-1E+10	1	-1E+10	1	-1E+10	1
4902624	8	C	09/09/2024	15:37	-128.506	47.293	0	87.70	0	9.0736	0	32.4692	0	25.127	0	86.951	0	245.2	4	85.9	4	-1E+10	1	0.3369	4	0.000494	0	-1E+10	1	-1E+10	1	-1E+10	1
4902624	8	C	09/09/2024	15:37	-128.506	47.293	0	88.80	0	9.0604	0	32.4741	0	25.133	0	88.042	0	243.9	4	85.4	4	-1E+10	1	0.3139	4	0.000453	0	-1E+10	1	-1E+10	1	-1E+10	1
4902624	8	C	09/09/2024	15:37	-128.506	47.293	0	89.00	0	9.0580	0	32.4750	0	25.134	0	88.240	0	-1e10	1	-1e10	1	-1E+10	1	-1e10	1	-1e10	1	-1E+10	1	-1E+10	1	-1E+10	1
4902624	8	C	09/09/2024	15:37	-128.506	47.293	0	89.80	0	9.0464	0	32.4782	0	25.139	0	89.033	0	242.5	4	84.9	4	-1E+10	1	0.2993	4	0.000423	0	-1E+10	1	-1E+10	1	-1E+10	1
4902624	8	C	09/09/2024	15:37	-128.506	47.293	0	90.90	0	9.0304	0	32.4826	0	25.144	0	90.123	0	241.0	4	84.4	4	-1E+10	1	0.2896	4	0.000397	0	-1E+10	1	-1E+10	1	-1E+10	1
4902624	8	C	09/09/2024	15:37	-128.506	47.293	0	91.00	0	9.0290	0	32.4830	0	25.145	0	90.222	0	-1e10	1	-1e10	1	-1E+10	1	-1e10	1	-1e10	1	-1E+10	1	-1E+10	1	-1E+10	1
4902624	8	C	09/09/2024	15:37	-128.506	47.293	0	91.90	0	8.9944	0	32.4911	0	25.157	0	91.114	0	239.5	4	83.8	4	-1E+10	1	0.2701	4	0.000393	0	-1E+10	1	-1E+10	1	-1E+10	1
4902624	8	C	09/09/2024	15:37	-128.506	47.293	0	93.00	0	8.9520	0	32.5010	0	25.171	0	92.205	0	234.2	4	81.9	4	-1E+10	1	0.2701	4	0.000416	0	-1E+10	1	-1E+10	1	-1E+10	1
4902624	8	C	09/09/2024	15:37	-128.506	47.293	0	94.10	0	8.8882	0	32.5126	0	25.190	0	93.295	0	236.2	4	82.5	4	-1E+10	1	0.2482	4	0.000401	0	-1E+10	1	-1E+10	1	-1E+10	1
4902624	8	C	09/09/2024	15:37	-128.506	47.293	0	95.00	0	8.8360	0	32.5220	0	25.205	0	94.187	0	-1e10	1	-1e10	1	-1E+10	1	-1e10	1	-1e10	1	-1E+10	1	-1E+10	1	-1E+10	1
4902624	8	C	09/09/2024	15:37	-128.506	47.293	0	95.10	0	8.8320	0	32.5234	0	25.207	0	94.286	0	234.7	4	81.8	4	-1E+10	1	0.2257	4	0.000391	0	-1E+10	1	-1E+10	1	-1E+10	1
4902624	8	C	09/09/2024	15:37	-128.506	47.293	0	96.20	0	8.7886	0	32.5391	0	25.226	0	95.377	0	233.0	4	81.2	4	-1E+10	1	0.2141	4	0.000373	0	-1E+10	1	-1E+10	1	-1E+10	1
4902624	8	C	09/09/2024	15:37	-128.506	47.293	0	97.10	0	8.7530	0	32.5520	0	25.242	0	96.269	0	-1e10	1	-1e10	1	-1E+10	1	-1e10	1	-1e10	1	-1E+10	1	-1E+10	1	-1E+10	1
4902624	8	C	09/09/2024	15:37	-128.506	47.293	0	97.20	0	8.7517	0	32.5525	0	25.242	0	96.368	0	231.5	4	80.6	4	-1E+10	1	0.2117	4	0.000381	0	-1E+10	1	-1E+10	1	-1E+10	1
4902624	8	C	09/09/2024	15:37	-128.506	47.293	0	98.00	0	8.7413	0	32.5569	0	25.247	0	97.161	0	230.0	4	80.1	4	-1E+10	1	0.2158	4	0.000363	0	-1E+10	1	-1E+10	1	-1E+10	1
4902624	8	C	09/09/2024	15:37	-128.506	47.293	0	98.70	0	8.7322	0	32.5608	0	25.252	0	97.855	0	228.7	4	79.6	4	-1E+10	1	0.2221	4	0.000343	0	-1E+10	1	-1E+10	1	-1E+10	1
4902624	8	C	09/09/2024	15:37	-128.506	47.293	0	99.10	0	8.7270	0	32.5630	0	25.254	0	98.251	0	-1e10	1	-1e10	1	-1E+10	1	-1e10	1	-1e10	1	-1E+10	1	-1E+10	1	-1E+10	1
4902624	8	C	09/09/2024	15:37	-128.506	47.293	0	99.20	0	8.7249	0	32.5637	0	25.255	0	98.350	0	227.3	4	79.1	4	-1E+10	1	0.2275	4	0.000348	0	-1E+10	1	-1E+10	1	-1E+10	1
4902624	8	C	09/09/2024	15:37	-128.506	47.293	0	99.90	0	8.7102	0	32.5685	0	25.261	0	99.044	0	225.7	4	78.5	4	-1E+10	1	0.2336	4	0.000371	0	-1E+10	1	-1E+10	1	-1E+10	1
4902624	8	C	09/09/2024	15:37	-128.506	47.293	0	100.50	0	8.6975	0	32.5726	0	25.266	0	99.639	0	224.1	4	78.0	4	-1E+10	1	0.2336	4	0.000389	0	-1E+10	1	-1E+10	1	-1E+10	1
4902624	8	C	09/09/2024	15:37	-128.506	47.293	0	101.00	0	8.6870	0	32.5760	0	25.270	0	100.134	0	-1e10	1	-1e10	1	-1E+10	1	-1e10	1	-1e10	1	-1E+10	1	-1E+10	1	-1E+10	1
4902624	8	C	09/09/2024	15:37	-128.506	47.293	0	101.10	0	8.6833	0	32.5780	0	25.273	0	100.234	0	222.4	4	77.3	4	-1E+10	1	0.2336	4	0.000369	0	-1E+10	1	-1E+10	1	-1E+10	1
4902624	8	C	09/09/2024	15:37	-128.506	47.293	0	101.80	0	8.6574	0	32.5920	0	25.288	0	100.927	0	220.3	4	76.6	4	-1E+10	1	0.2273	4	0.000345	0	-1E+10	1	-1E+10	1	-1E+10	1
4902624	8	C	09/09/2024	15:37	-128.506	47.293	0	102.50	0	8.6315	0	32.6060	0	25.302	0	101.621	0	218.2	4	75.8	4	-1E+10	1	0.2360	4	0.000357	0	-1E+10	1	-1E+10	1	-1E+10	1
4902624	8	C	09/09/2024	15:37	-128.506	47.293	0	103.00	0	8.6130	0	32.6160	0	25.313	0	102.117	0	-1e10	1	-1e10	1	-1E+10	1	-1e10	1	-1e10	1	-1E+10	1	-1E+10	1	-1E+10	1
4902624	8	C	09/09/2024	15:37	-128.506	47.293	0	103.30	0	8.6116	0	32.6255	0	25.321	0	102.414	0	215.8	4	74.9	4	-1E+10	1	0.2328	4	0.000385	0	-1E+10	1	-1E+10	1	-1E+10	1
4902624	8	C	09/09/2024	15:37	-128.506	47.293	0	104.00	0	8.6085	0	32.6475	0	25.338	0	103.108	0	213.8	4	74.2	4	-1E+10	1	0.2318	4	0.000752	0	-1E+10	1	-1E+10	1	-1E+10	1
4902624	8	C	09/09/2024	15:37	-128.506	47.293	0	104.80	0	8.6049	0	32.6727	0	25.359	0	103.901	0	211.8	4	73.6	4	-1E+10	1	0.2365	4	0.001036	0	-1E+10	1	-1E+10	1	-1E+10	1
4902624	8	C	09/09/2024	15:37	-128.506	47.293	0	105.00	0	8.6040	0	32.6790	0	25.364	0	104.099	0	-1e10	1	-1e10	1	-1E+10	1	-1e10	1	-1e10	1	-1E+10	1	-1E+10	1	-1E+10	1
4902624	8	C	09/09/2024	15:37	-128.506	47.293	0	105.70	0	8.6007	0	32.6967	0	25.378	0	104.793	0	210.1	4	73.0	4	-1E+10	1	0.2263	4	0.000321	0	-1E+10	1	-1E+10	1	-1E+10	1
4902624	8	C	09/09/2024	15:37	-128.506	47.293	0	106.50	0	8.5969	0	32.7169	0	25.395	0	105.586	0	208.6	4	72.5	4	-1E+10	1	0.2263	4	0.000283	0	-1E+10	1	-1E+10	1	-1E+10	1
4902624	8	C	09/09/2024	15:37	-128.506	47.293	0	107.10	0	8.5940	0	32.7320	0	25.407	0	106.181	0	-1e10	1	-1e10	1	-1E+10	1	-1e10	1	-1e10	1	-1E+10	1	-1E+10	1	-1E+10	1
4902624	8	C	09/09/2024	15:37	-128.506	47.293	0	107.40	0	8.5918	0	32.7388	0	25.413	0	106.478	0	207.1	4	72.0	4	-1E+10	1	0.2117	4	0.000342	0	-1E+10	1	-1E+10	1	-1E+10	1
4902624	8	C	09/09/2024	15:37	-128.506	47.293	0	108.30	0	8.5850	0	32.7590	0	25.429	0	107.370	0	205.7	4	71.5	4	-1E+10	1	0.2183	4	0.000331	0	-1E+10	1	-1E+10	1	-1E+10	1
4902624	8	C	09/09/2024	15:37	-128.506	47.293	0	109.10	0	8.5790	0	32.7770	0	25.444	0	108.163	0	-1e10	1	-1e10	1	-1E+10	1	-1e10	1	-1e10	1	-1E+10	1	-1E+10	1	-1E+10	1
4902624	8	C	09/09/2024	15:37	-128.506	47.293	0	109.20	0	8.5773	0	32.7796	0	25.447	0	108.262	0	204.6	4	71.1	4	-1E+10	1	0.1995	4	0.000330	0	-1E+10	1	-1E+10	1	-1E+10	1
4902624	8	C	09/09/2024	15:37	-128.506	47.293	0	110.10	0	8.5616	0	32.8033	0	25.468	0	109.154	0	203.7	4	70.7	4	-1E+10	1	0.1898	4	0.000330	0	-1E+10	1	-1E+10	1	-1E+10	1
4902624	8	C	09/09/2024	15:37	-128.506	47.293	0	111.00	0	8.5460	0	32.8270	0	25.489	0	110.046	0	-1e10	1	-1e10	1	-1E+10	1	-1e10	1	-1e10	1	-1E+10	1	-1E+10	1	-1E+10	1
4902624	8	C	09/09/2024	15:37	-128.506	47.293	0	111.10	0	8.5445	0	32.8288	0	25.490	0	110.145	0	202.8	4	70.4	4	-1E+10	1	0.2044	4	0.000301	0	-1E+10	1	-1E+10	1	-1E+10	1
4902624	8	C	09/09/2024	15:37	-128.506	47.293	0	112.00	0	8.5315	0	32.8450	0	25.505	0	111.037	0	202.2	4	70.2	4	-1E+10	1	0.2150	4	0.000287	0	-1E+10	1	-1E+10	1	-1E+10	1
4902624	8	C	09/09/2024	15:37	-128.506	47.293	0	113.00	0	8.5170	0	32.8630	0	25.521	0	112.028	0	197.9	4	68.7	4	-1E+10	1	0.2000	4	0.000328	0	-1E+10	1	-1E+10	1	-1E+10	1
4902624	8	C	09/09/2024	15:37	-128.506	47.293	0	114.00	0	8.5013	0	32.8816	0	25.538	0	113.019	0	201.1	4	69.8	4	-1E+10	1	0.1825	4	0.000314	0	-1E+10	1	-1E+10	1	-1E+10	1
4902624	8	C	09/09/2024	15:37	-128.506	47.293	0	115.00	0	8.4856	0	32.9001	0	25.555	0	114.011	0	201.0	4	69.7	4	-1E+10	1	0.1825	4	0.000295	0	-1E+10	1	-1E+10	1	-1E+10	1
4902624	8	C	09/09/2024	15:37	-128.506	47.293	0	115.10	0	8.4840	0	32.9020	0	25.557	0	114.110	0	-1e10	1	-1e10	1	-1E+10	1	-1e10	1	-1e10	1	-1E+10	1	-1E+10	1	-1E+10	1
4902624	8	C	09/09/2024	15:37	-128.506	47.293	0	116.00	0	8.4286	0	32.9129	0	25.574	0	115.002	0	200.7	4	69.5	4	-1E+10	1	0.1582	4	0.000275	0	-1E+10	1	-1E+10	1	-1E+10	1
4902624	8	C	09/09/2024	15:37	-128.506	47.293	0	117.00	0	8.3670	0	32.9250	0	25.592	0	115.993	0	196.3	4	67.9	4	-1E+10	1	0.1533	4	0.000288	0	-1E+10	1	-1E+10	1	-1E+10	1
4902624	8	C	09/09/2024	15:37	-128.506	47.293	0	118.10	0	8.2977	0	32.9734	0	25.641	0	117.083	0	200.0	4	69.1	4	-1E+10	1	0.1488	4	0.000331	0	-1E+10	1	-1E+10	1	-1E+10	1
4902624	8	C	09/09/2024	15:37	-128.506	47.293	0	119.00	0	8.2410	0	33.0130	0	25.680	0	117.975	0	-1e10	1	-1e10	1	-1E+10	1	-1e10	1	-1e10	1	-1E+10	1	-1E+10	1	-1E+10	1
4902624	8	C	09/09/2024	15:37	-128.506	47.293	0	119.20	0	8.2297	0	33.0172	0	25.685	0	118.173	0	200.0	4	69.1	4	-1E+10	1	0.1426	4	0.000332	0	-1E+10	1	-1E+10	1	-1E+10	1
4902624	8	C	09/09/2024	15:37	-128.506	47.293	0	120.30	0	8.1676	0	33.0403	0	25.712	0	119.263	0	200.3	4	69.1	4	-1E+10	1	0.1228	4	0.000294	0	-1E+10	1	-1E+10	1	-1E+10	1
4902624	8	C	09/09/2024	15:37	-128.506	47.293	0	121.00	0	8.1280	0	33.0550	0	25.730	0	119.957	0	-1e10	1	-1e10	1	-1E+10	1	-1e10	1	-1e10	1	-1E+10	1	-1E+10	1	-1E+10	1
4902624	8	C	09/09/2024	15:37	-128.506	47.293	0	121.50	0	8.0868	0	33.0665	0	25.745	0	120.453	0	200.2	4	69.0	4	-1E+10	1	0.0949	4	0.000280	0	-1E+10	1	-1E+10	1	-1E+10	1
4902624	8	C	09/09/2024	15:37	-128.506	47.293	0	122.60	0	7.9960	0	33.0918	0	25.778	0	121.543	0	199.8	4	68.7	4	-1E+10	1	0.0949	4	0.000298	0	-1E+10	1	-1E+10	1	-1E+10	1
4902624	8	C	09/09/2024	15:37	-128.506	47.293	0	123.00	0	7.9630	0	33.1010	0	25.790	0	121.939	0	-1e10	1	-1e10	1	-1E+10	1	-1e10	1	-1e10	1	-1E+10	1	-1E+10	1	-1E+10	1
4902624	8	C	09/09/2024	15:37	-128.506	47.293	0	123.80	0	7.9266	0	33.1158	0	25.807	0	122.732	0	199.2	4	68.4	4	-1E+10	1	0.0949	4	0.000318	0	-1E+10	1	-1E+10	1	-1E+10	1
4902624	8	C	09/09/2024	15:37	-128.506	47.293	0	125.00	0	7.8720	0	33.1380	0	25.832	0	123.922	0	194.2	4	66.6	4	-1E+10	1	0.0949	4	0.000260	0	-1E+10	1	-1E+10	1	-1E+10	1
4902624	8	C	09/09/2024	15:37	-128.506	47.293	0	126.10	0	7.8450	0	33.1639	0	25.857	0	125.012	0	197.6	4	67.7	4	-1E+10	1	0.0777	4	0.000297	0	-1E+10	1	-1E+10	1	-1E+10	1
4902624	8	C	09/09/2024	15:37	-128.506	47.293	0	127.00	0	7.8230	0	33.1850	0	25.876	0	125.904	0	-1e10	1	-1e10	1	-1E+10	1	-1e10	1	-1e10	1	-1E+10	1	-1E+10	1	-1E+10	1
4902624	8	C	09/09/2024	15:37	-128.506	47.293	0	127.40	0	7.8184	0	33.1928	0	25.883	0	126.300	0	197.1	4	67.5	4	-1E+10	1	0.0834	4	0.000306	0	-1E+10	1	-1E+10	1	-1E+10	1
4902624	8	C	09/09/2024	15:37	-128.506	47.293	0	128.60	0	7.8046	0	33.2162	0	25.903	0	127.489	0	196.4	4	67.3	4	-1E+10	1	0.0827	4	0.000299	0	-1E+10	1	-1E+10	1	-1E+10	1
4902624	8	C	09/09/2024	15:37	-128.506	47.293	0	129.00	0	7.8000	0	33.2240	0	25.910	0	127.886	0	-1e10	1	-1e10	1	-1E+10	1	-1e10	1	-1e10	1	-1E+10	1	-1E+10	1	-1E+10	1
4902624	8	C	09/09/2024	15:37	-128.506	47.293	0	129.70	0	7.7892	0	33.2334	0	25.919	0	128.580	0	195.8	4	67.1	4	-1E+10	1	0.0694	4	0.000295	0	-1E+10	1	-1E+10	1	-1E+10	1
4902624	8	C	09/09/2024	15:37	-128.506	47.293	0	130.90	0	7.7706	0	33.2496	0	25.935	0	129.769	0	195.1	4	66.8	4	-1E+10	1	0.0736	4	0.000319	0	-1E+10	1	-1E+10	1	-1E+10	1
4902624	8	C	09/09/2024	15:37	-128.506	47.293	0	131.00	0	7.7690	0	33.2510	0	25.936	0	129.868	0	-1e10	1	-1e10	1	-1E+10	1	-1e10	1	-1e10	1	-1E+10	1	-1E+10	1	-1E+10	1
4902624	8	C	09/09/2024	15:37	-128.506	47.293	0	131.80	0	7.7538	0	33.2598	0	25.945	0	130.661	0	194.2	4	66.5	4	-1E+10	1	0.0917	4	0.000335	0	-1E+10	1	-1E+10	1	-1E+10	1
4902624	8	C	09/09/2024	15:37	-128.506	47.293	0	132.60	0	7.7385	0	33.2685	0	25.954	0	131.454	0	193.4	4	66.2	4	-1E+10	1	0.0821	4	0.000276	0	-1E+10	1	-1E+10	1	-1E+10	1
4902624	8	C	09/09/2024	15:37	-128.506	47.293	0	133.10	0	7.7290	0	33.2740	0	25.960	0	131.949	0	-1e10	1	-1e10	1	-1E+10	1	-1e10	1	-1e10	1	-1E+10	1	-1E+10	1	-1E+10	1
4902624	8	C	09/09/2024	15:37	-128.506	47.293	0	133.30	0	7.7270	0	33.2775	0	25.963	0	132.147	0	192.8	4	65.9	4	-1E+10	1	0.0949	4	0.000306	0	-1E+10	1	-1E+10	1	-1E+10	1
4902624	8	C	09/09/2024	15:37	-128.506	47.293	0	134.10	0	7.7190	0	33.2914	0	25.975	0	132.940	0	192.5	4	65.9	4	-1E+10	1	0.0495	4	0.000296	0	-1E+10	1	-1E+10	1	-1E+10	1
4902624	8	C	09/09/2024	15:37	-128.506	47.293	0	134.80	0	7.7120	0	33.3035	0	25.985	0	133.634	0	192.2	4	65.7	4	-1E+10	1	0.0751	4	0.000305	0	-1E+10	1	-1E+10	1	-1E+10	1
4902624	8	C	09/09/2024	15:37	-128.506	47.293	0	135.00	0	7.7100	0	33.3070	0	25.988	0	133.832	0	-1e10	1	-1e10	1	-1E+10	1	-1e10	1	-1e10	1	-1E+10	1	-1E+10	1	-1E+10	1
4902624	8	C	09/09/2024	15:37	-128.506	47.293	0	135.50	0	7.6908	0	33.3153	0	25.998	0	134.328	0	191.5	4	65.5	4	-1E+10	1	0.0706	4	0.000306	0	-1E+10	1	-1E+10	1	-1E+10	1
4902624	8	C	09/09/2024	15:37	-128.506	47.293	0	136.20	0	7.6638	0	33.3268	0	26.011	0	135.021	0	190.8	4	65.2	4	-1E+10	1	0.0657	4	0.000291	0	-1E+10	1	-1E+10	1	-1E+10	1
4902624	8	C	09/09/2024	15:37	-128.506	47.293	0	137.00	0	7.6330	0	33.3400	0	26.025	0	135.814	0	185.8	4	63.5	4	-1E+10	1	0.0657	4	0.000281	0	-1E+10	1	-1E+10	1	-1E+10	1
4902624	8	C	09/09/2024	15:37	-128.506	47.293	0	137.70	0	7.6158	0	33.3540	0	26.039	0	136.508	0	189.5	4	64.7	4	-1E+10	1	0.0657	4	0.000298	0	-1E+10	1	-1E+10	1	-1E+10	1
4902624	8	C	09/09/2024	15:37	-128.506	47.293	0	138.50	0	7.5963	0	33.3700	0	26.054	0	137.301	0	189.0	4	64.5	4	-1E+10	1	0.0641	4	0.000306	0	-1E+10	1	-1E+10	1	-1E+10	1
4902624	8	C	09/09/2024	15:37	-128.506	47.293	0	139.00	0	7.5840	0	33.3800	0	26.064	0	137.796	0	-1e10	1	-1e10	1	-1E+10	1	-1e10	1	-1e10	1	-1E+10	1	-1E+10	1	-1E+10	1
4902624	8	C	09/09/2024	15:37	-128.506	47.293	0	139.20	0	7.5804	0	33.3825	0	26.066	0	137.994	0	188.4	4	64.3	4	-1E+10	1	0.0584	4	0.000306	0	-1E+10	1	-1E+10	1	-1E+10	1
4902624	8	C	09/09/2024	15:37	-128.506	47.293	0	140.00	0	7.5660	0	33.3925	0	26.076	0	138.787	0	187.9	4	64.1	4	-1E+10	1	0.0584	4	0.000295	0	-1E+10	1	-1E+10	1	-1E+10	1
4902624	8	C	09/09/2024	15:37	-128.506	47.293	0	140.80	0	7.5516	0	33.4025	0	26.086	0	139.580	0	187.5	4	63.9	4	-1E+10	1	0.0438	4	0.000424	0	-1E+10	1	-1E+10	1	-1E+10	1
4902624	8	C	09/09/2024	15:37	-128.506	47.293	0	141.00	0	7.5480	0	33.4050	0	26.089	0	139.778	0	-1e10	1	-1e10	1	-1E+10	1	-1e10	1	-1e10	1	-1E+10	1	-1E+10	1	-1E+10	1
4902624	8	C	09/09/2024	15:37	-128.506	47.293	0	141.60	0	7.5366	0	33.4134	0	26.097	0	140.373	0	187.1	4	63.8	4	-1E+10	1	0.0496	4	0.000320	0	-1E+10	1	-1E+10	1	-1E+10	1
4902624	8	C	09/09/2024	15:37	-128.506	47.293	0	142.40	0	7.5214	0	33.4246	0	26.108	0	141.166	0	186.7	4	63.6	4	-1E+10	1	0.0511	4	0.000325	0	-1E+10	1	-1E+10	1	-1E+10	1
4902624	8	C	09/09/2024	15:37	-128.506	47.293	0	143.00	0	7.5100	0	33.4330	0	26.116	0	141.760	0	-1e10	1	-1e10	1	-1E+10	1	-1e10	1	-1e10	1	-1E+10	1	-1E+10	1	-1E+10	1
4902624	8	C	09/09/2024	15:37	-128.506	47.293	0	143.20	0	7.5036	0	33.4365	0	26.120	0	141.958	0	186.4	4	63.5	4	-1E+10	1	0.0562	4	0.000297	0	-1E+10	1	-1E+10	1	-1E+10	1
4902624	8	C	09/09/2024	15:37	-128.506	47.293	0	144.00	0	7.4780	0	33.4505	0	26.134	0	142.751	0	186.4	4	63.5	4	-1E+10	1	0.0584	4	0.000300	0	-1E+10	1	-1E+10	1	-1E+10	1
4902624	8	C	09/09/2024	15:37	-128.506	47.293	0	144.80	0	7.4524	0	33.4645	0	26.149	0	143.544	0	186.3	4	63.4	4	-1E+10	1	0.0557	4	0.000314	0	-1E+10	1	-1E+10	1	-1E+10	1
4902624	8	C	09/09/2024	15:37	-128.506	47.293	0	145.00	0	7.4460	0	33.4680	0	26.153	0	143.742	0	-1e10	1	-1e10	1	-1E+10	1	-1e10	1	-1e10	1	-1E+10	1	-1E+10	1	-1E+10	1
4902624	8	C	09/09/2024	15:37	-128.506	47.293	0	145.60	0	7.4301	0	33.4788	0	26.163	0	144.337	0	186.2	4	63.4	4	-1E+10	1	0.0555	4	0.000320	0	-1E+10	1	-1E+10	1	-1E+10	1
4902624	8	C	09/09/2024	15:37	-128.506	47.293	0	146.50	0	7.4062	0	33.4950	0	26.179	0	145.229	0	186.1	4	63.3	4	-1E+10	1	0.0630	4	0.000353	0	-1E+10	1	-1E+10	1	-1E+10	1
4902624	8	C	09/09/2024	15:37	-128.506	47.293	0	147.00	0	7.3930	0	33.5040	0	26.188	0	145.724	0	-1e10	1	-1e10	1	-1E+10	1	-1e10	1	-1e10	1	-1E+10	1	-1E+10	1	-1E+10	1
4902624	8	C	09/09/2024	15:37	-128.506	47.293	0	147.40	0	7.3745	0	33.5072	0	26.193	0	146.120	0	186.0	4	63.2	4	-1E+10	1	0.0511	4	0.000353	0	-1E+10	1	-1E+10	1	-1E+10	1
4902624	8	C	09/09/2024	15:37	-128.506	47.293	0	148.30	0	7.3330	0	33.5145	0	26.205	0	147.012	0	185.4	4	63.0	4	-1E+10	1	0.0584	4	0.000306	0	-1E+10	1	-1E+10	1	-1E+10	1
4902624	8	C	09/09/2024	15:37	-128.506	47.293	0	149.10	0	7.2960	0	33.5210	0	26.215	0	147.805	0	-1e10	1	-1e10	1	-1E+10	1	-1e10	1	-1e10	1	-1E+10	1	-1E+10	1	-1E+10	1
4902624	8	C	09/09/2024	15:37	-128.506	47.293	0	149.20	0	7.2959	0	33.5221	0	26.216	0	147.904	0	184.7	4	62.7	4	-1E+10	1	0.0584	4	0.000287	0	-1E+10	1	-1E+10	1	-1E+10	1
4902624	8	C	09/09/2024	15:37	-128.506	47.293	0	150.10	0	7.2955	0	33.5325	0	26.224	0	148.796	0	184.4	4	62.6	4	-1E+10	1	0.0584	4	0.000305	0	-1E+10	1	-1E+10	1	-1E+10	1
4902624	8	C	09/09/2024	15:37	-128.506	47.293	0	151.10	0	7.2950	0	33.5440	0	26.233	0	149.787	0	179.5	4	60.9	4	-1E+10	1	0.0540	4	0.000311	0	-1E+10	1	-1E+10	1	-1E+10	1
4902624	8	C	09/09/2024	15:37	-128.506	47.293	0	152.00	0	7.2836	0	33.5492	0	26.239	0	150.679	0	183.7	4	62.3	4	-1E+10	1	0.0478	4	0.000312	0	-1E+10	1	-1E+10	1	-1E+10	1
4902624	8	C	09/09/2024	15:37	-128.506	47.293	0	152.90	0	7.2723	0	33.5544	0	26.245	0	151.571	0	183.4	4	62.2	4	-1E+10	1	0.0498	4	0.000315	0	-1E+10	1	-1E+10	1	-1E+10	1
4902624	8	C	09/09/2024	15:37	-128.506	47.293	0	153.00	0	7.2710	0	33.5550	0	26.246	0	151.670	0	-1e10	1	-1e10	1	-1E+10	1	-1e10	1	-1e10	1	-1E+10	1	-1E+10	1	-1E+10	1
4902624	8	C	09/09/2024	15:37	-128.506	47.293	0	153.90	0	7.2620	0	33.5574	0	26.249	0	152.562	0	183.0	4	62.1	4	-1E+10	1	0.0625	4	0.000311	0	-1E+10	1	-1E+10	1	-1E+10	1
4902624	8	C	09/09/2024	15:37	-128.506	47.293	0	154.90	0	7.2520	0	33.5600	0	26.252	0	153.553	0	177.9	4	60.3	4	-1E+10	1	0.0511	4	0.000327	0	-1E+10	1	-1E+10	1	-1E+10	1
4902624	8	C	09/09/2024	15:37	-128.506	47.293	0	155.80	0	7.2466	0	33.5632	0	26.255	0	154.444	0	181.8	4	61.6	4	-1E+10	1	0.0511	4	0.000318	0	-1E+10	1	-1E+10	1	-1E+10	1
4902624	8	C	09/09/2024	15:37	-128.506	47.293	0	156.70	0	7.2412	0	33.5663	0	26.259	0	155.336	0	181.0	4	61.4	4	-1E+10	1	0.0571	4	0.000317	0	-1E+10	1	-1E+10	1	-1E+10	1
4902624	8	C	09/09/2024	15:37	-128.506	47.293	0	156.90	0	7.2400	0	33.5670	0	26.259	0	155.534	0	-1e10	1	-1e10	1	-1E+10	1	-1e10	1	-1e10	1	-1E+10	1	-1E+10	1	-1E+10	1
4902624	8	C	09/09/2024	15:37	-128.506	47.293	0	157.70	0	7.2305	0	33.5708	0	26.264	0	156.327	0	179.9	4	61.0	4	-1E+10	1	0.0409	4	0.000336	0	-1E+10	1	-1E+10	1	-1E+10	1
4902624	8	C	09/09/2024	15:37	-128.506	47.293	0	158.70	0	7.2186	0	33.5756	0	26.269	0	157.318	0	178.9	4	60.6	4	-1E+10	1	0.0511	4	0.000341	0	-1E+10	1	-1E+10	1	-1E+10	1
4902624	8	C	09/09/2024	15:37	-128.506	47.293	0	159.00	0	7.2150	0	33.5770	0	26.271	0	157.615	0	-1e10	1	-1e10	1	-1E+10	1	-1e10	1	-1e10	1	-1E+10	1	-1E+10	1	-1E+10	1
4902624	8	C	09/09/2024	15:37	-128.506	47.293	0	159.70	0	7.2014	0	33.5855	0	26.279	0	158.309	0	178.6	4	60.5	4	-1E+10	1	0.0548	4	0.000359	0	-1E+10	1	-1E+10	1	-1E+10	1
4902624	8	C	09/09/2024	15:37	-128.506	47.293	0	160.60	0	7.1838	0	33.5964	0	26.290	0	159.201	0	178.0	4	60.3	4	-1E+10	1	0.0487	4	0.000357	0	-1E+10	1	-1E+10	1	-1E+10	1
4902624	8	C	09/09/2024	15:37	-128.506	47.293	0	160.90	0	7.1780	0	33.6000	0	26.294	0	159.498	0	-1e10	1	-1e10	1	-1E+10	1	-1e10	1	-1e10	1	-1E+10	1	-1E+10	1	-1E+10	1
4902624	8	C	09/09/2024	15:37	-128.506	47.293	0	161.60	0	7.1710	0	33.6101	0	26.303	0	160.192	0	177.1	4	60.0	4	-1E+10	1	0.0462	4	0.000330	0	-1E+10	1	-1E+10	1	-1E+10	1
4902624	8	C	09/09/2024	15:37	-128.506	47.293	0	162.60	0	7.1610	0	33.6247	0	26.316	0	161.183	0	176.2	4	59.7	4	-1E+10	1	0.0511	4	0.000349	0	-1E+10	1	-1E+10	1	-1E+10	1
4902624	8	C	09/09/2024	15:37	-128.506	47.293	0	162.90	0	7.1580	0	33.6290	0	26.319	0	161.480	0	-1e10	1	-1e10	1	-1E+10	1	-1e10	1	-1e10	1	-1E+10	1	-1E+10	1	-1E+10	1
4902624	8	C	09/09/2024	15:37	-128.506	47.293	0	163.70	0	7.1607	0	33.6370	0	26.325	0	162.273	0	175.7	4	59.5	4	-1E+10	1	0.0511	4	0.000330	0	-1E+10	1	-1E+10	1	-1E+10	1
4902624	8	C	09/09/2024	15:37	-128.506	47.293	0	164.70	0	7.1640	0	33.6470	0	26.333	0	163.263	0	175.2	4	59.3	4	-1E+10	1	0.0438	4	0.000353	0	-1E+10	1	-1E+10	1	-1E+10	1
4902624	8	C	09/09/2024	15:37	-128.506	47.293	0	165.00	0	7.1650	0	33.6500	0	26.335	0	163.561	0	-1e10	1	-1e10	1	-1E+10	1	-1e10	1	-1e10	1	-1E+10	1	-1E+10	1	-1E+10	1
4902624	8	C	09/09/2024	15:37	-128.506	47.293	0	165.80	0	7.1616	0	33.6511	0	26.336	0	164.353	0	174.5	4	59.1	4	-1E+10	1	0.0500	4	0.000373	0	-1E+10	1	-1E+10	1	-1E+10	1
4902624	8	C	09/09/2024	15:37	-128.506	47.293	0	166.80	0	7.1573	0	33.6526	0	26.338	0	165.344	0	173.9	4	58.9	4	-1E+10	1	0.0511	4	0.000353	0	-1E+10	1	-1E+10	1	-1E+10	1
4902624	8	C	09/09/2024	15:37	-128.506	47.293	0	167.10	0	7.1560	0	33.6530	0	26.339	0	165.642	0	-1e10	1	-1e10	1	-1E+10	1	-1e10	1	-1e10	1	-1E+10	1	-1E+10	1	-1E+10	1
4902624	8	C	09/09/2024	15:37	-128.506	47.293	0	167.90	0	7.1540	0	33.6538	0	26.340	0	166.434	0	173.2	4	58.6	4	-1E+10	1	0.0465	4	0.000364	0	-1E+10	1	-1E+10	1	-1E+10	1
4902624	8	C	09/09/2024	15:37	-128.506	47.293	0	168.90	0	7.1515	0	33.6548	0	26.341	0	167.425	0	172.3	4	58.3	4	-1E+10	1	0.0474	4	0.000371	0	-1E+10	1	-1E+10	1	-1E+10	1
4902624	8	C	09/09/2024	15:37	-128.506	47.293	0	169.10	0	7.1510	0	33.6550	0	26.341	0	167.623	0	-1e10	1	-1e10	1	-1E+10	1	-1e10	1	-1e10	1	-1E+10	1	-1E+10	1	-1E+10	1
4902624	8	C	09/09/2024	15:37	-128.506	47.293	0	170.00	0	7.1519	0	33.6559	0	26.342	0	168.515	0	171.4	4	58.0	4	-1E+10	1	0.0539	4	0.000360	0	-1E+10	1	-1E+10	1	-1E+10	1
4902624	8	C	09/09/2024	15:37	-128.506	47.293	0	171.00	0	7.1530	0	33.6570	0	26.342	0	169.506	0	166.1	4	56.3	4	-1E+10	1	0.0571	4	0.000355	0	-1E+10	1	-1E+10	1	-1E+10	1
4902624	8	C	09/09/2024	15:37	-128.506	47.293	0	172.10	0	7.1351	0	33.6651	0	26.351	0	170.596	0	169.7	4	57.4	4	-1E+10	1	0.0511	4	0.000361	0	-1E+10	1	-1E+10	1	-1E+10	1
4902624	8	C	09/09/2024	15:37	-128.506	47.293	0	172.90	0	7.1220	0	33.6710	0	26.358	0	171.388	0	-1e10	1	-1e10	1	-1E+10	1	-1e10	1	-1e10	1	-1E+10	1	-1E+10	1	-1E+10	1
4902624	8	C	09/09/2024	15:37	-128.506	47.293	0	173.20	0	7.1191	0	33.6734	0	26.360	0	171.686	0	169.1	4	57.2	4	-1E+10	1	0.0511	4	0.000341	0	-1E+10	1	-1E+10	1	-1E+10	1
4902624	8	C	09/09/2024	15:37	-128.506	47.293	0	174.30	0	7.1087	0	33.6823	0	26.368	0	172.776	0	168.3	4	56.9	4	-1E+10	1	0.0573	4	0.000341	0	-1E+10	1	-1E+10	1	-1E+10	1
4902624	8	C	09/09/2024	15:37	-128.506	47.293	0	175.00	0	7.1020	0	33.6880	0	26.374	0	173.469	0	-1e10	1	-1e10	1	-1E+10	1	-1e10	1	-1e10	1	-1E+10	1	-1E+10	1	-1E+10	1
4902624	8	C	09/09/2024	15:37	-128.506	47.293	0	175.40	0	7.0990	0	33.6890	0	26.375	0	173.866	0	167.3	4	56.6	4	-1E+10	1	0.0644	4	0.000360	0	-1E+10	1	-1E+10	1	-1E+10	1
4902624	8	C	09/09/2024	15:37	-128.506	47.293	0	176.40	0	7.0915	0	33.6915	0	26.378	0	174.856	0	166.6	4	56.3	4	-1E+10	1	0.0567	4	0.000350	0	-1E+10	1	-1E+10	1	-1E+10	1
4902624	8	C	09/09/2024	15:37	-128.506	47.293	0	177.00	0	7.0870	0	33.6930	0	26.380	0	175.451	0	-1e10	1	-1e10	1	-1E+10	1	-1e10	1	-1e10	1	-1E+10	1	-1E+10	1	-1E+10	1
4902624	8	C	09/09/2024	15:37	-128.506	47.293	0	177.60	0	7.0796	0	33.6939	0	26.381	0	176.045	0	165.8	4	56.1	4	-1E+10	1	0.0550	4	0.000531	0	-1E+10	1	-1E+10	1	-1E+10	1
4902624	8	C	09/09/2024	15:37	-128.506	47.293	0	178.60	0	7.0672	0	33.6953	0	26.384	0	177.036	0	165.0	4	55.8	4	-1E+10	1	0.0557	4	0.000574	0	-1E+10	1	-1E+10	1	-1E+10	1
4902624	8	C	09/09/2024	15:37	-128.506	47.293	0	179.10	0	7.0610	0	33.6960	0	26.386	0	177.532	0	-1e10	1	-1e10	1	-1E+10	1	-1e10	1	-1e10	1	-1E+10	1	-1E+10	1	-1E+10	1
4902624	8	C	09/09/2024	15:37	-128.506	47.293	0	179.80	0	7.0599	0	33.6997	0	26.389	0	178.225	0	164.2	4	55.5	4	-1E+10	1	0.0427	4	0.000374	0	-1E+10	1	-1E+10	1	-1E+10	1
4902624	8	C	09/09/2024	15:37	-128.506	47.293	0	180.80	0	7.0583	0	33.7049	0	26.393	0	179.216	0	163.4	4	55.2	4	-1E+10	1	0.0313	4	0.000386	0	-1E+10	1	-1E+10	1	-1E+10	1
4902624	8	C	09/09/2024	15:37	-128.506	47.293	0	181.00	0	7.0580	0	33.7060	0	26.394	0	179.414	0	-1e10	1	-1e10	1	-1E+10	1	-1e10	1	-1e10	1	-1E+10	1	-1E+10	1	-1E+10	1
4902624	8	C	09/09/2024	15:37	-128.506	47.293	0	182.00	0	7.0490	0	33.7085	0	26.397	0	180.405	0	162.7	4	55.0	4	-1E+10	1	0.0438	4	0.000376	0	-1E+10	1	-1E+10	1	-1E+10	1
4902624	8	C	09/09/2024	15:37	-128.506	47.293	0	183.00	0	7.0400	0	33.7110	0	26.400	0	181.396	0	-1e10	1	-1e10	1	-1E+10	1	-1e10	1	-1e10	1	-1E+10	1	-1E+10	1	-1E+10	1
4902624	8	C	09/09/2024	15:37	-128.506	47.293	0	183.10	0	7.0393	0	33.7114	0	26.401	0	181.495	0	161.9	4	54.7	4	-1E+10	1	0.0584	4	0.000376	0	-1E+10	1	-1E+10	1	-1E+10	1
4902624	8	C	09/09/2024	15:37	-128.506	47.293	0	184.20	0	7.0320	0	33.7156	0	26.405	0	182.585	0	161.0	4	54.4	4	-1E+10	1	0.0646	4	0.000386	0	-1E+10	1	-1E+10	1	-1E+10	1
4902624	8	C	09/09/2024	15:37	-128.506	47.293	0	185.10	0	7.0260	0	33.7190	0	26.409	0	183.476	0	-1e10	1	-1e10	1	-1E+10	1	-1e10	1	-1e10	1	-1E+10	1	-1E+10	1	-1E+10	1
4902624	8	C	09/09/2024	15:37	-128.506	47.293	0	185.30	0	7.0259	0	33.7201	0	26.410	0	183.675	0	160.4	4	54.2	4	-1E+10	1	0.0657	4	0.000803	0	-1E+10	1	-1E+10	1	-1E+10	1
4902624	8	C	09/09/2024	15:37	-128.506	47.293	0	186.40	0	7.0254	0	33.7262	0	26.414	0	184.764	0	160.0	4	54.0	4	-1E+10	1	0.0538	4	0.000675	0	-1E+10	1	-1E+10	1	-1E+10	1
4902624	8	C	09/09/2024	15:37	-128.506	47.293	0	187.10	0	7.0250	0	33.7300	0	26.418	0	185.458	0	-1e10	1	-1e10	1	-1E+10	1	-1e10	1	-1e10	1	-1E+10	1	-1E+10	1	-1E+10	1
4902624	8	C	09/09/2024	15:37	-128.506	47.293	0	187.50	0	7.0200	0	33.7320	0	26.420	0	185.854	0	159.7	4	53.9	4	-1E+10	1	0.0472	4	0.000371	0	-1E+10	1	-1E+10	1	-1E+10	1
4902624	8	C	09/09/2024	15:37	-128.506	47.293	0	188.60	0	7.0062	0	33.7375	0	26.426	0	186.944	0	159.5	4	53.8	4	-1E+10	1	0.0489	4	0.000361	0	-1E+10	1	-1E+10	1	-1E+10	1
4902624	8	C	09/09/2024	15:37	-128.506	47.293	0	189.10	0	7.0000	0	33.7400	0	26.429	0	187.440	0	-1e10	1	-1e10	1	-1E+10	1	-1e10	1	-1e10	1	-1E+10	1	-1E+10	1	-1E+10	1
4902624	8	C	09/09/2024	15:37	-128.506	47.293	0	189.80	0	6.9738	0	33.7422	0	26.434	0	188.133	0	159.2	4	53.7	4	-1E+10	1	0.0456	4	0.000347	0	-1E+10	1	-1E+10	1	-1E+10	1
4902624	8	C	09/09/2024	15:37	-128.506	47.293	0	190.90	0	6.9327	0	33.7457	0	26.442	0	189.223	0	158.8	4	53.5	4	-1E+10	1	0.0501	4	0.000334	0	-1E+10	1	-1E+10	1	-1E+10	1
4902624	8	C	09/09/2024	15:37	-128.506	47.293	0	191.00	0	6.9290	0	33.7460	0	26.443	0	189.322	0	-1e10	1	-1e10	1	-1E+10	1	-1e10	1	-1e10	1	-1E+10	1	-1E+10	1	-1E+10	1
4902624	8	C	09/09/2024	15:37	-128.506	47.293	0	192.10	0	6.8916	0	33.7477	0	26.450	0	190.412	0	158.2	4	53.3	4	-1E+10	1	0.0438	4	0.000364	0	-1E+10	1	-1E+10	1	-1E+10	1
4902624	8	C	09/09/2024	15:37	-128.506	47.293	0	193.00	0	6.8610	0	33.7490	0	26.455	0	191.303	0	-1e10	1	-1e10	1	-1E+10	1	-1e10	1	-1e10	1	-1E+10	1	-1E+10	1	-1E+10	1
4902624	8	C	09/09/2024	15:37	-128.506	47.293	0	193.30	0	6.8579	0	33.7493	0	26.455	0	191.601	0	157.5	4	53.0	4	-1E+10	1	0.0438	4	0.000385	0	-1E+10	1	-1E+10	1	-1E+10	1
4902624	8	C	09/09/2024	15:37	-128.506	47.293	0	194.40	0	6.8463	0	33.7504	0	26.458	0	192.690	0	156.7	4	52.7	4	-1E+10	1	0.0438	4	0.000350	0	-1E+10	1	-1E+10	1	-1E+10	1
4902624	8	C	09/09/2024	15:37	-128.506	47.293	0	195.00	0	6.8400	0	33.7510	0	26.459	0	193.285	0	-1e10	1	-1e10	1	-1E+10	1	-1e10	1	-1e10	1	-1E+10	1	-1E+10	1	-1E+10	1
4902624	8	C	09/09/2024	15:37	-128.506	47.293	0	195.50	0	6.8353	0	33.7526	0	26.461	0	193.780	0	155.7	4	52.4	4	-1E+10	1	0.0438	4	0.000371	0	-1E+10	1	-1E+10	1	-1E+10	1
4902624	8	C	09/09/2024	15:37	-128.506	47.293	0	196.70	0	6.8239	0	33.7564	0	26.466	0	194.969	0	154.7	4	52.0	4	-1E+10	1	0.0438	4	0.000376	0	-1E+10	1	-1E+10	1	-1E+10	1
4902624	8	C	09/09/2024	15:37	-128.506	47.293	0	196.90	0	6.8220	0	33.7570	0	26.466	0	195.167	0	-1e10	1	-1e10	1	-1E+10	1	-1e10	1	-1e10	1	-1E+10	1	-1E+10	1	-1E+10	1
4902624	8	C	09/09/2024	15:37	-128.506	47.293	0	197.90	0	6.8139	0	33.7608	0	26.470	0	196.158	0	153.8	4	51.7	4	-1E+10	1	0.0438	4	0.000364	0	-1E+10	1	-1E+10	1	-1E+10	1
4902624	8	C	09/09/2024	15:37	-128.506	47.293	0	199.00	0	6.8050	0	33.7650	0	26.475	0	197.248	0	148.7	4	50.0	4	-1E+10	1	0.0438	4	0.000368	0	-1E+10	1	-1E+10	1	-1E+10	1
4902624	8	C	09/09/2024	15:37	-128.506	47.293	0	200.20	0	6.7774	0	33.7686	0	26.481	0	198.437	0	151.7	4	51.0	4	-1E+10	1	0.0423	4	0.000374	0	-1E+10	1	-1E+10	1	-1E+10	1
4902624	8	C	09/09/2024	15:37	-128.506	47.293	0	201.00	0	6.7590	0	33.7710	0	26.486	0	199.229	0	-1e10	1	-1e10	1	-1E+10	1	-1e10	1	-1e10	1	-1E+10	1	-1E+10	1	-1E+10	1
4902624	8	C	09/09/2024	15:37	-128.506	47.293	0	201.40	0	6.7552	0	33.7714	0	26.487	0	199.626	0	150.5	4	50.5	4	-1E+10	1	0.0365	4	0.000364	0	-1E+10	1	-1E+10	1	-1E+10	1
4902624	8	C	09/09/2024	15:37	-128.506	47.293	0	202.50	0	6.7448	0	33.7725	0	26.489	0	200.715	0	149.2	4	50.1	4	-1E+10	1	0.0365	4	0.000341	0	-1E+10	1	-1E+10	1	-1E+10	1
4902624	8	C	09/09/2024	15:37	-128.506	47.293	0	203.00	0	6.7400	0	33.7730	0	26.490	0	201.211	0	-1e10	1	-1e10	1	-1E+10	1	-1e10	1	-1e10	1	-1E+10	1	-1E+10	1	-1E+10	1
4902624	8	C	09/09/2024	15:37	-128.506	47.293	0	203.70	0	6.7414	0	33.7751	0	26.491	0	201.904	0	148.0	4	49.7	4	-1E+10	1	0.0490	4	0.000341	0	-1E+10	1	-1E+10	1	-1E+10	1
4902624	8	C	09/09/2024	15:37	-128.506	47.293	0	204.90	0	6.7438	0	33.7787	0	26.494	0	203.093	0	146.8	4	49.3	4	-1E+10	1	0.0407	4	0.000349	0	-1E+10	1	-1E+10	1	-1E+10	1
4902624	8	C	09/09/2024	15:37	-128.506	47.293	0	205.00	0	6.7440	0	33.7790	0	26.494	0	203.192	0	-1e10	1	-1e10	1	-1E+10	1	-1e10	1	-1e10	1	-1E+10	1	-1E+10	1	-1E+10	1
4902624	8	C	09/09/2024	15:37	-128.506	47.293	0	206.00	0	6.7455	0	33.7840	0	26.498	0	204.183	0	145.7	4	48.9	4	-1E+10	1	0.0408	4	0.000353	0	-1E+10	1	-1E+10	1	-1E+10	1
4902624	8	C	09/09/2024	15:37	-128.506	47.293	0	207.00	0	6.7470	0	33.7890	0	26.502	0	205.173	0	-1e10	1	-1e10	1	-1E+10	1	-1e10	1	-1e10	1	-1E+10	1	-1E+10	1	-1E+10	1
4902624	8	C	09/09/2024	15:37	-128.506	47.293	0	207.20	0	6.7453	0	33.7899	0	26.503	0	205.372	0	144.7	4	48.6	4	-1E+10	1	0.0365	4	0.000388	0	-1E+10	1	-1E+10	1	-1E+10	1
4902624	8	C	09/09/2024	15:37	-128.506	47.293	0	208.50	0	6.7343	0	33.7957	0	26.509	0	206.659	0	144.2	4	48.4	4	-1E+10	1	0.0380	4	0.000479	0	-1E+10	1	-1E+10	1	-1E+10	1
4902624	8	C	09/09/2024	15:37	-128.506	47.293	0	209.00	0	6.7300	0	33.7980	0	26.511	0	207.155	0	-1e10	1	-1e10	1	-1E+10	1	-1e10	1	-1e10	1	-1E+10	1	-1E+10	1	-1E+10	1
4902624	8	C	09/09/2024	15:37	-128.506	47.293	0	209.60	0	6.7135	0	33.7974	0	26.513	0	207.749	0	143.4	4	48.1	4	-1E+10	1	0.0487	4	0.000525	0	-1E+10	1	-1E+10	1	-1E+10	1
4902624	8	C	09/09/2024	15:37	-128.506	47.293	0	210.80	0	6.6805	0	33.7962	0	26.516	0	208.938	0	142.3	4	47.7	4	-1E+10	1	0.0402	4	0.000337	0	-1E+10	1	-1E+10	1	-1E+10	1
4902624	8	C	09/09/2024	15:37	-128.506	47.293	0	211.00	0	6.6750	0	33.7960	0	26.517	0	209.136	0	-1e10	1	-1e10	1	-1E+10	1	-1e10	1	-1e10	1	-1E+10	1	-1E+10	1	-1E+10	1
4902624	8	C	09/09/2024	15:37	-128.506	47.293	0	212.10	0	6.6827	0	33.7971	0	26.517	0	210.226	0	141.1	4	47.3	4	-1E+10	1	0.0555	4	0.000381	0	-1E+10	1	-1E+10	1	-1E+10	1
4902624	8	C	09/09/2024	15:37	-128.506	47.293	0	213.00	0	6.6890	0	33.7980	0	26.517	0	211.117	0	-1e10	1	-1e10	1	-1E+10	1	-1e10	1	-1e10	1	-1E+10	1	-1E+10	1	-1E+10	1
4902624	8	C	09/09/2024	15:37	-128.506	47.293	0	213.30	0	6.6884	0	33.7983	0	26.517	0	211.415	0	139.9	4	46.9	4	-1E+10	1	0.0438	4	0.000400	0	-1E+10	1	-1E+10	1	-1E+10	1
4902624	8	C	09/09/2024	15:37	-128.506	47.293	0	214.50	0	6.6861	0	33.7994	0	26.518	0	212.603	0	138.6	4	46.5	4	-1E+10	1	0.0365	4	0.000341	0	-1E+10	1	-1E+10	1	-1E+10	1
4902624	8	C	09/09/2024	15:37	-128.506	47.293	0	215.10	0	6.6850	0	33.8000	0	26.519	0	213.198	0	-1e10	1	-1e10	1	-1E+10	1	-1e10	1	-1e10	1	-1E+10	1	-1E+10	1	-1E+10	1
4902624	8	C	09/09/2024	15:37	-128.506	47.293	0	215.70	0	6.6913	0	33.8025	0	26.520	0	213.792	0	137.1	4	46.0	4	-1E+10	1	0.0428	4	0.000371	0	-1E+10	1	-1E+10	1	-1E+10	1
4902624	8	C	09/09/2024	15:37	-128.506	47.293	0	216.90	0	6.7039	0	33.8076	0	26.522	0	214.981	0	136.2	4	45.7	4	-1E+10	1	0.0389	4	0.000368	0	-1E+10	1	-1E+10	1	-1E+10	1
4902624	8	C	09/09/2024	15:37	-128.506	47.293	0	217.00	0	6.7050	0	33.8080	0	26.522	0	215.080	0	-1e10	1	-1e10	1	-1E+10	1	-1e10	1	-1e10	1	-1E+10	1	-1E+10	1	-1E+10	1
4902624	8	C	09/09/2024	15:37	-128.506	47.293	0	218.10	0	6.6995	0	33.8113	0	26.526	0	216.170	0	135.6	4	45.5	4	-1E+10	1	0.0319	4	0.000372	0	-1E+10	1	-1E+10	1	-1E+10	1
4902624	8	C	09/09/2024	15:37	-128.506	47.293	0	219.00	0	6.6950	0	33.8140	0	26.528	0	217.061	0	-1e10	1	-1e10	1	-1E+10	1	-1e10	1	-1e10	1	-1E+10	1	-1E+10	1	-1E+10	1
4902624	8	C	09/09/2024	15:37	-128.506	47.293	0	219.20	0	6.6929	0	33.8140	0	26.529	0	217.259	0	134.8	4	45.2	4	-1E+10	1	0.0326	4	0.000365	0	-1E+10	1	-1E+10	1	-1E+10	1
4902624	8	C	09/09/2024	15:37	-128.506	47.293	0	220.40	0	6.6803	0	33.8140	0	26.530	0	218.448	0	133.9	4	44.9	4	-1E+10	1	0.0365	4	0.000356	0	-1E+10	1	-1E+10	1	-1E+10	1
4902624	8	C	09/09/2024	15:37	-128.506	47.293	0	221.00	0	6.6740	0	33.8140	0	26.531	0	219.042	0	-1e10	1	-1e10	1	-1E+10	1	-1e10	1	-1e10	1	-1E+10	1	-1E+10	1	-1E+10	1
4902624	8	C	09/09/2024	15:37	-128.506	47.293	0	221.60	0	6.6707	0	33.8146	0	26.532	0	219.637	0	132.9	4	44.6	4	-1E+10	1	0.0392	4	0.000366	0	-1E+10	1	-1E+10	1	-1E+10	1
4902624	8	C	09/09/2024	15:37	-128.506	47.293	0	222.70	0	6.6646	0	33.8157	0	26.534	0	220.727	0	131.9	4	44.2	4	-1E+10	1	0.0501	4	0.000378	0	-1E+10	1	-1E+10	1	-1E+10	1
4902624	8	C	09/09/2024	15:37	-128.506	47.293	0	223.00	0	6.6630	0	33.8160	0	26.534	0	221.024	0	-1e10	1	-1e10	1	-1E+10	1	-1e10	1	-1e10	1	-1E+10	1	-1E+10	1	-1E+10	1
4902624	8	C	09/09/2024	15:37	-128.506	47.293	0	223.90	0	6.6531	0	33.8178	0	26.537	0	221.915	0	130.9	4	43.9	4	-1E+10	1	0.0438	4	0.000388	0	-1E+10	1	-1E+10	1	-1E+10	1
4902624	8	C	09/09/2024	15:37	-128.506	47.293	0	225.00	0	6.6410	0	33.8200	0	26.540	0	223.005	0	-1e10	1	-1e10	1	-1E+10	1	-1e10	1	-1e10	1	-1E+10	1	-1E+10	1	-1E+10	1
4902624	8	C	09/09/2024	15:37	-128.506	47.293	0	225.10	0	6.6395	0	33.8204	0	26.541	0	223.104	0	130.0	4	43.6	4	-1E+10	1	0.0438	4	0.000408	0	-1E+10	1	-1E+10	1	-1E+10	1
4902624	8	C	09/09/2024	15:37	-128.506	47.293	0	226.30	0	6.6215	0	33.8246	0	26.547	0	224.293	0	129.3	4	43.3	4	-1E+10	1	0.0560	4	0.000411	0	-1E+10	1	-1E+10	1	-1E+10	1
4902624	8	C	09/09/2024	15:37	-128.506	47.293	0	227.00	0	6.6110	0	33.8270	0	26.550	0	224.986	0	-1e10	1	-1e10	1	-1E+10	1	-1e10	1	-1e10	1	-1E+10	1	-1E+10	1	-1E+10	1
4902624	8	C	09/09/2024	15:37	-128.506	47.293	0	227.50	0	6.6050	0	33.8278	0	26.551	0	225.481	0	128.7	4	43.1	4	-1E+10	1	0.0487	4	0.000388	0	-1E+10	1	-1E+10	1	-1E+10	1
4902624	8	C	09/09/2024	15:37	-128.506	47.293	0	228.70	0	6.5906	0	33.8296	0	26.555	0	226.670	0	128.1	4	42.9	4	-1E+10	1	0.0548	4	0.000376	0	-1E+10	1	-1E+10	1	-1E+10	1
4902624	8	C	09/09/2024	15:37	-128.506	47.293	0	229.00	0	6.5870	0	33.8300	0	26.555	0	226.967	0	-1e10	1	-1e10	1	-1E+10	1	-1e10	1	-1e10	1	-1E+10	1	-1E+10	1	-1E+10	1
4902624	8	C	09/09/2024	15:37	-128.506	47.293	0	229.90	0	6.5838	0	33.8305	0	26.556	0	227.859	0	127.5	4	42.7	4	-1E+10	1	0.0596	4	0.000371	0	-1E+10	1	-1E+10	1	-1E+10	1
4902624	8	C	09/09/2024	15:37	-128.506	47.293	0	231.00	0	6.5800	0	33.8310	0	26.557	0	228.948	0	-1e10	1	-1e10	1	-1E+10	1	-1e10	1	-1e10	1	-1E+10	1	-1E+10	1	-1E+10	1
4902624	8	C	09/09/2024	15:37	-128.506	47.293	0	231.10	0	6.5794	0	33.8311	0	26.557	0	229.047	0	126.9	4	42.5	4	-1E+10	1	0.0487	4	0.000364	0	-1E+10	1	-1E+10	1	-1E+10	1
4902624	8	C	09/09/2024	15:37	-128.506	47.293	0	232.30	0	6.5718	0	33.8324	0	26.559	0	230.236	0	126.3	4	42.3	4	-1E+10	1	0.0438	4	0.000364	0	-1E+10	1	-1E+10	1	-1E+10	1
4902624	8	C	09/09/2024	15:37	-128.506	47.293	0	232.90	0	6.5680	0	33.8330	0	26.560	0	230.830	0	-1e10	1	-1e10	1	-1E+10	1	-1e10	1	-1e10	1	-1E+10	1	-1E+10	1	-1E+10	1
4902624	8	C	09/09/2024	15:37	-128.506	47.293	0	233.50	0	6.5611	0	33.8336	0	26.562	0	231.425	0	125.7	4	42.0	4	-1E+10	1	0.0438	4	0.000364	0	-1E+10	1	-1E+10	1	-1E+10	1
4902624	8	C	09/09/2024	15:37	-128.506	47.293	0	234.70	0	6.5474	0	33.8347	0	26.564	0	232.613	0	125.0	4	41.8	4	-1E+10	1	0.0511	4	0.000388	0	-1E+10	1	-1E+10	1	-1E+10	1
4902624	8	C	09/09/2024	15:37	-128.506	47.293	0	235.00	0	6.5440	0	33.8350	0	26.565	0	232.911	0	-1e10	1	-1e10	1	-1E+10	1	-1e10	1	-1e10	1	-1E+10	1	-1E+10	1	-1E+10	1
4902624	8	C	09/09/2024	15:37	-128.506	47.293	0	235.90	0	6.5299	0	33.8359	0	26.568	0	233.802	0	124.3	4	41.5	4	-1E+10	1	0.0277	4	0.000359	0	-1E+10	1	-1E+10	1	-1E+10	1
4902624	8	C	09/09/2024	15:37	-128.506	47.293	0	237.10	0	6.5110	0	33.8370	0	26.571	0	234.991	0	-1e10	1	-1e10	1	-1E+10	1	-1e10	1	-1e10	1	-1E+10	1	-1E+10	1	-1E+10	1
4902624	8	C	09/09/2024	15:37	-128.506	47.293	0	237.20	0	6.5091	0	33.8370	0	26.571	0	235.090	0	123.6	4	41.3	4	-1E+10	1	0.0365	4	0.000376	0	-1E+10	1	-1E+10	1	-1E+10	1
4902624	8	C	09/09/2024	15:37	-128.506	47.293	0	238.40	0	6.4857	0	33.8370	0	26.574	0	236.278	0	122.9	4	41.0	4	-1E+10	1	0.0438	4	0.000367	0	-1E+10	1	-1E+10	1	-1E+10	1
4902624	8	C	09/09/2024	15:37	-128.506	47.293	0	239.00	0	6.4740	0	33.8370	0	26.576	0	236.873	0	-1e10	1	-1e10	1	-1E+10	1	-1e10	1	-1e10	1	-1E+10	1	-1E+10	1	-1E+10	1
4902624	8	C	09/09/2024	15:37	-128.506	47.293	0	239.70	0	6.4656	0	33.8370	0	26.577	0	237.566	0	122.2	4	40.8	4	-1E+10	1	0.0516	4	0.000365	0	-1E+10	1	-1E+10	1	-1E+10	1
4902624	8	C	09/09/2024	15:37	-128.506	47.293	0	240.90	0	6.4512	0	33.8370	0	26.579	0	238.755	0	121.4	4	40.5	4	-1E+10	1	0.0560	4	0.000384	0	-1E+10	1	-1E+10	1	-1E+10	1
4902624	8	C	09/09/2024	15:37	-128.506	47.293	0	241.00	0	6.4500	0	33.8370	0	26.579	0	238.854	0	-1e10	1	-1e10	1	-1E+10	1	-1e10	1	-1e10	1	-1E+10	1	-1E+10	1	-1E+10	1
4902624	8	C	09/09/2024	15:37	-128.506	47.293	0	242.10	0	6.4477	0	33.8382	0	26.580	0	239.943	0	120.6	4	40.2	4	-1E+10	1	0.0523	4	0.000403	0	-1E+10	1	-1E+10	1	-1E+10	1
4902624	8	C	09/09/2024	15:37	-128.506	47.293	0	242.90	0	6.4460	0	33.8390	0	26.581	0	240.736	0	-1e10	1	-1e10	1	-1E+10	1	-1e10	1	-1e10	1	-1E+10	1	-1E+10	1	-1E+10	1
4902624	8	C	09/09/2024	15:37	-128.506	47.293	0	243.30	0	6.4409	0	33.8398	0	26.582	0	241.132	0	119.7	4	39.9	4	-1E+10	1	0.0563	4	0.000419	0	-1E+10	1	-1E+10	1	-1E+10	1
4902624	8	C	09/09/2024	15:37	-128.506	47.293	0	244.50	0	6.4254	0	33.8420	0	26.586	0	242.321	0	118.9	4	39.7	4	-1E+10	1	0.0438	4	0.000399	0	-1E+10	1	-1E+10	1	-1E+10	1
4902624	8	C	09/09/2024	15:37	-128.506	47.293	0	245.00	0	6.4190	0	33.8430	0	26.588	0	242.816	0	-1e10	1	-1e10	1	-1E+10	1	-1e10	1	-1e10	1	-1E+10	1	-1E+10	1	-1E+10	1
4902624	8	C	09/09/2024	15:37	-128.506	47.293	0	245.70	0	6.4070	0	33.8437	0	26.590	0	243.509	0	118.2	4	39.4	4	-1E+10	1	0.0555	4	0.000380	0	-1E+10	1	-1E+10	1	-1E+10	1
4902624	8	C	09/09/2024	15:37	-128.506	47.293	0	247.00	0	6.3847	0	33.8449	0	26.594	0	244.797	0	117.4	4	39.1	4	-1E+10	1	0.0584	4	0.000366	0	-1E+10	1	-1E+10	1	-1E+10	1
4902624	8	C	09/09/2024	15:37	-128.506	47.293	0	247.10	0	6.3830	0	33.8450	0	26.594	0	244.896	0	-1e10	1	-1e10	1	-1E+10	1	-1e10	1	-1e10	1	-1E+10	1	-1E+10	1	-1E+10	1
4902624	8	C	09/09/2024	15:37	-128.506	47.293	0	248.20	0	6.3654	0	33.8450	0	26.596	0	245.985	0	116.8	4	38.9	4	-1E+10	1	0.0535	4	0.000372	0	-1E+10	1	-1E+10	1	-1E+10	1
4902624	8	C	09/09/2024	15:37	-128.506	47.293	0	249.10	0	6.3510	0	33.8450	0	26.598	0	246.877	0	-1e10	1	-1e10	1	-1E+10	1	-1e10	1	-1e10	1	-1E+10	1	-1E+10	1	-1E+10	1
4902624	8	C	09/09/2024	15:37	-128.506	47.293	0	249.50	0	6.3486	0	33.8454	0	26.599	0	247.273	0	116.0	4	38.6	4	-1E+10	1	0.0511	4	0.000551	0	-1E+10	1	-1E+10	1	-1E+10	1
4902624	8	C	09/09/2024	15:37	-128.506	47.293	0	250.70	0	6.3414	0	33.8466	0	26.601	0	248.462	0	115.3	4	38.4	4	-1E+10	1	0.0481	4	0.000558	0	-1E+10	1	-1E+10	1	-1E+10	1
4902624	8	C	09/09/2024	15:37	-128.506	47.293	0	251.10	0	6.3390	0	33.8470	0	26.601	0	248.858	0	-1e10	1	-1e10	1	-1E+10	1	-1e10	1	-1e10	1	-1E+10	1	-1E+10	1	-1E+10	1
4902624	8	C	09/09/2024	15:37	-128.506	47.293	0	251.90	0	6.3356	0	33.8483	0	26.603	0	249.650	0	114.7	4	38.2	4	-1E+10	1	0.0487	4	0.000364	0	-1E+10	1	-1E+10	1	-1E+10	1
4902624	8	C	09/09/2024	15:37	-128.506	47.293	0	253.00	0	6.3310	0	33.8500	0	26.605	0	250.740	0	-1e10	1	-1e10	1	-1E+10	1	-1e10	1	-1e10	1	-1E+10	1	-1E+10	1	-1E+10	1
4902624	8	C	09/09/2024	15:37	-128.506	47.293	0	253.10	0	6.3305	0	33.8500	0	26.605	0	250.839	0	114.0	4	37.9	4	-1E+10	1	0.0565	4	0.000384	0	-1E+10	1	-1E+10	1	-1E+10	1
4902624	8	C	09/09/2024	15:37	-128.506	47.293	0	254.40	0	6.3233	0	33.8507	0	26.606	0	252.126	0	113.2	4	37.7	4	-1E+10	1	0.0438	4	0.000364	0	-1E+10	1	-1E+10	1	-1E+10	1
4902624	8	C	09/09/2024	15:37	-128.506	47.293	0	255.00	0	6.3200	0	33.8510	0	26.607	0	252.721	0	-1e10	1	-1e10	1	-1E+10	1	-1e10	1	-1e10	1	-1E+10	1	-1E+10	1	-1E+10	1
4902624	8	C	09/09/2024	15:37	-128.506	47.293	0	255.60	0	6.3162	0	33.8513	0	26.608	0	253.315	0	112.6	4	37.4	4	-1E+10	1	0.0438	4	0.000376	0	-1E+10	1	-1E+10	1	-1E+10	1
4902624	8	C	09/09/2024	15:37	-128.506	47.293	0	256.80	0	6.3086	0	33.8519	0	26.609	0	254.503	0	111.9	4	37.2	4	-1E+10	1	0.0501	4	0.000366	0	-1E+10	1	-1E+10	1	-1E+10	1
4902624	8	C	09/09/2024	15:37	-128.506	47.293	0	256.90	0	6.3080	0	33.8520	0	26.609	0	254.602	0	-1e10	1	-1e10	1	-1E+10	1	-1e10	1	-1e10	1	-1E+10	1	-1E+10	1	-1E+10	1
4902624	8	C	09/09/2024	15:37	-128.506	47.293	0	258.00	0	6.2907	0	33.8525	0	26.612	0	255.692	0	111.1	4	36.9	4	-1E+10	1	0.0414	4	0.000340	0	-1E+10	1	-1E+10	1	-1E+10	1
4902624	8	C	09/09/2024	15:37	-128.506	47.293	0	259.00	0	6.2750	0	33.8530	0	26.614	0	256.682	0	-1e10	1	-1e10	1	-1E+10	1	-1e10	1	-1e10	1	-1E+10	1	-1E+10	1	-1E+10	1
4902624	8	C	09/09/2024	15:37	-128.506	47.293	0	259.20	0	6.2740	0	33.8532	0	26.615	0	256.880	0	110.2	4	36.6	4	-1E+10	1	0.0408	4	0.000329	0	-1E+10	1	-1E+10	1	-1E+10	1
4902624	8	C	09/09/2024	15:37	-128.506	47.293	0	260.40	0	6.2677	0	33.8543	0	26.616	0	258.069	0	109.3	4	36.3	4	-1E+10	1	0.0472	4	0.000356	0	-1E+10	1	-1E+10	1	-1E+10	1
4902624	8	C	09/09/2024	15:37	-128.506	47.293	0	261.10	0	6.2640	0	33.8550	0	26.617	0	258.762	0	-1e10	1	-1e10	1	-1E+10	1	-1e10	1	-1e10	1	-1E+10	1	-1E+10	1	-1E+10	1
4902624	8	C	09/09/2024	15:37	-128.506	47.293	0	261.60	0	6.2619	0	33.8553	0	26.618	0	259.257	0	108.5	4	36.0	4	-1E+10	1	0.0490	4	0.000374	0	-1E+10	1	-1E+10	1	-1E+10	1
4902624	8	C	09/09/2024	15:37	-128.506	47.293	0	262.90	0	6.2564	0	33.8559	0	26.619	0	260.545	0	107.4	4	35.7	4	-1E+10	1	0.0421	4	0.000343	0	-1E+10	1	-1E+10	1	-1E+10	1
4902624	8	C	09/09/2024	15:37	-128.506	47.293	0	263.00	0	6.2560	0	33.8560	0	26.619	0	260.644	0	-1e10	1	-1e10	1	-1E+10	1	-1e10	1	-1e10	1	-1E+10	1	-1E+10	1	-1E+10	1
4902624	8	C	09/09/2024	15:37	-128.506	47.293	0	264.10	0	6.2554	0	33.8577	0	26.621	0	261.733	0	106.3	4	35.3	4	-1E+10	1	0.0386	4	0.000354	0	-1E+10	1	-1E+10	1	-1E+10	1
4902624	8	C	09/09/2024	15:37	-128.506	47.293	0	264.90	0	6.2550	0	33.8590	0	26.622	0	262.526	0	-1e10	1	-1e10	1	-1E+10	1	-1e10	1	-1e10	1	-1E+10	1	-1E+10	1	-1E+10	1
4902624	8	C	09/09/2024	15:37	-128.506	47.293	0	265.30	0	6.2494	0	33.8600	0	26.623	0	262.922	0	105.5	4	35.0	4	-1E+10	1	0.0511	4	0.000364	0	-1E+10	1	-1E+10	1	-1E+10	1
4902624	8	C	09/09/2024	15:37	-128.506	47.293	0	266.50	0	6.2326	0	33.8630	0	26.628	0	264.110	0	104.7	4	34.8	4	-1E+10	1	0.0569	4	0.000373	0	-1E+10	1	-1E+10	1	-1E+10	1
4902624	8	C	09/09/2024	15:37	-128.506	47.293	0	266.90	0	6.2270	0	33.8640	0	26.629	0	264.507	0	-1e10	1	-1e10	1	-1E+10	1	-1e10	1	-1e10	1	-1E+10	1	-1E+10	1	-1E+10	1
4902624	8	C	09/09/2024	15:37	-128.506	47.293	0	267.80	0	6.2180	0	33.8649	0	26.631	0	265.398	0	104.0	4	34.5	4	-1E+10	1	0.0645	4	0.000376	0	-1E+10	1	-1E+10	1	-1E+10	1
4902624	8	C	09/09/2024	15:37	-128.506	47.293	0	269.00	0	6.2060	0	33.8660	0	26.634	0	266.586	0	100.4	4	33.3	4	-1E+10	1	0.0560	4	0.000368	0	-1E+10	1	-1E+10	1	-1E+10	1
4902624	8	C	09/09/2024	15:37	-128.506	47.293	0	270.20	0	6.1911	0	33.8683	0	26.637	0	267.775	0	102.3	4	33.9	4	-1E+10	1	0.0477	4	0.000358	0	-1E+10	1	-1E+10	1	-1E+10	1
4902624	8	C	09/09/2024	15:37	-128.506	47.293	0	271.10	0	6.1800	0	33.8700	0	26.640	0	268.666	0	-1e10	1	-1e10	1	-1E+10	1	-1e10	1	-1e10	1	-1E+10	1	-1E+10	1	-1E+10	1
4902624	8	C	09/09/2024	15:37	-128.506	47.293	0	271.50	0	6.1758	0	33.8708	0	26.641	0	269.062	0	101.7	4	33.7	4	-1E+10	1	0.0468	4	0.000362	0	-1E+10	1	-1E+10	1	-1E+10	1
4902624	8	C	09/09/2024	15:37	-128.506	47.293	0	272.70	0	6.1632	0	33.8732	0	26.645	0	270.251	0	101.2	4	33.5	4	-1E+10	1	0.0511	4	0.000363	0	-1E+10	1	-1E+10	1	-1E+10	1
4902624	8	C	09/09/2024	15:37	-128.506	47.293	0	273.10	0	6.1590	0	33.8740	0	26.646	0	270.647	0	-1e10	1	-1e10	1	-1E+10	1	-1e10	1	-1e10	1	-1E+10	1	-1E+10	1	-1E+10	1
4902624	8	C	09/09/2024	15:37	-128.506	47.293	0	273.90	0	6.1531	0	33.8753	0	26.648	0	271.439	0	100.8	4	33.4	4	-1E+10	1	0.0526	4	0.000343	0	-1E+10	1	-1E+10	1	-1E+10	1
4902624	8	C	09/09/2024	15:37	-128.506	47.293	0	275.00	0	6.1450	0	33.8770	0	26.650	0	272.529	0	-1e10	1	-1e10	1	-1E+10	1	-1e10	1	-1e10	1	-1E+10	1	-1E+10	1	-1E+10	1
4902624	8	C	09/09/2024	15:37	-128.506	47.293	0	275.10	0	6.1439	0	33.8770	0	26.650	0	272.628	0	100.4	4	33.3	4	-1E+10	1	0.0584	4	0.000352	0	-1E+10	1	-1E+10	1	-1E+10	1
4902624	8	C	09/09/2024	15:37	-128.506	47.293	0	276.30	0	6.1314	0	33.8776	0	26.652	0	273.816	0	100.2	4	33.2	4	-1E+10	1	0.0584	4	0.000352	0	-1E+10	1	-1E+10	1	-1E+10	1
4902624	8	C	09/09/2024	15:37	-128.506	47.293	0	277.00	0	6.1240	0	33.8780	0	26.654	0	274.509	0	-1e10	1	-1e10	1	-1E+10	1	-1e10	1	-1e10	1	-1E+10	1	-1E+10	1	-1E+10	1
4902624	8	C	09/09/2024	15:37	-128.506	47.293	0	277.60	0	6.1177	0	33.8783	0	26.655	0	275.104	0	99.9	4	33.1	4	-1E+10	1	0.0584	4	0.000342	0	-1E+10	1	-1E+10	1	-1E+10	1
4902624	8	C	09/09/2024	15:37	-128.506	47.293	0	278.80	0	6.1051	0	33.8789	0	26.657	0	276.292	0	99.6	4	33.0	4	-1E+10	1	0.0535	4	0.000332	0	-1E+10	1	-1E+10	1	-1E+10	1
4902624	8	C	09/09/2024	15:37	-128.506	47.293	0	279.00	0	6.1030	0	33.8790	0	26.657	0	276.490	0	-1e10	1	-1e10	1	-1E+10	1	-1e10	1	-1e10	1	-1E+10	1	-1E+10	1	-1E+10	1
4902624	8	C	09/09/2024	15:37	-128.506	47.293	0	280.00	0	6.0906	0	33.8795	0	26.659	0	277.480	0	99.3	4	32.9	4	-1E+10	1	0.0554	4	0.000335	0	-1E+10	1	-1E+10	1	-1E+10	1
4902624	8	C	09/09/2024	15:37	-128.506	47.293	0	281.10	0	6.0770	0	33.8800	0	26.661	0	278.570	0	-1e10	1	-1e10	1	-1E+10	1	-1e10	1	-1e10	1	-1E+10	1	-1E+10	1	-1E+10	1
4902624	8	C	09/09/2024	15:37	-128.506	47.293	0	281.20	0	6.0748	0	33.8801	0	26.661	0	278.669	0	98.9	4	32.7	4	-1E+10	1	0.0516	4	0.000329	0	-1E+10	1	-1E+10	1	-1E+10	1
4902624	8	C	09/09/2024	15:37	-128.506	47.293	0	282.50	0	6.0462	0	33.8807	0	26.666	0	279.956	0	98.7	4	32.6	4	-1E+10	1	0.0438	4	0.000329	0	-1E+10	1	-1E+10	1	-1E+10	1
4902624	8	C	09/09/2024	15:37	-128.506	47.293	0	283.10	0	6.0330	0	33.8810	0	26.667	0	280.550	0	-1e10	1	-1e10	1	-1E+10	1	-1e10	1	-1e10	1	-1E+10	1	-1E+10	1	-1E+10	1
4902624	8	C	09/09/2024	15:37	-128.506	47.293	0	283.70	0	6.0242	0	33.8810	0	26.669	0	281.145	0	98.3	4	32.5	4	-1E+10	1	0.0438	4	0.000341	0	-1E+10	1	-1E+10	1	-1E+10	1
4902624	8	C	09/09/2024	15:37	-128.506	47.293	0	284.90	0	6.0065	0	33.8810	0	26.671	0	282.333	0	97.9	4	32.3	4	-1E+10	1	0.0459	4	0.000308	0	-1E+10	1	-1E+10	1	-1E+10	1
4902624	8	C	09/09/2024	15:37	-128.506	47.293	0	285.00	0	6.0050	0	33.8810	0	26.671	0	282.432	0	-1e10	1	-1e10	1	-1E+10	1	-1e10	1	-1e10	1	-1E+10	1	-1E+10	1	-1E+10	1
4902624	8	C	09/09/2024	15:37	-128.506	47.293	0	286.10	0	5.9819	0	33.8799	0	26.673	0	283.521	0	97.2	4	32.1	4	-1E+10	1	0.0584	4	0.000328	0	-1E+10	1	-1E+10	1	-1E+10	1
4902624	8	C	09/09/2024	15:37	-128.506	47.293	0	287.00	0	5.9630	0	33.8790	0	26.675	0	284.413	0	-1e10	1	-1e10	1	-1E+10	1	-1e10	1	-1e10	1	-1E+10	1	-1E+10	1	-1E+10	1
4902624	8	C	09/09/2024	15:37	-128.506	47.293	0	287.40	0	5.9626	0	33.8796	0	26.675	0	284.809	0	96.5	4	31.9	4	-1E+10	1	0.0584	4	0.000298	0	-1E+10	1	-1E+10	1	-1E+10	1
4902624	8	C	09/09/2024	15:37	-128.506	47.293	0	288.60	0	5.9614	0	33.8814	0	26.677	0	285.997	0	95.9	4	31.6	4	-1E+10	1	0.0523	4	0.000313	0	-1E+10	1	-1E+10	1	-1E+10	1
4902624	8	C	09/09/2024	15:37	-128.506	47.293	0	289.00	0	5.9610	0	33.8820	0	26.677	0	286.393	0	-1e10	1	-1e10	1	-1E+10	1	-1e10	1	-1e10	1	-1E+10	1	-1E+10	1	-1E+10	1
4902624	8	C	09/09/2024	15:37	-128.506	47.293	0	289.80	0	5.9458	0	33.8824	0	26.680	0	287.185	0	95.5	4	31.5	4	-1E+10	1	0.0511	4	0.000317	0	-1E+10	1	-1E+10	1	-1E+10	1
4902624	8	C	09/09/2024	15:37	-128.506	47.293	0	290.90	0	5.9250	0	33.8830	0	26.683	0	288.275	0	-1e10	1	-1e10	1	-1E+10	1	-1e10	1	-1e10	1	-1E+10	1	-1E+10	1	-1E+10	1
4902624	8	C	09/09/2024	15:37	-128.506	47.293	0	291.10	0	5.9227	0	33.8832	0	26.683	0	288.473	0	94.9	4	31.3	4	-1E+10	1	0.0462	4	0.000317	0	-1E+10	1	-1E+10	1	-1E+10	1
4902624	8	C	09/09/2024	15:37	-128.506	47.293	0	292.30	0	5.9089	0	33.8844	0	26.686	0	289.661	0	94.3	4	31.1	4	-1E+10	1	0.0438	4	0.000303	0	-1E+10	1	-1E+10	1	-1E+10	1
4902624	8	C	09/09/2024	15:37	-128.506	47.293	0	292.90	0	5.9020	0	33.8850	0	26.687	0	290.255	0	-1e10	1	-1e10	1	-1E+10	1	-1e10	1	-1e10	1	-1E+10	1	-1E+10	1	-1E+10	1
4902624	8	C	09/09/2024	15:37	-128.506	47.293	0	293.50	0	5.9017	0	33.8853	0	26.687	0	290.849	0	93.6	4	30.9	4	-1E+10	1	0.0472	4	0.000321	0	-1E+10	1	-1E+10	1	-1E+10	1
4902624	8	C	09/09/2024	15:37	-128.506	47.293	0	294.80	0	5.9011	0	33.8860	0	26.688	0	292.137	0	93.1	4	30.7	4	-1E+10	1	0.0511	4	0.000344	0	-1E+10	1	-1E+10	1	-1E+10	1
4902624	8	C	09/09/2024	15:37	-128.506	47.293	0	294.90	0	5.9010	0	33.8860	0	26.688	0	292.236	0	-1e10	1	-1e10	1	-1E+10	1	-1e10	1	-1e10	1	-1E+10	1	-1E+10	1	-1E+10	1
4902624	8	C	09/09/2024	15:37	-128.506	47.293	0	296.30	0	5.8943	0	33.8893	0	26.691	0	293.622	0	93.0	4	30.6	4	-1E+10	1	0.0511	4	0.000329	0	-1E+10	1	-1E+10	1	-1E+10	1
4902624	8	C	09/09/2024	15:37	-128.506	47.293	0	297.00	0	5.8910	0	33.8910	0	26.693	0	294.315	0	-1e10	1	-1e10	1	-1E+10	1	-1e10	1	-1e10	1	-1E+10	1	-1E+10	1	-1E+10	1
4902624	8	C	09/09/2024	15:37	-128.506	47.293	0	299.10	0	5.8760	0	33.8910	0	26.695	0	296.395	0	-1e10	1	-1e10	1	-1E+10	1	-1e10	1	-1e10	1	-1E+10	1	-1E+10	1	-1E+10	1
4902624	8	C	09/09/2024	15:37	-128.506	47.293	0	305.10	0	5.8240	0	33.8930	0	26.703	0	302.336	0	-1e10	1	-1e10	1	-1E+10	1	-1e10	1	-1e10	1	-1E+10	1	-1E+10	1	-1E+10	1
4902624	8	C	09/09/2024	15:37	-128.506	47.293	0	306.90	0	5.8034	0	33.8939	0	26.706	0	304.119	0	90.7	4	29.8	4	-1E+10	1	0.0511	4	0.000350	0	-1E+10	1	-1E+10	1	-1E+10	1
4902624	8	C	09/09/2024	15:37	-128.506	47.293	0	314.80	0	5.7131	0	33.8979	0	26.721	0	311.941	0	85.3	4	28.0	4	-1E+10	1	0.0508	4	0.000315	0	-1E+10	1	-1E+10	1	-1E+10	1
4902624	8	C	09/09/2024	15:37	-128.506	47.293	0	314.90	0	5.7120	0	33.8980	0	26.721	0	312.040	0	-1e10	1	-1e10	1	-1E+10	1	-1e10	1	-1e10	1	-1E+10	1	-1E+10	1	-1E+10	1
4902624	8	C	09/09/2024	15:37	-128.506	47.293	0	322.80	0	5.6831	0	33.9082	0	26.733	0	319.862	0	80.4	4	26.4	4	-1E+10	1	0.0441	4	0.000283	0	-1E+10	1	-1E+10	1	-1E+10	1
4902624	8	C	09/09/2024	15:37	-128.506	47.293	0	325.00	0	5.6750	0	33.9110	0	26.736	0	322.040	0	-1e10	1	-1e10	1	-1E+10	1	-1e10	1	-1e10	1	-1E+10	1	-1E+10	1	-1E+10	1
4902624	8	C	09/09/2024	15:37	-128.506	47.293	0	330.90	0	5.6277	0	33.9186	0	26.748	0	327.882	0	75.3	4	24.7	4	-1E+10	1	0.0511	4	0.000325	0	-1E+10	1	-1E+10	1	-1E+10	1
4902624	8	C	09/09/2024	15:37	-128.506	47.293	0	335.10	0	5.5940	0	33.9240	0	26.756	0	332.040	0	-1e10	1	-1e10	1	-1E+10	1	-1e10	1	-1e10	1	-1E+10	1	-1E+10	1	-1E+10	1
4902624	8	C	09/09/2024	15:37	-128.506	47.293	0	339.50	0	5.5793	0	33.9298	0	26.762	0	336.397	0	71.2	4	23.3	4	-1E+10	1	0.0511	4	0.000247	0	-1E+10	1	-1E+10	1	-1E+10	1
4902624	8	C	09/09/2024	15:37	-128.506	47.293	0	345.00	0	5.5610	0	33.9370	0	26.770	0	341.842	0	-1e10	1	-1e10	1	-1E+10	1	-1e10	1	-1e10	1	-1E+10	1	-1E+10	1	-1E+10	1
4902624	8	C	09/09/2024	15:37	-128.506	47.293	0	348.40	0	5.5287	0	33.9377	0	26.775	0	345.208	0	69.3	4	22.7	4	-1E+10	1	0.0511	4	0.000281	0	-1E+10	1	-1E+10	1	-1E+10	1
4902624	8	C	09/09/2024	15:37	-128.506	47.293	0	354.90	0	5.4670	0	33.9390	0	26.783	0	351.643	0	-1e10	1	-1e10	1	-1E+10	1	-1e10	1	-1e10	1	-1E+10	1	-1E+10	1	-1E+10	1
4902624	8	C	09/09/2024	15:37	-128.506	47.293	0	357.50	0	5.4486	0	33.9416	0	26.787	0	354.217	0	66.3	4	21.6	4	-1E+10	1	0.0513	4	0.000280	0	-1E+10	1	-1E+10	1	-1E+10	1
4902624	8	C	09/09/2024	15:37	-128.506	47.293	0	364.80	0	5.3970	0	33.9490	0	26.799	0	361.443	0	-1e10	1	-1e10	1	-1E+10	1	-1e10	1	-1e10	1	-1E+10	1	-1E+10	1	-1E+10	1
4902624	8	C	09/09/2024	15:37	-128.506	47.293	0	367.10	0	5.3770	0	33.9506	0	26.803	0	363.720	0	63.4	4	20.6	4	-1E+10	1	0.0590	4	0.000246	0	-1E+10	1	-1E+10	1	-1E+10	1
4902624	8	C	09/09/2024	15:37	-128.506	47.293	0	374.80	0	5.3100	0	33.9560	0	26.815	0	371.342	0	-1e10	1	-1e10	1	-1E+10	1	-1e10	1	-1e10	1	-1E+10	1	-1E+10	1	-1E+10	1
4902624	8	C	09/09/2024	15:37	-128.506	47.293	0	377.00	0	5.3026	0	33.9582	0	26.818	0	373.520	0	60.3	4	19.6	4	-1E+10	1	0.0719	4	0.000245	0	-1E+10	1	-1E+10	1	-1E+10	1
4902624	8	C	09/09/2024	15:37	-128.506	47.293	0	384.90	0	5.2760	0	33.9660	0	26.827	0	381.340	0	-1e10	1	-1e10	1	-1E+10	1	-1e10	1	-1e10	1	-1E+10	1	-1E+10	1	-1E+10	1
4902624	8	C	09/09/2024	15:37	-128.506	47.293	0	387.50	0	5.2638	0	33.9679	0	26.830	0	383.913	0	57.4	4	18.6	4	-1E+10	1	0.0441	4	0.000223	0	-1E+10	1	-1E+10	1	-1E+10	1
4902624	8	C	09/09/2024	15:37	-128.506	47.293	0	394.70	0	5.2300	0	33.9730	0	26.838	0	391.040	0	-1e10	1	-1e10	1	-1E+10	1	-1e10	1	-1e10	1	-1E+10	1	-1E+10	1	-1E+10	1
4902624	8	C	09/09/2024	15:37	-128.506	47.293	0	398.50	0	5.2123	0	33.9763	0	26.843	0	394.801	0	53.5	4	17.4	4	-1E+10	1	0.0516	4	0.000245	0	-1E+10	1	-1E+10	1	-1E+10	1
4902624	8	C	09/09/2024	15:37	-128.506	47.293	0	405.00	0	5.1820	0	33.9820	0	26.851	0	401.235	0	-1e10	1	-1e10	1	-1E+10	1	-1e10	1	-1e10	1	-1E+10	1	-1E+10	1	-1E+10	1
4902624	8	C	09/09/2024	15:37	-128.506	47.293	0	410.00	0	5.1619	0	33.9854	0	26.856	0	406.183	0	51.3	4	16.6	4	-1E+10	1	0.0654	4	0.000233	0	-1E+10	1	-1E+10	1	-1E+10	1
4902624	8	C	09/09/2024	15:37	-128.506	47.293	0	415.20	0	5.1410	0	33.9890	0	26.861	0	411.330	0	-1e10	1	-1e10	1	-1E+10	1	-1e10	1	-1e10	1	-1E+10	1	-1E+10	1	-1E+10	1
4902624	8	C	09/09/2024	15:37	-128.506	47.293	0	421.90	0	5.0986	0	33.9931	0	26.870	0	417.960	0	49.3	4	16.0	4	-1E+10	1	0.0578	4	0.000233	0	-1E+10	1	-1E+10	1	-1E+10	1
4902624	8	C	09/09/2024	15:37	-128.506	47.293	0	425.00	0	5.0790	0	33.9950	0	26.873	0	421.028	0	-1e10	1	-1e10	1	-1E+10	1	-1e10	1	-1e10	1	-1E+10	1	-1E+10	1	-1E+10	1
4902624	8	C	09/09/2024	15:37	-128.506	47.293	0	434.00	0	5.0415	0	33.9987	0	26.881	0	429.935	0	48.0	4	15.5	4	-1E+10	1	0.0444	4	0.000233	0	-1E+10	1	-1E+10	1	-1E+10	1
4902624	8	C	09/09/2024	15:37	-128.506	47.293	0	434.60	0	5.0390	0	33.9990	0	26.881	0	430.529	0	-1e10	1	-1e10	1	-1E+10	1	-1e10	1	-1e10	1	-1E+10	1	-1E+10	1	-1E+10	1
4902624	8	C	09/09/2024	15:37	-128.506	47.293	0	444.90	0	4.9420	0	34.0000	0	26.893	0	440.721	0	-1e10	1	-1e10	1	-1E+10	1	-1e10	1	-1e10	1	-1E+10	1	-1E+10	1	-1E+10	1
4902624	8	C	09/09/2024	15:37	-128.506	47.293	0	446.20	0	4.9303	0	34.0005	0	26.895	0	442.008	0	46.6	4	15.0	4	-1E+10	1	0.0584	4	0.000223	0	-1E+10	1	-1E+10	1	-1E+10	1
4902624	8	C	09/09/2024	15:37	-128.506	47.293	0	455.10	0	4.8500	0	34.0040	0	26.907	0	450.814	0	-1e10	1	-1e10	1	-1E+10	1	-1e10	1	-1e10	1	-1E+10	1	-1E+10	1	-1E+10	1
4902624	8	C	09/09/2024	15:37	-128.506	47.293	0	458.60	0	4.8472	0	34.0100	0	26.912	0	454.278	0	43.0	4	13.8	4	-1E+10	1	0.0581	4	0.000255	0	-1E+10	1	-1E+10	1	-1E+10	1
4902624	8	C	09/09/2024	15:37	-128.506	47.293	0	465.10	0	4.8420	0	34.0210	0	26.921	0	460.709	0	-1e10	1	-1e10	1	-1E+10	1	-1e10	1	-1e10	1	-1E+10	1	-1E+10	1	-1E+10	1
4902624	8	C	09/09/2024	15:37	-128.506	47.293	0	471.30	0	4.8023	0	34.0253	0	26.929	0	466.844	0	40.7	4	13.1	4	-1E+10	1	0.0518	4	0.000210	0	-1E+10	1	-1E+10	1	-1E+10	1
4902624	8	C	09/09/2024	15:37	-128.506	47.293	0	475.10	0	4.7780	0	34.0280	0	26.934	0	470.603	0	-1e10	1	-1e10	1	-1E+10	1	-1e10	1	-1e10	1	-1E+10	1	-1E+10	1	-1E+10	1
4902624	8	C	09/09/2024	15:37	-128.506	47.293	0	483.90	0	4.7744	0	34.0343	0	26.939	0	479.310	0	38.9	4	12.5	4	-1E+10	1	0.0654	4	0.000221	0	-1E+10	1	-1E+10	1	-1E+10	1
4902624	8	C	09/09/2024	15:37	-128.506	47.293	0	484.90	0	4.7740	0	34.0350	0	26.940	0	480.299	0	-1e10	1	-1e10	1	-1E+10	1	-1e10	1	-1e10	1	-1E+10	1	-1E+10	1	-1E+10	1
4902624	8	C	09/09/2024	15:37	-128.506	47.293	0	494.90	0	4.7590	0	34.0390	0	26.945	0	490.193	0	-1e10	1	-1e10	1	-1E+10	1	-1e10	1	-1e10	1	-1E+10	1	-1E+10	1	-1E+10	1
4902624	8	C	09/09/2024	15:37	-128.506	47.293	0	496.60	0	4.7580	0	34.0415	0	26.947	0	491.874	0	36.0	4	11.6	4	-1E+10	1	0.0584	4	0.000209	0	-1E+10	1	-1E+10	1	-1E+10	1
4902624	8	C	09/09/2024	15:37	-128.506	47.293	0	505.00	0	4.7530	0	34.0540	0	26.958	0	500.184	0	-1e10	1	-1e10	1	-1E+10	1	-1e10	1	-1e10	1	-1E+10	1	-1E+10	1	-1E+10	1
4902624	8	C	09/09/2024	15:37	-128.506	47.293	0	508.40	0	4.7496	0	34.0570	0	26.960	0	503.548	0	33.3	4	10.7	4	-1E+10	1	0.0584	4	0.000199	0	-1E+10	1	-1E+10	1	-1E+10	1
4902624	8	C	09/09/2024	15:37	-128.506	47.293	0	515.10	0	4.7430	0	34.0630	0	26.966	0	510.176	0	-1e10	1	-1e10	1	-1E+10	1	-1e10	1	-1e10	1	-1E+10	1	-1E+10	1	-1E+10	1
4902624	8	C	09/09/2024	15:37	-128.506	47.293	0	516.50	0	4.7375	0	34.0641	0	26.967	0	511.561	0	32.0	4	10.3	4	-1E+10	1	0.0580	4	0.000230	0	-1E+10	1	-1E+10	1	-1E+10	1
4902624	8	C	09/09/2024	15:37	-128.506	47.293	0	524.50	0	4.7058	0	34.0704	0	26.976	0	519.474	0	30.1	4	9.7	4	-1E+10	1	0.0519	4	0.000186	0	-1E+10	1	-1E+10	1	-1E+10	1
4902624	8	C	09/09/2024	15:37	-128.506	47.293	0	525.20	0	4.7030	0	34.0710	0	26.977	0	520.167	0	-1e10	1	-1e10	1	-1E+10	1	-1e10	1	-1e10	1	-1E+10	1	-1E+10	1	-1E+10	1
4902624	8	C	09/09/2024	15:37	-128.506	47.293	0	532.50	0	4.6881	0	34.0807	0	26.986	0	527.387	0	28.2	4	9.0	4	-1E+10	1	0.0719	4	0.000195	0	-1E+10	1	-1E+10	1	-1E+10	1
4902624	8	C	09/09/2024	15:37	-128.506	47.293	0	535.00	0	4.6830	0	34.0840	0	26.989	0	529.860	0	-1e10	1	-1e10	1	-1E+10	1	-1e10	1	-1e10	1	-1E+10	1	-1E+10	1	-1E+10	1
4902624	8	C	09/09/2024	15:37	-128.506	47.293	0	540.60	0	4.6487	0	34.0891	0	26.997	0	535.399	0	26.8	4	8.6	4	-1E+10	1	0.0511	4	0.000161	0	-1E+10	1	-1E+10	1	-1E+10	1
4902624	8	C	09/09/2024	15:37	-128.506	47.293	0	544.80	0	4.6230	0	34.0930	0	27.003	0	539.553	0	-1e10	1	-1e10	1	-1E+10	1	-1e10	1	-1e10	1	-1E+10	1	-1E+10	1	-1E+10	1
4902624	8	C	09/09/2024	15:37	-128.506	47.293	0	549.00	0	4.5961	0	34.0955	0	27.008	0	543.707	0	25.7	4	8.2	4	-1E+10	1	0.0511	4	0.000151	0	-1E+10	1	-1E+10	1	-1E+10	1
4902624	8	C	09/09/2024	15:37	-128.506	47.293	0	554.80	0	4.5590	0	34.0990	0	27.015	0	549.444	0	-1e10	1	-1e10	1	-1E+10	1	-1e10	1	-1e10	1	-1E+10	1	-1E+10	1	-1E+10	1
4902624	8	C	09/09/2024	15:37	-128.506	47.293	0	557.80	0	4.5428	0	34.1008	0	27.018	0	552.411	0	24.6	4	7.9	4	-1E+10	1	0.0511	4	0.000173	0	-1E+10	1	-1E+10	1	-1E+10	1
4902624	8	C	09/09/2024	15:37	-128.506	47.293	0	564.80	0	4.5050	0	34.1050	0	27.026	0	559.334	0	-1e10	1	-1e10	1	-1E+10	1	-1e10	1	-1e10	1	-1E+10	1	-1E+10	1	-1E+10	1
4902624	8	C	09/09/2024	15:37	-128.506	47.293	0	566.90	0	4.4947	0	34.1077	0	27.029	0	561.411	0	23.0	4	7.3	4	-1E+10	1	0.0508	4	0.000162	0	-1E+10	1	-1E+10	1	-1E+10	1
4902624	8	C	09/09/2024	15:37	-128.506	47.293	0	575.00	0	4.4550	0	34.1180	0	27.041	0	569.421	0	-1e10	1	-1e10	1	-1E+10	1	-1e10	1	-1e10	1	-1E+10	1	-1E+10	1	-1E+10	1
4902624	8	C	09/09/2024	15:37	-128.506	47.293	0	576.40	0	4.4474	0	34.1190	0	27.043	0	570.806	0	21.7	4	6.9	4	-1E+10	1	0.0444	4	0.000173	0	-1E+10	1	-1E+10	1	-1E+10	1
4902624	8	C	09/09/2024	15:37	-128.506	47.293	0	584.90	0	4.4010	0	34.1250	0	27.053	0	579.211	0	-1e10	1	-1e10	1	-1E+10	1	-1e10	1	-1e10	1	-1E+10	1	-1E+10	1	-1E+10	1
4902624	8	C	09/09/2024	15:37	-128.506	47.293	0	586.20	0	4.3964	0	34.1260	0	27.054	0	580.497	0	20.7	4	6.6	4	-1E+10	1	0.0578	4	0.000161	0	-1E+10	1	-1E+10	1	-1E+10	1
4902624	8	C	09/09/2024	15:37	-128.506	47.293	0	595.10	0	4.3650	0	34.1330	0	27.063	0	589.298	0	-1e10	1	-1e10	1	-1E+10	1	-1e10	1	-1e10	1	-1E+10	1	-1E+10	1	-1E+10	1
4902624	8	C	09/09/2024	15:37	-128.506	47.293	0	596.40	0	4.3653	0	34.1341	0	27.064	0	590.583	0	19.5	4	6.2	4	-1E+10	1	0.0446	4	0.000161	0	-1E+10	1	-1E+10	1	-1E+10	1
4902624	8	C	09/09/2024	15:37	-128.506	47.293	0	604.80	0	4.3670	0	34.1410	0	27.069	0	598.889	0	-1e10	1	-1e10	1	-1E+10	1	-1e10	1	-1e10	1	-1E+10	1	-1E+10	1	-1E+10	1
4902624	8	C	09/09/2024	15:37	-128.506	47.293	0	606.90	0	4.3651	0	34.1427	0	27.071	0	600.966	0	18.4	4	5.8	4	-1E+10	1	0.0647	4	0.000149	0	-1E+10	1	-1E+10	1	-1E+10	1
4902624	8	C	09/09/2024	15:37	-128.506	47.293	0	614.90	0	4.3580	0	34.1490	0	27.077	0	608.876	0	-1e10	1	-1e10	1	-1E+10	1	-1e10	1	-1e10	1	-1E+10	1	-1E+10	1	-1E+10	1
4902624	8	C	09/09/2024	15:37	-128.506	47.293	0	617.50	0	4.3516	0	34.1511	0	27.079	0	611.446	0	17.3	4	5.5	4	-1E+10	1	0.0446	4	0.000149	0	-1E+10	1	-1E+10	1	-1E+10	1
4902624	8	C	09/09/2024	15:37	-128.506	47.293	0	625.00	0	4.3330	0	34.1570	0	27.086	0	618.862	0	-1e10	1	-1e10	1	-1E+10	1	-1e10	1	-1e10	1	-1E+10	1	-1E+10	1	-1E+10	1
4902624	8	C	09/09/2024	15:37	-128.506	47.293	0	628.40	0	4.3208	0	34.1604	0	27.090	0	622.223	0	16.2	4	5.2	4	-1E+10	1	0.0654	4	0.000149	0	-1E+10	1	-1E+10	1	-1E+10	1
4902624	8	C	09/09/2024	15:37	-128.506	47.293	0	635.00	0	4.2970	0	34.1670	0	27.098	0	628.748	0	-1e10	1	-1e10	1	-1E+10	1	-1e10	1	-1e10	1	-1E+10	1	-1E+10	1	-1E+10	1
4902624	8	C	09/09/2024	15:37	-128.506	47.293	0	639.40	0	4.2912	0	34.1719	0	27.102	0	633.098	0	14.9	4	4.7	4	-1E+10	1	0.0581	4	0.000148	0	-1E+10	1	-1E+10	1	-1E+10	1
4902624	8	C	09/09/2024	15:37	-128.506	47.293	0	644.90	0	4.2840	0	34.1780	0	27.108	0	638.536	0	-1e10	1	-1e10	1	-1E+10	1	-1e10	1	-1e10	1	-1E+10	1	-1E+10	1	-1E+10	1
4902624	8	C	09/09/2024	15:37	-128.506	47.293	0	650.50	0	4.2897	0	34.1848	0	27.113	0	644.072	0	13.7	4	4.4	4	-1E+10	1	0.0514	4	0.000129	0	-1E+10	1	-1E+10	1	-1E+10	1
4902624	8	C	09/09/2024	15:37	-128.506	47.293	0	654.80	0	4.2940	0	34.1900	0	27.116	0	648.323	0	-1e10	1	-1e10	1	-1E+10	1	-1e10	1	-1e10	1	-1E+10	1	-1E+10	1	-1E+10	1
4902624	8	C	09/09/2024	15:37	-128.506	47.293	0	661.70	0	4.2712	0	34.1941	0	27.122	0	655.144	0	13.2	4	4.2	4	-1E+10	1	0.0579	4	0.000217	0	-1E+10	1	-1E+10	1	-1E+10	1
4902624	8	C	09/09/2024	15:37	-128.506	47.293	0	664.80	0	4.2610	0	34.1960	0	27.125	0	658.208	0	-1e10	1	-1e10	1	-1E+10	1	-1e10	1	-1e10	1	-1E+10	1	-1E+10	1	-1E+10	1
4902624	8	C	09/09/2024	15:37	-128.506	47.293	0	672.90	0	4.2356	0	34.2008	0	27.131	0	666.215	0	12.4	4	4.0	4	-1E+10	1	0.0446	4	0.000173	0	-1E+10	1	-1E+10	1	-1E+10	1
4902624	8	C	09/09/2024	15:37	-128.506	47.293	0	675.00	0	4.2290	0	34.2020	0	27.133	0	668.290	0	-1e10	1	-1e10	1	-1E+10	1	-1e10	1	-1e10	1	-1E+10	1	-1E+10	1	-1E+10	1
4902624	8	C	09/09/2024	15:37	-128.506	47.293	0	684.20	0	4.2161	0	34.2112	0	27.142	0	677.384	0	11.8	4	3.7	4	-1E+10	1	0.0654	4	0.000182	0	-1E+10	1	-1E+10	1	-1E+10	1
4902624	8	C	09/09/2024	15:37	-128.506	47.293	0	685.00	0	4.2150	0	34.2120	0	27.142	0	678.175	0	-1e10	1	-1e10	1	-1E+10	1	-1e10	1	-1e10	1	-1E+10	1	-1E+10	1	-1E+10	1
4902624	8	C	09/09/2024	15:37	-128.506	47.293	0	695.40	0	4.1930	0	34.2190	0	27.150	0	688.454	0	-1e10	1	-1e10	1	-1E+10	1	-1e10	1	-1e10	1	-1E+10	1	-1E+10	1	-1E+10	1
4902624	8	C	09/09/2024	15:37	-128.506	47.293	0	695.60	0	4.1925	0	34.2191	0	27.150	0	688.652	0	11.3	4	3.6	4	-1E+10	1	0.0587	4	0.000148	0	-1E+10	1	-1E+10	1	-1E+10	1
4902624	8	C	09/09/2024	15:37	-128.506	47.293	0	705.20	0	4.1700	0	34.2240	0	27.157	0	698.140	0	-1e10	1	-1e10	1	-1E+10	1	-1e10	1	-1e10	1	-1E+10	1	-1E+10	1	-1E+10	1
4902624	8	C	09/09/2024	15:37	-128.506	47.293	0	707.20	0	4.1663	0	34.2252	0	27.158	0	700.116	0	10.9	4	3.5	4	-1E+10	1	0.0657	4	0.000137	0	-1E+10	1	-1E+10	1	-1E+10	1
4902624	8	C	09/09/2024	15:37	-128.506	47.293	0	715.00	0	4.1520	0	34.2300	0	27.163	0	707.825	0	-1e10	1	-1e10	1	-1E+10	1	-1e10	1	-1e10	1	-1E+10	1	-1E+10	1	-1E+10	1
4902624	8	C	09/09/2024	15:37	-128.506	47.293	0	718.80	0	4.1516	0	34.2330	0	27.166	0	711.580	0	10.4	4	3.3	4	-1E+10	1	0.0654	4	0.000137	0	-1E+10	1	-1E+10	1	-1E+10	1
4902624	8	C	09/09/2024	15:37	-128.506	47.293	0	725.00	0	4.1510	0	34.2380	0	27.170	0	717.707	0	-1e10	1	-1e10	1	-1E+10	1	-1e10	1	-1e10	1	-1E+10	1	-1E+10	1	-1E+10	1
4902624	8	C	09/09/2024	15:37	-128.506	47.293	0	730.40	0	4.1361	0	34.2406	0	27.174	0	723.044	0	10.0	4	3.2	4	-1E+10	1	0.0581	4	0.000149	0	-1E+10	1	-1E+10	1	-1E+10	1
4902624	8	C	09/09/2024	15:37	-128.506	47.293	0	735.50	0	4.1220	0	34.2430	0	27.177	0	728.083	0	-1e10	1	-1e10	1	-1E+10	1	-1e10	1	-1e10	1	-1E+10	1	-1E+10	1	-1E+10	1
4902624	8	C	09/09/2024	15:37	-128.506	47.293	0	740.80	0	4.1079	0	34.2473	0	27.182	0	733.321	0	9.6	4	3.1	4	-1E+10	1	0.0507	4	0.000161	0	-1E+10	1	-1E+10	1	-1E+10	1
4902624	8	C	09/09/2024	15:37	-128.506	47.293	0	745.30	0	4.0960	0	34.2510	0	27.186	0	737.767	0	-1e10	1	-1e10	1	-1E+10	1	-1e10	1	-1e10	1	-1E+10	1	-1E+10	1	-1E+10	1
4902624	8	C	09/09/2024	15:37	-128.506	47.293	0	748.80	0	4.1014	0	34.2553	0	27.189	0	741.226	0	9.3	4	2.9	4	-1E+10	1	0.0441	4	0.000181	0	-1E+10	1	-1E+10	1	-1E+10	1
4902624	8	C	09/09/2024	15:37	-128.506	47.293	0	755.00	0	4.1110	0	34.2630	0	27.194	0	747.352	0	-1e10	1	-1e10	1	-1E+10	1	-1e10	1	-1e10	1	-1E+10	1	-1E+10	1	-1E+10	1
4902624	8	C	09/09/2024	15:37	-128.506	47.293	0	757.20	0	4.1088	0	34.2652	0	27.196	0	749.526	0	8.9	4	2.8	4	-1E+10	1	0.0518	4	0.000138	0	-1E+10	1	-1E+10	1	-1E+10	1
4902624	8	C	09/09/2024	15:37	-128.506	47.293	0	765.00	0	4.1010	0	34.2730	0	27.203	0	757.232	0	-1e10	1	-1e10	1	-1E+10	1	-1e10	1	-1e10	1	-1E+10	1	-1E+10	1	-1E+10	1
4902624	8	C	09/09/2024	15:37	-128.506	47.293	0	765.80	0	4.0991	0	34.2735	0	27.204	0	758.023	0	8.7	4	2.8	4	-1E+10	1	0.0654	4	0.000171	0	-1E+10	1	-1E+10	1	-1E+10	1
4902624	8	C	09/09/2024	15:37	-128.506	47.293	0	774.60	0	4.0782	0	34.2787	0	27.210	0	766.717	0	8.5	4	2.7	4	-1E+10	1	0.0584	4	0.000170	0	-1E+10	1	-1E+10	1	-1E+10	1
4902624	8	C	09/09/2024	15:37	-128.506	47.293	0	775.10	0	4.0770	0	34.2790	0	27.211	0	767.211	0	-1e10	1	-1e10	1	-1E+10	1	-1e10	1	-1e10	1	-1E+10	1	-1E+10	1	-1E+10	1
4902624	8	C	09/09/2024	15:37	-128.506	47.293	0	783.70	0	4.0665	0	34.2869	0	27.218	0	775.708	0	8.3	4	2.6	4	-1E+10	1	0.0587	4	0.000148	0	-1E+10	1	-1E+10	1	-1E+10	1
4902624	8	C	09/09/2024	15:37	-128.506	47.293	0	784.90	0	4.0650	0	34.2880	0	27.219	0	776.893	0	-1e10	1	-1e10	1	-1E+10	1	-1e10	1	-1e10	1	-1E+10	1	-1E+10	1	-1E+10	1
4902624	8	C	09/09/2024	15:37	-128.506	47.293	0	792.90	0	4.0402	0	34.2928	0	27.226	0	784.797	0	8.2	4	2.6	4	-1E+10	1	0.0654	4	0.000170	0	-1E+10	1	-1E+10	1	-1E+10	1
4902624	8	C	09/09/2024	15:37	-128.506	47.293	0	794.90	0	4.0340	0	34.2940	0	27.227	0	786.773	0	-1e10	1	-1e10	1	-1E+10	1	-1e10	1	-1e10	1	-1E+10	1	-1E+10	1	-1E+10	1
4902624	8	C	09/09/2024	15:37	-128.506	47.293	0	802.60	0	4.0093	0	34.2977	0	27.233	0	794.379	0	8.1	4	2.6	4	-1E+10	1	0.0578	4	0.000148	0	-1E+10	1	-1E+10	1	-1E+10	1
4902624	8	C	09/09/2024	15:37	-128.506	47.293	0	805.20	0	4.0010	0	34.2990	0	27.235	0	796.948	0	-1e10	1	-1e10	1	-1E+10	1	-1e10	1	-1e10	1	-1E+10	1	-1E+10	1	-1E+10	1
4902624	8	C	09/09/2024	15:37	-128.506	47.293	0	812.60	0	3.9614	0	34.3020	0	27.241	0	804.258	0	7.9	4	2.5	4	-1E+10	1	0.0442	4	0.000157	0	-1E+10	1	-1E+10	1	-1E+10	1
4902624	8	C	09/09/2024	15:37	-128.506	47.293	0	815.10	0	3.9480	0	34.3030	0	27.243	0	806.727	0	-1e10	1	-1e10	1	-1E+10	1	-1e10	1	-1e10	1	-1E+10	1	-1E+10	1	-1E+10	1
4902624	8	C	09/09/2024	15:37	-128.506	47.293	0	823.00	0	3.9350	0	34.3079	0	27.249	0	814.531	0	7.9	4	2.5	4	-1E+10	1	0.0511	4	0.000124	0	-1E+10	1	-1E+10	1	-1E+10	1
4902624	8	C	09/09/2024	15:37	-128.506	47.293	0	824.80	0	3.9320	0	34.3090	0	27.250	0	816.308	0	-1e10	1	-1e10	1	-1E+10	1	-1e10	1	-1e10	1	-1E+10	1	-1E+10	1	-1E+10	1
4902624	8	C	09/09/2024	15:37	-128.506	47.293	0	833.50	0	3.9056	0	34.3133	0	27.256	0	824.902	0	7.8	4	2.5	4	-1E+10	1	0.0519	4	0.000136	0	-1E+10	1	-1E+10	1	-1E+10	1
4902624	8	C	09/09/2024	15:37	-128.506	47.293	0	835.00	0	3.9010	0	34.3140	0	27.257	0	826.383	0	-1e10	1	-1e10	1	-1E+10	1	-1e10	1	-1e10	1	-1E+10	1	-1E+10	1	-1E+10	1
4902624	8	C	09/09/2024	15:37	-128.506	47.293	0	844.50	0	3.8789	0	34.3178	0	27.262	0	835.766	0	7.9	4	2.5	4	-1E+10	1	0.0725	4	0.000157	0	-1E+10	1	-1E+10	1	-1E+10	1
4902624	8	C	09/09/2024	15:37	-128.506	47.293	0	844.90	0	3.8780	0	34.3180	0	27.262	0	836.161	0	-1e10	1	-1e10	1	-1E+10	1	-1e10	1	-1e10	1	-1E+10	1	-1E+10	1	-1E+10	1
4902624	8	C	09/09/2024	15:37	-128.506	47.293	0	855.20	0	3.8500	0	34.3190	0	27.266	0	846.334	0	-1e10	1	-1e10	1	-1E+10	1	-1e10	1	-1e10	1	-1E+10	1	-1E+10	1	-1E+10	1
4902624	8	C	09/09/2024	15:37	-128.506	47.293	0	855.70	0	3.8474	0	34.3190	0	27.266	0	846.828	0	18.5	4	5.8	4	-1E+10	1	0.0584	4	0.000112	0	-1E+10	1	-1E+10	1	-1E+10	1
4902624	8	C	09/09/2024	15:37	-128.506	47.293	0	865.10	0	3.7980	0	34.3180	0	27.271	0	856.111	0	-1e10	1	-1e10	1	-1E+10	1	-1e10	1	-1e10	1	-1E+10	1	-1E+10	1	-1E+10	1
4902624	8	C	09/09/2024	15:37	-128.506	47.293	0	867.10	0	3.7940	0	34.3186	0	27.272	0	858.086	0	50.1	4	15.8	4	-1E+10	1	0.0581	4	0.000145	0	-1E+10	1	-1E+10	1	-1E+10	1
4902624	8	C	09/09/2024	15:37	-128.506	47.293	0	875.00	0	3.7780	0	34.3210	0	27.275	0	865.888	0	-1e10	1	-1e10	1	-1E+10	1	-1e10	1	-1e10	1	-1E+10	1	-1E+10	1	-1E+10	1
4902624	8	C	09/09/2024	15:37	-128.506	47.293	0	878.60	0	3.7715	0	34.3228	0	27.277	0	869.443	0	45.8	4	14.4	4	-1E+10	1	0.0517	4	0.000124	0	-1E+10	1	-1E+10	1	-1E+10	1
4902624	8	C	09/09/2024	15:37	-128.506	47.293	0	885.00	0	3.7600	0	34.3260	0	27.281	0	875.763	0	-1e10	1	-1e10	1	-1E+10	1	-1e10	1	-1e10	1	-1E+10	1	-1E+10	1	-1E+10	1
4902624	8	C	09/09/2024	15:37	-128.506	47.293	0	890.50	0	3.7492	0	34.3287	0	27.284	0	881.194	0	52.1	4	16.4	4	-1E+10	1	0.0654	4	0.000148	0	-1E+10	1	-1E+10	1	-1E+10	1
4902624	8	C	09/09/2024	15:37	-128.506	47.293	0	895.20	0	3.7400	0	34.3310	0	27.287	0	885.835	0	-1e10	1	-1e10	1	-1E+10	1	-1e10	1	-1e10	1	-1E+10	1	-1E+10	1	-1E+10	1
4902624	8	C	09/09/2024	15:37	-128.506	47.293	0	902.60	0	3.7221	0	34.3347	0	27.292	0	893.141	0	32.3	4	10.1	4	-1E+10	1	0.0584	4	0.000181	0	-1E+10	1	-1E+10	1	-1E+10	1
4902624	8	C	09/09/2024	15:37	-128.506	47.293	0	905.10	0	3.7160	0	34.3360	0	27.293	0	895.610	0	-1e10	1	-1e10	1	-1E+10	1	-1e10	1	-1e10	1	-1E+10	1	-1E+10	1	-1E+10	1
4902624	8	C	09/09/2024	15:37	-128.506	47.293	0	912.40	0	3.6989	0	34.3397	0	27.298	0	902.818	0	57.8	4	18.1	4	-1E+10	1	0.0584	4	0.000168	0	-1E+10	1	-1E+10	1	-1E+10	1
4902624	8	C	09/09/2024	15:37	-128.506	47.293	0	914.90	0	3.6930	0	34.3410	0	27.300	0	905.286	0	-1e10	1	-1e10	1	-1E+10	1	-1e10	1	-1e10	1	-1E+10	1	-1E+10	1	-1E+10	1
4902624	8	C	09/09/2024	15:37	-128.506	47.293	0	920.50	0	3.6808	0	34.3443	0	27.304	0	910.815	0	59.5	4	18.7	4	-1E+10	1	0.0581	4	0.000162	0	-1E+10	1	-1E+10	1	-1E+10	1
4902624	8	C	09/09/2024	15:37	-128.506	47.293	0	925.00	0	3.6710	0	34.3470	0	27.307	0	915.258	0	-1e10	1	-1e10	1	-1E+10	1	-1e10	1	-1e10	1	-1E+10	1	-1E+10	1	-1E+10	1
4902624	8	C	09/09/2024	15:37	-128.506	47.293	0	928.70	0	3.6615	0	34.3485	0	27.309	0	918.911	0	37.9	4	11.9	4	-1E+10	1	0.0514	4	0.000587	0	-1E+10	1	-1E+10	1	-1E+10	1
4902624	8	C	09/09/2024	15:37	-128.506	47.293	0	935.10	0	3.6450	0	34.3510	0	27.312	0	925.229	0	-1e10	1	-1e10	1	-1E+10	1	-1e10	1	-1e10	1	-1E+10	1	-1E+10	1	-1E+10	1
4902624	8	C	09/09/2024	15:37	-128.506	47.293	0	937.00	0	3.6409	0	34.3520	0	27.314	0	927.105	0	34.9	4	11.0	4	-1E+10	1	0.0581	4	0.000167	0	-1E+10	1	-1E+10	1	-1E+10	1
4902624	8	C	09/09/2024	15:37	-128.506	47.293	0	944.90	0	3.6240	0	34.3560	0	27.319	0	934.904	0	-1e10	1	-1e10	1	-1E+10	1	-1e10	1	-1e10	1	-1E+10	1	-1E+10	1	-1E+10	1
4902624	8	C	09/09/2024	15:37	-128.506	47.293	0	945.30	0	3.6234	0	34.3562	0	27.319	0	935.299	0	39.1	4	12.2	4	-1E+10	1	0.0516	4	0.000123	0	-1E+10	1	-1E+10	1	-1E+10	1
4902624	8	C	09/09/2024	15:37	-128.506	47.293	0	953.80	0	3.6099	0	34.3604	0	27.324	0	943.689	0	39.0	4	12.2	4	-1E+10	1	0.0652	4	0.000157	0	-1E+10	1	-1E+10	1	-1E+10	1
4902624	8	C	09/09/2024	15:37	-128.506	47.293	0	955.00	0	3.6080	0	34.3610	0	27.324	0	944.874	0	-1e10	1	-1e10	1	-1E+10	1	-1e10	1	-1e10	1	-1E+10	1	-1E+10	1	-1E+10	1
4902624	8	C	09/09/2024	15:37	-128.506	47.293	0	962.50	0	3.5915	0	34.3647	0	27.329	0	952.277	0	39.2	4	12.3	4	-1E+10	1	0.0518	4	0.000146	0	-1E+10	1	-1E+10	1	-1E+10	1
4902624	8	C	09/09/2024	15:37	-128.506	47.293	0	965.00	0	3.5860	0	34.3660	0	27.330	0	954.745	0	-1e10	1	-1e10	1	-1E+10	1	-1e10	1	-1e10	1	-1E+10	1	-1E+10	1	-1E+10	1
4902624	8	C	09/09/2024	15:37	-128.506	47.293	0	971.10	0	3.5750	0	34.3690	0	27.334	0	960.766	0	41.3	4	12.9	4	-1E+10	1	0.0657	4	0.000156	0	-1E+10	1	-1E+10	1	-1E+10	1
4902624	8	C	09/09/2024	15:37	-128.506	47.293	0	975.00	0	3.5680	0	34.3710	0	27.336	0	964.616	0	-1e10	1	-1e10	1	-1E+10	1	-1e10	1	-1e10	1	-1E+10	1	-1E+10	1	-1E+10	1
4902624	8	C	09/09/2024	15:37	-128.506	47.293	0	980.00	0	3.5581	0	34.3735	0	27.339	0	969.551	0	36.6	4	11.5	4	-1E+10	1	0.0654	4	0.000145	0	-1E+10	1	-1E+10	1	-1E+10	1
4902624	8	C	09/09/2024	15:37	-128.506	47.293	0	985.10	0	3.5480	0	34.3760	0	27.342	0	974.585	0	-1e10	1	-1e10	1	-1E+10	1	-1e10	1	-1e10	1	-1E+10	1	-1E+10	1	-1E+10	1
4902624	8	C	09/09/2024	15:37	-128.506	47.293	0	988.90	0	3.5415	0	34.3775	0	27.344	0	978.336	0	62.6	4	19.6	4	-1E+10	1	0.0581	4	0.000159	0	-1E+10	1	-1E+10	1	-1E+10	1
4902624	8	C	09/09/2024	15:37	-128.506	47.293	0	995.00	0	3.5310	0	34.3800	0	27.347	0	984.356	0	-1e10	1	-1e10	1	-1E+10	1	-1e10	1	-1e10	1	-1E+10	1	-1E+10	1	-1E+10	1
4902624	8	C	09/09/2024	15:37	-128.506	47.293	0	997.80	0	3.5256	0	34.3811	0	27.349	0	987.119	0	61.7	4	19.3	4	-1E+10	1	0.0513	4	0.000203	0	-1E+10	1	-1E+10	1	-1E+10	1
4902624	8	C	09/09/2024	15:37	-128.506	47.293	0	1015.90	0	3.4906	0	34.3885	0	27.358	0	1004.982	0	58.8	4	18.4	4	-1E+10	1	0.0586	4	0.000179	0	-1E+10	1	-1E+10	1	-1E+10	1
4902624	8	C	09/09/2024	15:37	-128.506	47.293	0	1024.50	0	3.4740	0	34.3920	0	27.362	0	1013.469	0	-1e10	1	-1e10	1	-1E+10	1	-1e10	1	-1e10	1	-1E+10	1	-1E+10	1	-1E+10	1
4902624	8	C	09/09/2024	15:37	-128.506	47.293	0	1034.80	0	3.4484	0	34.3963	0	27.368	0	1023.633	0	57.5	4	17.9	4	-1E+10	1	0.0729	4	0.000156	0	-1E+10	1	-1E+10	1	-1E+10	1
4902624	8	C	09/09/2024	15:37	-128.506	47.293	0	1054.40	0	3.3995	0	34.4044	0	27.379	0	1042.973	0	56.7	4	17.7	4	-1E+10	1	0.0656	4	0.000155	0	-1E+10	1	-1E+10	1	-1E+10	1
4902624	8	C	09/09/2024	15:37	-128.506	47.293	0	1074.90	0	3.3485	0	34.4129	0	27.391	0	1063.199	0	56.8	4	17.7	4	-1E+10	1	0.0584	4	0.000144	0	-1E+10	1	-1E+10	1	-1E+10	1
4902624	8	C	09/09/2024	15:37	-128.506	47.293	0	1075.10	0	3.3480	0	34.4130	0	27.391	0	1063.396	0	-1e10	1	-1e10	1	-1E+10	1	-1e10	1	-1e10	1	-1E+10	1	-1E+10	1	-1E+10	1
4902624	8	C	09/09/2024	15:37	-128.506	47.293	0	1095.90	0	3.3003	0	34.4196	0	27.401	0	1083.916	0	60.3	4	18.8	4	-1E+10	1	0.0585	4	0.000167	0	-1E+10	1	-1E+10	1	-1E+10	1
4902624	8	C	09/09/2024	15:37	-128.506	47.293	0	1118.20	0	3.2491	0	34.4268	0	27.412	0	1105.913	0	60.5	4	18.8	4	-1E+10	1	0.0656	4	0.000155	0	-1E+10	1	-1E+10	1	-1E+10	1
4902624	8	C	09/09/2024	15:37	-128.506	47.293	0	1125.20	0	3.2330	0	34.4290	0	27.415	0	1112.818	0	-1e10	1	-1e10	1	-1E+10	1	-1e10	1	-1e10	1	-1E+10	1	-1E+10	1	-1E+10	1
4902624	8	C	09/09/2024	15:37	-128.506	47.293	0	1139.00	0	3.2045	0	34.4323	0	27.421	0	1126.429	0	60.9	4	18.9	4	-1E+10	1	0.0585	4	0.000155	0	-1E+10	1	-1E+10	1	-1E+10	1
4902624	8	C	09/09/2024	15:37	-128.506	47.293	0	1154.40	0	3.1727	0	34.4360	0	27.427	0	1141.617	0	55.6	4	17.2	4	-1E+10	1	0.0655	4	0.000154	0	-1E+10	1	-1E+10	1	-1E+10	1
4902624	8	C	09/09/2024	15:37	-128.506	47.293	0	1170.70	0	3.1391	0	34.4399	0	27.433	0	1157.692	0	64.0	4	19.8	4	-1E+10	1	0.0583	4	0.000154	0	-1E+10	1	-1E+10	1	-1E+10	1
4902624	8	C	09/09/2024	15:37	-128.506	47.293	0	1175.10	0	3.1300	0	34.4410	0	27.435	0	1162.031	0	-1e10	1	-1e10	1	-1E+10	1	-1e10	1	-1e10	1	-1E+10	1	-1E+10	1	-1E+10	1
4902624	8	C	09/09/2024	15:37	-128.506	47.293	0	1187.60	0	3.1036	0	34.4443	0	27.440	0	1174.357	0	59.0	4	18.3	4	-1E+10	1	0.0514	4	0.000119	0	-1E+10	1	-1E+10	1	-1E+10	1
4902624	8	C	09/09/2024	15:37	-128.506	47.293	0	1204.70	0	3.0676	0	34.4487	0	27.447	0	1191.218	0	57.5	4	17.8	4	-1E+10	1	0.0654	4	0.000142	0	-1E+10	1	-1E+10	1	-1E+10	1
4902624	8	C	09/09/2024	15:37	-128.506	47.293	0	1222.00	0	3.0311	0	34.4532	0	27.454	0	1208.275	0	56.2	4	17.4	4	-1E+10	1	0.0513	4	0.000130	0	-1E+10	1	-1E+10	1	-1E+10	1
4902624	8	C	09/09/2024	15:37	-128.506	47.293	0	1224.90	0	3.0250	0	34.4540	0	27.455	0	1211.134	0	-1e10	1	-1e10	1	-1E+10	1	-1e10	1	-1e10	1	-1E+10	1	-1E+10	1	-1E+10	1
4902624	8	C	09/09/2024	15:37	-128.506	47.293	0	1239.40	0	2.9957	0	34.4578	0	27.461	0	1225.429	0	57.3	4	17.7	4	-1E+10	1	0.0582	4	0.000141	0	-1E+10	1	-1E+10	1	-1E+10	1
4902624	8	C	09/09/2024	15:37	-128.506	47.293	0	1257.20	0	2.9598	0	34.4624	0	27.468	0	1242.975	0	54.7	4	16.9	4	-1E+10	1	0.0511	4	0.000118	0	-1E+10	1	-1E+10	1	-1E+10	1
4902624	8	C	09/09/2024	15:37	-128.506	47.293	0	1274.90	0	2.9240	0	34.4670	0	27.475	0	1260.422	0	-1e10	1	-1e10	1	-1E+10	1	-1e10	1	-1e10	1	-1E+10	1	-1E+10	1	-1E+10	1
4902624	8	C	09/09/2024	15:37	-128.506	47.293	0	1275.40	0	2.9229	0	34.4671	0	27.475	0	1260.915	0	110.4	4	34.0	4	-1E+10	1	0.0514	4	0.000141	0	-1E+10	1	-1E+10	1	-1E+10	1
4902624	8	C	09/09/2024	15:37	-128.506	47.293	0	1293.90	0	2.8817	0	34.4716	0	27.482	0	1279.149	0	115.4	4	35.5	4	-1E+10	1	0.0655	4	0.000140	0	-1E+10	1	-1E+10	1	-1E+10	1
4902624	8	C	09/09/2024	15:37	-128.506	47.293	0	1313.00	0	2.8392	0	34.4762	0	27.490	0	1297.972	0	59.6	4	18.3	4	-1E+10	1	0.0512	4	0.000129	0	-1E+10	1	-1E+10	1	-1E+10	1
4902624	8	C	09/09/2024	15:37	-128.506	47.293	0	1324.80	0	2.8130	0	34.4790	0	27.494	0	1309.600	0	-1e10	1	-1e10	1	-1E+10	1	-1e10	1	-1e10	1	-1E+10	1	-1E+10	1	-1E+10	1
4902624	8	C	09/09/2024	15:37	-128.506	47.293	0	1332.90	0	2.7975	0	34.4809	0	27.497	0	1317.582	0	63.7	4	19.6	4	-1E+10	1	0.0586	4	0.000162	0	-1E+10	1	-1E+10	1	-1E+10	1
4902624	8	C	09/09/2024	15:37	-128.506	47.293	0	1353.70	0	2.7577	0	34.4859	0	27.505	0	1338.077	0	55.5	4	17.0	4	-1E+10	1	0.0654	4	0.000116	0	-1E+10	1	-1E+10	1	-1E+10	1
4902624	8	C	09/09/2024	15:37	-128.506	47.293	0	1375.00	0	2.7170	0	34.4910	0	27.512	0	1359.063	0	-1e10	1	-1e10	1	-1E+10	1	-1e10	1	-1e10	1	-1E+10	1	-1E+10	1	-1E+10	1
4902624	8	C	09/09/2024	15:37	-128.506	47.293	0	1375.60	0	2.7158	0	34.4912	0	27.513	0	1359.654	0	63.0	4	19.3	4	-1E+10	1	0.0513	4	0.000127	0	-1E+10	1	-1E+10	1	-1E+10	1
4902624	8	C	09/09/2024	15:37	-128.506	47.293	0	1398.50	0	2.6714	0	34.4971	0	27.521	0	1382.213	0	61.4	4	18.8	4	-1E+10	1	0.0580	4	0.000116	0	-1E+10	1	-1E+10	1	-1E+10	1
4902624	8	C	09/09/2024	15:37	-128.506	47.293	0	1414.90	0	2.6396	0	34.5013	0	27.527	0	1398.368	0	66.1	4	20.2	4	-1E+10	1	0.0442	4	0.000127	0	-1E+10	1	-1E+10	1	-1E+10	1
4902624	8	C	09/09/2024	15:37	-128.506	47.293	0	1425.50	0	2.6190	0	34.5040	0	27.531	0	1408.809	0	-1e10	1	-1e10	1	-1E+10	1	-1e10	1	-1e10	1	-1E+10	1	-1E+10	1	-1E+10	1
4902624	8	C	09/09/2024	15:37	-128.506	47.293	0	1431.50	0	2.6087	0	34.5053	0	27.533	0	1414.719	0	67.6	4	20.7	4	-1E+10	1	0.0655	4	0.000139	0	-1E+10	1	-1E+10	1	-1E+10	1
4902624	8	C	09/09/2024	15:37	-128.506	47.293	0	1448.90	0	2.5790	0	34.5092	0	27.539	0	1431.856	0	65.0	4	19.9	4	-1E+10	1	0.0582	4	0.000139	0	-1E+10	1	-1E+10	1	-1E+10	1
4902624	8	C	09/09/2024	15:37	-128.506	47.293	0	1467.20	0	2.5477	0	34.5133	0	27.545	0	1449.877	0	72.9	4	22.3	4	-1E+10	1	0.0514	4	0.000150	0	-1E+10	1	-1E+10	1	-1E+10	1
4902624	8	C	09/09/2024	15:37	-128.506	47.293	0	1474.60	0	2.5350	0	34.5150	0	27.548	0	1457.165	0	-1e10	1	-1e10	1	-1E+10	1	-1e10	1	-1e10	1	-1E+10	1	-1E+10	1	-1E+10	1
4902624	8	C	09/09/2024	15:37	-128.506	47.293	0	1486.30	0	2.5173	0	34.5171	0	27.551	0	1468.686	0	70.2	4	21.4	4	-1E+10	1	0.0654	4	0.000150	0	-1E+10	1	-1E+10	1	-1E+10	1
4902624	8	C	09/09/2024	15:37	-128.506	47.293	0	1506.10	0	2.4872	0	34.5207	0	27.556	0	1488.181	0	73.9	4	22.6	4	-1E+10	1	0.0515	4	0.000171	0	-1E+10	1	-1E+10	1	-1E+10	1
4902624	8	C	09/09/2024	15:37	-128.506	47.293	0	1524.70	0	2.4590	0	34.5240	0	27.562	0	1506.494	0	-1e10	1	-1e10	1	-1E+10	1	-1e10	1	-1e10	1	-1E+10	1	-1E+10	1	-1E+10	1
4902624	8	C	09/09/2024	15:37	-128.506	47.293	0	1526.30	0	2.4567	0	34.5243	0	27.562	0	1508.069	0	80.2	4	24.4	4	-1E+10	1	0.0653	4	0.000125	0	-1E+10	1	-1E+10	1	-1E+10	1
4902624	8	C	09/09/2024	15:37	-128.506	47.293	0	1546.80	0	2.4268	0	34.5280	0	27.567	0	1528.250	0	89.0	4	27.1	4	-1E+10	1	0.0438	4	0.000125	0	-1E+10	1	-1E+10	1	-1E+10	1
4902624	8	C	09/09/2024	15:37	-128.506	47.293	0	1567.10	0	2.3972	0	34.5316	0	27.573	0	1548.232	0	96.9	4	29.5	4	-1E+10	1	0.0439	4	0.000136	0	-1E+10	1	-1E+10	1	-1E+10	1
4902624	8	C	09/09/2024	15:37	-128.506	47.293	0	1574.80	0	2.3860	0	34.5330	0	27.575	0	1555.811	0	-1e10	1	-1e10	1	-1E+10	1	-1e10	1	-1e10	1	-1E+10	1	-1E+10	1	-1E+10	1
4902624	8	C	09/09/2024	15:37	-128.506	47.293	0	1587.80	0	2.3679	0	34.5353	0	27.578	0	1568.607	0	101.7	4	30.9	4	-1E+10	1	0.0511	4	0.000136	0	-1E+10	1	-1E+10	1	-1E+10	1
4902624	8	C	09/09/2024	15:37	-128.506	47.293	0	1608.50	0	2.3391	0	34.5390	0	27.584	0	1588.979	0	113.7	4	34.6	4	-1E+10	1	0.0511	4	0.000147	0	-1E+10	1	-1E+10	1	-1E+10	1
4902624	8	C	09/09/2024	15:37	-128.506	47.293	0	1625.10	0	2.3160	0	34.5420	0	27.588	0	1605.314	0	-1e10	1	-1e10	1	-1E+10	1	-1e10	1	-1e10	1	-1E+10	1	-1E+10	1	-1E+10	1
4902624	8	C	09/09/2024	15:37	-128.506	47.293	0	1630.20	0	2.3091	0	34.5428	0	27.589	0	1610.333	0	121.1	4	36.8	4	-1E+10	1	0.0514	4	0.000147	0	-1E+10	1	-1E+10	1	-1E+10	1
4902624	8	C	09/09/2024	15:37	-128.506	47.293	0	1652.40	0	2.2788	0	34.5463	0	27.595	0	1632.177	0	112.6	4	34.2	4	-1E+10	1	0.0653	4	0.000146	0	-1E+10	1	-1E+10	1	-1E+10	1
4902624	8	C	09/09/2024	15:37	-128.506	47.293	0	1674.50	0	2.2488	0	34.5498	0	27.600	0	1653.920	0	113.4	4	34.4	4	-1E+10	1	0.0439	4	0.000135	0	-1E+10	1	-1E+10	1	-1E+10	1
4902624	8	C	09/09/2024	15:37	-128.506	47.293	0	1675.80	0	2.2470	0	34.5500	0	27.600	0	1655.199	0	-1e10	1	-1e10	1	-1E+10	1	-1e10	1	-1e10	1	-1E+10	1	-1E+10	1	-1E+10	1
4902624	8	C	09/09/2024	15:37	-128.506	47.293	0	1690.20	0	2.2272	0	34.5524	0	27.604	0	1669.365	0	118.6	4	35.9	4	-1E+10	1	0.0515	4	0.000168	0	-1E+10	1	-1E+10	1	-1E+10	1
4902624	8	C	09/09/2024	15:37	-128.506	47.293	0	1706.60	0	2.2046	0	34.5551	0	27.608	0	1685.498	0	121.6	4	36.8	4	-1E+10	1	0.0655	4	0.000123	0	-1E+10	1	-1E+10	1	-1E+10	1
4902624	8	C	09/09/2024	15:37	-128.506	47.293	0	1723.80	0	2.1810	0	34.5579	0	27.612	0	1702.416	0	123.8	4	37.5	4	-1E+10	1	0.0581	4	0.000134	0	-1E+10	1	-1E+10	1	-1E+10	1
4902624	8	C	09/09/2024	15:37	-128.506	47.293	0	1724.50	0	2.1800	0	34.5580	0	27.613	0	1703.105	0	-1e10	1	-1e10	1	-1E+10	1	-1e10	1	-1e10	1	-1E+10	1	-1E+10	1	-1E+10	1
4902624	8	C	09/09/2024	15:37	-128.506	47.293	0	1742.10	0	2.1608	0	34.5611	0	27.617	0	1720.415	0	125.3	4	37.9	4	-1E+10	1	0.0441	4	0.000133	0	-1E+10	1	-1E+10	1	-1E+10	1
4902624	8	C	09/09/2024	15:37	-128.506	47.293	0	1761.50	0	2.1395	0	34.5646	0	27.621	0	1739.494	0	126.7	4	38.3	4	-1E+10	1	0.0584	4	0.000111	0	-1E+10	1	-1E+10	1	-1E+10	1
4902624	8	C	09/09/2024	15:37	-128.506	47.293	0	1774.80	0	2.1250	0	34.5670	0	27.624	0	1752.573	0	-1e10	1	-1e10	1	-1E+10	1	-1e10	1	-1e10	1	-1E+10	1	-1E+10	1	-1E+10	1
4902624	8	C	09/09/2024	15:37	-128.506	47.293	0	1781.70	0	2.1175	0	34.5681	0	27.626	0	1759.358	0	128.2	4	38.8	4	-1E+10	1	0.0583	4	0.000156	0	-1E+10	1	-1E+10	1	-1E+10	1
4902624	8	C	09/09/2024	15:37	-128.506	47.293	0	1802.60	0	2.0950	0	34.5714	0	27.630	0	1779.909	0	129.3	4	39.1	4	-1E+10	1	0.0513	4	0.000144	0	-1E+10	1	-1E+10	1	-1E+10	1
4902624	8	C	09/09/2024	15:37	-128.506	47.293	0	1824.20	0	2.0716	0	34.5749	0	27.635	0	1801.145	0	132.0	4	39.9	4	-1E+10	1	0.0583	4	0.000132	0	-1E+10	1	-1E+10	1	-1E+10	1
4902624	8	C	09/09/2024	15:37	-128.506	47.293	0	1824.80	0	2.0710	0	34.5750	0	27.635	0	1801.735	0	-1e10	1	-1e10	1	-1E+10	1	-1e10	1	-1e10	1	-1E+10	1	-1E+10	1	-1E+10	1
4902624	8	C	09/09/2024	15:37	-128.506	47.293	0	1846.80	0	2.0508	0	34.5784	0	27.640	0	1823.363	0	133.0	4	40.2	4	-1E+10	1	0.0509	4	0.000155	0	-1E+10	1	-1E+10	1	-1E+10	1
4902624	8	C	09/09/2024	15:37	-128.506	47.293	0	1870.30	0	2.0292	0	34.5821	0	27.644	0	1846.463	0	134.7	4	40.6	4	-1E+10	1	0.0445	4	0.000142	0	-1E+10	1	-1E+10	1	-1E+10	1
4902624	8	C	09/09/2024	15:37	-128.506	47.293	0	1876.00	0	2.0240	0	34.5830	0	27.646	0	1852.065	0	-1e10	1	-1e10	1	-1E+10	1	-1e10	1	-1e10	1	-1E+10	1	-1E+10	1	-1E+10	1
4902624	8	C	09/09/2024	15:37	-128.506	47.293	0	1886.90	0	2.0155	0	34.5846	0	27.648	0	1862.778	0	135.8	4	41.0	4	-1E+10	1	0.0654	4	0.000131	0	-1E+10	1	-1E+10	1	-1E+10	1
4902624	8	C	09/09/2024	15:37	-128.506	47.293	0	1903.30	0	2.0026	0	34.5869	0	27.651	0	1878.896	0	137.4	4	41.4	4	-1E+10	1	0.0508	4	0.000130	0	-1E+10	1	-1E+10	1	-1E+10	1
4902624	8	C	09/09/2024	15:37	-128.506	47.293	0	1920.50	0	1.9891	0	34.5894	0	27.654	0	1895.799	0	138.0	4	41.6	4	-1E+10	1	0.0368	4	0.000107	0	-1E+10	1	-1E+10	1	-1E+10	1
4902624	8	C	09/09/2024	15:37	-128.506	47.293	0	1924.50	0	1.9860	0	34.5900	0	27.654	0	1899.730	0	-1e10	1	-1e10	1	-1E+10	1	-1e10	1	-1e10	1	-1E+10	1	-1E+10	1	-1E+10	1
4902624	8	C	09/09/2024	15:37	-128.506	47.293	0	1938.70	0	1.9760	0	34.5918	0	27.657	0	1913.683	0	138.7	4	41.8	4	-1E+10	1	0.0514	4	0.000106	0	-1E+10	1	-1E+10	1	-1E+10	1
4902624	8	C	09/09/2024	15:37	-128.506	47.293	0	1957.70	0	1.9626	0	34.5941	0	27.660	0	1932.352	0	138.7	4	41.8	4	-1E+10	1	0.0654	4	0.000118	0	-1E+10	1	-1E+10	1	-1E+10	1
4902624	8	C	09/09/2024	15:37	-128.506	47.293	0	1972.80	0	1.9520	0	34.5960	0	27.662	0	1947.188	0	-1e10	1	-1e10	1	-1E+10	1	-1e10	1	-1e10	1	-1E+10	1	-1E+10	1	-1E+10	1
4902624	8	C	09/09/2024	15:37	-128.506	47.293	0	1977.90	0	-1e10	1	-1e10	1	-1e10	1	1952.198	0	146.1	4	-1e10	4	-1E+10	1	0.0511	4	0.000143	0	-1E+10	1	-1E+10	1	-1E+10	1
4902624	8	C	09/09/2024	15:37	-128.506	47.293	0	1995.00	0	-1e10	1	-1e10	1	-1e10	1	1968.997	0	83.2	4	-1e10	4	-1E+10	1	0.0511	4	0.000155	0	-1E+10	1	-1E+10	1	-1E+10	1
4902624	8	C	09/09/2024	15:37	-128.506	47.293	0																										
4902624	9	C	09/19/2024	10:40	-128.462	47.446	0	0.30	0	17.2663	0	32.1097	0	23.236	0	0.297	0	227.0	4	93.8	4	-1E+10	1	0.2482	4	0.000988	0	-1E+10	1	-1E+10	1	-1E+10	1
4902624	9	C	09/19/2024	10:40	-128.462	47.446	0	0.50	0	17.2820	0	32.1060	0	23.229	0	0.496	0	-1e10	1	-1e10	1	-1E+10	1	-1e10	1	-1e10	1	-1E+10	1	-1E+10	1	-1E+10	1
4902624	9	C	09/19/2024	10:40	-128.462	47.446	0	0.60	0	17.2824	0	32.1069	0	23.230	0	0.595	0	226.9	4	93.8	4	-1E+10	1	0.2482	4	0.000969	0	-1E+10	1	-1E+10	1	-1E+10	1
4902624	9	C	09/19/2024	10:40	-128.462	47.446	0	0.90	0	17.2838	0	32.1096	0	23.232	0	0.892	0	-1e10	1	-1e10	1	-1E+10	1	0.2482	4	0.000941	0	-1E+10	1	-1E+10	1	-1E+10	1
4902624	9	C	09/19/2024	10:40	-128.462	47.446	0	1.10	0	17.2847	0	32.1113	0	23.233	0	1.091	0	-1e10	1	-1e10	1	-1E+10	1	0.2482	4	0.000906	0	-1E+10	1	-1E+10	1	-1E+10	1
4902624	9	C	09/19/2024	10:40	-128.462	47.446	0	1.20	0	17.2851	0	32.1122	0	23.233	0	1.190	0	-1e10	1	-1e10	1	-1E+10	1	0.2263	4	0.000953	0	-1E+10	1	-1E+10	1	-1E+10	1
4902624	9	C	09/19/2024	10:40	-128.462	47.446	0	1.40	0	17.2860	0	32.1140	0	23.235	0	1.388	0	-1e10	1	-1e10	1	-1E+10	1	-1e10	1	-1e10	1	-1E+10	1	-1E+10	1	-1E+10	1
4902624	9	C	09/19/2024	10:40	-128.462	47.446	0	1.50	0	17.2865	0	32.1139	0	23.234	0	1.487	0	-1e10	1	-1e10	1	-1E+10	1	0.2482	4	0.000894	0	-1E+10	1	-1E+10	1	-1E+10	1
4902624	9	C	09/19/2024	10:40	-128.462	47.446	0	1.60	0	17.2871	0	32.1138	0	23.234	0	1.587	0	-1e10	1	-1e10	1	-1E+10	1	0.2263	4	0.000871	0	-1E+10	1	-1E+10	1	-1E+10	1
4902624	9	C	09/19/2024	10:40	-128.462	47.446	0	1.80	0	17.2882	0	32.1136	0	23.234	0	1.785	0	-1e10	1	-1e10	1	-1E+10	1	0.2482	4	0.000894	0	-1E+10	1	-1E+10	1	-1E+10	1
4902624	9	C	09/19/2024	10:40	-128.462	47.446	0	1.90	0	17.2887	0	32.1135	0	23.234	0	1.884	0	226.9	4	93.8	4	-1E+10	1	0.2628	4	0.000871	0	-1E+10	1	-1E+10	1	-1E+10	1
4902624	9	C	09/19/2024	10:40	-128.462	47.446	0	2.10	0	17.2898	0	32.1134	0	23.233	0	2.082	0	-1e10	1	-1e10	1	-1E+10	1	0.2263	4	0.000906	0	-1E+10	1	-1E+10	1	-1E+10	1
4902624	9	C	09/19/2024	10:40	-128.462	47.446	0	2.20	0	17.2904	0	32.1133	0	23.233	0	2.182	0	-1e10	1	-1e10	1	-1E+10	1	0.2336	4	0.000906	0	-1E+10	1	-1E+10	1	-1E+10	1
4902624	9	C	09/19/2024	10:40	-128.462	47.446	0	2.50	0	17.2920	0	32.1130	0	23.232	0	2.479	0	226.8	4	93.8	4	-1E+10	1	0.2360	4	0.001019	0	-1E+10	1	-1E+10	1	-1E+10	1
4902624	9	C	09/19/2024	10:40	-128.462	47.446	0	2.70	0	17.2914	0	32.1132	0	23.233	0	2.677	0	-1e10	1	-1e10	1	-1E+10	1	0.2409	4	0.000871	0	-1E+10	1	-1E+10	1	-1E+10	1
4902624	9	C	09/19/2024	10:40	-128.462	47.446	0	2.90	0	17.2908	0	32.1134	0	23.233	0	2.876	0	-1e10	1	-1e10	1	-1E+10	1	0.2482	4	0.000882	0	-1E+10	1	-1E+10	1	-1E+10	1
4902624	9	C	09/19/2024	10:40	-128.462	47.446	0	3.10	0	17.2902	0	32.1136	0	23.233	0	3.074	0	-1e10	1	-1e10	1	-1E+10	1	0.2409	4	0.000976	0	-1E+10	1	-1E+10	1	-1E+10	1
4902624	9	C	09/19/2024	10:40	-128.462	47.446	0	3.30	0	17.2896	0	32.1138	0	23.234	0	3.272	0	-1e10	1	-1e10	1	-1E+10	1	0.2336	4	0.000906	0	-1E+10	1	-1E+10	1	-1E+10	1
4902624	9	C	09/19/2024	10:40	-128.462	47.446	0	3.50	0	17.2890	0	32.1140	0	23.234	0	3.471	0	226.8	4	93.8	4	-1E+10	1	0.2409	4	0.000953	0	-1E+10	1	-1E+10	1	-1E+10	1
4902624	9	C	09/19/2024	10:40	-128.462	47.446	0	3.60	0	17.2888	0	32.1140	0	23.234	0	3.570	0	-1e10	1	-1e10	1	-1E+10	1	0.2409	4	0.000906	0	-1E+10	1	-1E+10	1	-1E+10	1
4902624	9	C	09/19/2024	10:40	-128.462	47.446	0	3.80	0	17.2885	0	32.1140	0	23.234	0	3.768	0	-1e10	1	-1e10	1	-1E+10	1	0.2701	4	0.000964	0	-1E+10	1	-1E+10	1	-1E+10	1
4902624	9	C	09/19/2024	10:40	-128.462	47.446	0	4.00	0	17.2881	0	32.1140	0	23.234	0	3.967	0	-1e10	1	-1e10	1	-1E+10	1	0.2482	4	0.000894	0	-1E+10	1	-1E+10	1	-1E+10	1
4902624	9	C	09/19/2024	10:40	-128.462	47.446	0	4.40	0	17.2874	0	32.1140	0	23.234	0	4.363	0	226.7	4	93.8	4	-1E+10	1	0.2482	4	0.000976	0	-1E+10	1	-1E+10	1	-1E+10	1
4902624	9	C	09/19/2024	10:40	-128.462	47.446	0	4.60	0	17.2870	0	32.1140	0	23.234	0	4.562	0	-1e10	1	-1e10	1	-1E+10	1	0.2409	4	0.000894	0	-1E+10	1	-1E+10	1	-1E+10	1
4902624	9	C	09/19/2024	10:40	-128.462	47.446	0	4.80	0	17.2872	0	32.1138	0	23.234	0	4.760	0	-1e10	1	-1e10	1	-1E+10	1	0.2482	4	0.000918	0	-1E+10	1	-1E+10	1	-1E+10	1
4902624	9	C	09/19/2024	10:40	-128.462	47.446	0	4.90	0	17.2873	0	32.1137	0	23.234	0	4.859	0	-1e10	1	-1e10	1	-1E+10	1	0.2263	4	0.000964	0	-1E+10	1	-1E+10	1	-1E+10	1
4902624	9	C	09/19/2024	10:40	-128.462	47.446	0	5.10	0	17.2876	0	32.1134	0	23.234	0	5.057	0	-1e10	1	-1e10	1	-1E+10	1	0.2409	4	0.000894	0	-1E+10	1	-1E+10	1	-1E+10	1
4902624	9	C	09/19/2024	10:40	-128.462	47.446	0	5.30	0	17.2878	0	32.1132	0	23.234	0	5.256	0	226.8	4	93.8	4	-1E+10	1	0.2409	4	0.000929	0	-1E+10	1	-1E+10	1	-1E+10	1
4902624	9	C	09/19/2024	10:40	-128.462	47.446	0	5.50	0	17.2880	0	32.1130	0	23.233	0	5.454	0	-1e10	1	-1e10	1	-1E+10	1	0.2482	4	0.000941	0	-1E+10	1	-1E+10	1	-1E+10	1
4902624	9	C	09/19/2024	10:40	-128.462	47.446	0	5.90	0	17.2876	0	32.1130	0	23.234	0	5.851	0	-1e10	1	-1e10	1	-1E+10	1	0.2336	4	0.000941	0	-1E+10	1	-1E+10	1	-1E+10	1
4902624	9	C	09/19/2024	10:40	-128.462	47.446	0	6.10	0	17.2874	0	32.1130	0	23.234	0	6.049	0	-1e10	1	-1e10	1	-1E+10	1	0.2263	4	0.001070	0	-1E+10	1	-1E+10	1	-1E+10	1
4902624	9	C	09/19/2024	10:40	-128.462	47.446	0	6.30	0	17.2872	0	32.1130	0	23.234	0	6.247	0	226.9	4	93.8	4	-1E+10	1	0.2409	4	0.000929	0	-1E+10	1	-1E+10	1	-1E+10	1
4902624	9	C	09/19/2024	10:40	-128.462	47.446	0	6.50	0	17.2870	0	32.1130	0	23.234	0	6.446	0	-1e10	1	-1e10	1	-1E+10	1	0.2409	4	0.000906	0	-1E+10	1	-1E+10	1	-1E+10	1
4902624	9	C	09/19/2024	10:40	-128.462	47.446	0	6.60	0	17.2869	0	32.1131	0	23.234	0	6.545	0	-1e10	1	-1e10	1	-1E+10	1	0.2409	4	0.000976	0	-1E+10	1	-1E+10	1	-1E+10	1
4902624	9	C	09/19/2024	10:40	-128.462	47.446	0	6.90	0	17.2866	0	32.1134	0	23.234	0	6.842	0	-1e10	1	-1e10	1	-1E+10	1	0.2336	4	0.001023	0	-1E+10	1	-1E+10	1	-1E+10	1
4902624	9	C	09/19/2024	10:40	-128.462	47.446	0	7.00	0	17.2864	0	32.1136	0	23.234	0	6.941	0	-1e10	1	-1e10	1	-1E+10	1	0.2409	4	0.000929	0	-1E+10	1	-1E+10	1	-1E+10	1
4902624	9	C	09/19/2024	10:40	-128.462	47.446	0	7.20	0	17.2862	0	32.1138	0	23.235	0	7.140	0	226.9	4	93.8	4	-1E+10	1	0.2409	4	0.000871	0	-1E+10	1	-1E+10	1	-1E+10	1
4902624	9	C	09/19/2024	10:40	-128.462	47.446	0	7.40	0	17.2860	0	32.1140	0	23.235	0	7.338	0	-1e10	1	-1e10	1	-1E+10	1	-1e10	1	-1e10	1	-1E+10	1	-1E+10	1	-1E+10	1
4902624	9	C	09/19/2024	10:40	-128.462	47.446	0	7.60	0	17.2864	0	32.1140	0	23.235	0	7.536	0	-1e10	1	-1e10	1	-1E+10	1	0.2409	4	0.000918	0	-1E+10	1	-1E+10	1	-1E+10	1
4902624	9	C	09/19/2024	10:40	-128.462	47.446	0	7.80	0	17.2868	0	32.1140	0	23.235	0	7.735	0	-1e10	1	-1e10	1	-1E+10	1	0.2409	4	0.000953	0	-1E+10	1	-1E+10	1	-1E+10	1
4902624	9	C	09/19/2024	10:40	-128.462	47.446	0	8.00	0	17.2872	0	32.1140	0	23.234	0	7.933	0	-1e10	1	-1e10	1	-1E+10	1	0.2190	4	0.000894	0	-1E+10	1	-1E+10	1	-1E+10	1
4902624	9	C	09/19/2024	10:40	-128.462	47.446	0	8.20	0	17.2876	0	32.1140	0	23.234	0	8.131	0	226.9	4	93.9	4	-1E+10	1	0.2482	4	0.000964	0	-1E+10	1	-1E+10	1	-1E+10	1
4902624	9	C	09/19/2024	10:40	-128.462	47.446	0	8.40	0	17.2880	0	32.1140	0	23.234	0	8.330	0	-1e10	1	-1e10	1	-1E+10	1	0.2409	4	0.000882	0	-1E+10	1	-1E+10	1	-1E+10	1
4902624	9	C	09/19/2024	10:40	-128.462	47.446	0	8.60	0	17.2880	0	32.1140	0	23.234	0	8.528	0	-1e10	1	-1e10	1	-1E+10	1	0.2409	4	0.000906	0	-1E+10	1	-1E+10	1	-1E+10	1
4902624	9	C	09/19/2024	10:40	-128.462	47.446	0	8.80	0	17.2880	0	32.1140	0	23.234	0	8.726	0	-1e10	1	-1e10	1	-1E+10	1	0.2555	4	0.000976	0	-1E+10	1	-1E+10	1	-1E+10	1
4902624	9	C	09/19/2024	10:40	-128.462	47.446	0	9.20	0	17.2880	0	32.1140	0	23.234	0	9.123	0	227.1	4	93.9	4	-1E+10	1	0.2336	4	0.000894	0	-1E+10	1	-1E+10	1	-1E+10	1
4902624	9	C	09/19/2024	10:40	-128.462	47.446	0	9.40	0	17.2880	0	32.1140	0	23.234	0	9.321	0	-1e10	1	-1e10	1	-1E+10	1	0.2555	4	0.000847	0	-1E+10	1	-1E+10	1	-1E+10	1
4902624	9	C	09/19/2024	10:40	-128.462	47.446	0	9.50	0	17.2880	0	32.1140	0	23.234	0	9.421	0	-1e10	1	-1e10	1	-1E+10	1	-1e10	1	-1e10	1	-1E+10	1	-1E+10	1	-1E+10	1
4902624	9	C	09/19/2024	10:40	-128.462	47.446	0	9.60	0	17.2880	0	32.1140	0	23.234	0	9.520	0	-1e10	1	-1e10	1	-1E+10	1	0.2336	4	0.000964	0	-1E+10	1	-1E+10	1	-1E+10	1
4902624	9	C	09/19/2024	10:40	-128.462	47.446	0	10.20	0	17.2880	0	32.1140	0	23.234	0	10.115	0	227.1	4	93.9	4	-1E+10	1	0.2482	4	0.000858	0	-1E+10	1	-1E+10	1	-1E+10	1
4902624	9	C	09/19/2024	10:40	-128.462	47.446	0	11.10	0	17.2880	0	32.1140	0	23.234	0	11.007	0	227.4	4	94.0	4	-1E+10	1	0.2498	4	0.000846	0	-1E+10	1	-1E+10	1	-1E+10	1
4902624	9	C	09/19/2024	10:40	-128.462	47.446	0	12.00	0	17.2875	0	32.1140	0	23.235	0	11.900	0	227.3	4	94.0	4	-1E+10	1	0.2555	4	0.000882	0	-1E+10	1	-1E+10	1	-1E+10	1
4902624	9	C	09/19/2024	10:40	-128.462	47.446	0	12.90	0	17.2871	0	32.1140	0	23.235	0	12.792	0	227.5	4	94.1	4	-1E+10	1	0.2555	4	0.000882	0	-1E+10	1	-1E+10	1	-1E+10	1
4902624	9	C	09/19/2024	10:40	-128.462	47.446	0	13.00	0	17.2870	0	32.1140	0	23.235	0	12.891	0	-1e10	1	-1e10	1	-1E+10	1	-1e10	1	-1e10	1	-1E+10	1	-1E+10	1	-1E+10	1
4902624	9	C	09/19/2024	10:40	-128.462	47.446	0	13.80	0	17.2878	0	32.1140	0	23.235	0	13.684	0	227.6	4	94.1	4	-1E+10	1	0.2621	4	0.000861	0	-1E+10	1	-1E+10	1	-1E+10	1
4902624	9	C	09/19/2024	10:40	-128.462	47.446	0	14.60	0	17.2886	0	32.1140	0	23.234	0	14.478	0	227.9	4	94.3	4	-1E+10	1	0.2628	4	0.000914	0	-1E+10	1	-1E+10	1	-1E+10	1
4902624	9	C	09/19/2024	10:40	-128.462	47.446	0	15.00	0	17.2890	0	32.1140	0	23.234	0	14.874	0	-1e10	1	-1e10	1	-1E+10	1	-1e10	1	-1e10	1	-1E+10	1	-1E+10	1	-1E+10	1
4902624	9	C	09/19/2024	10:40	-128.462	47.446	0	15.50	0	17.2895	0	32.1137	0	23.234	0	15.370	0	228.2	4	94.4	4	-1E+10	1	0.2767	4	0.000899	0	-1E+10	1	-1E+10	1	-1E+10	1
4902624	9	C	09/19/2024	10:40	-128.462	47.446	0	16.40	0	17.2904	0	32.1133	0	23.234	0	16.263	0	228.4	4	94.5	4	-1E+10	1	0.2701	4	0.000882	0	-1E+10	1	-1E+10	1	-1E+10	1
4902624	9	C	09/19/2024	10:40	-128.462	47.446	0	17.00	0	17.2910	0	32.1130	0	23.233	0	16.858	0	-1e10	1	-1e10	1	-1E+10	1	-1e10	1	-1e10	1	-1E+10	1	-1E+10	1	-1E+10	1
4902624	9	C	09/19/2024	10:40	-128.462	47.446	0	17.30	0	17.2911	0	32.1130	0	23.233	0	17.155	0	228.7	4	94.6	4	-1E+10	1	0.2490	4	0.000861	0	-1E+10	1	-1E+10	1	-1E+10	1
4902624	9	C	09/19/2024	10:40	-128.462	47.446	0	18.10	0	17.2915	0	32.1130	0	23.233	0	17.948	0	229.1	4	94.8	4	-1E+10	1	0.2489	4	0.000848	0	-1E+10	1	-1E+10	1	-1E+10	1
4902624	9	C	09/19/2024	10:40	-128.462	47.446	0	19.10	0	17.2920	0	32.1130	0	23.233	0	18.940	0	229.6	4	95.0	4	-1E+10	1	0.2648	4	0.000923	0	-1E+10	1	-1E+10	1	-1E+10	1
4902624	9	C	09/19/2024	10:40	-128.462	47.446	0	19.20	0	17.2920	0	32.1130	0	23.233	0	19.039	0	-1e10	1	-1e10	1	-1E+10	1	-1e10	1	-1e10	1	-1E+10	1	-1E+10	1	-1E+10	1
4902624	9	C	09/19/2024	10:40	-128.462	47.446	0	20.00	0	17.2924	0	32.1134	0	23.233	0	19.832	0	230.2	4	95.2	4	-1E+10	1	0.2409	4	0.001105	0	-1E+10	1	-1E+10	1	-1E+10	1
4902624	9	C	09/19/2024	10:40	-128.462	47.446	0	21.00	0	17.2929	0	32.1139	0	23.234	0	20.824	0	230.9	4	95.5	4	-1E+10	1	0.2555	4	0.000859	0	-1E+10	1	-1E+10	1	-1E+10	1
4902624	9	C	09/19/2024	10:40	-128.462	47.446	0	21.10	0	17.2930	0	32.1140	0	23.234	0	20.923	0	-1e10	1	-1e10	1	-1E+10	1	-1e10	1	-1e10	1	-1E+10	1	-1E+10	1	-1E+10	1
4902624	9	C	09/19/2024	10:40	-128.462	47.446	0	22.00	0	17.2954	0	32.1154	0	23.234	0	21.815	0	231.6	4	95.8	4	-1E+10	1	0.2494	4	0.000908	0	-1E+10	1	-1E+10	1	-1E+10	1
4902624	9	C	09/19/2024	10:40	-128.462	47.446	0	23.00	0	17.2980	0	32.1170	0	23.235	0	22.807	0	232.8	4	96.3	4	-1E+10	1	0.2823	4	0.000910	0	-1E+10	1	-1E+10	1	-1E+10	1
4902624	9	C	09/19/2024	10:40	-128.462	47.446	0	24.00	0	17.3061	0	32.1237	0	23.238	0	23.798	0	233.6	4	96.7	4	-1E+10	1	0.2798	4	0.001015	0	-1E+10	1	-1E+10	1	-1E+10	1
4902624	9	C	09/19/2024	10:40	-128.462	47.446	0	24.80	0	17.3126	0	32.1290	0	23.241	0	24.592	0	234.7	4	97.1	4	-1E+10	1	0.2660	4	0.001018	0	-1E+10	1	-1E+10	1	-1E+10	1
4902624	9	C	09/19/2024	10:40	-128.462	47.446	0	25.10	0	17.3150	0	32.1310	0	23.242	0	24.889	0	-1e10	1	-1e10	1	-1E+10	1	-1e10	1	-1e10	1	-1E+10	1	-1E+10	1	-1E+10	1
4902624	9	C	09/19/2024	10:40	-128.462	47.446	0	25.40	0	17.3237	0	32.1364	0	23.244	0	25.187	0	235.9	4	97.7	4	-1E+10	1	0.2686	4	0.000957	0	-1E+10	1	-1E+10	1	-1E+10	1
4902624	9	C	09/19/2024	10:40	-128.462	47.446	0	25.70	0	17.3324	0	32.1417	0	23.246	0	25.484	0	237.2	4	98.2	4	-1E+10	1	0.2774	4	0.000929	0	-1E+10	1	-1E+10	1	-1E+10	1
4902624	9	C	09/19/2024	10:40	-128.462	47.446	0	26.00	0	17.3411	0	32.1471	0	23.248	0	25.782	0	238.3	4	98.7	4	-1E+10	1	0.2823	4	0.000929	0	-1E+10	1	-1E+10	1	-1E+10	1
4902624	9	C	09/19/2024	10:40	-128.462	47.446	0	26.20	0	17.3468	0	32.1507	0	23.249	0	25.980	0	239.6	4	99.2	4	-1E+10	1	0.2774	4	0.000906	0	-1E+10	1	-1E+10	1	-1E+10	1
4902624	9	C	09/19/2024	10:40	-128.462	47.446	0	26.50	0	17.3555	0	32.1561	0	23.251	0	26.277	0	241.0	4	99.8	4	-1E+10	1	0.3212	4	0.000894	0	-1E+10	1	-1E+10	1	-1E+10	1
4902624	9	C	09/19/2024	10:40	-128.462	47.446	0	26.80	0	17.3642	0	32.1614	0	23.253	0	26.575	0	243.2	4	100.8	4	-1E+10	1	0.3358	4	0.000999	0	-1E+10	1	-1E+10	1	-1E+10	1
4902624	9	C	09/19/2024	10:40	-128.462	47.446	0	27.00	0	17.3700	0	32.1650	0	23.255	0	26.773	0	-1e10	1	-1e10	1	-1E+10	1	-1e10	1	-1e10	1	-1E+10	1	-1E+10	1	-1E+10	1
4902624	9	C	09/19/2024	10:40	-128.462	47.446	0	27.10	0	17.3579	0	32.1702	0	23.262	0	26.872	0	245.1	4	101.5	4	-1E+10	1	0.3869	4	0.000929	0	-1E+10	1	-1E+10	1	-1E+10	1
4902624	9	C	09/19/2024	10:40	-128.462	47.446	0	27.30	0	17.3337	0	32.1806	0	23.275	0	27.070	0	246.3	4	102.0	4	-1E+10	1	0.3979	4	0.000929	0	-1E+10	1	-1E+10	1	-1E+10	1
4902624	9	C	09/19/2024	10:40	-128.462	47.446	0	27.50	0	17.3095	0	32.1911	0	23.289	0	27.269	0	248.5	4	102.9	4	-1E+10	1	0.4088	4	0.000929	0	-1E+10	1	-1E+10	1	-1E+10	1
4902624	9	C	09/19/2024	10:40	-128.462	47.446	0	27.90	0	17.2611	0	32.2119	0	23.316	0	27.665	0	251.2	4	103.9	4	-1E+10	1	0.4563	4	0.001011	0	-1E+10	1	-1E+10	1	-1E+10	1
4902624	9	C	09/19/2024	10:40	-128.462	47.446	0	28.30	0	17.2126	0	32.2327	0	23.344	0	28.062	0	255.1	4	105.4	4	-1E+10	1	0.5490	4	0.001152	0	-1E+10	1	-1E+10	1	-1E+10	1
4902624	9	C	09/19/2024	10:40	-128.462	47.446	0	28.80	0	17.1521	0	32.2588	0	23.378	0	28.558	0	260.2	4	107.5	4	-1E+10	1	0.8322	4	0.001799	0	-1E+10	1	-1E+10	1	-1E+10	1
4902624	9	C	09/19/2024	10:40	-128.462	47.446	0	28.90	0	17.1400	0	32.2640	0	23.385	0	28.657	0	-1e10	1	-1e10	1	-1E+10	1	-1e10	1	-1e10	1	-1E+10	1	-1E+10	1	-1E+10	1
4902624	9	C	09/19/2024	10:40	-128.462	47.446	0	29.40	0	16.8627	0	32.2785	0	23.461	0	29.153	0	264.9	4	108.8	4	-1E+10	1	1.0841	4	0.001533	0	-1E+10	1	-1E+10	1	-1E+10	1
4902624	9	C	09/19/2024	10:40	-128.462	47.446	0	29.90	0	16.5855	0	32.2931	0	23.536	0	29.648	0	268.6	4	109.7	4	-1E+10	1	1.2483	4	0.001621	0	-1E+10	1	-1E+10	1	-1E+10	1
4902624	9	C	09/19/2024	10:40	-128.462	47.446	0	30.50	0	16.2527	0	32.3105	0	23.625	0	30.243	0	271.9	4	110.4	4	-1E+10	1	1.5737	4	0.003059	0	-1E+10	1	-1E+10	1	-1E+10	1
4902624	9	C	09/19/2024	10:40	-128.462	47.446	0	31.10	0	15.9200	0	32.3280	0	23.713	0	30.838	0	-1e10	1	-1e10	1	-1E+10	1	-1e10	1	-1e10	1	-1E+10	1	-1E+10	1	-1E+10	1
4902624	9	C	09/19/2024	10:40	-128.462	47.446	0	31.20	0	15.8464	0	32.3301	0	23.731	0	30.937	0	276.7	4	111.5	4	-1E+10	1	1.5458	4	0.003396	0	-1E+10	1	-1E+10	1	-1E+10	1
4902624	9	C	09/19/2024	10:40	-128.462	47.446	0	32.10	0	15.1837	0	32.3485	0	23.891	0	31.830	0	281.2	4	111.8	4	-1E+10	1	2.0294	4	0.003195	0	-1E+10	1	-1E+10	1	-1E+10	1
4902624	9	C	09/19/2024	10:40	-128.462	47.446	0	33.00	0	14.5210	0	32.3670	0	24.046	0	32.722	0	-1e10	1	-1e10	1	-1E+10	1	-1e10	1	-1e10	1	-1E+10	1	-1E+10	1	-1E+10	1
4902624	9	C	09/19/2024	10:40	-128.462	47.446	0	33.10	0	14.4903	0	32.3664	0	24.052	0	32.821	0	282.0	4	110.6	4	-1E+10	1	2.7351	4	0.002931	0	-1E+10	1	-1E+10	1	-1E+10	1
4902624	9	C	09/19/2024	10:40	-128.462	47.446	0	34.20	0	14.1532	0	32.3598	0	24.118	0	33.912	0	281.4	4	109.7	4	-1E+10	1	3.3376	4	0.002611	0	-1E+10	1	-1E+10	1	-1E+10	1
4902624	9	C	09/19/2024	10:40	-128.462	47.446	0	35.00	0	13.9080	0	32.3550	0	24.164	0	34.705	0	-1e10	1	-1e10	1	-1E+10	1	-1e10	1	-1e10	1	-1E+10	1	-1E+10	1	-1E+10	1
4902624	9	C	09/19/2024	10:40	-128.462	47.446	0	35.20	0	13.8819	0	32.3555	0	24.170	0	34.903	0	280.5	4	108.7	4	-1E+10	1	3.5259	4	0.002376	0	-1E+10	1	-1E+10	1	-1E+10	1
4902624	9	C	09/19/2024	10:40	-128.462	47.446	0	36.20	0	13.7514	0	32.3582	0	24.199	0	35.895	0	279.3	4	108.0	4	-1E+10	1	3.4760	4	0.002447	0	-1E+10	1	-1E+10	1	-1E+10	1
4902624	9	C	09/19/2024	10:40	-128.462	47.446	0	36.90	0	13.6600	0	32.3600	0	24.219	0	36.589	0	-1e10	1	-1e10	1	-1E+10	1	-1e10	1	-1e10	1	-1E+10	1	-1E+10	1	-1E+10	1
4902624	9	C	09/19/2024	10:40	-128.462	47.446	0	37.30	0	13.5693	0	32.3602	0	24.237	0	36.986	0	278.8	4	107.4	4	-1E+10	1	2.9273	4	0.002243	0	-1E+10	1	-1E+10	1	-1E+10	1
4902624	9	C	09/19/2024	10:40	-128.462	47.446	0	38.50	0	13.2971	0	32.3607	0	24.292	0	38.175	0	277.5	4	106.3	4	-1E+10	1	2.7959	4	0.001844	0	-1E+10	1	-1E+10	1	-1E+10	1
4902624	9	C	09/19/2024	10:40	-128.462	47.446	0	39.10	0	13.1610	0	32.3610	0	24.319	0	38.770	0	-1e10	1	-1e10	1	-1E+10	1	-1e10	1	-1e10	1	-1E+10	1	-1E+10	1	-1E+10	1
4902624	9	C	09/19/2024	10:40	-128.462	47.446	0	39.70	0	13.0635	0	32.3556	0	24.334	0	39.365	0	276.6	4	105.4	4	-1E+10	1	2.6864	4	0.001832	0	-1E+10	1	-1E+10	1	-1E+10	1
4902624	9	C	09/19/2024	10:40	-128.462	47.446	0	40.50	0	12.9335	0	32.3484	0	24.354	0	40.158	0	275.4	4	104.7	4	-1E+10	1	2.7501	4	0.001773	0	-1E+10	1	-1E+10	1	-1E+10	1
4902624	9	C	09/19/2024	10:40	-128.462	47.446	0	41.10	0	12.8360	0	32.3430	0	24.369	0	40.753	0	-1e10	1	-1e10	1	-1E+10	1	-1e10	1	-1e10	1	-1E+10	1	-1E+10	1	-1E+10	1
4902624	9	C	09/19/2024	10:40	-128.462	47.446	0	41.20	0	12.8275	0	32.3432	0	24.371	0	40.852	0	273.8	4	103.9	4	-1E+10	1	2.7657	4	0.002367	0	-1E+10	1	-1E+10	1	-1E+10	1
4902624	9	C	09/19/2024	10:40	-128.462	47.446	0	42.00	0	12.7595	0	32.3450	0	24.385	0	41.645	0	272.3	4	103.1	4	-1E+10	1	2.8202	4	0.002347	0	-1E+10	1	-1E+10	1	-1E+10	1
4902624	9	C	09/19/2024	10:40	-128.462	47.446	0	42.70	0	12.7000	0	32.3466	0	24.398	0	42.339	0	270.8	4	102.4	4	-1E+10	1	2.7326	4	0.001813	0	-1E+10	1	-1E+10	1	-1E+10	1
4902624	9	C	09/19/2024	10:40	-128.462	47.446	0	42.90	0	12.6830	0	32.3470	0	24.402	0	42.538	0	-1e10	1	-1e10	1	-1E+10	1	-1e10	1	-1e10	1	-1E+10	1	-1E+10	1	-1E+10	1
4902624	9	C	09/19/2024	10:40	-128.462	47.446	0	43.50	0	12.5704	0	32.3501	0	24.426	0	43.133	0	269.4	4	101.6	4	-1E+10	1	2.4564	4	0.001507	0	-1E+10	1	-1E+10	1	-1E+10	1
4902624	9	C	09/19/2024	10:40	-128.462	47.446	0	44.30	0	12.4203	0	32.3543	0	24.458	0	43.926	0	268.7	4	101.0	4	-1E+10	1	2.4017	4	0.001458	0	-1E+10	1	-1E+10	1	-1E+10	1
4902624	9	C	09/19/2024	10:40	-128.462	47.446	0	45.00	0	12.2890	0	32.3580	0	24.485	0	44.620	0	265.9	4	99.7	4	-1E+10	1	2.2484	4	0.001382	0	-1E+10	1	-1E+10	1	-1E+10	1
4902624	9	C	09/19/2024	10:40	-128.462	47.446	0	45.90	0	12.1137	0	32.3589	0	24.519	0	45.512	0	268.3	4	100.3	4	-1E+10	1	2.2812	4	0.001270	0	-1E+10	1	-1E+10	1	-1E+10	1
4902624	9	C	09/19/2024	10:40	-128.462	47.446	0	46.60	0	11.9774	0	32.3595	0	24.545	0	46.206	0	268.2	4	99.9	4	-1E+10	1	2.2959	4	0.001345	0	-1E+10	1	-1E+10	1	-1E+10	1
4902624	9	C	09/19/2024	10:40	-128.462	47.446	0	47.10	0	11.8800	0	32.3600	0	24.563	0	46.702	0	-1e10	1	-1e10	1	-1E+10	1	-1e10	1	-1e10	1	-1E+10	1	-1E+10	1	-1E+10	1
4902624	9	C	09/19/2024	10:40	-128.462	47.446	0	47.40	0	11.8698	0	32.3596	0	24.565	0	46.999	0	268.0	4	99.6	4	-1E+10	1	2.2752	4	0.001210	0	-1E+10	1	-1E+10	1	-1E+10	1
4902624	9	C	09/19/2024	10:40	-128.462	47.446	0	48.10	0	11.8460	0	32.3585	0	24.568	0	47.693	0	267.4	4	99.4	4	-1E+10	1	2.2825	4	0.001326	0	-1E+10	1	-1E+10	1	-1E+10	1
4902624	9	C	09/19/2024	10:40	-128.462	47.446	0	48.90	0	11.8188	0	32.3573	0	24.572	0	48.486	0	266.9	4	99.1	4	-1E+10	1	2.2630	4	0.001499	0	-1E+10	1	-1E+10	1	-1E+10	1
4902624	9	C	09/19/2024	10:40	-128.462	47.446	0	49.10	0	11.8120	0	32.3570	0	24.573	0	48.685	0	-1e10	1	-1e10	1	-1E+10	1	-1e10	1	-1e10	1	-1E+10	1	-1E+10	1	-1E+10	1
4902624	9	C	09/19/2024	10:40	-128.462	47.446	0	49.60	0	11.7981	0	32.3567	0	24.576	0	49.180	0	266.2	4	98.8	4	-1E+10	1	2.2243	4	0.001374	0	-1E+10	1	-1E+10	1	-1E+10	1
4902624	9	C	09/19/2024	10:40	-128.462	47.446	0	50.40	0	11.7759	0	32.3563	0	24.580	0	49.974	0	265.6	4	98.5	4	-1E+10	1	2.2460	4	0.001298	0	-1E+10	1	-1E+10	1	-1E+10	1
4902624	9	C	09/19/2024	10:40	-128.462	47.446	0	50.90	0	11.7620	0	32.3560	0	24.582	0	50.469	0	-1e10	1	-1e10	1	-1E+10	1	-1e10	1	-1e10	1	-1E+10	1	-1E+10	1	-1E+10	1
4902624	9	C	09/19/2024	10:40	-128.462	47.446	0	51.20	0	11.7034	0	32.3570	0	24.593	0	50.767	0	264.8	4	98.1	4	-1E+10	1	2.0513	4	0.001152	0	-1E+10	1	-1E+10	1	-1E+10	1
4902624	9	C	09/19/2024	10:40	-128.462	47.446	0	52.10	0	11.5277	0	32.3600	0	24.628	0	51.659	0	264.8	4	97.8	4	-1E+10	1	1.9053	4	0.001199	0	-1E+10	1	-1E+10	1	-1E+10	1
4902624	9	C	09/19/2024	10:40	-128.462	47.446	0	52.90	0	11.3715	0	32.3627	0	24.658	0	52.452	0	264.9	4	97.5	4	-1E+10	1	1.7755	4	0.001090	0	-1E+10	1	-1E+10	1	-1E+10	1
4902624	9	C	09/19/2024	10:40	-128.462	47.446	0	53.00	0	11.3520	0	32.3630	0	24.662	0	52.551	0	-1e10	1	-1e10	1	-1E+10	1	-1e10	1	-1e10	1	-1E+10	1	-1E+10	1	-1E+10	1
4902624	9	C	09/19/2024	10:40	-128.462	47.446	0	53.70	0	11.2057	0	32.3641	0	24.689	0	53.245	0	264.6	4	97.0	4	-1E+10	1	1.6912	4	0.001108	0	-1E+10	1	-1E+10	1	-1E+10	1
4902624	9	C	09/19/2024	10:40	-128.462	47.446	0	54.50	0	11.0386	0	32.3654	0	24.719	0	54.038	0	264.9	4	96.8	4	-1E+10	1	1.5950	4	0.001037	0	-1E+10	1	-1E+10	1	-1E+10	1
4902624	9	C	09/19/2024	10:40	-128.462	47.446	0	54.90	0	10.9550	0	32.3660	0	24.735	0	54.435	0	-1e10	1	-1e10	1	-1E+10	1	-1e10	1	-1e10	1	-1E+10	1	-1E+10	1	-1E+10	1
4902624	9	C	09/19/2024	10:40	-128.462	47.446	0	55.40	0	10.9162	0	32.3708	0	24.745	0	54.931	0	264.9	4	96.5	4	-1E+10	1	1.5899	4	0.000986	0	-1E+10	1	-1E+10	1	-1E+10	1
4902624	9	C	09/19/2024	10:40	-128.462	47.446	0	56.20	0	10.8541	0	32.3784	0	24.762	0	55.724	0	264.4	4	96.2	4	-1E+10	1	1.5330	4	0.000976	0	-1E+10	1	-1E+10	1	-1E+10	1
4902624	9	C	09/19/2024	10:40	-128.462	47.446	0	57.00	0	10.7920	0	32.3860	0	24.779	0	56.517	0	-1e10	1	-1e10	1	-1E+10	1	-1e10	1	-1e10	1	-1E+10	1	-1E+10	1	-1E+10	1
4902624	9	C	09/19/2024	10:40	-128.462	47.446	0	57.10	0	10.7832	0	32.3867	0	24.781	0	56.616	0	263.8	4	95.9	4	-1E+10	1	1.4381	4	0.000955	0	-1E+10	1	-1E+10	1	-1E+10	1
4902624	9	C	09/19/2024	10:40	-128.462	47.446	0	58.00	0	10.7039	0	32.3927	0	24.799	0	57.508	0	263.2	4	95.5	4	-1E+10	1	1.3636	4	0.000962	0	-1E+10	1	-1E+10	1	-1E+10	1
4902624	9	C	09/19/2024	10:40	-128.462	47.446	0	58.80	0	10.6334	0	32.3980	0	24.815	0	58.301	0	262.7	4	95.2	4	-1E+10	1	1.2815	4	0.000977	0	-1E+10	1	-1E+10	1	-1E+10	1
4902624	9	C	09/19/2024	10:40	-128.462	47.446	0	59.10	0	10.6070	0	32.4000	0	24.821	0	58.599	0	-1e10	1	-1e10	1	-1E+10	1	-1e10	1	-1e10	1	-1E+10	1	-1E+10	1	-1E+10	1
4902624	9	C	09/19/2024	10:40	-128.462	47.446	0	59.70	0	10.5380	0	32.4006	0	24.834	0	59.193	0	262.2	4	94.8	4	-1E+10	1	1.1680	4	0.000823	0	-1E+10	1	-1E+10	1	-1E+10	1
4902624	9	C	09/19/2024	10:40	-128.462	47.446	0	60.70	0	10.4230	0	32.4016	0	24.854	0	60.185	0	261.7	4	94.4	4	-1E+10	1	1.0877	4	0.000835	0	-1E+10	1	-1E+10	1	-1E+10	1
4902624	9	C	09/19/2024	10:40	-128.462	47.446	0	61.10	0	10.3770	0	32.4020	0	24.862	0	60.581	0	-1e10	1	-1e10	1	-1E+10	1	-1e10	1	-1e10	1	-1E+10	1	-1E+10	1	-1E+10	1
4902624	9	C	09/19/2024	10:40	-128.462	47.446	0	61.60	0	10.3259	0	32.4020	0	24.871	0	61.077	0	261.3	4	94.0	4	-1E+10	1	1.0101	4	0.000787	0	-1E+10	1	-1E+10	1	-1E+10	1
4902624	9	C	09/19/2024	10:40	-128.462	47.446	0	62.50	0	10.2341	0	32.4020	0	24.886	0	61.969	0	260.7	4	93.7	4	-1E+10	1	0.9417	4	0.000799	0	-1E+10	1	-1E+10	1	-1E+10	1
4902624	9	C	09/19/2024	10:40	-128.462	47.446	0	63.00	0	10.1830	0	32.4020	0	24.895	0	62.465	0	-1e10	1	-1e10	1	-1E+10	1	-1e10	1	-1e10	1	-1E+10	1	-1E+10	1	-1E+10	1
4902624	9	C	09/19/2024	10:40	-128.462	47.446	0	63.50	0	10.1493	0	32.4035	0	24.902	0	62.961	0	259.9	4	93.2	4	-1E+10	1	0.8818	4	0.000811	0	-1E+10	1	-1E+10	1	-1E+10	1
4902624	9	C	09/19/2024	10:40	-128.462	47.446	0	64.40	0	10.0885	0	32.4062	0	24.914	0	63.853	0	259.3	4	92.9	4	-1E+10	1	0.8315	4	0.000755	0	-1E+10	1	-1E+10	1	-1E+10	1
4902624	9	C	09/19/2024	10:40	-128.462	47.446	0	65.00	0	10.0480	0	32.4080	0	24.922	0	64.448	0	-1e10	1	-1e10	1	-1E+10	1	-1e10	1	-1e10	1	-1E+10	1	-1E+10	1	-1E+10	1
4902624	9	C	09/19/2024	10:40	-128.462	47.446	0	65.40	0	10.0138	0	32.4086	0	24.928	0	64.844	0	258.7	4	92.5	4	-1E+10	1	0.7714	4	0.000686	0	-1E+10	1	-1E+10	1	-1E+10	1
4902624	9	C	09/19/2024	10:40	-128.462	47.446	0	66.40	0	9.9283	0	32.4101	0	24.944	0	65.836	0	258.4	4	92.2	4	-1E+10	1	0.7113	4	0.000677	0	-1E+10	1	-1E+10	1	-1E+10	1
4902624	9	C	09/19/2024	10:40	-128.462	47.446	0	67.00	0	9.8770	0	32.4110	0	24.953	0	66.430	0	-1e10	1	-1e10	1	-1E+10	1	-1e10	1	-1e10	1	-1E+10	1	-1E+10	1	-1E+10	1
4902624	9	C	09/19/2024	10:40	-128.462	47.446	0	67.30	0	9.8586	0	32.4120	0	24.957	0	66.728	0	258.0	4	91.9	4	-1E+10	1	0.6615	4	0.000663	0	-1E+10	1	-1E+10	1	-1E+10	1
4902624	9	C	09/19/2024	10:40	-128.462	47.446	0	68.40	0	9.7909	0	32.4159	0	24.971	0	67.818	0	257.6	4	91.6	4	-1E+10	1	0.6059	4	0.000682	0	-1E+10	1	-1E+10	1	-1E+10	1
4902624	9	C	09/19/2024	10:40	-128.462	47.446	0	69.00	0	9.7540	0	32.4180	0	24.978	0	68.413	0	-1e10	1	-1e10	1	-1E+10	1	-1e10	1	-1e10	1	-1E+10	1	-1E+10	1	-1E+10	1
4902624	9	C	09/19/2024	10:40	-128.462	47.446	0	69.30	0	9.7393	0	32.4184	0	24.981	0	68.710	0	257.2	4	91.4	4	-1E+10	1	0.5731	4	0.000682	0	-1E+10	1	-1E+10	1	-1E+10	1
4902624	9	C	09/19/2024	10:40	-128.462	47.446	0	70.40	0	9.6854	0	32.4201	0	24.991	0	69.801	0	256.6	4	91.1	4	-1E+10	1	0.5446	4	0.000664	0	-1E+10	1	-1E+10	1	-1E+10	1
4902624	9	C	09/19/2024	10:40	-128.462	47.446	0	71.00	0	9.6560	0	32.4210	0	24.997	0	70.396	0	-1e10	1	-1e10	1	-1E+10	1	-1e10	1	-1e10	1	-1E+10	1	-1E+10	1	-1E+10	1
4902624	9	C	09/19/2024	10:40	-128.462	47.446	0	71.40	0	9.6318	0	32.4227	0	25.002	0	70.792	0	256.1	4	90.8	4	-1E+10	1	0.5013	4	0.000612	0	-1E+10	1	-1E+10	1	-1E+10	1
4902624	9	C	09/19/2024	10:40	-128.462	47.446	0	72.50	0	9.5652	0	32.4273	0	25.016	0	71.883	0	255.6	4	90.5	4	-1E+10	1	0.4621	4	0.000626	0	-1E+10	1	-1E+10	1	-1E+10	1
4902624	9	C	09/19/2024	10:40	-128.462	47.446	0	72.90	0	9.5410	0	32.4290	0	25.022	0	72.279	0	-1e10	1	-1e10	1	-1E+10	1	-1e10	1	-1e10	1	-1E+10	1	-1E+10	1	-1E+10	1
4902624	9	C	09/19/2024	10:40	-128.462	47.446	0	73.60	0	9.5078	0	32.4304	0	25.028	0	72.973	0	255.2	4	90.3	4	-1E+10	1	0.4353	4	0.000600	0	-1E+10	1	-1E+10	1	-1E+10	1
4902624	9	C	09/19/2024	10:40	-128.462	47.446	0	74.70	0	9.4555	0	32.4326	0	25.038	0	74.064	0	254.5	4	89.9	4	-1E+10	1	0.4156	4	0.000547	0	-1E+10	1	-1E+10	1	-1E+10	1
4902624	9	C	09/19/2024	10:40	-128.462	47.446	0	74.90	0	9.4460	0	32.4330	0	25.040	0	74.262	0	-1e10	1	-1e10	1	-1E+10	1	-1e10	1	-1e10	1	-1E+10	1	-1E+10	1	-1E+10	1
4902624	9	C	09/19/2024	10:40	-128.462	47.446	0	75.90	0	9.4303	0	32.4354	0	25.044	0	75.253	0	254.1	4	89.7	4	-1E+10	1	0.3999	4	0.000578	0	-1E+10	1	-1E+10	1	-1E+10	1
4902624	9	C	09/19/2024	10:40	-128.462	47.446	0	77.00	0	9.4130	0	32.4380	0	25.049	0	76.343	0	249.6	4	88.1	4	-1E+10	1	0.3942	4	0.000581	0	-1E+10	1	-1E+10	1	-1E+10	1
4902624	9	C	09/19/2024	10:40	-128.462	47.446	0	78.20	0	9.3878	0	32.4416	0	25.056	0	77.533	0	252.6	4	89.1	4	-1E+10	1	0.3577	4	0.000553	0	-1E+10	1	-1E+10	1	-1E+10	1
4902624	9	C	09/19/2024	10:40	-128.462	47.446	0	79.00	0	9.3710	0	32.4440	0	25.061	0	78.326	0	-1e10	1	-1e10	1	-1E+10	1	-1e10	1	-1e10	1	-1E+10	1	-1E+10	1	-1E+10	1
4902624	9	C	09/19/2024	10:40	-128.462	47.446	0	79.30	0	9.3670	0	32.4448	0	25.062	0	78.623	0	251.9	4	88.8	4	-1E+10	1	0.3453	4	0.000533	0	-1E+10	1	-1E+10	1	-1E+10	1
4902624	9	C	09/19/2024	10:40	-128.462	47.446	0	80.40	0	9.3521	0	32.4475	0	25.066	0	79.714	0	251.2	4	88.6	4	-1E+10	1	0.3478	4	0.000492	0	-1E+10	1	-1E+10	1	-1E+10	1
4902624	9	C	09/19/2024	10:40	-128.462	47.446	0	81.00	0	9.3440	0	32.4490	0	25.069	0	80.309	0	-1e10	1	-1e10	1	-1E+10	1	-1e10	1	-1e10	1	-1E+10	1	-1E+10	1	-1E+10	1
4902624	9	C	09/19/2024	10:40	-128.462	47.446	0	81.50	0	9.3345	0	32.4506	0	25.072	0	80.804	0	250.5	4	88.3	4	-1E+10	1	0.3385	4	0.000484	0	-1E+10	1	-1E+10	1	-1E+10	1
4902624	9	C	09/19/2024	10:40	-128.462	47.446	0	82.70	0	9.3118	0	32.4544	0	25.078	0	81.994	0	249.9	4	88.0	4	-1E+10	1	0.3139	4	0.000465	0	-1E+10	1	-1E+10	1	-1E+10	1
4902624	9	C	09/19/2024	10:40	-128.462	47.446	0	82.90	0	9.3080	0	32.4550	0	25.079	0	82.192	0	-1e10	1	-1e10	1	-1E+10	1	-1e10	1	-1e10	1	-1E+10	1	-1E+10	1	-1E+10	1
4902624	9	C	09/19/2024	10:40	-128.462	47.446	0	83.90	0	9.2823	0	32.4617	0	25.089	0	83.183	0	249.1	4	87.7	4	-1E+10	1	0.2889	4	0.000436	0	-1E+10	1	-1E+10	1	-1E+10	1
4902624	9	C	09/19/2024	10:40	-128.462	47.446	0	85.00	0	9.2540	0	32.4690	0	25.099	0	84.274	0	244.5	4	86.0	4	-1E+10	1	0.2714	4	0.000442	0	-1E+10	1	-1E+10	1	-1E+10	1
4902624	9	C	09/19/2024	10:40	-128.462	47.446	0	86.20	0	9.2323	0	32.4684	0	25.102	0	85.463	0	247.5	4	87.0	4	-1E+10	1	0.2727	4	0.000466	0	-1E+10	1	-1E+10	1	-1E+10	1
4902624	9	C	09/19/2024	10:40	-128.462	47.446	0	87.10	0	9.2160	0	32.4680	0	25.104	0	86.355	0	-1e10	1	-1e10	1	-1E+10	1	-1e10	1	-1e10	1	-1E+10	1	-1E+10	1	-1E+10	1
4902624	9	C	09/19/2024	10:40	-128.462	47.446	0	87.30	0	9.2154	0	32.4689	0	25.105	0	86.554	0	246.5	4	86.6	4	-1E+10	1	0.2555	4	0.000448	0	-1E+10	1	-1E+10	1	-1E+10	1
4902624	9	C	09/19/2024	10:40	-128.462	47.446	0	88.40	0	9.2119	0	32.4742	0	25.109	0	87.644	0	245.4	4	86.3	4	-1E+10	1	0.2555	4	0.000428	0	-1E+10	1	-1E+10	1	-1E+10	1
4902624	9	C	09/19/2024	10:40	-128.462	47.446	0	89.00	0	9.2100	0	32.4770	0	25.112	0	88.239	0	-1e10	1	-1e10	1	-1E+10	1	-1e10	1	-1e10	1	-1E+10	1	-1E+10	1	-1E+10	1
4902624	9	C	09/19/2024	10:40	-128.462	47.446	0	89.60	0	9.1857	0	32.4783	0	25.117	0	88.833	0	244.3	4	85.8	4	-1E+10	1	0.2555	4	0.000424	0	-1E+10	1	-1E+10	1	-1E+10	1
4902624	9	C	09/19/2024	10:40	-128.462	47.446	0	90.70	0	9.1411	0	32.4806	0	25.126	0	89.924	0	243.0	4	85.3	4	-1E+10	1	0.2151	4	0.000432	0	-1E+10	1	-1E+10	1	-1E+10	1
4902624	9	C	09/19/2024	10:40	-128.462	47.446	0	90.90	0	9.1330	0	32.4810	0	25.127	0	90.122	0	-1e10	1	-1e10	1	-1E+10	1	-1e10	1	-1e10	1	-1E+10	1	-1E+10	1	-1E+10	1
4902624	9	C	09/19/2024	10:40	-128.462	47.446	0	91.80	0	9.1087	0	32.4931	0	25.141	0	91.014	0	241.8	4	84.8	4	-1E+10	1	0.1971	4	0.000424	0	-1E+10	1	-1E+10	1	-1E+10	1
4902624	9	C	09/19/2024	10:40	-128.462	47.446	0	92.90	0	9.0790	0	32.5080	0	25.157	0	92.104	0	237.0	4	83.1	4	-1E+10	1	0.1891	4	0.000404	0	-1E+10	1	-1E+10	1	-1E+10	1
4902624	9	C	09/19/2024	10:40	-128.462	47.446	0	94.10	0	9.0352	0	32.5188	0	25.172	0	93.294	0	239.5	4	83.9	4	-1E+10	1	0.1668	4	0.000377	0	-1E+10	1	-1E+10	1	-1E+10	1
4902624	9	C	09/19/2024	10:40	-128.462	47.446	0	94.90	0	9.0060	0	32.5260	0	25.182	0	94.087	0	-1e10	1	-1e10	1	-1E+10	1	-1e10	1	-1e10	1	-1E+10	1	-1E+10	1	-1E+10	1
4902624	9	C	09/19/2024	10:40	-128.462	47.446	0	95.10	0	9.0010	0	32.5273	0	25.184	0	94.285	0	238.2	4	83.4	4	-1E+10	1	0.1589	4	0.000364	0	-1E+10	1	-1E+10	1	-1E+10	1
4902624	9	C	09/19/2024	10:40	-128.462	47.446	0	96.20	0	8.9732	0	32.5347	0	25.194	0	95.375	0	236.7	4	82.8	4	-1E+10	1	0.1898	4	0.000401	0	-1E+10	1	-1E+10	1	-1E+10	1
4902624	9	C	09/19/2024	10:40	-128.462	47.446	0	97.00	0	8.9530	0	32.5400	0	25.201	0	96.168	0	-1e10	1	-1e10	1	-1E+10	1	-1e10	1	-1e10	1	-1E+10	1	-1E+10	1	-1E+10	1
4902624	9	C	09/19/2024	10:40	-128.462	47.446	0	97.20	0	8.9462	0	32.5412	0	25.203	0	96.367	0	235.3	4	82.3	4	-1E+10	1	0.1679	4	0.000365	0	-1E+10	1	-1E+10	1	-1E+10	1
4902624	9	C	09/19/2024	10:40	-128.462	47.446	0	98.10	0	8.9156	0	32.5466	0	25.212	0	97.259	0	233.6	4	81.6	4	-1E+10	1	0.1606	4	0.000448	0	-1E+10	1	-1E+10	1	-1E+10	1
4902624	9	C	09/19/2024	10:40	-128.462	47.446	0	98.60	0	8.8986	0	32.5496	0	25.217	0	97.754	0	232.7	4	81.3	4	-1E+10	1	0.1606	4	0.000489	0	-1E+10	1	-1E+10	1	-1E+10	1
4902624	9	C	09/19/2024	10:40	-128.462	47.446	0	99.00	0	8.8850	0	32.5520	0	25.221	0	98.151	0	-1e10	1	-1e10	1	-1E+10	1	-1e10	1	-1e10	1	-1E+10	1	-1E+10	1	-1E+10	1
4902624	9	C	09/19/2024	10:40	-128.462	47.446	0	99.10	0	8.8801	0	32.5540	0	25.224	0	98.250	0	231.2	4	80.7	4	-1E+10	1	0.1562	4	0.000415	0	-1E+10	1	-1E+10	1	-1E+10	1
4902624	9	C	09/19/2024	10:40	-128.462	47.446	0	99.60	0	8.8556	0	32.5640	0	25.235	0	98.745	0	229.7	4	80.2	4	-1E+10	1	0.1643	4	0.000354	0	-1E+10	1	-1E+10	1	-1E+10	1
4902624	9	C	09/19/2024	10:40	-128.462	47.446	0	100.20	0	8.8261	0	32.5760	0	25.249	0	99.340	0	228.3	4	79.6	4	-1E+10	1	0.1643	4	0.000365	0	-1E+10	1	-1E+10	1	-1E+10	1
4902624	9	C	09/19/2024	10:40	-128.462	47.446	0	100.70	0	8.8016	0	32.5860	0	25.261	0	99.836	0	226.7	4	79.0	4	-1E+10	1	0.1509	4	0.000370	0	-1E+10	1	-1E+10	1	-1E+10	1
4902624	9	C	09/19/2024	10:40	-128.462	47.446	0	101.10	0	8.7820	0	32.5940	0	25.270	0	100.232	0	-1e10	1	-1e10	1	-1E+10	1	-1e10	1	-1e10	1	-1E+10	1	-1E+10	1	-1E+10	1
4902624	9	C	09/19/2024	10:40	-128.462	47.446	0	101.30	0	8.7760	0	32.5979	0	25.274	0	100.430	0	225.1	4	78.5	4	-1E+10	1	0.1543	4	0.001013	0	-1E+10	1	-1E+10	1	-1E+10	1
4902624	9	C	09/19/2024	10:40	-128.462	47.446	0	101.80	0	8.7610	0	32.6077	0	25.284	0	100.926	0	223.6	4	77.9	4	-1E+10	1	0.1752	4	0.002653	0	-1E+10	1	-1E+10	1	-1E+10	1
4902624	9	C	09/19/2024	10:40	-128.462	47.446	0	102.40	0	8.7430	0	32.6194	0	25.296	0	101.521	0	222.2	4	77.4	4	-1E+10	1	0.1533	4	0.000365	0	-1E+10	1	-1E+10	1	-1E+10	1
4902624	9	C	09/19/2024	10:40	-128.462	47.446	0	103.00	0	8.7250	0	32.6311	0	25.308	0	102.115	0	220.5	4	76.8	4	-1E+10	1	0.1460	4	0.000330	0	-1E+10	1	-1E+10	1	-1E+10	1
4902624	9	C	09/19/2024	10:40	-128.462	47.446	0	103.10	0	8.7220	0	32.6330	0	25.310	0	102.215	0	-1e10	1	-1e10	1	-1E+10	1	-1e10	1	-1e10	1	-1E+10	1	-1E+10	1	-1E+10	1
4902624	9	C	09/19/2024	10:40	-128.462	47.446	0	103.60	0	8.7009	0	32.6452	0	25.323	0	102.710	0	218.7	4	76.1	4	-1E+10	1	0.1585	4	0.000310	0	-1E+10	1	-1E+10	1	-1E+10	1
4902624	9	C	09/19/2024	10:40	-128.462	47.446	0	104.20	0	8.6756	0	32.6599	0	25.338	0	103.305	0	217.1	4	75.5	4	-1E+10	1	0.1424	4	0.000431	0	-1E+10	1	-1E+10	1	-1E+10	1
4902624	9	C	09/19/2024	10:40	-128.462	47.446	0	104.90	0	8.6460	0	32.6770	0	25.356	0	103.999	0	211.6	4	73.6	4	-1E+10	1	0.1397	4	0.000406	0	-1E+10	1	-1E+10	1	-1E+10	1
4902624	9	C	09/19/2024	10:40	-128.462	47.446	0	105.60	0	8.6054	0	32.7019	0	25.382	0	104.692	0	213.7	4	74.2	4	-1E+10	1	0.1423	4	0.000348	0	-1E+10	1	-1E+10	1	-1E+10	1
4902624	9	C	09/19/2024	10:40	-128.462	47.446	0	106.30	0	8.5648	0	32.7267	0	25.407	0	105.386	0	212.6	4	73.8	4	-1E+10	1	0.1411	4	0.000350	0	-1E+10	1	-1E+10	1	-1E+10	1
4902624	9	C	09/19/2024	10:40	-128.462	47.446	0	106.90	0	8.5300	0	32.7480	0	25.429	0	105.981	0	-1e10	1	-1e10	1	-1E+10	1	-1e10	1	-1e10	1	-1E+10	1	-1E+10	1	-1E+10	1
4902624	9	C	09/19/2024	10:40	-128.462	47.446	0	107.10	0	8.5239	0	32.7517	0	25.433	0	106.179	0	211.2	4	73.3	4	-1E+10	1	0.1497	4	0.000311	0	-1E+10	1	-1E+10	1	-1E+10	1
4902624	9	C	09/19/2024	10:40	-128.462	47.446	0	107.80	0	8.5026	0	32.7647	0	25.446	0	106.873	0	209.8	4	72.8	4	-1E+10	1	0.1613	4	0.000289	0	-1E+10	1	-1E+10	1	-1E+10	1
4902624	9	C	09/19/2024	10:40	-128.462	47.446	0	108.70	0	8.4751	0	32.7814	0	25.464	0	107.765	0	208.2	4	72.2	4	-1E+10	1	0.1679	4	0.000342	0	-1E+10	1	-1E+10	1	-1E+10	1
4902624	9	C	09/19/2024	10:40	-128.462	47.446	0	109.00	0	8.4660	0	32.7870	0	25.469	0	108.062	0	-1e10	1	-1e10	1	-1E+10	1	-1e10	1	-1e10	1	-1E+10	1	-1E+10	1	-1E+10	1
4902624	9	C	09/19/2024	10:40	-128.462	47.446	0	109.50	0	8.4485	0	32.7987	0	25.481	0	108.558	0	206.8	4	71.7	4	-1E+10	1	0.1737	4	0.000323	0	-1E+10	1	-1E+10	1	-1E+10	1
4902624	9	C	09/19/2024	10:40	-128.462	47.446	0	110.40	0	8.4170	0	32.8199	0	25.502	0	109.450	0	205.3	4	71.1	4	-1E+10	1	0.1695	4	0.000291	0	-1E+10	1	-1E+10	1	-1E+10	1
4902624	9	C	09/19/2024	10:40	-128.462	47.446	0	111.00	0	8.3960	0	32.8340	0	25.517	0	110.045	0	-1e10	1	-1e10	1	-1E+10	1	-1e10	1	-1e10	1	-1E+10	1	-1E+10	1	-1E+10	1
4902624	9	C	09/19/2024	10:40	-128.462	47.446	0	111.30	0	8.3913	0	32.8383	0	25.521	0	110.342	0	203.9	4	70.6	4	-1E+10	1	0.1540	4	0.000321	0	-1E+10	1	-1E+10	1	-1E+10	1
4902624	9	C	09/19/2024	10:40	-128.462	47.446	0	112.20	0	8.3774	0	32.8514	0	25.533	0	111.234	0	202.4	4	70.0	4	-1E+10	1	0.1526	4	0.000294	0	-1E+10	1	-1E+10	1	-1E+10	1
4902624	9	C	09/19/2024	10:40	-128.462	47.446	0	113.00	0	8.3650	0	32.8630	0	25.544	0	112.027	0	-1e10	1	-1e10	1	-1E+10	1	-1e10	1	-1e10	1	-1E+10	1	-1E+10	1	-1E+10	1
4902624	9	C	09/19/2024	10:40	-128.462	47.446	0	113.10	0	8.3630	0	32.8645	0	25.546	0	112.126	0	201.0	4	69.5	4	-1E+10	1	0.1582	4	0.000260	0	-1E+10	1	-1E+10	1	-1E+10	1
4902624	9	C	09/19/2024	10:40	-128.462	47.446	0	114.10	0	8.3435	0	32.8798	0	25.560	0	113.117	0	199.4	4	69.0	4	-1E+10	1	0.1436	4	0.000307	0	-1E+10	1	-1E+10	1	-1E+10	1
4902624	9	C	09/19/2024	10:40	-128.462	47.446	0	115.10	0	8.3240	0	32.8950	0	25.575	0	114.108	0	193.5	4	66.9	4	-1E+10	1	0.1252	4	0.000307	0	-1E+10	1	-1E+10	1	-1E+10	1
4902624	9	C	09/19/2024	10:40	-128.462	47.446	0	116.20	0	8.2833	0	32.9341	0	25.612	0	115.198	0	195.8	4	67.7	4	-1E+10	1	0.1314	4	0.000307	0	-1E+10	1	-1E+10	1	-1E+10	1
4902624	9	C	09/19/2024	10:40	-128.462	47.446	0	117.10	0	8.2500	0	32.9660	0	25.642	0	116.090	0	-1e10	1	-1e10	1	-1E+10	1	-1e10	1	-1e10	1	-1E+10	1	-1E+10	1	-1E+10	1
4902624	9	C	09/19/2024	10:40	-128.462	47.446	0	117.30	0	8.2426	0	32.9702	0	25.646	0	116.289	0	194.2	4	67.1	4	-1E+10	1	0.1387	4	0.000307	0	-1E+10	1	-1E+10	1	-1E+10	1
4902624	9	C	09/19/2024	10:40	-128.462	47.446	0	118.40	0	8.2021	0	32.9934	0	25.671	0	117.379	0	192.4	4	66.4	4	-1E+10	1	0.1202	4	0.000297	0	-1E+10	1	-1E+10	1	-1E+10	1
4902624	9	C	09/19/2024	10:40	-128.462	47.446	0	119.00	0	8.1800	0	33.0060	0	25.684	0	117.973	0	-1e10	1	-1e10	1	-1E+10	1	-1e10	1	-1e10	1	-1E+10	1	-1E+10	1	-1E+10	1
4902624	9	C	09/19/2024	10:40	-128.462	47.446	0	119.50	0	8.1800	0	33.0171	0	25.692	0	118.469	0	190.6	4	65.7	4	-1E+10	1	0.1262	4	0.000287	0	-1E+10	1	-1E+10	1	-1E+10	1
4902624	9	C	09/19/2024	10:40	-128.462	47.446	0	120.70	0	8.1800	0	33.0436	0	25.713	0	119.658	0	189.1	4	65.2	4	-1E+10	1	0.1357	4	0.000276	0	-1E+10	1	-1E+10	1	-1E+10	1
4902624	9	C	09/19/2024	10:40	-128.462	47.446	0	120.90	0	8.1800	0	33.0480	0	25.717	0	119.856	0	-1e10	1	-1e10	1	-1E+10	1	-1e10	1	-1e10	1	-1E+10	1	-1E+10	1	-1E+10	1
4902624	9	C	09/19/2024	10:40	-128.462	47.446	0	121.90	0	8.1695	0	33.0851	0	25.747	0	120.848	0	188.2	4	64.9	4	-1E+10	1	0.1350	4	0.000265	0	-1E+10	1	-1E+10	1	-1E+10	1
4902624	9	C	09/19/2024	10:40	-128.462	47.446	0	123.00	0	8.1580	0	33.1260	0	25.781	0	121.938	0	-1e10	1	-1e10	1	-1E+10	1	-1e10	1	-1e10	1	-1E+10	1	-1E+10	1	-1E+10	1
4902624	9	C	09/19/2024	10:40	-128.462	47.446	0	123.10	0	8.1544	0	33.1292	0	25.784	0	122.037	0	188.3	4	65.0	4	-1E+10	1	0.1265	4	0.000271	0	-1E+10	1	-1E+10	1	-1E+10	1
4902624	9	C	09/19/2024	10:40	-128.462	47.446	0	124.40	0	8.1076	0	33.1708	0	25.824	0	123.325	0	188.8	4	65.1	4	-1E+10	1	0.1168	4	0.000289	0	-1E+10	1	-1E+10	1	-1E+10	1
4902624	9	C	09/19/2024	10:40	-128.462	47.446	0	125.00	0	8.0860	0	33.1900	0	25.842	0	123.920	0	-1e10	1	-1e10	1	-1E+10	1	-1e10	1	-1e10	1	-1E+10	1	-1E+10	1	-1E+10	1
4902624	9	C	09/19/2024	10:40	-128.462	47.446	0	125.70	0	8.0613	0	33.1970	0	25.851	0	124.614	0	189.2	4	65.2	4	-1E+10	1	0.1124	4	0.000271	0	-1E+10	1	-1E+10	1	-1E+10	1
4902624	9	C	09/19/2024	10:40	-128.462	47.446	0	126.90	0	8.0190	0	33.2090	0	25.867	0	125.803	0	189.5	4	65.2	4	-1E+10	1	0.0949	4	0.000271	0	-1E+10	1	-1E+10	1	-1E+10	1
4902624	9	C	09/19/2024	10:40	-128.462	47.446	0	127.10	0	8.0120	0	33.2110	0	25.869	0	126.001	0	-1e10	1	-1e10	1	-1E+10	1	-1e10	1	-1e10	1	-1E+10	1	-1E+10	1	-1E+10	1
4902624	9	C	09/19/2024	10:40	-128.462	47.446	0	128.20	0	7.9813	0	33.2284	0	25.887	0	127.091	0	190.1	4	65.4	4	-1E+10	1	0.1008	4	0.000300	0	-1E+10	1	-1E+10	1	-1E+10	1
4902624	9	C	09/19/2024	10:40	-128.462	47.446	0	129.00	0	7.9590	0	33.2410	0	25.901	0	127.884	0	-1e10	1	-1e10	1	-1E+10	1	-1e10	1	-1e10	1	-1E+10	1	-1E+10	1	-1E+10	1
4902624	9	C	09/19/2024	10:40	-128.462	47.446	0	129.50	0	7.9392	0	33.2453	0	25.907	0	128.380	0	190.7	4	65.5	4	-1E+10	1	0.1022	4	0.000270	0	-1E+10	1	-1E+10	1	-1E+10	1
4902624	9	C	09/19/2024	10:40	-128.462	47.446	0	130.80	0	7.8879	0	33.2563	0	25.923	0	129.668	0	191.1	4	65.6	4	-1E+10	1	0.0976	4	0.000311	0	-1E+10	1	-1E+10	1	-1E+10	1
4902624	9	C	09/19/2024	10:40	-128.462	47.446	0	131.00	0	7.8800	0	33.2580	0	25.925	0	129.866	0	-1e10	1	-1e10	1	-1E+10	1	-1e10	1	-1e10	1	-1E+10	1	-1E+10	1	-1E+10	1
4902624	9	C	09/19/2024	10:40	-128.462	47.446	0	132.10	0	7.8492	0	33.2651	0	25.936	0	130.956	0	191.1	4	65.5	4	-1E+10	1	0.0949	4	0.000325	0	-1E+10	1	-1E+10	1	-1E+10	1
4902624	9	C	09/19/2024	10:40	-128.462	47.446	0	133.00	0	7.8240	0	33.2710	0	25.944	0	131.848	0	-1e10	1	-1e10	1	-1E+10	1	-1e10	1	-1e10	1	-1E+10	1	-1E+10	1	-1E+10	1
4902624	9	C	09/19/2024	10:40	-128.462	47.446	0	133.40	0	7.8230	0	33.2716	0	25.944	0	132.245	0	190.8	4	65.4	4	-1E+10	1	0.0921	4	0.000293	0	-1E+10	1	-1E+10	1	-1E+10	1
4902624	9	C	09/19/2024	10:40	-128.462	47.446	0	134.60	0	7.8200	0	33.2734	0	25.946	0	133.434	0	190.5	4	65.3	4	-1E+10	1	0.0813	4	0.000278	0	-1E+10	1	-1E+10	1	-1E+10	1
4902624	9	C	09/19/2024	10:40	-128.462	47.446	0	135.00	0	7.8190	0	33.2740	0	25.947	0	133.830	0	-1e10	1	-1e10	1	-1E+10	1	-1e10	1	-1e10	1	-1E+10	1	-1E+10	1	-1E+10	1
4902624	9	C	09/19/2024	10:40	-128.462	47.446	0	135.90	0	7.8204	0	33.2745	0	25.947	0	134.722	0	190.2	4	65.2	4	-1E+10	1	0.0672	4	0.000299	0	-1E+10	1	-1E+10	1	-1E+10	1
4902624	9	C	09/19/2024	10:40	-128.462	47.446	0	136.90	0	7.8220	0	33.2750	0	25.947	0	135.713	0	-1e10	1	-1e10	1	-1E+10	1	-1e10	1	-1e10	1	-1E+10	1	-1E+10	1	-1E+10	1
4902624	9	C	09/19/2024	10:40	-128.462	47.446	0	137.10	0	7.8170	0	33.2797	0	25.952	0	135.911	0	190.0	4	65.1	4	-1E+10	1	0.0730	4	0.000318	0	-1E+10	1	-1E+10	1	-1E+10	1
4902624	9	C	09/19/2024	10:40	-128.462	47.446	0	138.30	0	7.7873	0	33.3077	0	25.978	0	137.101	0	189.9	4	65.1	4	-1E+10	1	0.0730	4	0.000259	0	-1E+10	1	-1E+10	1	-1E+10	1
4902624	9	C	09/19/2024	10:40	-128.462	47.446	0	139.00	0	7.7700	0	33.3240	0	25.993	0	137.794	0	-1e10	1	-1e10	1	-1E+10	1	-1e10	1	-1e10	1	-1E+10	1	-1E+10	1	-1E+10	1
4902624	9	C	09/19/2024	10:40	-128.462	47.446	0	139.60	0	7.7382	0	33.3345	0	26.006	0	138.389	0	190.1	4	65.1	4	-1E+10	1	0.0730	4	0.000298	0	-1E+10	1	-1E+10	1	-1E+10	1
4902624	9	C	09/19/2024	10:40	-128.462	47.446	0	140.90	0	7.6693	0	33.3573	0	26.034	0	139.677	0	189.6	4	64.8	4	-1E+10	1	0.0681	4	0.000275	0	-1E+10	1	-1E+10	1	-1E+10	1
4902624	9	C	09/19/2024	10:40	-128.462	47.446	0	141.00	0	7.6640	0	33.3590	0	26.036	0	139.776	0	-1e10	1	-1e10	1	-1E+10	1	-1e10	1	-1e10	1	-1E+10	1	-1E+10	1	-1E+10	1
4902624	9	C	09/19/2024	10:40	-128.462	47.446	0	142.20	0	7.6663	0	33.3710	0	26.045	0	140.965	0	189.5	4	64.8	4	-1E+10	1	0.0706	4	0.000291	0	-1E+10	1	-1E+10	1	-1E+10	1
4902624	9	C	09/19/2024	10:40	-128.462	47.446	0	143.10	0	7.6680	0	33.3800	0	26.052	0	141.857	0	-1e10	1	-1e10	1	-1E+10	1	-1e10	1	-1e10	1	-1E+10	1	-1E+10	1	-1E+10	1
4902624	9	C	09/19/2024	10:40	-128.462	47.446	0	143.30	0	7.6664	0	33.3811	0	26.053	0	142.055	0	189.5	4	64.8	4	-1E+10	1	0.0730	4	0.000289	0	-1E+10	1	-1E+10	1	-1E+10	1
4902624	9	C	09/19/2024	10:40	-128.462	47.446	0	144.30	0	7.6585	0	33.3863	0	26.058	0	143.046	0	189.6	4	64.8	4	-1E+10	1	0.0730	4	0.000278	0	-1E+10	1	-1E+10	1	-1E+10	1
4902624	9	C	09/19/2024	10:40	-128.462	47.446	0	145.00	0	7.6530	0	33.3900	0	26.062	0	143.740	0	-1e10	1	-1e10	1	-1E+10	1	-1e10	1	-1e10	1	-1E+10	1	-1E+10	1	-1E+10	1
4902624	9	C	09/19/2024	10:40	-128.462	47.446	0	145.20	0	7.6462	0	33.3917	0	26.064	0	143.938	0	189.7	4	64.8	4	-1E+10	1	0.0675	4	0.000303	0	-1E+10	1	-1E+10	1	-1E+10	1
4902624	9	C	09/19/2024	10:40	-128.462	47.446	0	146.00	0	7.6190	0	33.3985	0	26.073	0	144.731	0	189.8	4	64.8	4	-1E+10	1	0.0540	4	0.000320	0	-1E+10	1	-1E+10	1	-1E+10	1
4902624	9	C	09/19/2024	10:40	-128.462	47.446	0	146.80	0	7.5918	0	33.4053	0	26.083	0	145.524	0	189.7	4	64.8	4	-1E+10	1	0.0657	4	0.000283	0	-1E+10	1	-1E+10	1	-1E+10	1
4902624	9	C	09/19/2024	10:40	-128.462	47.446	0	147.00	0	7.5850	0	33.4070	0	26.085	0	145.722	0	-1e10	1	-1e10	1	-1E+10	1	-1e10	1	-1e10	1	-1E+10	1	-1E+10	1	-1E+10	1
4902624	9	C	09/19/2024	10:40	-128.462	47.446	0	147.60	0	7.5658	0	33.4133	0	26.093	0	146.317	0	189.3	4	64.6	4	-1E+10	1	0.0657	4	0.000283	0	-1E+10	1	-1E+10	1	-1E+10	1
4902624	9	C	09/19/2024	10:40	-128.462	47.446	0	148.30	0	7.5434	0	33.4207	0	26.102	0	147.010	0	189.0	4	64.5	4	-1E+10	1	0.0602	4	0.000292	0	-1E+10	1	-1E+10	1	-1E+10	1
4902624	9	C	09/19/2024	10:40	-128.462	47.446	0	149.00	0	7.5210	0	33.4280	0	26.111	0	147.704	0	-1e10	1	-1e10	1	-1E+10	1	-1e10	1	-1e10	1	-1E+10	1	-1E+10	1	-1E+10	1
4902624	9	C	09/19/2024	10:40	-128.462	47.446	0	149.10	0	7.5179	0	33.4294	0	26.112	0	147.803	0	188.9	4	64.4	4	-1E+10	1	0.0584	4	0.000287	0	-1E+10	1	-1E+10	1	-1E+10	1
4902624	9	C	09/19/2024	10:40	-128.462	47.446	0	149.90	0	7.4931	0	33.4406	0	26.124	0	148.596	0	188.9	4	64.4	4	-1E+10	1	0.0543	4	0.000283	0	-1E+10	1	-1E+10	1	-1E+10	1
4902624	9	C	09/19/2024	10:40	-128.462	47.446	0	150.60	0	7.4714	0	33.4504	0	26.135	0	149.289	0	188.7	4	64.3	4	-1E+10	1	0.0538	4	0.000287	0	-1E+10	1	-1E+10	1	-1E+10	1
4902624	9	C	09/19/2024	10:40	-128.462	47.446	0	151.00	0	7.4590	0	33.4560	0	26.141	0	149.686	0	-1e10	1	-1e10	1	-1E+10	1	-1e10	1	-1e10	1	-1E+10	1	-1E+10	1	-1E+10	1
4902624	9	C	09/19/2024	10:40	-128.462	47.446	0	151.40	0	7.4540	0	33.4587	0	26.144	0	150.082	0	188.4	4	64.1	4	-1E+10	1	0.0584	4	0.000298	0	-1E+10	1	-1E+10	1	-1E+10	1
4902624	9	C	09/19/2024	10:40	-128.462	47.446	0	152.10	0	7.4454	0	33.4633	0	26.149	0	150.776	0	188.0	4	64.0	4	-1E+10	1	0.0569	4	0.000305	0	-1E+10	1	-1E+10	1	-1E+10	1
4902624	9	C	09/19/2024	10:40	-128.462	47.446	0	153.00	0	7.4342	0	33.4693	0	26.155	0	151.668	0	187.4	4	63.8	4	-1E+10	1	0.0438	4	0.000295	0	-1E+10	1	-1E+10	1	-1E+10	1
4902624	9	C	09/19/2024	10:40	-128.462	47.446	0	153.10	0	7.4330	0	33.4700	0	26.156	0	151.767	0	-1e10	1	-1e10	1	-1E+10	1	-1e10	1	-1e10	1	-1E+10	1	-1E+10	1	-1E+10	1
4902624	9	C	09/19/2024	10:40	-128.462	47.446	0	153.80	0	7.4109	0	33.4822	0	26.169	0	152.460	0	186.9	4	63.6	4	-1E+10	1	0.0511	4	0.000318	0	-1E+10	1	-1E+10	1	-1E+10	1
4902624	9	C	09/19/2024	10:40	-128.462	47.446	0	154.60	0	7.3856	0	33.4961	0	26.183	0	153.253	0	186.5	4	63.4	4	-1E+10	1	0.0511	4	0.000276	0	-1E+10	1	-1E+10	1	-1E+10	1
4902624	9	C	09/19/2024	10:40	-128.462	47.446	0	155.00	0	7.3730	0	33.5030	0	26.190	0	153.649	0	-1e10	1	-1e10	1	-1E+10	1	-1e10	1	-1e10	1	-1E+10	1	-1E+10	1	-1E+10	1
4902624	9	C	09/19/2024	10:40	-128.462	47.446	0	155.40	0	7.3661	0	33.5055	0	26.193	0	154.046	0	186.0	4	63.2	4	-1E+10	1	0.0562	4	0.000296	0	-1E+10	1	-1E+10	1	-1E+10	1
4902624	9	C	09/19/2024	10:40	-128.462	47.446	0	156.20	0	7.3522	0	33.5106	0	26.199	0	154.839	0	185.5	4	63.0	4	-1E+10	1	0.0625	4	0.000313	0	-1E+10	1	-1E+10	1	-1E+10	1
4902624	9	C	09/19/2024	10:40	-128.462	47.446	0	156.90	0	7.3400	0	33.5150	0	26.204	0	155.532	0	-1e10	1	-1e10	1	-1E+10	1	-1e10	1	-1e10	1	-1E+10	1	-1E+10	1	-1E+10	1
4902624	9	C	09/19/2024	10:40	-128.462	47.446	0	157.10	0	7.3360	0	33.5169	0	26.207	0	155.730	0	184.9	4	62.8	4	-1E+10	1	0.0616	4	0.000305	0	-1E+10	1	-1E+10	1	-1E+10	1
4902624	9	C	09/19/2024	10:40	-128.462	47.446	0	157.80	0	7.3220	0	33.5236	0	26.214	0	156.424	0	184.3	4	62.6	4	-1E+10	1	0.0562	4	0.000295	0	-1E+10	1	-1E+10	1	-1E+10	1
4902624	9	C	09/19/2024	10:40	-128.462	47.446	0	158.60	0	7.3060	0	33.5312	0	26.222	0	157.217	0	183.5	4	62.3	4	-1E+10	1	0.0511	4	0.000297	0	-1E+10	1	-1E+10	1	-1E+10	1
4902624	9	C	09/19/2024	10:40	-128.462	47.446	0	159.00	0	7.2980	0	33.5350	0	26.226	0	157.613	0	-1e10	1	-1e10	1	-1E+10	1	-1e10	1	-1e10	1	-1E+10	1	-1E+10	1	-1E+10	1
4902624	9	C	09/19/2024	10:40	-128.462	47.446	0	159.50	0	7.2885	0	33.5400	0	26.231	0	158.109	0	182.7	4	62.0	4	-1E+10	1	0.0498	4	0.000320	0	-1E+10	1	-1E+10	1	-1E+10	1
4902624	9	C	09/19/2024	10:40	-128.462	47.446	0	160.40	0	7.2714	0	33.5490	0	26.241	0	159.000	0	181.7	4	61.6	4	-1E+10	1	0.0438	4	0.000330	0	-1E+10	1	-1E+10	1	-1E+10	1
4902624	9	C	09/19/2024	10:40	-128.462	47.446	0	161.00	0	7.2600	0	33.5550	0	26.247	0	159.595	0	-1e10	1	-1e10	1	-1E+10	1	-1e10	1	-1e10	1	-1E+10	1	-1E+10	1	-1E+10	1
4902624	9	C	09/19/2024	10:40	-128.462	47.446	0	161.20	0	7.2567	0	33.5572	0	26.249	0	159.793	0	180.7	4	61.3	4	-1E+10	1	0.0584	4	0.000353	0	-1E+10	1	-1E+10	1	-1E+10	1
4902624	9	C	09/19/2024	10:40	-128.462	47.446	0	162.00	0	7.2435	0	33.5660	0	26.258	0	160.586	0	179.6	4	60.9	4	-1E+10	1	0.0438	4	0.000318	0	-1E+10	1	-1E+10	1	-1E+10	1
4902624	9	C	09/19/2024	10:40	-128.462	47.446	0	162.90	0	7.2287	0	33.5759	0	26.268	0	161.478	0	178.5	4	60.5	4	-1E+10	1	0.0498	4	0.000299	0	-1E+10	1	-1E+10	1	-1E+10	1
4902624	9	C	09/19/2024	10:40	-128.462	47.446	0	163.00	0	7.2270	0	33.5770	0	26.269	0	161.577	0	-1e10	1	-1e10	1	-1E+10	1	-1e10	1	-1e10	1	-1E+10	1	-1E+10	1	-1E+10	1
4902624	9	C	09/19/2024	10:40	-128.462	47.446	0	163.80	0	7.2158	0	33.5902	0	26.281	0	162.369	0	177.5	4	60.1	4	-1E+10	1	0.0557	4	0.000302	0	-1E+10	1	-1E+10	1	-1E+10	1
4902624	9	C	09/19/2024	10:40	-128.462	47.446	0	164.70	0	7.2032	0	33.6050	0	26.294	0	163.261	0	176.7	4	59.9	4	-1E+10	1	0.0584	4	0.000313	0	-1E+10	1	-1E+10	1	-1E+10	1
4902624	9	C	09/19/2024	10:40	-128.462	47.446	0	165.00	0	7.1990	0	33.6100	0	26.299	0	163.558	0	-1e10	1	-1e10	1	-1E+10	1	-1e10	1	-1e10	1	-1E+10	1	-1E+10	1	-1E+10	1
4902624	9	C	09/19/2024	10:40	-128.462	47.446	0	165.60	0	7.1981	0	33.6140	0	26.302	0	164.153	0	176.0	4	59.7	4	-1E+10	1	0.0518	4	0.000302	0	-1E+10	1	-1E+10	1	-1E+10	1
4902624	9	C	09/19/2024	10:40	-128.462	47.446	0	166.50	0	7.1969	0	33.6200	0	26.307	0	165.045	0	175.3	4	59.4	4	-1E+10	1	0.0482	4	0.000339	0	-1E+10	1	-1E+10	1	-1E+10	1
4902624	9	C	09/19/2024	10:40	-128.462	47.446	0	167.10	0	7.1960	0	33.6240	0	26.310	0	165.639	0	-1e10	1	-1e10	1	-1E+10	1	-1e10	1	-1e10	1	-1E+10	1	-1E+10	1	-1E+10	1
4902624	9	C	09/19/2024	10:40	-128.462	47.446	0	167.40	0	7.1984	0	33.6270	0	26.312	0	165.936	0	174.8	4	59.2	4	-1E+10	1	0.0569	4	0.000447	0	-1E+10	1	-1E+10	1	-1E+10	1
4902624	9	C	09/19/2024	10:40	-128.462	47.446	0	168.40	0	7.2064	0	33.6370	0	26.319	0	166.927	0	174.5	4	59.2	4	-1E+10	1	0.0524	4	0.000345	0	-1E+10	1	-1E+10	1	-1E+10	1
4902624	9	C	09/19/2024	10:40	-128.462	47.446	0	169.10	0	7.2120	0	33.6440	0	26.324	0	167.621	0	-1e10	1	-1e10	1	-1E+10	1	-1e10	1	-1e10	1	-1E+10	1	-1E+10	1	-1E+10	1
4902624	9	C	09/19/2024	10:40	-128.462	47.446	0	169.30	0	7.2088	0	33.6451	0	26.325	0	167.819	0	174.4	4	59.1	4	-1E+10	1	0.0584	4	0.000306	0	-1E+10	1	-1E+10	1	-1E+10	1
4902624	9	C	09/19/2024	10:40	-128.462	47.446	0	170.30	0	7.1931	0	33.6503	0	26.332	0	168.810	0	174.3	4	59.1	4	-1E+10	1	0.0402	4	0.000316	0	-1E+10	1	-1E+10	1	-1E+10	1
4902624	9	C	09/19/2024	10:40	-128.462	47.446	0	171.00	0	7.1820	0	33.6540	0	26.336	0	169.503	0	-1e10	1	-1e10	1	-1E+10	1	-1e10	1	-1e10	1	-1E+10	1	-1E+10	1	-1E+10	1
4902624	9	C	09/19/2024	10:40	-128.462	47.446	0	171.30	0	7.1755	0	33.6548	0	26.337	0	169.801	0	174.1	4	59.0	4	-1E+10	1	0.0423	4	0.000337	0	-1E+10	1	-1E+10	1	-1E+10	1
4902624	9	C	09/19/2024	10:40	-128.462	47.446	0	172.30	0	7.1540	0	33.6572	0	26.342	0	170.792	0	173.7	4	58.8	4	-1E+10	1	0.0535	4	0.000341	0	-1E+10	1	-1E+10	1	-1E+10	1
4902624	9	C	09/19/2024	10:40	-128.462	47.446	0	173.00	0	7.1390	0	33.6590	0	26.346	0	171.485	0	-1e10	1	-1e10	1	-1E+10	1	-1e10	1	-1e10	1	-1E+10	1	-1E+10	1	-1E+10	1
4902624	9	C	09/19/2024	10:40	-128.462	47.446	0	173.30	0	7.1353	0	33.6599	0	26.347	0	171.782	0	173.1	4	58.6	4	-1E+10	1	0.0550	4	0.000325	0	-1E+10	1	-1E+10	1	-1E+10	1
4902624	9	C	09/19/2024	10:40	-128.462	47.446	0	174.30	0	7.1229	0	33.6627	0	26.351	0	172.773	0	172.4	4	58.3	4	-1E+10	1	0.0533	4	0.000317	0	-1E+10	1	-1E+10	1	-1E+10	1
4902624	9	C	09/19/2024	10:40	-128.462	47.446	0	175.10	0	7.1130	0	33.6650	0	26.354	0	173.566	0	-1e10	1	-1e10	1	-1E+10	1	-1e10	1	-1e10	1	-1E+10	1	-1E+10	1	-1E+10	1
4902624	9	C	09/19/2024	10:40	-128.462	47.446	0	175.40	0	7.1095	0	33.6663	0	26.356	0	173.863	0	171.5	4	58.0	4	-1E+10	1	0.0560	4	0.000341	0	-1E+10	1	-1E+10	1	-1E+10	1
4902624	9	C	09/19/2024	10:40	-128.462	47.446	0	176.40	0	7.0979	0	33.6705	0	26.361	0	174.854	0	170.5	4	57.7	4	-1E+10	1	0.0511	4	0.000339	0	-1E+10	1	-1E+10	1	-1E+10	1
4902624	9	C	09/19/2024	10:40	-128.462	47.446	0	177.00	0	7.0910	0	33.6730	0	26.363	0	175.448	0	-1e10	1	-1e10	1	-1E+10	1	-1e10	1	-1e10	1	-1E+10	1	-1E+10	1	-1E+10	1
4902624	9	C	09/19/2024	10:40	-128.462	47.446	0	177.50	0	7.0915	0	33.6759	0	26.366	0	175.944	0	169.5	4	57.3	4	-1E+10	1	0.0511	4	0.000330	0	-1E+10	1	-1E+10	1	-1E+10	1
4902624	9	C	09/19/2024	10:40	-128.462	47.446	0	178.50	0	7.0924	0	33.6816	0	26.370	0	176.935	0	168.5	4	57.0	4	-1E+10	1	0.0438	4	0.000376	0	-1E+10	1	-1E+10	1	-1E+10	1
4902624	9	C	09/19/2024	10:40	-128.462	47.446	0	179.10	0	7.0930	0	33.6850	0	26.373	0	177.529	0	-1e10	1	-1e10	1	-1E+10	1	-1e10	1	-1e10	1	-1E+10	1	-1E+10	1	-1E+10	1
4902624	9	C	09/19/2024	10:40	-128.462	47.446	0	179.60	0	7.0858	0	33.6875	0	26.376	0	178.025	0	167.9	4	56.8	4	-1E+10	1	0.0623	4	0.000367	0	-1E+10	1	-1E+10	1	-1E+10	1
4902624	9	C	09/19/2024	10:40	-128.462	47.446	0	180.70	0	7.0698	0	33.6930	0	26.382	0	179.114	0	167.2	4	56.5	4	-1E+10	1	0.0556	4	0.000372	0	-1E+10	1	-1E+10	1	-1E+10	1
4902624	9	C	09/19/2024	10:40	-128.462	47.446	0	181.10	0	7.0640	0	33.6950	0	26.385	0	179.511	0	-1e10	1	-1e10	1	-1E+10	1	-1e10	1	-1e10	1	-1E+10	1	-1E+10	1	-1E+10	1
4902624	9	C	09/19/2024	10:40	-128.462	47.446	0	181.80	0	7.0539	0	33.6974	0	26.388	0	180.204	0	166.6	4	56.3	4	-1E+10	1	0.0465	4	0.000368	0	-1E+10	1	-1E+10	1	-1E+10	1
4902624	9	C	09/19/2024	10:40	-128.462	47.446	0	182.90	0	7.0379	0	33.7013	0	26.393	0	181.294	0	165.9	4	56.0	4	-1E+10	1	0.0517	4	0.000339	0	-1E+10	1	-1E+10	1	-1E+10	1
4902624	9	C	09/19/2024	10:40	-128.462	47.446	0	183.10	0	7.0350	0	33.7020	0	26.394	0	181.492	0	-1e10	1	-1e10	1	-1E+10	1	-1e10	1	-1e10	1	-1E+10	1	-1E+10	1	-1E+10	1
4902624	9	C	09/19/2024	10:40	-128.462	47.446	0	184.00	0	7.0201	0	33.7056	0	26.399	0	182.384	0	165.1	4	55.8	4	-1E+10	1	0.0532	4	0.000347	0	-1E+10	1	-1E+10	1	-1E+10	1
4902624	9	C	09/19/2024	10:40	-128.462	47.446	0	185.10	0	7.0020	0	33.7100	0	26.405	0	183.474	0	160.0	4	54.0	4	-1E+10	1	0.0411	4	0.000389	0	-1E+10	1	-1E+10	1	-1E+10	1
4902624	9	C	09/19/2024	10:40	-128.462	47.446	0	186.30	0	6.9875	0	33.7125	0	26.409	0	184.663	0	163.3	4	55.1	4	-1E+10	1	0.0323	4	0.000344	0	-1E+10	1	-1E+10	1	-1E+10	1
4902624	9	C	09/19/2024	10:40	-128.462	47.446	0	187.00	0	6.9790	0	33.7140	0	26.411	0	185.356	0	-1e10	1	-1e10	1	-1E+10	1	-1e10	1	-1e10	1	-1E+10	1	-1E+10	1	-1E+10	1
4902624	9	C	09/19/2024	10:40	-128.462	47.446	0	187.40	0	6.9786	0	33.7162	0	26.413	0	185.753	0	162.1	4	54.7	4	-1E+10	1	0.0438	4	0.000353	0	-1E+10	1	-1E+10	1	-1E+10	1
4902624	9	C	09/19/2024	10:40	-128.462	47.446	0	188.50	0	6.9775	0	33.7222	0	26.418	0	186.842	0	160.9	4	54.3	4	-1E+10	1	0.0381	4	0.000381	0	-1E+10	1	-1E+10	1	-1E+10	1
4902624	9	C	09/19/2024	10:40	-128.462	47.446	0	189.00	0	6.9770	0	33.7250	0	26.420	0	187.338	0	-1e10	1	-1e10	1	-1E+10	1	-1e10	1	-1e10	1	-1E+10	1	-1E+10	1	-1E+10	1
4902624	9	C	09/19/2024	10:40	-128.462	47.446	0	189.70	0	6.9707	0	33.7295	0	26.425	0	188.031	0	159.9	4	53.9	4	-1E+10	1	0.0425	4	0.000359	0	-1E+10	1	-1E+10	1	-1E+10	1
4902624	9	C	09/19/2024	10:40	-128.462	47.446	0	190.80	0	6.9608	0	33.7367	0	26.432	0	189.121	0	158.8	4	53.6	4	-1E+10	1	0.0391	4	0.000345	0	-1E+10	1	-1E+10	1	-1E+10	1
4902624	9	C	09/19/2024	10:40	-128.462	47.446	0	191.00	0	6.9590	0	33.7380	0	26.433	0	189.319	0	-1e10	1	-1e10	1	-1E+10	1	-1e10	1	-1e10	1	-1E+10	1	-1E+10	1	-1E+10	1
4902624	9	C	09/19/2024	10:40	-128.462	47.446	0	192.00	0	6.9595	0	33.7420	0	26.436	0	190.310	0	157.9	4	53.3	4	-1E+10	1	0.0402	4	0.000617	0	-1E+10	1	-1E+10	1	-1E+10	1
4902624	9	C	09/19/2024	10:40	-128.462	47.446	0	193.00	0	6.9600	0	33.7460	0	26.439	0	191.301	0	-1e10	1	-1e10	1	-1E+10	1	-1e10	1	-1e10	1	-1E+10	1	-1E+10	1	-1E+10	1
4902624	9	C	09/19/2024	10:40	-128.462	47.446	0	193.10	0	6.9595	0	33.7461	0	26.439	0	191.400	0	156.9	4	52.9	4	-1E+10	1	0.0438	4	0.000705	0	-1E+10	1	-1E+10	1	-1E+10	1
4902624	9	C	09/19/2024	10:40	-128.462	47.446	0	194.30	0	6.9542	0	33.7480	0	26.441	0	192.589	0	155.8	4	52.5	4	-1E+10	1	0.0438	4	0.000368	0	-1E+10	1	-1E+10	1	-1E+10	1
4902624	9	C	09/19/2024	10:40	-128.462	47.446	0	195.00	0	6.9510	0	33.7490	0	26.443	0	193.282	0	-1e10	1	-1e10	1	-1E+10	1	-1e10	1	-1e10	1	-1E+10	1	-1E+10	1	-1E+10	1
4902624	9	C	09/19/2024	10:40	-128.462	47.446	0	195.40	0	6.9498	0	33.7510	0	26.444	0	193.679	0	154.7	4	52.2	4	-1E+10	1	0.0438	4	0.000346	0	-1E+10	1	-1E+10	1	-1E+10	1
4902624	9	C	09/19/2024	10:40	-128.462	47.446	0	196.60	0	6.9462	0	33.7570	0	26.450	0	194.867	0	153.6	4	51.8	4	-1E+10	1	0.0438	4	0.000306	0	-1E+10	1	-1E+10	1	-1E+10	1
4902624	9	C	09/19/2024	10:40	-128.462	47.446	0	197.00	0	6.9450	0	33.7590	0	26.451	0	195.264	0	-1e10	1	-1e10	1	-1E+10	1	-1e10	1	-1e10	1	-1E+10	1	-1E+10	1	-1E+10	1
4902624	9	C	09/19/2024	10:40	-128.462	47.446	0	197.80	0	6.9346	0	33.7618	0	26.455	0	196.056	0	152.6	4	51.5	4	-1E+10	1	0.0438	4	0.000341	0	-1E+10	1	-1E+10	1	-1E+10	1
4902624	9	C	09/19/2024	10:40	-128.462	47.446	0	199.00	0	6.9190	0	33.7660	0	26.460	0	197.245	0	147.5	4	49.7	4	-1E+10	1	0.0555	4	0.000350	0	-1E+10	1	-1E+10	1	-1E+10	1
4902624	9	C	09/19/2024	10:40	-128.462	47.446	0	200.20	0	6.9106	0	33.7708	0	26.465	0	198.434	0	150.6	4	50.7	4	-1E+10	1	0.0533	4	0.000353	0	-1E+10	1	-1E+10	1	-1E+10	1
4902624	9	C	09/19/2024	10:40	-128.462	47.446	0	201.00	0	6.9050	0	33.7740	0	26.469	0	199.226	0	-1e10	1	-1e10	1	-1E+10	1	-1e10	1	-1e10	1	-1E+10	1	-1E+10	1	-1E+10	1
4902624	9	C	09/19/2024	10:40	-128.462	47.446	0	201.40	0	6.8898	0	33.7736	0	26.470	0	199.623	0	149.8	4	50.4	4	-1E+10	1	0.0511	4	0.000368	0	-1E+10	1	-1E+10	1	-1E+10	1
4902624	9	C	09/19/2024	10:40	-128.462	47.446	0	202.60	0	6.8444	0	33.7723	0	26.475	0	200.812	0	148.7	4	50.0	4	-1E+10	1	0.0472	4	0.000357	0	-1E+10	1	-1E+10	1	-1E+10	1
4902624	9	C	09/19/2024	10:40	-128.462	47.446	0	202.90	0	6.8330	0	33.7720	0	26.477	0	201.109	0	-1e10	1	-1e10	1	-1E+10	1	-1e10	1	-1e10	1	-1E+10	1	-1E+10	1	-1E+10	1
4902624	9	C	09/19/2024	10:40	-128.462	47.446	0	203.80	0	6.8236	0	33.7729	0	26.479	0	202.000	0	147.5	4	49.6	4	-1E+10	1	0.0412	4	0.000345	0	-1E+10	1	-1E+10	1	-1E+10	1
4902624	9	C	09/19/2024	10:40	-128.462	47.446	0	205.00	0	6.8110	0	33.7740	0	26.481	0	203.189	0	142.3	4	47.8	4	-1E+10	1	0.0348	4	0.000353	0	-1E+10	1	-1E+10	1	-1E+10	1
4902624	9	C	09/19/2024	10:40	-128.462	47.446	0	206.20	0	6.8002	0	33.7788	0	26.487	0	204.378	0	144.8	4	48.7	4	-1E+10	1	0.0313	4	0.000356	0	-1E+10	1	-1E+10	1	-1E+10	1
4902624	9	C	09/19/2024	10:40	-128.462	47.446	0	207.00	0	6.7930	0	33.7820	0	26.490	0	205.171	0	-1e10	1	-1e10	1	-1E+10	1	-1e10	1	-1e10	1	-1E+10	1	-1E+10	1	-1E+10	1
4902624	9	C	09/19/2024	10:40	-128.462	47.446	0	207.40	0	6.7940	0	33.7836	0	26.491	0	205.567	0	143.3	4	48.2	4	-1E+10	1	0.0438	4	0.000376	0	-1E+10	1	-1E+10	1	-1E+10	1
4902624	9	C	09/19/2024	10:40	-128.462	47.446	0	208.60	0	6.7970	0	33.7884	0	26.495	0	206.756	0	141.9	4	47.7	4	-1E+10	1	0.0438	4	0.000367	0	-1E+10	1	-1E+10	1	-1E+10	1
4902624	9	C	09/19/2024	10:40	-128.462	47.446	0	209.00	0	6.7980	0	33.7900	0	26.496	0	207.152	0	-1e10	1	-1e10	1	-1E+10	1	-1e10	1	-1e10	1	-1E+10	1	-1E+10	1	-1E+10	1
4902624	9	C	09/19/2024	10:40	-128.462	47.446	0	209.80	0	6.7944	0	33.7936	0	26.499	0	207.944	0	140.6	4	47.3	4	-1E+10	1	0.0548	4	0.000382	0	-1E+10	1	-1E+10	1	-1E+10	1
4902624	9	C	09/19/2024	10:40	-128.462	47.446	0	211.00	0	6.7890	0	33.7990	0	26.504	0	209.133	0	-1e10	1	-1e10	1	-1E+10	1	-1e10	1	-1e10	1	-1E+10	1	-1E+10	1	-1E+10	1
4902624	9	C	09/19/2024	10:40	-128.462	47.446	0	211.10	0	6.7886	0	33.7993	0	26.504	0	209.232	0	139.4	4	46.9	4	-1E+10	1	0.0535	4	0.000404	0	-1E+10	1	-1E+10	1	-1E+10	1
4902624	9	C	09/19/2024	10:40	-128.462	47.446	0	212.30	0	6.7842	0	33.8031	0	26.508	0	210.421	0	138.1	4	46.4	4	-1E+10	1	0.0511	4	0.000382	0	-1E+10	1	-1E+10	1	-1E+10	1
4902624	9	C	09/19/2024	10:40	-128.462	47.446	0	212.90	0	6.7820	0	33.8050	0	26.510	0	211.015	0	-1e10	1	-1e10	1	-1E+10	1	-1e10	1	-1e10	1	-1E+10	1	-1E+10	1	-1E+10	1
4902624	9	C	09/19/2024	10:40	-128.462	47.446	0	213.50	0	6.7740	0	33.8070	0	26.512	0	211.610	0	137.0	4	46.0	4	-1E+10	1	0.0483	4	0.000362	0	-1E+10	1	-1E+10	1	-1E+10	1
4902624	9	C	09/19/2024	10:40	-128.462	47.446	0	214.70	0	6.7580	0	33.8110	0	26.518	0	212.799	0	135.9	4	45.7	4	-1E+10	1	0.0459	4	0.000376	0	-1E+10	1	-1E+10	1	-1E+10	1
4902624	9	C	09/19/2024	10:40	-128.462	47.446	0	215.00	0	6.7540	0	33.8120	0	26.519	0	213.096	0	-1e10	1	-1e10	1	-1E+10	1	-1e10	1	-1e10	1	-1E+10	1	-1E+10	1	-1E+10	1
4902624	9	C	09/19/2024	10:40	-128.462	47.446	0	215.90	0	6.7342	0	33.8129	0	26.522	0	213.987	0	135.1	4	45.4	4	-1E+10	1	0.0501	4	0.000378	0	-1E+10	1	-1E+10	1	-1E+10	1
4902624	9	C	09/19/2024	10:40	-128.462	47.446	0	217.00	0	6.7100	0	33.8140	0	26.526	0	215.077	0	-1e10	1	-1e10	1	-1E+10	1	-1e10	1	-1e10	1	-1E+10	1	-1E+10	1	-1E+10	1
4902624	9	C	09/19/2024	10:40	-128.462	47.446	0	217.10	0	6.7090	0	33.8141	0	26.527	0	215.176	0	134.1	4	45.0	4	-1E+10	1	0.0438	4	0.000388	0	-1E+10	1	-1E+10	1	-1E+10	1
4902624	9	C	09/19/2024	10:40	-128.462	47.446	0	218.40	0	6.6953	0	33.8154	0	26.530	0	216.464	0	133.1	4	44.7	4	-1E+10	1	0.0511	4	0.000376	0	-1E+10	1	-1E+10	1	-1E+10	1
4902624	9	C	09/19/2024	10:40	-128.462	47.446	0	219.00	0	6.6890	0	33.8160	0	26.531	0	217.058	0	-1e10	1	-1e10	1	-1E+10	1	-1e10	1	-1e10	1	-1E+10	1	-1E+10	1	-1E+10	1
4902624	9	C	09/19/2024	10:40	-128.462	47.446	0	219.60	0	6.6805	0	33.8182	0	26.534	0	217.653	0	132.2	4	44.3	4	-1E+10	1	0.0448	4	0.000356	0	-1E+10	1	-1E+10	1	-1E+10	1
4902624	9	C	09/19/2024	10:40	-128.462	47.446	0	220.80	0	6.6634	0	33.8226	0	26.539	0	218.841	0	131.3	4	44.0	4	-1E+10	1	0.0389	4	0.000345	0	-1E+10	1	-1E+10	1	-1E+10	1
4902624	9	C	09/19/2024	10:40	-128.462	47.446	0	220.90	0	6.6620	0	33.8230	0	26.540	0	218.940	0	-1e10	1	-1e10	1	-1E+10	1	-1e10	1	-1e10	1	-1E+10	1	-1E+10	1	-1E+10	1
4902624	9	C	09/19/2024	10:40	-128.462	47.446	0	222.00	0	6.6576	0	33.8236	0	26.541	0	220.030	0	130.4	4	43.7	4	-1E+10	1	0.0408	4	0.000355	0	-1E+10	1	-1E+10	1	-1E+10	1
4902624	9	C	09/19/2024	10:40	-128.462	47.446	0	222.90	0	6.6540	0	33.8240	0	26.542	0	220.922	0	-1e10	1	-1e10	1	-1E+10	1	-1e10	1	-1e10	1	-1E+10	1	-1E+10	1	-1E+10	1
4902624	9	C	09/19/2024	10:40	-128.462	47.446	0	223.30	0	6.6487	0	33.8251	0	26.543	0	221.318	0	129.6	4	43.4	4	-1E+10	1	0.0594	4	0.000358	0	-1E+10	1	-1E+10	1	-1E+10	1
4902624	9	C	09/19/2024	10:40	-128.462	47.446	0	224.50	0	6.6327	0	33.8286	0	26.548	0	222.506	0	128.7	4	43.1	4	-1E+10	1	0.0657	4	0.000349	0	-1E+10	1	-1E+10	1	-1E+10	1
4902624	9	C	09/19/2024	10:40	-128.462	47.446	0	225.00	0	6.6260	0	33.8300	0	26.550	0	223.002	0	-1e10	1	-1e10	1	-1E+10	1	-1e10	1	-1e10	1	-1E+10	1	-1E+10	1	-1E+10	1
4902624	9	C	09/19/2024	10:40	-128.462	47.446	0	225.70	0	6.6137	0	33.8303	0	26.552	0	223.695	0	128.0	4	42.9	4	-1E+10	1	0.0487	4	0.000333	0	-1E+10	1	-1E+10	1	-1E+10	1
4902624	9	C	09/19/2024	10:40	-128.462	47.446	0	226.90	0	6.5925	0	33.8309	0	26.555	0	224.884	0	127.1	4	42.5	4	-1E+10	1	0.0375	4	0.000307	0	-1E+10	1	-1E+10	1	-1E+10	1
4902624	9	C	09/19/2024	10:40	-128.462	47.446	0	227.10	0	6.5890	0	33.8310	0	26.556	0	225.082	0	-1e10	1	-1e10	1	-1E+10	1	-1e10	1	-1e10	1	-1E+10	1	-1E+10	1	-1E+10	1
4902624	9	C	09/19/2024	10:40	-128.462	47.446	0	228.10	0	6.5716	0	33.8305	0	26.558	0	226.073	0	126.2	4	42.2	4	-1E+10	1	0.0438	4	0.000388	0	-1E+10	1	-1E+10	1	-1E+10	1
4902624	9	C	09/19/2024	10:40	-128.462	47.446	0	229.00	0	6.5560	0	33.8300	0	26.560	0	226.964	0	-1e10	1	-1e10	1	-1E+10	1	-1e10	1	-1e10	1	-1E+10	1	-1E+10	1	-1E+10	1
4902624	9	C	09/19/2024	10:40	-128.462	47.446	0	229.30	0	6.5517	0	33.8305	0	26.560	0	227.261	0	125.3	4	41.9	4	-1E+10	1	0.0555	4	0.000350	0	-1E+10	1	-1E+10	1	-1E+10	1
4902624	9	C	09/19/2024	10:40	-128.462	47.446	0	230.50	0	6.5347	0	33.8324	0	26.564	0	228.450	0	124.4	4	41.6	4	-1E+10	1	0.0639	4	0.000455	0	-1E+10	1	-1E+10	1	-1E+10	1
4902624	9	C	09/19/2024	10:40	-128.462	47.446	0	230.90	0	6.5290	0	33.8330	0	26.565	0	228.846	0	-1e10	1	-1e10	1	-1E+10	1	-1e10	1	-1e10	1	-1E+10	1	-1E+10	1	-1E+10	1
4902624	9	C	09/19/2024	10:40	-128.462	47.446	0	231.80	0	6.5157	0	33.8343	0	26.568	0	229.738	0	123.7	4	41.3	4	-1E+10	1	0.0706	4	0.000399	0	-1E+10	1	-1E+10	1	-1E+10	1
4902624	9	C	09/19/2024	10:40	-128.462	47.446	0	232.90	0	6.4995	0	33.8359	0	26.572	0	230.827	0	122.9	4	41.1	4	-1E+10	1	0.0574	4	0.000368	0	-1E+10	1	-1E+10	1	-1E+10	1
4902624	9	C	09/19/2024	10:40	-128.462	47.446	0	233.00	0	6.4980	0	33.8360	0	26.572	0	230.926	0	-1e10	1	-1e10	1	-1E+10	1	-1e10	1	-1e10	1	-1E+10	1	-1E+10	1	-1E+10	1
4902624	9	C	09/19/2024	10:40	-128.462	47.446	0	234.10	0	6.4771	0	33.8377	0	26.576	0	232.016	0	122.3	4	40.8	4	-1E+10	1	0.0414	4	0.000388	0	-1E+10	1	-1E+10	1	-1E+10	1
4902624	9	C	09/19/2024	10:40	-128.462	47.446	0	235.00	0	6.4600	0	33.8390	0	26.579	0	232.907	0	-1e10	1	-1e10	1	-1E+10	1	-1e10	1	-1e10	1	-1E+10	1	-1E+10	1	-1E+10	1
4902624	9	C	09/19/2024	10:40	-128.462	47.446	0	235.40	0	6.4533	0	33.8396	0	26.581	0	233.304	0	121.7	4	40.6	4	-1E+10	1	0.0537	4	0.000421	0	-1E+10	1	-1E+10	1	-1E+10	1
4902624	9	C	09/19/2024	10:40	-128.462	47.446	0	236.60	0	6.4331	0	33.8415	0	26.585	0	234.492	0	121.1	4	40.4	4	-1E+10	1	0.0566	4	0.000440	0	-1E+10	1	-1E+10	1	-1E+10	1
4902624	9	C	09/19/2024	10:40	-128.462	47.446	0	236.90	0	6.4280	0	33.8420	0	26.586	0	234.789	0	-1e10	1	-1e10	1	-1E+10	1	-1e10	1	-1e10	1	-1E+10	1	-1E+10	1	-1E+10	1
4902624	9	C	09/19/2024	10:40	-128.462	47.446	0	237.80	0	6.4173	0	33.8424	0	26.588	0	235.681	0	120.5	4	40.2	4	-1E+10	1	0.0474	4	0.000326	0	-1E+10	1	-1E+10	1	-1E+10	1
4902624	9	C	09/19/2024	10:40	-128.462	47.446	0	239.00	0	6.4030	0	33.8430	0	26.590	0	236.869	0	116.6	4	38.9	4	-1E+10	1	0.0396	4	0.000355	0	-1E+10	1	-1E+10	1	-1E+10	1
4902624	9	C	09/19/2024	10:40	-128.462	47.446	0	240.10	0	6.3860	0	33.8441	0	26.593	0	237.959	0	119.3	4	39.7	4	-1E+10	1	0.0511	4	0.000364	0	-1E+10	1	-1E+10	1	-1E+10	1
4902624	9	C	09/19/2024	10:40	-128.462	47.446	0	241.00	0	6.3720	0	33.8450	0	26.595	0	238.850	0	-1e10	1	-1e10	1	-1E+10	1	-1e10	1	-1e10	1	-1E+10	1	-1E+10	1	-1E+10	1
4902624	9	C	09/19/2024	10:40	-128.462	47.446	0	241.30	0	6.3699	0	33.8453	0	26.596	0	239.148	0	118.8	4	39.6	4	-1E+10	1	0.0511	4	0.000327	0	-1E+10	1	-1E+10	1	-1E+10	1
4902624	9	C	09/19/2024	10:40	-128.462	47.446	0	242.50	0	6.3617	0	33.8466	0	26.598	0	240.336	0	118.3	4	39.4	4	-1E+10	1	0.0511	4	0.000346	0	-1E+10	1	-1E+10	1	-1E+10	1
4902624	9	C	09/19/2024	10:40	-128.462	47.446	0	242.90	0	6.3590	0	33.8470	0	26.599	0	240.732	0	-1e10	1	-1e10	1	-1E+10	1	-1e10	1	-1e10	1	-1E+10	1	-1E+10	1	-1E+10	1
4902624	9	C	09/19/2024	10:40	-128.462	47.446	0	243.60	0	6.3566	0	33.8470	0	26.599	0	241.426	0	117.7	4	39.2	4	-1E+10	1	0.0511	4	0.000336	0	-1E+10	1	-1E+10	1	-1E+10	1
4902624	9	C	09/19/2024	10:40	-128.462	47.446	0	244.70	0	6.3527	0	33.8470	0	26.600	0	242.515	0	117.1	4	39.0	4	-1E+10	1	0.0511	4	0.000336	0	-1E+10	1	-1E+10	1	-1E+10	1
4902624	9	C	09/19/2024	10:40	-128.462	47.446	0	244.90	0	6.3520	0	33.8470	0	26.600	0	242.713	0	-1e10	1	-1e10	1	-1E+10	1	-1e10	1	-1e10	1	-1E+10	1	-1E+10	1	-1E+10	1
4902624	9	C	09/19/2024	10:40	-128.462	47.446	0	245.60	0	6.3423	0	33.8470	0	26.601	0	243.407	0	116.5	4	38.8	4	-1E+10	1	0.0511	4	0.000329	0	-1E+10	1	-1E+10	1	-1E+10	1
4902624	9	C	09/19/2024	10:40	-128.462	47.446	0	246.40	0	6.3313	0	33.8470	0	26.602	0	244.199	0	116.0	4	38.6	4	-1E+10	1	0.0446	4	0.000348	0	-1E+10	1	-1E+10	1	-1E+10	1
4902624	9	C	09/19/2024	10:40	-128.462	47.446	0	247.00	0	6.3230	0	33.8470	0	26.603	0	244.793	0	-1e10	1	-1e10	1	-1E+10	1	-1e10	1	-1e10	1	-1E+10	1	-1E+10	1	-1E+10	1
4902624	9	C	09/19/2024	10:40	-128.462	47.446	0	247.10	0	6.3209	0	33.8471	0	26.604	0	244.892	0	115.4	4	38.4	4	-1E+10	1	0.0365	4	0.000369	0	-1E+10	1	-1E+10	1	-1E+10	1
4902624	9	C	09/19/2024	10:40	-128.462	47.446	0	247.80	0	6.3066	0	33.8478	0	26.606	0	245.586	0	114.9	4	38.2	4	-1E+10	1	0.0365	4	0.000305	0	-1E+10	1	-1E+10	1	-1E+10	1
4902624	9	C	09/19/2024	10:40	-128.462	47.446	0	248.50	0	6.2922	0	33.8486	0	26.609	0	246.279	0	114.4	4	38.0	4	-1E+10	1	0.0511	4	0.000329	0	-1E+10	1	-1E+10	1	-1E+10	1
4902624	9	C	09/19/2024	10:40	-128.462	47.446	0	248.90	0	6.2840	0	33.8490	0	26.610	0	246.675	0	-1e10	1	-1e10	1	-1E+10	1	-1e10	1	-1e10	1	-1E+10	1	-1E+10	1	-1E+10	1
4902624	9	C	09/19/2024	10:40	-128.462	47.446	0	249.20	0	6.2779	0	33.8494	0	26.611	0	246.972	0	113.9	4	37.8	4	-1E+10	1	0.0447	4	0.000329	0	-1E+10	1	-1E+10	1	-1E+10	1
4902624	9	C	09/19/2024	10:40	-128.462	47.446	0	249.90	0	6.2635	0	33.8505	0	26.614	0	247.666	0	113.4	4	37.7	4	-1E+10	1	0.0487	4	0.000360	0	-1E+10	1	-1E+10	1	-1E+10	1
4902624	9	C	09/19/2024	10:40	-128.462	47.446	0	250.60	0	6.2491	0	33.8516	0	26.617	0	248.359	0	113.0	4	37.5	4	-1E+10	1	0.0511	4	0.000314	0	-1E+10	1	-1E+10	1	-1E+10	1
4902624	9	C	09/19/2024	10:40	-128.462	47.446	0	250.90	0	6.2430	0	33.8520	0	26.618	0	248.656	0	-1e10	1	-1e10	1	-1E+10	1	-1e10	1	-1e10	1	-1E+10	1	-1E+10	1	-1E+10	1
4902624	9	C	09/19/2024	10:40	-128.462	47.446	0	251.30	0	6.2365	0	33.8524	0	26.619	0	249.052	0	112.5	4	37.4	4	-1E+10	1	0.0543	4	0.000300	0	-1E+10	1	-1E+10	1	-1E+10	1
4902624	9	C	09/19/2024	10:40	-128.462	47.446	0	252.10	0	6.2234	0	33.8531	0	26.621	0	249.845	0	112.0	4	37.2	4	-1E+10	1	0.0535	4	0.000337	0	-1E+10	1	-1E+10	1	-1E+10	1
4902624	9	C	09/19/2024	10:40	-128.462	47.446	0	252.80	0	6.2119	0	33.8537	0	26.623	0	250.538	0	111.6	4	37.0	4	-1E+10	1	0.0428	4	0.000329	0	-1E+10	1	-1E+10	1	-1E+10	1
4902624	9	C	09/19/2024	10:40	-128.462	47.446	0	253.10	0	6.2070	0	33.8540	0	26.624	0	250.835	0	-1e10	1	-1e10	1	-1E+10	1	-1e10	1	-1e10	1	-1E+10	1	-1E+10	1	-1E+10	1
4902624	9	C	09/19/2024	10:40	-128.462	47.446	0	253.50	0	6.2014	0	33.8544	0	26.625	0	251.231	0	111.2	4	36.9	4	-1E+10	1	0.0365	4	0.000328	0	-1E+10	1	-1E+10	1	-1E+10	1
4902624	9	C	09/19/2024	10:40	-128.462	47.446	0	254.30	0	6.1903	0	33.8553	0	26.627	0	252.024	0	110.9	4	36.8	4	-1E+10	1	0.0365	4	0.000317	0	-1E+10	1	-1E+10	1	-1E+10	1
4902624	9	C	09/19/2024	10:40	-128.462	47.446	0	254.90	0	6.1820	0	33.8560	0	26.629	0	252.618	0	-1e10	1	-1e10	1	-1E+10	1	-1e10	1	-1e10	1	-1E+10	1	-1E+10	1	-1E+10	1
4902624	9	C	09/19/2024	10:40	-128.462	47.446	0	255.00	0	6.1806	0	33.8561	0	26.629	0	252.717	0	110.5	4	36.6	4	-1E+10	1	0.0479	4	0.000354	0	-1E+10	1	-1E+10	1	-1E+10	1
4902624	9	C	09/19/2024	10:40	-128.462	47.446	0	255.80	0	6.1697	0	33.8565	0	26.631	0	253.509	0	109.9	4	36.4	4	-1E+10	1	0.0448	4	0.000324	0	-1E+10	1	-1E+10	1	-1E+10	1
4902624	9	C	09/19/2024	10:40	-128.462	47.446	0	256.50	0	6.1601	0	33.8568	0	26.632	0	254.203	0	109.4	4	36.3	4	-1E+10	1	0.0438	4	0.000331	0	-1E+10	1	-1E+10	1	-1E+10	1
4902624	9	C	09/19/2024	10:40	-128.462	47.446	0	256.80	0	6.1560	0	33.8570	0	26.633	0	254.500	0	-1e10	1	-1e10	1	-1E+10	1	-1e10	1	-1e10	1	-1E+10	1	-1E+10	1	-1E+10	1
4902624	9	C	09/19/2024	10:40	-128.462	47.446	0	257.30	0	6.1478	0	33.8577	0	26.634	0	254.995	0	109.2	4	36.2	4	-1E+10	1	0.0402	4	0.000351	0	-1E+10	1	-1E+10	1	-1E+10	1
4902624	9	C	09/19/2024	10:40	-128.462	47.446	0	258.10	0	6.1347	0	33.8588	0	26.637	0	255.787	0	108.8	4	36.0	4	-1E+10	1	0.0428	4	0.000354	0	-1E+10	1	-1E+10	1	-1E+10	1
4902624	9	C	09/19/2024	10:40	-128.462	47.446	0	258.90	0	6.1216	0	33.8599	0	26.639	0	256.580	0	108.3	4	35.9	4	-1E+10	1	0.0569	4	0.000331	0	-1E+10	1	-1E+10	1	-1E+10	1
4902624	9	C	09/19/2024	10:40	-128.462	47.446	0	259.00	0	6.1200	0	33.8600	0	26.640	0	256.679	0	-1e10	1	-1e10	1	-1E+10	1	-1e10	1	-1e10	1	-1E+10	1	-1E+10	1	-1E+10	1
4902624	9	C	09/19/2024	10:40	-128.462	47.446	0	259.60	0	6.1119	0	33.8606	0	26.641	0	257.273	0	107.8	4	35.7	4	-1E+10	1	0.0635	4	0.000316	0	-1E+10	1	-1E+10	1	-1E+10	1
4902624	9	C	09/19/2024	10:40	-128.462	47.446	0	260.50	0	6.0998	0	33.8615	0	26.643	0	258.164	0	107.4	4	35.6	4	-1E+10	1	0.0438	4	0.000305	0	-1E+10	1	-1E+10	1	-1E+10	1
4902624	9	C	09/19/2024	10:40	-128.462	47.446	0	261.00	0	6.0930	0	33.8620	0	26.645	0	258.660	0	-1e10	1	-1e10	1	-1E+10	1	-1e10	1	-1e10	1	-1E+10	1	-1E+10	1	-1E+10	1
4902624	9	C	09/19/2024	10:40	-128.462	47.446	0	261.30	0	6.0883	0	33.8620	0	26.645	0	258.957	0	106.9	4	35.4	4	-1E+10	1	0.0511	4	0.000329	0	-1E+10	1	-1E+10	1	-1E+10	1
4902624	9	C	09/19/2024	10:40	-128.462	47.446	0	262.10	0	6.0756	0	33.8620	0	26.647	0	259.749	0	106.3	4	35.2	4	-1E+10	1	0.0511	4	0.000310	0	-1E+10	1	-1E+10	1	-1E+10	1
4902624	9	C	09/19/2024	10:40	-128.462	47.446	0	262.90	0	6.0630	0	33.8620	0	26.648	0	260.541	0	102.7	4	34.0	4	-1E+10	1	0.0462	4	0.000305	0	-1E+10	1	-1E+10	1	-1E+10	1
4902624	9	C	09/19/2024	10:40	-128.462	47.446	0	263.70	0	6.0486	0	33.8628	0	26.651	0	261.334	0	104.9	4	34.7	4	-1E+10	1	0.0484	4	0.000687	0	-1E+10	1	-1E+10	1	-1E+10	1
4902624	9	C	09/19/2024	10:40	-128.462	47.446	0	264.50	0	6.0342	0	33.8636	0	26.653	0	262.126	0	104.2	4	34.4	4	-1E+10	1	0.0511	4	0.000599	0	-1E+10	1	-1E+10	1	-1E+10	1
4902624	9	C	09/19/2024	10:40	-128.462	47.446	0	264.90	0	6.0270	0	33.8640	0	26.655	0	262.522	0	-1e10	1	-1e10	1	-1E+10	1	-1e10	1	-1e10	1	-1E+10	1	-1E+10	1	-1E+10	1
4902624	9	C	09/19/2024	10:40	-128.462	47.446	0	265.40	0	6.0249	0	33.8645	0	26.655	0	263.017	0	103.4	4	34.2	4	-1E+10	1	0.0511	4	0.000277	0	-1E+10	1	-1E+10	1	-1E+10	1
4902624	9	C	09/19/2024	10:40	-128.462	47.446	0	266.20	0	6.0214	0	33.8652	0	26.656	0	263.810	0	102.6	4	33.9	4	-1E+10	1	0.0527	4	0.000278	0	-1E+10	1	-1E+10	1	-1E+10	1
4902624	9	C	09/19/2024	10:40	-128.462	47.446	0	267.00	0	6.0180	0	33.8660	0	26.657	0	264.602	0	98.9	4	32.7	4	-1E+10	1	0.0569	4	0.000303	0	-1E+10	1	-1E+10	1	-1E+10	1
4902624	9	C	09/19/2024	10:40	-128.462	47.446	0	267.90	0	6.0123	0	33.8674	0	26.659	0	265.493	0	100.9	4	33.3	4	-1E+10	1	0.0438	4	0.000282	0	-1E+10	1	-1E+10	1	-1E+10	1
4902624	9	C	09/19/2024	10:40	-128.462	47.446	0	268.70	0	6.0073	0	33.8687	0	26.661	0	266.286	0	100.0	4	33.0	4	-1E+10	1	0.0496	4	0.000280	0	-1E+10	1	-1E+10	1	-1E+10	1
4902624	9	C	09/19/2024	10:40	-128.462	47.446	0	268.90	0	6.0060	0	33.8690	0	26.661	0	266.484	0	-1e10	1	-1e10	1	-1E+10	1	-1e10	1	-1e10	1	-1E+10	1	-1E+10	1	-1E+10	1
4902624	9	C	09/19/2024	10:40	-128.462	47.446	0	269.60	0	6.0077	0	33.8710	0	26.663	0	267.177	0	99.4	4	32.8	4	-1E+10	1	0.0383	4	0.000394	0	-1E+10	1	-1E+10	1	-1E+10	1
4902624	9	C	09/19/2024	10:40	-128.462	47.446	0	270.40	0	6.0096	0	33.8733	0	26.664	0	267.969	0	99.1	4	32.7	4	-1E+10	1	0.0467	4	0.000345	0	-1E+10	1	-1E+10	1	-1E+10	1
4902624	9	C	09/19/2024	10:40	-128.462	47.446	0	271.00	0	6.0110	0	33.8750	0	26.665	0	268.563	0	-1e10	1	-1e10	1	-1E+10	1	-1e10	1	-1e10	1	-1E+10	1	-1E+10	1	-1E+10	1
4902624	9	C	09/19/2024	10:40	-128.462	47.446	0	271.30	0	6.0097	0	33.8756	0	26.666	0	268.861	0	98.9	4	32.7	4	-1E+10	1	0.0551	4	0.000311	0	-1E+10	1	-1E+10	1	-1E+10	1
4902624	9	C	09/19/2024	10:40	-128.462	47.446	0	272.10	0	6.0061	0	33.8772	0	26.668	0	269.653	0	98.6	4	32.6	4	-1E+10	1	0.0557	4	0.000310	0	-1E+10	1	-1E+10	1	-1E+10	1
4902624	9	C	09/19/2024	10:40	-128.462	47.446	0	273.00	0	6.0020	0	33.8790	0	26.670	0	270.544	0	95.6	4	31.6	4	-1E+10	1	0.0564	4	0.000338	0	-1E+10	1	-1E+10	1	-1E+10	1
4902624	9	C	09/19/2024	10:40	-128.462	47.446	0	273.90	0	5.9871	0	33.8790	0	26.672	0	271.435	0	98.1	4	32.4	4	-1E+10	1	0.0628	4	0.000357	0	-1E+10	1	-1E+10	1	-1E+10	1
4902624	9	C	09/19/2024	10:40	-128.462	47.446	0	274.70	0	5.9739	0	33.8790	0	26.673	0	272.228	0	97.7	4	32.3	4	-1E+10	1	0.0511	4	0.000282	0	-1E+10	1	-1E+10	1	-1E+10	1
4902624	9	C	09/19/2024	10:40	-128.462	47.446	0	275.00	0	5.9690	0	33.8790	0	26.674	0	272.525	0	-1e10	1	-1e10	1	-1E+10	1	-1e10	1	-1e10	1	-1E+10	1	-1E+10	1	-1E+10	1
4902624	9	C	09/19/2024	10:40	-128.462	47.446	0	275.60	0	5.9624	0	33.8790	0	26.675	0	273.119	0	97.3	4	32.1	4	-1E+10	1	0.0511	4	0.000305	0	-1E+10	1	-1E+10	1	-1E+10	1
4902624	9	C	09/19/2024	10:40	-128.462	47.446	0	276.50	0	5.9525	0	33.8790	0	26.676	0	274.010	0	96.8	4	31.9	4	-1E+10	1	0.0380	4	0.000284	0	-1E+10	1	-1E+10	1	-1E+10	1
4902624	9	C	09/19/2024	10:40	-128.462	47.446	0	277.00	0	5.9470	0	33.8790	0	26.677	0	274.505	0	-1e10	1	-1e10	1	-1E+10	1	-1e10	1	-1e10	1	-1E+10	1	-1E+10	1	-1E+10	1
4902624	9	C	09/19/2024	10:40	-128.462	47.446	0	277.30	0	5.9452	0	33.8790	0	26.677	0	274.803	0	96.3	4	31.8	4	-1E+10	1	0.0458	4	0.000282	0	-1E+10	1	-1E+10	1	-1E+10	1
4902624	9	C	09/19/2024	10:40	-128.462	47.446	0	278.20	0	5.9398	0	33.8790	0	26.677	0	275.694	0	95.7	4	31.6	4	-1E+10	1	0.0511	4	0.000321	0	-1E+10	1	-1E+10	1	-1E+10	1
4902624	9	C	09/19/2024	10:40	-128.462	47.446	0	279.00	0	5.9350	0	33.8790	0	26.678	0	276.486	0	-1e10	1	-1e10	1	-1E+10	1	-1e10	1	-1e10	1	-1E+10	1	-1E+10	1	-1E+10	1
4902624	9	C	09/19/2024	10:40	-128.462	47.446	0	279.10	0	5.9331	0	33.8791	0	26.678	0	276.585	0	95.1	4	31.4	4	-1E+10	1	0.0511	4	0.000317	0	-1E+10	1	-1E+10	1	-1E+10	1
4902624	9	C	09/19/2024	10:40	-128.462	47.446	0	280.00	0	5.9160	0	33.8795	0	26.681	0	277.476	0	94.5	4	31.1	4	-1E+10	1	0.0564	4	0.000290	0	-1E+10	1	-1E+10	1	-1E+10	1
4902624	9	C	09/19/2024	10:40	-128.462	47.446	0	280.90	0	5.8989	0	33.8800	0	26.683	0	278.368	0	93.7	4	30.9	4	-1E+10	1	0.0625	4	0.000292	0	-1E+10	1	-1E+10	1	-1E+10	1
4902624	9	C	09/19/2024	10:40	-128.462	47.446	0	281.00	0	5.8970	0	33.8800	0	26.684	0	278.467	0	-1e10	1	-1e10	1	-1E+10	1	-1e10	1	-1e10	1	-1E+10	1	-1E+10	1	-1E+10	1
4902624	9	C	09/19/2024	10:40	-128.462	47.446	0	281.80	0	5.8778	0	33.8808	0	26.687	0	279.259	0	93.0	4	30.6	4	-1E+10	1	0.0496	4	0.000254	0	-1E+10	1	-1E+10	1	-1E+10	1
4902624	9	C	09/19/2024	10:40	-128.462	47.446	0	282.60	0	5.8586	0	33.8816	0	26.690	0	280.051	0	92.3	4	30.4	4	-1E+10	1	0.0438	4	0.000282	0	-1E+10	1	-1E+10	1	-1E+10	1
4902624	9	C	09/19/2024	10:40	-128.462	47.446	0	283.00	0	5.8490	0	33.8820	0	26.691	0	280.447	0	-1e10	1	-1e10	1	-1E+10	1	-1e10	1	-1e10	1	-1E+10	1	-1E+10	1	-1E+10	1
4902624	9	C	09/19/2024	10:40	-128.462	47.446	0	283.50	0	5.8445	0	33.8825	0	26.692	0	280.943	0	91.5	4	30.1	4	-1E+10	1	0.0498	4	0.000454	0	-1E+10	1	-1E+10	1	-1E+10	1
4902624	9	C	09/19/2024	10:40	-128.462	47.446	0	284.40	0	5.8365	0	33.8835	0	26.694	0	281.834	0	90.5	4	29.8	4	-1E+10	1	0.0511	4	0.000347	0	-1E+10	1	-1E+10	1	-1E+10	1
4902624	9	C	09/19/2024	10:40	-128.462	47.446	0	284.90	0	5.8320	0	33.8840	0	26.695	0	282.329	0	-1e10	1	-1e10	1	-1E+10	1	-1e10	1	-1e10	1	-1E+10	1	-1E+10	1	-1E+10	1
4902624	9	C	09/19/2024	10:40	-128.462	47.446	0	285.30	0	5.8295	0	33.8848	0	26.696	0	282.725	0	89.3	4	29.4	4	-1E+10	1	0.0418	4	0.000260	0	-1E+10	1	-1E+10	1	-1E+10	1
4902624	9	C	09/19/2024	10:40	-128.462	47.446	0	286.20	0	5.8240	0	33.8865	0	26.698	0	283.616	0	88.1	4	29.0	4	-1E+10	1	0.0431	4	0.000283	0	-1E+10	1	-1E+10	1	-1E+10	1
4902624	9	C	09/19/2024	10:40	-128.462	47.446	0	287.00	0	5.8190	0	33.8880	0	26.700	0	284.409	0	-1e10	1	-1e10	1	-1E+10	1	-1e10	1	-1e10	1	-1E+10	1	-1E+10	1	-1E+10	1
4902624	9	C	09/19/2024	10:40	-128.462	47.446	0	287.20	0	5.8227	0	33.8891	0	26.700	0	284.607	0	87.0	4	28.6	4	-1E+10	1	0.0543	4	0.000319	0	-1E+10	1	-1E+10	1	-1E+10	1
4902624	9	C	09/19/2024	10:40	-128.462	47.446	0	288.10	0	5.8394	0	33.8943	0	26.702	0	285.498	0	86.1	4	28.3	4	-1E+10	1	0.0557	4	0.000293	0	-1E+10	1	-1E+10	1	-1E+10	1
4902624	9	C	09/19/2024	10:40	-128.462	47.446	0	289.00	0	5.8561	0	33.8994	0	26.704	0	286.389	0	85.6	4	28.2	4	-1E+10	1	0.0523	4	0.000293	0	-1E+10	1	-1E+10	1	-1E+10	1
4902624	9	C	09/19/2024	10:40	-128.462	47.446	0	289.10	0	5.8580	0	33.9000	0	26.704	0	286.488	0	-1e10	1	-1e10	1	-1E+10	1	-1e10	1	-1e10	1	-1E+10	1	-1E+10	1	-1E+10	1
4902624	9	C	09/19/2024	10:40	-128.462	47.446	0	290.00	0	5.8544	0	33.9009	0	26.705	0	287.379	0	85.2	4	28.0	4	-1E+10	1	0.0584	4	0.000293	0	-1E+10	1	-1E+10	1	-1E+10	1
4902624	9	C	09/19/2024	10:40	-128.462	47.446	0	290.90	0	5.8508	0	33.9018	0	26.707	0	288.271	0	84.7	4	27.9	4	-1E+10	1	0.0438	4	0.000352	0	-1E+10	1	-1E+10	1	-1E+10	1
4902624	9	C	09/19/2024	10:40	-128.462	47.446	0	291.10	0	5.8500	0	33.9020	0	26.707	0	288.469	0	-1e10	1	-1e10	1	-1E+10	1	-1e10	1	-1e10	1	-1E+10	1	-1E+10	1	-1E+10	1
4902624	9	C	09/19/2024	10:40	-128.462	47.446	0	291.80	0	5.8458	0	33.9020	0	26.707	0	289.162	0	84.1	4	27.7	4	-1E+10	1	0.0617	4	0.000323	0	-1E+10	1	-1E+10	1	-1E+10	1
4902624	9	C	09/19/2024	10:40	-128.462	47.446	0	292.70	0	5.8404	0	33.9020	0	26.708	0	290.053	0	83.6	4	27.5	4	-1E+10	1	0.0555	4	0.000292	0	-1E+10	1	-1E+10	1	-1E+10	1
4902624	9	C	09/19/2024	10:40	-128.462	47.446	0	293.10	0	5.8380	0	33.9020	0	26.708	0	290.449	0	-1e10	1	-1e10	1	-1E+10	1	-1e10	1	-1e10	1	-1E+10	1	-1E+10	1	-1E+10	1
4902624	9	C	09/19/2024	10:40	-128.462	47.446	0	293.60	0	5.8327	0	33.9028	0	26.710	0	290.944	0	83.0	4	27.3	4	-1E+10	1	0.0555	4	0.000296	0	-1E+10	1	-1E+10	1	-1E+10	1
4902624	9	C	09/19/2024	10:40	-128.462	47.446	0	294.50	0	5.8233	0	33.9042	0	26.712	0	291.836	0	82.3	4	27.1	4	-1E+10	1	0.0551	4	0.000300	0	-1E+10	1	-1E+10	1	-1E+10	1
4902624	9	C	09/19/2024	10:40	-128.462	47.446	0	295.00	0	5.8180	0	33.9050	0	26.713	0	292.331	0	-1e10	1	-1e10	1	-1E+10	1	-1e10	1	-1e10	1	-1E+10	1	-1E+10	1	-1E+10	1
4902624	9	C	09/19/2024	10:40	-128.462	47.446	0	295.50	0	5.8177	0	33.9061	0	26.714	0	292.826	0	81.7	4	26.9	4	-1E+10	1	0.0543	4	0.000293	0	-1E+10	1	-1E+10	1	-1E+10	1
4902624	9	C	09/19/2024	10:40	-128.462	47.446	0	296.40	0	5.8173	0	33.9079	0	26.716	0	293.717	0	81.3	4	26.8	4	-1E+10	1	0.0555	4	0.000293	0	-1E+10	1	-1E+10	1	-1E+10	1
4902624	9	C	09/19/2024	10:40	-128.462	47.446	0	296.90	0	5.8170	0	33.9090	0	26.717	0	294.212	0	-1e10	1	-1e10	1	-1E+10	1	-1e10	1	-1e10	1	-1E+10	1	-1E+10	1	-1E+10	1
4902624	9	C	09/19/2024	10:40	-128.462	47.446	0	297.40	0	5.8170	0	33.9095	0	26.717	0	294.707	0	81.0	4	26.6	4	-1E+10	1	0.0514	4	0.000294	0	-1E+10	1	-1E+10	1	-1E+10	1
4902624	9	C	09/19/2024	10:40	-128.462	47.446	0	299.00	0	5.8170	0	33.9110	0	26.718	0	296.292	0	-1e10	1	-1e10	1	-1E+10	1	-1e10	1	-1e10	1	-1E+10	1	-1E+10	1	-1E+10	1
4902624	9	C	09/19/2024	10:40	-128.462	47.446	0	304.90	0	5.7630	0	33.9160	0	26.729	0	302.134	0	-1e10	1	-1e10	1	-1E+10	1	-1e10	1	-1e10	1	-1E+10	1	-1E+10	1	-1E+10	1
4902624	9	C	09/19/2024	10:40	-128.462	47.446	0	306.90	0	5.7410	0	33.9174	0	26.733	0	304.114	0	77.7	4	25.5	4	-1E+10	1	0.0582	4	0.000305	0	-1E+10	1	-1E+10	1	-1E+10	1
4902624	9	C	09/19/2024	10:40	-128.462	47.446	0	314.90	0	5.6530	0	33.9230	0	26.748	0	312.036	0	-1e10	1	-1e10	1	-1E+10	1	-1e10	1	-1e10	1	-1E+10	1	-1E+10	1	-1E+10	1
4902624	9	C	09/19/2024	10:40	-128.462	47.446	0	316.80	0	5.6361	0	33.9238	0	26.750	0	313.917	0	75.4	4	24.7	4	-1E+10	1	0.0511	4	0.000303	0	-1E+10	1	-1E+10	1	-1E+10	1
4902624	9	C	09/19/2024	10:40	-128.462	47.446	0	324.80	0	5.5650	0	33.9270	0	26.762	0	321.838	0	-1e10	1	-1e10	1	-1E+10	1	-1e10	1	-1e10	1	-1E+10	1	-1E+10	1	-1E+10	1
4902624	9	C	09/19/2024	10:40	-128.462	47.446	0	327.00	0	5.5470	0	33.9285	0	26.765	0	324.016	0	71.5	4	23.4	4	-1E+10	1	0.0514	4	0.000292	0	-1E+10	1	-1E+10	1	-1E+10	1
4902624	9	C	09/19/2024	10:40	-128.462	47.446	0	334.80	0	5.4830	0	33.9340	0	26.777	0	331.739	0	-1e10	1	-1e10	1	-1E+10	1	-1e10	1	-1e10	1	-1E+10	1	-1E+10	1	-1E+10	1
4902624	9	C	09/19/2024	10:40	-128.462	47.446	0	337.30	0	5.4703	0	33.9362	0	26.780	0	334.214	0	68.5	4	22.4	4	-1E+10	1	0.0581	4	0.000833	0	-1E+10	1	-1E+10	1	-1E+10	1
4902624	9	C	09/19/2024	10:40	-128.462	47.446	0	344.80	0	5.4320	0	33.9430	0	26.790	0	341.639	0	-1e10	1	-1e10	1	-1E+10	1	-1e10	1	-1e10	1	-1E+10	1	-1E+10	1	-1E+10	1
4902624	9	C	09/19/2024	10:40	-128.462	47.446	0	347.80	0	5.4302	0	33.9472	0	26.794	0	344.609	0	63.2	4	20.6	4	-1E+10	1	0.0514	4	0.000257	0	-1E+10	1	-1E+10	1	-1E+10	1
4902624	9	C	09/19/2024	10:40	-128.462	47.446	0	354.90	0	5.4260	0	33.9570	0	26.802	0	351.638	0	-1e10	1	-1e10	1	-1E+10	1	-1e10	1	-1e10	1	-1E+10	1	-1E+10	1	-1E+10	1
4902624	9	C	09/19/2024	10:40	-128.462	47.446	0	358.20	0	5.4125	0	33.9597	0	26.806	0	354.905	0	60.3	4	19.7	4	-1E+10	1	0.0580	4	0.000236	0	-1E+10	1	-1E+10	1	-1E+10	1
4902624	9	C	09/19/2024	10:40	-128.462	47.446	0	364.70	0	5.3860	0	33.9650	0	26.813	0	361.339	0	-1e10	1	-1e10	1	-1E+10	1	-1e10	1	-1e10	1	-1E+10	1	-1E+10	1	-1E+10	1
4902624	9	C	09/19/2024	10:40	-128.462	47.446	0	368.40	0	5.3627	0	33.9672	0	26.818	0	365.002	0	58.1	4	18.9	4	-1E+10	1	0.0514	4	0.000268	0	-1E+10	1	-1E+10	1	-1E+10	1
4902624	9	C	09/19/2024	10:40	-128.462	47.446	0	374.70	0	5.3230	0	33.9710	0	26.826	0	371.238	0	-1e10	1	-1e10	1	-1E+10	1	-1e10	1	-1e10	1	-1E+10	1	-1E+10	1	-1E+10	1
4902624	9	C	09/19/2024	10:40	-128.462	47.446	0	378.80	0	5.2763	0	33.9726	0	26.832	0	375.297	0	56.8	4	18.5	4	-1E+10	1	0.0576	4	0.000237	0	-1E+10	1	-1E+10	1	-1E+10	1
4902624	9	C	09/19/2024	10:40	-128.462	47.446	0	384.80	0	5.2080	0	33.9750	0	26.842	0	381.236	0	-1e10	1	-1e10	1	-1E+10	1	-1e10	1	-1e10	1	-1E+10	1	-1E+10	1	-1E+10	1
4902624	9	C	09/19/2024	10:40	-128.462	47.446	0	389.40	0	5.1807	0	33.9782	0	26.848	0	385.789	0	54.3	4	17.6	4	-1E+10	1	0.0368	4	0.000313	0	-1E+10	1	-1E+10	1	-1E+10	1
4902624	9	C	09/19/2024	10:40	-128.462	47.446	0	394.90	0	5.1480	0	33.9820	0	26.855	0	391.232	0	-1e10	1	-1e10	1	-1E+10	1	-1e10	1	-1e10	1	-1E+10	1	-1E+10	1	-1E+10	1
4902624	9	C	09/19/2024	10:40	-128.462	47.446	0	400.30	0	5.1350	0	33.9858	0	26.859	0	396.577	0	51.6	4	16.7	4	-1E+10	1	0.0445	4	0.000237	0	-1E+10	1	-1E+10	1	-1E+10	1
4902624	9	C	09/19/2024	10:40	-128.462	47.446	0	404.90	0	5.1240	0	33.9890	0	26.863	0	401.130	0	-1e10	1	-1e10	1	-1E+10	1	-1e10	1	-1e10	1	-1E+10	1	-1E+10	1	-1E+10	1
4902624	9	C	09/19/2024	10:40	-128.462	47.446	0	411.50	0	5.0856	0	33.9937	0	26.872	0	407.662	0	49.1	4	15.9	4	-1E+10	1	0.0584	4	0.000301	0	-1E+10	1	-1E+10	1	-1E+10	1
4902624	9	C	09/19/2024	10:40	-128.462	47.446	0	414.70	0	5.0670	0	33.9960	0	26.875	0	410.829	0	-1e10	1	-1e10	1	-1E+10	1	-1e10	1	-1e10	1	-1E+10	1	-1E+10	1	-1E+10	1
4902624	9	C	09/19/2024	10:40	-128.462	47.446	0	423.20	0	4.9921	0	34.0010	0	26.888	0	419.241	0	47.1	4	15.2	4	-1E+10	1	0.0581	4	0.000245	0	-1E+10	1	-1E+10	1	-1E+10	1
4902624	9	C	09/19/2024	10:40	-128.462	47.446	0	424.80	0	4.9780	0	34.0020	0	26.890	0	420.824	0	-1e10	1	-1e10	1	-1E+10	1	-1e10	1	-1e10	1	-1E+10	1	-1E+10	1	-1E+10	1
4902624	9	C	09/19/2024	10:40	-128.462	47.446	0	434.90	0	4.9300	0	34.0060	0	26.899	0	430.819	0	-1e10	1	-1e10	1	-1E+10	1	-1e10	1	-1e10	1	-1E+10	1	-1E+10	1	-1E+10	1
4902624	9	C	09/19/2024	10:40	-128.462	47.446	0	435.10	0	4.9289	0	34.0061	0	26.899	0	431.017	0	45.8	4	14.8	4	-1E+10	1	0.0511	4	0.000232	0	-1E+10	1	-1E+10	1	-1E+10	1
4902624	9	C	09/19/2024	10:40	-128.462	47.446	0	444.80	0	4.8760	0	34.0090	0	26.908	0	440.616	0	-1e10	1	-1e10	1	-1E+10	1	-1e10	1	-1e10	1	-1E+10	1	-1E+10	1	-1E+10	1
4902624	9	C	09/19/2024	10:40	-128.462	47.446	0	447.30	0	4.8706	0	34.0112	0	26.910	0	443.090	0	43.5	4	14.0	4	-1E+10	1	0.0511	4	0.000188	0	-1E+10	1	-1E+10	1	-1E+10	1
4902624	9	C	09/19/2024	10:40	-128.462	47.446	0	455.00	0	4.8540	0	34.0180	0	26.917	0	450.709	0	-1e10	1	-1e10	1	-1E+10	1	-1e10	1	-1e10	1	-1E+10	1	-1E+10	1	-1E+10	1
4902624	9	C	09/19/2024	10:40	-128.462	47.446	0	455.70	0	4.8503	0	34.0184	0	26.918	0	451.402	0	43.2	4	13.9	4	-1E+10	1	0.0511	4	0.000210	0	-1E+10	1	-1E+10	1	-1E+10	1
4902624	9	C	09/19/2024	10:40	-128.462	47.446	0	463.80	0	4.8078	0	34.0224	0	26.926	0	459.416	0	41.2	4	13.2	4	-1E+10	1	0.0514	4	0.000210	0	-1E+10	1	-1E+10	1	-1E+10	1
4902624	9	C	09/19/2024	10:40	-128.462	47.446	0	464.90	0	4.8020	0	34.0230	0	26.927	0	460.505	0	-1e10	1	-1e10	1	-1E+10	1	-1e10	1	-1e10	1	-1E+10	1	-1E+10	1	-1E+10	1
4902624	9	C	09/19/2024	10:40	-128.462	47.446	0	472.20	0	4.7953	0	34.0290	0	26.933	0	467.728	0	39.6	4	12.7	4	-1E+10	1	0.0582	4	0.000209	0	-1E+10	1	-1E+10	1	-1E+10	1
4902624	9	C	09/19/2024	10:40	-128.462	47.446	0	474.70	0	4.7930	0	34.0310	0	26.935	0	470.201	0	-1e10	1	-1e10	1	-1E+10	1	-1e10	1	-1e10	1	-1E+10	1	-1E+10	1	-1E+10	1
4902624	9	C	09/19/2024	10:40	-128.462	47.446	0	481.10	0	4.7779	0	34.0366	0	26.941	0	476.533	0	38.0	4	12.2	4	-1E+10	1	0.0513	4	0.000196	0	-1E+10	1	-1E+10	1	-1E+10	1
4902624	9	C	09/19/2024	10:40	-128.462	47.446	0	484.90	0	4.7690	0	34.0400	0	26.945	0	480.293	0	-1e10	1	-1e10	1	-1E+10	1	-1e10	1	-1e10	1	-1E+10	1	-1E+10	1	-1E+10	1
4902624	9	C	09/19/2024	10:40	-128.462	47.446	0	490.30	0	4.7366	0	34.0427	0	26.950	0	485.635	0	36.6	4	11.8	4	-1E+10	1	0.0587	4	0.000162	0	-1E+10	1	-1E+10	1	-1E+10	1
4902624	9	C	09/19/2024	10:40	-128.462	47.446	0	494.90	0	4.7090	0	34.0450	0	26.955	0	490.186	0	-1e10	1	-1e10	1	-1E+10	1	-1e10	1	-1e10	1	-1E+10	1	-1E+10	1	-1E+10	1
4902624	9	C	09/19/2024	10:40	-128.462	47.446	0	499.60	0	4.7002	0	34.0497	0	26.960	0	494.835	0	34.4	4	11.0	4	-1E+10	1	0.0652	4	0.000151	0	-1E+10	1	-1E+10	1	-1E+10	1
4902624	9	C	09/19/2024	10:40	-128.462	47.446	0	505.00	0	4.6900	0	34.0550	0	26.965	0	500.177	0	-1e10	1	-1e10	1	-1E+10	1	-1e10	1	-1e10	1	-1E+10	1	-1E+10	1	-1E+10	1
4902624	9	C	09/19/2024	10:40	-128.462	47.446	0	509.30	0	4.6774	0	34.0602	0	26.971	0	504.431	0	32.0	4	10.3	4	-1E+10	1	0.0514	4	0.000164	0	-1E+10	1	-1E+10	1	-1E+10	1
4902624	9	C	09/19/2024	10:40	-128.462	47.446	0	514.90	0	4.6610	0	34.0670	0	26.978	0	509.971	0	-1e10	1	-1e10	1	-1E+10	1	-1e10	1	-1e10	1	-1E+10	1	-1E+10	1	-1E+10	1
4902624	9	C	09/19/2024	10:40	-128.462	47.446	0	519.10	0	4.6644	0	34.0721	0	26.982	0	514.125	0	29.7	4	9.5	4	-1E+10	1	0.0581	4	0.000201	0	-1E+10	1	-1E+10	1	-1E+10	1
4902624	9	C	09/19/2024	10:40	-128.462	47.446	0	524.80	0	4.6690	0	34.0790	0	26.987	0	519.764	0	-1e10	1	-1e10	1	-1E+10	1	-1e10	1	-1e10	1	-1E+10	1	-1E+10	1	-1E+10	1
4902624	9	C	09/19/2024	10:40	-128.462	47.446	0	528.90	0	4.6565	0	34.0818	0	26.990	0	523.819	0	28.3	4	9.1	4	-1E+10	1	0.0514	4	0.000286	0	-1E+10	1	-1E+10	1	-1E+10	1
4902624	9	C	09/19/2024	10:40	-128.462	47.446	0	535.00	0	4.6380	0	34.0860	0	26.996	0	529.853	0	-1e10	1	-1e10	1	-1E+10	1	-1e10	1	-1e10	1	-1E+10	1	-1E+10	1	-1E+10	1
4902624	9	C	09/19/2024	10:40	-128.462	47.446	0	538.70	0	4.6249	0	34.0885	0	26.999	0	533.512	0	27.0	4	8.7	4	-1E+10	1	0.0584	4	0.000172	0	-1E+10	1	-1E+10	1	-1E+10	1
4902624	9	C	09/19/2024	10:40	-128.462	47.446	0	545.20	0	4.6020	0	34.0930	0	27.005	0	539.941	0	-1e10	1	-1e10	1	-1E+10	1	-1e10	1	-1e10	1	-1E+10	1	-1E+10	1	-1E+10	1
4902624	9	C	09/19/2024	10:40	-128.462	47.446	0	548.60	0	4.5888	0	34.0954	0	27.009	0	543.304	0	25.8	4	8.2	4	-1E+10	1	0.0587	4	0.000128	0	-1E+10	1	-1E+10	1	-1E+10	1
4902624	9	C	09/19/2024	10:40	-128.462	47.446	0	555.00	0	4.5640	0	34.1000	0	27.015	0	549.634	0	-1e10	1	-1e10	1	-1E+10	1	-1e10	1	-1e10	1	-1E+10	1	-1E+10	1	-1E+10	1
4902624	9	C	09/19/2024	10:40	-128.462	47.446	0	558.50	0	4.5474	0	34.1028	0	27.019	0	553.095	0	24.3	4	7.8	4	-1E+10	1	0.0654	4	0.000162	0	-1E+10	1	-1E+10	1	-1E+10	1
4902624	9	C	09/19/2024	10:40	-128.462	47.446	0	564.90	0	4.5170	0	34.1080	0	27.027	0	559.425	0	-1e10	1	-1e10	1	-1E+10	1	-1e10	1	-1e10	1	-1E+10	1	-1E+10	1	-1E+10	1
4902624	9	C	09/19/2024	10:40	-128.462	47.446	0	568.60	0	4.4998	0	34.1102	0	27.030	0	563.084	0	23.2	4	7.4	4	-1E+10	1	0.0581	4	0.000162	0	-1E+10	1	-1E+10	1	-1E+10	1
4902624	9	C	09/19/2024	10:40	-128.462	47.446	0	575.00	0	4.4700	0	34.1140	0	27.037	0	569.413	0	-1e10	1	-1e10	1	-1E+10	1	-1e10	1	-1e10	1	-1E+10	1	-1E+10	1	-1E+10	1
4902624	9	C	09/19/2024	10:40	-128.462	47.446	0	578.70	0	4.4526	0	34.1158	0	27.040	0	573.072	0	22.1	4	7.1	4	-1E+10	1	0.0517	4	0.000173	0	-1E+10	1	-1E+10	1	-1E+10	1
4902624	9	C	09/19/2024	10:40	-128.462	47.446	0	585.00	0	4.4230	0	34.1190	0	27.046	0	579.302	0	-1e10	1	-1e10	1	-1E+10	1	-1e10	1	-1e10	1	-1E+10	1	-1E+10	1	-1E+10	1
4902624	9	C	09/19/2024	10:40	-128.462	47.446	0	588.90	0	4.4153	0	34.1225	0	27.049	0	583.159	0	20.9	4	6.7	4	-1E+10	1	0.0648	4	0.000161	0	-1E+10	1	-1E+10	1	-1E+10	1
4902624	9	C	09/19/2024	10:40	-128.462	47.446	0	595.10	0	4.4030	0	34.1280	0	27.055	0	589.289	0	-1e10	1	-1e10	1	-1E+10	1	-1e10	1	-1e10	1	-1E+10	1	-1E+10	1	-1E+10	1
4902624	9	C	09/19/2024	10:40	-128.462	47.446	0	599.10	0	4.3970	0	34.1328	0	27.060	0	593.245	0	19.2	4	6.1	4	-1E+10	1	0.0444	4	0.000150	0	-1E+10	1	-1E+10	1	-1E+10	1
4902624	9	C	09/19/2024	10:40	-128.462	47.446	0	605.10	0	4.3880	0	34.1400	0	27.066	0	599.177	0	-1e10	1	-1e10	1	-1E+10	1	-1e10	1	-1e10	1	-1E+10	1	-1E+10	1	-1E+10	1
4902624	9	C	09/19/2024	10:40	-128.462	47.446	0	609.20	0	4.3742	0	34.1449	0	27.072	0	603.231	0	17.8	4	5.7	4	-1E+10	1	0.0584	4	0.000162	0	-1E+10	1	-1E+10	1	-1E+10	1
4902624	9	C	09/19/2024	10:40	-128.462	47.446	0	615.20	0	4.3540	0	34.1520	0	27.080	0	609.164	0	-1e10	1	-1e10	1	-1E+10	1	-1e10	1	-1e10	1	-1E+10	1	-1E+10	1	-1E+10	1
4902624	9	C	09/19/2024	10:40	-128.462	47.446	0	619.40	0	4.3461	0	34.1574	0	27.085	0	613.316	0	16.3	4	5.2	4	-1E+10	1	0.0584	4	0.000183	0	-1E+10	1	-1E+10	1	-1E+10	1
4902624	9	C	09/19/2024	10:40	-128.462	47.446	0	625.30	0	4.3350	0	34.1650	0	27.092	0	619.150	0	-1e10	1	-1e10	1	-1E+10	1	-1e10	1	-1e10	1	-1E+10	1	-1E+10	1	-1E+10	1
4902624	9	C	09/19/2024	10:40	-128.462	47.446	0	629.90	0	4.3180	0	34.1678	0	27.096	0	623.697	0	15.5	4	4.9	4	-1E+10	1	0.0581	4	0.000160	0	-1E+10	1	-1E+10	1	-1E+10	1
4902624	9	C	09/19/2024	10:40	-128.462	47.446	0	635.30	0	4.2980	0	34.1710	0	27.101	0	629.036	0	-1e10	1	-1e10	1	-1E+10	1	-1e10	1	-1e10	1	-1E+10	1	-1E+10	1	-1E+10	1
4902624	9	C	09/19/2024	10:40	-128.462	47.446	0	640.60	0	4.2943	0	34.1764	0	27.105	0	634.276	0	14.6	4	4.6	4	-1E+10	1	0.0511	4	0.000148	0	-1E+10	1	-1E+10	1	-1E+10	1
4902624	9	C	09/19/2024	10:40	-128.462	47.446	0	645.20	0	4.2910	0	34.1810	0	27.109	0	638.823	0	-1e10	1	-1e10	1	-1E+10	1	-1e10	1	-1e10	1	-1E+10	1	-1E+10	1	-1E+10	1
4902624	9	C	09/19/2024	10:40	-128.462	47.446	0	651.60	0	4.2651	0	34.1849	0	27.115	0	645.150	0	14.0	4	4.4	4	-1E+10	1	0.0521	4	0.000127	0	-1E+10	1	-1E+10	1	-1E+10	1
4902624	9	C	09/19/2024	10:40	-128.462	47.446	0	655.10	0	4.2510	0	34.1870	0	27.118	0	648.610	0	-1e10	1	-1e10	1	-1E+10	1	-1e10	1	-1e10	1	-1E+10	1	-1E+10	1	-1E+10	1
4902624	9	C	09/19/2024	10:40	-128.462	47.446	0	662.90	0	4.2565	0	34.1949	0	27.124	0	656.321	0	13.0	4	4.1	4	-1E+10	1	0.0790	4	0.000171	0	-1E+10	1	-1E+10	1	-1E+10	1
4902624	9	C	09/19/2024	10:40	-128.462	47.446	0	665.00	0	4.2580	0	34.1970	0	27.126	0	658.396	0	-1e10	1	-1e10	1	-1E+10	1	-1e10	1	-1e10	1	-1E+10	1	-1E+10	1	-1E+10	1
4902624	9	C	09/19/2024	10:40	-128.462	47.446	0	674.40	0	4.2430	0	34.2045	0	27.133	0	667.688	0	12.3	4	3.9	4	-1E+10	1	0.0509	4	0.000138	0	-1E+10	1	-1E+10	1	-1E+10	1
4902624	9	C	09/19/2024	10:40	-128.462	47.446	0	675.00	0	4.2420	0	34.2050	0	27.134	0	668.281	0	-1e10	1	-1e10	1	-1E+10	1	-1e10	1	-1e10	1	-1E+10	1	-1E+10	1	-1E+10	1
4902624	9	C	09/19/2024	10:40	-128.462	47.446	0	684.90	0	4.2150	0	34.2140	0	27.144	0	678.066	0	-1e10	1	-1e10	1	-1E+10	1	-1e10	1	-1e10	1	-1E+10	1	-1E+10	1	-1E+10	1
4902624	9	C	09/19/2024	10:40	-128.462	47.446	0	686.30	0	4.2123	0	34.2154	0	27.145	0	679.450	0	11.7	4	3.7	4	-1E+10	1	0.0447	4	0.000159	0	-1E+10	1	-1E+10	1	-1E+10	1
4902624	9	C	09/19/2024	10:40	-128.462	47.446	0	694.60	0	4.1966	0	34.2237	0	27.154	0	687.654	0	11.3	4	3.6	4	-1E+10	1	0.0589	4	0.000149	0	-1E+10	1	-1E+10	1	-1E+10	1
4902624	9	C	09/19/2024	10:40	-128.462	47.446	0	694.90	0	4.1960	0	34.2240	0	27.154	0	687.950	0	-1e10	1	-1e10	1	-1E+10	1	-1e10	1	-1e10	1	-1E+10	1	-1E+10	1	-1E+10	1
4902624	9	C	09/19/2024	10:40	-128.462	47.446	0	702.70	0	4.1535	0	34.2286	0	27.162	0	695.659	0	11.1	4	3.5	4	-1E+10	1	0.0730	4	0.000170	0	-1E+10	1	-1E+10	1	-1E+10	1
4902624	9	C	09/19/2024	10:40	-128.462	47.446	0	705.00	0	4.1410	0	34.2300	0	27.165	0	697.932	0	-1e10	1	-1e10	1	-1E+10	1	-1e10	1	-1e10	1	-1E+10	1	-1E+10	1	-1E+10	1
4902624	9	C	09/19/2024	10:40	-128.462	47.446	0	710.90	0	4.1198	0	34.2347	0	27.171	0	703.763	0	10.7	4	3.4	4	-1E+10	1	0.0723	4	0.000137	0	-1E+10	1	-1E+10	1	-1E+10	1
4902624	9	C	09/19/2024	10:40	-128.462	47.446	0	715.00	0	4.1050	0	34.2380	0	27.175	0	707.815	0	-1e10	1	-1e10	1	-1E+10	1	-1e10	1	-1e10	1	-1E+10	1	-1E+10	1	-1E+10	1
4902624	9	C	09/19/2024	10:40	-128.462	47.446	0	719.30	0	4.1080	0	34.2423	0	27.178	0	712.064	0	10.2	4	3.2	4	-1E+10	1	0.0579	4	0.000148	0	-1E+10	1	-1E+10	1	-1E+10	1
4902624	9	C	09/19/2024	10:40	-128.462	47.446	0	725.10	0	4.1120	0	34.2480	0	27.182	0	717.796	0	-1e10	1	-1e10	1	-1E+10	1	-1e10	1	-1e10	1	-1E+10	1	-1E+10	1	-1E+10	1
4902624	9	C	09/19/2024	10:40	-128.462	47.446	0	728.10	0	4.0937	0	34.2477	0	27.184	0	720.761	0	10.2	4	3.2	4	-1E+10	1	0.0443	4	0.000159	0	-1E+10	1	-1E+10	1	-1E+10	1
4902624	9	C	09/19/2024	10:40	-128.462	47.446	0	735.10	0	4.0510	0	34.2470	0	27.188	0	727.678	0	-1e10	1	-1e10	1	-1E+10	1	-1e10	1	-1e10	1	-1E+10	1	-1E+10	1	-1E+10	1
4902624	9	C	09/19/2024	10:40	-128.462	47.446	0	737.20	0	4.0510	0	34.2491	0	27.189	0	729.753	0	9.9	4	3.1	4	-1E+10	1	0.0587	4	0.000136	0	-1E+10	1	-1E+10	1	-1E+10	1
4902624	9	C	09/19/2024	10:40	-128.462	47.446	0	745.00	0	4.0510	0	34.2570	0	27.196	0	737.461	0	-1e10	1	-1e10	1	-1E+10	1	-1e10	1	-1e10	1	-1E+10	1	-1E+10	1	-1E+10	1
4902624	9	C	09/19/2024	10:40	-128.462	47.446	0	746.40	0	4.0463	0	34.2577	0	27.197	0	738.844	0	9.6	4	3.0	4	-1E+10	1	0.0654	4	0.000137	0	-1E+10	1	-1E+10	1	-1E+10	1
4902624	9	C	09/19/2024	10:40	-128.462	47.446	0	755.10	0	4.0170	0	34.2620	0	27.203	0	747.440	0	-1e10	1	-1e10	1	-1E+10	1	-1e10	1	-1e10	1	-1E+10	1	-1E+10	1	-1E+10	1
4902624	9	C	09/19/2024	10:40	-128.462	47.446	0	755.70	0	4.0150	0	34.2625	0	27.204	0	748.033	0	9.4	4	3.0	4	-1E+10	1	0.0578	4	0.000147	0	-1E+10	1	-1E+10	1	-1E+10	1
4902624	9	C	09/19/2024	10:40	-128.462	47.446	0	765.10	0	3.9830	0	34.2700	0	27.213	0	757.321	0	-1e10	1	-1e10	1	-1E+10	1	-1e10	1	-1e10	1	-1E+10	1	-1E+10	1	-1E+10	1
4902624	9	C	09/19/2024	10:40	-128.462	47.446	0	765.20	0	3.9833	0	34.2701	0	27.213	0	757.419	0	8.9	4	2.8	4	-1E+10	1	0.0440	4	0.000137	0	-1E+10	1	-1E+10	1	-1E+10	1
4902624	9	C	09/19/2024	10:40	-128.462	47.446	0	774.90	0	4.0110	0	34.2840	0	27.221	0	767.003	0	8.3	4	2.6	4	-1E+10	1	0.0514	4	0.000169	0	-1E+10	1	-1E+10	1	-1E+10	1
4902624	9	C	09/19/2024	10:40	-128.462	47.446	0	784.60	0	3.9708	0	34.2850	0	27.226	0	776.586	0	8.5	4	2.7	4	-1E+10	1	0.0587	4	0.000137	0	-1E+10	1	-1E+10	1	-1E+10	1
4902624	9	C	09/19/2024	10:40	-128.462	47.446	0	784.80	0	3.9700	0	34.2850	0	27.226	0	776.784	0	-1e10	1	-1e10	1	-1E+10	1	-1e10	1	-1e10	1	-1E+10	1	-1E+10	1	-1E+10	1
4902624	9	C	09/19/2024	10:40	-128.462	47.446	0	794.30	0	3.9550	0	34.2925	0	27.234	0	786.169	0	8.1	4	2.6	4	-1E+10	1	0.0654	4	0.000161	0	-1E+10	1	-1E+10	1	-1E+10	1
4902624	9	C	09/19/2024	10:40	-128.462	47.446	0	794.90	0	3.9540	0	34.2930	0	27.235	0	786.762	0	-1e10	1	-1e10	1	-1E+10	1	-1e10	1	-1e10	1	-1E+10	1	-1E+10	1	-1E+10	1
4902624	9	C	09/19/2024	10:40	-128.462	47.446	0	804.30	0	3.9408	0	34.3005	0	27.242	0	796.047	0	8.0	4	2.5	4	-1E+10	1	0.0584	4	0.000203	0	-1E+10	1	-1E+10	1	-1E+10	1
4902624	9	C	09/19/2024	10:40	-128.462	47.446	0	804.90	0	3.9400	0	34.3010	0	27.242	0	796.640	0	-1e10	1	-1e10	1	-1E+10	1	-1e10	1	-1e10	1	-1E+10	1	-1E+10	1	-1E+10	1
4902624	9	C	09/19/2024	10:40	-128.462	47.446	0	814.60	0	3.9342	0	34.3117	0	27.252	0	806.222	0	7.8	4	2.5	4	-1E+10	1	0.0587	4	0.000148	0	-1E+10	1	-1E+10	1	-1E+10	1
4902624	9	C	09/19/2024	10:40	-128.462	47.446	0	814.90	0	3.9340	0	34.3120	0	27.252	0	806.518	0	-1e10	1	-1e10	1	-1E+10	1	-1e10	1	-1e10	1	-1E+10	1	-1E+10	1	-1E+10	1
4902624	9	C	09/19/2024	10:40	-128.462	47.446	0	824.90	0	3.8620	0	34.3130	0	27.260	0	816.396	0	7.8	4	2.5	4	-1E+10	1	0.0659	4	0.000159	0	-1E+10	1	-1E+10	1	-1E+10	1
4902624	9	C	09/19/2024	10:40	-128.462	47.446	0	834.90	0	3.8090	0	34.3150	0	27.267	0	826.273	0	-1e10	1	-1e10	1	-1E+10	1	-1e10	1	-1e10	1	-1E+10	1	-1E+10	1	-1E+10	1
4902624	9	C	09/19/2024	10:40	-128.462	47.446	0	835.60	0	3.8073	0	34.3153	0	27.267	0	826.964	0	7.9	4	2.5	4	-1E+10	1	0.0727	4	0.000158	0	-1E+10	1	-1E+10	1	-1E+10	1
4902624	9	C	09/19/2024	10:40	-128.462	47.446	0	844.90	0	3.7850	0	34.3200	0	27.273	0	836.150	0	-1e10	1	-1e10	1	-1E+10	1	-1e10	1	-1e10	1	-1E+10	1	-1E+10	1	-1E+10	1
4902624	9	C	09/19/2024	10:40	-128.462	47.446	0	846.40	0	3.7810	0	34.3208	0	27.274	0	837.631	0	7.9	4	2.5	4	-1E+10	1	0.0652	4	0.000135	0	-1E+10	1	-1E+10	1	-1E+10	1
4902624	9	C	09/19/2024	10:40	-128.462	47.446	0	854.90	0	3.7580	0	34.3250	0	27.280	0	846.026	0	-1e10	1	-1e10	1	-1E+10	1	-1e10	1	-1e10	1	-1E+10	1	-1E+10	1	-1E+10	1
4902624	9	C	09/19/2024	10:40	-128.462	47.446	0	857.30	0	3.7546	0	34.3260	0	27.281	0	848.396	0	7.8	4	2.4	4	-1E+10	1	0.0514	4	0.000147	0	-1E+10	1	-1E+10	1	-1E+10	1
4902624	9	C	09/19/2024	10:40	-128.462	47.446	0	864.90	0	3.7440	0	34.3290	0	27.285	0	855.902	0	-1e10	1	-1e10	1	-1E+10	1	-1e10	1	-1e10	1	-1E+10	1	-1E+10	1	-1E+10	1
4902624	9	C	09/19/2024	10:40	-128.462	47.446	0	868.60	0	3.7376	0	34.3309	0	27.287	0	859.555	0	12.9	4	4.0	4	-1E+10	1	0.0581	4	0.000158	0	-1E+10	1	-1E+10	1	-1E+10	1
4902624	9	C	09/19/2024	10:40	-128.462	47.446	0	874.70	0	3.7270	0	34.3340	0	27.290	0	865.579	0	-1e10	1	-1e10	1	-1E+10	1	-1e10	1	-1e10	1	-1E+10	1	-1E+10	1	-1E+10	1
4902624	9	C	09/19/2024	10:40	-128.462	47.446	0	880.30	0	3.7211	0	34.3356	0	27.292	0	871.109	0	41.3	4	13.0	4	-1E+10	1	0.0517	4	0.000146	0	-1E+10	1	-1E+10	1	-1E+10	1
4902624	9	C	09/19/2024	10:40	-128.462	47.446	0	885.10	0	3.7160	0	34.3370	0	27.294	0	875.849	0	-1e10	1	-1e10	1	-1E+10	1	-1e10	1	-1e10	1	-1E+10	1	-1E+10	1	-1E+10	1
4902624	9	C	09/19/2024	10:40	-128.462	47.446	0	892.30	0	3.7025	0	34.3406	0	27.298	0	882.959	0	46.3	4	14.5	4	-1E+10	1	0.0654	4	0.000145	0	-1E+10	1	-1E+10	1	-1E+10	1
4902624	9	C	09/19/2024	10:40	-128.462	47.446	0	895.20	0	3.6970	0	34.3420	0	27.300	0	885.822	0	-1e10	1	-1e10	1	-1E+10	1	-1e10	1	-1e10	1	-1E+10	1	-1E+10	1	-1E+10	1
4902624	9	C	09/19/2024	10:40	-128.462	47.446	0	903.20	0	3.6865	0	34.3452	0	27.304	0	893.721	0	42.9	4	13.5	4	-1E+10	1	0.0584	4	0.000124	0	-1E+10	1	-1E+10	1	-1E+10	1
4902624	9	C	09/19/2024	10:40	-128.462	47.446	0	905.10	0	3.6840	0	34.3460	0	27.304	0	895.597	0	-1e10	1	-1e10	1	-1E+10	1	-1e10	1	-1e10	1	-1E+10	1	-1E+10	1	-1E+10	1
4902624	9	C	09/19/2024	10:40	-128.462	47.446	0	911.10	0	3.6743	0	34.3484	0	27.307	0	901.521	0	57.9	4	18.2	4	-1E+10	1	0.0584	4	0.000158	0	-1E+10	1	-1E+10	1	-1E+10	1
4902624	9	C	09/19/2024	10:40	-128.462	47.446	0	915.00	0	3.6680	0	34.3500	0	27.309	0	905.372	0	-1e10	1	-1e10	1	-1E+10	1	-1e10	1	-1e10	1	-1E+10	1	-1E+10	1	-1E+10	1
4902624	9	C	09/19/2024	10:40	-128.462	47.446	0	919.20	0	3.6611	0	34.3517	0	27.311	0	909.519	0	65.9	4	20.7	4	-1E+10	1	0.0584	4	0.000168	0	-1E+10	1	-1E+10	1	-1E+10	1
4902624	9	C	09/19/2024	10:40	-128.462	47.446	0	924.80	0	3.6520	0	34.3540	0	27.314	0	915.047	0	-1e10	1	-1e10	1	-1E+10	1	-1e10	1	-1e10	1	-1E+10	1	-1E+10	1	-1E+10	1
4902624	9	C	09/19/2024	10:40	-128.462	47.446	0	927.60	0	3.6478	0	34.3548	0	27.315	0	917.812	0	65.0	4	20.4	4	-1E+10	1	0.0577	4	0.000146	0	-1E+10	1	-1E+10	1	-1E+10	1
4902624	9	C	09/19/2024	10:40	-128.462	47.446	0	934.90	0	3.6370	0	34.3570	0	27.318	0	925.019	0	-1e10	1	-1e10	1	-1E+10	1	-1e10	1	-1e10	1	-1E+10	1	-1E+10	1	-1E+10	1
4902624	9	C	09/19/2024	10:40	-128.462	47.446	0	936.10	0	3.6339	0	34.3576	0	27.319	0	926.203	0	63.9	4	20.0	4	-1E+10	1	0.0438	4	0.000154	0	-1E+10	1	-1E+10	1	-1E+10	1
4902624	9	C	09/19/2024	10:40	-128.462	47.446	0	944.90	0	3.6115	0	34.3619	0	27.325	0	934.891	0	60.6	4	19.0	4	-1E+10	1	0.0441	4	0.000387	0	-1E+10	1	-1E+10	1	-1E+10	1
4902624	9	C	09/19/2024	10:40	-128.462	47.446	0	945.10	0	3.6110	0	34.3620	0	27.325	0	935.088	0	-1e10	1	-1e10	1	-1E+10	1	-1e10	1	-1e10	1	-1E+10	1	-1E+10	1	-1E+10	1
4902624	9	C	09/19/2024	10:40	-128.462	47.446	0	953.90	0	3.5908	0	34.3673	0	27.331	0	943.775	0	55.6	4	17.4	4	-1E+10	1	0.0517	4	0.000279	0	-1E+10	1	-1E+10	1	-1E+10	1
4902624	9	C	09/19/2024	10:40	-128.462	47.446	0	955.10	0	3.5880	0	34.3680	0	27.332	0	944.959	0	-1e10	1	-1e10	1	-1E+10	1	-1e10	1	-1e10	1	-1E+10	1	-1E+10	1	-1E+10	1
4902624	9	C	09/19/2024	10:40	-128.462	47.446	0	963.00	0	3.5760	0	34.3704	0	27.335	0	952.758	0	55.8	4	17.5	4	-1E+10	1	0.0652	4	0.000134	0	-1E+10	1	-1E+10	1	-1E+10	1
4902624	9	C	09/19/2024	10:40	-128.462	47.446	0	965.00	0	3.5730	0	34.3710	0	27.336	0	954.732	0	-1e10	1	-1e10	1	-1E+10	1	-1e10	1	-1e10	1	-1E+10	1	-1E+10	1	-1E+10	1
4902624	9	C	09/19/2024	10:40	-128.462	47.446	0	972.20	0	3.5650	0	34.3739	0	27.339	0	961.839	0	55.2	4	17.3	4	-1E+10	1	0.0514	4	0.000158	0	-1E+10	1	-1E+10	1	-1E+10	1
4902624	9	C	09/19/2024	10:40	-128.462	47.446	0	974.90	0	3.5620	0	34.3750	0	27.340	0	964.504	0	-1e10	1	-1e10	1	-1E+10	1	-1e10	1	-1e10	1	-1E+10	1	-1E+10	1	-1E+10	1
4902624	9	C	09/19/2024	10:40	-128.462	47.446	0	981.40	0	3.5502	0	34.3770	0	27.343	0	970.919	0	54.2	4	16.9	4	-1E+10	1	0.0586	4	0.000191	0	-1E+10	1	-1E+10	1	-1E+10	1
4902624	9	C	09/19/2024	10:40	-128.462	47.446	0	984.80	0	3.5440	0	34.3780	0	27.344	0	974.275	0	-1e10	1	-1e10	1	-1E+10	1	-1e10	1	-1e10	1	-1E+10	1	-1E+10	1	-1E+10	1
4902624	9	C	09/19/2024	10:40	-128.462	47.446	0	990.70	0	3.5263	0	34.3809	0	27.348	0	980.098	0	54.0	4	16.9	4	-1E+10	1	0.0654	4	0.000156	0	-1E+10	1	-1E+10	1	-1E+10	1
4902624	9	C	09/19/2024	10:40	-128.462	47.446	0	994.80	0	3.5140	0	34.3830	0	27.351	0	984.145	0	-1e10	1	-1e10	1	-1E+10	1	-1e10	1	-1e10	1	-1E+10	1	-1E+10	1	-1E+10	1
4902624	9	C	09/19/2024	10:40	-128.462	47.446	0	1000.80	0	3.5018	0	34.3856	0	27.354	0	990.066	0	51.0	4	15.9	4	-1E+10	1	0.0586	4	0.000145	0	-1E+10	1	-1E+10	1	-1E+10	1
4902624	9	C	09/19/2024	10:40	-128.462	47.446	0	1019.30	0	3.4643	0	34.3936	0	27.364	0	1008.323	0	50.4	4	15.7	4	-1E+10	1	0.0727	4	0.000145	0	-1E+10	1	-1E+10	1	-1E+10	1
4902624	9	C	09/19/2024	10:40	-128.462	47.446	0	1024.90	0	3.4530	0	34.3960	0	27.368	0	1013.850	0	-1e10	1	-1e10	1	-1E+10	1	-1e10	1	-1e10	1	-1E+10	1	-1E+10	1	-1E+10	1
4902624	9	C	09/19/2024	10:40	-128.462	47.446	0	1038.10	0	3.4210	0	34.4012	0	27.375	0	1026.875	0	41.3	4	12.9	4	-1E+10	1	0.0582	4	0.000167	0	-1E+10	1	-1E+10	1	-1E+10	1
4902624	9	C	09/19/2024	10:40	-128.462	47.446	0	1057.30	0	3.3744	0	34.4089	0	27.385	0	1045.820	0	53.3	4	16.6	4	-1E+10	1	0.0514	4	0.000132	0	-1E+10	1	-1E+10	1	-1E+10	1
4902624	9	C	09/19/2024	10:40	-128.462	47.446	0	1075.20	0	3.3310	0	34.4160	0	27.395	0	1063.480	0	-1e10	1	-1e10	1	-1E+10	1	-1e10	1	-1e10	1	-1E+10	1	-1E+10	1	-1E+10	1
4902624	9	C	09/19/2024	10:40	-128.462	47.446	0	1077.10	0	3.3262	0	34.4166	0	27.396	0	1065.354	0	56.0	4	17.4	4	-1E+10	1	0.0656	4	0.000144	0	-1E+10	1	-1E+10	1	-1E+10	1
4902624	9	C	09/19/2024	10:40	-128.462	47.446	0	1097.50	0	3.2749	0	34.4231	0	27.406	0	1085.479	0	66.4	4	20.6	4	-1E+10	1	0.0584	4	0.000143	0	-1E+10	1	-1E+10	1	-1E+10	1
4902624	9	C	09/19/2024	10:40	-128.462	47.446	0	1118.40	0	3.2224	0	34.4298	0	27.417	0	1106.095	0	63.0	4	19.6	4	-1E+10	1	0.0584	4	0.000134	0	-1E+10	1	-1E+10	1	-1E+10	1
4902624	9	C	09/19/2024	10:40	-128.462	47.446	0	1125.30	0	3.2050	0	34.4320	0	27.420	0	1112.901	0	-1e10	1	-1e10	1	-1E+10	1	-1e10	1	-1e10	1	-1E+10	1	-1E+10	1	-1E+10	1
4902624	9	C	09/19/2024	10:40	-128.462	47.446	0	1140.30	0	3.1706	0	34.4362	0	27.427	0	1127.695	0	61.9	4	19.2	4	-1E+10	1	0.0582	4	0.000235	0	-1E+10	1	-1E+10	1	-1E+10	1
4902624	9	C	09/19/2024	10:40	-128.462	47.446	0	1163.30	0	3.1178	0	34.4426	0	27.437	0	1150.378	0	63.6	4	19.7	4	-1E+10	1	0.0511	4	0.000154	0	-1E+10	1	-1E+10	1	-1E+10	1
4902624	9	C	09/19/2024	10:40	-128.462	47.446	0	1175.40	0	3.0900	0	34.4460	0	27.442	0	1162.310	0	-1e10	1	-1e10	1	-1E+10	1	-1e10	1	-1e10	1	-1E+10	1	-1E+10	1	-1E+10	1
4902624	9	C	09/19/2024	10:40	-128.462	47.446	0	1180.10	0	3.0808	0	34.4472	0	27.444	0	1166.945	0	55.0	4	17.0	4	-1E+10	1	0.0513	4	0.000154	0	-1E+10	1	-1E+10	1	-1E+10	1
4902624	9	C	09/19/2024	10:40	-128.462	47.446	0	1197.00	0	3.0477	0	34.4513	0	27.450	0	1183.609	0	58.4	4	18.0	4	-1E+10	1	0.0582	4	0.000165	0	-1E+10	1	-1E+10	1	-1E+10	1
4902624	9	C	09/19/2024	10:40	-128.462	47.446	0	1214.40	0	3.0136	0	34.4556	0	27.457	0	1200.765	0	60.6	4	18.7	4	-1E+10	1	0.0513	4	0.000142	0	-1E+10	1	-1E+10	1	-1E+10	1
4902624	9	C	09/19/2024	10:40	-128.462	47.446	0	1224.40	0	2.9940	0	34.4580	0	27.461	0	1210.624	0	-1e10	1	-1e10	1	-1E+10	1	-1e10	1	-1e10	1	-1E+10	1	-1E+10	1	-1E+10	1
4902624	9	C	09/19/2024	10:40	-128.462	47.446	0	1232.60	0	2.9776	0	34.4599	0	27.464	0	1218.708	0	54.0	4	16.7	4	-1E+10	1	0.0655	4	0.000130	0	-1E+10	1	-1E+10	1	-1E+10	1
4902624	9	C	09/19/2024	10:40	-128.462	47.446	0	1251.80	0	2.9392	0	34.4645	0	27.471	0	1237.635	0	54.6	4	16.8	4	-1E+10	1	0.0514	4	0.000131	0	-1E+10	1	-1E+10	1	-1E+10	1
4902624	9	C	09/19/2024	10:40	-128.462	47.446	0	1271.50	0	2.8998	0	34.4692	0	27.478	0	1257.053	0	56.6	4	17.4	4	-1E+10	1	0.0656	4	0.000187	0	-1E+10	1	-1E+10	1	-1E+10	1
4902624	9	C	09/19/2024	10:40	-128.462	47.446	0	1274.90	0	2.8930	0	34.4700	0	27.480	0	1260.404	0	-1e10	1	-1e10	1	-1E+10	1	-1e10	1	-1e10	1	-1E+10	1	-1E+10	1	-1E+10	1
4902624	9	C	09/19/2024	10:40	-128.462	47.446	0	1291.60	0	2.8554	0	34.4743	0	27.487	0	1276.864	0	67.1	4	20.6	4	-1E+10	1	0.0584	4	0.000152	0	-1E+10	1	-1E+10	1	-1E+10	1
4902624	9	C	09/19/2024	10:40	-128.462	47.446	0	1312.10	0	2.8093	0	34.4796	0	27.495	0	1297.067	0	147.5	8	45.3	8	-1E+10	1	0.0581	4	0.000128	0	-1E+10	1	-1E+10	1	-1E+10	1
4902624	9	C	09/19/2024	10:40	-128.462	47.446	0	1325.10	0	2.7800	0	34.4830	0	27.500	0	1309.878	0	-1e10	1	-1e10	1	-1E+10	1	-1e10	1	-1e10	1	-1E+10	1	-1E+10	1	-1E+10	1
4902624	9	C	09/19/2024	10:40	-128.462	47.446	0	1332.80	0	2.7665	0	34.4847	0	27.503	0	1317.465	0	108.2	4	33.2	4	-1E+10	1	0.0439	4	0.000117	0	-1E+10	1	-1E+10	1	-1E+10	1
4902624	9	C	09/19/2024	10:40	-128.462	47.446	0	1354.20	0	2.7291	0	34.4894	0	27.510	0	1338.551	0	68.9	4	21.1	4	-1E+10	1	0.0584	4	0.000128	0	-1E+10	1	-1E+10	1	-1E+10	1
4902624	9	C	09/19/2024	10:40	-128.462	47.446	0	1375.40	0	2.6920	0	34.4940	0	27.517	0	1359.438	0	-1e10	1	-1e10	1	-1E+10	1	-1e10	1	-1e10	1	-1E+10	1	-1E+10	1	-1E+10	1
4902624	9	C	09/19/2024	10:40	-128.462	47.446	0	1376.10	0	2.6909	0	34.4941	0	27.517	0	1360.127	0	62.0	4	19.0	4	-1E+10	1	0.0582	4	0.000116	0	-1E+10	1	-1E+10	1	-1E+10	1
4902624	9	C	09/19/2024	10:40	-128.462	47.446	0	1398.20	0	2.6568	0	34.4985	0	27.524	0	1381.898	0	70.0	4	21.4	4	-1E+10	1	0.0511	4	0.000139	0	-1E+10	1	-1E+10	1	-1E+10	1
4902624	9	C	09/19/2024	10:40	-128.462	47.446	0	1421.40	0	2.6210	0	34.5031	0	27.531	0	1404.751	0	68.9	4	21.1	4	-1E+10	1	0.0511	4	0.000127	0	-1E+10	1	-1E+10	1	-1E+10	1
4902624	9	C	09/19/2024	10:40	-128.462	47.446	0	1425.90	0	2.6140	0	34.5040	0	27.532	0	1409.183	0	-1e10	1	-1e10	1	-1E+10	1	-1e10	1	-1e10	1	-1E+10	1	-1E+10	1	-1E+10	1
4902624	9	C	09/19/2024	10:40	-128.462	47.446	0	1439.90	0	2.5936	0	34.5069	0	27.536	0	1422.972	0	75.8	4	23.2	4	-1E+10	1	0.0509	4	0.000150	0	-1E+10	1	-1E+10	1	-1E+10	1
4902624	9	C	09/19/2024	10:40	-128.462	47.446	0	1456.40	0	2.5695	0	34.5103	0	27.541	0	1439.222	0	78.8	4	24.1	4	-1E+10	1	0.0439	4	0.000138	0	-1E+10	1	-1E+10	1	-1E+10	1
4902624	9	C	09/19/2024	10:40	-128.462	47.446	0	1474.30	0	2.5434	0	34.5139	0	27.546	0	1456.849	0	87.1	4	26.6	4	-1E+10	1	0.0513	4	0.000115	0	-1E+10	1	-1E+10	1	-1E+10	1
4902624	9	C	09/19/2024	10:40	-128.462	47.446	0	1474.60	0	2.5430	0	34.5140	0	27.546	0	1457.144	0	-1e10	1	-1e10	1	-1E+10	1	-1e10	1	-1e10	1	-1E+10	1	-1E+10	1	-1E+10	1
4902624	9	C	09/19/2024	10:40	-128.462	47.446	0	1493.00	0	2.5117	0	34.5173	0	27.552	0	1475.262	0	79.4	4	24.2	4	-1E+10	1	0.0585	4	0.000149	0	-1E+10	1	-1E+10	1	-1E+10	1
4902624	9	C	09/19/2024	10:40	-128.462	47.446	0	1512.70	0	2.4781	0	34.5208	0	27.557	0	1494.658	0	80.7	4	24.6	4	-1E+10	1	0.0654	4	0.000137	0	-1E+10	1	-1E+10	1	-1E+10	1
4902624	9	C	09/19/2024	10:40	-128.462	47.446	0	1525.10	0	2.4570	0	34.5230	0	27.561	0	1506.866	0	-1e10	1	-1e10	1	-1E+10	1	-1e10	1	-1e10	1	-1E+10	1	-1E+10	1	-1E+10	1
4902624	9	C	09/19/2024	10:40	-128.462	47.446	0	1533.30	0	2.4438	0	34.5246	0	27.563	0	1514.939	0	79.1	4	24.1	4	-1E+10	1	0.0511	4	0.000137	0	-1E+10	1	-1E+10	1	-1E+10	1
4902624	9	C	09/19/2024	10:40	-128.462	47.446	0	1554.70	0	2.4094	0	34.5289	0	27.570	0	1536.005	0	74.8	4	22.8	4	-1E+10	1	0.0508	4	0.000160	0	-1E+10	1	-1E+10	1	-1E+10	1
4902624	9	C	09/19/2024	10:40	-128.462	47.446	0	1574.90	0	2.3770	0	34.5330	0	27.576	0	1555.888	0	-1e10	1	-1e10	1	-1E+10	1	-1e10	1	-1e10	1	-1E+10	1	-1E+10	1	-1E+10	1
4902624	9	C	09/19/2024	10:40	-128.462	47.446	0	1576.90	0	2.3744	0	34.5334	0	27.576	0	1557.856	0	79.2	4	24.1	4	-1E+10	1	0.0370	4	0.000136	0	-1E+10	1	-1E+10	1	-1E+10	1
4902624	9	C	09/19/2024	10:40	-128.462	47.446	0	1599.60	0	2.3444	0	34.5374	0	27.582	0	1580.198	0	82.0	4	24.9	4	-1E+10	1	0.0583	4	0.000137	0	-1E+10	1	-1E+10	1	-1E+10	1
4902624	9	C	09/19/2024	10:40	-128.462	47.446	0	1622.70	0	2.3140	0	34.5415	0	27.588	0	1602.930	0	84.1	4	25.5	4	-1E+10	1	0.0513	4	0.000226	0	-1E+10	1	-1E+10	1	-1E+10	1
4902624	9	C	09/19/2024	10:40	-128.462	47.446	0	1625.70	0	2.3100	0	34.5420	0	27.589	0	1605.882	0	-1e10	1	-1e10	1	-1E+10	1	-1e10	1	-1e10	1	-1E+10	1	-1E+10	1	-1E+10	1
4902624	9	C	09/19/2024	10:40	-128.462	47.446	0	1638.40	0	2.2950	0	34.5441	0	27.592	0	1618.379	0	84.2	4	25.6	4	-1E+10	1	0.0583	4	0.000112	0	-1E+10	1	-1E+10	1	-1E+10	1
4902624	9	C	09/19/2024	10:40	-128.462	47.446	0	1654.90	0	2.2756	0	34.5467	0	27.595	0	1634.614	0	88.4	4	26.8	4	-1E+10	1	0.0509	4	0.000135	0	-1E+10	1	-1E+10	1	-1E+10	1
4902624	9	C	09/19/2024	10:40	-128.462	47.446	0	1671.70	0	2.2558	0	34.5495	0	27.599	0	1651.142	0	90.2	4	27.4	4	-1E+10	1	0.0440	4	0.000123	0	-1E+10	1	-1E+10	1	-1E+10	1
4902624	9	C	09/19/2024	10:40	-128.462	47.446	0	1674.90	0	2.2520	0	34.5500	0	27.600	0	1654.290	0	-1e10	1	-1e10	1	-1E+10	1	-1e10	1	-1e10	1	-1E+10	1	-1E+10	1	-1E+10	1
4902624	9	C	09/19/2024	10:40	-128.462	47.446	0	1689.00	0	2.2353	0	34.5526	0	27.604	0	1668.161	0	91.5	4	27.8	4	-1E+10	1	0.0513	4	0.000123	0	-1E+10	1	-1E+10	1	-1E+10	1
4902624	9	C	09/19/2024	10:40	-128.462	47.446	0	1706.90	0	2.2140	0	34.5558	0	27.608	0	1685.770	0	93.2	4	28.2	4	-1E+10	1	0.0583	4	0.000145	0	-1E+10	1	-1E+10	1	-1E+10	1
4902624	9	C	09/19/2024	10:40	-128.462	47.446	0	1724.60	0	2.1930	0	34.5590	0	27.612	0	1703.179	0	-1e10	1	-1e10	1	-1E+10	1	-1e10	1	-1e10	1	-1E+10	1	-1E+10	1	-1E+10	1
4902624	9	C	09/19/2024	10:40	-128.462	47.446	0	1725.80	0	2.1916	0	34.5592	0	27.613	0	1704.360	0	93.1	4	28.2	4	-1E+10	1	0.0511	4	0.000133	0	-1E+10	1	-1E+10	1	-1E+10	1
4902624	9	C	09/19/2024	10:40	-128.462	47.446	0	1745.30	0	2.1693	0	34.5623	0	27.617	0	1723.538	0	94.9	4	28.7	4	-1E+10	1	0.0507	4	0.000121	0	-1E+10	1	-1E+10	1	-1E+10	1
4902624	9	C	09/19/2024	10:40	-128.462	47.446	0	1765.80	0	2.1459	0	34.5655	0	27.621	0	1743.698	0	96.4	4	29.2	4	-1E+10	1	0.0366	4	0.000110	0	-1E+10	1	-1E+10	1	-1E+10	1
4902624	9	C	09/19/2024	10:40	-128.462	47.446	0	1775.30	0	2.1350	0	34.5670	0	27.624	0	1753.040	0	-1e10	1	-1e10	1	-1E+10	1	-1e10	1	-1e10	1	-1E+10	1	-1E+10	1	-1E+10	1
4902624	9	C	09/19/2024	10:40	-128.462	47.446	0	1787.20	0	2.1243	0	34.5684	0	27.626	0	1764.742	0	96.1	4	29.1	4	-1E+10	1	0.0439	4	0.000121	0	-1E+10	1	-1E+10	1	-1E+10	1
4902624	9	C	09/19/2024	10:40	-128.462	47.446	0	1809.40	0	2.1044	0	34.5711	0	27.629	0	1786.569	0	99.0	4	29.9	4	-1E+10	1	0.0511	4	0.000109	0	-1E+10	1	-1E+10	1	-1E+10	1
4902624	9	C	09/19/2024	10:40	-128.462	47.446	0	1825.40	0	2.0900	0	34.5730	0	27.632	0	1802.300	0	-1e10	1	-1e10	1	-1E+10	1	-1e10	1	-1e10	1	-1E+10	1	-1E+10	1	-1E+10	1
4902624	9	C	09/19/2024	10:40	-128.462	47.446	0	1832.60	0	2.0838	0	34.5740	0	27.634	0	1809.378	0	101.8	4	30.8	4	-1E+10	1	0.0511	4	0.000119	0	-1E+10	1	-1E+10	1	-1E+10	1
4902624	9	C	09/19/2024	10:40	-128.462	47.446	0	1850.60	0	2.0682	0	34.5765	0	27.637	0	1827.073	0	103.4	4	31.2	4	-1E+10	1	0.0510	4	0.000097	0	-1E+10	1	-1E+10	1	-1E+10	1
4902624	9	C	09/19/2024	10:40	-128.462	47.446	0	1866.80	0	2.0542	0	34.5788	0	27.640	0	1842.997	0	104.7	4	31.6	4	-1E+10	1	0.0440	4	0.000119	0	-1E+10	1	-1E+10	1	-1E+10	1
4902624	9	C	09/19/2024	10:40	-128.462	47.446	0	1875.10	0	2.0470	0	34.5800	0	27.641	0	1851.155	0	-1e10	1	-1e10	1	-1E+10	1	-1e10	1	-1e10	1	-1E+10	1	-1E+10	1	-1E+10	1
4902624	9	C	09/19/2024	10:40	-128.462	47.446	0	1883.60	0	2.0401	0	34.5810	0	27.643	0	1859.509	0	106.0	4	32.0	4	-1E+10	1	0.0512	4	0.000119	0	-1E+10	1	-1E+10	1	-1E+10	1
4902624	9	C	09/19/2024	10:40	-128.462	47.446	0	1900.70	0	2.0264	0	34.5831	0	27.646	0	1876.315	0	107.2	4	32.4	4	-1E+10	1	0.0585	4	0.000119	0	-1E+10	1	-1E+10	1	-1E+10	1
4902624	9	C	09/19/2024	10:40	-128.462	47.446	0	1918.30	0	2.0122	0	34.5852	0	27.649	0	1893.611	0	108.6	4	32.7	4	-1E+10	1	0.0653	4	0.000119	0	-1E+10	1	-1E+10	1	-1E+10	1
4902624	9	C	09/19/2024	10:40	-128.462	47.446	0	1924.70	0	2.0070	0	34.5860	0	27.650	0	1899.900	0	-1e10	1	-1e10	1	-1E+10	1	-1e10	1	-1e10	1	-1E+10	1	-1E+10	1	-1E+10	1
4902624	9	C	09/19/2024	10:40	-128.462	47.446	0	1936.20	0	1.9981	0	34.5875	0	27.652	0	1911.200	0	109.2	4	32.9	4	-1E+10	1	0.0438	4	0.000142	0	-1E+10	1	-1E+10	1	-1E+10	1
4902624	9	C	09/19/2024	10:40	-128.462	47.446	0	1954.50	0	1.9839	0	34.5900	0	27.655	0	1929.181	0	109.8	4	33.1	4	-1E+10	1	0.0440	4	0.000152	0	-1E+10	1	-1E+10	1	-1E+10	1
4902624	9	C	09/19/2024	10:40	-128.462	47.446	0	1969.80	0	1.9720	0	34.5920	0	27.657	0	1944.213	0	-1e10	1	-1e10	1	-1E+10	1	-1e10	1	-1e10	1	-1E+10	1	-1E+10	1	-1E+10	1
4902624	9	C	09/19/2024	10:40	-128.462	47.446	0	1973.20	0	-1e10	1	-1e10	1	-1e10	1	1947.553	0	116.7	4	-1e10	4	-1E+10	1	0.0511	4	0.000121	0	-1E+10	1	-1E+10	1	-1E+10	1
4902624	9	C	09/19/2024	10:40	-128.462	47.446	0	1989.00	0	-1e10	1	-1e10	1	-1e10	1	1963.075	0	112.7	4	-1e10	4	-1E+10	1	0.0511	4	0.000167	0	-1E+10	1	-1E+10	1	-1E+10	1
4902624	9	C	09/19/2024	10:40	-128.462	47.446	0																										
4902624	10	C	09/29/2024	05:33	-128.459	47.510	0	0.30	0	16.2517	8	32.1500	8	23.501	0	0.297	0	233.7	4	94.8	4	-1E+10	1	0.6497	4	0.001480	0	-1E+10	1	-1E+10	1	-1E+10	1
4902624	10	C	09/29/2024	05:33	-128.459	47.510	0	0.50	0	16.3140	8	32.1180	8	23.462	0	0.496	0	-1e10	1	-1e10	1	-1E+10	1	-1e10	1	-1e10	1	-1E+10	1	-1E+10	1	-1E+10	1
4902624	10	C	09/29/2024	05:33	-128.459	47.510	0	0.80	0	16.3146	8	32.1192	8	23.463	0	0.793	0	-1e10	1	-1e10	1	-1E+10	1	0.6643	4	0.001503	0	-1E+10	1	-1E+10	1	-1E+10	1
4902624	10	C	09/29/2024	05:33	-128.459	47.510	0	1.10	0	16.3152	8	32.1204	8	23.464	0	1.091	0	-1e10	1	-1e10	1	-1E+10	1	0.6570	4	0.001468	0	-1E+10	1	-1E+10	1	-1E+10	1
4902624	10	C	09/29/2024	05:33	-128.459	47.510	0	1.30	0	16.3156	8	32.1212	8	23.464	0	1.289	0	-1e10	1	-1e10	1	-1E+10	1	0.6789	4	0.001878	0	-1E+10	1	-1E+10	1	-1E+10	1
4902624	10	C	09/29/2024	05:33	-128.459	47.510	0	1.50	0	16.3160	0	32.1220	0	23.465	0	1.487	0	-1e10	1	-1e10	1	-1E+10	1	0.6497	4	0.001351	0	-1E+10	1	-1E+10	1	-1E+10	1
4902624	10	C	09/29/2024	05:33	-128.459	47.510	0	1.60	0	16.3162	0	32.1219	0	23.465	0	1.587	0	-1e10	1	-1e10	1	-1E+10	1	0.6424	4	0.001480	0	-1E+10	1	-1E+10	1	-1E+10	1
4902624	10	C	09/29/2024	05:33	-128.459	47.510	0	1.80	0	16.3166	0	32.1217	0	23.464	0	1.785	0	233.6	4	94.8	4	-1E+10	1	0.6716	4	0.001573	0	-1E+10	1	-1E+10	1	-1E+10	1
4902624	10	C	09/29/2024	05:33	-128.459	47.510	0	2.00	0	16.3170	0	32.1215	0	23.464	0	1.983	0	-1e10	1	-1e10	1	-1E+10	1	0.6643	4	0.001585	0	-1E+10	1	-1E+10	1	-1E+10	1
4902624	10	C	09/29/2024	05:33	-128.459	47.510	0	2.20	0	16.3174	0	32.1213	0	23.464	0	2.182	0	-1e10	1	-1e10	1	-1E+10	1	0.7154	4	0.001398	0	-1E+10	1	-1E+10	1	-1E+10	1
4902624	10	C	09/29/2024	05:33	-128.459	47.510	0	2.50	0	16.3180	0	32.1210	0	23.464	0	2.479	0	-1e10	1	-1e10	1	-1E+10	1	-1e10	1	-1e10	1	-1E+10	1	-1E+10	1	-1E+10	1
4902624	10	C	09/29/2024	05:33	-128.459	47.510	0	2.60	0	16.3185	0	32.1210	0	23.463	0	2.578	0	233.5	4	94.8	4	-1E+10	1	0.6570	4	0.001796	0	-1E+10	1	-1E+10	1	-1E+10	1
4902624	10	C	09/29/2024	05:33	-128.459	47.510	0	2.80	0	16.3194	0	32.1210	0	23.463	0	2.777	0	-1e10	1	-1e10	1	-1E+10	1	0.6716	4	0.001327	0	-1E+10	1	-1E+10	1	-1E+10	1
4902624	10	C	09/29/2024	05:33	-128.459	47.510	0	3.00	0	16.3203	0	32.1210	0	23.463	0	2.975	0	-1e10	1	-1e10	1	-1E+10	1	0.6643	4	0.001374	0	-1E+10	1	-1E+10	1	-1E+10	1
4902624	10	C	09/29/2024	05:33	-128.459	47.510	0	3.20	0	16.3212	0	32.1210	0	23.463	0	3.173	0	-1e10	1	-1e10	1	-1E+10	1	0.6497	4	0.001386	0	-1E+10	1	-1E+10	1	-1E+10	1
4902624	10	C	09/29/2024	05:33	-128.459	47.510	0	3.40	0	16.3221	0	32.1210	0	23.463	0	3.372	0	-1e10	1	-1e10	1	-1E+10	1	0.6424	4	0.001374	0	-1E+10	1	-1E+10	1	-1E+10	1
4902624	10	C	09/29/2024	05:33	-128.459	47.510	0	3.60	0	16.3230	0	32.1210	0	23.462	0	3.570	0	233.8	4	94.9	4	-1E+10	1	0.6570	4	0.001527	0	-1E+10	1	-1E+10	1	-1E+10	1
4902624	10	C	09/29/2024	05:33	-128.459	47.510	0	3.80	0	16.3228	0	32.1210	0	23.462	0	3.768	0	-1e10	1	-1e10	1	-1E+10	1	0.6497	4	0.001351	0	-1E+10	1	-1E+10	1	-1E+10	1
4902624	10	C	09/29/2024	05:33	-128.459	47.510	0	3.90	0	16.3227	0	32.1210	0	23.463	0	3.867	0	-1e10	1	-1e10	1	-1E+10	1	0.6424	4	0.001362	0	-1E+10	1	-1E+10	1	-1E+10	1
4902624	10	C	09/29/2024	05:33	-128.459	47.510	0	4.30	0	16.3222	0	32.1210	0	23.463	0	4.264	0	-1e10	1	-1e10	1	-1E+10	1	0.6570	4	0.001409	0	-1E+10	1	-1E+10	1	-1E+10	1
4902624	10	C	09/29/2024	05:33	-128.459	47.510	0	4.50	0	16.3220	0	32.1210	0	23.463	0	4.462	0	233.7	4	94.9	4	-1E+10	1	0.6643	4	0.001468	0	-1E+10	1	-1E+10	1	-1E+10	1
4902624	10	C	09/29/2024	05:33	-128.459	47.510	0	4.70	0	16.3224	0	32.1210	0	23.463	0	4.661	0	-1e10	1	-1e10	1	-1E+10	1	0.6643	4	0.001585	0	-1E+10	1	-1E+10	1	-1E+10	1
4902624	10	C	09/29/2024	05:33	-128.459	47.510	0	4.90	0	16.3228	0	32.1210	0	23.463	0	4.859	0	-1e10	1	-1e10	1	-1E+10	1	0.6643	4	0.001491	0	-1E+10	1	-1E+10	1	-1E+10	1
4902624	10	C	09/29/2024	05:33	-128.459	47.510	0	5.10	0	16.3232	0	32.1210	0	23.462	0	5.057	0	-1e10	1	-1e10	1	-1E+10	1	0.6424	4	0.001480	0	-1E+10	1	-1E+10	1	-1E+10	1
4902624	10	C	09/29/2024	05:33	-128.459	47.510	0	5.20	0	16.3234	0	32.1210	0	23.462	0	5.157	0	-1e10	1	-1e10	1	-1E+10	1	0.6643	4	0.001456	0	-1E+10	1	-1E+10	1	-1E+10	1
4902624	10	C	09/29/2024	05:33	-128.459	47.510	0	5.40	0	16.3238	0	32.1210	0	23.462	0	5.355	0	233.4	4	94.8	4	-1E+10	1	0.6059	4	0.001573	0	-1E+10	1	-1E+10	1	-1E+10	1
4902624	10	C	09/29/2024	05:33	-128.459	47.510	0	5.50	0	16.3240	0	32.1210	0	23.462	0	5.454	0	-1e10	1	-1e10	1	-1E+10	1	-1e10	1	-1e10	1	-1E+10	1	-1E+10	1	-1E+10	1
4902624	10	C	09/29/2024	05:33	-128.459	47.510	0	5.80	0	16.3237	0	32.1210	0	23.462	0	5.752	0	-1e10	1	-1e10	1	-1E+10	1	0.6424	4	0.001409	0	-1E+10	1	-1E+10	1	-1E+10	1
4902624	10	C	09/29/2024	05:33	-128.459	47.510	0	6.00	0	16.3235	0	32.1210	0	23.462	0	5.950	0	-1e10	1	-1e10	1	-1E+10	1	0.6497	4	0.001433	0	-1E+10	1	-1E+10	1	-1E+10	1
4902624	10	C	09/29/2024	05:33	-128.459	47.510	0	6.20	0	16.3233	0	32.1210	0	23.462	0	6.148	0	-1e10	1	-1e10	1	-1E+10	1	0.6351	4	0.001550	0	-1E+10	1	-1E+10	1	-1E+10	1
4902624	10	C	09/29/2024	05:33	-128.459	47.510	0	6.40	0	16.3231	0	32.1210	0	23.463	0	6.346	0	233.3	4	94.7	4	-1E+10	1	0.6570	4	0.001386	0	-1E+10	1	-1E+10	1	-1E+10	1
4902624	10	C	09/29/2024	05:33	-128.459	47.510	0	6.50	0	16.3230	0	32.1210	0	23.463	0	6.446	0	-1e10	1	-1e10	1	-1E+10	1	-1e10	1	-1e10	1	-1E+10	1	-1E+10	1	-1E+10	1
4902624	10	C	09/29/2024	05:33	-128.459	47.510	0	6.60	0	16.3230	0	32.1209	0	23.462	0	6.545	0	-1e10	1	-1e10	1	-1E+10	1	0.6205	4	0.001386	0	-1E+10	1	-1E+10	1	-1E+10	1
4902624	10	C	09/29/2024	05:33	-128.459	47.510	0	6.80	0	16.3230	0	32.1207	0	23.462	0	6.743	0	-1e10	1	-1e10	1	-1E+10	1	0.6935	4	0.001351	0	-1E+10	1	-1E+10	1	-1E+10	1
4902624	10	C	09/29/2024	05:33	-128.459	47.510	0	7.00	0	16.3230	0	32.1204	0	23.462	0	6.941	0	-1e10	1	-1e10	1	-1E+10	1	0.6716	4	0.001468	0	-1E+10	1	-1E+10	1	-1E+10	1
4902624	10	C	09/29/2024	05:33	-128.459	47.510	0	7.40	0	16.3230	0	32.1200	0	23.462	0	7.338	0	233.6	4	94.9	4	-1E+10	1	0.6570	4	0.001539	0	-1E+10	1	-1E+10	1	-1E+10	1
4902624	10	C	09/29/2024	05:33	-128.459	47.510	0	7.70	0	16.3233	0	32.1200	0	23.462	0	7.636	0	-1e10	1	-1e10	1	-1E+10	1	0.6643	4	0.001374	0	-1E+10	1	-1E+10	1	-1E+10	1
4902624	10	C	09/29/2024	05:33	-128.459	47.510	0	7.80	0	16.3234	0	32.1200	0	23.462	0	7.735	0	-1e10	1	-1e10	1	-1E+10	1	0.6643	4	0.001374	0	-1E+10	1	-1E+10	1	-1E+10	1
4902624	10	C	09/29/2024	05:33	-128.459	47.510	0	8.10	0	16.3237	0	32.1200	0	23.462	0	8.032	0	-1e10	1	-1e10	1	-1E+10	1	0.6716	4	0.001632	0	-1E+10	1	-1E+10	1	-1E+10	1
4902624	10	C	09/29/2024	05:33	-128.459	47.510	0	8.30	0	16.3239	0	32.1200	0	23.462	0	8.231	0	-1e10	1	-1e10	1	-1E+10	1	0.6862	4	0.001421	0	-1E+10	1	-1E+10	1	-1E+10	1
4902624	10	C	09/29/2024	05:33	-128.459	47.510	0	8.40	0	16.3240	0	32.1200	0	23.462	0	8.330	0	233.6	4	94.8	4	-1E+10	1	0.6570	4	0.001410	0	-1E+10	1	-1E+10	1	-1E+10	1
4902624	10	C	09/29/2024	05:33	-128.459	47.510	0	8.60	0	16.3238	0	32.1202	0	23.462	0	8.528	0	-1e10	1	-1e10	1	-1E+10	1	0.6789	4	0.001726	0	-1E+10	1	-1E+10	1	-1E+10	1
4902624	10	C	09/29/2024	05:33	-128.459	47.510	0	8.80	0	16.3236	0	32.1204	0	23.462	0	8.726	0	-1e10	1	-1e10	1	-1E+10	1	0.6716	4	0.001433	0	-1E+10	1	-1E+10	1	-1E+10	1
4902624	10	C	09/29/2024	05:33	-128.459	47.510	0	9.20	0	16.3232	0	32.1208	0	23.462	0	9.123	0	-1e10	1	-1e10	1	-1E+10	1	0.6789	4	0.001503	0	-1E+10	1	-1E+10	1	-1E+10	1
4902624	10	C	09/29/2024	05:33	-128.459	47.510	0	9.40	0	16.3230	0	32.1210	0	23.463	0	9.321	0	233.6	4	94.8	4	-1E+10	1	0.6862	4	0.001468	0	-1E+10	1	-1E+10	1	-1E+10	1
4902624	10	C	09/29/2024	05:33	-128.459	47.510	0	9.60	0	16.3233	0	32.1210	0	23.463	0	9.520	0	-1e10	1	-1e10	1	-1E+10	1	0.6643	4	0.001374	0	-1E+10	1	-1E+10	1	-1E+10	1
4902624	10	C	09/29/2024	05:33	-128.459	47.510	0	9.80	0	16.3235	0	32.1210	0	23.463	0	9.718	0	-1e10	1	-1e10	1	-1E+10	1	0.6789	4	0.001491	0	-1E+10	1	-1E+10	1	-1E+10	1
4902624	10	C	09/29/2024	05:33	-128.459	47.510	0	10.40	0	16.3243	0	32.1210	0	23.462	0	10.313	0	233.3	4	94.7	4	-1E+10	1	0.6631	4	0.001376	0	-1E+10	1	-1E+10	1	-1E+10	1
4902624	10	C	09/29/2024	05:33	-128.459	47.510	0	10.90	0	16.3250	0	32.1210	0	23.462	0	10.809	0	-1e10	1	-1e10	1	-1E+10	1	-1e10	1	-1e10	1	-1E+10	1	-1E+10	1	-1E+10	1
4902624	10	C	09/29/2024	05:33	-128.459	47.510	0	11.40	0	16.3255	0	32.1210	0	23.462	0	11.305	0	233.2	4	94.7	4	-1E+10	1	0.6935	4	0.001327	0	-1E+10	1	-1E+10	1	-1E+10	1
4902624	10	C	09/29/2024	05:33	-128.459	47.510	0	12.50	0	16.3266	0	32.1210	0	23.462	0	12.395	0	233.3	4	94.7	4	-1E+10	1	0.7244	4	0.001416	0	-1E+10	1	-1E+10	1	-1E+10	1
4902624	10	C	09/29/2024	05:33	-128.459	47.510	0	12.90	0	16.3270	0	32.1210	0	23.462	0	12.792	0	-1e10	1	-1e10	1	-1E+10	1	-1e10	1	-1e10	1	-1E+10	1	-1E+10	1	-1E+10	1
4902624	10	C	09/29/2024	05:33	-128.459	47.510	0	13.60	0	16.3283	0	32.1207	0	23.461	0	13.486	0	233.2	4	94.7	4	-1E+10	1	0.7061	4	0.001471	0	-1E+10	1	-1E+10	1	-1E+10	1
4902624	10	C	09/29/2024	05:33	-128.459	47.510	0	14.80	0	16.3306	0	32.1201	0	23.460	0	14.676	0	233.2	4	94.7	4	-1E+10	1	0.6956	4	0.001438	0	-1E+10	1	-1E+10	1	-1E+10	1
4902624	10	C	09/29/2024	05:33	-128.459	47.510	0	15.00	0	16.3310	0	32.1200	0	23.460	0	14.874	0	-1e10	1	-1e10	1	-1E+10	1	-1e10	1	-1e10	1	-1E+10	1	-1E+10	1	-1E+10	1
4902624	10	C	09/29/2024	05:33	-128.459	47.510	0	15.90	0	16.3310	0	32.1204	0	23.461	0	15.767	0	233.3	4	94.7	4	-1E+10	1	0.7037	4	0.001355	0	-1E+10	1	-1E+10	1	-1E+10	1
4902624	10	C	09/29/2024	05:33	-128.459	47.510	0	17.00	0	16.3310	0	32.1210	0	23.461	0	16.857	0	-1e10	1	-1e10	1	-1E+10	1	-1e10	1	-1e10	1	-1E+10	1	-1E+10	1	-1E+10	1
4902624	10	C	09/29/2024	05:33	-128.459	47.510	0	17.20	0	16.3309	0	32.1210	0	23.461	0	17.056	0	233.3	4	94.7	4	-1E+10	1	0.6922	4	0.001307	0	-1E+10	1	-1E+10	1	-1E+10	1
4902624	10	C	09/29/2024	05:33	-128.459	47.510	0	18.30	0	16.3303	0	32.1210	0	23.461	0	18.146	0	233.3	4	94.7	4	-1E+10	1	0.6930	4	0.001330	0	-1E+10	1	-1E+10	1	-1E+10	1
4902624	10	C	09/29/2024	05:33	-128.459	47.510	0	19.00	0	16.3300	0	32.1210	0	23.461	0	18.841	0	-1e10	1	-1e10	1	-1E+10	1	-1e10	1	-1e10	1	-1E+10	1	-1E+10	1	-1E+10	1
4902624	10	C	09/29/2024	05:33	-128.459	47.510	0	19.40	0	16.3306	0	32.1208	0	23.461	0	19.237	0	233.2	4	94.7	4	-1E+10	1	0.7424	4	0.001348	0	-1E+10	1	-1E+10	1	-1E+10	1
4902624	10	C	09/29/2024	05:33	-128.459	47.510	0	20.50	0	16.3323	0	32.1202	0	23.460	0	20.328	0	233.3	4	94.7	4	-1E+10	1	0.7300	4	0.001526	0	-1E+10	1	-1E+10	1	-1E+10	1
4902624	10	C	09/29/2024	05:33	-128.459	47.510	0	21.00	0	16.3330	0	32.1200	0	23.460	0	20.824	0	-1e10	1	-1e10	1	-1E+10	1	-1e10	1	-1e10	1	-1E+10	1	-1E+10	1	-1E+10	1
4902624	10	C	09/29/2024	05:33	-128.459	47.510	0	21.50	0	16.3319	0	32.1200	0	23.460	0	21.319	0	233.2	4	94.7	4	-1E+10	1	0.7446	4	0.001386	0	-1E+10	1	-1E+10	1	-1E+10	1
4902624	10	C	09/29/2024	05:33	-128.459	47.510	0	22.50	0	16.3298	0	32.1200	0	23.461	0	22.311	0	233.4	4	94.8	4	-1E+10	1	0.7109	4	0.001286	0	-1E+10	1	-1E+10	1	-1E+10	1
4902624	10	C	09/29/2024	05:33	-128.459	47.510	0	22.90	0	16.3290	0	32.1200	0	23.461	0	22.708	0	-1e10	1	-1e10	1	-1E+10	1	-1e10	1	-1e10	1	-1E+10	1	-1E+10	1	-1E+10	1
4902624	10	C	09/29/2024	05:33	-128.459	47.510	0	23.60	0	16.3297	0	32.1200	0	23.461	0	23.402	0	233.4	4	94.8	4	-1E+10	1	0.7143	4	0.001350	0	-1E+10	1	-1E+10	1	-1E+10	1
4902624	10	C	09/29/2024	05:33	-128.459	47.510	0	24.70	0	16.3307	0	32.1200	0	23.461	0	24.492	0	233.4	4	94.8	4	-1E+10	1	0.7068	4	0.001358	0	-1E+10	1	-1E+10	1	-1E+10	1
4902624	10	C	09/29/2024	05:33	-128.459	47.510	0	25.00	0	16.3310	0	32.1200	0	23.461	0	24.790	0	-1e10	1	-1e10	1	-1E+10	1	-1e10	1	-1e10	1	-1E+10	1	-1E+10	1	-1E+10	1
4902624	10	C	09/29/2024	05:33	-128.459	47.510	0	25.90	0	16.3310	0	32.1200	0	23.461	0	25.682	0	233.5	4	94.8	4	-1E+10	1	0.7081	4	0.001409	0	-1E+10	1	-1E+10	1	-1E+10	1
4902624	10	C	09/29/2024	05:33	-128.459	47.510	0	27.00	0	16.3310	0	32.1200	0	23.461	0	26.773	0	-1e10	1	-1e10	1	-1E+10	1	-1e10	1	-1e10	1	-1E+10	1	-1E+10	1	-1E+10	1
4902624	10	C	09/29/2024	05:33	-128.459	47.510	0	27.10	0	16.3310	0	32.1200	0	23.461	0	26.872	0	233.6	4	94.9	4	-1E+10	1	0.7175	4	0.001478	0	-1E+10	1	-1E+10	1	-1E+10	1
4902624	10	C	09/29/2024	05:33	-128.459	47.510	0	28.20	0	16.3310	0	32.1200	0	23.461	0	27.963	0	233.7	4	94.9	4	-1E+10	1	0.7130	4	0.001434	0	-1E+10	1	-1E+10	1	-1E+10	1
4902624	10	C	09/29/2024	05:33	-128.459	47.510	0	29.00	0	16.3310	0	32.1200	0	23.461	0	28.756	0	-1e10	1	-1e10	1	-1E+10	1	-1e10	1	-1e10	1	-1E+10	1	-1E+10	1	-1E+10	1
4902624	10	C	09/29/2024	05:33	-128.459	47.510	0	29.40	0	16.3312	0	32.1200	0	23.461	0	29.153	0	233.9	4	95.0	4	-1E+10	1	0.7321	4	0.001431	0	-1E+10	1	-1E+10	1	-1E+10	1
4902624	10	C	09/29/2024	05:33	-128.459	47.510	0	30.60	0	16.3318	0	32.1200	0	23.461	0	30.342	0	234.0	4	95.0	4	-1E+10	1	0.7008	4	0.001350	0	-1E+10	1	-1E+10	1	-1E+10	1
4902624	10	C	09/29/2024	05:33	-128.459	47.510	0	31.10	0	16.3320	0	32.1200	0	23.461	0	30.838	0	-1e10	1	-1e10	1	-1E+10	1	-1e10	1	-1e10	1	-1E+10	1	-1E+10	1	-1E+10	1
4902624	10	C	09/29/2024	05:33	-128.459	47.510	0	31.80	0	16.3316	0	32.1196	0	23.460	0	31.532	0	234.2	4	95.1	4	-1E+10	1	0.7008	4	0.001397	0	-1E+10	1	-1E+10	1	-1E+10	1
4902624	10	C	09/29/2024	05:33	-128.459	47.510	0	33.00	0	16.3310	0	32.1190	0	23.460	0	32.722	0	234.4	4	95.2	4	-1E+10	1	0.7300	4	0.001761	0	-1E+10	1	-1E+10	1	-1E+10	1
4902624	10	C	09/29/2024	05:33	-128.459	47.510	0	33.10	0	16.3310	0	32.1190	0	23.460	0	32.821	0	-1e10	1	-1e10	1	-1E+10	1	-1e10	1	-1e10	1	-1E+10	1	-1E+10	1	-1E+10	1
4902624	10	C	09/29/2024	05:33	-128.459	47.510	0	34.10	0	16.3299	0	32.1190	0	23.460	0	33.813	0	234.8	4	95.4	4	-1E+10	1	0.7243	4	0.001438	0	-1E+10	1	-1E+10	1	-1E+10	1
4902624	10	C	09/29/2024	05:33	-128.459	47.510	0	35.00	0	16.3290	0	32.1190	0	23.461	0	34.705	0	-1e10	1	-1e10	1	-1E+10	1	-1e10	1	-1e10	1	-1E+10	1	-1E+10	1	-1E+10	1
4902624	10	C	09/29/2024	05:33	-128.459	47.510	0	35.40	0	16.3296	0	32.1190	0	23.461	0	35.102	0	235.2	4	95.5	4	-1E+10	1	0.7178	4	0.001382	0	-1E+10	1	-1E+10	1	-1E+10	1
4902624	10	C	09/29/2024	05:33	-128.459	47.510	0	36.60	0	16.3314	0	32.1190	0	23.460	0	36.291	0	235.7	4	95.7	4	-1E+10	1	0.7026	4	0.001370	0	-1E+10	1	-1E+10	1	-1E+10	1
4902624	10	C	09/29/2024	05:33	-128.459	47.510	0	37.00	0	16.3320	0	32.1190	0	23.460	0	36.688	0	-1e10	1	-1e10	1	-1E+10	1	-1e10	1	-1e10	1	-1E+10	1	-1E+10	1	-1E+10	1
4902624	10	C	09/29/2024	05:33	-128.459	47.510	0	37.80	0	16.3340	0	32.1190	0	23.460	0	37.481	0	236.1	4	95.9	4	-1E+10	1	0.6789	4	0.001403	0	-1E+10	1	-1E+10	1	-1E+10	1
4902624	10	C	09/29/2024	05:33	-128.459	47.510	0	38.90	0	16.3368	0	32.1190	0	23.459	0	38.572	0	236.8	4	96.2	4	-1E+10	1	0.6845	4	0.001416	0	-1E+10	1	-1E+10	1	-1E+10	1
4902624	10	C	09/29/2024	05:33	-128.459	47.510	0	39.00	0	16.3370	0	32.1190	0	23.459	0	38.671	0	-1e10	1	-1e10	1	-1E+10	1	-1e10	1	-1e10	1	-1E+10	1	-1E+10	1	-1E+10	1
4902624	10	C	09/29/2024	05:33	-128.459	47.510	0	40.00	0	16.3430	0	32.1200	0	23.458	0	39.662	0	237.6	4	96.5	4	-1E+10	1	0.7358	4	0.001327	0	-1E+10	1	-1E+10	1	-1E+10	1
4902624	10	C	09/29/2024	05:33	-128.459	47.510	0	41.00	0	16.3490	0	32.1210	0	23.458	0	40.654	0	239.1	4	97.1	4	-1E+10	1	0.7565	4	0.001372	0	-1E+10	1	-1E+10	1	-1E+10	1
4902624	10	C	09/29/2024	05:33	-128.459	47.510	0	41.90	0	16.3364	0	32.1188	0	23.459	0	41.546	0	239.9	4	97.4	4	-1E+10	1	0.7446	4	0.001573	0	-1E+10	1	-1E+10	1	-1E+10	1
4902624	10	C	09/29/2024	05:33	-128.459	47.510	0	42.70	0	16.3252	0	32.1168	0	23.460	0	42.339	0	241.4	4	98.0	4	-1E+10	1	0.7122	4	0.001438	0	-1E+10	1	-1E+10	1	-1E+10	1
4902624	10	C	09/29/2024	05:33	-128.459	47.510	0	43.00	0	16.3210	0	32.1160	0	23.460	0	42.637	0	-1e10	1	-1e10	1	-1E+10	1	-1e10	1	-1e10	1	-1E+10	1	-1E+10	1	-1E+10	1
4902624	10	C	09/29/2024	05:33	-128.459	47.510	0	43.30	0	16.2206	0	32.1165	0	23.483	0	42.934	0	243.3	4	98.6	4	-1E+10	1	0.8054	4	0.001636	0	-1E+10	1	-1E+10	1	-1E+10	1
4902624	10	C	09/29/2024	05:33	-128.459	47.510	0	43.90	0	16.0199	0	32.1174	0	23.529	0	43.529	0	245.6	4	99.1	4	-1E+10	1	0.9390	4	0.001481	0	-1E+10	1	-1E+10	1	-1E+10	1
4902624	10	C	09/29/2024	05:33	-128.459	47.510	0	44.60	0	15.7858	0	32.1184	0	23.582	0	44.223	0	247.8	4	99.6	4	-1E+10	1	1.0257	4	0.001362	0	-1E+10	1	-1E+10	1	-1E+10	1
4902624	10	C	09/29/2024	05:33	-128.459	47.510	0	45.00	0	15.6520	0	32.1190	0	23.612	0	44.620	0	-1e10	1	-1e10	1	-1E+10	1	-1e10	1	-1e10	1	-1E+10	1	-1E+10	1	-1E+10	1
4902624	10	C	09/29/2024	05:33	-128.459	47.510	0	45.20	0	15.5996	0	32.1224	0	23.626	0	44.818	0	249.8	4	100.0	4	-1E+10	1	1.0314	4	0.001446	0	-1E+10	1	-1E+10	1	-1E+10	1
4902624	10	C	09/29/2024	05:33	-128.459	47.510	0	46.00	0	15.3900	0	32.1360	0	23.683	0	45.611	0	252.0	4	100.5	4	-1E+10	1	1.0521	4	0.001576	0	-1E+10	1	-1E+10	1	-1E+10	1
4902624	10	C	09/29/2024	05:33	-128.459	47.510	0	46.70	0	15.2066	0	32.1479	0	23.732	0	46.305	0	253.9	4	100.9	4	-1E+10	1	1.1388	4	0.001426	0	-1E+10	1	-1E+10	1	-1E+10	1
4902624	10	C	09/29/2024	05:33	-128.459	47.510	0	47.00	0	15.1280	0	32.1530	0	23.753	0	46.602	0	-1e10	1	-1e10	1	-1E+10	1	-1e10	1	-1e10	1	-1E+10	1	-1E+10	1	-1E+10	1
4902624	10	C	09/29/2024	05:33	-128.459	47.510	0	47.40	0	15.0547	0	32.1637	0	23.777	0	46.999	0	255.6	4	101.3	4	-1E+10	1	1.1388	4	0.001362	0	-1E+10	1	-1E+10	1	-1E+10	1
4902624	10	C	09/29/2024	05:33	-128.459	47.510	0	48.10	0	14.9263	0	32.1823	0	23.819	0	47.693	0	257.3	4	101.7	4	-1E+10	1	1.3213	4	0.001608	0	-1E+10	1	-1E+10	1	-1E+10	1
4902624	10	C	09/29/2024	05:33	-128.459	47.510	0	48.90	0	14.7797	0	32.2037	0	23.866	0	48.486	0	259.2	4	102.1	4	-1E+10	1	1.5184	4	0.001491	0	-1E+10	1	-1E+10	1	-1E+10	1
4902624	10	C	09/29/2024	05:33	-128.459	47.510	0	49.10	0	14.7430	0	32.2090	0	23.878	0	48.684	0	-1e10	1	-1e10	1	-1E+10	1	-1e10	1	-1e10	1	-1E+10	1	-1E+10	1	-1E+10	1
4902624	10	C	09/29/2024	05:33	-128.459	47.510	0	49.50	0	14.5914	0	32.2217	0	23.920	0	49.081	0	260.3	4	102.2	4	-1E+10	1	1.5294	4	0.001535	0	-1E+10	1	-1E+10	1	-1E+10	1
4902624	10	C	09/29/2024	05:33	-128.459	47.510	0	50.10	0	14.3641	0	32.2407	0	23.982	0	49.676	0	261.4	4	102.2	4	-1E+10	1	1.5427	4	0.001589	0	-1E+10	1	-1E+10	1	-1E+10	1
4902624	10	C	09/29/2024	05:33	-128.459	47.510	0	50.60	0	14.1747	0	32.2565	0	24.034	0	50.171	0	262.1	4	102.1	4	-1E+10	1	1.6790	4	0.001613	0	-1E+10	1	-1E+10	1	-1E+10	1
4902624	10	C	09/29/2024	05:33	-128.459	47.510	0	50.90	0	14.0610	0	32.2660	0	24.065	0	50.469	0	-1e10	1	-1e10	1	-1E+10	1	-1e10	1	-1e10	1	-1E+10	1	-1E+10	1	-1E+10	1
4902624	10	C	09/29/2024	05:33	-128.459	47.510	0	51.00	0	13.9906	0	32.2698	0	24.082	0	50.568	0	264.0	4	102.5	4	-1E+10	1	1.9333	4	0.001613	0	-1E+10	1	-1E+10	1	-1E+10	1
4902624	10	C	09/29/2024	05:33	-128.459	47.510	0	51.60	0	13.5683	0	32.2927	0	24.186	0	51.163	0	264.9	4	101.9	4	-1E+10	1	2.5355	4	0.001638	0	-1E+10	1	-1E+10	1	-1E+10	1
4902624	10	C	09/29/2024	05:33	-128.459	47.510	0	52.20	0	13.1460	0	32.3155	0	24.287	0	51.758	0	264.5	4	101.0	4	-1E+10	1	2.4768	4	0.001945	0	-1E+10	1	-1E+10	1	-1E+10	1
4902624	10	C	09/29/2024	05:33	-128.459	47.510	0	52.80	0	12.7238	0	32.3384	0	24.387	0	52.353	0	263.8	4	99.8	4	-1E+10	1	2.4893	4	0.002207	0	-1E+10	1	-1E+10	1	-1E+10	1
4902624	10	C	09/29/2024	05:33	-128.459	47.510	0	53.00	0	12.5830	0	32.3460	0	24.420	0	52.551	0	-1e10	1	-1e10	1	-1E+10	1	-1e10	1	-1e10	1	-1E+10	1	-1E+10	1	-1E+10	1
4902624	10	C	09/29/2024	05:33	-128.459	47.510	0	53.50	0	12.4366	0	32.3498	0	24.451	0	53.047	0	262.6	4	98.8	4	-1E+10	1	2.3133	4	0.002316	0	-1E+10	1	-1E+10	1	-1E+10	1
4902624	10	C	09/29/2024	05:33	-128.459	47.510	0	54.20	0	12.2316	0	32.3551	0	24.494	0	53.741	0	261.3	4	97.9	4	-1E+10	1	2.0544	4	0.001669	0	-1E+10	1	-1E+10	1	-1E+10	1
4902624	10	C	09/29/2024	05:33	-128.459	47.510	0	55.10	0	11.9680	0	32.3620	0	24.549	0	54.633	0	258.1	4	96.2	4	-1E+10	1	1.7513	4	0.001142	0	-1E+10	1	-1E+10	1	-1E+10	1
4902624	10	C	09/29/2024	05:33	-128.459	47.510	0	55.90	0	11.7343	0	32.3637	0	24.593	0	55.426	0	259.0	4	96.0	4	-1E+10	1	1.5622	4	0.001016	0	-1E+10	1	-1E+10	1	-1E+10	1
4902624	10	C	09/29/2024	05:33	-128.459	47.510	0	56.70	0	11.5006	0	32.3654	0	24.637	0	56.219	0	258.0	4	95.2	4	-1E+10	1	1.3992	4	0.000955	0	-1E+10	1	-1E+10	1	-1E+10	1
4902624	10	C	09/29/2024	05:33	-128.459	47.510	0	57.00	0	11.4130	0	32.3660	0	24.653	0	56.516	0	-1e10	1	-1e10	1	-1E+10	1	-1e10	1	-1e10	1	-1E+10	1	-1E+10	1	-1E+10	1
4902624	10	C	09/29/2024	05:33	-128.459	47.510	0	57.60	0	11.2854	0	32.3657	0	24.676	0	57.111	0	257.3	4	94.5	4	-1E+10	1	1.2231	4	0.000847	0	-1E+10	1	-1E+10	1	-1E+10	1
4902624	10	C	09/29/2024	05:33	-128.459	47.510	0	58.50	0	11.0941	0	32.3652	0	24.710	0	58.003	0	257.1	4	94.1	4	-1E+10	1	1.1039	4	0.000788	0	-1E+10	1	-1E+10	1	-1E+10	1
4902624	10	C	09/29/2024	05:33	-128.459	47.510	0	58.90	0	11.0090	0	32.3650	0	24.724	0	58.400	0	-1e10	1	-1e10	1	-1E+10	1	-1e10	1	-1e10	1	-1E+10	1	-1E+10	1	-1E+10	1
4902624	10	C	09/29/2024	05:33	-128.459	47.510	0	59.50	0	10.9099	0	32.3650	0	24.742	0	58.995	0	256.7	4	93.5	4	-1E+10	1	0.9767	4	0.000799	0	-1E+10	1	-1E+10	1	-1E+10	1
4902624	10	C	09/29/2024	05:33	-128.459	47.510	0	60.50	0	10.7446	0	32.3650	0	24.771	0	59.986	0	256.7	4	93.2	4	-1E+10	1	0.8748	4	0.000791	0	-1E+10	1	-1E+10	1	-1E+10	1
4902624	10	C	09/29/2024	05:33	-128.459	47.510	0	61.00	0	10.6620	0	32.3650	0	24.785	0	60.482	0	-1e10	1	-1e10	1	-1E+10	1	-1e10	1	-1e10	1	-1E+10	1	-1E+10	1	-1E+10	1
4902624	10	C	09/29/2024	05:33	-128.459	47.510	0	61.50	0	10.6192	0	32.3665	0	24.793	0	60.978	0	256.4	4	92.9	4	-1E+10	1	0.8322	4	0.000752	0	-1E+10	1	-1E+10	1	-1E+10	1
4902624	10	C	09/29/2024	05:33	-128.459	47.510	0	62.50	0	10.5338	0	32.3695	0	24.810	0	61.969	0	256.2	4	92.6	4	-1E+10	1	0.7774	4	0.000683	0	-1E+10	1	-1E+10	1	-1E+10	1
4902624	10	C	09/29/2024	05:33	-128.459	47.510	0	63.00	0	10.4910	0	32.3710	0	24.819	0	62.465	0	-1e10	1	-1e10	1	-1E+10	1	-1e10	1	-1e10	1	-1E+10	1	-1E+10	1	-1E+10	1
4902624	10	C	09/29/2024	05:33	-128.459	47.510	0	63.50	0	10.4567	0	32.3732	0	24.826	0	62.960	0	255.6	4	92.2	4	-1E+10	1	0.7373	4	0.000698	0	-1E+10	1	-1E+10	1	-1E+10	1
4902624	10	C	09/29/2024	05:33	-128.459	47.510	0	64.60	0	10.3814	0	32.3782	0	24.843	0	64.051	0	255.2	4	91.9	4	-1E+10	1	0.6845	4	0.000652	0	-1E+10	1	-1E+10	1	-1E+10	1
4902624	10	C	09/29/2024	05:33	-128.459	47.510	0	65.00	0	10.3540	0	32.3800	0	24.849	0	64.447	0	-1e10	1	-1e10	1	-1E+10	1	-1e10	1	-1e10	1	-1E+10	1	-1E+10	1	-1E+10	1
4902624	10	C	09/29/2024	05:33	-128.459	47.510	0	65.60	0	10.3186	0	32.3788	0	24.854	0	65.042	0	254.5	4	91.6	4	-1E+10	1	0.6475	4	0.000637	0	-1E+10	1	-1E+10	1	-1E+10	1
4902624	10	C	09/29/2024	05:33	-128.459	47.510	0	66.60	0	10.2596	0	32.3768	0	24.863	0	66.033	0	253.6	4	91.2	4	-1E+10	1	0.6256	4	0.000643	0	-1E+10	1	-1E+10	1	-1E+10	1
4902624	10	C	09/29/2024	05:33	-128.459	47.510	0	67.00	0	10.2360	0	32.3760	0	24.866	0	66.430	0	-1e10	1	-1e10	1	-1E+10	1	-1e10	1	-1e10	1	-1E+10	1	-1E+10	1	-1E+10	1
4902624	10	C	09/29/2024	05:33	-128.459	47.510	0	67.70	0	10.1513	0	32.3773	0	24.881	0	67.124	0	253.0	4	90.7	4	-1E+10	1	0.6093	4	0.000613	0	-1E+10	1	-1E+10	1	-1E+10	1
4902624	10	C	09/29/2024	05:33	-128.459	47.510	0	68.80	0	10.0183	0	32.3794	0	24.905	0	68.214	0	252.8	4	90.4	4	-1E+10	1	0.5750	4	0.000560	0	-1E+10	1	-1E+10	1	-1E+10	1
4902624	10	C	09/29/2024	05:33	-128.459	47.510	0	69.10	0	9.9820	0	32.3800	0	24.911	0	68.512	0	-1e10	1	-1e10	1	-1E+10	1	-1e10	1	-1e10	1	-1E+10	1	-1E+10	1	-1E+10	1
4902624	10	C	09/29/2024	05:33	-128.459	47.510	0	69.90	0	9.8780	0	32.3756	0	24.925	0	69.305	0	252.6	4	90.0	4	-1E+10	1	0.5256	4	0.000541	0	-1E+10	1	-1E+10	1	-1E+10	1
4902624	10	C	09/29/2024	05:33	-128.459	47.510	0	70.90	0	9.7480	0	32.3700	0	24.942	0	70.296	0	249.7	4	88.7	4	-1E+10	1	0.4964	4	0.000546	0	-1E+10	1	-1E+10	1	-1E+10	1
4902624	10	C	09/29/2024	05:33	-128.459	47.510	0	72.00	0	9.7030	0	32.3695	0	24.949	0	71.387	0	252.3	4	89.6	4	-1E+10	1	0.4655	4	0.000561	0	-1E+10	1	-1E+10	1	-1E+10	1
4902624	10	C	09/29/2024	05:33	-128.459	47.510	0	73.00	0	9.6620	0	32.3690	0	24.955	0	72.378	0	-1e10	1	-1e10	1	-1E+10	1	-1e10	1	-1e10	1	-1E+10	1	-1E+10	1	-1E+10	1
4902624	10	C	09/29/2024	05:33	-128.459	47.510	0	73.10	0	9.6641	0	32.3707	0	24.956	0	72.477	0	252.0	4	89.4	4	-1E+10	1	0.4245	4	0.000532	0	-1E+10	1	-1E+10	1	-1E+10	1
4902624	10	C	09/29/2024	05:33	-128.459	47.510	0	74.10	0	9.6851	0	32.3871	0	24.966	0	73.468	0	250.8	4	89.0	4	-1E+10	1	0.4044	4	0.000855	0	-1E+10	1	-1E+10	1	-1E+10	1
4902624	10	C	09/29/2024	05:33	-128.459	47.510	0	75.00	0	9.7040	0	32.4020	0	24.974	0	74.360	0	-1e10	1	-1e10	1	-1E+10	1	-1e10	1	-1e10	1	-1E+10	1	-1E+10	1	-1E+10	1
4902624	10	C	09/29/2024	05:33	-128.459	47.510	0	75.10	0	9.6992	0	32.4021	0	24.975	0	74.460	0	249.8	4	88.7	4	-1E+10	1	0.3948	4	0.000804	0	-1E+10	1	-1E+10	1	-1E+10	1
4902624	10	C	09/29/2024	05:33	-128.459	47.510	0	76.20	0	9.6458	0	32.4038	0	24.985	0	75.550	0	248.9	4	88.3	4	-1E+10	1	0.3796	4	0.000480	0	-1E+10	1	-1E+10	1	-1E+10	1
4902624	10	C	09/29/2024	05:33	-128.459	47.510	0	77.00	0	9.6070	0	32.4050	0	24.992	0	76.343	0	-1e10	1	-1e10	1	-1E+10	1	-1e10	1	-1e10	1	-1E+10	1	-1E+10	1	-1E+10	1
4902624	10	C	09/29/2024	05:33	-128.459	47.510	0	77.20	0	9.5944	0	32.4058	0	24.995	0	76.541	0	247.7	4	87.8	4	-1E+10	1	0.3610	4	0.000475	0	-1E+10	1	-1E+10	1	-1E+10	1
4902624	10	C	09/29/2024	05:33	-128.459	47.510	0	78.30	0	9.5251	0	32.4102	0	25.010	0	77.632	0	246.9	4	87.4	4	-1E+10	1	0.3395	4	0.000472	0	-1E+10	1	-1E+10	1	-1E+10	1
4902624	10	C	09/29/2024	05:33	-128.459	47.510	0	79.00	0	9.4810	0	32.4130	0	25.019	0	78.326	0	-1e10	1	-1e10	1	-1E+10	1	-1e10	1	-1e10	1	-1E+10	1	-1E+10	1	-1E+10	1
4902624	10	C	09/29/2024	05:33	-128.459	47.510	0	79.30	0	9.4555	0	32.4122	0	25.022	0	78.623	0	246.0	4	86.9	4	-1E+10	1	0.3212	4	0.000482	0	-1E+10	1	-1E+10	1	-1E+10	1
4902624	10	C	09/29/2024	05:33	-128.459	47.510	0	80.30	0	9.3705	0	32.4098	0	25.034	0	79.614	0	245.1	4	86.4	4	-1E+10	1	0.3029	4	0.000472	0	-1E+10	1	-1E+10	1	-1E+10	1
4902624	10	C	09/29/2024	05:33	-128.459	47.510	0	81.00	0	9.3110	0	32.4080	0	25.042	0	80.308	0	-1e10	1	-1e10	1	-1E+10	1	-1e10	1	-1e10	1	-1E+10	1	-1E+10	1	-1E+10	1
4902624	10	C	09/29/2024	05:33	-128.459	47.510	0	81.30	0	9.2831	0	32.4087	0	25.047	0	80.606	0	244.1	4	85.9	4	-1E+10	1	0.2834	4	0.000487	0	-1E+10	1	-1E+10	1	-1E+10	1
4902624	10	C	09/29/2024	05:33	-128.459	47.510	0	82.40	0	9.1810	0	32.4113	0	25.065	0	81.696	0	243.3	4	85.4	4	-1E+10	1	0.2677	4	0.000470	0	-1E+10	1	-1E+10	1	-1E+10	1
4902624	10	C	09/29/2024	05:33	-128.459	47.510	0	83.10	0	9.1160	0	32.4130	0	25.077	0	82.390	0	-1e10	1	-1e10	1	-1E+10	1	-1e10	1	-1e10	1	-1E+10	1	-1E+10	1	-1E+10	1
4902624	10	C	09/29/2024	05:33	-128.459	47.510	0	83.40	0	9.1037	0	32.4136	0	25.079	0	82.687	0	242.5	4	85.0	4	-1E+10	1	0.2519	4	0.000441	0	-1E+10	1	-1E+10	1	-1E+10	1
4902624	10	C	09/29/2024	05:33	-128.459	47.510	0	84.40	0	9.0626	0	32.4157	0	25.087	0	83.678	0	241.7	4	84.6	4	-1E+10	1	0.2409	4	0.000411	0	-1E+10	1	-1E+10	1	-1E+10	1
4902624	10	C	09/29/2024	05:33	-128.459	47.510	0	85.00	0	9.0380	0	32.4170	0	25.092	0	84.273	0	-1e10	1	-1e10	1	-1E+10	1	-1e10	1	-1e10	1	-1E+10	1	-1E+10	1	-1E+10	1
4902624	10	C	09/29/2024	05:33	-128.459	47.510	0	85.40	0	9.0292	0	32.4176	0	25.094	0	84.670	0	240.8	4	84.3	4	-1E+10	1	0.2458	4	0.000399	0	-1E+10	1	-1E+10	1	-1E+10	1
4902624	10	C	09/29/2024	05:33	-128.459	47.510	0	86.40	0	9.0071	0	32.4192	0	25.098	0	85.661	0	239.8	4	83.9	4	-1E+10	1	0.2458	4	0.000413	0	-1E+10	1	-1E+10	1	-1E+10	1
4902624	10	C	09/29/2024	05:33	-128.459	47.510	0	86.90	0	8.9960	0	32.4200	0	25.101	0	86.157	0	-1e10	1	-1e10	1	-1E+10	1	-1e10	1	-1e10	1	-1E+10	1	-1E+10	1	-1E+10	1
4902624	10	C	09/29/2024	05:33	-128.459	47.510	0	87.40	0	8.9783	0	32.4268	0	25.109	0	86.652	0	238.9	4	83.5	4	-1E+10	1	0.1971	4	0.000423	0	-1E+10	1	-1E+10	1	-1E+10	1
4902624	10	C	09/29/2024	05:33	-128.459	47.510	0	88.40	0	8.9427	0	32.4402	0	25.125	0	87.643	0	237.6	4	83.0	4	-1E+10	1	0.2117	4	0.000364	0	-1E+10	1	-1E+10	1	-1E+10	1
4902624	10	C	09/29/2024	05:33	-128.459	47.510	0	88.90	0	8.9250	0	32.4470	0	25.133	0	88.139	0	-1e10	1	-1e10	1	-1E+10	1	-1e10	1	-1e10	1	-1E+10	1	-1E+10	1	-1E+10	1
4902624	10	C	09/29/2024	05:33	-128.459	47.510	0	89.40	0	8.9009	0	32.4511	0	25.140	0	88.635	0	236.3	4	82.5	4	-1E+10	1	0.2056	4	0.000423	0	-1E+10	1	-1E+10	1	-1E+10	1
4902624	10	C	09/29/2024	05:33	-128.459	47.510	0	90.40	0	8.8527	0	32.4593	0	25.154	0	89.626	0	234.9	4	81.9	4	-1E+10	1	0.1832	4	0.000401	0	-1E+10	1	-1E+10	1	-1E+10	1
4902624	10	C	09/29/2024	05:33	-128.459	47.510	0	91.10	0	8.8190	0	32.4650	0	25.163	0	90.320	0	-1e10	1	-1e10	1	-1E+10	1	-1e10	1	-1e10	1	-1E+10	1	-1E+10	1	-1E+10	1
4902624	10	C	09/29/2024	05:33	-128.459	47.510	0	91.40	0	8.8034	0	32.4704	0	25.170	0	90.617	0	233.4	4	81.3	4	-1E+10	1	0.1798	4	0.000388	0	-1E+10	1	-1E+10	1	-1E+10	1
4902624	10	C	09/29/2024	05:33	-128.459	47.510	0	92.40	0	8.7513	0	32.4883	0	25.192	0	91.608	0	232.0	4	80.7	4	-1E+10	1	0.1706	4	0.000375	0	-1E+10	1	-1E+10	1	-1E+10	1
4902624	10	C	09/29/2024	05:33	-128.459	47.510	0	93.00	0	8.7200	0	32.4990	0	25.205	0	92.203	0	-1e10	1	-1e10	1	-1E+10	1	-1e10	1	-1e10	1	-1E+10	1	-1E+10	1	-1E+10	1
4902624	10	C	09/29/2024	05:33	-128.459	47.510	0	93.30	0	8.6982	0	32.5063	0	25.214	0	92.500	0	230.8	4	80.2	4	-1E+10	1	0.1606	4	0.000357	0	-1E+10	1	-1E+10	1	-1E+10	1
4902624	10	C	09/29/2024	05:33	-128.459	47.510	0	94.30	0	8.6256	0	32.5305	0	25.244	0	93.492	0	230.1	4	79.9	4	-1E+10	1	0.1574	4	0.000341	0	-1E+10	1	-1E+10	1	-1E+10	1
4902624	10	C	09/29/2024	05:33	-128.459	47.510	0	94.90	0	8.5820	0	32.5450	0	25.262	0	94.086	0	-1e10	1	-1e10	1	-1E+10	1	-1e10	1	-1e10	1	-1E+10	1	-1E+10	1	-1E+10	1
4902624	10	C	09/29/2024	05:33	-128.459	47.510	0	95.20	0	8.5710	0	32.5483	0	25.266	0	94.384	0	229.2	4	79.5	4	-1E+10	1	0.1476	4	0.000344	0	-1E+10	1	-1E+10	1	-1E+10	1
4902624	10	C	09/29/2024	05:33	-128.459	47.510	0	95.90	0	8.5453	0	32.5560	0	25.276	0	95.077	0	228.3	4	79.1	4	-1E+10	1	0.1533	4	0.000353	0	-1E+10	1	-1E+10	1	-1E+10	1
4902624	10	C	09/29/2024	05:33	-128.459	47.510	0	96.50	0	8.5233	0	32.5625	0	25.285	0	95.672	0	227.4	4	78.8	4	-1E+10	1	0.1533	4	0.000433	0	-1E+10	1	-1E+10	1	-1E+10	1
4902624	10	C	09/29/2024	05:33	-128.459	47.510	0	97.00	0	8.5050	0	32.5680	0	25.292	0	96.168	0	-1e10	1	-1e10	1	-1E+10	1	-1e10	1	-1e10	1	-1E+10	1	-1E+10	1	-1E+10	1
4902624	10	C	09/29/2024	05:33	-128.459	47.510	0	97.10	0	8.5041	0	32.5688	0	25.292	0	96.267	0	226.5	4	78.4	4	-1E+10	1	0.1776	4	0.000437	0	-1E+10	1	-1E+10	1	-1E+10	1
4902624	10	C	09/29/2024	05:33	-128.459	47.510	0	97.70	0	8.4984	0	32.5732	0	25.297	0	96.862	0	225.5	4	78.1	4	-1E+10	1	0.1871	4	0.000361	0	-1E+10	1	-1E+10	1	-1E+10	1
4902624	10	C	09/29/2024	05:33	-128.459	47.510	0	98.30	0	8.4927	0	32.5778	0	25.301	0	97.456	0	224.6	4	77.8	4	-1E+10	1	0.1752	4	0.000323	0	-1E+10	1	-1E+10	1	-1E+10	1
4902624	10	C	09/29/2024	05:33	-128.459	47.510	0	98.90	0	8.4869	0	32.5822	0	25.306	0	98.051	0	223.7	4	77.4	4	-1E+10	1	0.1569	4	0.000335	0	-1E+10	1	-1E+10	1	-1E+10	1
4902624	10	C	09/29/2024	05:33	-128.459	47.510	0	99.00	0	8.4860	0	32.5830	0	25.306	0	98.150	0	-1e10	1	-1e10	1	-1E+10	1	-1e10	1	-1e10	1	-1E+10	1	-1E+10	1	-1E+10	1
4902624	10	C	09/29/2024	05:33	-128.459	47.510	0	99.50	0	8.4774	0	32.5899	0	25.313	0	98.646	0	222.6	4	77.0	4	-1E+10	1	0.1478	4	0.000350	0	-1E+10	1	-1E+10	1	-1E+10	1
4902624	10	C	09/29/2024	05:33	-128.459	47.510	0	100.10	0	8.4671	0	32.5982	0	25.321	0	99.240	0	221.4	4	76.6	4	-1E+10	1	0.1396	4	0.000358	0	-1E+10	1	-1E+10	1	-1E+10	1
4902624	10	C	09/29/2024	05:33	-128.459	47.510	0	100.80	0	8.4551	0	32.6079	0	25.330	0	99.934	0	220.1	4	76.2	4	-1E+10	1	0.1460	4	0.000317	0	-1E+10	1	-1E+10	1	-1E+10	1
4902624	10	C	09/29/2024	05:33	-128.459	47.510	0	101.10	0	8.4500	0	32.6120	0	25.334	0	100.232	0	-1e10	1	-1e10	1	-1E+10	1	-1e10	1	-1e10	1	-1E+10	1	-1E+10	1	-1E+10	1
4902624	10	C	09/29/2024	05:33	-128.459	47.510	0	101.40	0	8.4438	0	32.6196	0	25.341	0	100.529	0	218.7	4	75.7	4	-1E+10	1	0.1387	4	0.000341	0	-1E+10	1	-1E+10	1	-1E+10	1
4902624	10	C	09/29/2024	05:33	-128.459	47.510	0	102.20	0	8.4274	0	32.6398	0	25.360	0	101.322	0	217.1	4	75.1	4	-1E+10	1	0.1241	4	0.000306	0	-1E+10	1	-1E+10	1	-1E+10	1
4902624	10	C	09/29/2024	05:33	-128.459	47.510	0	102.90	0	8.4131	0	32.6575	0	25.376	0	102.016	0	215.7	4	74.6	4	-1E+10	1	0.1369	4	0.000298	0	-1E+10	1	-1E+10	1	-1E+10	1
4902624	10	C	09/29/2024	05:33	-128.459	47.510	0	103.00	0	8.4110	0	32.6600	0	25.378	0	102.115	0	-1e10	1	-1e10	1	-1E+10	1	-1e10	1	-1e10	1	-1E+10	1	-1E+10	1	-1E+10	1
4902624	10	C	09/29/2024	05:33	-128.459	47.510	0	103.60	0	8.4154	0	32.6786	0	25.392	0	102.709	0	214.2	4	74.1	4	-1E+10	1	0.1277	4	0.000304	0	-1E+10	1	-1E+10	1	-1E+10	1
4902624	10	C	09/29/2024	05:33	-128.459	47.510	0	104.40	0	8.4213	0	32.7035	0	25.410	0	103.502	0	212.5	4	73.5	4	-1E+10	1	0.1241	4	0.000298	0	-1E+10	1	-1E+10	1	-1E+10	1
4902624	10	C	09/29/2024	05:33	-128.459	47.510	0	104.90	0	8.4250	0	32.7190	0	25.422	0	103.998	0	-1e10	1	-1e10	1	-1E+10	1	-1e10	1	-1e10	1	-1E+10	1	-1E+10	1	-1E+10	1
4902624	10	C	09/29/2024	05:33	-128.459	47.510	0	105.20	0	8.4235	0	32.7268	0	25.428	0	104.295	0	210.8	4	72.9	4	-1E+10	1	0.1350	4	0.000306	0	-1E+10	1	-1E+10	1	-1E+10	1
4902624	10	C	09/29/2024	05:33	-128.459	47.510	0	106.00	0	8.4195	0	32.7476	0	25.445	0	105.088	0	209.3	4	72.4	4	-1E+10	1	0.1411	4	0.000313	0	-1E+10	1	-1E+10	1	-1E+10	1
4902624	10	C	09/29/2024	05:33	-128.459	47.510	0	106.90	0	8.4150	0	32.7710	0	25.464	0	105.980	0	204.4	4	70.8	4	-1E+10	1	0.1314	4	0.000306	0	-1E+10	1	-1E+10	1	-1E+10	1
4902624	10	C	09/29/2024	05:33	-128.459	47.510	0	107.70	0	8.3883	0	32.7897	0	25.483	0	106.773	0	206.2	4	71.3	4	-1E+10	1	0.1341	4	0.000312	0	-1E+10	1	-1E+10	1	-1E+10	1
4902624	10	C	09/29/2024	05:33	-128.459	47.510	0	108.60	0	8.3583	0	32.8107	0	25.504	0	107.665	0	204.6	4	70.8	4	-1E+10	1	0.1460	4	0.000341	0	-1E+10	1	-1E+10	1	-1E+10	1
4902624	10	C	09/29/2024	05:33	-128.459	47.510	0	109.00	0	8.3450	0	32.8200	0	25.513	0	108.062	0	-1e10	1	-1e10	1	-1E+10	1	-1e10	1	-1e10	1	-1E+10	1	-1E+10	1	-1E+10	1
4902624	10	C	09/29/2024	05:33	-128.459	47.510	0	109.50	0	8.3260	0	32.8295	0	25.524	0	108.557	0	203.2	4	70.2	4	-1E+10	1	0.1314	4	0.000270	0	-1E+10	1	-1E+10	1	-1E+10	1
4902624	10	C	09/29/2024	05:33	-128.459	47.510	0	110.40	0	8.2918	0	32.8466	0	25.542	0	109.449	0	201.7	4	69.6	4	-1E+10	1	0.1195	4	0.000270	0	-1E+10	1	-1E+10	1	-1E+10	1
4902624	10	C	09/29/2024	05:33	-128.459	47.510	0	111.00	0	8.2690	0	32.8580	0	25.554	0	110.044	0	-1e10	1	-1e10	1	-1E+10	1	-1e10	1	-1e10	1	-1E+10	1	-1E+10	1	-1E+10	1
4902624	10	C	09/29/2024	05:33	-128.459	47.510	0	111.30	0	8.2569	0	32.8640	0	25.561	0	110.341	0	200.0	4	69.0	4	-1E+10	1	0.1168	4	0.000293	0	-1E+10	1	-1E+10	1	-1E+10	1
4902624	10	C	09/29/2024	05:33	-128.459	47.510	0	112.20	0	8.2204	0	32.8820	0	25.580	0	111.233	0	198.6	4	68.5	4	-1E+10	1	0.1249	4	0.000312	0	-1E+10	1	-1E+10	1	-1E+10	1
4902624	10	C	09/29/2024	05:33	-128.459	47.510	0	113.00	0	8.1880	0	32.8980	0	25.598	0	112.026	0	-1e10	1	-1e10	1	-1E+10	1	-1e10	1	-1e10	1	-1E+10	1	-1E+10	1	-1E+10	1
4902624	10	C	09/29/2024	05:33	-128.459	47.510	0	113.20	0	8.1702	0	32.8994	0	25.601	0	112.224	0	197.2	4	67.9	4	-1E+10	1	0.1314	4	0.000317	0	-1E+10	1	-1E+10	1	-1E+10	1
4902624	10	C	09/29/2024	05:33	-128.459	47.510	0	114.10	0	8.0901	0	32.9057	0	25.618	0	113.116	0	195.9	4	67.4	4	-1E+10	1	0.1241	4	0.000309	0	-1E+10	1	-1E+10	1	-1E+10	1
4902624	10	C	09/29/2024	05:33	-128.459	47.510	0	115.00	0	8.0100	0	32.9120	0	25.635	0	114.008	0	-1e10	1	-1e10	1	-1E+10	1	-1e10	1	-1e10	1	-1E+10	1	-1E+10	1	-1E+10	1
4902624	10	C	09/29/2024	05:33	-128.459	47.510	0	115.10	0	8.0030	0	32.9128	0	25.636	0	114.107	0	194.6	4	66.8	4	-1E+10	1	0.1095	4	0.000299	0	-1E+10	1	-1E+10	1	-1E+10	1
4902624	10	C	09/29/2024	05:33	-128.459	47.510	0	116.10	0	7.9325	0	32.9208	0	25.653	0	115.099	0	193.4	4	66.3	4	-1E+10	1	0.1113	4	0.000312	0	-1E+10	1	-1E+10	1	-1E+10	1
4902624	10	C	09/29/2024	05:33	-128.459	47.510	0	117.00	0	7.8690	0	32.9280	0	25.668	0	115.991	0	188.6	4	64.6	4	-1E+10	1	0.1168	4	0.000296	0	-1E+10	1	-1E+10	1	-1E+10	1
4902624	10	C	09/29/2024	05:33	-128.459	47.510	0	118.10	0	7.8437	0	32.9489	0	25.688	0	117.081	0	190.5	4	65.2	4	-1E+10	1	0.0983	4	0.000304	0	-1E+10	1	-1E+10	1	-1E+10	1
4902624	10	C	09/29/2024	05:33	-128.459	47.510	0	119.00	0	7.8230	0	32.9660	0	25.704	0	117.973	0	-1e10	1	-1e10	1	-1E+10	1	-1e10	1	-1e10	1	-1E+10	1	-1E+10	1	-1E+10	1
4902624	10	C	09/29/2024	05:33	-128.459	47.510	0	119.10	0	7.8200	0	32.9683	0	25.706	0	118.072	0	189.0	4	64.7	4	-1E+10	1	0.1007	4	0.000296	0	-1E+10	1	-1E+10	1	-1E+10	1
4902624	10	C	09/29/2024	05:33	-128.459	47.510	0	120.10	0	7.7895	0	32.9907	0	25.728	0	119.063	0	187.7	4	64.2	4	-1E+10	1	0.0876	4	0.000294	0	-1E+10	1	-1E+10	1	-1E+10	1
4902624	10	C	09/29/2024	05:33	-128.459	47.510	0	121.00	0	7.7620	0	33.0110	0	25.748	0	119.955	0	-1e10	1	-1e10	1	-1E+10	1	-1e10	1	-1e10	1	-1E+10	1	-1E+10	1	-1E+10	1
4902624	10	C	09/29/2024	05:33	-128.459	47.510	0	121.20	0	7.7556	0	33.0158	0	25.753	0	120.153	0	186.1	4	63.6	4	-1E+10	1	0.0842	4	0.000300	0	-1E+10	1	-1E+10	1	-1E+10	1
4902624	10	C	09/29/2024	05:33	-128.459	47.510	0	122.20	0	7.7236	0	33.0398	0	25.776	0	121.144	0	184.3	4	62.9	4	-1E+10	1	0.0849	4	0.000318	0	-1E+10	1	-1E+10	1	-1E+10	1
4902624	10	C	09/29/2024	05:33	-128.459	47.510	0	123.00	0	7.6980	0	33.0590	0	25.795	0	121.937	0	-1e10	1	-1e10	1	-1E+10	1	-1e10	1	-1e10	1	-1E+10	1	-1E+10	1	-1E+10	1
4902624	10	C	09/29/2024	05:33	-128.459	47.510	0	123.30	0	7.6928	0	33.0652	0	25.801	0	122.234	0	182.9	4	62.4	4	-1E+10	1	0.0803	4	0.000325	0	-1E+10	1	-1E+10	1	-1E+10	1
4902624	10	C	09/29/2024	05:33	-128.459	47.510	0	124.30	0	7.6754	0	33.0857	0	25.819	0	123.225	0	181.5	4	61.9	4	-1E+10	1	0.0803	4	0.000294	0	-1E+10	1	-1E+10	1	-1E+10	1
4902624	10	C	09/29/2024	05:33	-128.459	47.510	0	124.90	0	7.6650	0	33.0980	0	25.830	0	123.820	0	-1e10	1	-1e10	1	-1E+10	1	-1e10	1	-1e10	1	-1E+10	1	-1E+10	1	-1E+10	1
4902624	10	C	09/29/2024	05:33	-128.459	47.510	0	125.20	0	7.6619	0	33.1047	0	25.836	0	124.117	0	179.9	4	61.4	4	-1E+10	1	0.0803	4	0.000294	0	-1E+10	1	-1E+10	1	-1E+10	1
4902624	10	C	09/29/2024	05:33	-128.459	47.510	0	125.90	0	7.6545	0	33.1203	0	25.849	0	124.811	0	178.3	4	60.8	4	-1E+10	1	0.0876	4	0.000247	0	-1E+10	1	-1E+10	1	-1E+10	1
4902624	10	C	09/29/2024	05:33	-128.459	47.510	0	126.50	0	7.6483	0	33.1336	0	25.861	0	125.406	0	176.9	4	60.3	4	-1E+10	1	0.0821	4	0.000291	0	-1E+10	1	-1E+10	1	-1E+10	1
4902624	10	C	09/29/2024	05:33	-128.459	47.510	0	127.10	0	7.6420	0	33.1470	0	25.872	0	126.000	0	172.0	4	58.7	4	-1E+10	1	0.0720	4	0.000305	0	-1E+10	1	-1E+10	1	-1E+10	1
4902624	10	C	09/29/2024	05:33	-128.459	47.510	0	127.80	0	7.6254	0	33.1617	0	25.886	0	126.694	0	174.1	4	59.4	4	-1E+10	1	0.0706	4	0.000298	0	-1E+10	1	-1E+10	1	-1E+10	1
4902624	10	C	09/29/2024	05:33	-128.459	47.510	0	128.30	0	7.6136	0	33.1723	0	25.896	0	127.190	0	172.6	4	58.8	4	-1E+10	1	0.0730	4	0.000307	0	-1E+10	1	-1E+10	1	-1E+10	1
4902624	10	C	09/29/2024	05:33	-128.459	47.510	0	129.00	0	7.5970	0	33.1870	0	25.910	0	127.883	0	167.7	4	57.2	4	-1E+10	1	0.0688	4	0.000312	0	-1E+10	1	-1E+10	1	-1E+10	1
4902624	10	C	09/29/2024	05:33	-128.459	47.510	0	129.70	0	7.5750	0	33.2014	0	25.925	0	128.577	0	170.3	4	58.0	4	-1E+10	1	0.0647	4	0.000304	0	-1E+10	1	-1E+10	1	-1E+10	1
4902624	10	C	09/29/2024	05:33	-128.459	47.510	0	130.30	0	7.5560	0	33.2136	0	25.937	0	129.172	0	169.2	4	57.6	4	-1E+10	1	0.0794	4	0.000382	0	-1E+10	1	-1E+10	1	-1E+10	1
4902624	10	C	09/29/2024	05:33	-128.459	47.510	0	131.00	0	7.5340	0	33.2280	0	25.951	0	129.865	0	164.4	4	56.0	4	-1E+10	1	0.0730	4	0.000342	0	-1E+10	1	-1E+10	1	-1E+10	1
4902624	10	C	09/29/2024	05:33	-128.459	47.510	0	131.80	0	7.5320	0	33.2424	0	25.963	0	130.658	0	166.5	4	56.7	4	-1E+10	1	0.0600	4	0.000299	0	-1E+10	1	-1E+10	1	-1E+10	1
4902624	10	C	09/29/2024	05:33	-128.459	47.510	0	132.50	0	7.5302	0	33.2550	0	25.973	0	131.352	0	165.4	4	56.3	4	-1E+10	1	0.0709	4	0.000324	0	-1E+10	1	-1E+10	1	-1E+10	1
4902624	10	C	09/29/2024	05:33	-128.459	47.510	0	133.00	0	7.5290	0	33.2640	0	25.980	0	131.847	0	-1e10	1	-1e10	1	-1E+10	1	-1e10	1	-1e10	1	-1E+10	1	-1E+10	1	-1E+10	1
4902624	10	C	09/29/2024	05:33	-128.459	47.510	0	133.20	0	7.5271	0	33.2658	0	25.982	0	132.046	0	164.5	4	56.0	4	-1E+10	1	0.0730	4	0.000321	0	-1E+10	1	-1E+10	1	-1E+10	1
4902624	10	C	09/29/2024	05:33	-128.459	47.510	0	133.90	0	7.5205	0	33.2721	0	25.988	0	132.739	0	163.6	4	55.7	4	-1E+10	1	0.0730	4	0.000333	0	-1E+10	1	-1E+10	1	-1E+10	1
4902624	10	C	09/29/2024	05:33	-128.459	47.510	0	134.70	0	7.5129	0	33.2792	0	25.995	0	133.532	0	162.8	4	55.4	4	-1E+10	1	0.0730	4	0.000332	0	-1E+10	1	-1E+10	1	-1E+10	1
4902624	10	C	09/29/2024	05:33	-128.459	47.510	0	134.90	0	7.5110	0	33.2810	0	25.996	0	133.730	0	-1e10	1	-1e10	1	-1E+10	1	-1e10	1	-1e10	1	-1E+10	1	-1E+10	1	-1E+10	1
4902624	10	C	09/29/2024	05:33	-128.459	47.510	0	135.40	0	7.4955	0	33.2912	0	26.006	0	134.226	0	161.8	4	55.1	4	-1E+10	1	0.0708	4	0.000337	0	-1E+10	1	-1E+10	1	-1E+10	1
4902624	10	C	09/29/2024	05:33	-128.459	47.510	0	136.20	0	7.4708	0	33.3076	0	26.023	0	135.019	0	160.6	4	54.6	4	-1E+10	1	0.0665	4	0.000401	0	-1E+10	1	-1E+10	1	-1E+10	1
4902624	10	C	09/29/2024	05:33	-128.459	47.510	0	137.00	0	7.4460	0	33.3240	0	26.039	0	135.811	0	156.3	4	53.1	4	-1E+10	1	0.0730	4	0.000318	0	-1E+10	1	-1E+10	1	-1E+10	1
4902624	10	C	09/29/2024	05:33	-128.459	47.510	0	137.80	0	7.4212	0	33.3464	0	26.060	0	136.604	0	158.9	4	54.0	4	-1E+10	1	0.0730	4	0.000329	0	-1E+10	1	-1E+10	1	-1E+10	1
4902624	10	C	09/29/2024	05:33	-128.459	47.510	0	138.60	0	7.3964	0	33.3688	0	26.081	0	137.397	0	158.1	4	53.7	4	-1E+10	1	0.0730	4	0.000291	0	-1E+10	1	-1E+10	1	-1E+10	1
4902624	10	C	09/29/2024	05:33	-128.459	47.510	0	139.00	0	7.3840	0	33.3800	0	26.092	0	137.793	0	-1e10	1	-1e10	1	-1E+10	1	-1e10	1	-1e10	1	-1E+10	1	-1E+10	1	-1E+10	1
4902624	10	C	09/29/2024	05:33	-128.459	47.510	0	139.40	0	7.3756	0	33.3893	0	26.100	0	138.190	0	157.2	4	53.4	4	-1E+10	1	0.0730	4	0.000313	0	-1E+10	1	-1E+10	1	-1E+10	1
4902624	10	C	09/29/2024	05:33	-128.459	47.510	0	140.20	0	7.3587	0	33.4078	0	26.117	0	138.983	0	156.6	4	53.2	4	-1E+10	1	0.0684	4	0.000314	0	-1E+10	1	-1E+10	1	-1E+10	1
4902624	10	C	09/29/2024	05:33	-128.459	47.510	0	140.90	0	7.3440	0	33.4240	0	26.132	0	139.676	0	-1e10	1	-1e10	1	-1E+10	1	-1e10	1	-1e10	1	-1E+10	1	-1E+10	1	-1E+10	1
4902624	10	C	09/29/2024	05:33	-128.459	47.510	0	141.10	0	7.3436	0	33.4269	0	26.134	0	139.874	0	156.0	4	53.0	4	-1E+10	1	0.0657	4	0.000326	0	-1E+10	1	-1E+10	1	-1E+10	1
4902624	10	C	09/29/2024	05:33	-128.459	47.510	0	141.90	0	7.3421	0	33.4383	0	26.144	0	140.667	0	155.1	4	52.7	4	-1E+10	1	0.0657	4	0.000353	0	-1E+10	1	-1E+10	1	-1E+10	1
4902624	10	C	09/29/2024	05:33	-128.459	47.510	0	142.80	0	7.3404	0	33.4511	0	26.154	0	141.559	0	153.9	4	52.3	4	-1E+10	1	0.0625	4	0.000363	0	-1E+10	1	-1E+10	1	-1E+10	1
4902624	10	C	09/29/2024	05:33	-128.459	47.510	0	143.00	0	7.3400	0	33.4540	0	26.156	0	141.757	0	-1e10	1	-1e10	1	-1E+10	1	-1e10	1	-1e10	1	-1E+10	1	-1E+10	1	-1E+10	1
4902624	10	C	09/29/2024	05:33	-128.459	47.510	0	143.60	0	7.3415	0	33.4624	0	26.163	0	142.352	0	152.7	4	51.8	4	-1E+10	1	0.0533	4	0.000315	0	-1E+10	1	-1E+10	1	-1E+10	1
4902624	10	C	09/29/2024	05:33	-128.459	47.510	0	144.50	0	7.3438	0	33.4750	0	26.172	0	143.244	0	151.2	4	51.3	4	-1E+10	1	0.0730	4	0.000294	0	-1E+10	1	-1E+10	1	-1E+10	1
4902624	10	C	09/29/2024	05:33	-128.459	47.510	0	145.00	0	7.3450	0	33.4820	0	26.178	0	143.739	0	-1e10	1	-1e10	1	-1E+10	1	-1e10	1	-1e10	1	-1E+10	1	-1E+10	1	-1E+10	1
4902624	10	C	09/29/2024	05:33	-128.459	47.510	0	145.40	0	7.3440	0	33.4896	0	26.184	0	144.136	0	149.9	4	50.9	4	-1E+10	1	0.0611	4	0.000322	0	-1E+10	1	-1E+10	1	-1E+10	1
4902624	10	C	09/29/2024	05:33	-128.459	47.510	0	146.30	0	7.3418	0	33.5067	0	26.198	0	145.027	0	148.8	4	50.5	4	-1E+10	1	0.0641	4	0.000329	0	-1E+10	1	-1E+10	1	-1E+10	1
4902624	10	C	09/29/2024	05:33	-128.459	47.510	0	147.00	0	7.3400	0	33.5200	0	26.208	0	145.721	0	-1e10	1	-1e10	1	-1E+10	1	-1e10	1	-1e10	1	-1E+10	1	-1E+10	1	-1E+10	1
4902624	10	C	09/29/2024	05:33	-128.459	47.510	0	147.20	0	7.3394	0	33.5216	0	26.210	0	145.919	0	147.7	4	50.2	4	-1E+10	1	0.0611	4	0.000321	0	-1E+10	1	-1E+10	1	-1E+10	1
4902624	10	C	09/29/2024	05:33	-128.459	47.510	0	148.10	0	7.3367	0	33.5288	0	26.216	0	146.811	0	146.5	4	49.8	4	-1E+10	1	0.0584	4	0.000311	0	-1E+10	1	-1E+10	1	-1E+10	1
4902624	10	C	09/29/2024	05:33	-128.459	47.510	0	149.00	0	7.3340	0	33.5360	0	26.222	0	147.703	0	141.6	4	48.1	4	-1E+10	1	0.0584	4	0.000347	0	-1E+10	1	-1E+10	1	-1E+10	1
4902624	10	C	09/29/2024	05:33	-128.459	47.510	0	149.90	0	7.3331	0	33.5536	0	26.236	0	148.595	0	143.2	4	48.7	4	-1E+10	1	0.0544	4	0.000385	0	-1E+10	1	-1E+10	1	-1E+10	1
4902624	10	C	09/29/2024	05:33	-128.459	47.510	0	150.90	0	7.3321	0	33.5731	0	26.251	0	149.586	0	142.0	4	48.3	4	-1E+10	1	0.0504	4	0.000317	0	-1E+10	1	-1E+10	1	-1E+10	1
4902624	10	C	09/29/2024	05:33	-128.459	47.510	0	151.00	0	7.3320	0	33.5750	0	26.253	0	149.685	0	-1e10	1	-1e10	1	-1E+10	1	-1e10	1	-1e10	1	-1E+10	1	-1E+10	1	-1E+10	1
4902624	10	C	09/29/2024	05:33	-128.459	47.510	0	151.80	0	7.3181	0	33.5876	0	26.265	0	150.478	0	141.1	4	48.0	4	-1E+10	1	0.0803	4	0.000317	0	-1E+10	1	-1E+10	1	-1E+10	1
4902624	10	C	09/29/2024	05:33	-128.459	47.510	0	152.80	0	7.3007	0	33.6034	0	26.279	0	151.469	0	140.4	4	47.7	4	-1E+10	1	0.0511	4	0.000329	0	-1E+10	1	-1E+10	1	-1E+10	1
4902624	10	C	09/29/2024	05:33	-128.459	47.510	0	152.90	0	7.2990	0	33.6050	0	26.281	0	151.568	0	-1e10	1	-1e10	1	-1E+10	1	-1e10	1	-1e10	1	-1E+10	1	-1E+10	1	-1E+10	1
4902624	10	C	09/29/2024	05:33	-128.459	47.510	0	153.80	0	7.3055	0	33.6124	0	26.286	0	152.459	0	139.8	4	47.5	4	-1E+10	1	0.0572	4	0.000338	0	-1E+10	1	-1E+10	1	-1E+10	1
4902624	10	C	09/29/2024	05:33	-128.459	47.510	0	154.80	0	7.3128	0	33.6205	0	26.291	0	153.450	0	139.0	4	47.2	4	-1E+10	1	0.0642	4	0.000359	0	-1E+10	1	-1E+10	1	-1E+10	1
4902624	10	C	09/29/2024	05:33	-128.459	47.510	0	155.10	0	7.3150	0	33.6230	0	26.293	0	153.748	0	-1e10	1	-1e10	1	-1E+10	1	-1e10	1	-1e10	1	-1E+10	1	-1E+10	1	-1E+10	1
4902624	10	C	09/29/2024	05:33	-128.459	47.510	0	155.80	0	7.3213	0	33.6279	0	26.296	0	154.441	0	138.2	4	47.0	4	-1E+10	1	0.0599	4	0.000373	0	-1E+10	1	-1E+10	1	-1E+10	1
4902624	10	C	09/29/2024	05:33	-128.459	47.510	0	156.80	0	7.3303	0	33.6349	0	26.300	0	155.432	0	137.4	4	46.7	4	-1E+10	1	0.0535	4	0.000344	0	-1E+10	1	-1E+10	1	-1E+10	1
4902624	10	C	09/29/2024	05:33	-128.459	47.510	0	157.10	0	7.3330	0	33.6370	0	26.301	0	155.729	0	-1e10	1	-1e10	1	-1E+10	1	-1e10	1	-1e10	1	-1E+10	1	-1E+10	1	-1E+10	1
4902624	10	C	09/29/2024	05:33	-128.459	47.510	0	157.70	0	7.3390	0	33.6411	0	26.304	0	156.324	0	136.5	4	46.4	4	-1E+10	1	0.0511	4	0.000334	0	-1E+10	1	-1E+10	1	-1E+10	1
4902624	10	C	09/29/2024	05:33	-128.459	47.510	0	158.70	0	7.3490	0	33.6479	0	26.308	0	157.315	0	135.6	4	46.1	4	-1E+10	1	0.0564	4	0.000336	0	-1E+10	1	-1E+10	1	-1E+10	1
4902624	10	C	09/29/2024	05:33	-128.459	47.510	0	159.00	0	7.3520	0	33.6500	0	26.309	0	157.612	0	-1e10	1	-1e10	1	-1E+10	1	-1e10	1	-1e10	1	-1E+10	1	-1E+10	1	-1E+10	1
4902624	10	C	09/29/2024	05:33	-128.459	47.510	0	159.70	0	7.3601	0	33.6560	0	26.313	0	158.306	0	134.6	4	45.8	4	-1E+10	1	0.0637	4	0.000341	0	-1E+10	1	-1E+10	1	-1E+10	1
4902624	10	C	09/29/2024	05:33	-128.459	47.510	0	160.70	0	7.3716	0	33.6645	0	26.318	0	159.297	0	133.6	4	45.5	4	-1E+10	1	0.0584	4	0.000372	0	-1E+10	1	-1E+10	1	-1E+10	1
4902624	10	C	09/29/2024	05:33	-128.459	47.510	0	161.00	0	7.3750	0	33.6670	0	26.319	0	159.594	0	-1e10	1	-1e10	1	-1E+10	1	-1e10	1	-1e10	1	-1E+10	1	-1E+10	1	-1E+10	1
4902624	10	C	09/29/2024	05:33	-128.459	47.510	0	161.70	0	7.3883	0	33.6792	0	26.327	0	160.288	0	132.8	4	45.2	4	-1E+10	1	0.0584	4	0.000352	0	-1E+10	1	-1E+10	1	-1E+10	1
4902624	10	C	09/29/2024	05:33	-128.459	47.510	0	162.80	0	7.4092	0	33.6985	0	26.339	0	161.377	0	132.1	4	45.0	4	-1E+10	1	0.0438	4	0.000340	0	-1E+10	1	-1E+10	1	-1E+10	1
4902624	10	C	09/29/2024	05:33	-128.459	47.510	0	163.00	0	7.4130	0	33.7020	0	26.341	0	161.576	0	-1e10	1	-1e10	1	-1E+10	1	-1e10	1	-1e10	1	-1E+10	1	-1E+10	1	-1E+10	1
4902624	10	C	09/29/2024	05:33	-128.459	47.510	0	163.80	0	7.3954	0	33.7056	0	26.347	0	162.368	0	131.4	4	44.8	4	-1E+10	1	0.0560	4	0.000350	0	-1E+10	1	-1E+10	1	-1E+10	1
4902624	10	C	09/29/2024	05:33	-128.459	47.510	0	164.90	0	7.3712	0	33.7105	0	26.354	0	163.458	0	130.9	4	44.6	4	-1E+10	1	0.0483	4	0.000360	0	-1E+10	1	-1E+10	1	-1E+10	1
4902624	10	C	09/29/2024	05:33	-128.459	47.510	0	165.00	0	7.3690	0	33.7110	0	26.355	0	163.557	0	-1e10	1	-1e10	1	-1E+10	1	-1e10	1	-1e10	1	-1E+10	1	-1E+10	1	-1E+10	1
4902624	10	C	09/29/2024	05:33	-128.459	47.510	0	165.90	0	7.3373	0	33.7153	0	26.363	0	164.449	0	130.3	4	44.3	4	-1E+10	1	0.0569	4	0.000350	0	-1E+10	1	-1E+10	1	-1E+10	1
4902624	10	C	09/29/2024	05:33	-128.459	47.510	0	166.90	0	7.3020	0	33.7200	0	26.371	0	165.440	0	126.7	4	43.1	4	-1E+10	1	0.0623	4	0.000340	0	-1E+10	1	-1E+10	1	-1E+10	1
4902624	10	C	09/29/2024	05:33	-128.459	47.510	0	168.00	0	7.2480	0	33.7190	0	26.378	0	166.530	0	129.4	4	43.9	4	-1E+10	1	0.0584	4	0.000332	0	-1E+10	1	-1E+10	1	-1E+10	1
4902624	10	C	09/29/2024	05:33	-128.459	47.510	0	169.00	0	7.1990	0	33.7180	0	26.384	0	167.521	0	-1e10	1	-1e10	1	-1E+10	1	-1e10	1	-1e10	1	-1E+10	1	-1E+10	1	-1E+10	1
4902624	10	C	09/29/2024	05:33	-128.459	47.510	0	169.10	0	7.1988	0	33.7180	0	26.384	0	167.620	0	128.7	4	43.6	4	-1E+10	1	0.0564	4	0.000326	0	-1E+10	1	-1E+10	1	-1E+10	1
4902624	10	C	09/29/2024	05:33	-128.459	47.510	0	170.10	0	7.1974	0	33.7186	0	26.385	0	168.611	0	127.9	4	43.4	4	-1E+10	1	0.0533	4	0.000356	0	-1E+10	1	-1E+10	1	-1E+10	1
4902624	10	C	09/29/2024	05:33	-128.459	47.510	0	171.00	0	7.1960	0	33.7190	0	26.385	0	169.502	0	-1e10	1	-1e10	1	-1E+10	1	-1e10	1	-1e10	1	-1E+10	1	-1E+10	1	-1E+10	1
4902624	10	C	09/29/2024	05:33	-128.459	47.510	0	171.20	0	7.1937	0	33.7200	0	26.386	0	169.701	0	127.0	4	43.1	4	-1E+10	1	0.0657	4	0.000375	0	-1E+10	1	-1E+10	1	-1E+10	1
4902624	10	C	09/29/2024	05:33	-128.459	47.510	0	172.30	0	7.1810	0	33.7255	0	26.392	0	170.791	0	126.2	4	42.8	4	-1E+10	1	0.0600	4	0.000403	0	-1E+10	1	-1E+10	1	-1E+10	1
4902624	10	C	09/29/2024	05:33	-128.459	47.510	0	173.00	0	7.1730	0	33.7290	0	26.396	0	171.484	0	-1e10	1	-1e10	1	-1E+10	1	-1e10	1	-1e10	1	-1E+10	1	-1E+10	1	-1E+10	1
4902624	10	C	09/29/2024	05:33	-128.459	47.510	0	173.40	0	7.1694	0	33.7314	0	26.399	0	171.880	0	125.5	4	42.5	4	-1E+10	1	0.0409	4	0.000345	0	-1E+10	1	-1E+10	1	-1E+10	1
4902624	10	C	09/29/2024	05:33	-128.459	47.510	0	174.50	0	7.1595	0	33.7380	0	26.405	0	172.970	0	124.9	4	42.3	4	-1E+10	1	0.0517	4	0.000337	0	-1E+10	1	-1E+10	1	-1E+10	1
4902624	10	C	09/29/2024	05:33	-128.459	47.510	0	175.00	0	7.1550	0	33.7410	0	26.408	0	173.466	0	-1e10	1	-1e10	1	-1E+10	1	-1e10	1	-1e10	1	-1E+10	1	-1E+10	1	-1E+10	1
4902624	10	C	09/29/2024	05:33	-128.459	47.510	0	175.60	0	7.1517	0	33.7461	0	26.413	0	174.060	0	124.3	4	42.1	4	-1E+10	1	0.0548	4	0.000352	0	-1E+10	1	-1E+10	1	-1E+10	1
4902624	10	C	09/29/2024	05:33	-128.459	47.510	0	176.80	0	7.1451	0	33.7563	0	26.422	0	175.249	0	123.8	4	41.9	4	-1E+10	1	0.0481	4	0.000359	0	-1E+10	1	-1E+10	1	-1E+10	1
4902624	10	C	09/29/2024	05:33	-128.459	47.510	0	177.00	0	7.1440	0	33.7580	0	26.423	0	175.447	0	-1e10	1	-1e10	1	-1E+10	1	-1e10	1	-1e10	1	-1E+10	1	-1E+10	1	-1E+10	1
4902624	10	C	09/29/2024	05:33	-128.459	47.510	0	177.90	0	7.1449	0	33.7603	0	26.425	0	176.339	0	123.2	4	41.7	4	-1E+10	1	0.0438	4	0.000342	0	-1E+10	1	-1E+10	1	-1E+10	1
4902624	10	C	09/29/2024	05:33	-128.459	47.510	0	179.00	0	7.1460	0	33.7630	0	26.427	0	177.429	0	-1e10	1	-1e10	1	-1E+10	1	-1e10	1	-1e10	1	-1E+10	1	-1E+10	1	-1E+10	1
4902624	10	C	09/29/2024	05:33	-128.459	47.510	0	179.10	0	7.1453	0	33.7635	0	26.427	0	177.528	0	122.6	4	41.5	4	-1E+10	1	0.0460	4	0.000319	0	-1E+10	1	-1E+10	1	-1E+10	1
4902624	10	C	09/29/2024	05:33	-128.459	47.510	0	180.20	0	7.1376	0	33.7696	0	26.433	0	178.618	0	122.0	4	41.3	4	-1E+10	1	0.0584	4	0.000328	0	-1E+10	1	-1E+10	1	-1E+10	1
4902624	10	C	09/29/2024	05:33	-128.459	47.510	0	181.00	0	7.1320	0	33.7740	0	26.437	0	179.411	0	-1e10	1	-1e10	1	-1E+10	1	-1e10	1	-1e10	1	-1E+10	1	-1E+10	1	-1E+10	1
4902624	10	C	09/29/2024	05:33	-128.459	47.510	0	181.40	0	7.1322	0	33.7766	0	26.439	0	179.807	0	121.4	4	41.1	4	-1E+10	1	0.0584	4	0.000328	0	-1E+10	1	-1E+10	1	-1E+10	1
4902624	10	C	09/29/2024	05:33	-128.459	47.510	0	182.60	0	7.1328	0	33.7844	0	26.446	0	180.996	0	120.7	4	40.9	4	-1E+10	1	0.0467	4	0.000357	0	-1E+10	1	-1E+10	1	-1E+10	1
4902624	10	C	09/29/2024	05:33	-128.459	47.510	0	183.00	0	7.1330	0	33.7870	0	26.448	0	181.392	0	-1e10	1	-1e10	1	-1E+10	1	-1e10	1	-1e10	1	-1E+10	1	-1E+10	1	-1E+10	1
4902624	10	C	09/29/2024	05:33	-128.459	47.510	0	183.80	0	7.1298	0	33.7902	0	26.451	0	182.185	0	119.8	4	40.6	4	-1E+10	1	0.0532	4	0.000364	0	-1E+10	1	-1E+10	1	-1E+10	1
4902624	10	C	09/29/2024	05:33	-128.459	47.510	0	185.00	0	7.1250	0	33.7950	0	26.455	0	183.374	0	115.8	4	39.2	4	-1E+10	1	0.0627	4	0.000370	0	-1E+10	1	-1E+10	1	-1E+10	1
4902624	10	C	09/29/2024	05:33	-128.459	47.510	0	186.20	0	7.1084	0	33.8019	0	26.463	0	184.563	0	117.8	4	39.9	4	-1E+10	1	0.0657	4	0.000346	0	-1E+10	1	-1E+10	1	-1E+10	1
4902624	10	C	09/29/2024	05:33	-128.459	47.510	0	187.10	0	7.0960	0	33.8070	0	26.468	0	185.454	0	-1e10	1	-1e10	1	-1E+10	1	-1e10	1	-1e10	1	-1E+10	1	-1E+10	1	-1E+10	1
4902624	10	C	09/29/2024	05:33	-128.459	47.510	0	187.40	0	7.0969	0	33.8075	0	26.469	0	185.751	0	116.7	4	39.5	4	-1E+10	1	0.0608	4	0.000313	0	-1E+10	1	-1E+10	1	-1E+10	1
4902624	10	C	09/29/2024	05:33	-128.459	47.510	0	188.60	0	7.1007	0	33.8094	0	26.470	0	186.940	0	115.7	4	39.2	4	-1E+10	1	0.0535	4	0.000303	0	-1E+10	1	-1E+10	1	-1E+10	1
4902624	10	C	09/29/2024	05:33	-128.459	47.510	0	189.00	0	7.1020	0	33.8100	0	26.470	0	187.337	0	-1e10	1	-1e10	1	-1E+10	1	-1e10	1	-1e10	1	-1E+10	1	-1E+10	1	-1E+10	1
4902624	10	C	09/29/2024	05:33	-128.459	47.510	0	189.90	0	7.1439	0	33.8199	0	26.472	0	188.228	0	115.0	4	39.0	4	-1E+10	1	0.0628	4	0.000300	0	-1E+10	1	-1E+10	1	-1E+10	1
4902624	10	C	09/29/2024	05:33	-128.459	47.510	0	191.00	0	7.1950	0	33.8320	0	26.475	0	189.318	0	-1e10	1	-1e10	1	-1E+10	1	-1e10	1	-1e10	1	-1E+10	1	-1E+10	1	-1E+10	1
4902624	10	C	09/29/2024	05:33	-128.459	47.510	0	191.10	0	7.1963	0	33.8328	0	26.475	0	189.417	0	114.4	4	38.8	4	-1E+10	1	0.0511	4	0.000328	0	-1E+10	1	-1E+10	1	-1E+10	1
4902624	10	C	09/29/2024	05:33	-128.459	47.510	0	192.30	0	7.2114	0	33.8429	0	26.481	0	190.606	0	114.2	4	38.8	4	-1E+10	1	0.0574	4	0.000369	0	-1E+10	1	-1E+10	1	-1E+10	1
4902624	10	C	09/29/2024	05:33	-128.459	47.510	0	192.90	0	7.2190	0	33.8480	0	26.484	0	191.201	0	-1e10	1	-1e10	1	-1E+10	1	-1e10	1	-1e10	1	-1E+10	1	-1E+10	1	-1E+10	1
4902624	10	C	09/29/2024	05:33	-128.459	47.510	0	193.60	0	7.2099	0	33.8480	0	26.485	0	191.894	0	113.8	4	38.7	4	-1E+10	1	0.0584	4	0.000306	0	-1E+10	1	-1E+10	1	-1E+10	1
4902624	10	C	09/29/2024	05:33	-128.459	47.510	0	194.80	0	7.1943	0	33.8480	0	26.487	0	193.083	0	113.5	4	38.5	4	-1E+10	1	0.0535	4	0.000317	0	-1E+10	1	-1E+10	1	-1E+10	1
4902624	10	C	09/29/2024	05:33	-128.459	47.510	0	194.90	0	7.1930	0	33.8480	0	26.487	0	193.182	0	-1e10	1	-1e10	1	-1E+10	1	-1e10	1	-1e10	1	-1E+10	1	-1E+10	1	-1E+10	1
4902624	10	C	09/29/2024	05:33	-128.459	47.510	0	196.00	0	7.1837	0	33.8502	0	26.491	0	194.272	0	113.2	4	38.4	4	-1E+10	1	0.0613	4	0.000317	0	-1E+10	1	-1E+10	1	-1E+10	1
4902624	10	C	09/29/2024	05:33	-128.459	47.510	0	196.90	0	7.1760	0	33.8520	0	26.493	0	195.163	0	-1e10	1	-1e10	1	-1E+10	1	-1e10	1	-1e10	1	-1E+10	1	-1E+10	1	-1E+10	1
4902624	10	C	09/29/2024	05:33	-128.459	47.510	0	197.30	0	7.1722	0	33.8520	0	26.494	0	195.560	0	112.8	4	38.3	4	-1E+10	1	0.0669	4	0.000339	0	-1E+10	1	-1E+10	1	-1E+10	1
4902624	10	C	09/29/2024	05:33	-128.459	47.510	0	198.50	0	7.1608	0	33.8520	0	26.495	0	196.749	0	112.4	4	38.1	4	-1E+10	1	0.0584	4	0.000461	0	-1E+10	1	-1E+10	1	-1E+10	1
4902624	10	C	09/29/2024	05:33	-128.459	47.510	0	198.90	0	7.1570	0	33.8520	0	26.496	0	197.145	0	-1e10	1	-1e10	1	-1E+10	1	-1e10	1	-1e10	1	-1E+10	1	-1E+10	1	-1E+10	1
4902624	10	C	09/29/2024	05:33	-128.459	47.510	0	199.80	0	7.1502	0	33.8547	0	26.499	0	198.036	0	112.1	4	38.0	4	-1E+10	1	0.0584	4	0.000549	0	-1E+10	1	-1E+10	1	-1E+10	1
4902624	10	C	09/29/2024	05:33	-128.459	47.510	0	200.90	0	7.1420	0	33.8580	0	26.502	0	199.126	0	-1e10	1	-1e10	1	-1E+10	1	-1e10	1	-1e10	1	-1E+10	1	-1E+10	1	-1E+10	1
4902624	10	C	09/29/2024	05:33	-128.459	47.510	0	201.00	0	7.1405	0	33.8580	0	26.503	0	199.225	0	111.8	4	37.9	4	-1E+10	1	0.0584	4	0.000305	0	-1E+10	1	-1E+10	1	-1E+10	1
4902624	10	C	09/29/2024	05:33	-128.459	47.510	0	202.30	0	7.1203	0	33.8573	0	26.505	0	200.513	0	111.5	4	37.8	4	-1E+10	1	0.0438	4	0.000317	0	-1E+10	1	-1E+10	1	-1E+10	1
4902624	10	C	09/29/2024	05:33	-128.459	47.510	0	202.90	0	7.1110	0	33.8570	0	26.506	0	201.108	0	-1e10	1	-1e10	1	-1E+10	1	-1e10	1	-1e10	1	-1E+10	1	-1E+10	1	-1E+10	1
4902624	10	C	09/29/2024	05:33	-128.459	47.510	0	203.50	0	7.1086	0	33.8591	0	26.508	0	201.702	0	111.3	4	37.7	4	-1E+10	1	0.0555	4	0.000317	0	-1E+10	1	-1E+10	1	-1E+10	1
4902624	10	C	09/29/2024	05:33	-128.459	47.510	0	204.80	0	7.1034	0	33.8636	0	26.512	0	202.990	0	111.2	4	37.7	4	-1E+10	1	0.0535	4	0.000340	0	-1E+10	1	-1E+10	1	-1E+10	1
4902624	10	C	09/29/2024	05:33	-128.459	47.510	0	204.90	0	7.1030	0	33.8640	0	26.513	0	203.089	0	-1e10	1	-1e10	1	-1E+10	1	-1e10	1	-1e10	1	-1E+10	1	-1E+10	1	-1E+10	1
4902624	10	C	09/29/2024	05:33	-128.459	47.510	0	206.10	0	7.0790	0	33.8640	0	26.516	0	204.278	0	111.1	4	37.6	4	-1E+10	1	0.0466	4	0.000352	0	-1E+10	1	-1E+10	1	-1E+10	1
4902624	10	C	09/29/2024	05:33	-128.459	47.510	0	207.00	0	7.0610	0	33.8640	0	26.518	0	205.169	0	-1e10	1	-1e10	1	-1E+10	1	-1e10	1	-1e10	1	-1E+10	1	-1E+10	1	-1E+10	1
4902624	10	C	09/29/2024	05:33	-128.459	47.510	0	207.30	0	7.0554	0	33.8637	0	26.519	0	205.467	0	111.1	4	37.6	4	-1E+10	1	0.0472	4	0.000341	0	-1E+10	1	-1E+10	1	-1E+10	1
4902624	10	C	09/29/2024	05:33	-128.459	47.510	0	208.60	0	7.0314	0	33.8624	0	26.521	0	206.754	0	110.9	4	37.5	4	-1E+10	1	0.0535	4	0.000324	0	-1E+10	1	-1E+10	1	-1E+10	1
4902624	10	C	09/29/2024	05:33	-128.459	47.510	0	209.00	0	7.0240	0	33.8620	0	26.522	0	207.151	0	-1e10	1	-1e10	1	-1E+10	1	-1e10	1	-1e10	1	-1E+10	1	-1E+10	1	-1E+10	1
4902624	10	C	09/29/2024	05:33	-128.459	47.510	0	209.90	0	7.0073	0	33.8624	0	26.525	0	208.042	0	110.7	4	37.4	4	-1E+10	1	0.0567	4	0.000316	0	-1E+10	1	-1E+10	1	-1E+10	1
4902624	10	C	09/29/2024	05:33	-128.459	47.510	0	211.10	0	6.9850	0	33.8630	0	26.528	0	209.231	0	-1e10	1	-1e10	1	-1E+10	1	-1e10	1	-1e10	1	-1E+10	1	-1E+10	1	-1E+10	1
4902624	10	C	09/29/2024	05:33	-128.459	47.510	0	211.20	0	6.9839	0	33.8628	0	26.528	0	209.330	0	110.5	4	37.3	4	-1E+10	1	0.0497	4	0.000321	0	-1E+10	1	-1E+10	1	-1E+10	1
4902624	10	C	09/29/2024	05:33	-128.459	47.510	0	212.50	0	6.9695	0	33.8608	0	26.528	0	210.618	0	110.3	4	37.3	4	-1E+10	1	0.0438	4	0.000340	0	-1E+10	1	-1E+10	1	-1E+10	1
4902624	10	C	09/29/2024	05:33	-128.459	47.510	0	213.00	0	6.9640	0	33.8600	0	26.529	0	211.113	0	-1e10	1	-1e10	1	-1E+10	1	-1e10	1	-1e10	1	-1E+10	1	-1E+10	1	-1E+10	1
4902624	10	C	09/29/2024	05:33	-128.459	47.510	0	213.80	0	6.9556	0	33.8625	0	26.532	0	211.906	0	110.3	4	37.2	4	-1E+10	1	0.0501	4	0.000330	0	-1E+10	1	-1E+10	1	-1E+10	1
4902624	10	C	09/29/2024	05:33	-128.459	47.510	0	214.90	0	6.9440	0	33.8660	0	26.536	0	212.995	0	-1e10	1	-1e10	1	-1E+10	1	-1e10	1	-1e10	1	-1E+10	1	-1E+10	1	-1E+10	1
4902624	10	C	09/29/2024	05:33	-128.459	47.510	0	215.00	0	6.9428	0	33.8660	0	26.536	0	213.094	0	110.4	4	37.2	4	-1E+10	1	0.0511	4	0.000310	0	-1E+10	1	-1E+10	1	-1E+10	1
4902624	10	C	09/29/2024	05:33	-128.459	47.510	0	216.30	0	6.9267	0	33.8667	0	26.539	0	214.382	0	110.5	4	37.3	4	-1E+10	1	0.0511	4	0.000305	0	-1E+10	1	-1E+10	1	-1E+10	1
4902624	10	C	09/29/2024	05:33	-128.459	47.510	0	217.00	0	6.9180	0	33.8670	0	26.540	0	215.076	0	-1e10	1	-1e10	1	-1E+10	1	-1e10	1	-1e10	1	-1E+10	1	-1E+10	1	-1E+10	1
4902624	10	C	09/29/2024	05:33	-128.459	47.510	0	217.60	0	6.9039	0	33.8661	0	26.542	0	215.670	0	110.6	4	37.3	4	-1E+10	1	0.0511	4	0.000322	0	-1E+10	1	-1E+10	1	-1E+10	1
4902624	10	C	09/29/2024	05:33	-128.459	47.510	0	218.90	0	6.8733	0	33.8641	0	26.544	0	216.958	0	110.7	4	37.3	4	-1E+10	1	0.0455	4	0.000331	0	-1E+10	1	-1E+10	1	-1E+10	1
4902624	10	C	09/29/2024	05:33	-128.459	47.510	0	219.00	0	6.8710	0	33.8640	0	26.544	0	217.057	0	-1e10	1	-1e10	1	-1E+10	1	-1e10	1	-1e10	1	-1E+10	1	-1E+10	1	-1E+10	1
4902624	10	C	09/29/2024	05:33	-128.459	47.510	0	220.20	0	6.8441	0	33.8646	0	26.548	0	218.246	0	110.9	4	37.3	4	-1E+10	1	0.0438	4	0.000363	0	-1E+10	1	-1E+10	1	-1E+10	1
4902624	10	C	09/29/2024	05:33	-128.459	47.510	0	221.10	0	6.8240	0	33.8650	0	26.551	0	219.137	0	-1e10	1	-1e10	1	-1E+10	1	-1e10	1	-1e10	1	-1E+10	1	-1E+10	1	-1E+10	1
4902624	10	C	09/29/2024	05:33	-128.459	47.510	0	221.40	0	6.8225	0	33.8652	0	26.552	0	219.434	0	111.1	4	37.4	4	-1E+10	1	0.0574	4	0.000451	0	-1E+10	1	-1E+10	1	-1E+10	1
4902624	10	C	09/29/2024	05:33	-128.459	47.510	0	222.70	0	6.8160	0	33.8658	0	26.553	0	220.722	0	111.4	4	37.5	4	-1E+10	1	0.0511	4	0.000410	0	-1E+10	1	-1E+10	1	-1E+10	1
4902624	10	C	09/29/2024	05:33	-128.459	47.510	0	223.10	0	6.8140	0	33.8660	0	26.554	0	221.118	0	-1e10	1	-1e10	1	-1E+10	1	-1e10	1	-1e10	1	-1E+10	1	-1E+10	1	-1E+10	1
4902624	10	C	09/29/2024	05:33	-128.459	47.510	0	223.90	0	6.8036	0	33.8684	0	26.557	0	221.911	0	112.0	4	37.7	4	-1E+10	1	0.0438	4	0.000352	0	-1E+10	1	-1E+10	1	-1E+10	1
4902624	10	C	09/29/2024	05:33	-128.459	47.510	0	225.10	0	6.7880	0	33.8720	0	26.562	0	223.100	0	-1e10	1	-1e10	1	-1E+10	1	-1e10	1	-1e10	1	-1E+10	1	-1E+10	1	-1E+10	1
4902624	10	C	09/29/2024	05:33	-128.459	47.510	0	225.20	0	6.7848	0	33.8718	0	26.562	0	223.199	0	112.7	4	37.9	4	-1E+10	1	0.0501	4	0.000382	0	-1E+10	1	-1E+10	1	-1E+10	1
4902624	10	C	09/29/2024	05:33	-128.459	47.510	0	226.40	0	6.7464	0	33.8694	0	26.565	0	224.387	0	113.3	4	38.1	4	-1E+10	1	0.0567	4	0.000360	0	-1E+10	1	-1E+10	1	-1E+10	1
4902624	10	C	09/29/2024	05:33	-128.459	47.510	0	227.10	0	6.7240	0	33.8680	0	26.567	0	225.081	0	-1e10	1	-1e10	1	-1E+10	1	-1e10	1	-1e10	1	-1E+10	1	-1E+10	1	-1E+10	1
4902624	10	C	09/29/2024	05:33	-128.459	47.510	0	227.70	0	6.6943	0	33.8650	0	26.569	0	225.675	0	113.9	4	38.2	4	-1E+10	1	0.0584	4	0.000342	0	-1E+10	1	-1E+10	1	-1E+10	1
4902624	10	C	09/29/2024	05:33	-128.459	47.510	0	229.00	0	6.6300	0	33.8585	0	26.572	0	226.963	0	113.8	4	38.1	4	-1E+10	1	0.0487	4	0.000324	0	-1E+10	1	-1E+10	1	-1E+10	1
4902624	10	C	09/29/2024	05:33	-128.459	47.510	0	229.10	0	6.6250	0	33.8580	0	26.573	0	227.062	0	-1e10	1	-1e10	1	-1E+10	1	-1e10	1	-1e10	1	-1E+10	1	-1E+10	1	-1E+10	1
4902624	10	C	09/29/2024	05:33	-128.459	47.510	0	230.20	0	6.6041	0	33.8547	0	26.573	0	228.151	0	113.3	4	37.9	4	-1E+10	1	0.0540	4	0.000338	0	-1E+10	1	-1E+10	1	-1E+10	1
4902624	10	C	09/29/2024	05:33	-128.459	47.510	0	231.10	0	6.5870	0	33.8520	0	26.573	0	229.043	0	-1e10	1	-1e10	1	-1E+10	1	-1e10	1	-1e10	1	-1E+10	1	-1E+10	1	-1E+10	1
4902624	10	C	09/29/2024	05:33	-128.459	47.510	0	231.50	0	6.5820	0	33.8524	0	26.574	0	229.439	0	112.8	4	37.8	4	-1E+10	1	0.0627	4	0.000358	0	-1E+10	1	-1E+10	1	-1E+10	1
4902624	10	C	09/29/2024	05:33	-128.459	47.510	0	232.70	0	6.5670	0	33.8536	0	26.577	0	230.628	0	112.4	4	37.6	4	-1E+10	1	0.0511	4	0.000359	0	-1E+10	1	-1E+10	1	-1E+10	1
4902624	10	C	09/29/2024	05:33	-128.459	47.510	0	233.10	0	6.5620	0	33.8540	0	26.578	0	231.024	0	-1e10	1	-1e10	1	-1E+10	1	-1e10	1	-1e10	1	-1E+10	1	-1E+10	1	-1E+10	1
4902624	10	C	09/29/2024	05:33	-128.459	47.510	0	234.00	0	6.5494	0	33.8554	0	26.580	0	231.915	0	112.0	4	37.5	4	-1E+10	1	0.0394	4	0.000365	0	-1E+10	1	-1E+10	1	-1E+10	1
4902624	10	C	09/29/2024	05:33	-128.459	47.510	0	235.10	0	6.5340	0	33.8570	0	26.584	0	233.005	0	-1e10	1	-1e10	1	-1E+10	1	-1e10	1	-1e10	1	-1E+10	1	-1E+10	1	-1E+10	1
4902624	10	C	09/29/2024	05:33	-128.459	47.510	0	235.20	0	6.5325	0	33.8571	0	26.584	0	233.104	0	111.6	4	37.3	4	-1E+10	1	0.0511	4	0.000328	0	-1E+10	1	-1E+10	1	-1E+10	1
4902624	10	C	09/29/2024	05:33	-128.459	47.510	0	236.50	0	6.5134	0	33.8585	0	26.588	0	234.392	0	111.3	4	37.2	4	-1E+10	1	0.0511	4	0.000340	0	-1E+10	1	-1E+10	1	-1E+10	1
4902624	10	C	09/29/2024	05:33	-128.459	47.510	0	237.00	0	6.5060	0	33.8590	0	26.589	0	234.887	0	-1e10	1	-1e10	1	-1E+10	1	-1e10	1	-1e10	1	-1E+10	1	-1E+10	1	-1E+10	1
4902624	10	C	09/29/2024	05:33	-128.459	47.510	0	237.70	0	6.4941	0	33.8597	0	26.591	0	235.580	0	111.1	4	37.1	4	-1E+10	1	0.0511	4	0.000368	0	-1E+10	1	-1E+10	1	-1E+10	1
4902624	10	C	09/29/2024	05:33	-128.459	47.510	0	239.00	0	6.4720	0	33.8610	0	26.595	0	236.868	0	108.0	4	36.1	4	-1E+10	1	0.0462	4	0.000367	0	-1E+10	1	-1E+10	1	-1E+10	1
4902624	10	C	09/29/2024	05:33	-128.459	47.510	0	240.20	0	6.4594	0	33.8616	0	26.597	0	238.057	0	110.5	4	36.9	4	-1E+10	1	0.0481	4	0.000336	0	-1E+10	1	-1E+10	1	-1E+10	1
4902624	10	C	09/29/2024	05:33	-128.459	47.510	0	241.10	0	6.4500	0	33.8620	0	26.599	0	238.948	0	-1e10	1	-1e10	1	-1E+10	1	-1e10	1	-1e10	1	-1E+10	1	-1E+10	1	-1E+10	1
4902624	10	C	09/29/2024	05:33	-128.459	47.510	0	241.50	0	6.4390	0	33.8624	0	26.601	0	239.344	0	110.5	4	36.9	4	-1E+10	1	0.0472	4	0.000473	0	-1E+10	1	-1E+10	1	-1E+10	1
4902624	10	C	09/29/2024	05:33	-128.459	47.510	0	242.70	0	6.4060	0	33.8636	0	26.606	0	240.533	0	110.6	4	36.9	4	-1E+10	1	0.0414	4	0.000547	0	-1E+10	1	-1E+10	1	-1E+10	1
4902624	10	C	09/29/2024	05:33	-128.459	47.510	0	243.10	0	6.3950	0	33.8640	0	26.608	0	240.929	0	-1e10	1	-1e10	1	-1E+10	1	-1e10	1	-1e10	1	-1E+10	1	-1E+10	1	-1E+10	1
4902624	10	C	09/29/2024	05:33	-128.459	47.510	0	244.00	0	6.3671	0	33.8622	0	26.610	0	241.820	0	110.4	4	36.8	4	-1E+10	1	0.0416	4	0.000400	0	-1E+10	1	-1E+10	1	-1E+10	1
4902624	10	C	09/29/2024	05:33	-128.459	47.510	0	245.10	0	6.3330	0	33.8600	0	26.612	0	242.910	0	-1e10	1	-1e10	1	-1E+10	1	-1e10	1	-1e10	1	-1E+10	1	-1E+10	1	-1E+10	1
4902624	10	C	09/29/2024	05:33	-128.459	47.510	0	245.20	0	6.3317	0	33.8598	0	26.612	0	243.009	0	110.1	4	36.6	4	-1E+10	1	0.0584	4	0.000331	0	-1E+10	1	-1E+10	1	-1E+10	1
4902624	10	C	09/29/2024	05:33	-128.459	47.510	0	246.50	0	6.3141	0	33.8572	0	26.613	0	244.297	0	109.7	4	36.5	4	-1E+10	1	0.0584	4	0.000351	0	-1E+10	1	-1E+10	1	-1E+10	1
4902624	10	C	09/29/2024	05:33	-128.459	47.510	0	247.10	0	6.3060	0	33.8560	0	26.613	0	244.891	0	-1e10	1	-1e10	1	-1E+10	1	-1e10	1	-1e10	1	-1E+10	1	-1E+10	1	-1E+10	1
4902624	10	C	09/29/2024	05:33	-128.459	47.510	0	247.70	0	6.2973	0	33.8566	0	26.614	0	245.485	0	109.2	4	36.3	4	-1E+10	1	0.0467	4	0.000333	0	-1E+10	1	-1E+10	1	-1E+10	1
4902624	10	C	09/29/2024	05:33	-128.459	47.510	0	249.00	0	6.2785	0	33.8579	0	26.618	0	246.773	0	108.7	4	36.1	4	-1E+10	1	0.0560	4	0.000377	0	-1E+10	1	-1E+10	1	-1E+10	1
4902624	10	C	09/29/2024	05:33	-128.459	47.510	0	249.10	0	6.2770	0	33.8580	0	26.618	0	246.872	0	-1e10	1	-1e10	1	-1E+10	1	-1e10	1	-1e10	1	-1E+10	1	-1E+10	1	-1E+10	1
4902624	10	C	09/29/2024	05:33	-128.459	47.510	0	250.20	0	6.2486	0	33.8563	0	26.620	0	247.961	0	108.0	4	35.9	4	-1E+10	1	0.0493	4	0.000372	0	-1E+10	1	-1E+10	1	-1E+10	1
4902624	10	C	09/29/2024	05:33	-128.459	47.510	0	251.00	0	6.2280	0	33.8550	0	26.622	0	248.754	0	-1e10	1	-1e10	1	-1E+10	1	-1e10	1	-1e10	1	-1E+10	1	-1E+10	1	-1E+10	1
4902624	10	C	09/29/2024	05:33	-128.459	47.510	0	251.50	0	6.2238	0	33.8555	0	26.623	0	249.249	0	107.2	4	35.6	4	-1E+10	1	0.0438	4	0.000352	0	-1E+10	1	-1E+10	1	-1E+10	1
4902624	10	C	09/29/2024	05:33	-128.459	47.510	0	252.80	0	6.2128	0	33.8569	0	26.625	0	250.537	0	106.3	4	35.3	4	-1E+10	1	0.0560	4	0.000340	0	-1E+10	1	-1E+10	1	-1E+10	1
4902624	10	C	09/29/2024	05:33	-128.459	47.510	0	252.90	0	6.2120	0	33.8570	0	26.626	0	250.636	0	-1e10	1	-1e10	1	-1E+10	1	-1e10	1	-1e10	1	-1E+10	1	-1E+10	1	-1E+10	1
4902624	10	C	09/29/2024	05:33	-128.459	47.510	0	254.00	0	6.2137	0	33.8581	0	26.626	0	251.725	0	105.6	4	35.0	4	-1E+10	1	0.0657	4	0.000336	0	-1E+10	1	-1E+10	1	-1E+10	1
4902624	10	C	09/29/2024	05:33	-128.459	47.510	0	254.90	0	6.2150	0	33.8590	0	26.627	0	252.616	0	-1e10	1	-1e10	1	-1E+10	1	-1e10	1	-1e10	1	-1E+10	1	-1E+10	1	-1E+10	1
4902624	10	C	09/29/2024	05:33	-128.459	47.510	0	255.30	0	6.2158	0	33.8596	0	26.627	0	253.013	0	104.8	4	34.8	4	-1E+10	1	0.0526	4	0.000335	0	-1E+10	1	-1E+10	1	-1E+10	1
4902624	10	C	09/29/2024	05:33	-128.459	47.510	0	256.50	0	6.2182	0	33.8614	0	26.628	0	254.201	0	104.1	4	34.5	4	-1E+10	1	0.0584	4	0.000363	0	-1E+10	1	-1E+10	1	-1E+10	1
4902624	10	C	09/29/2024	05:33	-128.459	47.510	0	256.90	0	6.2190	0	33.8620	0	26.629	0	254.597	0	-1e10	1	-1e10	1	-1E+10	1	-1e10	1	-1e10	1	-1E+10	1	-1E+10	1	-1E+10	1
4902624	10	C	09/29/2024	05:33	-128.459	47.510	0	257.80	0	6.1961	0	33.8638	0	26.633	0	255.489	0	103.6	4	34.4	4	-1E+10	1	0.0511	4	0.000304	0	-1E+10	1	-1E+10	1	-1E+10	1
4902624	10	C	09/29/2024	05:33	-128.459	47.510	0	258.90	0	6.1680	0	33.8660	0	26.638	0	256.578	0	-1e10	1	-1e10	1	-1E+10	1	-1e10	1	-1e10	1	-1E+10	1	-1E+10	1	-1E+10	1
4902624	10	C	09/29/2024	05:33	-128.459	47.510	0	259.10	0	6.1665	0	33.8660	0	26.639	0	256.776	0	103.1	4	34.2	4	-1E+10	1	0.0574	4	0.000314	0	-1E+10	1	-1E+10	1	-1E+10	1
4902624	10	C	09/29/2024	05:33	-128.459	47.510	0	260.30	0	6.1575	0	33.8660	0	26.640	0	257.965	0	102.7	4	34.0	4	-1E+10	1	0.0535	4	0.000332	0	-1E+10	1	-1E+10	1	-1E+10	1
4902624	10	C	09/29/2024	05:33	-128.459	47.510	0	260.90	0	6.1530	0	33.8660	0	26.640	0	258.559	0	-1e10	1	-1e10	1	-1E+10	1	-1e10	1	-1e10	1	-1E+10	1	-1E+10	1	-1E+10	1
4902624	10	C	09/29/2024	05:33	-128.459	47.510	0	261.60	0	6.1453	0	33.8653	0	26.641	0	259.252	0	102.1	4	33.8	4	-1E+10	1	0.0646	4	0.000354	0	-1E+10	1	-1E+10	1	-1E+10	1
4902624	10	C	09/29/2024	05:33	-128.459	47.510	0	262.80	0	6.1321	0	33.8641	0	26.641	0	260.441	0	101.6	4	33.7	4	-1E+10	1	0.0620	4	0.000357	0	-1E+10	1	-1E+10	1	-1E+10	1
4902624	10	C	09/29/2024	05:33	-128.459	47.510	0	262.90	0	6.1310	0	33.8640	0	26.641	0	260.540	0	-1e10	1	-1e10	1	-1E+10	1	-1e10	1	-1e10	1	-1E+10	1	-1E+10	1	-1E+10	1
4902624	10	C	09/29/2024	05:33	-128.459	47.510	0	264.00	0	6.1127	0	33.8656	0	26.645	0	261.629	0	101.0	4	33.4	4	-1E+10	1	0.0487	4	0.000347	0	-1E+10	1	-1E+10	1	-1E+10	1
4902624	10	C	09/29/2024	05:33	-128.459	47.510	0	265.00	0	6.0960	0	33.8670	0	26.648	0	262.620	0	-1e10	1	-1e10	1	-1E+10	1	-1e10	1	-1e10	1	-1E+10	1	-1E+10	1	-1E+10	1
4902624	10	C	09/29/2024	05:33	-128.459	47.510	0	265.30	0	6.0920	0	33.8673	0	26.649	0	262.917	0	100.4	4	33.2	4	-1E+10	1	0.0456	4	0.000332	0	-1E+10	1	-1E+10	1	-1E+10	1
4902624	10	C	09/29/2024	05:33	-128.459	47.510	0	266.50	0	6.0760	0	33.8684	0	26.652	0	264.105	0	99.8	4	33.0	4	-1E+10	1	0.0496	4	0.000328	0	-1E+10	1	-1E+10	1	-1E+10	1
4902624	10	C	09/29/2024	05:33	-128.459	47.510	0	267.10	0	6.0680	0	33.8690	0	26.653	0	264.699	0	-1e10	1	-1e10	1	-1E+10	1	-1e10	1	-1e10	1	-1E+10	1	-1E+10	1	-1E+10	1
4902624	10	C	09/29/2024	05:33	-128.459	47.510	0	267.70	0	6.0465	0	33.8681	0	26.655	0	265.294	0	99.0	4	32.7	4	-1E+10	1	0.0438	4	0.000375	0	-1E+10	1	-1E+10	1	-1E+10	1
4902624	10	C	09/29/2024	05:33	-128.459	47.510	0	268.80	0	6.0072	0	33.8663	0	26.659	0	266.383	0	98.2	4	32.4	4	-1E+10	1	0.0438	4	0.000403	0	-1E+10	1	-1E+10	1	-1E+10	1
4902624	10	C	09/29/2024	05:33	-128.459	47.510	0	269.00	0	6.0000	0	33.8660	0	26.660	0	266.581	0	-1e10	1	-1e10	1	-1E+10	1	-1e10	1	-1e10	1	-1E+10	1	-1E+10	1	-1E+10	1
4902624	10	C	09/29/2024	05:33	-128.459	47.510	0	269.70	0	5.9976	0	33.8678	0	26.661	0	267.274	0	97.5	4	32.2	4	-1E+10	1	0.0552	4	0.000346	0	-1E+10	1	-1E+10	1	-1E+10	1
4902624	10	C	09/29/2024	05:33	-128.459	47.510	0	270.50	0	5.9948	0	33.8698	0	26.663	0	268.067	0	97.0	4	32.0	4	-1E+10	1	0.0540	4	0.000328	0	-1E+10	1	-1E+10	1	-1E+10	1
4902624	10	C	09/29/2024	05:33	-128.459	47.510	0	271.00	0	5.9930	0	33.8710	0	26.664	0	268.562	0	-1e10	1	-1e10	1	-1E+10	1	-1e10	1	-1e10	1	-1E+10	1	-1E+10	1	-1E+10	1
4902624	10	C	09/29/2024	05:33	-128.459	47.510	0	271.40	0	5.9888	0	33.8714	0	26.665	0	268.958	0	96.6	4	31.9	4	-1E+10	1	0.0511	4	0.000328	0	-1E+10	1	-1E+10	1	-1E+10	1
4902624	10	C	09/29/2024	05:33	-128.459	47.510	0	272.20	0	5.9804	0	33.8722	0	26.667	0	269.750	0	96.1	4	31.7	4	-1E+10	1	0.0576	4	0.000385	0	-1E+10	1	-1E+10	1	-1E+10	1
4902624	10	C	09/29/2024	05:33	-128.459	47.510	0	273.00	0	5.9720	0	33.8730	0	26.669	0	270.543	0	93.1	4	30.7	4	-1E+10	1	0.0633	4	0.000418	0	-1E+10	1	-1E+10	1	-1E+10	1
4902624	10	C	09/29/2024	05:33	-128.459	47.510	0	273.80	0	5.9576	0	33.8730	0	26.670	0	271.335	0	95.0	4	31.3	4	-1E+10	1	0.0584	4	0.000335	0	-1E+10	1	-1E+10	1	-1E+10	1
4902624	10	C	09/29/2024	05:33	-128.459	47.510	0	274.60	0	5.9432	0	33.8730	0	26.672	0	272.127	0	94.4	4	31.1	4	-1E+10	1	0.0584	4	0.000316	0	-1E+10	1	-1E+10	1	-1E+10	1
4902624	10	C	09/29/2024	05:33	-128.459	47.510	0	275.00	0	5.9360	0	33.8730	0	26.673	0	272.523	0	-1e10	1	-1e10	1	-1E+10	1	-1e10	1	-1e10	1	-1E+10	1	-1E+10	1	-1E+10	1
4902624	10	C	09/29/2024	05:33	-128.459	47.510	0	275.40	0	5.9236	0	33.8734	0	26.675	0	272.919	0	93.7	4	30.9	4	-1E+10	1	0.0438	4	0.000339	0	-1E+10	1	-1E+10	1	-1E+10	1
4902624	10	C	09/29/2024	05:33	-128.459	47.510	0	276.20	0	5.8988	0	33.8742	0	26.679	0	273.712	0	93.1	4	30.7	4	-1E+10	1	0.0496	4	0.000367	0	-1E+10	1	-1E+10	1	-1E+10	1
4902624	10	C	09/29/2024	05:33	-128.459	47.510	0	277.00	0	5.8740	0	33.8750	0	26.682	0	274.504	0	90.0	4	29.6	4	-1E+10	1	0.0511	4	0.000359	0	-1E+10	1	-1E+10	1	-1E+10	1
4902624	10	C	09/29/2024	05:33	-128.459	47.510	0	277.80	0	5.8740	0	33.8762	0	26.683	0	275.296	0	91.6	4	30.2	4	-1E+10	1	0.0511	4	0.000351	0	-1E+10	1	-1E+10	1	-1E+10	1
4902624	10	C	09/29/2024	05:33	-128.459	47.510	0	278.60	0	5.8740	0	33.8774	0	26.684	0	276.088	0	90.9	4	29.9	4	-1E+10	1	0.0511	4	0.000345	0	-1E+10	1	-1E+10	1	-1E+10	1
4902624	10	C	09/29/2024	05:33	-128.459	47.510	0	279.00	0	5.8740	0	33.8780	0	26.685	0	276.484	0	-1e10	1	-1e10	1	-1E+10	1	-1e10	1	-1e10	1	-1E+10	1	-1E+10	1	-1E+10	1
4902624	10	C	09/29/2024	05:33	-128.459	47.510	0	279.40	0	5.8778	0	33.8794	0	26.685	0	276.881	0	90.3	4	29.7	4	-1E+10	1	0.0511	4	0.000350	0	-1E+10	1	-1E+10	1	-1E+10	1
4902624	10	C	09/29/2024	05:33	-128.459	47.510	0	280.30	0	5.8864	0	33.8825	0	26.687	0	277.772	0	89.7	4	29.6	4	-1E+10	1	0.0511	4	0.000366	0	-1E+10	1	-1E+10	1	-1E+10	1
4902624	10	C	09/29/2024	05:33	-128.459	47.510	0	281.00	0	5.8930	0	33.8850	0	26.688	0	278.465	0	-1e10	1	-1e10	1	-1E+10	1	-1e10	1	-1e10	1	-1E+10	1	-1E+10	1	-1E+10	1
4902624	10	C	09/29/2024	05:33	-128.459	47.510	0	281.10	0	5.8925	0	33.8852	0	26.688	0	278.564	0	89.0	4	29.3	4	-1E+10	1	0.0540	4	0.000344	0	-1E+10	1	-1E+10	1	-1E+10	1
4902624	10	C	09/29/2024	05:33	-128.459	47.510	0	281.90	0	5.8881	0	33.8868	0	26.690	0	279.356	0	88.4	4	29.1	4	-1E+10	1	0.0657	4	0.000363	0	-1E+10	1	-1E+10	1	-1E+10	1
4902624	10	C	09/29/2024	05:33	-128.459	47.510	0	282.70	0	5.8836	0	33.8884	0	26.692	0	280.149	0	87.6	4	28.9	4	-1E+10	1	0.0527	4	0.000352	0	-1E+10	1	-1E+10	1	-1E+10	1
4902624	10	C	09/29/2024	05:33	-128.459	47.510	0	283.00	0	5.8820	0	33.8890	0	26.693	0	280.446	0	-1e10	1	-1e10	1	-1E+10	1	-1e10	1	-1e10	1	-1E+10	1	-1E+10	1	-1E+10	1
4902624	10	C	09/29/2024	05:33	-128.459	47.510	0	283.50	0	5.8770	0	33.8902	0	26.694	0	280.941	0	87.1	4	28.7	4	-1E+10	1	0.0511	4	0.000324	0	-1E+10	1	-1E+10	1	-1E+10	1
4902624	10	C	09/29/2024	05:33	-128.459	47.510	0	284.30	0	5.8690	0	33.8921	0	26.697	0	281.733	0	86.7	4	28.5	4	-1E+10	1	0.0467	4	0.000302	0	-1E+10	1	-1E+10	1	-1E+10	1
4902624	10	C	09/29/2024	05:33	-128.459	47.510	0	285.10	0	5.8610	0	33.8940	0	26.699	0	282.525	0	84.0	4	27.6	4	-1E+10	1	0.0503	4	0.000298	0	-1E+10	1	-1E+10	1	-1E+10	1
4902624	10	C	09/29/2024	05:33	-128.459	47.510	0	285.90	0	5.8486	0	33.8944	0	26.701	0	283.318	0	85.6	4	28.2	4	-1E+10	1	0.0557	4	0.000313	0	-1E+10	1	-1E+10	1	-1E+10	1
4902624	10	C	09/29/2024	05:33	-128.459	47.510	0	286.80	0	5.8347	0	33.8949	0	26.703	0	284.209	0	85.1	4	28.0	4	-1E+10	1	0.0540	4	0.000327	0	-1E+10	1	-1E+10	1	-1E+10	1
4902624	10	C	09/29/2024	05:33	-128.459	47.510	0	287.10	0	5.8300	0	33.8950	0	26.704	0	284.506	0	-1e10	1	-1e10	1	-1E+10	1	-1e10	1	-1e10	1	-1E+10	1	-1E+10	1	-1E+10	1
4902624	10	C	09/29/2024	05:33	-128.459	47.510	0	287.60	0	5.8247	0	33.8960	0	26.705	0	285.001	0	84.7	4	27.9	4	-1E+10	1	0.0571	4	0.000334	0	-1E+10	1	-1E+10	1	-1E+10	1
4902624	10	C	09/29/2024	05:33	-128.459	47.510	0	288.50	0	5.8153	0	33.8978	0	26.708	0	285.892	0	84.3	4	27.7	4	-1E+10	1	0.0511	4	0.000363	0	-1E+10	1	-1E+10	1	-1E+10	1
4902624	10	C	09/29/2024	05:33	-128.459	47.510	0	289.10	0	5.8090	0	33.8990	0	26.710	0	286.486	0	-1e10	1	-1e10	1	-1E+10	1	-1e10	1	-1e10	1	-1E+10	1	-1E+10	1	-1E+10	1
4902624	10	C	09/29/2024	05:33	-128.459	47.510	0	289.30	0	5.8062	0	33.8990	0	26.710	0	286.684	0	84.0	4	27.6	4	-1E+10	1	0.0511	4	0.000339	0	-1E+10	1	-1E+10	1	-1E+10	1
4902624	10	C	09/29/2024	05:33	-128.459	47.510	0	290.10	0	5.7948	0	33.8990	0	26.711	0	287.477	0	83.5	4	27.5	4	-1E+10	1	0.0569	4	0.000339	0	-1E+10	1	-1E+10	1	-1E+10	1
4902624	10	C	09/29/2024	05:33	-128.459	47.510	0	291.00	0	5.7820	0	33.8990	0	26.713	0	288.368	0	80.9	4	26.6	4	-1E+10	1	0.0533	4	0.000356	0	-1E+10	1	-1E+10	1	-1E+10	1
4902624	10	C	09/29/2024	05:33	-128.459	47.510	0	291.80	0	5.7816	0	33.9005	0	26.714	0	289.160	0	82.7	4	27.2	4	-1E+10	1	0.0511	4	0.000333	0	-1E+10	1	-1E+10	1	-1E+10	1
4902624	10	C	09/29/2024	05:33	-128.459	47.510	0	292.60	0	5.7812	0	33.9020	0	26.715	0	289.952	0	82.3	4	27.0	4	-1E+10	1	0.0548	4	0.000321	0	-1E+10	1	-1E+10	1	-1E+10	1
4902624	10	C	09/29/2024	05:33	-128.459	47.510	0	293.10	0	5.7810	0	33.9030	0	26.716	0	290.447	0	-1e10	1	-1e10	1	-1E+10	1	-1e10	1	-1e10	1	-1E+10	1	-1E+10	1	-1E+10	1
4902624	10	C	09/29/2024	05:33	-128.459	47.510	0	293.40	0	5.7770	0	33.9031	0	26.717	0	290.745	0	81.9	4	26.9	4	-1E+10	1	0.0584	4	0.000314	0	-1E+10	1	-1E+10	1	-1E+10	1
4902624	10	C	09/29/2024	05:33	-128.459	47.510	0	294.30	0	5.7648	0	33.9036	0	26.719	0	291.636	0	81.5	4	26.8	4	-1E+10	1	0.0557	4	0.000310	0	-1E+10	1	-1E+10	1	-1E+10	1
4902624	10	C	09/29/2024	05:33	-128.459	47.510	0	295.10	0	5.7540	0	33.9040	0	26.720	0	292.428	0	78.9	4	25.9	4	-1E+10	1	0.0511	4	0.000337	0	-1E+10	1	-1E+10	1	-1E+10	1
4902624	10	C	09/29/2024	05:33	-128.459	47.510	0	297.10	0	5.7500	0	33.9090	0	26.725	0	294.408	0	-1e10	1	-1e10	1	-1E+10	1	-1e10	1	-1e10	1	-1E+10	1	-1E+10	1	-1E+10	1
4902624	10	C	09/29/2024	05:33	-128.459	47.510	0	299.00	0	5.7520	0	33.9140	0	26.728	0	296.290	0	-1e10	1	-1e10	1	-1E+10	1	-1e10	1	-1e10	1	-1E+10	1	-1E+10	1	-1E+10	1
4902624	10	C	09/29/2024	05:33	-128.459	47.510	0	303.60	0	5.6888	0	33.9124	0	26.735	0	300.845	0	79.1	4	26.0	4	-1E+10	1	0.0516	4	0.000281	0	-1E+10	1	-1E+10	1	-1E+10	1
4902624	10	C	09/29/2024	05:33	-128.459	47.510	0	304.90	0	5.6710	0	33.9120	0	26.737	0	302.132	0	-1e10	1	-1e10	1	-1E+10	1	-1e10	1	-1e10	1	-1E+10	1	-1E+10	1	-1E+10	1
4902624	10	C	09/29/2024	05:33	-128.459	47.510	0	312.60	0	5.5786	0	33.9151	0	26.750	0	309.756	0	75.6	4	24.7	4	-1E+10	1	0.0657	4	0.000303	0	-1E+10	1	-1E+10	1	-1E+10	1
4902624	10	C	09/29/2024	05:33	-128.459	47.510	0	314.90	0	5.5510	0	33.9160	0	26.755	0	312.034	0	-1e10	1	-1e10	1	-1E+10	1	-1e10	1	-1e10	1	-1E+10	1	-1E+10	1	-1E+10	1
4902624	10	C	09/29/2024	05:33	-128.459	47.510	0	321.90	0	5.5157	0	33.9229	0	26.764	0	318.965	0	73.2	4	23.9	4	-1E+10	1	0.0654	4	0.000282	0	-1E+10	1	-1E+10	1	-1E+10	1
4902624	10	C	09/29/2024	05:33	-128.459	47.510	0	325.00	0	5.5000	0	33.9260	0	26.769	0	322.034	0	-1e10	1	-1e10	1	-1E+10	1	-1e10	1	-1e10	1	-1E+10	1	-1E+10	1	-1E+10	1
4902624	10	C	09/29/2024	05:33	-128.459	47.510	0	331.50	0	5.4317	0	33.9254	0	26.776	0	328.470	0	71.3	4	23.3	4	-1E+10	1	0.0581	4	0.000313	0	-1E+10	1	-1E+10	1	-1E+10	1
4902624	10	C	09/29/2024	05:33	-128.459	47.510	0	335.00	0	5.3950	0	33.9250	0	26.780	0	331.935	0	-1e10	1	-1e10	1	-1E+10	1	-1e10	1	-1e10	1	-1E+10	1	-1E+10	1	-1E+10	1
4902624	10	C	09/29/2024	05:33	-128.459	47.510	0	341.70	0	5.3436	0	33.9291	0	26.790	0	338.568	0	68.2	4	22.2	4	-1E+10	1	0.0514	4	0.000257	0	-1E+10	1	-1E+10	1	-1E+10	1
4902624	10	C	09/29/2024	05:33	-128.459	47.510	0	344.90	0	5.3190	0	33.9310	0	26.794	0	341.736	0	-1e10	1	-1e10	1	-1E+10	1	-1e10	1	-1e10	1	-1E+10	1	-1E+10	1	-1E+10	1
4902624	10	C	09/29/2024	05:33	-128.459	47.510	0	352.40	0	5.2715	0	33.9369	0	26.804	0	349.161	0	65.0	4	21.1	4	-1E+10	1	0.0584	4	0.000279	0	-1E+10	1	-1E+10	1	-1E+10	1
4902624	10	C	09/29/2024	05:33	-128.459	47.510	0	355.00	0	5.2550	0	33.9390	0	26.808	0	351.735	0	-1e10	1	-1e10	1	-1E+10	1	-1e10	1	-1e10	1	-1E+10	1	-1E+10	1	-1E+10	1
4902624	10	C	09/29/2024	05:33	-128.459	47.510	0	363.50	0	5.1872	0	33.9433	0	26.819	0	360.149	0	62.1	4	20.1	4	-1E+10	1	0.0579	4	0.000258	0	-1E+10	1	-1E+10	1	-1E+10	1
4902624	10	C	09/29/2024	05:33	-128.459	47.510	0	364.90	0	5.1760	0	33.9440	0	26.821	0	361.535	0	-1e10	1	-1e10	1	-1E+10	1	-1e10	1	-1e10	1	-1E+10	1	-1E+10	1	-1E+10	1
4902624	10	C	09/29/2024	05:33	-128.459	47.510	0	374.90	0	5.1110	0	33.9500	0	26.834	0	371.434	0	58.0	4	18.8	4	-1E+10	1	0.0438	4	0.000301	0	-1E+10	1	-1E+10	1	-1E+10	1
4902624	10	C	09/29/2024	05:33	-128.459	47.510	0	385.10	0	5.0350	0	33.9570	0	26.848	0	381.530	0	-1e10	1	-1e10	1	-1E+10	1	-1e10	1	-1e10	1	-1E+10	1	-1E+10	1	-1E+10	1
4902624	10	C	09/29/2024	05:33	-128.459	47.510	0	386.10	0	5.0358	0	33.9592	0	26.850	0	382.520	0	55.1	4	17.8	4	-1E+10	1	0.0438	4	0.000244	0	-1E+10	1	-1E+10	1	-1E+10	1
4902624	10	C	09/29/2024	05:33	-128.459	47.510	0	395.00	0	5.0430	0	33.9790	0	26.865	0	391.329	0	-1e10	1	-1e10	1	-1E+10	1	-1e10	1	-1e10	1	-1E+10	1	-1E+10	1	-1E+10	1
4902624	10	C	09/29/2024	05:33	-128.459	47.510	0	397.40	0	5.0279	0	33.9797	0	26.867	0	393.705	0	51.8	4	16.7	4	-1E+10	1	0.0441	4	0.000244	0	-1E+10	1	-1E+10	1	-1E+10	1
4902624	10	C	09/29/2024	05:33	-128.459	47.510	0	405.20	0	4.9790	0	33.9820	0	26.874	0	401.424	0	-1e10	1	-1e10	1	-1E+10	1	-1e10	1	-1e10	1	-1E+10	1	-1E+10	1	-1E+10	1
4902624	10	C	09/29/2024	05:33	-128.459	47.510	0	408.80	0	4.9652	0	33.9867	0	26.880	0	404.987	0	48.7	4	15.7	4	-1E+10	1	0.0514	4	0.000242	0	-1E+10	1	-1E+10	1	-1E+10	1
4902624	10	C	09/29/2024	05:33	-128.459	47.510	0	415.10	0	4.9410	0	33.9950	0	26.889	0	411.222	0	-1e10	1	-1e10	1	-1E+10	1	-1e10	1	-1e10	1	-1E+10	1	-1E+10	1	-1E+10	1
4902624	10	C	09/29/2024	05:33	-128.459	47.510	0	420.30	0	4.9130	0	34.0006	0	26.897	0	416.369	0	45.6	4	14.7	4	-1E+10	1	0.0584	4	0.000198	0	-1E+10	1	-1E+10	1	-1E+10	1
4902624	10	C	09/29/2024	05:33	-128.459	47.510	0	425.30	0	4.8860	0	34.0060	0	26.904	0	421.317	0	-1e10	1	-1e10	1	-1E+10	1	-1e10	1	-1e10	1	-1E+10	1	-1E+10	1	-1E+10	1
4902624	10	C	09/29/2024	05:33	-128.459	47.510	0	432.10	0	4.8576	0	34.0109	0	26.911	0	428.046	0	43.7	4	14.1	4	-1E+10	1	0.0581	4	0.000210	0	-1E+10	1	-1E+10	1	-1E+10	1
4902624	10	C	09/29/2024	05:33	-128.459	47.510	0	435.10	0	4.8450	0	34.0130	0	26.914	0	431.015	0	-1e10	1	-1e10	1	-1E+10	1	-1e10	1	-1e10	1	-1E+10	1	-1E+10	1	-1E+10	1
4902624	10	C	09/29/2024	05:33	-128.459	47.510	0	444.10	0	4.8114	0	34.0185	0	26.922	0	439.921	0	41.4	4	13.3	4	-1E+10	1	0.0514	4	0.000230	0	-1E+10	1	-1E+10	1	-1E+10	1
4902624	10	C	09/29/2024	05:33	-128.459	47.510	0	445.00	0	4.8080	0	34.0190	0	26.923	0	440.811	0	-1e10	1	-1e10	1	-1E+10	1	-1e10	1	-1e10	1	-1E+10	1	-1E+10	1	-1E+10	1
4902624	10	C	09/29/2024	05:33	-128.459	47.510	0	454.90	0	4.7620	0	34.0290	0	26.936	0	450.607	0	-1e10	1	-1e10	1	-1E+10	1	-1e10	1	-1e10	1	-1E+10	1	-1E+10	1	-1E+10	1
4902624	10	C	09/29/2024	05:33	-128.459	47.510	0	455.30	0	4.7612	0	34.0294	0	26.937	0	451.003	0	39.2	4	12.6	4	-1E+10	1	0.0588	4	0.000190	0	-1E+10	1	-1E+10	1	-1E+10	1
4902624	10	C	09/29/2024	05:33	-128.459	47.510	0	462.90	0	4.7455	0	34.0376	0	26.945	0	458.523	0	37.0	4	11.9	4	-1E+10	1	0.0651	4	0.000311	0	-1E+10	1	-1E+10	1	-1E+10	1
4902624	10	C	09/29/2024	05:33	-128.459	47.510	0	465.10	0	4.7410	0	34.0400	0	26.947	0	460.700	0	-1e10	1	-1e10	1	-1E+10	1	-1e10	1	-1e10	1	-1E+10	1	-1E+10	1	-1E+10	1
4902624	10	C	09/29/2024	05:33	-128.459	47.510	0	470.70	0	4.7257	0	34.0468	0	26.955	0	466.241	0	35.1	4	11.3	4	-1E+10	1	0.0511	4	0.000231	0	-1E+10	1	-1E+10	1	-1E+10	1
4902624	10	C	09/29/2024	05:33	-128.459	47.510	0	475.00	0	4.7140	0	34.0520	0	26.960	0	470.495	0	-1e10	1	-1e10	1	-1E+10	1	-1e10	1	-1e10	1	-1E+10	1	-1E+10	1	-1E+10	1
4902624	10	C	09/29/2024	05:33	-128.459	47.510	0	478.80	0	4.7102	0	34.0558	0	26.964	0	474.255	0	33.2	4	10.7	4	-1E+10	1	0.0516	4	0.000196	0	-1E+10	1	-1E+10	1	-1E+10	1
4902624	10	C	09/29/2024	05:33	-128.459	47.510	0	484.90	0	4.7040	0	34.0620	0	26.969	0	480.290	0	-1e10	1	-1e10	1	-1E+10	1	-1e10	1	-1e10	1	-1E+10	1	-1E+10	1	-1E+10	1
4902624	10	C	09/29/2024	05:33	-128.459	47.510	0	487.40	0	4.6944	0	34.0635	0	26.971	0	482.763	0	32.0	4	10.3	4	-1E+10	1	0.0650	4	0.000174	0	-1E+10	1	-1E+10	1	-1E+10	1
4902624	10	C	09/29/2024	05:33	-128.459	47.510	0	495.10	0	4.6650	0	34.0680	0	26.978	0	490.381	0	-1e10	1	-1e10	1	-1E+10	1	-1e10	1	-1e10	1	-1E+10	1	-1E+10	1	-1E+10	1
4902624	10	C	09/29/2024	05:33	-128.459	47.510	0	496.10	0	4.6594	0	34.0687	0	26.979	0	491.370	0	30.6	4	9.8	4	-1E+10	1	0.0513	4	0.000184	0	-1E+10	1	-1E+10	1	-1E+10	1
4902624	10	C	09/29/2024	05:33	-128.459	47.510	0	505.20	0	4.6080	0	34.0750	0	26.990	0	500.372	0	29.2	4	9.3	4	-1E+10	1	0.0584	4	0.000173	0	-1E+10	1	-1E+10	1	-1E+10	1
4902624	10	C	09/29/2024	05:33	-128.459	47.510	0	514.80	0	4.5576	0	34.0798	0	27.000	0	509.869	0	28.2	4	9.0	4	-1E+10	1	0.0588	4	0.000184	0	-1E+10	1	-1E+10	1	-1E+10	1
4902624	10	C	09/29/2024	05:33	-128.459	47.510	0	515.10	0	4.5560	0	34.0800	0	27.000	0	510.165	0	-1e10	1	-1e10	1	-1E+10	1	-1e10	1	-1e10	1	-1E+10	1	-1E+10	1	-1E+10	1
4902624	10	C	09/29/2024	05:33	-128.459	47.510	0	524.40	0	4.5446	0	34.0876	0	27.007	0	519.365	0	26.9	4	8.6	4	-1E+10	1	0.0652	4	0.000183	0	-1E+10	1	-1E+10	1	-1E+10	1
4902624	10	C	09/29/2024	05:33	-128.459	47.510	0	524.90	0	4.5440	0	34.0880	0	27.008	0	519.859	0	-1e10	1	-1e10	1	-1E+10	1	-1e10	1	-1e10	1	-1E+10	1	-1E+10	1	-1E+10	1
4902624	10	C	09/29/2024	05:33	-128.459	47.510	0	534.20	0	4.5421	0	34.0946	0	27.013	0	529.058	0	25.8	4	8.2	4	-1E+10	1	0.0514	4	0.000161	0	-1E+10	1	-1E+10	1	-1E+10	1
4902624	10	C	09/29/2024	05:33	-128.459	47.510	0	534.80	0	4.5420	0	34.0950	0	27.013	0	529.652	0	-1e10	1	-1e10	1	-1E+10	1	-1e10	1	-1e10	1	-1E+10	1	-1E+10	1	-1E+10	1
4902624	10	C	09/29/2024	05:33	-128.459	47.510	0	544.10	0	4.4941	0	34.0995	0	27.022	0	538.850	0	24.7	4	7.9	4	-1E+10	1	0.0581	4	0.000441	0	-1E+10	1	-1E+10	1	-1E+10	1
4902624	10	C	09/29/2024	05:33	-128.459	47.510	0	545.10	0	4.4890	0	34.1000	0	27.023	0	539.839	0	-1e10	1	-1e10	1	-1E+10	1	-1e10	1	-1e10	1	-1E+10	1	-1E+10	1	-1E+10	1
4902624	10	C	09/29/2024	05:33	-128.459	47.510	0	554.10	0	4.4537	0	34.1044	0	27.031	0	548.740	0	23.3	4	7.4	4	-1E+10	1	0.0513	4	0.000140	0	-1E+10	1	-1E+10	1	-1E+10	1
4902624	10	C	09/29/2024	05:33	-128.459	47.510	0	555.30	0	4.4490	0	34.1050	0	27.032	0	549.927	0	-1e10	1	-1e10	1	-1E+10	1	-1e10	1	-1e10	1	-1E+10	1	-1E+10	1	-1E+10	1
4902624	10	C	09/29/2024	05:33	-128.459	47.510	0	564.40	0	4.4426	0	34.1159	0	27.041	0	558.927	0	21.9	4	7.0	4	-1E+10	1	0.0581	4	0.000216	0	-1E+10	1	-1E+10	1	-1E+10	1
4902624	10	C	09/29/2024	05:33	-128.459	47.510	0	565.30	0	4.4420	0	34.1170	0	27.042	0	559.817	0	-1e10	1	-1e10	1	-1E+10	1	-1e10	1	-1e10	1	-1E+10	1	-1E+10	1	-1E+10	1
4902624	10	C	09/29/2024	05:33	-128.459	47.510	0	574.90	0	4.4175	0	34.1239	0	27.050	0	569.311	0	20.8	4	6.6	4	-1E+10	1	0.0511	4	0.000159	0	-1E+10	1	-1E+10	1	-1E+10	1
4902624	10	C	09/29/2024	05:33	-128.459	47.510	0	575.10	0	4.4170	0	34.1240	0	27.050	0	569.509	0	-1e10	1	-1e10	1	-1E+10	1	-1e10	1	-1e10	1	-1E+10	1	-1E+10	1	-1E+10	1
4902624	10	C	09/29/2024	05:33	-128.459	47.510	0	584.80	0	4.3870	0	34.1310	0	27.059	0	579.101	0	-1e10	1	-1e10	1	-1E+10	1	-1e10	1	-1e10	1	-1E+10	1	-1E+10	1	-1E+10	1
4902624	10	C	09/29/2024	05:33	-128.459	47.510	0	585.80	0	4.3859	0	34.1318	0	27.060	0	580.090	0	19.5	4	6.2	4	-1E+10	1	0.0516	4	0.000137	0	-1E+10	1	-1E+10	1	-1E+10	1
4902624	10	C	09/29/2024	05:33	-128.459	47.510	0	594.90	0	4.3760	0	34.1390	0	27.067	0	589.088	0	-1e10	1	-1e10	1	-1E+10	1	-1e10	1	-1e10	1	-1E+10	1	-1E+10	1	-1E+10	1
4902624	10	C	09/29/2024	05:33	-128.459	47.510	0	597.20	0	4.3696	0	34.1410	0	27.069	0	591.362	0	18.3	4	5.8	4	-1E+10	1	0.0651	4	0.000148	0	-1E+10	1	-1E+10	1	-1E+10	1
4902624	10	C	09/29/2024	05:33	-128.459	47.510	0	605.00	0	4.3480	0	34.1480	0	27.077	0	599.075	0	-1e10	1	-1e10	1	-1E+10	1	-1e10	1	-1e10	1	-1E+10	1	-1E+10	1	-1E+10	1
4902624	10	C	09/29/2024	05:33	-128.459	47.510	0	608.80	0	4.3387	0	34.1502	0	27.080	0	602.832	0	17.6	4	5.6	4	-1E+10	1	0.0513	4	0.000137	0	-1E+10	1	-1E+10	1	-1E+10	1
4902624	10	C	09/29/2024	05:33	-128.459	47.510	0	615.20	0	4.3230	0	34.1540	0	27.084	0	609.160	0	-1e10	1	-1e10	1	-1E+10	1	-1e10	1	-1e10	1	-1E+10	1	-1E+10	1	-1E+10	1
4902624	10	C	09/29/2024	05:33	-128.459	47.510	0	620.80	0	4.3045	0	34.1569	0	27.089	0	614.697	0	16.8	4	5.4	4	-1E+10	1	0.0584	4	0.000148	0	-1E+10	1	-1E+10	1	-1E+10	1
4902624	10	C	09/29/2024	05:33	-128.459	47.510	0	624.90	0	4.2910	0	34.1590	0	27.092	0	618.750	0	-1e10	1	-1e10	1	-1E+10	1	-1e10	1	-1e10	1	-1E+10	1	-1E+10	1	-1E+10	1
4902624	10	C	09/29/2024	05:33	-128.459	47.510	0	633.10	0	4.2765	0	34.1638	0	27.097	0	626.857	0	16.1	4	5.1	4	-1E+10	1	0.0582	4	0.000147	0	-1E+10	1	-1E+10	1	-1E+10	1
4902624	10	C	09/29/2024	05:33	-128.459	47.510	0	635.10	0	4.2730	0	34.1650	0	27.099	0	628.835	0	-1e10	1	-1e10	1	-1E+10	1	-1e10	1	-1e10	1	-1E+10	1	-1E+10	1	-1E+10	1
4902624	10	C	09/29/2024	05:33	-128.459	47.510	0	645.20	0	4.2460	0	34.1710	0	27.106	0	638.820	0	-1e10	1	-1e10	1	-1E+10	1	-1e10	1	-1e10	1	-1E+10	1	-1E+10	1	-1E+10	1
4902624	10	C	09/29/2024	05:33	-128.459	47.510	0	645.70	0	4.2445	0	34.1712	0	27.107	0	639.314	0	15.5	4	4.9	4	-1E+10	1	0.0511	4	0.000112	0	-1E+10	1	-1E+10	1	-1E+10	1
4902624	10	C	09/29/2024	05:33	-128.459	47.510	0	655.10	0	4.2170	0	34.1750	0	27.113	0	648.606	0	-1e10	1	-1e10	1	-1E+10	1	-1e10	1	-1e10	1	-1E+10	1	-1E+10	1	-1E+10	1
4902624	10	C	09/29/2024	05:33	-128.459	47.510	0	658.50	0	4.2088	0	34.1770	0	27.115	0	651.967	0	14.8	4	4.7	4	-1E+10	1	0.0519	4	0.000135	0	-1E+10	1	-1E+10	1	-1E+10	1
4902624	10	C	09/29/2024	05:33	-128.459	47.510	0	665.10	0	4.1930	0	34.1810	0	27.120	0	658.491	0	-1e10	1	-1e10	1	-1E+10	1	-1e10	1	-1e10	1	-1E+10	1	-1E+10	1	-1E+10	1
4902624	10	C	09/29/2024	05:33	-128.459	47.510	0	667.40	0	4.1965	0	34.1845	0	27.122	0	660.765	0	13.9	4	4.4	4	-1E+10	1	0.0652	4	0.000124	0	-1E+10	1	-1E+10	1	-1E+10	1
4902624	10	C	09/29/2024	05:33	-128.459	47.510	0	674.90	0	4.2080	0	34.1960	0	27.130	0	668.178	0	-1e10	1	-1e10	1	-1E+10	1	-1e10	1	-1e10	1	-1E+10	1	-1E+10	1	-1E+10	1
4902624	10	C	09/29/2024	05:33	-128.459	47.510	0	675.60	0	4.2085	0	34.1968	0	27.131	0	668.870	0	12.9	4	4.1	4	-1E+10	1	0.0511	4	0.000125	0	-1E+10	1	-1E+10	1	-1E+10	1
4902624	10	C	09/29/2024	05:33	-128.459	47.510	0	683.90	0	4.2144	0	34.2069	0	27.138	0	677.074	0	12.2	4	3.9	4	-1E+10	1	0.0516	4	0.000140	0	-1E+10	1	-1E+10	1	-1E+10	1
4902624	10	C	09/29/2024	05:33	-128.459	47.510	0	684.80	0	4.2150	0	34.2080	0	27.139	0	677.964	0	-1e10	1	-1e10	1	-1E+10	1	-1e10	1	-1e10	1	-1E+10	1	-1E+10	1	-1E+10	1
4902624	10	C	09/29/2024	05:33	-128.459	47.510	0	692.20	0	4.2099	0	34.2131	0	27.144	0	685.277	0	11.9	4	3.8	4	-1E+10	1	0.0653	4	0.000260	0	-1E+10	1	-1E+10	1	-1E+10	1
4902624	10	C	09/29/2024	05:33	-128.459	47.510	0	694.90	0	4.2080	0	34.2150	0	27.146	0	687.946	0	-1e10	1	-1e10	1	-1E+10	1	-1e10	1	-1e10	1	-1E+10	1	-1E+10	1	-1E+10	1
4902624	10	C	09/29/2024	05:33	-128.459	47.510	0	700.50	0	4.1951	0	34.2167	0	27.148	0	693.481	0	11.7	4	3.7	4	-1E+10	1	0.0584	4	0.000169	0	-1E+10	1	-1E+10	1	-1E+10	1
4902624	10	C	09/29/2024	05:33	-128.459	47.510	0	704.90	0	4.1850	0	34.2180	0	27.150	0	697.829	0	-1e10	1	-1e10	1	-1E+10	1	-1e10	1	-1e10	1	-1E+10	1	-1E+10	1	-1E+10	1
4902624	10	C	09/29/2024	05:33	-128.459	47.510	0	708.80	0	4.1776	0	34.2211	0	27.154	0	701.684	0	11.2	4	3.5	4	-1E+10	1	0.0581	4	0.000135	0	-1E+10	1	-1E+10	1	-1E+10	1
4902624	10	C	09/29/2024	05:33	-128.459	47.510	0	714.90	0	4.1660	0	34.2260	0	27.159	0	707.712	0	-1e10	1	-1e10	1	-1E+10	1	-1e10	1	-1e10	1	-1E+10	1	-1E+10	1	-1E+10	1
4902624	10	C	09/29/2024	05:33	-128.459	47.510	0	717.20	0	4.1609	0	34.2281	0	27.161	0	709.985	0	10.7	4	3.4	4	-1E+10	1	0.0511	4	0.000124	0	-1E+10	1	-1E+10	1	-1E+10	1
4902624	10	C	09/29/2024	05:33	-128.459	47.510	0	724.90	0	4.1440	0	34.2350	0	27.168	0	717.594	0	-1e10	1	-1e10	1	-1E+10	1	-1e10	1	-1e10	1	-1E+10	1	-1E+10	1	-1E+10	1
4902624	10	C	09/29/2024	05:33	-128.459	47.510	0	725.70	0	4.1430	0	34.2357	0	27.169	0	718.385	0	10.1	4	3.2	4	-1E+10	1	0.0516	4	0.000148	0	-1E+10	1	-1E+10	1	-1E+10	1
4902624	10	C	09/29/2024	05:33	-128.459	47.510	0	734.30	0	4.1328	0	34.2434	0	27.176	0	726.883	0	9.8	4	3.1	4	-1E+10	1	0.0654	4	0.000170	0	-1E+10	1	-1E+10	1	-1E+10	1
4902624	10	C	09/29/2024	05:33	-128.459	47.510	0	735.00	0	4.1320	0	34.2440	0	27.177	0	727.575	0	-1e10	1	-1e10	1	-1E+10	1	-1e10	1	-1e10	1	-1E+10	1	-1E+10	1	-1E+10	1
4902624	10	C	09/29/2024	05:33	-128.459	47.510	0	742.80	0	4.1142	0	34.2502	0	27.184	0	735.282	0	9.5	4	3.0	4	-1E+10	1	0.0581	4	0.000158	0	-1E+10	1	-1E+10	1	-1E+10	1
4902624	10	C	09/29/2024	05:33	-128.459	47.510	0	745.10	0	4.1090	0	34.2520	0	27.186	0	737.555	0	-1e10	1	-1e10	1	-1E+10	1	-1e10	1	-1e10	1	-1E+10	1	-1E+10	1	-1E+10	1
4902624	10	C	09/29/2024	05:33	-128.459	47.510	0	751.60	0	4.0957	0	34.2573	0	27.191	0	743.978	0	9.1	4	2.9	4	-1E+10	1	0.0524	4	0.000136	0	-1E+10	1	-1E+10	1	-1E+10	1
4902624	10	C	09/29/2024	05:33	-128.459	47.510	0	754.90	0	4.0890	0	34.2600	0	27.194	0	747.238	0	-1e10	1	-1e10	1	-1E+10	1	-1e10	1	-1e10	1	-1E+10	1	-1E+10	1	-1E+10	1
4902624	10	C	09/29/2024	05:33	-128.459	47.510	0	760.70	0	4.0714	0	34.2647	0	27.200	0	752.969	0	8.9	4	2.8	4	-1E+10	1	0.0797	4	0.000157	0	-1E+10	1	-1E+10	1	-1E+10	1
4902624	10	C	09/29/2024	05:33	-128.459	47.510	0	764.80	0	4.0590	0	34.2680	0	27.204	0	757.020	0	-1e10	1	-1e10	1	-1E+10	1	-1e10	1	-1e10	1	-1E+10	1	-1E+10	1	-1E+10	1
4902624	10	C	09/29/2024	05:33	-128.459	47.510	0	770.00	0	4.0442	0	34.2716	0	27.208	0	762.157	0	8.7	4	2.7	4	-1E+10	1	0.0651	4	0.000136	0	-1E+10	1	-1E+10	1	-1E+10	1
4902624	10	C	09/29/2024	05:33	-128.459	47.510	0	775.00	0	4.0300	0	34.2750	0	27.212	0	767.097	0	-1e10	1	-1e10	1	-1E+10	1	-1e10	1	-1e10	1	-1E+10	1	-1E+10	1	-1E+10	1
4902624	10	C	09/29/2024	05:33	-128.459	47.510	0	779.60	0	4.0183	0	34.2782	0	27.216	0	771.642	0	8.5	4	2.7	4	-1E+10	1	0.0518	4	0.000163	0	-1E+10	1	-1E+10	1	-1E+10	1
4902624	10	C	09/29/2024	05:33	-128.459	47.510	0	785.20	0	4.0040	0	34.2820	0	27.221	0	777.174	0	-1e10	1	-1e10	1	-1E+10	1	-1e10	1	-1e10	1	-1E+10	1	-1E+10	1	-1E+10	1
4902624	10	C	09/29/2024	05:33	-128.459	47.510	0	789.40	0	3.9937	0	34.2841	0	27.223	0	781.324	0	8.4	4	2.6	4	-1E+10	1	0.0657	4	0.000259	0	-1E+10	1	-1E+10	1	-1E+10	1
4902624	10	C	09/29/2024	05:33	-128.459	47.510	0	795.00	0	3.9800	0	34.2870	0	27.227	0	786.856	0	-1e10	1	-1e10	1	-1E+10	1	-1e10	1	-1e10	1	-1E+10	1	-1E+10	1	-1E+10	1
4902624	10	C	09/29/2024	05:33	-128.459	47.510	0	799.50	0	3.9697	0	34.2888	0	27.230	0	791.301	0	8.1	4	2.6	4	-1E+10	1	0.0651	4	0.000158	0	-1E+10	1	-1E+10	1	-1E+10	1
4902624	10	C	09/29/2024	05:33	-128.459	47.510	0	805.00	0	3.9570	0	34.2910	0	27.233	0	796.734	0	-1e10	1	-1e10	1	-1E+10	1	-1e10	1	-1e10	1	-1E+10	1	-1E+10	1	-1E+10	1
4902624	10	C	09/29/2024	05:33	-128.459	47.510	0	809.80	0	3.9484	0	34.2929	0	27.235	0	801.476	0	8.1	4	2.6	4	-1E+10	1	0.0517	4	0.000158	0	-1E+10	1	-1E+10	1	-1E+10	1
4902624	10	C	09/29/2024	05:33	-128.459	47.510	0	815.10	0	3.9390	0	34.2950	0	27.238	0	806.711	0	-1e10	1	-1e10	1	-1E+10	1	-1e10	1	-1e10	1	-1E+10	1	-1E+10	1	-1E+10	1
4902624	10	C	09/29/2024	05:33	-128.459	47.510	0	820.30	0	3.9374	0	34.2986	0	27.241	0	811.847	0	7.9	4	2.5	4	-1E+10	1	0.0654	4	0.000157	0	-1E+10	1	-1E+10	1	-1E+10	1
4902624	10	C	09/29/2024	05:33	-128.459	47.510	0	825.10	0	3.9360	0	34.3020	0	27.244	0	816.588	0	-1e10	1	-1e10	1	-1E+10	1	-1e10	1	-1e10	1	-1E+10	1	-1E+10	1	-1E+10	1
4902624	10	C	09/29/2024	05:33	-128.459	47.510	0	831.20	0	3.9200	0	34.3057	0	27.248	0	822.614	0	7.8	4	2.5	4	-1E+10	1	0.0587	4	0.000148	0	-1E+10	1	-1E+10	1	-1E+10	1
4902624	10	C	09/29/2024	05:33	-128.459	47.510	0	835.00	0	3.9100	0	34.3080	0	27.251	0	826.367	0	-1e10	1	-1e10	1	-1E+10	1	-1e10	1	-1e10	1	-1E+10	1	-1E+10	1	-1E+10	1
4902624	10	C	09/29/2024	05:33	-128.459	47.510	0	842.30	0	3.8955	0	34.3131	0	27.257	0	833.577	0	7.7	4	2.4	4	-1E+10	1	0.0654	4	0.000202	0	-1E+10	1	-1E+10	1	-1E+10	1
4902624	10	C	09/29/2024	05:33	-128.459	47.510	0	845.10	0	3.8900	0	34.3150	0	27.259	0	836.342	0	-1e10	1	-1e10	1	-1E+10	1	-1e10	1	-1e10	1	-1E+10	1	-1E+10	1	-1E+10	1
4902624	10	C	09/29/2024	05:33	-128.459	47.510	0	853.60	0	3.8536	0	34.3167	0	27.264	0	844.737	0	8.8	4	2.8	4	-1E+10	1	0.0584	4	0.000145	0	-1E+10	1	-1E+10	1	-1E+10	1
4902624	10	C	09/29/2024	05:33	-128.459	47.510	0	854.90	0	3.8480	0	34.3170	0	27.265	0	846.021	0	-1e10	1	-1e10	1	-1E+10	1	-1e10	1	-1e10	1	-1E+10	1	-1E+10	1	-1E+10	1
4902624	10	C	09/29/2024	05:33	-128.459	47.510	0	864.70	0	3.8150	0	34.3220	0	27.272	0	855.699	0	-1e10	1	-1e10	1	-1E+10	1	-1e10	1	-1e10	1	-1E+10	1	-1E+10	1	-1E+10	1
4902624	10	C	09/29/2024	05:33	-128.459	47.510	0	865.10	0	3.8148	0	34.3222	0	27.272	0	856.094	0	21.6	4	6.8	4	-1E+10	1	0.0584	4	0.000134	0	-1E+10	1	-1E+10	1	-1E+10	1
4902624	10	C	09/29/2024	05:33	-128.459	47.510	0	874.90	0	3.8090	0	34.3260	0	27.276	0	865.772	0	-1e10	1	-1e10	1	-1E+10	1	-1e10	1	-1e10	1	-1E+10	1	-1E+10	1	-1E+10	1
4902624	10	C	09/29/2024	05:33	-128.459	47.510	0	876.90	0	3.8050	0	34.3264	0	27.277	0	867.747	0	38.4	4	12.1	4	-1E+10	1	0.0581	4	0.000134	0	-1E+10	1	-1E+10	1	-1E+10	1
4902624	10	C	09/29/2024	05:33	-128.459	47.510	0	884.90	0	3.7890	0	34.3280	0	27.280	0	875.646	0	-1e10	1	-1e10	1	-1E+10	1	-1e10	1	-1e10	1	-1E+10	1	-1E+10	1	-1E+10	1
4902624	10	C	09/29/2024	05:33	-128.459	47.510	0	888.60	0	3.7722	0	34.3287	0	27.282	0	879.300	0	33.3	4	10.5	4	-1E+10	1	0.0511	4	0.000145	0	-1E+10	1	-1E+10	1	-1E+10	1
4902624	10	C	09/29/2024	05:33	-128.459	47.510	0	894.80	0	3.7440	0	34.3300	0	27.286	0	885.422	0	-1e10	1	-1e10	1	-1E+10	1	-1e10	1	-1e10	1	-1E+10	1	-1E+10	1	-1E+10	1
4902624	10	C	09/29/2024	05:33	-128.459	47.510	0	900.40	0	3.7317	0	34.3322	0	27.289	0	890.951	0	41.0	4	12.9	4	-1E+10	1	0.0513	4	0.000135	0	-1E+10	1	-1E+10	1	-1E+10	1
4902624	10	C	09/29/2024	05:33	-128.459	47.510	0	904.80	0	3.7220	0	34.3340	0	27.291	0	895.296	0	-1e10	1	-1e10	1	-1E+10	1	-1e10	1	-1e10	1	-1E+10	1	-1E+10	1	-1E+10	1
4902624	10	C	09/29/2024	05:33	-128.459	47.510	0	912.20	0	3.7095	0	34.3391	0	27.297	0	902.602	0	57.9	4	18.2	4	-1E+10	1	0.0589	4	0.000191	0	-1E+10	1	-1E+10	1	-1E+10	1
4902624	10	C	09/29/2024	05:33	-128.459	47.510	0	914.90	0	3.7050	0	34.3410	0	27.298	0	905.268	0	-1e10	1	-1e10	1	-1E+10	1	-1e10	1	-1e10	1	-1E+10	1	-1E+10	1	-1E+10	1
4902624	10	C	09/29/2024	05:33	-128.459	47.510	0	924.00	0	3.6910	0	34.3454	0	27.303	0	914.252	0	57.8	4	18.1	4	-1E+10	1	0.0718	4	0.000156	0	-1E+10	1	-1E+10	1	-1E+10	1
4902624	10	C	09/29/2024	05:33	-128.459	47.510	0	925.30	0	3.6890	0	34.3460	0	27.304	0	915.536	0	-1e10	1	-1e10	1	-1E+10	1	-1e10	1	-1e10	1	-1E+10	1	-1E+10	1	-1E+10	1
4902624	10	C	09/29/2024	05:33	-128.459	47.510	0	935.00	0	3.6710	0	34.3510	0	27.310	0	925.112	0	-1e10	1	-1e10	1	-1E+10	1	-1e10	1	-1e10	1	-1E+10	1	-1E+10	1	-1E+10	1
4902624	10	C	09/29/2024	05:33	-128.459	47.510	0	935.70	0	3.6696	0	34.3514	0	27.310	0	925.803	0	45.7	4	14.3	4	-1E+10	1	0.0448	4	0.000144	0	-1E+10	1	-1E+10	1	-1E+10	1
4902624	10	C	09/29/2024	05:33	-128.459	47.510	0	945.00	0	3.6510	0	34.3560	0	27.316	0	934.984	0	-1e10	1	-1e10	1	-1E+10	1	-1e10	1	-1e10	1	-1E+10	1	-1E+10	1	-1E+10	1
4902624	10	C	09/29/2024	05:33	-128.459	47.510	0	947.60	0	3.6464	0	34.3568	0	27.317	0	937.550	0	44.9	4	14.1	4	-1E+10	1	0.0727	4	0.000135	0	-1E+10	1	-1E+10	1	-1E+10	1
4902624	10	C	09/29/2024	05:33	-128.459	47.510	0	955.10	0	3.6330	0	34.3590	0	27.320	0	944.954	0	-1e10	1	-1e10	1	-1E+10	1	-1e10	1	-1e10	1	-1E+10	1	-1E+10	1	-1E+10	1
4902624	10	C	09/29/2024	05:33	-128.459	47.510	0	959.30	0	3.6226	0	34.3611	0	27.323	0	949.100	0	44.3	4	13.9	4	-1E+10	1	0.0649	4	0.000176	0	-1E+10	1	-1E+10	1	-1E+10	1
4902624	10	C	09/29/2024	05:33	-128.459	47.510	0	965.20	0	3.6080	0	34.3640	0	27.327	0	954.924	0	-1e10	1	-1e10	1	-1E+10	1	-1e10	1	-1e10	1	-1E+10	1	-1E+10	1	-1E+10	1
4902624	10	C	09/29/2024	05:33	-128.459	47.510	0	967.70	0	3.6023	0	34.3653	0	27.328	0	957.391	0	43.9	4	13.7	4	-1E+10	1	0.0514	4	0.000122	0	-1E+10	1	-1E+10	1	-1E+10	1
4902624	10	C	09/29/2024	05:33	-128.459	47.510	0	974.90	0	3.5860	0	34.3690	0	27.333	0	964.498	0	-1e10	1	-1e10	1	-1E+10	1	-1e10	1	-1e10	1	-1E+10	1	-1E+10	1	-1E+10	1
4902624	10	C	09/29/2024	05:33	-128.459	47.510	0	975.50	0	3.5843	0	34.3694	0	27.333	0	965.090	0	43.7	4	13.7	4	-1E+10	1	0.0584	4	0.000145	0	-1E+10	1	-1E+10	1	-1E+10	1
4902624	10	C	09/29/2024	05:33	-128.459	47.510	0	983.40	0	3.5624	0	34.3741	0	27.339	0	972.888	0	43.6	4	13.6	4	-1E+10	1	0.0589	4	0.000155	0	-1E+10	1	-1E+10	1	-1E+10	1
4902624	10	C	09/29/2024	05:33	-128.459	47.510	0	985.00	0	3.5580	0	34.3750	0	27.340	0	974.467	0	-1e10	1	-1e10	1	-1E+10	1	-1e10	1	-1e10	1	-1E+10	1	-1E+10	1	-1E+10	1
4902624	10	C	09/29/2024	05:33	-128.459	47.510	0	991.70	0	3.5485	0	34.3784	0	27.344	0	981.079	0	42.3	4	13.2	4	-1E+10	1	0.0725	4	0.000145	0	-1E+10	1	-1E+10	1	-1E+10	1
4902624	10	C	09/29/2024	05:33	-128.459	47.510	0	994.90	0	3.5440	0	34.3800	0	27.346	0	984.238	0	-1e10	1	-1e10	1	-1E+10	1	-1e10	1	-1e10	1	-1E+10	1	-1E+10	1	-1E+10	1
4902624	10	C	09/29/2024	05:33	-128.459	47.510	0	1008.10	0	3.5129	0	34.3859	0	27.354	0	997.265	0	42.1	4	13.2	4	-1E+10	1	0.0512	4	0.000201	0	-1E+10	1	-1E+10	1	-1E+10	1
4902624	10	C	09/29/2024	05:33	-128.459	47.510	0	1024.20	0	3.4750	0	34.3930	0	27.363	0	1013.153	0	-1e10	1	-1e10	1	-1E+10	1	-1e10	1	-1e10	1	-1E+10	1	-1E+10	1	-1E+10	1
4902624	10	C	09/29/2024	05:33	-128.459	47.510	0	1026.00	0	3.4712	0	34.3936	0	27.364	0	1014.929	0	46.9	4	14.7	4	-1E+10	1	0.0583	4	0.000144	0	-1E+10	1	-1E+10	1	-1E+10	1
4902624	10	C	09/29/2024	05:33	-128.459	47.510	0	1045.20	0	3.4305	0	34.4004	0	27.373	0	1033.875	0	45.9	4	14.3	4	-1E+10	1	0.0511	4	0.000178	0	-1E+10	1	-1E+10	1	-1E+10	1
4902624	10	C	09/29/2024	05:33	-128.459	47.510	0	1065.80	0	3.3869	0	34.4077	0	27.383	0	1054.200	0	47.4	4	14.8	4	-1E+10	1	0.0511	4	0.000143	0	-1E+10	1	-1E+10	1	-1E+10	1
4902624	10	C	09/29/2024	05:33	-128.459	47.510	0	1075.20	0	3.3670	0	34.4110	0	27.388	0	1063.473	0	-1e10	1	-1e10	1	-1E+10	1	-1e10	1	-1e10	1	-1E+10	1	-1E+10	1	-1E+10	1
4902624	10	C	09/29/2024	05:33	-128.459	47.510	0	1087.70	0	3.3376	0	34.4150	0	27.394	0	1075.805	0	53.4	4	16.6	4	-1E+10	1	0.0514	4	0.000143	0	-1E+10	1	-1E+10	1	-1E+10	1
4902624	10	C	09/29/2024	05:33	-128.459	47.510	0	1110.70	0	3.2836	0	34.4224	0	27.405	0	1098.493	0	49.4	4	15.4	4	-1E+10	1	0.0655	4	0.000154	0	-1E+10	1	-1E+10	1	-1E+10	1
4902624	10	C	09/29/2024	05:33	-128.459	47.510	0	1125.00	0	3.2500	0	34.4270	0	27.412	0	1112.598	0	-1e10	1	-1e10	1	-1E+10	1	-1e10	1	-1e10	1	-1E+10	1	-1E+10	1	-1E+10	1
4902624	10	C	09/29/2024	05:33	-128.459	47.510	0	1134.40	0	3.2259	0	34.4300	0	27.417	0	1121.870	0	50.7	4	15.8	4	-1E+10	1	0.0581	4	0.000143	0	-1E+10	1	-1E+10	1	-1E+10	1
4902624	10	C	09/29/2024	05:33	-128.459	47.510	0	1158.50	0	3.1641	0	34.4376	0	27.429	0	1145.638	0	54.0	4	16.7	4	-1E+10	1	0.0441	4	0.000176	0	-1E+10	1	-1E+10	1	-1E+10	1
4902624	10	C	09/29/2024	05:33	-128.459	47.510	0	1175.70	0	3.1200	0	34.4430	0	27.437	0	1162.599	0	-1e10	1	-1e10	1	-1E+10	1	-1e10	1	-1e10	1	-1E+10	1	-1E+10	1	-1E+10	1
4902624	10	C	09/29/2024	05:33	-128.459	47.510	0	1176.90	0	3.1173	0	34.4433	0	27.438	0	1163.783	0	56.9	4	17.6	4	-1E+10	1	0.0583	4	0.000118	0	-1E+10	1	-1E+10	1	-1E+10	1
4902624	10	C	09/29/2024	05:33	-128.459	47.510	0	1193.10	0	3.0812	0	34.4476	0	27.444	0	1179.757	0	60.4	4	18.7	4	-1E+10	1	0.0512	4	0.000141	0	-1E+10	1	-1E+10	1	-1E+10	1
4902624	10	C	09/29/2024	05:33	-128.459	47.510	0	1210.00	0	3.0435	0	34.4521	0	27.452	0	1196.420	0	69.0	4	21.3	4	-1E+10	1	0.0584	4	0.000118	0	-1E+10	1	-1E+10	1	-1E+10	1
4902624	10	C	09/29/2024	05:33	-128.459	47.510	0	1224.60	0	3.0110	0	34.4560	0	27.458	0	1210.814	0	-1e10	1	-1e10	1	-1E+10	1	-1e10	1	-1e10	1	-1E+10	1	-1E+10	1	-1E+10	1
4902624	10	C	09/29/2024	05:33	-128.459	47.510	0	1227.30	0	3.0054	0	34.4565	0	27.459	0	1213.476	0	74.4	4	23.0	4	-1E+10	1	0.0584	4	0.000129	0	-1E+10	1	-1E+10	1	-1E+10	1
4902624	10	C	09/29/2024	05:33	-128.459	47.510	0	1245.40	0	2.9682	0	34.4602	0	27.465	0	1231.319	0	69.2	4	21.3	4	-1E+10	1	0.0582	4	0.000140	0	-1E+10	1	-1E+10	1	-1E+10	1
4902624	10	C	09/29/2024	05:33	-128.459	47.510	0	1264.20	0	2.9296	0	34.4639	0	27.471	0	1249.850	0	68.9	4	21.2	4	-1E+10	1	0.0514	4	0.000140	0	-1E+10	1	-1E+10	1	-1E+10	1
4902624	10	C	09/29/2024	05:33	-128.459	47.510	0	1274.70	0	2.9080	0	34.4660	0	27.475	0	1260.200	0	-1e10	1	-1e10	1	-1E+10	1	-1e10	1	-1e10	1	-1E+10	1	-1E+10	1	-1E+10	1
4902624	10	C	09/29/2024	05:33	-128.459	47.510	0	1284.10	0	2.8923	0	34.4681	0	27.478	0	1269.465	0	71.4	4	22.0	4	-1E+10	1	0.0654	4	0.000117	0	-1E+10	1	-1E+10	1	-1E+10	1
4902624	10	C	09/29/2024	05:33	-128.459	47.510	0	1305.40	0	2.8566	0	34.4728	0	27.485	0	1290.457	0	69.0	4	21.2	4	-1E+10	1	0.0511	4	0.000128	0	-1E+10	1	-1E+10	1	-1E+10	1
4902624	10	C	09/29/2024	05:33	-128.459	47.510	0	1324.30	0	2.8250	0	34.4770	0	27.492	0	1309.082	0	-1e10	1	-1e10	1	-1E+10	1	-1e10	1	-1e10	1	-1E+10	1	-1E+10	1	-1E+10	1
4902624	10	C	09/29/2024	05:33	-128.459	47.510	0	1328.00	0	2.8190	0	34.4778	0	27.493	0	1312.727	0	70.4	4	21.6	4	-1E+10	1	0.0510	4	0.000127	0	-1E+10	1	-1E+10	1	-1E+10	1
4902624	10	C	09/29/2024	05:33	-128.459	47.510	0	1351.60	0	2.7808	0	34.4829	0	27.500	0	1335.981	0	72.4	4	22.2	4	-1E+10	1	0.0440	4	0.000116	0	-1E+10	1	-1E+10	1	-1E+10	1
4902624	10	C	09/29/2024	05:33	-128.459	47.510	0	1371.90	0	2.7480	0	34.4872	0	27.507	0	1355.982	0	74.5	4	22.9	4	-1E+10	1	0.0516	4	0.000150	0	-1E+10	1	-1E+10	1	-1E+10	1
4902624	10	C	09/29/2024	05:33	-128.459	47.510	0	1375.60	0	2.7420	0	34.4880	0	27.508	0	1359.627	0	-1e10	1	-1e10	1	-1E+10	1	-1e10	1	-1e10	1	-1E+10	1	-1E+10	1	-1E+10	1
4902624	10	C	09/29/2024	05:33	-128.459	47.510	0	1388.50	0	2.7216	0	34.4906	0	27.512	0	1372.335	0	74.8	4	23.0	4	-1E+10	1	0.0725	4	0.000138	0	-1E+10	1	-1E+10	1	-1E+10	1
4902624	10	C	09/29/2024	05:33	-128.459	47.510	0	1406.30	0	2.6934	0	34.4942	0	27.517	0	1389.869	0	76.0	4	23.3	4	-1E+10	1	0.0440	4	0.000138	0	-1E+10	1	-1E+10	1	-1E+10	1
4902624	10	C	09/29/2024	05:33	-128.459	47.510	0	1424.80	0	2.6642	0	34.4980	0	27.523	0	1408.091	0	79.1	4	24.2	4	-1E+10	1	0.0513	4	0.000137	0	-1E+10	1	-1E+10	1	-1E+10	1
4902624	10	C	09/29/2024	05:33	-128.459	47.510	0	1424.90	0	2.6640	0	34.4980	0	27.523	0	1408.190	0	-1e10	1	-1e10	1	-1E+10	1	-1e10	1	-1e10	1	-1E+10	1	-1E+10	1	-1E+10	1
4902624	10	C	09/29/2024	05:33	-128.459	47.510	0	1443.30	0	2.6352	0	34.5017	0	27.528	0	1426.312	0	87.8	4	26.9	4	-1E+10	1	0.0585	4	0.000103	0	-1E+10	1	-1E+10	1	-1E+10	1
4902624	10	C	09/29/2024	05:33	-128.459	47.510	0	1462.30	0	2.6055	0	34.5055	0	27.534	0	1445.023	0	95.1	4	29.1	4	-1E+10	1	0.0656	4	0.000114	0	-1E+10	1	-1E+10	1	-1E+10	1
4902624	10	C	09/29/2024	05:33	-128.459	47.510	0	1474.80	0	2.5860	0	34.5080	0	27.538	0	1457.332	0	-1e10	1	-1e10	1	-1E+10	1	-1e10	1	-1e10	1	-1E+10	1	-1E+10	1	-1E+10	1
4902624	10	C	09/29/2024	05:33	-128.459	47.510	0	1482.10	0	2.5746	0	34.5093	0	27.540	0	1464.521	0	92.2	4	28.2	4	-1E+10	1	0.0585	4	0.000125	0	-1E+10	1	-1E+10	1	-1E+10	1
4902624	10	C	09/29/2024	05:33	-128.459	47.510	0	1501.90	0	2.5437	0	34.5129	0	27.545	0	1484.016	0	101.1	4	30.9	4	-1E+10	1	0.0657	4	0.000113	0	-1E+10	1	-1E+10	1	-1E+10	1
4902624	10	C	09/29/2024	05:33	-128.459	47.510	0	1522.00	0	2.5124	0	34.5165	0	27.551	0	1503.806	0	95.2	4	29.1	4	-1E+10	1	0.0656	4	0.000114	0	-1E+10	1	-1E+10	1	-1E+10	1
4902624	10	C	09/29/2024	05:33	-128.459	47.510	0	1524.80	0	2.5080	0	34.5170	0	27.552	0	1506.562	0	-1e10	1	-1e10	1	-1E+10	1	-1e10	1	-1e10	1	-1E+10	1	-1E+10	1	-1E+10	1
4902624	10	C	09/29/2024	05:33	-128.459	47.510	0	1542.40	0	2.4798	0	34.5208	0	27.557	0	1523.888	0	99.7	4	30.4	4	-1E+10	1	0.0583	4	0.000158	0	-1E+10	1	-1E+10	1	-1E+10	1
4902624	10	C	09/29/2024	05:33	-128.459	47.510	0	1563.00	0	2.4467	0	34.5253	0	27.564	0	1544.166	0	104.1	4	31.7	4	-1E+10	1	0.0515	4	0.000090	0	-1E+10	1	-1E+10	1	-1E+10	1
4902624	10	C	09/29/2024	05:33	-128.459	47.510	0	1575.30	0	2.4270	0	34.5280	0	27.568	0	1556.272	0	-1e10	1	-1e10	1	-1E+10	1	-1e10	1	-1e10	1	-1E+10	1	-1E+10	1	-1E+10	1
4902624	10	C	09/29/2024	05:33	-128.459	47.510	0	1584.10	0	2.4129	0	34.5298	0	27.570	0	1564.934	0	103.2	4	31.4	4	-1E+10	1	0.0727	4	0.000147	0	-1E+10	1	-1E+10	1	-1E+10	1
4902624	10	C	09/29/2024	05:33	-128.459	47.510	0	1605.20	0	2.3791	0	34.5340	0	27.577	0	1585.699	0	108.5	4	33.0	4	-1E+10	1	0.0582	4	0.000147	0	-1E+10	1	-1E+10	1	-1E+10	1
4902624	10	C	09/29/2024	05:33	-128.459	47.510	0	1625.20	0	2.3470	0	34.5380	0	27.583	0	1605.381	0	-1e10	1	-1e10	1	-1E+10	1	-1e10	1	-1e10	1	-1E+10	1	-1E+10	1	-1E+10	1
4902624	10	C	09/29/2024	05:33	-128.459	47.510	0	1626.50	0	2.3452	0	34.5382	0	27.583	0	1606.660	0	99.3	4	30.2	4	-1E+10	1	0.0508	4	0.000134	0	-1E+10	1	-1E+10	1	-1E+10	1
4902624	10	C	09/29/2024	05:33	-128.459	47.510	0	1648.30	0	2.3156	0	34.5422	0	27.589	0	1628.110	0	106.2	4	32.3	4	-1E+10	1	0.0367	4	0.000112	0	-1E+10	1	-1E+10	1	-1E+10	1
4902624	10	C	09/29/2024	05:33	-128.459	47.510	0	1670.60	0	2.2853	0	34.5462	0	27.594	0	1650.050	0	111.4	4	33.8	4	-1E+10	1	0.0438	4	0.000145	0	-1E+10	1	-1E+10	1	-1E+10	1
4902624	10	C	09/29/2024	05:33	-128.459	47.510	0	1675.20	0	2.2790	0	34.5470	0	27.596	0	1654.576	0	-1e10	1	-1e10	1	-1E+10	1	-1e10	1	-1e10	1	-1E+10	1	-1E+10	1	-1E+10	1
4902624	10	C	09/29/2024	05:33	-128.459	47.510	0	1691.40	0	2.2545	0	34.5503	0	27.600	0	1670.512	0	116.7	4	35.4	4	-1E+10	1	0.0440	4	0.000099	0	-1E+10	1	-1E+10	1	-1E+10	1
4902624	10	C	09/29/2024	05:33	-128.459	47.510	0	1707.60	0	2.2299	0	34.5535	0	27.605	0	1686.448	0	121.7	4	36.9	4	-1E+10	1	0.0511	4	0.000099	0	-1E+10	1	-1E+10	1	-1E+10	1
4902624	10	C	09/29/2024	05:33	-128.459	47.510	0	1724.50	0	2.2043	0	34.5570	0	27.610	0	1703.071	0	124.9	4	37.8	4	-1E+10	1	0.0509	4	0.000145	0	-1E+10	1	-1E+10	1	-1E+10	1
4902624	10	C	09/29/2024	05:33	-128.459	47.510	0	1724.70	0	2.2040	0	34.5570	0	27.610	0	1703.268	0	-1e10	1	-1e10	1	-1E+10	1	-1e10	1	-1e10	1	-1E+10	1	-1E+10	1	-1E+10	1
4902624	10	C	09/29/2024	05:33	-128.459	47.510	0	1742.40	0	2.1835	0	34.5598	0	27.614	0	1720.676	0	127.8	4	38.7	4	-1E+10	1	0.0367	4	0.000134	0	-1E+10	1	-1E+10	1	-1E+10	1
4902624	10	C	09/29/2024	05:33	-128.459	47.510	0	1761.20	0	2.1618	0	34.5628	0	27.618	0	1739.164	0	130.2	4	39.4	4	-1E+10	1	0.0439	4	0.000167	0	-1E+10	1	-1E+10	1	-1E+10	1
4902624	10	C	09/29/2024	05:33	-128.459	47.510	0	1774.90	0	2.1460	0	34.5650	0	27.621	0	1752.637	0	-1e10	1	-1e10	1	-1E+10	1	-1e10	1	-1e10	1	-1E+10	1	-1E+10	1	-1E+10	1
4902624	10	C	09/29/2024	05:33	-128.459	47.510	0	1781.20	0	2.1395	0	34.5660	0	27.622	0	1758.831	0	133.2	4	40.3	4	-1E+10	1	0.0508	4	0.000109	0	-1E+10	1	-1E+10	1	-1E+10	1
4902624	10	C	09/29/2024	05:33	-128.459	47.510	0	1802.30	0	2.1177	0	34.5694	0	27.627	0	1779.578	0	136.9	4	41.4	4	-1E+10	1	0.0362	4	0.000108	0	-1E+10	1	-1E+10	1	-1E+10	1
4902624	10	C	09/29/2024	05:33	-128.459	47.510	0	1824.50	0	2.0947	0	34.5729	0	27.632	0	1801.404	0	141.0	4	42.6	4	-1E+10	1	0.0227	4	0.000108	0	-1E+10	1	-1E+10	1	-1E+10	1
4902624	10	C	09/29/2024	05:33	-128.459	47.510	0	1825.20	0	2.0940	0	34.5730	0	27.632	0	1802.092	0	-1e10	1	-1e10	1	-1E+10	1	-1e10	1	-1e10	1	-1E+10	1	-1E+10	1	-1E+10	1
4902624	10	C	09/29/2024	05:33	-128.459	47.510	0	1847.20	0	2.0734	0	34.5765	0	27.636	0	1823.720	0	143.5	4	43.3	4	-1E+10	1	0.0585	4	0.000096	0	-1E+10	1	-1E+10	1	-1E+10	1
4902624	10	C	09/29/2024	05:33	-128.459	47.510	0	1868.40	0	2.0536	0	34.5799	0	27.641	0	1844.558	0	144.8	4	43.7	4	-1E+10	1	0.0656	4	0.000119	0	-1E+10	1	-1E+10	1	-1E+10	1
4902624	10	C	09/29/2024	05:33	-128.459	47.510	0	1875.50	0	2.0470	0	34.5810	0	27.642	0	1851.537	0	-1e10	1	-1e10	1	-1E+10	1	-1e10	1	-1e10	1	-1E+10	1	-1E+10	1	-1E+10	1
4902624	10	C	09/29/2024	05:33	-128.459	47.510	0	1884.60	0	2.0389	0	34.5823	0	27.644	0	1860.481	0	146.1	4	44.1	4	-1E+10	1	0.0581	4	0.000119	0	-1E+10	1	-1E+10	1	-1E+10	1
4902624	10	C	09/29/2024	05:33	-128.459	47.510	0	1901.80	0	2.0235	0	34.5847	0	27.647	0	1877.385	0	147.4	4	44.5	4	-1E+10	1	0.0440	4	0.000130	0	-1E+10	1	-1E+10	1	-1E+10	1
4902624	10	C	09/29/2024	05:33	-128.459	47.510	0	1919.90	0	2.0074	0	34.5873	0	27.651	0	1895.172	0	148.6	4	44.8	4	-1E+10	1	0.0511	4	0.000107	0	-1E+10	1	-1E+10	1	-1E+10	1
4902624	10	C	09/29/2024	05:33	-128.459	47.510	0	1924.80	0	2.0030	0	34.5880	0	27.652	0	1899.987	0	-1e10	1	-1e10	1	-1E+10	1	-1e10	1	-1e10	1	-1E+10	1	-1E+10	1	-1E+10	1
4902624	10	C	09/29/2024	05:33	-128.459	47.510	0	1938.60	0	1.9931	0	34.5898	0	27.654	0	1913.547	0	148.8	4	44.9	4	-1E+10	1	0.0509	4	0.000119	0	-1E+10	1	-1E+10	1	-1E+10	1
4902624	10	C	09/29/2024	05:33	-128.459	47.510	0	1957.90	0	1.9792	0	34.5924	0	27.657	0	1932.510	0	148.6	4	44.8	4	-1E+10	1	0.0441	4	0.000164	0	-1E+10	1	-1E+10	1	-1E+10	1
4902624	10	C	09/29/2024	05:33	-128.459	47.510	0	1962.40	0	1.9760	0	34.5930	0	27.658	0	1936.931	0	-1e10	1	-1e10	1	-1E+10	1	-1e10	1	-1e10	1	-1E+10	1	-1E+10	1	-1E+10	1
4902624	10	C	09/29/2024	05:33	-128.459	47.510	0	1974.10	0	-1e10	1	-1e10	1	-1e10	1	1948.426	0	151.0	4	-1e10	4	-1E+10	1	0.0584	4	0.000119	0	-1E+10	1	-1E+10	1	-1E+10	1
4902624	10	C	09/29/2024	05:33	-128.459	47.510	0																										
4902624	11	C	10/09/2024	00:37	-128.412	47.482	0	0.20	0	16.0697	0	32.0993	0	23.503	0	0.198	0	231.8	4	93.6	4	-1E+10	1	-1e10	1	-1e10	1	-1E+10	1	-1E+10	1	-1E+10	1
4902624	11	C	10/09/2024	00:37	-128.412	47.482	0	0.30	0	16.0753	0	32.0997	0	23.502	0	0.297	0	231.7	4	93.6	4	-1E+10	1	-1e10	1	-1e10	1	-1E+10	1	-1E+10	1	-1E+10	1
4902624	11	C	10/09/2024	00:37	-128.412	47.482	0	0.40	0	16.0810	0	32.1000	0	23.501	0	0.397	0	-1e10	1	-1e10	1	-1E+10	1	-1e10	1	-1e10	1	-1E+10	1	-1E+10	1	-1E+10	1
4902624	11	C	10/09/2024	00:37	-128.412	47.482	0	0.80	0	16.0817	0	32.1007	0	23.501	0	0.793	0	-1e10	1	-1e10	1	-1E+10	1	0.3650	4	0.001210	0	-1E+10	1	-1E+10	1	-1E+10	1
4902624	11	C	10/09/2024	00:37	-128.412	47.482	0	1.00	0	16.0821	0	32.1011	0	23.501	0	0.992	0	-1e10	1	-1e10	1	-1E+10	1	0.1314	4	0.000952	0	-1E+10	1	-1E+10	1	-1E+10	1
4902624	11	C	10/09/2024	00:37	-128.412	47.482	0	1.30	0	16.0826	0	32.1016	0	23.502	0	1.289	0	-1e10	1	-1e10	1	-1E+10	1	0.3650	4	0.001280	0	-1E+10	1	-1E+10	1	-1E+10	1
4902624	11	C	10/09/2024	00:37	-128.412	47.482	0	1.40	0	16.0828	0	32.1018	0	23.502	0	1.388	0	-1e10	1	-1e10	1	-1E+10	1	0.3212	4	0.001104	0	-1E+10	1	-1E+10	1	-1E+10	1
4902624	11	C	10/09/2024	00:37	-128.412	47.482	0	1.50	0	16.0830	0	32.1020	0	23.502	0	1.487	0	-1e10	1	-1e10	1	-1E+10	1	-1e10	1	-1e10	1	-1E+10	1	-1E+10	1	-1E+10	1
4902624	11	C	10/09/2024	00:37	-128.412	47.482	0	1.60	0	16.0829	0	32.1020	0	23.502	0	1.587	0	231.4	4	93.5	4	-1E+10	1	0.2920	4	0.001081	0	-1E+10	1	-1E+10	1	-1E+10	1
4902624	11	C	10/09/2024	00:37	-128.412	47.482	0	1.80	0	16.0827	0	32.1020	0	23.502	0	1.785	0	-1e10	1	-1e10	1	-1E+10	1	0.3577	4	0.001503	0	-1E+10	1	-1E+10	1	-1E+10	1
4902624	11	C	10/09/2024	00:37	-128.412	47.482	0	2.20	0	16.0824	0	32.1020	0	23.502	0	2.182	0	-1e10	1	-1e10	1	-1E+10	1	0.3577	4	0.001386	0	-1E+10	1	-1E+10	1	-1E+10	1
4902624	11	C	10/09/2024	00:37	-128.412	47.482	0	2.40	0	16.0822	0	32.1020	0	23.502	0	2.380	0	231.3	4	93.4	4	-1E+10	1	0.4234	4	0.001198	0	-1E+10	1	-1E+10	1	-1E+10	1
4902624	11	C	10/09/2024	00:37	-128.412	47.482	0	2.60	0	16.0820	0	32.1020	0	23.502	0	2.578	0	-1e10	1	-1e10	1	-1E+10	1	0.3942	4	0.001210	0	-1E+10	1	-1E+10	1	-1E+10	1
4902624	11	C	10/09/2024	00:37	-128.412	47.482	0	2.80	0	16.0820	0	32.1020	0	23.502	0	2.777	0	-1e10	1	-1e10	1	-1E+10	1	0.3796	4	0.001163	0	-1E+10	1	-1E+10	1	-1E+10	1
4902624	11	C	10/09/2024	00:37	-128.412	47.482	0	3.00	0	16.0820	0	32.1020	0	23.502	0	2.975	0	-1e10	1	-1e10	1	-1E+10	1	0.4015	4	0.001234	0	-1E+10	1	-1E+10	1	-1E+10	1
4902624	11	C	10/09/2024	00:37	-128.412	47.482	0	3.20	0	16.0820	0	32.1020	0	23.502	0	3.173	0	-1e10	1	-1e10	1	-1E+10	1	0.4088	4	0.001198	0	-1E+10	1	-1E+10	1	-1E+10	1
4902624	11	C	10/09/2024	00:37	-128.412	47.482	0	3.40	0	16.0820	0	32.1020	0	23.502	0	3.372	0	231.3	4	93.5	4	-1E+10	1	0.4234	4	0.001245	0	-1E+10	1	-1E+10	1	-1E+10	1
4902624	11	C	10/09/2024	00:37	-128.412	47.482	0	3.50	0	16.0820	0	32.1020	0	23.502	0	3.471	0	-1e10	1	-1e10	1	-1E+10	1	-1e10	1	-1e10	1	-1E+10	1	-1E+10	1	-1E+10	1
4902624	11	C	10/09/2024	00:37	-128.412	47.482	0	3.70	0	16.0802	0	32.1020	0	23.503	0	3.669	0	-1e10	1	-1e10	1	-1E+10	1	0.4015	4	0.001363	0	-1E+10	1	-1E+10	1	-1E+10	1
4902624	11	C	10/09/2024	00:37	-128.412	47.482	0	4.10	0	16.0767	0	32.1020	0	23.503	0	4.066	0	-1e10	1	-1e10	1	-1E+10	1	0.4088	4	0.001222	0	-1E+10	1	-1E+10	1	-1E+10	1
4902624	11	C	10/09/2024	00:37	-128.412	47.482	0	4.30	0	16.0749	0	32.1020	0	23.504	0	4.264	0	-1e10	1	-1e10	1	-1E+10	1	0.4015	4	0.001175	0	-1E+10	1	-1E+10	1	-1E+10	1
4902624	11	C	10/09/2024	00:37	-128.412	47.482	0	4.40	0	16.0740	0	32.1020	0	23.504	0	4.363	0	-1e10	1	-1e10	1	-1E+10	1	-1e10	1	-1e10	1	-1E+10	1	-1E+10	1	-1E+10	1
4902624	11	C	10/09/2024	00:37	-128.412	47.482	0	4.60	0	16.0740	0	32.1020	0	23.504	0	4.562	0	231.4	4	93.5	4	-1E+10	1	0.4161	4	0.001257	0	-1E+10	1	-1E+10	1	-1E+10	1
4902624	11	C	10/09/2024	00:37	-128.412	47.482	0	4.70	0	16.0740	0	32.1020	0	23.504	0	4.661	0	-1e10	1	-1e10	1	-1E+10	1	0.4161	4	0.001234	0	-1E+10	1	-1E+10	1	-1E+10	1
4902624	11	C	10/09/2024	00:37	-128.412	47.482	0	5.00	0	16.0740	0	32.1020	0	23.504	0	4.958	0	-1e10	1	-1e10	1	-1E+10	1	0.4015	4	0.001527	0	-1E+10	1	-1E+10	1	-1E+10	1
4902624	11	C	10/09/2024	00:37	-128.412	47.482	0	5.20	0	16.0740	0	32.1020	0	23.504	0	5.157	0	-1e10	1	-1e10	1	-1E+10	1	0.4088	4	0.001245	0	-1E+10	1	-1E+10	1	-1E+10	1
4902624	11	C	10/09/2024	00:37	-128.412	47.482	0	5.50	0	16.0740	0	32.1020	0	23.504	0	5.454	0	231.4	4	93.5	4	-1E+10	1	0.4015	4	0.001128	0	-1E+10	1	-1E+10	1	-1E+10	1
4902624	11	C	10/09/2024	00:37	-128.412	47.482	0	5.90	0	16.0572	0	32.1036	0	23.509	0	5.851	0	231.4	4	93.4	4	-1E+10	1	0.4234	4	0.001175	0	-1E+10	1	-1E+10	1	-1E+10	1
4902624	11	C	10/09/2024	00:37	-128.412	47.482	0	6.20	0	16.0446	0	32.1048	0	23.513	0	6.148	0	-1e10	1	-1e10	1	-1E+10	1	0.4234	4	0.001257	0	-1E+10	1	-1E+10	1	-1E+10	1
4902624	11	C	10/09/2024	00:37	-128.412	47.482	0	6.40	0	16.0362	0	32.1056	0	23.515	0	6.346	0	-1e10	1	-1e10	1	-1E+10	1	0.4234	4	0.001363	0	-1E+10	1	-1E+10	1	-1E+10	1
4902624	11	C	10/09/2024	00:37	-128.412	47.482	0	6.50	0	16.0320	0	32.1060	0	23.517	0	6.446	0	-1e10	1	-1e10	1	-1E+10	1	-1e10	1	-1e10	1	-1E+10	1	-1E+10	1	-1E+10	1
4902624	11	C	10/09/2024	00:37	-128.412	47.482	0	6.70	0	16.0286	0	32.1050	0	23.517	0	6.644	0	-1e10	1	-1e10	1	-1E+10	1	0.4088	4	0.001386	0	-1E+10	1	-1E+10	1	-1E+10	1
4902624	11	C	10/09/2024	00:37	-128.412	47.482	0	6.90	0	16.0252	0	32.1040	0	23.517	0	6.842	0	231.4	4	93.4	4	-1E+10	1	0.4015	4	0.001269	0	-1E+10	1	-1E+10	1	-1E+10	1
4902624	11	C	10/09/2024	00:37	-128.412	47.482	0	7.10	0	16.0218	0	32.1030	0	23.517	0	7.041	0	-1e10	1	-1e10	1	-1E+10	1	0.4234	4	0.001351	0	-1E+10	1	-1E+10	1	-1E+10	1
4902624	11	C	10/09/2024	00:37	-128.412	47.482	0	7.40	0	16.0167	0	32.1015	0	23.517	0	7.338	0	-1e10	1	-1e10	1	-1E+10	1	0.4161	4	0.001292	0	-1E+10	1	-1E+10	1	-1E+10	1
4902624	11	C	10/09/2024	00:37	-128.412	47.482	0	7.50	0	16.0150	0	32.1010	0	23.517	0	7.437	0	-1e10	1	-1e10	1	-1E+10	1	-1e10	1	-1e10	1	-1E+10	1	-1E+10	1	-1E+10	1
4902624	11	C	10/09/2024	00:37	-128.412	47.482	0	7.60	0	16.0134	0	32.1010	0	23.517	0	7.536	0	-1e10	1	-1e10	1	-1E+10	1	0.4307	4	0.001210	0	-1E+10	1	-1E+10	1	-1E+10	1
4902624	11	C	10/09/2024	00:37	-128.412	47.482	0	8.10	0	16.0057	0	32.1010	0	23.519	0	8.032	0	231.5	4	93.4	4	-1E+10	1	0.4088	4	0.001316	0	-1E+10	1	-1E+10	1	-1E+10	1
4902624	11	C	10/09/2024	00:37	-128.412	47.482	0	8.30	0	16.0026	0	32.1010	0	23.519	0	8.231	0	-1e10	1	-1e10	1	-1E+10	1	0.4234	4	0.001327	0	-1E+10	1	-1E+10	1	-1E+10	1
4902624	11	C	10/09/2024	00:37	-128.412	47.482	0	8.40	0	16.0010	0	32.1010	0	23.520	0	8.330	0	-1e10	1	-1e10	1	-1E+10	1	-1e10	1	-1e10	1	-1E+10	1	-1E+10	1	-1E+10	1
4902624	11	C	10/09/2024	00:37	-128.412	47.482	0	8.60	0	15.9997	0	32.1010	0	23.520	0	8.528	0	-1e10	1	-1e10	1	-1E+10	1	0.4015	4	0.001233	0	-1E+10	1	-1E+10	1	-1E+10	1
4902624	11	C	10/09/2024	00:37	-128.412	47.482	0	8.80	0	15.9985	0	32.1010	0	23.520	0	8.726	0	-1e10	1	-1e10	1	-1E+10	1	0.4234	4	0.001304	0	-1E+10	1	-1E+10	1	-1E+10	1
4902624	11	C	10/09/2024	00:37	-128.412	47.482	0	9.00	0	15.9972	0	32.1010	0	23.521	0	8.925	0	-1e10	1	-1e10	1	-1E+10	1	0.4088	4	0.001257	0	-1E+10	1	-1E+10	1	-1E+10	1
4902624	11	C	10/09/2024	00:37	-128.412	47.482	0	9.30	0	15.9953	0	32.1010	0	23.521	0	9.222	0	231.4	4	93.3	4	-1E+10	1	0.4161	4	0.001245	0	-1E+10	1	-1E+10	1	-1E+10	1
4902624	11	C	10/09/2024	00:37	-128.412	47.482	0	9.50	0	15.9940	0	32.1010	0	23.521	0	9.421	0	-1e10	1	-1e10	1	-1E+10	1	0.4307	4	0.001363	0	-1E+10	1	-1E+10	1	-1E+10	1
4902624	11	C	10/09/2024	00:37	-128.412	47.482	0	10.50	0	15.9887	0	32.1010	0	23.523	0	10.412	0	231.4	4	93.3	4	-1E+10	1	0.4244	4	0.001250	0	-1E+10	1	-1E+10	1	-1E+10	1
4902624	11	C	10/09/2024	00:37	-128.412	47.482	0	11.00	0	15.9860	0	32.1010	0	23.523	0	10.908	0	-1e10	1	-1e10	1	-1E+10	1	-1e10	1	-1e10	1	-1E+10	1	-1E+10	1	-1E+10	1
4902624	11	C	10/09/2024	00:37	-128.412	47.482	0	11.60	0	15.9839	0	32.1010	0	23.524	0	11.503	0	231.4	4	93.3	4	-1E+10	1	0.4307	4	0.001325	0	-1E+10	1	-1E+10	1	-1E+10	1
4902624	11	C	10/09/2024	00:37	-128.412	47.482	0	12.80	0	15.9797	0	32.1010	0	23.525	0	12.693	0	231.4	4	93.3	4	-1E+10	1	0.4435	4	0.001328	0	-1E+10	1	-1E+10	1	-1E+10	1
4902624	11	C	10/09/2024	00:37	-128.412	47.482	0	13.00	0	15.9790	0	32.1010	0	23.525	0	12.891	0	-1e10	1	-1e10	1	-1E+10	1	-1e10	1	-1e10	1	-1E+10	1	-1E+10	1	-1E+10	1
4902624	11	C	10/09/2024	00:37	-128.412	47.482	0	14.00	0	15.9770	0	32.1015	0	23.526	0	13.883	0	231.4	4	93.3	4	-1E+10	1	0.4599	4	0.001251	0	-1E+10	1	-1E+10	1	-1E+10	1
4902624	11	C	10/09/2024	00:37	-128.412	47.482	0	15.00	0	15.9750	0	32.1020	0	23.527	0	14.874	0	-1e10	1	-1e10	1	-1E+10	1	-1e10	1	-1e10	1	-1E+10	1	-1E+10	1	-1E+10	1
4902624	11	C	10/09/2024	00:37	-128.412	47.482	0	15.20	0	15.9742	0	32.1021	0	23.527	0	15.073	0	231.3	4	93.3	4	-1E+10	1	0.4698	4	0.001223	0	-1E+10	1	-1E+10	1	-1E+10	1
4902624	11	C	10/09/2024	00:37	-128.412	47.482	0	16.40	0	15.9694	0	32.1027	0	23.528	0	16.263	0	231.3	4	93.2	4	-1E+10	1	0.4818	4	0.001274	0	-1E+10	1	-1E+10	1	-1E+10	1
4902624	11	C	10/09/2024	00:37	-128.412	47.482	0	17.00	0	15.9670	0	32.1030	0	23.529	0	16.857	0	-1e10	1	-1e10	1	-1E+10	1	-1e10	1	-1e10	1	-1E+10	1	-1E+10	1	-1E+10	1
4902624	11	C	10/09/2024	00:37	-128.412	47.482	0	17.50	0	15.9662	0	32.1043	0	23.530	0	17.353	0	231.4	4	93.3	4	-1E+10	1	0.5100	4	0.001279	0	-1E+10	1	-1E+10	1	-1E+10	1
4902624	11	C	10/09/2024	00:37	-128.412	47.482	0	18.70	0	15.9644	0	32.1073	0	23.533	0	18.543	0	231.5	4	93.3	4	-1E+10	1	0.5475	4	0.001198	0	-1E+10	1	-1E+10	1	-1E+10	1
4902624	11	C	10/09/2024	00:37	-128.412	47.482	0	19.00	0	15.9640	0	32.1080	0	23.534	0	18.841	0	-1e10	1	-1e10	1	-1E+10	1	-1e10	1	-1e10	1	-1E+10	1	-1E+10	1	-1E+10	1
4902624	11	C	10/09/2024	00:37	-128.412	47.482	0	19.90	0	15.9618	0	32.1116	0	23.537	0	19.733	0	231.5	4	93.3	4	-1E+10	1	0.5650	4	0.001367	0	-1E+10	1	-1E+10	1	-1E+10	1
4902624	11	C	10/09/2024	00:37	-128.412	47.482	0	21.00	0	15.9590	0	32.1160	0	23.541	0	20.824	0	-1e10	1	-1e10	1	-1E+10	1	-1e10	1	-1e10	1	-1E+10	1	-1E+10	1	-1E+10	1
4902624	11	C	10/09/2024	00:37	-128.412	47.482	0	21.10	0	15.9587	0	32.1165	0	23.542	0	20.923	0	231.7	4	93.4	4	-1E+10	1	0.5803	4	0.001295	0	-1E+10	1	-1E+10	1	-1E+10	1
4902624	11	C	10/09/2024	00:37	-128.412	47.482	0	22.40	0	15.9555	0	32.1223	0	23.547	0	22.212	0	231.7	4	93.4	4	-1E+10	1	0.6414	4	0.001265	0	-1E+10	1	-1E+10	1	-1E+10	1
4902624	11	C	10/09/2024	00:37	-128.412	47.482	0	23.00	0	15.9540	0	32.1250	0	23.549	0	22.807	0	-1e10	1	-1e10	1	-1E+10	1	-1e10	1	-1e10	1	-1E+10	1	-1E+10	1	-1E+10	1
4902624	11	C	10/09/2024	00:37	-128.412	47.482	0	23.60	0	15.9483	0	32.1301	0	23.554	0	23.402	0	231.8	4	93.4	4	-1E+10	1	0.6877	4	0.001244	0	-1E+10	1	-1E+10	1	-1E+10	1
4902624	11	C	10/09/2024	00:37	-128.412	47.482	0	24.80	0	15.9369	0	32.1402	0	23.565	0	24.592	0	232.0	4	93.5	4	-1E+10	1	0.7172	4	0.001231	0	-1E+10	1	-1E+10	1	-1E+10	1
4902624	11	C	10/09/2024	00:37	-128.412	47.482	0	24.90	0	15.9360	0	32.1410	0	23.566	0	24.691	0	-1e10	1	-1e10	1	-1E+10	1	-1e10	1	-1e10	1	-1E+10	1	-1E+10	1	-1E+10	1
4902624	11	C	10/09/2024	00:37	-128.412	47.482	0	26.00	0	15.9261	0	32.1476	0	23.573	0	25.781	0	232.1	4	93.5	4	-1E+10	1	0.7349	4	0.001241	0	-1E+10	1	-1E+10	1	-1E+10	1
4902624	11	C	10/09/2024	00:37	-128.412	47.482	0	26.90	0	15.9180	0	32.1530	0	23.579	0	26.674	0	-1e10	1	-1e10	1	-1E+10	1	-1e10	1	-1e10	1	-1E+10	1	-1E+10	1	-1E+10	1
4902624	11	C	10/09/2024	00:37	-128.412	47.482	0	27.30	0	15.9158	0	32.1560	0	23.582	0	27.070	0	232.3	4	93.6	4	-1E+10	1	0.7480	4	0.001258	0	-1E+10	1	-1E+10	1	-1E+10	1
4902624	11	C	10/09/2024	00:37	-128.412	47.482	0	28.50	0	15.9092	0	32.1650	0	23.590	0	28.260	0	232.3	4	93.6	4	-1E+10	1	0.7665	4	0.001331	0	-1E+10	1	-1E+10	1	-1E+10	1
4902624	11	C	10/09/2024	00:37	-128.412	47.482	0	28.90	0	15.9070	0	32.1680	0	23.593	0	28.657	0	-1e10	1	-1e10	1	-1E+10	1	-1e10	1	-1e10	1	-1E+10	1	-1E+10	1	-1E+10	1
4902624	11	C	10/09/2024	00:37	-128.412	47.482	0	29.80	0	15.9011	0	32.1761	0	23.600	0	29.549	0	232.4	4	93.6	4	-1E+10	1	0.8030	4	0.001322	0	-1E+10	1	-1E+10	1	-1E+10	1
4902624	11	C	10/09/2024	00:37	-128.412	47.482	0	30.90	0	15.8940	0	32.1860	0	23.610	0	30.640	0	-1e10	1	-1e10	1	-1E+10	1	-1e10	1	-1e10	1	-1E+10	1	-1E+10	1	-1E+10	1
4902624	11	C	10/09/2024	00:37	-128.412	47.482	0	31.00	0	15.8939	0	32.1863	0	23.610	0	30.739	0	232.4	4	93.6	4	-1E+10	1	0.8030	4	0.001444	0	-1E+10	1	-1E+10	1	-1E+10	1
4902624	11	C	10/09/2024	00:37	-128.412	47.482	0	32.30	0	15.8926	0	32.1895	0	23.613	0	32.028	0	232.6	4	93.7	4	-1E+10	1	0.7967	4	0.001322	0	-1E+10	1	-1E+10	1	-1E+10	1
4902624	11	C	10/09/2024	00:37	-128.412	47.482	0	32.90	0	15.8920	0	32.1910	0	23.614	0	32.623	0	-1e10	1	-1e10	1	-1E+10	1	-1e10	1	-1e10	1	-1E+10	1	-1E+10	1	-1E+10	1
4902624	11	C	10/09/2024	00:37	-128.412	47.482	0	33.60	0	15.8937	0	32.1953	0	23.617	0	33.317	0	232.7	4	93.7	4	-1E+10	1	0.7833	4	0.001462	0	-1E+10	1	-1E+10	1	-1E+10	1
4902624	11	C	10/09/2024	00:37	-128.412	47.482	0	34.80	0	15.8965	0	32.2028	0	23.622	0	34.507	0	232.7	4	93.8	4	-1E+10	1	0.7993	4	0.001367	0	-1E+10	1	-1E+10	1	-1E+10	1
4902624	11	C	10/09/2024	00:37	-128.412	47.482	0	35.00	0	15.8970	0	32.2040	0	23.623	0	34.705	0	-1e10	1	-1e10	1	-1E+10	1	-1e10	1	-1e10	1	-1E+10	1	-1E+10	1	-1E+10	1
4902624	11	C	10/09/2024	00:37	-128.412	47.482	0	36.10	0	15.8987	0	32.2100	0	23.627	0	35.796	0	233.0	4	93.9	4	-1E+10	1	0.8137	4	0.001314	0	-1E+10	1	-1E+10	1	-1E+10	1
4902624	11	C	10/09/2024	00:37	-128.412	47.482	0	37.00	0	15.9000	0	32.2150	0	23.631	0	36.688	0	-1e10	1	-1e10	1	-1E+10	1	-1e10	1	-1e10	1	-1E+10	1	-1E+10	1	-1E+10	1
4902624	11	C	10/09/2024	00:37	-128.412	47.482	0	37.40	0	15.8998	0	32.2156	0	23.631	0	37.085	0	233.3	4	94.0	4	-1E+10	1	0.8115	4	0.001417	0	-1E+10	1	-1E+10	1	-1E+10	1
4902624	11	C	10/09/2024	00:37	-128.412	47.482	0	38.60	0	15.8992	0	32.2174	0	23.633	0	38.274	0	233.6	4	94.1	4	-1E+10	1	0.8030	4	0.001443	0	-1E+10	1	-1E+10	1	-1E+10	1
4902624	11	C	10/09/2024	00:37	-128.412	47.482	0	39.00	0	15.8990	0	32.2180	0	23.633	0	38.671	0	-1e10	1	-1e10	1	-1E+10	1	-1e10	1	-1e10	1	-1E+10	1	-1E+10	1	-1E+10	1
4902624	11	C	10/09/2024	00:37	-128.412	47.482	0	39.70	0	15.8913	0	32.2187	0	23.636	0	39.365	0	234.0	4	94.3	4	-1E+10	1	0.8074	4	0.001306	0	-1E+10	1	-1E+10	1	-1E+10	1
4902624	11	C	10/09/2024	00:37	-128.412	47.482	0	40.50	0	15.8824	0	32.2196	0	23.638	0	40.158	0	234.4	4	94.4	4	-1E+10	1	0.8249	4	0.001362	0	-1E+10	1	-1E+10	1	-1E+10	1
4902624	11	C	10/09/2024	00:37	-128.412	47.482	0	40.90	0	15.8780	0	32.2200	0	23.640	0	40.555	0	-1e10	1	-1e10	1	-1E+10	1	-1e10	1	-1e10	1	-1E+10	1	-1E+10	1	-1E+10	1
4902624	11	C	10/09/2024	00:37	-128.412	47.482	0	41.30	0	15.8670	0	32.2184	0	23.641	0	40.951	0	235.1	4	94.7	4	-1E+10	1	0.8395	4	0.001304	0	-1E+10	1	-1E+10	1	-1E+10	1
4902624	11	C	10/09/2024	00:37	-128.412	47.482	0	42.00	0	15.8477	0	32.2156	0	23.643	0	41.645	0	235.8	4	94.9	4	-1E+10	1	0.8565	4	0.001276	0	-1E+10	1	-1E+10	1	-1E+10	1
4902624	11	C	10/09/2024	00:37	-128.412	47.482	0	42.80	0	15.8258	0	32.2124	0	23.646	0	42.438	0	236.7	4	95.2	4	-1E+10	1	0.8760	4	0.001323	0	-1E+10	1	-1E+10	1	-1E+10	1
4902624	11	C	10/09/2024	00:37	-128.412	47.482	0	42.90	0	15.8230	0	32.2120	0	23.646	0	42.538	0	-1e10	1	-1e10	1	-1E+10	1	-1e10	1	-1e10	1	-1E+10	1	-1E+10	1	-1E+10	1
4902624	11	C	10/09/2024	00:37	-128.412	47.482	0	43.50	0	15.8027	0	32.2109	0	23.650	0	43.132	0	237.9	4	95.7	4	-1E+10	1	0.8638	4	0.001319	0	-1E+10	1	-1E+10	1	-1E+10	1
4902624	11	C	10/09/2024	00:37	-128.412	47.482	0	44.20	0	15.7790	0	32.2095	0	23.654	0	43.826	0	238.9	4	96.0	4	-1E+10	1	0.8495	4	0.001238	0	-1E+10	1	-1E+10	1	-1E+10	1
4902624	11	C	10/09/2024	00:37	-128.412	47.482	0	44.80	0	15.7588	0	32.2084	0	23.657	0	44.421	0	240.1	4	96.5	4	-1E+10	1	0.8988	4	0.001282	0	-1E+10	1	-1E+10	1	-1E+10	1
4902624	11	C	10/09/2024	00:37	-128.412	47.482	0	45.00	0	15.7520	0	32.2080	0	23.659	0	44.620	0	-1e10	1	-1e10	1	-1E+10	1	-1e10	1	-1e10	1	-1E+10	1	-1E+10	1	-1E+10	1
4902624	11	C	10/09/2024	00:37	-128.412	47.482	0	45.50	0	15.6127	0	32.2090	0	23.690	0	45.115	0	242.1	4	97.0	4	-1E+10	1	1.0092	4	0.001383	0	-1E+10	1	-1E+10	1	-1E+10	1
4902624	11	C	10/09/2024	00:37	-128.412	47.482	0	46.20	0	15.4177	0	32.2103	0	23.734	0	45.809	0	243.9	4	97.4	4	-1E+10	1	1.0868	4	0.001265	0	-1E+10	1	-1E+10	1	-1E+10	1
4902624	11	C	10/09/2024	00:37	-128.412	47.482	0	46.90	0	15.2227	0	32.2116	0	23.777	0	46.503	0	245.3	4	97.6	4	-1E+10	1	1.1315	4	0.001245	0	-1E+10	1	-1E+10	1	-1E+10	1
4902624	11	C	10/09/2024	00:37	-128.412	47.482	0	47.10	0	15.1670	0	32.2120	0	23.790	0	46.702	0	-1e10	1	-1e10	1	-1E+10	1	-1e10	1	-1e10	1	-1E+10	1	-1E+10	1	-1E+10	1
4902624	11	C	10/09/2024	00:37	-128.412	47.482	0	47.60	0	14.8144	0	32.2181	0	23.870	0	47.197	0	248.5	4	98.0	4	-1E+10	1	0.9928	4	0.001374	0	-1E+10	1	-1E+10	1	-1E+10	1
4902624	11	C	10/09/2024	00:37	-128.412	47.482	0	48.10	0	14.4617	0	32.2241	0	23.949	0	47.693	0	251.1	4	98.4	4	-1E+10	1	1.1206	4	0.001276	0	-1E+10	1	-1E+10	1	-1E+10	1
4902624	11	C	10/09/2024	00:37	-128.412	47.482	0	48.50	0	14.1796	0	32.2289	0	24.012	0	48.090	0	251.0	4	97.8	4	-1E+10	1	1.1724	4	0.001151	0	-1E+10	1	-1E+10	1	-1E+10	1
4902624	11	C	10/09/2024	00:37	-128.412	47.482	0	48.90	0	13.8975	0	32.2338	0	24.073	0	48.486	0	252.6	4	97.8	4	-1E+10	1	1.1461	4	0.001110	0	-1E+10	1	-1E+10	1	-1E+10	1
4902624	11	C	10/09/2024	00:37	-128.412	47.482	0	49.00	0	13.8270	0	32.2350	0	24.089	0	48.585	0	-1e10	1	-1e10	1	-1E+10	1	-1e10	1	-1e10	1	-1E+10	1	-1E+10	1	-1E+10	1
4902624	11	C	10/09/2024	00:37	-128.412	47.482	0	49.20	0	13.7257	0	32.2362	0	24.110	0	48.784	0	254.0	4	98.0	4	-1E+10	1	1.1224	4	0.001151	0	-1E+10	1	-1E+10	1	-1E+10	1
4902624	11	C	10/09/2024	00:37	-128.412	47.482	0	49.60	0	13.5232	0	32.2385	0	24.153	0	49.180	0	254.2	4	97.7	4	-1E+10	1	1.1607	4	0.001180	0	-1E+10	1	-1E+10	1	-1E+10	1
4902624	11	C	10/09/2024	00:37	-128.412	47.482	0	50.00	0	13.3207	0	32.2408	0	24.195	0	49.577	0	254.1	4	97.3	4	-1E+10	1	1.1041	4	0.001160	0	-1E+10	1	-1E+10	1	-1E+10	1
4902624	11	C	10/09/2024	00:37	-128.412	47.482	0	50.30	0	13.1688	0	32.2425	0	24.226	0	49.874	0	254.1	4	97.0	4	-1E+10	1	1.1315	4	0.001151	0	-1E+10	1	-1E+10	1	-1E+10	1
4902624	11	C	10/09/2024	00:37	-128.412	47.482	0	50.70	0	12.9663	0	32.2448	0	24.268	0	50.271	0	254.2	4	96.6	4	-1E+10	1	1.0731	4	0.001092	0	-1E+10	1	-1E+10	1	-1E+10	1
4902624	11	C	10/09/2024	00:37	-128.412	47.482	0	50.90	0	12.8650	0	32.2460	0	24.288	0	50.469	0	-1e10	1	-1e10	1	-1E+10	1	-1e10	1	-1e10	1	-1E+10	1	-1E+10	1	-1E+10	1
4902624	11	C	10/09/2024	00:37	-128.412	47.482	0	51.10	0	12.7890	0	32.2491	0	24.306	0	50.667	0	254.0	4	96.2	4	-1E+10	1	1.0439	4	0.001008	0	-1E+10	1	-1E+10	1	-1E+10	1
4902624	11	C	10/09/2024	00:37	-128.412	47.482	0	51.50	0	12.6370	0	32.2553	0	24.340	0	51.064	0	253.4	4	95.7	4	-1E+10	1	0.9672	4	0.000905	0	-1E+10	1	-1E+10	1	-1E+10	1
4902624	11	C	10/09/2024	00:37	-128.412	47.482	0	52.10	0	12.4090	0	32.2646	0	24.390	0	51.659	0	253.5	4	95.3	4	-1E+10	1	0.8278	4	0.000745	0	-1E+10	1	-1E+10	1	-1E+10	1
4902624	11	C	10/09/2024	00:37	-128.412	47.482	0	52.70	0	12.1810	0	32.2739	0	24.441	0	52.254	0	253.6	4	94.9	4	-1E+10	1	0.7665	4	0.000682	0	-1E+10	1	-1E+10	1	-1E+10	1
4902624	11	C	10/09/2024	00:37	-128.412	47.482	0	52.90	0	12.1050	0	32.2770	0	24.457	0	52.452	0	-1e10	1	-1e10	1	-1E+10	1	-1e10	1	-1e10	1	-1E+10	1	-1E+10	1	-1E+10	1
4902624	11	C	10/09/2024	00:37	-128.412	47.482	0	53.40	0	11.9338	0	32.2808	0	24.492	0	52.948	0	253.2	4	94.2	4	-1E+10	1	0.7081	4	0.000725	0	-1E+10	1	-1E+10	1	-1E+10	1
4902624	11	C	10/09/2024	00:37	-128.412	47.482	0	54.10	0	11.6941	0	32.2861	0	24.540	0	53.642	0	252.7	4	93.6	4	-1E+10	1	0.6403	4	0.000734	0	-1E+10	1	-1E+10	1	-1E+10	1
4902624	11	C	10/09/2024	00:37	-128.412	47.482	0	54.70	0	11.4887	0	32.2907	0	24.581	0	54.236	0	251.8	4	92.8	4	-1E+10	1	0.6114	4	0.000641	0	-1E+10	1	-1E+10	1	-1E+10	1
4902624	11	C	10/09/2024	00:37	-128.412	47.482	0	55.00	0	11.3860	0	32.2930	0	24.601	0	54.534	0	-1e10	1	-1e10	1	-1E+10	1	-1e10	1	-1e10	1	-1E+10	1	-1E+10	1	-1E+10	1
4902624	11	C	10/09/2024	00:37	-128.412	47.482	0	55.40	0	11.3446	0	32.2930	0	24.609	0	54.930	0	251.0	4	92.3	4	-1E+10	1	0.5548	4	0.000619	0	-1E+10	1	-1E+10	1	-1E+10	1
4902624	11	C	10/09/2024	00:37	-128.412	47.482	0	56.20	0	11.2618	0	32.2930	0	24.624	0	55.723	0	250.1	4	91.8	4	-1E+10	1	0.4964	4	0.000588	0	-1E+10	1	-1E+10	1	-1E+10	1
4902624	11	C	10/09/2024	00:37	-128.412	47.482	0	56.90	0	11.1894	0	32.2930	0	24.636	0	56.417	0	248.9	4	91.2	4	-1E+10	1	0.5110	4	0.000588	0	-1E+10	1	-1E+10	1	-1E+10	1
4902624	11	C	10/09/2024	00:37	-128.412	47.482	0	57.00	0	11.1790	0	32.2930	0	24.638	0	56.517	0	-1e10	1	-1e10	1	-1E+10	1	-1e10	1	-1e10	1	-1E+10	1	-1E+10	1	-1E+10	1
4902624	11	C	10/09/2024	00:37	-128.412	47.482	0	57.60	0	11.1070	0	32.2948	0	24.652	0	57.111	0	247.7	4	90.6	4	-1E+10	1	0.4656	4	0.000588	0	-1E+10	1	-1E+10	1	-1E+10	1
4902624	11	C	10/09/2024	00:37	-128.412	47.482	0	58.40	0	11.0110	0	32.2972	0	24.671	0	57.904	0	246.5	4	90.0	4	-1E+10	1	0.4331	4	0.000564	0	-1E+10	1	-1E+10	1	-1E+10	1
4902624	11	C	10/09/2024	00:37	-128.412	47.482	0	59.00	0	10.9390	0	32.2990	0	24.685	0	58.499	0	-1e10	1	-1e10	1	-1E+10	1	-1e10	1	-1e10	1	-1E+10	1	-1E+10	1	-1E+10	1
4902624	11	C	10/09/2024	00:37	-128.412	47.482	0	59.20	0	10.8860	0	32.2998	0	24.695	0	58.698	0	245.8	4	89.5	4	-1E+10	1	0.3915	4	0.000538	0	-1E+10	1	-1E+10	1	-1E+10	1
4902624	11	C	10/09/2024	00:37	-128.412	47.482	0	60.00	0	10.6740	0	32.3030	0	24.734	0	59.491	0	245.6	4	89.0	4	-1E+10	1	0.3540	4	0.000529	0	-1E+10	1	-1E+10	1	-1E+10	1
4902624	11	C	10/09/2024	00:37	-128.412	47.482	0	60.80	0	10.4620	0	32.3062	0	24.773	0	60.284	0	245.2	4	88.5	4	-1E+10	1	0.3336	4	0.000519	0	-1E+10	1	-1E+10	1	-1E+10	1
4902624	11	C	10/09/2024	00:37	-128.412	47.482	0	61.00	0	10.4090	0	32.3070	0	24.783	0	60.482	0	-1e10	1	-1e10	1	-1E+10	1	-1e10	1	-1e10	1	-1E+10	1	-1E+10	1	-1E+10	1
4902624	11	C	10/09/2024	00:37	-128.412	47.482	0	61.60	0	10.3805	0	32.3061	0	24.787	0	61.077	0	244.4	4	88.0	4	-1E+10	1	0.3276	4	0.000492	0	-1E+10	1	-1E+10	1	-1E+10	1
4902624	11	C	10/09/2024	00:37	-128.412	47.482	0	62.50	0	10.3378	0	32.3047	0	24.793	0	61.969	0	243.6	4	87.6	4	-1E+10	1	0.3199	4	0.000478	0	-1E+10	1	-1E+10	1	-1E+10	1
4902624	11	C	10/09/2024	00:37	-128.412	47.482	0	63.00	0	10.3140	0	32.3040	0	24.797	0	62.465	0	-1e10	1	-1e10	1	-1E+10	1	-1e10	1	-1e10	1	-1E+10	1	-1E+10	1	-1E+10	1
4902624	11	C	10/09/2024	00:37	-128.412	47.482	0	63.40	0	10.3037	0	32.3036	0	24.798	0	62.861	0	242.6	4	87.2	4	-1E+10	1	0.3139	4	0.000459	0	-1E+10	1	-1E+10	1	-1E+10	1
4902624	11	C	10/09/2024	00:37	-128.412	47.482	0	64.20	0	10.2831	0	32.3029	0	24.801	0	63.654	0	241.7	4	86.9	4	-1E+10	1	0.3204	4	0.000480	0	-1E+10	1	-1E+10	1	-1E+10	1
4902624	11	C	10/09/2024	00:37	-128.412	47.482	0	65.00	0	10.2626	0	32.3021	0	24.804	0	64.447	0	240.7	4	86.4	4	-1E+10	1	0.3276	4	0.000508	0	-1E+10	1	-1E+10	1	-1E+10	1
4902624	11	C	10/09/2024	00:37	-128.412	47.482	0	65.10	0	10.2600	0	32.3020	0	24.804	0	64.547	0	-1e10	1	-1e10	1	-1E+10	1	-1e10	1	-1e10	1	-1E+10	1	-1E+10	1	-1E+10	1
4902624	11	C	10/09/2024	00:37	-128.412	47.482	0	65.80	0	10.1756	0	32.3072	0	24.822	0	65.241	0	239.8	4	86.0	4	-1E+10	1	0.3331	4	0.000471	0	-1E+10	1	-1E+10	1	-1E+10	1
4902624	11	C	10/09/2024	00:37	-128.412	47.482	0	66.70	0	10.0672	0	32.3138	0	24.846	0	66.133	0	239.2	4	85.6	4	-1E+10	1	0.3029	4	0.000441	0	-1E+10	1	-1E+10	1	-1E+10	1
4902624	11	C	10/09/2024	00:37	-128.412	47.482	0	67.00	0	10.0310	0	32.3160	0	24.853	0	66.430	0	-1e10	1	-1e10	1	-1E+10	1	-1e10	1	-1e10	1	-1E+10	1	-1E+10	1	-1E+10	1
4902624	11	C	10/09/2024	00:37	-128.412	47.482	0	67.60	0	9.9449	0	32.3194	0	24.870	0	67.025	0	238.9	4	85.2	4	-1E+10	1	0.2701	4	0.000459	0	-1E+10	1	-1E+10	1	-1E+10	1
4902624	11	C	10/09/2024	00:37	-128.412	47.482	0	68.60	0	9.8014	0	32.3250	0	24.898	0	68.016	0	238.2	4	84.7	4	-1E+10	1	0.2579	4	0.000474	0	-1E+10	1	-1E+10	1	-1E+10	1
4902624	11	C	10/09/2024	00:37	-128.412	47.482	0	69.30	0	9.7010	0	32.3290	0	24.918	0	68.710	0	-1e10	1	-1e10	1	-1E+10	1	-1e10	1	-1e10	1	-1E+10	1	-1E+10	1	-1E+10	1
4902624	11	C	10/09/2024	00:37	-128.412	47.482	0	69.60	0	9.6796	0	32.3292	0	24.921	0	69.008	0	237.5	4	84.3	4	-1E+10	1	0.2349	4	0.000429	0	-1E+10	1	-1E+10	1	-1E+10	1
4902624	11	C	10/09/2024	00:37	-128.412	47.482	0	70.50	0	9.6156	0	32.3297	0	24.932	0	69.900	0	236.8	4	83.9	4	-1E+10	1	0.2409	4	0.000400	0	-1E+10	1	-1E+10	1	-1E+10	1
4902624	11	C	10/09/2024	00:37	-128.412	47.482	0	71.00	0	9.5800	0	32.3300	0	24.938	0	70.395	0	-1e10	1	-1e10	1	-1E+10	1	-1e10	1	-1e10	1	-1E+10	1	-1E+10	1	-1E+10	1
4902624	11	C	10/09/2024	00:37	-128.412	47.482	0	71.50	0	9.5582	0	32.3318	0	24.943	0	70.891	0	236.0	4	83.5	4	-1E+10	1	0.2263	4	0.000423	0	-1E+10	1	-1E+10	1	-1E+10	1
4902624	11	C	10/09/2024	00:37	-128.412	47.482	0	72.40	0	9.5188	0	32.3352	0	24.952	0	71.783	0	235.0	4	83.1	4	-1E+10	1	0.2144	4	0.000443	0	-1E+10	1	-1E+10	1	-1E+10	1
4902624	11	C	10/09/2024	00:37	-128.412	47.482	0	72.90	0	9.4970	0	32.3370	0	24.957	0	72.279	0	-1e10	1	-1e10	1	-1E+10	1	-1e10	1	-1e10	1	-1E+10	1	-1E+10	1	-1E+10	1
4902624	11	C	10/09/2024	00:37	-128.412	47.482	0	73.40	0	9.4539	0	32.3413	0	24.967	0	72.775	0	233.9	4	82.6	4	-1E+10	1	0.2068	4	0.000431	0	-1E+10	1	-1E+10	1	-1E+10	1
4902624	11	C	10/09/2024	00:37	-128.412	47.482	0	74.50	0	9.3591	0	32.3507	0	24.989	0	73.865	0	232.9	4	82.1	4	-1E+10	1	0.2044	4	0.000401	0	-1E+10	1	-1E+10	1	-1E+10	1
4902624	11	C	10/09/2024	00:37	-128.412	47.482	0	75.00	0	9.3160	0	32.3550	0	25.000	0	74.361	0	-1e10	1	-1e10	1	-1E+10	1	-1e10	1	-1e10	1	-1E+10	1	-1E+10	1	-1E+10	1
4902624	11	C	10/09/2024	00:37	-128.412	47.482	0	75.60	0	9.2536	0	32.3631	0	25.016	0	74.955	0	231.6	4	81.4	4	-1E+10	1	0.1847	4	0.000382	0	-1E+10	1	-1E+10	1	-1E+10	1
4902624	11	C	10/09/2024	00:37	-128.412	47.482	0	76.70	0	9.1392	0	32.3779	0	25.045	0	76.046	0	230.7	4	80.9	4	-1E+10	1	0.1763	4	0.000453	0	-1E+10	1	-1E+10	1	-1E+10	1
4902624	11	C	10/09/2024	00:37	-128.412	47.482	0	77.00	0	9.1080	0	32.3820	0	25.053	0	76.343	0	-1e10	1	-1e10	1	-1E+10	1	-1e10	1	-1e10	1	-1E+10	1	-1E+10	1	-1E+10	1
4902624	11	C	10/09/2024	00:37	-128.412	47.482	0	77.80	0	9.0368	0	32.3940	0	25.074	0	77.136	0	229.8	4	80.4	4	-1E+10	1	0.1788	4	0.000547	0	-1E+10	1	-1E+10	1	-1E+10	1
4902624	11	C	10/09/2024	00:37	-128.412	47.482	0	78.90	0	8.9389	0	32.4105	0	25.102	0	78.227	0	229.0	4	80.0	4	-1E+10	1	0.1505	4	0.000444	0	-1E+10	1	-1E+10	1	-1E+10	1
4902624	11	C	10/09/2024	00:37	-128.412	47.482	0	79.00	0	8.9300	0	32.4120	0	25.105	0	78.326	0	-1e10	1	-1e10	1	-1E+10	1	-1e10	1	-1e10	1	-1E+10	1	-1E+10	1	-1E+10	1
4902624	11	C	10/09/2024	00:37	-128.412	47.482	0	80.00	0	8.9024	0	32.4168	0	25.113	0	79.317	0	227.9	4	79.5	4	-1E+10	1	0.1752	4	0.000365	0	-1E+10	1	-1E+10	1	-1E+10	1
4902624	11	C	10/09/2024	00:37	-128.412	47.482	0	81.10	0	8.8720	0	32.4220	0	25.121	0	80.407	0	223.6	4	78.0	4	-1E+10	1	0.1567	4	0.000375	0	-1E+10	1	-1E+10	1	-1E+10	1
4902624	11	C	10/09/2024	00:37	-128.412	47.482	0	82.20	0	8.8524	0	32.4257	0	25.127	0	81.498	0	225.1	4	78.5	4	-1E+10	1	0.1473	4	0.000376	0	-1E+10	1	-1E+10	1	-1E+10	1
4902624	11	C	10/09/2024	00:37	-128.412	47.482	0	82.90	0	8.8400	0	32.4280	0	25.131	0	82.192	0	-1e10	1	-1e10	1	-1E+10	1	-1e10	1	-1e10	1	-1E+10	1	-1E+10	1	-1E+10	1
4902624	11	C	10/09/2024	00:37	-128.412	47.482	0	83.30	0	8.8251	0	32.4318	0	25.136	0	82.588	0	223.3	4	77.8	4	-1E+10	1	0.1460	4	0.000393	0	-1E+10	1	-1E+10	1	-1E+10	1
4902624	11	C	10/09/2024	00:37	-128.412	47.482	0	84.30	0	8.7880	0	32.4413	0	25.149	0	83.580	0	221.6	4	77.2	4	-1E+10	1	0.1423	4	0.000382	0	-1E+10	1	-1E+10	1	-1E+10	1
4902624	11	C	10/09/2024	00:37	-128.412	47.482	0	85.00	0	8.7620	0	32.4480	0	25.159	0	84.273	0	-1e10	1	-1e10	1	-1E+10	1	-1e10	1	-1e10	1	-1E+10	1	-1E+10	1	-1E+10	1
4902624	11	C	10/09/2024	00:37	-128.412	47.482	0	85.30	0	8.7510	0	32.4513	0	25.163	0	84.571	0	220.4	4	76.7	4	-1E+10	1	0.1445	4	0.000365	0	-1E+10	1	-1E+10	1	-1E+10	1
4902624	11	C	10/09/2024	00:37	-128.412	47.482	0	86.20	0	8.7182	0	32.4612	0	25.176	0	85.463	0	219.2	4	76.2	4	-1E+10	1	0.1533	4	0.000376	0	-1E+10	1	-1E+10	1	-1E+10	1
4902624	11	C	10/09/2024	00:37	-128.412	47.482	0	86.90	0	8.6926	0	32.4689	0	25.186	0	86.157	0	218.0	4	75.8	4	-1E+10	1	0.1564	4	0.000397	0	-1E+10	1	-1E+10	1	-1E+10	1
4902624	11	C	10/09/2024	00:37	-128.412	47.482	0	87.00	0	8.6890	0	32.4700	0	25.187	0	86.256	0	-1e10	1	-1e10	1	-1E+10	1	-1e10	1	-1e10	1	-1E+10	1	-1E+10	1	-1E+10	1
4902624	11	C	10/09/2024	00:37	-128.412	47.482	0	87.50	0	8.6727	0	32.4758	0	25.194	0	86.751	0	216.5	4	75.2	4	-1E+10	1	0.1752	4	0.000376	0	-1E+10	1	-1E+10	1	-1E+10	1
4902624	11	C	10/09/2024	00:37	-128.412	47.482	0	88.10	0	8.6531	0	32.4827	0	25.202	0	87.346	0	215.2	4	74.7	4	-1E+10	1	0.1606	4	0.000365	0	-1E+10	1	-1E+10	1	-1E+10	1
4902624	11	C	10/09/2024	00:37	-128.412	47.482	0	88.80	0	8.6303	0	32.4908	0	25.212	0	88.040	0	214.2	4	74.3	4	-1E+10	1	0.1414	4	0.000368	0	-1E+10	1	-1E+10	1	-1E+10	1
4902624	11	C	10/09/2024	00:37	-128.412	47.482	0	88.90	0	8.6270	0	32.4920	0	25.214	0	88.139	0	-1e10	1	-1e10	1	-1E+10	1	-1e10	1	-1e10	1	-1E+10	1	-1E+10	1	-1E+10	1
4902624	11	C	10/09/2024	00:37	-128.412	47.482	0	89.40	0	8.6027	0	32.5033	0	25.226	0	88.635	0	213.1	4	73.9	4	-1E+10	1	0.1433	4	0.000432	0	-1E+10	1	-1E+10	1	-1E+10	1
4902624	11	C	10/09/2024	00:37	-128.412	47.482	0	90.10	0	8.5688	0	32.5190	0	25.244	0	89.329	0	212.0	4	73.5	4	-1E+10	1	0.1363	4	0.000408	0	-1E+10	1	-1E+10	1	-1E+10	1
4902624	11	C	10/09/2024	00:37	-128.412	47.482	0	90.80	0	8.5349	0	32.5347	0	25.261	0	90.023	0	210.7	4	73.0	4	-1E+10	1	0.1314	4	0.000402	0	-1E+10	1	-1E+10	1	-1E+10	1
4902624	11	C	10/09/2024	00:37	-128.412	47.482	0	90.90	0	8.5300	0	32.5370	0	25.263	0	90.122	0	-1e10	1	-1e10	1	-1E+10	1	-1e10	1	-1e10	1	-1E+10	1	-1E+10	1	-1E+10	1
4902624	11	C	10/09/2024	00:37	-128.412	47.482	0	91.50	0	8.5052	0	32.5512	0	25.278	0	90.716	0	209.3	4	72.5	4	-1E+10	1	0.1290	4	0.000404	0	-1E+10	1	-1E+10	1	-1E+10	1
4902624	11	C	10/09/2024	00:37	-128.412	47.482	0	92.20	0	8.4762	0	32.5677	0	25.296	0	91.410	0	208.1	4	72.0	4	-1E+10	1	0.1241	4	0.000365	0	-1E+10	1	-1E+10	1	-1E+10	1
4902624	11	C	10/09/2024	00:37	-128.412	47.482	0	93.00	0	8.4431	0	32.5866	0	25.315	0	92.203	0	206.9	4	71.6	4	-1E+10	1	0.1431	4	0.000473	0	-1E+10	1	-1E+10	1	-1E+10	1
4902624	11	C	10/09/2024	00:37	-128.412	47.482	0	93.10	0	8.4390	0	32.5890	0	25.318	0	92.302	0	-1e10	1	-1e10	1	-1E+10	1	-1e10	1	-1e10	1	-1E+10	1	-1E+10	1	-1E+10	1
4902624	11	C	10/09/2024	00:37	-128.412	47.482	0	93.80	0	8.4117	0	32.6045	0	25.334	0	92.996	0	205.7	4	71.1	4	-1E+10	1	0.2190	4	0.000904	0	-1E+10	1	-1E+10	1	-1E+10	1
4902624	11	C	10/09/2024	00:37	-128.412	47.482	0	94.60	0	8.3806	0	32.6222	0	25.353	0	93.789	0	204.6	4	70.7	4	-1E+10	1	0.1346	4	0.000706	0	-1E+10	1	-1E+10	1	-1E+10	1
4902624	11	C	10/09/2024	00:37	-128.412	47.482	0	95.00	0	8.3650	0	32.6310	0	25.362	0	94.186	0	-1e10	1	-1e10	1	-1E+10	1	-1e10	1	-1e10	1	-1E+10	1	-1E+10	1	-1E+10	1
4902624	11	C	10/09/2024	00:37	-128.412	47.482	0	95.40	0	8.3542	0	32.6376	0	25.369	0	94.582	0	203.3	4	70.2	4	-1E+10	1	0.1184	4	0.000435	0	-1E+10	1	-1E+10	1	-1E+10	1
4902624	11	C	10/09/2024	00:37	-128.412	47.482	0	96.20	0	8.3326	0	32.6508	0	25.382	0	95.375	0	201.7	4	69.6	4	-1E+10	1	0.1217	4	0.000341	0	-1E+10	1	-1E+10	1	-1E+10	1
4902624	11	C	10/09/2024	00:37	-128.412	47.482	0	97.00	0	8.3110	0	32.6640	0	25.396	0	96.168	0	-1e10	1	-1e10	1	-1E+10	1	-1e10	1	-1e10	1	-1E+10	1	-1E+10	1	-1E+10	1
4902624	11	C	10/09/2024	00:37	-128.412	47.482	0	97.10	0	8.3099	0	32.6651	0	25.397	0	96.267	0	199.9	4	69.0	4	-1E+10	1	0.1241	4	0.000343	0	-1E+10	1	-1E+10	1	-1E+10	1
4902624	11	C	10/09/2024	00:37	-128.412	47.482	0	97.90	0	8.3015	0	32.6735	0	25.405	0	97.060	0	198.0	4	68.3	4	-1E+10	1	0.1176	4	0.000369	0	-1E+10	1	-1E+10	1	-1E+10	1
4902624	11	C	10/09/2024	00:37	-128.412	47.482	0	98.70	0	8.2931	0	32.6819	0	25.412	0	97.853	0	196.1	4	67.6	4	-1E+10	1	0.1051	4	0.000370	0	-1E+10	1	-1E+10	1	-1E+10	1
4902624	11	C	10/09/2024	00:37	-128.412	47.482	0	99.00	0	8.2900	0	32.6850	0	25.415	0	98.150	0	-1e10	1	-1e10	1	-1E+10	1	-1e10	1	-1e10	1	-1E+10	1	-1E+10	1	-1E+10	1
4902624	11	C	10/09/2024	00:37	-128.412	47.482	0	99.60	0	8.2878	0	32.6979	0	25.426	0	98.745	0	194.4	4	67.1	4	-1E+10	1	0.0949	4	0.000336	0	-1E+10	1	-1E+10	1	-1E+10	1
4902624	11	C	10/09/2024	00:37	-128.412	47.482	0	100.40	0	8.2848	0	32.7152	0	25.440	0	99.538	0	192.2	4	66.3	4	-1E+10	1	0.0949	4	0.000365	0	-1E+10	1	-1E+10	1	-1E+10	1
4902624	11	C	10/09/2024	00:37	-128.412	47.482	0	100.90	0	8.2830	0	32.7260	0	25.449	0	100.034	0	-1e10	1	-1e10	1	-1E+10	1	-1e10	1	-1e10	1	-1E+10	1	-1E+10	1	-1E+10	1
4902624	11	C	10/09/2024	00:37	-128.412	47.482	0	101.30	0	8.2834	0	32.7350	0	25.456	0	100.430	0	190.2	4	65.6	4	-1E+10	1	0.1241	4	0.000318	0	-1E+10	1	-1E+10	1	-1E+10	1
4902624	11	C	10/09/2024	00:37	-128.412	47.482	0	102.20	0	8.2842	0	32.7551	0	25.471	0	101.322	0	188.6	4	65.1	4	-1E+10	1	0.1122	4	0.000356	0	-1E+10	1	-1E+10	1	-1E+10	1
4902624	11	C	10/09/2024	00:37	-128.412	47.482	0	103.00	0	8.2850	0	32.7730	0	25.485	0	102.115	0	184.0	4	63.5	4	-1E+10	1	0.0920	4	0.000343	0	-1E+10	1	-1E+10	1	-1E+10	1
4902624	11	C	10/09/2024	00:37	-128.412	47.482	0	103.90	0	8.2706	0	32.7906	0	25.501	0	103.007	0	185.4	4	64.0	4	-1E+10	1	0.0803	4	0.000336	0	-1E+10	1	-1E+10	1	-1E+10	1
4902624	11	C	10/09/2024	00:37	-128.412	47.482	0	104.80	0	8.2562	0	32.8081	0	25.517	0	103.899	0	183.3	4	63.2	4	-1E+10	1	0.0803	4	0.000378	0	-1E+10	1	-1E+10	1	-1E+10	1
4902624	11	C	10/09/2024	00:37	-128.412	47.482	0	105.00	0	8.2530	0	32.8120	0	25.521	0	104.097	0	-1e10	1	-1e10	1	-1E+10	1	-1e10	1	-1e10	1	-1E+10	1	-1E+10	1	-1E+10	1
4902624	11	C	10/09/2024	00:37	-128.412	47.482	0	105.80	0	8.2404	0	32.8364	0	25.542	0	104.890	0	181.4	4	62.6	4	-1E+10	1	0.0832	4	0.000395	0	-1E+10	1	-1E+10	1	-1E+10	1
4902624	11	C	10/09/2024	00:37	-128.412	47.482	0	106.70	0	8.2262	0	32.8639	0	25.565	0	105.782	0	179.5	4	61.9	4	-1E+10	1	0.0852	4	0.000357	0	-1E+10	1	-1E+10	1	-1E+10	1
4902624	11	C	10/09/2024	00:37	-128.412	47.482	0	106.90	0	8.2230	0	32.8700	0	25.570	0	105.981	0	-1e10	1	-1e10	1	-1E+10	1	-1e10	1	-1e10	1	-1E+10	1	-1E+10	1	-1E+10	1
4902624	11	C	10/09/2024	00:37	-128.412	47.482	0	107.70	0	8.2142	0	32.8841	0	25.583	0	106.773	0	177.6	4	61.2	4	-1E+10	1	0.0803	4	0.000357	0	-1E+10	1	-1E+10	1	-1E+10	1
4902624	11	C	10/09/2024	00:37	-128.412	47.482	0	108.60	0	8.2044	0	32.9000	0	25.597	0	107.665	0	176.0	4	60.7	4	-1E+10	1	0.0810	4	0.000338	0	-1E+10	1	-1E+10	1	-1E+10	1
4902624	11	C	10/09/2024	00:37	-128.412	47.482	0	109.00	0	8.2000	0	32.9070	0	25.603	0	108.062	0	-1e10	1	-1e10	1	-1E+10	1	-1e10	1	-1e10	1	-1E+10	1	-1E+10	1	-1E+10	1
4902624	11	C	10/09/2024	00:37	-128.412	47.482	0	109.60	0	8.1940	0	32.9184	0	25.613	0	108.657	0	174.0	4	60.0	4	-1E+10	1	0.0876	4	0.000306	0	-1E+10	1	-1E+10	1	-1E+10	1
4902624	11	C	10/09/2024	00:37	-128.412	47.482	0	110.50	0	8.1850	0	32.9355	0	25.628	0	109.549	0	172.0	4	59.3	4	-1E+10	1	0.0803	4	0.000353	0	-1E+10	1	-1E+10	1	-1E+10	1
4902624	11	C	10/09/2024	00:37	-128.412	47.482	0	111.00	0	8.1800	0	32.9450	0	25.636	0	110.044	0	-1e10	1	-1e10	1	-1E+10	1	-1e10	1	-1e10	1	-1E+10	1	-1E+10	1	-1E+10	1
4902624	11	C	10/09/2024	00:37	-128.412	47.482	0	111.40	0	8.1758	0	32.9540	0	25.643	0	110.441	0	170.4	4	58.7	4	-1E+10	1	0.0803	4	0.000334	0	-1E+10	1	-1E+10	1	-1E+10	1
4902624	11	C	10/09/2024	00:37	-128.412	47.482	0	112.30	0	8.1664	0	32.9741	0	25.661	0	111.333	0	168.8	4	58.2	4	-1E+10	1	0.0803	4	0.000352	0	-1E+10	1	-1E+10	1	-1E+10	1
4902624	11	C	10/09/2024	00:37	-128.412	47.482	0	113.10	0	8.1580	0	32.9920	0	25.676	0	112.126	0	-1e10	1	-1e10	1	-1E+10	1	-1e10	1	-1e10	1	-1E+10	1	-1E+10	1	-1E+10	1
4902624	11	C	10/09/2024	00:37	-128.412	47.482	0	113.20	0	8.1570	0	32.9941	0	25.678	0	112.225	0	167.2	4	57.6	4	-1E+10	1	0.0844	4	0.000338	0	-1E+10	1	-1E+10	1	-1E+10	1
4902624	11	C	10/09/2024	00:37	-128.412	47.482	0	114.10	0	8.1480	0	33.0125	0	25.693	0	113.117	0	165.7	4	57.1	4	-1E+10	1	0.0839	4	0.000312	0	-1E+10	1	-1E+10	1	-1E+10	1
4902624	11	C	10/09/2024	00:37	-128.412	47.482	0	115.00	0	8.1390	0	33.0310	0	25.709	0	114.009	0	160.5	4	55.3	4	-1E+10	1	0.0754	4	0.000310	0	-1E+10	1	-1E+10	1	-1E+10	1
4902624	11	C	10/09/2024	00:37	-128.412	47.482	0	116.00	0	8.1185	0	33.0652	0	25.739	0	115.000	0	161.6	4	55.7	4	-1E+10	1	0.0657	4	0.000322	0	-1E+10	1	-1E+10	1	-1E+10	1
4902624	11	C	10/09/2024	00:37	-128.412	47.482	0	116.90	0	8.1000	0	33.0960	0	25.766	0	115.892	0	-1e10	1	-1e10	1	-1E+10	1	-1e10	1	-1e10	1	-1E+10	1	-1E+10	1	-1E+10	1
4902624	11	C	10/09/2024	00:37	-128.412	47.482	0	117.00	0	8.1002	0	33.0986	0	25.768	0	115.991	0	160.2	4	55.2	4	-1E+10	1	0.0633	4	0.000345	0	-1E+10	1	-1E+10	1	-1E+10	1
4902624	11	C	10/09/2024	00:37	-128.412	47.482	0	118.00	0	8.1022	0	33.1246	0	25.788	0	116.982	0	158.8	4	54.7	4	-1E+10	1	0.0511	4	0.000364	0	-1E+10	1	-1E+10	1	-1E+10	1
4902624	11	C	10/09/2024	00:37	-128.412	47.482	0	118.90	0	8.1040	0	33.1480	0	25.806	0	117.874	0	-1e10	1	-1e10	1	-1E+10	1	-1e10	1	-1e10	1	-1E+10	1	-1E+10	1	-1E+10	1
4902624	11	C	10/09/2024	00:37	-128.412	47.482	0	119.00	0	8.1022	0	33.1500	0	25.808	0	117.973	0	157.4	4	54.2	4	-1E+10	1	0.0572	4	0.000316	0	-1E+10	1	-1E+10	1	-1E+10	1
4902624	11	C	10/09/2024	00:37	-128.412	47.482	0	120.10	0	8.0829	0	33.1726	0	25.829	0	119.063	0	155.8	4	53.7	4	-1E+10	1	0.0524	4	0.000325	0	-1E+10	1	-1E+10	1	-1E+10	1
4902624	11	C	10/09/2024	00:37	-128.412	47.482	0	121.00	0	8.0670	0	33.1910	0	25.846	0	119.955	0	-1e10	1	-1e10	1	-1E+10	1	-1e10	1	-1e10	1	-1E+10	1	-1E+10	1	-1E+10	1
4902624	11	C	10/09/2024	00:37	-128.412	47.482	0	121.10	0	8.0660	0	33.1933	0	25.847	0	120.054	0	154.2	4	53.1	4	-1E+10	1	0.0608	4	0.000345	0	-1E+10	1	-1E+10	1	-1E+10	1
4902624	11	C	10/09/2024	00:37	-128.412	47.482	0	122.10	0	8.0554	0	33.2163	0	25.867	0	121.045	0	153.0	4	52.7	4	-1E+10	1	0.0691	4	0.000353	0	-1E+10	1	-1E+10	1	-1E+10	1
4902624	11	C	10/09/2024	00:37	-128.412	47.482	0	123.00	0	8.0460	0	33.2370	0	25.885	0	121.937	0	-1e10	1	-1e10	1	-1E+10	1	-1e10	1	-1e10	1	-1E+10	1	-1E+10	1	-1E+10	1
4902624	11	C	10/09/2024	00:37	-128.412	47.482	0	123.20	0	8.0396	0	33.2408	0	25.889	0	122.136	0	152.0	4	52.3	4	-1E+10	1	0.0672	4	0.000343	0	-1E+10	1	-1E+10	1	-1E+10	1
4902624	11	C	10/09/2024	00:37	-128.412	47.482	0	124.20	0	8.0076	0	33.2598	0	25.908	0	123.127	0	151.1	4	52.0	4	-1E+10	1	0.0560	4	0.000326	0	-1E+10	1	-1E+10	1	-1E+10	1
4902624	11	C	10/09/2024	00:37	-128.412	47.482	0	125.00	0	7.9820	0	33.2750	0	25.924	0	123.919	0	-1e10	1	-1e10	1	-1E+10	1	-1e10	1	-1e10	1	-1E+10	1	-1E+10	1	-1E+10	1
4902624	11	C	10/09/2024	00:37	-128.412	47.482	0	125.20	0	7.9774	0	33.2779	0	25.927	0	124.118	0	150.1	4	51.7	4	-1E+10	1	0.0511	4	0.000321	0	-1E+10	1	-1E+10	1	-1E+10	1
4902624	11	C	10/09/2024	00:37	-128.412	47.482	0	126.20	0	7.9547	0	33.2923	0	25.942	0	125.109	0	149.2	4	51.3	4	-1E+10	1	0.0511	4	0.000329	0	-1E+10	1	-1E+10	1	-1E+10	1
4902624	11	C	10/09/2024	00:37	-128.412	47.482	0	126.80	0	7.9410	0	33.3010	0	25.950	0	125.703	0	-1e10	1	-1e10	1	-1E+10	1	-1e10	1	-1e10	1	-1E+10	1	-1E+10	1	-1E+10	1
4902624	11	C	10/09/2024	00:37	-128.412	47.482	0	127.20	0	7.9366	0	33.3061	0	25.955	0	126.100	0	148.3	4	51.0	4	-1E+10	1	0.0511	4	0.000306	0	-1E+10	1	-1E+10	1	-1E+10	1
4902624	11	C	10/09/2024	00:37	-128.412	47.482	0	128.20	0	7.9257	0	33.3188	0	25.967	0	127.091	0	147.2	4	50.6	4	-1E+10	1	0.0511	4	0.000353	0	-1E+10	1	-1E+10	1	-1E+10	1
4902624	11	C	10/09/2024	00:37	-128.412	47.482	0	128.80	0	7.9192	0	33.3265	0	25.974	0	127.685	0	146.2	4	50.3	4	-1E+10	1	0.0511	4	0.000353	0	-1E+10	1	-1E+10	1	-1E+10	1
4902624	11	C	10/09/2024	00:37	-128.412	47.482	0	129.00	0	7.9170	0	33.3290	0	25.976	0	127.884	0	-1e10	1	-1e10	1	-1E+10	1	-1e10	1	-1e10	1	-1E+10	1	-1E+10	1	-1E+10	1
4902624	11	C	10/09/2024	00:37	-128.412	47.482	0	129.40	0	7.9252	0	33.3370	0	25.981	0	128.280	0	145.1	4	49.9	4	-1E+10	1	0.0560	4	0.000392	0	-1E+10	1	-1E+10	1	-1E+10	1
4902624	11	C	10/09/2024	00:37	-128.412	47.482	0	130.00	0	7.9375	0	33.3490	0	25.989	0	128.875	0	144.0	4	49.5	4	-1E+10	1	0.0542	4	0.000384	0	-1E+10	1	-1E+10	1	-1E+10	1
4902624	11	C	10/09/2024	00:37	-128.412	47.482	0	130.60	0	7.9498	0	33.3610	0	25.996	0	129.469	0	143.0	4	49.2	4	-1E+10	1	0.0456	4	0.000382	0	-1E+10	1	-1E+10	1	-1E+10	1
4902624	11	C	10/09/2024	00:37	-128.412	47.482	0	131.00	0	7.9580	0	33.3690	0	26.001	0	129.866	0	-1e10	1	-1e10	1	-1E+10	1	-1e10	1	-1e10	1	-1E+10	1	-1E+10	1	-1E+10	1
4902624	11	C	10/09/2024	00:37	-128.412	47.482	0	131.20	0	7.9581	0	33.3743	0	26.005	0	130.064	0	141.9	4	48.8	4	-1E+10	1	0.0414	4	0.000400	0	-1E+10	1	-1E+10	1	-1E+10	1
4902624	11	C	10/09/2024	00:37	-128.412	47.482	0	131.80	0	7.9584	0	33.3903	0	26.018	0	130.659	0	141.1	4	48.6	4	-1E+10	1	0.0630	4	0.000341	0	-1E+10	1	-1E+10	1	-1E+10	1
4902624	11	C	10/09/2024	00:37	-128.412	47.482	0	132.50	0	7.9587	0	33.4090	0	26.033	0	131.352	0	140.5	4	48.4	4	-1E+10	1	0.0438	4	0.000341	0	-1E+10	1	-1E+10	1	-1E+10	1
4902624	11	C	10/09/2024	00:37	-128.412	47.482	0	133.10	0	7.9590	0	33.4250	0	26.045	0	131.947	0	136.8	4	47.1	4	-1E+10	1	0.0548	4	0.000376	0	-1E+10	1	-1E+10	1	-1E+10	1
4902624	11	C	10/09/2024	00:37	-128.412	47.482	0	133.80	0	7.9510	0	33.4324	0	26.052	0	132.641	0	139.0	4	47.8	4	-1E+10	1	0.0428	4	0.000371	0	-1E+10	1	-1E+10	1	-1E+10	1
4902624	11	C	10/09/2024	00:37	-128.412	47.482	0	134.50	0	7.9429	0	33.4397	0	26.059	0	133.334	0	138.2	4	47.6	4	-1E+10	1	0.0446	4	0.000377	0	-1E+10	1	-1E+10	1	-1E+10	1
4902624	11	C	10/09/2024	00:37	-128.412	47.482	0	135.10	0	7.9360	0	33.4460	0	26.065	0	133.929	0	-1e10	1	-1e10	1	-1E+10	1	-1e10	1	-1e10	1	-1E+10	1	-1E+10	1	-1E+10	1
4902624	11	C	10/09/2024	00:37	-128.412	47.482	0	135.30	0	7.9348	0	33.4480	0	26.067	0	134.127	0	137.3	4	47.2	4	-1E+10	1	0.0511	4	0.000388	0	-1E+10	1	-1E+10	1	-1E+10	1
4902624	11	C	10/09/2024	00:37	-128.412	47.482	0	136.10	0	7.9299	0	33.4560	0	26.074	0	134.920	0	136.4	4	46.9	4	-1E+10	1	0.0480	4	0.000383	0	-1E+10	1	-1E+10	1	-1E+10	1
4902624	11	C	10/09/2024	00:37	-128.412	47.482	0	136.80	0	7.9256	0	33.4630	0	26.080	0	135.614	0	135.6	4	46.7	4	-1E+10	1	0.0511	4	0.000360	0	-1E+10	1	-1E+10	1	-1E+10	1
4902624	11	C	10/09/2024	00:37	-128.412	47.482	0	136.90	0	7.9250	0	33.4640	0	26.081	0	135.713	0	-1e10	1	-1e10	1	-1E+10	1	-1e10	1	-1e10	1	-1E+10	1	-1E+10	1	-1E+10	1
4902624	11	C	10/09/2024	00:37	-128.412	47.482	0	137.60	0	7.9207	0	33.4770	0	26.092	0	136.406	0	134.7	4	46.4	4	-1E+10	1	0.0599	4	0.000341	0	-1E+10	1	-1E+10	1	-1E+10	1
4902624	11	C	10/09/2024	00:37	-128.412	47.482	0	138.40	0	7.9157	0	33.4919	0	26.104	0	137.199	0	133.9	4	46.1	4	-1E+10	1	0.0365	4	0.000388	0	-1E+10	1	-1E+10	1	-1E+10	1
4902624	11	C	10/09/2024	00:37	-128.412	47.482	0	139.00	0	7.9120	0	33.5030	0	26.113	0	137.794	0	-1e10	1	-1e10	1	-1E+10	1	-1e10	1	-1e10	1	-1E+10	1	-1E+10	1	-1E+10	1
4902624	11	C	10/09/2024	00:37	-128.412	47.482	0	139.20	0	7.9110	0	33.5051	0	26.115	0	137.992	0	133.2	4	45.8	4	-1E+10	1	0.0584	4	0.000294	0	-1E+10	1	-1E+10	1	-1E+10	1
4902624	11	C	10/09/2024	00:37	-128.412	47.482	0	140.00	0	7.9070	0	33.5135	0	26.122	0	138.785	0	132.5	4	45.6	4	-1E+10	1	0.0454	4	0.000325	0	-1E+10	1	-1E+10	1	-1E+10	1
4902624	11	C	10/09/2024	00:37	-128.412	47.482	0	140.70	0	7.9035	0	33.5208	0	26.129	0	139.478	0	131.7	4	45.3	4	-1E+10	1	0.0482	4	0.000322	0	-1E+10	1	-1E+10	1	-1E+10	1
4902624	11	C	10/09/2024	00:37	-128.412	47.482	0	141.00	0	7.9020	0	33.5240	0	26.131	0	139.776	0	-1e10	1	-1e10	1	-1E+10	1	-1e10	1	-1e10	1	-1E+10	1	-1E+10	1	-1E+10	1
4902624	11	C	10/09/2024	00:37	-128.412	47.482	0	141.60	0	7.8990	0	33.5315	0	26.138	0	140.370	0	130.8	4	45.0	4	-1E+10	1	0.0420	4	0.000339	0	-1E+10	1	-1E+10	1	-1E+10	1
4902624	11	C	10/09/2024	00:37	-128.412	47.482	0	142.40	0	7.8950	0	33.5415	0	26.146	0	141.163	0	130.2	4	44.8	4	-1E+10	1	0.0402	4	0.000335	0	-1E+10	1	-1E+10	1	-1E+10	1
4902624	11	C	10/09/2024	00:37	-128.412	47.482	0	143.00	0	7.8920	0	33.5490	0	26.152	0	141.758	0	-1e10	1	-1e10	1	-1E+10	1	-1e10	1	-1e10	1	-1E+10	1	-1E+10	1	-1E+10	1
4902624	11	C	10/09/2024	00:37	-128.412	47.482	0	143.30	0	7.8879	0	33.5523	0	26.156	0	142.055	0	129.7	4	44.6	4	-1E+10	1	0.0438	4	0.000331	0	-1E+10	1	-1E+10	1	-1E+10	1
4902624	11	C	10/09/2024	00:37	-128.412	47.482	0	144.10	0	7.8772	0	33.5611	0	26.164	0	142.848	0	129.1	4	44.4	4	-1E+10	1	0.0422	4	0.000350	0	-1E+10	1	-1E+10	1	-1E+10	1
4902624	11	C	10/09/2024	00:37	-128.412	47.482	0	145.00	0	7.8650	0	33.5710	0	26.174	0	143.740	0	125.6	4	43.2	4	-1E+10	1	0.0392	4	0.000341	0	-1E+10	1	-1E+10	1	-1E+10	1
4902624	11	C	10/09/2024	00:37	-128.412	47.482	0	145.90	0	7.8522	0	33.5890	0	26.190	0	144.631	0	127.9	4	44.0	4	-1E+10	1	0.0511	4	0.000341	0	-1E+10	1	-1E+10	1	-1E+10	1
4902624	11	C	10/09/2024	00:37	-128.412	47.482	0	146.70	0	7.8408	0	33.6050	0	26.204	0	145.424	0	127.3	4	43.8	4	-1E+10	1	0.0511	4	0.000341	0	-1E+10	1	-1E+10	1	-1E+10	1
4902624	11	C	10/09/2024	00:37	-128.412	47.482	0	146.90	0	7.8380	0	33.6090	0	26.207	0	145.622	0	-1e10	1	-1e10	1	-1E+10	1	-1e10	1	-1e10	1	-1E+10	1	-1E+10	1	-1E+10	1
4902624	11	C	10/09/2024	00:37	-128.412	47.482	0	147.70	0	7.8247	0	33.6208	0	26.219	0	146.415	0	126.9	4	43.6	4	-1E+10	1	0.0446	4	0.000341	0	-1E+10	1	-1E+10	1	-1E+10	1
4902624	11	C	10/09/2024	00:37	-128.412	47.482	0	148.60	0	7.8097	0	33.6341	0	26.231	0	147.307	0	126.6	4	43.5	4	-1E+10	1	0.0438	4	0.000333	0	-1E+10	1	-1E+10	1	-1E+10	1
4902624	11	C	10/09/2024	00:37	-128.412	47.482	0	149.00	0	7.8030	0	33.6400	0	26.237	0	147.703	0	-1e10	1	-1e10	1	-1E+10	1	-1e10	1	-1e10	1	-1E+10	1	-1E+10	1	-1E+10	1
4902624	11	C	10/09/2024	00:37	-128.412	47.482	0	149.60	0	7.7719	0	33.6437	0	26.244	0	148.298	0	126.2	4	43.3	4	-1E+10	1	0.0438	4	0.000347	0	-1E+10	1	-1E+10	1	-1E+10	1
4902624	11	C	10/09/2024	00:37	-128.412	47.482	0	150.60	0	7.7200	0	33.6499	0	26.257	0	149.289	0	125.2	4	42.9	4	-1E+10	1	0.0467	4	0.000378	0	-1E+10	1	-1E+10	1	-1E+10	1
4902624	11	C	10/09/2024	00:37	-128.412	47.482	0	151.10	0	7.6940	0	33.6530	0	26.263	0	149.784	0	-1e10	1	-1e10	1	-1E+10	1	-1e10	1	-1e10	1	-1E+10	1	-1E+10	1	-1E+10	1
4902624	11	C	10/09/2024	00:37	-128.412	47.482	0	151.50	0	7.6928	0	33.6578	0	26.267	0	150.181	0	124.1	4	42.5	4	-1E+10	1	0.0491	4	0.000393	0	-1E+10	1	-1E+10	1	-1E+10	1
4902624	11	C	10/09/2024	00:37	-128.412	47.482	0	152.60	0	7.6895	0	33.6710	0	26.278	0	151.271	0	123.1	4	42.2	4	-1E+10	1	0.0438	4	0.000370	0	-1E+10	1	-1E+10	1	-1E+10	1
4902624	11	C	10/09/2024	00:37	-128.412	47.482	0	153.10	0	7.6880	0	33.6770	0	26.283	0	151.766	0	-1e10	1	-1e10	1	-1E+10	1	-1e10	1	-1e10	1	-1E+10	1	-1E+10	1	-1E+10	1
4902624	11	C	10/09/2024	00:37	-128.412	47.482	0	153.60	0	7.7009	0	33.6849	0	26.287	0	152.262	0	122.5	4	42.0	4	-1E+10	1	0.0438	4	0.000352	0	-1E+10	1	-1E+10	1	-1E+10	1
4902624	11	C	10/09/2024	00:37	-128.412	47.482	0	154.60	0	7.7267	0	33.7007	0	26.296	0	153.253	0	122.4	4	42.0	4	-1E+10	1	0.0365	4	0.000411	0	-1E+10	1	-1E+10	1	-1E+10	1
4902624	11	C	10/09/2024	00:37	-128.412	47.482	0	155.00	0	7.7370	0	33.7070	0	26.299	0	153.649	0	-1e10	1	-1e10	1	-1E+10	1	-1e10	1	-1e10	1	-1E+10	1	-1E+10	1	-1E+10	1
4902624	11	C	10/09/2024	00:37	-128.412	47.482	0	155.60	0	7.7316	0	33.7108	0	26.303	0	154.243	0	122.4	4	42.0	4	-1E+10	1	0.0426	4	0.000372	0	-1E+10	1	-1E+10	1	-1E+10	1
4902624	11	C	10/09/2024	00:37	-128.412	47.482	0	156.60	0	7.7227	0	33.7171	0	26.309	0	155.234	0	122.5	4	42.0	4	-1E+10	1	0.0389	4	0.000380	0	-1E+10	1	-1E+10	1	-1E+10	1
4902624	11	C	10/09/2024	00:37	-128.412	47.482	0	156.90	0	7.7200	0	33.7190	0	26.311	0	155.532	0	-1e10	1	-1e10	1	-1E+10	1	-1e10	1	-1e10	1	-1E+10	1	-1E+10	1	-1E+10	1
4902624	11	C	10/09/2024	00:37	-128.412	47.482	0	157.60	0	7.7080	0	33.7217	0	26.315	0	156.225	0	122.4	4	42.0	4	-1E+10	1	0.0453	4	0.000402	0	-1E+10	1	-1E+10	1	-1E+10	1
4902624	11	C	10/09/2024	00:37	-128.412	47.482	0	158.70	0	7.6891	0	33.7259	0	26.321	0	157.315	0	122.5	4	42.0	4	-1E+10	1	0.0472	4	0.000417	0	-1E+10	1	-1E+10	1	-1E+10	1
4902624	11	C	10/09/2024	00:37	-128.412	47.482	0	159.00	0	7.6840	0	33.7270	0	26.323	0	157.613	0	-1e10	1	-1e10	1	-1E+10	1	-1e10	1	-1e10	1	-1E+10	1	-1E+10	1	-1E+10	1
4902624	11	C	10/09/2024	00:37	-128.412	47.482	0	159.70	0	7.6466	0	33.7312	0	26.331	0	158.306	0	122.3	4	41.9	4	-1E+10	1	0.0414	4	0.000399	0	-1E+10	1	-1E+10	1	-1E+10	1
4902624	11	C	10/09/2024	00:37	-128.412	47.482	0	160.70	0	7.5931	0	33.7372	0	26.344	0	159.297	0	121.8	4	41.7	4	-1E+10	1	0.0392	4	0.000357	0	-1E+10	1	-1E+10	1	-1E+10	1
4902624	11	C	10/09/2024	00:37	-128.412	47.482	0	161.00	0	7.5770	0	33.7390	0	26.347	0	159.594	0	-1e10	1	-1e10	1	-1E+10	1	-1e10	1	-1e10	1	-1E+10	1	-1E+10	1	-1E+10	1
4902624	11	C	10/09/2024	00:37	-128.412	47.482	0	161.80	0	7.5722	0	33.7422	0	26.351	0	160.387	0	121.3	4	41.5	4	-1E+10	1	0.0511	4	0.000372	0	-1E+10	1	-1E+10	1	-1E+10	1
4902624	11	C	10/09/2024	00:37	-128.412	47.482	0	162.80	0	7.5662	0	33.7462	0	26.355	0	161.378	0	120.8	4	41.3	4	-1E+10	1	0.0511	4	0.000352	0	-1E+10	1	-1E+10	1	-1E+10	1
4902624	11	C	10/09/2024	00:37	-128.412	47.482	0	163.00	0	7.5650	0	33.7470	0	26.355	0	161.576	0	-1e10	1	-1e10	1	-1E+10	1	-1e10	1	-1e10	1	-1E+10	1	-1E+10	1	-1E+10	1
4902624	11	C	10/09/2024	00:37	-128.412	47.482	0	163.90	0	7.5619	0	33.7569	0	26.364	0	162.468	0	120.6	4	41.2	4	-1E+10	1	0.0365	4	0.000376	0	-1E+10	1	-1E+10	1	-1E+10	1
4902624	11	C	10/09/2024	00:37	-128.412	47.482	0	165.00	0	7.5580	0	33.7690	0	26.374	0	163.558	0	117.6	4	40.2	4	-1E+10	1	0.0511	4	0.000387	0	-1E+10	1	-1E+10	1	-1E+10	1
4902624	11	C	10/09/2024	00:37	-128.412	47.482	0	166.00	0	7.5295	0	33.7690	0	26.378	0	164.549	0	120.4	4	41.1	4	-1E+10	1	0.0511	4	0.000348	0	-1E+10	1	-1E+10	1	-1E+10	1
4902624	11	C	10/09/2024	00:37	-128.412	47.482	0	167.00	0	7.5010	0	33.7690	0	26.382	0	165.540	0	-1e10	1	-1e10	1	-1E+10	1	-1e10	1	-1e10	1	-1E+10	1	-1E+10	1	-1E+10	1
4902624	11	C	10/09/2024	00:37	-128.412	47.482	0	167.10	0	7.4986	0	33.7692	0	26.382	0	165.639	0	119.9	4	41.0	4	-1E+10	1	0.0663	4	0.000349	0	-1E+10	1	-1E+10	1	-1E+10	1
4902624	11	C	10/09/2024	00:37	-128.412	47.482	0	168.10	0	7.4746	0	33.7718	0	26.388	0	166.629	0	119.4	4	40.8	4	-1E+10	1	0.0599	4	0.000373	0	-1E+10	1	-1E+10	1	-1E+10	1
4902624	11	C	10/09/2024	00:37	-128.412	47.482	0	169.00	0	7.4530	0	33.7740	0	26.393	0	167.521	0	-1e10	1	-1e10	1	-1E+10	1	-1e10	1	-1e10	1	-1E+10	1	-1E+10	1	-1E+10	1
4902624	11	C	10/09/2024	00:37	-128.412	47.482	0	169.20	0	7.4487	0	33.7748	0	26.394	0	167.719	0	118.8	4	40.5	4	-1E+10	1	0.0511	4	0.000419	0	-1E+10	1	-1E+10	1	-1E+10	1
4902624	11	C	10/09/2024	00:37	-128.412	47.482	0	170.30	0	7.4250	0	33.7792	0	26.401	0	168.809	0	118.0	4	40.2	4	-1E+10	1	0.0511	4	0.000405	0	-1E+10	1	-1E+10	1	-1E+10	1
4902624	11	C	10/09/2024	00:37	-128.412	47.482	0	171.00	0	7.4100	0	33.7820	0	26.405	0	169.503	0	-1e10	1	-1e10	1	-1E+10	1	-1e10	1	-1e10	1	-1E+10	1	-1E+10	1	-1E+10	1
4902624	11	C	10/09/2024	00:37	-128.412	47.482	0	171.30	0	7.4077	0	33.7829	0	26.406	0	169.800	0	117.0	4	39.9	4	-1E+10	1	0.0511	4	0.000355	0	-1E+10	1	-1E+10	1	-1E+10	1
4902624	11	C	10/09/2024	00:37	-128.412	47.482	0	172.40	0	7.3995	0	33.7862	0	26.410	0	170.890	0	116.0	4	39.5	4	-1E+10	1	0.0499	4	0.000417	0	-1E+10	1	-1E+10	1	-1E+10	1
4902624	11	C	10/09/2024	00:37	-128.412	47.482	0	173.00	0	7.3950	0	33.7880	0	26.412	0	171.485	0	-1e10	1	-1e10	1	-1E+10	1	-1e10	1	-1e10	1	-1E+10	1	-1E+10	1	-1E+10	1
4902624	11	C	10/09/2024	00:37	-128.412	47.482	0	173.40	0	7.3920	0	33.7912	0	26.415	0	171.881	0	114.9	4	39.2	4	-1E+10	1	0.0438	4	0.000387	0	-1E+10	1	-1E+10	1	-1E+10	1
4902624	11	C	10/09/2024	00:37	-128.412	47.482	0	174.50	0	7.3837	0	33.8000	0	26.423	0	172.971	0	114.0	4	38.8	4	-1E+10	1	0.0438	4	0.000368	0	-1E+10	1	-1E+10	1	-1E+10	1
4902624	11	C	10/09/2024	00:37	-128.412	47.482	0	175.00	0	7.3800	0	33.8040	0	26.427	0	173.466	0	-1e10	1	-1e10	1	-1E+10	1	-1e10	1	-1e10	1	-1E+10	1	-1E+10	1	-1E+10	1
4902624	11	C	10/09/2024	00:37	-128.412	47.482	0	175.60	0	7.3806	0	33.8083	0	26.430	0	174.061	0	113.0	4	38.5	4	-1E+10	1	0.0557	4	0.000326	0	-1E+10	1	-1E+10	1	-1E+10	1
4902624	11	C	10/09/2024	00:37	-128.412	47.482	0	176.60	0	7.3815	0	33.8154	0	26.435	0	175.052	0	112.1	4	38.2	4	-1E+10	1	0.0494	4	0.000338	0	-1E+10	1	-1E+10	1	-1E+10	1
4902624	11	C	10/09/2024	00:37	-128.412	47.482	0	177.10	0	7.3820	0	33.8190	0	26.438	0	175.547	0	-1e10	1	-1e10	1	-1E+10	1	-1e10	1	-1e10	1	-1E+10	1	-1E+10	1	-1E+10	1
4902624	11	C	10/09/2024	00:37	-128.412	47.482	0	177.70	0	7.3782	0	33.8228	0	26.442	0	176.141	0	111.4	4	38.0	4	-1E+10	1	0.0402	4	0.000364	0	-1E+10	1	-1E+10	1	-1E+10	1
4902624	11	C	10/09/2024	00:37	-128.412	47.482	0	178.80	0	7.3713	0	33.8297	0	26.448	0	177.231	0	110.9	4	37.8	4	-1E+10	1	0.0398	4	0.000381	0	-1E+10	1	-1E+10	1	-1E+10	1
4902624	11	C	10/09/2024	00:37	-128.412	47.482	0	179.00	0	7.3700	0	33.8310	0	26.449	0	177.429	0	-1e10	1	-1e10	1	-1E+10	1	-1e10	1	-1e10	1	-1E+10	1	-1E+10	1	-1E+10	1
4902624	11	C	10/09/2024	00:37	-128.412	47.482	0	179.80	0	7.3672	0	33.8346	0	26.452	0	178.222	0	110.4	4	37.6	4	-1E+10	1	0.0416	4	0.000387	0	-1E+10	1	-1E+10	1	-1E+10	1
4902624	11	C	10/09/2024	00:37	-128.412	47.482	0	180.90	0	7.3633	0	33.8396	0	26.457	0	179.312	0	110.1	4	37.5	4	-1E+10	1	0.0376	4	0.000384	0	-1E+10	1	-1E+10	1	-1E+10	1
4902624	11	C	10/09/2024	00:37	-128.412	47.482	0	181.00	0	7.3630	0	33.8400	0	26.457	0	179.411	0	-1e10	1	-1e10	1	-1E+10	1	-1e10	1	-1e10	1	-1E+10	1	-1E+10	1	-1E+10	1
4902624	11	C	10/09/2024	00:37	-128.412	47.482	0	182.00	0	7.3535	0	33.8448	0	26.462	0	180.402	0	110.1	4	37.5	4	-1E+10	1	0.0438	4	0.000364	0	-1E+10	1	-1E+10	1	-1E+10	1
4902624	11	C	10/09/2024	00:37	-128.412	47.482	0	183.10	0	7.3430	0	33.8500	0	26.468	0	181.492	0	107.3	4	36.5	4	-1E+10	1	0.0584	4	0.000305	0	-1E+10	1	-1E+10	1	-1E+10	1
4902624	11	C	10/09/2024	00:37	-128.412	47.482	0	184.20	0	7.3166	0	33.8500	0	26.472	0	182.582	0	109.9	4	37.4	4	-1E+10	1	0.0584	4	0.000335	0	-1E+10	1	-1E+10	1	-1E+10	1
4902624	11	C	10/09/2024	00:37	-128.412	47.482	0	185.10	0	7.2950	0	33.8500	0	26.475	0	183.473	0	-1e10	1	-1e10	1	-1E+10	1	-1e10	1	-1e10	1	-1E+10	1	-1E+10	1	-1E+10	1
4902624	11	C	10/09/2024	00:37	-128.412	47.482	0	185.30	0	7.2881	0	33.8503	0	26.476	0	183.671	0	109.8	4	37.3	4	-1E+10	1	0.0483	4	0.000332	0	-1E+10	1	-1E+10	1	-1E+10	1
4902624	11	C	10/09/2024	00:37	-128.412	47.482	0	186.40	0	7.2498	0	33.8521	0	26.483	0	184.761	0	109.4	4	37.2	4	-1E+10	1	0.0438	4	0.000411	0	-1E+10	1	-1E+10	1	-1E+10	1
4902624	11	C	10/09/2024	00:37	-128.412	47.482	0	187.00	0	7.2290	0	33.8530	0	26.486	0	185.356	0	-1e10	1	-1e10	1	-1E+10	1	-1e10	1	-1e10	1	-1E+10	1	-1E+10	1	-1E+10	1
4902624	11	C	10/09/2024	00:37	-128.412	47.482	0	187.40	0	7.2226	0	33.8538	0	26.488	0	185.752	0	109.0	4	37.0	4	-1E+10	1	0.0404	4	0.000409	0	-1E+10	1	-1E+10	1	-1E+10	1
4902624	11	C	10/09/2024	00:37	-128.412	47.482	0	188.50	0	7.2050	0	33.8560	0	26.492	0	186.842	0	108.3	4	36.8	4	-1E+10	1	0.0410	4	0.000356	0	-1E+10	1	-1E+10	1	-1E+10	1
4902624	11	C	10/09/2024	00:37	-128.412	47.482	0	189.00	0	7.1970	0	33.8570	0	26.494	0	187.337	0	-1e10	1	-1e10	1	-1E+10	1	-1e10	1	-1e10	1	-1E+10	1	-1E+10	1	-1E+10	1
4902624	11	C	10/09/2024	00:37	-128.412	47.482	0	189.60	0	7.1964	0	33.8582	0	26.495	0	187.932	0	108.0	4	36.7	4	-1E+10	1	0.0498	4	0.000364	0	-1E+10	1	-1E+10	1	-1E+10	1
4902624	11	C	10/09/2024	00:37	-128.412	47.482	0	190.70	0	7.1953	0	33.8604	0	26.497	0	189.021	0	107.8	4	36.6	4	-1E+10	1	0.0438	4	0.000365	0	-1E+10	1	-1E+10	1	-1E+10	1
4902624	11	C	10/09/2024	00:37	-128.412	47.482	0	191.00	0	7.1950	0	33.8610	0	26.497	0	189.319	0	-1e10	1	-1e10	1	-1E+10	1	-1e10	1	-1e10	1	-1E+10	1	-1E+10	1	-1E+10	1
4902624	11	C	10/09/2024	00:37	-128.412	47.482	0	191.90	0	7.1856	0	33.8628	0	26.500	0	190.210	0	107.8	4	36.6	4	-1E+10	1	0.0438	4	0.000376	0	-1E+10	1	-1E+10	1	-1E+10	1
4902624	11	C	10/09/2024	00:37	-128.412	47.482	0	193.00	0	7.1740	0	33.8650	0	26.503	0	191.300	0	105.1	4	35.7	4	-1E+10	1	0.0500	4	0.000395	0	-1E+10	1	-1E+10	1	-1E+10	1
4902624	11	C	10/09/2024	00:37	-128.412	47.482	0	194.10	0	7.1405	0	33.8650	0	26.508	0	192.390	0	107.7	4	36.5	4	-1E+10	1	0.0451	4	0.000370	0	-1E+10	1	-1E+10	1	-1E+10	1
4902624	11	C	10/09/2024	00:37	-128.412	47.482	0	195.00	0	7.1130	0	33.8650	0	26.512	0	193.282	0	-1e10	1	-1e10	1	-1E+10	1	-1e10	1	-1e10	1	-1E+10	1	-1E+10	1	-1E+10	1
4902624	11	C	10/09/2024	00:37	-128.412	47.482	0	195.20	0	7.1092	0	33.8652	0	26.513	0	193.480	0	107.2	4	36.3	4	-1E+10	1	0.0438	4	0.000341	0	-1E+10	1	-1E+10	1	-1E+10	1
4902624	11	C	10/09/2024	00:37	-128.412	47.482	0	196.40	0	7.0863	0	33.8663	0	26.517	0	194.669	0	106.8	4	36.2	4	-1E+10	1	0.0365	4	0.000311	0	-1E+10	1	-1E+10	1	-1E+10	1
4902624	11	C	10/09/2024	00:37	-128.412	47.482	0	197.10	0	7.0730	0	33.8670	0	26.519	0	195.362	0	-1e10	1	-1e10	1	-1E+10	1	-1e10	1	-1e10	1	-1E+10	1	-1E+10	1	-1E+10	1
4902624	11	C	10/09/2024	00:37	-128.412	47.482	0	197.50	0	7.0694	0	33.8672	0	26.520	0	195.758	0	106.3	4	36.0	4	-1E+10	1	0.0345	4	0.000301	0	-1E+10	1	-1E+10	1	-1E+10	1
4902624	11	C	10/09/2024	00:37	-128.412	47.482	0	198.70	0	7.0586	0	33.8678	0	26.522	0	196.947	0	105.8	4	35.8	4	-1E+10	1	0.0464	4	0.000350	0	-1E+10	1	-1E+10	1	-1E+10	1
4902624	11	C	10/09/2024	00:37	-128.412	47.482	0	199.10	0	7.0550	0	33.8680	0	26.522	0	197.343	0	-1e10	1	-1e10	1	-1E+10	1	-1e10	1	-1e10	1	-1E+10	1	-1E+10	1	-1E+10	1
4902624	11	C	10/09/2024	00:37	-128.412	47.482	0	199.90	0	7.0495	0	33.8684	0	26.523	0	198.136	0	105.3	4	35.6	4	-1E+10	1	0.0480	4	0.000393	0	-1E+10	1	-1E+10	1	-1E+10	1
4902624	11	C	10/09/2024	00:37	-128.412	47.482	0	201.00	0	7.0420	0	33.8690	0	26.525	0	199.226	0	102.0	4	34.5	4	-1E+10	1	0.0365	4	0.000328	0	-1E+10	1	-1E+10	1	-1E+10	1
4902624	11	C	10/09/2024	00:37	-128.412	47.482	0	202.20	0	7.0264	0	33.8708	0	26.528	0	200.415	0	104.1	4	35.2	4	-1E+10	1	0.0438	4	0.000305	0	-1E+10	1	-1E+10	1	-1E+10	1
4902624	11	C	10/09/2024	00:37	-128.412	47.482	0	203.00	0	7.0160	0	33.8720	0	26.531	0	201.207	0	-1e10	1	-1e10	1	-1E+10	1	-1e10	1	-1e10	1	-1E+10	1	-1E+10	1	-1E+10	1
4902624	11	C	10/09/2024	00:37	-128.412	47.482	0	203.30	0	7.0121	0	33.8723	0	26.532	0	201.504	0	103.5	4	35.0	4	-1E+10	1	0.0500	4	0.000315	0	-1E+10	1	-1E+10	1	-1E+10	1
4902624	11	C	10/09/2024	00:37	-128.412	47.482	0	204.50	0	6.9963	0	33.8736	0	26.535	0	202.693	0	102.8	4	34.7	4	-1E+10	1	0.0615	4	0.000375	0	-1E+10	1	-1E+10	1	-1E+10	1
4902624	11	C	10/09/2024	00:37	-128.412	47.482	0	204.90	0	6.9910	0	33.8740	0	26.536	0	203.089	0	-1e10	1	-1e10	1	-1E+10	1	-1e10	1	-1e10	1	-1E+10	1	-1E+10	1	-1E+10	1
4902624	11	C	10/09/2024	00:37	-128.412	47.482	0	205.60	0	6.9773	0	33.8757	0	26.539	0	203.783	0	102.1	4	34.5	4	-1E+10	1	0.0487	4	0.000392	0	-1E+10	1	-1E+10	1	-1E+10	1
4902624	11	C	10/09/2024	00:37	-128.412	47.482	0	206.80	0	6.9539	0	33.8785	0	26.544	0	204.972	0	101.6	4	34.3	4	-1E+10	1	0.0511	4	0.000352	0	-1E+10	1	-1E+10	1	-1E+10	1
4902624	11	C	10/09/2024	00:37	-128.412	47.482	0	207.00	0	6.9500	0	33.8790	0	26.545	0	205.170	0	-1e10	1	-1e10	1	-1E+10	1	-1e10	1	-1e10	1	-1E+10	1	-1E+10	1	-1E+10	1
4902624	11	C	10/09/2024	00:37	-128.412	47.482	0	208.00	0	6.9360	0	33.8790	0	26.547	0	206.161	0	101.3	4	34.2	4	-1E+10	1	0.0573	4	0.000393	0	-1E+10	1	-1E+10	1	-1E+10	1
4902624	11	C	10/09/2024	00:37	-128.412	47.482	0	209.00	0	6.9220	0	33.8790	0	26.549	0	207.151	0	98.4	4	33.2	4	-1E+10	1	0.0467	4	0.000483	0	-1E+10	1	-1E+10	1	-1E+10	1
4902624	11	C	10/09/2024	00:37	-128.412	47.482	0	210.00	0	6.9077	0	33.8795	0	26.551	0	208.142	0	100.7	4	34.0	4	-1E+10	1	0.0555	4	0.000875	0	-1E+10	1	-1E+10	1	-1E+10	1
4902624	11	C	10/09/2024	00:37	-128.412	47.482	0	210.80	0	6.8963	0	33.8799	0	26.553	0	208.934	0	100.4	4	33.9	4	-1E+10	1	0.0438	4	0.002968	0	-1E+10	1	-1E+10	1	-1E+10	1
4902624	11	C	10/09/2024	00:37	-128.412	47.482	0	211.10	0	6.8920	0	33.8800	0	26.554	0	209.232	0	-1e10	1	-1e10	1	-1E+10	1	-1e10	1	-1e10	1	-1E+10	1	-1E+10	1	-1E+10	1
4902624	11	C	10/09/2024	00:37	-128.412	47.482	0	211.50	0	6.8857	0	33.8804	0	26.555	0	209.628	0	100.2	4	33.8	4	-1E+10	1	0.0665	4	0.002384	0	-1E+10	1	-1E+10	1	-1E+10	1
4902624	11	C	10/09/2024	00:37	-128.412	47.482	0	212.20	0	6.8746	0	33.8812	0	26.557	0	210.321	0	99.9	4	33.7	4	-1E+10	1	0.0521	4	0.000902	0	-1E+10	1	-1E+10	1	-1E+10	1
4902624	11	C	10/09/2024	00:37	-128.412	47.482	0	213.00	0	6.8620	0	33.8820	0	26.560	0	211.114	0	97.1	4	32.7	4	-1E+10	1	0.0487	4	0.000532	0	-1E+10	1	-1E+10	1	-1E+10	1
4902624	11	C	10/09/2024	00:37	-128.412	47.482	0	213.70	0	6.8428	0	33.8831	0	26.563	0	211.807	0	99.3	4	33.4	4	-1E+10	1	0.0511	4	0.000563	0	-1E+10	1	-1E+10	1	-1E+10	1
4902624	11	C	10/09/2024	00:37	-128.412	47.482	0	214.40	0	6.8237	0	33.8842	0	26.567	0	212.501	0	98.9	4	33.3	4	-1E+10	1	0.0490	4	0.000457	0	-1E+10	1	-1E+10	1	-1E+10	1
4902624	11	C	10/09/2024	00:37	-128.412	47.482	0	214.90	0	6.8100	0	33.8850	0	26.569	0	212.996	0	-1e10	1	-1e10	1	-1E+10	1	-1e10	1	-1e10	1	-1E+10	1	-1E+10	1	-1E+10	1
4902624	11	C	10/09/2024	00:37	-128.412	47.482	0	215.20	0	6.8071	0	33.8851	0	26.570	0	213.293	0	98.6	4	33.2	4	-1E+10	1	0.0487	4	0.000351	0	-1E+10	1	-1E+10	1	-1E+10	1
4902624	11	C	10/09/2024	00:37	-128.412	47.482	0	215.90	0	6.8005	0	33.8855	0	26.571	0	213.987	0	98.3	4	33.1	4	-1E+10	1	0.0576	4	0.000369	0	-1E+10	1	-1E+10	1	-1E+10	1
4902624	11	C	10/09/2024	00:37	-128.412	47.482	0	216.70	0	6.7929	0	33.8859	0	26.572	0	214.779	0	98.0	4	33.0	4	-1E+10	1	0.0511	4	0.000317	0	-1E+10	1	-1E+10	1	-1E+10	1
4902624	11	C	10/09/2024	00:37	-128.412	47.482	0	216.90	0	6.7910	0	33.8860	0	26.572	0	214.977	0	-1e10	1	-1e10	1	-1E+10	1	-1e10	1	-1e10	1	-1E+10	1	-1E+10	1	-1E+10	1
4902624	11	C	10/09/2024	00:37	-128.412	47.482	0	217.40	0	6.7846	0	33.8867	0	26.574	0	215.473	0	97.8	4	32.9	4	-1E+10	1	0.0511	4	0.000375	0	-1E+10	1	-1E+10	1	-1E+10	1
4902624	11	C	10/09/2024	00:37	-128.412	47.482	0	218.20	0	6.7743	0	33.8879	0	26.576	0	216.265	0	97.5	4	32.8	4	-1E+10	1	0.0511	4	0.000365	0	-1E+10	1	-1E+10	1	-1E+10	1
4902624	11	C	10/09/2024	00:37	-128.412	47.482	0	218.90	0	6.7653	0	33.8889	0	26.578	0	216.958	0	97.3	4	32.7	4	-1E+10	1	0.0380	4	0.000321	0	-1E+10	1	-1E+10	1	-1E+10	1
4902624	11	C	10/09/2024	00:37	-128.412	47.482	0	219.00	0	6.7640	0	33.8890	0	26.578	0	217.057	0	-1e10	1	-1e10	1	-1E+10	1	-1e10	1	-1e10	1	-1E+10	1	-1E+10	1	-1E+10	1
4902624	11	C	10/09/2024	00:37	-128.412	47.482	0	219.70	0	6.7591	0	33.8897	0	26.580	0	217.751	0	97.0	4	32.6	4	-1E+10	1	0.0417	4	0.000400	0	-1E+10	1	-1E+10	1	-1E+10	1
4902624	11	C	10/09/2024	00:37	-128.412	47.482	0	220.50	0	6.7535	0	33.8905	0	26.581	0	218.543	0	96.8	4	32.5	4	-1E+10	1	0.0511	4	0.001290	0	-1E+10	1	-1E+10	1	-1E+10	1
4902624	11	C	10/09/2024	00:37	-128.412	47.482	0	221.00	0	6.7500	0	33.8910	0	26.582	0	219.039	0	-1e10	1	-1e10	1	-1E+10	1	-1e10	1	-1e10	1	-1E+10	1	-1E+10	1	-1E+10	1
4902624	11	C	10/09/2024	00:37	-128.412	47.482	0	221.30	0	6.7466	0	33.8910	0	26.582	0	219.336	0	96.6	4	32.5	4	-1E+10	1	0.0535	4	0.001505	0	-1E+10	1	-1E+10	1	-1E+10	1
4902624	11	C	10/09/2024	00:37	-128.412	47.482	0	222.00	0	6.7385	0	33.8910	0	26.583	0	220.029	0	96.4	4	32.4	4	-1E+10	1	0.0566	4	0.000327	0	-1E+10	1	-1E+10	1	-1E+10	1
4902624	11	C	10/09/2024	00:37	-128.412	47.482	0	222.80	0	6.7293	0	33.8910	0	26.585	0	220.822	0	96.1	4	32.3	4	-1E+10	1	0.0438	4	0.000390	0	-1E+10	1	-1E+10	1	-1E+10	1
4902624	11	C	10/09/2024	00:37	-128.412	47.482	0	223.00	0	6.7270	0	33.8910	0	26.585	0	221.020	0	-1e10	1	-1e10	1	-1E+10	1	-1e10	1	-1e10	1	-1E+10	1	-1E+10	1	-1E+10	1
4902624	11	C	10/09/2024	00:37	-128.412	47.482	0	223.60	0	6.7199	0	33.8904	0	26.585	0	221.614	0	95.7	4	32.1	4	-1E+10	1	0.0438	4	0.000317	0	-1E+10	1	-1E+10	1	-1E+10	1
4902624	11	C	10/09/2024	00:37	-128.412	47.482	0	224.40	0	6.7103	0	33.8897	0	26.586	0	222.407	0	95.2	4	32.0	4	-1E+10	1	0.0613	4	0.003404	0	-1E+10	1	-1E+10	1	-1E+10	1
4902624	11	C	10/09/2024	00:37	-128.412	47.482	0	225.10	0	6.7020	0	33.8890	0	26.587	0	223.100	0	-1e10	1	-1e10	1	-1E+10	1	-1e10	1	-1e10	1	-1E+10	1	-1E+10	1	-1E+10	1
4902624	11	C	10/09/2024	00:37	-128.412	47.482	0	225.20	0	6.7017	0	33.8892	0	26.587	0	223.199	0	94.9	4	31.8	4	-1E+10	1	0.0493	4	0.001369	0	-1E+10	1	-1E+10	1	-1E+10	1
4902624	11	C	10/09/2024	00:37	-128.412	47.482	0	226.00	0	6.6996	0	33.8909	0	26.589	0	223.992	0	94.6	4	31.7	4	-1E+10	1	0.0438	4	0.000379	0	-1E+10	1	-1E+10	1	-1E+10	1
4902624	11	C	10/09/2024	00:37	-128.412	47.482	0	226.80	0	6.6975	0	33.8926	0	26.590	0	224.784	0	94.2	4	31.6	4	-1E+10	1	0.0474	4	0.000492	0	-1E+10	1	-1E+10	1	-1E+10	1
4902624	11	C	10/09/2024	00:37	-128.412	47.482	0	227.00	0	6.6970	0	33.8930	0	26.591	0	224.982	0	-1e10	1	-1e10	1	-1E+10	1	-1e10	1	-1e10	1	-1E+10	1	-1E+10	1	-1E+10	1
4902624	11	C	10/09/2024	00:37	-128.412	47.482	0	227.60	0	6.6859	0	33.8933	0	26.592	0	225.577	0	93.7	4	31.5	4	-1E+10	1	0.0566	4	0.000849	0	-1E+10	1	-1E+10	1	-1E+10	1
4902624	11	C	10/09/2024	00:37	-128.412	47.482	0	228.50	0	6.6691	0	33.8937	0	26.595	0	226.468	0	93.3	4	31.3	4	-1E+10	1	0.0599	4	0.000851	0	-1E+10	1	-1E+10	1	-1E+10	1
4902624	11	C	10/09/2024	00:37	-128.412	47.482	0	229.10	0	6.6580	0	33.8940	0	26.597	0	227.062	0	-1e10	1	-1e10	1	-1E+10	1	-1e10	1	-1e10	1	-1E+10	1	-1E+10	1	-1E+10	1
4902624	11	C	10/09/2024	00:37	-128.412	47.482	0	229.30	0	6.6567	0	33.8947	0	26.597	0	227.260	0	92.9	4	31.2	4	-1E+10	1	0.0511	4	0.000318	0	-1E+10	1	-1E+10	1	-1E+10	1
4902624	11	C	10/09/2024	00:37	-128.412	47.482	0	230.10	0	6.6515	0	33.8975	0	26.600	0	228.053	0	92.7	4	31.1	4	-1E+10	1	0.0511	4	0.000327	0	-1E+10	1	-1E+10	1	-1E+10	1
4902624	11	C	10/09/2024	00:37	-128.412	47.482	0	230.90	0	6.6463	0	33.9003	0	26.603	0	228.845	0	92.5	4	31.0	4	-1E+10	1	0.0511	4	0.000322	0	-1E+10	1	-1E+10	1	-1E+10	1
4902624	11	C	10/09/2024	00:37	-128.412	47.482	0	231.10	0	6.6450	0	33.9010	0	26.604	0	229.043	0	-1e10	1	-1e10	1	-1E+10	1	-1e10	1	-1e10	1	-1E+10	1	-1E+10	1	-1E+10	1
4902624	11	C	10/09/2024	00:37	-128.412	47.482	0	231.80	0	6.6439	0	33.9014	0	26.604	0	229.737	0	92.3	4	30.9	4	-1E+10	1	0.0511	4	0.000375	0	-1E+10	1	-1E+10	1	-1E+10	1
4902624	11	C	10/09/2024	00:37	-128.412	47.482	0	232.60	0	6.6426	0	33.9018	0	26.605	0	230.529	0	92.1	4	30.9	4	-1E+10	1	0.0576	4	0.000302	0	-1E+10	1	-1E+10	1	-1E+10	1
4902624	11	C	10/09/2024	00:37	-128.412	47.482	0	233.00	0	6.6420	0	33.9020	0	26.605	0	230.925	0	-1e10	1	-1e10	1	-1E+10	1	-1e10	1	-1e10	1	-1E+10	1	-1E+10	1	-1E+10	1
4902624	11	C	10/09/2024	00:37	-128.412	47.482	0	233.40	0	6.6326	0	33.9022	0	26.606	0	231.322	0	92.0	4	30.8	4	-1E+10	1	0.0470	4	0.000357	0	-1E+10	1	-1E+10	1	-1E+10	1
4902624	11	C	10/09/2024	00:37	-128.412	47.482	0	234.20	0	6.6138	0	33.9026	0	26.609	0	232.114	0	91.8	4	30.8	4	-1E+10	1	0.0482	4	0.000446	0	-1E+10	1	-1E+10	1	-1E+10	1
4902624	11	C	10/09/2024	00:37	-128.412	47.482	0	235.00	0	6.5950	0	33.9030	0	26.612	0	232.907	0	-1e10	1	-1e10	1	-1E+10	1	-1e10	1	-1e10	1	-1E+10	1	-1E+10	1	-1E+10	1
4902624	11	C	10/09/2024	00:37	-128.412	47.482	0	235.10	0	6.5940	0	33.9029	0	26.612	0	233.006	0	91.5	4	30.7	4	-1E+10	1	0.0548	4	0.000510	0	-1E+10	1	-1E+10	1	-1E+10	1
4902624	11	C	10/09/2024	00:37	-128.412	47.482	0	235.90	0	6.5864	0	33.9021	0	26.613	0	233.798	0	91.3	4	30.6	4	-1E+10	1	0.0608	4	0.000860	0	-1E+10	1	-1E+10	1	-1E+10	1
4902624	11	C	10/09/2024	00:37	-128.412	47.482	0	236.80	0	6.5779	0	33.9013	0	26.613	0	234.690	0	91.1	4	30.5	4	-1E+10	1	0.0591	4	0.001264	0	-1E+10	1	-1E+10	1	-1E+10	1
4902624	11	C	10/09/2024	00:37	-128.412	47.482	0	237.10	0	6.5750	0	33.9010	0	26.613	0	234.987	0	-1e10	1	-1e10	1	-1E+10	1	-1e10	1	-1e10	1	-1E+10	1	-1E+10	1	-1E+10	1
4902624	11	C	10/09/2024	00:37	-128.412	47.482	0	237.60	0	6.5624	0	33.9010	0	26.615	0	235.482	0	90.9	4	30.4	4	-1E+10	1	0.0438	4	0.000633	0	-1E+10	1	-1E+10	1	-1E+10	1
4902624	11	C	10/09/2024	00:37	-128.412	47.482	0	238.50	0	6.5396	0	33.9010	0	26.618	0	236.373	0	90.6	4	30.3	4	-1E+10	1	0.0438	4	0.000422	0	-1E+10	1	-1E+10	1	-1E+10	1
4902624	11	C	10/09/2024	00:37	-128.412	47.482	0	239.00	0	6.5270	0	33.9010	0	26.619	0	236.869	0	-1e10	1	-1e10	1	-1E+10	1	-1e10	1	-1e10	1	-1E+10	1	-1E+10	1	-1E+10	1
4902624	11	C	10/09/2024	00:37	-128.412	47.482	0	239.30	0	6.5210	0	33.9009	0	26.620	0	237.166	0	90.3	4	30.2	4	-1E+10	1	0.0584	4	0.000434	0	-1E+10	1	-1E+10	1	-1E+10	1
4902624	11	C	10/09/2024	00:37	-128.412	47.482	0	240.20	0	6.5030	0	33.9004	0	26.622	0	238.057	0	90.0	4	30.1	4	-1E+10	1	0.0405	4	0.000319	0	-1E+10	1	-1E+10	1	-1E+10	1
4902624	11	C	10/09/2024	00:37	-128.412	47.482	0	241.00	0	6.4870	0	33.9000	0	26.624	0	238.850	0	-1e10	1	-1e10	1	-1E+10	1	-1e10	1	-1e10	1	-1E+10	1	-1E+10	1	-1E+10	1
4902624	11	C	10/09/2024	00:37	-128.412	47.482	0	241.10	0	6.4856	0	33.9000	0	26.624	0	238.949	0	89.6	4	29.9	4	-1E+10	1	0.0365	4	0.000342	0	-1E+10	1	-1E+10	1	-1E+10	1
4902624	11	C	10/09/2024	00:37	-128.412	47.482	0	241.90	0	6.4746	0	33.9004	0	26.626	0	239.741	0	89.2	4	29.8	4	-1E+10	1	0.0527	4	0.000331	0	-1E+10	1	-1E+10	1	-1E+10	1
4902624	11	C	10/09/2024	00:37	-128.412	47.482	0	242.80	0	6.4621	0	33.9009	0	26.628	0	240.633	0	88.7	4	29.6	4	-1E+10	1	0.0584	4	0.000299	0	-1E+10	1	-1E+10	1	-1E+10	1
4902624	11	C	10/09/2024	00:37	-128.412	47.482	0	243.10	0	6.4580	0	33.9010	0	26.629	0	240.930	0	-1e10	1	-1e10	1	-1E+10	1	-1e10	1	-1e10	1	-1E+10	1	-1E+10	1	-1E+10	1
4902624	11	C	10/09/2024	00:37	-128.412	47.482	0	243.60	0	6.4519	0	33.9010	0	26.629	0	241.425	0	88.2	4	29.4	4	-1E+10	1	0.0491	4	0.000309	0	-1E+10	1	-1E+10	1	-1E+10	1
4902624	11	C	10/09/2024	00:37	-128.412	47.482	0	244.50	0	6.4411	0	33.9010	0	26.631	0	242.316	0	87.6	4	29.2	4	-1E+10	1	0.0484	4	0.000357	0	-1E+10	1	-1E+10	1	-1E+10	1
4902624	11	C	10/09/2024	00:37	-128.412	47.482	0	245.00	0	6.4350	0	33.9010	0	26.632	0	242.812	0	-1e10	1	-1e10	1	-1E+10	1	-1e10	1	-1e10	1	-1E+10	1	-1E+10	1	-1E+10	1
4902624	11	C	10/09/2024	00:37	-128.412	47.482	0	245.40	0	6.4348	0	33.9018	0	26.632	0	243.208	0	86.9	4	29.0	4	-1E+10	1	0.0750	4	0.000386	0	-1E+10	1	-1E+10	1	-1E+10	1
4902624	11	C	10/09/2024	00:37	-128.412	47.482	0	246.30	0	6.4344	0	33.9036	0	26.634	0	244.099	0	86.2	4	28.8	4	-1E+10	1	0.0511	4	0.000328	0	-1E+10	1	-1E+10	1	-1E+10	1
4902624	11	C	10/09/2024	00:37	-128.412	47.482	0	247.00	0	6.4340	0	33.9050	0	26.635	0	244.793	0	-1e10	1	-1e10	1	-1E+10	1	-1e10	1	-1e10	1	-1E+10	1	-1E+10	1	-1E+10	1
4902624	11	C	10/09/2024	00:37	-128.412	47.482	0	247.10	0	6.4355	0	33.9056	0	26.635	0	244.892	0	85.6	4	28.6	4	-1E+10	1	0.0511	4	0.000337	0	-1E+10	1	-1E+10	1	-1E+10	1
4902624	11	C	10/09/2024	00:37	-128.412	47.482	0	248.00	0	6.4488	0	33.9107	0	26.637	0	245.783	0	85.0	4	28.4	4	-1E+10	1	0.0454	4	0.007384	0	-1E+10	1	-1E+10	1	-1E+10	1
4902624	11	C	10/09/2024	00:37	-128.412	47.482	0	248.90	0	6.4620	0	33.9159	0	26.640	0	246.674	0	84.6	4	28.2	4	-1E+10	1	0.0489	4	0.003558	0	-1E+10	1	-1E+10	1	-1E+10	1
4902624	11	C	10/09/2024	00:37	-128.412	47.482	0	249.10	0	6.4650	0	33.9170	0	26.640	0	246.873	0	-1e10	1	-1e10	1	-1E+10	1	-1e10	1	-1e10	1	-1E+10	1	-1E+10	1	-1E+10	1
4902624	11	C	10/09/2024	00:37	-128.412	47.482	0	249.70	0	6.4748	0	33.9195	0	26.641	0	247.467	0	84.2	4	28.1	4	-1E+10	1	0.0478	4	0.000703	0	-1E+10	1	-1E+10	1	-1E+10	1
4902624	11	C	10/09/2024	00:37	-128.412	47.482	0	250.60	0	6.4895	0	33.9233	0	26.642	0	248.358	0	84.0	4	28.1	4	-1E+10	1	0.0487	4	0.000289	0	-1E+10	1	-1E+10	1	-1E+10	1
4902624	11	C	10/09/2024	00:37	-128.412	47.482	0	251.00	0	6.4960	0	33.9250	0	26.643	0	248.754	0	-1e10	1	-1e10	1	-1E+10	1	-1e10	1	-1e10	1	-1E+10	1	-1E+10	1	-1E+10	1
4902624	11	C	10/09/2024	00:37	-128.412	47.482	0	251.50	0	6.4977	0	33.9260	0	26.643	0	249.250	0	83.7	4	28.0	4	-1E+10	1	0.0540	4	0.000301	0	-1E+10	1	-1E+10	1	-1E+10	1
4902624	11	C	10/09/2024	00:37	-128.412	47.482	0	252.40	0	6.5009	0	33.9278	0	26.644	0	250.141	0	83.4	4	27.9	4	-1E+10	1	0.0451	4	0.000301	0	-1E+10	1	-1E+10	1	-1E+10	1
4902624	11	C	10/09/2024	00:37	-128.412	47.482	0	253.00	0	6.5030	0	33.9290	0	26.645	0	250.735	0	-1e10	1	-1e10	1	-1E+10	1	-1e10	1	-1e10	1	-1E+10	1	-1E+10	1	-1E+10	1
4902624	11	C	10/09/2024	00:37	-128.412	47.482	0	253.30	0	6.4958	0	33.9286	0	26.645	0	251.032	0	83.2	4	27.8	4	-1E+10	1	0.0511	4	0.000340	0	-1E+10	1	-1E+10	1	-1E+10	1
4902624	11	C	10/09/2024	00:37	-128.412	47.482	0	254.10	0	6.4766	0	33.9273	0	26.647	0	251.825	0	82.8	4	27.7	4	-1E+10	1	0.0511	4	0.000316	0	-1E+10	1	-1E+10	1	-1E+10	1
4902624	11	C	10/09/2024	00:37	-128.412	47.482	0	255.00	0	6.4550	0	33.9260	0	26.649	0	252.716	0	80.2	4	26.8	4	-1E+10	1	0.0571	4	0.000287	0	-1E+10	1	-1E+10	1	-1E+10	1
4902624	11	C	10/09/2024	00:37	-128.412	47.482	0	255.90	0	6.4578	0	33.9265	0	26.649	0	253.608	0	81.9	4	27.3	4	-1E+10	1	0.0584	4	0.000273	0	-1E+10	1	-1E+10	1	-1E+10	1
4902624	11	C	10/09/2024	00:37	-128.412	47.482	0	256.80	0	6.4607	0	33.9269	0	26.649	0	254.499	0	81.4	4	27.2	4	-1E+10	1	0.0438	4	0.000301	0	-1E+10	1	-1E+10	1	-1E+10	1
4902624	11	C	10/09/2024	00:37	-128.412	47.482	0	256.90	0	6.4610	0	33.9270	0	26.649	0	254.598	0	-1e10	1	-1e10	1	-1E+10	1	-1e10	1	-1e10	1	-1E+10	1	-1E+10	1	-1E+10	1
4902624	11	C	10/09/2024	00:37	-128.412	47.482	0	257.60	0	6.4633	0	33.9293	0	26.650	0	255.291	0	81.0	4	27.0	4	-1E+10	1	0.0398	4	0.000300	0	-1E+10	1	-1E+10	1	-1E+10	1
4902624	11	C	10/09/2024	00:37	-128.412	47.482	0	258.50	0	6.4663	0	33.9323	0	26.652	0	256.183	0	80.6	4	26.9	4	-1E+10	1	0.0482	4	0.000306	0	-1E+10	1	-1E+10	1	-1E+10	1
4902624	11	C	10/09/2024	00:37	-128.412	47.482	0	259.00	0	6.4680	0	33.9340	0	26.653	0	256.678	0	-1e10	1	-1e10	1	-1E+10	1	-1e10	1	-1e10	1	-1E+10	1	-1E+10	1	-1E+10	1
4902624	11	C	10/09/2024	00:37	-128.412	47.482	0	259.40	0	6.4674	0	33.9346	0	26.654	0	257.074	0	80.4	4	26.8	4	-1E+10	1	0.0569	4	0.000342	0	-1E+10	1	-1E+10	1	-1E+10	1
4902624	11	C	10/09/2024	00:37	-128.412	47.482	0	260.30	0	6.4661	0	33.9360	0	26.655	0	257.965	0	80.1	4	26.8	4	-1E+10	1	0.0511	4	0.000256	0	-1E+10	1	-1E+10	1	-1E+10	1
4902624	11	C	10/09/2024	00:37	-128.412	47.482	0	261.00	0	6.4650	0	33.9370	0	26.656	0	258.659	0	-1e10	1	-1e10	1	-1E+10	1	-1e10	1	-1e10	1	-1E+10	1	-1E+10	1	-1E+10	1
4902624	11	C	10/09/2024	00:37	-128.412	47.482	0	261.20	0	6.4644	0	33.9373	0	26.657	0	258.857	0	79.9	4	26.7	4	-1E+10	1	0.0511	4	0.000246	0	-1E+10	1	-1E+10	1	-1E+10	1
4902624	11	C	10/09/2024	00:37	-128.412	47.482	0	262.20	0	6.4614	0	33.9388	0	26.658	0	259.847	0	79.7	4	26.6	4	-1E+10	1	0.0511	4	0.000267	0	-1E+10	1	-1E+10	1	-1E+10	1
4902624	11	C	10/09/2024	00:37	-128.412	47.482	0	263.00	0	6.4590	0	33.9400	0	26.659	0	260.640	0	-1e10	1	-1e10	1	-1E+10	1	-1e10	1	-1e10	1	-1E+10	1	-1E+10	1	-1E+10	1
4902624	11	C	10/09/2024	00:37	-128.412	47.482	0	263.10	0	6.4585	0	33.9400	0	26.659	0	260.739	0	79.5	4	26.5	4	-1E+10	1	0.0569	4	0.000279	0	-1E+10	1	-1E+10	1	-1E+10	1
4902624	11	C	10/09/2024	00:37	-128.412	47.482	0	264.00	0	6.4540	0	33.9400	0	26.660	0	261.630	0	79.3	4	26.5	4	-1E+10	1	0.0533	4	0.000289	0	-1E+10	1	-1E+10	1	-1E+10	1
4902624	11	C	10/09/2024	00:37	-128.412	47.482	0	264.90	0	6.4495	0	33.9400	0	26.661	0	262.521	0	79.1	4	26.4	4	-1E+10	1	0.0511	4	0.000280	0	-1E+10	1	-1E+10	1	-1E+10	1
4902624	11	C	10/09/2024	00:37	-128.412	47.482	0	265.00	0	6.4490	0	33.9400	0	26.661	0	262.620	0	-1e10	1	-1e10	1	-1E+10	1	-1e10	1	-1e10	1	-1E+10	1	-1E+10	1	-1E+10	1
4902624	11	C	10/09/2024	00:37	-128.412	47.482	0	265.80	0	6.4456	0	33.9408	0	26.662	0	263.413	0	78.9	4	26.4	4	-1E+10	1	0.0511	4	0.000817	0	-1E+10	1	-1E+10	1	-1E+10	1
4902624	11	C	10/09/2024	00:37	-128.412	47.482	0	266.70	0	6.4417	0	33.9416	0	26.663	0	264.304	0	78.7	4	26.3	4	-1E+10	1	0.0511	4	0.001053	0	-1E+10	1	-1E+10	1	-1E+10	1
4902624	11	C	10/09/2024	00:37	-128.412	47.482	0	267.10	0	6.4400	0	33.9420	0	26.664	0	264.700	0	-1e10	1	-1e10	1	-1E+10	1	-1e10	1	-1e10	1	-1E+10	1	-1E+10	1	-1E+10	1
4902624	11	C	10/09/2024	00:37	-128.412	47.482	0	267.60	0	6.4330	0	33.9420	0	26.664	0	265.195	0	78.5	4	26.2	4	-1E+10	1	0.0511	4	0.000267	0	-1E+10	1	-1E+10	1	-1E+10	1
4902624	11	C	10/09/2024	00:37	-128.412	47.482	0	268.50	0	6.4204	0	33.9420	0	26.666	0	266.087	0	78.4	4	26.2	4	-1E+10	1	0.0511	4	0.000257	0	-1E+10	1	-1E+10	1	-1E+10	1
4902624	11	C	10/09/2024	00:37	-128.412	47.482	0	269.10	0	6.4120	0	33.9420	0	26.667	0	266.681	0	-1e10	1	-1e10	1	-1E+10	1	-1e10	1	-1e10	1	-1E+10	1	-1E+10	1	-1E+10	1
4902624	11	C	10/09/2024	00:37	-128.412	47.482	0	269.40	0	6.4105	0	33.9416	0	26.667	0	266.978	0	78.2	4	26.1	4	-1E+10	1	0.0511	4	0.000281	0	-1E+10	1	-1E+10	1	-1E+10	1
4902624	11	C	10/09/2024	00:37	-128.412	47.482	0	270.30	0	6.4060	0	33.9402	0	26.667	0	267.869	0	78.1	4	26.0	4	-1E+10	1	0.0380	4	0.000819	0	-1E+10	1	-1E+10	1	-1E+10	1
4902624	11	C	10/09/2024	00:37	-128.412	47.482	0	271.10	0	6.4020	0	33.9390	0	26.666	0	268.662	0	-1e10	1	-1e10	1	-1E+10	1	-1e10	1	-1e10	1	-1E+10	1	-1E+10	1	-1E+10	1
4902624	11	C	10/09/2024	00:37	-128.412	47.482	0	271.20	0	6.3986	0	33.9388	0	26.666	0	268.761	0	77.9	4	26.0	4	-1E+10	1	0.0524	4	0.000427	0	-1E+10	1	-1E+10	1	-1E+10	1
4902624	11	C	10/09/2024	00:37	-128.412	47.482	0	272.10	0	6.3678	0	33.9374	0	26.669	0	269.652	0	77.6	4	25.9	4	-1E+10	1	0.0487	4	0.000273	0	-1E+10	1	-1E+10	1	-1E+10	1
4902624	11	C	10/09/2024	00:37	-128.412	47.482	0	273.00	0	6.3370	0	33.9360	0	26.672	0	270.543	0	75.2	4	25.1	4	-1E+10	1	0.0478	4	0.000313	0	-1E+10	1	-1E+10	1	-1E+10	1
4902624	11	C	10/09/2024	00:37	-128.412	47.482	0	273.90	0	6.3068	0	33.9342	0	26.675	0	271.435	0	76.8	4	25.6	4	-1E+10	1	0.0511	4	0.000322	0	-1E+10	1	-1E+10	1	-1E+10	1
4902624	11	C	10/09/2024	00:37	-128.412	47.482	0	274.80	0	6.2767	0	33.9324	0	26.677	0	272.326	0	76.3	4	25.4	4	-1E+10	1	0.0496	4	0.000290	0	-1E+10	1	-1E+10	1	-1E+10	1
4902624	11	C	10/09/2024	00:37	-128.412	47.482	0	275.00	0	6.2700	0	33.9320	0	26.678	0	272.524	0	-1e10	1	-1e10	1	-1E+10	1	-1e10	1	-1e10	1	-1E+10	1	-1E+10	1	-1E+10	1
4902624	11	C	10/09/2024	00:37	-128.412	47.482	0	275.70	0	6.2644	0	33.9330	0	26.679	0	273.217	0	75.8	4	25.2	4	-1E+10	1	0.0445	4	0.000279	0	-1E+10	1	-1E+10	1	-1E+10	1
4902624	11	C	10/09/2024	00:37	-128.412	47.482	0	276.70	0	6.2564	0	33.9346	0	26.681	0	274.207	0	75.2	4	25.0	4	-1E+10	1	0.0511	4	0.000257	0	-1E+10	1	-1E+10	1	-1E+10	1
4902624	11	C	10/09/2024	00:37	-128.412	47.482	0	277.00	0	6.2540	0	33.9350	0	26.682	0	274.505	0	-1e10	1	-1e10	1	-1E+10	1	-1e10	1	-1e10	1	-1E+10	1	-1E+10	1	-1E+10	1
4902624	11	C	10/09/2024	00:37	-128.412	47.482	0	277.60	0	6.2603	0	33.9377	0	26.683	0	275.099	0	74.6	4	24.8	4	-1E+10	1	0.0571	4	0.000315	0	-1E+10	1	-1E+10	1	-1E+10	1
4902624	11	C	10/09/2024	00:37	-128.412	47.482	0	278.50	0	6.2698	0	33.9417	0	26.685	0	275.990	0	74.2	4	24.7	4	-1E+10	1	0.0584	4	0.000300	0	-1E+10	1	-1E+10	1	-1E+10	1
4902624	11	C	10/09/2024	00:37	-128.412	47.482	0	279.00	0	6.2750	0	33.9440	0	26.687	0	276.485	0	-1e10	1	-1e10	1	-1E+10	1	-1e10	1	-1e10	1	-1E+10	1	-1E+10	1	-1E+10	1
4902624	11	C	10/09/2024	00:37	-128.412	47.482	0	279.50	0	6.2730	0	33.9453	0	26.688	0	276.980	0	73.9	4	24.6	4	-1E+10	1	0.0487	4	0.000293	0	-1E+10	1	-1E+10	1	-1E+10	1
4902624	11	C	10/09/2024	00:37	-128.412	47.482	0	280.40	0	6.2694	0	33.9475	0	26.690	0	277.872	0	73.7	4	24.5	4	-1E+10	1	0.0504	4	0.000303	0	-1E+10	1	-1E+10	1	-1E+10	1
4902624	11	C	10/09/2024	00:37	-128.412	47.482	0	281.00	0	6.2670	0	33.9490	0	26.692	0	278.466	0	-1e10	1	-1e10	1	-1E+10	1	-1e10	1	-1e10	1	-1E+10	1	-1E+10	1	-1E+10	1
4902624	11	C	10/09/2024	00:37	-128.412	47.482	0	281.40	0	6.2640	0	33.9492	0	26.692	0	278.862	0	73.5	4	24.4	4	-1E+10	1	0.0616	4	0.000305	0	-1E+10	1	-1E+10	1	-1E+10	1
4902624	11	C	10/09/2024	00:37	-128.412	47.482	0	282.30	0	6.2572	0	33.9496	0	26.693	0	279.753	0	73.3	4	24.4	4	-1E+10	1	0.0608	4	0.000289	0	-1E+10	1	-1E+10	1	-1E+10	1
4902624	11	C	10/09/2024	00:37	-128.412	47.482	0	283.00	0	6.2520	0	33.9500	0	26.694	0	280.446	0	-1e10	1	-1e10	1	-1E+10	1	-1e10	1	-1e10	1	-1E+10	1	-1E+10	1	-1E+10	1
4902624	11	C	10/09/2024	00:37	-128.412	47.482	0	283.30	0	6.2511	0	33.9503	0	26.695	0	280.744	0	73.2	4	24.3	4	-1E+10	1	0.0511	4	0.000281	0	-1E+10	1	-1E+10	1	-1E+10	1
4902624	11	C	10/09/2024	00:37	-128.412	47.482	0	284.20	0	6.2484	0	33.9512	0	26.696	0	281.635	0	73.0	4	24.3	4	-1E+10	1	0.0511	4	0.000281	0	-1E+10	1	-1E+10	1	-1E+10	1
4902624	11	C	10/09/2024	00:37	-128.412	47.482	0	285.00	0	6.2460	0	33.9520	0	26.697	0	282.427	0	-1e10	1	-1e10	1	-1E+10	1	-1e10	1	-1e10	1	-1E+10	1	-1E+10	1	-1E+10	1
4902624	11	C	10/09/2024	00:37	-128.412	47.482	0	285.10	0	6.2457	0	33.9520	0	26.697	0	282.526	0	72.9	4	24.2	4	-1E+10	1	0.0511	4	0.000281	0	-1E+10	1	-1E+10	1	-1E+10	1
4902624	11	C	10/09/2024	00:37	-128.412	47.482	0	286.10	0	6.2432	0	33.9525	0	26.697	0	283.516	0	72.7	4	24.2	4	-1E+10	1	0.0633	4	0.000310	0	-1E+10	1	-1E+10	1	-1E+10	1
4902624	11	C	10/09/2024	00:37	-128.412	47.482	0	287.00	0	6.2410	0	33.9530	0	26.698	0	284.408	0	70.6	4	23.5	4	-1E+10	1	0.0487	4	0.000279	0	-1E+10	1	-1E+10	1	-1E+10	1
4902624	11	C	10/09/2024	00:37	-128.412	47.482	0	287.90	0	6.2347	0	33.9543	0	26.700	0	285.299	0	72.2	4	24.0	4	-1E+10	1	0.0438	4	0.000310	0	-1E+10	1	-1E+10	1	-1E+10	1
4902624	11	C	10/09/2024	00:37	-128.412	47.482	0	288.90	0	6.2277	0	33.9559	0	26.702	0	286.289	0	72.0	4	23.9	4	-1E+10	1	0.0484	4	0.000290	0	-1E+10	1	-1E+10	1	-1E+10	1
4902624	11	C	10/09/2024	00:37	-128.412	47.482	0	289.00	0	6.2270	0	33.9560	0	26.702	0	286.388	0	-1e10	1	-1e10	1	-1E+10	1	-1e10	1	-1e10	1	-1E+10	1	-1E+10	1	-1E+10	1
4902624	11	C	10/09/2024	00:37	-128.412	47.482	0	289.90	0	6.2203	0	33.9560	0	26.703	0	287.279	0	71.8	4	23.8	4	-1E+10	1	0.0471	4	0.000314	0	-1E+10	1	-1E+10	1	-1E+10	1
4902624	11	C	10/09/2024	00:37	-128.412	47.482	0	290.80	0	6.2135	0	33.9560	0	26.704	0	288.171	0	71.6	4	23.8	4	-1E+10	1	0.0467	4	0.000323	0	-1E+10	1	-1E+10	1	-1E+10	1
4902624	11	C	10/09/2024	00:37	-128.412	47.482	0	291.00	0	6.2120	0	33.9560	0	26.704	0	288.369	0	-1e10	1	-1e10	1	-1E+10	1	-1e10	1	-1e10	1	-1E+10	1	-1E+10	1	-1E+10	1
4902624	11	C	10/09/2024	00:37	-128.412	47.482	0	291.70	0	6.2067	0	33.9564	0	26.705	0	289.062	0	71.4	4	23.7	4	-1E+10	1	0.0509	4	0.000279	0	-1E+10	1	-1E+10	1	-1E+10	1
4902624	11	C	10/09/2024	00:37	-128.412	47.482	0	293.00	0	6.1970	0	33.9570	0	26.707	0	290.349	0	-1e10	1	-1e10	1	-1E+10	1	-1e10	1	-1e10	1	-1E+10	1	-1E+10	1	-1E+10	1
4902624	11	C	10/09/2024	00:37	-128.412	47.482	0	295.00	0	6.1740	0	33.9600	0	26.712	0	292.330	0	-1e10	1	-1e10	1	-1E+10	1	-1e10	1	-1e10	1	-1E+10	1	-1E+10	1	-1E+10	1
4902624	11	C	10/09/2024	00:37	-128.412	47.482	0	297.00	0	6.1560	0	33.9610	0	26.715	0	294.310	0	-1e10	1	-1e10	1	-1E+10	1	-1e10	1	-1e10	1	-1E+10	1	-1E+10	1	-1E+10	1
4902624	11	C	10/09/2024	00:37	-128.412	47.482	0	299.00	0	6.1260	0	33.9600	0	26.718	0	296.291	0	-1e10	1	-1e10	1	-1E+10	1	-1e10	1	-1e10	1	-1E+10	1	-1E+10	1	-1E+10	1
4902624	11	C	10/09/2024	00:37	-128.412	47.482	0	301.20	0	6.0943	0	33.9596	0	26.722	0	298.469	0	70.0	4	23.2	4	-1E+10	1	0.0438	4	0.000242	0	-1E+10	1	-1E+10	1	-1E+10	1
4902624	11	C	10/09/2024	00:37	-128.412	47.482	0	304.90	0	6.0410	0	33.9590	0	26.728	0	302.133	0	-1e10	1	-1e10	1	-1E+10	1	-1e10	1	-1e10	1	-1E+10	1	-1E+10	1	-1E+10	1
4902624	11	C	10/09/2024	00:37	-128.412	47.482	0	310.70	0	5.9523	0	33.9538	0	26.735	0	307.876	0	70.9	4	23.4	4	-1E+10	1	0.0444	4	0.000414	0	-1E+10	1	-1E+10	1	-1E+10	1
4902624	11	C	10/09/2024	00:37	-128.412	47.482	0	314.90	0	5.8880	0	33.9500	0	26.740	0	312.035	0	-1e10	1	-1e10	1	-1E+10	1	-1e10	1	-1e10	1	-1E+10	1	-1E+10	1	-1E+10	1
4902624	11	C	10/09/2024	00:37	-128.412	47.482	0	320.20	0	5.8382	0	33.9511	0	26.747	0	317.282	0	68.7	4	22.6	4	-1E+10	1	0.0578	4	0.000257	0	-1E+10	1	-1E+10	1	-1E+10	1
4902624	11	C	10/09/2024	00:37	-128.412	47.482	0	324.80	0	5.7950	0	33.9520	0	26.754	0	321.837	0	-1e10	1	-1e10	1	-1E+10	1	-1e10	1	-1e10	1	-1E+10	1	-1E+10	1	-1E+10	1
4902624	11	C	10/09/2024	00:37	-128.412	47.482	0	329.60	0	5.7701	0	33.9562	0	26.760	0	326.589	0	65.5	4	21.5	4	-1E+10	1	0.0444	4	0.000257	0	-1E+10	1	-1E+10	1	-1E+10	1
4902624	11	C	10/09/2024	00:37	-128.412	47.482	0	335.00	0	5.7420	0	33.9610	0	26.767	0	331.936	0	-1e10	1	-1e10	1	-1E+10	1	-1e10	1	-1e10	1	-1E+10	1	-1E+10	1	-1E+10	1
4902624	11	C	10/09/2024	00:37	-128.412	47.482	0	339.10	0	5.7289	0	33.9667	0	26.773	0	335.995	0	61.3	4	20.1	4	-1E+10	1	0.0584	4	0.000256	0	-1E+10	1	-1E+10	1	-1E+10	1
4902624	11	C	10/09/2024	00:37	-128.412	47.482	0	345.00	0	5.7100	0	33.9750	0	26.782	0	341.836	0	-1e10	1	-1e10	1	-1E+10	1	-1e10	1	-1e10	1	-1E+10	1	-1E+10	1	-1E+10	1
4902624	11	C	10/09/2024	00:37	-128.412	47.482	0	348.60	0	5.6909	0	33.9786	0	26.788	0	345.400	0	58.0	4	19.0	4	-1E+10	1	0.0581	4	0.000232	0	-1E+10	1	-1E+10	1	-1E+10	1
4902624	11	C	10/09/2024	00:37	-128.412	47.482	0	355.00	0	5.6570	0	33.9850	0	26.797	0	351.736	0	-1e10	1	-1e10	1	-1E+10	1	-1e10	1	-1e10	1	-1E+10	1	-1E+10	1	-1E+10	1
4902624	11	C	10/09/2024	00:37	-128.412	47.482	0	358.40	0	5.6353	0	33.9877	0	26.802	0	355.102	0	54.9	4	18.0	4	-1E+10	1	0.0511	4	0.000211	0	-1E+10	1	-1E+10	1	-1E+10	1
4902624	11	C	10/09/2024	00:37	-128.412	47.482	0	365.20	0	5.5920	0	33.9930	0	26.811	0	361.833	0	-1e10	1	-1e10	1	-1E+10	1	-1e10	1	-1e10	1	-1E+10	1	-1E+10	1	-1E+10	1
4902624	11	C	10/09/2024	00:37	-128.412	47.482	0	368.30	0	5.5629	0	33.9952	0	26.816	0	364.902	0	52.1	4	17.1	4	-1E+10	1	0.0517	4	0.000234	0	-1E+10	1	-1E+10	1	-1E+10	1
4902624	11	C	10/09/2024	00:37	-128.412	47.482	0	375.00	0	5.5000	0	34.0000	0	26.828	0	371.534	0	-1e10	1	-1e10	1	-1E+10	1	-1e10	1	-1e10	1	-1E+10	1	-1E+10	1	-1E+10	1
4902624	11	C	10/09/2024	00:37	-128.412	47.482	0	378.50	0	5.4782	0	34.0028	0	26.833	0	374.998	0	49.6	4	16.2	4	-1E+10	1	0.0649	4	0.000254	0	-1E+10	1	-1E+10	1	-1E+10	1
4902624	11	C	10/09/2024	00:37	-128.412	47.482	0	385.10	0	5.4370	0	34.0080	0	26.842	0	381.531	0	-1e10	1	-1e10	1	-1E+10	1	-1e10	1	-1e10	1	-1E+10	1	-1E+10	1	-1E+10	1
4902624	11	C	10/09/2024	00:37	-128.412	47.482	0	388.90	0	5.4190	0	34.0107	0	26.846	0	385.292	0	47.1	4	15.4	4	-1E+10	1	0.0444	4	0.000197	0	-1E+10	1	-1E+10	1	-1E+10	1
4902624	11	C	10/09/2024	00:37	-128.412	47.482	0	395.00	0	5.3900	0	34.0150	0	26.853	0	391.330	0	-1e10	1	-1e10	1	-1E+10	1	-1e10	1	-1e10	1	-1E+10	1	-1E+10	1	-1E+10	1
4902624	11	C	10/09/2024	00:37	-128.412	47.482	0	399.40	0	5.3764	0	34.0203	0	26.859	0	395.685	0	44.7	4	14.6	4	-1E+10	1	0.0584	4	0.000187	0	-1E+10	1	-1E+10	1	-1E+10	1
4902624	11	C	10/09/2024	00:37	-128.412	47.482	0	405.00	0	5.3590	0	34.0270	0	26.866	0	401.228	0	-1e10	1	-1e10	1	-1E+10	1	-1e10	1	-1e10	1	-1E+10	1	-1E+10	1	-1E+10	1
4902624	11	C	10/09/2024	00:37	-128.412	47.482	0	410.10	0	5.2908	0	34.0254	0	26.873	0	406.275	0	44.4	4	14.4	4	-1E+10	1	0.0584	4	0.000221	0	-1E+10	1	-1E+10	1	-1E+10	1
4902624	11	C	10/09/2024	00:37	-128.412	47.482	0	414.80	0	5.2280	0	34.0240	0	26.879	0	410.927	0	-1e10	1	-1e10	1	-1E+10	1	-1e10	1	-1e10	1	-1E+10	1	-1E+10	1	-1E+10	1
4902624	11	C	10/09/2024	00:37	-128.412	47.482	0	420.70	0	5.1620	0	34.0211	0	26.885	0	416.766	0	44.2	4	14.3	4	-1E+10	1	0.0579	4	0.000220	0	-1E+10	1	-1E+10	1	-1E+10	1
4902624	11	C	10/09/2024	00:37	-128.412	47.482	0	424.90	0	5.1150	0	34.0190	0	26.888	0	420.922	0	-1e10	1	-1e10	1	-1E+10	1	-1e10	1	-1e10	1	-1E+10	1	-1E+10	1	-1E+10	1
4902624	11	C	10/09/2024	00:37	-128.412	47.482	0	431.40	0	5.1087	0	34.0285	0	26.897	0	427.354	0	40.8	4	13.2	4	-1E+10	1	0.0441	4	0.000209	0	-1E+10	1	-1E+10	1	-1E+10	1
4902624	11	C	10/09/2024	00:37	-128.412	47.482	0	435.20	0	5.1050	0	34.0340	0	26.901	0	431.115	0	-1e10	1	-1e10	1	-1E+10	1	-1e10	1	-1e10	1	-1E+10	1	-1E+10	1	-1E+10	1
4902624	11	C	10/09/2024	00:37	-128.412	47.482	0	442.30	0	5.1224	0	34.0463	0	26.909	0	438.141	0	37.8	4	12.2	4	-1E+10	1	0.0508	4	0.000210	0	-1E+10	1	-1E+10	1	-1E+10	1
4902624	11	C	10/09/2024	00:37	-128.412	47.482	0	445.00	0	5.1290	0	34.0510	0	26.912	0	440.813	0	-1e10	1	-1e10	1	-1E+10	1	-1e10	1	-1e10	1	-1E+10	1	-1E+10	1	-1E+10	1
4902624	11	C	10/09/2024	00:37	-128.412	47.482	0	453.40	0	5.0589	0	34.0527	0	26.922	0	449.124	0	37.8	4	12.2	4	-1E+10	1	0.0435	4	0.000230	0	-1E+10	1	-1E+10	1	-1E+10	1
4902624	11	C	10/09/2024	00:37	-128.412	47.482	0	454.70	0	5.0480	0	34.0530	0	26.923	0	450.411	0	-1e10	1	-1e10	1	-1E+10	1	-1e10	1	-1e10	1	-1E+10	1	-1E+10	1	-1E+10	1
4902624	11	C	10/09/2024	00:37	-128.412	47.482	0	464.20	0	4.8766	0	34.0446	0	26.936	0	459.811	0	36.3	4	11.7	4	-1E+10	1	0.0374	4	0.000186	0	-1E+10	1	-1E+10	1	-1E+10	1
4902624	11	C	10/09/2024	00:37	-128.412	47.482	0	464.90	0	4.8640	0	34.0440	0	26.937	0	460.503	0	-1e10	1	-1e10	1	-1E+10	1	-1e10	1	-1e10	1	-1E+10	1	-1E+10	1	-1E+10	1
4902624	11	C	10/09/2024	00:37	-128.412	47.482	0	471.70	0	4.8787	0	34.0567	0	26.945	0	467.231	0	33.9	4	10.9	4	-1E+10	1	0.0581	4	0.000197	0	-1E+10	1	-1E+10	1	-1E+10	1
4902624	11	C	10/09/2024	00:37	-128.412	47.482	0	475.10	0	4.8860	0	34.0630	0	26.950	0	470.595	0	-1e10	1	-1e10	1	-1E+10	1	-1e10	1	-1e10	1	-1E+10	1	-1E+10	1	-1E+10	1
4902624	11	C	10/09/2024	00:37	-128.412	47.482	0	479.70	0	4.8632	0	34.0663	0	26.955	0	475.146	0	32.9	4	10.6	4	-1E+10	1	0.0514	4	0.000197	0	-1E+10	1	-1E+10	1	-1E+10	1
4902624	11	C	10/09/2024	00:37	-128.412	47.482	0	484.80	0	4.8380	0	34.0700	0	26.961	0	480.192	0	-1e10	1	-1e10	1	-1E+10	1	-1e10	1	-1e10	1	-1E+10	1	-1E+10	1	-1E+10	1
4902624	11	C	10/09/2024	00:37	-128.412	47.482	0	488.30	0	4.8027	0	34.0676	0	26.963	0	483.655	0	33.4	4	10.7	4	-1E+10	1	0.0584	4	0.000196	0	-1E+10	1	-1E+10	1	-1E+10	1
4902624	11	C	10/09/2024	00:37	-128.412	47.482	0	495.00	0	4.7350	0	34.0630	0	26.967	0	490.283	0	-1e10	1	-1e10	1	-1E+10	1	-1e10	1	-1e10	1	-1E+10	1	-1E+10	1	-1E+10	1
4902624	11	C	10/09/2024	00:37	-128.412	47.482	0	497.30	0	4.7455	0	34.0663	0	26.968	0	492.558	0	31.3	4	10.1	4	-1E+10	1	0.0587	4	0.000185	0	-1E+10	1	-1E+10	1	-1E+10	1
4902624	11	C	10/09/2024	00:37	-128.412	47.482	0	504.90	0	4.7800	0	34.0770	0	26.973	0	500.077	0	-1e10	1	-1e10	1	-1E+10	1	-1e10	1	-1e10	1	-1E+10	1	-1E+10	1	-1E+10	1
4902624	11	C	10/09/2024	00:37	-128.412	47.482	0	506.60	0	4.7729	0	34.0773	0	26.974	0	501.758	0	30.1	4	9.7	4	-1E+10	1	0.0662	4	0.000185	0	-1E+10	1	-1E+10	1	-1E+10	1
4902624	11	C	10/09/2024	00:37	-128.412	47.482	0	514.90	0	4.7380	0	34.0790	0	26.979	0	509.969	0	-1e10	1	-1e10	1	-1E+10	1	-1e10	1	-1e10	1	-1E+10	1	-1E+10	1	-1E+10	1
4902624	11	C	10/09/2024	00:37	-128.412	47.482	0	516.30	0	4.7212	0	34.0779	0	26.980	0	511.354	0	30.7	4	9.9	4	-1E+10	1	0.0794	4	0.000184	0	-1E+10	1	-1E+10	1	-1E+10	1
4902624	11	C	10/09/2024	00:37	-128.412	47.482	0	525.00	0	4.6170	0	34.0710	0	26.986	0	519.960	0	-1e10	1	-1e10	1	-1E+10	1	-1e10	1	-1e10	1	-1E+10	1	-1E+10	1	-1E+10	1
4902624	11	C	10/09/2024	00:37	-128.412	47.482	0	526.20	0	4.6163	0	34.0723	0	26.987	0	521.147	0	29.6	4	9.5	4	-1E+10	1	0.0584	4	0.000161	0	-1E+10	1	-1E+10	1	-1E+10	1
4902624	11	C	10/09/2024	00:37	-128.412	47.482	0	535.10	0	4.6110	0	34.0820	0	26.996	0	529.950	0	-1e10	1	-1e10	1	-1E+10	1	-1e10	1	-1e10	1	-1E+10	1	-1E+10	1	-1E+10	1
4902624	11	C	10/09/2024	00:37	-128.412	47.482	0	536.20	0	4.6080	0	34.0832	0	26.997	0	531.038	0	27.3	4	8.7	4	-1E+10	1	0.0581	4	0.000150	0	-1E+10	1	-1E+10	1	-1E+10	1
4902624	11	C	10/09/2024	00:37	-128.412	47.482	0	545.10	0	4.5840	0	34.0930	0	27.007	0	539.841	0	-1e10	1	-1e10	1	-1E+10	1	-1e10	1	-1e10	1	-1E+10	1	-1E+10	1	-1E+10	1
4902624	11	C	10/09/2024	00:37	-128.412	47.482	0	546.50	0	4.5811	0	34.0941	0	27.009	0	541.225	0	25.5	4	8.2	4	-1E+10	1	0.0515	4	0.000160	0	-1E+10	1	-1E+10	1	-1E+10	1
4902624	11	C	10/09/2024	00:37	-128.412	47.482	0	554.90	0	4.5640	0	34.1010	0	27.016	0	549.533	0	-1e10	1	-1e10	1	-1E+10	1	-1e10	1	-1e10	1	-1E+10	1	-1E+10	1	-1E+10	1
4902624	11	C	10/09/2024	00:37	-128.412	47.482	0	556.80	0	4.5543	0	34.1021	0	27.018	0	551.412	0	24.2	4	7.7	4	-1E+10	1	0.0584	4	0.000149	0	-1E+10	1	-1E+10	1	-1E+10	1
4902624	11	C	10/09/2024	00:37	-128.412	47.482	0	564.90	0	4.5130	0	34.1070	0	27.026	0	559.423	0	-1e10	1	-1e10	1	-1E+10	1	-1e10	1	-1e10	1	-1E+10	1	-1E+10	1	-1E+10	1
4902624	11	C	10/09/2024	00:37	-128.412	47.482	0	567.10	0	4.5050	0	34.1087	0	27.029	0	561.599	0	22.9	4	7.3	4	-1E+10	1	0.0584	4	0.000149	0	-1E+10	1	-1E+10	1	-1E+10	1
4902624	11	C	10/09/2024	00:37	-128.412	47.482	0	575.10	0	4.4760	0	34.1150	0	27.037	0	569.510	0	-1e10	1	-1e10	1	-1E+10	1	-1e10	1	-1e10	1	-1E+10	1	-1E+10	1	-1E+10	1
4902624	11	C	10/09/2024	00:37	-128.412	47.482	0	577.60	0	4.4668	0	34.1165	0	27.039	0	571.982	0	21.7	4	6.9	4	-1E+10	1	0.0584	4	0.000150	0	-1E+10	1	-1E+10	1	-1E+10	1
4902624	11	C	10/09/2024	00:37	-128.412	47.482	0	584.90	0	4.4400	0	34.1210	0	27.045	0	579.201	0	-1e10	1	-1e10	1	-1E+10	1	-1e10	1	-1e10	1	-1E+10	1	-1E+10	1	-1E+10	1
4902624	11	C	10/09/2024	00:37	-128.412	47.482	0	587.80	0	4.4320	0	34.1233	0	27.048	0	582.069	0	20.8	4	6.6	4	-1E+10	1	0.0584	4	0.000171	0	-1E+10	1	-1E+10	1	-1E+10	1
4902624	11	C	10/09/2024	00:37	-128.412	47.482	0	595.00	0	4.4120	0	34.1290	0	27.055	0	589.188	0	-1e10	1	-1e10	1	-1E+10	1	-1e10	1	-1e10	1	-1E+10	1	-1E+10	1	-1E+10	1
4902624	11	C	10/09/2024	00:37	-128.412	47.482	0	598.10	0	4.4044	0	34.1314	0	27.058	0	592.254	0	19.4	4	6.2	4	-1E+10	1	0.0584	4	0.000149	0	-1E+10	1	-1E+10	1	-1E+10	1
4902624	11	C	10/09/2024	00:37	-128.412	47.482	0	605.20	0	4.3870	0	34.1370	0	27.064	0	599.274	0	-1e10	1	-1e10	1	-1E+10	1	-1e10	1	-1e10	1	-1E+10	1	-1E+10	1	-1E+10	1
4902624	11	C	10/09/2024	00:37	-128.412	47.482	0	608.40	0	4.3793	0	34.1405	0	27.068	0	602.438	0	18.2	4	5.8	4	-1E+10	1	0.0578	4	0.000159	0	-1E+10	1	-1E+10	1	-1E+10	1
4902624	11	C	10/09/2024	00:37	-128.412	47.482	0	615.20	0	4.3630	0	34.1480	0	27.075	0	609.162	0	-1e10	1	-1e10	1	-1E+10	1	-1e10	1	-1e10	1	-1E+10	1	-1E+10	1	-1E+10	1
4902624	11	C	10/09/2024	00:37	-128.412	47.482	0	618.60	0	4.3542	0	34.1514	0	27.079	0	612.523	0	17.0	4	5.4	4	-1E+10	1	0.0438	4	0.000137	0	-1E+10	1	-1E+10	1	-1E+10	1
4902624	11	C	10/09/2024	00:37	-128.412	47.482	0	625.20	0	4.3370	0	34.1580	0	27.086	0	619.049	0	-1e10	1	-1e10	1	-1E+10	1	-1e10	1	-1e10	1	-1E+10	1	-1E+10	1	-1E+10	1
4902624	11	C	10/09/2024	00:37	-128.412	47.482	0	629.00	0	4.3335	0	34.1619	0	27.090	0	622.806	0	15.7	4	5.0	4	-1E+10	1	0.0442	4	0.000137	0	-1E+10	1	-1E+10	1	-1E+10	1
4902624	11	C	10/09/2024	00:37	-128.412	47.482	0	635.00	0	4.3280	0	34.1680	0	27.095	0	628.737	0	-1e10	1	-1e10	1	-1E+10	1	-1e10	1	-1e10	1	-1E+10	1	-1E+10	1	-1E+10	1
4902624	11	C	10/09/2024	00:37	-128.412	47.482	0	639.30	0	4.3144	0	34.1723	0	27.100	0	632.988	0	14.8	4	4.7	4	-1E+10	1	0.0514	4	0.000137	0	-1E+10	1	-1E+10	1	-1E+10	1
4902624	11	C	10/09/2024	00:37	-128.412	47.482	0	645.10	0	4.2960	0	34.1780	0	27.107	0	638.722	0	-1e10	1	-1e10	1	-1E+10	1	-1e10	1	-1e10	1	-1E+10	1	-1E+10	1	-1E+10	1
4902624	11	C	10/09/2024	00:37	-128.412	47.482	0	649.70	0	4.2923	0	34.1836	0	27.111	0	643.270	0	13.7	4	4.4	4	-1E+10	1	0.0581	4	0.000148	0	-1E+10	1	-1E+10	1	-1E+10	1
4902624	11	C	10/09/2024	00:37	-128.412	47.482	0	655.00	0	4.2880	0	34.1900	0	27.117	0	648.509	0	-1e10	1	-1e10	1	-1E+10	1	-1e10	1	-1e10	1	-1E+10	1	-1E+10	1	-1E+10	1
4902624	11	C	10/09/2024	00:37	-128.412	47.482	0	660.20	0	4.2701	0	34.1942	0	27.122	0	653.649	0	12.9	4	4.1	4	-1E+10	1	0.0514	4	0.000148	0	-1E+10	1	-1E+10	1	-1E+10	1
4902624	11	C	10/09/2024	00:37	-128.412	47.482	0	664.90	0	4.2540	0	34.1980	0	27.127	0	658.295	0	-1e10	1	-1e10	1	-1E+10	1	-1e10	1	-1e10	1	-1E+10	1	-1E+10	1	-1E+10	1
4902624	11	C	10/09/2024	00:37	-128.412	47.482	0	671.00	0	4.2377	0	34.2038	0	27.133	0	664.325	0	12.2	4	3.9	4	-1E+10	1	0.0587	4	0.000149	0	-1E+10	1	-1E+10	1	-1E+10	1
4902624	11	C	10/09/2024	00:37	-128.412	47.482	0	675.40	0	4.2260	0	34.2080	0	27.138	0	668.674	0	-1e10	1	-1e10	1	-1E+10	1	-1e10	1	-1e10	1	-1E+10	1	-1E+10	1	-1E+10	1
4902624	11	C	10/09/2024	00:37	-128.412	47.482	0	681.90	0	4.2214	0	34.2152	0	27.144	0	675.099	0	11.3	4	3.6	4	-1E+10	1	0.0657	4	0.000171	0	-1E+10	1	-1E+10	1	-1E+10	1
4902624	11	C	10/09/2024	00:37	-128.412	47.482	0	685.30	0	4.2190	0	34.2190	0	27.148	0	678.459	0	-1e10	1	-1e10	1	-1E+10	1	-1e10	1	-1e10	1	-1E+10	1	-1E+10	1	-1E+10	1
4902624	11	C	10/09/2024	00:37	-128.412	47.482	0	693.10	0	4.2009	0	34.2253	0	27.155	0	686.169	0	10.8	4	3.4	4	-1E+10	1	0.0650	4	0.000159	0	-1E+10	1	-1E+10	1	-1E+10	1
4902624	11	C	10/09/2024	00:37	-128.412	47.482	0	695.20	0	4.1960	0	34.2270	0	27.156	0	688.244	0	-1e10	1	-1e10	1	-1E+10	1	-1e10	1	-1e10	1	-1E+10	1	-1E+10	1	-1E+10	1
4902624	11	C	10/09/2024	00:37	-128.412	47.482	0	704.00	0	4.1714	0	34.2314	0	27.163	0	696.942	0	10.5	4	3.3	4	-1E+10	1	0.0511	4	0.000158	0	-1E+10	1	-1E+10	1	-1E+10	1
4902624	11	C	10/09/2024	00:37	-128.412	47.482	0	705.20	0	4.1680	0	34.2320	0	27.163	0	698.128	0	-1e10	1	-1e10	1	-1E+10	1	-1e10	1	-1e10	1	-1E+10	1	-1E+10	1	-1E+10	1
4902624	11	C	10/09/2024	00:37	-128.412	47.482	0	711.50	0	4.1349	0	34.2326	0	27.167	0	704.354	0	10.7	4	3.4	4	-1E+10	1	0.0517	4	0.000136	0	-1E+10	1	-1E+10	1	-1E+10	1
4902624	11	C	10/09/2024	00:37	-128.412	47.482	0	715.10	0	4.1160	0	34.2330	0	27.170	0	707.911	0	-1e10	1	-1e10	1	-1E+10	1	-1e10	1	-1e10	1	-1E+10	1	-1E+10	1	-1E+10	1
4902624	11	C	10/09/2024	00:37	-128.412	47.482	0	719.50	0	4.1115	0	34.2366	0	27.173	0	712.260	0	10.4	4	3.3	4	-1E+10	1	0.0657	4	0.000136	0	-1E+10	1	-1E+10	1	-1E+10	1
4902624	11	C	10/09/2024	00:37	-128.412	47.482	0	724.90	0	4.1060	0	34.2410	0	27.177	0	717.596	0	-1e10	1	-1e10	1	-1E+10	1	-1e10	1	-1e10	1	-1E+10	1	-1E+10	1	-1E+10	1
4902624	11	C	10/09/2024	00:37	-128.412	47.482	0	727.90	0	4.0972	0	34.2439	0	27.180	0	720.561	0	9.8	4	3.1	4	-1E+10	1	0.0664	4	0.000149	0	-1E+10	1	-1E+10	1	-1E+10	1
4902624	11	C	10/09/2024	00:37	-128.412	47.482	0	735.10	0	4.0760	0	34.2510	0	27.188	0	727.676	0	-1e10	1	-1e10	1	-1E+10	1	-1e10	1	-1e10	1	-1E+10	1	-1E+10	1	-1E+10	1
4902624	11	C	10/09/2024	00:37	-128.412	47.482	0	736.70	0	4.0693	0	34.2519	0	27.190	0	729.257	0	9.6	4	3.1	4	-1E+10	1	0.0793	4	0.000180	0	-1E+10	1	-1E+10	1	-1E+10	1
4902624	11	C	10/09/2024	00:37	-128.412	47.482	0	745.20	0	4.0340	0	34.2570	0	27.197	0	737.656	0	-1e10	1	-1e10	1	-1E+10	1	-1e10	1	-1e10	1	-1E+10	1	-1E+10	1	-1E+10	1
4902624	11	C	10/09/2024	00:37	-128.412	47.482	0	745.80	0	4.0312	0	34.2572	0	27.198	0	738.249	0	9.7	4	3.1	4	-1E+10	1	0.0582	4	0.000136	0	-1E+10	1	-1E+10	1	-1E+10	1
4902624	11	C	10/09/2024	00:37	-128.412	47.482	0	755.10	0	3.9880	0	34.2600	0	27.204	0	747.438	0	-1e10	1	-1e10	1	-1E+10	1	-1e10	1	-1e10	1	-1E+10	1	-1E+10	1	-1E+10	1
4902624	11	C	10/09/2024	00:37	-128.412	47.482	0	755.30	0	3.9880	0	34.2602	0	27.205	0	747.635	0	9.2	4	2.9	4	-1E+10	1	0.0511	4	0.000158	0	-1E+10	1	-1E+10	1	-1E+10	1
4902624	11	C	10/09/2024	00:37	-128.412	47.482	0	764.90	0	3.9890	0	34.2720	0	27.214	0	757.121	0	8.2	4	2.6	4	-1E+10	1	0.0511	4	0.000146	0	-1E+10	1	-1E+10	1	-1E+10	1
4902624	11	C	10/09/2024	00:37	-128.412	47.482	0	774.80	0	4.0164	0	34.2877	0	27.224	0	766.902	0	8.0	4	2.5	4	-1E+10	1	0.0517	4	0.000182	0	-1E+10	1	-1E+10	1	-1E+10	1
4902624	11	C	10/09/2024	00:37	-128.412	47.482	0	775.00	0	4.0170	0	34.2880	0	27.224	0	767.099	0	-1e10	1	-1e10	1	-1E+10	1	-1e10	1	-1e10	1	-1E+10	1	-1E+10	1	-1E+10	1
4902624	11	C	10/09/2024	00:37	-128.412	47.482	0	784.70	0	4.0121	0	34.2939	0	27.229	0	776.682	0	7.9	4	2.5	4	-1E+10	1	0.0657	4	0.001520	0	-1E+10	1	-1E+10	1	-1E+10	1
4902624	11	C	10/09/2024	00:37	-128.412	47.482	0	784.80	0	4.0120	0	34.2940	0	27.229	0	776.781	0	-1e10	1	-1e10	1	-1E+10	1	-1e10	1	-1e10	1	-1E+10	1	-1E+10	1	-1E+10	1
4902624	11	C	10/09/2024	00:37	-128.412	47.482	0	794.70	0	3.9873	0	34.2999	0	27.237	0	786.561	0	7.7	4	2.4	4	-1E+10	1	0.0654	4	0.000123	0	-1E+10	1	-1E+10	1	-1E+10	1
4902624	11	C	10/09/2024	00:37	-128.412	47.482	0	794.80	0	3.9870	0	34.3000	0	27.237	0	786.660	0	-1e10	1	-1e10	1	-1E+10	1	-1e10	1	-1e10	1	-1E+10	1	-1E+10	1	-1E+10	1
4902624	11	C	10/09/2024	00:37	-128.412	47.482	0	804.80	0	3.9640	0	34.3040	0	27.242	0	796.539	0	7.5	4	2.4	4	-1E+10	1	0.0587	4	0.000135	0	-1E+10	1	-1E+10	1	-1E+10	1
4902624	11	C	10/09/2024	00:37	-128.412	47.482	0	814.80	0	3.9460	0	34.3110	0	27.250	0	806.417	0	-1e10	1	-1e10	1	-1E+10	1	-1e10	1	-1e10	1	-1E+10	1	-1E+10	1	-1E+10	1
4902624	11	C	10/09/2024	00:37	-128.412	47.482	0	815.10	0	3.9452	0	34.3111	0	27.250	0	806.713	0	7.5	4	2.4	4	-1E+10	1	0.0657	4	0.000147	0	-1E+10	1	-1E+10	1	-1E+10	1
4902624	11	C	10/09/2024	00:37	-128.412	47.482	0	824.90	0	3.9180	0	34.3150	0	27.256	0	816.393	0	-1e10	1	-1e10	1	-1E+10	1	-1e10	1	-1e10	1	-1E+10	1	-1E+10	1	-1E+10	1
4902624	11	C	10/09/2024	00:37	-128.412	47.482	0	825.60	0	3.9146	0	34.3151	0	27.256	0	817.084	0	7.5	4	2.4	4	-1E+10	1	0.0652	4	0.000168	0	-1E+10	1	-1E+10	1	-1E+10	1
4902624	11	C	10/09/2024	00:37	-128.412	47.482	0	834.90	0	3.8690	0	34.3160	0	27.262	0	826.270	0	-1e10	1	-1e10	1	-1E+10	1	-1e10	1	-1e10	1	-1E+10	1	-1E+10	1	-1E+10	1
4902624	11	C	10/09/2024	00:37	-128.412	47.482	0	836.30	0	3.8648	0	34.3168	0	27.263	0	827.653	0	7.6	4	2.4	4	-1E+10	1	0.0514	4	0.000134	0	-1E+10	1	-1E+10	1	-1E+10	1
4902624	11	C	10/09/2024	00:37	-128.412	47.482	0	844.90	0	3.8390	0	34.3220	0	27.270	0	836.147	0	-1e10	1	-1e10	1	-1E+10	1	-1e10	1	-1e10	1	-1E+10	1	-1E+10	1	-1E+10	1
4902624	11	C	10/09/2024	00:37	-128.412	47.482	0	847.30	0	3.8291	0	34.3232	0	27.272	0	838.517	0	7.4	4	2.3	4	-1E+10	1	0.0587	4	0.000124	0	-1E+10	1	-1E+10	1	-1E+10	1
4902624	11	C	10/09/2024	00:37	-128.412	47.482	0	854.80	0	3.7980	0	34.3270	0	27.278	0	845.924	0	-1e10	1	-1e10	1	-1E+10	1	-1e10	1	-1e10	1	-1E+10	1	-1E+10	1	-1E+10	1
4902624	11	C	10/09/2024	00:37	-128.412	47.482	0	858.40	0	3.7827	0	34.3281	0	27.280	0	849.480	0	7.6	4	2.4	4	-1E+10	1	0.0654	4	0.000168	0	-1E+10	1	-1E+10	1	-1E+10	1
4902624	11	C	10/09/2024	00:37	-128.412	47.482	0	864.90	0	3.7550	0	34.3300	0	27.284	0	855.899	0	-1e10	1	-1e10	1	-1E+10	1	-1e10	1	-1e10	1	-1E+10	1	-1E+10	1	-1E+10	1
4902624	11	C	10/09/2024	00:37	-128.412	47.482	0	869.80	0	3.7428	0	34.3320	0	27.287	0	860.738	0	8.6	4	2.7	4	-1E+10	1	0.0581	4	0.000134	0	-1E+10	1	-1E+10	1	-1E+10	1
4902624	11	C	10/09/2024	00:37	-128.412	47.482	0	874.90	0	3.7300	0	34.3340	0	27.290	0	865.774	0	-1e10	1	-1e10	1	-1E+10	1	-1e10	1	-1e10	1	-1E+10	1	-1E+10	1	-1E+10	1
4902624	11	C	10/09/2024	00:37	-128.412	47.482	0	881.30	0	3.7162	0	34.3371	0	27.294	0	872.094	0	42.3	4	13.3	4	-1E+10	1	0.0511	4	0.000135	0	-1E+10	1	-1E+10	1	-1E+10	1
4902624	11	C	10/09/2024	00:37	-128.412	47.482	0	885.10	0	3.7080	0	34.3390	0	27.296	0	875.846	0	-1e10	1	-1e10	1	-1E+10	1	-1e10	1	-1e10	1	-1E+10	1	-1E+10	1	-1E+10	1
4902624	11	C	10/09/2024	00:37	-128.412	47.482	0	892.90	0	3.6985	0	34.3429	0	27.301	0	883.548	0	34.4	4	10.8	4	-1E+10	1	0.0508	4	0.000167	0	-1E+10	1	-1E+10	1	-1E+10	1
4902624	11	C	10/09/2024	00:37	-128.412	47.482	0	895.00	0	3.6960	0	34.3440	0	27.302	0	885.622	0	-1e10	1	-1e10	1	-1E+10	1	-1e10	1	-1e10	1	-1E+10	1	-1E+10	1	-1E+10	1
4902624	11	C	10/09/2024	00:37	-128.412	47.482	0	904.60	0	3.7066	0	34.3536	0	27.308	0	895.101	0	38.9	4	12.2	4	-1E+10	1	0.0447	4	0.000111	0	-1E+10	1	-1E+10	1	-1E+10	1
4902624	11	C	10/09/2024	00:37	-128.412	47.482	0	905.00	0	3.7070	0	34.3540	0	27.309	0	895.496	0	-1e10	1	-1e10	1	-1E+10	1	-1e10	1	-1e10	1	-1E+10	1	-1E+10	1	-1E+10	1
4902624	11	C	10/09/2024	00:37	-128.412	47.482	0	915.10	0	3.6740	0	34.3550	0	27.313	0	905.468	0	-1e10	1	-1e10	1	-1E+10	1	-1e10	1	-1e10	1	-1E+10	1	-1E+10	1	-1E+10	1
4902624	11	C	10/09/2024	00:37	-128.412	47.482	0	916.50	0	3.6737	0	34.3560	0	27.313	0	906.850	0	59.4	4	18.6	4	-1E+10	1	0.0650	4	0.000145	0	-1E+10	1	-1E+10	1	-1E+10	1
4902624	11	C	10/09/2024	00:37	-128.412	47.482	0	925.20	0	3.6720	0	34.3620	0	27.319	0	915.439	0	-1e10	1	-1e10	1	-1E+10	1	-1e10	1	-1e10	1	-1E+10	1	-1E+10	1	-1E+10	1
4902624	11	C	10/09/2024	00:37	-128.412	47.482	0	926.20	0	3.6698	0	34.3623	0	27.319	0	916.427	0	64.6	4	20.3	4	-1E+10	1	0.0519	4	0.000145	0	-1E+10	1	-1E+10	1	-1E+10	1
4902624	11	C	10/09/2024	00:37	-128.412	47.482	0	934.10	0	3.6526	0	34.3646	0	27.323	0	924.226	0	68.1	4	21.3	4	-1E+10	1	0.0716	4	0.000156	0	-1E+10	1	-1E+10	1	-1E+10	1
4902624	11	C	10/09/2024	00:37	-128.412	47.482	0	935.30	0	3.6500	0	34.3650	0	27.323	0	925.410	0	-1e10	1	-1e10	1	-1E+10	1	-1e10	1	-1e10	1	-1E+10	1	-1E+10	1	-1E+10	1
4902624	11	C	10/09/2024	00:37	-128.412	47.482	0	942.30	0	3.6125	0	34.3657	0	27.327	0	932.321	0	66.8	4	20.9	4	-1E+10	1	0.0375	4	0.000154	0	-1E+10	1	-1E+10	1	-1E+10	1
4902624	11	C	10/09/2024	00:37	-128.412	47.482	0	945.20	0	3.5970	0	34.3660	0	27.329	0	935.184	0	-1e10	1	-1e10	1	-1E+10	1	-1e10	1	-1e10	1	-1E+10	1	-1E+10	1	-1E+10	1
4902624	11	C	10/09/2024	00:37	-128.412	47.482	0	950.70	0	3.5816	0	34.3688	0	27.333	0	940.613	0	67.4	4	21.1	4	-1E+10	1	0.0581	4	0.000110	0	-1E+10	1	-1E+10	1	-1E+10	1
4902624	11	C	10/09/2024	00:37	-128.412	47.482	0	955.20	0	3.5690	0	34.3710	0	27.336	0	945.055	0	-1e10	1	-1e10	1	-1E+10	1	-1e10	1	-1e10	1	-1E+10	1	-1E+10	1	-1E+10	1
4902624	11	C	10/09/2024	00:37	-128.412	47.482	0	959.40	0	3.5634	0	34.3731	0	27.338	0	949.201	0	63.3	4	19.8	4	-1E+10	1	0.0511	4	0.000134	0	-1E+10	1	-1E+10	1	-1E+10	1
4902624	11	C	10/09/2024	00:37	-128.412	47.482	0	965.00	0	3.5560	0	34.3760	0	27.341	0	954.729	0	-1e10	1	-1e10	1	-1E+10	1	-1e10	1	-1e10	1	-1E+10	1	-1E+10	1	-1E+10	1
4902624	11	C	10/09/2024	00:37	-128.412	47.482	0	968.40	0	3.5508	0	34.3770	0	27.343	0	958.085	0	60.5	4	18.9	4	-1E+10	1	0.0511	4	0.000168	0	-1E+10	1	-1E+10	1	-1E+10	1
4902624	11	C	10/09/2024	00:37	-128.412	47.482	0	974.80	0	3.5410	0	34.3790	0	27.345	0	964.402	0	-1e10	1	-1e10	1	-1E+10	1	-1e10	1	-1e10	1	-1E+10	1	-1E+10	1	-1E+10	1
4902624	11	C	10/09/2024	00:37	-128.412	47.482	0	977.50	0	3.5349	0	34.3806	0	27.347	0	967.067	0	55.9	4	17.5	4	-1E+10	1	0.0514	4	0.000168	0	-1E+10	1	-1E+10	1	-1E+10	1
4902624	11	C	10/09/2024	00:37	-128.412	47.482	0	984.90	0	3.5180	0	34.3850	0	27.352	0	974.371	0	-1e10	1	-1e10	1	-1E+10	1	-1e10	1	-1e10	1	-1E+10	1	-1E+10	1	-1E+10	1
4902624	11	C	10/09/2024	00:37	-128.412	47.482	0	986.90	0	3.5136	0	34.3858	0	27.353	0	976.345	0	64.9	4	20.3	4	-1E+10	1	0.0590	4	0.000166	0	-1E+10	1	-1E+10	1	-1E+10	1
4902624	11	C	10/09/2024	00:37	-128.412	47.482	0	994.90	0	3.4960	0	34.3890	0	27.358	0	984.240	0	-1e10	1	-1e10	1	-1E+10	1	-1e10	1	-1e10	1	-1E+10	1	-1E+10	1	-1E+10	1
4902624	11	C	10/09/2024	00:37	-128.412	47.482	0	996.40	0	3.4927	0	34.3896	0	27.358	0	985.721	0	50.1	4	15.6	4	-1E+10	1	0.0728	4	0.000133	0	-1E+10	1	-1E+10	1	-1E+10	1
4902624	11	C	10/09/2024	00:37	-128.412	47.482	0	1016.00	0	3.4490	0	34.3968	0	27.368	0	1005.064	0	61.1	4	19.1	4	-1E+10	1	0.0583	4	0.000166	0	-1E+10	1	-1E+10	1	-1E+10	1
4902624	11	C	10/09/2024	00:37	-128.412	47.482	0	1024.50	0	3.4300	0	34.4000	0	27.373	0	1013.452	0	-1e10	1	-1e10	1	-1E+10	1	-1e10	1	-1e10	1	-1E+10	1	-1E+10	1	-1E+10	1
4902624	11	C	10/09/2024	00:37	-128.412	47.482	0	1036.10	0	3.4051	0	34.4037	0	27.378	0	1024.898	0	56.8	4	17.7	4	-1E+10	1	0.0514	4	0.000132	0	-1E+10	1	-1E+10	1	-1E+10	1
4902624	11	C	10/09/2024	00:37	-128.412	47.482	0	1056.30	0	3.3619	0	34.4101	0	27.388	0	1044.829	0	64.6	4	20.1	4	-1E+10	1	0.0656	4	0.000143	0	-1E+10	1	-1E+10	1	-1E+10	1
4902624	11	C	10/09/2024	00:37	-128.412	47.482	0	1074.90	0	3.3220	0	34.4160	0	27.396	0	1063.180	0	-1e10	1	-1e10	1	-1E+10	1	-1e10	1	-1e10	1	-1E+10	1	-1E+10	1	-1E+10	1
4902624	11	C	10/09/2024	00:37	-128.412	47.482	0	1077.10	0	3.3168	0	34.4167	0	27.397	0	1065.351	0	62.4	4	19.4	4	-1E+10	1	0.0584	4	0.000120	0	-1E+10	1	-1E+10	1	-1E+10	1
4902624	11	C	10/09/2024	00:37	-128.412	47.482	0	1098.50	0	3.2663	0	34.4235	0	27.408	0	1086.462	0	67.6	4	21.0	4	-1E+10	1	0.0584	4	0.000131	0	-1E+10	1	-1E+10	1	-1E+10	1
4902624	11	C	10/09/2024	00:37	-128.412	47.482	0	1120.40	0	3.2146	0	34.4304	0	27.418	0	1108.064	0	72.0	4	22.3	4	-1E+10	1	0.0586	4	0.000131	0	-1E+10	1	-1E+10	1	-1E+10	1
4902624	11	C	10/09/2024	00:37	-128.412	47.482	0	1125.30	0	3.2030	0	34.4320	0	27.420	0	1112.897	0	-1e10	1	-1e10	1	-1E+10	1	-1e10	1	-1e10	1	-1E+10	1	-1E+10	1	-1E+10	1
4902624	11	C	10/09/2024	00:37	-128.412	47.482	0	1142.70	0	3.1625	0	34.4372	0	27.428	0	1130.059	0	86.6	4	26.9	4	-1E+10	1	0.0654	4	0.000131	0	-1E+10	1	-1E+10	1	-1E+10	1
4902624	11	C	10/09/2024	00:37	-128.412	47.482	0	1165.70	0	3.1090	0	34.4440	0	27.439	0	1152.741	0	67.9	4	21.0	4	-1E+10	1	0.0517	4	0.000153	0	-1E+10	1	-1E+10	1	-1E+10	1
4902624	11	C	10/09/2024	00:37	-128.412	47.482	0	1175.60	0	3.0860	0	34.4470	0	27.443	0	1162.504	0	-1e10	1	-1e10	1	-1E+10	1	-1e10	1	-1e10	1	-1E+10	1	-1E+10	1	-1E+10	1
4902624	11	C	10/09/2024	00:37	-128.412	47.482	0	1183.90	0	3.0679	0	34.4489	0	27.447	0	1170.688	0	70.0	4	21.7	4	-1E+10	1	0.0726	4	0.000153	0	-1E+10	1	-1E+10	1	-1E+10	1
4902624	11	C	10/09/2024	00:37	-128.412	47.482	0	1200.30	0	3.0321	0	34.4525	0	27.453	0	1186.859	0	44.9	4	13.9	4	-1E+10	1	0.0514	4	0.000141	0	-1E+10	1	-1E+10	1	-1E+10	1
4902624	11	C	10/09/2024	00:37	-128.412	47.482	0	1217.80	0	2.9938	0	34.4565	0	27.459	0	1204.113	0	63.6	4	19.6	4	-1E+10	1	0.0657	4	0.000141	0	-1E+10	1	-1E+10	1	-1E+10	1
4902624	11	C	10/09/2024	00:37	-128.412	47.482	0	1224.60	0	2.9790	0	34.4580	0	27.462	0	1210.817	0	-1e10	1	-1e10	1	-1E+10	1	-1e10	1	-1e10	1	-1E+10	1	-1E+10	1	-1E+10	1
4902624	11	C	10/09/2024	00:37	-128.412	47.482	0	1236.30	0	2.9575	0	34.4603	0	27.466	0	1222.351	0	69.5	4	21.4	4	-1E+10	1	0.0655	4	0.000118	0	-1E+10	1	-1E+10	1	-1E+10	1
4902624	11	C	10/09/2024	00:37	-128.412	47.482	0	1255.70	0	2.9217	0	34.4642	0	27.472	0	1241.475	0	77.3	4	23.8	4	-1E+10	1	0.0583	4	0.000129	0	-1E+10	1	-1E+10	1	-1E+10	1
4902624	11	C	10/09/2024	00:37	-128.412	47.482	0	1275.10	0	2.8860	0	34.4680	0	27.479	0	1260.597	0	-1e10	1	-1e10	1	-1E+10	1	-1e10	1	-1e10	1	-1E+10	1	-1E+10	1	-1E+10	1
4902624	11	C	10/09/2024	00:37	-128.412	47.482	0	1276.20	0	2.8842	0	34.4682	0	27.479	0	1261.681	0	71.7	4	22.1	4	-1E+10	1	0.0511	4	0.000129	0	-1E+10	1	-1E+10	1	-1E+10	1
4902624	11	C	10/09/2024	00:37	-128.412	47.482	0	1297.20	0	2.8501	0	34.4729	0	27.486	0	1282.379	0	65.2	4	20.1	4	-1E+10	1	0.0512	4	0.000141	0	-1E+10	1	-1E+10	1	-1E+10	1
4902624	11	C	10/09/2024	00:37	-128.412	47.482	0	1319.10	0	2.8144	0	34.4777	0	27.493	0	1303.961	0	57.6	4	17.7	4	-1E+10	1	0.0583	4	0.000210	0	-1E+10	1	-1E+10	1	-1E+10	1
4902624	11	C	10/09/2024	00:37	-128.412	47.482	0	1324.90	0	2.8050	0	34.4790	0	27.495	0	1309.676	0	-1e10	1	-1e10	1	-1E+10	1	-1e10	1	-1e10	1	-1E+10	1	-1E+10	1	-1E+10	1
4902624	11	C	10/09/2024	00:37	-128.412	47.482	0	1341.30	0	2.7785	0	34.4826	0	27.500	0	1325.836	0	63.7	4	19.6	4	-1E+10	1	0.0514	4	0.000197	0	-1E+10	1	-1E+10	1	-1E+10	1
4902624	11	C	10/09/2024	00:37	-128.412	47.482	0	1364.00	0	2.7419	0	34.4876	0	27.507	0	1348.202	0	64.4	4	19.8	4	-1E+10	1	0.0653	4	0.000138	0	-1E+10	1	-1E+10	1	-1E+10	1
4902624	11	C	10/09/2024	00:37	-128.412	47.482	0	1375.10	0	2.7240	0	34.4900	0	27.511	0	1359.138	0	-1e10	1	-1e10	1	-1E+10	1	-1e10	1	-1e10	1	-1E+10	1	-1E+10	1	-1E+10	1
4902624	11	C	10/09/2024	00:37	-128.412	47.482	0	1386.80	0	2.7037	0	34.4928	0	27.515	0	1370.664	0	64.7	4	19.8	4	-1E+10	1	0.0443	4	0.000116	0	-1E+10	1	-1E+10	1	-1E+10	1
4902624	11	C	10/09/2024	00:37	-128.412	47.482	0	1409.60	0	2.6641	0	34.4983	0	27.523	0	1393.123	0	66.8	4	20.5	4	-1E+10	1	0.0654	4	0.000137	0	-1E+10	1	-1E+10	1	-1E+10	1
4902624	11	C	10/09/2024	00:37	-128.412	47.482	0	1425.20	0	2.6370	0	34.5020	0	27.528	0	1408.489	0	-1e10	1	-1e10	1	-1E+10	1	-1e10	1	-1e10	1	-1E+10	1	-1E+10	1	-1E+10	1
4902624	11	C	10/09/2024	00:37	-128.412	47.482	0	1432.80	0	2.6220	0	34.5038	0	27.531	0	1415.974	0	72.6	4	22.2	4	-1E+10	1	0.0515	4	0.000104	0	-1E+10	1	-1E+10	1	-1E+10	1
4902624	11	C	10/09/2024	00:37	-128.412	47.482	0	1452.60	0	2.5827	0	34.5086	0	27.538	0	1435.474	0	75.0	4	22.9	4	-1E+10	1	0.0654	4	0.000138	0	-1E+10	1	-1E+10	1	-1E+10	1
4902624	11	C	10/09/2024	00:37	-128.412	47.482	0	1468.60	0	2.5511	0	34.5124	0	27.544	0	1451.231	0	72.0	4	22.0	4	-1E+10	1	0.0514	4	0.000148	0	-1E+10	1	-1E+10	1	-1E+10	1
4902624	11	C	10/09/2024	00:37	-128.412	47.482	0	1475.20	0	2.5380	0	34.5140	0	27.547	0	1457.730	0	-1e10	1	-1e10	1	-1E+10	1	-1e10	1	-1e10	1	-1E+10	1	-1E+10	1	-1E+10	1
4902624	11	C	10/09/2024	00:37	-128.412	47.482	0	1485.30	0	2.5197	0	34.5162	0	27.550	0	1467.676	0	75.4	4	23.0	4	-1E+10	1	0.0655	4	0.000114	0	-1E+10	1	-1E+10	1	-1E+10	1
4902624	11	C	10/09/2024	00:37	-128.412	47.482	0	1503.10	0	2.4875	0	34.5202	0	27.556	0	1485.202	0	78.1	4	23.8	4	-1E+10	1	0.0509	4	0.000148	0	-1E+10	1	-1E+10	1	-1E+10	1
4902624	11	C	10/09/2024	00:37	-128.412	47.482	0	1521.70	0	2.4538	0	34.5243	0	27.562	0	1503.514	0	81.2	4	24.7	4	-1E+10	1	0.0441	4	0.000136	0	-1E+10	1	-1E+10	1	-1E+10	1
4902624	11	C	10/09/2024	00:37	-128.412	47.482	0	1524.90	0	2.4480	0	34.5250	0	27.563	0	1506.665	0	-1e10	1	-1e10	1	-1E+10	1	-1e10	1	-1e10	1	-1E+10	1	-1E+10	1	-1E+10	1
4902624	11	C	10/09/2024	00:37	-128.412	47.482	0	1541.10	0	2.4217	0	34.5282	0	27.568	0	1522.612	0	85.5	4	26.1	4	-1E+10	1	0.0581	4	0.000125	0	-1E+10	1	-1E+10	1	-1E+10	1
4902624	11	C	10/09/2024	00:37	-128.412	47.482	0	1561.50	0	2.3887	0	34.5322	0	27.574	0	1542.693	0	88.4	4	26.9	4	-1E+10	1	0.0439	4	0.000124	0	-1E+10	1	-1E+10	1	-1E+10	1
4902624	11	C	10/09/2024	00:37	-128.412	47.482	0	1575.50	0	2.3660	0	34.5350	0	27.578	0	1556.473	0	-1e10	1	-1e10	1	-1E+10	1	-1e10	1	-1e10	1	-1E+10	1	-1E+10	1	-1E+10	1
4902624	11	C	10/09/2024	00:37	-128.412	47.482	0	1582.90	0	2.3568	0	34.5363	0	27.580	0	1563.757	0	86.8	4	26.4	4	-1E+10	1	0.0510	4	0.000136	0	-1E+10	1	-1E+10	1	-1E+10	1
4902624	11	C	10/09/2024	00:37	-128.412	47.482	0	1605.30	0	2.3290	0	34.5404	0	27.586	0	1585.802	0	86.5	4	26.3	4	-1E+10	1	0.0438	4	0.000135	0	-1E+10	1	-1E+10	1	-1E+10	1
4902624	11	C	10/09/2024	00:37	-128.412	47.482	0	1625.50	0	2.3040	0	34.5440	0	27.591	0	1605.680	0	-1e10	1	-1e10	1	-1E+10	1	-1e10	1	-1e10	1	-1E+10	1	-1E+10	1	-1E+10	1
4902624	11	C	10/09/2024	00:37	-128.412	47.482	0	1628.50	0	2.3000	0	34.5445	0	27.592	0	1608.632	0	90.0	4	27.3	4	-1E+10	1	0.0438	4	0.000111	0	-1E+10	1	-1E+10	1	-1E+10	1
4902624	11	C	10/09/2024	00:37	-128.412	47.482	0	1650.30	0	2.2707	0	34.5485	0	27.597	0	1630.082	0	91.2	4	27.7	4	-1E+10	1	0.0439	4	0.000088	0	-1E+10	1	-1E+10	1	-1E+10	1
4902624	11	C	10/09/2024	00:37	-128.412	47.482	0	1667.00	0	2.2483	0	34.5516	0	27.602	0	1646.513	0	93.7	4	28.4	4	-1E+10	1	0.0511	4	0.000123	0	-1E+10	1	-1E+10	1	-1E+10	1
4902624	11	C	10/09/2024	00:37	-128.412	47.482	0	1674.70	0	2.2380	0	34.5530	0	27.604	0	1654.088	0	-1e10	1	-1e10	1	-1E+10	1	-1e10	1	-1e10	1	-1E+10	1	-1E+10	1	-1E+10	1
4902624	11	C	10/09/2024	00:37	-128.412	47.482	0	1684.80	0	2.2263	0	34.5546	0	27.606	0	1664.024	0	97.3	4	29.5	4	-1E+10	1	0.0511	4	0.000122	0	-1E+10	1	-1E+10	1	-1E+10	1
4902624	11	C	10/09/2024	00:37	-128.412	47.482	0	1703.10	0	2.2051	0	34.5575	0	27.610	0	1682.026	0	103.0	4	31.2	4	-1E+10	1	0.0513	4	0.000133	0	-1E+10	1	-1E+10	1	-1E+10	1
4902624	11	C	10/09/2024	00:37	-128.412	47.482	0	1721.90	0	2.1832	0	34.5606	0	27.614	0	1700.518	0	109.1	4	33.0	4	-1E+10	1	0.0583	4	0.000122	0	-1E+10	1	-1E+10	1	-1E+10	1
4902624	11	C	10/09/2024	00:37	-128.412	47.482	0	1724.70	0	2.1800	0	34.5610	0	27.615	0	1703.272	0	-1e10	1	-1e10	1	-1E+10	1	-1e10	1	-1e10	1	-1E+10	1	-1E+10	1	-1E+10	1
4902624	11	C	10/09/2024	00:37	-128.412	47.482	0	1741.40	0	2.1599	0	34.5637	0	27.619	0	1719.697	0	114.0	4	34.5	4	-1E+10	1	0.0508	4	0.000144	0	-1E+10	1	-1E+10	1	-1E+10	1
4902624	11	C	10/09/2024	00:37	-128.412	47.482	0	1761.30	0	2.1359	0	34.5669	0	27.623	0	1739.267	0	118.5	4	35.8	4	-1E+10	1	0.0368	4	0.000109	0	-1E+10	1	-1E+10	1	-1E+10	1
4902624	11	C	10/09/2024	00:37	-128.412	47.482	0	1774.50	0	2.1200	0	34.5690	0	27.626	0	1752.248	0	-1e10	1	-1e10	1	-1E+10	1	-1e10	1	-1e10	1	-1E+10	1	-1E+10	1	-1E+10	1
4902624	11	C	10/09/2024	00:37	-128.412	47.482	0	1781.60	0	2.1128	0	34.5701	0	27.628	0	1759.229	0	122.7	4	37.1	4	-1E+10	1	0.0510	4	0.000121	0	-1E+10	1	-1E+10	1	-1E+10	1
4902624	11	C	10/09/2024	00:37	-128.412	47.482	0	1802.40	0	2.0919	0	34.5734	0	27.632	0	1779.681	0	125.7	4	38.0	4	-1E+10	1	0.0440	4	0.000132	0	-1E+10	1	-1E+10	1	-1E+10	1
4902624	11	C	10/09/2024	00:37	-128.412	47.482	0	1823.70	0	2.0704	0	34.5768	0	27.637	0	1800.622	0	128.3	4	38.8	4	-1E+10	1	0.0511	4	0.000120	0	-1E+10	1	-1E+10	1	-1E+10	1
4902624	11	C	10/09/2024	00:37	-128.412	47.482	0	1825.10	0	2.0690	0	34.5770	0	27.637	0	1801.999	0	-1e10	1	-1e10	1	-1E+10	1	-1e10	1	-1e10	1	-1E+10	1	-1E+10	1	-1E+10	1
4902624	11	C	10/09/2024	00:37	-128.412	47.482	0	1845.50	0	2.0488	0	34.5803	0	27.641	0	1822.053	0	131.1	4	39.6	4	-1E+10	1	0.0511	4	0.000131	0	-1E+10	1	-1E+10	1	-1E+10	1
4902624	11	C	10/09/2024	00:37	-128.412	47.482	0	1867.80	0	2.0268	0	34.5839	0	27.646	0	1843.973	0	133.3	4	40.2	4	-1E+10	1	0.0513	4	0.000115	0	-1E+10	1	-1E+10	1	-1E+10	1
4902624	11	C	10/09/2024	00:37	-128.412	47.482	0	1874.70	0	2.0200	0	34.5850	0	27.648	0	1850.755	0	-1e10	1	-1e10	1	-1E+10	1	-1e10	1	-1e10	1	-1E+10	1	-1E+10	1	-1E+10	1
4902624	11	C	10/09/2024	00:37	-128.412	47.482	0	1890.30	0	2.0072	0	34.5871	0	27.650	0	1866.088	0	135.0	4	40.7	4	-1E+10	1	0.0580	4	0.000453	0	-1E+10	1	-1E+10	1	-1E+10	1
4902624	11	C	10/09/2024	00:37	-128.412	47.482	0	1912.60	0	1.9888	0	34.5902	0	27.654	0	1888.003	0	136.7	4	41.2	4	-1E+10	1	0.0368	4	0.000119	0	-1E+10	1	-1E+10	1	-1E+10	1
4902624	11	C	10/09/2024	00:37	-128.412	47.482	0	1925.80	0	1.9780	0	34.5920	0	27.657	0	1900.974	0	-1e10	1	-1e10	1	-1E+10	1	-1e10	1	-1e10	1	-1E+10	1	-1E+10	1	-1E+10	1
4902624	11	C	10/09/2024	00:37	-128.412	47.482	0	1928.10	0	1.9764	0	34.5923	0	27.657	0	1903.234	0	137.3	4	41.4	4	-1E+10	1	0.0512	4	0.000131	0	-1E+10	1	-1E+10	1	-1E+10	1
4902624	11	C	10/09/2024	00:37	-128.412	47.482	0	1944.50	0	1.9649	0	34.5944	0	27.660	0	1919.349	0	137.9	4	41.5	4	-1E+10	1	0.0581	4	0.000176	0	-1E+10	1	-1E+10	1	-1E+10	1
4902624	11	C	10/09/2024	00:37	-128.412	47.482	0	1961.20	0	1.9533	0	34.5966	0	27.663	0	1935.757	0	137.8	4	41.5	4	-1E+10	1	0.0438	4	0.000142	0	-1E+10	1	-1E+10	1	-1E+10	1
4902624	11	C	10/09/2024	00:37	-128.412	47.482	0	1971.60	0	1.9460	0	34.5980	0	27.664	0	1945.975	0	-1e10	1	-1e10	1	-1E+10	1	-1e10	1	-1e10	1	-1E+10	1	-1E+10	1	-1E+10	1
4902624	11	C	10/09/2024	00:37	-128.412	47.482	0	1978.60	0	-1e10	1	-1e10	1	-1e10	1	1952.852	0	144.2	4	-1e10	4	-1E+10	1	0.0438	4	0.000212	0	-1E+10	1	-1E+10	1	-1E+10	1
4902624	11	C	10/09/2024	00:37	-128.412	47.482	0	1993.40	0	-1e10	1	-1e10	1	-1e10	1	1967.391	0	140.3	4	-1e10	4	-1E+10	1	0.0438	4	0.000166	0	-1E+10	1	-1E+10	1	-1E+10	1
4902624	11	C	10/09/2024	00:37	-128.412	47.482	0																										
4902624	12	C	10/19/2024	19:43	-128.323	47.366	0	0.40	0	14.8730	0	32.0470	0	23.724	0	0.397	0	234.9	4	92.6	4	-1E+10	1	1.3286	4	0.001514	0	-1E+10	1	-1E+10	1	-1E+10	1
4902624	12	C	10/19/2024	19:43	-128.323	47.366	0	0.50	0	14.8734	0	32.0478	0	23.725	0	0.496	0	235.4	4	92.8	4	-1E+10	1	1.3184	4	0.001512	0	-1E+10	1	-1E+10	1	-1E+10	1
4902624	12	C	10/19/2024	19:43	-128.323	47.366	0	0.90	0	14.8748	0	32.0511	0	23.727	0	0.892	0	-1e10	1	-1e10	1	-1E+10	1	1.2775	4	0.001503	0	-1E+10	1	-1E+10	1	-1E+10	1
4902624	12	C	10/19/2024	19:43	-128.323	47.366	0	1.00	0	14.8752	0	32.0519	0	23.728	0	0.992	0	-1e10	1	-1e10	1	-1E+10	1	1.2994	4	0.001362	0	-1E+10	1	-1E+10	1	-1E+10	1
4902624	12	C	10/19/2024	19:43	-128.323	47.366	0	1.20	0	14.8759	0	32.0535	0	23.729	0	1.190	0	-1e10	1	-1e10	1	-1E+10	1	1.2337	4	0.001373	0	-1E+10	1	-1E+10	1	-1E+10	1
4902624	12	C	10/19/2024	19:43	-128.323	47.366	0	1.50	0	14.8770	0	32.0560	0	23.730	0	1.487	0	234.2	4	92.4	4	-1E+10	1	1.2556	4	0.001561	0	-1E+10	1	-1E+10	1	-1E+10	1
4902624	12	C	10/19/2024	19:43	-128.323	47.366	0	1.60	0	14.8769	0	32.0561	0	23.731	0	1.587	0	-1e10	1	-1e10	1	-1E+10	1	1.2921	4	0.001479	0	-1E+10	1	-1E+10	1	-1E+10	1
4902624	12	C	10/19/2024	19:43	-128.323	47.366	0	2.10	0	14.8764	0	32.0566	0	23.731	0	2.082	0	234.2	4	92.4	4	-1E+10	1	1.2191	4	0.001420	0	-1E+10	1	-1E+10	1	-1E+10	1
4902624	12	C	10/19/2024	19:43	-128.323	47.366	0	2.30	0	14.8762	0	32.0568	0	23.731	0	2.281	0	-1e10	1	-1e10	1	-1E+10	1	1.3213	4	0.001514	0	-1E+10	1	-1E+10	1	-1E+10	1
4902624	12	C	10/19/2024	19:43	-128.323	47.366	0	2.50	0	14.8760	0	32.0570	0	23.731	0	2.479	0	-1e10	1	-1e10	1	-1E+10	1	-1e10	1	-1e10	1	-1E+10	1	-1E+10	1	-1E+10	1
4902624	12	C	10/19/2024	19:43	-128.323	47.366	0	2.60	0	14.8760	0	32.0570	0	23.731	0	2.578	0	-1e10	1	-1e10	1	-1E+10	1	1.2775	4	0.001526	0	-1E+10	1	-1E+10	1	-1E+10	1
4902624	12	C	10/19/2024	19:43	-128.323	47.366	0	2.80	0	14.8760	0	32.0570	0	23.731	0	2.777	0	-1e10	1	-1e10	1	-1E+10	1	1.2264	4	0.001667	0	-1E+10	1	-1E+10	1	-1E+10	1
4902624	12	C	10/19/2024	19:43	-128.323	47.366	0	3.10	0	14.8760	0	32.0570	0	23.731	0	3.074	0	234.1	4	92.3	4	-1E+10	1	1.2483	4	0.001420	0	-1E+10	1	-1E+10	1	-1E+10	1
4902624	12	C	10/19/2024	19:43	-128.323	47.366	0	3.30	0	14.8760	0	32.0570	0	23.731	0	3.272	0	-1e10	1	-1e10	1	-1E+10	1	1.3140	4	0.001397	0	-1E+10	1	-1E+10	1	-1E+10	1
4902624	12	C	10/19/2024	19:43	-128.323	47.366	0	3.40	0	14.8760	0	32.0570	0	23.731	0	3.372	0	-1e10	1	-1e10	1	-1E+10	1	1.3359	4	0.001514	0	-1E+10	1	-1E+10	1	-1E+10	1
4902624	12	C	10/19/2024	19:43	-128.323	47.366	0	3.60	0	14.8760	0	32.0570	0	23.731	0	3.570	0	-1e10	1	-1e10	1	-1E+10	1	1.2264	4	0.001737	0	-1E+10	1	-1E+10	1	-1E+10	1
4902624	12	C	10/19/2024	19:43	-128.323	47.366	0	3.80	0	14.8760	0	32.0570	0	23.731	0	3.768	0	-1e10	1	-1e10	1	-1E+10	1	1.2994	4	0.001456	0	-1E+10	1	-1E+10	1	-1E+10	1
4902624	12	C	10/19/2024	19:43	-128.323	47.366	0	4.00	0	14.8760	0	32.0570	0	23.732	0	3.967	0	233.9	4	92.3	4	-1E+10	1	1.2337	4	0.001502	0	-1E+10	1	-1E+10	1	-1E+10	1
4902624	12	C	10/19/2024	19:43	-128.323	47.366	0	4.50	0	14.8760	0	32.0570	0	23.732	0	4.462	0	-1e10	1	-1e10	1	-1E+10	1	1.2337	4	0.001491	0	-1E+10	1	-1E+10	1	-1E+10	1
4902624	12	C	10/19/2024	19:43	-128.323	47.366	0	4.60	0	14.8760	0	32.0571	0	23.732	0	4.562	0	-1e10	1	-1e10	1	-1E+10	1	1.2994	4	0.001561	0	-1E+10	1	-1E+10	1	-1E+10	1
4902624	12	C	10/19/2024	19:43	-128.323	47.366	0	4.80	0	14.8760	0	32.0573	0	23.732	0	4.760	0	-1e10	1	-1e10	1	-1E+10	1	1.3213	4	0.002136	0	-1E+10	1	-1E+10	1	-1E+10	1
4902624	12	C	10/19/2024	19:43	-128.323	47.366	0	5.00	0	14.8760	0	32.0575	0	23.732	0	4.958	0	233.9	4	92.3	4	-1E+10	1	1.2410	4	0.001538	0	-1E+10	1	-1E+10	1	-1E+10	1
4902624	12	C	10/19/2024	19:43	-128.323	47.366	0	5.20	0	14.8760	0	32.0576	0	23.732	0	5.157	0	-1e10	1	-1e10	1	-1E+10	1	1.3213	4	0.002898	0	-1E+10	1	-1E+10	1	-1E+10	1
4902624	12	C	10/19/2024	19:43	-128.323	47.366	0	5.40	0	14.8760	0	32.0578	0	23.732	0	5.355	0	-1e10	1	-1e10	1	-1E+10	1	1.2629	4	0.001491	0	-1E+10	1	-1E+10	1	-1E+10	1
4902624	12	C	10/19/2024	19:43	-128.323	47.366	0	5.50	0	14.8760	0	32.0579	0	23.732	0	5.454	0	-1e10	1	-1e10	1	-1E+10	1	1.2848	4	0.001796	0	-1E+10	1	-1E+10	1	-1E+10	1
4902624	12	C	10/19/2024	19:43	-128.323	47.366	0	5.60	0	14.8760	0	32.0580	0	23.732	0	5.553	0	-1e10	1	-1e10	1	-1E+10	1	-1e10	1	-1e10	1	-1E+10	1	-1E+10	1	-1E+10	1
4902624	12	C	10/19/2024	19:43	-128.323	47.366	0	5.70	0	14.8760	0	32.0580	0	23.732	0	5.652	0	-1e10	1	-1e10	1	-1E+10	1	1.2848	4	0.001502	0	-1E+10	1	-1E+10	1	-1E+10	1
4902624	12	C	10/19/2024	19:43	-128.323	47.366	0	6.10	0	14.8760	0	32.0580	0	23.732	0	6.049	0	233.8	4	92.2	4	-1E+10	1	1.2118	4	0.001491	0	-1E+10	1	-1E+10	1	-1E+10	1
4902624	12	C	10/19/2024	19:43	-128.323	47.366	0	6.30	0	14.8760	0	32.0580	0	23.732	0	6.247	0	-1e10	1	-1e10	1	-1E+10	1	1.2702	4	0.001514	0	-1E+10	1	-1E+10	1	-1E+10	1
4902624	12	C	10/19/2024	19:43	-128.323	47.366	0	6.50	0	14.8760	0	32.0580	0	23.732	0	6.446	0	-1e10	1	-1e10	1	-1E+10	1	1.2921	4	0.001608	0	-1E+10	1	-1E+10	1	-1E+10	1
4902624	12	C	10/19/2024	19:43	-128.323	47.366	0	6.70	0	14.8756	0	32.0580	0	23.732	0	6.644	0	-1e10	1	-1e10	1	-1E+10	1	1.2629	4	0.001456	0	-1E+10	1	-1E+10	1	-1E+10	1
4902624	12	C	10/19/2024	19:43	-128.323	47.366	0	6.80	0	14.8754	0	32.0580	0	23.732	0	6.743	0	233.8	4	92.2	4	-1E+10	1	1.5111	4	0.001784	0	-1E+10	1	-1E+10	1	-1E+10	1
4902624	12	C	10/19/2024	19:43	-128.323	47.366	0	7.00	0	14.8750	0	32.0580	0	23.733	0	6.942	0	-1e10	1	-1e10	1	-1E+10	1	1.2848	4	0.001596	0	-1E+10	1	-1E+10	1	-1E+10	1
4902624	12	C	10/19/2024	19:43	-128.323	47.366	0	7.20	0	14.8746	0	32.0580	0	23.733	0	7.140	0	-1e10	1	-1e10	1	-1E+10	1	1.2556	4	0.001596	0	-1E+10	1	-1E+10	1	-1E+10	1
4902624	12	C	10/19/2024	19:43	-128.323	47.366	0	7.50	0	14.8740	0	32.0580	0	23.733	0	7.437	0	-1e10	1	-1e10	1	-1E+10	1	-1e10	1	-1e10	1	-1E+10	1	-1E+10	1	-1E+10	1
4902624	12	C	10/19/2024	19:43	-128.323	47.366	0	7.60	0	14.8741	0	32.0580	0	23.733	0	7.537	0	-1e10	1	-1e10	1	-1E+10	1	1.2191	4	0.001373	0	-1E+10	1	-1E+10	1	-1E+10	1
4902624	12	C	10/19/2024	19:43	-128.323	47.366	0	7.80	0	14.8743	0	32.0580	0	23.733	0	7.735	0	233.6	4	92.1	4	-1E+10	1	1.2848	4	0.001385	0	-1E+10	1	-1E+10	1	-1E+10	1
4902624	12	C	10/19/2024	19:43	-128.323	47.366	0	7.90	0	14.8744	0	32.0580	0	23.733	0	7.834	0	-1e10	1	-1e10	1	-1E+10	1	1.2264	4	0.001397	0	-1E+10	1	-1E+10	1	-1E+10	1
4902624	12	C	10/19/2024	19:43	-128.323	47.366	0	8.20	0	14.8746	0	32.0580	0	23.733	0	8.132	0	-1e10	1	-1e10	1	-1E+10	1	1.2264	4	0.001432	0	-1E+10	1	-1E+10	1	-1E+10	1
4902624	12	C	10/19/2024	19:43	-128.323	47.366	0	8.30	0	14.8747	0	32.0580	0	23.733	0	8.231	0	-1e10	1	-1e10	1	-1E+10	1	1.2264	4	0.001409	0	-1E+10	1	-1E+10	1	-1E+10	1
4902624	12	C	10/19/2024	19:43	-128.323	47.366	0	8.40	0	14.8748	0	32.0580	0	23.733	0	8.330	0	-1e10	1	-1e10	1	-1E+10	1	1.2483	4	0.001538	0	-1E+10	1	-1E+10	1	-1E+10	1
4902624	12	C	10/19/2024	19:43	-128.323	47.366	0	8.60	0	14.8750	0	32.0580	0	23.733	0	8.528	0	233.6	4	92.2	4	-1E+10	1	1.2337	4	0.001432	0	-1E+10	1	-1E+10	1	-1E+10	1
4902624	12	C	10/19/2024	19:43	-128.323	47.366	0	8.80	0	14.8750	0	32.0580	0	23.733	0	8.726	0	-1e10	1	-1e10	1	-1E+10	1	1.2410	4	0.001596	0	-1E+10	1	-1E+10	1	-1E+10	1
4902624	12	C	10/19/2024	19:43	-128.323	47.366	0	9.10	0	14.8750	0	32.0580	0	23.733	0	9.024	0	-1e10	1	-1e10	1	-1E+10	1	1.2702	4	0.001397	0	-1E+10	1	-1E+10	1	-1E+10	1
4902624	12	C	10/19/2024	19:43	-128.323	47.366	0	9.30	0	14.8750	0	32.0580	0	23.733	0	9.222	0	-1e10	1	-1e10	1	-1E+10	1	1.2556	4	0.001479	0	-1E+10	1	-1E+10	1	-1E+10	1
4902624	12	C	10/19/2024	19:43	-128.323	47.366	0	9.50	0	14.8750	0	32.0580	0	23.733	0	9.421	0	233.4	4	92.1	4	-1E+10	1	1.2191	4	0.001491	0	-1E+10	1	-1E+10	1	-1E+10	1
4902624	12	C	10/19/2024	19:43	-128.323	47.366	0	9.60	0	14.8750	0	32.0580	0	23.733	0	9.520	0	-1e10	1	-1e10	1	-1E+10	1	1.3140	4	0.001432	0	-1E+10	1	-1E+10	1	-1E+10	1
4902624	12	C	10/19/2024	19:43	-128.323	47.366	0	10.30	0	14.8755	0	32.0575	0	23.732	0	10.214	0	233.3	4	92.0	4	-1E+10	1	1.2515	4	0.001510	0	-1E+10	1	-1E+10	1	-1E+10	1
4902624	12	C	10/19/2024	19:43	-128.323	47.366	0	11.00	0	14.8760	0	32.0570	0	23.732	0	10.908	0	-1e10	1	-1e10	1	-1E+10	1	-1e10	1	-1e10	1	-1E+10	1	-1E+10	1	-1E+10	1
4902624	12	C	10/19/2024	19:43	-128.323	47.366	0	11.30	0	14.8760	0	32.0570	0	23.732	0	11.206	0	233.1	4	92.0	4	-1E+10	1	1.2970	4	0.001502	0	-1E+10	1	-1E+10	1	-1E+10	1
4902624	12	C	10/19/2024	19:43	-128.323	47.366	0	12.30	0	14.8760	0	32.0570	0	23.732	0	12.197	0	233.1	4	92.0	4	-1E+10	1	1.2787	4	0.001559	0	-1E+10	1	-1E+10	1	-1E+10	1
4902624	12	C	10/19/2024	19:43	-128.323	47.366	0	13.10	0	14.8760	0	32.0570	0	23.732	0	12.990	0	-1e10	1	-1e10	1	-1E+10	1	-1e10	1	-1e10	1	-1E+10	1	-1E+10	1	-1E+10	1
4902624	12	C	10/19/2024	19:43	-128.323	47.366	0	13.30	0	14.8758	0	32.0570	0	23.732	0	13.189	0	233.0	4	91.9	4	-1E+10	1	1.2405	4	0.001583	0	-1E+10	1	-1E+10	1	-1E+10	1
4902624	12	C	10/19/2024	19:43	-128.323	47.366	0	14.40	0	14.8746	0	32.0570	0	23.732	0	14.279	0	233.0	4	91.9	4	-1E+10	1	1.2330	4	0.001531	0	-1E+10	1	-1E+10	1	-1E+10	1
4902624	12	C	10/19/2024	19:43	-128.323	47.366	0	15.00	0	14.8740	0	32.0570	0	23.732	0	14.874	0	-1e10	1	-1e10	1	-1E+10	1	-1e10	1	-1e10	1	-1E+10	1	-1E+10	1	-1E+10	1
4902624	12	C	10/19/2024	19:43	-128.323	47.366	0	15.50	0	14.8733	0	32.0573	0	23.733	0	15.370	0	232.9	4	91.9	4	-1E+10	1	1.2595	4	0.001474	0	-1E+10	1	-1E+10	1	-1E+10	1
4902624	12	C	10/19/2024	19:43	-128.323	47.366	0	16.60	0	14.8716	0	32.0578	0	23.733	0	16.461	0	232.7	4	91.8	4	-1E+10	1	1.2410	4	0.001315	0	-1E+10	1	-1E+10	1	-1E+10	1
4902624	12	C	10/19/2024	19:43	-128.323	47.366	0	17.00	0	14.8710	0	32.0580	0	23.734	0	16.858	0	-1e10	1	-1e10	1	-1E+10	1	-1e10	1	-1e10	1	-1E+10	1	-1E+10	1	-1E+10	1
4902624	12	C	10/19/2024	19:43	-128.323	47.366	0	17.80	0	14.8702	0	32.0580	0	23.734	0	17.651	0	232.6	4	91.7	4	-1E+10	1	1.3286	4	0.001415	0	-1E+10	1	-1E+10	1	-1E+10	1
4902624	12	C	10/19/2024	19:43	-128.323	47.366	0	18.90	0	14.8690	0	32.0580	0	23.734	0	18.742	0	-1e10	1	-1e10	1	-1E+10	1	-1e10	1	-1e10	1	-1E+10	1	-1E+10	1	-1E+10	1
4902624	12	C	10/19/2024	19:43	-128.323	47.366	0	19.10	0	14.8688	0	32.0580	0	23.734	0	18.940	0	232.5	4	91.7	4	-1E+10	1	1.4359	4	0.001472	0	-1E+10	1	-1E+10	1	-1E+10	1
4902624	12	C	10/19/2024	19:43	-128.323	47.366	0	20.30	0	14.8677	0	32.0580	0	23.735	0	20.130	0	232.4	4	91.7	4	-1E+10	1	1.3116	4	0.001448	0	-1E+10	1	-1E+10	1	-1E+10	1
4902624	12	C	10/19/2024	19:43	-128.323	47.366	0	21.00	0	14.8670	0	32.0580	0	23.735	0	20.824	0	-1e10	1	-1e10	1	-1E+10	1	-1e10	1	-1e10	1	-1E+10	1	-1E+10	1	-1E+10	1
4902624	12	C	10/19/2024	19:43	-128.323	47.366	0	21.60	0	14.8661	0	32.0580	0	23.735	0	21.419	0	232.2	4	91.6	4	-1E+10	1	1.2577	4	0.001700	0	-1E+10	1	-1E+10	1	-1E+10	1
4902624	12	C	10/19/2024	19:43	-128.323	47.366	0	22.80	0	14.8644	0	32.0580	0	23.735	0	22.609	0	232.1	4	91.5	4	-1E+10	1	1.2837	4	0.001863	0	-1E+10	1	-1E+10	1	-1E+10	1
4902624	12	C	10/19/2024	19:43	-128.323	47.366	0	23.10	0	14.8640	0	32.0580	0	23.735	0	22.906	0	-1e10	1	-1e10	1	-1E+10	1	-1e10	1	-1e10	1	-1E+10	1	-1E+10	1	-1E+10	1
4902624	12	C	10/19/2024	19:43	-128.323	47.366	0	24.00	0	14.8640	0	32.0580	0	23.735	0	23.799	0	232.0	4	91.5	4	-1E+10	1	1.3067	4	0.001721	0	-1E+10	1	-1E+10	1	-1E+10	1
4902624	12	C	10/19/2024	19:43	-128.323	47.366	0	25.10	0	14.8640	0	32.0580	0	23.735	0	24.889	0	-1e10	1	-1e10	1	-1E+10	1	-1e10	1	-1e10	1	-1E+10	1	-1E+10	1	-1E+10	1
4902624	12	C	10/19/2024	19:43	-128.323	47.366	0	25.20	0	14.8638	0	32.0580	0	23.736	0	24.988	0	231.8	4	91.4	4	-1E+10	1	1.3234	4	0.001539	0	-1E+10	1	-1E+10	1	-1E+10	1
4902624	12	C	10/19/2024	19:43	-128.323	47.366	0	26.40	0	14.8619	0	32.0580	0	23.736	0	26.178	0	231.6	4	91.3	4	-1E+10	1	1.3359	4	0.001620	0	-1E+10	1	-1E+10	1	-1E+10	1
4902624	12	C	10/19/2024	19:43	-128.323	47.366	0	27.00	0	14.8610	0	32.0580	0	23.736	0	26.773	0	-1e10	1	-1e10	1	-1E+10	1	-1e10	1	-1e10	1	-1E+10	1	-1E+10	1	-1E+10	1
4902624	12	C	10/19/2024	19:43	-128.323	47.366	0	27.60	0	14.8604	0	32.0577	0	23.736	0	27.368	0	231.4	4	91.3	4	-1E+10	1	1.2556	4	0.001502	0	-1E+10	1	-1E+10	1	-1E+10	1
4902624	12	C	10/19/2024	19:43	-128.323	47.366	0	28.90	0	14.8592	0	32.0571	0	23.736	0	28.657	0	231.1	4	91.1	4	-1E+10	1	1.2022	4	0.001378	0	-1E+10	1	-1E+10	1	-1E+10	1
4902624	12	C	10/19/2024	19:43	-128.323	47.366	0	29.10	0	14.8590	0	32.0570	0	23.736	0	28.855	0	-1e10	1	-1e10	1	-1E+10	1	-1e10	1	-1e10	1	-1E+10	1	-1E+10	1	-1E+10	1
4902624	12	C	10/19/2024	19:43	-128.323	47.366	0	30.20	0	14.8590	0	32.0570	0	23.736	0	29.946	0	230.8	4	91.0	4	-1E+10	1	1.3310	4	0.001326	0	-1E+10	1	-1E+10	1	-1E+10	1
4902624	12	C	10/19/2024	19:43	-128.323	47.366	0	31.10	0	14.8590	0	32.0570	0	23.736	0	30.838	0	-1e10	1	-1e10	1	-1E+10	1	-1e10	1	-1e10	1	-1E+10	1	-1E+10	1	-1E+10	1
4902624	12	C	10/19/2024	19:43	-128.323	47.366	0	31.40	0	14.8587	0	32.0570	0	23.736	0	31.136	0	230.5	4	90.9	4	-1E+10	1	1.3348	4	0.001397	0	-1E+10	1	-1E+10	1	-1E+10	1
4902624	12	C	10/19/2024	19:43	-128.323	47.366	0	32.80	0	14.8572	0	32.0570	0	23.736	0	32.524	0	230.1	4	90.7	4	-1E+10	1	1.2994	4	0.001455	0	-1E+10	1	-1E+10	1	-1E+10	1
4902624	12	C	10/19/2024	19:43	-128.323	47.366	0	33.00	0	14.8570	0	32.0570	0	23.736	0	32.722	0	-1e10	1	-1e10	1	-1E+10	1	-1e10	1	-1e10	1	-1E+10	1	-1E+10	1	-1E+10	1
4902624	12	C	10/19/2024	19:43	-128.323	47.366	0	34.10	0	14.8565	0	32.0570	0	23.737	0	33.813	0	229.7	4	90.6	4	-1E+10	1	1.3140	4	0.001487	0	-1E+10	1	-1E+10	1	-1E+10	1
4902624	12	C	10/19/2024	19:43	-128.323	47.366	0	35.00	0	14.8560	0	32.0570	0	23.737	0	34.705	0	-1e10	1	-1e10	1	-1E+10	1	-1e10	1	-1e10	1	-1E+10	1	-1E+10	1	-1E+10	1
4902624	12	C	10/19/2024	19:43	-128.323	47.366	0	35.40	0	14.8554	0	32.0570	0	23.737	0	35.102	0	229.1	4	90.3	4	-1E+10	1	1.2809	4	0.001570	0	-1E+10	1	-1E+10	1	-1E+10	1
4902624	12	C	10/19/2024	19:43	-128.323	47.366	0	36.70	0	14.8534	0	32.0570	0	23.737	0	36.391	0	228.5	4	90.1	4	-1E+10	1	1.2176	4	0.001526	0	-1E+10	1	-1E+10	1	-1E+10	1
4902624	12	C	10/19/2024	19:43	-128.323	47.366	0	37.00	0	14.8530	0	32.0570	0	23.737	0	36.688	0	-1e10	1	-1e10	1	-1E+10	1	-1e10	1	-1e10	1	-1E+10	1	-1E+10	1	-1E+10	1
4902624	12	C	10/19/2024	19:43	-128.323	47.366	0	37.90	0	14.8507	0	32.0561	0	23.737	0	37.581	0	228.0	4	89.9	4	-1E+10	1	1.2118	4	0.001385	0	-1E+10	1	-1E+10	1	-1E+10	1
4902624	12	C	10/19/2024	19:43	-128.323	47.366	0	38.90	0	14.8482	0	32.0551	0	23.737	0	38.572	0	227.4	4	89.7	4	-1E+10	1	1.2422	4	0.001444	0	-1E+10	1	-1E+10	1	-1E+10	1
4902624	12	C	10/19/2024	19:43	-128.323	47.366	0	39.00	0	14.8480	0	32.0550	0	23.737	0	38.671	0	-1e10	1	-1e10	1	-1E+10	1	-1e10	1	-1e10	1	-1E+10	1	-1E+10	1	-1E+10	1
4902624	12	C	10/19/2024	19:43	-128.323	47.366	0	39.70	0	14.8477	0	32.0547	0	23.737	0	39.365	0	226.7	4	89.4	4	-1E+10	1	1.3249	4	0.001517	0	-1E+10	1	-1E+10	1	-1E+10	1
4902624	12	C	10/19/2024	19:43	-128.323	47.366	0	40.50	0	14.8473	0	32.0543	0	23.737	0	40.159	0	226.0	4	89.1	4	-1E+10	1	1.4089	4	0.001530	0	-1E+10	1	-1E+10	1	-1E+10	1
4902624	12	C	10/19/2024	19:43	-128.323	47.366	0	41.10	0	14.8470	0	32.0540	0	23.737	0	40.753	0	-1e10	1	-1e10	1	-1E+10	1	-1e10	1	-1e10	1	-1E+10	1	-1E+10	1	-1E+10	1
4902624	12	C	10/19/2024	19:43	-128.323	47.366	0	41.30	0	14.8456	0	32.0535	0	23.736	0	40.952	0	225.3	4	88.8	4	-1E+10	1	1.3164	4	0.001454	0	-1E+10	1	-1E+10	1	-1E+10	1
4902624	12	C	10/19/2024	19:43	-128.323	47.366	0	42.00	0	14.8407	0	32.0518	0	23.736	0	41.646	0	224.4	4	88.5	4	-1E+10	1	1.2785	4	0.001437	0	-1E+10	1	-1E+10	1	-1E+10	1
4902624	12	C	10/19/2024	19:43	-128.323	47.366	0	42.60	0	14.8365	0	32.0503	0	23.736	0	42.241	0	223.4	4	88.1	4	-1E+10	1	1.3098	4	0.001454	0	-1E+10	1	-1E+10	1	-1E+10	1
4902624	12	C	10/19/2024	19:43	-128.323	47.366	0	43.10	0	14.8330	0	32.0490	0	23.736	0	42.736	0	-1e10	1	-1e10	1	-1E+10	1	-1e10	1	-1e10	1	-1E+10	1	-1E+10	1	-1E+10	1
4902624	12	C	10/19/2024	19:43	-128.323	47.366	0	43.30	0	14.8172	0	32.0490	0	23.739	0	42.935	0	222.5	4	87.7	4	-1E+10	1	1.1732	4	0.001365	0	-1E+10	1	-1E+10	1	-1E+10	1
4902624	12	C	10/19/2024	19:43	-128.323	47.366	0	43.80	0	14.7777	0	32.0490	0	23.747	0	43.430	0	221.4	4	87.2	4	-1E+10	1	1.1315	4	0.001373	0	-1E+10	1	-1E+10	1	-1E+10	1
4902624	12	C	10/19/2024	19:43	-128.323	47.366	0	44.40	0	14.7304	0	32.0490	0	23.758	0	44.025	0	220.4	4	86.7	4	-1E+10	1	1.1388	4	0.001737	0	-1E+10	1	-1E+10	1	-1E+10	1
4902624	12	C	10/19/2024	19:43	-128.323	47.366	0	45.00	0	14.6830	0	32.0490	0	23.768	0	44.620	0	219.4	4	86.2	4	-1E+10	1	0.9125	4	0.001244	0	-1E+10	1	-1E+10	1	-1E+10	1
4902624	12	C	10/19/2024	19:43	-128.323	47.366	0	45.70	0	14.1483	0	32.0690	0	23.895	0	45.314	0	218.5	4	84.9	4	-1E+10	1	0.6132	4	0.001056	0	-1E+10	1	-1E+10	1	-1E+10	1
4902624	12	C	10/19/2024	19:43	-128.323	47.366	0	46.10	0	13.8428	0	32.0804	0	23.966	0	45.711	0	218.0	4	84.2	4	-1E+10	1	0.5314	4	0.000906	0	-1E+10	1	-1E+10	1	-1E+10	1
4902624	12	C	10/19/2024	19:43	-128.323	47.366	0	46.50	0	13.5373	0	32.0919	0	24.036	0	46.107	0	217.6	4	83.6	4	-1E+10	1	0.4278	4	0.000763	0	-1E+10	1	-1E+10	1	-1E+10	1
4902624	12	C	10/19/2024	19:43	-128.323	47.366	0	46.90	0	13.2318	0	32.1033	0	24.106	0	46.504	0	217.6	4	83.1	4	-1E+10	1	0.3358	4	0.000633	0	-1E+10	1	-1E+10	1	-1E+10	1
4902624	12	C	10/19/2024	19:43	-128.323	47.366	0	47.10	0	13.0790	0	32.1090	0	24.141	0	46.702	0	-1e10	1	-1e10	1	-1E+10	1	-1e10	1	-1e10	1	-1E+10	1	-1E+10	1	-1E+10	1
4902624	12	C	10/19/2024	19:43	-128.323	47.366	0	47.20	0	13.0254	0	32.1112	0	24.153	0	46.801	0	217.3	4	82.6	4	-1E+10	1	0.2920	4	0.000586	0	-1E+10	1	-1E+10	1	-1E+10	1
4902624	12	C	10/19/2024	19:43	-128.323	47.366	0	47.50	0	12.8646	0	32.1176	0	24.189	0	47.099	0	216.5	4	82.1	4	-1E+10	1	0.2810	4	0.000605	0	-1E+10	1	-1E+10	1	-1E+10	1
4902624	12	C	10/19/2024	19:43	-128.323	47.366	0	47.90	0	12.6502	0	32.1262	0	24.237	0	47.495	0	215.7	4	81.4	4	-1E+10	1	0.2896	4	0.000599	0	-1E+10	1	-1E+10	1	-1E+10	1
4902624	12	C	10/19/2024	19:43	-128.323	47.366	0	48.40	0	12.3822	0	32.1370	0	24.296	0	47.991	0	215.0	4	80.7	4	-1E+10	1	0.2774	4	0.000657	0	-1E+10	1	-1E+10	1	-1E+10	1
4902624	12	C	10/19/2024	19:43	-128.323	47.366	0	48.90	0	12.1142	0	32.1477	0	24.355	0	48.487	0	215.1	4	80.3	4	-1E+10	1	0.2409	4	0.000575	0	-1E+10	1	-1E+10	1	-1E+10	1
4902624	12	C	10/19/2024	19:43	-128.323	47.366	0	49.10	0	12.0070	0	32.1520	0	24.378	0	48.685	0	-1e10	1	-1e10	1	-1E+10	1	-1e10	1	-1e10	1	-1E+10	1	-1E+10	1	-1E+10	1
4902624	12	C	10/19/2024	19:43	-128.323	47.366	0	49.40	0	11.9530	0	32.1583	0	24.393	0	48.982	0	215.8	4	80.3	4	-1E+10	1	0.2461	4	0.000634	0	-1E+10	1	-1E+10	1	-1E+10	1
4902624	12	C	10/19/2024	19:43	-128.323	47.366	0	50.00	0	11.8450	0	32.1709	0	24.423	0	49.577	0	216.6	4	80.4	4	-1E+10	1	0.2336	4	0.000618	0	-1E+10	1	-1E+10	1	-1E+10	1
4902624	12	C	10/19/2024	19:43	-128.323	47.366	0	50.50	0	11.7550	0	32.1814	0	24.448	0	50.073	0	217.7	4	80.7	4	-1E+10	1	0.2263	4	0.000657	0	-1E+10	1	-1E+10	1	-1E+10	1
4902624	12	C	10/19/2024	19:43	-128.323	47.366	0	51.10	0	11.6470	0	32.1940	0	24.477	0	50.668	0	217.7	4	80.5	4	-1E+10	1	0.2154	4	0.000710	0	-1E+10	1	-1E+10	1	-1E+10	1
4902624	12	C	10/19/2024	19:43	-128.323	47.366	0	51.70	0	11.5585	0	32.1976	0	24.496	0	51.263	0	220.6	4	81.4	4	-1E+10	1	0.2017	4	0.000700	0	-1E+10	1	-1E+10	1	-1E+10	1
4902624	12	C	10/19/2024	19:43	-128.323	47.366	0	52.30	0	11.4700	0	32.2012	0	24.515	0	51.858	0	223.0	4	82.1	4	-1E+10	1	0.1995	4	0.000687	0	-1E+10	1	-1E+10	1	-1E+10	1
4902624	12	C	10/19/2024	19:43	-128.323	47.366	0	52.90	0	11.3815	0	32.2048	0	24.534	0	52.452	0	226.3	4	83.2	4	-1E+10	1	0.2071	4	0.000653	0	-1E+10	1	-1E+10	1	-1E+10	1
4902624	12	C	10/19/2024	19:43	-128.323	47.366	0	53.10	0	11.3520	0	32.2060	0	24.540	0	52.651	0	-1e10	1	-1e10	1	-1E+10	1	-1e10	1	-1e10	1	-1E+10	1	-1E+10	1	-1E+10	1
4902624	12	C	10/19/2024	19:43	-128.323	47.366	0	53.60	0	11.2891	0	32.2118	0	24.555	0	53.146	0	229.8	4	84.3	4	-1E+10	1	0.1752	4	0.000622	0	-1E+10	1	-1E+10	1	-1E+10	1
4902624	12	C	10/19/2024	19:43	-128.323	47.366	0	54.30	0	11.2011	0	32.2199	0	24.577	0	53.840	0	233.7	4	85.6	4	-1E+10	1	0.2199	4	0.000612	0	-1E+10	1	-1E+10	1	-1E+10	1
4902624	12	C	10/19/2024	19:43	-128.323	47.366	0	54.90	0	11.1256	0	32.2268	0	24.596	0	54.435	0	234.9	4	85.9	4	-1E+10	1	0.2367	4	0.000619	0	-1E+10	1	-1E+10	1	-1E+10	1
4902624	12	C	10/19/2024	19:43	-128.323	47.366	0	55.00	0	11.1130	0	32.2280	0	24.599	0	54.534	0	-1e10	1	-1e10	1	-1E+10	1	-1e10	1	-1e10	1	-1E+10	1	-1E+10	1	-1E+10	1
4902624	12	C	10/19/2024	19:43	-128.323	47.366	0	55.70	0	10.9523	0	32.2424	0	24.639	0	55.228	0	234.4	4	85.4	4	-1E+10	1	0.2312	4	0.000528	0	-1E+10	1	-1E+10	1	-1E+10	1
4902624	12	C	10/19/2024	19:43	-128.323	47.366	0	56.40	0	10.7917	0	32.2567	0	24.678	0	55.922	0	233.9	4	85.0	4	-1E+10	1	0.2263	4	0.000507	0	-1E+10	1	-1E+10	1	-1E+10	1
4902624	12	C	10/19/2024	19:43	-128.323	47.366	0	57.00	0	10.6540	0	32.2690	0	24.711	0	56.517	0	-1e10	1	-1e10	1	-1E+10	1	-1e10	1	-1e10	1	-1E+10	1	-1E+10	1	-1E+10	1
4902624	12	C	10/19/2024	19:43	-128.323	47.366	0	57.20	0	10.6235	0	32.2709	0	24.718	0	56.715	0	233.5	4	84.5	4	-1E+10	1	0.2290	4	0.000518	0	-1E+10	1	-1E+10	1	-1E+10	1
4902624	12	C	10/19/2024	19:43	-128.323	47.366	0	58.10	0	10.4862	0	32.2794	0	24.748	0	57.608	0	233.0	4	84.1	4	-1E+10	1	0.2307	4	0.000491	0	-1E+10	1	-1E+10	1	-1E+10	1
4902624	12	C	10/19/2024	19:43	-128.323	47.366	0	58.90	0	10.3643	0	32.2870	0	24.775	0	58.401	0	232.5	4	83.7	4	-1E+10	1	0.2321	4	0.000517	0	-1E+10	1	-1E+10	1	-1E+10	1
4902624	12	C	10/19/2024	19:43	-128.323	47.366	0	59.00	0	10.3490	0	32.2880	0	24.778	0	58.500	0	-1e10	1	-1e10	1	-1E+10	1	-1e10	1	-1e10	1	-1E+10	1	-1E+10	1	-1E+10	1
4902624	12	C	10/19/2024	19:43	-128.323	47.366	0	59.70	0	10.3018	0	32.2880	0	24.786	0	59.194	0	231.9	4	83.3	4	-1E+10	1	0.2555	4	0.000564	0	-1E+10	1	-1E+10	1	-1E+10	1
4902624	12	C	10/19/2024	19:43	-128.323	47.366	0	60.50	0	10.2477	0	32.2880	0	24.795	0	59.987	0	230.9	4	82.9	4	-1E+10	1	0.2190	4	0.000470	0	-1E+10	1	-1E+10	1	-1E+10	1
4902624	12	C	10/19/2024	19:43	-128.323	47.366	0	61.00	0	10.2140	0	32.2880	0	24.801	0	60.483	0	-1e10	1	-1e10	1	-1E+10	1	-1e10	1	-1e10	1	-1E+10	1	-1E+10	1	-1E+10	1
4902624	12	C	10/19/2024	19:43	-128.323	47.366	0	61.50	0	10.1462	0	32.2932	0	24.816	0	60.978	0	229.8	4	82.3	4	-1E+10	1	0.2129	4	0.000479	0	-1E+10	1	-1E+10	1	-1E+10	1
4902624	12	C	10/19/2024	19:43	-128.323	47.366	0	62.50	0	10.0107	0	32.3037	0	24.847	0	61.970	0	228.6	4	81.7	4	-1E+10	1	0.2068	4	0.000474	0	-1E+10	1	-1E+10	1	-1E+10	1
4902624	12	C	10/19/2024	19:43	-128.323	47.366	0	63.00	0	9.9430	0	32.3090	0	24.862	0	62.465	0	-1e10	1	-1e10	1	-1E+10	1	-1e10	1	-1e10	1	-1E+10	1	-1E+10	1	-1E+10	1
4902624	12	C	10/19/2024	19:43	-128.323	47.366	0	63.50	0	9.8767	0	32.3132	0	24.876	0	62.961	0	227.5	4	81.1	4	-1E+10	1	0.2132	4	0.000484	0	-1E+10	1	-1E+10	1	-1E+10	1
4902624	12	C	10/19/2024	19:43	-128.323	47.366	0	64.50	0	9.7443	0	32.3218	0	24.905	0	63.952	0	226.5	4	80.5	4	-1E+10	1	0.2089	4	0.000477	0	-1E+10	1	-1E+10	1	-1E+10	1
4902624	12	C	10/19/2024	19:43	-128.323	47.366	0	65.00	0	9.6780	0	32.3260	0	24.919	0	64.448	0	-1e10	1	-1e10	1	-1E+10	1	-1e10	1	-1e10	1	-1E+10	1	-1E+10	1	-1E+10	1
4902624	12	C	10/19/2024	19:43	-128.323	47.366	0	65.60	0	9.6189	0	32.3308	0	24.932	0	65.043	0	225.4	4	79.9	4	-1E+10	1	0.1993	4	0.000465	0	-1E+10	1	-1E+10	1	-1E+10	1
4902624	12	C	10/19/2024	19:43	-128.323	47.366	0	66.70	0	9.5105	0	32.3396	0	24.956	0	66.133	0	223.9	4	79.1	4	-1E+10	1	0.2017	4	0.000473	0	-1E+10	1	-1E+10	1	-1E+10	1
4902624	12	C	10/19/2024	19:43	-128.323	47.366	0	67.00	0	9.4810	0	32.3420	0	24.963	0	66.431	0	-1e10	1	-1e10	1	-1E+10	1	-1e10	1	-1e10	1	-1E+10	1	-1E+10	1	-1E+10	1
4902624	12	C	10/19/2024	19:43	-128.323	47.366	0	67.90	0	9.4067	0	32.3479	0	24.980	0	67.323	0	222.1	4	78.3	4	-1E+10	1	0.1914	4	0.000458	0	-1E+10	1	-1E+10	1	-1E+10	1
4902624	12	C	10/19/2024	19:43	-128.323	47.366	0	69.00	0	9.3160	0	32.3550	0	25.000	0	68.414	0	217.9	4	76.7	4	-1E+10	1	0.1971	4	0.000546	0	-1E+10	1	-1E+10	1	-1E+10	1
4902624	12	C	10/19/2024	19:43	-128.323	47.366	0	70.10	0	9.2638	0	32.3627	0	25.014	0	69.504	0	218.4	4	76.8	4	-1E+10	1	0.1786	4	0.000491	0	-1E+10	1	-1E+10	1	-1E+10	1
4902624	12	C	10/19/2024	19:43	-128.323	47.366	0	71.00	0	9.2210	0	32.3690	0	25.025	0	70.396	0	-1e10	1	-1e10	1	-1E+10	1	-1e10	1	-1e10	1	-1E+10	1	-1E+10	1	-1E+10	1
4902624	12	C	10/19/2024	19:43	-128.323	47.366	0	71.20	0	9.1983	0	32.3710	0	25.031	0	70.594	0	216.6	4	76.0	4	-1E+10	1	0.1861	4	0.000516	0	-1E+10	1	-1E+10	1	-1E+10	1
4902624	12	C	10/19/2024	19:43	-128.323	47.366	0	72.40	0	9.0621	0	32.3830	0	25.061	0	71.784	0	214.3	4	75.0	4	-1E+10	1	0.1710	4	0.000430	0	-1E+10	1	-1E+10	1	-1E+10	1
4902624	12	C	10/19/2024	19:43	-128.323	47.366	0	73.00	0	8.9940	0	32.3890	0	25.077	0	72.379	0	-1e10	1	-1e10	1	-1E+10	1	-1e10	1	-1e10	1	-1E+10	1	-1E+10	1	-1E+10	1
4902624	12	C	10/19/2024	19:43	-128.323	47.366	0	73.60	0	8.9589	0	32.3968	0	25.088	0	72.974	0	211.9	4	74.0	4	-1E+10	1	0.1533	4	0.000393	0	-1E+10	1	-1E+10	1	-1E+10	1
4902624	12	C	10/19/2024	19:43	-128.323	47.366	0	74.80	0	8.8887	0	32.4124	0	25.111	0	74.163	0	209.6	4	73.1	4	-1E+10	1	0.1430	4	0.000421	0	-1E+10	1	-1E+10	1	-1E+10	1
4902624	12	C	10/19/2024	19:43	-128.323	47.366	0	75.00	0	8.8770	0	32.4150	0	25.115	0	74.361	0	-1e10	1	-1e10	1	-1E+10	1	-1e10	1	-1e10	1	-1E+10	1	-1E+10	1	-1E+10	1
4902624	12	C	10/19/2024	19:43	-128.323	47.366	0	76.00	0	8.8370	0	32.4240	0	25.128	0	75.353	0	206.2	4	71.9	4	-1E+10	1	0.1387	4	0.000434	0	-1E+10	1	-1E+10	1	-1E+10	1
4902624	12	C	10/19/2024	19:43	-128.323	47.366	0	77.10	0	8.7930	0	32.4340	0	25.143	0	76.443	0	-1e10	1	-1e10	1	-1E+10	1	-1e10	1	-1e10	1	-1E+10	1	-1E+10	1	-1E+10	1
4902624	12	C	10/19/2024	19:43	-128.323	47.366	0	77.20	0	8.7867	0	32.4368	0	25.146	0	76.542	0	202.9	4	70.6	4	-1E+10	1	0.1406	4	0.000431	0	-1E+10	1	-1E+10	1	-1E+10	1
4902624	12	C	10/19/2024	19:43	-128.323	47.366	0	78.50	0	8.7048	0	32.4739	0	25.187	0	77.831	0	200.6	4	69.7	4	-1E+10	1	0.1533	4	0.000411	0	-1E+10	1	-1E+10	1	-1E+10	1
4902624	12	C	10/19/2024	19:43	-128.323	47.366	0	79.10	0	8.6670	0	32.4910	0	25.207	0	78.426	0	-1e10	1	-1e10	1	-1E+10	1	-1e10	1	-1e10	1	-1E+10	1	-1E+10	1	-1E+10	1
4902624	12	C	10/19/2024	19:43	-128.323	47.366	0	79.80	0	8.6463	0	32.5001	0	25.217	0	79.120	0	198.8	4	69.0	4	-1E+10	1	0.1168	4	0.000446	0	-1E+10	1	-1E+10	1	-1E+10	1
4902624	12	C	10/19/2024	19:43	-128.323	47.366	0	81.00	0	8.6109	0	32.5157	0	25.234	0	80.309	0	196.5	4	68.2	4	-1E+10	1	0.1168	4	0.000426	0	-1E+10	1	-1E+10	1	-1E+10	1
4902624	12	C	10/19/2024	19:43	-128.323	47.366	0	81.10	0	8.6080	0	32.5170	0	25.236	0	80.408	0	-1e10	1	-1e10	1	-1E+10	1	-1e10	1	-1e10	1	-1E+10	1	-1E+10	1	-1E+10	1
4902624	12	C	10/19/2024	19:43	-128.323	47.366	0	82.20	0	8.6052	0	32.5219	0	25.240	0	81.499	0	194.0	4	67.3	4	-1E+10	1	0.1217	4	0.000415	0	-1E+10	1	-1E+10	1	-1E+10	1
4902624	12	C	10/19/2024	19:43	-128.323	47.366	0	83.10	0	8.6030	0	32.5260	0	25.244	0	82.391	0	-1e10	1	-1e10	1	-1E+10	1	-1e10	1	-1e10	1	-1E+10	1	-1E+10	1	-1E+10	1
4902624	12	C	10/19/2024	19:43	-128.323	47.366	0	83.40	0	8.5997	0	32.5311	0	25.248	0	82.688	0	191.5	4	66.4	4	-1E+10	1	0.1411	4	0.000418	0	-1E+10	1	-1E+10	1	-1E+10	1
4902624	12	C	10/19/2024	19:43	-128.323	47.366	0	84.60	0	8.5864	0	32.5513	0	25.266	0	83.878	0	189.2	4	65.6	4	-1E+10	1	0.1752	4	0.000505	0	-1E+10	1	-1E+10	1	-1E+10	1
4902624	12	C	10/19/2024	19:43	-128.323	47.366	0	85.00	0	8.5820	0	32.5580	0	25.272	0	84.274	0	-1e10	1	-1e10	1	-1E+10	1	-1e10	1	-1e10	1	-1E+10	1	-1E+10	1	-1E+10	1
4902624	12	C	10/19/2024	19:43	-128.323	47.366	0	85.80	0	8.5844	0	32.5784	0	25.288	0	85.067	0	186.6	4	64.7	4	-1E+10	1	0.2023	4	0.000524	0	-1E+10	1	-1E+10	1	-1E+10	1
4902624	12	C	10/19/2024	19:43	-128.323	47.366	0	87.00	0	8.5880	0	32.6090	0	25.311	0	86.257	0	181.8	4	63.1	4	-1E+10	1	0.2077	4	0.000411	0	-1E+10	1	-1E+10	1	-1E+10	1
4902624	12	C	10/19/2024	19:43	-128.323	47.366	0	88.00	0	8.5745	0	32.6345	0	25.333	0	87.248	0	182.4	4	63.3	4	-1E+10	1	0.1944	4	0.000394	0	-1E+10	1	-1E+10	1	-1E+10	1
4902624	12	C	10/19/2024	19:43	-128.323	47.366	0	88.90	0	8.5624	0	32.6575	0	25.353	0	88.140	0	180.1	4	62.5	4	-1E+10	1	0.1825	4	0.000317	0	-1E+10	1	-1E+10	1	-1E+10	1
4902624	12	C	10/19/2024	19:43	-128.323	47.366	0	89.00	0	8.5610	0	32.6600	0	25.355	0	88.239	0	-1e10	1	-1e10	1	-1E+10	1	-1e10	1	-1e10	1	-1E+10	1	-1E+10	1	-1E+10	1
4902624	12	C	10/19/2024	19:43	-128.323	47.366	0	89.70	0	8.5310	0	32.6760	0	25.372	0	88.933	0	178.1	4	61.8	4	-1E+10	1	0.1825	4	0.000359	0	-1E+10	1	-1E+10	1	-1E+10	1
4902624	12	C	10/19/2024	19:43	-128.323	47.366	0	90.40	0	8.5010	0	32.6920	0	25.389	0	89.627	0	176.2	4	61.1	4	-1E+10	1	0.1770	4	0.000417	0	-1E+10	1	-1E+10	1	-1E+10	1
4902624	12	C	10/19/2024	19:43	-128.323	47.366	0	91.10	0	8.4710	0	32.7080	0	25.406	0	90.321	0	-1e10	1	-1e10	1	-1E+10	1	-1e10	1	-1e10	1	-1E+10	1	-1E+10	1	-1E+10	1
4902624	12	C	10/19/2024	19:43	-128.323	47.366	0	91.20	0	8.4682	0	32.7097	0	25.408	0	90.420	0	174.3	4	60.4	4	-1E+10	1	0.1703	4	0.000387	0	-1E+10	1	-1E+10	1	-1E+10	1
4902624	12	C	10/19/2024	19:43	-128.323	47.366	0	91.90	0	8.4487	0	32.7215	0	25.420	0	91.114	0	172.5	4	59.7	4	-1E+10	1	0.1841	4	0.000755	0	-1E+10	1	-1E+10	1	-1E+10	1
4902624	12	C	10/19/2024	19:43	-128.323	47.366	0	92.70	0	8.4264	0	32.7349	0	25.434	0	91.907	0	170.6	4	59.0	4	-1E+10	1	0.1981	4	0.000846	0	-1E+10	1	-1E+10	1	-1E+10	1
4902624	12	C	10/19/2024	19:43	-128.323	47.366	0	93.00	0	8.4180	0	32.7400	0	25.439	0	92.204	0	-1e10	1	-1e10	1	-1E+10	1	-1e10	1	-1e10	1	-1E+10	1	-1E+10	1	-1E+10	1
4902624	12	C	10/19/2024	19:43	-128.323	47.366	0	93.40	0	8.4042	0	32.7486	0	25.448	0	92.601	0	168.7	4	58.4	4	-1E+10	1	0.1776	4	0.000329	0	-1E+10	1	-1E+10	1	-1E+10	1
4902624	12	C	10/19/2024	19:43	-128.323	47.366	0	94.10	0	8.3800	0	32.7637	0	25.464	0	93.295	0	166.5	4	57.6	4	-1E+10	1	0.1518	4	0.000350	0	-1E+10	1	-1E+10	1	-1E+10	1
4902624	12	C	10/19/2024	19:43	-128.323	47.366	0	95.00	0	8.3490	0	32.7830	0	25.483	0	94.187	0	162.2	4	56.1	4	-1E+10	1	0.1387	4	0.000332	0	-1E+10	1	-1E+10	1	-1E+10	1
4902624	12	C	10/19/2024	19:43	-128.323	47.366	0	95.70	0	8.3118	0	32.8081	0	25.509	0	94.880	0	163.1	4	56.3	4	-1E+10	1	0.1387	4	0.000352	0	-1E+10	1	-1E+10	1	-1E+10	1
4902624	12	C	10/19/2024	19:43	-128.323	47.366	0	96.50	0	8.2693	0	32.8367	0	25.537	0	95.673	0	161.6	4	55.8	4	-1E+10	1	0.1212	4	0.000352	0	-1E+10	1	-1E+10	1	-1E+10	1
4902624	12	C	10/19/2024	19:43	-128.323	47.366	0	96.90	0	8.2480	0	32.8510	0	25.552	0	96.070	0	-1e10	1	-1e10	1	-1E+10	1	-1e10	1	-1e10	1	-1E+10	1	-1E+10	1	-1E+10	1
4902624	12	C	10/19/2024	19:43	-128.323	47.366	0	97.30	0	8.2376	0	32.8590	0	25.560	0	96.466	0	160.2	4	55.3	4	-1E+10	1	0.1124	4	0.000338	0	-1E+10	1	-1E+10	1	-1E+10	1
4902624	12	C	10/19/2024	19:43	-128.323	47.366	0	98.10	0	8.2169	0	32.8750	0	25.575	0	97.259	0	158.7	4	54.7	4	-1E+10	1	0.1314	4	0.000352	0	-1E+10	1	-1E+10	1	-1E+10	1
4902624	12	C	10/19/2024	19:43	-128.323	47.366	0	98.90	0	8.1962	0	32.8910	0	25.591	0	98.052	0	157.2	4	54.2	4	-1E+10	1	0.1241	4	0.000389	0	-1E+10	1	-1E+10	1	-1E+10	1
4902624	12	C	10/19/2024	19:43	-128.323	47.366	0	99.10	0	8.1910	0	32.8950	0	25.595	0	98.251	0	-1e10	1	-1e10	1	-1E+10	1	-1e10	1	-1e10	1	-1E+10	1	-1E+10	1	-1E+10	1
4902624	12	C	10/19/2024	19:43	-128.323	47.366	0	99.70	0	8.1709	0	32.9109	0	25.610	0	98.845	0	155.6	4	53.6	4	-1E+10	1	0.1022	4	0.000356	0	-1E+10	1	-1E+10	1	-1E+10	1
4902624	12	C	10/19/2024	19:43	-128.323	47.366	0	100.60	0	8.1407	0	32.9348	0	25.633	0	99.737	0	153.8	4	53.0	4	-1E+10	1	0.1049	4	0.000346	0	-1E+10	1	-1E+10	1	-1E+10	1
4902624	12	C	10/19/2024	19:43	-128.323	47.366	0	101.10	0	8.1240	0	32.9480	0	25.646	0	100.233	0	-1e10	1	-1e10	1	-1E+10	1	-1e10	1	-1e10	1	-1E+10	1	-1E+10	1	-1E+10	1
4902624	12	C	10/19/2024	19:43	-128.323	47.366	0	101.40	0	8.1148	0	32.9548	0	25.653	0	100.530	0	152.1	4	52.4	4	-1E+10	1	0.1029	4	0.000409	0	-1E+10	1	-1E+10	1	-1E+10	1
4902624	12	C	10/19/2024	19:43	-128.323	47.366	0	102.30	0	8.0874	0	32.9752	0	25.673	0	101.422	0	150.5	4	51.8	4	-1E+10	1	0.0876	4	0.000392	0	-1E+10	1	-1E+10	1	-1E+10	1
4902624	12	C	10/19/2024	19:43	-128.323	47.366	0	103.00	0	8.0660	0	32.9910	0	25.688	0	102.116	0	-1e10	1	-1e10	1	-1E+10	1	-1e10	1	-1e10	1	-1E+10	1	-1E+10	1	-1E+10	1
4902624	12	C	10/19/2024	19:43	-128.323	47.366	0	103.20	0	8.0595	0	32.9970	0	25.694	0	102.314	0	149.5	4	51.4	4	-1E+10	1	0.0876	4	0.000364	0	-1E+10	1	-1E+10	1	-1E+10	1
4902624	12	C	10/19/2024	19:43	-128.323	47.366	0	104.10	0	8.0303	0	33.0240	0	25.720	0	103.206	0	148.8	4	51.1	4	-1E+10	1	0.0803	4	0.000328	0	-1E+10	1	-1E+10	1	-1E+10	1
4902624	12	C	10/19/2024	19:43	-128.323	47.366	0	105.00	0	8.0010	0	33.0510	0	25.745	0	104.098	0	145.3	4	49.9	4	-1E+10	1	0.0803	4	0.000348	0	-1E+10	1	-1E+10	1	-1E+10	1
4902624	12	C	10/19/2024	19:43	-128.323	47.366	0	105.90	0	7.9934	0	33.0784	0	25.768	0	104.991	0	146.8	4	50.4	4	-1E+10	1	0.0760	4	0.000352	0	-1E+10	1	-1E+10	1	-1E+10	1
4902624	12	C	10/19/2024	19:43	-128.323	47.366	0	106.90	0	7.9849	0	33.1089	0	25.793	0	105.982	0	145.7	4	50.1	4	-1E+10	1	0.0730	4	0.000359	0	-1E+10	1	-1E+10	1	-1E+10	1
4902624	12	C	10/19/2024	19:43	-128.323	47.366	0	107.00	0	7.9840	0	33.1120	0	25.795	0	106.081	0	-1e10	1	-1e10	1	-1E+10	1	-1e10	1	-1e10	1	-1E+10	1	-1E+10	1	-1E+10	1
4902624	12	C	10/19/2024	19:43	-128.323	47.366	0	107.70	0	7.9880	0	33.1400	0	25.817	0	106.775	0	144.8	4	49.8	4	-1E+10	1	0.0771	4	0.000344	0	-1E+10	1	-1E+10	1	-1E+10	1
4902624	12	C	10/19/2024	19:43	-128.323	47.366	0	108.40	0	7.9920	0	33.1680	0	25.838	0	107.468	0	144.1	4	49.6	4	-1E+10	1	0.0834	4	0.000389	0	-1E+10	1	-1E+10	1	-1E+10	1
4902624	12	C	10/19/2024	19:43	-128.323	47.366	0	108.90	0	7.9949	0	33.1880	0	25.854	0	107.964	0	143.5	4	49.4	4	-1E+10	1	0.0858	4	0.000437	0	-1E+10	1	-1E+10	1	-1E+10	1
4902624	12	C	10/19/2024	19:43	-128.323	47.366	0	109.10	0	7.9960	0	33.1960	0	25.860	0	108.162	0	-1e10	1	-1e10	1	-1E+10	1	-1e10	1	-1e10	1	-1E+10	1	-1E+10	1	-1E+10	1
4902624	12	C	10/19/2024	19:43	-128.323	47.366	0	109.40	0	7.9940	0	33.2042	0	25.866	0	108.460	0	142.9	4	49.2	4	-1E+10	1	0.0845	4	0.000367	0	-1E+10	1	-1E+10	1	-1E+10	1
4902624	12	C	10/19/2024	19:43	-128.323	47.366	0	109.90	0	7.9907	0	33.2178	0	25.878	0	108.955	0	142.4	4	49.0	4	-1E+10	1	0.0949	4	0.000434	0	-1E+10	1	-1E+10	1	-1E+10	1
4902624	12	C	10/19/2024	19:43	-128.323	47.366	0	110.50	0	7.9867	0	33.2341	0	25.891	0	109.550	0	141.8	4	48.8	4	-1E+10	1	0.0730	4	0.000293	0	-1E+10	1	-1E+10	1	-1E+10	1
4902624	12	C	10/19/2024	19:43	-128.323	47.366	0	110.90	0	7.9840	0	33.2450	0	25.900	0	109.946	0	-1e10	1	-1e10	1	-1E+10	1	-1e10	1	-1e10	1	-1E+10	1	-1E+10	1	-1E+10	1
4902624	12	C	10/19/2024	19:43	-128.323	47.366	0	111.00	0	7.9847	0	33.2482	0	25.902	0	110.045	0	141.6	4	48.7	4	-1E+10	1	0.0669	4	0.000342	0	-1E+10	1	-1E+10	1	-1E+10	1
4902624	12	C	10/19/2024	19:43	-128.323	47.366	0	111.50	0	7.9880	0	33.2641	0	25.914	0	110.541	0	141.7	4	48.7	4	-1E+10	1	0.0574	4	0.000332	0	-1E+10	1	-1E+10	1	-1E+10	1
4902624	12	C	10/19/2024	19:43	-128.323	47.366	0	112.10	0	7.9920	0	33.2833	0	25.929	0	111.136	0	142.0	4	48.9	4	-1E+10	1	0.0542	4	0.000347	0	-1E+10	1	-1E+10	1	-1E+10	1
4902624	12	C	10/19/2024	19:43	-128.323	47.366	0	112.70	0	7.9960	0	33.3024	0	25.943	0	111.730	0	142.6	4	49.1	4	-1E+10	1	0.0584	4	0.000368	0	-1E+10	1	-1E+10	1	-1E+10	1
4902624	12	C	10/19/2024	19:43	-128.323	47.366	0	113.00	0	7.9980	0	33.3120	0	25.950	0	112.028	0	-1e10	1	-1e10	1	-1E+10	1	-1e10	1	-1e10	1	-1E+10	1	-1E+10	1	-1E+10	1
4902624	12	C	10/19/2024	19:43	-128.323	47.366	0	113.40	0	7.9849	0	33.3211	0	25.959	0	112.424	0	143.0	4	49.2	4	-1E+10	1	0.0560	4	0.000340	0	-1E+10	1	-1E+10	1	-1E+10	1
4902624	12	C	10/19/2024	19:43	-128.323	47.366	0	114.10	0	7.9621	0	33.3369	0	25.975	0	113.118	0	143.3	4	49.3	4	-1E+10	1	0.0542	4	0.000362	0	-1E+10	1	-1E+10	1	-1E+10	1
4902624	12	C	10/19/2024	19:43	-128.323	47.366	0	114.70	0	7.9425	0	33.3505	0	25.989	0	113.713	0	143.4	4	49.3	4	-1E+10	1	0.0730	4	0.000352	0	-1E+10	1	-1E+10	1	-1E+10	1
4902624	12	C	10/19/2024	19:43	-128.323	47.366	0	114.90	0	7.9360	0	33.3550	0	25.993	0	113.911	0	-1e10	1	-1e10	1	-1E+10	1	-1e10	1	-1e10	1	-1E+10	1	-1E+10	1	-1E+10	1
4902624	12	C	10/19/2024	19:43	-128.323	47.366	0	115.50	0	7.9087	0	33.3661	0	26.006	0	114.505	0	143.5	4	49.3	4	-1E+10	1	0.0657	4	0.000387	0	-1E+10	1	-1E+10	1	-1E+10	1
4902624	12	C	10/19/2024	19:43	-128.323	47.366	0	116.20	0	7.8768	0	33.3790	0	26.021	0	115.199	0	143.7	4	49.4	4	-1E+10	1	0.0487	4	0.000424	0	-1E+10	1	-1E+10	1	-1E+10	1
4902624	12	C	10/19/2024	19:43	-128.323	47.366	0	116.90	0	7.8450	0	33.3920	0	26.036	0	115.893	0	-1e10	1	-1e10	1	-1E+10	1	-1e10	1	-1e10	1	-1E+10	1	-1E+10	1	-1E+10	1
4902624	12	C	10/19/2024	19:43	-128.323	47.366	0	117.00	0	7.8390	0	33.3933	0	26.038	0	115.992	0	143.9	4	49.4	4	-1E+10	1	0.0535	4	0.000371	0	-1E+10	1	-1E+10	1	-1E+10	1
4902624	12	C	10/19/2024	19:43	-128.323	47.366	0	117.80	0	7.7910	0	33.4041	0	26.053	0	116.785	0	143.9	4	49.3	4	-1E+10	1	0.0532	4	0.000340	0	-1E+10	1	-1E+10	1	-1E+10	1
4902624	12	C	10/19/2024	19:43	-128.323	47.366	0	118.50	0	7.7490	0	33.4136	0	26.066	0	117.479	0	143.8	4	49.2	4	-1E+10	1	0.0438	4	0.000340	0	-1E+10	1	-1E+10	1	-1E+10	1
4902624	12	C	10/19/2024	19:43	-128.323	47.366	0	118.90	0	7.7250	0	33.4190	0	26.074	0	117.875	0	-1e10	1	-1e10	1	-1E+10	1	-1e10	1	-1e10	1	-1E+10	1	-1E+10	1	-1E+10	1
4902624	12	C	10/19/2024	19:43	-128.323	47.366	0	119.30	0	7.7189	0	33.4205	0	26.076	0	118.272	0	143.6	4	49.2	4	-1E+10	1	0.0389	4	0.000360	0	-1E+10	1	-1E+10	1	-1E+10	1
4902624	12	C	10/19/2024	19:43	-128.323	47.366	0	120.10	0	7.7067	0	33.4236	0	26.080	0	119.064	0	143.5	4	49.1	4	-1E+10	1	0.0438	4	0.000393	0	-1E+10	1	-1E+10	1	-1E+10	1
4902624	12	C	10/19/2024	19:43	-128.323	47.366	0	120.80	0	7.6960	0	33.4262	0	26.084	0	119.758	0	143.3	4	49.0	4	-1E+10	1	0.0446	4	0.000369	0	-1E+10	1	-1E+10	1	-1E+10	1
4902624	12	C	10/19/2024	19:43	-128.323	47.366	0	121.00	0	7.6930	0	33.4270	0	26.085	0	119.956	0	-1e10	1	-1e10	1	-1E+10	1	-1e10	1	-1e10	1	-1E+10	1	-1E+10	1	-1E+10	1
4902624	12	C	10/19/2024	19:43	-128.323	47.366	0	121.60	0	7.6753	0	33.4321	0	26.092	0	120.551	0	143.2	4	49.0	4	-1E+10	1	0.0511	4	0.000317	0	-1E+10	1	-1E+10	1	-1E+10	1
4902624	12	C	10/19/2024	19:43	-128.323	47.366	0	122.40	0	7.6517	0	33.4389	0	26.100	0	121.344	0	143.1	4	48.9	4	-1E+10	1	0.0453	4	0.000373	0	-1E+10	1	-1E+10	1	-1E+10	1
4902624	12	C	10/19/2024	19:43	-128.323	47.366	0	123.00	0	7.6340	0	33.4440	0	26.107	0	121.939	0	-1e10	1	-1e10	1	-1E+10	1	-1e10	1	-1e10	1	-1E+10	1	-1E+10	1	-1E+10	1
4902624	12	C	10/19/2024	19:43	-128.323	47.366	0	123.20	0	7.6287	0	33.4465	0	26.110	0	122.137	0	142.9	4	48.9	4	-1E+10	1	0.0438	4	0.000334	0	-1E+10	1	-1E+10	1	-1E+10	1
4902624	12	C	10/19/2024	19:43	-128.323	47.366	0	124.00	0	7.6075	0	33.4565	0	26.120	0	122.930	0	143.0	4	48.9	4	-1E+10	1	0.0438	4	0.000317	0	-1E+10	1	-1E+10	1	-1E+10	1
4902624	12	C	10/19/2024	19:43	-128.323	47.366	0	124.80	0	7.5863	0	33.4665	0	26.131	0	123.723	0	143.0	4	48.8	4	-1E+10	1	0.0438	4	0.000379	0	-1E+10	1	-1E+10	1	-1E+10	1
4902624	12	C	10/19/2024	19:43	-128.323	47.366	0	125.00	0	7.5810	0	33.4690	0	26.134	0	123.921	0	-1e10	1	-1e10	1	-1E+10	1	-1e10	1	-1e10	1	-1E+10	1	-1E+10	1	-1E+10	1
4902624	12	C	10/19/2024	19:43	-128.323	47.366	0	125.60	0	7.5741	0	33.4726	0	26.138	0	124.515	0	143.1	4	48.9	4	-1E+10	1	0.0383	4	0.000427	0	-1E+10	1	-1E+10	1	-1E+10	1
4902624	12	C	10/19/2024	19:43	-128.323	47.366	0	126.50	0	7.5638	0	33.4780	0	26.144	0	125.407	0	143.2	4	48.9	4	-1E+10	1	0.0321	4	0.000450	0	-1E+10	1	-1E+10	1	-1E+10	1
4902624	12	C	10/19/2024	19:43	-128.323	47.366	0	127.00	0	7.5580	0	33.4810	0	26.147	0	125.903	0	-1e10	1	-1e10	1	-1E+10	1	-1e10	1	-1e10	1	-1E+10	1	-1E+10	1	-1E+10	1
4902624	12	C	10/19/2024	19:43	-128.323	47.366	0	127.30	0	7.5523	0	33.4834	0	26.149	0	126.200	0	143.4	4	48.9	4	-1E+10	1	0.0409	4	0.000544	0	-1E+10	1	-1E+10	1	-1E+10	1
4902624	12	C	10/19/2024	19:43	-128.323	47.366	0	128.10	0	7.5371	0	33.4898	0	26.157	0	126.993	0	143.6	4	49.0	4	-1E+10	1	0.0584	4	0.000469	0	-1E+10	1	-1E+10	1	-1E+10	1
4902624	12	C	10/19/2024	19:43	-128.323	47.366	0	129.00	0	7.5200	0	33.4970	0	26.165	0	127.885	0	140.8	4	48.0	4	-1E+10	1	0.0292	4	0.000353	0	-1E+10	1	-1E+10	1	-1E+10	1
4902624	12	C	10/19/2024	19:43	-128.323	47.366	0	129.90	0	7.4949	0	33.5055	0	26.175	0	128.777	0	144.2	4	49.1	4	-1E+10	1	0.0358	4	0.000373	0	-1E+10	1	-1E+10	1	-1E+10	1
4902624	12	C	10/19/2024	19:43	-128.323	47.366	0	130.70	0	7.4726	0	33.5131	0	26.184	0	129.570	0	144.4	4	49.2	4	-1E+10	1	0.0411	4	0.000375	0	-1E+10	1	-1E+10	1	-1E+10	1
4902624	12	C	10/19/2024	19:43	-128.323	47.366	0	130.90	0	7.4670	0	33.5150	0	26.186	0	129.768	0	-1e10	1	-1e10	1	-1E+10	1	-1e10	1	-1e10	1	-1E+10	1	-1E+10	1	-1E+10	1
4902624	12	C	10/19/2024	19:43	-128.323	47.366	0	131.60	0	7.4407	0	33.5180	0	26.192	0	130.462	0	144.6	4	49.2	4	-1E+10	1	0.0392	4	0.000404	0	-1E+10	1	-1E+10	1	-1E+10	1
4902624	12	C	10/19/2024	19:43	-128.323	47.366	0	132.50	0	7.4068	0	33.5219	0	26.200	0	131.354	0	144.5	4	49.2	4	-1E+10	1	0.0564	4	0.000378	0	-1E+10	1	-1E+10	1	-1E+10	1
4902624	12	C	10/19/2024	19:43	-128.323	47.366	0	133.00	0	7.3880	0	33.5240	0	26.205	0	131.849	0	-1e10	1	-1e10	1	-1E+10	1	-1e10	1	-1e10	1	-1E+10	1	-1E+10	1	-1E+10	1
4902624	12	C	10/19/2024	19:43	-128.323	47.366	0	133.40	0	7.3772	0	33.5260	0	26.208	0	132.246	0	144.3	4	49.1	4	-1E+10	1	0.0584	4	0.000331	0	-1E+10	1	-1E+10	1	-1E+10	1
4902624	12	C	10/19/2024	19:43	-128.323	47.366	0	134.20	0	7.3556	0	33.5300	0	26.214	0	133.038	0	144.0	4	49.0	4	-1E+10	1	0.0381	4	0.000322	0	-1E+10	1	-1E+10	1	-1E+10	1
4902624	12	C	10/19/2024	19:43	-128.323	47.366	0	135.00	0	7.3340	0	33.5340	0	26.220	0	133.831	0	-1e10	1	-1e10	1	-1E+10	1	-1e10	1	-1e10	1	-1E+10	1	-1E+10	1	-1E+10	1
4902624	12	C	10/19/2024	19:43	-128.323	47.366	0	135.10	0	7.3327	0	33.5348	0	26.221	0	133.930	0	143.6	4	48.8	4	-1E+10	1	0.0411	4	0.000331	0	-1E+10	1	-1E+10	1	-1E+10	1
4902624	12	C	10/19/2024	19:43	-128.323	47.366	0	136.00	0	7.3207	0	33.5416	0	26.228	0	134.822	0	143.1	4	48.6	4	-1E+10	1	0.0292	4	0.000293	0	-1E+10	1	-1E+10	1	-1E+10	1
4902624	12	C	10/19/2024	19:43	-128.323	47.366	0	136.90	0	7.3087	0	33.5485	0	26.235	0	135.714	0	142.7	4	48.5	4	-1E+10	1	0.0489	4	0.000314	0	-1E+10	1	-1E+10	1	-1E+10	1
4902624	12	C	10/19/2024	19:43	-128.323	47.366	0	137.10	0	7.3060	0	33.5500	0	26.237	0	135.912	0	-1e10	1	-1e10	1	-1E+10	1	-1e10	1	-1e10	1	-1E+10	1	-1E+10	1	-1E+10	1
4902624	12	C	10/19/2024	19:43	-128.323	47.366	0	137.80	0	7.2983	0	33.5592	0	26.245	0	136.606	0	142.4	4	48.3	4	-1E+10	1	0.0394	4	0.000316	0	-1E+10	1	-1E+10	1	-1E+10	1
4902624	12	C	10/19/2024	19:43	-128.323	47.366	0	138.70	0	7.2883	0	33.5711	0	26.256	0	137.498	0	142.0	4	48.2	4	-1E+10	1	0.0365	4	0.000316	0	-1E+10	1	-1E+10	1	-1E+10	1
4902624	12	C	10/19/2024	19:43	-128.323	47.366	0	139.00	0	7.2850	0	33.5750	0	26.259	0	137.795	0	-1e10	1	-1e10	1	-1E+10	1	-1e10	1	-1e10	1	-1E+10	1	-1E+10	1	-1E+10	1
4902624	12	C	10/19/2024	19:43	-128.323	47.366	0	139.60	0	7.2850	0	33.5813	0	26.264	0	138.390	0	141.7	4	48.1	4	-1E+10	1	0.0365	4	0.000412	0	-1E+10	1	-1E+10	1	-1E+10	1
4902624	12	C	10/19/2024	19:43	-128.323	47.366	0	140.60	0	7.2850	0	33.5918	0	26.272	0	139.381	0	141.4	4	48.0	4	-1E+10	1	0.0365	4	0.000443	0	-1E+10	1	-1E+10	1	-1E+10	1
4902624	12	C	10/19/2024	19:43	-128.323	47.366	0	141.00	0	7.2850	0	33.5960	0	26.276	0	139.777	0	-1e10	1	-1e10	1	-1E+10	1	-1e10	1	-1e10	1	-1E+10	1	-1E+10	1	-1E+10	1
4902624	12	C	10/19/2024	19:43	-128.323	47.366	0	141.60	0	7.2850	0	33.6014	0	26.280	0	140.372	0	141.2	4	47.9	4	-1E+10	1	0.0338	4	0.000308	0	-1E+10	1	-1E+10	1	-1E+10	1
4902624	12	C	10/19/2024	19:43	-128.323	47.366	0	142.50	0	7.2850	0	33.6095	0	26.286	0	141.264	0	141.1	4	47.9	4	-1E+10	1	0.0305	4	0.000295	0	-1E+10	1	-1E+10	1	-1E+10	1
4902624	12	C	10/19/2024	19:43	-128.323	47.366	0	143.00	0	7.2850	0	33.6140	0	26.290	0	141.759	0	-1e10	1	-1e10	1	-1E+10	1	-1e10	1	-1e10	1	-1E+10	1	-1E+10	1	-1E+10	1
4902624	12	C	10/19/2024	19:43	-128.323	47.366	0	143.40	0	7.2831	0	33.6153	0	26.291	0	142.156	0	141.0	4	47.9	4	-1E+10	1	0.0365	4	0.000305	0	-1E+10	1	-1E+10	1	-1E+10	1
4902624	12	C	10/19/2024	19:43	-128.323	47.366	0	144.40	0	7.2783	0	33.6187	0	26.294	0	143.147	0	140.6	4	47.7	4	-1E+10	1	0.0511	4	0.000328	0	-1E+10	1	-1E+10	1	-1E+10	1
4902624	12	C	10/19/2024	19:43	-128.323	47.366	0	145.10	0	7.2750	0	33.6210	0	26.297	0	143.840	0	-1e10	1	-1e10	1	-1E+10	1	-1e10	1	-1e10	1	-1E+10	1	-1E+10	1	-1E+10	1
4902624	12	C	10/19/2024	19:43	-128.323	47.366	0	145.30	0	7.2736	0	33.6219	0	26.298	0	144.038	0	139.8	4	47.4	4	-1E+10	1	0.0392	4	0.002747	0	-1E+10	1	-1E+10	1	-1E+10	1
4902624	12	C	10/19/2024	19:43	-128.323	47.366	0	146.30	0	7.2668	0	33.6267	0	26.302	0	145.029	0	138.6	4	47.1	4	-1E+10	1	0.0365	4	0.001306	0	-1E+10	1	-1E+10	1	-1E+10	1
4902624	12	C	10/19/2024	19:43	-128.323	47.366	0	147.00	0	7.2620	0	33.6300	0	26.306	0	145.723	0	-1e10	1	-1e10	1	-1E+10	1	-1e10	1	-1e10	1	-1E+10	1	-1E+10	1	-1E+10	1
4902624	12	C	10/19/2024	19:43	-128.323	47.366	0	147.30	0	7.2626	0	33.6315	0	26.307	0	146.020	0	137.4	4	46.6	4	-1E+10	1	0.0365	4	0.000293	0	-1E+10	1	-1E+10	1	-1E+10	1
4902624	12	C	10/19/2024	19:43	-128.323	47.366	0	148.20	0	7.2644	0	33.6360	0	26.310	0	146.912	0	135.9	4	46.1	4	-1E+10	1	0.0402	4	0.000299	0	-1E+10	1	-1E+10	1	-1E+10	1
4902624	12	C	10/19/2024	19:43	-128.323	47.366	0	149.00	0	7.2660	0	33.6400	0	26.313	0	147.705	0	-1e10	1	-1e10	1	-1E+10	1	-1e10	1	-1e10	1	-1E+10	1	-1E+10	1	-1E+10	1
4902624	12	C	10/19/2024	19:43	-128.323	47.366	0	149.20	0	7.2677	0	33.6421	0	26.314	0	147.903	0	134.5	4	45.7	4	-1E+10	1	0.0438	4	0.000325	0	-1E+10	1	-1E+10	1	-1E+10	1
4902624	12	C	10/19/2024	19:43	-128.323	47.366	0	150.10	0	7.2754	0	33.6516	0	26.321	0	148.795	0	133.3	4	45.3	4	-1E+10	1	0.0438	4	0.000330	0	-1E+10	1	-1E+10	1	-1E+10	1
4902624	12	C	10/19/2024	19:43	-128.323	47.366	0	151.00	0	7.2830	0	33.6610	0	26.327	0	149.687	0	-1e10	1	-1e10	1	-1E+10	1	-1e10	1	-1e10	1	-1E+10	1	-1E+10	1	-1E+10	1
4902624	12	C	10/19/2024	19:43	-128.323	47.366	0	151.10	0	7.2822	0	33.6616	0	26.328	0	149.786	0	132.1	4	44.8	4	-1E+10	1	0.0474	4	0.000305	0	-1E+10	1	-1E+10	1	-1E+10	1
4902624	12	C	10/19/2024	19:43	-128.323	47.366	0	152.10	0	7.2748	0	33.6681	0	26.334	0	150.777	0	130.4	4	44.3	4	-1E+10	1	0.0657	4	0.000363	0	-1E+10	1	-1E+10	1	-1E+10	1
4902624	12	C	10/19/2024	19:43	-128.323	47.366	0	153.00	0	7.2680	0	33.6740	0	26.340	0	151.669	0	125.7	4	42.7	4	-1E+10	1	0.0493	4	0.000337	0	-1E+10	1	-1E+10	1	-1E+10	1
4902624	12	C	10/19/2024	19:43	-128.323	47.366	0	154.10	0	7.2773	0	33.6845	0	26.347	0	152.759	0	127.5	4	43.3	4	-1E+10	1	0.0503	4	0.000338	0	-1E+10	1	-1E+10	1	-1E+10	1
4902624	12	C	10/19/2024	19:43	-128.323	47.366	0	155.00	0	7.2850	0	33.6930	0	26.352	0	153.651	0	-1e10	1	-1e10	1	-1E+10	1	-1e10	1	-1e10	1	-1E+10	1	-1E+10	1	-1E+10	1
4902624	12	C	10/19/2024	19:43	-128.323	47.366	0	155.10	0	7.2847	0	33.6935	0	26.353	0	153.750	0	126.4	4	42.9	4	-1E+10	1	0.0445	4	0.000340	0	-1E+10	1	-1E+10	1	-1E+10	1
4902624	12	C	10/19/2024	19:43	-128.323	47.366	0	156.10	0	7.2821	0	33.6988	0	26.357	0	154.741	0	125.2	4	42.5	4	-1E+10	1	0.0489	4	0.000324	0	-1E+10	1	-1E+10	1	-1E+10	1
4902624	12	C	10/19/2024	19:43	-128.323	47.366	0	156.90	0	7.2800	0	33.7030	0	26.361	0	155.533	0	-1e10	1	-1e10	1	-1E+10	1	-1e10	1	-1e10	1	-1E+10	1	-1E+10	1	-1E+10	1
4902624	12	C	10/19/2024	19:43	-128.323	47.366	0	157.10	0	7.2777	0	33.7045	0	26.362	0	155.732	0	124.0	4	42.1	4	-1E+10	1	0.0555	4	0.000309	0	-1E+10	1	-1E+10	1	-1E+10	1
4902624	12	C	10/19/2024	19:43	-128.323	47.366	0	158.10	0	7.2664	0	33.7117	0	26.370	0	156.722	0	123.1	4	41.8	4	-1E+10	1	0.0474	4	0.000310	0	-1E+10	1	-1E+10	1	-1E+10	1
4902624	12	C	10/19/2024	19:43	-128.323	47.366	0	159.10	0	7.2550	0	33.7190	0	26.377	0	157.713	0	119.2	4	40.5	4	-1E+10	1	0.0438	4	0.000316	0	-1E+10	1	-1E+10	1	-1E+10	1
4902624	12	C	10/19/2024	19:43	-128.323	47.366	0	160.20	0	7.2397	0	33.7263	0	26.385	0	158.803	0	120.9	4	41.1	4	-1E+10	1	0.0524	4	0.000310	0	-1E+10	1	-1E+10	1	-1E+10	1
4902624	12	C	10/19/2024	19:43	-128.323	47.366	0	160.90	0	7.2300	0	33.7310	0	26.390	0	159.497	0	-1e10	1	-1e10	1	-1E+10	1	-1e10	1	-1e10	1	-1E+10	1	-1E+10	1	-1E+10	1
4902624	12	C	10/19/2024	19:43	-128.323	47.366	0	161.20	0	7.2365	0	33.7355	0	26.392	0	159.794	0	119.9	4	40.7	4	-1E+10	1	0.0377	4	0.000301	0	-1E+10	1	-1E+10	1	-1E+10	1
4902624	12	C	10/19/2024	19:43	-128.323	47.366	0	162.20	0	7.2579	0	33.7505	0	26.401	0	160.785	0	118.8	4	40.3	4	-1E+10	1	0.0438	4	0.000340	0	-1E+10	1	-1E+10	1	-1E+10	1
4902624	12	C	10/19/2024	19:43	-128.323	47.366	0	162.90	0	7.2730	0	33.7610	0	26.407	0	161.479	0	-1e10	1	-1e10	1	-1E+10	1	-1e10	1	-1e10	1	-1E+10	1	-1E+10	1	-1E+10	1
4902624	12	C	10/19/2024	19:43	-128.323	47.366	0	163.30	0	7.2741	0	33.7652	0	26.411	0	161.875	0	118.2	4	40.2	4	-1E+10	1	0.0500	4	0.000330	0	-1E+10	1	-1E+10	1	-1E+10	1
4902624	12	C	10/19/2024	19:43	-128.323	47.366	0	164.30	0	7.2770	0	33.7757	0	26.418	0	162.866	0	117.6	4	40.0	4	-1E+10	1	0.0453	4	0.000487	0	-1E+10	1	-1E+10	1	-1E+10	1
4902624	12	C	10/19/2024	19:43	-128.323	47.366	0	165.00	0	7.2790	0	33.7830	0	26.424	0	163.560	0	-1e10	1	-1e10	1	-1E+10	1	-1e10	1	-1e10	1	-1E+10	1	-1E+10	1	-1E+10	1
4902624	12	C	10/19/2024	19:43	-128.323	47.366	0	165.40	0	7.2777	0	33.7845	0	26.425	0	163.956	0	117.1	4	39.8	4	-1E+10	1	0.0548	4	0.000563	0	-1E+10	1	-1E+10	1	-1E+10	1
4902624	12	C	10/19/2024	19:43	-128.323	47.366	0	166.40	0	7.2743	0	33.7883	0	26.429	0	164.947	0	116.5	4	39.6	4	-1E+10	1	0.0584	4	0.000442	0	-1E+10	1	-1E+10	1	-1E+10	1
4902624	12	C	10/19/2024	19:43	-128.323	47.366	0	167.10	0	7.2720	0	33.7910	0	26.431	0	165.640	0	-1e10	1	-1e10	1	-1E+10	1	-1e10	1	-1e10	1	-1E+10	1	-1E+10	1	-1E+10	1
4902624	12	C	10/19/2024	19:43	-128.323	47.366	0	167.40	0	7.2699	0	33.7926	0	26.433	0	165.938	0	115.9	4	39.4	4	-1E+10	1	0.0611	4	0.000358	0	-1E+10	1	-1E+10	1	-1E+10	1
4902624	12	C	10/19/2024	19:43	-128.323	47.366	0	168.50	0	7.2624	0	33.7984	0	26.438	0	167.028	0	115.5	4	39.3	4	-1E+10	1	0.0608	4	0.000406	0	-1E+10	1	-1E+10	1	-1E+10	1
4902624	12	C	10/19/2024	19:43	-128.323	47.366	0	169.00	0	7.2590	0	33.8010	0	26.441	0	167.523	0	-1e10	1	-1e10	1	-1E+10	1	-1e10	1	-1e10	1	-1E+10	1	-1E+10	1	-1E+10	1
4902624	12	C	10/19/2024	19:43	-128.323	47.366	0	169.60	0	7.2548	0	33.8037	0	26.444	0	168.118	0	115.1	4	39.1	4	-1E+10	1	0.0460	4	0.000387	0	-1E+10	1	-1E+10	1	-1E+10	1
4902624	12	C	10/19/2024	19:43	-128.323	47.366	0	170.60	0	7.2478	0	33.8082	0	26.448	0	169.108	0	114.8	4	39.0	4	-1E+10	1	0.0292	4	0.000351	0	-1E+10	1	-1E+10	1	-1E+10	1
4902624	12	C	10/19/2024	19:43	-128.323	47.366	0	171.00	0	7.2450	0	33.8100	0	26.450	0	169.505	0	-1e10	1	-1e10	1	-1E+10	1	-1e10	1	-1e10	1	-1E+10	1	-1E+10	1	-1E+10	1
4902624	12	C	10/19/2024	19:43	-128.323	47.366	0	171.70	0	7.2292	0	33.8132	0	26.455	0	170.198	0	114.6	4	38.9	4	-1E+10	1	0.0511	4	0.000398	0	-1E+10	1	-1E+10	1	-1E+10	1
4902624	12	C	10/19/2024	19:43	-128.323	47.366	0	172.80	0	7.2045	0	33.8181	0	26.462	0	171.288	0	114.3	4	38.8	4	-1E+10	1	0.0449	4	0.000369	0	-1E+10	1	-1E+10	1	-1E+10	1
4902624	12	C	10/19/2024	19:43	-128.323	47.366	0	173.00	0	7.2000	0	33.8190	0	26.463	0	171.486	0	-1e10	1	-1e10	1	-1E+10	1	-1e10	1	-1e10	1	-1E+10	1	-1E+10	1	-1E+10	1
4902624	12	C	10/19/2024	19:43	-128.323	47.366	0	173.80	0	7.1777	0	33.8203	0	26.467	0	172.279	0	114.0	4	38.7	4	-1E+10	1	0.0438	4	0.000334	0	-1E+10	1	-1E+10	1	-1E+10	1
4902624	12	C	10/19/2024	19:43	-128.323	47.366	0	174.90	0	7.1470	0	33.8220	0	26.473	0	173.369	0	110.9	4	37.6	4	-1E+10	1	0.0438	4	0.000316	0	-1E+10	1	-1E+10	1	-1E+10	1
4902624	12	C	10/19/2024	19:43	-128.323	47.366	0	176.00	0	7.1315	0	33.8230	0	26.476	0	174.459	0	113.2	4	38.3	4	-1E+10	1	0.0438	4	0.000316	0	-1E+10	1	-1E+10	1	-1E+10	1
4902624	12	C	10/19/2024	19:43	-128.323	47.366	0	177.10	0	7.1160	0	33.8240	0	26.479	0	175.549	0	110.1	4	37.3	4	-1E+10	1	0.0494	4	0.000330	0	-1E+10	1	-1E+10	1	-1E+10	1
4902624	12	C	10/19/2024	19:43	-128.323	47.366	0	178.20	0	7.1044	0	33.8275	0	26.483	0	176.639	0	112.4	4	38.1	4	-1E+10	1	0.0524	4	0.000342	0	-1E+10	1	-1E+10	1	-1E+10	1
4902624	12	C	10/19/2024	19:43	-128.323	47.366	0	179.00	0	7.0960	0	33.8300	0	26.486	0	177.431	0	-1e10	1	-1e10	1	-1E+10	1	-1e10	1	-1e10	1	-1E+10	1	-1E+10	1	-1E+10	1
4902624	12	C	10/19/2024	19:43	-128.323	47.366	0	179.20	0	7.0928	0	33.8299	0	26.487	0	177.629	0	112.1	4	37.9	4	-1E+10	1	0.0376	4	0.000320	0	-1E+10	1	-1E+10	1	-1E+10	1
4902624	12	C	10/19/2024	19:43	-128.323	47.366	0	180.30	0	7.0752	0	33.8293	0	26.489	0	178.719	0	111.6	4	37.8	4	-1E+10	1	0.0438	4	0.000340	0	-1E+10	1	-1E+10	1	-1E+10	1
4902624	12	C	10/19/2024	19:43	-128.323	47.366	0	181.00	0	7.0640	0	33.8290	0	26.490	0	179.413	0	-1e10	1	-1e10	1	-1E+10	1	-1e10	1	-1e10	1	-1E+10	1	-1E+10	1	-1E+10	1
4902624	12	C	10/19/2024	19:43	-128.323	47.366	0	181.40	0	7.0556	0	33.8290	0	26.491	0	179.809	0	111.0	4	37.5	4	-1E+10	1	0.0438	4	0.000320	0	-1E+10	1	-1E+10	1	-1E+10	1
4902624	12	C	10/19/2024	19:43	-128.323	47.366	0	182.50	0	7.0324	0	33.8290	0	26.494	0	180.899	0	110.2	4	37.3	4	-1E+10	1	0.0438	4	0.000306	0	-1E+10	1	-1E+10	1	-1E+10	1
4902624	12	C	10/19/2024	19:43	-128.323	47.366	0	182.90	0	7.0240	0	33.8290	0	26.496	0	181.295	0	-1e10	1	-1e10	1	-1E+10	1	-1e10	1	-1e10	1	-1E+10	1	-1E+10	1	-1E+10	1
4902624	12	C	10/19/2024	19:43	-128.323	47.366	0	183.60	0	7.0338	0	33.8328	0	26.497	0	181.989	0	109.5	4	37.0	4	-1E+10	1	0.0485	4	0.000342	0	-1E+10	1	-1E+10	1	-1E+10	1
4902624	12	C	10/19/2024	19:43	-128.323	47.366	0	184.70	0	7.0492	0	33.8389	0	26.500	0	183.079	0	109.0	4	36.9	4	-1E+10	1	0.0477	4	0.000395	0	-1E+10	1	-1E+10	1	-1E+10	1
4902624	12	C	10/19/2024	19:43	-128.323	47.366	0	184.90	0	7.0520	0	33.8400	0	26.500	0	183.277	0	-1e10	1	-1e10	1	-1E+10	1	-1e10	1	-1e10	1	-1E+10	1	-1E+10	1	-1E+10	1
4902624	12	C	10/19/2024	19:43	-128.323	47.366	0	185.80	0	7.0357	0	33.8421	0	26.504	0	184.169	0	108.4	4	36.7	4	-1E+10	1	0.0385	4	0.000386	0	-1E+10	1	-1E+10	1	-1E+10	1
4902624	12	C	10/19/2024	19:43	-128.323	47.366	0	187.00	0	7.0140	0	33.8450	0	26.510	0	185.358	0	105.1	4	35.5	4	-1E+10	1	0.0396	4	0.000359	0	-1E+10	1	-1E+10	1	-1E+10	1
4902624	12	C	10/19/2024	19:43	-128.323	47.366	0	188.10	0	6.9931	0	33.8428	0	26.511	0	186.447	0	106.8	4	36.1	4	-1E+10	1	0.0573	4	0.000439	0	-1E+10	1	-1E+10	1	-1E+10	1
4902624	12	C	10/19/2024	19:43	-128.323	47.366	0	189.00	0	6.9760	0	33.8410	0	26.512	0	187.339	0	-1e10	1	-1e10	1	-1E+10	1	-1e10	1	-1e10	1	-1E+10	1	-1E+10	1	-1E+10	1
4902624	12	C	10/19/2024	19:43	-128.323	47.366	0	189.20	0	6.9827	0	33.8432	0	26.512	0	187.537	0	105.9	4	35.8	4	-1E+10	1	0.0511	4	0.000339	0	-1E+10	1	-1E+10	1	-1E+10	1
4902624	12	C	10/19/2024	19:43	-128.323	47.366	0	190.40	0	7.0229	0	33.8564	0	26.517	0	188.726	0	105.5	4	35.7	4	-1E+10	1	0.0438	4	0.000316	0	-1E+10	1	-1E+10	1	-1E+10	1
4902624	12	C	10/19/2024	19:43	-128.323	47.366	0	191.00	0	7.0430	0	33.8630	0	26.520	0	189.321	0	-1e10	1	-1e10	1	-1E+10	1	-1e10	1	-1e10	1	-1E+10	1	-1E+10	1	-1E+10	1
4902624	12	C	10/19/2024	19:43	-128.323	47.366	0	191.50	0	7.0425	0	33.8644	0	26.521	0	189.816	0	105.1	4	35.5	4	-1E+10	1	0.0562	4	0.000336	0	-1E+10	1	-1E+10	1	-1E+10	1
4902624	12	C	10/19/2024	19:43	-128.323	47.366	0	192.60	0	7.0415	0	33.8676	0	26.524	0	190.906	0	104.7	4	35.4	4	-1E+10	1	0.0443	4	0.000339	0	-1E+10	1	-1E+10	1	-1E+10	1
4902624	12	C	10/19/2024	19:43	-128.323	47.366	0	193.10	0	7.0410	0	33.8690	0	26.525	0	191.401	0	-1e10	1	-1e10	1	-1E+10	1	-1e10	1	-1e10	1	-1E+10	1	-1E+10	1	-1E+10	1
4902624	12	C	10/19/2024	19:43	-128.323	47.366	0	193.80	0	7.0296	0	33.8694	0	26.527	0	192.095	0	104.3	4	35.3	4	-1E+10	1	0.0504	4	0.000332	0	-1E+10	1	-1E+10	1	-1E+10	1
4902624	12	C	10/19/2024	19:43	-128.323	47.366	0	194.90	0	7.0116	0	33.8699	0	26.530	0	193.185	0	103.9	4	35.1	4	-1E+10	1	0.0438	4	0.000316	0	-1E+10	1	-1E+10	1	-1E+10	1
4902624	12	C	10/19/2024	19:43	-128.323	47.366	0	195.00	0	7.0100	0	33.8700	0	26.530	0	193.284	0	-1e10	1	-1e10	1	-1E+10	1	-1e10	1	-1e10	1	-1E+10	1	-1E+10	1	-1E+10	1
4902624	12	C	10/19/2024	19:43	-128.323	47.366	0	196.00	0	7.0020	0	33.8690	0	26.530	0	194.274	0	103.4	4	34.9	4	-1E+10	1	0.0359	4	0.000340	0	-1E+10	1	-1E+10	1	-1E+10	1
4902624	12	C	10/19/2024	19:43	-128.323	47.366	0	197.00	0	6.9940	0	33.8680	0	26.531	0	195.265	0	-1e10	1	-1e10	1	-1E+10	1	-1e10	1	-1e10	1	-1E+10	1	-1E+10	1	-1E+10	1
4902624	12	C	10/19/2024	19:43	-128.323	47.366	0	197.20	0	6.9915	0	33.8684	0	26.531	0	195.463	0	102.9	4	34.8	4	-1E+10	1	0.0529	4	0.000395	0	-1E+10	1	-1E+10	1	-1E+10	1
4902624	12	C	10/19/2024	19:43	-128.323	47.366	0	198.40	0	6.9765	0	33.8708	0	26.535	0	196.652	0	102.3	4	34.6	4	-1E+10	1	0.0568	4	0.000316	0	-1E+10	1	-1E+10	1	-1E+10	1
4902624	12	C	10/19/2024	19:43	-128.323	47.366	0	199.00	0	6.9690	0	33.8720	0	26.537	0	197.247	0	-1e10	1	-1e10	1	-1E+10	1	-1e10	1	-1e10	1	-1E+10	1	-1E+10	1	-1E+10	1
4902624	12	C	10/19/2024	19:43	-128.323	47.366	0	199.50	0	6.9620	0	33.8725	0	26.538	0	197.742	0	101.7	4	34.4	4	-1E+10	1	0.0511	4	0.000316	0	-1E+10	1	-1E+10	1	-1E+10	1
4902624	12	C	10/19/2024	19:43	-128.323	47.366	0	200.70	0	6.9452	0	33.8737	0	26.542	0	198.931	0	101.2	4	34.2	4	-1E+10	1	0.0569	4	0.000288	0	-1E+10	1	-1E+10	1	-1E+10	1
4902624	12	C	10/19/2024	19:43	-128.323	47.366	0	201.00	0	6.9410	0	33.8740	0	26.543	0	199.228	0	-1e10	1	-1e10	1	-1E+10	1	-1e10	1	-1e10	1	-1E+10	1	-1E+10	1	-1E+10	1
4902624	12	C	10/19/2024	19:43	-128.323	47.366	0	201.90	0	6.9311	0	33.8758	0	26.545	0	200.120	0	100.7	4	34.0	4	-1E+10	1	0.0529	4	0.000307	0	-1E+10	1	-1E+10	1	-1E+10	1
4902624	12	C	10/19/2024	19:43	-128.323	47.366	0	203.00	0	6.9190	0	33.8780	0	26.549	0	201.209	0	-1e10	1	-1e10	1	-1E+10	1	-1e10	1	-1e10	1	-1E+10	1	-1E+10	1	-1E+10	1
4902624	12	C	10/19/2024	19:43	-128.323	47.366	0	203.10	0	6.9152	0	33.8779	0	26.549	0	201.308	0	100.2	4	33.8	4	-1E+10	1	0.0464	4	0.000323	0	-1E+10	1	-1E+10	1	-1E+10	1
4902624	12	C	10/19/2024	19:43	-128.323	47.366	0	204.30	0	6.8696	0	33.8773	0	26.555	0	202.497	0	99.7	4	33.6	4	-1E+10	1	0.0474	4	0.000322	0	-1E+10	1	-1E+10	1	-1E+10	1
4902624	12	C	10/19/2024	19:43	-128.323	47.366	0	205.00	0	6.8430	0	33.8770	0	26.558	0	203.191	0	-1e10	1	-1e10	1	-1E+10	1	-1e10	1	-1e10	1	-1E+10	1	-1E+10	1	-1E+10	1
4902624	12	C	10/19/2024	19:43	-128.323	47.366	0	205.50	0	6.8382	0	33.8777	0	26.559	0	203.686	0	99.1	4	33.4	4	-1E+10	1	0.0481	4	0.000311	0	-1E+10	1	-1E+10	1	-1E+10	1
4902624	12	C	10/19/2024	19:43	-128.323	47.366	0	206.70	0	6.8268	0	33.8794	0	26.562	0	204.875	0	98.7	4	33.2	4	-1E+10	1	0.0511	4	0.000316	0	-1E+10	1	-1E+10	1	-1E+10	1
4902624	12	C	10/19/2024	19:43	-128.323	47.366	0	207.10	0	6.8230	0	33.8800	0	26.563	0	205.271	0	-1e10	1	-1e10	1	-1E+10	1	-1e10	1	-1e10	1	-1E+10	1	-1E+10	1	-1E+10	1
4902624	12	C	10/19/2024	19:43	-128.323	47.366	0	207.90	0	6.8129	0	33.8808	0	26.565	0	206.064	0	98.2	4	33.1	4	-1E+10	1	0.0628	4	0.000339	0	-1E+10	1	-1E+10	1	-1E+10	1
4902624	12	C	10/19/2024	19:43	-128.323	47.366	0	209.00	0	6.7990	0	33.8820	0	26.568	0	207.153	0	-1e10	1	-1e10	1	-1E+10	1	-1e10	1	-1e10	1	-1E+10	1	-1E+10	1	-1E+10	1
4902624	12	C	10/19/2024	19:43	-128.323	47.366	0	209.20	0	6.7954	0	33.8824	0	26.569	0	207.352	0	97.7	4	32.9	4	-1E+10	1	0.0438	4	0.000339	0	-1E+10	1	-1E+10	1	-1E+10	1
4902624	12	C	10/19/2024	19:43	-128.323	47.366	0	210.40	0	6.7738	0	33.8848	0	26.574	0	208.540	0	97.4	4	32.7	4	-1E+10	1	0.0438	4	0.000316	0	-1E+10	1	-1E+10	1	-1E+10	1
4902624	12	C	10/19/2024	19:43	-128.323	47.366	0	211.00	0	6.7630	0	33.8860	0	26.576	0	209.135	0	-1e10	1	-1e10	1	-1E+10	1	-1e10	1	-1e10	1	-1E+10	1	-1E+10	1	-1E+10	1
4902624	12	C	10/19/2024	19:43	-128.323	47.366	0	211.60	0	6.7573	0	33.8860	0	26.577	0	209.729	0	97.0	4	32.6	4	-1E+10	1	0.0438	4	0.000326	0	-1E+10	1	-1E+10	1	-1E+10	1
4902624	12	C	10/19/2024	19:43	-128.323	47.366	0	212.80	0	6.7459	0	33.8860	0	26.578	0	210.918	0	96.7	4	32.5	4	-1E+10	1	0.0487	4	0.000320	0	-1E+10	1	-1E+10	1	-1E+10	1
4902624	12	C	10/19/2024	19:43	-128.323	47.366	0	213.00	0	6.7440	0	33.8860	0	26.579	0	211.116	0	-1e10	1	-1e10	1	-1E+10	1	-1e10	1	-1e10	1	-1E+10	1	-1E+10	1	-1E+10	1
4902624	12	C	10/19/2024	19:43	-128.323	47.366	0	214.10	0	6.7374	0	33.8882	0	26.581	0	212.206	0	96.4	4	32.4	4	-1E+10	1	0.0466	4	0.000316	0	-1E+10	1	-1E+10	1	-1E+10	1
4902624	12	C	10/19/2024	19:43	-128.323	47.366	0	215.00	0	6.7320	0	33.8900	0	26.583	0	213.097	0	-1e10	1	-1e10	1	-1E+10	1	-1e10	1	-1e10	1	-1E+10	1	-1E+10	1	-1E+10	1
4902624	12	C	10/19/2024	19:43	-128.323	47.366	0	215.30	0	6.7275	0	33.8903	0	26.584	0	213.394	0	96.2	4	32.3	4	-1E+10	1	0.0506	4	0.000332	0	-1E+10	1	-1E+10	1	-1E+10	1
4902624	12	C	10/19/2024	19:43	-128.323	47.366	0	216.60	0	6.7080	0	33.8916	0	26.588	0	214.682	0	96.1	4	32.3	4	-1E+10	1	0.0535	4	0.000343	0	-1E+10	1	-1E+10	1	-1E+10	1
4902624	12	C	10/19/2024	19:43	-128.323	47.366	0	217.00	0	6.7020	0	33.8920	0	26.589	0	215.079	0	-1e10	1	-1e10	1	-1E+10	1	-1e10	1	-1e10	1	-1E+10	1	-1E+10	1	-1E+10	1
4902624	12	C	10/19/2024	19:43	-128.323	47.366	0	217.90	0	6.6908	0	33.8920	0	26.591	0	215.970	0	96.0	4	32.2	4	-1E+10	1	0.0421	4	0.000327	0	-1E+10	1	-1E+10	1	-1E+10	1
4902624	12	C	10/19/2024	19:43	-128.323	47.366	0	219.00	0	6.6770	0	33.8920	0	26.592	0	217.060	0	-1e10	1	-1e10	1	-1E+10	1	-1e10	1	-1e10	1	-1E+10	1	-1E+10	1	-1E+10	1
4902624	12	C	10/19/2024	19:43	-128.323	47.366	0	219.10	0	6.6753	0	33.8919	0	26.593	0	217.159	0	95.8	4	32.2	4	-1E+10	1	0.0394	4	0.000323	0	-1E+10	1	-1E+10	1	-1E+10	1
4902624	12	C	10/19/2024	19:43	-128.323	47.366	0	220.40	0	6.6532	0	33.8913	0	26.595	0	218.447	0	95.7	4	32.1	4	-1E+10	1	0.0584	4	0.000292	0	-1E+10	1	-1E+10	1	-1E+10	1
4902624	12	C	10/19/2024	19:43	-128.323	47.366	0	221.00	0	6.6430	0	33.8910	0	26.596	0	219.041	0	-1e10	1	-1e10	1	-1E+10	1	-1e10	1	-1e10	1	-1E+10	1	-1E+10	1	-1E+10	1
4902624	12	C	10/19/2024	19:43	-128.323	47.366	0	221.60	0	6.6405	0	33.8919	0	26.597	0	219.635	0	95.6	4	32.1	4	-1E+10	1	0.0459	4	0.000282	0	-1E+10	1	-1E+10	1	-1E+10	1
4902624	12	C	10/19/2024	19:43	-128.323	47.366	0	222.80	0	6.6354	0	33.8938	0	26.599	0	220.824	0	95.6	4	32.1	4	-1E+10	1	0.0494	4	0.000290	0	-1E+10	1	-1E+10	1	-1E+10	1
4902624	12	C	10/19/2024	19:43	-128.323	47.366	0	222.90	0	6.6350	0	33.8940	0	26.600	0	220.923	0	-1e10	1	-1e10	1	-1E+10	1	-1e10	1	-1e10	1	-1E+10	1	-1E+10	1	-1E+10	1
4902624	12	C	10/19/2024	19:43	-128.323	47.366	0	224.00	0	6.6224	0	33.8940	0	26.601	0	222.013	0	95.6	4	32.0	4	-1E+10	1	0.0417	4	0.000285	0	-1E+10	1	-1E+10	1	-1E+10	1
4902624	12	C	10/19/2024	19:43	-128.323	47.366	0	224.90	0	6.6120	0	33.8940	0	26.603	0	222.904	0	-1e10	1	-1e10	1	-1E+10	1	-1e10	1	-1e10	1	-1E+10	1	-1E+10	1	-1E+10	1
4902624	12	C	10/19/2024	19:43	-128.323	47.366	0	225.10	0	6.6095	0	33.8938	0	26.603	0	223.102	0	95.7	4	32.1	4	-1E+10	1	0.0474	4	0.000322	0	-1E+10	1	-1E+10	1	-1E+10	1
4902624	12	C	10/19/2024	19:43	-128.323	47.366	0	226.00	0	6.5982	0	33.8929	0	26.604	0	223.994	0	95.7	4	32.0	4	-1E+10	1	0.0557	4	0.000323	0	-1E+10	1	-1E+10	1	-1E+10	1
4902624	12	C	10/19/2024	19:43	-128.323	47.366	0	226.80	0	6.5882	0	33.8921	0	26.604	0	224.786	0	95.7	4	32.0	4	-1E+10	1	0.0566	4	0.000270	0	-1E+10	1	-1E+10	1	-1E+10	1
4902624	12	C	10/19/2024	19:43	-128.323	47.366	0	226.90	0	6.5870	0	33.8920	0	26.604	0	224.886	0	-1e10	1	-1e10	1	-1E+10	1	-1e10	1	-1e10	1	-1E+10	1	-1E+10	1	-1E+10	1
4902624	12	C	10/19/2024	19:43	-128.323	47.366	0	227.60	0	6.5824	0	33.8920	0	26.605	0	225.579	0	95.7	4	32.0	4	-1E+10	1	0.0633	4	0.000292	0	-1E+10	1	-1E+10	1	-1E+10	1
4902624	12	C	10/19/2024	19:43	-128.323	47.366	0	228.40	0	6.5773	0	33.8920	0	26.606	0	226.371	0	95.7	4	32.0	4	-1E+10	1	0.0529	4	0.000289	0	-1E+10	1	-1E+10	1	-1E+10	1
4902624	12	C	10/19/2024	19:43	-128.323	47.366	0	228.90	0	6.5740	0	33.8920	0	26.606	0	226.867	0	-1e10	1	-1e10	1	-1E+10	1	-1e10	1	-1e10	1	-1E+10	1	-1E+10	1	-1E+10	1
4902624	12	C	10/19/2024	19:43	-128.323	47.366	0	229.10	0	6.5715	0	33.8918	0	26.606	0	227.065	0	95.7	4	32.0	4	-1E+10	1	0.0381	4	0.000280	0	-1E+10	1	-1E+10	1	-1E+10	1
4902624	12	C	10/19/2024	19:43	-128.323	47.366	0	229.90	0	6.5616	0	33.8910	0	26.607	0	227.857	0	95.6	4	32.0	4	-1E+10	1	0.0511	4	0.000280	0	-1E+10	1	-1E+10	1	-1E+10	1
4902624	12	C	10/19/2024	19:43	-128.323	47.366	0	230.70	0	6.5517	0	33.8903	0	26.608	0	228.650	0	95.5	4	32.0	4	-1E+10	1	0.0453	4	0.000271	0	-1E+10	1	-1E+10	1	-1E+10	1
4902624	12	C	10/19/2024	19:43	-128.323	47.366	0	231.00	0	6.5480	0	33.8900	0	26.608	0	228.947	0	-1e10	1	-1e10	1	-1E+10	1	-1e10	1	-1e10	1	-1E+10	1	-1E+10	1	-1E+10	1
4902624	12	C	10/19/2024	19:43	-128.323	47.366	0	231.50	0	6.5352	0	33.8895	0	26.609	0	229.442	0	95.4	4	31.9	4	-1E+10	1	0.0493	4	0.000295	0	-1E+10	1	-1E+10	1	-1E+10	1
4902624	12	C	10/19/2024	19:43	-128.323	47.366	0	232.30	0	6.5149	0	33.8887	0	26.611	0	230.235	0	95.3	4	31.9	4	-1E+10	1	0.0511	4	0.000320	0	-1E+10	1	-1E+10	1	-1E+10	1
4902624	12	C	10/19/2024	19:43	-128.323	47.366	0	233.00	0	6.4970	0	33.8880	0	26.613	0	230.928	0	-1e10	1	-1e10	1	-1E+10	1	-1e10	1	-1e10	1	-1E+10	1	-1E+10	1	-1E+10	1
4902624	12	C	10/19/2024	19:43	-128.323	47.366	0	233.10	0	6.4953	0	33.8879	0	26.613	0	231.027	0	95.1	4	31.8	4	-1E+10	1	0.0511	4	0.000304	0	-1E+10	1	-1E+10	1	-1E+10	1
4902624	12	C	10/19/2024	19:43	-128.323	47.366	0	233.90	0	6.4817	0	33.8871	0	26.614	0	231.819	0	94.8	4	31.7	4	-1E+10	1	0.0566	4	0.000289	0	-1E+10	1	-1E+10	1	-1E+10	1
4902624	12	C	10/19/2024	19:43	-128.323	47.366	0	234.70	0	6.4681	0	33.8863	0	26.616	0	232.612	0	94.5	4	31.5	4	-1E+10	1	0.0608	4	0.000319	0	-1E+10	1	-1E+10	1	-1E+10	1
4902624	12	C	10/19/2024	19:43	-128.323	47.366	0	235.00	0	6.4630	0	33.8860	0	26.616	0	232.909	0	-1e10	1	-1e10	1	-1E+10	1	-1e10	1	-1e10	1	-1E+10	1	-1E+10	1	-1E+10	1
4902624	12	C	10/19/2024	19:43	-128.323	47.366	0	235.50	0	6.4577	0	33.8857	0	26.616	0	233.404	0	94.1	4	31.4	4	-1E+10	1	0.0511	4	0.000339	0	-1E+10	1	-1E+10	1	-1E+10	1
4902624	12	C	10/19/2024	19:43	-128.323	47.366	0	236.30	0	6.4493	0	33.8853	0	26.617	0	234.197	0	93.7	4	31.3	4	-1E+10	1	0.0511	4	0.000292	0	-1E+10	1	-1E+10	1	-1E+10	1
4902624	12	C	10/19/2024	19:43	-128.323	47.366	0	236.90	0	6.4430	0	33.8850	0	26.618	0	234.791	0	-1e10	1	-1e10	1	-1E+10	1	-1e10	1	-1e10	1	-1E+10	1	-1E+10	1	-1E+10	1
4902624	12	C	10/19/2024	19:43	-128.323	47.366	0	237.10	0	6.4417	0	33.8857	0	26.618	0	234.989	0	93.2	4	31.1	4	-1E+10	1	0.0657	4	0.000280	0	-1E+10	1	-1E+10	1	-1E+10	1
4902624	12	C	10/19/2024	19:43	-128.323	47.366	0	237.90	0	6.4363	0	33.8883	0	26.621	0	235.782	0	92.9	4	31.0	4	-1E+10	1	0.0540	4	0.000262	0	-1E+10	1	-1E+10	1	-1E+10	1
4902624	12	C	10/19/2024	19:43	-128.323	47.366	0	238.80	0	6.4303	0	33.8913	0	26.624	0	236.673	0	92.6	4	30.9	4	-1E+10	1	0.0460	4	0.000265	0	-1E+10	1	-1E+10	1	-1E+10	1
4902624	12	C	10/19/2024	19:43	-128.323	47.366	0	239.00	0	6.4290	0	33.8920	0	26.625	0	236.871	0	-1e10	1	-1e10	1	-1E+10	1	-1e10	1	-1e10	1	-1E+10	1	-1E+10	1	-1E+10	1
4902624	12	C	10/19/2024	19:43	-128.323	47.366	0	239.60	0	6.4263	0	33.8929	0	26.626	0	237.465	0	92.2	4	30.8	4	-1E+10	1	0.0575	4	0.000276	0	-1E+10	1	-1E+10	1	-1E+10	1
4902624	12	C	10/19/2024	19:43	-128.323	47.366	0	240.40	0	6.4227	0	33.8941	0	26.628	0	238.258	0	91.9	4	30.7	4	-1E+10	1	0.0584	4	0.000286	0	-1E+10	1	-1E+10	1	-1E+10	1
4902624	12	C	10/19/2024	19:43	-128.323	47.366	0	241.00	0	6.4200	0	33.8950	0	26.629	0	238.852	0	-1e10	1	-1e10	1	-1E+10	1	-1e10	1	-1e10	1	-1E+10	1	-1E+10	1	-1E+10	1
4902624	12	C	10/19/2024	19:43	-128.323	47.366	0	241.30	0	6.4205	0	33.8955	0	26.629	0	239.149	0	91.8	4	30.6	4	-1E+10	1	0.0482	4	0.000306	0	-1E+10	1	-1E+10	1	-1E+10	1
4902624	12	C	10/19/2024	19:43	-128.323	47.366	0	242.10	0	6.4217	0	33.8967	0	26.630	0	239.942	0	91.7	4	30.6	4	-1E+10	1	0.0438	4	0.000319	0	-1E+10	1	-1E+10	1	-1E+10	1
4902624	12	C	10/19/2024	19:43	-128.323	47.366	0	242.90	0	6.4230	0	33.8980	0	26.631	0	240.734	0	89.4	4	29.8	4	-1E+10	1	0.0445	4	0.000291	0	-1E+10	1	-1E+10	1	-1E+10	1
4902624	12	C	10/19/2024	19:43	-128.323	47.366	0	243.80	0	6.4152	0	33.8972	0	26.631	0	241.626	0	91.5	4	30.5	4	-1E+10	1	0.0511	4	0.000280	0	-1E+10	1	-1E+10	1	-1E+10	1
4902624	12	C	10/19/2024	19:43	-128.323	47.366	0	244.60	0	6.4083	0	33.8965	0	26.631	0	242.418	0	91.3	4	30.4	4	-1E+10	1	0.0453	4	0.000318	0	-1E+10	1	-1E+10	1	-1E+10	1
4902624	12	C	10/19/2024	19:43	-128.323	47.366	0	245.10	0	6.4040	0	33.8960	0	26.632	0	242.913	0	-1e10	1	-1e10	1	-1E+10	1	-1e10	1	-1e10	1	-1E+10	1	-1E+10	1	-1E+10	1
4902624	12	C	10/19/2024	19:43	-128.323	47.366	0	245.40	0	6.3983	0	33.8957	0	26.632	0	243.210	0	91.0	4	30.3	4	-1E+10	1	0.0493	4	0.000292	0	-1E+10	1	-1E+10	1	-1E+10	1
4902624	12	C	10/19/2024	19:43	-128.323	47.366	0	246.20	0	6.3832	0	33.8948	0	26.633	0	244.003	0	90.6	4	30.2	4	-1E+10	1	0.0467	4	0.000280	0	-1E+10	1	-1E+10	1	-1E+10	1
4902624	12	C	10/19/2024	19:43	-128.323	47.366	0	247.00	0	6.3680	0	33.8940	0	26.635	0	244.795	0	-1e10	1	-1e10	1	-1E+10	1	-1e10	1	-1e10	1	-1E+10	1	-1E+10	1	-1E+10	1
4902624	12	C	10/19/2024	19:43	-128.323	47.366	0	247.10	0	6.3669	0	33.8939	0	26.635	0	244.894	0	90.1	4	30.0	4	-1E+10	1	0.0474	4	0.000274	0	-1E+10	1	-1E+10	1	-1E+10	1
4902624	12	C	10/19/2024	19:43	-128.323	47.366	0	247.90	0	6.3581	0	33.8935	0	26.636	0	245.687	0	89.6	4	29.8	4	-1E+10	1	0.0484	4	0.000273	0	-1E+10	1	-1E+10	1	-1E+10	1
4902624	12	C	10/19/2024	19:43	-128.323	47.366	0	248.70	0	6.3492	0	33.8931	0	26.636	0	246.479	0	89.1	4	29.7	4	-1E+10	1	0.0460	4	0.000298	0	-1E+10	1	-1E+10	1	-1E+10	1
4902624	12	C	10/19/2024	19:43	-128.323	47.366	0	248.90	0	6.3470	0	33.8930	0	26.637	0	246.677	0	-1e10	1	-1e10	1	-1E+10	1	-1e10	1	-1e10	1	-1E+10	1	-1E+10	1	-1E+10	1
4902624	12	C	10/19/2024	19:43	-128.323	47.366	0	249.60	0	6.3624	0	33.8965	0	26.637	0	247.370	0	88.9	4	29.6	4	-1E+10	1	0.0526	4	0.000334	0	-1E+10	1	-1E+10	1	-1E+10	1
4902624	12	C	10/19/2024	19:43	-128.323	47.366	0	250.40	0	6.3800	0	33.9005	0	26.638	0	248.163	0	88.7	4	29.6	4	-1E+10	1	0.0584	4	0.000315	0	-1E+10	1	-1E+10	1	-1E+10	1
4902624	12	C	10/19/2024	19:43	-128.323	47.366	0	250.90	0	6.3910	0	33.9030	0	26.639	0	248.658	0	-1e10	1	-1e10	1	-1E+10	1	-1e10	1	-1e10	1	-1E+10	1	-1E+10	1	-1E+10	1
4902624	12	C	10/19/2024	19:43	-128.323	47.366	0	251.20	0	6.3874	0	33.9033	0	26.640	0	248.955	0	88.5	4	29.5	4	-1E+10	1	0.0511	4	0.000268	0	-1E+10	1	-1E+10	1	-1E+10	1
4902624	12	C	10/19/2024	19:43	-128.323	47.366	0	252.00	0	6.3779	0	33.9040	0	26.641	0	249.748	0	88.2	4	29.4	4	-1E+10	1	0.0628	4	0.000278	0	-1E+10	1	-1E+10	1	-1E+10	1
4902624	12	C	10/19/2024	19:43	-128.323	47.366	0	252.90	0	6.3672	0	33.9049	0	26.644	0	250.639	0	88.0	4	29.3	4	-1E+10	1	0.0504	4	0.000280	0	-1E+10	1	-1E+10	1	-1E+10	1
4902624	12	C	10/19/2024	19:43	-128.323	47.366	0	253.00	0	6.3660	0	33.9050	0	26.644	0	250.738	0	-1e10	1	-1e10	1	-1E+10	1	-1e10	1	-1e10	1	-1E+10	1	-1E+10	1	-1E+10	1
4902624	12	C	10/19/2024	19:43	-128.323	47.366	0	253.70	0	6.3601	0	33.9050	0	26.645	0	251.431	0	87.7	4	29.2	4	-1E+10	1	0.0529	4	0.000288	0	-1E+10	1	-1E+10	1	-1E+10	1
4902624	12	C	10/19/2024	19:43	-128.323	47.366	0	254.50	0	6.3533	0	33.9050	0	26.645	0	252.224	0	87.3	4	29.1	4	-1E+10	1	0.0584	4	0.000292	0	-1E+10	1	-1E+10	1	-1E+10	1
4902624	12	C	10/19/2024	19:43	-128.323	47.366	0	255.00	0	6.3490	0	33.9050	0	26.646	0	252.719	0	-1e10	1	-1e10	1	-1E+10	1	-1e10	1	-1e10	1	-1E+10	1	-1E+10	1	-1E+10	1
4902624	12	C	10/19/2024	19:43	-128.323	47.366	0	255.30	0	6.3500	0	33.9053	0	26.646	0	253.016	0	86.9	4	28.9	4	-1E+10	1	0.0560	4	0.000307	0	-1E+10	1	-1E+10	1	-1E+10	1
4902624	12	C	10/19/2024	19:43	-128.323	47.366	0	256.10	0	6.3528	0	33.9061	0	26.646	0	253.808	0	86.6	4	28.8	4	-1E+10	1	0.0511	4	0.000318	0	-1E+10	1	-1E+10	1	-1E+10	1
4902624	12	C	10/19/2024	19:43	-128.323	47.366	0	256.90	0	6.3556	0	33.9069	0	26.647	0	254.601	0	86.2	4	28.7	4	-1E+10	1	0.0511	4	0.000283	0	-1E+10	1	-1E+10	1	-1E+10	1
4902624	12	C	10/19/2024	19:43	-128.323	47.366	0	257.00	0	6.3560	0	33.9070	0	26.647	0	254.700	0	-1e10	1	-1e10	1	-1E+10	1	-1e10	1	-1e10	1	-1E+10	1	-1E+10	1	-1E+10	1
4902624	12	C	10/19/2024	19:43	-128.323	47.366	0	257.70	0	6.3486	0	33.9074	0	26.648	0	255.393	0	85.9	4	28.6	4	-1E+10	1	0.0511	4	0.000386	0	-1E+10	1	-1E+10	1	-1E+10	1
4902624	12	C	10/19/2024	19:43	-128.323	47.366	0	258.50	0	6.3403	0	33.9078	0	26.649	0	256.185	0	85.5	4	28.5	4	-1E+10	1	0.0511	4	0.000292	0	-1E+10	1	-1E+10	1	-1E+10	1
4902624	12	C	10/19/2024	19:43	-128.323	47.366	0	259.00	0	6.3350	0	33.9080	0	26.650	0	256.681	0	-1e10	1	-1e10	1	-1E+10	1	-1e10	1	-1e10	1	-1E+10	1	-1E+10	1	-1E+10	1
4902624	12	C	10/19/2024	19:43	-128.323	47.366	0	259.30	0	6.3280	0	33.9080	0	26.651	0	256.978	0	85.1	4	28.3	4	-1E+10	1	0.0620	4	0.000260	0	-1E+10	1	-1E+10	1	-1E+10	1
4902624	12	C	10/19/2024	19:43	-128.323	47.366	0	260.10	0	6.3092	0	33.9080	0	26.654	0	257.770	0	84.8	4	28.2	4	-1E+10	1	0.0613	4	0.000271	0	-1E+10	1	-1E+10	1	-1E+10	1
4902624	12	C	10/19/2024	19:43	-128.323	47.366	0	260.90	0	6.2903	0	33.9080	0	26.656	0	258.562	0	84.4	4	28.1	4	-1E+10	1	0.0552	4	0.000296	0	-1E+10	1	-1E+10	1	-1E+10	1
4902624	12	C	10/19/2024	19:43	-128.323	47.366	0	261.00	0	6.2880	0	33.9080	0	26.656	0	258.661	0	-1e10	1	-1e10	1	-1E+10	1	-1e10	1	-1e10	1	-1E+10	1	-1E+10	1	-1E+10	1
4902624	12	C	10/19/2024	19:43	-128.323	47.366	0	261.70	0	6.2828	0	33.9084	0	26.657	0	259.355	0	83.9	4	27.9	4	-1E+10	1	0.0456	4	0.000320	0	-1E+10	1	-1E+10	1	-1E+10	1
4902624	12	C	10/19/2024	19:43	-128.323	47.366	0	262.50	0	6.2769	0	33.9088	0	26.658	0	260.147	0	83.4	4	27.7	4	-1E+10	1	0.0365	4	0.000313	0	-1E+10	1	-1E+10	1	-1E+10	1
4902624	12	C	10/19/2024	19:43	-128.323	47.366	0	262.90	0	6.2740	0	33.9090	0	26.659	0	260.543	0	-1e10	1	-1e10	1	-1E+10	1	-1e10	1	-1e10	1	-1E+10	1	-1E+10	1	-1E+10	1
4902624	12	C	10/19/2024	19:43	-128.323	47.366	0	263.40	0	6.2735	0	33.9097	0	26.659	0	261.038	0	83.0	4	27.6	4	-1E+10	1	0.0394	4	0.000273	0	-1E+10	1	-1E+10	1	-1E+10	1
4902624	12	C	10/19/2024	19:43	-128.323	47.366	0	264.20	0	6.2728	0	33.9109	0	26.660	0	261.831	0	82.6	4	27.5	4	-1E+10	1	0.0511	4	0.000245	0	-1E+10	1	-1E+10	1	-1E+10	1
4902624	12	C	10/19/2024	19:43	-128.323	47.366	0	265.00	0	6.2720	0	33.9120	0	26.661	0	262.623	0	80.2	4	26.7	4	-1E+10	1	0.0511	4	0.000244	0	-1E+10	1	-1E+10	1	-1E+10	1
4902624	12	C	10/19/2024	19:43	-128.323	47.366	0	265.80	0	6.2772	0	33.9148	0	26.663	0	263.415	0	81.9	4	27.2	4	-1E+10	1	0.0511	4	0.000423	0	-1E+10	1	-1E+10	1	-1E+10	1
4902624	12	C	10/19/2024	19:43	-128.323	47.366	0	266.60	0	6.2824	0	33.9176	0	26.665	0	264.208	0	81.7	4	27.2	4	-1E+10	1	0.0467	4	0.000320	0	-1E+10	1	-1E+10	1	-1E+10	1
4902624	12	C	10/19/2024	19:43	-128.323	47.366	0	267.00	0	6.2850	0	33.9190	0	26.665	0	264.604	0	-1e10	1	-1e10	1	-1E+10	1	-1e10	1	-1e10	1	-1E+10	1	-1E+10	1	-1E+10	1
4902624	12	C	10/19/2024	19:43	-128.323	47.366	0	267.50	0	6.2822	0	33.9198	0	26.666	0	265.099	0	81.5	4	27.1	4	-1E+10	1	0.0575	4	0.000251	0	-1E+10	1	-1E+10	1	-1E+10	1
4902624	12	C	10/19/2024	19:43	-128.323	47.366	0	268.30	0	6.2779	0	33.9210	0	26.668	0	265.891	0	81.4	4	27.1	4	-1E+10	1	0.0620	4	0.000274	0	-1E+10	1	-1E+10	1	-1E+10	1
4902624	12	C	10/19/2024	19:43	-128.323	47.366	0	269.00	0	6.2740	0	33.9220	0	26.669	0	266.585	0	-1e10	1	-1e10	1	-1E+10	1	-1e10	1	-1e10	1	-1E+10	1	-1E+10	1	-1E+10	1
4902624	12	C	10/19/2024	19:43	-128.323	47.366	0	269.10	0	6.2718	0	33.9220	0	26.669	0	266.684	0	81.2	4	27.0	4	-1E+10	1	0.0584	4	0.000280	0	-1E+10	1	-1E+10	1	-1E+10	1
4902624	12	C	10/19/2024	19:43	-128.323	47.366	0	270.00	0	6.2521	0	33.9215	0	26.672	0	267.575	0	81.0	4	26.9	4	-1E+10	1	0.0584	4	0.000274	0	-1E+10	1	-1E+10	1	-1E+10	1
4902624	12	C	10/19/2024	19:43	-128.323	47.366	0	270.80	0	6.2346	0	33.9211	0	26.674	0	268.367	0	80.8	4	26.8	4	-1E+10	1	0.0540	4	0.000261	0	-1E+10	1	-1E+10	1	-1E+10	1
4902624	12	C	10/19/2024	19:43	-128.323	47.366	0	271.10	0	6.2280	0	33.9210	0	26.674	0	268.664	0	-1e10	1	-1e10	1	-1E+10	1	-1e10	1	-1e10	1	-1E+10	1	-1E+10	1	-1E+10	1
4902624	12	C	10/19/2024	19:43	-128.323	47.366	0	271.60	0	6.2198	0	33.9205	0	26.675	0	269.160	0	80.5	4	26.7	4	-1E+10	1	0.0365	4	0.000280	0	-1E+10	1	-1E+10	1	-1E+10	1
4902624	12	C	10/19/2024	19:43	-128.323	47.366	0	272.50	0	6.2049	0	33.9196	0	26.676	0	270.051	0	80.2	4	26.6	4	-1E+10	1	0.0484	4	0.000395	0	-1E+10	1	-1E+10	1	-1E+10	1
4902624	12	C	10/19/2024	19:43	-128.323	47.366	0	273.10	0	6.1950	0	33.9190	0	26.677	0	270.645	0	-1e10	1	-1e10	1	-1E+10	1	-1e10	1	-1e10	1	-1E+10	1	-1E+10	1	-1E+10	1
4902624	12	C	10/19/2024	19:43	-128.323	47.366	0	273.30	0	6.1921	0	33.9192	0	26.677	0	270.843	0	79.9	4	26.5	4	-1E+10	1	0.0511	4	0.000333	0	-1E+10	1	-1E+10	1	-1E+10	1
4902624	12	C	10/19/2024	19:43	-128.323	47.366	0	274.10	0	6.1803	0	33.9201	0	26.680	0	271.636	0	79.6	4	26.4	4	-1E+10	1	0.0555	4	0.000268	0	-1E+10	1	-1E+10	1	-1E+10	1
4902624	12	C	10/19/2024	19:43	-128.323	47.366	0	275.00	0	6.1670	0	33.9210	0	26.682	0	272.527	0	77.4	4	25.7	4	-1E+10	1	0.0511	4	0.000262	0	-1E+10	1	-1E+10	1	-1E+10	1
4902624	12	C	10/19/2024	19:43	-128.323	47.366	0	275.80	0	6.1510	0	33.9210	0	26.684	0	273.319	0	79.1	4	26.2	4	-1E+10	1	0.0520	4	0.000271	0	-1E+10	1	-1E+10	1	-1E+10	1
4902624	12	C	10/19/2024	19:43	-128.323	47.366	0	276.70	0	6.1330	0	33.9210	0	26.686	0	274.210	0	78.7	4	26.1	4	-1E+10	1	0.0628	4	0.000252	0	-1E+10	1	-1E+10	1	-1E+10	1
4902624	12	C	10/19/2024	19:43	-128.323	47.366	0	277.00	0	6.1270	0	33.9210	0	26.687	0	274.508	0	-1e10	1	-1e10	1	-1E+10	1	-1e10	1	-1e10	1	-1E+10	1	-1E+10	1	-1E+10	1
4902624	12	C	10/19/2024	19:43	-128.323	47.366	0	277.50	0	6.1240	0	33.9212	0	26.688	0	275.003	0	78.3	4	25.9	4	-1E+10	1	0.0584	4	0.000251	0	-1E+10	1	-1E+10	1	-1E+10	1
4902624	12	C	10/19/2024	19:43	-128.323	47.366	0	278.40	0	6.1186	0	33.9217	0	26.689	0	275.894	0	77.9	4	25.8	4	-1E+10	1	0.0584	4	0.000280	0	-1E+10	1	-1E+10	1	-1E+10	1
4902624	12	C	10/19/2024	19:43	-128.323	47.366	0	279.00	0	6.1150	0	33.9220	0	26.690	0	276.488	0	-1e10	1	-1e10	1	-1E+10	1	-1e10	1	-1e10	1	-1E+10	1	-1E+10	1	-1E+10	1
4902624	12	C	10/19/2024	19:43	-128.323	47.366	0	279.20	0	6.1140	0	33.9223	0	26.690	0	276.686	0	77.5	4	25.7	4	-1E+10	1	0.0584	4	0.000268	0	-1E+10	1	-1E+10	1	-1E+10	1
4902624	12	C	10/19/2024	19:43	-128.323	47.366	0	280.00	0	6.1100	0	33.9235	0	26.691	0	277.478	0	77.2	4	25.6	4	-1E+10	1	0.0467	4	0.000278	0	-1E+10	1	-1E+10	1	-1E+10	1
4902624	12	C	10/19/2024	19:43	-128.323	47.366	0	280.90	0	6.1055	0	33.9249	0	26.693	0	278.370	0	76.9	4	25.5	4	-1E+10	1	0.0489	4	0.000288	0	-1E+10	1	-1E+10	1	-1E+10	1
4902624	12	C	10/19/2024	19:43	-128.323	47.366	0	281.00	0	6.1050	0	33.9250	0	26.693	0	278.469	0	-1e10	1	-1e10	1	-1E+10	1	-1e10	1	-1e10	1	-1E+10	1	-1E+10	1	-1E+10	1
4902624	12	C	10/19/2024	19:43	-128.323	47.366	0	281.70	0	6.0977	0	33.9257	0	26.695	0	279.162	0	76.6	4	25.4	4	-1E+10	1	0.0511	4	0.000631	0	-1E+10	1	-1E+10	1	-1E+10	1
4902624	12	C	10/19/2024	19:43	-128.323	47.366	0	282.60	0	6.0882	0	33.9266	0	26.697	0	280.053	0	76.3	4	25.3	4	-1E+10	1	0.0511	4	0.000573	0	-1E+10	1	-1E+10	1	-1E+10	1
4902624	12	C	10/19/2024	19:43	-128.323	47.366	0	283.00	0	6.0840	0	33.9270	0	26.697	0	280.449	0	-1e10	1	-1e10	1	-1E+10	1	-1e10	1	-1e10	1	-1E+10	1	-1E+10	1	-1E+10	1
4902624	12	C	10/19/2024	19:43	-128.323	47.366	0	283.40	0	6.0820	0	33.9278	0	26.698	0	280.846	0	76.0	4	25.2	4	-1E+10	1	0.0489	4	0.000252	0	-1E+10	1	-1E+10	1	-1E+10	1
4902624	12	C	10/19/2024	19:43	-128.323	47.366	0	284.30	0	6.0775	0	33.9296	0	26.700	0	281.737	0	75.8	4	25.1	4	-1E+10	1	0.0438	4	0.000268	0	-1E+10	1	-1E+10	1	-1E+10	1
4902624	12	C	10/19/2024	19:43	-128.323	47.366	0	285.00	0	6.0740	0	33.9310	0	26.702	0	282.430	0	-1e10	1	-1e10	1	-1E+10	1	-1e10	1	-1e10	1	-1E+10	1	-1E+10	1	-1E+10	1
4902624	12	C	10/19/2024	19:43	-128.323	47.366	0	285.20	0	6.0731	0	33.9312	0	26.702	0	282.628	0	75.7	4	25.0	4	-1E+10	1	0.0482	4	0.000378	0	-1E+10	1	-1E+10	1	-1E+10	1
4902624	12	C	10/19/2024	19:43	-128.323	47.366	0	286.00	0	6.0695	0	33.9320	0	26.703	0	283.420	0	75.5	4	25.0	4	-1E+10	1	0.0657	4	0.000820	0	-1E+10	1	-1E+10	1	-1E+10	1
4902624	12	C	10/19/2024	19:43	-128.323	47.366	0	287.00	0	6.0650	0	33.9330	0	26.705	0	284.411	0	-1e10	1	-1e10	1	-1E+10	1	-1e10	1	-1e10	1	-1E+10	1	-1E+10	1	-1E+10	1
4902624	12	C	10/19/2024	19:43	-128.323	47.366	0	287.10	0	6.0627	0	33.9329	0	26.705	0	284.510	0	75.4	4	24.9	4	-1E+10	1	0.0511	4	0.000256	0	-1E+10	1	-1E+10	1	-1E+10	1
4902624	12	C	10/19/2024	19:43	-128.323	47.366	0	287.90	0	6.0438	0	33.9325	0	26.707	0	285.302	0	75.3	4	24.9	4	-1E+10	1	0.0657	4	0.000268	0	-1E+10	1	-1E+10	1	-1E+10	1
4902624	12	C	10/19/2024	19:43	-128.323	47.366	0	288.70	0	6.0251	0	33.9321	0	26.709	0	286.094	0	75.2	4	24.8	4	-1E+10	1	0.0657	4	0.000258	0	-1E+10	1	-1E+10	1	-1E+10	1
4902624	12	C	10/19/2024	19:43	-128.323	47.366	0	289.00	0	6.0180	0	33.9320	0	26.710	0	286.391	0	-1e10	1	-1e10	1	-1E+10	1	-1e10	1	-1e10	1	-1E+10	1	-1E+10	1	-1E+10	1
4902624	12	C	10/19/2024	19:43	-128.323	47.366	0	289.50	0	6.0103	0	33.9320	0	26.711	0	286.886	0	75.1	4	24.8	4	-1E+10	1	0.0471	4	0.000241	0	-1E+10	1	-1E+10	1	-1E+10	1
4902624	12	C	10/19/2024	19:43	-128.323	47.366	0	290.40	0	5.9963	0	33.9320	0	26.712	0	287.778	0	75.0	4	24.8	4	-1E+10	1	0.0456	4	0.000233	0	-1E+10	1	-1E+10	1	-1E+10	1
4902624	12	C	10/19/2024	19:43	-128.323	47.366	0	291.00	0	5.9870	0	33.9320	0	26.714	0	288.372	0	-1e10	1	-1e10	1	-1E+10	1	-1e10	1	-1e10	1	-1E+10	1	-1E+10	1	-1E+10	1
4902624	12	C	10/19/2024	19:43	-128.323	47.366	0	291.30	0	5.9854	0	33.9323	0	26.714	0	288.669	0	75.0	4	24.8	4	-1E+10	1	0.0551	4	0.000239	0	-1E+10	1	-1E+10	1	-1E+10	1
4902624	12	C	10/19/2024	19:43	-128.323	47.366	0	292.20	0	5.9804	0	33.9332	0	26.715	0	289.560	0	75.0	4	24.8	4	-1E+10	1	0.0557	4	0.000249	0	-1E+10	1	-1E+10	1	-1E+10	1
4902624	12	C	10/19/2024	19:43	-128.323	47.366	0	293.00	0	5.9760	0	33.9340	0	26.717	0	290.352	0	-1e10	1	-1e10	1	-1E+10	1	-1e10	1	-1e10	1	-1E+10	1	-1E+10	1	-1E+10	1
4902624	12	C	10/19/2024	19:43	-128.323	47.366	0	293.20	0	5.9732	0	33.9339	0	26.717	0	290.550	0	75.0	4	24.8	4	-1E+10	1	0.0511	4	0.000255	0	-1E+10	1	-1E+10	1	-1E+10	1
4902624	12	C	10/19/2024	19:43	-128.323	47.366	0	295.00	0	5.9480	0	33.9330	0	26.719	0	292.333	0	-1e10	1	-1e10	1	-1E+10	1	-1e10	1	-1e10	1	-1E+10	1	-1E+10	1	-1E+10	1
4902624	12	C	10/19/2024	19:43	-128.323	47.366	0	297.00	0	5.9150	0	33.9290	0	26.720	0	294.313	0	-1e10	1	-1e10	1	-1E+10	1	-1e10	1	-1e10	1	-1E+10	1	-1E+10	1	-1E+10	1
4902624	12	C	10/19/2024	19:43	-128.323	47.366	0	299.00	0	5.8550	0	33.9260	0	26.725	0	296.294	0	-1e10	1	-1e10	1	-1E+10	1	-1e10	1	-1e10	1	-1E+10	1	-1E+10	1	-1E+10	1
4902624	12	C	10/19/2024	19:43	-128.323	47.366	0	301.80	0	5.8251	0	33.9255	0	26.729	0	299.066	0	74.0	4	24.4	4	-1E+10	1	0.0518	4	0.000389	0	-1E+10	1	-1E+10	1	-1E+10	1
4902624	12	C	10/19/2024	19:43	-128.323	47.366	0	305.00	0	5.7910	0	33.9250	0	26.732	0	302.235	0	-1e10	1	-1e10	1	-1E+10	1	-1e10	1	-1e10	1	-1E+10	1	-1E+10	1	-1E+10	1
4902624	12	C	10/19/2024	19:43	-128.323	47.366	0	310.40	0	5.7489	0	33.9282	0	26.740	0	307.582	0	71.3	4	23.4	4	-1E+10	1	0.0650	4	0.003671	0	-1E+10	1	-1E+10	1	-1E+10	1
4902624	12	C	10/19/2024	19:43	-128.323	47.366	0	315.00	0	5.7130	0	33.9310	0	26.747	0	312.137	0	-1e10	1	-1e10	1	-1E+10	1	-1e10	1	-1e10	1	-1E+10	1	-1E+10	1	-1E+10	1
4902624	12	C	10/19/2024	19:43	-128.323	47.366	0	319.20	0	5.7100	0	33.9382	0	26.753	0	316.296	0	66.9	4	22.0	4	-1E+10	1	0.0511	4	0.000233	0	-1E+10	1	-1E+10	1	-1E+10	1
4902624	12	C	10/19/2024	19:43	-128.323	47.366	0	324.90	0	5.7060	0	33.9480	0	26.761	0	321.939	0	-1e10	1	-1e10	1	-1E+10	1	-1e10	1	-1e10	1	-1E+10	1	-1E+10	1	-1E+10	1
4902624	12	C	10/19/2024	19:43	-128.323	47.366	0	328.10	0	5.6664	0	33.9480	0	26.766	0	325.108	0	64.7	4	21.2	4	-1E+10	1	0.0516	4	0.000244	0	-1E+10	1	-1E+10	1	-1E+10	1
4902624	12	C	10/19/2024	19:43	-128.323	47.366	0	335.00	0	5.5810	0	33.9480	0	26.776	0	331.939	0	-1e10	1	-1e10	1	-1E+10	1	-1e10	1	-1e10	1	-1E+10	1	-1E+10	1	-1E+10	1
4902624	12	C	10/19/2024	19:43	-128.323	47.366	0	337.30	0	5.5764	0	33.9516	0	26.780	0	334.216	0	61.0	4	20.0	4	-1E+10	1	0.0648	4	0.000231	0	-1E+10	1	-1E+10	1	-1E+10	1
4902624	12	C	10/19/2024	19:43	-128.323	47.366	0	345.10	0	5.5610	0	33.9640	0	26.792	0	341.939	0	-1e10	1	-1e10	1	-1E+10	1	-1e10	1	-1e10	1	-1E+10	1	-1E+10	1	-1E+10	1
4902624	12	C	10/19/2024	19:43	-128.323	47.366	0	346.70	0	5.5525	0	33.9664	0	26.795	0	343.523	0	57.0	4	18.6	4	-1E+10	1	0.0371	4	0.000199	0	-1E+10	1	-1E+10	1	-1E+10	1
4902624	12	C	10/19/2024	19:43	-128.323	47.366	0	355.10	0	5.5080	0	33.9790	0	26.810	0	351.838	0	-1e10	1	-1e10	1	-1E+10	1	-1e10	1	-1e10	1	-1E+10	1	-1E+10	1	-1E+10	1
4902624	12	C	10/19/2024	19:43	-128.323	47.366	0	356.30	0	5.4937	0	33.9790	0	26.812	0	353.026	0	53.9	4	17.6	4	-1E+10	1	0.0511	4	0.000231	0	-1E+10	1	-1E+10	1	-1E+10	1
4902624	12	C	10/19/2024	19:43	-128.323	47.366	0	365.20	0	5.3880	0	33.9790	0	26.824	0	361.837	0	-1e10	1	-1e10	1	-1E+10	1	-1e10	1	-1e10	1	-1E+10	1	-1E+10	1	-1E+10	1
4902624	12	C	10/19/2024	19:43	-128.323	47.366	0	366.30	0	5.3787	0	33.9794	0	26.826	0	362.926	0	52.3	4	17.0	4	-1E+10	1	0.0517	4	0.000210	0	-1E+10	1	-1E+10	1	-1E+10	1
4902624	12	C	10/19/2024	19:43	-128.323	47.366	0	375.20	0	5.3030	0	33.9830	0	26.838	0	371.736	0	-1e10	1	-1e10	1	-1E+10	1	-1e10	1	-1e10	1	-1E+10	1	-1E+10	1	-1E+10	1
4902624	12	C	10/19/2024	19:43	-128.323	47.366	0	376.70	0	5.3142	0	33.9871	0	26.840	0	373.221	0	48.3	4	15.7	4	-1E+10	1	0.0657	4	0.000232	0	-1E+10	1	-1E+10	1	-1E+10	1
4902624	12	C	10/19/2024	19:43	-128.323	47.366	0	385.00	0	5.3760	0	34.0100	0	26.850	0	381.436	0	-1e10	1	-1e10	1	-1E+10	1	-1e10	1	-1e10	1	-1E+10	1	-1E+10	1	-1E+10	1
4902624	12	C	10/19/2024	19:43	-128.323	47.366	0	387.50	0	5.3701	0	34.0123	0	26.853	0	383.911	0	44.4	4	14.5	4	-1E+10	1	0.0657	4	0.000220	0	-1E+10	1	-1E+10	1	-1E+10	1
4902624	12	C	10/19/2024	19:43	-128.323	47.366	0	394.80	0	5.3530	0	34.0190	0	26.860	0	391.136	0	-1e10	1	-1e10	1	-1E+10	1	-1e10	1	-1e10	1	-1E+10	1	-1E+10	1	-1E+10	1
4902624	12	C	10/19/2024	19:43	-128.323	47.366	0	398.70	0	5.3450	0	34.0232	0	26.865	0	394.996	0	42.4	4	13.8	4	-1E+10	1	0.0657	4	0.000211	0	-1E+10	1	-1E+10	1	-1E+10	1
4902624	12	C	10/19/2024	19:43	-128.323	47.366	0	405.00	0	5.3320	0	34.0300	0	26.872	0	401.232	0	-1e10	1	-1e10	1	-1E+10	1	-1e10	1	-1e10	1	-1E+10	1	-1E+10	1	-1E+10	1
4902624	12	C	10/19/2024	19:43	-128.323	47.366	0	410.00	0	5.3105	0	34.0340	0	26.877	0	406.180	0	40.3	4	13.1	4	-1E+10	1	0.0654	4	0.000269	0	-1E+10	1	-1E+10	1	-1E+10	1
4902624	12	C	10/19/2024	19:43	-128.323	47.366	0	415.00	0	5.2890	0	34.0380	0	26.883	0	411.129	0	-1e10	1	-1e10	1	-1E+10	1	-1e10	1	-1e10	1	-1E+10	1	-1E+10	1	-1E+10	1
4902624	12	C	10/19/2024	19:43	-128.323	47.366	0	421.50	0	5.2487	0	34.0425	0	26.891	0	417.562	0	38.2	4	12.4	4	-1E+10	1	0.0578	4	0.000309	0	-1E+10	1	-1E+10	1	-1E+10	1
4902624	12	C	10/19/2024	19:43	-128.323	47.366	0	425.00	0	5.2270	0	34.0450	0	26.896	0	421.025	0	-1e10	1	-1e10	1	-1E+10	1	-1e10	1	-1e10	1	-1E+10	1	-1E+10	1	-1E+10	1
4902624	12	C	10/19/2024	19:43	-128.323	47.366	0	433.10	0	5.1933	0	34.0530	0	26.906	0	429.041	0	35.7	4	11.6	4	-1E+10	1	0.0444	4	0.000198	0	-1E+10	1	-1E+10	1	-1E+10	1
4902624	12	C	10/19/2024	19:43	-128.323	47.366	0	435.10	0	5.1850	0	34.0550	0	26.909	0	431.021	0	-1e10	1	-1e10	1	-1E+10	1	-1e10	1	-1e10	1	-1E+10	1	-1E+10	1	-1E+10	1
4902624	12	C	10/19/2024	19:43	-128.323	47.366	0	444.90	0	5.1427	0	34.0617	0	26.919	0	440.718	0	33.9	4	11.0	4	-1E+10	1	0.0574	4	0.000229	0	-1E+10	1	-1E+10	1	-1E+10	1
4902624	12	C	10/19/2024	19:43	-128.323	47.366	0	445.30	0	5.1410	0	34.0620	0	26.920	0	441.114	0	-1e10	1	-1e10	1	-1E+10	1	-1e10	1	-1e10	1	-1E+10	1	-1E+10	1	-1E+10	1
4902624	12	C	10/19/2024	19:43	-128.323	47.366	0	455.20	0	5.0710	0	34.0700	0	26.934	0	450.910	0	-1e10	1	-1e10	1	-1E+10	1	-1e10	1	-1e10	1	-1E+10	1	-1E+10	1	-1E+10	1
4902624	12	C	10/19/2024	19:43	-128.323	47.366	0	455.50	0	5.0695	0	34.0702	0	26.934	0	451.207	0	32.3	4	10.5	4	-1E+10	1	0.0369	4	0.000174	0	-1E+10	1	-1E+10	1	-1E+10	1
4902624	12	C	10/19/2024	19:43	-128.323	47.366	0	463.00	0	5.0328	0	34.0747	0	26.942	0	458.628	0	31.2	4	10.1	4	-1E+10	1	0.0507	4	0.000228	0	-1E+10	1	-1E+10	1	-1E+10	1
4902624	12	C	10/19/2024	19:43	-128.323	47.366	0	465.20	0	5.0220	0	34.0760	0	26.944	0	460.805	0	-1e10	1	-1e10	1	-1E+10	1	-1e10	1	-1e10	1	-1E+10	1	-1E+10	1	-1E+10	1
4902624	12	C	10/19/2024	19:43	-128.323	47.366	0	470.80	0	5.0046	0	34.0794	0	26.949	0	466.346	0	29.9	4	9.7	4	-1E+10	1	0.0443	4	0.000173	0	-1E+10	1	-1E+10	1	-1E+10	1
4902624	12	C	10/19/2024	19:43	-128.323	47.366	0	475.20	0	4.9910	0	34.0820	0	26.953	0	470.699	0	-1e10	1	-1e10	1	-1E+10	1	-1e10	1	-1e10	1	-1E+10	1	-1E+10	1	-1E+10	1
4902624	12	C	10/19/2024	19:43	-128.323	47.366	0	479.10	0	4.9791	0	34.0856	0	26.957	0	474.558	0	28.0	4	9.0	4	-1E+10	1	0.0581	4	0.000195	0	-1E+10	1	-1E+10	1	-1E+10	1
4902624	12	C	10/19/2024	19:43	-128.323	47.366	0	485.00	0	4.9610	0	34.0910	0	26.963	0	480.395	0	-1e10	1	-1e10	1	-1E+10	1	-1e10	1	-1e10	1	-1E+10	1	-1E+10	1	-1E+10	1
4902624	12	C	10/19/2024	19:43	-128.323	47.366	0	487.90	0	4.9547	0	34.0952	0	26.968	0	483.264	0	25.7	4	8.3	4	-1E+10	1	0.0514	4	0.000161	0	-1E+10	1	-1E+10	1	-1E+10	1
4902624	12	C	10/19/2024	19:43	-128.323	47.366	0	494.70	0	4.9400	0	34.1050	0	26.977	0	489.991	0	-1e10	1	-1e10	1	-1E+10	1	-1e10	1	-1e10	1	-1E+10	1	-1E+10	1	-1E+10	1
4902624	12	C	10/19/2024	19:43	-128.323	47.366	0	497.00	0	4.9247	0	34.1070	0	26.980	0	492.267	0	24.0	4	7.7	4	-1E+10	1	0.0584	4	0.000172	0	-1E+10	1	-1E+10	1	-1E+10	1
4902624	12	C	10/19/2024	19:43	-128.323	47.366	0	504.90	0	4.8720	0	34.1140	0	26.992	0	500.082	0	-1e10	1	-1e10	1	-1E+10	1	-1e10	1	-1e10	1	-1E+10	1	-1E+10	1	-1E+10	1
4902624	12	C	10/19/2024	19:43	-128.323	47.366	0	506.50	0	4.8656	0	34.1154	0	26.994	0	501.665	0	22.6	4	7.3	4	-1E+10	1	0.0584	4	0.000171	0	-1E+10	1	-1E+10	1	-1E+10	1
4902624	12	C	10/19/2024	19:43	-128.323	47.366	0	515.10	0	4.8310	0	34.1230	0	27.004	0	510.172	0	-1e10	1	-1e10	1	-1E+10	1	-1e10	1	-1e10	1	-1E+10	1	-1E+10	1	-1E+10	1
4902624	12	C	10/19/2024	19:43	-128.323	47.366	0	516.50	0	4.8252	0	34.1238	0	27.005	0	511.557	0	21.5	4	6.9	4	-1E+10	1	0.0578	4	0.000150	0	-1E+10	1	-1E+10	1	-1E+10	1
4902624	12	C	10/19/2024	19:43	-128.323	47.366	0	525.00	0	4.7900	0	34.1290	0	27.013	0	519.965	0	-1e10	1	-1e10	1	-1E+10	1	-1e10	1	-1e10	1	-1E+10	1	-1E+10	1	-1E+10	1
4902624	12	C	10/19/2024	19:43	-128.323	47.366	0	526.80	0	4.7858	0	34.1299	0	27.014	0	521.746	0	20.6	4	6.6	4	-1E+10	1	0.0441	4	0.000183	0	-1E+10	1	-1E+10	1	-1E+10	1
4902624	12	C	10/19/2024	19:43	-128.323	47.366	0	534.90	0	4.7670	0	34.1340	0	27.020	0	529.758	0	-1e10	1	-1e10	1	-1E+10	1	-1e10	1	-1e10	1	-1E+10	1	-1E+10	1	-1E+10	1
4902624	12	C	10/19/2024	19:43	-128.323	47.366	0	537.20	0	4.7585	0	34.1354	0	27.022	0	532.033	0	19.5	4	6.3	4	-1E+10	1	0.0514	4	0.000166	0	-1E+10	1	-1E+10	1	-1E+10	1
4902624	12	C	10/19/2024	19:43	-128.323	47.366	0	544.90	0	4.7300	0	34.1400	0	27.029	0	539.649	0	-1e10	1	-1e10	1	-1E+10	1	-1e10	1	-1e10	1	-1E+10	1	-1E+10	1	-1E+10	1
4902624	12	C	10/19/2024	19:43	-128.323	47.366	0	547.80	0	4.7184	0	34.1423	0	27.032	0	542.517	0	18.5	4	5.9	4	-1E+10	1	0.0579	4	0.000285	0	-1E+10	1	-1E+10	1	-1E+10	1
4902624	12	C	10/19/2024	19:43	-128.323	47.366	0	554.90	0	4.6900	0	34.1480	0	27.040	0	549.539	0	-1e10	1	-1e10	1	-1E+10	1	-1e10	1	-1e10	1	-1E+10	1	-1E+10	1	-1E+10	1
4902624	12	C	10/19/2024	19:43	-128.323	47.366	0	558.70	0	4.6799	0	34.1499	0	27.042	0	553.297	0	17.7	4	5.7	4	-1E+10	1	0.0445	4	0.000172	0	-1E+10	1	-1E+10	1	-1E+10	1
4902624	12	C	10/19/2024	19:43	-128.323	47.366	0	565.10	0	4.6630	0	34.1530	0	27.047	0	559.627	0	-1e10	1	-1e10	1	-1E+10	1	-1e10	1	-1e10	1	-1E+10	1	-1E+10	1	-1E+10	1
4902624	12	C	10/19/2024	19:43	-128.323	47.366	0	569.70	0	4.6522	0	34.1549	0	27.049	0	564.176	0	17.0	4	5.4	4	-1E+10	1	0.0587	4	0.000174	0	-1E+10	1	-1E+10	1	-1E+10	1
4902624	12	C	10/19/2024	19:43	-128.323	47.366	0	574.90	0	4.6400	0	34.1570	0	27.052	0	569.318	0	-1e10	1	-1e10	1	-1E+10	1	-1e10	1	-1e10	1	-1E+10	1	-1E+10	1	-1E+10	1
4902624	12	C	10/19/2024	19:43	-128.323	47.366	0	580.70	0	4.6267	0	34.1622	0	27.058	0	575.054	0	15.9	4	5.1	4	-1E+10	1	0.0649	4	0.000217	0	-1E+10	1	-1E+10	1	-1E+10	1
4902624	12	C	10/19/2024	19:43	-128.323	47.366	0	584.90	0	4.6170	0	34.1660	0	27.062	0	579.207	0	-1e10	1	-1e10	1	-1E+10	1	-1e10	1	-1e10	1	-1E+10	1	-1E+10	1	-1E+10	1
4902624	12	C	10/19/2024	19:43	-128.323	47.366	0	591.90	0	4.5992	0	34.1715	0	27.068	0	586.129	0	15.1	4	4.8	4	-1E+10	1	0.0444	4	0.000195	0	-1E+10	1	-1E+10	1	-1E+10	1
4902624	12	C	10/19/2024	19:43	-128.323	47.366	0	595.10	0	4.5910	0	34.1740	0	27.071	0	589.294	0	-1e10	1	-1e10	1	-1E+10	1	-1e10	1	-1e10	1	-1E+10	1	-1E+10	1	-1E+10	1
4902624	12	C	10/19/2024	19:43	-128.323	47.366	0	603.30	0	4.5553	0	34.1772	0	27.078	0	597.402	0	14.6	4	4.7	4	-1E+10	1	0.0581	4	0.000193	0	-1E+10	1	-1E+10	1	-1E+10	1
4902624	12	C	10/19/2024	19:43	-128.323	47.366	0	605.20	0	4.5470	0	34.1780	0	27.079	0	599.281	0	-1e10	1	-1e10	1	-1E+10	1	-1e10	1	-1e10	1	-1E+10	1	-1E+10	1	-1E+10	1
4902624	12	C	10/19/2024	19:43	-128.323	47.366	0	614.80	0	4.4920	0	34.1820	0	27.089	0	608.773	0	-1e10	1	-1e10	1	-1E+10	1	-1e10	1	-1e10	1	-1E+10	1	-1E+10	1	-1E+10	1
4902624	12	C	10/19/2024	19:43	-128.323	47.366	0	614.90	0	4.4916	0	34.1820	0	27.089	0	608.872	0	14.3	4	4.6	4	-1E+10	1	0.0511	4	0.000160	0	-1E+10	1	-1E+10	1	-1E+10	1
4902624	12	C	10/19/2024	19:43	-128.323	47.366	0	624.80	0	4.4550	0	34.1840	0	27.094	0	618.660	0	-1e10	1	-1e10	1	-1E+10	1	-1e10	1	-1e10	1	-1E+10	1	-1E+10	1	-1E+10	1
4902624	12	C	10/19/2024	19:43	-128.323	47.366	0	626.60	0	4.4491	0	34.1845	0	27.095	0	620.439	0	13.9	4	4.4	4	-1E+10	1	0.0511	4	0.000182	0	-1E+10	1	-1E+10	1	-1E+10	1
4902624	12	C	10/19/2024	19:43	-128.323	47.366	0	634.90	0	4.4220	0	34.1870	0	27.100	0	628.645	0	-1e10	1	-1e10	1	-1E+10	1	-1e10	1	-1e10	1	-1E+10	1	-1E+10	1	-1E+10	1
4902624	12	C	10/19/2024	19:43	-128.323	47.366	0	638.60	0	4.4183	0	34.1904	0	27.103	0	632.303	0	13.1	4	4.2	4	-1E+10	1	0.0514	4	0.000159	0	-1E+10	1	-1E+10	1	-1E+10	1
4902624	12	C	10/19/2024	19:43	-128.323	47.366	0	644.80	0	4.4120	0	34.1960	0	27.109	0	638.433	0	-1e10	1	-1e10	1	-1E+10	1	-1e10	1	-1e10	1	-1E+10	1	-1E+10	1	-1E+10	1
4902624	12	C	10/19/2024	19:43	-128.323	47.366	0	650.80	0	4.4049	0	34.1990	0	27.112	0	644.364	0	12.5	4	4.0	4	-1E+10	1	0.0578	4	0.000158	0	-1E+10	1	-1E+10	1	-1E+10	1
4902624	12	C	10/19/2024	19:43	-128.323	47.366	0	654.90	0	4.4000	0	34.2010	0	27.114	0	648.417	0	-1e10	1	-1e10	1	-1E+10	1	-1e10	1	-1e10	1	-1E+10	1	-1E+10	1	-1E+10	1
4902624	12	C	10/19/2024	19:43	-128.323	47.366	0	663.10	0	4.3803	0	34.2051	0	27.119	0	656.523	0	11.9	4	3.8	4	-1E+10	1	0.0442	4	0.000149	0	-1E+10	1	-1E+10	1	-1E+10	1
4902624	12	C	10/19/2024	19:43	-128.323	47.366	0	664.90	0	4.3760	0	34.2060	0	27.121	0	658.302	0	-1e10	1	-1e10	1	-1E+10	1	-1e10	1	-1e10	1	-1E+10	1	-1E+10	1	-1E+10	1
4902624	12	C	10/19/2024	19:43	-128.323	47.366	0	671.70	0	4.3833	0	34.2139	0	27.126	0	665.024	0	11.4	4	3.6	4	-1E+10	1	0.0522	4	0.000181	0	-1E+10	1	-1E+10	1	-1E+10	1
4902624	12	C	10/19/2024	19:43	-128.323	47.366	0	675.20	0	4.3870	0	34.2180	0	27.129	0	668.484	0	-1e10	1	-1e10	1	-1E+10	1	-1e10	1	-1e10	1	-1E+10	1	-1E+10	1	-1E+10	1
4902624	12	C	10/19/2024	19:43	-128.323	47.366	0	679.60	0	4.3808	0	34.2215	0	27.132	0	672.833	0	10.8	4	3.4	4	-1E+10	1	0.0722	4	0.000159	0	-1E+10	1	-1E+10	1	-1E+10	1
4902624	12	C	10/19/2024	19:43	-128.323	47.366	0	685.20	0	4.3730	0	34.2260	0	27.137	0	678.368	0	-1e10	1	-1e10	1	-1E+10	1	-1e10	1	-1e10	1	-1E+10	1	-1E+10	1	-1E+10	1
4902624	12	C	10/19/2024	19:43	-128.323	47.366	0	687.90	0	4.3673	0	34.2271	0	27.138	0	681.037	0	10.6	4	3.4	4	-1E+10	1	0.0514	4	0.000159	0	-1E+10	1	-1E+10	1	-1E+10	1
4902624	12	C	10/19/2024	19:43	-128.323	47.366	0	695.20	0	4.3520	0	34.2300	0	27.142	0	688.252	0	-1e10	1	-1e10	1	-1E+10	1	-1e10	1	-1e10	1	-1E+10	1	-1E+10	1	-1E+10	1
4902624	12	C	10/19/2024	19:43	-128.323	47.366	0	696.30	0	4.3463	0	34.2299	0	27.143	0	689.339	0	10.5	4	3.4	4	-1E+10	1	0.0584	4	0.000171	0	-1E+10	1	-1E+10	1	-1E+10	1
4902624	12	C	10/19/2024	19:43	-128.323	47.366	0	704.80	0	4.3025	0	34.2290	0	27.147	0	697.740	0	10.5	4	3.3	4	-1E+10	1	0.0587	4	0.000181	0	-1E+10	1	-1E+10	1	-1E+10	1
4902624	12	C	10/19/2024	19:43	-128.323	47.366	0	705.10	0	4.3010	0	34.2290	0	27.147	0	698.036	0	-1e10	1	-1e10	1	-1E+10	1	-1e10	1	-1e10	1	-1E+10	1	-1E+10	1	-1E+10	1
4902624	12	C	10/19/2024	19:43	-128.323	47.366	0	713.30	0	4.2617	0	34.2323	0	27.154	0	706.140	0	10.3	4	3.3	4	-1E+10	1	0.0652	4	0.000158	0	-1E+10	1	-1E+10	1	-1E+10	1
4902624	12	C	10/19/2024	19:43	-128.323	47.366	0	714.90	0	4.2540	0	34.2330	0	27.155	0	707.721	0	-1e10	1	-1e10	1	-1E+10	1	-1e10	1	-1e10	1	-1E+10	1	-1E+10	1	-1E+10	1
4902624	12	C	10/19/2024	19:43	-128.323	47.366	0	722.00	0	4.2146	0	34.2352	0	27.161	0	714.738	0	10.1	4	3.2	4	-1E+10	1	0.0511	4	0.000147	0	-1E+10	1	-1E+10	1	-1E+10	1
4902624	12	C	10/19/2024	19:43	-128.323	47.366	0	724.80	0	4.1990	0	34.2360	0	27.163	0	717.505	0	-1e10	1	-1e10	1	-1E+10	1	-1e10	1	-1e10	1	-1E+10	1	-1E+10	1	-1E+10	1
4902624	12	C	10/19/2024	19:43	-128.323	47.366	0	730.80	0	4.1858	0	34.2390	0	27.167	0	723.434	0	10.0	4	3.2	4	-1E+10	1	0.0514	4	0.000170	0	-1E+10	1	-1E+10	1	-1E+10	1
4902624	12	C	10/19/2024	19:43	-128.323	47.366	0	734.80	0	4.1770	0	34.2410	0	27.170	0	727.387	0	-1e10	1	-1e10	1	-1E+10	1	-1e10	1	-1e10	1	-1E+10	1	-1E+10	1	-1E+10	1
4902624	12	C	10/19/2024	19:43	-128.323	47.366	0	739.50	0	4.1528	0	34.2429	0	27.174	0	732.031	0	9.8	4	3.1	4	-1E+10	1	0.0584	4	0.000169	0	-1E+10	1	-1E+10	1	-1E+10	1
4902624	12	C	10/19/2024	19:43	-128.323	47.366	0	744.90	0	4.1250	0	34.2450	0	27.178	0	737.367	0	-1e10	1	-1e10	1	-1E+10	1	-1e10	1	-1e10	1	-1E+10	1	-1E+10	1	-1E+10	1
4902624	12	C	10/19/2024	19:43	-128.323	47.366	0	748.10	0	4.1177	0	34.2472	0	27.181	0	740.529	0	9.5	4	3.0	4	-1E+10	1	0.0584	4	0.000145	0	-1E+10	1	-1E+10	1	-1E+10	1
4902624	12	C	10/19/2024	19:43	-128.323	47.366	0	755.00	0	4.1020	0	34.2520	0	27.186	0	747.347	0	-1e10	1	-1e10	1	-1E+10	1	-1e10	1	-1e10	1	-1E+10	1	-1E+10	1	-1E+10	1
4902624	12	C	10/19/2024	19:43	-128.323	47.366	0	756.80	0	4.0971	0	34.2531	0	27.188	0	749.125	0	9.3	4	3.0	4	-1E+10	1	0.0581	4	0.000123	0	-1E+10	1	-1E+10	1	-1E+10	1
4902624	12	C	10/19/2024	19:43	-128.323	47.366	0	764.90	0	4.0750	0	34.2580	0	27.194	0	757.129	0	-1e10	1	-1e10	1	-1E+10	1	-1e10	1	-1e10	1	-1E+10	1	-1E+10	1	-1E+10	1
4902624	12	C	10/19/2024	19:43	-128.323	47.366	0	765.40	0	4.0749	0	34.2586	0	27.195	0	757.623	0	9.0	4	2.9	4	-1E+10	1	0.0514	4	0.000134	0	-1E+10	1	-1E+10	1	-1E+10	1
4902624	12	C	10/19/2024	19:43	-128.323	47.366	0	774.10	0	4.0731	0	34.2682	0	27.203	0	766.218	0	8.6	4	2.7	4	-1E+10	1	0.0586	4	0.000134	0	-1E+10	1	-1E+10	1	-1E+10	1
4902624	12	C	10/19/2024	19:43	-128.323	47.366	0	774.80	0	4.0730	0	34.2690	0	27.203	0	766.910	0	-1e10	1	-1e10	1	-1E+10	1	-1e10	1	-1e10	1	-1E+10	1	-1E+10	1	-1E+10	1
4902624	12	C	10/19/2024	19:43	-128.323	47.366	0	783.00	0	4.0634	0	34.2770	0	27.211	0	775.011	0	8.3	4	2.6	4	-1E+10	1	0.0657	4	0.000146	0	-1E+10	1	-1E+10	1	-1E+10	1
4902624	12	C	10/19/2024	19:43	-128.323	47.366	0	785.00	0	4.0610	0	34.2790	0	27.212	0	776.987	0	-1e10	1	-1e10	1	-1E+10	1	-1e10	1	-1e10	1	-1E+10	1	-1E+10	1	-1E+10	1
4902624	12	C	10/19/2024	19:43	-128.323	47.366	0	792.10	0	4.0440	0	34.2840	0	27.218	0	784.001	0	8.1	4	2.6	4	-1E+10	1	0.0654	4	0.000158	0	-1E+10	1	-1E+10	1	-1E+10	1
4902624	12	C	10/19/2024	19:43	-128.323	47.366	0	795.00	0	4.0370	0	34.2860	0	27.221	0	786.866	0	-1e10	1	-1e10	1	-1E+10	1	-1e10	1	-1e10	1	-1E+10	1	-1E+10	1	-1E+10	1
4902624	12	C	10/19/2024	19:43	-128.323	47.366	0	801.10	0	4.0185	0	34.2903	0	27.226	0	792.892	0	8.0	4	2.5	4	-1E+10	1	0.0584	4	0.000168	0	-1E+10	1	-1E+10	1	-1E+10	1
4902624	12	C	10/19/2024	19:43	-128.323	47.366	0	804.90	0	4.0070	0	34.2930	0	27.229	0	796.646	0	-1e10	1	-1e10	1	-1E+10	1	-1e10	1	-1e10	1	-1E+10	1	-1E+10	1	-1E+10	1
4902624	12	C	10/19/2024	19:43	-128.323	47.366	0	810.50	0	3.9885	0	34.2975	0	27.235	0	802.178	0	7.9	4	2.5	4	-1E+10	1	0.0587	4	0.000157	0	-1E+10	1	-1E+10	1	-1E+10	1
4902624	12	C	10/19/2024	19:43	-128.323	47.366	0	814.90	0	3.9740	0	34.3010	0	27.239	0	806.524	0	-1e10	1	-1e10	1	-1E+10	1	-1e10	1	-1e10	1	-1E+10	1	-1E+10	1	-1E+10	1
4902624	12	C	10/19/2024	19:43	-128.323	47.366	0	820.10	0	3.9519	0	34.3036	0	27.243	0	811.661	0	7.8	4	2.5	4	-1E+10	1	0.0655	4	0.000146	0	-1E+10	1	-1E+10	1	-1E+10	1
4902624	12	C	10/19/2024	19:43	-128.323	47.366	0	825.00	0	3.9310	0	34.3060	0	27.247	0	816.501	0	-1e10	1	-1e10	1	-1E+10	1	-1e10	1	-1e10	1	-1E+10	1	-1E+10	1	-1E+10	1
4902624	12	C	10/19/2024	19:43	-128.323	47.366	0	830.10	0	3.9085	0	34.3080	0	27.251	0	821.538	0	7.9	4	2.5	4	-1E+10	1	0.0581	4	0.000168	0	-1E+10	1	-1E+10	1	-1E+10	1
4902624	12	C	10/19/2024	19:43	-128.323	47.366	0	835.20	0	3.8860	0	34.3100	0	27.255	0	826.575	0	-1e10	1	-1e10	1	-1E+10	1	-1e10	1	-1e10	1	-1E+10	1	-1E+10	1	-1E+10	1
4902624	12	C	10/19/2024	19:43	-128.323	47.366	0	840.20	0	3.8645	0	34.3120	0	27.259	0	831.514	0	8.0	4	2.5	4	-1E+10	1	0.0514	4	0.000145	0	-1E+10	1	-1E+10	1	-1E+10	1
4902624	12	C	10/19/2024	19:43	-128.323	47.366	0	845.20	0	3.8430	0	34.3140	0	27.263	0	836.452	0	-1e10	1	-1e10	1	-1E+10	1	-1e10	1	-1e10	1	-1E+10	1	-1E+10	1	-1E+10	1
4902624	12	C	10/19/2024	19:43	-128.323	47.366	0	850.60	0	3.8290	0	34.3167	0	27.266	0	841.785	0	7.9	4	2.5	4	-1E+10	1	0.0587	4	0.000144	0	-1E+10	1	-1E+10	1	-1E+10	1
4902624	12	C	10/19/2024	19:43	-128.323	47.366	0	855.20	0	3.8170	0	34.3190	0	27.269	0	846.328	0	-1e10	1	-1e10	1	-1E+10	1	-1e10	1	-1e10	1	-1E+10	1	-1E+10	1	-1E+10	1
4902624	12	C	10/19/2024	19:43	-128.323	47.366	0	861.60	0	3.8015	0	34.3209	0	27.273	0	852.649	0	7.9	4	2.5	4	-1E+10	1	0.0654	4	0.000110	0	-1E+10	1	-1E+10	1	-1E+10	1
4902624	12	C	10/19/2024	19:43	-128.323	47.366	0	865.10	0	3.7930	0	34.3220	0	27.274	0	856.105	0	-1e10	1	-1e10	1	-1E+10	1	-1e10	1	-1e10	1	-1E+10	1	-1E+10	1	-1E+10	1
4902624	12	C	10/19/2024	19:43	-128.323	47.366	0	873.00	0	3.7805	0	34.3259	0	27.279	0	863.907	0	8.1	4	2.5	4	-1E+10	1	0.0578	4	0.000123	0	-1E+10	1	-1E+10	1	-1E+10	1
4902624	12	C	10/19/2024	19:43	-128.323	47.366	0	875.20	0	3.7770	0	34.3270	0	27.280	0	866.079	0	-1e10	1	-1e10	1	-1E+10	1	-1e10	1	-1e10	1	-1E+10	1	-1E+10	1	-1E+10	1
4902624	12	C	10/19/2024	19:43	-128.323	47.366	0	884.70	0	3.7605	0	34.3299	0	27.284	0	875.461	0	34.4	4	10.8	4	-1E+10	1	0.0444	4	0.000167	0	-1E+10	1	-1E+10	1	-1E+10	1
4902624	12	C	10/19/2024	19:43	-128.323	47.366	0	885.00	0	3.7600	0	34.3300	0	27.284	0	875.757	0	-1e10	1	-1e10	1	-1E+10	1	-1e10	1	-1e10	1	-1E+10	1	-1E+10	1	-1E+10	1
4902624	12	C	10/19/2024	19:43	-128.323	47.366	0	894.80	0	3.7300	0	34.3340	0	27.290	0	885.434	0	-1e10	1	-1e10	1	-1E+10	1	-1e10	1	-1e10	1	-1E+10	1	-1E+10	1	-1E+10	1
4902624	12	C	10/19/2024	19:43	-128.323	47.366	0	896.60	0	3.7341	0	34.3361	0	27.292	0	887.211	0	33.8	4	10.6	4	-1E+10	1	0.0581	4	0.000144	0	-1E+10	1	-1E+10	1	-1E+10	1
4902624	12	C	10/19/2024	19:43	-128.323	47.366	0	905.00	0	3.7530	0	34.3460	0	27.298	0	895.505	0	-1e10	1	-1e10	1	-1E+10	1	-1e10	1	-1e10	1	-1E+10	1	-1E+10	1	-1E+10	1
4902624	12	C	10/19/2024	19:43	-128.323	47.366	0	908.70	0	3.7496	0	34.3482	0	27.300	0	899.158	0	34.2	4	10.8	4	-1E+10	1	0.0514	4	0.000145	0	-1E+10	1	-1E+10	1	-1E+10	1
4902624	12	C	10/19/2024	19:43	-128.323	47.366	0	914.90	0	3.7440	0	34.3520	0	27.303	0	905.280	0	-1e10	1	-1e10	1	-1E+10	1	-1e10	1	-1e10	1	-1E+10	1	-1E+10	1	-1E+10	1
4902624	12	C	10/19/2024	19:43	-128.323	47.366	0	921.10	0	3.7316	0	34.3563	0	27.308	0	911.401	0	46.7	4	14.7	4	-1E+10	1	0.0581	4	0.000156	0	-1E+10	1	-1E+10	1	-1E+10	1
4902624	12	C	10/19/2024	19:43	-128.323	47.366	0	924.90	0	3.7240	0	34.3590	0	27.311	0	915.153	0	-1e10	1	-1e10	1	-1E+10	1	-1e10	1	-1e10	1	-1E+10	1	-1E+10	1	-1E+10	1
4902624	12	C	10/19/2024	19:43	-128.323	47.366	0	932.70	0	3.7105	0	34.3635	0	27.316	0	922.853	0	33.6	4	10.6	4	-1E+10	1	0.0511	4	0.000155	0	-1E+10	1	-1E+10	1	-1E+10	1
4902624	12	C	10/19/2024	19:43	-128.323	47.366	0	935.30	0	3.7060	0	34.3650	0	27.318	0	925.420	0	-1e10	1	-1e10	1	-1E+10	1	-1e10	1	-1e10	1	-1E+10	1	-1E+10	1	-1E+10	1
4902624	12	C	10/19/2024	19:43	-128.323	47.366	0	941.00	0	3.6789	0	34.3650	0	27.320	0	931.047	0	34.0	4	10.7	4	-1E+10	1	0.0518	4	0.000145	0	-1E+10	1	-1E+10	1	-1E+10	1
4902624	12	C	10/19/2024	19:43	-128.323	47.366	0	945.20	0	3.6590	0	34.3650	0	27.322	0	935.194	0	-1e10	1	-1e10	1	-1E+10	1	-1e10	1	-1e10	1	-1E+10	1	-1E+10	1	-1E+10	1
4902624	12	C	10/19/2024	19:43	-128.323	47.366	0	949.30	0	3.6515	0	34.3683	0	27.326	0	939.241	0	35.4	4	11.1	4	-1E+10	1	0.0660	4	0.000166	0	-1E+10	1	-1E+10	1	-1E+10	1
4902624	12	C	10/19/2024	19:43	-128.323	47.366	0	955.00	0	3.6410	0	34.3730	0	27.331	0	944.868	0	-1e10	1	-1e10	1	-1E+10	1	-1e10	1	-1e10	1	-1E+10	1	-1E+10	1	-1E+10	1
4902624	12	C	10/19/2024	19:43	-128.323	47.366	0	957.70	0	3.6336	0	34.3738	0	27.332	0	947.533	0	35.4	4	11.1	4	-1E+10	1	0.0727	4	0.000132	0	-1E+10	1	-1E+10	1	-1E+10	1
4902624	12	C	10/19/2024	19:43	-128.323	47.366	0	964.80	0	3.6140	0	34.3760	0	27.336	0	954.541	0	-1e10	1	-1e10	1	-1E+10	1	-1e10	1	-1e10	1	-1E+10	1	-1E+10	1	-1E+10	1
4902624	12	C	10/19/2024	19:43	-128.323	47.366	0	966.10	0	3.6121	0	34.3766	0	27.336	0	955.825	0	44.5	4	13.9	4	-1E+10	1	0.0650	4	0.000133	0	-1E+10	1	-1E+10	1	-1E+10	1
4902624	12	C	10/19/2024	19:43	-128.323	47.366	0	974.50	0	3.5996	0	34.3808	0	27.341	0	964.116	0	46.1	4	14.4	4	-1E+10	1	0.0511	4	0.000166	0	-1E+10	1	-1E+10	1	-1E+10	1
4902624	12	C	10/19/2024	19:43	-128.323	47.366	0	974.90	0	3.5990	0	34.3810	0	27.341	0	964.511	0	-1e10	1	-1e10	1	-1E+10	1	-1e10	1	-1e10	1	-1E+10	1	-1E+10	1	-1E+10	1
4902624	12	C	10/19/2024	19:43	-128.323	47.366	0	982.80	0	3.5575	0	34.3818	0	27.346	0	972.308	0	56.3	4	17.6	4	-1E+10	1	0.0514	4	0.000143	0	-1E+10	1	-1E+10	1	-1E+10	1
4902624	12	C	10/19/2024	19:43	-128.323	47.366	0	985.00	0	3.5460	0	34.3820	0	27.347	0	974.480	0	-1e10	1	-1e10	1	-1E+10	1	-1e10	1	-1e10	1	-1E+10	1	-1E+10	1	-1E+10	1
4902624	12	C	10/19/2024	19:43	-128.323	47.366	0	991.20	0	3.5255	0	34.3851	0	27.352	0	980.599	0	57.2	4	17.9	4	-1E+10	1	0.0585	4	0.000132	0	-1E+10	1	-1E+10	1	-1E+10	1
4902624	12	C	10/19/2024	19:43	-128.323	47.366	0	995.00	0	3.5130	0	34.3870	0	27.354	0	984.349	0	-1e10	1	-1e10	1	-1E+10	1	-1e10	1	-1e10	1	-1E+10	1	-1E+10	1	-1E+10	1
4902624	12	C	10/19/2024	19:43	-128.323	47.366	0	1006.10	0	3.4835	0	34.3919	0	27.361	0	995.304	0	57.6	4	18.0	4	-1E+10	1	0.0655	4	0.000143	0	-1E+10	1	-1E+10	1	-1E+10	1
4902624	12	C	10/19/2024	19:43	-128.323	47.366	0	1023.70	0	3.4366	0	34.3997	0	27.372	0	1012.673	0	58.6	4	18.3	4	-1E+10	1	0.0515	4	0.000143	0	-1E+10	1	-1E+10	1	-1E+10	1
4902624	12	C	10/19/2024	19:43	-128.323	47.366	0	1024.30	0	3.4350	0	34.4000	0	27.372	0	1013.265	0	-1e10	1	-1e10	1	-1E+10	1	-1e10	1	-1e10	1	-1E+10	1	-1E+10	1	-1E+10	1
4902624	12	C	10/19/2024	19:43	-128.323	47.366	0	1042.30	0	3.3953	0	34.4064	0	27.381	0	1031.027	0	65.5	4	20.4	4	-1E+10	1	0.0730	4	0.000165	0	-1E+10	1	-1E+10	1	-1E+10	1
4902624	12	C	10/19/2024	19:43	-128.323	47.366	0	1062.00	0	3.3518	0	34.4135	0	27.391	0	1050.464	0	67.5	4	21.0	4	-1E+10	1	0.0724	4	0.000131	0	-1E+10	1	-1E+10	1	-1E+10	1
4902624	12	C	10/19/2024	19:43	-128.323	47.366	0	1074.60	0	3.3240	0	34.4180	0	27.398	0	1062.896	0	-1e10	1	-1e10	1	-1E+10	1	-1e10	1	-1e10	1	-1E+10	1	-1E+10	1	-1E+10	1
4902624	12	C	10/19/2024	19:43	-128.323	47.366	0	1082.50	0	3.3048	0	34.4205	0	27.401	0	1070.690	0	71.3	4	22.2	4	-1E+10	1	0.0441	4	0.000142	0	-1E+10	1	-1E+10	1	-1E+10	1
4902624	12	C	10/19/2024	19:43	-128.323	47.366	0	1104.10	0	3.2523	0	34.4273	0	27.412	0	1091.998	0	68.8	4	21.4	4	-1E+10	1	0.0583	4	0.000120	0	-1E+10	1	-1E+10	1	-1E+10	1
4902624	12	C	10/19/2024	19:43	-128.323	47.366	0	1125.60	0	3.2000	0	34.4340	0	27.422	0	1113.205	0	-1e10	1	-1e10	1	-1E+10	1	-1e10	1	-1e10	1	-1E+10	1	-1E+10	1	-1E+10	1
4902624	12	C	10/19/2024	19:43	-128.323	47.366	0	1127.30	0	3.1963	0	34.4344	0	27.423	0	1114.882	0	44.3	4	13.8	4	-1E+10	1	0.0513	4	0.000212	0	-1E+10	1	-1E+10	1	-1E+10	1
4902624	12	C	10/19/2024	19:43	-128.323	47.366	0	1145.10	0	3.1576	0	34.4388	0	27.430	0	1132.438	0	40.4	4	12.5	4	-1E+10	1	0.0584	4	0.000199	0	-1E+10	1	-1E+10	1	-1E+10	1
4902624	12	C	10/19/2024	19:43	-128.323	47.366	0	1161.20	0	3.1226	0	34.4427	0	27.436	0	1148.316	0	37.1	4	11.5	4	-1E+10	1	0.0587	4	0.000141	0	-1E+10	1	-1E+10	1	-1E+10	1
4902624	12	C	10/19/2024	19:43	-128.323	47.366	0	1174.80	0	3.0930	0	34.4460	0	27.442	0	1161.727	0	-1e10	1	-1e10	1	-1E+10	1	-1e10	1	-1e10	1	-1E+10	1	-1E+10	1	-1E+10	1
4902624	12	C	10/19/2024	19:43	-128.323	47.366	0	1178.60	0	3.0857	0	34.4468	0	27.443	0	1165.474	0	45.9	4	14.2	4	-1E+10	1	0.0727	4	0.000141	0	-1E+10	1	-1E+10	1	-1E+10	1
4902624	12	C	10/19/2024	19:43	-128.323	47.366	0	1196.70	0	3.0510	0	34.4508	0	27.450	0	1183.322	0	51.8	4	16.0	4	-1E+10	1	0.0582	4	0.000129	0	-1E+10	1	-1E+10	1	-1E+10	1
4902624	12	C	10/19/2024	19:43	-128.323	47.366	0	1215.10	0	3.0158	0	34.4548	0	27.456	0	1201.464	0	54.8	4	16.9	4	-1E+10	1	0.0513	4	0.000129	0	-1E+10	1	-1E+10	1	-1E+10	1
4902624	12	C	10/19/2024	19:43	-128.323	47.366	0	1224.90	0	2.9970	0	34.4570	0	27.460	0	1211.126	0	-1e10	1	-1e10	1	-1E+10	1	-1e10	1	-1e10	1	-1E+10	1	-1E+10	1	-1E+10	1
4902624	12	C	10/19/2024	19:43	-128.323	47.366	0	1233.80	0	2.9793	0	34.4590	0	27.463	0	1219.900	0	75.8	4	23.4	4	-1E+10	1	0.0584	4	0.000152	0	-1E+10	1	-1E+10	1	-1E+10	1
4902624	12	C	10/19/2024	19:43	-128.323	47.366	0	1253.10	0	2.9411	0	34.4632	0	27.470	0	1238.925	0	78.7	4	24.3	4	-1E+10	1	0.0585	4	0.000151	0	-1E+10	1	-1E+10	1	-1E+10	1
4902624	12	C	10/19/2024	19:43	-128.323	47.366	0	1273.10	0	2.9014	0	34.4676	0	27.477	0	1258.639	0	80.1	4	24.7	4	-1E+10	1	0.0654	4	0.000117	0	-1E+10	1	-1E+10	1	-1E+10	1
4902624	12	C	10/19/2024	19:43	-128.323	47.366	0	1274.80	0	2.8980	0	34.4680	0	27.478	0	1260.315	0	-1e10	1	-1e10	1	-1E+10	1	-1e10	1	-1e10	1	-1E+10	1	-1E+10	1	-1E+10	1
4902624	12	C	10/19/2024	19:43	-128.323	47.366	0	1293.50	0	2.8591	0	34.4728	0	27.485	0	1278.746	0	83.5	4	25.7	4	-1E+10	1	0.0514	4	0.000162	0	-1E+10	1	-1E+10	1	-1E+10	1
4902624	12	C	10/19/2024	19:43	-128.323	47.366	0	1314.10	0	2.8163	0	34.4781	0	27.493	0	1299.047	0	78.2	4	24.1	4	-1E+10	1	0.0654	4	0.000115	0	-1E+10	1	-1E+10	1	-1E+10	1
4902624	12	C	10/19/2024	19:43	-128.323	47.366	0	1325.30	0	2.7930	0	34.4810	0	27.498	0	1310.084	0	-1e10	1	-1e10	1	-1E+10	1	-1e10	1	-1e10	1	-1E+10	1	-1E+10	1	-1E+10	1
4902624	12	C	10/19/2024	19:43	-128.323	47.366	0	1335.80	0	2.7740	0	34.4833	0	27.501	0	1320.431	0	84.0	4	25.8	4	-1E+10	1	0.0512	4	0.000104	0	-1E+10	1	-1E+10	1	-1E+10	1
4902624	12	C	10/19/2024	19:43	-128.323	47.366	0	1358.50	0	2.7329	0	34.4883	0	27.509	0	1342.797	0	77.4	4	23.8	4	-1E+10	1	0.0584	4	0.000116	0	-1E+10	1	-1E+10	1	-1E+10	1
4902624	12	C	10/19/2024	19:43	-128.323	47.366	0	1375.00	0	2.7030	0	34.4920	0	27.514	0	1359.054	0	-1e10	1	-1e10	1	-1E+10	1	-1e10	1	-1e10	1	-1E+10	1	-1E+10	1	-1E+10	1
4902624	12	C	10/19/2024	19:43	-128.323	47.366	0	1381.90	0	2.6926	0	34.4934	0	27.516	0	1365.851	0	81.2	4	24.9	4	-1E+10	1	0.0582	4	0.000138	0	-1E+10	1	-1E+10	1	-1E+10	1
4902624	12	C	10/19/2024	19:43	-128.323	47.366	0	1401.80	0	2.6624	0	34.4973	0	27.522	0	1385.455	0	84.3	4	25.8	4	-1E+10	1	0.0510	4	0.000126	0	-1E+10	1	-1E+10	1	-1E+10	1
4902624	12	C	10/19/2024	19:43	-128.323	47.366	0	1417.90	0	2.6381	0	34.5005	0	27.527	0	1401.314	0	84.4	4	25.8	4	-1E+10	1	0.0442	4	0.000138	0	-1E+10	1	-1E+10	1	-1E+10	1
4902624	12	C	10/19/2024	19:43	-128.323	47.366	0	1425.20	0	2.6270	0	34.5020	0	27.529	0	1408.504	0	-1e10	1	-1e10	1	-1E+10	1	-1e10	1	-1e10	1	-1E+10	1	-1E+10	1	-1E+10	1
4902624	12	C	10/19/2024	19:43	-128.323	47.366	0	1434.40	0	2.6142	0	34.5040	0	27.532	0	1417.565	0	86.0	4	26.3	4	-1E+10	1	0.0654	4	0.000138	0	-1E+10	1	-1E+10	1	-1E+10	1
4902624	12	C	10/19/2024	19:43	-128.323	47.366	0	1451.50	0	2.5903	0	34.5078	0	27.537	0	1434.407	0	84.4	4	25.8	4	-1E+10	1	0.0511	4	0.000148	0	-1E+10	1	-1E+10	1	-1E+10	1
4902624	12	C	10/19/2024	19:43	-128.323	47.366	0	1469.20	0	2.5657	0	34.5118	0	27.542	0	1451.837	0	88.0	4	26.9	4	-1E+10	1	0.0513	4	0.000125	0	-1E+10	1	-1E+10	1	-1E+10	1
4902624	12	C	10/19/2024	19:43	-128.323	47.366	0	1474.70	0	2.5580	0	34.5130	0	27.544	0	1457.253	0	-1e10	1	-1e10	1	-1E+10	1	-1e10	1	-1e10	1	-1E+10	1	-1E+10	1	-1E+10	1
4902624	12	C	10/19/2024	19:43	-128.323	47.366	0	1487.20	0	2.5397	0	34.5153	0	27.548	0	1469.562	0	89.0	4	27.2	4	-1E+10	1	0.0582	4	0.000136	0	-1E+10	1	-1E+10	1	-1E+10	1
4902624	12	C	10/19/2024	19:43	-128.323	47.366	0	1505.70	0	2.5126	0	34.5186	0	27.553	0	1487.777	0	91.2	4	27.8	4	-1E+10	1	0.0513	4	0.000113	0	-1E+10	1	-1E+10	1	-1E+10	1
4902624	12	C	10/19/2024	19:43	-128.323	47.366	0	1524.50	0	2.4850	0	34.5220	0	27.558	0	1506.287	0	-1e10	1	-1e10	1	-1E+10	1	-1e10	1	-1e10	1	-1E+10	1	-1E+10	1	-1E+10	1
4902624	12	C	10/19/2024	19:43	-128.323	47.366	0	1524.60	0	2.4849	0	34.5220	0	27.558	0	1506.385	0	91.5	4	27.9	4	-1E+10	1	0.0584	4	0.000124	0	-1E+10	1	-1E+10	1	-1E+10	1
4902624	12	C	10/19/2024	19:43	-128.323	47.366	0	1544.30	0	2.4588	0	34.5251	0	27.563	0	1525.779	0	96.4	4	29.4	4	-1E+10	1	0.0583	4	0.000103	0	-1E+10	1	-1E+10	1	-1E+10	1
4902624	12	C	10/19/2024	19:43	-128.323	47.366	0	1564.80	0	2.4317	0	34.5284	0	27.568	0	1545.958	0	91.6	4	27.9	4	-1E+10	1	0.0512	4	0.000205	0	-1E+10	1	-1E+10	1	-1E+10	1
4902624	12	C	10/19/2024	19:43	-128.323	47.366	0	1575.20	0	2.4180	0	34.5300	0	27.570	0	1556.195	0	-1e10	1	-1e10	1	-1E+10	1	-1e10	1	-1e10	1	-1E+10	1	-1E+10	1	-1E+10	1
4902624	12	C	10/19/2024	19:43	-128.323	47.366	0	1586.20	0	2.4007	0	34.5320	0	27.573	0	1567.021	0	91.4	4	27.8	4	-1E+10	1	0.0580	4	0.000146	0	-1E+10	1	-1E+10	1	-1E+10	1
4902624	12	C	10/19/2024	19:43	-128.323	47.366	0	1608.30	0	2.3658	0	34.5359	0	27.579	0	1588.771	0	90.7	4	27.6	4	-1E+10	1	0.0368	4	0.000112	0	-1E+10	1	-1E+10	1	-1E+10	1
4902624	12	C	10/19/2024	19:43	-128.323	47.366	0	1625.30	0	2.3390	0	34.5390	0	27.584	0	1605.500	0	-1e10	1	-1e10	1	-1E+10	1	-1e10	1	-1e10	1	-1E+10	1	-1E+10	1	-1E+10	1
4902624	12	C	10/19/2024	19:43	-128.323	47.366	0	1631.20	0	2.3311	0	34.5399	0	27.585	0	1611.306	0	96.2	4	29.3	4	-1E+10	1	0.0511	4	0.000147	0	-1E+10	1	-1E+10	1	-1E+10	1
4902624	12	C	10/19/2024	19:43	-128.323	47.366	0	1652.70	0	2.3023	0	34.5434	0	27.591	0	1632.461	0	101.2	4	30.7	4	-1E+10	1	0.0511	4	0.000203	0	-1E+10	1	-1E+10	1	-1E+10	1
4902624	12	C	10/19/2024	19:43	-128.323	47.366	0	1668.70	0	2.2808	0	34.5459	0	27.594	0	1648.203	0	106.0	4	32.2	4	-1E+10	1	0.0511	4	0.000134	0	-1E+10	1	-1E+10	1	-1E+10	1
4902624	12	C	10/19/2024	19:43	-128.323	47.366	0	1675.30	0	2.2720	0	34.5470	0	27.596	0	1654.696	0	-1e10	1	-1e10	1	-1E+10	1	-1e10	1	-1e10	1	-1E+10	1	-1E+10	1	-1E+10	1
4902624	12	C	10/19/2024	19:43	-128.323	47.366	0	1685.30	0	2.2607	0	34.5486	0	27.598	0	1664.534	0	108.6	4	32.9	4	-1E+10	1	0.0514	4	0.000145	0	-1E+10	1	-1E+10	1	-1E+10	1
4902624	12	C	10/19/2024	19:43	-128.323	47.366	0	1702.90	0	2.2408	0	34.5515	0	27.602	0	1681.847	0	113.3	4	34.3	4	-1E+10	1	0.0652	4	0.000133	0	-1E+10	1	-1E+10	1	-1E+10	1
4902624	12	C	10/19/2024	19:43	-128.323	47.366	0	1721.30	0	2.2201	0	34.5544	0	27.606	0	1699.946	0	115.5	4	35.0	4	-1E+10	1	0.0441	4	0.000133	0	-1E+10	1	-1E+10	1	-1E+10	1
4902624	12	C	10/19/2024	19:43	-128.323	47.366	0	1724.90	0	2.2160	0	34.5550	0	27.607	0	1703.487	0	-1e10	1	-1e10	1	-1E+10	1	-1e10	1	-1e10	1	-1E+10	1	-1E+10	1	-1E+10	1
4902624	12	C	10/19/2024	19:43	-128.323	47.366	0	1740.40	0	2.1982	0	34.5575	0	27.611	0	1718.732	0	117.4	4	35.6	4	-1E+10	1	0.0583	4	0.000121	0	-1E+10	1	-1E+10	1	-1E+10	1
4902624	12	C	10/19/2024	19:43	-128.323	47.366	0	1760.00	0	2.1757	0	34.5606	0	27.615	0	1738.008	0	119.4	4	36.2	4	-1E+10	1	0.0511	4	0.000098	0	-1E+10	1	-1E+10	1	-1E+10	1
4902624	12	C	10/19/2024	19:43	-128.323	47.366	0	1775.40	0	2.1580	0	34.5630	0	27.619	0	1753.152	0	-1e10	1	-1e10	1	-1E+10	1	-1e10	1	-1e10	1	-1E+10	1	-1E+10	1	-1E+10	1
4902624	12	C	10/19/2024	19:43	-128.323	47.366	0	1780.40	0	2.1529	0	34.5638	0	27.620	0	1758.068	0	120.8	4	36.6	4	-1E+10	1	0.0512	4	0.000109	0	-1E+10	1	-1E+10	1	-1E+10	1
4902624	12	C	10/19/2024	19:43	-128.323	47.366	0	1801.50	0	2.1313	0	34.5672	0	27.624	0	1778.815	0	122.3	4	37.0	4	-1E+10	1	0.0582	4	0.000120	0	-1E+10	1	-1E+10	1	-1E+10	1
4902624	12	C	10/19/2024	19:43	-128.323	47.366	0	1823.10	0	2.1092	0	34.5707	0	27.629	0	1800.052	0	124.2	4	37.5	4	-1E+10	1	0.0513	4	0.000097	0	-1E+10	1	-1E+10	1	-1E+10	1
4902624	12	C	10/19/2024	19:43	-128.323	47.366	0	1825.20	0	2.1070	0	34.5710	0	27.629	0	1802.116	0	-1e10	1	-1e10	1	-1E+10	1	-1e10	1	-1e10	1	-1E+10	1	-1E+10	1	-1E+10	1
4902624	12	C	10/19/2024	19:43	-128.323	47.366	0	1845.40	0	2.0867	0	34.5742	0	27.634	0	1821.974	0	125.9	4	38.0	4	-1E+10	1	0.0582	4	0.000142	0	-1E+10	1	-1E+10	1	-1E+10	1
4902624	12	C	10/19/2024	19:43	-128.323	47.366	0	1868.00	0	2.0639	0	34.5779	0	27.638	0	1844.190	0	127.2	4	38.4	4	-1E+10	1	0.0508	4	0.000615	0	-1E+10	1	-1E+10	1	-1E+10	1
4902624	12	C	10/19/2024	19:43	-128.323	47.366	0	1874.90	0	2.0570	0	34.5790	0	27.640	0	1850.972	0	-1e10	1	-1e10	1	-1E+10	1	-1e10	1	-1e10	1	-1E+10	1	-1E+10	1	-1E+10	1
4902624	12	C	10/19/2024	19:43	-128.323	47.366	0	1891.20	0	2.0417	0	34.5813	0	27.643	0	1866.992	0	127.5	4	38.5	4	-1E+10	1	0.0367	4	0.000119	0	-1E+10	1	-1E+10	1	-1E+10	1
4902624	12	C	10/19/2024	19:43	-128.323	47.366	0	1909.70	0	2.0244	0	34.5839	0	27.647	0	1885.173	0	125.8	4	37.9	4	-1E+10	1	0.0441	4	0.000119	0	-1E+10	1	-1E+10	1	-1E+10	1
4902624	12	C	10/19/2024	19:43	-128.323	47.366	0	1925.10	0	2.0100	0	34.5860	0	27.649	0	1900.307	0	-1e10	1	-1e10	1	-1E+10	1	-1e10	1	-1e10	1	-1E+10	1	-1E+10	1	-1E+10	1
4902624	12	C	10/19/2024	19:43	-128.323	47.366	0	1926.10	0	2.0092	0	34.5861	0	27.650	0	1901.289	0	122.9	4	37.1	4	-1E+10	1	0.0582	4	0.000129	0	-1E+10	1	-1E+10	1	-1E+10	1
4902624	12	C	10/19/2024	19:43	-128.323	47.366	0	1942.80	0	1.9957	0	34.5886	0	27.653	0	1917.699	0	124.8	4	37.6	4	-1E+10	1	0.0511	4	0.000107	0	-1E+10	1	-1E+10	1	-1E+10	1
4902624	12	C	10/19/2024	19:43	-128.323	47.366	0	1960.40	0	1.9815	0	34.5912	0	27.656	0	1934.992	0	125.1	4	37.7	4	-1E+10	1	0.0509	4	0.000152	0	-1E+10	1	-1E+10	1	-1E+10	1
4902624	12	C	10/19/2024	19:43	-128.323	47.366	0	1972.20	0	1.9720	0	34.5930	0	27.658	0	1946.585	0	-1e10	1	-1e10	1	-1E+10	1	-1e10	1	-1e10	1	-1E+10	1	-1E+10	1	-1E+10	1
4902624	12	C	10/19/2024	19:43	-128.323	47.366	0	1978.80	0	-1e10	1	-1e10	1	-1e10	1	1953.069	0	130.1	4	-1e10	4	-1E+10	1	0.0438	4	0.000130	0	-1E+10	1	-1E+10	1	-1E+10	1
4902624	12	C	10/19/2024	19:43	-128.323	47.366	0	1994.30	0	-1e10	1	-1e10	1	-1e10	1	1968.296	0	123.3	4	-1e10	4	-1E+10	1	0.0438	4	0.000130	0	-1E+10	1	-1E+10	1	-1E+10	1
4902624	12	C	10/19/2024	19:43	-128.323	47.366	0																										
4902624	13	C	10/29/2024	14:35	-128.174	47.222	0	0.30	0	13.8476	8	33.8262	8	25.312	0	0.298	0	232.0	4	90.8	4	-1E+10	1	0.9636	4	0.001180	0	-1E+10	1	-1E+10	1	-1E+10	1
4902624	13	C	10/29/2024	14:35	-128.174	47.222	0	0.40	0	13.8870	8	33.7690	8	25.260	0	0.397	0	233.2	4	91.3	4	-1E+10	1	0.9855	4	0.001298	0	-1E+10	1	-1E+10	1	-1E+10	1
4902624	13	C	10/29/2024	14:35	-128.174	47.222	0	0.90	0	13.9275	8	33.8067	8	25.281	0	0.893	0	-1e10	1	-1e10	1	-1E+10	1	0.9271	4	0.001086	0	-1E+10	1	-1E+10	1	-1E+10	1
4902624	13	C	10/29/2024	14:35	-128.174	47.222	0	1.00	0	13.9355	8	33.8143	8	25.285	0	0.992	0	231.5	4	90.7	4	-1E+10	1	0.9782	4	0.001157	0	-1E+10	1	-1E+10	1	-1E+10	1
4902624	13	C	10/29/2024	14:35	-128.174	47.222	0	1.20	0	13.9517	8	33.8294	8	25.293	0	1.190	0	-1e10	1	-1e10	1	-1E+10	1	0.9636	4	0.001145	0	-1E+10	1	-1E+10	1	-1E+10	1
4902624	13	C	10/29/2024	14:35	-128.174	47.222	0	1.50	0	13.9760	0	33.8520	0	25.306	0	1.488	0	-1e10	1	-1e10	1	-1E+10	1	0.9782	4	0.001157	0	-1E+10	1	-1E+10	1	-1E+10	1
4902624	13	C	10/29/2024	14:35	-128.174	47.222	0	1.90	0	13.9756	0	33.8511	0	25.305	0	1.884	0	231.5	4	90.8	4	-1E+10	1	0.9709	4	0.001163	0	-1E+10	1	-1E+10	1	-1E+10	1
4902624	13	C	10/29/2024	14:35	-128.174	47.222	0	2.10	0	13.9753	0	33.8507	0	25.305	0	2.083	0	-1e10	1	-1e10	1	-1E+10	1	0.9782	4	0.001192	0	-1E+10	1	-1E+10	1	-1E+10	1
4902624	13	C	10/29/2024	14:35	-128.174	47.222	0	2.30	0	13.9751	0	33.8502	0	25.305	0	2.281	0	-1e10	1	-1e10	1	-1E+10	1	0.9855	4	0.001168	0	-1E+10	1	-1E+10	1	-1E+10	1
4902624	13	C	10/29/2024	14:35	-128.174	47.222	0	2.40	0	13.9750	0	33.8500	0	25.304	0	2.380	0	-1e10	1	-1e10	1	-1E+10	1	-1e10	1	-1e10	1	-1E+10	1	-1E+10	1	-1E+10	1
4902624	13	C	10/29/2024	14:35	-128.174	47.222	0	2.60	0	13.9748	0	33.8487	0	25.303	0	2.578	0	-1e10	1	-1e10	1	-1E+10	1	0.9782	4	0.001180	0	-1E+10	1	-1E+10	1	-1E+10	1
4902624	13	C	10/29/2024	14:35	-128.174	47.222	0	2.80	0	13.9746	0	33.8475	0	25.303	0	2.777	0	-1e10	1	-1e10	1	-1E+10	1	1.0001	4	0.001227	0	-1E+10	1	-1E+10	1	-1E+10	1
4902624	13	C	10/29/2024	14:35	-128.174	47.222	0	3.00	0	13.9745	0	33.8462	0	25.302	0	2.975	0	231.5	4	90.8	4	-1E+10	1	0.9636	4	0.001168	0	-1E+10	1	-1E+10	1	-1E+10	1
4902624	13	C	10/29/2024	14:35	-128.174	47.222	0	3.20	0	13.9743	0	33.8449	0	25.301	0	3.173	0	-1e10	1	-1e10	1	-1E+10	1	0.9563	4	0.001168	0	-1E+10	1	-1E+10	1	-1E+10	1
4902624	13	C	10/29/2024	14:35	-128.174	47.222	0	3.50	0	13.9740	0	33.8430	0	25.299	0	3.471	0	-1e10	1	-1e10	1	-1E+10	1	0.9636	4	0.001240	0	-1E+10	1	-1E+10	1	-1E+10	1
4902624	13	C	10/29/2024	14:35	-128.174	47.222	0	3.70	0	13.9738	0	33.8415	0	25.298	0	3.669	0	-1e10	1	-1e10	1	-1E+10	1	0.9490	4	0.001133	0	-1E+10	1	-1E+10	1	-1E+10	1
4902624	13	C	10/29/2024	14:35	-128.174	47.222	0	4.20	0	13.9734	0	33.8379	0	25.295	0	4.165	0	231.3	4	90.7	4	-1E+10	1	0.9782	4	0.001110	0	-1E+10	1	-1E+10	1	-1E+10	1
4902624	13	C	10/29/2024	14:35	-128.174	47.222	0	4.40	0	13.9732	0	33.8365	0	25.294	0	4.363	0	-1e10	1	-1e10	1	-1E+10	1	0.9636	4	0.001121	0	-1E+10	1	-1E+10	1	-1E+10	1
4902624	13	C	10/29/2024	14:35	-128.174	47.222	0	4.60	0	13.9730	0	33.8350	0	25.293	0	4.562	0	-1e10	1	-1e10	1	-1E+10	1	-1e10	1	-1e10	1	-1E+10	1	-1E+10	1	-1E+10	1
4902624	13	C	10/29/2024	14:35	-128.174	47.222	0	4.70	0	13.9728	0	33.8340	0	25.293	0	4.661	0	-1e10	1	-1e10	1	-1E+10	1	0.9563	4	0.001168	0	-1E+10	1	-1E+10	1	-1E+10	1
4902624	13	C	10/29/2024	14:35	-128.174	47.222	0	4.90	0	13.9723	0	33.8320	0	25.291	0	4.859	0	-1e10	1	-1e10	1	-1E+10	1	0.9782	4	0.001239	0	-1E+10	1	-1E+10	1	-1E+10	1
4902624	13	C	10/29/2024	14:35	-128.174	47.222	0	5.20	0	13.9717	0	33.8290	0	25.289	0	5.157	0	-1e10	1	-1e10	1	-1E+10	1	0.9417	4	0.001133	0	-1E+10	1	-1E+10	1	-1E+10	1
4902624	13	C	10/29/2024	14:35	-128.174	47.222	0	5.40	0	13.9712	0	33.8270	0	25.288	0	5.355	0	231.3	4	90.7	4	-1E+10	1	0.9855	4	0.001215	0	-1E+10	1	-1E+10	1	-1E+10	1
4902624	13	C	10/29/2024	14:35	-128.174	47.222	0	5.50	0	13.9710	0	33.8260	0	25.287	0	5.454	0	-1e10	1	-1e10	1	-1E+10	1	-1e10	1	-1e10	1	-1E+10	1	-1E+10	1	-1E+10	1
4902624	13	C	10/29/2024	14:35	-128.174	47.222	0	5.60	0	13.9709	0	33.8250	0	25.286	0	5.553	0	-1e10	1	-1e10	1	-1E+10	1	0.9563	4	0.001192	0	-1E+10	1	-1E+10	1	-1E+10	1
4902624	13	C	10/29/2024	14:35	-128.174	47.222	0	6.10	0	13.9703	0	33.8200	0	25.282	0	6.049	0	-1e10	1	-1e10	1	-1E+10	1	0.9782	4	0.001157	0	-1E+10	1	-1E+10	1	-1E+10	1
4902624	13	C	10/29/2024	14:35	-128.174	47.222	0	6.30	0	13.9701	0	33.8180	0	25.281	0	6.247	0	-1e10	1	-1e10	1	-1E+10	1	0.9782	4	0.001145	0	-1E+10	1	-1E+10	1	-1E+10	1
4902624	13	C	10/29/2024	14:35	-128.174	47.222	0	6.40	0	13.9700	0	33.8170	0	25.280	0	6.347	0	-1e10	1	-1e10	1	-1E+10	1	-1e10	1	-1e10	1	-1E+10	1	-1E+10	1	-1E+10	1
4902624	13	C	10/29/2024	14:35	-128.174	47.222	0	6.50	0	13.9699	0	33.8160	0	25.279	0	6.446	0	231.3	4	90.7	4	-1E+10	1	0.9709	4	0.001309	0	-1E+10	1	-1E+10	1	-1E+10	1
4902624	13	C	10/29/2024	14:35	-128.174	47.222	0	6.80	0	13.9696	0	33.8130	0	25.277	0	6.743	0	-1e10	1	-1e10	1	-1E+10	1	0.9782	4	0.001192	0	-1E+10	1	-1E+10	1	-1E+10	1
4902624	13	C	10/29/2024	14:35	-128.174	47.222	0	7.00	0	13.9695	0	33.8110	0	25.276	0	6.942	0	-1e10	1	-1e10	1	-1E+10	1	0.9636	4	0.001204	0	-1E+10	1	-1E+10	1	-1E+10	1
4902624	13	C	10/29/2024	14:35	-128.174	47.222	0	7.20	0	13.9693	0	33.8090	0	25.274	0	7.140	0	-1e10	1	-1e10	1	-1E+10	1	1.0220	4	0.001262	0	-1E+10	1	-1E+10	1	-1E+10	1
4902624	13	C	10/29/2024	14:35	-128.174	47.222	0	7.50	0	13.9690	0	33.8060	0	25.272	0	7.437	0	-1e10	1	-1e10	1	-1E+10	1	0.9782	4	0.001134	0	-1E+10	1	-1E+10	1	-1E+10	1
4902624	13	C	10/29/2024	14:35	-128.174	47.222	0	7.80	0	13.9687	0	33.8022	0	25.269	0	7.735	0	231.2	4	90.7	4	-1E+10	1	1.0220	4	0.001192	0	-1E+10	1	-1E+10	1	-1E+10	1
4902624	13	C	10/29/2024	14:35	-128.174	47.222	0	8.20	0	13.9684	0	33.7971	0	25.265	0	8.132	0	-1e10	1	-1e10	1	-1E+10	1	0.9563	4	0.001133	0	-1E+10	1	-1E+10	1	-1E+10	1
4902624	13	C	10/29/2024	14:35	-128.174	47.222	0	8.50	0	13.9681	0	33.7933	0	25.262	0	8.429	0	-1e10	1	-1e10	1	-1E+10	1	0.9855	4	0.001250	0	-1E+10	1	-1E+10	1	-1E+10	1
4902624	13	C	10/29/2024	14:35	-128.174	47.222	0	8.60	0	13.9680	0	33.7920	0	25.261	0	8.528	0	-1e10	1	-1e10	1	-1E+10	1	-1e10	1	-1e10	1	-1E+10	1	-1E+10	1	-1E+10	1
4902624	13	C	10/29/2024	14:35	-128.174	47.222	0	8.70	0	13.9679	0	33.7906	0	25.260	0	8.627	0	-1e10	1	-1e10	1	-1E+10	1	0.9709	4	0.001133	0	-1E+10	1	-1E+10	1	-1E+10	1
4902624	13	C	10/29/2024	14:35	-128.174	47.222	0	8.90	0	13.9677	0	33.7877	0	25.258	0	8.826	0	231.2	4	90.6	4	-1E+10	1	0.9782	4	0.001192	0	-1E+10	1	-1E+10	1	-1E+10	1
4902624	13	C	10/29/2024	14:35	-128.174	47.222	0	9.20	0	13.9673	0	33.7833	0	25.255	0	9.123	0	-1e10	1	-1e10	1	-1E+10	1	1.0001	4	0.001262	0	-1E+10	1	-1E+10	1	-1E+10	1
4902624	13	C	10/29/2024	14:35	-128.174	47.222	0	9.40	0	13.9671	0	33.7804	0	25.253	0	9.322	0	-1e10	1	-1e10	1	-1E+10	1	0.9709	4	0.001204	0	-1E+10	1	-1E+10	1	-1E+10	1
4902624	13	C	10/29/2024	14:35	-128.174	47.222	0	9.50	0	13.9670	0	33.7790	0	25.251	0	9.421	0	-1e10	1	-1e10	1	-1E+10	1	-1e10	1	-1e10	1	-1E+10	1	-1E+10	1	-1E+10	1
4902624	13	C	10/29/2024	14:35	-128.174	47.222	0	9.60	0	13.9668	0	33.7777	0	25.250	0	9.520	0	-1e10	1	-1e10	1	-1E+10	1	1.0220	4	0.001344	0	-1E+10	1	-1E+10	1	-1E+10	1
4902624	13	C	10/29/2024	14:35	-128.174	47.222	0	10.10	0	13.9657	0	33.7713	0	25.246	0	10.016	0	231.2	4	90.6	4	-1E+10	1	0.9490	4	0.001133	0	-1E+10	1	-1E+10	1	-1E+10	1
4902624	13	C	10/29/2024	14:35	-128.174	47.222	0	10.90	0	13.9640	0	33.7610	0	25.238	0	10.809	0	-1e10	1	-1e10	1	-1E+10	1	-1e10	1	-1e10	1	-1E+10	1	-1E+10	1	-1E+10	1
4902624	13	C	10/29/2024	14:35	-128.174	47.222	0	11.30	0	13.9632	0	33.7554	0	25.234	0	11.206	0	231.1	4	90.6	4	-1E+10	1	1.0074	4	0.001086	0	-1E+10	1	-1E+10	1	-1E+10	1
4902624	13	C	10/29/2024	14:35	-128.174	47.222	0	12.50	0	13.9608	0	33.7386	0	25.222	0	12.396	0	231.0	4	90.5	4	-1E+10	1	0.9840	4	0.001114	0	-1E+10	1	-1E+10	1	-1E+10	1
4902624	13	C	10/29/2024	14:35	-128.174	47.222	0	12.90	0	13.9600	0	33.7330	0	25.217	0	12.792	0	-1e10	1	-1e10	1	-1E+10	1	-1e10	1	-1e10	1	-1E+10	1	-1E+10	1	-1E+10	1
4902624	13	C	10/29/2024	14:35	-128.174	47.222	0	13.80	0	13.9574	0	33.7193	0	25.207	0	13.685	0	231.0	4	90.5	4	-1E+10	1	0.9733	4	0.001098	0	-1E+10	1	-1E+10	1	-1E+10	1
4902624	13	C	10/29/2024	14:35	-128.174	47.222	0	15.00	0	13.9540	0	33.7010	0	25.194	0	14.875	0	-1e10	1	-1e10	1	-1E+10	1	-1e10	1	-1e10	1	-1E+10	1	-1E+10	1	-1E+10	1
4902624	13	C	10/29/2024	14:35	-128.174	47.222	0	15.10	0	13.9537	0	33.6993	0	25.193	0	14.974	0	230.9	4	90.5	4	-1E+10	1	0.9799	4	0.001122	0	-1E+10	1	-1E+10	1	-1E+10	1
4902624	13	C	10/29/2024	14:35	-128.174	47.222	0	16.40	0	13.9496	0	33.6767	0	25.176	0	16.263	0	230.9	4	90.4	4	-1E+10	1	1.0220	4	0.001168	0	-1E+10	1	-1E+10	1	-1E+10	1
4902624	13	C	10/29/2024	14:35	-128.174	47.222	0	16.90	0	13.9480	0	33.6680	0	25.170	0	16.759	0	-1e10	1	-1e10	1	-1E+10	1	-1e10	1	-1e10	1	-1E+10	1	-1E+10	1	-1E+10	1
4902624	13	C	10/29/2024	14:35	-128.174	47.222	0	17.70	0	13.9457	0	33.6535	0	25.159	0	17.552	0	230.8	4	90.4	4	-1E+10	1	1.0448	4	0.001177	0	-1E+10	1	-1E+10	1	-1E+10	1
4902624	13	C	10/29/2024	14:35	-128.174	47.222	0	19.00	0	13.9420	0	33.6300	0	25.142	0	18.841	0	-1e10	1	-1e10	1	-1E+10	1	-1e10	1	-1e10	1	-1E+10	1	-1E+10	1	-1E+10	1
4902624	13	C	10/29/2024	14:35	-128.174	47.222	0	19.10	0	13.9416	0	33.6281	0	25.140	0	18.940	0	230.7	4	90.3	4	-1E+10	1	1.0103	4	0.001147	0	-1E+10	1	-1E+10	1	-1E+10	1
4902624	13	C	10/29/2024	14:35	-128.174	47.222	0	20.50	0	13.9360	0	33.6007	0	25.120	0	20.328	0	230.6	4	90.2	4	-1E+10	1	0.9911	4	0.001144	0	-1E+10	1	-1E+10	1	-1E+10	1
4902624	13	C	10/29/2024	14:35	-128.174	47.222	0	21.00	0	13.9340	0	33.5910	0	25.113	0	20.824	0	-1e10	1	-1e10	1	-1E+10	1	-1e10	1	-1e10	1	-1E+10	1	-1E+10	1	-1E+10	1
4902624	13	C	10/29/2024	14:35	-128.174	47.222	0	22.00	0	13.9287	0	33.5710	0	25.099	0	21.816	0	230.5	4	90.2	4	-1E+10	1	0.9782	4	0.001051	0	-1E+10	1	-1E+10	1	-1E+10	1
4902624	13	C	10/29/2024	14:35	-128.174	47.222	0	22.90	0	13.9240	0	33.5530	0	25.086	0	22.708	0	-1e10	1	-1e10	1	-1E+10	1	-1e10	1	-1e10	1	-1E+10	1	-1E+10	1	-1E+10	1
4902624	13	C	10/29/2024	14:35	-128.174	47.222	0	23.50	0	13.9209	8	33.5399	8	25.077	0	23.303	0	230.5	4	90.1	4	-1E+10	1	0.9965	4	0.001041	0	-1E+10	1	-1E+10	1	-1E+10	1
4902624	13	C	10/29/2024	14:35	-128.174	47.222	0	25.00	0	13.9130	8	33.5070	8	25.053	0	24.790	0	231.4	4	90.4	4	-1E+10	1	1.0235	4	0.001142	0	-1E+10	1	-1E+10	1	-1E+10	1
4902624	13	C	10/29/2024	14:35	-128.174	47.222	0	26.50	0	13.9037	8	33.4706	8	25.027	0	26.278	0	230.3	4	90.0	4	-1E+10	1	1.0828	4	0.001130	0	-1E+10	1	-1E+10	1	-1E+10	1
4902624	13	C	10/29/2024	14:35	-128.174	47.222	0	27.10	0	13.9000	8	33.4560	8	25.016	0	26.873	0	-1e10	1	-1e10	1	-1E+10	1	-1e10	1	-1e10	1	-1E+10	1	-1E+10	1	-1E+10	1
4902624	13	C	10/29/2024	14:35	-128.174	47.222	0	28.00	0	13.8941	8	33.4326	8	24.999	0	27.765	0	230.1	4	89.9	4	-1E+10	1	1.0731	4	0.001110	0	-1E+10	1	-1E+10	1	-1E+10	1
4902624	13	C	10/29/2024	14:35	-128.174	47.222	0	29.10	0	13.8870	8	33.4040	8	24.979	0	28.856	0	-1e10	1	-1e10	1	-1E+10	1	-1e10	1	-1e10	1	-1E+10	1	-1E+10	1	-1E+10	1
4902624	13	C	10/29/2024	14:35	-128.174	47.222	0	29.50	0	13.8838	8	33.3924	8	24.971	0	29.252	0	230.0	4	89.8	4	-1E+10	1	1.0162	4	0.001119	0	-1E+10	1	-1E+10	1	-1E+10	1
4902624	13	C	10/29/2024	14:35	-128.174	47.222	0	31.10	0	13.8710	8	33.3460	8	24.937	0	30.839	0	231.2	4	90.2	4	-1E+10	1	0.9882	4	0.001120	0	-1E+10	1	-1E+10	1	-1E+10	1
4902624	13	C	10/29/2024	14:35	-128.174	47.222	0	32.60	0	13.8552	8	33.2971	8	24.903	0	32.326	0	229.7	4	89.6	4	-1E+10	1	0.9954	4	0.001108	0	-1E+10	1	-1E+10	1	-1E+10	1
4902624	13	C	10/29/2024	14:35	-128.174	47.222	0	33.00	0	13.8510	8	33.2840	8	24.894	0	32.723	0	-1e10	1	-1e10	1	-1E+10	1	-1e10	1	-1e10	1	-1E+10	1	-1E+10	1	-1E+10	1
4902624	13	C	10/29/2024	14:35	-128.174	47.222	0	34.00	0	13.8389	8	33.2482	8	24.868	0	33.714	0	229.5	4	89.4	4	-1E+10	1	1.0074	4	0.001156	0	-1E+10	1	-1E+10	1	-1E+10	1
4902624	13	C	10/29/2024	14:35	-128.174	47.222	0	34.90	0	13.8280	8	33.2160	8	24.846	0	34.607	0	-1e10	1	-1e10	1	-1E+10	1	-1e10	1	-1e10	1	-1E+10	1	-1E+10	1	-1E+10	1
4902624	13	C	10/29/2024	14:35	-128.174	47.222	0	35.50	0	13.8211	8	33.1926	8	24.829	0	35.202	0	229.3	4	89.3	4	-1E+10	1	1.1096	4	0.001086	0	-1E+10	1	-1E+10	1	-1E+10	1
4902624	13	C	10/29/2024	14:35	-128.174	47.222	0	37.00	0	13.8040	8	33.1340	8	24.787	0	36.689	0	230.7	4	89.7	4	-1E+10	1	1.1218	4	0.001076	0	-1E+10	1	-1E+10	1	-1E+10	1
4902624	13	C	10/29/2024	14:35	-128.174	47.222	0	38.50	0	13.7795	8	33.0693	8	24.743	0	38.176	0	228.8	4	88.9	4	-1E+10	1	1.0755	4	0.001098	0	-1E+10	1	-1E+10	1	-1E+10	1
4902624	13	C	10/29/2024	14:35	-128.174	47.222	0	38.90	0	13.7730	8	33.0520	8	24.731	0	38.573	0	-1e10	1	-1e10	1	-1E+10	1	-1e10	1	-1e10	1	-1E+10	1	-1E+10	1	-1E+10	1
4902624	13	C	10/29/2024	14:35	-128.174	47.222	0	40.00	0	13.7473	8	33.0080	8	24.702	0	39.663	0	228.5	4	88.7	4	-1E+10	1	1.1651	4	0.001349	0	-1E+10	1	-1E+10	1	-1E+10	1
4902624	13	C	10/29/2024	14:35	-128.174	47.222	0	41.00	0	13.7240	8	32.9680	8	24.676	0	40.655	0	-1e10	1	-1e10	1	-1E+10	1	-1e10	1	-1e10	1	-1E+10	1	-1E+10	1	-1E+10	1
4902624	13	C	10/29/2024	14:35	-128.174	47.222	0	41.40	0	13.7092	8	32.9462	8	24.662	0	41.051	0	228.2	4	88.5	4	-1E+10	1	1.1982	4	0.001321	0	-1E+10	1	-1E+10	1	-1E+10	1
4902624	13	C	10/29/2024	14:35	-128.174	47.222	0	42.60	0	13.6648	8	32.8808	8	24.620	0	42.241	0	227.8	4	88.2	4	-1E+10	1	1.1186	4	0.001120	0	-1E+10	1	-1E+10	1	-1E+10	1
4902624	13	C	10/29/2024	14:35	-128.174	47.222	0	43.00	0	13.6500	8	32.8590	8	24.607	0	42.638	0	-1e10	1	-1e10	1	-1E+10	1	-1e10	1	-1e10	1	-1E+10	1	-1E+10	1	-1E+10	1
4902624	13	C	10/29/2024	14:35	-128.174	47.222	0	43.70	0	13.6084	8	32.8096	8	24.577	0	43.332	0	227.5	4	87.9	4	-1E+10	1	1.0534	4	0.001070	0	-1E+10	1	-1E+10	1	-1E+10	1
4902624	13	C	10/29/2024	14:35	-128.174	47.222	0	44.60	0	13.5548	8	32.7462	8	24.539	0	44.224	0	227.2	4	87.7	4	-1E+10	1	1.0558	4	0.001099	0	-1E+10	1	-1E+10	1	-1E+10	1
4902624	13	C	10/29/2024	14:35	-128.174	47.222	0	44.90	0	13.5370	8	32.7250	8	24.526	0	44.522	0	-1e10	1	-1e10	1	-1E+10	1	-1e10	1	-1e10	1	-1E+10	1	-1E+10	1	-1E+10	1
4902624	13	C	10/29/2024	14:35	-128.174	47.222	0	45.50	0	13.4713	8	32.6870	8	24.510	0	45.116	0	226.8	4	87.4	4	-1E+10	1	1.0439	4	0.001156	0	-1E+10	1	-1E+10	1	-1E+10	1
4902624	13	C	10/29/2024	14:35	-128.174	47.222	0	46.30	0	13.3837	8	32.6363	8	24.488	0	45.910	0	226.3	4	87.0	4	-1E+10	1	1.1549	4	0.001147	0	-1E+10	1	-1E+10	1	-1E+10	1
4902624	13	C	10/29/2024	14:35	-128.174	47.222	0	47.00	0	13.3070	8	32.5920	8	24.469	0	46.604	0	-1e10	1	-1e10	1	-1E+10	1	-1e10	1	-1e10	1	-1E+10	1	-1E+10	1	-1E+10	1
4902624	13	C	10/29/2024	14:35	-128.174	47.222	0	47.10	0	13.2793	8	32.5964	8	24.478	0	46.703	0	226.0	4	86.7	4	-1E+10	1	1.0387	4	0.001104	0	-1E+10	1	-1E+10	1	-1E+10	1
4902624	13	C	10/29/2024	14:35	-128.174	47.222	0	47.80	0	13.0853	8	32.6274	8	24.541	0	47.397	0	225.6	4	86.2	4	-1E+10	1	1.0585	4	0.001106	0	-1E+10	1	-1E+10	1	-1E+10	1
4902624	13	C	10/29/2024	14:35	-128.174	47.222	0	48.50	0	12.8913	8	32.6584	8	24.603	0	48.091	0	225.3	4	85.8	4	-1E+10	1	1.0178	4	0.001083	0	-1E+10	1	-1E+10	1	-1E+10	1
4902624	13	C	10/29/2024	14:35	-128.174	47.222	0	49.10	0	12.7250	0	32.6850	8	24.655	0	48.686	0	-1e10	1	-1e10	1	-1E+10	1	-1e10	1	-1e10	1	-1E+10	1	-1E+10	1	-1E+10	1
4902624	13	C	10/29/2024	14:35	-128.174	47.222	0	49.20	0	12.6949	0	32.6846	8	24.661	0	48.785	0	225.2	4	85.4	4	-1E+10	1	0.8166	4	0.001096	0	-1E+10	1	-1E+10	1	-1E+10	1
4902624	13	C	10/29/2024	14:35	-128.174	47.222	0	49.90	0	12.4842	0	32.6818	8	24.699	0	49.479	0	225.6	4	85.2	4	-1E+10	1	0.6643	4	0.001109	0	-1E+10	1	-1E+10	1	-1E+10	1
4902624	13	C	10/29/2024	14:35	-128.174	47.222	0	50.50	0	12.3036	0	32.6794	8	24.732	0	50.074	0	225.7	4	84.9	4	-1E+10	1	0.6069	4	0.001141	0	-1E+10	1	-1E+10	1	-1E+10	1
4902624	13	C	10/29/2024	14:35	-128.174	47.222	0	51.10	0	12.1230	0	32.6770	8	24.764	0	50.669	0	227.3	4	85.2	4	-1E+10	1	0.5639	4	0.001177	0	-1E+10	1	-1E+10	1	-1E+10	1
4902624	13	C	10/29/2024	14:35	-128.174	47.222	0	51.50	0	11.8251	0	32.7164	8	24.850	0	51.065	0	225.9	4	84.1	4	-1E+10	1	0.5986	4	0.001223	0	-1E+10	1	-1E+10	1	-1E+10	1
4902624	13	C	10/29/2024	14:35	-128.174	47.222	0	51.70	0	11.6762	0	32.7360	8	24.893	0	51.263	0	226.3	4	84.0	4	-1E+10	1	0.6132	4	0.001755	0	-1E+10	1	-1E+10	1	-1E+10	1
4902624	13	C	10/29/2024	14:35	-128.174	47.222	0	51.80	0	11.6017	0	32.7459	8	24.914	0	51.363	0	226.8	4	84.1	4	-1E+10	1	0.4599	4	0.001262	0	-1E+10	1	-1E+10	1	-1E+10	1
4902624	13	C	10/29/2024	14:35	-128.174	47.222	0	51.90	0	11.5272	0	32.7557	8	24.935	0	51.462	0	227.4	4	84.2	4	-1E+10	1	0.5584	4	0.001115	0	-1E+10	1	-1E+10	1	-1E+10	1
4902624	13	C	10/29/2024	14:35	-128.174	47.222	0	52.00	0	11.4527	0	32.7656	8	24.957	0	51.561	0	227.7	4	84.2	4	-1E+10	1	0.6570	4	0.000969	0	-1E+10	1	-1E+10	1	-1E+10	1
4902624	13	C	10/29/2024	14:35	-128.174	47.222	0	52.30	0	11.2293	0	32.7951	8	25.020	0	51.858	0	227.6	4	83.7	4	-1E+10	1	0.4891	4	0.000769	0	-1E+10	1	-1E+10	1	-1E+10	1
4902624	13	C	10/29/2024	14:35	-128.174	47.222	0	52.60	0	11.0059	0	32.8246	8	25.082	0	52.156	0	227.8	4	83.5	4	-1E+10	1	0.4721	4	0.000879	0	-1E+10	1	-1E+10	1	-1E+10	1
4902624	13	C	10/29/2024	14:35	-128.174	47.222	0	52.90	0	10.7825	0	32.8542	8	25.145	0	52.453	0	229.6	4	83.7	4	-1E+10	1	0.4526	4	0.000859	0	-1E+10	1	-1E+10	1	-1E+10	1
4902624	13	C	10/29/2024	14:35	-128.174	47.222	0	53.00	0	10.7080	0	32.8640	0	25.165	0	52.552	0	-1e10	1	-1e10	1	-1E+10	1	-1e10	1	-1e10	1	-1E+10	1	-1E+10	1	-1E+10	1
4902624	13	C	10/29/2024	14:35	-128.174	47.222	0	53.40	0	10.5531	0	32.9404	0	25.252	0	52.949	0	230.7	4	83.8	4	-1E+10	1	0.3480	4	0.000638	0	-1E+10	1	-1E+10	1	-1E+10	1
4902624	13	C	10/29/2024	14:35	-128.174	47.222	0	53.90	0	10.3594	0	33.0359	0	25.359	0	53.445	0	232.1	4	84.0	4	-1E+10	1	0.2628	4	0.000511	0	-1E+10	1	-1E+10	1	-1E+10	1
4902624	13	C	10/29/2024	14:35	-128.174	47.222	0	54.60	0	10.0882	0	33.1697	0	25.510	0	54.139	0	233.3	4	84.0	4	-1E+10	1	0.2482	4	0.000499	0	-1E+10	1	-1E+10	1	-1E+10	1
4902624	13	C	10/29/2024	14:35	-128.174	47.222	0	54.90	0	9.9720	0	33.2270	0	25.574	0	54.436	0	-1e10	1	-1e10	1	-1E+10	1	-1e10	1	-1e10	1	-1E+10	1	-1E+10	1	-1E+10	1
4902624	13	C	10/29/2024	14:35	-128.174	47.222	0	55.30	0	9.9172	0	33.2376	0	25.591	0	54.833	0	233.3	4	83.7	4	-1E+10	1	0.2290	4	0.000561	0	-1E+10	1	-1E+10	1	-1E+10	1
4902624	13	C	10/29/2024	14:35	-128.174	47.222	0	56.00	0	9.8213	0	33.2561	0	25.622	0	55.527	0	233.3	4	83.6	4	-1E+10	1	0.2214	4	0.000538	0	-1E+10	1	-1E+10	1	-1E+10	1
4902624	13	C	10/29/2024	14:35	-128.174	47.222	0	56.70	0	9.7254	0	33.2747	0	25.652	0	56.220	0	233.0	4	83.3	4	-1E+10	1	0.2273	4	0.000476	0	-1E+10	1	-1E+10	1	-1E+10	1
4902624	13	C	10/29/2024	14:35	-128.174	47.222	0	56.90	0	9.6980	0	33.2800	0	25.661	0	56.419	0	-1e10	1	-1e10	1	-1E+10	1	-1e10	1	-1e10	1	-1E+10	1	-1E+10	1	-1E+10	1
4902624	13	C	10/29/2024	14:35	-128.174	47.222	0	57.50	0	9.6251	0	33.2920	0	25.682	0	57.014	0	233.0	4	83.1	4	-1E+10	1	0.2133	4	0.000428	0	-1E+10	1	-1E+10	1	-1E+10	1
4902624	13	C	10/29/2024	14:35	-128.174	47.222	0	58.20	0	9.5400	0	33.3060	0	25.707	0	57.708	0	232.8	4	82.9	4	-1E+10	1	0.2037	4	0.000427	0	-1E+10	1	-1E+10	1	-1E+10	1
4902624	13	C	10/29/2024	14:35	-128.174	47.222	0	58.90	0	9.4550	0	33.3200	0	25.732	0	58.402	0	-1e10	1	-1e10	1	-1E+10	1	-1e10	1	-1e10	1	-1E+10	1	-1E+10	1	-1E+10	1
4902624	13	C	10/29/2024	14:35	-128.174	47.222	0	59.00	0	9.4434	0	33.3235	0	25.736	0	58.501	0	232.2	4	82.6	4	-1E+10	1	0.2208	4	0.000503	0	-1E+10	1	-1E+10	1	-1E+10	1
4902624	13	C	10/29/2024	14:35	-128.174	47.222	0	59.90	0	9.3393	0	33.3552	0	25.778	0	59.393	0	231.6	4	82.2	4	-1E+10	1	0.2296	4	0.000802	0	-1E+10	1	-1E+10	1	-1E+10	1
4902624	13	C	10/29/2024	14:35	-128.174	47.222	0	60.80	0	9.2351	0	33.3870	0	25.819	0	60.285	0	230.7	4	81.7	4	-1E+10	1	0.2117	4	0.000476	0	-1E+10	1	-1E+10	1	-1E+10	1
4902624	13	C	10/29/2024	14:35	-128.174	47.222	0	61.00	0	9.2120	0	33.3940	0	25.828	0	60.484	0	-1e10	1	-1e10	1	-1E+10	1	-1e10	1	-1e10	1	-1E+10	1	-1E+10	1	-1E+10	1
4902624	13	C	10/29/2024	14:35	-128.174	47.222	0	61.70	0	9.1266	0	33.4356	0	25.875	0	61.177	0	229.4	4	81.1	4	-1E+10	1	0.2177	4	0.004200	0	-1E+10	1	-1E+10	1	-1E+10	1
4902624	13	C	10/29/2024	14:35	-128.174	47.222	0	62.70	0	9.0046	0	33.4952	0	25.940	0	62.169	0	228.0	4	80.4	4	-1E+10	1	0.1898	4	0.001367	0	-1E+10	1	-1E+10	1	-1E+10	1
4902624	13	C	10/29/2024	14:35	-128.174	47.222	0	63.00	0	8.9680	0	33.5130	0	25.960	0	62.466	0	-1e10	1	-1e10	1	-1E+10	1	-1e10	1	-1e10	1	-1E+10	1	-1E+10	1	-1E+10	1
4902624	13	C	10/29/2024	14:35	-128.174	47.222	0	63.70	0	8.8969	0	33.5528	0	26.003	0	63.160	0	226.4	4	79.7	4	-1E+10	1	0.1878	4	0.000469	0	-1E+10	1	-1E+10	1	-1E+10	1
4902624	13	C	10/29/2024	14:35	-128.174	47.222	0	64.70	0	8.7953	0	33.6096	0	26.063	0	64.152	0	224.4	4	78.8	4	-1E+10	1	0.1859	4	0.000457	0	-1E+10	1	-1E+10	1	-1E+10	1
4902624	13	C	10/29/2024	14:35	-128.174	47.222	0	64.90	0	8.7750	0	33.6210	0	26.075	0	64.350	0	-1e10	1	-1e10	1	-1E+10	1	-1e10	1	-1e10	1	-1E+10	1	-1E+10	1	-1E+10	1
4902624	13	C	10/29/2024	14:35	-128.174	47.222	0	65.70	0	8.7114	0	33.6594	0	26.115	0	65.143	0	221.8	4	77.8	4	-1E+10	1	0.1796	4	0.000413	0	-1E+10	1	-1E+10	1	-1E+10	1
4902624	13	C	10/29/2024	14:35	-128.174	47.222	0	66.80	0	8.6240	0	33.7122	0	26.170	0	66.233	0	219.0	4	76.7	4	-1E+10	1	0.1864	4	0.000415	0	-1E+10	1	-1E+10	1	-1E+10	1
4902624	13	C	10/29/2024	14:35	-128.174	47.222	0	66.90	0	8.6160	0	33.7170	0	26.175	0	66.333	0	-1e10	1	-1e10	1	-1E+10	1	-1e10	1	-1e10	1	-1E+10	1	-1E+10	1	-1E+10	1
4902624	13	C	10/29/2024	14:35	-128.174	47.222	0	67.80	0	8.5761	0	33.7371	0	26.197	0	67.225	0	216.0	4	75.6	4	-1E+10	1	0.1988	4	0.000470	0	-1E+10	1	-1E+10	1	-1E+10	1
4902624	13	C	10/29/2024	14:35	-128.174	47.222	0	68.90	0	8.5274	0	33.7618	0	26.224	0	68.315	0	212.7	4	74.3	4	-1E+10	1	0.1679	4	0.000370	0	-1E+10	1	-1E+10	1	-1E+10	1
4902624	13	C	10/29/2024	14:35	-128.174	47.222	0	69.00	0	8.5230	0	33.7640	0	26.226	0	68.414	0	-1e10	1	-1e10	1	-1E+10	1	-1e10	1	-1e10	1	-1E+10	1	-1E+10	1	-1E+10	1
4902624	13	C	10/29/2024	14:35	-128.174	47.222	0	70.00	0	8.4920	0	33.7740	0	26.239	0	69.406	0	210.0	4	73.4	4	-1E+10	1	0.1533	4	0.000394	0	-1E+10	1	-1E+10	1	-1E+10	1
4902624	13	C	10/29/2024	14:35	-128.174	47.222	0	71.00	0	8.4610	0	33.7840	0	26.251	0	70.397	0	206.1	4	71.9	4	-1E+10	1	0.1533	4	0.000854	0	-1E+10	1	-1E+10	1	-1E+10	1
4902624	13	C	10/29/2024	14:35	-128.174	47.222	0	72.20	0	8.4204	0	33.8074	0	26.276	0	71.587	0	205.8	4	71.8	4	-1E+10	1	0.1230	4	0.000578	0	-1E+10	1	-1E+10	1	-1E+10	1
4902624	13	C	10/29/2024	14:35	-128.174	47.222	0	73.10	0	8.3900	0	33.8250	0	26.294	0	72.479	0	-1e10	1	-1e10	1	-1E+10	1	-1e10	1	-1e10	1	-1E+10	1	-1E+10	1	-1E+10	1
4902624	13	C	10/29/2024	14:35	-128.174	47.222	0	73.30	0	8.3858	0	33.8263	0	26.296	0	72.677	0	204.9	4	71.4	4	-1E+10	1	0.1095	4	0.000424	0	-1E+10	1	-1E+10	1	-1E+10	1
4902624	13	C	10/29/2024	14:35	-128.174	47.222	0	74.40	0	8.3627	0	33.8335	0	26.305	0	73.768	0	204.2	4	71.2	4	-1E+10	1	0.1022	4	0.000420	0	-1E+10	1	-1E+10	1	-1E+10	1
4902624	13	C	10/29/2024	14:35	-128.174	47.222	0	75.10	0	8.3480	0	33.8380	0	26.311	0	74.462	0	-1e10	1	-1e10	1	-1E+10	1	-1e10	1	-1e10	1	-1E+10	1	-1E+10	1	-1E+10	1
4902624	13	C	10/29/2024	14:35	-128.174	47.222	0	75.50	0	8.3412	0	33.8400	0	26.313	0	74.858	0	203.2	4	70.8	4	-1E+10	1	0.0994	4	0.000391	0	-1E+10	1	-1E+10	1	-1E+10	1
4902624	13	C	10/29/2024	14:35	-128.174	47.222	0	76.60	0	8.3225	0	33.8455	0	26.320	0	75.949	0	202.1	4	70.4	4	-1E+10	1	0.1122	4	0.000366	0	-1E+10	1	-1E+10	1	-1E+10	1
4902624	13	C	10/29/2024	14:35	-128.174	47.222	0	77.10	0	8.3140	0	33.8480	0	26.324	0	76.444	0	-1e10	1	-1e10	1	-1E+10	1	-1e10	1	-1e10	1	-1E+10	1	-1E+10	1	-1E+10	1
4902624	13	C	10/29/2024	14:35	-128.174	47.222	0	77.70	0	8.3055	0	33.8489	0	26.326	0	77.039	0	201.0	4	70.0	4	-1E+10	1	0.1230	4	0.000358	0	-1E+10	1	-1E+10	1	-1E+10	1
4902624	13	C	10/29/2024	14:35	-128.174	47.222	0	78.80	0	8.2898	0	33.8507	0	26.329	0	78.129	0	199.7	4	69.5	4	-1E+10	1	0.1168	4	0.000417	0	-1E+10	1	-1E+10	1	-1E+10	1
4902624	13	C	10/29/2024	14:35	-128.174	47.222	0	79.00	0	8.2870	0	33.8510	0	26.330	0	78.328	0	-1e10	1	-1e10	1	-1E+10	1	-1e10	1	-1e10	1	-1E+10	1	-1E+10	1	-1E+10	1
4902624	13	C	10/29/2024	14:35	-128.174	47.222	0	79.80	0	8.2744	0	33.8480	0	26.330	0	79.121	0	197.5	4	68.7	4	-1E+10	1	0.0949	4	0.000628	0	-1E+10	1	-1E+10	1	-1E+10	1
4902624	13	C	10/29/2024	14:35	-128.174	47.222	0	80.40	0	8.2650	0	33.8457	0	26.329	0	79.715	0	196.0	4	68.1	4	-1E+10	1	0.1095	4	0.000405	0	-1E+10	1	-1E+10	1	-1E+10	1
4902624	13	C	10/29/2024	14:35	-128.174	47.222	0	81.00	0	8.2556	0	33.8434	0	26.329	0	80.310	0	194.6	4	67.7	4	-1E+10	1	0.1040	4	0.000379	0	-1E+10	1	-1E+10	1	-1E+10	1
4902624	13	C	10/29/2024	14:35	-128.174	47.222	0	81.10	0	8.2540	0	33.8430	0	26.329	0	80.409	0	-1e10	1	-1e10	1	-1E+10	1	-1e10	1	-1e10	1	-1E+10	1	-1E+10	1	-1E+10	1
4902624	13	C	10/29/2024	14:35	-128.174	47.222	0	81.50	0	8.2475	0	33.8398	0	26.327	0	80.806	0	192.9	4	67.0	4	-1E+10	1	0.1053	4	0.000370	0	-1E+10	1	-1E+10	1	-1E+10	1
4902624	13	C	10/29/2024	14:35	-128.174	47.222	0	82.10	0	8.2377	0	33.8351	0	26.325	0	81.401	0	191.0	4	66.3	4	-1E+10	1	0.0998	4	0.000382	0	-1E+10	1	-1E+10	1	-1E+10	1
4902624	13	C	10/29/2024	14:35	-128.174	47.222	0	82.80	0	8.2263	0	33.8296	0	26.323	0	82.095	0	188.9	4	65.6	4	-1E+10	1	0.0830	4	0.000370	0	-1E+10	1	-1E+10	1	-1E+10	1
4902624	13	C	10/29/2024	14:35	-128.174	47.222	0	83.00	0	8.2230	0	33.8280	0	26.322	0	82.293	0	-1e10	1	-1e10	1	-1E+10	1	-1e10	1	-1e10	1	-1E+10	1	-1E+10	1	-1E+10	1
4902624	13	C	10/29/2024	14:35	-128.174	47.222	0	83.40	0	8.2164	0	33.8254	0	26.321	0	82.689	0	186.7	4	64.8	4	-1E+10	1	0.0866	4	0.000332	0	-1E+10	1	-1E+10	1	-1E+10	1
4902624	13	C	10/29/2024	14:35	-128.174	47.222	0	84.00	0	8.2065	0	33.8215	0	26.319	0	83.284	0	183.9	4	63.8	4	-1E+10	1	0.0803	4	0.000452	0	-1E+10	1	-1E+10	1	-1E+10	1
4902624	13	C	10/29/2024	14:35	-128.174	47.222	0	84.80	0	8.1933	0	33.8163	0	26.317	0	84.077	0	181.7	4	63.1	4	-1E+10	1	0.0803	4	0.000347	0	-1E+10	1	-1E+10	1	-1E+10	1
4902624	13	C	10/29/2024	14:35	-128.174	47.222	0	85.00	0	8.1900	0	33.8150	0	26.317	0	84.275	0	-1e10	1	-1e10	1	-1E+10	1	-1e10	1	-1e10	1	-1E+10	1	-1E+10	1	-1E+10	1
4902624	13	C	10/29/2024	14:35	-128.174	47.222	0	85.50	0	8.1832	0	33.8092	0	26.313	0	84.771	0	179.8	4	62.4	4	-1E+10	1	0.0739	4	0.000357	0	-1E+10	1	-1E+10	1	-1E+10	1
4902624	13	C	10/29/2024	14:35	-128.174	47.222	0	86.20	0	8.1738	0	33.8012	0	26.308	0	85.465	0	178.3	4	61.8	4	-1E+10	1	0.0779	4	0.000358	0	-1E+10	1	-1E+10	1	-1E+10	1
4902624	13	C	10/29/2024	14:35	-128.174	47.222	0	86.90	0	8.1644	0	33.7931	0	26.303	0	86.159	0	176.8	4	61.3	4	-1E+10	1	0.0761	4	0.000379	0	-1E+10	1	-1E+10	1	-1E+10	1
4902624	13	C	10/29/2024	14:35	-128.174	47.222	0	87.00	0	8.1630	0	33.7920	0	26.303	0	86.258	0	-1e10	1	-1e10	1	-1E+10	1	-1e10	1	-1e10	1	-1E+10	1	-1E+10	1	-1E+10	1
4902624	13	C	10/29/2024	14:35	-128.174	47.222	0	87.60	0	8.1492	0	33.7896	0	26.303	0	86.853	0	175.6	4	60.9	4	-1E+10	1	0.0803	4	0.000394	0	-1E+10	1	-1E+10	1	-1E+10	1
4902624	13	C	10/29/2024	14:35	-128.174	47.222	0	88.30	0	8.1331	0	33.7868	0	26.303	0	87.547	0	174.3	4	60.4	4	-1E+10	1	0.0821	4	0.000389	0	-1E+10	1	-1E+10	1	-1E+10	1
4902624	13	C	10/29/2024	14:35	-128.174	47.222	0	89.00	0	8.1170	0	33.7840	0	26.303	0	88.240	0	-1e10	1	-1e10	1	-1E+10	1	-1e10	1	-1e10	1	-1E+10	1	-1E+10	1	-1E+10	1
4902624	13	C	10/29/2024	14:35	-128.174	47.222	0	89.10	0	8.1146	0	33.7837	0	26.303	0	88.340	0	173.2	4	60.0	4	-1E+10	1	0.0793	4	0.000397	0	-1E+10	1	-1E+10	1	-1E+10	1
4902624	13	C	10/29/2024	14:35	-128.174	47.222	0	89.90	0	8.0951	0	33.7814	0	26.304	0	89.133	0	172.2	4	59.6	4	-1E+10	1	0.0847	4	0.000431	0	-1E+10	1	-1E+10	1	-1E+10	1
4902624	13	C	10/29/2024	14:35	-128.174	47.222	0	90.60	0	8.0781	0	33.7794	0	26.305	0	89.826	0	171.2	4	59.3	4	-1E+10	1	0.0803	4	0.000444	0	-1E+10	1	-1E+10	1	-1E+10	1
4902624	13	C	10/29/2024	14:35	-128.174	47.222	0	91.10	0	8.0660	0	33.7780	0	26.306	0	90.322	0	-1e10	1	-1e10	1	-1E+10	1	-1e10	1	-1e10	1	-1E+10	1	-1E+10	1	-1E+10	1
4902624	13	C	10/29/2024	14:35	-128.174	47.222	0	91.40	0	8.0568	0	33.7791	0	26.308	0	90.619	0	170.5	4	59.0	4	-1E+10	1	0.0803	4	0.000382	0	-1E+10	1	-1E+10	1	-1E+10	1
4902624	13	C	10/29/2024	14:35	-128.174	47.222	0	92.10	0	8.0355	0	33.7817	0	26.313	0	91.313	0	169.7	4	58.7	4	-1E+10	1	0.0730	4	0.000394	0	-1E+10	1	-1E+10	1	-1E+10	1
4902624	13	C	10/29/2024	14:35	-128.174	47.222	0	92.90	0	8.0111	0	33.7846	0	26.319	0	92.106	0	168.8	4	58.3	4	-1E+10	1	0.0672	4	0.000384	0	-1E+10	1	-1E+10	1	-1E+10	1
4902624	13	C	10/29/2024	14:35	-128.174	47.222	0	93.00	0	8.0080	0	33.7850	0	26.320	0	92.205	0	-1e10	1	-1e10	1	-1E+10	1	-1e10	1	-1e10	1	-1E+10	1	-1E+10	1	-1E+10	1
4902624	13	C	10/29/2024	14:35	-128.174	47.222	0	93.80	0	7.9874	0	33.7884	0	26.326	0	92.998	0	168.1	4	58.1	4	-1E+10	1	0.0606	4	0.000390	0	-1E+10	1	-1E+10	1	-1E+10	1
4902624	13	C	10/29/2024	14:35	-128.174	47.222	0	94.60	0	7.9667	0	33.7917	0	26.331	0	93.791	0	167.4	4	57.8	4	-1E+10	1	0.0584	4	0.000394	0	-1E+10	1	-1E+10	1	-1E+10	1
4902624	13	C	10/29/2024	14:35	-128.174	47.222	0	94.90	0	7.9590	0	33.7930	0	26.334	0	94.089	0	-1e10	1	-1e10	1	-1E+10	1	-1e10	1	-1e10	1	-1E+10	1	-1E+10	1	-1E+10	1
4902624	13	C	10/29/2024	14:35	-128.174	47.222	0	95.50	0	7.9436	0	33.7967	0	26.339	0	94.683	0	166.8	4	57.6	4	-1E+10	1	0.0617	4	0.000410	0	-1E+10	1	-1E+10	1	-1E+10	1
4902624	13	C	10/29/2024	14:35	-128.174	47.222	0	96.40	0	7.9204	0	33.8023	0	26.347	0	95.576	0	166.4	4	57.4	4	-1E+10	1	0.0637	4	0.000429	0	-1E+10	1	-1E+10	1	-1E+10	1
4902624	13	C	10/29/2024	14:35	-128.174	47.222	0	97.00	0	7.9050	0	33.8060	0	26.352	0	96.170	0	-1e10	1	-1e10	1	-1E+10	1	-1e10	1	-1e10	1	-1E+10	1	-1E+10	1	-1E+10	1
4902624	13	C	10/29/2024	14:35	-128.174	47.222	0	97.30	0	7.8993	0	33.8068	0	26.353	0	96.468	0	166.3	4	57.3	4	-1E+10	1	0.0584	4	0.000443	0	-1E+10	1	-1E+10	1	-1E+10	1
4902624	13	C	10/29/2024	14:35	-128.174	47.222	0	98.30	0	7.8804	0	33.8094	0	26.358	0	97.459	0	166.1	4	57.2	4	-1E+10	1	0.0584	4	0.000534	0	-1E+10	1	-1E+10	1	-1E+10	1
4902624	13	C	10/29/2024	14:35	-128.174	47.222	0	98.90	0	7.8690	0	33.8110	0	26.361	0	98.054	0	-1e10	1	-1e10	1	-1E+10	1	-1e10	1	-1e10	1	-1E+10	1	-1E+10	1	-1E+10	1
4902624	13	C	10/29/2024	14:35	-128.174	47.222	0	99.30	0	7.8620	0	33.8106	0	26.362	0	98.450	0	165.9	4	57.2	4	-1E+10	1	0.0584	4	0.000417	0	-1E+10	1	-1E+10	1	-1E+10	1
4902624	13	C	10/29/2024	14:35	-128.174	47.222	0	100.30	0	7.8443	0	33.8097	0	26.364	0	99.441	0	165.8	4	57.1	4	-1E+10	1	0.0767	4	0.000358	0	-1E+10	1	-1E+10	1	-1E+10	1
4902624	13	C	10/29/2024	14:35	-128.174	47.222	0	101.00	0	7.8320	0	33.8090	0	26.365	0	100.135	0	-1e10	1	-1e10	1	-1E+10	1	-1e10	1	-1e10	1	-1E+10	1	-1E+10	1	-1E+10	1
4902624	13	C	10/29/2024	14:35	-128.174	47.222	0	101.30	0	7.8257	0	33.8097	0	26.366	0	100.432	0	165.5	4	57.0	4	-1E+10	1	0.0686	4	0.000412	0	-1E+10	1	-1E+10	1	-1E+10	1
4902624	13	C	10/29/2024	14:35	-128.174	47.222	0	102.30	0	7.8047	0	33.8122	0	26.371	0	101.424	0	165.2	4	56.8	4	-1E+10	1	0.0560	4	0.000397	0	-1E+10	1	-1E+10	1	-1E+10	1
4902624	13	C	10/29/2024	14:35	-128.174	47.222	0	103.00	0	7.7900	0	33.8140	0	26.375	0	102.117	0	-1e10	1	-1e10	1	-1E+10	1	-1e10	1	-1e10	1	-1E+10	1	-1E+10	1	-1E+10	1
4902624	13	C	10/29/2024	14:35	-128.174	47.222	0	103.30	0	7.7816	0	33.8176	0	26.379	0	102.415	0	165.0	4	56.7	4	-1E+10	1	0.0584	4	0.000388	0	-1E+10	1	-1E+10	1	-1E+10	1
4902624	13	C	10/29/2024	14:35	-128.174	47.222	0	104.30	0	7.7536	0	33.8296	0	26.392	0	103.406	0	164.7	4	56.6	4	-1E+10	1	0.0630	4	0.000383	0	-1E+10	1	-1E+10	1	-1E+10	1
4902624	13	C	10/29/2024	14:35	-128.174	47.222	0	105.00	0	7.7340	0	33.8380	0	26.402	0	104.100	0	-1e10	1	-1e10	1	-1E+10	1	-1e10	1	-1e10	1	-1E+10	1	-1E+10	1	-1E+10	1
4902624	13	C	10/29/2024	14:35	-128.174	47.222	0	105.40	0	7.7230	0	33.8434	0	26.408	0	104.496	0	164.7	4	56.6	4	-1E+10	1	0.0560	4	0.000370	0	-1E+10	1	-1E+10	1	-1E+10	1
4902624	13	C	10/29/2024	14:35	-128.174	47.222	0	106.50	0	7.6927	0	33.8583	0	26.424	0	105.587	0	164.7	4	56.5	4	-1E+10	1	0.0511	4	0.000379	0	-1E+10	1	-1E+10	1	-1E+10	1
4902624	13	C	10/29/2024	14:35	-128.174	47.222	0	107.00	0	7.6790	0	33.8650	0	26.431	0	106.082	0	-1e10	1	-1e10	1	-1E+10	1	-1e10	1	-1e10	1	-1E+10	1	-1E+10	1	-1E+10	1
4902624	13	C	10/29/2024	14:35	-128.174	47.222	0	107.60	0	7.6649	0	33.8731	0	26.439	0	106.677	0	164.3	4	56.4	4	-1E+10	1	0.0511	4	0.000370	0	-1E+10	1	-1E+10	1	-1E+10	1
4902624	13	C	10/29/2024	14:35	-128.174	47.222	0	108.70	0	7.6391	0	33.8879	0	26.455	0	107.767	0	164.4	4	56.4	4	-1E+10	1	0.0657	4	0.000370	0	-1E+10	1	-1E+10	1	-1E+10	1
4902624	13	C	10/29/2024	14:35	-128.174	47.222	0	109.00	0	7.6320	0	33.8920	0	26.459	0	108.065	0	-1e10	1	-1e10	1	-1E+10	1	-1e10	1	-1e10	1	-1E+10	1	-1E+10	1	-1E+10	1
4902624	13	C	10/29/2024	14:35	-128.174	47.222	0	109.80	0	7.6164	0	33.9008	0	26.468	0	108.857	0	164.7	4	56.4	4	-1E+10	1	0.0472	4	0.000340	0	-1E+10	1	-1E+10	1	-1E+10	1
4902624	13	C	10/29/2024	14:35	-128.174	47.222	0	110.90	0	7.5950	0	33.9130	0	26.481	0	109.948	0	162.9	4	55.8	4	-1E+10	1	0.0485	4	0.000342	0	-1E+10	1	-1E+10	1	-1E+10	1
4902624	13	C	10/29/2024	14:35	-128.174	47.222	0	112.10	0	7.5653	0	33.9364	0	26.504	0	111.137	0	164.5	4	56.3	4	-1E+10	1	0.0372	4	0.000324	0	-1E+10	1	-1E+10	1	-1E+10	1
4902624	13	C	10/29/2024	14:35	-128.174	47.222	0	113.00	0	7.5430	0	33.9540	0	26.521	0	112.029	0	-1e10	1	-1e10	1	-1E+10	1	-1e10	1	-1e10	1	-1E+10	1	-1E+10	1	-1E+10	1
4902624	13	C	10/29/2024	14:35	-128.174	47.222	0	113.30	0	7.5368	0	33.9595	0	26.526	0	112.326	0	164.6	4	56.4	4	-1E+10	1	0.0409	4	0.000343	0	-1E+10	1	-1E+10	1	-1E+10	1
4902624	13	C	10/29/2024	14:35	-128.174	47.222	0	114.50	0	7.5122	0	33.9818	0	26.547	0	113.516	0	164.6	4	56.3	4	-1E+10	1	0.0537	4	0.000341	0	-1E+10	1	-1E+10	1	-1E+10	1
4902624	13	C	10/29/2024	14:35	-128.174	47.222	0	115.00	0	7.5020	0	33.9910	0	26.556	0	114.011	0	-1e10	1	-1e10	1	-1E+10	1	-1e10	1	-1e10	1	-1E+10	1	-1E+10	1	-1E+10	1
4902624	13	C	10/29/2024	14:35	-128.174	47.222	0	115.60	0	7.4979	0	33.9945	0	26.559	0	114.606	0	163.8	4	56.0	4	-1E+10	1	0.0596	4	0.000286	0	-1E+10	1	-1E+10	1	-1E+10	1
4902624	13	C	10/29/2024	14:35	-128.174	47.222	0	116.80	0	7.4897	0	34.0014	0	26.566	0	115.795	0	162.7	4	55.6	4	-1E+10	1	0.0636	4	0.000278	0	-1E+10	1	-1E+10	1	-1E+10	1
4902624	13	C	10/29/2024	14:35	-128.174	47.222	0	116.90	0	7.4890	0	34.0020	0	26.566	0	115.894	0	-1e10	1	-1e10	1	-1E+10	1	-1e10	1	-1e10	1	-1E+10	1	-1E+10	1	-1E+10	1
4902624	13	C	10/29/2024	14:35	-128.174	47.222	0	118.00	0	7.4808	0	34.0108	0	26.574	0	116.985	0	161.3	4	55.2	4	-1E+10	1	0.0511	4	0.000288	0	-1E+10	1	-1E+10	1	-1E+10	1
4902624	13	C	10/29/2024	14:35	-128.174	47.222	0	118.90	0	7.4740	0	34.0180	0	26.581	0	117.877	0	-1e10	1	-1e10	1	-1E+10	1	-1e10	1	-1e10	1	-1E+10	1	-1E+10	1	-1E+10	1
4902624	13	C	10/29/2024	14:35	-128.174	47.222	0	119.10	0	7.4723	0	34.0199	0	26.583	0	118.075	0	159.5	4	54.5	4	-1E+10	1	0.0454	4	0.000306	0	-1E+10	1	-1E+10	1	-1E+10	1
4902624	13	C	10/29/2024	14:35	-128.174	47.222	0	120.30	0	7.4620	0	34.0313	0	26.593	0	119.264	0	157.5	4	53.9	4	-1E+10	1	0.0378	4	0.000302	0	-1E+10	1	-1E+10	1	-1E+10	1
4902624	13	C	10/29/2024	14:35	-128.174	47.222	0	121.00	0	7.4560	0	34.0380	0	26.599	0	119.958	0	-1e10	1	-1e10	1	-1E+10	1	-1e10	1	-1e10	1	-1E+10	1	-1E+10	1	-1E+10	1
4902624	13	C	10/29/2024	14:35	-128.174	47.222	0	121.40	0	7.4554	0	34.0386	0	26.600	0	120.354	0	155.7	4	53.2	4	-1E+10	1	0.0459	4	0.000284	0	-1E+10	1	-1E+10	1	-1E+10	1
4902624	13	C	10/29/2024	14:35	-128.174	47.222	0	122.50	0	7.4536	0	34.0404	0	26.601	0	121.445	0	154.0	4	52.6	4	-1E+10	1	0.0438	4	0.000276	0	-1E+10	1	-1E+10	1	-1E+10	1
4902624	13	C	10/29/2024	14:35	-128.174	47.222	0	122.90	0	7.4530	0	34.0410	0	26.602	0	121.841	0	-1e10	1	-1e10	1	-1E+10	1	-1e10	1	-1e10	1	-1E+10	1	-1E+10	1	-1E+10	1
4902624	13	C	10/29/2024	14:35	-128.174	47.222	0	123.40	0	7.4540	0	34.0422	0	26.603	0	122.337	0	152.3	4	52.1	4	-1E+10	1	0.0420	4	0.000285	0	-1E+10	1	-1E+10	1	-1E+10	1
4902624	13	C	10/29/2024	14:35	-128.174	47.222	0	124.20	0	7.4555	0	34.0441	0	26.604	0	123.130	0	150.9	4	51.6	4	-1E+10	1	0.0484	4	0.000300	0	-1E+10	1	-1E+10	1	-1E+10	1
4902624	13	C	10/29/2024	14:35	-128.174	47.222	0	124.90	0	7.4568	0	34.0458	0	26.605	0	123.823	0	149.2	4	51.0	4	-1E+10	1	0.0493	4	0.000308	0	-1E+10	1	-1E+10	1	-1E+10	1
4902624	13	C	10/29/2024	14:35	-128.174	47.222	0	125.00	0	7.4570	0	34.0460	0	26.605	0	123.922	0	-1e10	1	-1e10	1	-1E+10	1	-1e10	1	-1e10	1	-1E+10	1	-1E+10	1	-1E+10	1
4902624	13	C	10/29/2024	14:35	-128.174	47.222	0	125.50	0	7.4556	0	34.0520	0	26.610	0	124.418	0	147.0	4	50.3	4	-1E+10	1	0.0657	4	0.000335	0	-1E+10	1	-1E+10	1	-1E+10	1
4902624	13	C	10/29/2024	14:35	-128.174	47.222	0	126.30	0	7.4533	0	34.0615	0	26.618	0	125.211	0	144.7	4	49.5	4	-1E+10	1	0.0584	4	0.000370	0	-1E+10	1	-1E+10	1	-1E+10	1
4902624	13	C	10/29/2024	14:35	-128.174	47.222	0	127.00	0	7.4513	0	34.0698	0	26.625	0	125.905	0	142.5	4	48.7	4	-1E+10	1	0.0470	4	0.000315	0	-1E+10	1	-1E+10	1	-1E+10	1
4902624	13	C	10/29/2024	14:35	-128.174	47.222	0	127.10	0	7.4510	0	34.0710	0	26.626	0	126.004	0	-1e10	1	-1e10	1	-1E+10	1	-1e10	1	-1e10	1	-1E+10	1	-1E+10	1	-1E+10	1
4902624	13	C	10/29/2024	14:35	-128.174	47.222	0	127.70	0	7.4633	0	34.0625	0	26.617	0	126.598	0	139.9	4	47.8	4	-1E+10	1	0.0438	4	0.000277	0	-1E+10	1	-1E+10	1	-1E+10	1
4902624	13	C	10/29/2024	14:35	-128.174	47.222	0	128.50	0	7.4797	0	34.0511	0	26.606	0	127.391	0	137.1	4	46.9	4	-1E+10	1	0.0484	4	0.000272	0	-1E+10	1	-1E+10	1	-1E+10	1
4902624	13	C	10/29/2024	14:35	-128.174	47.222	0	129.00	0	7.4900	0	34.0440	0	26.599	0	127.887	0	-1e10	1	-1e10	1	-1E+10	1	-1e10	1	-1e10	1	-1E+10	1	-1E+10	1	-1E+10	1
4902624	13	C	10/29/2024	14:35	-128.174	47.222	0	129.30	0	7.4988	8	34.0353	8	26.591	0	128.184	0	134.1	4	45.9	4	-1E+10	1	0.0552	4	0.000335	0	-1E+10	1	-1E+10	1	-1E+10	1
4902624	13	C	10/29/2024	14:35	-128.174	47.222	0	130.00	0	7.5195	8	34.0150	8	26.572	0	128.878	0	131.1	4	44.9	4	-1E+10	1	0.0511	4	0.000362	0	-1E+10	1	-1E+10	1	-1E+10	1
4902624	13	C	10/29/2024	14:35	-128.174	47.222	0	130.80	0	7.5431	8	33.9918	8	26.551	0	129.671	0	128.6	4	44.0	4	-1E+10	1	0.0383	4	0.000346	0	-1E+10	1	-1E+10	1	-1E+10	1
4902624	13	C	10/29/2024	14:35	-128.174	47.222	0	131.00	0	7.5490	8	33.9860	8	26.545	0	129.869	0	-1e10	1	-1e10	1	-1E+10	1	-1e10	1	-1e10	1	-1E+10	1	-1E+10	1	-1E+10	1
4902624	13	C	10/29/2024	14:35	-128.174	47.222	0	131.60	0	7.5646	8	33.9677	8	26.529	0	130.463	0	126.4	4	43.3	4	-1E+10	1	0.0406	4	0.000393	0	-1E+10	1	-1E+10	1	-1E+10	1
4902624	13	C	10/29/2024	14:35	-128.174	47.222	0	132.30	0	7.5828	8	33.9464	8	26.509	0	131.157	0	124.2	4	42.6	4	-1E+10	1	0.0292	4	0.000311	0	-1E+10	1	-1E+10	1	-1E+10	1
4902624	13	C	10/29/2024	14:35	-128.174	47.222	0	133.00	0	7.6010	8	33.9250	8	26.490	0	131.851	0	-1e10	1	-1e10	1	-1E+10	1	-1e10	1	-1e10	1	-1E+10	1	-1E+10	1	-1E+10	1
4902624	13	C	10/29/2024	14:35	-128.174	47.222	0	133.30	0	7.6007	8	33.9221	8	26.488	0	132.148	0	122.2	4	41.9	4	-1E+10	1	0.0365	4	0.000335	0	-1E+10	1	-1E+10	1	-1E+10	1
4902624	13	C	10/29/2024	14:35	-128.174	47.222	0	134.10	0	7.5999	8	33.9145	8	26.482	0	132.941	0	121.4	4	41.6	4	-1E+10	1	0.0438	4	0.000288	0	-1E+10	1	-1E+10	1	-1E+10	1
4902624	13	C	10/29/2024	14:35	-128.174	47.222	0	134.80	0	7.5992	8	33.9079	8	26.477	0	133.635	0	121.0	4	41.5	4	-1E+10	1	0.0387	4	0.000312	0	-1E+10	1	-1E+10	1	-1E+10	1
4902624	13	C	10/29/2024	14:35	-128.174	47.222	0	135.00	0	7.5990	0	33.9060	0	26.475	0	133.833	0	-1e10	1	-1e10	1	-1E+10	1	-1e10	1	-1e10	1	-1E+10	1	-1E+10	1	-1E+10	1
4902624	13	C	10/29/2024	14:35	-128.174	47.222	0	135.50	0	7.5955	0	33.9042	0	26.474	0	134.328	0	120.6	4	41.3	4	-1E+10	1	0.0397	4	0.000333	0	-1E+10	1	-1E+10	1	-1E+10	1
4902624	13	C	10/29/2024	14:35	-128.174	47.222	0	136.30	0	7.5899	0	33.9014	0	26.473	0	135.121	0	120.2	4	41.2	4	-1E+10	1	0.0438	4	0.000413	0	-1E+10	1	-1E+10	1	-1E+10	1
4902624	13	C	10/29/2024	14:35	-128.174	47.222	0	137.00	0	7.5850	0	33.8990	0	26.472	0	135.815	0	-1e10	1	-1e10	1	-1E+10	1	-1e10	1	-1e10	1	-1E+10	1	-1E+10	1	-1E+10	1
4902624	13	C	10/29/2024	14:35	-128.174	47.222	0	137.20	0	7.5830	0	33.8987	0	26.472	0	136.013	0	119.9	4	41.1	4	-1E+10	1	0.0414	4	0.000483	0	-1E+10	1	-1E+10	1	-1E+10	1
4902624	13	C	10/29/2024	14:35	-128.174	47.222	0	138.00	0	7.5750	0	33.8975	0	26.472	0	136.806	0	119.6	4	41.0	4	-1E+10	1	0.0380	4	0.000363	0	-1E+10	1	-1E+10	1	-1E+10	1
4902624	13	C	10/29/2024	14:35	-128.174	47.222	0	138.80	0	7.5670	0	33.8963	0	26.472	0	137.599	0	119.4	4	40.9	4	-1E+10	1	0.0438	4	0.000382	0	-1E+10	1	-1E+10	1	-1E+10	1
4902624	13	C	10/29/2024	14:35	-128.174	47.222	0	139.00	0	7.5650	0	33.8960	0	26.472	0	137.797	0	-1e10	1	-1e10	1	-1E+10	1	-1e10	1	-1e10	1	-1E+10	1	-1E+10	1	-1E+10	1
4902624	13	C	10/29/2024	14:35	-128.174	47.222	0	139.70	0	7.5556	0	33.8981	0	26.475	0	138.491	0	119.3	4	40.8	4	-1E+10	1	0.0438	4	0.000358	0	-1E+10	1	-1E+10	1	-1E+10	1
4902624	13	C	10/29/2024	14:35	-128.174	47.222	0	140.50	0	7.5448	0	33.9005	0	26.479	0	139.284	0	119.1	4	40.8	4	-1E+10	1	0.0496	4	0.000339	0	-1E+10	1	-1E+10	1	-1E+10	1
4902624	13	C	10/29/2024	14:35	-128.174	47.222	0	141.00	0	7.5380	0	33.9020	0	26.481	0	139.779	0	-1e10	1	-1e10	1	-1E+10	1	-1e10	1	-1e10	1	-1E+10	1	-1E+10	1	-1E+10	1
4902624	13	C	10/29/2024	14:35	-128.174	47.222	0	141.30	0	7.5353	0	33.9020	0	26.481	0	140.076	0	118.8	4	40.7	4	-1E+10	1	0.0467	4	0.000335	0	-1E+10	1	-1E+10	1	-1E+10	1
4902624	13	C	10/29/2024	14:35	-128.174	47.222	0	142.20	0	7.5272	0	33.9020	0	26.482	0	140.968	0	118.4	4	40.5	4	-1E+10	1	0.0392	4	0.000335	0	-1E+10	1	-1E+10	1	-1E+10	1
4902624	13	C	10/29/2024	14:35	-128.174	47.222	0	143.00	0	7.5200	0	33.9020	0	26.483	0	141.761	0	116.8	4	39.9	4	-1E+10	1	0.0438	4	0.000323	0	-1E+10	1	-1E+10	1	-1E+10	1
4902624	13	C	10/29/2024	14:35	-128.174	47.222	0	143.90	0	7.5164	0	33.8953	0	26.479	0	142.653	0	117.2	4	40.1	4	-1E+10	1	0.0511	4	0.000311	0	-1E+10	1	-1E+10	1	-1E+10	1
4902624	13	C	10/29/2024	14:35	-128.174	47.222	0	144.70	0	7.5132	0	33.8893	0	26.474	0	143.446	0	116.6	4	39.9	4	-1E+10	1	0.0493	4	0.000317	0	-1E+10	1	-1E+10	1	-1E+10	1
4902624	13	C	10/29/2024	14:35	-128.174	47.222	0	145.00	0	7.5120	0	33.8870	0	26.473	0	143.743	0	-1e10	1	-1e10	1	-1E+10	1	-1e10	1	-1e10	1	-1E+10	1	-1E+10	1	-1E+10	1
4902624	13	C	10/29/2024	14:35	-128.174	47.222	0	145.60	0	7.5063	0	33.8852	0	26.472	0	144.338	0	115.9	4	39.6	4	-1E+10	1	0.0365	4	0.000354	0	-1E+10	1	-1E+10	1	-1E+10	1
4902624	13	C	10/29/2024	14:35	-128.174	47.222	0	146.50	0	7.4978	0	33.8825	0	26.471	0	145.229	0	115.5	4	39.5	4	-1E+10	1	0.0365	4	0.000335	0	-1E+10	1	-1E+10	1	-1E+10	1
4902624	13	C	10/29/2024	14:35	-128.174	47.222	0	147.00	0	7.4930	0	33.8810	0	26.471	0	145.725	0	-1e10	1	-1e10	1	-1E+10	1	-1e10	1	-1e10	1	-1E+10	1	-1E+10	1	-1E+10	1
4902624	13	C	10/29/2024	14:35	-128.174	47.222	0	147.30	0	7.4916	0	33.8783	0	26.469	0	146.022	0	115.0	4	39.3	4	-1E+10	1	0.0365	4	0.000391	0	-1E+10	1	-1E+10	1	-1E+10	1
4902624	13	C	10/29/2024	14:35	-128.174	47.222	0	148.20	0	7.4873	0	33.8703	0	26.463	0	146.914	0	114.3	4	39.1	4	-1E+10	1	0.0365	4	0.000314	0	-1E+10	1	-1E+10	1	-1E+10	1
4902624	13	C	10/29/2024	14:35	-128.174	47.222	0	148.90	0	7.4840	0	33.8640	0	26.459	0	147.608	0	-1e10	1	-1e10	1	-1E+10	1	-1e10	1	-1e10	1	-1E+10	1	-1E+10	1	-1E+10	1
4902624	13	C	10/29/2024	14:35	-128.174	47.222	0	149.00	0	7.4830	0	33.8635	0	26.458	0	147.707	0	113.5	4	38.8	4	-1E+10	1	0.0496	4	0.000330	0	-1E+10	1	-1E+10	1	-1E+10	1
4902624	13	C	10/29/2024	14:35	-128.174	47.222	0	149.90	0	7.4740	0	33.8588	0	26.456	0	148.599	0	112.8	4	38.5	4	-1E+10	1	0.0462	4	0.000332	0	-1E+10	1	-1E+10	1	-1E+10	1
4902624	13	C	10/29/2024	14:35	-128.174	47.222	0	150.80	0	7.4650	0	33.8540	0	26.454	0	149.491	0	112.3	4	38.4	4	-1E+10	1	0.0456	4	0.000326	0	-1E+10	1	-1E+10	1	-1E+10	1
4902624	13	C	10/29/2024	14:35	-128.174	47.222	0	151.00	0	7.4630	0	33.8530	0	26.453	0	149.689	0	-1e10	1	-1e10	1	-1E+10	1	-1e10	1	-1e10	1	-1E+10	1	-1E+10	1	-1E+10	1
4902624	13	C	10/29/2024	14:35	-128.174	47.222	0	151.70	0	7.4523	0	33.8526	0	26.454	0	150.382	0	111.9	4	38.2	4	-1E+10	1	0.0511	4	0.000303	0	-1E+10	1	-1E+10	1	-1E+10	1
4902624	13	C	10/29/2024	14:35	-128.174	47.222	0	152.50	0	7.4401	0	33.8522	0	26.456	0	151.175	0	111.4	4	38.0	4	-1E+10	1	0.0511	4	0.000297	0	-1E+10	1	-1E+10	1	-1E+10	1
4902624	13	C	10/29/2024	14:35	-128.174	47.222	0	152.90	0	7.4340	0	33.8520	0	26.456	0	151.572	0	-1e10	1	-1e10	1	-1E+10	1	-1e10	1	-1e10	1	-1E+10	1	-1E+10	1	-1E+10	1
4902624	13	C	10/29/2024	14:35	-128.174	47.222	0	153.40	0	7.4318	0	33.8457	0	26.452	0	152.067	0	110.5	4	37.7	4	-1E+10	1	0.0495	4	0.000344	0	-1E+10	1	-1E+10	1	-1E+10	1
4902624	13	C	10/29/2024	14:35	-128.174	47.222	0	154.30	0	7.4277	0	33.8345	0	26.444	0	152.959	0	109.5	4	37.4	4	-1E+10	1	0.0409	4	0.000342	0	-1E+10	1	-1E+10	1	-1E+10	1
4902624	13	C	10/29/2024	14:35	-128.174	47.222	0	154.90	0	7.4250	0	33.8270	0	26.438	0	153.554	0	-1e10	1	-1e10	1	-1E+10	1	-1e10	1	-1e10	1	-1E+10	1	-1E+10	1	-1E+10	1
4902624	13	C	10/29/2024	14:35	-128.174	47.222	0	155.10	0	7.4214	0	33.8270	0	26.439	0	153.752	0	108.6	4	37.0	4	-1E+10	1	0.0292	4	0.000370	0	-1E+10	1	-1E+10	1	-1E+10	1
4902624	13	C	10/29/2024	14:35	-128.174	47.222	0	156.00	0	7.4051	0	33.8270	0	26.441	0	154.644	0	108.1	4	36.8	4	-1E+10	1	0.0531	4	0.000350	0	-1E+10	1	-1E+10	1	-1E+10	1
4902624	13	C	10/29/2024	14:35	-128.174	47.222	0	157.00	0	7.3870	0	33.8270	0	26.443	0	155.634	0	106.8	4	36.4	4	-1E+10	1	0.0454	4	0.000336	0	-1E+10	1	-1E+10	1	-1E+10	1
4902624	13	C	10/29/2024	14:35	-128.174	47.222	0	157.90	0	7.3681	0	33.8324	0	26.450	0	156.526	0	107.5	4	36.6	4	-1E+10	1	0.0535	4	0.000327	0	-1E+10	1	-1E+10	1	-1E+10	1
4902624	13	C	10/29/2024	14:35	-128.174	47.222	0	158.80	0	7.3492	0	33.8378	0	26.457	0	157.418	0	107.4	4	36.6	4	-1E+10	1	0.0551	4	0.000365	0	-1E+10	1	-1E+10	1	-1E+10	1
4902624	13	C	10/29/2024	14:35	-128.174	47.222	0	159.00	0	7.3450	0	33.8390	0	26.459	0	157.616	0	-1e10	1	-1e10	1	-1E+10	1	-1e10	1	-1e10	1	-1E+10	1	-1E+10	1	-1E+10	1
4902624	13	C	10/29/2024	14:35	-128.174	47.222	0	159.70	0	7.3320	0	33.8418	0	26.463	0	158.310	0	107.3	4	36.5	4	-1E+10	1	0.0462	4	0.000397	0	-1E+10	1	-1E+10	1	-1E+10	1
4902624	13	C	10/29/2024	14:35	-128.174	47.222	0	160.70	0	7.3135	0	33.8458	0	26.469	0	159.301	0	107.1	4	36.4	4	-1E+10	1	0.0414	4	0.000346	0	-1E+10	1	-1E+10	1	-1E+10	1
4902624	13	C	10/29/2024	14:35	-128.174	47.222	0	161.00	0	7.3080	0	33.8470	0	26.470	0	159.598	0	-1e10	1	-1e10	1	-1E+10	1	-1e10	1	-1e10	1	-1E+10	1	-1E+10	1	-1E+10	1
4902624	13	C	10/29/2024	14:35	-128.174	47.222	0	161.70	0	7.2982	0	33.8474	0	26.472	0	160.292	0	106.8	4	36.4	4	-1E+10	1	0.0511	4	0.000329	0	-1E+10	1	-1E+10	1	-1E+10	1
4902624	13	C	10/29/2024	14:35	-128.174	47.222	0	162.70	0	7.2842	0	33.8479	0	26.474	0	161.283	0	106.6	4	36.2	4	-1E+10	1	0.0511	4	0.000358	0	-1E+10	1	-1E+10	1	-1E+10	1
4902624	13	C	10/29/2024	14:35	-128.174	47.222	0	163.00	0	7.2800	0	33.8480	0	26.475	0	161.580	0	-1e10	1	-1e10	1	-1E+10	1	-1e10	1	-1e10	1	-1E+10	1	-1E+10	1	-1E+10	1
4902624	13	C	10/29/2024	14:35	-128.174	47.222	0	163.70	0	7.2715	0	33.8469	0	26.475	0	162.274	0	106.2	4	36.1	4	-1E+10	1	0.0657	4	0.000334	0	-1E+10	1	-1E+10	1	-1E+10	1
4902624	13	C	10/29/2024	14:35	-128.174	47.222	0	164.70	0	7.2594	0	33.8453	0	26.476	0	163.264	0	105.8	4	36.0	4	-1E+10	1	0.0535	4	0.000368	0	-1E+10	1	-1E+10	1	-1E+10	1
4902624	13	C	10/29/2024	14:35	-128.174	47.222	0	164.90	0	7.2570	0	33.8450	0	26.476	0	163.463	0	-1e10	1	-1e10	1	-1E+10	1	-1e10	1	-1e10	1	-1E+10	1	-1E+10	1	-1E+10	1
4902624	13	C	10/29/2024	14:35	-128.174	47.222	0	165.70	0	7.2444	0	33.8465	0	26.479	0	164.255	0	105.1	4	35.7	4	-1E+10	1	0.0462	4	0.000403	0	-1E+10	1	-1E+10	1	-1E+10	1
4902624	13	C	10/29/2024	14:35	-128.174	47.222	0	166.70	0	7.2287	0	33.8484	0	26.482	0	165.246	0	104.6	4	35.5	4	-1E+10	1	0.0438	4	0.000367	0	-1E+10	1	-1E+10	1	-1E+10	1
4902624	13	C	10/29/2024	14:35	-128.174	47.222	0	167.00	0	7.2240	0	33.8490	0	26.484	0	165.543	0	-1e10	1	-1e10	1	-1E+10	1	-1e10	1	-1e10	1	-1E+10	1	-1E+10	1	-1E+10	1
4902624	13	C	10/29/2024	14:35	-128.174	47.222	0	167.70	0	7.2146	0	33.8490	0	26.485	0	166.237	0	104.2	4	35.4	4	-1E+10	1	0.0365	4	0.000340	0	-1E+10	1	-1E+10	1	-1E+10	1
4902624	13	C	10/29/2024	14:35	-128.174	47.222	0	168.70	0	7.2010	0	33.8490	0	26.487	0	167.228	0	103.8	4	35.2	4	-1E+10	1	0.0341	4	0.000346	0	-1E+10	1	-1E+10	1	-1E+10	1
4902624	13	C	10/29/2024	14:35	-128.174	47.222	0	169.00	0	7.1970	0	33.8490	0	26.487	0	167.525	0	-1e10	1	-1e10	1	-1E+10	1	-1e10	1	-1e10	1	-1E+10	1	-1E+10	1	-1E+10	1
4902624	13	C	10/29/2024	14:35	-128.174	47.222	0	169.70	0	7.1857	0	33.8510	0	26.491	0	168.219	0	103.5	4	35.1	4	-1E+10	1	0.0438	4	0.000344	0	-1E+10	1	-1E+10	1	-1E+10	1
4902624	13	C	10/29/2024	14:35	-128.174	47.222	0	170.70	0	7.1695	0	33.8539	0	26.495	0	169.210	0	103.0	4	34.9	4	-1E+10	1	0.0438	4	0.000340	0	-1E+10	1	-1E+10	1	-1E+10	1
4902624	13	C	10/29/2024	14:35	-128.174	47.222	0	171.10	0	7.1630	0	33.8550	0	26.497	0	169.606	0	-1e10	1	-1e10	1	-1E+10	1	-1e10	1	-1e10	1	-1E+10	1	-1E+10	1	-1E+10	1
4902624	13	C	10/29/2024	14:35	-128.174	47.222	0	171.70	0	7.1510	0	33.8601	0	26.502	0	170.201	0	102.6	4	34.8	4	-1E+10	1	0.0438	4	0.000370	0	-1E+10	1	-1E+10	1	-1E+10	1
4902624	13	C	10/29/2024	14:35	-128.174	47.222	0	172.70	0	7.1310	0	33.8685	0	26.512	0	171.191	0	102.3	4	34.7	4	-1E+10	1	0.0377	4	0.000321	0	-1E+10	1	-1E+10	1	-1E+10	1
4902624	13	C	10/29/2024	14:35	-128.174	47.222	0	173.00	0	7.1250	0	33.8710	0	26.515	0	171.489	0	-1e10	1	-1e10	1	-1E+10	1	-1e10	1	-1e10	1	-1E+10	1	-1E+10	1	-1E+10	1
4902624	13	C	10/29/2024	14:35	-128.174	47.222	0	173.80	0	7.1107	0	33.8765	0	26.521	0	172.281	0	101.5	4	34.4	4	-1E+10	1	0.0305	4	0.000311	0	-1E+10	1	-1E+10	1	-1E+10	1
4902624	13	C	10/29/2024	14:35	-128.174	47.222	0	174.80	0	7.0928	0	33.8833	0	26.529	0	173.272	0	100.7	4	34.1	4	-1E+10	1	0.0472	4	0.000325	0	-1E+10	1	-1E+10	1	-1E+10	1
4902624	13	C	10/29/2024	14:35	-128.174	47.222	0	174.90	0	7.0910	0	33.8840	0	26.530	0	173.371	0	-1e10	1	-1e10	1	-1E+10	1	-1e10	1	-1e10	1	-1E+10	1	-1E+10	1	-1E+10	1
4902624	13	C	10/29/2024	14:35	-128.174	47.222	0	175.90	0	7.0725	0	33.8935	0	26.540	0	174.362	0	99.6	4	33.7	4	-1E+10	1	0.0548	4	0.000393	0	-1E+10	1	-1E+10	1	-1E+10	1
4902624	13	C	10/29/2024	14:35	-128.174	47.222	0	176.90	0	7.0540	0	33.9030	0	26.550	0	175.353	0	-1e10	1	-1e10	1	-1E+10	1	-1e10	1	-1e10	1	-1E+10	1	-1E+10	1	-1E+10	1
4902624	13	C	10/29/2024	14:35	-128.174	47.222	0	177.00	0	7.0527	0	33.9035	0	26.550	0	175.452	0	98.6	4	33.4	4	-1E+10	1	0.0445	4	0.000420	0	-1E+10	1	-1E+10	1	-1E+10	1
4902624	13	C	10/29/2024	14:35	-128.174	47.222	0	178.00	0	7.0399	0	33.9088	0	26.556	0	176.443	0	97.4	4	33.0	4	-1E+10	1	0.0387	4	0.000363	0	-1E+10	1	-1E+10	1	-1E+10	1
4902624	13	C	10/29/2024	14:35	-128.174	47.222	0	179.00	0	7.0270	0	33.9140	0	26.562	0	177.434	0	-1e10	1	-1e10	1	-1E+10	1	-1e10	1	-1e10	1	-1E+10	1	-1E+10	1	-1E+10	1
4902624	13	C	10/29/2024	14:35	-128.174	47.222	0	179.10	0	7.0261	0	33.9141	0	26.562	0	177.533	0	96.3	4	32.6	4	-1E+10	1	0.0449	4	0.000323	0	-1E+10	1	-1E+10	1	-1E+10	1
4902624	13	C	10/29/2024	14:35	-128.174	47.222	0	180.20	0	7.0167	0	33.9157	0	26.565	0	178.623	0	95.3	4	32.2	4	-1E+10	1	0.0511	4	0.000323	0	-1E+10	1	-1E+10	1	-1E+10	1
4902624	13	C	10/29/2024	14:35	-128.174	47.222	0	181.10	0	7.0090	0	33.9170	0	26.567	0	179.514	0	-1e10	1	-1e10	1	-1E+10	1	-1e10	1	-1e10	1	-1E+10	1	-1E+10	1	-1E+10	1
4902624	13	C	10/29/2024	14:35	-128.174	47.222	0	181.30	0	7.0082	0	33.9164	0	26.567	0	179.713	0	94.3	4	31.9	4	-1E+10	1	0.0584	4	0.000346	0	-1E+10	1	-1E+10	1	-1E+10	1
4902624	13	C	10/29/2024	14:35	-128.174	47.222	0	182.40	0	7.0035	0	33.9129	0	26.564	0	180.802	0	93.1	4	31.5	4	-1E+10	1	0.0522	4	0.000336	0	-1E+10	1	-1E+10	1	-1E+10	1
4902624	13	C	10/29/2024	14:35	-128.174	47.222	0	183.00	0	7.0010	0	33.9110	0	26.563	0	181.397	0	-1e10	1	-1e10	1	-1E+10	1	-1e10	1	-1e10	1	-1E+10	1	-1E+10	1	-1E+10	1
4902624	13	C	10/29/2024	14:35	-128.174	47.222	0	183.50	0	6.9977	0	33.9102	0	26.563	0	181.892	0	91.7	4	31.0	4	-1E+10	1	0.0511	4	0.000432	0	-1E+10	1	-1E+10	1	-1E+10	1
4902624	13	C	10/29/2024	14:35	-128.174	47.222	0	184.60	0	6.9906	0	33.9086	0	26.563	0	182.982	0	90.4	4	30.6	4	-1E+10	1	0.0465	4	0.000456	0	-1E+10	1	-1E+10	1	-1E+10	1
4902624	13	C	10/29/2024	14:35	-128.174	47.222	0	185.00	0	6.9880	0	33.9080	0	26.563	0	183.379	0	-1e10	1	-1e10	1	-1E+10	1	-1e10	1	-1e10	1	-1E+10	1	-1E+10	1	-1E+10	1
4902624	13	C	10/29/2024	14:35	-128.174	47.222	0	185.70	0	6.9841	0	33.9066	0	26.562	0	184.072	0	89.5	4	30.2	4	-1E+10	1	0.0359	4	0.000423	0	-1E+10	1	-1E+10	1	-1E+10	1
4902624	13	C	10/29/2024	14:35	-128.174	47.222	0	186.70	0	6.9787	0	33.9046	0	26.561	0	185.063	0	88.6	4	30.0	4	-1E+10	1	0.0314	4	0.000387	0	-1E+10	1	-1E+10	1	-1E+10	1
4902624	13	C	10/29/2024	14:35	-128.174	47.222	0	187.00	0	6.9770	0	33.9040	0	26.561	0	185.360	0	-1e10	1	-1e10	1	-1E+10	1	-1e10	1	-1e10	1	-1E+10	1	-1E+10	1	-1E+10	1
4902624	13	C	10/29/2024	14:35	-128.174	47.222	0	187.80	0	6.9732	0	33.9006	0	26.559	0	186.153	0	87.9	4	29.7	4	-1E+10	1	0.0378	4	0.000355	0	-1E+10	1	-1E+10	1	-1E+10	1
4902624	13	C	10/29/2024	14:35	-128.174	47.222	0	188.90	0	6.9680	0	33.8960	0	26.556	0	187.243	0	86.4	4	29.2	4	-1E+10	1	0.0438	4	0.000393	0	-1E+10	1	-1E+10	1	-1E+10	1
4902624	13	C	10/29/2024	14:35	-128.174	47.222	0	190.10	0	6.9589	0	33.8949	0	26.556	0	188.432	0	86.9	4	29.3	4	-1E+10	1	0.0438	4	0.000393	0	-1E+10	1	-1E+10	1	-1E+10	1
4902624	13	C	10/29/2024	14:35	-128.174	47.222	0	191.00	0	6.9520	0	33.8940	0	26.557	0	189.323	0	-1e10	1	-1e10	1	-1E+10	1	-1e10	1	-1e10	1	-1E+10	1	-1E+10	1	-1E+10	1
4902624	13	C	10/29/2024	14:35	-128.174	47.222	0	191.20	0	6.9516	0	33.8923	0	26.555	0	189.521	0	86.5	4	29.2	4	-1E+10	1	0.0438	4	0.000333	0	-1E+10	1	-1E+10	1	-1E+10	1
4902624	13	C	10/29/2024	14:35	-128.174	47.222	0	192.30	0	6.9494	0	33.8829	0	26.548	0	190.611	0	86.1	4	29.1	4	-1E+10	1	0.0498	4	0.000601	0	-1E+10	1	-1E+10	1	-1E+10	1
4902624	13	C	10/29/2024	14:35	-128.174	47.222	0	193.00	0	6.9480	0	33.8770	0	26.544	0	191.305	0	-1e10	1	-1e10	1	-1E+10	1	-1e10	1	-1e10	1	-1E+10	1	-1E+10	1	-1E+10	1
4902624	13	C	10/29/2024	14:35	-128.174	47.222	0	193.40	0	6.9476	0	33.8730	0	26.541	0	191.701	0	85.6	4	28.9	4	-1E+10	1	0.0464	4	0.000467	0	-1E+10	1	-1E+10	1	-1E+10	1
4902624	13	C	10/29/2024	14:35	-128.174	47.222	0	194.60	0	6.9464	0	33.8610	0	26.531	0	192.890	0	85.1	4	28.7	4	-1E+10	1	0.0438	4	0.000370	0	-1E+10	1	-1E+10	1	-1E+10	1
4902624	13	C	10/29/2024	14:35	-128.174	47.222	0	195.00	0	6.9460	0	33.8570	0	26.528	0	193.286	0	-1e10	1	-1e10	1	-1E+10	1	-1e10	1	-1e10	1	-1E+10	1	-1E+10	1	-1E+10	1
4902624	13	C	10/29/2024	14:35	-128.174	47.222	0	195.70	0	6.9369	0	33.8577	0	26.530	0	193.980	0	84.6	4	28.6	4	-1E+10	1	0.0438	4	0.000391	0	-1E+10	1	-1E+10	1	-1E+10	1
4902624	13	C	10/29/2024	14:35	-128.174	47.222	0	196.80	0	6.9226	0	33.8588	0	26.533	0	195.070	0	84.6	4	28.5	4	-1E+10	1	0.0483	4	0.000390	0	-1E+10	1	-1E+10	1	-1E+10	1
4902624	13	C	10/29/2024	14:35	-128.174	47.222	0	197.00	0	6.9200	0	33.8590	0	26.534	0	195.268	0	-1e10	1	-1e10	1	-1E+10	1	-1e10	1	-1e10	1	-1E+10	1	-1E+10	1	-1E+10	1
4902624	13	C	10/29/2024	14:35	-128.174	47.222	0	197.90	0	6.9080	0	33.8616	0	26.537	0	196.159	0	84.6	4	28.5	4	-1E+10	1	0.0574	4	0.000365	0	-1E+10	1	-1E+10	1	-1E+10	1
4902624	13	C	10/29/2024	14:35	-128.174	47.222	0	199.10	0	6.8920	0	33.8650	0	26.542	0	197.348	0	83.9	4	28.3	4	-1E+10	1	0.0511	4	0.000410	0	-1E+10	1	-1E+10	1	-1E+10	1
4902624	13	C	10/29/2024	14:35	-128.174	47.222	0	200.20	0	6.8798	0	33.8644	0	26.543	0	198.438	0	84.8	4	28.6	4	-1E+10	1	0.0511	4	0.000428	0	-1E+10	1	-1E+10	1	-1E+10	1
4902624	13	C	10/29/2024	14:35	-128.174	47.222	0	201.00	0	6.8710	0	33.8640	0	26.544	0	199.231	0	-1e10	1	-1e10	1	-1E+10	1	-1e10	1	-1e10	1	-1E+10	1	-1E+10	1	-1E+10	1
4902624	13	C	10/29/2024	14:35	-128.174	47.222	0	201.40	0	6.8652	0	33.8660	0	26.546	0	199.627	0	84.9	4	28.6	4	-1E+10	1	0.0511	4	0.000358	0	-1E+10	1	-1E+10	1	-1E+10	1
4902624	13	C	10/29/2024	14:35	-128.174	47.222	0	202.50	0	6.8492	0	33.8715	0	26.553	0	200.717	0	85.1	4	28.7	4	-1E+10	1	0.0558	4	0.000342	0	-1E+10	1	-1E+10	1	-1E+10	1
4902624	13	C	10/29/2024	14:35	-128.174	47.222	0	203.00	0	6.8420	0	33.8740	0	26.556	0	201.212	0	-1e10	1	-1e10	1	-1E+10	1	-1e10	1	-1e10	1	-1E+10	1	-1E+10	1	-1E+10	1
4902624	13	C	10/29/2024	14:35	-128.174	47.222	0	203.70	0	6.8298	0	33.8792	0	26.562	0	201.905	0	85.3	4	28.7	4	-1E+10	1	0.0630	4	0.000358	0	-1E+10	1	-1E+10	1	-1E+10	1
4902624	13	C	10/29/2024	14:35	-128.174	47.222	0	204.80	0	6.8105	0	33.8875	0	26.571	0	202.995	0	85.6	4	28.8	4	-1E+10	1	0.0548	4	0.000369	0	-1E+10	1	-1E+10	1	-1E+10	1
4902624	13	C	10/29/2024	14:35	-128.174	47.222	0	205.00	0	6.8070	0	33.8890	0	26.572	0	203.193	0	-1e10	1	-1e10	1	-1E+10	1	-1e10	1	-1e10	1	-1E+10	1	-1E+10	1	-1E+10	1
4902624	13	C	10/29/2024	14:35	-128.174	47.222	0	206.00	0	6.7950	0	33.8930	0	26.577	0	204.184	0	85.8	4	28.9	4	-1E+10	1	0.0438	4	0.000365	0	-1E+10	1	-1E+10	1	-1E+10	1
4902624	13	C	10/29/2024	14:35	-128.174	47.222	0	207.00	0	6.7830	0	33.8970	0	26.582	0	205.175	0	-1e10	1	-1e10	1	-1E+10	1	-1e10	1	-1e10	1	-1E+10	1	-1E+10	1	-1E+10	1
4902624	13	C	10/29/2024	14:35	-128.174	47.222	0	207.10	0	6.7820	0	33.8972	0	26.582	0	205.274	0	85.9	4	28.9	4	-1E+10	1	0.0425	4	0.000351	0	-1E+10	1	-1E+10	1	-1E+10	1
4902624	13	C	10/29/2024	14:35	-128.174	47.222	0	208.20	0	6.7710	0	33.8989	0	26.585	0	206.364	0	85.9	4	28.9	4	-1E+10	1	0.0375	4	0.000341	0	-1E+10	1	-1E+10	1	-1E+10	1
4902624	13	C	10/29/2024	14:35	-128.174	47.222	0	208.90	0	6.7640	0	33.9000	0	26.587	0	207.057	0	-1e10	1	-1e10	1	-1E+10	1	-1e10	1	-1e10	1	-1E+10	1	-1E+10	1	-1E+10	1
4902624	13	C	10/29/2024	14:35	-128.174	47.222	0	209.40	0	6.7609	0	33.8988	0	26.586	0	207.552	0	85.8	4	28.8	4	-1E+10	1	0.0438	4	0.000451	0	-1E+10	1	-1E+10	1	-1E+10	1
4902624	13	C	10/29/2024	14:35	-128.174	47.222	0	210.60	0	6.7535	0	33.8960	0	26.585	0	208.741	0	85.8	4	28.8	4	-1E+10	1	0.0438	4	0.000411	0	-1E+10	1	-1E+10	1	-1E+10	1
4902624	13	C	10/29/2024	14:35	-128.174	47.222	0	211.00	0	6.7510	0	33.8950	0	26.585	0	209.137	0	-1e10	1	-1e10	1	-1E+10	1	-1e10	1	-1e10	1	-1E+10	1	-1E+10	1	-1E+10	1
4902624	13	C	10/29/2024	14:35	-128.174	47.222	0	211.70	0	6.7468	0	33.8932	0	26.584	0	209.831	0	85.8	4	28.8	4	-1E+10	1	0.0498	4	0.000347	0	-1E+10	1	-1E+10	1	-1E+10	1
4902624	13	C	10/29/2024	14:35	-128.174	47.222	0	212.90	0	6.7396	0	33.8903	0	26.583	0	211.020	0	85.7	4	28.8	4	-1E+10	1	0.0608	4	0.000318	0	-1E+10	1	-1E+10	1	-1E+10	1
4902624	13	C	10/29/2024	14:35	-128.174	47.222	0	213.00	0	6.7390	0	33.8900	0	26.582	0	211.119	0	-1e10	1	-1e10	1	-1E+10	1	-1e10	1	-1e10	1	-1E+10	1	-1E+10	1	-1E+10	1
4902624	13	C	10/29/2024	14:35	-128.174	47.222	0	214.10	0	6.7313	0	33.8872	0	26.581	0	212.209	0	85.7	4	28.8	4	-1E+10	1	0.0620	4	0.000328	0	-1E+10	1	-1E+10	1	-1E+10	1
4902624	13	C	10/29/2024	14:35	-128.174	47.222	0	215.00	0	6.7250	0	33.8850	0	26.580	0	213.100	0	-1e10	1	-1e10	1	-1E+10	1	-1e10	1	-1e10	1	-1E+10	1	-1E+10	1	-1E+10	1
4902624	13	C	10/29/2024	14:35	-128.174	47.222	0	215.20	0	6.7231	0	33.8851	0	26.581	0	213.298	0	85.7	4	28.8	4	-1E+10	1	0.0560	4	0.000373	0	-1E+10	1	-1E+10	1	-1E+10	1
4902624	13	C	10/29/2024	14:35	-128.174	47.222	0	216.40	0	6.7117	0	33.8857	0	26.583	0	214.487	0	85.6	4	28.7	4	-1E+10	1	0.0469	4	0.000401	0	-1E+10	1	-1E+10	1	-1E+10	1
4902624	13	C	10/29/2024	14:35	-128.174	47.222	0	217.00	0	6.7060	0	33.8860	0	26.584	0	215.081	0	-1e10	1	-1e10	1	-1E+10	1	-1e10	1	-1e10	1	-1E+10	1	-1E+10	1	-1E+10	1
4902624	13	C	10/29/2024	14:35	-128.174	47.222	0	217.60	0	6.6991	0	33.8876	0	26.586	0	215.676	0	85.5	4	28.7	4	-1E+10	1	0.0378	4	0.000343	0	-1E+10	1	-1E+10	1	-1E+10	1
4902624	13	C	10/29/2024	14:35	-128.174	47.222	0	218.80	0	6.6852	0	33.8907	0	26.590	0	216.865	0	85.5	4	28.7	4	-1E+10	1	0.0456	4	0.000419	0	-1E+10	1	-1E+10	1	-1E+10	1
4902624	13	C	10/29/2024	14:35	-128.174	47.222	0	218.90	0	6.6840	0	33.8910	0	26.591	0	216.964	0	-1e10	1	-1e10	1	-1E+10	1	-1e10	1	-1e10	1	-1E+10	1	-1E+10	1	-1E+10	1
4902624	13	C	10/29/2024	14:35	-128.174	47.222	0	219.90	0	6.6726	0	33.8939	0	26.594	0	217.954	0	85.3	4	28.6	4	-1E+10	1	0.0511	4	0.000503	0	-1E+10	1	-1E+10	1	-1E+10	1
4902624	13	C	10/29/2024	14:35	-128.174	47.222	0	221.00	0	6.6600	0	33.8970	0	26.599	0	219.044	0	-1e10	1	-1e10	1	-1E+10	1	-1e10	1	-1e10	1	-1E+10	1	-1E+10	1	-1E+10	1
4902624	13	C	10/29/2024	14:35	-128.174	47.222	0	221.10	0	6.6589	0	33.8972	0	26.599	0	219.143	0	85.1	4	28.6	4	-1E+10	1	0.0511	4	0.000322	0	-1E+10	1	-1E+10	1	-1E+10	1
4902624	13	C	10/29/2024	14:35	-128.174	47.222	0	222.30	0	6.6463	0	33.8996	0	26.602	0	220.332	0	84.8	4	28.4	4	-1E+10	1	0.0636	4	0.000322	0	-1E+10	1	-1E+10	1	-1E+10	1
4902624	13	C	10/29/2024	14:35	-128.174	47.222	0	223.00	0	6.6390	0	33.9010	0	26.605	0	221.025	0	-1e10	1	-1e10	1	-1E+10	1	-1e10	1	-1e10	1	-1E+10	1	-1E+10	1	-1E+10	1
4902624	13	C	10/29/2024	14:35	-128.174	47.222	0	223.40	0	6.6348	0	33.9018	0	26.606	0	221.421	0	84.4	4	28.3	4	-1E+10	1	0.0478	4	0.000332	0	-1E+10	1	-1E+10	1	-1E+10	1
4902624	13	C	10/29/2024	14:35	-128.174	47.222	0	224.60	0	6.6222	0	33.9042	0	26.609	0	222.610	0	84.1	4	28.2	4	-1E+10	1	0.0490	4	0.000287	0	-1E+10	1	-1E+10	1	-1E+10	1
4902624	13	C	10/29/2024	14:35	-128.174	47.222	0	225.00	0	6.6180	0	33.9050	0	26.611	0	223.006	0	-1e10	1	-1e10	1	-1E+10	1	-1e10	1	-1e10	1	-1E+10	1	-1E+10	1	-1E+10	1
4902624	13	C	10/29/2024	14:35	-128.174	47.222	0	225.70	0	6.6103	0	33.9074	0	26.613	0	223.700	0	83.8	4	28.1	4	-1E+10	1	0.0548	4	0.000319	0	-1E+10	1	-1E+10	1	-1E+10	1
4902624	13	C	10/29/2024	14:35	-128.174	47.222	0	226.90	0	6.5971	0	33.9116	0	26.619	0	224.888	0	83.5	4	28.0	4	-1E+10	1	0.0554	4	0.000350	0	-1E+10	1	-1E+10	1	-1E+10	1
4902624	13	C	10/29/2024	14:35	-128.174	47.222	0	227.00	0	6.5960	0	33.9120	0	26.619	0	224.988	0	-1e10	1	-1e10	1	-1E+10	1	-1e10	1	-1e10	1	-1E+10	1	-1E+10	1	-1E+10	1
4902624	13	C	10/29/2024	14:35	-128.174	47.222	0	228.00	0	6.5865	0	33.9144	0	26.622	0	225.978	0	83.2	4	27.9	4	-1E+10	1	0.0533	4	0.000319	0	-1E+10	1	-1E+10	1	-1E+10	1
4902624	13	C	10/29/2024	14:35	-128.174	47.222	0	229.10	0	6.5760	0	33.9170	0	26.626	0	227.068	0	82.1	4	27.5	4	-1E+10	1	0.0572	4	0.000316	0	-1E+10	1	-1E+10	1	-1E+10	1
4902624	13	C	10/29/2024	14:35	-128.174	47.222	0	230.10	0	6.5650	0	33.9190	0	26.629	0	228.058	0	82.7	4	27.7	4	-1E+10	1	0.0511	4	0.000346	0	-1E+10	1	-1E+10	1	-1E+10	1
4902624	13	C	10/29/2024	14:35	-128.174	47.222	0	230.90	0	6.5562	0	33.9206	0	26.631	0	228.851	0	82.4	4	27.6	4	-1E+10	1	0.0511	4	0.000311	0	-1E+10	1	-1E+10	1	-1E+10	1
4902624	13	C	10/29/2024	14:35	-128.174	47.222	0	231.10	0	6.5540	0	33.9210	0	26.632	0	229.049	0	-1e10	1	-1e10	1	-1E+10	1	-1e10	1	-1e10	1	-1E+10	1	-1E+10	1	-1E+10	1
4902624	13	C	10/29/2024	14:35	-128.174	47.222	0	231.70	0	6.5496	0	33.9188	0	26.630	0	229.643	0	82.1	4	27.5	4	-1E+10	1	0.0641	4	0.000279	0	-1E+10	1	-1E+10	1	-1E+10	1
4902624	13	C	10/29/2024	14:35	-128.174	47.222	0	232.40	0	6.5444	0	33.9162	0	26.629	0	230.337	0	81.9	4	27.4	4	-1E+10	1	0.0657	4	0.000267	0	-1E+10	1	-1E+10	1	-1E+10	1
4902624	13	C	10/29/2024	14:35	-128.174	47.222	0	233.00	0	6.5400	0	33.9140	0	26.628	0	230.931	0	-1e10	1	-1e10	1	-1E+10	1	-1e10	1	-1e10	1	-1E+10	1	-1E+10	1	-1E+10	1
4902624	13	C	10/29/2024	14:35	-128.174	47.222	0	233.20	0	6.5372	0	33.9147	0	26.629	0	231.129	0	81.7	4	27.3	4	-1E+10	1	0.0566	4	0.000293	0	-1E+10	1	-1E+10	1	-1E+10	1
4902624	13	C	10/29/2024	14:35	-128.174	47.222	0	233.90	0	6.5272	0	33.9173	0	26.632	0	231.823	0	81.6	4	27.3	4	-1E+10	1	0.0511	4	0.000300	0	-1E+10	1	-1E+10	1	-1E+10	1
4902624	13	C	10/29/2024	14:35	-128.174	47.222	0	234.70	0	6.5158	0	33.9203	0	26.636	0	232.615	0	81.6	4	27.3	4	-1E+10	1	0.0487	4	0.000346	0	-1E+10	1	-1E+10	1	-1E+10	1
4902624	13	C	10/29/2024	14:35	-128.174	47.222	0	234.90	0	6.5130	0	33.9210	0	26.637	0	232.813	0	-1e10	1	-1e10	1	-1E+10	1	-1e10	1	-1e10	1	-1E+10	1	-1E+10	1	-1E+10	1
4902624	13	C	10/29/2024	14:35	-128.174	47.222	0	235.50	0	6.5031	0	33.9258	0	26.642	0	233.407	0	81.7	4	27.3	4	-1E+10	1	0.0456	4	0.000416	0	-1E+10	1	-1E+10	1	-1E+10	1
4902624	13	C	10/29/2024	14:35	-128.174	47.222	0	236.20	0	6.4915	0	33.9314	0	26.648	0	234.101	0	81.5	4	27.2	4	-1E+10	1	0.0519	4	0.000275	0	-1E+10	1	-1E+10	1	-1E+10	1
4902624	13	C	10/29/2024	14:35	-128.174	47.222	0	236.90	0	6.4800	0	33.9370	0	26.654	0	234.794	0	-1e10	1	-1e10	1	-1E+10	1	-1e10	1	-1e10	1	-1E+10	1	-1E+10	1	-1E+10	1
4902624	13	C	10/29/2024	14:35	-128.174	47.222	0	237.00	0	6.4790	0	33.9372	0	26.654	0	234.893	0	81.2	4	27.1	4	-1E+10	1	0.0584	4	0.000275	0	-1E+10	1	-1E+10	1	-1E+10	1
4902624	13	C	10/29/2024	14:35	-128.174	47.222	0	237.90	0	6.4705	0	33.9389	0	26.657	0	235.785	0	80.9	4	27.0	4	-1E+10	1	0.0511	4	0.000264	0	-1E+10	1	-1E+10	1	-1E+10	1
4902624	13	C	10/29/2024	14:35	-128.174	47.222	0	238.60	0	6.4638	0	33.9402	0	26.659	0	236.478	0	80.6	4	26.9	4	-1E+10	1	0.0511	4	0.000284	0	-1E+10	1	-1E+10	1	-1E+10	1
4902624	13	C	10/29/2024	14:35	-128.174	47.222	0	239.00	0	6.4600	0	33.9410	0	26.660	0	236.874	0	-1e10	1	-1e10	1	-1E+10	1	-1e10	1	-1e10	1	-1E+10	1	-1E+10	1	-1E+10	1
4902624	13	C	10/29/2024	14:35	-128.174	47.222	0	239.30	0	6.4588	0	33.9395	0	26.659	0	237.171	0	80.1	4	26.8	4	-1E+10	1	0.0414	4	0.000279	0	-1E+10	1	-1E+10	1	-1E+10	1
4902624	13	C	10/29/2024	14:35	-128.174	47.222	0	240.10	0	6.4556	0	33.9355	0	26.656	0	237.964	0	79.7	4	26.6	4	-1E+10	1	0.0438	4	0.000299	0	-1E+10	1	-1E+10	1	-1E+10	1
4902624	13	C	10/29/2024	14:35	-128.174	47.222	0	240.90	0	6.4524	0	33.9315	0	26.653	0	238.756	0	79.2	4	26.4	4	-1E+10	1	0.0511	4	0.000305	0	-1E+10	1	-1E+10	1	-1E+10	1
4902624	13	C	10/29/2024	14:35	-128.174	47.222	0	241.00	0	6.4520	0	33.9310	0	26.653	0	238.855	0	-1e10	1	-1e10	1	-1E+10	1	-1e10	1	-1e10	1	-1E+10	1	-1E+10	1	-1E+10	1
4902624	13	C	10/29/2024	14:35	-128.174	47.222	0	241.70	0	6.4499	0	33.9268	0	26.650	0	239.549	0	78.7	4	26.3	4	-1E+10	1	0.0511	4	0.000268	0	-1E+10	1	-1E+10	1	-1E+10	1
4902624	13	C	10/29/2024	14:35	-128.174	47.222	0	242.50	0	6.4475	0	33.9220	0	26.646	0	240.341	0	78.3	4	26.1	4	-1E+10	1	0.0495	4	0.000250	0	-1E+10	1	-1E+10	1	-1E+10	1
4902624	13	C	10/29/2024	14:35	-128.174	47.222	0	243.00	0	6.4460	0	33.9190	0	26.644	0	240.836	0	-1e10	1	-1e10	1	-1E+10	1	-1e10	1	-1e10	1	-1E+10	1	-1E+10	1	-1E+10	1
4902624	13	C	10/29/2024	14:35	-128.174	47.222	0	243.30	0	6.4421	0	33.9203	0	26.646	0	241.134	0	77.9	4	26.0	4	-1E+10	1	0.0365	4	0.000240	0	-1E+10	1	-1E+10	1	-1E+10	1
4902624	13	C	10/29/2024	14:35	-128.174	47.222	0	244.20	0	6.4304	0	33.9244	0	26.651	0	242.025	0	77.7	4	25.9	4	-1E+10	1	0.0292	4	0.000263	0	-1E+10	1	-1E+10	1	-1E+10	1
4902624	13	C	10/29/2024	14:35	-128.174	47.222	0	245.00	0	6.4200	0	33.9280	0	26.655	0	242.817	0	76.6	4	25.6	4	-1E+10	1	0.0526	4	0.000263	0	-1E+10	1	-1E+10	1	-1E+10	1
4902624	13	C	10/29/2024	14:35	-128.174	47.222	0	245.80	0	6.4096	0	33.9320	0	26.659	0	243.610	0	77.0	4	25.7	4	-1E+10	1	0.0584	4	0.000299	0	-1E+10	1	-1E+10	1	-1E+10	1
4902624	13	C	10/29/2024	14:35	-128.174	47.222	0	246.70	0	6.3979	0	33.9365	0	26.664	0	244.501	0	76.4	4	25.5	4	-1E+10	1	0.0538	4	0.000274	0	-1E+10	1	-1E+10	1	-1E+10	1
4902624	13	C	10/29/2024	14:35	-128.174	47.222	0	247.00	0	6.3940	0	33.9380	0	26.666	0	244.798	0	-1e10	1	-1e10	1	-1E+10	1	-1e10	1	-1e10	1	-1E+10	1	-1E+10	1	-1E+10	1
4902624	13	C	10/29/2024	14:35	-128.174	47.222	0	247.50	0	6.3920	0	33.9360	0	26.665	0	245.294	0	75.8	4	25.3	4	-1E+10	1	0.0584	4	0.000272	0	-1E+10	1	-1E+10	1	-1E+10	1
4902624	13	C	10/29/2024	14:35	-128.174	47.222	0	248.30	0	6.3888	0	33.9328	0	26.663	0	246.086	0	75.3	4	25.1	4	-1E+10	1	0.0591	4	0.000286	0	-1E+10	1	-1E+10	1	-1E+10	1
4902624	13	C	10/29/2024	14:35	-128.174	47.222	0	249.00	0	6.3860	0	33.9300	0	26.661	0	246.779	0	-1e10	1	-1e10	1	-1E+10	1	-1e10	1	-1e10	1	-1E+10	1	-1E+10	1	-1E+10	1
4902624	13	C	10/29/2024	14:35	-128.174	47.222	0	249.20	0	6.3853	0	33.9289	0	26.660	0	246.978	0	74.9	4	25.0	4	-1E+10	1	0.0456	4	0.000261	0	-1E+10	1	-1E+10	1	-1E+10	1
4902624	13	C	10/29/2024	14:35	-128.174	47.222	0	250.00	0	6.3823	0	33.9247	0	26.657	0	247.770	0	74.5	4	24.8	4	-1E+10	1	0.0538	4	0.000270	0	-1E+10	1	-1E+10	1	-1E+10	1
4902624	13	C	10/29/2024	14:35	-128.174	47.222	0	250.90	0	6.3790	0	33.9200	0	26.654	0	248.661	0	73.4	4	24.5	4	-1E+10	1	0.0657	4	0.000244	0	-1E+10	1	-1E+10	1	-1E+10	1
4902624	13	C	10/29/2024	14:35	-128.174	47.222	0	251.80	0	6.3727	0	33.9182	0	26.653	0	249.553	0	74.0	4	24.7	4	-1E+10	1	0.0526	4	0.000378	0	-1E+10	1	-1E+10	1	-1E+10	1
4902624	13	C	10/29/2024	14:35	-128.174	47.222	0	252.60	0	6.3671	0	33.9166	0	26.653	0	250.345	0	73.7	4	24.6	4	-1E+10	1	0.0568	4	0.000265	0	-1E+10	1	-1E+10	1	-1E+10	1
4902624	13	C	10/29/2024	14:35	-128.174	47.222	0	252.90	0	6.3650	0	33.9160	0	26.653	0	250.642	0	-1e10	1	-1e10	1	-1E+10	1	-1e10	1	-1e10	1	-1E+10	1	-1E+10	1	-1E+10	1
4902624	13	C	10/29/2024	14:35	-128.174	47.222	0	253.50	0	6.3610	0	33.9143	0	26.652	0	251.237	0	73.4	4	24.5	4	-1E+10	1	0.0686	4	0.000269	0	-1E+10	1	-1E+10	1	-1E+10	1
4902624	13	C	10/29/2024	14:35	-128.174	47.222	0	254.30	0	6.3557	0	33.9120	0	26.651	0	252.029	0	73.1	4	24.3	4	-1E+10	1	0.0630	4	0.000255	0	-1E+10	1	-1E+10	1	-1E+10	1
4902624	13	C	10/29/2024	14:35	-128.174	47.222	0	255.00	0	6.3510	0	33.9100	0	26.650	0	252.722	0	-1e10	1	-1e10	1	-1E+10	1	-1e10	1	-1e10	1	-1E+10	1	-1E+10	1	-1E+10	1
4902624	13	C	10/29/2024	14:35	-128.174	47.222	0	255.20	0	6.3494	0	33.9095	0	26.649	0	252.920	0	72.7	4	24.2	4	-1E+10	1	0.0456	4	0.000234	0	-1E+10	1	-1E+10	1	-1E+10	1
4902624	13	C	10/29/2024	14:35	-128.174	47.222	0	256.10	0	6.3422	0	33.9072	0	26.649	0	253.812	0	72.3	4	24.1	4	-1E+10	1	0.0453	4	0.000268	0	-1E+10	1	-1E+10	1	-1E+10	1
4902624	13	C	10/29/2024	14:35	-128.174	47.222	0	256.90	0	6.3358	0	33.9053	0	26.648	0	254.604	0	72.0	4	24.0	4	-1E+10	1	0.0571	4	0.000288	0	-1E+10	1	-1E+10	1	-1E+10	1
4902624	13	C	10/29/2024	14:35	-128.174	47.222	0	257.00	0	6.3350	0	33.9050	0	26.648	0	254.703	0	-1e10	1	-1e10	1	-1E+10	1	-1e10	1	-1e10	1	-1E+10	1	-1E+10	1	-1E+10	1
4902624	13	C	10/29/2024	14:35	-128.174	47.222	0	257.80	0	6.3254	0	33.9070	0	26.651	0	255.495	0	71.8	4	23.9	4	-1E+10	1	0.0511	4	0.000346	0	-1E+10	1	-1E+10	1	-1E+10	1
4902624	13	C	10/29/2024	14:35	-128.174	47.222	0	258.70	0	6.3146	0	33.9092	0	26.654	0	256.387	0	71.5	4	23.8	4	-1E+10	1	0.0511	4	0.000228	0	-1E+10	1	-1E+10	1	-1E+10	1
4902624	13	C	10/29/2024	14:35	-128.174	47.222	0	259.00	0	6.3110	0	33.9100	0	26.655	0	256.684	0	-1e10	1	-1e10	1	-1E+10	1	-1e10	1	-1e10	1	-1E+10	1	-1E+10	1	-1E+10	1
4902624	13	C	10/29/2024	14:35	-128.174	47.222	0	259.60	0	6.3053	0	33.9097	0	26.655	0	257.278	0	71.2	4	23.7	4	-1E+10	1	0.0511	4	0.000257	0	-1E+10	1	-1E+10	1	-1E+10	1
4902624	13	C	10/29/2024	14:35	-128.174	47.222	0	260.50	0	6.2968	0	33.9092	0	26.656	0	258.170	0	70.7	4	23.5	4	-1E+10	1	0.0650	4	0.001853	0	-1E+10	1	-1E+10	1	-1E+10	1
4902624	13	C	10/29/2024	14:35	-128.174	47.222	0	261.00	0	6.2920	0	33.9090	0	26.657	0	258.665	0	-1e10	1	-1e10	1	-1E+10	1	-1e10	1	-1e10	1	-1E+10	1	-1E+10	1	-1E+10	1
4902624	13	C	10/29/2024	14:35	-128.174	47.222	0	261.40	0	6.2890	0	33.9078	0	26.656	0	259.061	0	70.3	4	23.4	4	-1E+10	1	0.0593	4	0.001215	0	-1E+10	1	-1E+10	1	-1E+10	1
4902624	13	C	10/29/2024	14:35	-128.174	47.222	0	262.30	0	6.2822	0	33.9051	0	26.655	0	259.952	0	69.8	4	23.2	4	-1E+10	1	0.0511	4	0.000268	0	-1E+10	1	-1E+10	1	-1E+10	1
4902624	13	C	10/29/2024	14:35	-128.174	47.222	0	263.00	0	6.2770	0	33.9030	0	26.654	0	260.646	0	-1e10	1	-1e10	1	-1E+10	1	-1e10	1	-1e10	1	-1E+10	1	-1E+10	1	-1E+10	1
4902624	13	C	10/29/2024	14:35	-128.174	47.222	0	263.10	0	6.2761	0	33.9029	0	26.654	0	260.745	0	69.4	4	23.1	4	-1E+10	1	0.0491	4	0.000258	0	-1E+10	1	-1E+10	1	-1E+10	1
4902624	13	C	10/29/2024	14:35	-128.174	47.222	0	264.00	0	6.2685	0	33.9015	0	26.654	0	261.636	0	69.2	4	23.0	4	-1E+10	1	0.0456	4	0.000269	0	-1E+10	1	-1E+10	1	-1E+10	1
4902624	13	C	10/29/2024	14:35	-128.174	47.222	0	264.90	0	6.2609	0	33.9002	0	26.654	0	262.528	0	69.0	4	22.9	4	-1E+10	1	0.0572	4	0.000236	0	-1E+10	1	-1E+10	1	-1E+10	1
4902624	13	C	10/29/2024	14:35	-128.174	47.222	0	265.00	0	6.2600	0	33.9000	0	26.654	0	262.627	0	-1e10	1	-1e10	1	-1E+10	1	-1e10	1	-1e10	1	-1E+10	1	-1E+10	1	-1E+10	1
4902624	13	C	10/29/2024	14:35	-128.174	47.222	0	265.90	0	6.2515	0	33.8981	0	26.653	0	263.518	0	68.7	4	22.8	4	-1E+10	1	0.0511	4	0.000275	0	-1E+10	1	-1E+10	1	-1E+10	1
4902624	13	C	10/29/2024	14:35	-128.174	47.222	0	266.80	0	6.2429	0	33.8962	0	26.653	0	264.409	0	68.2	4	22.7	4	-1E+10	1	0.0511	4	0.000290	0	-1E+10	1	-1E+10	1	-1E+10	1
4902624	13	C	10/29/2024	14:35	-128.174	47.222	0	266.90	0	6.2420	0	33.8960	0	26.653	0	264.508	0	-1e10	1	-1e10	1	-1E+10	1	-1e10	1	-1e10	1	-1E+10	1	-1E+10	1	-1E+10	1
4902624	13	C	10/29/2024	14:35	-128.174	47.222	0	267.70	0	6.2351	0	33.8945	0	26.652	0	265.301	0	67.8	4	22.5	4	-1E+10	1	0.0576	4	0.000308	0	-1E+10	1	-1E+10	1	-1E+10	1
4902624	13	C	10/29/2024	14:35	-128.174	47.222	0	268.60	0	6.2274	0	33.8928	0	26.652	0	266.192	0	67.7	4	22.5	4	-1E+10	1	0.0535	4	0.000258	0	-1E+10	1	-1E+10	1	-1E+10	1
4902624	13	C	10/29/2024	14:35	-128.174	47.222	0	269.00	0	6.2240	0	33.8920	0	26.652	0	266.588	0	-1e10	1	-1e10	1	-1E+10	1	-1e10	1	-1e10	1	-1E+10	1	-1E+10	1	-1E+10	1
4902624	13	C	10/29/2024	14:35	-128.174	47.222	0	269.50	0	6.2172	0	33.8936	0	26.654	0	267.083	0	67.6	4	22.4	4	-1E+10	1	0.0577	4	0.000257	0	-1E+10	1	-1E+10	1	-1E+10	1
4902624	13	C	10/29/2024	14:35	-128.174	47.222	0	270.40	0	6.2048	0	33.8964	0	26.658	0	267.975	0	67.5	4	22.4	4	-1E+10	1	0.0633	4	0.000279	0	-1E+10	1	-1E+10	1	-1E+10	1
4902624	13	C	10/29/2024	14:35	-128.174	47.222	0	270.90	0	6.1980	0	33.8980	0	26.660	0	268.470	0	-1e10	1	-1e10	1	-1E+10	1	-1e10	1	-1e10	1	-1E+10	1	-1E+10	1	-1E+10	1
4902624	13	C	10/29/2024	14:35	-128.174	47.222	0	271.40	0	6.1904	0	33.9011	0	26.663	0	268.965	0	67.3	4	22.3	4	-1E+10	1	0.0557	4	0.000272	0	-1E+10	1	-1E+10	1	-1E+10	1
4902624	13	C	10/29/2024	14:35	-128.174	47.222	0	272.30	0	6.1767	0	33.9067	0	26.670	0	269.856	0	67.1	4	22.3	4	-1E+10	1	0.0535	4	0.000281	0	-1E+10	1	-1E+10	1	-1E+10	1
4902624	13	C	10/29/2024	14:35	-128.174	47.222	0	273.00	0	6.1660	0	33.9110	0	26.674	0	270.550	0	-1e10	1	-1e10	1	-1E+10	1	-1e10	1	-1e10	1	-1E+10	1	-1E+10	1	-1E+10	1
4902624	13	C	10/29/2024	14:35	-128.174	47.222	0	273.30	0	6.1606	0	33.9144	0	26.678	0	270.847	0	66.9	4	22.2	4	-1E+10	1	0.0657	4	0.000252	0	-1E+10	1	-1E+10	1	-1E+10	1
4902624	13	C	10/29/2024	14:35	-128.174	47.222	0	274.20	0	6.1444	0	33.9248	0	26.688	0	271.738	0	66.6	4	22.1	4	-1E+10	1	0.0511	4	0.000287	0	-1E+10	1	-1E+10	1	-1E+10	1
4902624	13	C	10/29/2024	14:35	-128.174	47.222	0	275.00	0	6.1300	0	33.9340	0	26.697	0	272.530	0	-1e10	1	-1e10	1	-1E+10	1	-1e10	1	-1e10	1	-1E+10	1	-1E+10	1	-1E+10	1
4902624	13	C	10/29/2024	14:35	-128.174	47.222	0	275.20	0	6.1266	0	33.9364	0	26.699	0	272.729	0	66.3	4	22.0	4	-1E+10	1	0.0450	4	0.000257	0	-1E+10	1	-1E+10	1	-1E+10	1
4902624	13	C	10/29/2024	14:35	-128.174	47.222	0	276.20	0	6.1094	0	33.9483	0	26.711	0	273.719	0	66.0	4	21.9	4	-1E+10	1	0.0491	4	0.000269	0	-1E+10	1	-1E+10	1	-1E+10	1
4902624	13	C	10/29/2024	14:35	-128.174	47.222	0	277.10	0	6.0940	0	33.9590	0	26.721	0	274.610	0	65.0	4	21.5	4	-1E+10	1	0.0467	4	0.000268	0	-1E+10	1	-1E+10	1	-1E+10	1
4902624	13	C	10/29/2024	14:35	-128.174	47.222	0	278.10	0	6.0785	0	33.9715	0	26.733	0	275.601	0	65.4	4	21.7	4	-1E+10	1	0.0511	4	0.000287	0	-1E+10	1	-1E+10	1	-1E+10	1
4902624	13	C	10/29/2024	14:35	-128.174	47.222	0	279.10	0	6.0630	0	33.9840	0	26.745	0	276.591	0	64.4	4	21.3	4	-1E+10	1	0.0584	4	0.000295	0	-1E+10	1	-1E+10	1	-1E+10	1
4902624	13	C	10/29/2024	14:35	-128.174	47.222	0	280.00	0	6.0550	0	33.9905	0	26.751	0	277.482	0	64.7	4	21.4	4	-1E+10	1	0.0576	4	0.000263	0	-1E+10	1	-1E+10	1	-1E+10	1
4902624	13	C	10/29/2024	14:35	-128.174	47.222	0	280.90	0	6.0470	0	33.9970	0	26.757	0	278.373	0	-1e10	1	-1e10	1	-1E+10	1	-1e10	1	-1e10	1	-1E+10	1	-1E+10	1	-1E+10	1
4902624	13	C	10/29/2024	14:35	-128.174	47.222	0	281.00	0	6.0468	0	33.9971	0	26.757	0	278.473	0	64.2	4	21.2	4	-1E+10	1	0.0511	4	0.000271	0	-1E+10	1	-1E+10	1	-1E+10	1
4902624	13	C	10/29/2024	14:35	-128.174	47.222	0	282.00	0	6.0448	0	33.9976	0	26.758	0	279.463	0	63.5	4	21.0	4	-1E+10	1	0.0511	4	0.000310	0	-1E+10	1	-1E+10	1	-1E+10	1
4902624	13	C	10/29/2024	14:35	-128.174	47.222	0	282.90	0	6.0430	0	33.9980	0	26.759	0	280.354	0	-1e10	1	-1e10	1	-1E+10	1	-1e10	1	-1e10	1	-1E+10	1	-1E+10	1	-1E+10	1
4902624	13	C	10/29/2024	14:35	-128.174	47.222	0	283.00	0	6.0430	0	33.9979	0	26.759	0	280.453	0	62.9	4	20.8	4	-1E+10	1	0.0511	4	0.000251	0	-1E+10	1	-1E+10	1	-1E+10	1
4902624	13	C	10/29/2024	14:35	-128.174	47.222	0	284.00	0	6.0424	0	33.9963	0	26.757	0	281.443	0	62.3	4	20.6	4	-1E+10	1	0.0511	4	0.000305	0	-1E+10	1	-1E+10	1	-1E+10	1
4902624	13	C	10/29/2024	14:35	-128.174	47.222	0	284.90	0	6.0420	0	33.9950	0	26.756	0	282.335	0	-1e10	1	-1e10	1	-1E+10	1	-1e10	1	-1e10	1	-1E+10	1	-1E+10	1	-1E+10	1
4902624	13	C	10/29/2024	14:35	-128.174	47.222	0	285.00	0	6.0417	0	33.9951	0	26.757	0	282.434	0	61.8	4	20.5	4	-1E+10	1	0.0560	4	0.000267	0	-1E+10	1	-1E+10	1	-1E+10	1
4902624	13	C	10/29/2024	14:35	-128.174	47.222	0	286.00	0	6.0389	0	33.9966	0	26.758	0	283.424	0	61.5	4	20.3	4	-1E+10	1	0.0511	4	0.000240	0	-1E+10	1	-1E+10	1	-1E+10	1
4902624	13	C	10/29/2024	14:35	-128.174	47.222	0	287.00	0	6.0360	0	33.9980	0	26.760	0	284.414	0	60.5	4	20.0	4	-1E+10	1	0.0438	4	0.000240	0	-1E+10	1	-1E+10	1	-1E+10	1
4902624	13	C	10/29/2024	14:35	-128.174	47.222	0	288.00	0	6.0301	0	34.0035	0	26.765	0	285.405	0	61.0	4	20.2	4	-1E+10	1	0.0462	4	0.000236	0	-1E+10	1	-1E+10	1	-1E+10	1
4902624	13	C	10/29/2024	14:35	-128.174	47.222	0	289.00	0	6.0242	0	34.0089	0	26.770	0	286.395	0	60.7	4	20.1	4	-1E+10	1	0.0499	4	0.000238	0	-1E+10	1	-1E+10	1	-1E+10	1
4902624	13	C	10/29/2024	14:35	-128.174	47.222	0	289.20	0	6.0230	0	34.0100	0	26.771	0	286.593	0	-1e10	1	-1e10	1	-1E+10	1	-1e10	1	-1e10	1	-1E+10	1	-1E+10	1	-1E+10	1
4902624	13	C	10/29/2024	14:35	-128.174	47.222	0	290.00	0	6.0212	0	34.0113	0	26.772	0	287.385	0	60.3	4	20.0	4	-1E+10	1	0.0438	4	0.000287	0	-1E+10	1	-1E+10	1	-1E+10	1
4902624	13	C	10/29/2024	14:35	-128.174	47.222	0	291.00	0	6.0190	0	34.0130	0	26.774	0	288.376	0	59.3	4	19.6	4	-1E+10	1	0.0730	4	0.000255	0	-1E+10	1	-1E+10	1	-1E+10	1
4902624	13	C	10/29/2024	14:35	-128.174	47.222	0	292.00	0	6.0185	0	34.0135	0	26.774	0	289.366	0	59.5	4	19.7	4	-1E+10	1	0.0608	4	0.000242	0	-1E+10	1	-1E+10	1	-1E+10	1
4902624	13	C	10/29/2024	14:35	-128.174	47.222	0	293.00	0	6.0180	0	34.0140	0	26.775	0	290.356	0	58.4	4	19.3	4	-1E+10	1	0.0633	4	0.000247	0	-1E+10	1	-1E+10	1	-1E+10	1
4902624	13	C	10/29/2024	14:35	-128.174	47.222	0	294.00	0	6.0191	0	34.0129	0	26.774	0	291.346	0	58.7	4	19.4	4	-1E+10	1	0.0613	4	0.000251	0	-1E+10	1	-1E+10	1	-1E+10	1
4902624	13	C	10/29/2024	14:35	-128.174	47.222	0	294.90	0	6.0200	0	34.0120	0	26.773	0	292.238	0	-1e10	1	-1e10	1	-1E+10	1	-1e10	1	-1e10	1	-1E+10	1	-1E+10	1	-1E+10	1
4902624	13	C	10/29/2024	14:35	-128.174	47.222	0	295.00	0	6.0203	0	34.0116	0	26.772	0	292.337	0	58.2	4	19.3	4	-1E+10	1	0.0584	4	0.000251	0	-1E+10	1	-1E+10	1	-1E+10	1
4902624	13	C	10/29/2024	14:35	-128.174	47.222	0	296.10	0	6.0234	0	34.0074	0	26.769	0	293.426	0	57.8	4	19.1	4	-1E+10	1	0.0617	4	0.000246	0	-1E+10	1	-1E+10	1	-1E+10	1
4902624	13	C	10/29/2024	14:35	-128.174	47.222	0	297.00	0	6.0260	0	34.0040	0	26.766	0	294.317	0	-1e10	1	-1e10	1	-1E+10	1	-1e10	1	-1e10	1	-1E+10	1	-1E+10	1	-1E+10	1
4902624	13	C	10/29/2024	14:35	-128.174	47.222	0	297.10	0	6.0264	0	34.0036	0	26.765	0	294.416	0	57.4	4	19.0	4	-1E+10	1	0.0599	4	0.000305	0	-1E+10	1	-1E+10	1	-1E+10	1
4902624	13	C	10/29/2024	14:35	-128.174	47.222	0	298.10	0	6.0299	0	33.9991	0	26.761	0	295.407	0	56.9	4	18.8	4	-1E+10	1	0.0517	4	0.000400	0	-1E+10	1	-1E+10	1	-1E+10	1
4902624	13	C	10/29/2024	14:35	-128.174	47.222	0	299.00	0	6.0330	0	33.9950	0	26.758	0	296.298	0	-1e10	1	-1e10	1	-1E+10	1	-1e10	1	-1e10	1	-1E+10	1	-1E+10	1	-1E+10	1
4902624	13	C	10/29/2024	14:35	-128.174	47.222	0	305.00	0	6.0440	0	33.9600	0	26.729	0	302.239	0	-1e10	1	-1e10	1	-1E+10	1	-1e10	1	-1e10	1	-1E+10	1	-1E+10	1	-1E+10	1
4902624	13	C	10/29/2024	14:35	-128.174	47.222	0	308.40	0	6.0329	0	33.9549	0	26.726	0	305.606	0	53.6	4	17.7	4	-1E+10	1	0.0654	4	0.000300	0	-1E+10	1	-1E+10	1	-1E+10	1
4902624	13	C	10/29/2024	14:35	-128.174	47.222	0	315.10	0	6.0110	0	33.9450	0	26.721	0	312.240	0	-1e10	1	-1e10	1	-1E+10	1	-1e10	1	-1e10	1	-1E+10	1	-1E+10	1	-1E+10	1
4902624	13	C	10/29/2024	14:35	-128.174	47.222	0	319.00	0	5.9943	0	33.9362	0	26.716	0	316.102	0	50.2	4	16.6	4	-1E+10	1	0.0584	4	0.000334	0	-1E+10	1	-1E+10	1	-1E+10	1
4902624	13	C	10/29/2024	14:35	-128.174	47.222	0	324.90	0	5.9690	0	33.9230	0	26.709	0	321.944	0	-1e10	1	-1e10	1	-1E+10	1	-1e10	1	-1e10	1	-1E+10	1	-1E+10	1	-1E+10	1
4902624	13	C	10/29/2024	14:35	-128.174	47.222	0	329.50	0	5.9338	0	33.9271	0	26.717	0	326.498	0	49.1	4	16.2	4	-1E+10	1	0.0574	4	0.000343	0	-1E+10	1	-1E+10	1	-1E+10	1
4902624	13	C	10/29/2024	14:35	-128.174	47.222	0	335.10	0	5.8910	0	33.9320	0	26.726	0	332.043	0	-1e10	1	-1e10	1	-1E+10	1	-1e10	1	-1e10	1	-1E+10	1	-1E+10	1	-1E+10	1
4902624	13	C	10/29/2024	14:35	-128.174	47.222	0	339.90	0	5.8512	0	33.9474	0	26.743	0	336.795	0	47.8	4	15.8	4	-1E+10	1	0.0373	4	0.000312	0	-1E+10	1	-1E+10	1	-1E+10	1
4902624	13	C	10/29/2024	14:35	-128.174	47.222	0	345.10	0	5.8080	0	33.9640	0	26.762	0	341.943	0	-1e10	1	-1e10	1	-1E+10	1	-1e10	1	-1e10	1	-1E+10	1	-1E+10	1	-1E+10	1
4902624	13	C	10/29/2024	14:35	-128.174	47.222	0	350.50	0	5.7738	0	33.9923	0	26.788	0	347.289	0	47.0	4	15.4	4	-1E+10	1	0.0581	4	0.000356	0	-1E+10	1	-1E+10	1	-1E+10	1
4902624	13	C	10/29/2024	14:35	-128.174	47.222	0	355.20	0	5.7440	0	34.0170	0	26.812	0	351.942	0	-1e10	1	-1e10	1	-1E+10	1	-1e10	1	-1e10	1	-1E+10	1	-1E+10	1	-1E+10	1
4902624	13	C	10/29/2024	14:35	-128.174	47.222	0	361.20	0	5.7244	0	34.0243	0	26.820	0	357.882	0	45.9	4	15.1	4	-1E+10	1	0.0511	4	0.000342	0	-1E+10	1	-1E+10	1	-1E+10	1
4902624	13	C	10/29/2024	14:35	-128.174	47.222	0	365.00	0	5.7120	0	34.0290	0	26.825	0	361.644	0	-1e10	1	-1e10	1	-1E+10	1	-1e10	1	-1e10	1	-1E+10	1	-1E+10	1	-1E+10	1
4902624	13	C	10/29/2024	14:35	-128.174	47.222	0	372.00	0	5.6591	0	34.0283	0	26.831	0	368.573	0	45.0	4	14.8	4	-1E+10	1	0.0511	4	0.000276	0	-1E+10	1	-1E+10	1	-1E+10	1
4902624	13	C	10/29/2024	14:35	-128.174	47.222	0	374.80	0	5.6380	0	34.0280	0	26.833	0	371.345	0	-1e10	1	-1e10	1	-1E+10	1	-1e10	1	-1e10	1	-1E+10	1	-1E+10	1	-1E+10	1
4902624	13	C	10/29/2024	14:35	-128.174	47.222	0	382.60	0	5.5921	0	34.0288	0	26.840	0	379.066	0	43.7	4	14.3	4	-1E+10	1	0.0511	4	0.000318	0	-1E+10	1	-1E+10	1	-1E+10	1
4902624	13	C	10/29/2024	14:35	-128.174	47.222	0	385.00	0	5.5780	0	34.0290	0	26.841	0	381.441	0	-1e10	1	-1e10	1	-1E+10	1	-1e10	1	-1e10	1	-1E+10	1	-1E+10	1	-1E+10	1
4902624	13	C	10/29/2024	14:35	-128.174	47.222	0	393.20	0	5.5159	0	34.0330	0	26.852	0	389.558	0	41.7	4	13.6	4	-1E+10	1	0.0511	4	0.000240	0	-1E+10	1	-1E+10	1	-1E+10	1
4902624	13	C	10/29/2024	14:35	-128.174	47.222	0	395.30	0	5.5000	0	34.0340	0	26.855	0	391.636	0	-1e10	1	-1e10	1	-1E+10	1	-1e10	1	-1e10	1	-1E+10	1	-1E+10	1	-1E+10	1
4902624	13	C	10/29/2024	14:35	-128.174	47.222	0	404.00	0	5.4446	0	34.0410	0	26.867	0	400.247	0	39.6	4	12.9	4	-1E+10	1	0.0511	4	0.000274	0	-1E+10	1	-1E+10	1	-1E+10	1
4902624	13	C	10/29/2024	14:35	-128.174	47.222	0	405.20	0	5.4370	0	34.0420	0	26.869	0	401.435	0	-1e10	1	-1e10	1	-1E+10	1	-1e10	1	-1e10	1	-1E+10	1	-1E+10	1	-1E+10	1
4902624	13	C	10/29/2024	14:35	-128.174	47.222	0	415.00	0	5.3527	0	34.0469	0	26.883	0	411.134	0	38.3	4	12.5	4	-1E+10	1	0.0514	4	0.000261	0	-1E+10	1	-1E+10	1	-1E+10	1
4902624	13	C	10/29/2024	14:35	-128.174	47.222	0	415.20	0	5.3510	0	34.0470	0	26.883	0	411.332	0	-1e10	1	-1e10	1	-1E+10	1	-1e10	1	-1e10	1	-1E+10	1	-1E+10	1	-1E+10	1
4902624	13	C	10/29/2024	14:35	-128.174	47.222	0	424.70	0	5.2500	0	34.0500	0	26.897	0	420.734	0	-1e10	1	-1e10	1	-1E+10	1	-1e10	1	-1e10	1	-1E+10	1	-1E+10	1	-1E+10	1
4902624	13	C	10/29/2024	14:35	-128.174	47.222	0	426.30	0	5.2391	0	34.0511	0	26.899	0	422.318	0	36.2	4	11.8	4	-1E+10	1	0.0584	4	0.000238	0	-1E+10	1	-1E+10	1	-1E+10	1
4902624	13	C	10/29/2024	14:35	-128.174	47.222	0	435.10	0	5.1790	0	34.0570	0	26.911	0	431.026	0	-1e10	1	-1e10	1	-1E+10	1	-1e10	1	-1e10	1	-1E+10	1	-1E+10	1	-1E+10	1
4902624	13	C	10/29/2024	14:35	-128.174	47.222	0	438.20	0	5.1682	0	34.0602	0	26.915	0	434.094	0	34.1	4	11.1	4	-1E+10	1	0.0580	4	0.000227	0	-1E+10	1	-1E+10	1	-1E+10	1
4902624	13	C	10/29/2024	14:35	-128.174	47.222	0	444.90	0	5.1450	0	34.0670	0	26.923	0	440.724	0	-1e10	1	-1e10	1	-1E+10	1	-1e10	1	-1e10	1	-1E+10	1	-1E+10	1	-1E+10	1
4902624	13	C	10/29/2024	14:35	-128.174	47.222	0	450.20	0	5.1455	0	34.0727	0	26.928	0	445.969	0	31.8	4	10.3	4	-1E+10	1	0.0511	4	0.000228	0	-1E+10	1	-1E+10	1	-1E+10	1
4902624	13	C	10/29/2024	14:35	-128.174	47.222	0	455.10	0	5.1460	0	34.0780	0	26.932	0	450.817	0	-1e10	1	-1e10	1	-1E+10	1	-1e10	1	-1e10	1	-1E+10	1	-1E+10	1	-1E+10	1
4902624	13	C	10/29/2024	14:35	-128.174	47.222	0	462.30	0	5.1125	0	34.0816	0	26.939	0	457.942	0	30.1	4	9.8	4	-1E+10	1	0.0519	4	0.000260	0	-1E+10	1	-1E+10	1	-1E+10	1
4902624	13	C	10/29/2024	14:35	-128.174	47.222	0	465.00	0	5.1000	0	34.0830	0	26.941	0	460.613	0	-1e10	1	-1e10	1	-1E+10	1	-1e10	1	-1e10	1	-1E+10	1	-1E+10	1	-1E+10	1
4902624	13	C	10/29/2024	14:35	-128.174	47.222	0	470.80	0	5.0695	0	34.0859	0	26.947	0	466.352	0	28.9	4	9.3	4	-1E+10	1	0.0649	4	0.000226	0	-1E+10	1	-1E+10	1	-1E+10	1
4902624	13	C	10/29/2024	14:35	-128.174	47.222	0	474.90	0	5.0480	0	34.0880	0	26.951	0	470.409	0	-1e10	1	-1e10	1	-1E+10	1	-1e10	1	-1e10	1	-1E+10	1	-1E+10	1	-1E+10	1
4902624	13	C	10/29/2024	14:35	-128.174	47.222	0	478.90	0	5.0357	0	34.0904	0	26.954	0	474.366	0	27.8	4	9.0	4	-1E+10	1	0.0446	4	0.000203	0	-1E+10	1	-1E+10	1	-1E+10	1
4902624	13	C	10/29/2024	14:35	-128.174	47.222	0	485.00	0	5.0170	0	34.0940	0	26.960	0	480.401	0	-1e10	1	-1e10	1	-1E+10	1	-1e10	1	-1e10	1	-1E+10	1	-1E+10	1	-1E+10	1
4902624	13	C	10/29/2024	14:35	-128.174	47.222	0	487.10	0	5.0070	0	34.0957	0	26.962	0	482.479	0	26.4	4	8.5	4	-1E+10	1	0.0650	4	0.000202	0	-1E+10	1	-1E+10	1	-1E+10	1
4902624	13	C	10/29/2024	14:35	-128.174	47.222	0	495.10	0	4.9690	0	34.1020	0	26.971	0	490.394	0	-1e10	1	-1e10	1	-1E+10	1	-1e10	1	-1e10	1	-1E+10	1	-1E+10	1	-1E+10	1
4902624	13	C	10/29/2024	14:35	-128.174	47.222	0	495.50	0	4.9672	0	34.1024	0	26.972	0	490.789	0	24.9	4	8.1	4	-1E+10	1	0.0514	4	0.000180	0	-1E+10	1	-1E+10	1	-1E+10	1
4902624	13	C	10/29/2024	14:35	-128.174	47.222	0	504.20	0	4.9290	0	34.1120	0	26.984	0	499.396	0	23.4	4	7.6	4	-1E+10	1	0.0584	4	0.000190	0	-1E+10	1	-1E+10	1	-1E+10	1
4902624	13	C	10/29/2024	14:35	-128.174	47.222	0	505.10	0	4.9250	0	34.1130	0	26.985	0	500.287	0	-1e10	1	-1e10	1	-1E+10	1	-1e10	1	-1e10	1	-1E+10	1	-1E+10	1	-1E+10	1
4902624	13	C	10/29/2024	14:35	-128.174	47.222	0	513.20	0	4.8788	0	34.1171	0	26.994	0	508.300	0	22.8	4	7.3	4	-1E+10	1	0.0581	4	0.000171	0	-1E+10	1	-1E+10	1	-1E+10	1
4902624	13	C	10/29/2024	14:35	-128.174	47.222	0	515.10	0	4.8680	0	34.1180	0	26.996	0	510.179	0	-1e10	1	-1e10	1	-1E+10	1	-1e10	1	-1e10	1	-1E+10	1	-1E+10	1	-1E+10	1
4902624	13	C	10/29/2024	14:35	-128.174	47.222	0	522.40	0	4.8257	0	34.1217	0	27.003	0	517.400	0	21.9	4	7.1	4	-1E+10	1	0.0511	4	0.000247	0	-1E+10	1	-1E+10	1	-1E+10	1
4902624	13	C	10/29/2024	14:35	-128.174	47.222	0	525.10	0	4.8100	0	34.1230	0	27.006	0	520.071	0	-1e10	1	-1e10	1	-1E+10	1	-1e10	1	-1e10	1	-1E+10	1	-1E+10	1	-1E+10	1
4902624	13	C	10/29/2024	14:35	-128.174	47.222	0	531.70	0	4.7780	0	34.1257	0	27.012	0	526.599	0	21.1	4	6.8	4	-1E+10	1	0.0517	4	0.000178	0	-1E+10	1	-1E+10	1	-1E+10	1
4902624	13	C	10/29/2024	14:35	-128.174	47.222	0	535.00	0	4.7620	0	34.1270	0	27.015	0	529.864	0	-1e10	1	-1e10	1	-1E+10	1	-1e10	1	-1e10	1	-1E+10	1	-1E+10	1	-1E+10	1
4902624	13	C	10/29/2024	14:35	-128.174	47.222	0	541.40	0	4.7478	0	34.1302	0	27.019	0	536.194	0	20.4	4	6.6	4	-1E+10	1	0.0654	4	0.000144	0	-1E+10	1	-1E+10	1	-1E+10	1
4902624	13	C	10/29/2024	14:35	-128.174	47.222	0	544.90	0	4.7400	0	34.1320	0	27.021	0	539.656	0	-1e10	1	-1e10	1	-1E+10	1	-1e10	1	-1e10	1	-1E+10	1	-1E+10	1	-1E+10	1
4902624	13	C	10/29/2024	14:35	-128.174	47.222	0	551.20	0	4.7182	0	34.1345	0	27.026	0	545.887	0	19.7	4	6.3	4	-1E+10	1	0.0584	4	0.000157	0	-1E+10	1	-1E+10	1	-1E+10	1
4902624	13	C	10/29/2024	14:35	-128.174	47.222	0	555.00	0	4.7050	0	34.1360	0	27.028	0	549.645	0	-1e10	1	-1e10	1	-1E+10	1	-1e10	1	-1e10	1	-1E+10	1	-1E+10	1	-1E+10	1
4902624	13	C	10/29/2024	14:35	-128.174	47.222	0	561.10	0	4.6884	0	34.1422	0	27.035	0	555.678	0	18.1	4	5.8	4	-1E+10	1	0.0578	4	0.000191	0	-1E+10	1	-1E+10	1	-1E+10	1
4902624	13	C	10/29/2024	14:35	-128.174	47.222	0	564.90	0	4.6780	0	34.1460	0	27.039	0	559.436	0	-1e10	1	-1e10	1	-1E+10	1	-1e10	1	-1e10	1	-1E+10	1	-1E+10	1	-1E+10	1
4902624	13	C	10/29/2024	14:35	-128.174	47.222	0	571.40	0	4.6702	0	34.1532	0	27.046	0	565.865	0	17.0	4	5.4	4	-1E+10	1	0.0441	4	0.000189	0	-1E+10	1	-1E+10	1	-1E+10	1
4902624	13	C	10/29/2024	14:35	-128.174	47.222	0	574.90	0	4.6660	0	34.1570	0	27.050	0	569.326	0	-1e10	1	-1e10	1	-1E+10	1	-1e10	1	-1e10	1	-1E+10	1	-1E+10	1	-1E+10	1
4902624	13	C	10/29/2024	14:35	-128.174	47.222	0	581.80	0	4.6376	0	34.1617	0	27.056	0	576.149	0	16.1	4	5.2	4	-1E+10	1	0.0514	4	0.000156	0	-1E+10	1	-1E+10	1	-1E+10	1
4902624	13	C	10/29/2024	14:35	-128.174	47.222	0	585.10	0	4.6240	0	34.1640	0	27.060	0	579.413	0	-1e10	1	-1e10	1	-1E+10	1	-1e10	1	-1e10	1	-1E+10	1	-1E+10	1	-1E+10	1
4902624	13	C	10/29/2024	14:35	-128.174	47.222	0	592.80	0	4.5983	0	34.1694	0	27.067	0	587.027	0	15.5	4	5.0	4	-1E+10	1	0.0584	4	0.000167	0	-1E+10	1	-1E+10	1	-1E+10	1
4902624	13	C	10/29/2024	14:35	-128.174	47.222	0	595.00	0	4.5910	0	34.1710	0	27.069	0	589.203	0	-1e10	1	-1e10	1	-1E+10	1	-1e10	1	-1e10	1	-1E+10	1	-1E+10	1	-1E+10	1
4902624	13	C	10/29/2024	14:35	-128.174	47.222	0	604.00	0	4.5474	0	34.1737	0	27.076	0	598.102	0	15.0	4	4.8	4	-1E+10	1	0.0574	4	0.000155	0	-1E+10	1	-1E+10	1	-1E+10	1
4902624	13	C	10/29/2024	14:35	-128.174	47.222	0	604.90	0	4.5430	0	34.1740	0	27.077	0	598.992	0	-1e10	1	-1e10	1	-1E+10	1	-1e10	1	-1e10	1	-1E+10	1	-1E+10	1	-1E+10	1
4902624	13	C	10/29/2024	14:35	-128.174	47.222	0	614.90	0	4.5110	0	34.1790	0	27.084	0	608.880	0	-1e10	1	-1e10	1	-1E+10	1	-1e10	1	-1e10	1	-1E+10	1	-1E+10	1	-1E+10	1
4902624	13	C	10/29/2024	14:35	-128.174	47.222	0	615.30	0	4.5096	0	34.1793	0	27.085	0	609.275	0	14.2	4	4.5	4	-1E+10	1	0.0375	4	0.000155	0	-1E+10	1	-1E+10	1	-1E+10	1
4902624	13	C	10/29/2024	14:35	-128.174	47.222	0	625.00	0	4.4760	0	34.1870	0	27.094	0	618.866	0	-1e10	1	-1e10	1	-1E+10	1	-1e10	1	-1e10	1	-1E+10	1	-1E+10	1	-1E+10	1
4902624	13	C	10/29/2024	14:35	-128.174	47.222	0	626.60	0	4.4736	0	34.1883	0	27.096	0	620.448	0	13.3	4	4.3	4	-1E+10	1	0.0581	4	0.000155	0	-1E+10	1	-1E+10	1	-1E+10	1
4902624	13	C	10/29/2024	14:35	-128.174	47.222	0	635.00	0	4.4610	0	34.1950	0	27.102	0	628.752	0	-1e10	1	-1e10	1	-1E+10	1	-1e10	1	-1e10	1	-1E+10	1	-1E+10	1	-1E+10	1
4902624	13	C	10/29/2024	14:35	-128.174	47.222	0	638.00	0	4.4470	0	34.1956	0	27.104	0	631.718	0	13.0	4	4.1	4	-1E+10	1	0.0511	4	0.000166	0	-1E+10	1	-1E+10	1	-1E+10	1
4902624	13	C	10/29/2024	14:35	-128.174	47.222	0	645.10	0	4.4140	0	34.1970	0	27.109	0	638.738	0	-1e10	1	-1e10	1	-1E+10	1	-1e10	1	-1e10	1	-1E+10	1	-1E+10	1	-1E+10	1
4902624	13	C	10/29/2024	14:35	-128.174	47.222	0	649.40	0	4.3958	0	34.2000	0	27.114	0	642.989	0	12.3	4	3.9	4	-1E+10	1	0.0516	4	0.000154	0	-1E+10	1	-1E+10	1	-1E+10	1
4902624	13	C	10/29/2024	14:35	-128.174	47.222	0	655.00	0	4.3720	0	34.2040	0	27.119	0	648.525	0	-1e10	1	-1e10	1	-1E+10	1	-1e10	1	-1e10	1	-1E+10	1	-1E+10	1	-1E+10	1
4902624	13	C	10/29/2024	14:35	-128.174	47.222	0	661.20	0	4.3620	0	34.2096	0	27.125	0	654.654	0	11.6	4	3.7	4	-1E+10	1	0.0657	4	0.000143	0	-1E+10	1	-1E+10	1	-1E+10	1
4902624	13	C	10/29/2024	14:35	-128.174	47.222	0	664.90	0	4.3560	0	34.2130	0	27.128	0	658.311	0	-1e10	1	-1e10	1	-1E+10	1	-1e10	1	-1e10	1	-1E+10	1	-1E+10	1	-1E+10	1
4902624	13	C	10/29/2024	14:35	-128.174	47.222	0	673.00	0	4.3465	0	34.2186	0	27.134	0	666.318	0	11.1	4	3.5	4	-1E+10	1	0.0652	4	0.000154	0	-1E+10	1	-1E+10	1	-1E+10	1
4902624	13	C	10/29/2024	14:35	-128.174	47.222	0	675.10	0	4.3440	0	34.2200	0	27.135	0	668.394	0	-1e10	1	-1e10	1	-1E+10	1	-1e10	1	-1e10	1	-1E+10	1	-1E+10	1	-1E+10	1
4902624	13	C	10/29/2024	14:35	-128.174	47.222	0	685.00	0	4.3282	0	34.2240	0	27.140	0	678.179	0	11.0	4	3.5	4	-1E+10	1	0.0511	4	0.000143	0	-1E+10	1	-1E+10	1	-1E+10	1
4902624	13	C	10/29/2024	14:35	-128.174	47.222	0	685.10	0	4.3280	0	34.2240	0	27.140	0	678.278	0	-1e10	1	-1e10	1	-1E+10	1	-1e10	1	-1e10	1	-1E+10	1	-1E+10	1	-1E+10	1
4902624	13	C	10/29/2024	14:35	-128.174	47.222	0	695.10	0	4.2560	0	34.2250	0	27.149	0	688.162	0	-1e10	1	-1e10	1	-1E+10	1	-1e10	1	-1e10	1	-1E+10	1	-1E+10	1	-1E+10	1
4902624	13	C	10/29/2024	14:35	-128.174	47.222	0	696.70	0	4.2452	0	34.2252	0	27.150	0	689.743	0	11.1	4	3.5	4	-1E+10	1	0.0511	4	0.000154	0	-1E+10	1	-1E+10	1	-1E+10	1
4902624	13	C	10/29/2024	14:35	-128.174	47.222	0	704.40	0	4.1931	0	34.2259	0	27.156	0	697.354	0	11.0	4	3.5	4	-1E+10	1	0.0516	4	0.000154	0	-1E+10	1	-1E+10	1	-1E+10	1
4902624	13	C	10/29/2024	14:35	-128.174	47.222	0	705.00	0	4.1890	0	34.2260	0	27.156	0	697.947	0	-1e10	1	-1e10	1	-1E+10	1	-1e10	1	-1e10	1	-1E+10	1	-1E+10	1	-1E+10	1
4902624	13	C	10/29/2024	14:35	-128.174	47.222	0	712.40	0	4.1707	0	34.2311	0	27.162	0	705.260	0	10.5	4	3.3	4	-1E+10	1	0.0657	4	0.000143	0	-1E+10	1	-1E+10	1	-1E+10	1
4902624	13	C	10/29/2024	14:35	-128.174	47.222	0	715.10	0	4.1640	0	34.2330	0	27.165	0	707.928	0	-1e10	1	-1e10	1	-1E+10	1	-1e10	1	-1e10	1	-1E+10	1	-1E+10	1	-1E+10	1
4902624	13	C	10/29/2024	14:35	-128.174	47.222	0	720.60	0	4.1523	0	34.2363	0	27.169	0	713.364	0	10.2	4	3.2	4	-1E+10	1	0.0657	4	0.000153	0	-1E+10	1	-1E+10	1	-1E+10	1
4902624	13	C	10/29/2024	14:35	-128.174	47.222	0	725.00	0	4.1430	0	34.2390	0	27.172	0	717.712	0	-1e10	1	-1e10	1	-1E+10	1	-1e10	1	-1e10	1	-1E+10	1	-1E+10	1	-1E+10	1
4902624	13	C	10/29/2024	14:35	-128.174	47.222	0	729.00	0	4.1338	0	34.2426	0	27.176	0	721.665	0	9.8	4	3.1	4	-1E+10	1	0.0654	4	0.000131	0	-1E+10	1	-1E+10	1	-1E+10	1
4902624	13	C	10/29/2024	14:35	-128.174	47.222	0	735.00	0	4.1200	0	34.2480	0	27.181	0	727.594	0	-1e10	1	-1e10	1	-1E+10	1	-1e10	1	-1e10	1	-1E+10	1	-1E+10	1	-1E+10	1
4902624	13	C	10/29/2024	14:35	-128.174	47.222	0	737.50	0	4.1163	0	34.2502	0	27.183	0	730.065	0	9.5	4	3.0	4	-1E+10	1	0.0584	4	0.000142	0	-1E+10	1	-1E+10	1	-1E+10	1
4902624	13	C	10/29/2024	14:35	-128.174	47.222	0	745.20	0	4.1050	0	34.2570	0	27.190	0	737.673	0	-1e10	1	-1e10	1	-1E+10	1	-1e10	1	-1e10	1	-1E+10	1	-1E+10	1	-1E+10	1
4902624	13	C	10/29/2024	14:35	-128.174	47.222	0	746.30	0	4.1031	0	34.2579	0	27.191	0	738.760	0	9.1	4	2.9	4	-1E+10	1	0.0587	4	0.000142	0	-1E+10	1	-1E+10	1	-1E+10	1
4902624	13	C	10/29/2024	14:35	-128.174	47.222	0	755.00	0	4.0880	0	34.2650	0	27.198	0	747.357	0	-1e10	1	-1e10	1	-1E+10	1	-1e10	1	-1e10	1	-1E+10	1	-1E+10	1	-1E+10	1
4902624	13	C	10/29/2024	14:35	-128.174	47.222	0	755.10	0	4.0875	0	34.2650	0	27.198	0	747.456	0	9.0	4	2.9	4	-1E+10	1	0.0657	4	0.000143	0	-1E+10	1	-1E+10	1	-1E+10	1
4902624	13	C	10/29/2024	14:35	-128.174	47.222	0	764.20	0	4.0443	0	34.2686	0	27.206	0	756.447	0	9.0	4	2.8	4	-1E+10	1	0.0654	4	0.000154	0	-1E+10	1	-1E+10	1	-1E+10	1
4902624	13	C	10/29/2024	14:35	-128.174	47.222	0	765.10	0	4.0400	0	34.2690	0	27.206	0	757.336	0	-1e10	1	-1e10	1	-1E+10	1	-1e10	1	-1e10	1	-1E+10	1	-1E+10	1	-1E+10	1
4902624	13	C	10/29/2024	14:35	-128.174	47.222	0	773.30	0	4.0160	0	34.2740	0	27.213	0	765.438	0	8.9	4	2.8	4	-1E+10	1	0.0584	4	0.000157	0	-1E+10	1	-1E+10	1	-1E+10	1
4902624	13	C	10/29/2024	14:35	-128.174	47.222	0	775.00	0	4.0110	0	34.2750	0	27.214	0	767.118	0	-1e10	1	-1e10	1	-1E+10	1	-1e10	1	-1e10	1	-1E+10	1	-1E+10	1	-1E+10	1
4902624	13	C	10/29/2024	14:35	-128.174	47.222	0	782.60	0	3.9958	0	34.2796	0	27.219	0	774.626	0	8.5	4	2.7	4	-1E+10	1	0.0582	4	0.000238	0	-1E+10	1	-1E+10	1	-1E+10	1
4902624	13	C	10/29/2024	14:35	-128.174	47.222	0	785.00	0	3.9910	0	34.2810	0	27.221	0	776.997	0	-1e10	1	-1e10	1	-1E+10	1	-1e10	1	-1e10	1	-1E+10	1	-1E+10	1	-1E+10	1
4902624	13	C	10/29/2024	14:35	-128.174	47.222	0	792.10	0	3.9755	0	34.2845	0	27.226	0	784.012	0	8.6	4	2.7	4	-1E+10	1	0.0514	4	0.000288	0	-1E+10	1	-1E+10	1	-1E+10	1
4902624	13	C	10/29/2024	14:35	-128.174	47.222	0	795.10	0	3.9690	0	34.2860	0	27.227	0	786.975	0	-1e10	1	-1e10	1	-1E+10	1	-1e10	1	-1e10	1	-1E+10	1	-1E+10	1	-1E+10	1
4902624	13	C	10/29/2024	14:35	-128.174	47.222	0	801.60	0	3.9581	0	34.2905	0	27.232	0	793.397	0	8.2	4	2.6	4	-1E+10	1	0.0587	4	0.000154	0	-1E+10	1	-1E+10	1	-1E+10	1
4902624	13	C	10/29/2024	14:35	-128.174	47.222	0	805.20	0	3.9520	0	34.2930	0	27.235	0	796.953	0	-1e10	1	-1e10	1	-1E+10	1	-1e10	1	-1e10	1	-1E+10	1	-1E+10	1	-1E+10	1
4902624	13	C	10/29/2024	14:35	-128.174	47.222	0	811.40	0	3.9342	0	34.2967	0	27.240	0	803.077	0	8.1	4	2.6	4	-1E+10	1	0.0650	4	0.000163	0	-1E+10	1	-1E+10	1	-1E+10	1
4902624	13	C	10/29/2024	14:35	-128.174	47.222	0	815.30	0	3.9230	0	34.2990	0	27.243	0	806.930	0	-1e10	1	-1e10	1	-1E+10	1	-1e10	1	-1e10	1	-1E+10	1	-1E+10	1	-1E+10	1
4902624	13	C	10/29/2024	14:35	-128.174	47.222	0	821.20	0	3.9169	0	34.3045	0	27.248	0	812.758	0	7.9	4	2.5	4	-1E+10	1	0.0513	4	0.000130	0	-1E+10	1	-1E+10	1	-1E+10	1
4902624	13	C	10/29/2024	14:35	-128.174	47.222	0	824.90	0	3.9130	0	34.3080	0	27.251	0	816.413	0	-1e10	1	-1e10	1	-1E+10	1	-1e10	1	-1e10	1	-1E+10	1	-1E+10	1	-1E+10	1
4902624	13	C	10/29/2024	14:35	-128.174	47.222	0	831.30	0	3.8882	0	34.3106	0	27.255	0	822.734	0	7.9	4	2.5	4	-1E+10	1	0.0587	4	0.000142	0	-1E+10	1	-1E+10	1	-1E+10	1
4902624	13	C	10/29/2024	14:35	-128.174	47.222	0	834.70	0	3.8750	0	34.3120	0	27.258	0	826.092	0	-1e10	1	-1e10	1	-1E+10	1	-1e10	1	-1e10	1	-1E+10	1	-1E+10	1	-1E+10	1
4902624	13	C	10/29/2024	14:35	-128.174	47.222	0	841.50	0	3.8664	0	34.3173	0	27.263	0	832.809	0	7.6	4	2.4	4	-1E+10	1	0.0649	4	0.000141	0	-1E+10	1	-1E+10	1	-1E+10	1
4902624	13	C	10/29/2024	14:35	-128.174	47.222	0	845.00	0	3.8620	0	34.3200	0	27.266	0	836.266	0	-1e10	1	-1e10	1	-1E+10	1	-1e10	1	-1e10	1	-1E+10	1	-1E+10	1	-1E+10	1
4902624	13	C	10/29/2024	14:35	-128.174	47.222	0	852.10	0	3.8448	0	34.3241	0	27.271	0	843.278	0	31.1	4	9.8	4	-1E+10	1	0.0445	4	0.000141	0	-1E+10	1	-1E+10	1	-1E+10	1
4902624	13	C	10/29/2024	14:35	-128.174	47.222	0	855.30	0	3.8370	0	34.3260	0	27.273	0	846.438	0	-1e10	1	-1e10	1	-1E+10	1	-1e10	1	-1e10	1	-1E+10	1	-1E+10	1	-1E+10	1
4902624	13	C	10/29/2024	14:35	-128.174	47.222	0	863.10	0	3.8283	0	34.3307	0	27.278	0	854.142	0	40.1	4	12.6	4	-1E+10	1	0.0587	4	0.000141	0	-1E+10	1	-1E+10	1	-1E+10	1
4902624	13	C	10/29/2024	14:35	-128.174	47.222	0	865.20	0	3.8260	0	34.3320	0	27.279	0	856.215	0	-1e10	1	-1e10	1	-1E+10	1	-1e10	1	-1e10	1	-1E+10	1	-1E+10	1	-1E+10	1
4902624	13	C	10/29/2024	14:35	-128.174	47.222	0	874.30	0	3.7947	0	34.3329	0	27.283	0	865.202	0	9.1	4	2.9	4	-1E+10	1	0.0654	4	0.000142	0	-1E+10	1	-1E+10	1	-1E+10	1
4902624	13	C	10/29/2024	14:35	-128.174	47.222	0	875.10	0	3.7920	0	34.3330	0	27.283	0	865.992	0	-1e10	1	-1e10	1	-1E+10	1	-1e10	1	-1e10	1	-1E+10	1	-1E+10	1	-1E+10	1
4902624	13	C	10/29/2024	14:35	-128.174	47.222	0	885.10	0	3.7760	0	34.3380	0	27.289	0	875.867	0	-1e10	1	-1e10	1	-1E+10	1	-1e10	1	-1e10	1	-1E+10	1	-1E+10	1	-1E+10	1
4902624	13	C	10/29/2024	14:35	-128.174	47.222	0	885.80	0	3.7753	0	34.3384	0	27.289	0	876.558	0	19.0	4	6.0	4	-1E+10	1	0.0586	4	0.000153	0	-1E+10	1	-1E+10	1	-1E+10	1
4902624	13	C	10/29/2024	14:35	-128.174	47.222	0	894.70	0	3.7660	0	34.3440	0	27.295	0	885.347	0	-1e10	1	-1e10	1	-1E+10	1	-1e10	1	-1e10	1	-1E+10	1	-1E+10	1	-1E+10	1
4902624	13	C	10/29/2024	14:35	-128.174	47.222	0	897.60	0	3.7516	0	34.3446	0	27.297	0	888.210	0	46.7	4	14.7	4	-1E+10	1	0.0654	4	0.000152	0	-1E+10	1	-1E+10	1	-1E+10	1
4902624	13	C	10/29/2024	14:35	-128.174	47.222	0	905.00	0	3.7150	0	34.3460	0	27.301	0	895.517	0	-1e10	1	-1e10	1	-1E+10	1	-1e10	1	-1e10	1	-1E+10	1	-1E+10	1	-1E+10	1
4902624	13	C	10/29/2024	14:35	-128.174	47.222	0	909.50	0	3.7063	0	34.3482	0	27.304	0	899.960	0	56.6	4	17.8	4	-1E+10	1	0.0584	4	0.000130	0	-1E+10	1	-1E+10	1	-1E+10	1
4902624	13	C	10/29/2024	14:35	-128.174	47.222	0	915.30	0	3.6950	0	34.3510	0	27.307	0	905.687	0	-1e10	1	-1e10	1	-1E+10	1	-1e10	1	-1e10	1	-1E+10	1	-1E+10	1	-1E+10	1
4902624	13	C	10/29/2024	14:35	-128.174	47.222	0	920.30	0	3.6873	0	34.3546	0	27.311	0	910.623	0	43.9	4	13.8	4	-1E+10	1	0.0590	4	0.000141	0	-1E+10	1	-1E+10	1	-1E+10	1
4902624	13	C	10/29/2024	14:35	-128.174	47.222	0	925.10	0	3.6800	0	34.3580	0	27.315	0	915.362	0	-1e10	1	-1e10	1	-1E+10	1	-1e10	1	-1e10	1	-1E+10	1	-1E+10	1	-1E+10	1
4902624	13	C	10/29/2024	14:35	-128.174	47.222	0	928.30	0	3.6721	0	34.3590	0	27.316	0	918.522	0	46.5	4	14.6	4	-1E+10	1	0.0719	4	0.000140	0	-1E+10	1	-1E+10	1	-1E+10	1
4902624	13	C	10/29/2024	14:35	-128.174	47.222	0	934.80	0	3.6560	0	34.3610	0	27.319	0	924.939	0	-1e10	1	-1e10	1	-1E+10	1	-1e10	1	-1e10	1	-1E+10	1	-1E+10	1	-1E+10	1
4902624	13	C	10/29/2024	14:35	-128.174	47.222	0	936.40	0	3.6549	0	34.3619	0	27.320	0	926.519	0	57.8	4	18.1	4	-1E+10	1	0.0514	4	0.000129	0	-1E+10	1	-1E+10	1	-1E+10	1
4902624	13	C	10/29/2024	14:35	-128.174	47.222	0	944.70	0	3.6491	0	34.3669	0	27.325	0	934.712	0	49.0	4	15.4	4	-1E+10	1	0.0587	4	0.000140	0	-1E+10	1	-1E+10	1	-1E+10	1
4902624	13	C	10/29/2024	14:35	-128.174	47.222	0	944.90	0	3.6490	0	34.3670	0	27.325	0	934.910	0	-1e10	1	-1e10	1	-1E+10	1	-1e10	1	-1e10	1	-1E+10	1	-1E+10	1	-1E+10	1
4902624	13	C	10/29/2024	14:35	-128.174	47.222	0	953.30	0	3.6671	0	34.3761	0	27.330	0	943.202	0	51.2	4	16.1	4	-1E+10	1	0.0652	4	0.000140	0	-1E+10	1	-1E+10	1	-1E+10	1
4902624	13	C	10/29/2024	14:35	-128.174	47.222	0	955.10	0	3.6710	0	34.3780	0	27.332	0	944.979	0	-1e10	1	-1e10	1	-1E+10	1	-1e10	1	-1e10	1	-1E+10	1	-1E+10	1	-1E+10	1
4902624	13	C	10/29/2024	14:35	-128.174	47.222	0	962.30	0	3.6603	0	34.3823	0	27.336	0	952.086	0	51.6	4	16.2	4	-1E+10	1	0.0516	4	0.000132	0	-1E+10	1	-1E+10	1	-1E+10	1
4902624	13	C	10/29/2024	14:35	-128.174	47.222	0	965.20	0	3.6560	0	34.3840	0	27.338	0	954.949	0	-1e10	1	-1e10	1	-1E+10	1	-1e10	1	-1e10	1	-1E+10	1	-1E+10	1	-1E+10	1
4902624	13	C	10/29/2024	14:35	-128.174	47.222	0	971.60	0	3.6387	0	34.3859	0	27.341	0	961.266	0	48.1	4	15.1	4	-1E+10	1	0.0651	4	0.000230	0	-1E+10	1	-1E+10	1	-1E+10	1
4902624	13	C	10/29/2024	14:35	-128.174	47.222	0	975.20	0	3.6290	0	34.3870	0	27.343	0	964.820	0	-1e10	1	-1e10	1	-1E+10	1	-1e10	1	-1e10	1	-1E+10	1	-1E+10	1	-1E+10	1
4902624	13	C	10/29/2024	14:35	-128.174	47.222	0	980.80	0	3.6157	0	34.3887	0	27.346	0	970.347	0	65.4	4	20.5	4	-1E+10	1	0.0511	4	0.000140	0	-1E+10	1	-1E+10	1	-1E+10	1
4902624	13	C	10/29/2024	14:35	-128.174	47.222	0	984.90	0	3.6060	0	34.3900	0	27.348	0	974.394	0	-1e10	1	-1e10	1	-1E+10	1	-1e10	1	-1e10	1	-1E+10	1	-1E+10	1	-1E+10	1
4902624	13	C	10/29/2024	14:35	-128.174	47.222	0	990.20	0	3.5906	0	34.3916	0	27.351	0	979.625	0	52.4	4	16.4	4	-1E+10	1	0.0513	4	0.000128	0	-1E+10	1	-1E+10	1	-1E+10	1
4902624	13	C	10/29/2024	14:35	-128.174	47.222	0	994.90	0	3.5770	0	34.3930	0	27.353	0	984.264	0	-1e10	1	-1e10	1	-1E+10	1	-1e10	1	-1e10	1	-1E+10	1	-1E+10	1	-1E+10	1
4902624	13	C	10/29/2024	14:35	-128.174	47.222	0	1004.60	0	3.5429	0	34.3953	0	27.358	0	993.837	0	41.6	4	13.0	4	-1E+10	1	0.0586	4	0.000117	0	-1E+10	1	-1E+10	1	-1E+10	1
4902624	13	C	10/29/2024	14:35	-128.174	47.222	0	1023.80	0	3.4755	0	34.3998	0	27.368	0	1012.785	0	56.7	4	17.7	4	-1E+10	1	0.0657	4	0.000140	0	-1E+10	1	-1E+10	1	-1E+10	1
4902624	13	C	10/29/2024	14:35	-128.174	47.222	0	1024.80	0	3.4720	0	34.4000	0	27.369	0	1013.772	0	-1e10	1	-1e10	1	-1E+10	1	-1e10	1	-1e10	1	-1E+10	1	-1E+10	1	-1E+10	1
4902624	13	C	10/29/2024	14:35	-128.174	47.222	0	1043.40	0	3.4223	0	34.4059	0	27.378	0	1032.126	0	51.5	4	16.1	4	-1E+10	1	0.0657	4	0.000174	0	-1E+10	1	-1E+10	1	-1E+10	1
4902624	13	C	10/29/2024	14:35	-128.174	47.222	0	1063.40	0	3.3688	0	34.4123	0	27.389	0	1051.860	0	54.6	4	17.0	4	-1E+10	1	0.0655	4	0.000117	0	-1E+10	1	-1E+10	1	-1E+10	1
4902624	13	C	10/29/2024	14:35	-128.174	47.222	0	1074.90	0	3.3380	0	34.4160	0	27.395	0	1063.206	0	-1e10	1	-1e10	1	-1E+10	1	-1e10	1	-1e10	1	-1E+10	1	-1E+10	1	-1E+10	1
4902624	13	C	10/29/2024	14:35	-128.174	47.222	0	1084.10	0	3.3179	0	34.4187	0	27.399	0	1072.282	0	55.5	4	17.3	4	-1E+10	1	0.0586	4	0.000152	0	-1E+10	1	-1E+10	1	-1E+10	1
4902624	13	C	10/29/2024	14:35	-128.174	47.222	0	1105.30	0	3.2716	0	34.4250	0	27.408	0	1093.196	0	53.6	4	16.6	4	-1E+10	1	0.0654	4	0.000197	0	-1E+10	1	-1E+10	1	-1E+10	1
4902624	13	C	10/29/2024	14:35	-128.174	47.222	0	1125.70	0	3.2270	0	34.4310	0	27.417	0	1113.318	0	-1e10	1	-1e10	1	-1E+10	1	-1e10	1	-1e10	1	-1E+10	1	-1E+10	1	-1E+10	1
4902624	13	C	10/29/2024	14:35	-128.174	47.222	0	1126.80	0	3.2245	0	34.4313	0	27.418	0	1114.403	0	65.9	4	20.4	4	-1E+10	1	0.0512	4	0.000139	0	-1E+10	1	-1E+10	1	-1E+10	1
4902624	13	C	10/29/2024	14:35	-128.174	47.222	0	1148.70	0	3.1757	0	34.4375	0	27.427	0	1136.003	0	82.5	4	25.6	4	-1E+10	1	0.0583	4	0.000138	0	-1E+10	1	-1E+10	1	-1E+10	1
4902624	13	C	10/29/2024	14:35	-128.174	47.222	0	1170.70	0	3.1266	0	34.4438	0	27.437	0	1157.699	0	78.4	4	24.3	4	-1E+10	1	0.0514	4	0.000116	0	-1E+10	1	-1E+10	1	-1E+10	1
4902624	13	C	10/29/2024	14:35	-128.174	47.222	0	1175.00	0	3.1170	0	34.4450	0	27.439	0	1161.940	0	-1e10	1	-1e10	1	-1E+10	1	-1e10	1	-1e10	1	-1E+10	1	-1E+10	1	-1E+10	1
4902624	13	C	10/29/2024	14:35	-128.174	47.222	0	1193.50	0	3.0715	0	34.4494	0	27.447	0	1180.182	0	69.3	4	21.4	4	-1E+10	1	0.0655	4	0.000150	0	-1E+10	1	-1E+10	1	-1E+10	1
4902624	13	C	10/29/2024	14:35	-128.174	47.222	0	1217.10	0	3.0134	0	34.4550	0	27.457	0	1203.452	0	68.9	4	21.3	4	-1E+10	1	0.0582	4	0.000139	0	-1E+10	1	-1E+10	1	-1E+10	1
4902624	13	C	10/29/2024	14:35	-128.174	47.222	0	1225.40	0	2.9930	0	34.4570	0	27.460	0	1211.635	0	-1e10	1	-1e10	1	-1E+10	1	-1e10	1	-1e10	1	-1E+10	1	-1E+10	1	-1E+10	1
4902624	13	C	10/29/2024	14:35	-128.174	47.222	0	1234.40	0	2.9743	0	34.4590	0	27.463	0	1220.507	0	67.7	4	20.9	4	-1E+10	1	0.0511	4	0.000184	0	-1E+10	1	-1E+10	1	-1E+10	1
4902624	13	C	10/29/2024	14:35	-128.174	47.222	0	1251.60	0	2.9386	0	34.4629	0	27.470	0	1237.463	0	70.3	4	21.7	4	-1E+10	1	0.0512	4	0.000137	0	-1E+10	1	-1E+10	1	-1E+10	1
4902624	13	C	10/29/2024	14:35	-128.174	47.222	0	1269.70	0	2.9010	0	34.4669	0	27.476	0	1255.305	0	78.7	4	24.3	4	-1E+10	1	0.0583	4	0.000138	0	-1E+10	1	-1E+10	1	-1E+10	1
4902624	13	C	10/29/2024	14:35	-128.174	47.222	0	1274.50	0	2.8910	0	34.4680	0	27.478	0	1260.036	0	-1e10	1	-1e10	1	-1E+10	1	-1e10	1	-1e10	1	-1E+10	1	-1E+10	1	-1E+10	1
4902624	13	C	10/29/2024	14:35	-128.174	47.222	0	1288.50	0	2.8644	0	34.4719	0	27.484	0	1273.835	0	85.2	4	26.2	4	-1E+10	1	0.0510	4	0.000160	0	-1E+10	1	-1E+10	1	-1E+10	1
4902624	13	C	10/29/2024	14:35	-128.174	47.222	0	1308.30	0	2.8267	0	34.4774	0	27.492	0	1293.349	0	87.5	4	26.9	4	-1E+10	1	0.0442	4	0.000143	0	-1E+10	1	-1E+10	1	-1E+10	1
4902624	13	C	10/29/2024	14:35	-128.174	47.222	0	1325.00	0	2.7950	0	34.4820	0	27.498	0	1309.806	0	-1e10	1	-1e10	1	-1E+10	1	-1e10	1	-1e10	1	-1E+10	1	-1E+10	1	-1E+10	1
4902624	13	C	10/29/2024	14:35	-128.174	47.222	0	1329.60	0	2.7875	0	34.4830	0	27.500	0	1314.339	0	81.3	4	25.0	4	-1E+10	1	0.0656	4	0.000459	0	-1E+10	1	-1E+10	1	-1E+10	1
4902624	13	C	10/29/2024	14:35	-128.174	47.222	0	1352.00	0	2.7507	0	34.4879	0	27.507	0	1336.411	0	69.7	4	21.4	4	-1E+10	1	0.0583	4	0.000114	0	-1E+10	1	-1E+10	1	-1E+10	1
4902624	13	C	10/29/2024	14:35	-128.174	47.222	0	1375.40	0	2.7123	0	34.4930	0	27.514	0	1359.466	0	73.8	4	22.6	4	-1E+10	1	0.0511	4	0.000147	0	-1E+10	1	-1E+10	1	-1E+10	1
4902624	13	C	10/29/2024	14:35	-128.174	47.222	0	1375.60	0	2.7120	0	34.4930	0	27.514	0	1359.663	0	-1e10	1	-1e10	1	-1E+10	1	-1e10	1	-1e10	1	-1E+10	1	-1E+10	1	-1E+10	1
4902624	13	C	10/29/2024	14:35	-128.174	47.222	0	1399.70	0	2.6706	0	34.4984	0	27.522	0	1383.404	0	77.5	4	23.8	4	-1E+10	1	0.0511	4	0.000112	0	-1E+10	1	-1E+10	1	-1E+10	1
4902624	13	C	10/29/2024	14:35	-128.174	47.222	0	1417.20	0	2.6406	0	34.5022	0	27.528	0	1400.643	0	85.8	4	26.3	4	-1E+10	1	0.0512	4	0.000113	0	-1E+10	1	-1E+10	1	-1E+10	1
4902624	13	C	10/29/2024	14:35	-128.174	47.222	0	1425.10	0	2.6270	0	34.5040	0	27.531	0	1408.424	0	-1e10	1	-1e10	1	-1E+10	1	-1e10	1	-1e10	1	-1E+10	1	-1E+10	1	-1E+10	1
4902624	13	C	10/29/2024	14:35	-128.174	47.222	0	1433.90	0	2.6133	0	34.5056	0	27.533	0	1417.092	0	82.3	4	25.2	4	-1E+10	1	0.0584	4	0.000136	0	-1E+10	1	-1E+10	1	-1E+10	1
4902624	13	C	10/29/2024	14:35	-128.174	47.222	0	1450.70	0	2.5871	0	34.5086	0	27.538	0	1433.638	0	80.7	4	24.7	4	-1E+10	1	0.0583	4	0.000137	0	-1E+10	1	-1E+10	1	-1E+10	1
4902624	13	C	10/29/2024	14:35	-128.174	47.222	0	1467.60	0	2.5607	0	34.5117	0	27.543	0	1450.281	0	72.7	4	22.2	4	-1E+10	1	0.0512	4	0.000205	0	-1E+10	1	-1E+10	1	-1E+10	1
4902624	13	C	10/29/2024	14:35	-128.174	47.222	0	1475.10	0	2.5490	0	34.5130	0	27.545	0	1457.667	0	-1e10	1	-1e10	1	-1E+10	1	-1e10	1	-1e10	1	-1E+10	1	-1E+10	1	-1E+10	1
4902624	13	C	10/29/2024	14:35	-128.174	47.222	0	1484.50	0	2.5308	0	34.5149	0	27.548	0	1466.923	0	74.1	4	22.6	4	-1E+10	1	0.0581	4	0.000158	0	-1E+10	1	-1E+10	1	-1E+10	1
4902624	13	C	10/29/2024	14:35	-128.174	47.222	0	1501.60	0	2.4976	0	34.5184	0	27.554	0	1483.760	0	74.1	4	22.6	4	-1E+10	1	0.0441	4	0.000112	0	-1E+10	1	-1E+10	1	-1E+10	1
4902624	13	C	10/29/2024	14:35	-128.174	47.222	0	1519.20	0	2.4635	0	34.5219	0	27.559	0	1501.089	0	77.0	4	23.5	4	-1E+10	1	0.0582	4	0.000123	0	-1E+10	1	-1E+10	1	-1E+10	1
4902624	13	C	10/29/2024	14:35	-128.174	47.222	0	1524.60	0	2.4530	0	34.5230	0	27.561	0	1506.405	0	-1e10	1	-1e10	1	-1E+10	1	-1e10	1	-1e10	1	-1E+10	1	-1E+10	1	-1E+10	1
4902624	13	C	10/29/2024	14:35	-128.174	47.222	0	1537.20	0	2.4323	0	34.5258	0	27.565	0	1518.810	0	75.1	4	22.9	4	-1E+10	1	0.0511	4	0.000123	0	-1E+10	1	-1E+10	1	-1E+10	1
4902624	13	C	10/29/2024	14:35	-128.174	47.222	0	1556.00	0	2.4015	0	34.5299	0	27.571	0	1537.316	0	77.1	4	23.5	4	-1E+10	1	0.0510	4	0.000123	0	-1E+10	1	-1E+10	1	-1E+10	1
4902624	13	C	10/29/2024	14:35	-128.174	47.222	0	1574.60	0	2.3710	0	34.5340	0	27.577	0	1555.625	0	-1e10	1	-1e10	1	-1E+10	1	-1e10	1	-1e10	1	-1E+10	1	-1E+10	1	-1E+10	1
4902624	13	C	10/29/2024	14:35	-128.174	47.222	0	1575.50	0	2.3697	0	34.5342	0	27.577	0	1556.511	0	78.4	4	23.9	4	-1E+10	1	0.0441	4	0.000134	0	-1E+10	1	-1E+10	1	-1E+10	1
4902624	13	C	10/29/2024	14:35	-128.174	47.222	0	1595.70	0	2.3408	0	34.5378	0	27.583	0	1576.392	0	81.5	4	24.8	4	-1E+10	1	0.0583	4	0.000133	0	-1E+10	1	-1E+10	1	-1E+10	1
4902624	13	C	10/29/2024	14:35	-128.174	47.222	0	1617.00	0	2.3103	0	34.5416	0	27.588	0	1597.354	0	87.0	4	26.4	4	-1E+10	1	0.0512	4	0.000110	0	-1E+10	1	-1E+10	1	-1E+10	1
4902624	13	C	10/29/2024	14:35	-128.174	47.222	0	1624.90	0	2.2990	0	34.5430	0	27.590	0	1605.128	0	-1e10	1	-1e10	1	-1E+10	1	-1e10	1	-1e10	1	-1E+10	1	-1E+10	1	-1E+10	1
4902624	13	C	10/29/2024	14:35	-128.174	47.222	0	1639.30	0	2.2778	0	34.5459	0	27.594	0	1619.298	0	93.5	4	28.4	4	-1E+10	1	0.0585	4	0.000110	0	-1E+10	1	-1E+10	1	-1E+10	1
4902624	13	C	10/29/2024	14:35	-128.174	47.222	0	1662.20	0	2.2440	0	34.5504	0	27.601	0	1641.830	0	98.5	4	29.9	4	-1E+10	1	0.0653	4	0.000132	0	-1E+10	1	-1E+10	1	-1E+10	1
4902624	13	C	10/29/2024	14:35	-128.174	47.222	0	1675.10	0	2.2250	0	34.5530	0	27.605	0	1654.521	0	-1e10	1	-1e10	1	-1E+10	1	-1e10	1	-1e10	1	-1E+10	1	-1E+10	1	-1E+10	1
4902624	13	C	10/29/2024	14:35	-128.174	47.222	0	1678.70	0	2.2209	0	34.5536	0	27.605	0	1658.063	0	101.0	4	30.6	4	-1E+10	1	0.0511	4	0.000098	0	-1E+10	1	-1E+10	1	-1E+10	1
4902624	13	C	10/29/2024	14:35	-128.174	47.222	0	1696.60	0	2.2007	0	34.5565	0	27.609	0	1675.672	0	104.0	4	31.5	4	-1E+10	1	0.0511	4	0.000122	0	-1E+10	1	-1E+10	1	-1E+10	1
4902624	13	C	10/29/2024	14:35	-128.174	47.222	0	1715.80	0	2.1790	0	34.5596	0	27.614	0	1694.559	0	106.3	4	32.2	4	-1E+10	1	0.0511	4	0.000167	0	-1E+10	1	-1E+10	1	-1E+10	1
4902624	13	C	10/29/2024	14:35	-128.174	47.222	0	1724.60	0	2.1690	0	34.5610	0	27.616	0	1703.214	0	-1e10	1	-1e10	1	-1E+10	1	-1e10	1	-1e10	1	-1E+10	1	-1E+10	1	-1E+10	1
4902624	13	C	10/29/2024	14:35	-128.174	47.222	0	1735.90	0	2.1589	0	34.5626	0	27.618	0	1714.329	0	107.8	4	32.6	4	-1E+10	1	0.0511	4	0.000120	0	-1E+10	1	-1E+10	1	-1E+10	1
4902624	13	C	10/29/2024	14:35	-128.174	47.222	0	1756.90	0	2.1402	0	34.5655	0	27.622	0	1734.982	0	110.0	4	33.3	4	-1E+10	1	0.0510	4	0.000109	0	-1E+10	1	-1E+10	1	-1E+10	1
4902624	13	C	10/29/2024	14:35	-128.174	47.222	0	1775.00	0	2.1240	0	34.5680	0	27.625	0	1752.781	0	-1e10	1	-1e10	1	-1E+10	1	-1e10	1	-1e10	1	-1E+10	1	-1E+10	1	-1E+10	1
4902624	13	C	10/29/2024	14:35	-128.174	47.222	0	1778.60	0	2.1210	0	34.5685	0	27.626	0	1756.321	0	111.8	4	33.8	4	-1E+10	1	0.0439	4	0.000132	0	-1E+10	1	-1E+10	1	-1E+10	1
4902624	13	C	10/29/2024	14:35	-128.174	47.222	0	1801.00	0	2.1025	0	34.5717	0	27.630	0	1778.347	0	113.1	4	34.2	4	-1E+10	1	0.0511	4	0.000143	0	-1E+10	1	-1E+10	1	-1E+10	1
4902624	13	C	10/29/2024	14:35	-128.174	47.222	0	1823.60	0	2.0837	0	34.5749	0	27.634	0	1800.567	0	114.3	4	34.5	4	-1E+10	1	0.0513	4	0.000131	0	-1E+10	1	-1E+10	1	-1E+10	1
4902624	13	C	10/29/2024	14:35	-128.174	47.222	0	1824.50	0	2.0830	0	34.5750	0	27.634	0	1801.452	0	-1e10	1	-1e10	1	-1E+10	1	-1e10	1	-1e10	1	-1E+10	1	-1E+10	1	-1E+10	1
4902624	13	C	10/29/2024	14:35	-128.174	47.222	0	1846.50	0	2.0653	0	34.5780	0	27.638	0	1823.080	0	115.5	4	34.9	4	-1E+10	1	0.0586	4	0.000119	0	-1E+10	1	-1E+10	1	-1E+10	1
4902624	13	C	10/29/2024	14:35	-128.174	47.222	0	1870.00	0	2.0464	0	34.5812	0	27.642	0	1846.180	0	116.3	4	35.1	4	-1E+10	1	0.0651	4	0.000107	0	-1E+10	1	-1E+10	1	-1E+10	1
4902624	13	C	10/29/2024	14:35	-128.174	47.222	0	1875.50	0	2.0420	0	34.5820	0	27.643	0	1851.586	0	-1e10	1	-1e10	1	-1E+10	1	-1e10	1	-1e10	1	-1E+10	1	-1E+10	1	-1E+10	1
4902624	13	C	10/29/2024	14:35	-128.174	47.222	0	1886.80	0	2.0332	0	34.5834	0	27.645	0	1862.692	0	116.9	4	35.3	4	-1E+10	1	0.0439	4	0.000119	0	-1E+10	1	-1E+10	1	-1E+10	1
4902624	13	C	10/29/2024	14:35	-128.174	47.222	0	1903.40	0	2.0204	0	34.5854	0	27.648	0	1879.007	0	117.3	4	35.4	4	-1E+10	1	0.0508	4	0.000129	0	-1E+10	1	-1E+10	1	-1E+10	1
4902624	13	C	10/29/2024	14:35	-128.174	47.222	0	1920.70	0	2.0069	0	34.5875	0	27.651	0	1896.008	0	117.3	4	35.4	4	-1E+10	1	0.0368	4	0.000107	0	-1E+10	1	-1E+10	1	-1E+10	1
4902624	13	C	10/29/2024	14:35	-128.174	47.222	0	1924.50	0	2.0040	0	34.5880	0	27.651	0	1899.742	0	-1e10	1	-1e10	1	-1E+10	1	-1e10	1	-1e10	1	-1E+10	1	-1E+10	1	-1E+10	1
4902624	13	C	10/29/2024	14:35	-128.174	47.222	0	1938.70	0	1.9950	0	34.5898	0	27.654	0	1913.696	0	117.9	4	35.6	4	-1E+10	1	0.0511	4	0.000140	0	-1E+10	1	-1E+10	1	-1E+10	1
4902624	13	C	10/29/2024	14:35	-128.174	47.222	0	1957.30	0	1.9831	0	34.5922	0	27.657	0	1931.972	0	118.7	4	35.8	4	-1E+10	1	0.0510	4	0.000094	0	-1E+10	1	-1E+10	1	-1E+10	1
4902624	13	C	10/29/2024	14:35	-128.174	47.222	0	1971.60	0	1.9740	0	34.5940	0	27.659	0	1946.021	0	-1e10	1	-1e10	1	-1E+10	1	-1e10	1	-1e10	1	-1E+10	1	-1E+10	1	-1E+10	1
4902624	13	C	10/29/2024	14:35	-128.174	47.222	0	1976.50	0	-1e10	1	-1e10	1	-1e10	1	1950.835	0	122.8	4	-1e10	4	-1E+10	1	0.0441	4	0.000113	0	-1E+10	1	-1E+10	1	-1E+10	1
4902624	13	C	10/29/2024	14:35	-128.174	47.222	0	1992.80	0	-1e10	1	-1e10	1	-1e10	1	1966.849	0	118.9	4	-1e10	4	-1E+10	1	0.0584	4	0.000136	0	-1E+10	1	-1E+10	1	-1E+10	1
4902624	13	C	10/29/2024	14:35	-128.174	47.222	0																										
4902624	14	C	11/08/2024	09:43	-127.925	47.133	0	0.00	0	12.4480	0	32.0217	0	24.193	0	0.000	0	-1e10	1	-1e10	1	-1E+10	1	1.6863	4	0.001641	0	-1E+10	1	-1E+10	1	-1E+10	1
4902624	14	C	11/08/2024	09:43	-127.925	47.133	0	0.30	0	12.4390	0	32.0317	0	24.203	0	0.298	0	-1e10	1	-1e10	1	-1E+10	1	1.7447	4	0.001559	0	-1E+10	1	-1E+10	1	-1E+10	1
4902624	14	C	11/08/2024	09:43	-127.925	47.133	0	0.40	0	12.4360	0	32.0350	0	24.206	0	0.397	0	245.0	4	92.0	4	-1E+10	1	-1e10	1	-1e10	1	-1E+10	1	-1E+10	1	-1E+10	1
4902624	14	C	11/08/2024	09:43	-127.925	47.133	0	0.50	0	12.4361	0	32.0356	0	24.206	0	0.496	0	244.6	4	91.8	4	-1E+10	1	-1e10	1	-1e10	1	-1E+10	1	-1E+10	1	-1E+10	1
4902624	14	C	11/08/2024	09:43	-127.925	47.133	0	0.80	0	12.4364	0	32.0374	0	24.208	0	0.793	0	244.2	4	91.7	4	-1E+10	1	1.7228	4	0.001594	0	-1E+10	1	-1E+10	1	-1E+10	1
4902624	14	C	11/08/2024	09:43	-127.925	47.133	0	1.00	0	12.4366	0	32.0386	0	24.209	0	0.992	0	-1e10	1	-1e10	1	-1E+10	1	1.7374	4	0.001618	0	-1E+10	1	-1E+10	1	-1E+10	1
4902624	14	C	11/08/2024	09:43	-127.925	47.133	0	1.10	0	12.4367	0	32.0392	0	24.209	0	1.091	0	-1e10	1	-1e10	1	-1E+10	1	1.7739	4	0.001665	0	-1E+10	1	-1E+10	1	-1E+10	1
4902624	14	C	11/08/2024	09:43	-127.925	47.133	0	1.30	0	12.4369	0	32.0404	0	24.210	0	1.289	0	-1e10	1	-1e10	1	-1E+10	1	1.7885	4	0.001582	0	-1E+10	1	-1E+10	1	-1E+10	1
4902624	14	C	11/08/2024	09:43	-127.925	47.133	0	1.40	0	12.4370	0	32.0410	0	24.211	0	1.388	0	-1e10	1	-1e10	1	-1E+10	1	-1e10	1	-1e10	1	-1E+10	1	-1E+10	1	-1E+10	1
4902624	14	C	11/08/2024	09:43	-127.925	47.133	0	1.50	0	12.4369	0	32.0409	0	24.210	0	1.488	0	-1e10	1	-1e10	1	-1E+10	1	1.7374	4	0.001512	0	-1E+10	1	-1E+10	1	-1E+10	1
4902624	14	C	11/08/2024	09:43	-127.925	47.133	0	1.90	0	12.4365	0	32.0405	0	24.210	0	1.884	0	-1e10	1	-1e10	1	-1E+10	1	1.7593	4	0.001641	0	-1E+10	1	-1E+10	1	-1E+10	1
4902624	14	C	11/08/2024	09:43	-127.925	47.133	0	2.00	0	12.4365	0	32.0405	0	24.210	0	1.983	0	-1e10	1	-1e10	1	-1E+10	1	1.7228	4	0.001582	0	-1E+10	1	-1E+10	1	-1E+10	1
4902624	14	C	11/08/2024	09:43	-127.925	47.133	0	2.20	0	12.4363	0	32.0403	0	24.210	0	2.182	0	243.7	4	91.5	4	-1E+10	1	1.7520	4	0.001547	0	-1E+10	1	-1E+10	1	-1E+10	1
4902624	14	C	11/08/2024	09:43	-127.925	47.133	0	2.40	0	12.4361	0	32.0401	0	24.210	0	2.380	0	-1e10	1	-1e10	1	-1E+10	1	1.8177	4	0.001641	0	-1E+10	1	-1E+10	1	-1E+10	1
4902624	14	C	11/08/2024	09:43	-127.925	47.133	0	2.50	0	12.4360	0	32.0400	0	24.210	0	2.479	0	-1e10	1	-1e10	1	-1E+10	1	1.7739	4	0.001723	0	-1E+10	1	-1E+10	1	-1E+10	1
4902624	14	C	11/08/2024	09:43	-127.925	47.133	0	2.70	0	12.4358	0	32.0402	0	24.210	0	2.678	0	-1e10	1	-1e10	1	-1E+10	1	1.7958	4	0.001594	0	-1E+10	1	-1E+10	1	-1E+10	1
4902624	14	C	11/08/2024	09:43	-127.925	47.133	0	2.80	0	12.4357	0	32.0403	0	24.210	0	2.777	0	243.6	4	91.4	4	-1E+10	1	1.7155	4	0.001489	0	-1E+10	1	-1E+10	1	-1E+10	1
4902624	14	C	11/08/2024	09:43	-127.925	47.133	0	3.00	0	12.4355	0	32.0405	0	24.210	0	2.975	0	-1e10	1	-1e10	1	-1E+10	1	1.7374	4	0.001582	0	-1E+10	1	-1E+10	1	-1E+10	1
4902624	14	C	11/08/2024	09:43	-127.925	47.133	0	3.30	0	12.4352	0	32.0408	0	24.211	0	3.273	0	-1e10	1	-1e10	1	-1E+10	1	1.7520	4	0.001676	0	-1E+10	1	-1E+10	1	-1E+10	1
4902624	14	C	11/08/2024	09:43	-127.925	47.133	0	3.40	0	12.4351	0	32.0409	0	24.211	0	3.372	0	-1e10	1	-1e10	1	-1E+10	1	1.7228	4	0.001536	0	-1E+10	1	-1E+10	1	-1E+10	1
4902624	14	C	11/08/2024	09:43	-127.925	47.133	0	3.50	0	12.4350	0	32.0410	0	24.211	0	3.471	0	-1e10	1	-1e10	1	-1E+10	1	-1e10	1	-1e10	1	-1E+10	1	-1E+10	1	-1E+10	1
4902624	14	C	11/08/2024	09:43	-127.925	47.133	0	3.60	0	12.4349	0	32.0410	0	24.211	0	3.570	0	243.3	4	91.3	4	-1E+10	1	1.8396	4	0.001606	0	-1E+10	1	-1E+10	1	-1E+10	1
4902624	14	C	11/08/2024	09:43	-127.925	47.133	0	3.80	0	12.4347	0	32.0410	0	24.211	0	3.768	0	-1e10	1	-1e10	1	-1E+10	1	1.7666	4	0.001582	0	-1E+10	1	-1E+10	1	-1E+10	1
4902624	14	C	11/08/2024	09:43	-127.925	47.133	0	3.90	0	12.4346	0	32.0410	0	24.211	0	3.868	0	-1e10	1	-1e10	1	-1E+10	1	1.7228	4	0.001805	0	-1E+10	1	-1E+10	1	-1E+10	1
4902624	14	C	11/08/2024	09:43	-127.925	47.133	0	4.10	0	12.4344	0	32.0410	0	24.211	0	4.066	0	-1e10	1	-1e10	1	-1E+10	1	1.8177	4	0.001629	0	-1E+10	1	-1E+10	1	-1E+10	1
4902624	14	C	11/08/2024	09:43	-127.925	47.133	0	4.40	0	12.4341	0	32.0410	0	24.211	0	4.363	0	243.2	4	91.3	4	-1E+10	1	1.8226	4	0.001657	0	-1E+10	1	-1E+10	1	-1E+10	1
4902624	14	C	11/08/2024	09:43	-127.925	47.133	0	4.50	0	12.4340	0	32.0410	0	24.211	0	4.463	0	-1e10	1	-1e10	1	-1E+10	1	-1e10	1	-1e10	1	-1E+10	1	-1E+10	1	-1E+10	1
4902624	14	C	11/08/2024	09:43	-127.925	47.133	0	4.60	0	12.4339	0	32.0410	0	24.211	0	4.562	0	-1e10	1	-1e10	1	-1E+10	1	1.8177	4	0.001665	0	-1E+10	1	-1E+10	1	-1E+10	1
4902624	14	C	11/08/2024	09:43	-127.925	47.133	0	4.70	0	12.4338	0	32.0410	0	24.211	0	4.661	0	-1e10	1	-1e10	1	-1E+10	1	1.7301	4	0.001559	0	-1E+10	1	-1E+10	1	-1E+10	1
4902624	14	C	11/08/2024	09:43	-127.925	47.133	0	4.90	0	12.4336	0	32.0410	0	24.211	0	4.859	0	-1e10	1	-1e10	1	-1E+10	1	1.8396	4	0.001594	0	-1E+10	1	-1E+10	1	-1E+10	1
4902624	14	C	11/08/2024	09:43	-127.925	47.133	0	5.10	0	12.4334	0	32.0410	0	24.211	0	5.058	0	-1e10	1	-1e10	1	-1E+10	1	1.8177	4	0.001688	0	-1E+10	1	-1E+10	1	-1E+10	1
4902624	14	C	11/08/2024	09:43	-127.925	47.133	0	5.30	0	12.4332	0	32.0410	0	24.211	0	5.256	0	243.0	4	91.2	4	-1E+10	1	1.7520	4	0.001665	0	-1E+10	1	-1E+10	1	-1E+10	1
4902624	14	C	11/08/2024	09:43	-127.925	47.133	0	5.40	0	12.4331	0	32.0410	0	24.211	0	5.355	0	-1e10	1	-1e10	1	-1E+10	1	1.7739	4	0.001653	0	-1E+10	1	-1E+10	1	-1E+10	1
4902624	14	C	11/08/2024	09:43	-127.925	47.133	0	5.50	0	12.4330	0	32.0410	0	24.211	0	5.454	0	-1e10	1	-1e10	1	-1E+10	1	-1e10	1	-1e10	1	-1E+10	1	-1E+10	1	-1E+10	1
4902624	14	C	11/08/2024	09:43	-127.925	47.133	0	5.60	0	12.4333	0	32.0410	0	24.211	0	5.553	0	-1e10	1	-1e10	1	-1E+10	1	1.7739	4	0.001571	0	-1E+10	1	-1E+10	1	-1E+10	1
4902624	14	C	11/08/2024	09:43	-127.925	47.133	0	5.70	0	12.4336	0	32.0410	0	24.211	0	5.653	0	-1e10	1	-1e10	1	-1E+10	1	1.7447	4	0.001653	0	-1E+10	1	-1E+10	1	-1E+10	1
4902624	14	C	11/08/2024	09:43	-127.925	47.133	0	6.10	0	12.4348	0	32.0410	0	24.211	0	6.049	0	242.8	4	91.1	4	-1E+10	1	1.8323	4	0.001735	0	-1E+10	1	-1E+10	1	-1E+10	1
4902624	14	C	11/08/2024	09:43	-127.925	47.133	0	6.30	0	12.4354	0	32.0410	0	24.211	0	6.248	0	-1e10	1	-1e10	1	-1E+10	1	1.7447	4	0.001582	0	-1E+10	1	-1E+10	1	-1E+10	1
4902624	14	C	11/08/2024	09:43	-127.925	47.133	0	6.40	0	12.4357	0	32.0410	0	24.211	0	6.347	0	-1e10	1	-1e10	1	-1E+10	1	1.7666	4	0.001794	0	-1E+10	1	-1E+10	1	-1E+10	1
4902624	14	C	11/08/2024	09:43	-127.925	47.133	0	6.50	0	12.4360	0	32.0410	0	24.211	0	6.446	0	-1e10	1	-1e10	1	-1E+10	1	-1e10	1	-1e10	1	-1E+10	1	-1E+10	1	-1E+10	1
4902624	14	C	11/08/2024	09:43	-127.925	47.133	0	6.60	0	12.4360	0	32.0410	0	24.211	0	6.545	0	-1e10	1	-1e10	1	-1E+10	1	1.7520	4	0.001618	0	-1E+10	1	-1E+10	1	-1E+10	1
4902624	14	C	11/08/2024	09:43	-127.925	47.133	0	6.80	0	12.4360	0	32.0410	0	24.211	0	6.743	0	-1e10	1	-1e10	1	-1E+10	1	1.7374	4	0.001629	0	-1E+10	1	-1E+10	1	-1E+10	1
4902624	14	C	11/08/2024	09:43	-127.925	47.133	0	6.90	0	12.4360	0	32.0410	0	24.211	0	6.843	0	242.6	4	91.1	4	-1E+10	1	1.7666	4	0.001618	0	-1E+10	1	-1E+10	1	-1E+10	1
4902624	14	C	11/08/2024	09:43	-127.925	47.133	0	7.10	0	12.4360	0	32.0410	0	24.211	0	7.041	0	-1e10	1	-1e10	1	-1E+10	1	1.7082	4	0.001571	0	-1E+10	1	-1E+10	1	-1E+10	1
4902624	14	C	11/08/2024	09:43	-127.925	47.133	0	7.50	0	12.4360	0	32.0410	0	24.211	0	7.438	0	-1e10	1	-1e10	1	-1E+10	1	1.7447	4	0.001629	0	-1E+10	1	-1E+10	1	-1E+10	1
4902624	14	C	11/08/2024	09:43	-127.925	47.133	0	7.60	0	12.4359	0	32.0410	0	24.211	0	7.537	0	-1e10	1	-1e10	1	-1E+10	1	1.7447	4	0.001606	0	-1E+10	1	-1E+10	1	-1E+10	1
4902624	14	C	11/08/2024	09:43	-127.925	47.133	0	7.80	0	12.4357	0	32.0410	0	24.211	0	7.735	0	242.3	4	91.0	4	-1E+10	1	1.7666	4	0.001641	0	-1E+10	1	-1E+10	1	-1E+10	1
4902624	14	C	11/08/2024	09:43	-127.925	47.133	0	7.90	0	12.4356	0	32.0410	0	24.211	0	7.834	0	-1e10	1	-1e10	1	-1E+10	1	1.7666	4	0.001582	0	-1E+10	1	-1E+10	1	-1E+10	1
4902624	14	C	11/08/2024	09:43	-127.925	47.133	0	8.10	0	12.4354	0	32.0410	0	24.211	0	8.033	0	-1e10	1	-1e10	1	-1E+10	1	1.7593	4	0.001653	0	-1E+10	1	-1E+10	1	-1E+10	1
4902624	14	C	11/08/2024	09:43	-127.925	47.133	0	8.30	0	12.4352	0	32.0410	0	24.211	0	8.231	0	-1e10	1	-1e10	1	-1E+10	1	1.7666	4	0.001629	0	-1E+10	1	-1E+10	1	-1E+10	1
4902624	14	C	11/08/2024	09:43	-127.925	47.133	0	8.50	0	12.4350	0	32.0410	0	24.211	0	8.429	0	-1e10	1	-1e10	1	-1E+10	1	1.7812	4	0.001618	0	-1E+10	1	-1E+10	1	-1E+10	1
4902624	14	C	11/08/2024	09:43	-127.925	47.133	0	8.60	0	12.4349	0	32.0410	0	24.211	0	8.528	0	241.9	4	90.8	4	-1E+10	1	1.8323	4	0.001641	0	-1E+10	1	-1E+10	1	-1E+10	1
4902624	14	C	11/08/2024	09:43	-127.925	47.133	0	8.90	0	12.4346	0	32.0410	0	24.211	0	8.826	0	-1e10	1	-1e10	1	-1E+10	1	1.7447	4	0.001618	0	-1E+10	1	-1E+10	1	-1E+10	1
4902624	14	C	11/08/2024	09:43	-127.925	47.133	0	9.10	0	12.4344	0	32.0410	0	24.211	0	9.024	0	-1e10	1	-1e10	1	-1E+10	1	1.7593	4	0.001629	0	-1E+10	1	-1E+10	1	-1E+10	1
4902624	14	C	11/08/2024	09:43	-127.925	47.133	0	9.30	0	12.4342	0	32.0410	0	24.211	0	9.222	0	-1e10	1	-1e10	1	-1E+10	1	1.7520	4	0.001535	0	-1E+10	1	-1E+10	1	-1E+10	1
4902624	14	C	11/08/2024	09:43	-127.925	47.133	0	9.50	0	12.4340	0	32.0410	0	24.211	0	9.421	0	241.5	4	90.7	4	-1E+10	1	1.7739	4	0.001629	0	-1E+10	1	-1E+10	1	-1E+10	1
4902624	14	C	11/08/2024	09:43	-127.925	47.133	0	9.70	0	12.4339	0	32.0409	0	24.211	0	9.619	0	-1e10	1	-1e10	1	-1E+10	1	1.7447	4	0.001641	0	-1E+10	1	-1E+10	1	-1E+10	1
4902624	14	C	11/08/2024	09:43	-127.925	47.133	0	10.40	0	12.4334	0	32.0404	0	24.211	0	10.313	0	241.0	4	90.5	4	-1E+10	1	1.8265	4	0.001594	0	-1E+10	1	-1E+10	1	-1E+10	1
4902624	14	C	11/08/2024	09:43	-127.925	47.133	0	10.90	0	12.4330	0	32.0400	0	24.211	0	10.809	0	-1e10	1	-1e10	1	-1E+10	1	-1e10	1	-1e10	1	-1E+10	1	-1E+10	1	-1E+10	1
4902624	14	C	11/08/2024	09:43	-127.925	47.133	0	11.40	0	12.4312	0	32.0403	0	24.211	0	11.305	0	240.4	4	90.2	4	-1E+10	1	1.8878	4	0.001543	0	-1E+10	1	-1E+10	1	-1E+10	1
4902624	14	C	11/08/2024	09:43	-127.925	47.133	0	12.40	0	12.4277	0	32.0407	0	24.212	0	12.297	0	240.0	4	90.1	4	-1E+10	1	1.8863	4	0.001601	0	-1E+10	1	-1E+10	1	-1E+10	1
4902624	14	C	11/08/2024	09:43	-127.925	47.133	0	12.90	0	12.4260	0	32.0410	0	24.213	0	12.792	0	-1e10	1	-1e10	1	-1E+10	1	-1e10	1	-1e10	1	-1E+10	1	-1E+10	1	-1E+10	1
4902624	14	C	11/08/2024	09:43	-127.925	47.133	0	13.50	0	12.4226	0	32.0404	0	24.213	0	13.387	0	239.4	4	89.8	4	-1E+10	1	1.8581	4	0.001590	0	-1E+10	1	-1E+10	1	-1E+10	1
4902624	14	C	11/08/2024	09:43	-127.925	47.133	0	14.50	0	12.4169	0	32.0395	0	24.213	0	14.379	0	238.9	4	89.6	4	-1E+10	1	1.8673	4	0.001625	0	-1E+10	1	-1E+10	1	-1E+10	1
4902624	14	C	11/08/2024	09:43	-127.925	47.133	0	15.00	0	12.4140	0	32.0390	0	24.214	0	14.875	0	-1e10	1	-1e10	1	-1E+10	1	-1e10	1	-1e10	1	-1E+10	1	-1E+10	1	-1E+10	1
4902624	14	C	11/08/2024	09:43	-127.925	47.133	0	15.50	0	12.4045	0	32.0410	0	24.217	0	15.371	0	238.3	4	89.4	4	-1E+10	1	1.8639	4	0.001680	0	-1E+10	1	-1E+10	1	-1E+10	1
4902624	14	C	11/08/2024	09:43	-127.925	47.133	0	16.50	0	12.3855	0	32.0450	0	24.224	0	16.362	0	237.6	4	89.1	4	-1E+10	1	1.8469	4	0.001522	0	-1E+10	1	-1E+10	1	-1E+10	1
4902624	14	C	11/08/2024	09:43	-127.925	47.133	0	17.00	0	12.3760	0	32.0470	0	24.227	0	16.858	0	-1e10	1	-1e10	1	-1E+10	1	-1e10	1	-1e10	1	-1E+10	1	-1E+10	1	-1E+10	1
4902624	14	C	11/08/2024	09:43	-127.925	47.133	0	17.50	0	12.3472	0	32.0482	0	24.233	0	17.354	0	236.7	4	88.7	4	-1E+10	1	1.8834	4	0.001512	0	-1E+10	1	-1E+10	1	-1E+10	1
4902624	14	C	11/08/2024	09:43	-127.925	47.133	0	18.50	0	12.2898	0	32.0508	0	24.246	0	18.345	0	235.9	4	88.3	4	-1E+10	1	1.8104	4	0.001559	0	-1E+10	1	-1E+10	1	-1E+10	1
4902624	14	C	11/08/2024	09:43	-127.925	47.133	0	19.00	0	12.2610	0	32.0520	0	24.253	0	18.841	0	-1e10	1	-1e10	1	-1E+10	1	-1e10	1	-1e10	1	-1E+10	1	-1E+10	1	-1E+10	1
4902624	14	C	11/08/2024	09:43	-127.925	47.133	0	19.70	0	12.1644	0	32.0632	0	24.279	0	19.535	0	235.4	4	87.9	4	-1E+10	1	1.5288	4	0.001318	0	-1E+10	1	-1E+10	1	-1E+10	1
4902624	14	C	11/08/2024	09:43	-127.925	47.133	0	20.70	0	12.0264	0	32.0792	0	24.318	0	20.527	0	235.2	4	87.6	4	-1E+10	1	1.3693	4	0.001324	0	-1E+10	1	-1E+10	1	-1E+10	1
4902624	14	C	11/08/2024	09:43	-127.925	47.133	0	21.00	0	11.9850	0	32.0840	0	24.329	0	20.824	0	-1e10	1	-1e10	1	-1E+10	1	-1e10	1	-1e10	1	-1E+10	1	-1E+10	1	-1E+10	1
4902624	14	C	11/08/2024	09:43	-127.925	47.133	0	21.90	0	11.9337	0	32.0881	0	24.342	0	21.717	0	235.0	4	87.3	4	-1E+10	1	1.2410	4	0.001366	0	-1E+10	1	-1E+10	1	-1E+10	1
4902624	14	C	11/08/2024	09:43	-127.925	47.133	0	23.00	0	11.8710	0	32.0930	0	24.357	0	22.808	0	234.0	4	86.8	4	-1E+10	1	1.1910	4	0.001404	0	-1E+10	1	-1E+10	1	-1E+10	1
4902624	14	C	11/08/2024	09:43	-127.925	47.133	0	24.10	0	11.8644	0	32.0919	0	24.357	0	23.898	0	233.5	4	86.7	4	-1E+10	1	1.1565	4	0.001408	0	-1E+10	1	-1E+10	1	-1E+10	1
4902624	14	C	11/08/2024	09:43	-127.925	47.133	0	25.00	0	11.8590	0	32.0910	0	24.358	0	24.791	0	-1e10	1	-1e10	1	-1E+10	1	-1e10	1	-1e10	1	-1E+10	1	-1E+10	1	-1E+10	1
4902624	14	C	11/08/2024	09:43	-127.925	47.133	0	25.30	0	11.8571	0	32.0912	0	24.358	0	25.088	0	232.6	4	86.3	4	-1E+10	1	1.1008	4	0.001324	0	-1E+10	1	-1E+10	1	-1E+10	1
4902624	14	C	11/08/2024	09:43	-127.925	47.133	0	26.30	0	11.8508	0	32.0917	0	24.360	0	26.080	0	231.5	4	85.9	4	-1E+10	1	1.0524	4	0.001305	0	-1E+10	1	-1E+10	1	-1E+10	1
4902624	14	C	11/08/2024	09:43	-127.925	47.133	0	26.90	0	11.8470	0	32.0920	0	24.361	0	26.675	0	-1e10	1	-1e10	1	-1E+10	1	-1e10	1	-1e10	1	-1E+10	1	-1E+10	1	-1E+10	1
4902624	14	C	11/08/2024	09:43	-127.925	47.133	0	27.30	0	11.8455	0	32.0924	0	24.361	0	27.071	0	230.3	4	85.4	4	-1E+10	1	0.9855	4	0.001207	0	-1E+10	1	-1E+10	1	-1E+10	1
4902624	14	C	11/08/2024	09:43	-127.925	47.133	0	28.30	0	11.8417	0	32.0933	0	24.363	0	28.063	0	229.1	4	85.0	4	-1E+10	1	0.8906	4	0.001359	0	-1E+10	1	-1E+10	1	-1E+10	1
4902624	14	C	11/08/2024	09:43	-127.925	47.133	0	28.80	0	11.8398	0	32.0938	0	24.364	0	28.559	0	228.0	4	84.6	4	-1E+10	1	0.8906	4	0.001222	0	-1E+10	1	-1E+10	1	-1E+10	1
4902624	14	C	11/08/2024	09:43	-127.925	47.133	0	29.00	0	11.8390	0	32.0940	0	24.364	0	28.757	0	-1e10	1	-1e10	1	-1E+10	1	-1e10	1	-1e10	1	-1E+10	1	-1E+10	1	-1E+10	1
4902624	14	C	11/08/2024	09:43	-127.925	47.133	0	29.30	0	11.8355	0	32.0942	0	24.365	0	29.054	0	226.9	4	84.1	4	-1E+10	1	0.8614	4	0.001195	0	-1E+10	1	-1E+10	1	-1E+10	1
4902624	14	C	11/08/2024	09:43	-127.925	47.133	0	29.90	0	11.8286	0	32.0945	0	24.366	0	29.649	0	225.6	4	83.6	4	-1E+10	1	0.8307	4	0.001188	0	-1E+10	1	-1E+10	1	-1E+10	1
4902624	14	C	11/08/2024	09:43	-127.925	47.133	0	30.40	0	11.8229	0	32.0947	0	24.367	0	30.145	0	224.0	4	83.1	4	-1E+10	1	0.8212	4	0.001183	0	-1E+10	1	-1E+10	1	-1E+10	1
4902624	14	C	11/08/2024	09:43	-127.925	47.133	0	30.90	0	11.8172	0	32.0950	0	24.369	0	30.641	0	222.4	4	82.4	4	-1E+10	1	0.8006	4	0.001176	0	-1E+10	1	-1E+10	1	-1E+10	1
4902624	14	C	11/08/2024	09:43	-127.925	47.133	0	31.00	0	11.8160	0	32.0950	0	24.369	0	30.740	0	-1e10	1	-1e10	1	-1E+10	1	-1e10	1	-1e10	1	-1E+10	1	-1E+10	1	-1E+10	1
4902624	14	C	11/08/2024	09:43	-127.925	47.133	0	31.40	0	11.8011	0	32.0965	0	24.373	0	31.137	0	220.8	4	81.8	4	-1E+10	1	0.7738	4	0.001174	0	-1E+10	1	-1E+10	1	-1E+10	1
4902624	14	C	11/08/2024	09:43	-127.925	47.133	0	31.90	0	11.7824	0	32.0983	0	24.378	0	31.632	0	218.9	4	81.1	4	-1E+10	1	0.8103	4	0.001242	0	-1E+10	1	-1E+10	1	-1E+10	1
4902624	14	C	11/08/2024	09:43	-127.925	47.133	0	32.40	0	11.7637	0	32.1002	0	24.383	0	32.128	0	217.2	4	80.4	4	-1E+10	1	0.7592	4	0.001136	0	-1E+10	1	-1E+10	1	-1E+10	1
4902624	14	C	11/08/2024	09:43	-127.925	47.133	0	32.90	0	11.7450	0	32.1020	0	24.387	0	32.624	0	214.8	4	79.5	4	-1E+10	1	0.7409	4	0.001117	0	-1E+10	1	-1E+10	1	-1E+10	1
4902624	14	C	11/08/2024	09:43	-127.925	47.133	0	33.50	0	11.6121	0	32.1214	0	24.427	0	33.219	0	212.8	4	78.6	4	-1E+10	1	0.6904	4	0.001188	0	-1E+10	1	-1E+10	1	-1E+10	1
4902624	14	C	11/08/2024	09:43	-127.925	47.133	0	34.10	0	11.4793	0	32.1409	0	24.466	0	33.814	0	210.2	4	77.4	4	-1E+10	1	0.6174	4	0.001058	0	-1E+10	1	-1E+10	1	-1E+10	1
4902624	14	C	11/08/2024	09:43	-127.925	47.133	0	34.70	0	11.3464	0	32.1603	0	24.505	0	34.409	0	208.4	4	76.5	4	-1E+10	1	0.5611	4	0.000937	0	-1E+10	1	-1E+10	1	-1E+10	1
4902624	14	C	11/08/2024	09:43	-127.925	47.133	0	35.00	0	11.2800	0	32.1700	0	24.524	0	34.706	0	-1e10	1	-1e10	1	-1E+10	1	-1e10	1	-1e10	1	-1E+10	1	-1E+10	1	-1E+10	1
4902624	14	C	11/08/2024	09:43	-127.925	47.133	0	35.40	0	11.1823	0	32.1843	0	24.553	0	35.103	0	206.0	4	75.4	4	-1E+10	1	0.5207	4	0.000914	0	-1E+10	1	-1E+10	1	-1E+10	1
4902624	14	C	11/08/2024	09:43	-127.925	47.133	0	36.10	0	11.0114	0	32.2094	0	24.602	0	35.797	0	203.3	4	74.1	4	-1E+10	1	0.4776	4	0.000855	0	-1E+10	1	-1E+10	1	-1E+10	1
4902624	14	C	11/08/2024	09:43	-127.925	47.133	0	36.90	0	10.8160	0	32.2380	0	24.659	0	36.590	0	200.9	4	73.0	4	-1E+10	1	0.4468	4	0.000780	0	-1E+10	1	-1E+10	1	-1E+10	1
4902624	14	C	11/08/2024	09:43	-127.925	47.133	0	37.70	0	10.5992	0	32.2708	0	24.722	0	37.383	0	200.4	4	72.5	4	-1E+10	1	0.4234	4	0.000761	0	-1E+10	1	-1E+10	1	-1E+10	1
4902624	14	C	11/08/2024	09:43	-127.925	47.133	0	38.50	0	10.3825	0	32.3035	0	24.784	0	38.176	0	198.9	4	71.6	4	-1E+10	1	0.3884	4	0.000695	0	-1E+10	1	-1E+10	1	-1E+10	1
4902624	14	C	11/08/2024	09:43	-127.925	47.133	0	39.00	0	10.2470	0	32.3240	0	24.823	0	38.672	0	-1e10	1	-1e10	1	-1E+10	1	-1e10	1	-1e10	1	-1E+10	1	-1E+10	1	-1E+10	1
4902624	14	C	11/08/2024	09:43	-127.925	47.133	0	39.40	0	10.1636	0	32.3346	0	24.845	0	39.069	0	196.9	4	70.6	4	-1E+10	1	0.3512	4	0.000661	0	-1E+10	1	-1E+10	1	-1E+10	1
4902624	14	C	11/08/2024	09:43	-127.925	47.133	0	40.40	0	9.9551	0	32.3611	0	24.901	0	40.060	0	194.3	4	69.4	4	-1E+10	1	0.3256	4	0.000608	0	-1E+10	1	-1E+10	1	-1E+10	1
4902624	14	C	11/08/2024	09:43	-127.925	47.133	0	41.00	0	9.8300	0	32.3770	0	24.934	0	40.655	0	-1e10	1	-1e10	1	-1E+10	1	-1e10	1	-1e10	1	-1E+10	1	-1E+10	1	-1E+10	1
4902624	14	C	11/08/2024	09:43	-127.925	47.133	0	41.50	0	9.6790	0	32.4030	0	24.978	0	41.151	0	191.4	4	67.9	4	-1E+10	1	0.2757	4	0.000540	0	-1E+10	1	-1E+10	1	-1E+10	1
4902624	14	C	11/08/2024	09:43	-127.925	47.133	0	42.60	0	9.3470	0	32.4600	0	25.076	0	42.242	0	190.3	4	67.1	4	-1E+10	1	0.2385	4	0.000478	0	-1E+10	1	-1E+10	1	-1E+10	1
4902624	14	C	11/08/2024	09:43	-127.925	47.133	0	43.10	0	9.1960	0	32.4860	0	25.120	0	42.737	0	-1e10	1	-1e10	1	-1E+10	1	-1e10	1	-1e10	1	-1E+10	1	-1E+10	1	-1E+10	1
4902624	14	C	11/08/2024	09:43	-127.925	47.133	0	43.70	0	9.1438	0	32.4941	0	25.135	0	43.332	0	188.9	4	66.3	4	-1E+10	1	0.2229	4	0.000481	0	-1E+10	1	-1E+10	1	-1E+10	1
4902624	14	C	11/08/2024	09:43	-127.925	47.133	0	44.80	0	9.0481	0	32.5089	0	25.162	0	44.423	0	187.0	4	65.5	4	-1E+10	1	0.2148	4	0.000488	0	-1E+10	1	-1E+10	1	-1E+10	1
4902624	14	C	11/08/2024	09:43	-127.925	47.133	0	45.10	0	9.0220	0	32.5130	0	25.169	0	44.720	0	-1e10	1	-1e10	1	-1E+10	1	-1e10	1	-1e10	1	-1E+10	1	-1E+10	1	-1E+10	1
4902624	14	C	11/08/2024	09:43	-127.925	47.133	0	46.00	0	8.9453	0	32.5329	0	25.196	0	45.613	0	185.0	4	64.7	4	-1E+10	1	0.1991	4	0.000433	0	-1E+10	1	-1E+10	1	-1E+10	1
4902624	14	C	11/08/2024	09:43	-127.925	47.133	0	47.00	0	8.8600	0	32.5550	0	25.227	0	46.604	0	-1e10	1	-1e10	1	-1E+10	1	-1e10	1	-1e10	1	-1E+10	1	-1E+10	1	-1E+10	1
4902624	14	C	11/08/2024	09:43	-127.925	47.133	0	47.10	0	8.8553	0	32.5569	0	25.229	0	46.703	0	182.4	4	63.7	4	-1E+10	1	0.1773	4	0.000498	0	-1E+10	1	-1E+10	1	-1E+10	1
4902624	14	C	11/08/2024	09:43	-127.925	47.133	0	48.30	0	8.7989	0	32.5797	0	25.255	0	47.893	0	180.0	4	62.8	4	-1E+10	1	0.1898	4	0.000538	0	-1E+10	1	-1E+10	1	-1E+10	1
4902624	14	C	11/08/2024	09:43	-127.925	47.133	0	49.00	0	8.7660	0	32.5930	0	25.271	0	48.587	0	-1e10	1	-1e10	1	-1E+10	1	-1e10	1	-1e10	1	-1E+10	1	-1E+10	1	-1E+10	1
4902624	14	C	11/08/2024	09:43	-127.925	47.133	0	49.50	0	8.7530	0	32.6012	0	25.279	0	49.083	0	178.0	4	62.0	4	-1E+10	1	0.1710	4	0.000437	0	-1E+10	1	-1E+10	1	-1E+10	1
4902624	14	C	11/08/2024	09:43	-127.925	47.133	0	50.60	0	8.7244	0	32.6194	0	25.298	0	50.173	0	176.1	4	61.3	4	-1E+10	1	0.1858	4	0.000401	0	-1E+10	1	-1E+10	1	-1E+10	1
4902624	14	C	11/08/2024	09:43	-127.925	47.133	0	51.00	0	8.7140	0	32.6260	0	25.305	0	50.570	0	-1e10	1	-1e10	1	-1E+10	1	-1e10	1	-1e10	1	-1E+10	1	-1E+10	1	-1E+10	1
4902624	14	C	11/08/2024	09:43	-127.925	47.133	0	51.80	0	8.6761	0	32.6441	0	25.325	0	51.363	0	174.0	4	60.5	4	-1E+10	1	0.1655	4	0.000382	0	-1E+10	1	-1E+10	1	-1E+10	1
4902624	14	C	11/08/2024	09:43	-127.925	47.133	0	52.90	0	8.6240	0	32.6690	0	25.352	0	52.454	0	-1e10	1	-1e10	1	-1E+10	1	-1e10	1	-1e10	1	-1E+10	1	-1E+10	1	-1E+10	1
4902624	14	C	11/08/2024	09:43	-127.925	47.133	0	53.00	0	8.6191	0	32.6716	0	25.355	0	52.553	0	171.9	4	59.7	4	-1E+10	1	0.1533	4	0.000363	0	-1E+10	1	-1E+10	1	-1E+10	1
4902624	14	C	11/08/2024	09:43	-127.925	47.133	0	54.30	0	8.5561	0	32.7061	0	25.391	0	53.842	0	169.6	4	58.9	4	-1E+10	1	0.1594	4	0.000394	0	-1E+10	1	-1E+10	1	-1E+10	1
4902624	14	C	11/08/2024	09:43	-127.925	47.133	0	54.90	0	8.5270	0	32.7220	0	25.408	0	54.436	0	-1e10	1	-1e10	1	-1E+10	1	-1e10	1	-1e10	1	-1E+10	1	-1E+10	1	-1E+10	1
4902624	14	C	11/08/2024	09:43	-127.925	47.133	0	55.50	0	8.5120	0	32.7328	0	25.419	0	55.031	0	167.4	4	58.1	4	-1E+10	1	0.1606	4	0.000452	0	-1E+10	1	-1E+10	1	-1E+10	1
4902624	14	C	11/08/2024	09:43	-127.925	47.133	0	56.80	0	8.4795	0	32.7562	0	25.442	0	56.320	0	165.2	4	57.3	4	-1E+10	1	0.1431	4	0.000446	0	-1E+10	1	-1E+10	1	-1E+10	1
4902624	14	C	11/08/2024	09:43	-127.925	47.133	0	56.90	0	8.4770	0	32.7580	0	25.444	0	56.419	0	-1e10	1	-1e10	1	-1E+10	1	-1e10	1	-1e10	1	-1E+10	1	-1E+10	1	-1E+10	1
4902624	14	C	11/08/2024	09:43	-127.925	47.133	0	58.00	0	8.4623	0	32.7711	0	25.457	0	57.510	0	163.1	4	56.5	4	-1E+10	1	0.1314	4	0.000456	0	-1E+10	1	-1E+10	1	-1E+10	1
4902624	14	C	11/08/2024	09:43	-127.925	47.133	0	59.00	0	8.4490	0	32.7830	0	25.468	0	58.501	0	-1e10	1	-1e10	1	-1E+10	1	-1e10	1	-1e10	1	-1E+10	1	-1E+10	1	-1E+10	1
4902624	14	C	11/08/2024	09:43	-127.925	47.133	0	59.20	0	8.4477	0	32.7860	0	25.470	0	58.699	0	161.0	4	55.8	4	-1E+10	1	0.1241	4	0.000409	0	-1E+10	1	-1E+10	1	-1E+10	1
4902624	14	C	11/08/2024	09:43	-127.925	47.133	0	60.40	0	8.4399	0	32.8040	0	25.486	0	59.889	0	158.9	4	55.0	4	-1E+10	1	0.1314	4	0.000432	0	-1E+10	1	-1E+10	1	-1E+10	1
4902624	14	C	11/08/2024	09:43	-127.925	47.133	0	61.00	0	8.4360	0	32.8130	0	25.493	0	60.484	0	-1e10	1	-1e10	1	-1E+10	1	-1e10	1	-1e10	1	-1E+10	1	-1E+10	1	-1E+10	1
4902624	14	C	11/08/2024	09:43	-127.925	47.133	0	61.10	0	8.4369	0	32.8140	0	25.494	0	60.583	0	157.6	4	54.6	4	-1E+10	1	0.1314	4	0.000408	0	-1E+10	1	-1E+10	1	-1E+10	1
4902624	14	C	11/08/2024	09:43	-127.925	47.133	0	61.80	0	8.4432	0	32.8206	0	25.498	0	61.277	0	156.0	4	54.1	4	-1E+10	1	0.1356	4	0.000451	0	-1E+10	1	-1E+10	1	-1E+10	1
4902624	14	C	11/08/2024	09:43	-127.925	47.133	0	62.60	0	8.4505	0	32.8282	0	25.503	0	62.070	0	154.7	4	53.6	4	-1E+10	1	0.1265	4	0.000458	0	-1E+10	1	-1E+10	1	-1E+10	1
4902624	14	C	11/08/2024	09:43	-127.925	47.133	0	63.10	0	8.4550	0	32.8330	0	25.506	0	62.566	0	-1e10	1	-1e10	1	-1E+10	1	-1e10	1	-1e10	1	-1E+10	1	-1E+10	1	-1E+10	1
4902624	14	C	11/08/2024	09:43	-127.925	47.133	0	63.30	0	8.4463	0	32.8386	0	25.512	0	62.764	0	153.5	4	53.2	4	-1E+10	1	0.1241	4	0.000417	0	-1E+10	1	-1E+10	1	-1E+10	1
4902624	14	C	11/08/2024	09:43	-127.925	47.133	0	64.10	0	8.4113	0	32.8609	0	25.535	0	63.557	0	152.3	4	52.7	4	-1E+10	1	0.1369	4	0.000400	0	-1E+10	1	-1E+10	1	-1E+10	1
4902624	14	C	11/08/2024	09:43	-127.925	47.133	0	64.90	0	8.3764	0	32.8832	0	25.557	0	64.350	0	150.7	4	52.2	4	-1E+10	1	0.1241	4	0.000432	0	-1E+10	1	-1E+10	1	-1E+10	1
4902624	14	C	11/08/2024	09:43	-127.925	47.133	0	65.00	0	8.3720	0	32.8860	0	25.560	0	64.450	0	-1e10	1	-1e10	1	-1E+10	1	-1e10	1	-1e10	1	-1E+10	1	-1E+10	1	-1E+10	1
4902624	14	C	11/08/2024	09:43	-127.925	47.133	0	65.70	0	8.3414	0	32.9066	0	25.581	0	65.143	0	149.2	4	51.6	4	-1E+10	1	0.0949	4	0.000385	0	-1E+10	1	-1E+10	1	-1E+10	1
4902624	14	C	11/08/2024	09:43	-127.925	47.133	0	66.60	0	8.3021	0	32.9332	0	25.608	0	66.036	0	147.3	4	50.9	4	-1E+10	1	0.1015	4	0.000428	0	-1E+10	1	-1E+10	1	-1E+10	1
4902624	14	C	11/08/2024	09:43	-127.925	47.133	0	66.90	0	8.2890	0	32.9420	0	25.617	0	66.333	0	-1e10	1	-1e10	1	-1E+10	1	-1e10	1	-1e10	1	-1E+10	1	-1E+10	1	-1E+10	1
4902624	14	C	11/08/2024	09:43	-127.925	47.133	0	67.40	0	8.2845	0	32.9570	0	25.629	0	66.829	0	145.3	4	50.2	4	-1E+10	1	0.0965	4	0.000450	0	-1E+10	1	-1E+10	1	-1E+10	1
4902624	14	C	11/08/2024	09:43	-127.925	47.133	0	68.30	0	8.2763	0	32.9840	0	25.651	0	67.721	0	144.3	4	49.9	4	-1E+10	1	0.1000	4	0.000571	0	-1E+10	1	-1E+10	1	-1E+10	1
4902624	14	C	11/08/2024	09:43	-127.925	47.133	0	69.00	0	8.2700	0	33.0050	0	25.669	0	68.415	0	-1e10	1	-1e10	1	-1E+10	1	-1e10	1	-1e10	1	-1E+10	1	-1E+10	1	-1E+10	1
4902624	14	C	11/08/2024	09:43	-127.925	47.133	0	69.10	0	8.2675	0	33.0071	0	25.671	0	68.514	0	143.7	4	49.7	4	-1E+10	1	0.1095	4	0.000561	0	-1E+10	1	-1E+10	1	-1E+10	1
4902624	14	C	11/08/2024	09:43	-127.925	47.133	0	69.90	0	8.2475	0	33.0239	0	25.687	0	69.307	0	142.9	4	49.4	4	-1E+10	1	0.1141	4	0.000472	0	-1E+10	1	-1E+10	1	-1E+10	1
4902624	14	C	11/08/2024	09:43	-127.925	47.133	0	70.80	0	8.2250	0	33.0428	0	25.705	0	70.199	0	142.2	4	49.1	4	-1E+10	1	0.1042	4	0.000420	0	-1E+10	1	-1E+10	1	-1E+10	1
4902624	14	C	11/08/2024	09:43	-127.925	47.133	0	71.00	0	8.2200	0	33.0470	0	25.709	0	70.398	0	-1e10	1	-1e10	1	-1E+10	1	-1e10	1	-1e10	1	-1E+10	1	-1E+10	1	-1E+10	1
4902624	14	C	11/08/2024	09:43	-127.925	47.133	0	71.70	0	8.1959	0	33.0656	0	25.727	0	71.092	0	141.6	4	48.9	4	-1E+10	1	0.0949	4	0.000429	0	-1E+10	1	-1E+10	1	-1E+10	1
4902624	14	C	11/08/2024	09:43	-127.925	47.133	0	72.60	0	8.1648	0	33.0894	0	25.751	0	71.984	0	140.5	4	48.5	4	-1E+10	1	0.0949	4	0.000467	0	-1E+10	1	-1E+10	1	-1E+10	1
4902624	14	C	11/08/2024	09:43	-127.925	47.133	0	73.00	0	8.1510	0	33.1000	0	25.761	0	72.380	0	-1e10	1	-1e10	1	-1E+10	1	-1e10	1	-1e10	1	-1E+10	1	-1E+10	1	-1E+10	1
4902624	14	C	11/08/2024	09:43	-127.925	47.133	0	73.50	0	8.1405	0	33.1117	0	25.772	0	72.876	0	139.3	4	48.0	4	-1E+10	1	0.0803	4	0.000444	0	-1E+10	1	-1E+10	1	-1E+10	1
4902624	14	C	11/08/2024	09:43	-127.925	47.133	0	74.50	0	8.1195	0	33.1353	0	25.793	0	73.867	0	138.3	4	47.7	4	-1E+10	1	0.0742	4	0.000415	0	-1E+10	1	-1E+10	1	-1E+10	1
4902624	14	C	11/08/2024	09:43	-127.925	47.133	0	75.00	0	8.1090	0	33.1470	0	25.804	0	74.363	0	-1e10	1	-1e10	1	-1E+10	1	-1e10	1	-1e10	1	-1E+10	1	-1E+10	1	-1E+10	1
4902624	14	C	11/08/2024	09:43	-127.925	47.133	0	75.50	0	8.0945	0	33.1628	0	25.819	0	74.859	0	137.7	4	47.5	4	-1E+10	1	0.0730	4	0.000409	0	-1E+10	1	-1E+10	1	-1E+10	1
4902624	14	C	11/08/2024	09:43	-127.925	47.133	0	76.40	0	8.0685	0	33.1912	0	25.845	0	75.751	0	137.2	4	47.3	4	-1E+10	1	0.0608	4	0.000376	0	-1E+10	1	-1E+10	1	-1E+10	1
4902624	14	C	11/08/2024	09:43	-127.925	47.133	0	76.90	0	8.0540	0	33.2070	0	25.859	0	76.247	0	-1e10	1	-1e10	1	-1E+10	1	-1e10	1	-1e10	1	-1E+10	1	-1E+10	1	-1E+10	1
4902624	14	C	11/08/2024	09:43	-127.925	47.133	0	77.40	0	8.0500	0	33.2113	0	25.863	0	76.742	0	136.6	4	47.0	4	-1E+10	1	0.0657	4	0.000549	0	-1E+10	1	-1E+10	1	-1E+10	1
4902624	14	C	11/08/2024	09:43	-127.925	47.133	0	78.50	0	8.0410	0	33.2207	0	25.872	0	77.833	0	135.9	4	46.8	4	-1E+10	1	0.0742	4	0.000597	0	-1E+10	1	-1E+10	1	-1E+10	1
4902624	14	C	11/08/2024	09:43	-127.925	47.133	0	79.00	0	8.0370	0	33.2250	0	25.876	0	78.328	0	-1e10	1	-1e10	1	-1E+10	1	-1e10	1	-1e10	1	-1E+10	1	-1E+10	1	-1E+10	1
4902624	14	C	11/08/2024	09:43	-127.925	47.133	0	79.40	0	8.0346	0	33.2278	0	25.879	0	78.725	0	135.3	4	46.6	4	-1E+10	1	0.0689	4	0.000411	0	-1E+10	1	-1E+10	1	-1E+10	1
4902624	14	C	11/08/2024	09:43	-127.925	47.133	0	80.30	0	8.0292	0	33.2341	0	25.884	0	79.617	0	134.6	4	46.3	4	-1E+10	1	0.0788	4	0.000477	0	-1E+10	1	-1E+10	1	-1E+10	1
4902624	14	C	11/08/2024	09:43	-127.925	47.133	0	81.00	0	8.0250	0	33.2390	0	25.889	0	80.311	0	-1e10	1	-1e10	1	-1E+10	1	-1e10	1	-1e10	1	-1E+10	1	-1E+10	1	-1E+10	1
4902624	14	C	11/08/2024	09:43	-127.925	47.133	0	81.10	0	8.0229	0	33.2419	0	25.891	0	80.410	0	133.9	4	46.1	4	-1E+10	1	0.0730	4	0.000373	0	-1E+10	1	-1E+10	1	-1E+10	1
4902624	14	C	11/08/2024	09:43	-127.925	47.133	0	81.80	0	8.0082	0	33.2622	0	25.909	0	81.104	0	133.5	4	46.0	4	-1E+10	1	0.0616	4	0.000465	0	-1E+10	1	-1E+10	1	-1E+10	1
4902624	14	C	11/08/2024	09:43	-127.925	47.133	0	82.40	0	7.9955	0	33.2795	0	25.925	0	81.699	0	133.3	4	45.9	4	-1E+10	1	0.0584	4	0.000397	0	-1E+10	1	-1E+10	1	-1E+10	1
4902624	14	C	11/08/2024	09:43	-127.925	47.133	0	82.90	0	7.9850	0	33.2940	0	25.938	0	82.194	0	-1e10	1	-1e10	1	-1E+10	1	-1e10	1	-1e10	1	-1E+10	1	-1E+10	1	-1E+10	1
4902624	14	C	11/08/2024	09:43	-127.925	47.133	0	83.10	0	7.9825	0	33.2975	0	25.941	0	82.393	0	133.2	4	45.8	4	-1E+10	1	0.0584	4	0.000372	0	-1E+10	1	-1E+10	1	-1E+10	1
4902624	14	C	11/08/2024	09:43	-127.925	47.133	0	83.70	0	7.9750	0	33.3080	0	25.950	0	82.987	0	133.0	4	45.8	4	-1E+10	1	0.0615	4	0.000400	0	-1E+10	1	-1E+10	1	-1E+10	1
4902624	14	C	11/08/2024	09:43	-127.925	47.133	0	84.40	0	7.9662	0	33.3202	0	25.961	0	83.681	0	132.9	4	45.7	4	-1E+10	1	0.0575	4	0.000413	0	-1E+10	1	-1E+10	1	-1E+10	1
4902624	14	C	11/08/2024	09:43	-127.925	47.133	0	84.90	0	7.9600	0	33.3290	0	25.969	0	84.177	0	-1e10	1	-1e10	1	-1E+10	1	-1e10	1	-1e10	1	-1E+10	1	-1E+10	1	-1E+10	1
4902624	14	C	11/08/2024	09:43	-127.925	47.133	0	85.20	0	7.9566	0	33.3337	0	25.973	0	84.474	0	132.9	4	45.7	4	-1E+10	1	0.0584	4	0.000403	0	-1E+10	1	-1E+10	1	-1E+10	1
4902624	14	C	11/08/2024	09:43	-127.925	47.133	0	85.90	0	7.9486	0	33.3447	0	25.983	0	85.168	0	133.0	4	45.7	4	-1E+10	1	0.0844	4	0.000406	0	-1E+10	1	-1E+10	1	-1E+10	1
4902624	14	C	11/08/2024	09:43	-127.925	47.133	0	86.70	0	7.9394	0	33.3573	0	25.994	0	85.961	0	133.0	4	45.8	4	-1E+10	1	0.0584	4	0.000385	0	-1E+10	1	-1E+10	1	-1E+10	1
4902624	14	C	11/08/2024	09:43	-127.925	47.133	0	87.00	0	7.9360	0	33.3620	0	25.998	0	86.259	0	-1e10	1	-1e10	1	-1E+10	1	-1e10	1	-1e10	1	-1E+10	1	-1E+10	1	-1E+10	1
4902624	14	C	11/08/2024	09:43	-127.925	47.133	0	87.50	0	7.9323	0	33.3662	0	26.002	0	86.754	0	132.9	4	45.7	4	-1E+10	1	0.0657	4	0.000491	0	-1E+10	1	-1E+10	1	-1E+10	1
4902624	14	C	11/08/2024	09:43	-127.925	47.133	0	88.30	0	7.9262	0	33.3731	0	26.009	0	87.547	0	132.8	4	45.7	4	-1E+10	1	0.0482	4	0.000434	0	-1E+10	1	-1E+10	1	-1E+10	1
4902624	14	C	11/08/2024	09:43	-127.925	47.133	0	89.00	0	7.9210	0	33.3790	0	26.014	0	88.241	0	-1e10	1	-1e10	1	-1E+10	1	-1e10	1	-1e10	1	-1E+10	1	-1E+10	1	-1E+10	1
4902624	14	C	11/08/2024	09:43	-127.925	47.133	0	89.20	0	7.9166	0	33.3831	0	26.018	0	88.439	0	132.5	4	45.6	4	-1E+10	1	0.0540	4	0.000502	0	-1E+10	1	-1E+10	1	-1E+10	1
4902624	14	C	11/08/2024	09:43	-127.925	47.133	0	90.00	0	7.8990	0	33.3995	0	26.033	0	89.232	0	132.3	4	45.5	4	-1E+10	1	0.0584	4	0.000479	0	-1E+10	1	-1E+10	1	-1E+10	1
4902624	14	C	11/08/2024	09:43	-127.925	47.133	0	90.90	0	7.8792	0	33.4179	0	26.051	0	90.125	0	132.0	4	45.4	4	-1E+10	1	0.0584	4	0.000432	0	-1E+10	1	-1E+10	1	-1E+10	1
4902624	14	C	11/08/2024	09:43	-127.925	47.133	0	91.00	0	7.8770	0	33.4200	0	26.053	0	90.224	0	-1e10	1	-1e10	1	-1E+10	1	-1e10	1	-1e10	1	-1E+10	1	-1E+10	1	-1E+10	1
4902624	14	C	11/08/2024	09:43	-127.925	47.133	0	91.80	0	7.8742	0	33.4300	0	26.061	0	91.017	0	131.8	4	45.3	4	-1E+10	1	0.0584	4	0.000422	0	-1E+10	1	-1E+10	1	-1E+10	1
4902624	14	C	11/08/2024	09:43	-127.925	47.133	0	92.70	0	7.8710	0	33.4412	0	26.070	0	91.909	0	131.6	4	45.2	4	-1E+10	1	0.0576	4	0.000399	0	-1E+10	1	-1E+10	1	-1E+10	1
4902624	14	C	11/08/2024	09:43	-127.925	47.133	0	93.00	0	7.8700	0	33.4450	0	26.073	0	92.206	0	-1e10	1	-1e10	1	-1E+10	1	-1e10	1	-1e10	1	-1E+10	1	-1E+10	1	-1E+10	1
4902624	14	C	11/08/2024	09:43	-127.925	47.133	0	93.60	0	7.8671	0	33.4541	0	26.081	0	92.801	0	131.6	4	45.2	4	-1E+10	1	0.0518	4	0.000437	0	-1E+10	1	-1E+10	1	-1E+10	1
4902624	14	C	11/08/2024	09:43	-127.925	47.133	0	94.60	0	7.8624	0	33.4694	0	26.094	0	93.792	0	131.5	4	45.2	4	-1E+10	1	0.0584	4	0.000608	0	-1E+10	1	-1E+10	1	-1E+10	1
4902624	14	C	11/08/2024	09:43	-127.925	47.133	0	95.10	0	7.8600	0	33.4770	0	26.100	0	94.288	0	-1e10	1	-1e10	1	-1E+10	1	-1e10	1	-1e10	1	-1E+10	1	-1E+10	1	-1E+10	1
4902624	14	C	11/08/2024	09:43	-127.925	47.133	0	95.60	0	7.8562	0	33.4825	0	26.105	0	94.783	0	131.3	4	45.1	4	-1E+10	1	0.0523	4	0.000422	0	-1E+10	1	-1E+10	1	-1E+10	1
4902624	14	C	11/08/2024	09:43	-127.925	47.133	0	96.60	0	7.8488	0	33.4935	0	26.114	0	95.775	0	131.1	4	45.0	4	-1E+10	1	0.0453	4	0.000366	0	-1E+10	1	-1E+10	1	-1E+10	1
4902624	14	C	11/08/2024	09:43	-127.925	47.133	0	97.10	0	7.8450	0	33.4990	0	26.119	0	96.270	0	-1e10	1	-1e10	1	-1E+10	1	-1e10	1	-1e10	1	-1E+10	1	-1E+10	1	-1E+10	1
4902624	14	C	11/08/2024	09:43	-127.925	47.133	0	97.60	0	7.8430	0	33.5052	0	26.125	0	96.766	0	130.8	4	44.9	4	-1E+10	1	0.0535	4	0.000393	0	-1E+10	1	-1E+10	1	-1E+10	1
4902624	14	C	11/08/2024	09:43	-127.925	47.133	0	98.60	0	7.8390	0	33.5177	0	26.135	0	97.757	0	130.4	4	44.8	4	-1E+10	1	0.0620	4	0.000414	0	-1E+10	1	-1E+10	1	-1E+10	1
4902624	14	C	11/08/2024	09:43	-127.925	47.133	0	99.10	0	7.8370	0	33.5240	0	26.140	0	98.253	0	-1e10	1	-1e10	1	-1E+10	1	-1e10	1	-1e10	1	-1E+10	1	-1E+10	1	-1E+10	1
4902624	14	C	11/08/2024	09:43	-127.925	47.133	0	99.60	0	7.8325	0	33.5295	0	26.145	0	98.748	0	129.9	4	44.6	4	-1E+10	1	0.0592	4	0.000399	0	-1E+10	1	-1E+10	1	-1E+10	1
4902624	14	C	11/08/2024	09:43	-127.925	47.133	0	100.60	0	7.8235	0	33.5405	0	26.155	0	99.739	0	129.4	4	44.4	4	-1E+10	1	0.0511	4	0.000373	0	-1E+10	1	-1E+10	1	-1E+10	1
4902624	14	C	11/08/2024	09:43	-127.925	47.133	0	101.10	0	7.8190	0	33.5460	0	26.160	0	100.235	0	-1e10	1	-1e10	1	-1E+10	1	-1e10	1	-1e10	1	-1E+10	1	-1E+10	1	-1E+10	1
4902624	14	C	11/08/2024	09:43	-127.925	47.133	0	101.60	0	7.8216	0	33.5522	0	26.165	0	100.731	0	128.8	4	44.2	4	-1E+10	1	0.0462	4	0.000377	0	-1E+10	1	-1E+10	1	-1E+10	1
4902624	14	C	11/08/2024	09:43	-127.925	47.133	0	102.60	0	7.8269	0	33.5646	0	26.174	0	101.722	0	128.2	4	44.1	4	-1E+10	1	0.0409	4	0.000378	0	-1E+10	1	-1E+10	1	-1E+10	1
4902624	14	C	11/08/2024	09:43	-127.925	47.133	0	103.20	0	7.8300	0	33.5720	0	26.179	0	102.317	0	-1e10	1	-1e10	1	-1E+10	1	-1e10	1	-1e10	1	-1E+10	1	-1E+10	1	-1E+10	1
4902624	14	C	11/08/2024	09:43	-127.925	47.133	0	103.60	0	7.8332	0	33.5756	0	26.181	0	102.713	0	127.8	4	43.9	4	-1E+10	1	0.0572	4	0.000358	0	-1E+10	1	-1E+10	1	-1E+10	1
4902624	14	C	11/08/2024	09:43	-127.925	47.133	0	104.60	0	7.8411	0	33.5845	0	26.187	0	103.704	0	127.3	4	43.7	4	-1E+10	1	0.0511	4	0.000397	0	-1E+10	1	-1E+10	1	-1E+10	1
4902624	14	C	11/08/2024	09:43	-127.925	47.133	0	105.10	0	7.8450	0	33.5890	0	26.190	0	104.200	0	-1e10	1	-1e10	1	-1E+10	1	-1e10	1	-1e10	1	-1E+10	1	-1E+10	1	-1E+10	1
4902624	14	C	11/08/2024	09:43	-127.925	47.133	0	105.60	0	7.8442	0	33.5958	0	26.196	0	104.695	0	126.9	4	43.6	4	-1E+10	1	0.0511	4	0.000436	0	-1E+10	1	-1E+10	1	-1E+10	1
4902624	14	C	11/08/2024	09:43	-127.925	47.133	0	106.60	0	7.8426	0	33.6095	0	26.207	0	105.687	0	126.6	4	43.5	4	-1E+10	1	0.0569	4	0.000397	0	-1E+10	1	-1E+10	1	-1E+10	1
4902624	14	C	11/08/2024	09:43	-127.925	47.133	0	107.00	0	7.8420	0	33.6150	0	26.211	0	106.083	0	-1e10	1	-1e10	1	-1E+10	1	-1e10	1	-1e10	1	-1E+10	1	-1E+10	1	-1E+10	1
4902624	14	C	11/08/2024	09:43	-127.925	47.133	0	107.60	0	7.8363	0	33.6196	0	26.215	0	106.678	0	126.4	4	43.5	4	-1E+10	1	0.0487	4	0.000408	0	-1E+10	1	-1E+10	1	-1E+10	1
4902624	14	C	11/08/2024	09:43	-127.925	47.133	0	108.60	0	7.8268	0	33.6272	0	26.223	0	107.669	0	126.2	4	43.4	4	-1E+10	1	0.0511	4	0.000449	0	-1E+10	1	-1E+10	1	-1E+10	1
4902624	14	C	11/08/2024	09:43	-127.925	47.133	0	109.10	0	7.8220	0	33.6310	0	26.227	0	108.165	0	-1e10	1	-1e10	1	-1E+10	1	-1e10	1	-1e10	1	-1E+10	1	-1E+10	1	-1E+10	1
4902624	14	C	11/08/2024	09:43	-127.925	47.133	0	109.60	0	7.8167	0	33.6329	0	26.229	0	108.660	0	126.1	4	43.3	4	-1E+10	1	0.0487	4	0.000432	0	-1E+10	1	-1E+10	1	-1E+10	1
4902624	14	C	11/08/2024	09:43	-127.925	47.133	0	110.50	0	7.8072	0	33.6364	0	26.233	0	109.552	0	125.9	4	43.3	4	-1E+10	1	0.0389	4	0.000365	0	-1E+10	1	-1E+10	1	-1E+10	1
4902624	14	C	11/08/2024	09:43	-127.925	47.133	0	110.90	0	7.8030	0	33.6380	0	26.235	0	109.949	0	-1e10	1	-1e10	1	-1E+10	1	-1e10	1	-1e10	1	-1E+10	1	-1E+10	1	-1E+10	1
4902624	14	C	11/08/2024	09:43	-127.925	47.133	0	111.50	0	7.7997	0	33.6389	0	26.236	0	110.543	0	125.7	4	43.2	4	-1E+10	1	0.0425	4	0.000345	0	-1E+10	1	-1E+10	1	-1E+10	1
4902624	14	C	11/08/2024	09:43	-127.925	47.133	0	112.40	0	7.7947	0	33.6403	0	26.238	0	111.435	0	125.6	4	43.2	4	-1E+10	1	0.0365	4	0.000326	0	-1E+10	1	-1E+10	1	-1E+10	1
4902624	14	C	11/08/2024	09:43	-127.925	47.133	0	112.90	0	7.7920	0	33.6410	0	26.239	0	111.931	0	-1e10	1	-1e10	1	-1E+10	1	-1e10	1	-1e10	1	-1E+10	1	-1E+10	1	-1E+10	1
4902624	14	C	11/08/2024	09:43	-127.925	47.133	0	113.40	0	7.7701	0	33.6465	0	26.246	0	112.426	0	125.5	4	43.1	4	-1E+10	1	0.0438	4	0.000514	0	-1E+10	1	-1E+10	1	-1E+10	1
4902624	14	C	11/08/2024	09:43	-127.925	47.133	0	114.40	0	7.7263	0	33.6574	0	26.261	0	113.418	0	125.5	4	43.1	4	-1E+10	1	0.0560	4	0.000524	0	-1E+10	1	-1E+10	1	-1E+10	1
4902624	14	C	11/08/2024	09:43	-127.925	47.133	0	115.00	0	7.7000	0	33.6640	0	26.270	0	114.012	0	-1e10	1	-1e10	1	-1E+10	1	-1e10	1	-1e10	1	-1E+10	1	-1E+10	1	-1E+10	1
4902624	14	C	11/08/2024	09:43	-127.925	47.133	0	115.30	0	7.6965	0	33.6645	0	26.271	0	114.310	0	125.5	4	43.0	4	-1E+10	1	0.0538	4	0.000451	0	-1E+10	1	-1E+10	1	-1E+10	1
4902624	14	C	11/08/2024	09:43	-127.925	47.133	0	116.30	0	7.6849	0	33.6661	0	26.274	0	115.301	0	125.6	4	43.1	4	-1E+10	1	0.0462	4	0.001347	0	-1E+10	1	-1E+10	1	-1E+10	1
4902624	14	C	11/08/2024	09:43	-127.925	47.133	0	116.90	0	7.6780	0	33.6670	0	26.276	0	115.895	0	-1e10	1	-1e10	1	-1E+10	1	-1e10	1	-1e10	1	-1E+10	1	-1E+10	1	-1E+10	1
4902624	14	C	11/08/2024	09:43	-127.925	47.133	0	117.20	0	7.6639	0	33.6671	0	26.278	0	116.193	0	125.6	4	43.0	4	-1E+10	1	0.0398	4	0.001016	0	-1E+10	1	-1E+10	1	-1E+10	1
4902624	14	C	11/08/2024	09:43	-127.925	47.133	0	118.10	0	7.6216	0	33.6676	0	26.284	0	117.085	0	125.5	4	43.0	4	-1E+10	1	0.0418	4	0.000345	0	-1E+10	1	-1E+10	1	-1E+10	1
4902624	14	C	11/08/2024	09:43	-127.925	47.133	0	118.90	0	7.5840	0	33.6680	0	26.290	0	117.878	0	-1e10	1	-1e10	1	-1E+10	1	-1e10	1	-1e10	1	-1E+10	1	-1E+10	1	-1E+10	1
4902624	14	C	11/08/2024	09:43	-127.925	47.133	0	119.00	0	7.5790	0	33.6680	0	26.291	0	117.977	0	125.2	4	42.8	4	-1E+10	1	0.0576	4	0.000351	0	-1E+10	1	-1E+10	1	-1E+10	1
4902624	14	C	11/08/2024	09:43	-127.925	47.133	0	119.90	0	7.5340	0	33.6680	0	26.297	0	118.869	0	124.4	4	42.5	4	-1E+10	1	0.0701	4	0.000394	0	-1E+10	1	-1E+10	1	-1E+10	1
4902624	14	C	11/08/2024	09:43	-127.925	47.133	0	120.70	0	7.4940	0	33.6680	0	26.303	0	119.662	0	123.4	4	42.1	4	-1E+10	1	0.0292	4	0.000385	0	-1E+10	1	-1E+10	1	-1E+10	1
4902624	14	C	11/08/2024	09:43	-127.925	47.133	0	121.00	0	7.4790	0	33.6680	0	26.305	0	119.959	0	-1e10	1	-1e10	1	-1E+10	1	-1e10	1	-1e10	1	-1E+10	1	-1E+10	1	-1E+10	1
4902624	14	C	11/08/2024	09:43	-127.925	47.133	0	121.60	0	7.4553	0	33.6706	0	26.310	0	120.554	0	122.2	4	41.7	4	-1E+10	1	0.0411	4	0.000337	0	-1E+10	1	-1E+10	1	-1E+10	1
4902624	14	C	11/08/2024	09:43	-127.925	47.133	0	122.50	0	7.4197	0	33.6744	0	26.318	0	121.446	0	120.7	4	41.1	4	-1E+10	1	0.0495	4	0.000381	0	-1E+10	1	-1E+10	1	-1E+10	1
4902624	14	C	11/08/2024	09:43	-127.925	47.133	0	123.10	0	7.3960	0	33.6770	0	26.324	0	122.040	0	-1e10	1	-1e10	1	-1E+10	1	-1e10	1	-1e10	1	-1E+10	1	-1E+10	1	-1E+10	1
4902624	14	C	11/08/2024	09:43	-127.925	47.133	0	123.40	0	7.3913	0	33.6808	0	26.327	0	122.338	0	118.5	4	40.4	4	-1E+10	1	0.0511	4	0.000388	0	-1E+10	1	-1E+10	1	-1E+10	1
4902624	14	C	11/08/2024	09:43	-127.925	47.133	0	124.30	0	7.3771	0	33.6922	0	26.338	0	123.230	0	115.8	4	39.4	4	-1E+10	1	0.0471	4	0.002023	0	-1E+10	1	-1E+10	1	-1E+10	1
4902624	14	C	11/08/2024	09:43	-127.925	47.133	0	125.00	0	7.3660	0	33.7010	0	26.347	0	123.923	0	-1e10	1	-1e10	1	-1E+10	1	-1e10	1	-1e10	1	-1E+10	1	-1E+10	1	-1E+10	1
4902624	14	C	11/08/2024	09:43	-127.925	47.133	0	125.20	0	7.3846	0	33.7057	0	26.348	0	124.122	0	112.8	4	38.4	4	-1E+10	1	0.0503	4	0.002074	0	-1E+10	1	-1E+10	1	-1E+10	1
4902624	14	C	11/08/2024	09:43	-127.925	47.133	0	126.00	0	7.4592	0	33.7247	0	26.352	0	124.914	0	110.2	4	37.6	4	-1E+10	1	0.0544	4	0.000454	0	-1E+10	1	-1E+10	1	-1E+10	1
4902624	14	C	11/08/2024	09:43	-127.925	47.133	0	126.90	0	7.5430	0	33.7460	0	26.357	0	125.806	0	106.9	4	36.6	4	-1E+10	1	0.0445	4	0.000499	0	-1E+10	1	-1E+10	1	-1E+10	1
4902624	14	C	11/08/2024	09:43	-127.925	47.133	0	127.90	0	7.5782	0	33.7617	0	26.365	0	126.798	0	108.4	4	37.1	4	-1E+10	1	0.0511	4	0.000350	0	-1E+10	1	-1E+10	1	-1E+10	1
4902624	14	C	11/08/2024	09:43	-127.925	47.133	0	128.70	0	7.6064	0	33.7743	0	26.370	0	127.590	0	107.9	4	36.9	4	-1E+10	1	0.0511	4	0.000608	0	-1E+10	1	-1E+10	1	-1E+10	1
4902624	14	C	11/08/2024	09:43	-127.925	47.133	0	129.00	0	7.6170	0	33.7790	0	26.373	0	127.888	0	-1e10	1	-1e10	1	-1E+10	1	-1e10	1	-1e10	1	-1E+10	1	-1E+10	1	-1E+10	1
4902624	14	C	11/08/2024	09:43	-127.925	47.133	0	129.70	0	7.6146	0	33.7822	0	26.375	0	128.581	0	107.3	4	36.7	4	-1E+10	1	0.0511	4	0.000405	0	-1E+10	1	-1E+10	1	-1E+10	1
4902624	14	C	11/08/2024	09:43	-127.925	47.133	0	130.50	0	7.6118	0	33.7857	0	26.379	0	129.374	0	106.7	4	36.5	4	-1E+10	1	0.0511	4	0.000362	0	-1E+10	1	-1E+10	1	-1E+10	1
4902624	14	C	11/08/2024	09:43	-127.925	47.133	0	131.00	0	7.6100	0	33.7880	0	26.381	0	129.870	0	-1e10	1	-1e10	1	-1E+10	1	-1e10	1	-1e10	1	-1E+10	1	-1E+10	1	-1E+10	1
4902624	14	C	11/08/2024	09:43	-127.925	47.133	0	131.40	0	7.6006	0	33.7920	0	26.385	0	130.266	0	106.1	4	36.3	4	-1E+10	1	0.0592	4	0.000389	0	-1E+10	1	-1E+10	1	-1E+10	1
4902624	14	C	11/08/2024	09:43	-127.925	47.133	0	132.40	0	7.5771	0	33.8020	0	26.396	0	131.257	0	105.6	4	36.1	4	-1E+10	1	0.0498	4	0.000407	0	-1E+10	1	-1E+10	1	-1E+10	1
4902624	14	C	11/08/2024	09:43	-127.925	47.133	0	133.00	0	7.5630	0	33.8080	0	26.403	0	131.852	0	-1e10	1	-1e10	1	-1E+10	1	-1e10	1	-1e10	1	-1E+10	1	-1E+10	1	-1E+10	1
4902624	14	C	11/08/2024	09:43	-127.925	47.133	0	133.30	0	7.5561	0	33.8102	0	26.406	0	132.149	0	105.1	4	35.9	4	-1E+10	1	0.0392	4	0.000384	0	-1E+10	1	-1E+10	1	-1E+10	1
4902624	14	C	11/08/2024	09:43	-127.925	47.133	0	134.20	0	7.5354	0	33.8170	0	26.414	0	133.041	0	104.6	4	35.8	4	-1E+10	1	0.0454	4	0.000380	0	-1E+10	1	-1E+10	1	-1E+10	1
4902624	14	C	11/08/2024	09:43	-127.925	47.133	0	135.00	0	7.5170	0	33.8230	0	26.422	0	133.834	0	-1e10	1	-1e10	1	-1E+10	1	-1e10	1	-1e10	1	-1E+10	1	-1E+10	1	-1E+10	1
4902624	14	C	11/08/2024	09:43	-127.925	47.133	0	135.10	0	7.5152	0	33.8234	0	26.422	0	133.933	0	104.3	4	35.6	4	-1E+10	1	0.0498	4	0.000426	0	-1E+10	1	-1E+10	1	-1E+10	1
4902624	14	C	11/08/2024	09:43	-127.925	47.133	0	136.00	0	7.4985	0	33.8265	0	26.427	0	134.825	0	103.9	4	35.5	4	-1E+10	1	0.0438	4	0.000350	0	-1E+10	1	-1E+10	1	-1E+10	1
4902624	14	C	11/08/2024	09:43	-127.925	47.133	0	137.00	0	7.4800	0	33.8300	0	26.432	0	135.816	0	101.4	4	34.6	4	-1E+10	1	0.0377	4	0.000350	0	-1E+10	1	-1E+10	1	-1E+10	1
4902624	14	C	11/08/2024	09:43	-127.925	47.133	0	137.90	0	7.4701	0	33.8305	0	26.434	0	136.708	0	103.0	4	35.2	4	-1E+10	1	0.0422	4	0.000660	0	-1E+10	1	-1E+10	1	-1E+10	1
4902624	14	C	11/08/2024	09:43	-127.925	47.133	0	138.90	0	7.4590	0	33.8310	0	26.436	0	137.699	0	100.4	4	34.3	4	-1E+10	1	0.0438	4	0.000568	0	-1E+10	1	-1E+10	1	-1E+10	1
4902624	14	C	11/08/2024	09:43	-127.925	47.133	0	139.90	0	7.4516	0	33.8315	0	26.438	0	138.690	0	101.8	4	34.7	4	-1E+10	1	0.0478	4	0.000415	0	-1E+10	1	-1E+10	1	-1E+10	1
4902624	14	C	11/08/2024	09:43	-127.925	47.133	0	140.80	0	7.4450	0	33.8320	0	26.439	0	139.582	0	99.1	4	33.8	4	-1E+10	1	0.0511	4	0.000357	0	-1E+10	1	-1E+10	1	-1E+10	1
4902624	14	C	11/08/2024	09:43	-127.925	47.133	0	141.80	0	7.4367	0	33.8346	0	26.442	0	140.573	0	100.3	4	34.2	4	-1E+10	1	0.0560	4	0.000349	0	-1E+10	1	-1E+10	1	-1E+10	1
4902624	14	C	11/08/2024	09:43	-127.925	47.133	0	142.80	0	7.4285	0	33.8372	0	26.445	0	141.564	0	99.6	4	34.0	4	-1E+10	1	0.0617	4	0.000360	0	-1E+10	1	-1E+10	1	-1E+10	1
4902624	14	C	11/08/2024	09:43	-127.925	47.133	0	143.10	0	7.4260	0	33.8380	0	26.446	0	141.861	0	-1e10	1	-1e10	1	-1E+10	1	-1e10	1	-1e10	1	-1E+10	1	-1E+10	1	-1E+10	1
4902624	14	C	11/08/2024	09:43	-127.925	47.133	0	143.70	0	7.4232	0	33.8405	0	26.449	0	142.456	0	98.8	4	33.7	4	-1E+10	1	0.0438	4	0.000408	0	-1E+10	1	-1E+10	1	-1E+10	1
4902624	14	C	11/08/2024	09:43	-127.925	47.133	0	144.80	0	7.4179	0	33.8452	0	26.453	0	143.546	0	98.2	4	33.5	4	-1E+10	1	0.0803	4	0.000361	0	-1E+10	1	-1E+10	1	-1E+10	1
4902624	14	C	11/08/2024	09:43	-127.925	47.133	0	145.00	0	7.4170	0	33.8460	0	26.454	0	143.744	0	-1e10	1	-1e10	1	-1E+10	1	-1e10	1	-1e10	1	-1E+10	1	-1E+10	1	-1E+10	1
4902624	14	C	11/08/2024	09:43	-127.925	47.133	0	145.70	0	7.4149	0	33.8478	0	26.456	0	144.438	0	97.7	4	33.3	4	-1E+10	1	0.0445	4	0.000409	0	-1E+10	1	-1E+10	1	-1E+10	1
4902624	14	C	11/08/2024	09:43	-127.925	47.133	0	146.70	0	7.4119	0	33.8503	0	26.458	0	145.429	0	97.1	4	33.1	4	-1E+10	1	0.0511	4	0.000373	0	-1E+10	1	-1E+10	1	-1E+10	1
4902624	14	C	11/08/2024	09:43	-127.925	47.133	0	147.00	0	7.4110	0	33.8510	0	26.459	0	145.726	0	-1e10	1	-1e10	1	-1E+10	1	-1e10	1	-1e10	1	-1E+10	1	-1E+10	1	-1E+10	1
4902624	14	C	11/08/2024	09:43	-127.925	47.133	0	147.70	0	7.4033	0	33.8531	0	26.462	0	146.420	0	96.6	4	32.9	4	-1E+10	1	0.0540	4	0.000441	0	-1E+10	1	-1E+10	1	-1E+10	1
4902624	14	C	11/08/2024	09:43	-127.925	47.133	0	148.70	0	7.3923	0	33.8561	0	26.465	0	147.411	0	96.1	4	32.8	4	-1E+10	1	0.0511	4	0.000464	0	-1E+10	1	-1E+10	1	-1E+10	1
4902624	14	C	11/08/2024	09:43	-127.925	47.133	0	149.00	0	7.3890	0	33.8570	0	26.467	0	147.708	0	-1e10	1	-1e10	1	-1E+10	1	-1e10	1	-1e10	1	-1E+10	1	-1E+10	1	-1E+10	1
4902624	14	C	11/08/2024	09:43	-127.925	47.133	0	149.80	0	7.3802	0	33.8582	0	26.469	0	148.501	0	95.5	4	32.6	4	-1E+10	1	0.0511	4	0.000428	0	-1E+10	1	-1E+10	1	-1E+10	1
4902624	14	C	11/08/2024	09:43	-127.925	47.133	0	150.80	0	7.3692	0	33.8597	0	26.472	0	149.492	0	94.9	4	32.3	4	-1E+10	1	0.0511	4	0.000429	0	-1E+10	1	-1E+10	1	-1E+10	1
4902624	14	C	11/08/2024	09:43	-127.925	47.133	0	151.00	0	7.3670	0	33.8600	0	26.472	0	149.690	0	-1e10	1	-1e10	1	-1E+10	1	-1e10	1	-1e10	1	-1E+10	1	-1E+10	1	-1E+10	1
4902624	14	C	11/08/2024	09:43	-127.925	47.133	0	151.80	0	7.3527	0	33.8617	0	26.475	0	150.483	0	94.2	4	32.1	4	-1E+10	1	0.0522	4	0.000379	0	-1E+10	1	-1E+10	1	-1E+10	1
4902624	14	C	11/08/2024	09:43	-127.925	47.133	0	152.90	0	7.3330	0	33.8640	0	26.480	0	151.573	0	91.6	4	31.2	4	-1E+10	1	0.0584	4	0.000410	0	-1E+10	1	-1E+10	1	-1E+10	1
4902624	14	C	11/08/2024	09:43	-127.925	47.133	0	153.90	0	7.3159	0	33.8678	0	26.485	0	152.564	0	92.8	4	31.6	4	-1E+10	1	0.0523	4	0.000399	0	-1E+10	1	-1E+10	1	-1E+10	1
4902624	14	C	11/08/2024	09:43	-127.925	47.133	0	155.00	0	7.2970	0	33.8720	0	26.491	0	153.654	0	90.2	4	30.7	4	-1E+10	1	0.0392	4	0.000406	0	-1E+10	1	-1E+10	1	-1E+10	1
4902624	14	C	11/08/2024	09:43	-127.925	47.133	0	156.00	0	7.2808	0	33.8749	0	26.496	0	154.645	0	91.3	4	31.1	4	-1E+10	1	0.0455	4	0.000408	0	-1E+10	1	-1E+10	1	-1E+10	1
4902624	14	C	11/08/2024	09:43	-127.925	47.133	0	157.10	0	7.2630	0	33.8780	0	26.501	0	155.735	0	-1e10	1	-1e10	1	-1E+10	1	-1e10	1	-1e10	1	-1E+10	1	-1E+10	1	-1E+10	1
4902624	14	C	11/08/2024	09:43	-127.925	47.133	0	157.20	0	7.2621	0	33.8781	0	26.501	0	155.834	0	90.6	4	30.8	4	-1E+10	1	0.0511	4	0.000389	0	-1E+10	1	-1E+10	1	-1E+10	1
4902624	14	C	11/08/2024	09:43	-127.925	47.133	0	158.20	0	7.2531	0	33.8791	0	26.503	0	156.825	0	89.8	4	30.5	4	-1E+10	1	0.0484	4	0.000369	0	-1E+10	1	-1E+10	1	-1E+10	1
4902624	14	C	11/08/2024	09:43	-127.925	47.133	0	159.10	0	7.2450	0	33.8800	0	26.505	0	157.717	0	-1e10	1	-1e10	1	-1E+10	1	-1e10	1	-1e10	1	-1E+10	1	-1E+10	1	-1E+10	1
4902624	14	C	11/08/2024	09:43	-127.925	47.133	0	159.30	0	7.2433	0	33.8805	0	26.506	0	157.915	0	89.0	4	30.2	4	-1E+10	1	0.0460	4	0.000401	0	-1E+10	1	-1E+10	1	-1E+10	1
4902624	14	C	11/08/2024	09:43	-127.925	47.133	0	160.40	0	7.2341	0	33.8834	0	26.509	0	159.005	0	88.2	4	30.0	4	-1E+10	1	0.0511	4	0.000476	0	-1E+10	1	-1E+10	1	-1E+10	1
4902624	14	C	11/08/2024	09:43	-127.925	47.133	0	161.00	0	7.2290	0	33.8850	0	26.511	0	159.599	0	-1e10	1	-1e10	1	-1E+10	1	-1e10	1	-1e10	1	-1E+10	1	-1E+10	1	-1E+10	1
4902624	14	C	11/08/2024	09:43	-127.925	47.133	0	161.50	0	7.2220	0	33.8872	0	26.514	0	160.095	0	87.5	4	29.7	4	-1E+10	1	0.0511	4	0.000396	0	-1E+10	1	-1E+10	1	-1E+10	1
4902624	14	C	11/08/2024	09:43	-127.925	47.133	0	162.60	0	7.2066	0	33.8922	0	26.520	0	161.185	0	87.2	4	29.6	4	-1E+10	1	0.0511	4	0.000443	0	-1E+10	1	-1E+10	1	-1E+10	1
4902624	14	C	11/08/2024	09:43	-127.925	47.133	0	163.00	0	7.2010	0	33.8940	0	26.522	0	161.581	0	-1e10	1	-1e10	1	-1E+10	1	-1e10	1	-1e10	1	-1E+10	1	-1E+10	1	-1E+10	1
4902624	14	C	11/08/2024	09:43	-127.925	47.133	0	163.70	0	7.1972	0	33.8940	0	26.523	0	162.275	0	86.7	4	29.5	4	-1E+10	1	0.0511	4	0.000374	0	-1E+10	1	-1E+10	1	-1E+10	1
4902624	14	C	11/08/2024	09:43	-127.925	47.133	0	164.80	0	7.1911	0	33.8940	0	26.524	0	163.365	0	86.3	4	29.3	4	-1E+10	1	0.0460	4	0.000442	0	-1E+10	1	-1E+10	1	-1E+10	1
4902624	14	C	11/08/2024	09:43	-127.925	47.133	0	165.00	0	7.1900	0	33.8940	0	26.524	0	163.563	0	-1e10	1	-1e10	1	-1E+10	1	-1e10	1	-1e10	1	-1E+10	1	-1E+10	1	-1E+10	1
4902624	14	C	11/08/2024	09:43	-127.925	47.133	0	165.90	0	7.1838	0	33.8949	0	26.525	0	164.455	0	85.8	4	29.1	4	-1E+10	1	0.0484	4	0.000456	0	-1E+10	1	-1E+10	1	-1E+10	1
4902624	14	C	11/08/2024	09:43	-127.925	47.133	0	166.90	0	7.1770	0	33.8960	0	26.527	0	165.446	0	-1e10	1	-1e10	1	-1E+10	1	-1e10	1	-1e10	1	-1E+10	1	-1E+10	1	-1E+10	1
4902624	14	C	11/08/2024	09:43	-127.925	47.133	0	167.00	0	7.1761	0	33.8960	0	26.527	0	165.545	0	85.3	4	29.0	4	-1E+10	1	0.0468	4	0.000457	0	-1E+10	1	-1E+10	1	-1E+10	1
4902624	14	C	11/08/2024	09:43	-127.925	47.133	0	168.10	0	7.1656	0	33.8966	0	26.529	0	166.635	0	84.8	4	28.8	4	-1E+10	1	0.0438	4	0.000499	0	-1E+10	1	-1E+10	1	-1E+10	1
4902624	14	C	11/08/2024	09:43	-127.925	47.133	0	168.90	0	7.1580	0	33.8970	0	26.531	0	167.428	0	-1e10	1	-1e10	1	-1E+10	1	-1e10	1	-1e10	1	-1E+10	1	-1E+10	1	-1E+10	1
4902624	14	C	11/08/2024	09:43	-127.925	47.133	0	169.20	0	7.1510	0	33.8981	0	26.532	0	167.725	0	84.1	4	28.5	4	-1E+10	1	0.0438	4	0.000481	0	-1E+10	1	-1E+10	1	-1E+10	1
4902624	14	C	11/08/2024	09:43	-127.925	47.133	0	170.30	0	7.1253	0	33.9023	0	26.539	0	168.815	0	83.6	4	28.3	4	-1E+10	1	0.0460	4	0.000392	0	-1E+10	1	-1E+10	1	-1E+10	1
4902624	14	C	11/08/2024	09:43	-127.925	47.133	0	171.00	0	7.1090	0	33.9050	0	26.544	0	169.508	0	-1e10	1	-1e10	1	-1E+10	1	-1e10	1	-1e10	1	-1E+10	1	-1E+10	1	-1E+10	1
4902624	14	C	11/08/2024	09:43	-127.925	47.133	0	171.40	0	7.1060	0	33.9054	0	26.544	0	169.905	0	83.1	4	28.2	4	-1E+10	1	0.0511	4	0.000428	0	-1E+10	1	-1E+10	1	-1E+10	1
4902624	14	C	11/08/2024	09:43	-127.925	47.133	0	172.60	0	7.0970	0	33.9066	0	26.547	0	171.094	0	82.6	4	28.0	4	-1E+10	1	0.0511	4	0.000549	0	-1E+10	1	-1E+10	1	-1E+10	1
4902624	14	C	11/08/2024	09:43	-127.925	47.133	0	173.00	0	7.0940	0	33.9070	0	26.547	0	171.490	0	-1e10	1	-1e10	1	-1E+10	1	-1e10	1	-1e10	1	-1E+10	1	-1E+10	1	-1E+10	1
4902624	14	C	11/08/2024	09:43	-127.925	47.133	0	173.70	0	7.0880	0	33.9077	0	26.549	0	172.184	0	82.0	4	27.8	4	-1E+10	1	0.0438	4	0.000537	0	-1E+10	1	-1E+10	1	-1E+10	1
4902624	14	C	11/08/2024	09:43	-127.925	47.133	0	174.80	0	7.0787	0	33.9088	0	26.551	0	173.274	0	81.5	4	27.6	4	-1E+10	1	0.0495	4	0.000528	0	-1E+10	1	-1E+10	1	-1E+10	1
4902624	14	C	11/08/2024	09:43	-127.925	47.133	0	175.00	0	7.0770	0	33.9090	0	26.551	0	173.472	0	-1e10	1	-1e10	1	-1E+10	1	-1e10	1	-1e10	1	-1E+10	1	-1E+10	1	-1E+10	1
4902624	14	C	11/08/2024	09:43	-127.925	47.133	0	175.90	0	7.0641	0	33.9107	0	26.554	0	174.364	0	81.0	4	27.4	4	-1E+10	1	0.0511	4	0.000446	0	-1E+10	1	-1E+10	1	-1E+10	1
4902624	14	C	11/08/2024	09:43	-127.925	47.133	0	177.10	0	7.0470	0	33.9130	0	26.559	0	175.553	0	78.8	4	26.7	4	-1E+10	1	0.0468	4	0.000382	0	-1E+10	1	-1E+10	1	-1E+10	1
4902624	14	C	11/08/2024	09:43	-127.925	47.133	0	178.20	0	7.0325	0	33.9147	0	26.562	0	176.642	0	80.0	4	27.1	4	-1E+10	1	0.0438	4	0.000378	0	-1E+10	1	-1E+10	1	-1E+10	1
4902624	14	C	11/08/2024	09:43	-127.925	47.133	0	179.00	0	7.0220	0	33.9160	0	26.564	0	177.435	0	-1e10	1	-1e10	1	-1E+10	1	-1e10	1	-1e10	1	-1E+10	1	-1E+10	1	-1E+10	1
4902624	14	C	11/08/2024	09:43	-127.925	47.133	0	179.40	0	7.0154	0	33.9168	0	26.566	0	177.831	0	79.3	4	26.8	4	-1E+10	1	0.0490	4	0.000405	0	-1E+10	1	-1E+10	1	-1E+10	1
4902624	14	C	11/08/2024	09:43	-127.925	47.133	0	180.50	0	6.9972	0	33.9190	0	26.570	0	178.921	0	78.6	4	26.6	4	-1E+10	1	0.0571	4	0.000428	0	-1E+10	1	-1E+10	1	-1E+10	1
4902624	14	C	11/08/2024	09:43	-127.925	47.133	0	181.00	0	6.9890	0	33.9200	0	26.572	0	179.417	0	-1e10	1	-1e10	1	-1E+10	1	-1e10	1	-1e10	1	-1E+10	1	-1E+10	1	-1E+10	1
4902624	14	C	11/08/2024	09:43	-127.925	47.133	0	181.70	0	6.9847	0	33.9203	0	26.573	0	180.110	0	77.9	4	26.3	4	-1E+10	1	0.0527	4	0.000366	0	-1E+10	1	-1E+10	1	-1E+10	1
4902624	14	C	11/08/2024	09:43	-127.925	47.133	0	182.80	0	6.9779	0	33.9209	0	26.574	0	181.200	0	77.2	4	26.1	4	-1E+10	1	0.0584	4	0.000384	0	-1E+10	1	-1E+10	1	-1E+10	1
4902624	14	C	11/08/2024	09:43	-127.925	47.133	0	183.10	0	6.9760	0	33.9210	0	26.575	0	181.498	0	-1e10	1	-1e10	1	-1E+10	1	-1e10	1	-1e10	1	-1E+10	1	-1E+10	1	-1E+10	1
4902624	14	C	11/08/2024	09:43	-127.925	47.133	0	184.00	0	6.9689	0	33.9210	0	26.576	0	182.389	0	76.4	4	25.8	4	-1E+10	1	0.0521	4	0.000595	0	-1E+10	1	-1E+10	1	-1E+10	1
4902624	14	C	11/08/2024	09:43	-127.925	47.133	0	185.00	0	6.9610	0	33.9210	0	26.577	0	183.380	0	-1e10	1	-1e10	1	-1E+10	1	-1e10	1	-1e10	1	-1E+10	1	-1E+10	1	-1E+10	1
4902624	14	C	11/08/2024	09:43	-127.925	47.133	0	185.20	0	6.9583	0	33.9214	0	26.577	0	183.578	0	75.7	4	25.6	4	-1E+10	1	0.0572	4	0.000445	0	-1E+10	1	-1E+10	1	-1E+10	1
4902624	14	C	11/08/2024	09:43	-127.925	47.133	0	186.30	0	6.9434	0	33.9236	0	26.581	0	184.668	0	74.9	4	25.3	4	-1E+10	1	0.0631	4	0.000445	0	-1E+10	1	-1E+10	1	-1E+10	1
4902624	14	C	11/08/2024	09:43	-127.925	47.133	0	187.00	0	6.9340	0	33.9250	0	26.584	0	185.362	0	-1e10	1	-1e10	1	-1E+10	1	-1e10	1	-1e10	1	-1E+10	1	-1E+10	1	-1E+10	1
4902624	14	C	11/08/2024	09:43	-127.925	47.133	0	187.50	0	6.9250	0	33.9265	0	26.586	0	185.857	0	74.4	4	25.1	4	-1E+10	1	0.0620	4	0.000461	0	-1E+10	1	-1E+10	1	-1E+10	1
4902624	14	C	11/08/2024	09:43	-127.925	47.133	0	188.70	0	6.9034	0	33.9301	0	26.592	0	187.046	0	74.1	4	25.0	4	-1E+10	1	0.0584	4	0.000440	0	-1E+10	1	-1E+10	1	-1E+10	1
4902624	14	C	11/08/2024	09:43	-127.925	47.133	0	189.00	0	6.8980	0	33.9310	0	26.593	0	187.343	0	-1e10	1	-1e10	1	-1E+10	1	-1e10	1	-1e10	1	-1E+10	1	-1E+10	1	-1E+10	1
4902624	14	C	11/08/2024	09:43	-127.925	47.133	0	189.90	0	6.8852	0	33.9319	0	26.596	0	188.235	0	73.6	4	24.8	4	-1E+10	1	0.0610	4	0.000403	0	-1E+10	1	-1E+10	1	-1E+10	1
4902624	14	C	11/08/2024	09:43	-127.925	47.133	0	190.90	0	6.8710	0	33.9330	0	26.598	0	189.226	0	-1e10	1	-1e10	1	-1E+10	1	-1e10	1	-1e10	1	-1E+10	1	-1E+10	1	-1E+10	1
4902624	14	C	11/08/2024	09:43	-127.925	47.133	0	191.10	0	6.8677	0	33.9334	0	26.599	0	189.424	0	73.2	4	24.7	4	-1E+10	1	0.0642	4	0.000382	0	-1E+10	1	-1E+10	1	-1E+10	1
4902624	14	C	11/08/2024	09:43	-127.925	47.133	0	192.30	0	6.8477	0	33.9357	0	26.604	0	190.613	0	72.9	4	24.6	4	-1E+10	1	0.0584	4	0.000419	0	-1E+10	1	-1E+10	1	-1E+10	1
4902624	14	C	11/08/2024	09:43	-127.925	47.133	0	193.00	0	6.8360	0	33.9370	0	26.606	0	191.306	0	-1e10	1	-1e10	1	-1E+10	1	-1e10	1	-1e10	1	-1E+10	1	-1E+10	1	-1E+10	1
4902624	14	C	11/08/2024	09:43	-127.925	47.133	0	193.50	0	6.8333	0	33.9370	0	26.607	0	191.802	0	72.6	4	24.4	4	-1E+10	1	0.0657	4	0.000396	0	-1E+10	1	-1E+10	1	-1E+10	1
4902624	14	C	11/08/2024	09:43	-127.925	47.133	0	194.70	0	6.8266	0	33.9370	0	26.608	0	192.991	0	72.1	4	24.3	4	-1E+10	1	0.0594	4	0.000396	0	-1E+10	1	-1E+10	1	-1E+10	1
4902624	14	C	11/08/2024	09:43	-127.925	47.133	0	195.00	0	6.8250	0	33.9370	0	26.608	0	193.288	0	-1e10	1	-1e10	1	-1E+10	1	-1e10	1	-1e10	1	-1E+10	1	-1E+10	1	-1E+10	1
4902624	14	C	11/08/2024	09:43	-127.925	47.133	0	195.90	0	6.8187	0	33.9379	0	26.609	0	194.179	0	71.4	4	24.0	4	-1E+10	1	0.0487	4	0.000404	0	-1E+10	1	-1E+10	1	-1E+10	1
4902624	14	C	11/08/2024	09:43	-127.925	47.133	0	197.00	0	6.8110	0	33.9390	0	26.611	0	195.269	0	-1e10	1	-1e10	1	-1E+10	1	-1e10	1	-1e10	1	-1E+10	1	-1E+10	1	-1E+10	1
4902624	14	C	11/08/2024	09:43	-127.925	47.133	0	197.10	0	6.8099	0	33.9390	0	26.611	0	195.368	0	70.9	4	23.9	4	-1E+10	1	0.0481	4	0.000421	0	-1E+10	1	-1E+10	1	-1E+10	1
4902624	14	C	11/08/2024	09:43	-127.925	47.133	0	198.30	0	6.7967	0	33.9396	0	26.614	0	196.557	0	70.5	4	23.7	4	-1E+10	1	0.0511	4	0.000403	0	-1E+10	1	-1E+10	1	-1E+10	1
4902624	14	C	11/08/2024	09:43	-127.925	47.133	0	199.00	0	6.7890	0	33.9400	0	26.615	0	197.251	0	-1e10	1	-1e10	1	-1E+10	1	-1e10	1	-1e10	1	-1E+10	1	-1E+10	1	-1E+10	1
4902624	14	C	11/08/2024	09:43	-127.925	47.133	0	199.50	0	6.7840	0	33.9402	0	26.616	0	197.746	0	70.2	4	23.6	4	-1E+10	1	0.0511	4	0.000414	0	-1E+10	1	-1E+10	1	-1E+10	1
4902624	14	C	11/08/2024	09:43	-127.925	47.133	0	200.50	0	6.7740	0	33.9407	0	26.618	0	198.737	0	69.9	4	23.5	4	-1E+10	1	0.0527	4	0.000449	0	-1E+10	1	-1E+10	1	-1E+10	1
4902624	14	C	11/08/2024	09:43	-127.925	47.133	0	201.10	0	6.7680	0	33.9410	0	26.619	0	199.331	0	-1e10	1	-1e10	1	-1E+10	1	-1e10	1	-1e10	1	-1E+10	1	-1E+10	1	-1E+10	1
4902624	14	C	11/08/2024	09:43	-127.925	47.133	0	201.30	0	6.7676	0	33.9410	0	26.619	0	199.529	0	69.7	4	23.4	4	-1E+10	1	0.0592	4	0.000348	0	-1E+10	1	-1E+10	1	-1E+10	1
4902624	14	C	11/08/2024	09:43	-127.925	47.133	0	202.10	0	6.7660	0	33.9410	0	26.619	0	200.322	0	69.4	4	23.3	4	-1E+10	1	0.0657	4	0.000337	0	-1E+10	1	-1E+10	1	-1E+10	1
4902624	14	C	11/08/2024	09:43	-127.925	47.133	0	203.00	0	6.7642	0	33.9410	0	26.619	0	201.214	0	69.2	4	23.3	4	-1E+10	1	0.0365	4	0.000384	0	-1E+10	1	-1E+10	1	-1E+10	1
4902624	14	C	11/08/2024	09:43	-127.925	47.133	0	203.10	0	6.7640	0	33.9410	0	26.619	0	201.313	0	-1e10	1	-1e10	1	-1E+10	1	-1e10	1	-1e10	1	-1E+10	1	-1E+10	1	-1E+10	1
4902624	14	C	11/08/2024	09:43	-127.925	47.133	0	203.70	0	6.7619	0	33.9413	0	26.620	0	201.907	0	69.0	4	23.2	4	-1E+10	1	0.0557	4	0.000384	0	-1E+10	1	-1E+10	1	-1E+10	1
4902624	14	C	11/08/2024	09:43	-127.925	47.133	0	204.40	0	6.7594	0	33.9417	0	26.620	0	202.601	0	68.8	4	23.1	4	-1E+10	1	0.0540	4	0.000440	0	-1E+10	1	-1E+10	1	-1E+10	1
4902624	14	C	11/08/2024	09:43	-127.925	47.133	0	205.10	0	6.7570	0	33.9420	0	26.621	0	203.294	0	-1e10	1	-1e10	1	-1E+10	1	-1e10	1	-1e10	1	-1E+10	1	-1E+10	1	-1E+10	1
4902624	14	C	11/08/2024	09:43	-127.925	47.133	0	205.20	0	6.7564	0	33.9421	0	26.621	0	203.393	0	68.6	4	23.1	4	-1E+10	1	0.0543	4	0.000457	0	-1E+10	1	-1E+10	1	-1E+10	1
4902624	14	C	11/08/2024	09:43	-127.925	47.133	0	206.00	0	6.7518	0	33.9429	0	26.622	0	204.186	0	68.4	4	23.0	4	-1E+10	1	0.0584	4	0.000400	0	-1E+10	1	-1E+10	1	-1E+10	1
4902624	14	C	11/08/2024	09:43	-127.925	47.133	0	206.80	0	6.7472	0	33.9438	0	26.624	0	204.978	0	68.1	4	22.9	4	-1E+10	1	0.0608	4	0.000380	0	-1E+10	1	-1E+10	1	-1E+10	1
4902624	14	C	11/08/2024	09:43	-127.925	47.133	0	207.00	0	6.7460	0	33.9440	0	26.624	0	205.176	0	-1e10	1	-1e10	1	-1E+10	1	-1e10	1	-1e10	1	-1E+10	1	-1E+10	1	-1E+10	1
4902624	14	C	11/08/2024	09:43	-127.925	47.133	0	207.60	0	6.7349	0	33.9452	0	26.626	0	205.771	0	67.9	4	22.8	4	-1E+10	1	0.0599	4	0.000433	0	-1E+10	1	-1E+10	1	-1E+10	1
4902624	14	C	11/08/2024	09:43	-127.925	47.133	0	208.40	0	6.7201	0	33.9468	0	26.630	0	206.563	0	67.9	4	22.8	4	-1E+10	1	0.0365	4	0.000396	0	-1E+10	1	-1E+10	1	-1E+10	1
4902624	14	C	11/08/2024	09:43	-127.925	47.133	0	209.00	0	6.7090	0	33.9480	0	26.632	0	207.158	0	-1e10	1	-1e10	1	-1E+10	1	-1e10	1	-1e10	1	-1E+10	1	-1E+10	1	-1E+10	1
4902624	14	C	11/08/2024	09:43	-127.925	47.133	0	209.20	0	6.7068	0	33.9482	0	26.633	0	207.356	0	67.9	4	22.8	4	-1E+10	1	0.0657	4	0.000619	0	-1E+10	1	-1E+10	1	-1E+10	1
4902624	14	C	11/08/2024	09:43	-127.925	47.133	0	210.00	0	6.6980	0	33.9490	0	26.634	0	208.149	0	68.0	4	22.8	4	-1E+10	1	0.0462	4	0.000452	0	-1E+10	1	-1E+10	1	-1E+10	1
4902624	14	C	11/08/2024	09:43	-127.925	47.133	0	210.80	0	6.6892	0	33.9498	0	26.636	0	208.941	0	68.3	4	22.9	4	-1E+10	1	0.0489	4	0.000373	0	-1E+10	1	-1E+10	1	-1E+10	1
4902624	14	C	11/08/2024	09:43	-127.925	47.133	0	211.00	0	6.6870	0	33.9500	0	26.637	0	209.139	0	-1e10	1	-1e10	1	-1E+10	1	-1e10	1	-1e10	1	-1E+10	1	-1E+10	1	-1E+10	1
4902624	14	C	11/08/2024	09:43	-127.925	47.133	0	211.60	0	6.6819	0	33.9506	0	26.638	0	209.734	0	68.4	4	23.0	4	-1E+10	1	0.0465	4	0.000386	0	-1E+10	1	-1E+10	1	-1E+10	1
4902624	14	C	11/08/2024	09:43	-127.925	47.133	0	212.40	0	6.6752	0	33.9515	0	26.639	0	210.526	0	68.4	4	23.0	4	-1E+10	1	0.0584	4	0.000385	0	-1E+10	1	-1E+10	1	-1E+10	1
4902624	14	C	11/08/2024	09:43	-127.925	47.133	0	212.90	0	6.6710	0	33.9520	0	26.640	0	211.021	0	-1e10	1	-1e10	1	-1E+10	1	-1e10	1	-1e10	1	-1E+10	1	-1E+10	1	-1E+10	1
4902624	14	C	11/08/2024	09:43	-127.925	47.133	0	213.20	0	6.6677	0	33.9523	0	26.641	0	211.319	0	68.4	4	23.0	4	-1E+10	1	0.0642	4	0.000358	0	-1E+10	1	-1E+10	1	-1E+10	1
4902624	14	C	11/08/2024	09:43	-127.925	47.133	0	214.00	0	6.6590	0	33.9530	0	26.643	0	212.111	0	68.5	4	23.0	4	-1E+10	1	0.0447	4	0.000366	0	-1E+10	1	-1E+10	1	-1E+10	1
4902624	14	C	11/08/2024	09:43	-127.925	47.133	0	214.90	0	6.6491	0	33.9539	0	26.645	0	213.003	0	68.3	4	22.9	4	-1E+10	1	0.0511	4	0.000476	0	-1E+10	1	-1E+10	1	-1E+10	1
4902624	14	C	11/08/2024	09:43	-127.925	47.133	0	215.00	0	6.6480	0	33.9540	0	26.645	0	213.102	0	-1e10	1	-1e10	1	-1E+10	1	-1e10	1	-1e10	1	-1E+10	1	-1E+10	1	-1E+10	1
4902624	14	C	11/08/2024	09:43	-127.925	47.133	0	215.70	0	6.6371	0	33.9543	0	26.647	0	213.795	0	68.1	4	22.8	4	-1E+10	1	0.0511	4	0.000419	0	-1E+10	1	-1E+10	1	-1E+10	1
4902624	14	C	11/08/2024	09:43	-127.925	47.133	0	216.50	0	6.6248	0	33.9548	0	26.649	0	214.588	0	67.9	4	22.8	4	-1E+10	1	0.0569	4	0.000382	0	-1E+10	1	-1E+10	1	-1E+10	1
4902624	14	C	11/08/2024	09:43	-127.925	47.133	0	217.00	0	6.6170	0	33.9550	0	26.650	0	215.083	0	-1e10	1	-1e10	1	-1E+10	1	-1e10	1	-1e10	1	-1E+10	1	-1E+10	1	-1E+10	1
4902624	14	C	11/08/2024	09:43	-127.925	47.133	0	217.40	0	6.6136	0	33.9552	0	26.651	0	215.479	0	67.8	4	22.7	4	-1E+10	1	0.0520	4	0.000383	0	-1E+10	1	-1E+10	1	-1E+10	1
4902624	14	C	11/08/2024	09:43	-127.925	47.133	0	218.20	0	6.6069	0	33.9556	0	26.652	0	216.272	0	67.5	4	22.6	4	-1E+10	1	0.0613	4	0.000409	0	-1E+10	1	-1E+10	1	-1E+10	1
4902624	14	C	11/08/2024	09:43	-127.925	47.133	0	218.90	0	6.6010	0	33.9560	0	26.653	0	216.965	0	-1e10	1	-1e10	1	-1E+10	1	-1e10	1	-1e10	1	-1E+10	1	-1E+10	1	-1E+10	1
4902624	14	C	11/08/2024	09:43	-127.925	47.133	0	219.10	0	6.6004	0	33.9562	0	26.653	0	217.164	0	67.1	4	22.5	4	-1E+10	1	0.0569	4	0.000426	0	-1E+10	1	-1E+10	1	-1E+10	1
4902624	14	C	11/08/2024	09:43	-127.925	47.133	0	219.90	0	6.5980	0	33.9570	0	26.654	0	217.956	0	66.9	4	22.4	4	-1E+10	1	0.0511	4	0.000400	0	-1E+10	1	-1E+10	1	-1E+10	1
4902624	14	C	11/08/2024	09:43	-127.925	47.133	0	220.70	0	6.5956	0	33.9578	0	26.655	0	218.749	0	66.7	4	22.4	4	-1E+10	1	0.0555	4	0.000364	0	-1E+10	1	-1E+10	1	-1E+10	1
4902624	14	C	11/08/2024	09:43	-127.925	47.133	0	220.90	0	6.5950	0	33.9580	0	26.655	0	218.947	0	-1e10	1	-1e10	1	-1E+10	1	-1e10	1	-1e10	1	-1E+10	1	-1E+10	1	-1E+10	1
4902624	14	C	11/08/2024	09:43	-127.925	47.133	0	221.60	0	6.5925	0	33.9590	0	26.656	0	219.640	0	66.6	4	22.3	4	-1E+10	1	0.0628	4	0.000384	0	-1E+10	1	-1E+10	1	-1E+10	1
4902624	14	C	11/08/2024	09:43	-127.925	47.133	0	222.40	0	6.5897	0	33.9603	0	26.658	0	220.433	0	66.5	4	22.3	4	-1E+10	1	0.0511	4	0.000431	0	-1E+10	1	-1E+10	1	-1E+10	1
4902624	14	C	11/08/2024	09:43	-127.925	47.133	0	222.90	0	6.5880	0	33.9610	0	26.659	0	220.928	0	-1e10	1	-1e10	1	-1E+10	1	-1e10	1	-1e10	1	-1E+10	1	-1E+10	1	-1E+10	1
4902624	14	C	11/08/2024	09:43	-127.925	47.133	0	223.20	0	6.5867	0	33.9613	0	26.659	0	221.225	0	66.4	4	22.2	4	-1E+10	1	0.0511	4	0.000419	0	-1E+10	1	-1E+10	1	-1E+10	1
4902624	14	C	11/08/2024	09:43	-127.925	47.133	0	224.10	0	6.5829	0	33.9621	0	26.660	0	222.117	0	66.2	4	22.2	4	-1E+10	1	0.0451	4	0.000410	0	-1E+10	1	-1E+10	1	-1E+10	1
4902624	14	C	11/08/2024	09:43	-127.925	47.133	0	224.90	0	6.5794	0	33.9629	0	26.661	0	222.909	0	66.0	4	22.1	4	-1E+10	1	0.0438	4	0.000400	0	-1E+10	1	-1E+10	1	-1E+10	1
4902624	14	C	11/08/2024	09:43	-127.925	47.133	0	225.00	0	6.5790	0	33.9630	0	26.661	0	223.008	0	-1e10	1	-1e10	1	-1E+10	1	-1e10	1	-1e10	1	-1E+10	1	-1E+10	1	-1E+10	1
4902624	14	C	11/08/2024	09:43	-127.925	47.133	0	225.80	0	6.5733	0	33.9638	0	26.663	0	223.801	0	65.8	4	22.0	4	-1E+10	1	0.0438	4	0.000389	0	-1E+10	1	-1E+10	1	-1E+10	1
4902624	14	C	11/08/2024	09:43	-127.925	47.133	0	226.70	0	6.5669	0	33.9646	0	26.664	0	224.692	0	65.5	4	21.9	4	-1E+10	1	0.0474	4	0.000390	0	-1E+10	1	-1E+10	1	-1E+10	1
4902624	14	C	11/08/2024	09:43	-127.925	47.133	0	227.10	0	6.5640	0	33.9650	0	26.665	0	225.088	0	-1e10	1	-1e10	1	-1E+10	1	-1e10	1	-1e10	1	-1E+10	1	-1E+10	1	-1E+10	1
4902624	14	C	11/08/2024	09:43	-127.925	47.133	0	227.60	0	6.5590	0	33.9658	0	26.666	0	225.584	0	65.2	4	21.8	4	-1E+10	1	0.0564	4	0.000391	0	-1E+10	1	-1E+10	1	-1E+10	1
4902624	14	C	11/08/2024	09:43	-127.925	47.133	0	228.40	0	6.5510	0	33.9669	0	26.668	0	226.376	0	64.9	4	21.7	4	-1E+10	1	0.0648	4	0.000384	0	-1E+10	1	-1E+10	1	-1E+10	1
4902624	14	C	11/08/2024	09:43	-127.925	47.133	0	229.10	0	6.5440	0	33.9680	0	26.670	0	227.070	0	-1e10	1	-1e10	1	-1E+10	1	-1e10	1	-1e10	1	-1E+10	1	-1E+10	1	-1E+10	1
4902624	14	C	11/08/2024	09:43	-127.925	47.133	0	229.30	0	6.5431	0	33.9680	0	26.670	0	227.268	0	64.7	4	21.7	4	-1E+10	1	0.0584	4	0.000382	0	-1E+10	1	-1E+10	1	-1E+10	1
4902624	14	C	11/08/2024	09:43	-127.925	47.133	0	230.20	0	6.5391	0	33.9680	0	26.671	0	228.159	0	64.4	4	21.6	4	-1E+10	1	0.0555	4	0.000405	0	-1E+10	1	-1E+10	1	-1E+10	1
4902624	14	C	11/08/2024	09:43	-127.925	47.133	0	230.90	0	6.5360	0	33.9680	0	26.671	0	228.853	0	-1e10	1	-1e10	1	-1E+10	1	-1e10	1	-1e10	1	-1E+10	1	-1E+10	1	-1E+10	1
4902624	14	C	11/08/2024	09:43	-127.925	47.133	0	231.00	0	6.5355	0	33.9681	0	26.671	0	228.952	0	64.2	4	21.5	4	-1E+10	1	0.0438	4	0.000536	0	-1E+10	1	-1E+10	1	-1E+10	1
4902624	14	C	11/08/2024	09:43	-127.925	47.133	0	231.90	0	6.5310	0	33.9690	0	26.673	0	229.843	0	63.9	4	21.4	4	-1E+10	1	0.0584	4	0.000313	0	-1E+10	1	-1E+10	1	-1E+10	1
4902624	14	C	11/08/2024	09:43	-127.925	47.133	0	232.90	0	6.5260	0	33.9700	0	26.674	0	230.834	0	63.6	4	21.3	4	-1E+10	1	0.0511	4	0.000374	0	-1E+10	1	-1E+10	1	-1E+10	1
4902624	14	C	11/08/2024	09:43	-127.925	47.133	0	233.70	0	6.5224	0	33.9700	0	26.674	0	231.626	0	63.3	4	21.2	4	-1E+10	1	0.0511	4	0.000432	0	-1E+10	1	-1E+10	1	-1E+10	1
4902624	14	C	11/08/2024	09:43	-127.925	47.133	0	234.50	0	6.5187	0	33.9700	0	26.675	0	232.419	0	63.0	4	21.1	4	-1E+10	1	0.0470	4	0.000428	0	-1E+10	1	-1E+10	1	-1E+10	1
4902624	14	C	11/08/2024	09:43	-127.925	47.133	0	235.10	0	6.5160	0	33.9700	0	26.675	0	233.013	0	-1e10	1	-1e10	1	-1E+10	1	-1e10	1	-1e10	1	-1E+10	1	-1E+10	1	-1E+10	1
4902624	14	C	11/08/2024	09:43	-127.925	47.133	0	235.40	0	6.5143	0	33.9703	0	26.676	0	233.310	0	62.7	4	21.0	4	-1E+10	1	0.0474	4	0.000390	0	-1E+10	1	-1E+10	1	-1E+10	1
4902624	14	C	11/08/2024	09:43	-127.925	47.133	0	236.20	0	6.5100	0	33.9711	0	26.677	0	234.103	0	62.5	4	20.9	4	-1E+10	1	0.0489	4	0.000362	0	-1E+10	1	-1E+10	1	-1E+10	1
4902624	14	C	11/08/2024	09:43	-127.925	47.133	0	237.10	0	6.5050	0	33.9720	0	26.678	0	234.994	0	-1e10	1	-1e10	1	-1E+10	1	-1e10	1	-1e10	1	-1E+10	1	-1E+10	1	-1E+10	1
4902624	14	C	11/08/2024	09:43	-127.925	47.133	0	237.20	0	6.5044	0	33.9720	0	26.678	0	235.093	0	62.4	4	20.9	4	-1E+10	1	0.0487	4	0.000364	0	-1E+10	1	-1E+10	1	-1E+10	1
4902624	14	C	11/08/2024	09:43	-127.925	47.133	0	238.00	0	6.4998	0	33.9720	0	26.679	0	235.886	0	62.2	4	20.8	4	-1E+10	1	0.0571	4	0.000417	0	-1E+10	1	-1E+10	1	-1E+10	1
4902624	14	C	11/08/2024	09:43	-127.925	47.133	0	238.90	0	6.4946	0	33.9720	0	26.680	0	236.777	0	62.0	4	20.7	4	-1E+10	1	0.0511	4	0.000407	0	-1E+10	1	-1E+10	1	-1E+10	1
4902624	14	C	11/08/2024	09:43	-127.925	47.133	0	239.00	0	6.4940	0	33.9720	0	26.680	0	236.876	0	-1e10	1	-1e10	1	-1E+10	1	-1e10	1	-1e10	1	-1E+10	1	-1E+10	1	-1E+10	1
4902624	14	C	11/08/2024	09:43	-127.925	47.133	0	239.80	0	6.4902	0	33.9724	0	26.681	0	237.669	0	61.9	4	20.7	4	-1E+10	1	0.0451	4	0.000378	0	-1E+10	1	-1E+10	1	-1E+10	1
4902624	14	C	11/08/2024	09:43	-127.925	47.133	0	240.70	0	6.4859	0	33.9729	0	26.682	0	238.560	0	61.7	4	20.6	4	-1E+10	1	0.0502	4	0.000362	0	-1E+10	1	-1E+10	1	-1E+10	1
4902624	14	C	11/08/2024	09:43	-127.925	47.133	0	240.90	0	6.4850	0	33.9730	0	26.682	0	238.758	0	-1e10	1	-1e10	1	-1E+10	1	-1e10	1	-1e10	1	-1E+10	1	-1E+10	1	-1E+10	1
4902624	14	C	11/08/2024	09:43	-127.925	47.133	0	241.50	0	6.4778	0	33.9739	0	26.683	0	239.353	0	61.6	4	20.6	4	-1E+10	1	0.0465	4	0.000420	0	-1E+10	1	-1E+10	1	-1E+10	1
4902624	14	C	11/08/2024	09:43	-127.925	47.133	0	242.40	0	6.4670	0	33.9753	0	26.686	0	240.244	0	61.6	4	20.6	4	-1E+10	1	0.0471	4	0.000401	0	-1E+10	1	-1E+10	1	-1E+10	1
4902624	14	C	11/08/2024	09:43	-127.925	47.133	0	242.90	0	6.4610	0	33.9760	0	26.687	0	240.739	0	-1e10	1	-1e10	1	-1E+10	1	-1e10	1	-1e10	1	-1E+10	1	-1E+10	1	-1E+10	1
4902624	14	C	11/08/2024	09:43	-127.925	47.133	0	243.30	0	6.4566	0	33.9764	0	26.688	0	241.136	0	61.4	4	20.5	4	-1E+10	1	0.0608	4	0.000341	0	-1E+10	1	-1E+10	1	-1E+10	1
4902624	14	C	11/08/2024	09:43	-127.925	47.133	0	244.20	0	6.4468	0	33.9772	0	26.690	0	242.027	0	61.4	4	20.5	4	-1E+10	1	0.0694	4	0.000394	0	-1E+10	1	-1E+10	1	-1E+10	1
4902624	14	C	11/08/2024	09:43	-127.925	47.133	0	245.00	0	6.4380	0	33.9780	0	26.692	0	242.819	0	-1e10	1	-1e10	1	-1E+10	1	-1e10	1	-1e10	1	-1E+10	1	-1E+10	1	-1E+10	1
4902624	14	C	11/08/2024	09:43	-127.925	47.133	0	245.10	0	6.4368	0	33.9781	0	26.692	0	242.918	0	61.4	4	20.5	4	-1E+10	1	0.0451	4	0.000482	0	-1E+10	1	-1E+10	1	-1E+10	1
4902624	14	C	11/08/2024	09:43	-127.925	47.133	0	246.00	0	6.4260	0	33.9785	0	26.694	0	243.810	0	61.4	4	20.5	4	-1E+10	1	0.0511	4	0.000395	0	-1E+10	1	-1E+10	1	-1E+10	1
4902624	14	C	11/08/2024	09:43	-127.925	47.133	0	246.90	0	6.4152	0	33.9790	0	26.696	0	244.701	0	61.4	4	20.5	4	-1E+10	1	0.0584	4	0.000325	0	-1E+10	1	-1E+10	1	-1E+10	1
4902624	14	C	11/08/2024	09:43	-127.925	47.133	0	247.00	0	6.4140	0	33.9790	0	26.696	0	244.800	0	-1e10	1	-1e10	1	-1E+10	1	-1e10	1	-1e10	1	-1E+10	1	-1E+10	1	-1E+10	1
4902624	14	C	11/08/2024	09:43	-127.925	47.133	0	247.90	0	6.4107	0	33.9795	0	26.697	0	245.692	0	61.4	4	20.5	4	-1E+10	1	0.0584	4	0.000345	0	-1E+10	1	-1E+10	1	-1E+10	1
4902624	14	C	11/08/2024	09:43	-127.925	47.133	0	248.80	0	6.4074	0	33.9799	0	26.697	0	246.583	0	61.4	4	20.5	4	-1E+10	1	0.0482	4	0.000373	0	-1E+10	1	-1E+10	1	-1E+10	1
4902624	14	C	11/08/2024	09:43	-127.925	47.133	0	248.90	0	6.4070	0	33.9800	0	26.698	0	246.682	0	-1e10	1	-1e10	1	-1E+10	1	-1e10	1	-1e10	1	-1E+10	1	-1E+10	1	-1E+10	1
4902624	14	C	11/08/2024	09:43	-127.925	47.133	0	249.70	0	6.4028	0	33.9808	0	26.699	0	247.475	0	61.4	4	20.5	4	-1E+10	1	0.0438	4	0.000370	0	-1E+10	1	-1E+10	1	-1E+10	1
4902624	14	C	11/08/2024	09:43	-127.925	47.133	0	250.60	0	6.3981	0	33.9816	0	26.700	0	248.366	0	61.4	4	20.5	4	-1E+10	1	0.0471	4	0.000360	0	-1E+10	1	-1E+10	1	-1E+10	1
4902624	14	C	11/08/2024	09:43	-127.925	47.133	0	251.00	0	6.3960	0	33.9820	0	26.701	0	248.762	0	-1e10	1	-1e10	1	-1E+10	1	-1e10	1	-1e10	1	-1E+10	1	-1E+10	1	-1E+10	1
4902624	14	C	11/08/2024	09:43	-127.925	47.133	0	251.60	0	6.3915	0	33.9823	0	26.701	0	249.357	0	61.3	4	20.5	4	-1E+10	1	0.0511	4	0.000364	0	-1E+10	1	-1E+10	1	-1E+10	1
4902624	14	C	11/08/2024	09:43	-127.925	47.133	0	252.50	0	6.3847	0	33.9827	0	26.703	0	250.248	0	61.2	4	20.4	4	-1E+10	1	0.0495	4	0.000421	0	-1E+10	1	-1E+10	1	-1E+10	1
4902624	14	C	11/08/2024	09:43	-127.925	47.133	0	253.00	0	6.3810	0	33.9830	0	26.703	0	250.743	0	-1e10	1	-1e10	1	-1E+10	1	-1e10	1	-1e10	1	-1E+10	1	-1E+10	1	-1E+10	1
4902624	14	C	11/08/2024	09:43	-127.925	47.133	0	253.40	0	6.3762	0	33.9834	0	26.704	0	251.140	0	61.2	4	20.4	4	-1E+10	1	0.0438	4	0.000559	0	-1E+10	1	-1E+10	1	-1E+10	1
4902624	14	C	11/08/2024	09:43	-127.925	47.133	0	254.30	0	6.3655	0	33.9842	0	26.706	0	252.031	0	61.1	4	20.4	4	-1E+10	1	0.0438	4	0.000395	0	-1E+10	1	-1E+10	1	-1E+10	1
4902624	14	C	11/08/2024	09:43	-127.925	47.133	0	255.10	0	6.3560	0	33.9850	0	26.708	0	252.823	0	-1e10	1	-1e10	1	-1E+10	1	-1e10	1	-1e10	1	-1E+10	1	-1E+10	1	-1E+10	1
4902624	14	C	11/08/2024	09:43	-127.925	47.133	0	255.20	0	6.3551	0	33.9850	0	26.708	0	252.922	0	61.0	4	20.3	4	-1E+10	1	0.0617	4	0.000357	0	-1E+10	1	-1E+10	1	-1E+10	1
4902624	14	C	11/08/2024	09:43	-127.925	47.133	0	256.10	0	6.3471	0	33.9850	0	26.709	0	253.814	0	60.9	4	20.3	4	-1E+10	1	0.0543	4	0.000348	0	-1E+10	1	-1E+10	1	-1E+10	1
4902624	14	C	11/08/2024	09:43	-127.925	47.133	0	257.00	0	6.3390	0	33.9850	0	26.710	0	254.705	0	-1e10	1	-1e10	1	-1E+10	1	-1e10	1	-1e10	1	-1E+10	1	-1E+10	1	-1E+10	1
4902624	14	C	11/08/2024	09:43	-127.925	47.133	0	257.10	0	6.3383	0	33.9851	0	26.711	0	254.804	0	60.8	4	20.3	4	-1E+10	1	0.0462	4	0.000333	0	-1E+10	1	-1E+10	1	-1E+10	1
4902624	14	C	11/08/2024	09:43	-127.925	47.133	0	258.00	0	6.3320	0	33.9855	0	26.712	0	255.696	0	60.7	4	20.2	4	-1E+10	1	0.0471	4	0.000346	0	-1E+10	1	-1E+10	1	-1E+10	1
4902624	14	C	11/08/2024	09:43	-127.925	47.133	0	259.00	0	6.3250	0	33.9860	0	26.713	0	256.686	0	59.4	4	19.8	4	-1E+10	1	0.0540	4	0.000381	0	-1E+10	1	-1E+10	1	-1E+10	1
4902624	14	C	11/08/2024	09:43	-127.925	47.133	0	259.90	0	6.3160	0	33.9860	0	26.714	0	257.578	0	60.7	4	20.2	4	-1E+10	1	0.0584	4	0.000386	0	-1E+10	1	-1E+10	1	-1E+10	1
4902624	14	C	11/08/2024	09:43	-127.925	47.133	0	260.90	0	6.3060	0	33.9860	0	26.716	0	258.568	0	60.7	4	20.2	4	-1E+10	1	0.0571	4	0.000352	0	-1E+10	1	-1E+10	1	-1E+10	1
4902624	14	C	11/08/2024	09:43	-127.925	47.133	0	261.00	0	6.3050	0	33.9860	0	26.716	0	258.667	0	-1e10	1	-1e10	1	-1E+10	1	-1e10	1	-1e10	1	-1E+10	1	-1E+10	1	-1E+10	1
4902624	14	C	11/08/2024	09:43	-127.925	47.133	0	261.80	0	6.2886	0	33.9852	0	26.717	0	259.459	0	60.5	4	20.1	4	-1E+10	1	0.0511	4	0.000313	0	-1E+10	1	-1E+10	1	-1E+10	1
4902624	14	C	11/08/2024	09:43	-127.925	47.133	0	262.80	0	6.2681	0	33.9843	0	26.719	0	260.450	0	60.3	4	20.1	4	-1E+10	1	0.0584	4	0.000360	0	-1E+10	1	-1E+10	1	-1E+10	1
4902624	14	C	11/08/2024	09:43	-127.925	47.133	0	263.10	0	6.2620	0	33.9840	0	26.720	0	260.747	0	-1e10	1	-1e10	1	-1E+10	1	-1e10	1	-1e10	1	-1E+10	1	-1E+10	1	-1E+10	1
4902624	14	C	11/08/2024	09:43	-127.925	47.133	0	263.70	0	6.2620	0	33.9846	0	26.720	0	261.341	0	60.1	4	20.0	4	-1E+10	1	0.0703	4	0.000696	0	-1E+10	1	-1E+10	1	-1E+10	1
4902624	14	C	11/08/2024	09:43	-127.925	47.133	0	264.70	0	6.2620	0	33.9857	0	26.721	0	262.332	0	60.0	4	19.9	4	-1E+10	1	0.0633	4	0.000520	0	-1E+10	1	-1E+10	1	-1E+10	1
4902624	14	C	11/08/2024	09:43	-127.925	47.133	0	265.00	0	6.2620	0	33.9860	0	26.721	0	262.629	0	-1e10	1	-1e10	1	-1E+10	1	-1e10	1	-1e10	1	-1E+10	1	-1E+10	1	-1E+10	1
4902624	14	C	11/08/2024	09:43	-127.925	47.133	0	265.70	0	6.2540	0	33.9864	0	26.723	0	263.322	0	59.8	4	19.9	4	-1E+10	1	0.0584	4	0.000494	0	-1E+10	1	-1E+10	1	-1E+10	1
4902624	14	C	11/08/2024	09:43	-127.925	47.133	0	266.70	0	6.2424	0	33.9869	0	26.724	0	264.312	0	59.6	4	19.8	4	-1E+10	1	0.0548	4	0.000518	0	-1E+10	1	-1E+10	1	-1E+10	1
4902624	14	C	11/08/2024	09:43	-127.925	47.133	0	267.00	0	6.2390	0	33.9870	0	26.725	0	264.610	0	-1e10	1	-1e10	1	-1E+10	1	-1e10	1	-1e10	1	-1E+10	1	-1E+10	1	-1E+10	1
4902624	14	C	11/08/2024	09:43	-127.925	47.133	0	267.70	0	6.2309	0	33.9877	0	26.727	0	265.303	0	59.4	4	19.7	4	-1E+10	1	0.0535	4	0.000442	0	-1E+10	1	-1E+10	1	-1E+10	1
4902624	14	C	11/08/2024	09:43	-127.925	47.133	0	268.70	0	6.2194	0	33.9887	0	26.729	0	266.293	0	59.3	4	19.7	4	-1E+10	1	0.0555	4	0.000369	0	-1E+10	1	-1E+10	1	-1E+10	1
4902624	14	C	11/08/2024	09:43	-127.925	47.133	0	269.00	0	6.2160	0	33.9890	0	26.729	0	266.590	0	-1e10	1	-1e10	1	-1E+10	1	-1e10	1	-1e10	1	-1E+10	1	-1E+10	1	-1E+10	1
4902624	14	C	11/08/2024	09:43	-127.925	47.133	0	269.70	0	6.2104	0	33.9893	0	26.730	0	267.284	0	59.2	4	19.7	4	-1E+10	1	0.0450	4	0.000360	0	-1E+10	1	-1E+10	1	-1E+10	1
4902624	14	C	11/08/2024	09:43	-127.925	47.133	0	270.70	0	6.2024	0	33.9899	0	26.732	0	268.274	0	59.2	4	19.6	4	-1E+10	1	0.0511	4	0.000360	0	-1E+10	1	-1E+10	1	-1E+10	1
4902624	14	C	11/08/2024	09:43	-127.925	47.133	0	271.00	0	6.2000	0	33.9900	0	26.732	0	268.571	0	-1e10	1	-1e10	1	-1E+10	1	-1e10	1	-1e10	1	-1E+10	1	-1E+10	1	-1E+10	1
4902624	14	C	11/08/2024	09:43	-127.925	47.133	0	271.70	0	6.1940	0	33.9907	0	26.734	0	269.264	0	59.2	4	19.6	4	-1E+10	1	0.0511	4	0.000301	0	-1E+10	1	-1E+10	1	-1E+10	1
4902624	14	C	11/08/2024	09:43	-127.925	47.133	0	272.80	0	6.1847	0	33.9918	0	26.736	0	270.354	0	59.2	4	19.7	4	-1E+10	1	0.0451	4	0.000329	0	-1E+10	1	-1E+10	1	-1E+10	1
4902624	14	C	11/08/2024	09:43	-127.925	47.133	0	273.00	0	6.1830	0	33.9920	0	26.736	0	270.552	0	-1e10	1	-1e10	1	-1E+10	1	-1e10	1	-1e10	1	-1E+10	1	-1E+10	1	-1E+10	1
4902624	14	C	11/08/2024	09:43	-127.925	47.133	0	273.80	0	6.1771	0	33.9916	0	26.737	0	271.344	0	59.3	4	19.7	4	-1E+10	1	0.0535	4	0.000313	0	-1E+10	1	-1E+10	1	-1E+10	1
4902624	14	C	11/08/2024	09:43	-127.925	47.133	0	274.80	0	6.1697	0	33.9911	0	26.737	0	272.335	0	59.3	4	19.7	4	-1E+10	1	0.0584	4	0.000313	0	-1E+10	1	-1E+10	1	-1E+10	1
4902624	14	C	11/08/2024	09:43	-127.925	47.133	0	274.90	0	6.1690	0	33.9910	0	26.737	0	272.434	0	-1e10	1	-1e10	1	-1E+10	1	-1e10	1	-1e10	1	-1E+10	1	-1E+10	1	-1E+10	1
4902624	14	C	11/08/2024	09:43	-127.925	47.133	0	275.80	0	6.1531	0	33.9910	0	26.739	0	273.325	0	59.4	4	19.7	4	-1E+10	1	0.0584	4	0.000325	0	-1E+10	1	-1E+10	1	-1E+10	1
4902624	14	C	11/08/2024	09:43	-127.925	47.133	0	276.80	0	6.1355	0	33.9910	0	26.741	0	274.315	0	59.5	4	19.7	4	-1E+10	1	0.0584	4	0.000344	0	-1E+10	1	-1E+10	1	-1E+10	1
4902624	14	C	11/08/2024	09:43	-127.925	47.133	0	277.00	0	6.1320	0	33.9910	0	26.742	0	274.513	0	-1e10	1	-1e10	1	-1E+10	1	-1e10	1	-1e10	1	-1E+10	1	-1E+10	1	-1E+10	1
4902624	14	C	11/08/2024	09:43	-127.925	47.133	0	277.80	0	6.1168	0	33.9902	0	26.743	0	275.306	0	59.6	4	19.7	4	-1E+10	1	0.0562	4	0.000375	0	-1E+10	1	-1E+10	1	-1E+10	1
4902624	14	C	11/08/2024	09:43	-127.925	47.133	0	278.90	0	6.0960	0	33.9890	0	26.745	0	276.395	0	58.3	4	19.3	4	-1E+10	1	0.0438	4	0.000326	0	-1E+10	1	-1E+10	1	-1E+10	1
4902624	14	C	11/08/2024	09:43	-127.925	47.133	0	279.90	0	6.0860	0	33.9880	0	26.745	0	277.385	0	59.5	4	19.7	4	-1E+10	1	0.0511	4	0.000336	0	-1E+10	1	-1E+10	1	-1E+10	1
4902624	14	C	11/08/2024	09:43	-127.925	47.133	0	280.90	0	6.0760	0	33.9871	0	26.746	0	278.376	0	59.4	4	19.7	4	-1E+10	1	0.0450	4	0.000336	0	-1E+10	1	-1E+10	1	-1E+10	1
4902624	14	C	11/08/2024	09:43	-127.925	47.133	0	281.00	0	6.0750	0	33.9870	0	26.746	0	278.475	0	-1e10	1	-1e10	1	-1E+10	1	-1e10	1	-1e10	1	-1E+10	1	-1E+10	1	-1E+10	1
4902624	14	C	11/08/2024	09:43	-127.925	47.133	0	282.00	0	6.0750	0	33.9870	0	26.746	0	279.465	0	59.3	4	19.6	4	-1E+10	1	0.0539	4	0.000345	0	-1E+10	1	-1E+10	1	-1E+10	1
4902624	14	C	11/08/2024	09:43	-127.925	47.133	0	283.00	0	6.0750	0	33.9870	0	26.746	0	280.455	0	58.0	4	19.2	4	-1E+10	1	0.0584	4	0.000327	0	-1E+10	1	-1E+10	1	-1E+10	1
4902624	14	C	11/08/2024	09:43	-127.925	47.133	0	284.00	0	6.0676	0	33.9875	0	26.747	0	281.446	0	59.2	4	19.6	4	-1E+10	1	0.0511	4	0.000313	0	-1E+10	1	-1E+10	1	-1E+10	1
4902624	14	C	11/08/2024	09:43	-127.925	47.133	0	284.90	0	6.0610	0	33.9880	0	26.749	0	282.337	0	-1e10	1	-1e10	1	-1E+10	1	-1e10	1	-1e10	1	-1E+10	1	-1E+10	1	-1E+10	1
4902624	14	C	11/08/2024	09:43	-127.925	47.133	0	285.10	0	6.0587	0	33.9878	0	26.749	0	282.535	0	59.1	4	19.6	4	-1E+10	1	0.0494	4	0.000295	0	-1E+10	1	-1E+10	1	-1E+10	1
4902624	14	C	11/08/2024	09:43	-127.925	47.133	0	286.10	0	6.0473	0	33.9869	0	26.749	0	283.525	0	59.0	4	19.5	4	-1E+10	1	0.0555	4	0.000287	0	-1E+10	1	-1E+10	1	-1E+10	1
4902624	14	C	11/08/2024	09:43	-127.925	47.133	0	287.00	0	6.0370	0	33.9860	0	26.750	0	284.417	0	-1e10	1	-1e10	1	-1E+10	1	-1e10	1	-1e10	1	-1E+10	1	-1E+10	1	-1E+10	1
4902624	14	C	11/08/2024	09:43	-127.925	47.133	0	287.10	0	6.0362	0	33.9860	0	26.750	0	284.516	0	58.8	4	19.5	4	-1E+10	1	0.0462	4	0.000356	0	-1E+10	1	-1E+10	1	-1E+10	1
4902624	14	C	11/08/2024	09:43	-127.925	47.133	0	288.10	0	6.0281	0	33.9865	0	26.752	0	285.506	0	58.6	4	19.4	4	-1E+10	1	0.0584	4	0.000278	0	-1E+10	1	-1E+10	1	-1E+10	1
4902624	14	C	11/08/2024	09:43	-127.925	47.133	0	289.10	0	6.0200	0	33.9870	0	26.753	0	286.496	0	-1e10	1	-1e10	1	-1E+10	1	-1e10	1	-1e10	1	-1E+10	1	-1E+10	1	-1E+10	1
4902624	14	C	11/08/2024	09:43	-127.925	47.133	0	289.20	0	6.0191	0	33.9871	0	26.753	0	286.595	0	58.5	4	19.3	4	-1E+10	1	0.0522	4	0.000327	0	-1E+10	1	-1E+10	1	-1E+10	1
4902624	14	C	11/08/2024	09:43	-127.925	47.133	0	290.20	0	6.0102	0	33.9876	0	26.755	0	287.586	0	58.3	4	19.3	4	-1E+10	1	0.0569	4	0.000289	0	-1E+10	1	-1E+10	1	-1E+10	1
4902624	14	C	11/08/2024	09:43	-127.925	47.133	0	291.00	0	6.0030	0	33.9880	0	26.756	0	288.378	0	-1e10	1	-1e10	1	-1E+10	1	-1e10	1	-1e10	1	-1E+10	1	-1E+10	1	-1E+10	1
4902624	14	C	11/08/2024	09:43	-127.925	47.133	0	291.20	0	6.0018	0	33.9883	0	26.756	0	288.576	0	58.2	4	19.2	4	-1E+10	1	0.0494	4	0.000278	0	-1E+10	1	-1E+10	1	-1E+10	1
4902624	14	C	11/08/2024	09:43	-127.925	47.133	0	292.30	0	5.9952	0	33.9900	0	26.758	0	289.665	0	58.1	4	19.2	4	-1E+10	1	0.0511	4	0.000366	0	-1E+10	1	-1E+10	1	-1E+10	1
4902624	14	C	11/08/2024	09:43	-127.925	47.133	0	293.00	0	5.9910	0	33.9910	0	26.760	0	290.359	0	-1e10	1	-1e10	1	-1E+10	1	-1e10	1	-1e10	1	-1E+10	1	-1E+10	1	-1E+10	1
4902624	14	C	11/08/2024	09:43	-127.925	47.133	0	293.30	0	5.9865	0	33.9907	0	26.760	0	290.656	0	58.0	4	19.2	4	-1E+10	1	0.0611	4	0.000415	0	-1E+10	1	-1E+10	1	-1E+10	1
4902624	14	C	11/08/2024	09:43	-127.925	47.133	0	294.40	0	5.9700	0	33.9896	0	26.761	0	291.745	0	58.0	4	19.2	4	-1E+10	1	0.0628	4	0.000330	0	-1E+10	1	-1E+10	1	-1E+10	1
4902624	14	C	11/08/2024	09:43	-127.925	47.133	0	295.00	0	5.9610	0	33.9890	0	26.762	0	292.339	0	-1e10	1	-1e10	1	-1E+10	1	-1e10	1	-1e10	1	-1E+10	1	-1E+10	1	-1E+10	1
4902624	14	C	11/08/2024	09:43	-127.925	47.133	0	295.40	0	5.9582	0	33.9890	0	26.762	0	292.735	0	57.9	4	19.1	4	-1E+10	1	0.0584	4	0.000306	0	-1E+10	1	-1E+10	1	-1E+10	1
4902624	14	C	11/08/2024	09:43	-127.925	47.133	0	296.70	0	5.9491	0	33.9890	0	26.763	0	294.023	0	57.9	4	19.1	4	-1E+10	1	0.0587	4	0.000311	0	-1E+10	1	-1E+10	1	-1E+10	1
4902624	14	C	11/08/2024	09:43	-127.925	47.133	0	297.00	0	5.9470	0	33.9890	0	26.764	0	294.320	0	-1e10	1	-1e10	1	-1E+10	1	-1e10	1	-1e10	1	-1E+10	1	-1E+10	1	-1E+10	1
4902624	14	C	11/08/2024	09:43	-127.925	47.133	0	298.90	0	5.9580	0	33.9900	0	26.763	0	296.201	0	-1e10	1	-1e10	1	-1E+10	1	-1e10	1	-1e10	1	-1E+10	1	-1E+10	1	-1E+10	1
4902624	14	C	11/08/2024	09:43	-127.925	47.133	0	305.00	0	5.8560	0	33.9850	0	26.772	0	302.242	0	-1e10	1	-1e10	1	-1E+10	1	-1e10	1	-1e10	1	-1E+10	1	-1E+10	1	-1E+10	1
4902624	14	C	11/08/2024	09:43	-127.925	47.133	0	307.10	0	5.8381	0	33.9854	0	26.774	0	304.321	0	56.8	4	18.7	4	-1E+10	1	0.0643	4	0.000265	0	-1E+10	1	-1E+10	1	-1E+10	1
4902624	14	C	11/08/2024	09:43	-127.925	47.133	0	315.10	0	5.7700	0	33.9870	0	26.784	0	312.243	0	-1e10	1	-1e10	1	-1E+10	1	-1e10	1	-1e10	1	-1E+10	1	-1E+10	1	-1E+10	1
4902624	14	C	11/08/2024	09:43	-127.925	47.133	0	317.40	0	5.7611	0	33.9897	0	26.787	0	314.520	0	53.7	4	17.7	4	-1E+10	1	0.0371	4	0.000241	0	-1E+10	1	-1E+10	1	-1E+10	1
4902624	14	C	11/08/2024	09:43	-127.925	47.133	0	325.20	0	5.7310	0	33.9990	0	26.799	0	322.243	0	-1e10	1	-1e10	1	-1E+10	1	-1e10	1	-1e10	1	-1E+10	1	-1E+10	1	-1E+10	1
4902624	14	C	11/08/2024	09:43	-127.925	47.133	0	327.70	0	5.7232	0	34.0023	0	26.802	0	324.719	0	49.9	4	16.4	4	-1E+10	1	0.0511	4	0.000225	0	-1E+10	1	-1E+10	1	-1E+10	1
4902624	14	C	11/08/2024	09:43	-127.925	47.133	0	335.20	0	5.7000	0	34.0120	0	26.813	0	332.144	0	-1e10	1	-1e10	1	-1E+10	1	-1e10	1	-1e10	1	-1E+10	1	-1E+10	1	-1E+10	1
4902624	14	C	11/08/2024	09:43	-127.925	47.133	0	338.00	0	5.6885	0	34.0143	0	26.816	0	334.916	0	47.7	4	15.7	4	-1E+10	1	0.0514	4	0.000377	0	-1E+10	1	-1E+10	1	-1E+10	1
4902624	14	C	11/08/2024	09:43	-127.925	47.133	0	344.90	0	5.6600	0	34.0200	0	26.824	0	341.748	0	-1e10	1	-1e10	1	-1E+10	1	-1e10	1	-1e10	1	-1E+10	1	-1E+10	1	-1E+10	1
4902624	14	C	11/08/2024	09:43	-127.925	47.133	0	348.00	0	5.6409	0	34.0216	0	26.828	0	344.817	0	45.7	4	15.0	4	-1E+10	1	0.0581	4	0.000245	0	-1E+10	1	-1E+10	1	-1E+10	1
4902624	14	C	11/08/2024	09:43	-127.925	47.133	0	354.80	0	5.5990	0	34.0250	0	26.835	0	351.549	0	-1e10	1	-1e10	1	-1E+10	1	-1e10	1	-1e10	1	-1E+10	1	-1E+10	1	-1E+10	1
4902624	14	C	11/08/2024	09:43	-127.925	47.133	0	358.10	0	5.5926	0	34.0288	0	26.839	0	354.816	0	43.7	4	14.3	4	-1E+10	1	0.0511	4	0.000312	0	-1E+10	1	-1E+10	1	-1E+10	1
4902624	14	C	11/08/2024	09:43	-127.925	47.133	0	365.10	0	5.5790	0	34.0370	0	26.847	0	361.746	0	-1e10	1	-1e10	1	-1E+10	1	-1e10	1	-1e10	1	-1E+10	1	-1E+10	1	-1E+10	1
4902624	14	C	11/08/2024	09:43	-127.925	47.133	0	368.20	0	5.5643	0	34.0395	0	26.851	0	364.814	0	41.9	4	13.7	4	-1E+10	1	0.0511	4	0.000310	0	-1E+10	1	-1E+10	1	-1E+10	1
4902624	14	C	11/08/2024	09:43	-127.925	47.133	0	375.00	0	5.5320	0	34.0450	0	26.860	0	371.546	0	-1e10	1	-1e10	1	-1E+10	1	-1e10	1	-1e10	1	-1E+10	1	-1E+10	1	-1E+10	1
4902624	14	C	11/08/2024	09:43	-127.925	47.133	0	378.50	0	5.5070	0	34.0457	0	26.863	0	375.010	0	40.6	4	13.3	4	-1E+10	1	0.0508	4	0.000256	0	-1E+10	1	-1E+10	1	-1E+10	1
4902624	14	C	11/08/2024	09:43	-127.925	47.133	0	384.80	0	5.4620	0	34.0470	0	26.870	0	381.247	0	-1e10	1	-1e10	1	-1E+10	1	-1e10	1	-1e10	1	-1E+10	1	-1E+10	1	-1E+10	1
4902624	14	C	11/08/2024	09:43	-127.925	47.133	0	388.80	0	5.4496	0	34.0513	0	26.874	0	385.206	0	38.5	4	12.6	4	-1E+10	1	0.0443	4	0.000311	0	-1E+10	1	-1E+10	1	-1E+10	1
4902624	14	C	11/08/2024	09:43	-127.925	47.133	0	395.10	0	5.4300	0	34.0580	0	26.882	0	391.442	0	-1e10	1	-1e10	1	-1E+10	1	-1e10	1	-1e10	1	-1E+10	1	-1E+10	1	-1E+10	1
4902624	14	C	11/08/2024	09:43	-127.925	47.133	0	399.50	0	5.3978	0	34.0612	0	26.889	0	395.797	0	36.4	4	11.9	4	-1E+10	1	0.0581	4	0.000287	0	-1E+10	1	-1E+10	1	-1E+10	1
4902624	14	C	11/08/2024	09:43	-127.925	47.133	0	404.80	0	5.3590	0	34.0650	0	26.896	0	401.042	0	-1e10	1	-1e10	1	-1E+10	1	-1e10	1	-1e10	1	-1E+10	1	-1E+10	1	-1E+10	1
4902624	14	C	11/08/2024	09:43	-127.925	47.133	0	410.60	0	5.3027	0	34.0656	0	26.903	0	406.783	0	35.3	4	11.5	4	-1E+10	1	0.0514	4	0.000241	0	-1E+10	1	-1E+10	1	-1E+10	1
4902624	14	C	11/08/2024	09:43	-127.925	47.133	0	415.10	0	5.2590	0	34.0660	0	26.909	0	411.237	0	-1e10	1	-1e10	1	-1E+10	1	-1e10	1	-1e10	1	-1E+10	1	-1E+10	1	-1E+10	1
4902624	14	C	11/08/2024	09:43	-127.925	47.133	0	422.00	0	5.1942	0	34.0646	0	26.915	0	418.066	0	34.4	4	11.2	4	-1E+10	1	0.0581	4	0.000245	0	-1E+10	1	-1E+10	1	-1E+10	1
4902624	14	C	11/08/2024	09:43	-127.925	47.133	0	425.00	0	5.1660	0	34.0640	0	26.918	0	421.035	0	-1e10	1	-1e10	1	-1E+10	1	-1e10	1	-1e10	1	-1E+10	1	-1E+10	1	-1E+10	1
4902624	14	C	11/08/2024	09:43	-127.925	47.133	0	433.60	0	5.1351	0	34.0715	0	26.928	0	429.545	0	32.2	4	10.4	4	-1E+10	1	0.0511	4	0.000331	0	-1E+10	1	-1E+10	1	-1E+10	1
4902624	14	C	11/08/2024	09:43	-127.925	47.133	0	435.30	0	5.1290	0	34.0730	0	26.930	0	431.228	0	-1e10	1	-1e10	1	-1E+10	1	-1e10	1	-1e10	1	-1E+10	1	-1E+10	1	-1E+10	1
4902624	14	C	11/08/2024	09:43	-127.925	47.133	0	442.80	0	5.0973	0	34.0784	0	26.938	0	438.650	0	30.6	4	9.9	4	-1E+10	1	0.0513	4	0.000263	0	-1E+10	1	-1E+10	1	-1E+10	1
4902624	14	C	11/08/2024	09:43	-127.925	47.133	0	445.00	0	5.0880	0	34.0800	0	26.940	0	440.827	0	-1e10	1	-1e10	1	-1E+10	1	-1e10	1	-1e10	1	-1E+10	1	-1E+10	1	-1E+10	1
4902624	14	C	11/08/2024	09:43	-127.925	47.133	0	450.30	0	5.0744	0	34.0858	0	26.946	0	446.071	0	28.8	4	9.3	4	-1E+10	1	0.0584	4	0.000212	0	-1E+10	1	-1E+10	1	-1E+10	1
4902624	14	C	11/08/2024	09:43	-127.925	47.133	0	455.10	0	5.0620	0	34.0910	0	26.952	0	450.821	0	-1e10	1	-1e10	1	-1E+10	1	-1e10	1	-1e10	1	-1E+10	1	-1E+10	1	-1E+10	1
4902624	14	C	11/08/2024	09:43	-127.925	47.133	0	458.20	0	5.0510	0	34.0932	0	26.955	0	453.888	0	27.5	4	8.9	4	-1E+10	1	0.0584	4	0.000354	0	-1E+10	1	-1E+10	1	-1E+10	1
4902624	14	C	11/08/2024	09:43	-127.925	47.133	0	465.00	0	5.0270	0	34.0980	0	26.961	0	460.617	0	-1e10	1	-1e10	1	-1E+10	1	-1e10	1	-1e10	1	-1E+10	1	-1E+10	1	-1E+10	1
4902624	14	C	11/08/2024	09:43	-127.925	47.133	0	466.50	0	5.0217	0	34.0988	0	26.963	0	462.101	0	26.6	4	8.6	4	-1E+10	1	0.0584	4	0.000230	0	-1E+10	1	-1E+10	1	-1E+10	1
4902624	14	C	11/08/2024	09:43	-127.925	47.133	0	474.90	0	4.9920	0	34.1030	0	26.969	0	470.412	0	-1e10	1	-1e10	1	-1E+10	1	-1e10	1	-1e10	1	-1E+10	1	-1E+10	1	-1E+10	1
4902624	14	C	11/08/2024	09:43	-127.925	47.133	0	475.20	0	4.9916	0	34.1032	0	26.970	0	470.709	0	25.5	4	8.2	4	-1E+10	1	0.0584	4	0.000264	0	-1E+10	1	-1E+10	1	-1E+10	1
4902624	14	C	11/08/2024	09:43	-127.925	47.133	0	484.20	0	4.9790	0	34.1086	0	26.975	0	479.614	0	24.6	4	8.0	4	-1E+10	1	0.0584	4	0.000217	0	-1E+10	1	-1E+10	1	-1E+10	1
4902624	14	C	11/08/2024	09:43	-127.925	47.133	0	484.90	0	4.9780	0	34.1090	0	26.976	0	480.306	0	-1e10	1	-1e10	1	-1E+10	1	-1e10	1	-1e10	1	-1E+10	1	-1E+10	1	-1E+10	1
4902624	14	C	11/08/2024	09:43	-127.925	47.133	0	493.40	0	4.9471	0	34.1142	0	26.984	0	488.716	0	23.5	4	7.6	4	-1E+10	1	0.0584	4	0.000207	0	-1E+10	1	-1E+10	1	-1E+10	1
4902624	14	C	11/08/2024	09:43	-127.925	47.133	0	494.80	0	4.9420	0	34.1150	0	26.985	0	490.101	0	-1e10	1	-1e10	1	-1E+10	1	-1e10	1	-1e10	1	-1E+10	1	-1E+10	1	-1E+10	1
4902624	14	C	11/08/2024	09:43	-127.925	47.133	0	502.90	0	4.9187	0	34.1262	0	26.996	0	498.114	0	21.7	4	7.0	4	-1E+10	1	0.0584	4	0.000241	0	-1E+10	1	-1E+10	1	-1E+10	1
4902624	14	C	11/08/2024	09:43	-127.925	47.133	0	504.90	0	4.9130	0	34.1290	0	26.999	0	500.093	0	-1e10	1	-1e10	1	-1E+10	1	-1e10	1	-1e10	1	-1E+10	1	-1E+10	1	-1E+10	1
4902624	14	C	11/08/2024	09:43	-127.925	47.133	0	512.50	0	4.8776	0	34.1365	0	27.009	0	507.611	0	20.3	4	6.6	4	-1E+10	1	0.0584	4	0.000239	0	-1E+10	1	-1E+10	1	-1E+10	1
4902624	14	C	11/08/2024	09:43	-127.925	47.133	0	515.00	0	4.8660	0	34.1390	0	27.013	0	510.084	0	-1e10	1	-1e10	1	-1E+10	1	-1e10	1	-1e10	1	-1E+10	1	-1E+10	1	-1E+10	1
4902624	14	C	11/08/2024	09:43	-127.925	47.133	0	522.30	0	4.8387	0	34.1427	0	27.019	0	517.306	0	19.2	4	6.2	4	-1E+10	1	0.0584	4	0.000216	0	-1E+10	1	-1E+10	1	-1E+10	1
4902624	14	C	11/08/2024	09:43	-127.925	47.133	0	524.90	0	4.8290	0	34.1440	0	27.021	0	519.877	0	-1e10	1	-1e10	1	-1E+10	1	-1e10	1	-1e10	1	-1E+10	1	-1E+10	1	-1E+10	1
4902624	14	C	11/08/2024	09:43	-127.925	47.133	0	532.20	0	4.7997	0	34.1490	0	27.028	0	527.098	0	18.2	4	5.8	4	-1E+10	1	0.0588	4	0.000205	0	-1E+10	1	-1E+10	1	-1E+10	1
4902624	14	C	11/08/2024	09:43	-127.925	47.133	0	535.10	0	4.7880	0	34.1510	0	27.031	0	529.967	0	-1e10	1	-1e10	1	-1E+10	1	-1e10	1	-1e10	1	-1E+10	1	-1E+10	1	-1E+10	1
4902624	14	C	11/08/2024	09:43	-127.925	47.133	0	542.30	0	4.7506	0	34.1582	0	27.041	0	537.088	0	16.9	4	5.4	4	-1E+10	1	0.0724	4	0.000195	0	-1E+10	1	-1E+10	1	-1E+10	1
4902624	14	C	11/08/2024	09:43	-127.925	47.133	0	545.10	0	4.7360	0	34.1610	0	27.045	0	539.858	0	-1e10	1	-1e10	1	-1E+10	1	-1e10	1	-1e10	1	-1E+10	1	-1E+10	1	-1E+10	1
4902624	14	C	11/08/2024	09:43	-127.925	47.133	0	552.30	0	4.7094	0	34.1696	0	27.055	0	546.979	0	16.2	4	5.2	4	-1E+10	1	0.0584	4	0.000229	0	-1E+10	1	-1E+10	1	-1E+10	1
4902624	14	C	11/08/2024	09:43	-127.925	47.133	0	555.10	0	4.6990	0	34.1730	0	27.058	0	549.749	0	-1e10	1	-1e10	1	-1E+10	1	-1e10	1	-1e10	1	-1E+10	1	-1E+10	1	-1E+10	1
4902624	14	C	11/08/2024	09:43	-127.925	47.133	0	562.40	0	4.6754	0	34.1767	0	27.064	0	556.968	0	15.5	4	5.0	4	-1E+10	1	0.0578	4	0.000252	0	-1E+10	1	-1E+10	1	-1E+10	1
4902624	14	C	11/08/2024	09:43	-127.925	47.133	0	565.00	0	4.6670	0	34.1780	0	27.066	0	559.540	0	-1e10	1	-1e10	1	-1E+10	1	-1e10	1	-1e10	1	-1E+10	1	-1E+10	1	-1E+10	1
4902624	14	C	11/08/2024	09:43	-127.925	47.133	0	572.60	0	4.6417	0	34.1826	0	27.072	0	567.056	0	14.7	4	4.7	4	-1E+10	1	0.0438	4	0.000248	0	-1E+10	1	-1E+10	1	-1E+10	1
4902624	14	C	11/08/2024	09:43	-127.925	47.133	0	574.90	0	4.6340	0	34.1840	0	27.074	0	569.331	0	-1e10	1	-1e10	1	-1E+10	1	-1e10	1	-1e10	1	-1E+10	1	-1E+10	1	-1E+10	1
4902624	14	C	11/08/2024	09:43	-127.925	47.133	0	582.80	0	4.5995	0	34.1886	0	27.082	0	577.143	0	14.0	4	4.5	4	-1E+10	1	0.0438	4	0.000180	0	-1E+10	1	-1E+10	1	-1E+10	1
4902624	14	C	11/08/2024	09:43	-127.925	47.133	0	585.20	0	4.5890	0	34.1900	0	27.084	0	579.516	0	-1e10	1	-1e10	1	-1E+10	1	-1e10	1	-1e10	1	-1E+10	1	-1E+10	1	-1E+10	1
4902624	14	C	11/08/2024	09:43	-127.925	47.133	0	593.10	0	4.5519	0	34.1940	0	27.091	0	587.329	0	13.2	4	4.2	4	-1E+10	1	0.0444	4	0.000171	0	-1E+10	1	-1E+10	1	-1E+10	1
4902624	14	C	11/08/2024	09:43	-127.925	47.133	0	595.20	0	4.5420	0	34.1950	0	27.093	0	589.405	0	-1e10	1	-1e10	1	-1E+10	1	-1e10	1	-1e10	1	-1E+10	1	-1E+10	1	-1E+10	1
4902624	14	C	11/08/2024	09:43	-127.925	47.133	0	603.70	0	4.5142	0	34.2051	0	27.104	0	597.810	0	12.5	4	4.0	4	-1E+10	1	0.0577	4	0.000227	0	-1E+10	1	-1E+10	1	-1E+10	1
4902624	14	C	11/08/2024	09:43	-127.925	47.133	0	605.30	0	4.5090	0	34.2070	0	27.107	0	599.392	0	-1e10	1	-1e10	1	-1E+10	1	-1e10	1	-1e10	1	-1E+10	1	-1E+10	1	-1E+10	1
4902624	14	C	11/08/2024	09:43	-127.925	47.133	0	614.30	0	4.4908	0	34.2115	0	27.112	0	608.291	0	12.0	4	3.8	4	-1E+10	1	0.0446	4	0.000203	0	-1E+10	1	-1E+10	1	-1E+10	1
4902624	14	C	11/08/2024	09:43	-127.925	47.133	0	615.20	0	4.4890	0	34.2120	0	27.113	0	609.181	0	-1e10	1	-1e10	1	-1E+10	1	-1e10	1	-1e10	1	-1E+10	1	-1E+10	1	-1E+10	1
4902624	14	C	11/08/2024	09:43	-127.925	47.133	0	625.10	0	4.4660	0	34.2190	0	27.121	0	618.970	0	-1e10	1	-1e10	1	-1E+10	1	-1e10	1	-1e10	1	-1E+10	1	-1E+10	1	-1E+10	1
4902624	14	C	11/08/2024	09:43	-127.925	47.133	0	625.50	0	4.4649	0	34.2193	0	27.121	0	619.365	0	11.4	4	3.7	4	-1E+10	1	0.0654	4	0.000182	0	-1E+10	1	-1E+10	1	-1E+10	1
4902624	14	C	11/08/2024	09:43	-127.925	47.133	0	635.10	0	4.4390	0	34.2270	0	27.130	0	628.856	0	-1e10	1	-1e10	1	-1E+10	1	-1e10	1	-1e10	1	-1E+10	1	-1E+10	1	-1E+10	1
4902624	14	C	11/08/2024	09:43	-127.925	47.133	0	637.10	0	4.4333	0	34.2288	0	27.132	0	630.834	0	10.8	4	3.4	4	-1E+10	1	0.0587	4	0.000183	0	-1E+10	1	-1E+10	1	-1E+10	1
4902624	14	C	11/08/2024	09:43	-127.925	47.133	0	644.90	0	4.4110	0	34.2360	0	27.140	0	638.545	0	-1e10	1	-1e10	1	-1E+10	1	-1e10	1	-1e10	1	-1E+10	1	-1E+10	1	-1E+10	1
4902624	14	C	11/08/2024	09:43	-127.925	47.133	0	648.80	0	4.3997	0	34.2394	0	27.144	0	642.401	0	10.2	4	3.2	4	-1E+10	1	0.0650	4	0.000255	0	-1E+10	1	-1E+10	1	-1E+10	1
4902624	14	C	11/08/2024	09:43	-127.925	47.133	0	655.30	0	4.3810	0	34.2450	0	27.151	0	648.826	0	-1e10	1	-1e10	1	-1E+10	1	-1e10	1	-1e10	1	-1E+10	1	-1E+10	1	-1E+10	1
4902624	14	C	11/08/2024	09:43	-127.925	47.133	0	656.80	0	4.3771	0	34.2459	0	27.152	0	650.309	0	9.8	4	3.1	4	-1E+10	1	0.0514	4	0.000352	0	-1E+10	1	-1E+10	1	-1E+10	1
4902624	14	C	11/08/2024	09:43	-127.925	47.133	0	664.80	0	4.3561	0	34.2508	0	27.158	0	658.218	0	9.7	4	3.1	4	-1E+10	1	0.0587	4	0.000532	0	-1E+10	1	-1E+10	1	-1E+10	1
4902624	14	C	11/08/2024	09:43	-127.925	47.133	0	665.20	0	4.3550	0	34.2510	0	27.159	0	658.613	0	-1e10	1	-1e10	1	-1E+10	1	-1e10	1	-1e10	1	-1E+10	1	-1E+10	1	-1E+10	1
4902624	14	C	11/08/2024	09:43	-127.925	47.133	0	673.10	0	4.3397	0	34.2542	0	27.163	0	666.422	0	9.5	4	3.0	4	-1E+10	1	0.0657	4	0.000227	0	-1E+10	1	-1E+10	1	-1E+10	1
4902624	14	C	11/08/2024	09:43	-127.925	47.133	0	675.00	0	4.3360	0	34.2550	0	27.164	0	668.300	0	-1e10	1	-1e10	1	-1E+10	1	-1e10	1	-1e10	1	-1E+10	1	-1E+10	1	-1E+10	1
4902624	14	C	11/08/2024	09:43	-127.925	47.133	0	681.60	0	4.3228	0	34.2596	0	27.169	0	674.824	0	9.3	4	3.0	4	-1E+10	1	0.0654	4	0.000217	0	-1E+10	1	-1E+10	1	-1E+10	1
4902624	14	C	11/08/2024	09:43	-127.925	47.133	0	685.00	0	4.3160	0	34.2620	0	27.172	0	678.185	0	-1e10	1	-1e10	1	-1E+10	1	-1e10	1	-1e10	1	-1E+10	1	-1E+10	1	-1E+10	1
4902624	14	C	11/08/2024	09:43	-127.925	47.133	0	690.30	0	4.3060	0	34.2651	0	27.175	0	683.423	0	9.0	4	2.9	4	-1E+10	1	0.0581	4	0.000247	0	-1E+10	1	-1E+10	1	-1E+10	1
4902624	14	C	11/08/2024	09:43	-127.925	47.133	0	695.10	0	4.2970	0	34.2680	0	27.178	0	688.168	0	-1e10	1	-1e10	1	-1E+10	1	-1e10	1	-1e10	1	-1E+10	1	-1E+10	1	-1E+10	1
4902624	14	C	11/08/2024	09:43	-127.925	47.133	0	699.10	0	4.2822	0	34.2696	0	27.181	0	692.121	0	8.9	4	2.8	4	-1E+10	1	0.0516	4	0.000180	0	-1E+10	1	-1E+10	1	-1E+10	1
4902624	14	C	11/08/2024	09:43	-127.925	47.133	0	705.10	0	4.2600	0	34.2720	0	27.186	0	698.051	0	-1e10	1	-1e10	1	-1E+10	1	-1e10	1	-1e10	1	-1E+10	1	-1E+10	1	-1E+10	1
4902624	14	C	11/08/2024	09:43	-127.925	47.133	0	708.30	0	4.2513	0	34.2730	0	27.187	0	701.214	0	8.8	4	2.8	4	-1E+10	1	0.0654	4	0.000191	0	-1E+10	1	-1E+10	1	-1E+10	1
4902624	14	C	11/08/2024	09:43	-127.925	47.133	0	715.00	0	4.2330	0	34.2750	0	27.191	0	707.835	0	-1e10	1	-1e10	1	-1E+10	1	-1e10	1	-1e10	1	-1E+10	1	-1E+10	1	-1E+10	1
4902624	14	C	11/08/2024	09:43	-127.925	47.133	0	717.50	0	4.2163	0	34.2745	0	27.192	0	710.306	0	8.9	4	2.8	4	-1E+10	1	0.0586	4	0.000180	0	-1E+10	1	-1E+10	1	-1E+10	1
4902624	14	C	11/08/2024	09:43	-127.925	47.133	0	724.90	0	4.1670	0	34.2730	0	27.196	0	717.619	0	-1e10	1	-1e10	1	-1E+10	1	-1e10	1	-1e10	1	-1E+10	1	-1E+10	1	-1E+10	1
4902624	14	C	11/08/2024	09:43	-127.925	47.133	0	726.70	0	4.1513	0	34.2719	0	27.197	0	719.398	0	9.0	4	2.9	4	-1E+10	1	0.0651	4	0.000180	0	-1E+10	1	-1E+10	1	-1E+10	1
4902624	14	C	11/08/2024	09:43	-127.925	47.133	0	735.00	0	4.0790	0	34.2670	0	27.201	0	727.600	0	-1e10	1	-1e10	1	-1E+10	1	-1e10	1	-1e10	1	-1E+10	1	-1E+10	1	-1E+10	1
4902624	14	C	11/08/2024	09:43	-127.925	47.133	0	736.00	0	4.0768	0	34.2672	0	27.201	0	728.588	0	9.0	4	2.9	4	-1E+10	1	0.0508	4	0.000178	0	-1E+10	1	-1E+10	1	-1E+10	1
4902624	14	C	11/08/2024	09:43	-127.925	47.133	0	745.10	0	4.0570	0	34.2690	0	27.205	0	737.581	0	-1e10	1	-1e10	1	-1E+10	1	-1e10	1	-1e10	1	-1E+10	1	-1E+10	1	-1E+10	1
4902624	14	C	11/08/2024	09:43	-127.925	47.133	0	745.40	0	4.0564	0	34.2692	0	27.205	0	737.877	0	8.8	4	2.8	4	-1E+10	1	0.0444	4	0.000149	0	-1E+10	1	-1E+10	1	-1E+10	1
4902624	14	C	11/08/2024	09:43	-127.925	47.133	0	754.90	0	4.0374	0	34.2749	0	27.211	0	747.264	0	8.6	4	2.7	4	-1E+10	1	0.0584	4	0.000257	0	-1E+10	1	-1E+10	1	-1E+10	1
4902624	14	C	11/08/2024	09:43	-127.925	47.133	0	755.10	0	4.0370	0	34.2750	0	27.211	0	747.462	0	-1e10	1	-1e10	1	-1E+10	1	-1e10	1	-1e10	1	-1E+10	1	-1E+10	1	-1E+10	1
4902624	14	C	11/08/2024	09:43	-127.925	47.133	0	764.30	0	4.0110	0	34.2796	0	27.218	0	756.552	0	8.7	4	2.7	4	-1E+10	1	0.0587	4	0.000155	0	-1E+10	1	-1E+10	1	-1E+10	1
4902624	14	C	11/08/2024	09:43	-127.925	47.133	0	765.00	0	4.0090	0	34.2800	0	27.218	0	757.244	0	-1e10	1	-1e10	1	-1E+10	1	-1e10	1	-1e10	1	-1E+10	1	-1E+10	1	-1E+10	1
4902624	14	C	11/08/2024	09:43	-127.925	47.133	0	773.80	0	3.9676	0	34.2844	0	27.226	0	765.938	0	8.6	4	2.7	4	-1E+10	1	0.0648	4	0.000144	0	-1E+10	1	-1E+10	1	-1E+10	1
4902624	14	C	11/08/2024	09:43	-127.925	47.133	0	775.00	0	3.9620	0	34.2850	0	27.227	0	767.124	0	-1e10	1	-1e10	1	-1E+10	1	-1e10	1	-1e10	1	-1E+10	1	-1E+10	1	-1E+10	1
4902624	14	C	11/08/2024	09:43	-127.925	47.133	0	783.40	0	3.9483	0	34.2910	0	27.233	0	775.423	0	8.5	4	2.7	4	-1E+10	1	0.0450	4	0.000144	0	-1E+10	1	-1E+10	1	-1E+10	1
4902624	14	C	11/08/2024	09:43	-127.925	47.133	0	784.80	0	3.9460	0	34.2920	0	27.234	0	776.806	0	-1e10	1	-1e10	1	-1E+10	1	-1e10	1	-1e10	1	-1E+10	1	-1E+10	1	-1E+10	1
4902624	14	C	11/08/2024	09:43	-127.925	47.133	0	793.20	0	3.9107	0	34.2945	0	27.240	0	785.105	0	8.5	4	2.7	4	-1E+10	1	0.0724	4	0.000144	0	-1E+10	1	-1E+10	1	-1E+10	1
4902624	14	C	11/08/2024	09:43	-127.925	47.133	0	794.80	0	3.9040	0	34.2950	0	27.241	0	786.685	0	-1e10	1	-1e10	1	-1E+10	1	-1e10	1	-1e10	1	-1E+10	1	-1E+10	1	-1E+10	1
4902624	14	C	11/08/2024	09:43	-127.925	47.133	0	803.10	0	3.8958	0	34.2999	0	27.246	0	794.885	0	8.2	4	2.6	4	-1E+10	1	0.0584	4	0.000143	0	-1E+10	1	-1E+10	1	-1E+10	1
4902624	14	C	11/08/2024	09:43	-127.925	47.133	0	804.90	0	3.8940	0	34.3010	0	27.247	0	796.663	0	-1e10	1	-1e10	1	-1E+10	1	-1e10	1	-1e10	1	-1E+10	1	-1E+10	1	-1E+10	1
4902624	14	C	11/08/2024	09:43	-127.925	47.133	0	813.20	0	3.8791	0	34.3068	0	27.253	0	804.862	0	8.1	4	2.6	4	-1E+10	1	0.0587	4	0.000122	0	-1E+10	1	-1E+10	1	-1E+10	1
4902624	14	C	11/08/2024	09:43	-127.925	47.133	0	814.90	0	3.8760	0	34.3080	0	27.254	0	806.541	0	-1e10	1	-1e10	1	-1E+10	1	-1e10	1	-1e10	1	-1E+10	1	-1E+10	1	-1E+10	1
4902624	14	C	11/08/2024	09:43	-127.925	47.133	0	823.60	0	3.8569	0	34.3115	0	27.259	0	815.135	0	8.1	4	2.6	4	-1E+10	1	0.0649	4	0.000154	0	-1E+10	1	-1E+10	1	-1E+10	1
4902624	14	C	11/08/2024	09:43	-127.925	47.133	0	824.90	0	3.8540	0	34.3120	0	27.260	0	816.419	0	-1e10	1	-1e10	1	-1E+10	1	-1e10	1	-1e10	1	-1E+10	1	-1E+10	1	-1E+10	1
4902624	14	C	11/08/2024	09:43	-127.925	47.133	0	834.30	0	3.8284	0	34.3148	0	27.265	0	825.704	0	8.3	4	2.6	4	-1E+10	1	0.0443	4	0.000122	0	-1E+10	1	-1E+10	1	-1E+10	1
4902624	14	C	11/08/2024	09:43	-127.925	47.133	0	834.80	0	3.8270	0	34.3150	0	27.265	0	826.198	0	-1e10	1	-1e10	1	-1E+10	1	-1e10	1	-1e10	1	-1E+10	1	-1E+10	1	-1E+10	1
4902624	14	C	11/08/2024	09:43	-127.925	47.133	0	845.00	0	3.8030	0	34.3170	0	27.269	0	836.272	0	-1e10	1	-1e10	1	-1E+10	1	-1e10	1	-1e10	1	-1E+10	1	-1E+10	1	-1E+10	1
4902624	14	C	11/08/2024	09:43	-127.925	47.133	0	845.30	0	3.8023	0	34.3172	0	27.269	0	836.569	0	8.1	4	2.5	4	-1E+10	1	0.0574	4	0.000166	0	-1E+10	1	-1E+10	1	-1E+10	1
4902624	14	C	11/08/2024	09:43	-127.925	47.133	0	855.20	0	3.7790	0	34.3230	0	27.276	0	846.346	0	-1e10	1	-1e10	1	-1E+10	1	-1e10	1	-1e10	1	-1E+10	1	-1E+10	1	-1E+10	1
4902624	14	C	11/08/2024	09:43	-127.925	47.133	0	856.50	0	3.7842	0	34.3252	0	27.278	0	847.630	0	14.2	4	4.5	4	-1E+10	1	0.0373	4	0.000143	0	-1E+10	1	-1E+10	1	-1E+10	1
4902624	14	C	11/08/2024	09:43	-127.925	47.133	0	865.20	0	3.8190	0	34.3400	0	27.286	0	856.222	0	-1e10	1	-1e10	1	-1E+10	1	-1e10	1	-1e10	1	-1E+10	1	-1E+10	1	-1E+10	1
4902624	14	C	11/08/2024	09:43	-127.925	47.133	0	868.00	0	3.8112	0	34.3414	0	27.288	0	858.988	0	13.2	4	4.1	4	-1E+10	1	0.0584	4	0.000132	0	-1E+10	1	-1E+10	1	-1E+10	1
4902624	14	C	11/08/2024	09:43	-127.925	47.133	0	875.20	0	3.7910	0	34.3450	0	27.293	0	866.098	0	-1e10	1	-1e10	1	-1E+10	1	-1e10	1	-1e10	1	-1E+10	1	-1E+10	1	-1E+10	1
4902624	14	C	11/08/2024	09:43	-127.925	47.133	0	879.70	0	3.7699	0	34.3459	0	27.296	0	870.542	0	43.6	4	13.7	4	-1E+10	1	0.0586	4	0.000166	0	-1E+10	1	-1E+10	1	-1E+10	1
4902624	14	C	11/08/2024	09:43	-127.925	47.133	0	885.00	0	3.7450	0	34.3470	0	27.299	0	875.776	0	-1e10	1	-1e10	1	-1E+10	1	-1e10	1	-1e10	1	-1E+10	1	-1E+10	1	-1E+10	1
4902624	14	C	11/08/2024	09:43	-127.925	47.133	0	891.70	0	3.7085	0	34.3483	0	27.304	0	882.392	0	64.9	4	20.4	4	-1E+10	1	0.0651	4	0.000155	0	-1E+10	1	-1E+10	1	-1E+10	1
4902624	14	C	11/08/2024	09:43	-127.925	47.133	0	895.10	0	3.6900	0	34.3490	0	27.306	0	885.749	0	-1e10	1	-1e10	1	-1E+10	1	-1e10	1	-1e10	1	-1E+10	1	-1E+10	1	-1E+10	1
4902624	14	C	11/08/2024	09:43	-127.925	47.133	0	903.90	0	3.6837	0	34.3562	0	27.313	0	894.438	0	59.5	4	18.7	4	-1E+10	1	0.0522	4	0.000164	0	-1E+10	1	-1E+10	1	-1E+10	1
4902624	14	C	11/08/2024	09:43	-127.925	47.133	0	904.90	0	3.6830	0	34.3570	0	27.313	0	895.426	0	-1e10	1	-1e10	1	-1E+10	1	-1e10	1	-1e10	1	-1E+10	1	-1E+10	1	-1E+10	1
4902624	14	C	11/08/2024	09:43	-127.925	47.133	0	913.70	0	3.6621	0	34.3605	0	27.318	0	904.114	0	57.3	4	18.0	4	-1E+10	1	0.0719	4	0.000130	0	-1E+10	1	-1E+10	1	-1E+10	1
4902624	14	C	11/08/2024	09:43	-127.925	47.133	0	915.00	0	3.6590	0	34.3610	0	27.319	0	905.398	0	-1e10	1	-1e10	1	-1E+10	1	-1e10	1	-1e10	1	-1E+10	1	-1E+10	1	-1E+10	1
4902624	14	C	11/08/2024	09:43	-127.925	47.133	0	921.60	0	3.6318	0	34.3610	0	27.322	0	911.914	0	57.6	4	18.1	4	-1E+10	1	0.0508	4	0.000120	0	-1E+10	1	-1E+10	1	-1E+10	1
4902624	14	C	11/08/2024	09:43	-127.925	47.133	0	925.20	0	3.6170	0	34.3610	0	27.323	0	915.469	0	-1e10	1	-1e10	1	-1E+10	1	-1e10	1	-1e10	1	-1E+10	1	-1E+10	1	-1E+10	1
4902624	14	C	11/08/2024	09:43	-127.925	47.133	0	929.70	0	3.5993	0	34.3624	0	27.326	0	919.911	0	43.7	4	13.7	4	-1E+10	1	0.0443	4	0.000143	0	-1E+10	1	-1E+10	1	-1E+10	1
4902624	14	C	11/08/2024	09:43	-127.925	47.133	0	935.10	0	3.5780	0	34.3640	0	27.329	0	925.243	0	-1e10	1	-1e10	1	-1E+10	1	-1e10	1	-1e10	1	-1E+10	1	-1E+10	1	-1E+10	1
4902624	14	C	11/08/2024	09:43	-127.925	47.133	0	938.00	0	3.5786	0	34.3660	0	27.331	0	928.106	0	43.2	4	13.5	4	-1E+10	1	0.0581	4	0.000152	0	-1E+10	1	-1E+10	1	-1E+10	1
4902624	14	C	11/08/2024	09:43	-127.925	47.133	0	945.10	0	3.5800	0	34.3710	0	27.335	0	935.115	0	-1e10	1	-1e10	1	-1E+10	1	-1e10	1	-1e10	1	-1E+10	1	-1E+10	1	-1E+10	1
4902624	14	C	11/08/2024	09:43	-127.925	47.133	0	946.40	0	3.5796	0	34.3719	0	27.336	0	936.398	0	46.2	4	14.4	4	-1E+10	1	0.0511	4	0.000120	0	-1E+10	1	-1E+10	1	-1E+10	1
4902624	14	C	11/08/2024	09:43	-127.925	47.133	0	955.00	0	3.5770	0	34.3779	0	27.341	0	944.888	0	60.9	4	19.1	4	-1E+10	1	0.0508	4	0.000157	0	-1E+10	1	-1E+10	1	-1E+10	1
4902624	14	C	11/08/2024	09:43	-127.925	47.133	0	955.10	0	3.5770	0	34.3780	0	27.341	0	944.987	0	-1e10	1	-1e10	1	-1E+10	1	-1e10	1	-1e10	1	-1E+10	1	-1E+10	1	-1E+10	1
4902624	14	C	11/08/2024	09:43	-127.925	47.133	0	963.60	0	3.5753	0	34.3849	0	27.346	0	953.377	0	64.5	4	20.2	4	-1E+10	1	0.0441	4	0.000232	0	-1E+10	1	-1E+10	1	-1E+10	1
4902624	14	C	11/08/2024	09:43	-127.925	47.133	0	965.00	0	3.5750	0	34.3860	0	27.347	0	954.759	0	-1e10	1	-1e10	1	-1E+10	1	-1e10	1	-1e10	1	-1E+10	1	-1E+10	1	-1E+10	1
4902624	14	C	11/08/2024	09:43	-127.925	47.133	0	972.40	0	3.5528	0	34.3882	0	27.351	0	962.064	0	51.6	4	16.1	4	-1E+10	1	0.0508	4	0.000141	0	-1E+10	1	-1E+10	1	-1E+10	1
4902624	14	C	11/08/2024	09:43	-127.925	47.133	0	975.00	0	3.5450	0	34.3890	0	27.353	0	964.630	0	-1e10	1	-1e10	1	-1E+10	1	-1e10	1	-1e10	1	-1E+10	1	-1E+10	1	-1E+10	1
4902624	14	C	11/08/2024	09:43	-127.925	47.133	0	981.20	0	3.5290	0	34.3902	0	27.355	0	970.750	0	53.9	4	16.9	4	-1E+10	1	0.0444	4	0.000131	0	-1E+10	1	-1E+10	1	-1E+10	1
4902624	14	C	11/08/2024	09:43	-127.925	47.133	0	985.10	0	3.5190	0	34.3910	0	27.357	0	974.599	0	-1e10	1	-1e10	1	-1E+10	1	-1e10	1	-1e10	1	-1E+10	1	-1E+10	1	-1E+10	1
4902624	14	C	11/08/2024	09:43	-127.925	47.133	0	990.10	0	3.5037	0	34.3925	0	27.360	0	979.534	0	58.4	4	18.2	4	-1E+10	1	0.0586	4	0.000153	0	-1E+10	1	-1E+10	1	-1E+10	1
4902624	14	C	11/08/2024	09:43	-127.925	47.133	0	995.20	0	3.4880	0	34.3940	0	27.362	0	984.568	0	-1e10	1	-1e10	1	-1E+10	1	-1e10	1	-1e10	1	-1E+10	1	-1E+10	1	-1E+10	1
4902624	14	C	11/08/2024	09:43	-127.925	47.133	0	999.30	0	3.4776	0	34.3953	0	27.364	0	988.614	0	60.6	4	18.9	4	-1E+10	1	0.0655	4	0.000141	0	-1E+10	1	-1E+10	1	-1E+10	1
4902624	14	C	11/08/2024	09:43	-127.925	47.133	0	1018.20	0	3.4295	0	34.4010	0	27.374	0	1007.267	0	60.7	4	18.9	4	-1E+10	1	0.0583	4	0.000142	0	-1E+10	1	-1E+10	1	-1E+10	1
4902624	14	C	11/08/2024	09:43	-127.925	47.133	0	1024.70	0	3.4130	0	34.4030	0	27.377	0	1013.681	0	-1e10	1	-1e10	1	-1E+10	1	-1e10	1	-1e10	1	-1E+10	1	-1E+10	1	-1E+10	1
4902624	14	C	11/08/2024	09:43	-127.925	47.133	0	1038.50	0	3.3841	0	34.4074	0	27.383	0	1027.299	0	59.4	4	18.5	4	-1E+10	1	0.0511	4	0.000176	0	-1E+10	1	-1E+10	1	-1E+10	1
4902624	14	C	11/08/2024	09:43	-127.925	47.133	0	1059.80	0	3.3396	0	34.4142	0	27.393	0	1048.316	0	60.9	4	18.9	4	-1E+10	1	0.0512	4	0.000141	0	-1E+10	1	-1E+10	1	-1E+10	1
4902624	14	C	11/08/2024	09:43	-127.925	47.133	0	1074.90	0	3.3080	0	34.4190	0	27.400	0	1063.214	0	-1e10	1	-1e10	1	-1E+10	1	-1e10	1	-1e10	1	-1E+10	1	-1E+10	1	-1E+10	1
4902624	14	C	11/08/2024	09:43	-127.925	47.133	0	1082.20	0	3.2913	0	34.4210	0	27.403	0	1070.416	0	48.1	4	15.0	4	-1E+10	1	0.0584	4	0.000140	0	-1E+10	1	-1E+10	1	-1E+10	1
4902624	14	C	11/08/2024	09:43	-127.925	47.133	0	1105.50	0	3.2380	0	34.4274	0	27.413	0	1093.402	0	50.4	4	15.7	4	-1E+10	1	0.0582	4	0.000117	0	-1E+10	1	-1E+10	1	-1E+10	1
4902624	14	C	11/08/2024	09:43	-127.925	47.133	0	1125.60	0	3.1920	0	34.4330	0	27.422	0	1113.229	0	-1e10	1	-1e10	1	-1E+10	1	-1e10	1	-1e10	1	-1E+10	1	-1E+10	1	-1E+10	1
4902624	14	C	11/08/2024	09:43	-127.925	47.133	0	1129.60	0	3.1838	0	34.4340	0	27.424	0	1117.174	0	63.5	4	19.7	4	-1E+10	1	0.0513	4	0.000151	0	-1E+10	1	-1E+10	1	-1E+10	1
4902624	14	C	11/08/2024	09:43	-127.925	47.133	0	1146.00	0	3.1502	0	34.4380	0	27.430	0	1133.350	0	67.9	4	21.0	4	-1E+10	1	0.0580	4	0.000140	0	-1E+10	1	-1E+10	1	-1E+10	1
4902624	14	C	11/08/2024	09:43	-127.925	47.133	0	1162.30	0	3.1168	0	34.4419	0	27.436	0	1149.425	0	49.4	4	15.3	4	-1E+10	1	0.0368	4	0.000128	0	-1E+10	1	-1E+10	1	-1E+10	1
4902624	14	C	11/08/2024	09:43	-127.925	47.133	0	1174.90	0	3.0910	0	34.4450	0	27.441	0	1161.851	0	-1e10	1	-1e10	1	-1E+10	1	-1e10	1	-1e10	1	-1E+10	1	-1E+10	1	-1E+10	1
4902624	14	C	11/08/2024	09:43	-127.925	47.133	0	1179.10	0	3.0820	0	34.4459	0	27.443	0	1165.992	0	59.6	4	18.4	4	-1E+10	1	0.0511	4	0.000128	0	-1E+10	1	-1E+10	1	-1E+10	1
4902624	14	C	11/08/2024	09:43	-127.925	47.133	0	1196.10	0	3.0454	0	34.4497	0	27.449	0	1182.756	0	53.2	4	16.4	4	-1E+10	1	0.0512	4	0.000128	0	-1E+10	1	-1E+10	1	-1E+10	1
4902624	14	C	11/08/2024	09:43	-127.925	47.133	0	1213.20	0	3.0087	0	34.4535	0	27.456	0	1199.616	0	58.8	4	18.2	4	-1E+10	1	0.0582	4	0.000138	0	-1E+10	1	-1E+10	1	-1E+10	1
4902624	14	C	11/08/2024	09:43	-127.925	47.133	0	1224.70	0	2.9840	0	34.4560	0	27.460	0	1210.954	0	-1e10	1	-1e10	1	-1E+10	1	-1e10	1	-1e10	1	-1E+10	1	-1E+10	1	-1E+10	1
4902624	14	C	11/08/2024	09:43	-127.925	47.133	0	1230.70	0	2.9712	0	34.4577	0	27.463	0	1216.870	0	78.9	4	24.3	4	-1E+10	1	0.0512	4	0.000116	0	-1E+10	1	-1E+10	1	-1E+10	1
4902624	14	C	11/08/2024	09:43	-127.925	47.133	0	1248.20	0	2.9337	0	34.4626	0	27.470	0	1234.122	0	71.0	4	21.9	4	-1E+10	1	0.0583	4	0.000138	0	-1E+10	1	-1E+10	1	-1E+10	1
4902624	14	C	11/08/2024	09:43	-127.925	47.133	0	1266.30	0	2.8950	0	34.4676	0	27.478	0	1251.964	0	74.2	4	22.9	4	-1E+10	1	0.0510	4	0.000126	0	-1E+10	1	-1E+10	1	-1E+10	1
4902624	14	C	11/08/2024	09:43	-127.925	47.133	0	1274.70	0	2.8770	0	34.4700	0	27.481	0	1260.243	0	-1e10	1	-1e10	1	-1E+10	1	-1e10	1	-1e10	1	-1E+10	1	-1E+10	1	-1E+10	1
4902624	14	C	11/08/2024	09:43	-127.925	47.133	0	1284.70	0	2.8567	0	34.4728	0	27.485	0	1270.100	0	75.9	4	23.4	4	-1E+10	1	0.0441	4	0.000115	0	-1E+10	1	-1E+10	1	-1E+10	1
4902624	14	C	11/08/2024	09:43	-127.925	47.133	0	1303.70	0	2.8181	0	34.4781	0	27.493	0	1288.826	0	78.7	4	24.2	4	-1E+10	1	0.0586	4	0.000126	0	-1E+10	1	-1E+10	1	-1E+10	1
4902624	14	C	11/08/2024	09:43	-127.925	47.133	0	1323.00	0	2.7789	0	34.4835	0	27.501	0	1307.846	0	78.3	4	24.0	4	-1E+10	1	0.0656	4	0.000116	0	-1E+10	1	-1E+10	1	-1E+10	1
4902624	14	C	11/08/2024	09:43	-127.925	47.133	0	1324.90	0	2.7750	0	34.4840	0	27.501	0	1309.718	0	-1e10	1	-1e10	1	-1E+10	1	-1e10	1	-1e10	1	-1E+10	1	-1E+10	1	-1E+10	1
4902624	14	C	11/08/2024	09:43	-127.925	47.133	0	1343.60	0	2.7400	0	34.4885	0	27.508	0	1328.145	0	79.0	4	24.3	4	-1E+10	1	0.0584	4	0.000230	0	-1E+10	1	-1E+10	1	-1E+10	1
4902624	14	C	11/08/2024	09:43	-127.925	47.133	0	1365.40	0	2.6992	0	34.4937	0	27.516	0	1349.625	0	79.8	4	24.5	4	-1E+10	1	0.0582	4	0.000134	0	-1E+10	1	-1E+10	1	-1E+10	1
4902624	14	C	11/08/2024	09:43	-127.925	47.133	0	1375.10	0	2.6810	0	34.4960	0	27.519	0	1359.181	0	-1e10	1	-1e10	1	-1E+10	1	-1e10	1	-1e10	1	-1E+10	1	-1E+10	1	-1E+10	1
4902624	14	C	11/08/2024	09:43	-127.925	47.133	0	1387.60	0	2.6601	0	34.4983	0	27.523	0	1371.496	0	79.2	4	24.3	4	-1E+10	1	0.0514	4	0.000481	0	-1E+10	1	-1E+10	1	-1E+10	1
4902624	14	C	11/08/2024	09:43	-127.925	47.133	0	1403.20	0	2.6341	0	34.5011	0	27.528	0	1386.864	0	78.5	4	24.0	4	-1E+10	1	0.0653	4	0.000102	0	-1E+10	1	-1E+10	1	-1E+10	1
4902624	14	C	11/08/2024	09:43	-127.925	47.133	0	1419.50	0	2.6069	0	34.5040	0	27.533	0	1402.920	0	79.5	4	24.3	4	-1E+10	1	0.0440	4	0.000148	0	-1E+10	1	-1E+10	1	-1E+10	1
4902624	14	C	11/08/2024	09:43	-127.925	47.133	0	1424.80	0	2.5980	0	34.5050	0	27.534	0	1408.140	0	-1e10	1	-1e10	1	-1E+10	1	-1e10	1	-1e10	1	-1E+10	1	-1E+10	1	-1E+10	1
4902624	14	C	11/08/2024	09:43	-127.925	47.133	0	1436.70	0	2.5812	0	34.5074	0	27.537	0	1419.861	0	84.0	4	25.7	4	-1E+10	1	0.0511	4	0.000125	0	-1E+10	1	-1E+10	1	-1E+10	1
4902624	14	C	11/08/2024	09:43	-127.925	47.133	0	1454.70	0	2.5559	0	34.5110	0	27.543	0	1437.589	0	80.5	4	24.6	4	-1E+10	1	0.0514	4	0.000136	0	-1E+10	1	-1E+10	1	-1E+10	1
4902624	14	C	11/08/2024	09:43	-127.925	47.133	0	1473.10	0	2.5300	0	34.5147	0	27.548	0	1455.709	0	80.8	4	24.7	4	-1E+10	1	0.0654	4	0.000124	0	-1E+10	1	-1E+10	1	-1E+10	1
4902624	14	C	11/08/2024	09:43	-127.925	47.133	0	1474.50	0	2.5280	0	34.5150	0	27.548	0	1457.088	0	-1e10	1	-1e10	1	-1E+10	1	-1e10	1	-1e10	1	-1E+10	1	-1E+10	1	-1E+10	1
4902624	14	C	11/08/2024	09:43	-127.925	47.133	0	1492.20	0	2.5006	0	34.5185	0	27.553	0	1474.517	0	80.2	4	24.5	4	-1E+10	1	0.0510	4	0.000124	0	-1E+10	1	-1E+10	1	-1E+10	1
4902624	14	C	11/08/2024	09:43	-127.925	47.133	0	1511.90	0	2.4700	0	34.5224	0	27.559	0	1493.914	0	80.8	4	24.6	4	-1E+10	1	0.0444	4	0.000146	0	-1E+10	1	-1E+10	1	-1E+10	1
4902624	14	C	11/08/2024	09:43	-127.925	47.133	0	1524.80	0	2.4500	0	34.5250	0	27.563	0	1506.614	0	-1e10	1	-1e10	1	-1E+10	1	-1e10	1	-1e10	1	-1E+10	1	-1E+10	1	-1E+10	1
4902624	14	C	11/08/2024	09:43	-127.925	47.133	0	1532.10	0	2.4395	0	34.5262	0	27.565	0	1513.801	0	81.6	4	24.9	4	-1E+10	1	0.0726	4	0.000112	0	-1E+10	1	-1E+10	1	-1E+10	1
4902624	14	C	11/08/2024	09:43	-127.925	47.133	0	1552.70	0	2.4097	0	34.5294	0	27.570	0	1534.080	0	84.6	4	25.8	4	-1E+10	1	0.0510	4	0.000123	0	-1E+10	1	-1E+10	1	-1E+10	1
4902624	14	C	11/08/2024	09:43	-127.925	47.133	0	1574.10	0	2.3789	0	34.5328	0	27.575	0	1555.145	0	85.9	4	26.1	4	-1E+10	1	0.0440	4	0.000123	0	-1E+10	1	-1E+10	1	-1E+10	1
4902624	14	C	11/08/2024	09:43	-127.925	47.133	0	1575.40	0	2.3770	0	34.5330	0	27.576	0	1556.425	0	-1e10	1	-1e10	1	-1E+10	1	-1e10	1	-1e10	1	-1E+10	1	-1E+10	1	-1E+10	1
4902624	14	C	11/08/2024	09:43	-127.925	47.133	0	1596.00	0	2.3516	0	34.5363	0	27.581	0	1576.700	0	90.2	4	27.4	4	-1E+10	1	0.0513	4	0.000122	0	-1E+10	1	-1E+10	1	-1E+10	1
4902624	14	C	11/08/2024	09:43	-127.925	47.133	0	1618.50	0	2.3239	0	34.5400	0	27.586	0	1598.843	0	91.0	4	27.7	4	-1E+10	1	0.0580	4	0.000122	0	-1E+10	1	-1E+10	1	-1E+10	1
4902624	14	C	11/08/2024	09:43	-127.925	47.133	0	1624.90	0	2.3160	0	34.5410	0	27.587	0	1605.141	0	-1e10	1	-1e10	1	-1E+10	1	-1e10	1	-1e10	1	-1E+10	1	-1E+10	1	-1E+10	1
4902624	14	C	11/08/2024	09:43	-127.925	47.133	0	1641.90	0	2.2912	0	34.5443	0	27.592	0	1621.869	0	95.3	4	28.9	4	-1E+10	1	0.0367	4	0.000110	0	-1E+10	1	-1E+10	1	-1E+10	1
4902624	14	C	11/08/2024	09:43	-127.925	47.133	0	1663.50	0	2.2598	0	34.5486	0	27.598	0	1643.122	0	106.9	4	32.4	4	-1E+10	1	0.0439	4	0.000110	0	-1E+10	1	-1E+10	1	-1E+10	1
4902624	14	C	11/08/2024	09:43	-127.925	47.133	0	1675.70	0	2.2420	0	34.5510	0	27.602	0	1655.125	0	-1e10	1	-1e10	1	-1E+10	1	-1e10	1	-1e10	1	-1E+10	1	-1E+10	1	-1E+10	1
4902624	14	C	11/08/2024	09:43	-127.925	47.133	0	1679.80	0	2.2367	0	34.5518	0	27.603	0	1659.159	0	112.6	4	34.1	4	-1E+10	1	0.0508	4	0.000121	0	-1E+10	1	-1E+10	1	-1E+10	1
4902624	14	C	11/08/2024	09:43	-127.925	47.133	0	1696.60	0	2.2150	0	34.5549	0	27.607	0	1675.686	0	113.5	4	34.4	4	-1E+10	1	0.0368	4	0.000121	0	-1E+10	1	-1E+10	1	-1E+10	1
4902624	14	C	11/08/2024	09:43	-127.925	47.133	0	1714.00	0	2.1926	0	34.5581	0	27.612	0	1692.802	0	114.8	4	34.8	4	-1E+10	1	0.0511	4	0.000098	0	-1E+10	1	-1E+10	1	-1E+10	1
4902624	14	C	11/08/2024	09:43	-127.925	47.133	0	1724.50	0	2.1790	0	34.5600	0	27.614	0	1703.130	0	-1e10	1	-1e10	1	-1E+10	1	-1e10	1	-1e10	1	-1E+10	1	-1E+10	1	-1E+10	1
4902624	14	C	11/08/2024	09:43	-127.925	47.133	0	1732.00	0	2.1712	0	34.5612	0	27.616	0	1710.507	0	117.8	4	35.7	4	-1E+10	1	0.0507	4	0.000109	0	-1E+10	1	-1E+10	1	-1E+10	1
4902624	14	C	11/08/2024	09:43	-127.925	47.133	0	1750.60	0	2.1518	0	34.5642	0	27.620	0	1728.800	0	120.1	4	36.3	4	-1E+10	1	0.0294	4	0.000098	0	-1E+10	1	-1E+10	1	-1E+10	1
4902624	14	C	11/08/2024	09:43	-127.925	47.133	0	1769.60	0	2.1320	0	34.5672	0	27.624	0	1747.486	0	122.9	4	37.2	4	-1E+10	1	0.0437	4	0.000131	0	-1E+10	1	-1E+10	1	-1E+10	1
4902624	14	C	11/08/2024	09:43	-127.925	47.133	0	1774.40	0	2.1270	0	34.5680	0	27.625	0	1752.206	0	-1e10	1	-1e10	1	-1E+10	1	-1e10	1	-1e10	1	-1E+10	1	-1E+10	1	-1E+10	1
4902624	14	C	11/08/2024	09:43	-127.925	47.133	0	1789.30	0	2.1116	0	34.5704	0	27.628	0	1766.857	0	125.2	4	37.9	4	-1E+10	1	0.0366	4	0.000096	0	-1E+10	1	-1E+10	1	-1E+10	1
4902624	14	C	11/08/2024	09:43	-127.925	47.133	0	1809.50	0	2.0908	0	34.5736	0	27.633	0	1786.719	0	127.9	4	38.7	4	-1E+10	1	0.0442	4	0.000096	0	-1E+10	1	-1E+10	1	-1E+10	1
4902624	14	C	11/08/2024	09:43	-127.925	47.133	0	1824.80	0	2.0750	0	34.5760	0	27.636	0	1801.762	0	-1e10	1	-1e10	1	-1E+10	1	-1e10	1	-1e10	1	-1E+10	1	-1E+10	1	-1E+10	1
4902624	14	C	11/08/2024	09:43	-127.925	47.133	0	1830.30	0	2.0694	0	34.5769	0	27.637	0	1807.169	0	132.0	4	39.9	4	-1E+10	1	0.0581	4	0.000108	0	-1E+10	1	-1E+10	1	-1E+10	1
4902624	14	C	11/08/2024	09:43	-127.925	47.133	0	1851.80	0	2.0476	0	34.5803	0	27.642	0	1828.305	0	134.5	4	40.6	4	-1E+10	1	0.0439	4	0.000131	0	-1E+10	1	-1E+10	1	-1E+10	1
4902624	14	C	11/08/2024	09:43	-127.925	47.133	0	1874.20	0	2.0248	0	34.5839	0	27.646	0	1850.323	0	136.2	4	41.1	4	-1E+10	1	0.0508	4	0.000118	0	-1E+10	1	-1E+10	1	-1E+10	1
4902624	14	C	11/08/2024	09:43	-127.925	47.133	0	1875.00	0	2.0240	0	34.5840	0	27.646	0	1851.110	0	-1e10	1	-1e10	1	-1E+10	1	-1e10	1	-1e10	1	-1E+10	1	-1E+10	1	-1E+10	1
4902624	14	C	11/08/2024	09:43	-127.925	47.133	0	1894.80	0	2.0078	0	34.5868	0	27.650	0	1870.570	0	137.6	4	41.5	4	-1E+10	1	0.0365	4	0.000095	0	-1E+10	1	-1E+10	1	-1E+10	1
4902624	14	C	11/08/2024	09:43	-127.925	47.133	0	1910.60	0	1.9948	0	34.5890	0	27.653	0	1886.098	0	138.4	4	41.7	4	-1E+10	1	0.0368	4	0.000129	0	-1E+10	1	-1E+10	1	-1E+10	1
4902624	14	C	11/08/2024	09:43	-127.925	47.133	0	1925.00	0	1.9830	0	34.5910	0	27.655	0	1900.249	0	-1e10	1	-1e10	1	-1E+10	1	-1e10	1	-1e10	1	-1E+10	1	-1E+10	1	-1E+10	1
4902624	14	C	11/08/2024	09:43	-127.925	47.133	0	1926.90	0	1.9816	0	34.5912	0	27.656	0	1902.116	0	139.1	4	41.9	4	-1E+10	1	0.0511	4	0.000094	0	-1E+10	1	-1E+10	1	-1E+10	1
4902624	14	C	11/08/2024	09:43	-127.925	47.133	0	1943.90	0	1.9691	0	34.5934	0	27.659	0	1918.821	0	139.6	4	42.1	4	-1E+10	1	0.0508	4	0.000095	0	-1E+10	1	-1E+10	1	-1E+10	1
4902624	14	C	11/08/2024	09:43	-127.925	47.133	0	1961.80	0	1.9560	0	34.5956	0	27.661	0	1936.409	0	140.0	4	42.2	4	-1E+10	1	0.0367	4	0.000129	0	-1E+10	1	-1E+10	1	-1E+10	1
4902624	14	C	11/08/2024	09:43	-127.925	47.133	0	1972.70	0	1.9480	0	34.5970	0	27.663	0	1947.118	0	-1e10	1	-1e10	1	-1E+10	1	-1e10	1	-1e10	1	-1E+10	1	-1E+10	1	-1E+10	1
4902624	14	C	11/08/2024	09:43	-127.925	47.133	0	1980.20	0	-1e10	1	-1e10	1	-1e10	1	1954.486	0	145.8	4	-1e10	4	-1E+10	1	0.0440	4	0.000140	0	-1E+10	1	-1E+10	1	-1E+10	1
4902624	14	C	11/08/2024	09:43	-127.925	47.133	0	1995.70	0	-1e10	1	-1e10	1	-1e10	1	1969.713	0	141.4	4	-1e10	4	-1E+10	1	0.0511	4	0.000151	0	-1E+10	1	-1E+10	1	-1E+10	1
4902624	14	C	11/08/2024	09:43	-127.925	47.133	0																										
4902624	15	C	11/18/2024	04:35	-127.740	47.105	0	0.10	0	11.5577	8	32.0690	8	24.395	0	0.099	0	243.7	4	89.8	4	-1E+10	1	1.2045	4	0.001429	0	-1E+10	1	-1E+10	1	-1E+10	1
4902624	15	C	11/18/2024	04:35	-127.740	47.105	0	0.40	0	11.6014	8	32.0600	8	24.380	0	0.397	0	242.1	4	89.3	4	-1E+10	1	1.2191	4	0.001452	0	-1E+10	1	-1E+10	1	-1E+10	1
4902624	15	C	11/18/2024	04:35	-127.740	47.105	0	0.50	0	11.6160	8	32.0570	8	24.375	0	0.496	0	-1e10	1	-1e10	1	-1E+10	1	-1e10	1	-1e10	1	-1E+10	1	-1E+10	1	-1E+10	1
4902624	15	C	11/18/2024	04:35	-127.740	47.105	0	0.60	0	11.6162	8	32.0574	8	24.375	0	0.595	0	243.2	4	89.7	4	-1E+10	1	1.2191	4	0.001464	0	-1E+10	1	-1E+10	1	-1E+10	1
4902624	15	C	11/18/2024	04:35	-127.740	47.105	0	0.80	0	11.6165	8	32.0581	8	24.376	0	0.793	0	-1e10	1	-1e10	1	-1E+10	1	1.2410	4	0.001429	0	-1E+10	1	-1E+10	1	-1E+10	1
4902624	15	C	11/18/2024	04:35	-127.740	47.105	0	0.90	0	11.6167	8	32.0585	8	24.376	0	0.893	0	-1e10	1	-1e10	1	-1E+10	1	1.1972	4	0.001464	0	-1E+10	1	-1E+10	1	-1E+10	1
4902624	15	C	11/18/2024	04:35	-127.740	47.105	0	1.10	0	11.6171	8	32.0592	8	24.377	0	1.091	0	243.1	4	89.7	4	-1E+10	1	1.2410	4	0.001401	0	-1E+10	1	-1E+10	1	-1E+10	1
4902624	15	C	11/18/2024	04:35	-127.740	47.105	0	1.20	0	11.6173	8	32.0595	8	24.377	0	1.190	0	239.9	4	88.5	4	-1E+10	1	1.2629	4	0.001370	0	-1E+10	1	-1E+10	1	-1E+10	1
4902624	15	C	11/18/2024	04:35	-127.740	47.105	0	1.30	0	11.6175	8	32.0599	8	24.377	0	1.289	0	243.2	4	89.8	4	-1E+10	1	1.1972	4	0.001429	0	-1E+10	1	-1E+10	1	-1E+10	1
4902624	15	C	11/18/2024	04:35	-127.740	47.105	0	1.40	0	11.6176	8	32.0603	8	24.377	0	1.388	0	-1e10	1	-1e10	1	-1E+10	1	1.2337	4	0.001429	0	-1E+10	1	-1E+10	1	-1E+10	1
4902624	15	C	11/18/2024	04:35	-127.740	47.105	0	1.60	0	11.6180	0	32.0610	0	24.378	0	1.587	0	-1e10	1	-1e10	1	-1E+10	1	-1e10	1	-1e10	1	-1E+10	1	-1E+10	1	-1E+10	1
4902624	15	C	11/18/2024	04:35	-127.740	47.105	0	1.70	0	11.6181	0	32.0609	0	24.378	0	1.686	0	-1e10	1	-1e10	1	-1E+10	1	1.2337	4	0.002133	0	-1E+10	1	-1E+10	1	-1E+10	1
4902624	15	C	11/18/2024	04:35	-127.740	47.105	0	1.90	0	11.6183	0	32.0607	0	24.378	0	1.884	0	239.9	4	88.5	4	-1E+10	1	1.3505	4	0.001358	0	-1E+10	1	-1E+10	1	-1E+10	1
4902624	15	C	11/18/2024	04:35	-127.740	47.105	0	2.20	0	11.6187	0	32.0603	0	24.377	0	2.182	0	-1e10	1	-1e10	1	-1E+10	1	1.2410	4	0.001464	0	-1E+10	1	-1E+10	1	-1E+10	1
4902624	15	C	11/18/2024	04:35	-127.740	47.105	0	2.50	0	11.6190	0	32.0600	0	24.377	0	2.479	0	-1e10	1	-1e10	1	-1E+10	1	-1e10	1	-1e10	1	-1E+10	1	-1E+10	1	-1E+10	1
4902624	15	C	11/18/2024	04:35	-127.740	47.105	0	2.70	0	11.6190	0	32.0600	0	24.377	0	2.678	0	-1e10	1	-1e10	1	-1E+10	1	1.2410	4	0.001405	0	-1E+10	1	-1E+10	1	-1E+10	1
4902624	15	C	11/18/2024	04:35	-127.740	47.105	0	3.00	0	11.6190	0	32.0600	0	24.377	0	2.975	0	239.4	4	88.4	4	-1E+10	1	1.3213	4	0.001464	0	-1E+10	1	-1E+10	1	-1E+10	1
4902624	15	C	11/18/2024	04:35	-127.740	47.105	0	3.30	0	11.6190	0	32.0600	0	24.377	0	3.273	0	-1e10	1	-1e10	1	-1E+10	1	1.3140	4	0.001382	0	-1E+10	1	-1E+10	1	-1E+10	1
4902624	15	C	11/18/2024	04:35	-127.740	47.105	0	3.50	0	11.6190	0	32.0600	0	24.377	0	3.471	0	-1e10	1	-1e10	1	-1E+10	1	-1e10	1	-1e10	1	-1E+10	1	-1E+10	1	-1E+10	1
4902624	15	C	11/18/2024	04:35	-127.740	47.105	0	3.60	0	11.6188	0	32.0601	0	24.377	0	3.570	0	-1e10	1	-1e10	1	-1E+10	1	1.1972	4	0.001323	0	-1E+10	1	-1E+10	1	-1E+10	1
4902624	15	C	11/18/2024	04:35	-127.740	47.105	0	3.90	0	11.6182	0	32.0604	0	24.378	0	3.868	0	-1e10	1	-1e10	1	-1E+10	1	1.3213	4	0.001429	0	-1E+10	1	-1E+10	1	-1E+10	1
4902624	15	C	11/18/2024	04:35	-127.740	47.105	0	4.00	0	11.6180	0	32.0605	0	24.378	0	3.967	0	239.0	4	88.2	4	-1E+10	1	1.1753	4	0.001358	0	-1E+10	1	-1E+10	1	-1E+10	1
4902624	15	C	11/18/2024	04:35	-127.740	47.105	0	4.20	0	11.6176	0	32.0607	0	24.378	0	4.165	0	-1e10	1	-1e10	1	-1E+10	1	1.2118	4	0.001464	0	-1E+10	1	-1E+10	1	-1E+10	1
4902624	15	C	11/18/2024	04:35	-127.740	47.105	0	4.50	0	11.6170	0	32.0610	0	24.378	0	4.463	0	-1e10	1	-1e10	1	-1E+10	1	1.2264	4	0.001499	0	-1E+10	1	-1E+10	1	-1E+10	1
4902624	15	C	11/18/2024	04:35	-127.740	47.105	0	4.80	0	11.6179	0	32.0607	0	24.378	0	4.760	0	-1e10	1	-1e10	1	-1E+10	1	1.2994	4	0.001511	0	-1E+10	1	-1E+10	1	-1E+10	1
4902624	15	C	11/18/2024	04:35	-127.740	47.105	0	5.30	0	11.6194	0	32.0602	0	24.377	0	5.256	0	238.8	4	88.1	4	-1E+10	1	1.2921	4	0.001394	0	-1E+10	1	-1E+10	1	-1E+10	1
4902624	15	C	11/18/2024	04:35	-127.740	47.105	0	5.50	0	11.6200	0	32.0600	0	24.377	0	5.454	0	-1e10	1	-1e10	1	-1E+10	1	-1e10	1	-1e10	1	-1E+10	1	-1E+10	1	-1E+10	1
4902624	15	C	11/18/2024	04:35	-127.740	47.105	0	5.70	0	11.6196	0	32.0602	0	24.377	0	5.653	0	-1e10	1	-1e10	1	-1E+10	1	1.2848	4	0.001476	0	-1E+10	1	-1E+10	1	-1E+10	1
4902624	15	C	11/18/2024	04:35	-127.740	47.105	0	5.90	0	11.6192	0	32.0604	0	24.377	0	5.851	0	-1e10	1	-1e10	1	-1E+10	1	1.3651	4	0.001429	0	-1E+10	1	-1E+10	1	-1E+10	1
4902624	15	C	11/18/2024	04:35	-127.740	47.105	0	6.10	0	11.6188	0	32.0606	0	24.378	0	6.049	0	-1e10	1	-1e10	1	-1E+10	1	1.3213	4	0.001417	0	-1E+10	1	-1E+10	1	-1E+10	1
4902624	15	C	11/18/2024	04:35	-127.740	47.105	0	6.30	0	11.6184	0	32.0608	0	24.378	0	6.248	0	-1e10	1	-1e10	1	-1E+10	1	1.2629	4	0.001358	0	-1E+10	1	-1E+10	1	-1E+10	1
4902624	15	C	11/18/2024	04:35	-127.740	47.105	0	6.50	0	11.6180	0	32.0610	0	24.378	0	6.446	0	-1e10	1	-1e10	1	-1E+10	1	-1e10	1	-1e10	1	-1E+10	1	-1E+10	1	-1E+10	1
4902624	15	C	11/18/2024	04:35	-127.740	47.105	0	6.60	0	11.6182	0	32.0609	0	24.378	0	6.545	0	238.6	4	88.1	4	-1E+10	1	1.2921	4	0.001476	0	-1E+10	1	-1E+10	1	-1E+10	1
4902624	15	C	11/18/2024	04:35	-127.740	47.105	0	6.90	0	11.6187	0	32.0606	0	24.378	0	6.843	0	-1e10	1	-1e10	1	-1E+10	1	1.2848	4	0.001382	0	-1E+10	1	-1E+10	1	-1E+10	1
4902624	15	C	11/18/2024	04:35	-127.740	47.105	0	7.30	0	11.6195	0	32.0603	0	24.377	0	7.239	0	-1e10	1	-1e10	1	-1E+10	1	1.2629	4	0.001511	0	-1E+10	1	-1E+10	1	-1E+10	1
4902624	15	C	11/18/2024	04:35	-127.740	47.105	0	7.60	0	11.6200	0	32.0600	0	24.377	0	7.537	0	-1e10	1	-1e10	1	-1E+10	1	-1e10	1	-1e10	1	-1E+10	1	-1E+10	1	-1E+10	1
4902624	15	C	11/18/2024	04:35	-127.740	47.105	0	7.80	0	11.6198	0	32.0602	0	24.377	0	7.735	0	-1e10	1	-1e10	1	-1E+10	1	1.3140	4	0.001487	0	-1E+10	1	-1E+10	1	-1E+10	1
4902624	15	C	11/18/2024	04:35	-127.740	47.105	0	8.00	0	11.6196	0	32.0604	0	24.377	0	7.933	0	238.1	4	87.9	4	-1E+10	1	1.2191	4	0.001382	0	-1E+10	1	-1E+10	1	-1E+10	1
4902624	15	C	11/18/2024	04:35	-127.740	47.105	0	8.40	0	11.6193	0	32.0607	0	24.378	0	8.330	0	-1e10	1	-1e10	1	-1E+10	1	1.2848	4	0.001382	0	-1E+10	1	-1E+10	1	-1E+10	1
4902624	15	C	11/18/2024	04:35	-127.740	47.105	0	8.60	0	11.6191	0	32.0609	0	24.378	0	8.528	0	-1e10	1	-1e10	1	-1E+10	1	1.2629	4	0.001487	0	-1E+10	1	-1E+10	1	-1E+10	1
4902624	15	C	11/18/2024	04:35	-127.740	47.105	0	8.70	0	11.6190	0	32.0610	0	24.378	0	8.628	0	-1e10	1	-1e10	1	-1E+10	1	1.3286	4	0.001417	0	-1E+10	1	-1E+10	1	-1E+10	1
4902624	15	C	11/18/2024	04:35	-127.740	47.105	0	9.00	0	11.6198	0	32.0606	0	24.378	0	8.925	0	-1e10	1	-1e10	1	-1E+10	1	1.2556	4	0.001382	0	-1E+10	1	-1E+10	1	-1E+10	1
4902624	15	C	11/18/2024	04:35	-127.740	47.105	0	9.20	0	11.6203	0	32.0604	0	24.377	0	9.123	0	237.8	4	87.8	4	-1E+10	1	1.2775	4	0.001452	0	-1E+10	1	-1E+10	1	-1E+10	1
4902624	15	C	11/18/2024	04:35	-127.740	47.105	0	9.50	0	11.6210	0	32.0600	0	24.377	0	9.421	0	-1e10	1	-1e10	1	-1E+10	1	-1e10	1	-1e10	1	-1E+10	1	-1E+10	1	-1E+10	1
4902624	15	C	11/18/2024	04:35	-127.740	47.105	0	9.80	0	11.6208	0	32.0602	0	24.377	0	9.718	0	-1e10	1	-1e10	1	-1E+10	1	1.2702	4	0.001347	0	-1E+10	1	-1E+10	1	-1E+10	1
4902624	15	C	11/18/2024	04:35	-127.740	47.105	0	10.80	0	11.6201	0	32.0609	0	24.378	0	10.710	0	237.5	4	87.7	4	-1E+10	1	1.2929	4	0.001529	0	-1E+10	1	-1E+10	1	-1E+10	1
4902624	15	C	11/18/2024	04:35	-127.740	47.105	0	11.00	0	11.6200	0	32.0610	0	24.378	0	10.908	0	-1e10	1	-1e10	1	-1E+10	1	-1e10	1	-1e10	1	-1E+10	1	-1E+10	1	-1E+10	1
4902624	15	C	11/18/2024	04:35	-127.740	47.105	0	11.80	0	11.6196	0	32.0610	0	24.378	0	11.702	0	237.1	4	87.5	4	-1E+10	1	1.2949	4	0.001446	0	-1E+10	1	-1E+10	1	-1E+10	1
4902624	15	C	11/18/2024	04:35	-127.740	47.105	0	12.90	0	11.6190	0	32.0610	0	24.378	0	12.792	0	-1e10	1	-1e10	1	-1E+10	1	-1e10	1	-1e10	1	-1E+10	1	-1E+10	1	-1E+10	1
4902624	15	C	11/18/2024	04:35	-127.740	47.105	0	13.00	0	11.6190	0	32.0610	0	24.378	0	12.892	0	236.8	4	87.4	4	-1E+10	1	1.2878	4	0.001371	0	-1E+10	1	-1E+10	1	-1E+10	1
4902624	15	C	11/18/2024	04:35	-127.740	47.105	0	14.10	0	11.6190	0	32.0610	0	24.378	0	13.982	0	236.2	4	87.2	4	-1E+10	1	1.2629	4	0.001388	0	-1E+10	1	-1E+10	1	-1E+10	1
4902624	15	C	11/18/2024	04:35	-127.740	47.105	0	15.00	0	11.6190	0	32.0610	0	24.378	0	14.875	0	-1e10	1	-1e10	1	-1E+10	1	-1e10	1	-1e10	1	-1E+10	1	-1E+10	1	-1E+10	1
4902624	15	C	11/18/2024	04:35	-127.740	47.105	0	15.20	0	11.6188	0	32.0611	0	24.378	0	15.073	0	235.7	4	87.0	4	-1E+10	1	1.2723	4	0.001395	0	-1E+10	1	-1E+10	1	-1E+10	1
4902624	15	C	11/18/2024	04:35	-127.740	47.105	0	16.30	0	11.6177	0	32.0616	0	24.379	0	16.164	0	235.0	4	86.7	4	-1E+10	1	1.3140	4	0.001325	0	-1E+10	1	-1E+10	1	-1E+10	1
4902624	15	C	11/18/2024	04:35	-127.740	47.105	0	17.00	0	11.6170	0	32.0620	0	24.379	0	16.858	0	-1e10	1	-1e10	1	-1E+10	1	-1e10	1	-1e10	1	-1E+10	1	-1E+10	1	-1E+10	1
4902624	15	C	11/18/2024	04:35	-127.740	47.105	0	17.50	0	11.6170	0	32.0620	0	24.379	0	17.354	0	234.5	4	86.5	4	-1E+10	1	1.2483	4	0.001295	0	-1E+10	1	-1E+10	1	-1E+10	1
4902624	15	C	11/18/2024	04:35	-127.740	47.105	0	18.70	0	11.6170	0	32.0620	0	24.379	0	18.544	0	233.7	4	86.2	4	-1E+10	1	1.2921	4	0.001405	0	-1E+10	1	-1E+10	1	-1E+10	1
4902624	15	C	11/18/2024	04:35	-127.740	47.105	0	19.10	0	11.6170	0	32.0620	0	24.379	0	18.940	0	-1e10	1	-1e10	1	-1E+10	1	-1e10	1	-1e10	1	-1E+10	1	-1E+10	1	-1E+10	1
4902624	15	C	11/18/2024	04:35	-127.740	47.105	0	19.80	0	11.6148	0	32.0627	0	24.380	0	19.635	0	232.9	4	86.0	4	-1E+10	1	1.2180	4	0.001336	0	-1E+10	1	-1E+10	1	-1E+10	1
4902624	15	C	11/18/2024	04:35	-127.740	47.105	0	20.90	0	11.6113	0	32.0639	0	24.382	0	20.725	0	231.9	4	85.6	4	-1E+10	1	1.2583	4	0.001285	0	-1E+10	1	-1E+10	1	-1E+10	1
4902624	15	C	11/18/2024	04:35	-127.740	47.105	0	21.00	0	11.6110	0	32.0640	0	24.382	0	20.824	0	-1e10	1	-1e10	1	-1E+10	1	-1e10	1	-1e10	1	-1E+10	1	-1E+10	1	-1E+10	1
4902624	15	C	11/18/2024	04:35	-127.740	47.105	0	21.90	0	11.6119	0	32.0636	0	24.382	0	21.717	0	230.9	4	85.2	4	-1E+10	1	1.2612	4	0.001399	0	-1E+10	1	-1E+10	1	-1E+10	1
4902624	15	C	11/18/2024	04:35	-127.740	47.105	0	23.00	0	11.6129	0	32.0630	0	24.381	0	22.808	0	229.6	4	84.7	4	-1E+10	1	1.2914	4	0.001437	0	-1E+10	1	-1E+10	1	-1E+10	1
4902624	15	C	11/18/2024	04:35	-127.740	47.105	0	23.10	0	11.6130	0	32.0630	0	24.381	0	22.907	0	-1e10	1	-1e10	1	-1E+10	1	-1e10	1	-1e10	1	-1E+10	1	-1E+10	1	-1E+10	1
4902624	15	C	11/18/2024	04:35	-127.740	47.105	0	23.90	0	11.6094	0	32.0646	0	24.383	0	23.700	0	228.2	4	84.2	4	-1E+10	1	1.2974	4	0.001341	0	-1E+10	1	-1E+10	1	-1E+10	1
4902624	15	C	11/18/2024	04:35	-127.740	47.105	0	24.90	0	11.6049	0	32.0666	0	24.385	0	24.692	0	226.6	4	83.6	4	-1E+10	1	1.2592	4	0.001241	0	-1E+10	1	-1E+10	1	-1E+10	1
4902624	15	C	11/18/2024	04:35	-127.740	47.105	0	25.10	0	11.6040	0	32.0670	0	24.386	0	24.890	0	-1e10	1	-1e10	1	-1E+10	1	-1e10	1	-1e10	1	-1E+10	1	-1E+10	1	-1E+10	1
4902624	15	C	11/18/2024	04:35	-127.740	47.105	0	26.00	0	11.6014	0	32.0670	0	24.386	0	25.782	0	224.8	4	82.9	4	-1E+10	1	1.2690	4	0.001280	0	-1E+10	1	-1E+10	1	-1E+10	1
4902624	15	C	11/18/2024	04:35	-127.740	47.105	0	27.00	0	11.5986	0	32.0670	0	24.387	0	26.774	0	222.6	4	82.1	4	-1E+10	1	1.2629	4	0.001300	0	-1E+10	1	-1E+10	1	-1E+10	1
4902624	15	C	11/18/2024	04:35	-127.740	47.105	0	27.20	0	11.5980	0	32.0670	0	24.387	0	26.972	0	-1e10	1	-1e10	1	-1E+10	1	-1e10	1	-1e10	1	-1E+10	1	-1E+10	1	-1E+10	1
4902624	15	C	11/18/2024	04:35	-127.740	47.105	0	27.80	0	11.5926	0	32.0686	0	24.389	0	27.567	0	220.3	4	81.3	4	-1E+10	1	1.2410	4	0.001370	0	-1E+10	1	-1E+10	1	-1E+10	1
4902624	15	C	11/18/2024	04:35	-127.740	47.105	0	28.50	0	11.5864	0	32.0704	0	24.392	0	28.261	0	217.2	4	80.1	4	-1E+10	1	1.2921	4	0.001276	0	-1E+10	1	-1E+10	1	-1E+10	1
4902624	15	C	11/18/2024	04:35	-127.740	47.105	0	29.00	0	11.5819	0	32.0717	0	24.393	0	28.757	0	214.6	4	79.2	4	-1E+10	1	1.2608	4	0.001276	0	-1E+10	1	-1E+10	1	-1E+10	1
4902624	15	C	11/18/2024	04:35	-127.740	47.105	0	29.10	0	11.5810	0	32.0720	0	24.394	0	28.856	0	-1e10	1	-1e10	1	-1E+10	1	-1e10	1	-1e10	1	-1E+10	1	-1E+10	1	-1E+10	1
4902624	15	C	11/18/2024	04:35	-127.740	47.105	0	29.50	0	11.5692	0	32.0752	0	24.398	0	29.253	0	211.2	4	77.9	4	-1E+10	1	1.1881	4	0.001258	0	-1E+10	1	-1E+10	1	-1E+10	1
4902624	15	C	11/18/2024	04:35	-127.740	47.105	0	29.90	0	11.5574	0	32.0783	0	24.403	0	29.649	0	208.4	4	76.8	4	-1E+10	1	1.1644	4	0.001182	0	-1E+10	1	-1E+10	1	-1E+10	1
4902624	15	C	11/18/2024	04:35	-127.740	47.105	0	30.40	0	11.5427	0	32.0823	0	24.409	0	30.145	0	204.8	4	75.5	4	-1E+10	1	1.1339	4	0.001174	0	-1E+10	1	-1E+10	1	-1E+10	1
4902624	15	C	11/18/2024	04:35	-127.740	47.105	0	30.90	0	11.5279	0	32.0862	0	24.415	0	30.641	0	200.9	4	74.0	4	-1E+10	1	1.0682	4	0.001258	0	-1E+10	1	-1E+10	1	-1E+10	1
4902624	15	C	11/18/2024	04:35	-127.740	47.105	0	31.00	0	11.5250	0	32.0870	0	24.416	0	30.740	0	-1e10	1	-1e10	1	-1E+10	1	-1e10	1	-1e10	1	-1E+10	1	-1E+10	1	-1E+10	1
4902624	15	C	11/18/2024	04:35	-127.740	47.105	0	31.50	0	11.5002	0	32.0938	0	24.425	0	31.236	0	196.2	4	72.3	4	-1E+10	1	1.0013	4	0.001053	0	-1E+10	1	-1E+10	1	-1E+10	1
4902624	15	C	11/18/2024	04:35	-127.740	47.105	0	32.00	0	11.4755	0	32.1005	0	24.435	0	31.732	0	191.3	4	70.4	4	-1E+10	1	0.9709	4	0.001053	0	-1E+10	1	-1E+10	1	-1E+10	1
4902624	15	C	11/18/2024	04:35	-127.740	47.105	0	32.80	0	11.4359	0	32.1113	0	24.451	0	32.525	0	184.8	4	68.0	4	-1E+10	1	0.9271	4	0.001206	0	-1E+10	1	-1E+10	1	-1E+10	1
4902624	15	C	11/18/2024	04:35	-127.740	47.105	0	33.00	0	11.4260	0	32.1140	0	24.455	0	32.723	0	-1e10	1	-1e10	1	-1E+10	1	-1e10	1	-1e10	1	-1E+10	1	-1E+10	1	-1E+10	1
4902624	15	C	11/18/2024	04:35	-127.740	47.105	0	33.50	0	11.3860	0	32.1232	0	24.469	0	33.219	0	178.5	4	65.6	4	-1E+10	1	0.9052	4	0.001006	0	-1E+10	1	-1E+10	1	-1E+10	1
4902624	15	C	11/18/2024	04:35	-127.740	47.105	0	34.20	0	11.3300	0	32.1362	0	24.489	0	33.913	0	171.9	4	63.1	4	-1E+10	1	0.7957	4	0.000889	0	-1E+10	1	-1E+10	1	-1E+10	1
4902624	15	C	11/18/2024	04:35	-127.740	47.105	0	34.80	0	11.2820	0	32.1473	0	24.506	0	34.508	0	168.5	4	61.8	4	-1E+10	1	0.7738	4	0.000924	0	-1E+10	1	-1E+10	1	-1E+10	1
4902624	15	C	11/18/2024	04:35	-127.740	47.105	0	35.00	0	11.2660	0	32.1510	0	24.512	0	34.706	0	-1e10	1	-1e10	1	-1E+10	1	-1e10	1	-1e10	1	-1E+10	1	-1E+10	1	-1E+10	1
4902624	15	C	11/18/2024	04:35	-127.740	47.105	0	35.30	0	11.1935	0	32.1742	0	24.543	0	35.004	0	165.1	4	60.4	4	-1E+10	1	0.6844	4	0.001006	0	-1E+10	1	-1E+10	1	-1E+10	1
4902624	15	C	11/18/2024	04:35	-127.740	47.105	0	35.80	0	11.0727	0	32.2129	0	24.594	0	35.499	0	161.6	4	59.0	4	-1E+10	1	0.5767	4	0.000836	0	-1E+10	1	-1E+10	1	-1E+10	1
4902624	15	C	11/18/2024	04:35	-127.740	47.105	0	36.40	0	10.9278	0	32.2593	0	24.656	0	36.094	0	154.9	4	56.4	4	-1E+10	1	0.4558	4	0.000624	0	-1E+10	1	-1E+10	1	-1E+10	1
4902624	15	C	11/18/2024	04:35	-127.740	47.105	0	36.90	0	10.8070	0	32.2980	0	24.707	0	36.590	0	-1e10	1	-1e10	1	-1E+10	1	-1e10	1	-1e10	1	-1E+10	1	-1E+10	1	-1E+10	1
4902624	15	C	11/18/2024	04:35	-127.740	47.105	0	37.30	0	10.4876	0	32.3822	0	24.828	0	36.987	0	146.6	4	53.0	4	-1E+10	1	0.2977	4	0.000568	0	-1E+10	1	-1E+10	1	-1E+10	1
4902624	15	C	11/18/2024	04:35	-127.740	47.105	0	38.10	0	9.8487	0	32.5506	0	25.066	0	37.780	0	143.3	4	51.1	4	-1E+10	1	0.2387	4	0.000595	0	-1E+10	1	-1E+10	1	-1E+10	1
4902624	15	C	11/18/2024	04:35	-127.740	47.105	0	39.00	0	9.1300	0	32.7400	0	25.329	0	38.672	0	140.1	4	49.3	4	-1E+10	1	0.2190	4	0.000591	0	-1E+10	1	-1E+10	1	-1E+10	1
4902624	15	C	11/18/2024	04:35	-127.740	47.105	0	39.80	0	8.9673	0	32.7762	0	25.383	0	39.465	0	139.3	4	48.8	4	-1E+10	1	0.2073	4	0.000482	0	-1E+10	1	-1E+10	1	-1E+10	1
4902624	15	C	11/18/2024	04:35	-127.740	47.105	0	40.50	0	8.8250	0	32.8079	0	25.430	0	40.160	0	137.1	4	47.9	4	-1E+10	1	0.1801	4	0.000474	0	-1E+10	1	-1E+10	1	-1E+10	1
4902624	15	C	11/18/2024	04:35	-127.740	47.105	0	41.10	0	8.7030	0	32.8350	0	25.470	0	40.754	0	133.8	4	46.6	4	-1E+10	1	0.1843	4	0.000478	0	-1E+10	1	-1E+10	1	-1E+10	1
4902624	15	C	11/18/2024	04:35	-127.740	47.105	0	41.80	0	8.6842	0	32.8512	0	25.486	0	41.448	0	133.4	4	46.5	4	-1E+10	1	0.1861	4	0.000455	0	-1E+10	1	-1E+10	1	-1E+10	1
4902624	15	C	11/18/2024	04:35	-127.740	47.105	0	42.50	0	8.6654	0	32.8674	0	25.501	0	42.142	0	131.5	4	45.8	4	-1E+10	1	0.1825	4	0.000447	0	-1E+10	1	-1E+10	1	-1E+10	1
4902624	15	C	11/18/2024	04:35	-127.740	47.105	0	43.00	0	8.6520	0	32.8790	0	25.512	0	42.638	0	-1e10	1	-1e10	1	-1E+10	1	-1e10	1	-1e10	1	-1E+10	1	-1E+10	1	-1E+10	1
4902624	15	C	11/18/2024	04:35	-127.740	47.105	0	43.20	0	8.6417	0	32.8876	0	25.521	0	42.837	0	129.8	4	45.2	4	-1E+10	1	0.1788	4	0.000466	0	-1E+10	1	-1E+10	1	-1E+10	1
4902624	15	C	11/18/2024	04:35	-127.740	47.105	0	43.90	0	8.6058	0	32.9179	0	25.550	0	43.531	0	128.8	4	44.8	4	-1E+10	1	0.1666	4	0.000443	0	-1E+10	1	-1E+10	1	-1E+10	1
4902624	15	C	11/18/2024	04:35	-127.740	47.105	0	44.90	0	8.5544	0	32.9610	0	25.591	0	44.522	0	127.9	4	44.5	4	-1E+10	1	0.1533	4	0.000443	0	-1E+10	1	-1E+10	1	-1E+10	1
4902624	15	C	11/18/2024	04:35	-127.740	47.105	0	45.20	0	8.5390	0	32.9740	0	25.604	0	44.819	0	-1e10	1	-1e10	1	-1E+10	1	-1e10	1	-1e10	1	-1E+10	1	-1E+10	1	-1E+10	1
4902624	15	C	11/18/2024	04:35	-127.740	47.105	0	45.80	0	8.5100	0	32.9930	0	25.623	0	45.414	0	127.4	4	44.3	4	-1E+10	1	0.1460	4	0.000431	0	-1E+10	1	-1E+10	1	-1E+10	1
4902624	15	C	11/18/2024	04:35	-127.740	47.105	0	46.70	0	8.4665	0	33.0215	0	25.652	0	46.307	0	127.1	4	44.1	4	-1E+10	1	0.1281	4	0.000470	0	-1E+10	1	-1E+10	1	-1E+10	1
4902624	15	C	11/18/2024	04:35	-127.740	47.105	0	47.00	0	8.4520	0	33.0310	0	25.662	0	46.604	0	-1e10	1	-1e10	1	-1E+10	1	-1e10	1	-1e10	1	-1E+10	1	-1E+10	1	-1E+10	1
4902624	15	C	11/18/2024	04:35	-127.740	47.105	0	47.60	0	8.4387	0	33.0383	0	25.669	0	47.199	0	127.0	4	44.1	4	-1E+10	1	0.1287	4	0.000433	0	-1E+10	1	-1E+10	1	-1E+10	1
4902624	15	C	11/18/2024	04:35	-127.740	47.105	0	48.60	0	8.4166	0	33.0504	0	25.682	0	48.190	0	126.9	4	44.0	4	-1E+10	1	0.1274	4	0.000408	0	-1E+10	1	-1E+10	1	-1E+10	1
4902624	15	C	11/18/2024	04:35	-127.740	47.105	0	48.90	0	8.4100	0	33.0540	0	25.686	0	48.488	0	-1e10	1	-1e10	1	-1E+10	1	-1e10	1	-1e10	1	-1E+10	1	-1E+10	1	-1E+10	1
4902624	15	C	11/18/2024	04:35	-127.740	47.105	0	49.70	0	8.3973	0	33.0598	0	25.693	0	49.281	0	126.8	4	44.0	4	-1E+10	1	0.1095	4	0.000408	0	-1E+10	1	-1E+10	1	-1E+10	1
4902624	15	C	11/18/2024	04:35	-127.740	47.105	0	50.70	0	8.3814	0	33.0671	0	25.701	0	50.273	0	126.7	4	43.9	4	-1E+10	1	0.0994	4	0.000408	0	-1E+10	1	-1E+10	1	-1E+10	1
4902624	15	C	11/18/2024	04:35	-127.740	47.105	0	51.10	0	8.3750	0	33.0700	0	25.704	0	50.669	0	-1e10	1	-1e10	1	-1E+10	1	-1e10	1	-1e10	1	-1E+10	1	-1E+10	1	-1E+10	1
4902624	15	C	11/18/2024	04:35	-127.740	47.105	0	51.80	0	8.3654	0	33.0755	0	25.710	0	51.363	0	126.7	4	43.9	4	-1E+10	1	0.1055	4	0.000410	0	-1E+10	1	-1E+10	1	-1E+10	1
4902624	15	C	11/18/2024	04:35	-127.740	47.105	0	52.90	0	8.3504	0	33.0842	0	25.719	0	52.454	0	126.7	4	43.9	4	-1E+10	1	0.0876	4	0.000419	0	-1E+10	1	-1E+10	1	-1E+10	1
4902624	15	C	11/18/2024	04:35	-127.740	47.105	0	53.00	0	8.3490	0	33.0850	0	25.720	0	52.553	0	-1e10	1	-1e10	1	-1E+10	1	-1e10	1	-1e10	1	-1E+10	1	-1E+10	1	-1E+10	1
4902624	15	C	11/18/2024	04:35	-127.740	47.105	0	54.00	0	8.3304	0	33.0974	0	25.732	0	53.544	0	126.7	4	43.9	4	-1E+10	1	0.0876	4	0.000419	0	-1E+10	1	-1E+10	1	-1E+10	1
4902624	15	C	11/18/2024	04:35	-127.740	47.105	0	55.10	0	8.3100	0	33.1110	0	25.746	0	54.635	0	125.4	4	43.4	4	-1E+10	1	0.0876	4	0.000380	0	-1E+10	1	-1E+10	1	-1E+10	1
4902624	15	C	11/18/2024	04:35	-127.740	47.105	0	56.10	0	8.2879	0	33.1242	0	25.759	0	55.626	0	127.4	4	44.1	4	-1E+10	1	0.0982	4	0.000381	0	-1E+10	1	-1E+10	1	-1E+10	1
4902624	15	C	11/18/2024	04:35	-127.740	47.105	0	57.00	0	8.2680	0	33.1360	0	25.772	0	56.519	0	-1e10	1	-1e10	1	-1E+10	1	-1e10	1	-1e10	1	-1E+10	1	-1E+10	1	-1E+10	1
4902624	15	C	11/18/2024	04:35	-127.740	47.105	0	57.20	0	8.2619	0	33.1396	0	25.775	0	56.717	0	127.9	4	44.2	4	-1E+10	1	0.1022	4	0.001127	0	-1E+10	1	-1E+10	1	-1E+10	1
4902624	15	C	11/18/2024	04:35	-127.740	47.105	0	58.30	0	8.2283	0	33.1593	0	25.796	0	57.807	0	128.6	4	44.5	4	-1E+10	1	0.0904	4	0.000914	0	-1E+10	1	-1E+10	1	-1E+10	1
4902624	15	C	11/18/2024	04:35	-127.740	47.105	0	58.90	0	8.2100	0	33.1700	0	25.807	0	58.402	0	-1e10	1	-1e10	1	-1E+10	1	-1e10	1	-1e10	1	-1E+10	1	-1E+10	1	-1E+10	1
4902624	15	C	11/18/2024	04:35	-127.740	47.105	0	59.40	0	8.1792	0	33.1865	0	25.825	0	58.898	0	129.1	4	44.6	4	-1E+10	1	0.0742	4	0.000391	0	-1E+10	1	-1E+10	1	-1E+10	1
4902624	15	C	11/18/2024	04:35	-127.740	47.105	0	60.50	0	8.1116	0	33.2228	0	25.863	0	59.988	0	129.2	4	44.6	4	-1E+10	1	0.0679	4	0.000487	0	-1E+10	1	-1E+10	1	-1E+10	1
4902624	15	C	11/18/2024	04:35	-127.740	47.105	0	60.90	0	8.0870	0	33.2360	0	25.877	0	60.385	0	-1e10	1	-1e10	1	-1E+10	1	-1e10	1	-1e10	1	-1E+10	1	-1E+10	1	-1E+10	1
4902624	15	C	11/18/2024	04:35	-127.740	47.105	0	61.60	0	8.0835	0	33.2409	0	25.881	0	61.079	0	129.3	4	44.6	4	-1E+10	1	0.0719	4	0.000724	0	-1E+10	1	-1E+10	1	-1E+10	1
4902624	15	C	11/18/2024	04:35	-127.740	47.105	0	62.70	0	8.0780	0	33.2486	0	25.888	0	62.170	0	129.3	4	44.6	4	-1E+10	1	0.0657	4	0.000466	0	-1E+10	1	-1E+10	1	-1E+10	1
4902624	15	C	11/18/2024	04:35	-127.740	47.105	0	62.90	0	8.0770	0	33.2500	0	25.889	0	62.368	0	-1e10	1	-1e10	1	-1E+10	1	-1e10	1	-1e10	1	-1E+10	1	-1E+10	1	-1E+10	1
4902624	15	C	11/18/2024	04:35	-127.740	47.105	0	63.80	0	8.0729	0	33.2537	0	25.893	0	63.260	0	129.5	4	44.6	4	-1E+10	1	0.0657	4	0.000361	0	-1E+10	1	-1E+10	1	-1E+10	1
4902624	15	C	11/18/2024	04:35	-127.740	47.105	0	64.90	0	8.0679	0	33.2582	0	25.897	0	64.351	0	129.6	4	44.7	4	-1E+10	1	0.0781	4	0.000435	0	-1E+10	1	-1E+10	1	-1E+10	1
4902624	15	C	11/18/2024	04:35	-127.740	47.105	0	65.10	0	8.0670	0	33.2590	0	25.898	0	64.549	0	-1e10	1	-1e10	1	-1E+10	1	-1e10	1	-1e10	1	-1E+10	1	-1E+10	1	-1E+10	1
4902624	15	C	11/18/2024	04:35	-127.740	47.105	0	65.90	0	8.0449	0	33.2765	0	25.915	0	65.342	0	129.8	4	44.7	4	-1E+10	1	0.0657	4	0.000398	0	-1E+10	1	-1E+10	1	-1E+10	1
4902624	15	C	11/18/2024	04:35	-127.740	47.105	0	66.90	0	8.0173	0	33.2984	0	25.936	0	66.333	0	130.0	4	44.8	4	-1E+10	1	0.0584	4	0.000464	0	-1E+10	1	-1E+10	1	-1E+10	1
4902624	15	C	11/18/2024	04:35	-127.740	47.105	0	67.20	0	8.0090	0	33.3050	0	25.943	0	66.631	0	-1e10	1	-1e10	1	-1E+10	1	-1e10	1	-1e10	1	-1E+10	1	-1E+10	1	-1E+10	1
4902624	15	C	11/18/2024	04:35	-127.740	47.105	0	67.80	0	7.9940	0	33.3217	0	25.958	0	67.226	0	129.5	4	44.6	4	-1E+10	1	0.0543	4	0.000440	0	-1E+10	1	-1E+10	1	-1E+10	1
4902624	15	C	11/18/2024	04:35	-127.740	47.105	0	68.50	0	7.9765	0	33.3411	0	25.976	0	67.919	0	128.9	4	44.4	4	-1E+10	1	0.0566	4	0.000383	0	-1E+10	1	-1E+10	1	-1E+10	1
4902624	15	C	11/18/2024	04:35	-127.740	47.105	0	69.00	0	7.9640	0	33.3550	0	25.989	0	68.415	0	-1e10	1	-1e10	1	-1E+10	1	-1e10	1	-1e10	1	-1E+10	1	-1E+10	1	-1E+10	1
4902624	15	C	11/18/2024	04:35	-127.740	47.105	0	69.10	0	7.9630	0	33.3564	0	25.990	0	68.514	0	128.4	4	44.2	4	-1E+10	1	0.0657	4	0.000398	0	-1E+10	1	-1E+10	1	-1E+10	1
4902624	15	C	11/18/2024	04:35	-127.740	47.105	0	69.70	0	7.9567	0	33.3647	0	25.997	0	69.109	0	127.9	4	44.0	4	-1E+10	1	0.0626	4	0.000381	0	-1E+10	1	-1E+10	1	-1E+10	1
4902624	15	C	11/18/2024	04:35	-127.740	47.105	0	70.30	0	7.9504	0	33.3730	0	26.005	0	69.704	0	127.3	4	43.8	4	-1E+10	1	0.0438	4	0.000361	0	-1E+10	1	-1E+10	1	-1E+10	1
4902624	15	C	11/18/2024	04:35	-127.740	47.105	0	71.00	0	7.9430	0	33.3826	0	26.013	0	70.398	0	126.6	4	43.6	4	-1E+10	1	0.0566	4	0.000396	0	-1E+10	1	-1E+10	1	-1E+10	1
4902624	15	C	11/18/2024	04:35	-127.740	47.105	0	71.10	0	7.9420	0	33.3840	0	26.015	0	70.497	0	-1e10	1	-1e10	1	-1E+10	1	-1e10	1	-1e10	1	-1E+10	1	-1E+10	1	-1E+10	1
4902624	15	C	11/18/2024	04:35	-127.740	47.105	0	71.70	0	7.9344	0	33.3944	0	26.024	0	71.092	0	126.0	4	43.3	4	-1E+10	1	0.0584	4	0.000417	0	-1E+10	1	-1E+10	1	-1E+10	1
4902624	15	C	11/18/2024	04:35	-127.740	47.105	0	72.40	0	7.9256	0	33.4066	0	26.035	0	71.786	0	125.3	4	43.1	4	-1E+10	1	0.0584	4	0.000365	0	-1E+10	1	-1E+10	1	-1E+10	1
4902624	15	C	11/18/2024	04:35	-127.740	47.105	0	73.00	0	7.9180	0	33.4170	0	26.044	0	72.381	0	-1e10	1	-1e10	1	-1E+10	1	-1e10	1	-1e10	1	-1E+10	1	-1E+10	1	-1E+10	1
4902624	15	C	11/18/2024	04:35	-127.740	47.105	0	73.10	0	7.9167	0	33.4188	0	26.046	0	72.480	0	124.6	4	42.8	4	-1E+10	1	0.0616	4	0.000368	0	-1E+10	1	-1E+10	1	-1E+10	1
4902624	15	C	11/18/2024	04:35	-127.740	47.105	0	73.90	0	7.9063	0	33.4332	0	26.058	0	73.273	0	124.3	4	42.7	4	-1E+10	1	0.0594	4	0.000413	0	-1E+10	1	-1E+10	1	-1E+10	1
4902624	15	C	11/18/2024	04:35	-127.740	47.105	0	74.70	0	7.8959	0	33.4476	0	26.071	0	74.066	0	123.9	4	42.6	4	-1E+10	1	0.0511	4	0.000405	0	-1E+10	1	-1E+10	1	-1E+10	1
4902624	15	C	11/18/2024	04:35	-127.740	47.105	0	75.00	0	7.8920	0	33.4530	0	26.076	0	74.363	0	-1e10	1	-1e10	1	-1E+10	1	-1e10	1	-1e10	1	-1E+10	1	-1E+10	1	-1E+10	1
4902624	15	C	11/18/2024	04:35	-127.740	47.105	0	75.40	0	7.8864	0	33.4604	0	26.083	0	74.760	0	123.6	4	42.5	4	-1E+10	1	0.0495	4	0.000383	0	-1E+10	1	-1E+10	1	-1E+10	1
4902624	15	C	11/18/2024	04:35	-127.740	47.105	0	76.20	0	7.8752	0	33.4752	0	26.096	0	75.553	0	123.2	4	42.4	4	-1E+10	1	0.0365	4	0.000372	0	-1E+10	1	-1E+10	1	-1E+10	1
4902624	15	C	11/18/2024	04:35	-127.740	47.105	0	76.90	0	7.8654	0	33.4882	0	26.108	0	76.247	0	123.0	4	42.3	4	-1E+10	1	0.0438	4	0.000384	0	-1E+10	1	-1E+10	1	-1E+10	1
4902624	15	C	11/18/2024	04:35	-127.740	47.105	0	77.00	0	7.8640	0	33.4900	0	26.109	0	76.346	0	-1e10	1	-1e10	1	-1E+10	1	-1e10	1	-1e10	1	-1E+10	1	-1E+10	1	-1E+10	1
4902624	15	C	11/18/2024	04:35	-127.740	47.105	0	77.70	0	7.8547	0	33.4993	0	26.118	0	77.040	0	122.8	4	42.2	4	-1E+10	1	0.0438	4	0.000395	0	-1E+10	1	-1E+10	1	-1E+10	1
4902624	15	C	11/18/2024	04:35	-127.740	47.105	0	78.50	0	7.8440	0	33.5100	0	26.128	0	77.833	0	122.7	4	42.1	4	-1E+10	1	0.0489	4	0.000388	0	-1E+10	1	-1E+10	1	-1E+10	1
4902624	15	C	11/18/2024	04:35	-127.740	47.105	0	79.10	0	7.8360	0	33.5180	0	26.135	0	78.428	0	-1e10	1	-1e10	1	-1E+10	1	-1e10	1	-1e10	1	-1E+10	1	-1E+10	1	-1E+10	1
4902624	15	C	11/18/2024	04:35	-127.740	47.105	0	79.30	0	7.8338	0	33.5204	0	26.138	0	78.626	0	122.4	4	42.1	4	-1E+10	1	0.0511	4	0.000589	0	-1E+10	1	-1E+10	1	-1E+10	1
4902624	15	C	11/18/2024	04:35	-127.740	47.105	0	80.10	0	7.8250	0	33.5300	0	26.146	0	79.419	0	122.1	4	42.0	4	-1E+10	1	0.0548	4	0.000537	0	-1E+10	1	-1E+10	1	-1E+10	1
4902624	15	C	11/18/2024	04:35	-127.740	47.105	0	80.90	0	7.8162	0	33.5396	0	26.155	0	80.212	0	121.9	4	41.9	4	-1E+10	1	0.0540	4	0.000378	0	-1E+10	1	-1E+10	1	-1E+10	1
4902624	15	C	11/18/2024	04:35	-127.740	47.105	0	81.10	0	7.8140	0	33.5420	0	26.157	0	80.410	0	-1e10	1	-1e10	1	-1E+10	1	-1e10	1	-1e10	1	-1E+10	1	-1E+10	1	-1E+10	1
4902624	15	C	11/18/2024	04:35	-127.740	47.105	0	81.80	0	7.8052	0	33.5531	0	26.167	0	81.104	0	121.6	4	41.8	4	-1E+10	1	0.0438	4	0.000479	0	-1E+10	1	-1E+10	1	-1E+10	1
4902624	15	C	11/18/2024	04:35	-127.740	47.105	0	82.60	0	7.7951	0	33.5657	0	26.179	0	81.897	0	121.3	4	41.6	4	-1E+10	1	0.0445	4	0.000656	0	-1E+10	1	-1E+10	1	-1E+10	1
4902624	15	C	11/18/2024	04:35	-127.740	47.105	0	83.00	0	7.7900	0	33.5720	0	26.184	0	82.294	0	-1e10	1	-1e10	1	-1E+10	1	-1e10	1	-1e10	1	-1E+10	1	-1E+10	1	-1E+10	1
4902624	15	C	11/18/2024	04:35	-127.740	47.105	0	83.50	0	7.7850	0	33.5780	0	26.190	0	82.789	0	120.9	4	41.5	4	-1E+10	1	0.0511	4	0.000361	0	-1E+10	1	-1E+10	1	-1E+10	1
4902624	15	C	11/18/2024	04:35	-127.740	47.105	0	84.40	0	7.7760	0	33.5888	0	26.200	0	83.682	0	120.6	4	41.4	4	-1E+10	1	0.0445	4	0.000392	0	-1E+10	1	-1E+10	1	-1E+10	1
4902624	15	C	11/18/2024	04:35	-127.740	47.105	0	85.00	0	7.7700	0	33.5960	0	26.206	0	84.276	0	-1e10	1	-1e10	1	-1E+10	1	-1e10	1	-1e10	1	-1E+10	1	-1E+10	1	-1E+10	1
4902624	15	C	11/18/2024	04:35	-127.740	47.105	0	85.30	0	7.7656	0	33.6008	0	26.211	0	84.574	0	120.3	4	41.3	4	-1E+10	1	0.0438	4	0.000354	0	-1E+10	1	-1E+10	1	-1E+10	1
4902624	15	C	11/18/2024	04:35	-127.740	47.105	0	86.20	0	7.7526	0	33.6152	0	26.224	0	85.466	0	120.1	4	41.2	4	-1E+10	1	0.0385	4	0.000323	0	-1E+10	1	-1E+10	1	-1E+10	1
4902624	15	C	11/18/2024	04:35	-127.740	47.105	0	87.00	0	7.7410	0	33.6280	0	26.236	0	86.259	0	-1e10	1	-1e10	1	-1E+10	1	-1e10	1	-1e10	1	-1E+10	1	-1E+10	1	-1E+10	1
4902624	15	C	11/18/2024	04:35	-127.740	47.105	0	87.10	0	7.7404	0	33.6287	0	26.236	0	86.358	0	120.0	4	41.2	4	-1E+10	1	0.0438	4	0.000325	0	-1E+10	1	-1E+10	1	-1E+10	1
4902624	15	C	11/18/2024	04:35	-127.740	47.105	0	88.00	0	7.7347	0	33.6348	0	26.242	0	87.250	0	119.9	4	41.1	4	-1E+10	1	0.0538	4	0.000355	0	-1E+10	1	-1E+10	1	-1E+10	1
4902624	15	C	11/18/2024	04:35	-127.740	47.105	0	88.90	0	7.7290	0	33.6410	0	26.248	0	88.142	0	117.8	4	40.4	4	-1E+10	1	0.0487	4	0.000363	0	-1E+10	1	-1E+10	1	-1E+10	1
4902624	15	C	11/18/2024	04:35	-127.740	47.105	0	89.80	0	7.7272	0	33.6428	0	26.249	0	89.034	0	119.8	4	41.1	4	-1E+10	1	0.0423	4	0.000337	0	-1E+10	1	-1E+10	1	-1E+10	1
4902624	15	C	11/18/2024	04:35	-127.740	47.105	0	90.60	0	7.7256	0	33.6444	0	26.251	0	89.827	0	119.7	4	41.1	4	-1E+10	1	0.0462	4	0.000337	0	-1E+10	1	-1E+10	1	-1E+10	1
4902624	15	C	11/18/2024	04:35	-127.740	47.105	0	90.90	0	7.7250	0	33.6450	0	26.251	0	90.125	0	-1e10	1	-1e10	1	-1E+10	1	-1e10	1	-1e10	1	-1E+10	1	-1E+10	1	-1E+10	1
4902624	15	C	11/18/2024	04:35	-127.740	47.105	0	91.50	0	7.7244	0	33.6456	0	26.252	0	90.720	0	119.7	4	41.1	4	-1E+10	1	0.0305	4	0.000343	0	-1E+10	1	-1E+10	1	-1E+10	1
4902624	15	C	11/18/2024	04:35	-127.740	47.105	0	92.40	0	7.7236	0	33.6464	0	26.253	0	91.612	0	119.6	4	41.0	4	-1E+10	1	0.0365	4	0.000372	0	-1E+10	1	-1E+10	1	-1E+10	1
4902624	15	C	11/18/2024	04:35	-127.740	47.105	0	93.00	0	7.7230	0	33.6470	0	26.253	0	92.206	0	-1e10	1	-1e10	1	-1E+10	1	-1e10	1	-1e10	1	-1E+10	1	-1E+10	1	-1E+10	1
4902624	15	C	11/18/2024	04:35	-127.740	47.105	0	93.30	0	7.7172	0	33.6513	0	26.257	0	92.504	0	119.6	4	41.0	4	-1E+10	1	0.0420	4	0.000460	0	-1E+10	1	-1E+10	1	-1E+10	1
4902624	15	C	11/18/2024	04:35	-127.740	47.105	0	94.30	0	7.6976	0	33.6658	0	26.272	0	93.495	0	119.4	4	40.9	4	-1E+10	1	0.0495	4	0.000371	0	-1E+10	1	-1E+10	1	-1E+10	1
4902624	15	C	11/18/2024	04:35	-127.740	47.105	0	95.00	0	7.6840	0	33.6760	0	26.282	0	94.189	0	-1e10	1	-1e10	1	-1E+10	1	-1e10	1	-1e10	1	-1E+10	1	-1E+10	1	-1E+10	1
4902624	15	C	11/18/2024	04:35	-127.740	47.105	0	95.30	0	7.6797	0	33.6796	0	26.285	0	94.486	0	119.2	4	40.9	4	-1E+10	1	0.0458	4	0.000337	0	-1E+10	1	-1E+10	1	-1E+10	1
4902624	15	C	11/18/2024	04:35	-127.740	47.105	0	96.20	0	7.6669	0	33.6905	0	26.295	0	95.378	0	118.9	4	40.7	4	-1E+10	1	0.0438	4	0.000343	0	-1E+10	1	-1E+10	1	-1E+10	1
4902624	15	C	11/18/2024	04:35	-127.740	47.105	0	96.90	0	7.6570	0	33.6990	0	26.304	0	96.072	0	-1e10	1	-1e10	1	-1E+10	1	-1e10	1	-1e10	1	-1E+10	1	-1E+10	1	-1E+10	1
4902624	15	C	11/18/2024	04:35	-127.740	47.105	0	97.20	0	7.6576	0	33.7003	0	26.305	0	96.370	0	118.5	4	40.6	4	-1E+10	1	0.0496	4	0.000344	0	-1E+10	1	-1E+10	1	-1E+10	1
4902624	15	C	11/18/2024	04:35	-127.740	47.105	0	98.20	0	7.6595	0	33.7046	0	26.308	0	97.361	0	118.1	4	40.5	4	-1E+10	1	0.0531	4	0.000346	0	-1E+10	1	-1E+10	1	-1E+10	1
4902624	15	C	11/18/2024	04:35	-127.740	47.105	0	99.00	0	7.6610	0	33.7080	0	26.310	0	98.154	0	-1e10	1	-1e10	1	-1E+10	1	-1e10	1	-1e10	1	-1E+10	1	-1E+10	1	-1E+10	1
4902624	15	C	11/18/2024	04:35	-127.740	47.105	0	99.20	0	7.6605	0	33.7087	0	26.311	0	98.352	0	117.7	4	40.3	4	-1E+10	1	0.0402	4	0.000387	0	-1E+10	1	-1E+10	1	-1E+10	1
4902624	15	C	11/18/2024	04:35	-127.740	47.105	0	100.10	0	7.6582	0	33.7118	0	26.314	0	99.244	0	117.4	4	40.2	4	-1E+10	1	0.0292	4	0.000466	0	-1E+10	1	-1E+10	1	-1E+10	1
4902624	15	C	11/18/2024	04:35	-127.740	47.105	0	101.00	0	7.6560	0	33.7150	0	26.316	0	100.136	0	115.0	4	39.4	4	-1E+10	1	0.0511	4	0.000341	0	-1E+10	1	-1E+10	1	-1E+10	1
4902624	15	C	11/18/2024	04:35	-127.740	47.105	0	102.00	0	7.6489	0	33.7198	0	26.321	0	101.127	0	116.5	4	39.9	4	-1E+10	1	0.0511	4	0.000347	0	-1E+10	1	-1E+10	1	-1E+10	1
4902624	15	C	11/18/2024	04:35	-127.740	47.105	0	103.00	0	7.6417	0	33.7245	0	26.326	0	102.119	0	116.1	4	39.8	4	-1E+10	1	0.0414	4	0.000364	0	-1E+10	1	-1E+10	1	-1E+10	1
4902624	15	C	11/18/2024	04:35	-127.740	47.105	0	103.10	0	7.6410	0	33.7250	0	26.326	0	102.218	0	-1e10	1	-1e10	1	-1E+10	1	-1e10	1	-1e10	1	-1E+10	1	-1E+10	1	-1E+10	1
4902624	15	C	11/18/2024	04:35	-127.740	47.105	0	103.90	0	7.6376	0	33.7322	0	26.333	0	103.011	0	116.0	4	39.7	4	-1E+10	1	0.0474	4	0.000366	0	-1E+10	1	-1E+10	1	-1E+10	1
4902624	15	C	11/18/2024	04:35	-127.740	47.105	0	105.00	0	7.6330	0	33.7420	0	26.341	0	104.101	0	113.9	4	39.0	4	-1E+10	1	0.0548	4	0.000448	0	-1E+10	1	-1E+10	1	-1E+10	1
4902624	15	C	11/18/2024	04:35	-127.740	47.105	0	106.10	0	7.6203	0	33.7442	0	26.345	0	105.191	0	115.8	4	39.7	4	-1E+10	1	0.0483	4	0.000496	0	-1E+10	1	-1E+10	1	-1E+10	1
4902624	15	C	11/18/2024	04:35	-127.740	47.105	0	107.00	0	7.6100	0	33.7460	0	26.347	0	106.083	0	-1e10	1	-1e10	1	-1E+10	1	-1e10	1	-1e10	1	-1E+10	1	-1E+10	1	-1E+10	1
4902624	15	C	11/18/2024	04:35	-127.740	47.105	0	107.10	0	7.6071	0	33.7465	0	26.348	0	106.182	0	115.5	4	39.5	4	-1E+10	1	0.0423	4	0.000414	0	-1E+10	1	-1E+10	1	-1E+10	1
4902624	15	C	11/18/2024	04:35	-127.740	47.105	0	108.10	0	7.5781	0	33.7520	0	26.357	0	107.174	0	115.2	4	39.4	4	-1E+10	1	0.0377	4	0.000347	0	-1E+10	1	-1E+10	1	-1E+10	1
4902624	15	C	11/18/2024	04:35	-127.740	47.105	0	109.00	0	7.5520	0	33.7570	0	26.364	0	108.066	0	-1e10	1	-1e10	1	-1E+10	1	-1e10	1	-1e10	1	-1E+10	1	-1E+10	1	-1E+10	1
4902624	15	C	11/18/2024	04:35	-127.740	47.105	0	109.10	0	7.5501	0	33.7570	0	26.365	0	108.165	0	114.7	4	39.2	4	-1E+10	1	0.0438	4	0.000337	0	-1E+10	1	-1E+10	1	-1E+10	1
4902624	15	C	11/18/2024	04:35	-127.740	47.105	0	110.10	0	7.5317	0	33.7570	0	26.367	0	109.156	0	113.9	4	38.9	4	-1E+10	1	0.0382	4	0.000355	0	-1E+10	1	-1E+10	1	-1E+10	1
4902624	15	C	11/18/2024	04:35	-127.740	47.105	0	111.00	0	7.5150	0	33.7570	0	26.370	0	110.048	0	-1e10	1	-1e10	1	-1E+10	1	-1e10	1	-1e10	1	-1E+10	1	-1E+10	1	-1E+10	1
4902624	15	C	11/18/2024	04:35	-127.740	47.105	0	111.20	0	7.5146	0	33.7574	0	26.370	0	110.246	0	113.0	4	38.6	4	-1E+10	1	0.0259	4	0.000326	0	-1E+10	1	-1E+10	1	-1E+10	1
4902624	15	C	11/18/2024	04:35	-127.740	47.105	0	112.30	0	7.5123	0	33.7597	0	26.372	0	111.337	0	112.0	4	38.3	4	-1E+10	1	0.0399	4	0.000321	0	-1E+10	1	-1E+10	1	-1E+10	1
4902624	15	C	11/18/2024	04:35	-127.740	47.105	0	112.90	0	7.5110	0	33.7610	0	26.373	0	111.931	0	-1e10	1	-1e10	1	-1E+10	1	-1e10	1	-1e10	1	-1E+10	1	-1E+10	1	-1E+10	1
4902624	15	C	11/18/2024	04:35	-127.740	47.105	0	113.40	0	7.5108	0	33.7638	0	26.376	0	112.427	0	111.0	4	37.9	4	-1E+10	1	0.0584	4	0.000331	0	-1E+10	1	-1E+10	1	-1E+10	1
4902624	15	C	11/18/2024	04:35	-127.740	47.105	0	114.40	0	7.5103	0	33.7692	0	26.380	0	113.418	0	110.1	4	37.6	4	-1E+10	1	0.0599	4	0.000365	0	-1E+10	1	-1E+10	1	-1E+10	1
4902624	15	C	11/18/2024	04:35	-127.740	47.105	0	114.90	0	7.5100	0	33.7720	0	26.382	0	113.913	0	-1e10	1	-1e10	1	-1E+10	1	-1e10	1	-1e10	1	-1E+10	1	-1E+10	1	-1E+10	1
4902624	15	C	11/18/2024	04:35	-127.740	47.105	0	115.50	0	7.5149	0	33.7771	0	26.386	0	114.508	0	109.2	4	37.3	4	-1E+10	1	0.0455	4	0.000394	0	-1E+10	1	-1E+10	1	-1E+10	1
4902624	15	C	11/18/2024	04:35	-127.740	47.105	0	116.50	0	7.5230	0	33.7857	0	26.391	0	115.499	0	108.5	4	37.1	4	-1E+10	1	0.0376	4	0.000571	0	-1E+10	1	-1E+10	1	-1E+10	1
4902624	15	C	11/18/2024	04:35	-127.740	47.105	0	117.00	0	7.5270	0	33.7900	0	26.394	0	115.995	0	-1e10	1	-1e10	1	-1E+10	1	-1e10	1	-1e10	1	-1E+10	1	-1E+10	1	-1E+10	1
4902624	15	C	11/18/2024	04:35	-127.740	47.105	0	117.60	0	7.5253	0	33.7940	0	26.397	0	116.590	0	107.8	4	36.9	4	-1E+10	1	0.0438	4	0.001662	0	-1E+10	1	-1E+10	1	-1E+10	1
4902624	15	C	11/18/2024	04:35	-127.740	47.105	0	118.70	0	7.5221	0	33.8013	0	26.404	0	117.680	0	107.3	4	36.7	4	-1E+10	1	0.0511	4	0.000384	0	-1E+10	1	-1E+10	1	-1E+10	1
4902624	15	C	11/18/2024	04:35	-127.740	47.105	0	119.10	0	7.5210	0	33.8040	0	26.406	0	118.076	0	-1e10	1	-1e10	1	-1E+10	1	-1e10	1	-1e10	1	-1E+10	1	-1E+10	1	-1E+10	1
4902624	15	C	11/18/2024	04:35	-127.740	47.105	0	119.70	0	7.5159	0	33.8076	0	26.409	0	118.671	0	106.9	4	36.5	4	-1E+10	1	0.0511	4	0.000394	0	-1E+10	1	-1E+10	1	-1E+10	1
4902624	15	C	11/18/2024	04:35	-127.740	47.105	0	120.80	0	7.5066	0	33.8142	0	26.416	0	119.761	0	106.5	4	36.4	4	-1E+10	1	0.0460	4	0.000371	0	-1E+10	1	-1E+10	1	-1E+10	1
4902624	15	C	11/18/2024	04:35	-127.740	47.105	0	121.10	0	7.5040	0	33.8160	0	26.418	0	120.058	0	-1e10	1	-1e10	1	-1E+10	1	-1e10	1	-1e10	1	-1E+10	1	-1E+10	1	-1E+10	1
4902624	15	C	11/18/2024	04:35	-127.740	47.105	0	121.90	0	7.4998	0	33.8181	0	26.420	0	120.851	0	106.3	4	36.3	4	-1E+10	1	0.0484	4	0.000338	0	-1E+10	1	-1E+10	1	-1E+10	1
4902624	15	C	11/18/2024	04:35	-127.740	47.105	0	122.90	0	7.4945	0	33.8207	0	26.423	0	121.842	0	106.2	4	36.3	4	-1E+10	1	0.0511	4	0.000363	0	-1E+10	1	-1E+10	1	-1E+10	1
4902624	15	C	11/18/2024	04:35	-127.740	47.105	0	123.00	0	7.4940	0	33.8210	0	26.423	0	121.942	0	-1e10	1	-1e10	1	-1E+10	1	-1e10	1	-1e10	1	-1E+10	1	-1E+10	1	-1E+10	1
4902624	15	C	11/18/2024	04:35	-127.740	47.105	0	124.00	0	7.4730	0	33.8250	0	26.429	0	122.933	0	106.0	4	36.2	4	-1E+10	1	0.0511	4	0.000393	0	-1E+10	1	-1E+10	1	-1E+10	1
4902624	15	C	11/18/2024	04:35	-127.740	47.105	0	125.00	0	7.4520	0	33.8290	0	26.435	0	123.924	0	-1e10	1	-1e10	1	-1E+10	1	-1e10	1	-1e10	1	-1E+10	1	-1E+10	1	-1E+10	1
4902624	15	C	11/18/2024	04:35	-127.740	47.105	0	125.10	0	7.4511	0	33.8289	0	26.435	0	124.023	0	105.7	4	36.1	4	-1E+10	1	0.0511	4	0.000371	0	-1E+10	1	-1E+10	1	-1E+10	1
4902624	15	C	11/18/2024	04:35	-127.740	47.105	0	126.20	0	7.4412	0	33.8284	0	26.436	0	125.113	0	105.2	4	35.9	4	-1E+10	1	0.0511	4	0.000415	0	-1E+10	1	-1E+10	1	-1E+10	1
4902624	15	C	11/18/2024	04:35	-127.740	47.105	0	127.00	0	7.4340	0	33.8280	0	26.437	0	125.906	0	-1e10	1	-1e10	1	-1E+10	1	-1e10	1	-1e10	1	-1E+10	1	-1E+10	1	-1E+10	1
4902624	15	C	11/18/2024	04:35	-127.740	47.105	0	127.30	0	7.4286	0	33.8280	0	26.438	0	126.203	0	104.5	4	35.7	4	-1E+10	1	0.0511	4	0.000395	0	-1E+10	1	-1E+10	1	-1E+10	1
4902624	15	C	11/18/2024	04:35	-127.740	47.105	0	128.40	0	7.4089	0	33.8280	0	26.441	0	127.293	0	103.6	4	35.3	4	-1E+10	1	0.0511	4	0.000469	0	-1E+10	1	-1E+10	1	-1E+10	1
4902624	15	C	11/18/2024	04:35	-127.740	47.105	0	128.90	0	7.4000	0	33.8280	0	26.442	0	127.789	0	-1e10	1	-1e10	1	-1E+10	1	-1e10	1	-1e10	1	-1E+10	1	-1E+10	1	-1E+10	1
4902624	15	C	11/18/2024	04:35	-127.740	47.105	0	129.60	0	7.4014	0	33.8304	0	26.444	0	128.483	0	102.5	4	34.9	4	-1E+10	1	0.0511	4	0.000460	0	-1E+10	1	-1E+10	1	-1E+10	1
4902624	15	C	11/18/2024	04:35	-127.740	47.105	0	130.70	0	7.4036	0	33.8343	0	26.446	0	129.573	0	101.7	4	34.7	4	-1E+10	1	0.0511	4	0.000394	0	-1E+10	1	-1E+10	1	-1E+10	1
4902624	15	C	11/18/2024	04:35	-127.740	47.105	0	130.90	0	7.4040	0	33.8350	0	26.447	0	129.771	0	-1e10	1	-1e10	1	-1E+10	1	-1e10	1	-1e10	1	-1E+10	1	-1E+10	1	-1E+10	1
4902624	15	C	11/18/2024	04:35	-127.740	47.105	0	131.90	0	7.3954	0	33.8421	0	26.454	0	130.762	0	101.1	4	34.5	4	-1E+10	1	0.0511	4	0.000442	0	-1E+10	1	-1E+10	1	-1E+10	1
4902624	15	C	11/18/2024	04:35	-127.740	47.105	0	133.00	0	7.3860	0	33.8500	0	26.461	0	131.852	0	98.9	4	33.7	4	-1E+10	1	0.0484	4	0.000465	0	-1E+10	1	-1E+10	1	-1E+10	1
4902624	15	C	11/18/2024	04:35	-127.740	47.105	0	134.10	0	7.3724	0	33.8516	0	26.464	0	132.942	0	100.3	4	34.2	4	-1E+10	1	0.0416	4	0.000357	0	-1E+10	1	-1E+10	1	-1E+10	1
4902624	15	C	11/18/2024	04:35	-127.740	47.105	0	135.10	0	7.3600	0	33.8530	0	26.467	0	133.933	0	-1e10	1	-1e10	1	-1E+10	1	-1e10	1	-1e10	1	-1E+10	1	-1E+10	1	-1E+10	1
4902624	15	C	11/18/2024	04:35	-127.740	47.105	0	135.30	0	7.3559	0	33.8535	0	26.468	0	134.132	0	99.9	4	34.0	4	-1E+10	1	0.0396	4	0.000351	0	-1E+10	1	-1E+10	1	-1E+10	1
4902624	15	C	11/18/2024	04:35	-127.740	47.105	0	136.40	0	7.3333	0	33.8564	0	26.474	0	135.222	0	99.4	4	33.8	4	-1E+10	1	0.0511	4	0.000360	0	-1E+10	1	-1E+10	1	-1E+10	1
4902624	15	C	11/18/2024	04:35	-127.740	47.105	0	137.00	0	7.3210	0	33.8580	0	26.477	0	135.816	0	-1e10	1	-1e10	1	-1E+10	1	-1e10	1	-1e10	1	-1E+10	1	-1E+10	1	-1E+10	1
4902624	15	C	11/18/2024	04:35	-127.740	47.105	0	137.60	0	7.3150	0	33.8586	0	26.478	0	136.411	0	98.7	4	33.6	4	-1E+10	1	0.0511	4	0.000372	0	-1E+10	1	-1E+10	1	-1E+10	1
4902624	15	C	11/18/2024	04:35	-127.740	47.105	0	138.70	0	7.3040	0	33.8598	0	26.481	0	137.501	0	98.0	4	33.4	4	-1E+10	1	0.0511	4	0.000444	0	-1E+10	1	-1E+10	1	-1E+10	1
4902624	15	C	11/18/2024	04:35	-127.740	47.105	0	138.90	0	7.3020	0	33.8600	0	26.481	0	137.699	0	-1e10	1	-1e10	1	-1E+10	1	-1e10	1	-1e10	1	-1E+10	1	-1E+10	1	-1E+10	1
4902624	15	C	11/18/2024	04:35	-127.740	47.105	0	139.90	0	7.3025	0	33.8624	0	26.483	0	138.690	0	97.4	4	33.1	4	-1E+10	1	0.0355	4	0.000388	0	-1E+10	1	-1E+10	1	-1E+10	1
4902624	15	C	11/18/2024	04:35	-127.740	47.105	0	141.00	0	7.3030	0	33.8650	0	26.485	0	139.781	0	95.2	4	32.4	4	-1E+10	1	0.0431	4	0.000345	0	-1E+10	1	-1E+10	1	-1E+10	1
4902624	15	C	11/18/2024	04:35	-127.740	47.105	0	142.10	0	7.3030	0	33.8666	0	26.486	0	140.871	0	96.6	4	32.9	4	-1E+10	1	0.0511	4	0.000342	0	-1E+10	1	-1E+10	1	-1E+10	1
4902624	15	C	11/18/2024	04:35	-127.740	47.105	0	143.10	0	7.3030	0	33.8680	0	26.487	0	141.862	0	-1e10	1	-1e10	1	-1E+10	1	-1e10	1	-1e10	1	-1E+10	1	-1E+10	1	-1E+10	1
4902624	15	C	11/18/2024	04:35	-127.740	47.105	0	143.30	0	7.3027	0	33.8680	0	26.487	0	142.060	0	96.1	4	32.7	4	-1E+10	1	0.0459	4	0.000344	0	-1E+10	1	-1E+10	1	-1E+10	1
4902624	15	C	11/18/2024	04:35	-127.740	47.105	0	144.50	0	7.3008	0	33.8680	0	26.488	0	143.249	0	95.6	4	32.5	4	-1E+10	1	0.0365	4	0.000342	0	-1E+10	1	-1E+10	1	-1E+10	1
4902624	15	C	11/18/2024	04:35	-127.740	47.105	0	145.00	0	7.3000	0	33.8680	0	26.488	0	143.745	0	-1e10	1	-1e10	1	-1E+10	1	-1e10	1	-1e10	1	-1E+10	1	-1E+10	1	-1E+10	1
4902624	15	C	11/18/2024	04:35	-127.740	47.105	0	145.60	0	7.2961	0	33.8689	0	26.489	0	144.339	0	95.0	4	32.3	4	-1E+10	1	0.0386	4	0.000357	0	-1E+10	1	-1E+10	1	-1E+10	1
4902624	15	C	11/18/2024	04:35	-127.740	47.105	0	146.80	0	7.2883	0	33.8707	0	26.491	0	145.528	0	94.3	4	32.1	4	-1E+10	1	0.0511	4	0.000337	0	-1E+10	1	-1E+10	1	-1E+10	1
4902624	15	C	11/18/2024	04:35	-127.740	47.105	0	147.00	0	7.2870	0	33.8710	0	26.492	0	145.727	0	-1e10	1	-1e10	1	-1E+10	1	-1e10	1	-1e10	1	-1E+10	1	-1E+10	1	-1E+10	1
4902624	15	C	11/18/2024	04:35	-127.740	47.105	0	147.90	0	7.2677	0	33.8746	0	26.497	0	146.618	0	93.7	4	31.9	4	-1E+10	1	0.0568	4	0.001185	0	-1E+10	1	-1E+10	1	-1E+10	1
4902624	15	C	11/18/2024	04:35	-127.740	47.105	0	149.00	0	7.2440	0	33.8790	0	26.504	0	147.709	0	-1e10	1	-1e10	1	-1E+10	1	-1e10	1	-1e10	1	-1E+10	1	-1E+10	1	-1E+10	1
4902624	15	C	11/18/2024	04:35	-127.740	47.105	0	149.10	0	7.2420	0	33.8792	0	26.505	0	147.808	0	93.3	4	31.7	4	-1E+10	1	0.0465	4	0.000581	0	-1E+10	1	-1E+10	1	-1E+10	1
4902624	15	C	11/18/2024	04:35	-127.740	47.105	0	150.30	0	7.2174	0	33.8822	0	26.510	0	148.997	0	92.8	4	31.5	4	-1E+10	1	0.0389	4	0.000372	0	-1E+10	1	-1E+10	1	-1E+10	1
4902624	15	C	11/18/2024	04:35	-127.740	47.105	0	151.00	0	7.2030	0	33.8840	0	26.514	0	149.690	0	-1e10	1	-1e10	1	-1E+10	1	-1e10	1	-1e10	1	-1E+10	1	-1E+10	1	-1E+10	1
4902624	15	C	11/18/2024	04:35	-127.740	47.105	0	151.50	0	7.1988	0	33.8845	0	26.515	0	150.186	0	92.3	4	31.3	4	-1E+10	1	0.0438	4	0.000389	0	-1E+10	1	-1E+10	1	-1E+10	1
4902624	15	C	11/18/2024	04:35	-127.740	47.105	0	152.60	0	7.1894	0	33.8856	0	26.517	0	151.276	0	91.9	4	31.2	4	-1E+10	1	0.0511	4	0.000414	0	-1E+10	1	-1E+10	1	-1E+10	1
4902624	15	C	11/18/2024	04:35	-127.740	47.105	0	153.00	0	7.1860	0	33.8860	0	26.518	0	151.672	0	-1e10	1	-1e10	1	-1E+10	1	-1e10	1	-1e10	1	-1E+10	1	-1E+10	1	-1E+10	1
4902624	15	C	11/18/2024	04:35	-127.740	47.105	0	153.80	0	7.1808	0	33.8872	0	26.519	0	152.465	0	91.6	4	31.1	4	-1E+10	1	0.0485	4	0.000399	0	-1E+10	1	-1E+10	1	-1E+10	1
4902624	15	C	11/18/2024	04:35	-127.740	47.105	0	154.90	0	7.1736	0	33.8889	0	26.522	0	153.555	0	91.2	4	31.0	4	-1E+10	1	0.0438	4	0.000377	0	-1E+10	1	-1E+10	1	-1E+10	1
4902624	15	C	11/18/2024	04:35	-127.740	47.105	0	155.00	0	7.1730	0	33.8890	0	26.522	0	153.654	0	-1e10	1	-1e10	1	-1E+10	1	-1e10	1	-1e10	1	-1E+10	1	-1E+10	1	-1E+10	1
4902624	15	C	11/18/2024	04:35	-127.740	47.105	0	156.10	0	7.1637	0	33.8895	0	26.524	0	154.744	0	90.8	4	30.8	4	-1E+10	1	0.0438	4	0.000336	0	-1E+10	1	-1E+10	1	-1E+10	1
4902624	15	C	11/18/2024	04:35	-127.740	47.105	0	157.00	0	7.1560	0	33.8900	0	26.525	0	155.636	0	-1e10	1	-1e10	1	-1E+10	1	-1e10	1	-1e10	1	-1E+10	1	-1E+10	1	-1E+10	1
4902624	15	C	11/18/2024	04:35	-127.740	47.105	0	157.30	0	7.1544	0	33.8903	0	26.526	0	155.933	0	90.5	4	30.7	4	-1E+10	1	0.0584	4	0.000383	0	-1E+10	1	-1E+10	1	-1E+10	1
4902624	15	C	11/18/2024	04:35	-127.740	47.105	0	158.50	0	7.1477	0	33.8915	0	26.527	0	157.123	0	90.1	4	30.6	4	-1E+10	1	0.0584	4	0.000363	0	-1E+10	1	-1E+10	1	-1E+10	1
4902624	15	C	11/18/2024	04:35	-127.740	47.105	0	159.00	0	7.1450	0	33.8920	0	26.528	0	157.618	0	-1e10	1	-1e10	1	-1E+10	1	-1e10	1	-1e10	1	-1E+10	1	-1E+10	1	-1E+10	1
4902624	15	C	11/18/2024	04:35	-127.740	47.105	0	159.60	0	7.1414	0	33.8923	0	26.529	0	158.213	0	89.7	4	30.4	4	-1E+10	1	0.0443	4	0.000330	0	-1E+10	1	-1E+10	1	-1E+10	1
4902624	15	C	11/18/2024	04:35	-127.740	47.105	0	160.80	0	7.1342	0	33.8929	0	26.531	0	159.402	0	89.3	4	30.3	4	-1E+10	1	0.0535	4	0.000361	0	-1E+10	1	-1E+10	1	-1E+10	1
4902624	15	C	11/18/2024	04:35	-127.740	47.105	0	161.00	0	7.1330	0	33.8930	0	26.531	0	159.600	0	-1e10	1	-1e10	1	-1E+10	1	-1e10	1	-1e10	1	-1E+10	1	-1E+10	1	-1E+10	1
4902624	15	C	11/18/2024	04:35	-127.740	47.105	0	161.90	0	7.1262	0	33.8939	0	26.532	0	160.492	0	88.9	4	30.1	4	-1E+10	1	0.0617	4	0.000408	0	-1E+10	1	-1E+10	1	-1E+10	1
4902624	15	C	11/18/2024	04:35	-127.740	47.105	0	163.00	0	7.1180	0	33.8950	0	26.534	0	161.582	0	-1e10	1	-1e10	1	-1E+10	1	-1e10	1	-1e10	1	-1E+10	1	-1E+10	1	-1E+10	1
4902624	15	C	11/18/2024	04:35	-127.740	47.105	0	163.10	0	7.1161	0	33.8953	0	26.535	0	161.681	0	88.3	4	29.9	4	-1E+10	1	0.0584	4	0.000419	0	-1E+10	1	-1E+10	1	-1E+10	1
4902624	15	C	11/18/2024	04:35	-127.740	47.105	0	164.30	0	7.0939	0	33.8983	0	26.540	0	162.870	0	87.8	4	29.7	4	-1E+10	1	0.0584	4	0.000400	0	-1E+10	1	-1E+10	1	-1E+10	1
4902624	15	C	11/18/2024	04:35	-127.740	47.105	0	165.00	0	7.0810	0	33.9000	0	26.543	0	163.563	0	-1e10	1	-1e10	1	-1E+10	1	-1e10	1	-1e10	1	-1E+10	1	-1E+10	1	-1E+10	1
4902624	15	C	11/18/2024	04:35	-127.740	47.105	0	165.50	0	7.0773	0	33.9007	0	26.545	0	164.059	0	87.3	4	29.6	4	-1E+10	1	0.0558	4	0.000508	0	-1E+10	1	-1E+10	1	-1E+10	1
4902624	15	C	11/18/2024	04:35	-127.740	47.105	0	166.60	0	7.0690	0	33.9024	0	26.547	0	165.149	0	86.8	4	29.4	4	-1E+10	1	0.0521	4	0.000695	0	-1E+10	1	-1E+10	1	-1E+10	1
4902624	15	C	11/18/2024	04:35	-127.740	47.105	0	167.00	0	7.0660	0	33.9030	0	26.548	0	165.545	0	-1e10	1	-1e10	1	-1E+10	1	-1e10	1	-1e10	1	-1E+10	1	-1E+10	1	-1E+10	1
4902624	15	C	11/18/2024	04:35	-127.740	47.105	0	167.80	0	7.0636	0	33.9030	0	26.548	0	166.338	0	86.3	4	29.2	4	-1E+10	1	0.0584	4	0.000383	0	-1E+10	1	-1E+10	1	-1E+10	1
4902624	15	C	11/18/2024	04:35	-127.740	47.105	0	169.00	0	7.0600	0	33.9030	0	26.549	0	167.527	0	84.1	4	28.5	4	-1E+10	1	0.0511	4	0.000433	0	-1E+10	1	-1E+10	1	-1E+10	1
4902624	15	C	11/18/2024	04:35	-127.740	47.105	0	170.20	0	7.0456	0	33.9066	0	26.554	0	168.716	0	85.1	4	28.8	4	-1E+10	1	0.0448	4	0.000400	0	-1E+10	1	-1E+10	1	-1E+10	1
4902624	15	C	11/18/2024	04:35	-127.740	47.105	0	171.00	0	7.0360	0	33.9090	0	26.557	0	169.509	0	-1e10	1	-1e10	1	-1E+10	1	-1e10	1	-1e10	1	-1E+10	1	-1E+10	1	-1E+10	1
4902624	15	C	11/18/2024	04:35	-127.740	47.105	0	171.40	0	7.0286	0	33.9096	0	26.558	0	169.905	0	84.5	4	28.6	4	-1E+10	1	0.0490	4	0.000412	0	-1E+10	1	-1E+10	1	-1E+10	1
4902624	15	C	11/18/2024	04:35	-127.740	47.105	0	172.50	0	7.0083	0	33.9112	0	26.562	0	170.995	0	84.1	4	28.4	4	-1E+10	1	0.0468	4	0.000379	0	-1E+10	1	-1E+10	1	-1E+10	1
4902624	15	C	11/18/2024	04:35	-127.740	47.105	0	173.00	0	6.9990	0	33.9120	0	26.564	0	171.491	0	-1e10	1	-1e10	1	-1E+10	1	-1e10	1	-1e10	1	-1E+10	1	-1E+10	1	-1E+10	1
4902624	15	C	11/18/2024	04:35	-127.740	47.105	0	173.70	0	6.9917	0	33.9123	0	26.566	0	172.184	0	83.4	4	28.2	4	-1E+10	1	0.0474	4	0.000355	0	-1E+10	1	-1E+10	1	-1E+10	1
4902624	15	C	11/18/2024	04:35	-127.740	47.105	0	174.90	0	6.9791	0	33.9129	0	26.568	0	173.373	0	82.7	4	28.0	4	-1E+10	1	0.0485	4	0.000351	0	-1E+10	1	-1E+10	1	-1E+10	1
4902624	15	C	11/18/2024	04:35	-127.740	47.105	0	175.00	0	6.9780	0	33.9130	0	26.568	0	173.472	0	-1e10	1	-1e10	1	-1E+10	1	-1e10	1	-1e10	1	-1E+10	1	-1E+10	1	-1E+10	1
4902624	15	C	11/18/2024	04:35	-127.740	47.105	0	176.10	0	6.9711	0	33.9147	0	26.570	0	174.562	0	82.0	4	27.7	4	-1E+10	1	0.0456	4	0.000348	0	-1E+10	1	-1E+10	1	-1E+10	1
4902624	15	C	11/18/2024	04:35	-127.740	47.105	0	176.90	0	6.9660	0	33.9160	0	26.572	0	175.355	0	-1e10	1	-1e10	1	-1E+10	1	-1e10	1	-1e10	1	-1E+10	1	-1E+10	1	-1E+10	1
4902624	15	C	11/18/2024	04:35	-127.740	47.105	0	177.30	0	6.9603	0	33.9173	0	26.574	0	175.751	0	81.2	4	27.4	4	-1E+10	1	0.0496	4	0.000369	0	-1E+10	1	-1E+10	1	-1E+10	1
4902624	15	C	11/18/2024	04:35	-127.740	47.105	0	178.50	0	6.9431	0	33.9213	0	26.579	0	176.940	0	80.5	4	27.2	4	-1E+10	1	0.0438	4	0.000313	0	-1E+10	1	-1E+10	1	-1E+10	1
4902624	15	C	11/18/2024	04:35	-127.740	47.105	0	179.00	0	6.9360	0	33.9230	0	26.582	0	177.436	0	-1e10	1	-1e10	1	-1E+10	1	-1e10	1	-1e10	1	-1E+10	1	-1E+10	1	-1E+10	1
4902624	15	C	11/18/2024	04:35	-127.740	47.105	0	179.70	0	6.9325	0	33.9248	0	26.583	0	178.129	0	80.0	4	27.0	4	-1E+10	1	0.0496	4	0.000360	0	-1E+10	1	-1E+10	1	-1E+10	1
4902624	15	C	11/18/2024	04:35	-127.740	47.105	0	180.90	0	6.9265	0	33.9277	0	26.587	0	179.318	0	79.6	4	26.9	4	-1E+10	1	0.0511	4	0.000362	0	-1E+10	1	-1E+10	1	-1E+10	1
4902624	15	C	11/18/2024	04:35	-127.740	47.105	0	181.00	0	6.9260	0	33.9280	0	26.587	0	179.417	0	-1e10	1	-1e10	1	-1E+10	1	-1e10	1	-1e10	1	-1E+10	1	-1E+10	1	-1E+10	1
4902624	15	C	11/18/2024	04:35	-127.740	47.105	0	182.10	0	6.9172	0	33.9296	0	26.589	0	180.507	0	79.1	4	26.7	4	-1E+10	1	0.0511	4	0.000344	0	-1E+10	1	-1E+10	1	-1E+10	1
4902624	15	C	11/18/2024	04:35	-127.740	47.105	0	183.00	0	6.9100	0	33.9310	0	26.591	0	181.399	0	-1e10	1	-1e10	1	-1E+10	1	-1e10	1	-1e10	1	-1E+10	1	-1E+10	1	-1E+10	1
4902624	15	C	11/18/2024	04:35	-127.740	47.105	0	183.30	0	6.9042	0	33.9319	0	26.593	0	181.696	0	78.9	4	26.6	4	-1E+10	1	0.0511	4	0.000391	0	-1E+10	1	-1E+10	1	-1E+10	1
4902624	15	C	11/18/2024	04:35	-127.740	47.105	0	184.50	0	6.8808	0	33.9357	0	26.599	0	182.885	0	78.7	4	26.5	4	-1E+10	1	0.0560	4	0.000422	0	-1E+10	1	-1E+10	1	-1E+10	1
4902624	15	C	11/18/2024	04:35	-127.740	47.105	0	184.90	0	6.8730	0	33.9370	0	26.601	0	183.281	0	-1e10	1	-1e10	1	-1E+10	1	-1e10	1	-1e10	1	-1E+10	1	-1E+10	1	-1E+10	1
4902624	15	C	11/18/2024	04:35	-127.740	47.105	0	185.80	0	6.8571	0	33.9357	0	26.602	0	184.173	0	78.4	4	26.4	4	-1E+10	1	0.0608	4	0.000356	0	-1E+10	1	-1E+10	1	-1E+10	1
4902624	15	C	11/18/2024	04:35	-127.740	47.105	0	187.00	0	6.8360	0	33.9340	0	26.604	0	185.362	0	76.6	4	25.8	4	-1E+10	1	0.0490	4	0.000351	0	-1E+10	1	-1E+10	1	-1E+10	1
4902624	15	C	11/18/2024	04:35	-127.740	47.105	0	188.20	0	6.8297	0	33.9346	0	26.605	0	186.551	0	77.7	4	26.2	4	-1E+10	1	0.0365	4	0.000371	0	-1E+10	1	-1E+10	1	-1E+10	1
4902624	15	C	11/18/2024	04:35	-127.740	47.105	0	189.10	0	6.8250	0	33.9350	0	26.606	0	187.443	0	-1e10	1	-1e10	1	-1E+10	1	-1e10	1	-1e10	1	-1E+10	1	-1E+10	1	-1E+10	1
4902624	15	C	11/18/2024	04:35	-127.740	47.105	0	189.40	0	6.8231	0	33.9350	0	26.606	0	187.740	0	77.5	4	26.1	4	-1E+10	1	0.0511	4	0.000348	0	-1E+10	1	-1E+10	1	-1E+10	1
4902624	15	C	11/18/2024	04:35	-127.740	47.105	0	190.60	0	6.8155	0	33.9350	0	26.607	0	188.929	0	77.2	4	26.0	4	-1E+10	1	0.0569	4	0.000507	0	-1E+10	1	-1E+10	1	-1E+10	1
4902624	15	C	11/18/2024	04:35	-127.740	47.105	0	191.00	0	6.8130	0	33.9350	0	26.608	0	189.325	0	-1e10	1	-1e10	1	-1E+10	1	-1e10	1	-1e10	1	-1E+10	1	-1E+10	1	-1E+10	1
4902624	15	C	11/18/2024	04:35	-127.740	47.105	0	191.90	0	6.8139	0	33.9364	0	26.609	0	190.217	0	77.1	4	25.9	4	-1E+10	1	0.0487	4	0.000461	0	-1E+10	1	-1E+10	1	-1E+10	1
4902624	15	C	11/18/2024	04:35	-127.740	47.105	0	193.00	0	6.8150	0	33.9380	0	26.610	0	191.307	0	-1e10	1	-1e10	1	-1E+10	1	-1e10	1	-1e10	1	-1E+10	1	-1E+10	1	-1E+10	1
4902624	15	C	11/18/2024	04:35	-127.740	47.105	0	193.10	0	6.8140	0	33.9380	0	26.610	0	191.406	0	76.9	4	25.9	4	-1E+10	1	0.0481	4	0.000364	0	-1E+10	1	-1E+10	1	-1E+10	1
4902624	15	C	11/18/2024	04:35	-127.740	47.105	0	194.40	0	6.8003	0	33.9373	0	26.611	0	192.694	0	76.7	4	25.8	4	-1E+10	1	0.0589	4	0.000331	0	-1E+10	1	-1E+10	1	-1E+10	1
4902624	15	C	11/18/2024	04:35	-127.740	47.105	0	195.00	0	6.7940	0	33.9370	0	26.612	0	193.288	0	-1e10	1	-1e10	1	-1E+10	1	-1e10	1	-1e10	1	-1E+10	1	-1E+10	1	-1E+10	1
4902624	15	C	11/18/2024	04:35	-127.740	47.105	0	195.60	0	6.7931	0	33.9376	0	26.613	0	193.883	0	76.5	4	25.8	4	-1E+10	1	0.0584	4	0.000371	0	-1E+10	1	-1E+10	1	-1E+10	1
4902624	15	C	11/18/2024	04:35	-127.740	47.105	0	196.80	0	6.7912	0	33.9389	0	26.614	0	195.072	0	76.4	4	25.7	4	-1E+10	1	0.0438	4	0.000428	0	-1E+10	1	-1E+10	1	-1E+10	1
4902624	15	C	11/18/2024	04:35	-127.740	47.105	0	196.90	0	6.7910	0	33.9390	0	26.614	0	195.171	0	-1e10	1	-1e10	1	-1E+10	1	-1e10	1	-1e10	1	-1E+10	1	-1E+10	1	-1E+10	1
4902624	15	C	11/18/2024	04:35	-127.740	47.105	0	198.00	0	6.7729	0	33.9407	0	26.618	0	196.261	0	76.2	4	25.6	4	-1E+10	1	0.0438	4	0.000358	0	-1E+10	1	-1E+10	1	-1E+10	1
4902624	15	C	11/18/2024	04:35	-127.740	47.105	0	198.90	0	6.7580	0	33.9420	0	26.621	0	197.152	0	-1e10	1	-1e10	1	-1E+10	1	-1e10	1	-1e10	1	-1E+10	1	-1E+10	1	-1E+10	1
4902624	15	C	11/18/2024	04:35	-127.740	47.105	0	199.30	0	6.7544	0	33.9420	0	26.621	0	197.548	0	76.0	4	25.6	4	-1E+10	1	0.0438	4	0.000348	0	-1E+10	1	-1E+10	1	-1E+10	1
4902624	15	C	11/18/2024	04:35	-127.740	47.105	0	200.60	0	6.7426	0	33.9420	0	26.623	0	198.836	0	76.0	4	25.5	4	-1E+10	1	0.0628	4	0.000358	0	-1E+10	1	-1E+10	1	-1E+10	1
4902624	15	C	11/18/2024	04:35	-127.740	47.105	0	201.00	0	6.7390	0	33.9420	0	26.623	0	199.233	0	-1e10	1	-1e10	1	-1E+10	1	-1e10	1	-1e10	1	-1E+10	1	-1E+10	1	-1E+10	1
4902624	15	C	11/18/2024	04:35	-127.740	47.105	0	201.90	0	6.7381	0	33.9420	0	26.623	0	200.124	0	75.9	4	25.5	4	-1E+10	1	0.0472	4	0.000300	0	-1E+10	1	-1E+10	1	-1E+10	1
4902624	15	C	11/18/2024	04:35	-127.740	47.105	0	203.00	0	6.7370	0	33.9420	0	26.624	0	201.214	0	-1e10	1	-1e10	1	-1E+10	1	-1e10	1	-1e10	1	-1E+10	1	-1E+10	1	-1E+10	1
4902624	15	C	11/18/2024	04:35	-127.740	47.105	0	203.10	0	6.7366	0	33.9421	0	26.624	0	201.313	0	75.8	4	25.5	4	-1E+10	1	0.0487	4	0.000313	0	-1E+10	1	-1E+10	1	-1E+10	1
4902624	15	C	11/18/2024	04:35	-127.740	47.105	0	204.30	0	6.7325	0	33.9426	0	26.625	0	202.502	0	75.7	4	25.4	4	-1E+10	1	0.0477	4	0.000319	0	-1E+10	1	-1E+10	1	-1E+10	1
4902624	15	C	11/18/2024	04:35	-127.740	47.105	0	205.00	0	6.7300	0	33.9430	0	26.625	0	203.196	0	-1e10	1	-1e10	1	-1E+10	1	-1e10	1	-1e10	1	-1E+10	1	-1E+10	1	-1E+10	1
4902624	15	C	11/18/2024	04:35	-127.740	47.105	0	205.50	0	6.7268	0	33.9430	0	26.626	0	203.691	0	75.6	4	25.4	4	-1E+10	1	0.0411	4	0.000325	0	-1E+10	1	-1E+10	1	-1E+10	1
4902624	15	C	11/18/2024	04:35	-127.740	47.105	0	206.50	0	6.7205	0	33.9430	0	26.627	0	204.682	0	75.4	4	25.3	4	-1E+10	1	0.0405	4	0.000367	0	-1E+10	1	-1E+10	1	-1E+10	1
4902624	15	C	11/18/2024	04:35	-127.740	47.105	0	206.90	0	6.7180	0	33.9430	0	26.627	0	205.078	0	-1e10	1	-1e10	1	-1E+10	1	-1e10	1	-1e10	1	-1E+10	1	-1E+10	1	-1E+10	1
4902624	15	C	11/18/2024	04:35	-127.740	47.105	0	207.40	0	6.7155	0	33.9430	0	26.627	0	205.573	0	75.2	4	25.3	4	-1E+10	1	0.0511	4	0.000543	0	-1E+10	1	-1E+10	1	-1E+10	1
4902624	15	C	11/18/2024	04:35	-127.740	47.105	0	208.20	0	6.7115	0	33.9430	0	26.628	0	206.366	0	74.9	4	25.2	4	-1E+10	1	0.0511	4	0.001544	0	-1E+10	1	-1E+10	1	-1E+10	1
4902624	15	C	11/18/2024	04:35	-127.740	47.105	0	208.90	0	6.7080	0	33.9430	0	26.628	0	207.059	0	-1e10	1	-1e10	1	-1E+10	1	-1e10	1	-1e10	1	-1E+10	1	-1E+10	1	-1E+10	1
4902624	15	C	11/18/2024	04:35	-127.740	47.105	0	209.00	0	6.7074	0	33.9431	0	26.628	0	207.158	0	74.7	4	25.1	4	-1E+10	1	0.0657	4	0.000395	0	-1E+10	1	-1E+10	1	-1E+10	1
4902624	15	C	11/18/2024	04:35	-127.740	47.105	0	209.80	0	6.7029	0	33.9439	0	26.630	0	207.951	0	74.4	4	25.0	4	-1E+10	1	0.0527	4	0.000874	0	-1E+10	1	-1E+10	1	-1E+10	1
4902624	15	C	11/18/2024	04:35	-127.740	47.105	0	210.60	0	6.6983	0	33.9446	0	26.631	0	208.743	0	74.2	4	24.9	4	-1E+10	1	0.0511	4	0.000532	0	-1E+10	1	-1E+10	1	-1E+10	1
4902624	15	C	11/18/2024	04:35	-127.740	47.105	0	211.00	0	6.6960	0	33.9450	0	26.632	0	209.140	0	-1e10	1	-1e10	1	-1E+10	1	-1e10	1	-1e10	1	-1E+10	1	-1E+10	1	-1E+10	1
4902624	15	C	11/18/2024	04:35	-127.740	47.105	0	211.40	0	6.6924	0	33.9452	0	26.632	0	209.536	0	73.9	4	24.8	4	-1E+10	1	0.0465	4	0.000345	0	-1E+10	1	-1E+10	1	-1E+10	1
4902624	15	C	11/18/2024	04:35	-127.740	47.105	0	212.10	0	6.6861	0	33.9455	0	26.633	0	210.229	0	73.6	4	24.7	4	-1E+10	1	0.0470	4	0.000341	0	-1E+10	1	-1E+10	1	-1E+10	1
4902624	15	C	11/18/2024	04:35	-127.740	47.105	0	212.90	0	6.6789	0	33.9459	0	26.635	0	211.022	0	73.4	4	24.6	4	-1E+10	1	0.0511	4	0.000379	0	-1E+10	1	-1E+10	1	-1E+10	1
4902624	15	C	11/18/2024	04:35	-127.740	47.105	0	213.00	0	6.6780	0	33.9460	0	26.635	0	211.121	0	-1e10	1	-1e10	1	-1E+10	1	-1e10	1	-1e10	1	-1E+10	1	-1E+10	1	-1E+10	1
4902624	15	C	11/18/2024	04:35	-127.740	47.105	0	213.70	0	6.6717	0	33.9467	0	26.636	0	211.815	0	73.2	4	24.6	4	-1E+10	1	0.0493	4	0.000436	0	-1E+10	1	-1E+10	1	-1E+10	1
4902624	15	C	11/18/2024	04:35	-127.740	47.105	0	214.50	0	6.6646	0	33.9476	0	26.638	0	212.607	0	72.9	4	24.5	4	-1E+10	1	0.0381	4	0.000319	0	-1E+10	1	-1E+10	1	-1E+10	1
4902624	15	C	11/18/2024	04:35	-127.740	47.105	0	214.90	0	6.6610	0	33.9480	0	26.639	0	213.003	0	-1e10	1	-1e10	1	-1E+10	1	-1e10	1	-1e10	1	-1E+10	1	-1E+10	1	-1E+10	1
4902624	15	C	11/18/2024	04:35	-127.740	47.105	0	215.30	0	6.6578	0	33.9484	0	26.639	0	213.400	0	72.7	4	24.4	4	-1E+10	1	0.0511	4	0.000371	0	-1E+10	1	-1E+10	1	-1E+10	1
4902624	15	C	11/18/2024	04:35	-127.740	47.105	0	216.20	0	6.6505	0	33.9492	0	26.641	0	214.291	0	72.4	4	24.3	4	-1E+10	1	0.0438	4	0.000359	0	-1E+10	1	-1E+10	1	-1E+10	1
4902624	15	C	11/18/2024	04:35	-127.740	47.105	0	216.90	0	6.6448	0	33.9499	0	26.642	0	214.985	0	72.2	4	24.2	4	-1E+10	1	0.0502	4	0.000290	0	-1E+10	1	-1E+10	1	-1E+10	1
4902624	15	C	11/18/2024	04:35	-127.740	47.105	0	217.00	0	6.6440	0	33.9500	0	26.642	0	215.084	0	-1e10	1	-1e10	1	-1E+10	1	-1e10	1	-1e10	1	-1E+10	1	-1E+10	1	-1E+10	1
4902624	15	C	11/18/2024	04:35	-127.740	47.105	0	217.60	0	6.6389	0	33.9509	0	26.644	0	215.678	0	72.0	4	24.1	4	-1E+10	1	0.0511	4	0.000405	0	-1E+10	1	-1E+10	1	-1E+10	1
4902624	15	C	11/18/2024	04:35	-127.740	47.105	0	218.40	0	6.6320	0	33.9520	0	26.646	0	216.471	0	71.8	4	24.1	4	-1E+10	1	0.0479	4	0.000426	0	-1E+10	1	-1E+10	1	-1E+10	1
4902624	15	C	11/18/2024	04:35	-127.740	47.105	0	219.10	0	6.6260	0	33.9530	0	26.647	0	217.164	0	-1e10	1	-1e10	1	-1E+10	1	-1e10	1	-1e10	1	-1E+10	1	-1E+10	1	-1E+10	1
4902624	15	C	11/18/2024	04:35	-127.740	47.105	0	219.20	0	6.6253	0	33.9531	0	26.647	0	217.263	0	71.6	4	24.0	4	-1E+10	1	0.0438	4	0.000370	0	-1E+10	1	-1E+10	1	-1E+10	1
4902624	15	C	11/18/2024	04:35	-127.740	47.105	0	220.00	0	6.6194	0	33.9535	0	26.648	0	218.056	0	71.5	4	24.0	4	-1E+10	1	0.0504	4	0.000392	0	-1E+10	1	-1E+10	1	-1E+10	1
4902624	15	C	11/18/2024	04:35	-127.740	47.105	0	220.80	0	6.6135	0	33.9539	0	26.650	0	218.848	0	71.3	4	23.9	4	-1E+10	1	0.0665	4	0.000358	0	-1E+10	1	-1E+10	1	-1E+10	1
4902624	15	C	11/18/2024	04:35	-127.740	47.105	0	221.00	0	6.6120	0	33.9540	0	26.650	0	219.046	0	-1e10	1	-1e10	1	-1E+10	1	-1e10	1	-1e10	1	-1E+10	1	-1E+10	1	-1E+10	1
4902624	15	C	11/18/2024	04:35	-127.740	47.105	0	221.60	0	6.6057	0	33.9546	0	26.651	0	219.641	0	71.2	4	23.9	4	-1E+10	1	0.0730	4	0.000348	0	-1E+10	1	-1E+10	1	-1E+10	1
4902624	15	C	11/18/2024	04:35	-127.740	47.105	0	222.40	0	6.5973	0	33.9554	0	26.653	0	220.433	0	71.1	4	23.8	4	-1E+10	1	0.0511	4	0.000371	0	-1E+10	1	-1E+10	1	-1E+10	1
4902624	15	C	11/18/2024	04:35	-127.740	47.105	0	223.00	0	6.5910	0	33.9560	0	26.654	0	221.028	0	-1e10	1	-1e10	1	-1E+10	1	-1e10	1	-1e10	1	-1E+10	1	-1E+10	1	-1E+10	1
4902624	15	C	11/18/2024	04:35	-127.740	47.105	0	223.20	0	6.5887	0	33.9558	0	26.654	0	221.226	0	71.1	4	23.8	4	-1E+10	1	0.0569	4	0.000334	0	-1E+10	1	-1E+10	1	-1E+10	1
4902624	15	C	11/18/2024	04:35	-127.740	47.105	0	224.00	0	6.5795	0	33.9550	0	26.655	0	222.018	0	71.1	4	23.8	4	-1E+10	1	0.0584	4	0.001607	0	-1E+10	1	-1E+10	1	-1E+10	1
4902624	15	C	11/18/2024	04:35	-127.740	47.105	0	224.80	0	6.5703	0	33.9542	0	26.656	0	222.811	0	71.0	4	23.8	4	-1E+10	1	0.0543	4	0.001192	0	-1E+10	1	-1E+10	1	-1E+10	1
4902624	15	C	11/18/2024	04:35	-127.740	47.105	0	225.00	0	6.5680	0	33.9540	0	26.656	0	223.009	0	-1e10	1	-1e10	1	-1E+10	1	-1e10	1	-1e10	1	-1E+10	1	-1E+10	1	-1E+10	1
4902624	15	C	11/18/2024	04:35	-127.740	47.105	0	225.60	0	6.5623	0	33.9540	0	26.657	0	223.603	0	71.0	4	23.8	4	-1E+10	1	0.0576	4	0.000348	0	-1E+10	1	-1E+10	1	-1E+10	1
4902624	15	C	11/18/2024	04:35	-127.740	47.105	0	226.50	0	6.5537	0	33.9540	0	26.658	0	224.495	0	70.8	4	23.7	4	-1E+10	1	0.0628	4	0.000363	0	-1E+10	1	-1E+10	1	-1E+10	1
4902624	15	C	11/18/2024	04:35	-127.740	47.105	0	227.10	0	6.5480	0	33.9540	0	26.658	0	225.089	0	-1e10	1	-1e10	1	-1E+10	1	-1e10	1	-1e10	1	-1E+10	1	-1E+10	1	-1E+10	1
4902624	15	C	11/18/2024	04:35	-127.740	47.105	0	227.30	0	6.5458	0	33.9540	0	26.659	0	225.287	0	70.7	4	23.7	4	-1E+10	1	0.0584	4	0.000370	0	-1E+10	1	-1E+10	1	-1E+10	1
4902624	15	C	11/18/2024	04:35	-127.740	47.105	0	228.10	0	6.5369	0	33.9540	0	26.660	0	226.080	0	70.5	4	23.6	4	-1E+10	1	0.0552	4	0.000327	0	-1E+10	1	-1E+10	1	-1E+10	1
4902624	15	C	11/18/2024	04:35	-127.740	47.105	0	228.90	0	6.5281	0	33.9540	0	26.661	0	226.872	0	70.3	4	23.5	4	-1E+10	1	0.0467	4	0.000338	0	-1E+10	1	-1E+10	1	-1E+10	1
4902624	15	C	11/18/2024	04:35	-127.740	47.105	0	229.00	0	6.5270	0	33.9540	0	26.661	0	226.971	0	-1e10	1	-1e10	1	-1E+10	1	-1e10	1	-1e10	1	-1E+10	1	-1E+10	1	-1E+10	1
4902624	15	C	11/18/2024	04:35	-127.740	47.105	0	229.80	0	6.5148	0	33.9527	0	26.662	0	227.764	0	70.1	4	23.4	4	-1E+10	1	0.0730	4	0.000359	0	-1E+10	1	-1E+10	1	-1E+10	1
4902624	15	C	11/18/2024	04:35	-127.740	47.105	0	230.60	0	6.5026	0	33.9515	0	26.662	0	228.556	0	69.9	4	23.4	4	-1E+10	1	0.0438	4	0.000324	0	-1E+10	1	-1E+10	1	-1E+10	1
4902624	15	C	11/18/2024	04:35	-127.740	47.105	0	230.90	0	6.4980	0	33.9510	0	26.663	0	228.853	0	-1e10	1	-1e10	1	-1E+10	1	-1e10	1	-1e10	1	-1E+10	1	-1E+10	1	-1E+10	1
4902624	15	C	11/18/2024	04:35	-127.740	47.105	0	231.40	0	6.4947	0	33.9520	0	26.664	0	229.349	0	69.7	4	23.3	4	-1E+10	1	0.0496	4	0.000362	0	-1E+10	1	-1E+10	1	-1E+10	1
4902624	15	C	11/18/2024	04:35	-127.740	47.105	0	232.30	0	6.4887	0	33.9537	0	26.666	0	230.240	0	69.5	4	23.2	4	-1E+10	1	0.0562	4	0.000355	0	-1E+10	1	-1E+10	1	-1E+10	1
4902624	15	C	11/18/2024	04:35	-127.740	47.105	0	233.00	0	6.4840	0	33.9550	0	26.668	0	230.934	0	-1e10	1	-1e10	1	-1E+10	1	-1e10	1	-1e10	1	-1E+10	1	-1E+10	1	-1E+10	1
4902624	15	C	11/18/2024	04:35	-127.740	47.105	0	233.10	0	6.4821	0	33.9551	0	26.668	0	231.033	0	69.5	4	23.2	4	-1E+10	1	0.0538	4	0.000355	0	-1E+10	1	-1E+10	1	-1E+10	1
4902624	15	C	11/18/2024	04:35	-127.740	47.105	0	233.90	0	6.4673	0	33.9563	0	26.671	0	231.825	0	69.3	4	23.2	4	-1E+10	1	0.0548	4	0.000348	0	-1E+10	1	-1E+10	1	-1E+10	1
4902624	15	C	11/18/2024	04:35	-127.740	47.105	0	234.80	0	6.4506	0	33.9576	0	26.674	0	232.717	0	69.2	4	23.1	4	-1E+10	1	0.0557	4	0.000336	0	-1E+10	1	-1E+10	1	-1E+10	1
4902624	15	C	11/18/2024	04:35	-127.740	47.105	0	235.10	0	6.4450	0	33.9580	0	26.675	0	233.014	0	-1e10	1	-1e10	1	-1E+10	1	-1e10	1	-1e10	1	-1E+10	1	-1E+10	1	-1E+10	1
4902624	15	C	11/18/2024	04:35	-127.740	47.105	0	235.60	0	6.4347	0	33.9577	0	26.676	0	233.509	0	69.1	4	23.1	4	-1E+10	1	0.0511	4	0.000336	0	-1E+10	1	-1E+10	1	-1E+10	1
4902624	15	C	11/18/2024	04:35	-127.740	47.105	0	236.50	0	6.4163	0	33.9573	0	26.678	0	234.400	0	68.9	4	23.0	4	-1E+10	1	0.0496	4	0.000340	0	-1E+10	1	-1E+10	1	-1E+10	1
4902624	15	C	11/18/2024	04:35	-127.740	47.105	0	237.00	0	6.4060	0	33.9570	0	26.679	0	234.896	0	-1e10	1	-1e10	1	-1E+10	1	-1e10	1	-1e10	1	-1E+10	1	-1E+10	1	-1E+10	1
4902624	15	C	11/18/2024	04:35	-127.740	47.105	0	237.30	0	6.4040	0	33.9569	0	26.680	0	235.193	0	68.7	4	22.9	4	-1E+10	1	0.0438	4	0.000359	0	-1E+10	1	-1E+10	1	-1E+10	1
4902624	15	C	11/18/2024	04:35	-127.740	47.105	0	238.10	0	6.3987	0	33.9565	0	26.680	0	235.985	0	68.4	4	22.8	4	-1E+10	1	0.0380	4	0.000350	0	-1E+10	1	-1E+10	1	-1E+10	1
4902624	15	C	11/18/2024	04:35	-127.740	47.105	0	239.00	0	6.3927	0	33.9560	0	26.680	0	236.877	0	68.0	4	22.7	4	-1E+10	1	0.0592	4	0.000311	0	-1E+10	1	-1E+10	1	-1E+10	1
4902624	15	C	11/18/2024	04:35	-127.740	47.105	0	239.10	0	6.3920	0	33.9560	0	26.680	0	236.976	0	-1e10	1	-1e10	1	-1E+10	1	-1e10	1	-1e10	1	-1E+10	1	-1E+10	1	-1E+10	1
4902624	15	C	11/18/2024	04:35	-127.740	47.105	0	239.80	0	6.3975	0	33.9575	0	26.681	0	237.669	0	67.8	4	22.6	4	-1E+10	1	0.0608	4	0.000308	0	-1E+10	1	-1E+10	1	-1E+10	1
4902624	15	C	11/18/2024	04:35	-127.740	47.105	0	240.60	0	6.4038	0	33.9592	0	26.681	0	238.462	0	67.5	4	22.5	4	-1E+10	1	0.0548	4	0.000324	0	-1E+10	1	-1E+10	1	-1E+10	1
4902624	15	C	11/18/2024	04:35	-127.740	47.105	0	241.00	0	6.4070	0	33.9600	0	26.682	0	238.858	0	-1e10	1	-1e10	1	-1E+10	1	-1e10	1	-1e10	1	-1E+10	1	-1E+10	1	-1E+10	1
4902624	15	C	11/18/2024	04:35	-127.740	47.105	0	241.50	0	6.4030	0	33.9603	0	26.682	0	239.353	0	67.3	4	22.5	4	-1E+10	1	0.0446	4	0.000320	0	-1E+10	1	-1E+10	1	-1E+10	1
4902624	15	C	11/18/2024	04:35	-127.740	47.105	0	242.30	0	6.3966	0	33.9606	0	26.684	0	240.146	0	67.1	4	22.4	4	-1E+10	1	0.0365	4	0.000301	0	-1E+10	1	-1E+10	1	-1E+10	1
4902624	15	C	11/18/2024	04:35	-127.740	47.105	0	243.00	0	6.3910	0	33.9610	0	26.685	0	240.839	0	-1e10	1	-1e10	1	-1E+10	1	-1e10	1	-1e10	1	-1E+10	1	-1E+10	1	-1E+10	1
4902624	15	C	11/18/2024	04:35	-127.740	47.105	0	243.20	0	6.3903	0	33.9614	0	26.685	0	241.037	0	66.8	4	22.3	4	-1E+10	1	0.0394	4	0.000307	0	-1E+10	1	-1E+10	1	-1E+10	1
4902624	15	C	11/18/2024	04:35	-127.740	47.105	0	244.00	0	6.3875	0	33.9630	0	26.687	0	241.830	0	66.6	4	22.2	4	-1E+10	1	0.0511	4	0.000324	0	-1E+10	1	-1E+10	1	-1E+10	1
4902624	15	C	11/18/2024	04:35	-127.740	47.105	0	244.90	0	6.3843	0	33.9648	0	26.688	0	242.721	0	66.3	4	22.1	4	-1E+10	1	0.0511	4	0.000312	0	-1E+10	1	-1E+10	1	-1E+10	1
4902624	15	C	11/18/2024	04:35	-127.740	47.105	0	245.00	0	6.3840	0	33.9650	0	26.689	0	242.820	0	-1e10	1	-1e10	1	-1E+10	1	-1e10	1	-1e10	1	-1E+10	1	-1E+10	1	-1E+10	1
4902624	15	C	11/18/2024	04:35	-127.740	47.105	0	245.80	0	6.3851	0	33.9661	0	26.689	0	243.612	0	66.1	4	22.0	4	-1E+10	1	0.0642	4	0.000302	0	-1E+10	1	-1E+10	1	-1E+10	1
4902624	15	C	11/18/2024	04:35	-127.740	47.105	0	246.60	0	6.3863	0	33.9673	0	26.690	0	244.405	0	65.8	4	22.0	4	-1E+10	1	0.0606	4	0.000309	0	-1E+10	1	-1E+10	1	-1E+10	1
4902624	15	C	11/18/2024	04:35	-127.740	47.105	0	247.10	0	6.3870	0	33.9680	0	26.691	0	244.900	0	-1e10	1	-1e10	1	-1E+10	1	-1e10	1	-1e10	1	-1E+10	1	-1E+10	1	-1E+10	1
4902624	15	C	11/18/2024	04:35	-127.740	47.105	0	247.40	0	6.3870	0	33.9684	0	26.691	0	245.197	0	65.6	4	21.9	4	-1E+10	1	0.0543	4	0.000312	0	-1E+10	1	-1E+10	1	-1E+10	1
4902624	15	C	11/18/2024	04:35	-127.740	47.105	0	248.30	0	6.3870	0	33.9698	0	26.692	0	246.089	0	65.3	4	21.8	4	-1E+10	1	0.0474	4	0.000406	0	-1E+10	1	-1E+10	1	-1E+10	1
4902624	15	C	11/18/2024	04:35	-127.740	47.105	0	249.10	0	6.3870	0	33.9710	0	26.693	0	246.881	0	63.8	4	21.3	4	-1E+10	1	0.0482	4	0.000475	0	-1E+10	1	-1E+10	1	-1E+10	1
4902624	15	C	11/18/2024	04:35	-127.740	47.105	0	249.90	0	6.3806	0	33.9718	0	26.695	0	247.673	0	64.8	4	21.6	4	-1E+10	1	0.0566	4	0.000402	0	-1E+10	1	-1E+10	1	-1E+10	1
4902624	15	C	11/18/2024	04:35	-127.740	47.105	0	250.80	0	6.3734	0	33.9727	0	26.696	0	248.565	0	64.6	4	21.5	4	-1E+10	1	0.0453	4	0.000293	0	-1E+10	1	-1E+10	1	-1E+10	1
4902624	15	C	11/18/2024	04:35	-127.740	47.105	0	251.10	0	6.3710	0	33.9730	0	26.697	0	248.862	0	-1e10	1	-1e10	1	-1E+10	1	-1e10	1	-1e10	1	-1E+10	1	-1E+10	1	-1E+10	1
4902624	15	C	11/18/2024	04:35	-127.740	47.105	0	251.60	0	6.3649	0	33.9735	0	26.698	0	249.357	0	64.4	4	21.5	4	-1E+10	1	0.0511	4	0.000312	0	-1E+10	1	-1E+10	1	-1E+10	1
4902624	15	C	11/18/2024	04:35	-127.740	47.105	0	252.50	0	6.3541	0	33.9745	0	26.700	0	250.249	0	64.3	4	21.4	4	-1E+10	1	0.0571	4	0.000331	0	-1E+10	1	-1E+10	1	-1E+10	1
4902624	15	C	11/18/2024	04:35	-127.740	47.105	0	253.00	0	6.3480	0	33.9750	0	26.701	0	250.744	0	-1e10	1	-1e10	1	-1E+10	1	-1e10	1	-1e10	1	-1E+10	1	-1E+10	1	-1E+10	1
4902624	15	C	11/18/2024	04:35	-127.740	47.105	0	253.40	0	6.3414	0	33.9742	0	26.702	0	251.140	0	64.2	4	21.4	4	-1E+10	1	0.0527	4	0.000308	0	-1E+10	1	-1E+10	1	-1E+10	1
4902624	15	C	11/18/2024	04:35	-127.740	47.105	0	254.20	0	6.3282	0	33.9726	0	26.702	0	251.933	0	64.0	4	21.3	4	-1E+10	1	0.0511	4	0.000293	0	-1E+10	1	-1E+10	1	-1E+10	1
4902624	15	C	11/18/2024	04:35	-127.740	47.105	0	255.00	0	6.3150	0	33.9710	0	26.702	0	252.725	0	-1e10	1	-1e10	1	-1E+10	1	-1e10	1	-1e10	1	-1E+10	1	-1E+10	1	-1E+10	1
4902624	15	C	11/18/2024	04:35	-127.740	47.105	0	255.10	0	6.3113	0	33.9711	0	26.703	0	252.824	0	63.9	4	21.3	4	-1E+10	1	0.0474	4	0.000277	0	-1E+10	1	-1E+10	1	-1E+10	1
4902624	15	C	11/18/2024	04:35	-127.740	47.105	0	255.90	0	6.2822	0	33.9719	0	26.707	0	253.616	0	63.8	4	21.2	4	-1E+10	1	0.0465	4	0.000265	0	-1E+10	1	-1E+10	1	-1E+10	1
4902624	15	C	11/18/2024	04:35	-127.740	47.105	0	256.80	0	6.2493	0	33.9728	0	26.712	0	254.508	0	63.4	4	21.1	4	-1E+10	1	0.0511	4	0.000278	0	-1E+10	1	-1E+10	1	-1E+10	1
4902624	15	C	11/18/2024	04:35	-127.740	47.105	0	257.00	0	6.2420	0	33.9730	0	26.713	0	254.706	0	-1e10	1	-1e10	1	-1E+10	1	-1e10	1	-1e10	1	-1E+10	1	-1E+10	1	-1E+10	1
4902624	15	C	11/18/2024	04:35	-127.740	47.105	0	257.70	0	6.2200	0	33.9697	0	26.714	0	255.399	0	62.8	4	20.9	4	-1E+10	1	0.0482	4	0.000307	0	-1E+10	1	-1E+10	1	-1E+10	1
4902624	15	C	11/18/2024	04:35	-127.740	47.105	0	258.50	0	6.1949	0	33.9659	0	26.714	0	256.192	0	62.0	4	20.6	4	-1E+10	1	0.0365	4	0.000336	0	-1E+10	1	-1E+10	1	-1E+10	1
4902624	15	C	11/18/2024	04:35	-127.740	47.105	0	259.10	0	6.1760	0	33.9630	0	26.714	0	256.786	0	-1e10	1	-1e10	1	-1E+10	1	-1e10	1	-1e10	1	-1E+10	1	-1E+10	1	-1E+10	1
4902624	15	C	11/18/2024	04:35	-127.740	47.105	0	259.40	0	6.1829	0	33.9644	0	26.714	0	257.083	0	61.4	4	20.4	4	-1E+10	1	0.0584	4	0.000347	0	-1E+10	1	-1E+10	1	-1E+10	1
4902624	15	C	11/18/2024	04:35	-127.740	47.105	0	260.30	0	6.2036	0	33.9684	0	26.715	0	257.974	0	60.8	4	20.2	4	-1E+10	1	0.0584	4	0.000309	0	-1E+10	1	-1E+10	1	-1E+10	1
4902624	15	C	11/18/2024	04:35	-127.740	47.105	0	261.10	0	6.2220	0	33.9720	0	26.715	0	258.767	0	-1e10	1	-1e10	1	-1E+10	1	-1e10	1	-1e10	1	-1E+10	1	-1E+10	1	-1E+10	1
4902624	15	C	11/18/2024	04:35	-127.740	47.105	0	261.20	0	6.2224	0	33.9724	0	26.715	0	258.866	0	60.5	4	20.1	4	-1E+10	1	0.0533	4	0.000317	0	-1E+10	1	-1E+10	1	-1E+10	1
4902624	15	C	11/18/2024	04:35	-127.740	47.105	0	262.00	0	6.2253	0	33.9753	0	26.717	0	259.658	0	60.3	4	20.0	4	-1E+10	1	0.0511	4	0.000369	0	-1E+10	1	-1E+10	1	-1E+10	1
4902624	15	C	11/18/2024	04:35	-127.740	47.105	0	262.90	0	6.2286	0	33.9786	0	26.720	0	260.549	0	59.9	4	19.9	4	-1E+10	1	0.0511	4	0.000353	0	-1E+10	1	-1E+10	1	-1E+10	1
4902624	15	C	11/18/2024	04:35	-127.740	47.105	0	263.00	0	6.2290	0	33.9790	0	26.720	0	260.649	0	-1e10	1	-1e10	1	-1E+10	1	-1e10	1	-1e10	1	-1E+10	1	-1E+10	1	-1E+10	1
4902624	15	C	11/18/2024	04:35	-127.740	47.105	0	263.80	0	6.2134	0	33.9786	0	26.722	0	261.441	0	59.6	4	19.8	4	-1E+10	1	0.0491	4	0.000289	0	-1E+10	1	-1E+10	1	-1E+10	1
4902624	15	C	11/18/2024	04:35	-127.740	47.105	0	264.70	0	6.1958	0	33.9781	0	26.723	0	262.332	0	59.0	4	19.6	4	-1E+10	1	0.0456	4	0.000294	0	-1E+10	1	-1E+10	1	-1E+10	1
4902624	15	C	11/18/2024	04:35	-127.740	47.105	0	265.00	0	6.1900	0	33.9780	0	26.724	0	262.629	0	-1e10	1	-1e10	1	-1E+10	1	-1e10	1	-1e10	1	-1E+10	1	-1E+10	1	-1E+10	1
4902624	15	C	11/18/2024	04:35	-127.740	47.105	0	265.60	0	6.1924	0	33.9795	0	26.725	0	263.224	0	58.6	4	19.5	4	-1E+10	1	0.0597	4	0.000331	0	-1E+10	1	-1E+10	1	-1E+10	1
4902624	15	C	11/18/2024	04:35	-127.740	47.105	0	266.50	0	6.1960	0	33.9818	0	26.726	0	264.115	0	58.3	4	19.4	4	-1E+10	1	0.0657	4	0.000312	0	-1E+10	1	-1E+10	1	-1E+10	1
4902624	15	C	11/18/2024	04:35	-127.740	47.105	0	267.00	0	6.1980	0	33.9830	0	26.727	0	264.610	0	-1e10	1	-1e10	1	-1E+10	1	-1e10	1	-1e10	1	-1E+10	1	-1E+10	1	-1E+10	1
4902624	15	C	11/18/2024	04:35	-127.740	47.105	0	267.50	0	6.1940	0	33.9827	0	26.727	0	265.105	0	57.8	4	19.2	4	-1E+10	1	0.0524	4	0.000301	0	-1E+10	1	-1E+10	1	-1E+10	1
4902624	15	C	11/18/2024	04:35	-127.740	47.105	0	268.40	0	6.1868	0	33.9823	0	26.728	0	265.997	0	57.2	4	19.0	4	-1E+10	1	0.0511	4	0.000300	0	-1E+10	1	-1E+10	1	-1E+10	1
4902624	15	C	11/18/2024	04:35	-127.740	47.105	0	269.00	0	6.1820	0	33.9820	0	26.728	0	266.591	0	-1e10	1	-1e10	1	-1E+10	1	-1e10	1	-1e10	1	-1E+10	1	-1E+10	1	-1E+10	1
4902624	15	C	11/18/2024	04:35	-127.740	47.105	0	269.30	0	6.1858	0	33.9827	0	26.728	0	266.888	0	56.6	4	18.8	4	-1E+10	1	0.0511	4	0.000435	0	-1E+10	1	-1E+10	1	-1E+10	1
4902624	15	C	11/18/2024	04:35	-127.740	47.105	0	270.20	0	6.1970	0	33.9850	0	26.729	0	267.780	0	56.0	4	18.6	4	-1E+10	1	0.0511	4	0.000431	0	-1E+10	1	-1E+10	1	-1E+10	1
4902624	15	C	11/18/2024	04:35	-127.740	47.105	0	271.00	0	6.2070	0	33.9870	0	26.729	0	268.572	0	-1e10	1	-1e10	1	-1E+10	1	-1e10	1	-1e10	1	-1E+10	1	-1E+10	1	-1E+10	1
4902624	15	C	11/18/2024	04:35	-127.740	47.105	0	271.10	0	6.2076	0	33.9874	0	26.729	0	268.671	0	55.6	4	18.5	4	-1E+10	1	0.0511	4	0.000339	0	-1E+10	1	-1E+10	1	-1E+10	1
4902624	15	C	11/18/2024	04:35	-127.740	47.105	0	272.10	0	6.2138	0	33.9912	0	26.732	0	269.661	0	55.5	4	18.4	4	-1E+10	1	0.0535	4	0.000351	0	-1E+10	1	-1E+10	1	-1E+10	1
4902624	15	C	11/18/2024	04:35	-127.740	47.105	0	273.00	0	6.2194	0	33.9946	0	26.734	0	270.553	0	55.3	4	18.4	4	-1E+10	1	0.0591	4	0.000357	0	-1E+10	1	-1E+10	1	-1E+10	1
4902624	15	C	11/18/2024	04:35	-127.740	47.105	0	273.10	0	6.2200	0	33.9950	0	26.734	0	270.652	0	-1e10	1	-1e10	1	-1E+10	1	-1e10	1	-1e10	1	-1E+10	1	-1E+10	1	-1E+10	1
4902624	15	C	11/18/2024	04:35	-127.740	47.105	0	274.00	0	6.2105	0	33.9964	0	26.736	0	271.543	0	55.1	4	18.3	4	-1E+10	1	0.0657	4	0.000335	0	-1E+10	1	-1E+10	1	-1E+10	1
4902624	15	C	11/18/2024	04:35	-127.740	47.105	0	274.90	0	6.2011	0	33.9978	0	26.738	0	272.434	0	54.9	4	18.2	4	-1E+10	1	0.0511	4	0.000394	0	-1E+10	1	-1E+10	1	-1E+10	1
4902624	15	C	11/18/2024	04:35	-127.740	47.105	0	275.00	0	6.2000	0	33.9980	0	26.739	0	272.533	0	-1e10	1	-1e10	1	-1E+10	1	-1e10	1	-1e10	1	-1E+10	1	-1E+10	1	-1E+10	1
4902624	15	C	11/18/2024	04:35	-127.740	47.105	0	275.90	0	6.1844	0	33.9971	0	26.740	0	273.425	0	54.6	4	18.1	4	-1E+10	1	0.0572	4	0.000355	0	-1E+10	1	-1E+10	1	-1E+10	1
4902624	15	C	11/18/2024	04:35	-127.740	47.105	0	276.80	0	6.1687	0	33.9961	0	26.741	0	274.316	0	54.3	4	18.0	4	-1E+10	1	0.0584	4	0.000377	0	-1E+10	1	-1E+10	1	-1E+10	1
4902624	15	C	11/18/2024	04:35	-127.740	47.105	0	276.90	0	6.1670	0	33.9960	0	26.741	0	274.415	0	-1e10	1	-1e10	1	-1E+10	1	-1e10	1	-1e10	1	-1E+10	1	-1E+10	1	-1E+10	1
4902624	15	C	11/18/2024	04:35	-127.740	47.105	0	277.80	0	6.1644	0	33.9969	0	26.742	0	275.306	0	54.1	4	18.0	4	-1E+10	1	0.0496	4	0.000380	0	-1E+10	1	-1E+10	1	-1E+10	1
4902624	15	C	11/18/2024	04:35	-127.740	47.105	0	278.80	0	6.1616	0	33.9978	0	26.743	0	276.297	0	53.9	4	17.9	4	-1E+10	1	0.0438	4	0.000358	0	-1E+10	1	-1E+10	1	-1E+10	1
4902624	15	C	11/18/2024	04:35	-127.740	47.105	0	279.00	0	6.1610	0	33.9980	0	26.744	0	276.495	0	-1e10	1	-1e10	1	-1E+10	1	-1e10	1	-1e10	1	-1E+10	1	-1E+10	1	-1E+10	1
4902624	15	C	11/18/2024	04:35	-127.740	47.105	0	279.70	0	6.1544	0	33.9984	0	26.745	0	277.188	0	53.7	4	17.8	4	-1E+10	1	0.0438	4	0.000367	0	-1E+10	1	-1E+10	1	-1E+10	1
4902624	15	C	11/18/2024	04:35	-127.740	47.105	0	280.60	0	6.1458	0	33.9988	0	26.746	0	278.079	0	53.4	4	17.7	4	-1E+10	1	0.0445	4	0.000406	0	-1E+10	1	-1E+10	1	-1E+10	1
4902624	15	C	11/18/2024	04:35	-127.740	47.105	0	280.90	0	6.1430	0	33.9990	0	26.747	0	278.376	0	-1e10	1	-1e10	1	-1E+10	1	-1e10	1	-1e10	1	-1E+10	1	-1E+10	1	-1E+10	1
4902624	15	C	11/18/2024	04:35	-127.740	47.105	0	281.60	0	6.1437	0	33.9997	0	26.747	0	279.070	0	53.2	4	17.7	4	-1E+10	1	0.0511	4	0.000403	0	-1E+10	1	-1E+10	1	-1E+10	1
4902624	15	C	11/18/2024	04:35	-127.740	47.105	0	282.60	0	6.1446	0	34.0006	0	26.748	0	280.060	0	53.1	4	17.6	4	-1E+10	1	0.0511	4	0.000371	0	-1E+10	1	-1E+10	1	-1E+10	1
4902624	15	C	11/18/2024	04:35	-127.740	47.105	0	283.00	0	6.1450	0	34.0010	0	26.748	0	280.456	0	-1e10	1	-1e10	1	-1E+10	1	-1e10	1	-1e10	1	-1E+10	1	-1E+10	1	-1E+10	1
4902624	15	C	11/18/2024	04:35	-127.740	47.105	0	283.70	0	6.1422	0	34.0020	0	26.749	0	281.149	0	52.9	4	17.5	4	-1E+10	1	0.0584	4	0.000394	0	-1E+10	1	-1E+10	1	-1E+10	1
4902624	15	C	11/18/2024	04:35	-127.740	47.105	0	284.60	0	6.1386	0	34.0034	0	26.751	0	282.041	0	52.8	4	17.5	4	-1E+10	1	0.0518	4	0.000394	0	-1E+10	1	-1E+10	1	-1E+10	1
4902624	15	C	11/18/2024	04:35	-127.740	47.105	0	285.00	0	6.1370	0	34.0040	0	26.752	0	282.437	0	-1e10	1	-1e10	1	-1E+10	1	-1e10	1	-1e10	1	-1E+10	1	-1E+10	1	-1E+10	1
4902624	15	C	11/18/2024	04:35	-127.740	47.105	0	285.50	0	6.1310	0	34.0040	0	26.752	0	282.932	0	52.7	4	17.5	4	-1E+10	1	0.0462	4	0.000449	0	-1E+10	1	-1E+10	1	-1E+10	1
4902624	15	C	11/18/2024	04:35	-127.740	47.105	0	286.50	0	6.1190	0	34.0040	0	26.754	0	283.922	0	52.6	4	17.4	4	-1E+10	1	0.0511	4	0.000423	0	-1E+10	1	-1E+10	1	-1E+10	1
4902624	15	C	11/18/2024	04:35	-127.740	47.105	0	287.00	0	6.1130	0	34.0040	0	26.755	0	284.417	0	-1e10	1	-1e10	1	-1E+10	1	-1e10	1	-1e10	1	-1E+10	1	-1E+10	1	-1E+10	1
4902624	15	C	11/18/2024	04:35	-127.740	47.105	0	287.50	0	6.1120	0	34.0040	0	26.755	0	284.913	0	52.5	4	17.4	4	-1E+10	1	0.0584	4	0.000361	0	-1E+10	1	-1E+10	1	-1E+10	1
4902624	15	C	11/18/2024	04:35	-127.740	47.105	0	288.50	0	6.1100	0	34.0040	0	26.755	0	285.903	0	52.4	4	17.4	4	-1E+10	1	0.0531	4	0.000377	0	-1E+10	1	-1E+10	1	-1E+10	1
4902624	15	C	11/18/2024	04:35	-127.740	47.105	0	289.00	0	6.1090	0	34.0040	0	26.755	0	286.398	0	-1e10	1	-1e10	1	-1E+10	1	-1e10	1	-1e10	1	-1E+10	1	-1E+10	1	-1E+10	1
4902624	15	C	11/18/2024	04:35	-127.740	47.105	0	289.50	0	6.1070	0	34.0040	0	26.755	0	286.893	0	52.3	4	17.3	4	-1E+10	1	0.0478	4	0.000416	0	-1E+10	1	-1E+10	1	-1E+10	1
4902624	15	C	11/18/2024	04:35	-127.740	47.105	0	290.70	0	6.1022	0	34.0040	0	26.756	0	288.082	0	52.1	4	17.3	4	-1E+10	1	0.0575	4	0.000382	0	-1E+10	1	-1E+10	1	-1E+10	1
4902624	15	C	11/18/2024	04:35	-127.740	47.105	0	291.00	0	6.1010	0	34.0040	0	26.756	0	288.379	0	-1e10	1	-1e10	1	-1E+10	1	-1e10	1	-1e10	1	-1E+10	1	-1E+10	1	-1E+10	1
4902624	15	C	11/18/2024	04:35	-127.740	47.105	0	293.00	0	6.0830	0	34.0060	0	26.760	0	290.359	0	-1e10	1	-1e10	1	-1E+10	1	-1e10	1	-1e10	1	-1E+10	1	-1E+10	1	-1E+10	1
4902624	15	C	11/18/2024	04:35	-127.740	47.105	0	295.00	0	6.0720	0	34.0060	0	26.761	0	292.340	0	-1e10	1	-1e10	1	-1E+10	1	-1e10	1	-1e10	1	-1E+10	1	-1E+10	1	-1E+10	1
4902624	15	C	11/18/2024	04:35	-127.740	47.105	0	297.00	0	6.0590	0	34.0070	0	26.764	0	294.320	0	-1e10	1	-1e10	1	-1E+10	1	-1e10	1	-1e10	1	-1E+10	1	-1E+10	1	-1E+10	1
4902624	15	C	11/18/2024	04:35	-127.740	47.105	0	299.10	0	6.0390	0	34.0090	0	26.768	0	296.400	0	-1e10	1	-1e10	1	-1E+10	1	-1e10	1	-1e10	1	-1E+10	1	-1E+10	1	-1E+10	1
4902624	15	C	11/18/2024	04:35	-127.740	47.105	0	300.80	0	6.0271	0	34.0096	0	26.770	0	298.083	0	50.9	4	16.8	4	-1E+10	1	0.0368	4	0.000379	0	-1E+10	1	-1E+10	1	-1E+10	1
4902624	15	C	11/18/2024	04:35	-127.740	47.105	0	305.10	0	5.9970	0	34.0110	0	26.775	0	302.341	0	-1e10	1	-1e10	1	-1E+10	1	-1e10	1	-1e10	1	-1E+10	1	-1E+10	1	-1E+10	1
4902624	15	C	11/18/2024	04:35	-127.740	47.105	0	311.10	0	5.9593	0	34.0147	0	26.783	0	308.283	0	49.1	4	16.2	4	-1E+10	1	0.0444	4	0.000316	0	-1E+10	1	-1E+10	1	-1E+10	1
4902624	15	C	11/18/2024	04:35	-127.740	47.105	0	314.80	0	5.9360	0	34.0170	0	26.787	0	311.946	0	-1e10	1	-1e10	1	-1E+10	1	-1e10	1	-1e10	1	-1E+10	1	-1E+10	1	-1E+10	1
4902624	15	C	11/18/2024	04:35	-127.740	47.105	0	321.70	0	5.9095	0	34.0198	0	26.793	0	318.779	0	47.7	4	15.7	4	-1E+10	1	0.0581	4	0.000415	0	-1E+10	1	-1E+10	1	-1E+10	1
4902624	15	C	11/18/2024	04:35	-127.740	47.105	0	324.70	0	5.8980	0	34.0210	0	26.795	0	321.749	0	-1e10	1	-1e10	1	-1E+10	1	-1e10	1	-1e10	1	-1E+10	1	-1E+10	1	-1E+10	1
4902624	15	C	11/18/2024	04:35	-127.740	47.105	0	332.40	0	5.8669	0	34.0240	0	26.802	0	329.373	0	46.3	4	15.3	4	-1E+10	1	0.0511	4	0.000369	0	-1E+10	1	-1E+10	1	-1E+10	1
4902624	15	C	11/18/2024	04:35	-127.740	47.105	0	335.10	0	5.8560	0	34.0250	0	26.804	0	332.046	0	-1e10	1	-1e10	1	-1E+10	1	-1e10	1	-1e10	1	-1E+10	1	-1E+10	1	-1E+10	1
4902624	15	C	11/18/2024	04:35	-127.740	47.105	0	343.20	0	5.8082	0	34.0299	0	26.814	0	340.066	0	44.9	4	14.8	4	-1E+10	1	0.0511	4	0.000346	0	-1E+10	1	-1E+10	1	-1E+10	1
4902624	15	C	11/18/2024	04:35	-127.740	47.105	0	345.10	0	5.7970	0	34.0310	0	26.816	0	341.947	0	-1e10	1	-1e10	1	-1E+10	1	-1e10	1	-1e10	1	-1E+10	1	-1E+10	1	-1E+10	1
4902624	15	C	11/18/2024	04:35	-127.740	47.105	0	354.10	0	5.7592	0	34.0346	0	26.824	0	350.857	0	43.6	4	14.3	4	-1E+10	1	0.0516	4	0.000335	0	-1E+10	1	-1E+10	1	-1E+10	1
4902624	15	C	11/18/2024	04:35	-127.740	47.105	0	355.10	0	5.7550	0	34.0350	0	26.824	0	351.847	0	-1e10	1	-1e10	1	-1E+10	1	-1e10	1	-1e10	1	-1E+10	1	-1E+10	1	-1E+10	1
4902624	15	C	11/18/2024	04:35	-127.740	47.105	0	365.20	0	5.6920	0	34.0400	0	26.836	0	361.846	0	41.5	4	13.6	4	-1E+10	1	0.0651	4	0.000335	0	-1E+10	1	-1E+10	1	-1E+10	1
4902624	15	C	11/18/2024	04:35	-127.740	47.105	0	375.20	0	5.6460	0	34.0430	0	26.844	0	371.745	0	-1e10	1	-1e10	1	-1E+10	1	-1e10	1	-1e10	1	-1E+10	1	-1E+10	1	-1E+10	1
4902624	15	C	11/18/2024	04:35	-127.740	47.105	0	376.40	0	5.6386	0	34.0436	0	26.846	0	372.933	0	41.0	4	13.4	4	-1E+10	1	0.0511	4	0.000342	0	-1E+10	1	-1E+10	1	-1E+10	1
4902624	15	C	11/18/2024	04:35	-127.740	47.105	0	385.10	0	5.5850	0	34.0480	0	26.856	0	381.544	0	-1e10	1	-1e10	1	-1E+10	1	-1e10	1	-1e10	1	-1E+10	1	-1E+10	1	-1E+10	1
4902624	15	C	11/18/2024	04:35	-127.740	47.105	0	387.90	0	5.5672	0	34.0494	0	26.859	0	384.316	0	39.4	4	12.9	4	-1E+10	1	0.0520	4	0.000537	0	-1E+10	1	-1E+10	1	-1E+10	1
4902624	15	C	11/18/2024	04:35	-127.740	47.105	0	395.00	0	5.5220	0	34.0530	0	26.867	0	391.344	0	-1e10	1	-1e10	1	-1E+10	1	-1e10	1	-1e10	1	-1E+10	1	-1E+10	1	-1E+10	1
4902624	15	C	11/18/2024	04:35	-127.740	47.105	0	399.40	0	5.4960	0	34.0556	0	26.872	0	395.699	0	37.7	4	12.3	4	-1E+10	1	0.0727	4	0.000616	0	-1E+10	1	-1E+10	1	-1E+10	1
4902624	15	C	11/18/2024	04:35	-127.740	47.105	0	405.00	0	5.4630	0	34.0590	0	26.879	0	401.241	0	-1e10	1	-1e10	1	-1E+10	1	-1e10	1	-1e10	1	-1E+10	1	-1E+10	1	-1E+10	1
4902624	15	C	11/18/2024	04:35	-127.740	47.105	0	411.00	0	5.4364	0	34.0602	0	26.883	0	407.180	0	36.4	4	11.9	4	-1E+10	1	0.0652	4	0.000616	0	-1E+10	1	-1E+10	1	-1E+10	1
4902624	15	C	11/18/2024	04:35	-127.740	47.105	0	414.70	0	5.4200	0	34.0610	0	26.886	0	410.842	0	-1e10	1	-1e10	1	-1E+10	1	-1e10	1	-1e10	1	-1E+10	1	-1E+10	1	-1E+10	1
4902624	15	C	11/18/2024	04:35	-127.740	47.105	0	422.80	0	5.3663	0	34.0666	0	26.897	0	418.858	0	34.3	4	11.2	4	-1E+10	1	0.0511	4	0.000289	0	-1E+10	1	-1E+10	1	-1E+10	1
4902624	15	C	11/18/2024	04:35	-127.740	47.105	0	424.80	0	5.3530	0	34.0680	0	26.899	0	420.838	0	-1e10	1	-1e10	1	-1E+10	1	-1e10	1	-1e10	1	-1E+10	1	-1E+10	1	-1E+10	1
4902624	15	C	11/18/2024	04:35	-127.740	47.105	0	434.70	0	5.2944	0	34.0747	0	26.912	0	430.635	0	32.5	4	10.6	4	-1E+10	1	0.0513	4	0.000320	0	-1E+10	1	-1E+10	1	-1E+10	1
4902624	15	C	11/18/2024	04:35	-127.740	47.105	0	435.10	0	5.2920	0	34.0750	0	26.912	0	431.031	0	-1e10	1	-1e10	1	-1E+10	1	-1e10	1	-1e10	1	-1E+10	1	-1E+10	1	-1E+10	1
4902624	15	C	11/18/2024	04:35	-127.740	47.105	0	444.90	0	5.2410	0	34.0820	0	26.924	0	440.729	0	-1e10	1	-1e10	1	-1E+10	1	-1e10	1	-1e10	1	-1E+10	1	-1E+10	1	-1E+10	1
4902624	15	C	11/18/2024	04:35	-127.740	47.105	0	446.90	0	5.2318	0	34.0836	0	26.926	0	442.708	0	30.9	4	10.0	4	-1E+10	1	0.0580	4	0.000243	0	-1E+10	1	-1E+10	1	-1E+10	1
4902624	15	C	11/18/2024	04:35	-127.740	47.105	0	454.90	0	5.1950	0	34.0900	0	26.936	0	450.624	0	-1e10	1	-1e10	1	-1E+10	1	-1e10	1	-1e10	1	-1E+10	1	-1E+10	1	-1E+10	1
4902624	15	C	11/18/2024	04:35	-127.740	47.105	0	455.80	0	5.1900	0	34.0904	0	26.937	0	451.515	0	29.4	4	9.6	4	-1E+10	1	0.0511	4	0.000297	0	-1E+10	1	-1E+10	1	-1E+10	1
4902624	15	C	11/18/2024	04:35	-127.740	47.105	0	463.90	0	5.1451	0	34.0945	0	26.945	0	459.530	0	28.5	4	9.2	4	-1E+10	1	0.0511	4	0.000263	0	-1E+10	1	-1E+10	1	-1E+10	1
4902624	15	C	11/18/2024	04:35	-127.740	47.105	0	465.00	0	5.1390	0	34.0950	0	26.946	0	460.618	0	-1e10	1	-1e10	1	-1E+10	1	-1e10	1	-1e10	1	-1E+10	1	-1E+10	1	-1E+10	1
4902624	15	C	11/18/2024	04:35	-127.740	47.105	0	472.20	0	5.1088	0	34.0972	0	26.951	0	467.742	0	27.6	4	8.9	4	-1E+10	1	0.0514	4	0.000263	0	-1E+10	1	-1E+10	1	-1E+10	1
4902624	15	C	11/18/2024	04:35	-127.740	47.105	0	475.00	0	5.0970	0	34.0980	0	26.953	0	470.513	0	-1e10	1	-1e10	1	-1E+10	1	-1e10	1	-1e10	1	-1E+10	1	-1E+10	1	-1E+10	1
4902624	15	C	11/18/2024	04:35	-127.740	47.105	0	480.70	0	5.0699	0	34.1008	0	26.959	0	476.152	0	26.4	4	8.6	4	-1E+10	1	0.0581	4	0.000262	0	-1E+10	1	-1E+10	1	-1E+10	1
4902624	15	C	11/18/2024	04:35	-127.740	47.105	0	485.10	0	5.0490	0	34.1030	0	26.963	0	480.505	0	-1e10	1	-1e10	1	-1E+10	1	-1e10	1	-1e10	1	-1E+10	1	-1E+10	1	-1E+10	1
4902624	15	C	11/18/2024	04:35	-127.740	47.105	0	489.40	0	5.0382	0	34.1056	0	26.966	0	484.760	0	25.4	4	8.2	4	-1E+10	1	0.0514	4	0.000243	0	-1E+10	1	-1E+10	1	-1E+10	1
4902624	15	C	11/18/2024	04:35	-127.740	47.105	0	495.10	0	5.0240	0	34.1090	0	26.971	0	490.399	0	-1e10	1	-1e10	1	-1E+10	1	-1e10	1	-1e10	1	-1E+10	1	-1E+10	1	-1E+10	1
4902624	15	C	11/18/2024	04:35	-127.740	47.105	0	497.90	0	5.0140	0	34.1120	0	26.974	0	493.169	0	24.3	4	7.8	4	-1E+10	1	0.0581	4	0.000343	0	-1E+10	1	-1E+10	1	-1E+10	1
4902624	15	C	11/18/2024	04:35	-127.740	47.105	0	505.20	0	4.9880	0	34.1200	0	26.984	0	500.391	0	-1e10	1	-1e10	1	-1E+10	1	-1e10	1	-1e10	1	-1E+10	1	-1E+10	1	-1E+10	1
4902624	15	C	11/18/2024	04:35	-127.740	47.105	0	506.60	0	4.9807	0	34.1213	0	26.985	0	501.776	0	22.6	4	7.3	4	-1E+10	1	0.0508	4	0.000297	0	-1E+10	1	-1E+10	1	-1E+10	1
4902624	15	C	11/18/2024	04:35	-127.740	47.105	0	515.20	0	4.9360	0	34.1290	0	26.997	0	510.283	0	-1e10	1	-1e10	1	-1E+10	1	-1e10	1	-1e10	1	-1E+10	1	-1E+10	1	-1E+10	1
4902624	15	C	11/18/2024	04:35	-127.740	47.105	0	515.30	0	4.9355	0	34.1291	0	26.997	0	510.382	0	21.4	4	6.9	4	-1E+10	1	0.0441	4	0.000273	0	-1E+10	1	-1E+10	1	-1E+10	1
4902624	15	C	11/18/2024	04:35	-127.740	47.105	0	524.10	0	4.8938	0	34.1391	0	27.010	0	519.087	0	20.1	4	6.5	4	-1E+10	1	0.0517	4	0.000221	0	-1E+10	1	-1E+10	1	-1E+10	1
4902624	15	C	11/18/2024	04:35	-127.740	47.105	0	524.90	0	4.8900	0	34.1400	0	27.011	0	519.879	0	-1e10	1	-1e10	1	-1E+10	1	-1e10	1	-1e10	1	-1E+10	1	-1E+10	1	-1E+10	1
4902624	15	C	11/18/2024	04:35	-127.740	47.105	0	533.10	0	4.8424	0	34.1474	0	27.022	0	527.990	0	18.9	4	6.1	4	-1E+10	1	0.0660	4	0.000317	0	-1E+10	1	-1E+10	1	-1E+10	1
4902624	15	C	11/18/2024	04:35	-127.740	47.105	0	534.90	0	4.8320	0	34.1490	0	27.024	0	529.770	0	-1e10	1	-1e10	1	-1E+10	1	-1e10	1	-1e10	1	-1E+10	1	-1E+10	1	-1E+10	1
4902624	15	C	11/18/2024	04:35	-127.740	47.105	0	542.20	0	4.7955	0	34.1547	0	27.033	0	536.991	0	17.8	4	5.7	4	-1E+10	1	0.0724	4	0.000227	0	-1E+10	1	-1E+10	1	-1E+10	1
4902624	15	C	11/18/2024	04:35	-127.740	47.105	0	545.10	0	4.7810	0	34.1570	0	27.037	0	539.859	0	-1e10	1	-1e10	1	-1E+10	1	-1e10	1	-1e10	1	-1E+10	1	-1E+10	1	-1E+10	1
4902624	15	C	11/18/2024	04:35	-127.740	47.105	0	551.80	0	4.7709	0	34.1670	0	27.046	0	546.486	0	16.6	4	5.4	4	-1E+10	1	0.0581	4	0.000230	0	-1E+10	1	-1E+10	1	-1E+10	1
4902624	15	C	11/18/2024	04:35	-127.740	47.105	0	555.10	0	4.7660	0	34.1720	0	27.050	0	549.750	0	-1e10	1	-1e10	1	-1E+10	1	-1e10	1	-1e10	1	-1E+10	1	-1E+10	1	-1E+10	1
4902624	15	C	11/18/2024	04:35	-127.740	47.105	0	561.80	0	4.7318	0	34.1741	0	27.056	0	556.376	0	15.9	4	5.1	4	-1E+10	1	0.0511	4	0.000285	0	-1E+10	1	-1E+10	1	-1E+10	1
4902624	15	C	11/18/2024	04:35	-127.740	47.105	0	564.70	0	4.7170	0	34.1750	0	27.058	0	559.245	0	-1e10	1	-1e10	1	-1E+10	1	-1e10	1	-1e10	1	-1E+10	1	-1E+10	1	-1E+10	1
4902624	15	C	11/18/2024	04:35	-127.740	47.105	0	571.90	0	4.6828	0	34.1779	0	27.064	0	566.365	0	15.3	4	4.9	4	-1E+10	1	0.0514	4	0.000272	0	-1E+10	1	-1E+10	1	-1E+10	1
4902624	15	C	11/18/2024	04:35	-127.740	47.105	0	574.80	0	4.6690	0	34.1790	0	27.067	0	569.233	0	-1e10	1	-1e10	1	-1E+10	1	-1e10	1	-1e10	1	-1E+10	1	-1E+10	1	-1E+10	1
4902624	15	C	11/18/2024	04:35	-127.740	47.105	0	582.30	0	4.6484	0	34.1841	0	27.073	0	576.650	0	14.6	4	4.7	4	-1E+10	1	0.0580	4	0.000226	0	-1E+10	1	-1E+10	1	-1E+10	1
4902624	15	C	11/18/2024	04:35	-127.740	47.105	0	585.00	0	4.6410	0	34.1860	0	27.075	0	579.320	0	-1e10	1	-1e10	1	-1E+10	1	-1e10	1	-1e10	1	-1E+10	1	-1E+10	1	-1E+10	1
4902624	15	C	11/18/2024	04:35	-127.740	47.105	0	592.70	0	4.6079	0	34.1891	0	27.082	0	586.935	0	14.0	4	4.5	4	-1E+10	1	0.0514	4	0.000203	0	-1E+10	1	-1E+10	1	-1E+10	1
4902624	15	C	11/18/2024	04:35	-127.740	47.105	0	595.00	0	4.5980	0	34.1900	0	27.083	0	589.209	0	-1e10	1	-1e10	1	-1E+10	1	-1e10	1	-1e10	1	-1E+10	1	-1E+10	1	-1E+10	1
4902624	15	C	11/18/2024	04:35	-127.740	47.105	0	603.50	0	4.5589	0	34.1951	0	27.092	0	597.614	0	13.2	4	4.2	4	-1E+10	1	0.0587	4	0.000202	0	-1E+10	1	-1E+10	1	-1E+10	1
4902624	15	C	11/18/2024	04:35	-127.740	47.105	0	605.00	0	4.5520	0	34.1960	0	27.093	0	599.097	0	-1e10	1	-1e10	1	-1E+10	1	-1e10	1	-1e10	1	-1E+10	1	-1E+10	1	-1E+10	1
4902624	15	C	11/18/2024	04:35	-127.740	47.105	0	614.70	0	4.5219	0	34.2035	0	27.103	0	608.688	0	12.6	4	4.0	4	-1E+10	1	0.0657	4	0.000181	0	-1E+10	1	-1E+10	1	-1E+10	1
4902624	15	C	11/18/2024	04:35	-127.740	47.105	0	615.30	0	4.5200	0	34.2040	0	27.103	0	609.282	0	-1e10	1	-1e10	1	-1E+10	1	-1e10	1	-1e10	1	-1E+10	1	-1E+10	1	-1E+10	1
4902624	15	C	11/18/2024	04:35	-127.740	47.105	0	625.00	0	4.4970	0	34.2100	0	27.110	0	618.872	0	-1e10	1	-1e10	1	-1E+10	1	-1e10	1	-1e10	1	-1E+10	1	-1E+10	1	-1E+10	1
4902624	15	C	11/18/2024	04:35	-127.740	47.105	0	626.20	0	4.4899	0	34.2107	0	27.112	0	620.059	0	11.8	4	3.8	4	-1E+10	1	0.0652	4	0.000203	0	-1E+10	1	-1E+10	1	-1E+10	1
4902624	15	C	11/18/2024	04:35	-127.740	47.105	0	634.80	0	4.4390	0	34.2160	0	27.121	0	628.561	0	-1e10	1	-1e10	1	-1E+10	1	-1e10	1	-1e10	1	-1E+10	1	-1E+10	1	-1E+10	1
4902624	15	C	11/18/2024	04:35	-127.740	47.105	0	638.20	0	4.4350	0	34.2193	0	27.125	0	631.923	0	11.1	4	3.5	4	-1E+10	1	0.0511	4	0.000201	0	-1E+10	1	-1E+10	1	-1E+10	1
4902624	15	C	11/18/2024	04:35	-127.740	47.105	0	645.00	0	4.4270	0	34.2260	0	27.131	0	638.646	0	-1e10	1	-1e10	1	-1E+10	1	-1e10	1	-1e10	1	-1E+10	1	-1E+10	1	-1E+10	1
4902624	15	C	11/18/2024	04:35	-127.740	47.105	0	648.80	0	4.4202	0	34.2298	0	27.135	0	642.402	0	10.5	4	3.4	4	-1E+10	1	0.0511	4	0.000170	0	-1E+10	1	-1E+10	1	-1E+10	1
4902624	15	C	11/18/2024	04:35	-127.740	47.105	0	655.00	0	4.4090	0	34.2360	0	27.141	0	648.532	0	-1e10	1	-1e10	1	-1E+10	1	-1e10	1	-1e10	1	-1E+10	1	-1E+10	1	-1E+10	1
4902624	15	C	11/18/2024	04:35	-127.740	47.105	0	656.70	0	4.4017	0	34.2377	0	27.143	0	650.212	0	10.1	4	3.2	4	-1E+10	1	0.0518	4	0.000215	0	-1E+10	1	-1E+10	1	-1E+10	1
4902624	15	C	11/18/2024	04:35	-127.740	47.105	0	664.80	0	4.3670	0	34.2460	0	27.153	0	658.219	0	-1e10	1	-1e10	1	-1E+10	1	-1e10	1	-1e10	1	-1E+10	1	-1E+10	1	-1E+10	1
4902624	15	C	11/18/2024	04:35	-127.740	47.105	0	664.90	0	4.3667	0	34.2461	0	27.153	0	658.318	0	9.7	4	3.1	4	-1E+10	1	0.0654	4	0.000223	0	-1E+10	1	-1E+10	1	-1E+10	1
4902624	15	C	11/18/2024	04:35	-127.740	47.105	0	673.30	0	4.3445	0	34.2527	0	27.161	0	666.622	0	9.4	4	3.0	4	-1E+10	1	0.0584	4	0.000157	0	-1E+10	1	-1E+10	1	-1E+10	1
4902624	15	C	11/18/2024	04:35	-127.740	47.105	0	675.00	0	4.3400	0	34.2540	0	27.163	0	668.302	0	-1e10	1	-1e10	1	-1E+10	1	-1e10	1	-1e10	1	-1E+10	1	-1E+10	1	-1E+10	1
4902624	15	C	11/18/2024	04:35	-127.740	47.105	0	681.90	0	4.3339	0	34.2588	0	27.167	0	675.122	0	9.2	4	2.9	4	-1E+10	1	0.0582	4	0.000191	0	-1E+10	1	-1E+10	1	-1E+10	1
4902624	15	C	11/18/2024	04:35	-127.740	47.105	0	685.10	0	4.3310	0	34.2610	0	27.169	0	678.285	0	-1e10	1	-1e10	1	-1E+10	1	-1e10	1	-1e10	1	-1E+10	1	-1E+10	1	-1E+10	1
4902624	15	C	11/18/2024	04:35	-127.740	47.105	0	690.90	0	4.3101	0	34.2633	0	27.173	0	684.018	0	9.1	4	2.9	4	-1E+10	1	0.0517	4	0.000201	0	-1E+10	1	-1E+10	1	-1E+10	1
4902624	15	C	11/18/2024	04:35	-127.740	47.105	0	695.10	0	4.2950	0	34.2650	0	27.176	0	688.169	0	-1e10	1	-1e10	1	-1E+10	1	-1e10	1	-1e10	1	-1E+10	1	-1E+10	1	-1E+10	1
4902624	15	C	11/18/2024	04:35	-127.740	47.105	0	699.90	0	4.2813	0	34.2670	0	27.179	0	692.914	0	8.9	4	2.8	4	-1E+10	1	0.0651	4	0.000181	0	-1E+10	1	-1E+10	1	-1E+10	1
4902624	15	C	11/18/2024	04:35	-127.740	47.105	0	704.90	0	4.2670	0	34.2690	0	27.182	0	697.855	0	-1e10	1	-1e10	1	-1E+10	1	-1e10	1	-1e10	1	-1E+10	1	-1E+10	1	-1E+10	1
4902624	15	C	11/18/2024	04:35	-127.740	47.105	0	709.00	0	4.2514	0	34.2690	0	27.184	0	701.907	0	9.0	4	2.8	4	-1E+10	1	0.0509	4	0.000226	0	-1E+10	1	-1E+10	1	-1E+10	1
4902624	15	C	11/18/2024	04:35	-127.740	47.105	0	714.90	0	4.2290	0	34.2690	0	27.186	0	707.738	0	-1e10	1	-1e10	1	-1E+10	1	-1e10	1	-1e10	1	-1E+10	1	-1E+10	1	-1E+10	1
4902624	15	C	11/18/2024	04:35	-127.740	47.105	0	718.30	0	4.2064	0	34.2680	0	27.188	0	711.098	0	9.0	4	2.9	4	-1E+10	1	0.0441	4	0.000223	0	-1E+10	1	-1E+10	1	-1E+10	1
4902624	15	C	11/18/2024	04:35	-127.740	47.105	0	725.00	0	4.1620	0	34.2660	0	27.191	0	717.720	0	-1e10	1	-1e10	1	-1E+10	1	-1e10	1	-1e10	1	-1E+10	1	-1E+10	1	-1E+10	1
4902624	15	C	11/18/2024	04:35	-127.740	47.105	0	727.70	0	4.1463	0	34.2657	0	27.193	0	720.388	0	9.0	4	2.9	4	-1E+10	1	0.0511	4	0.000166	0	-1E+10	1	-1E+10	1	-1E+10	1
4902624	15	C	11/18/2024	04:35	-127.740	47.105	0	735.00	0	4.1040	0	34.2650	0	27.196	0	727.602	0	-1e10	1	-1e10	1	-1E+10	1	-1e10	1	-1e10	1	-1E+10	1	-1E+10	1	-1E+10	1
4902624	15	C	11/18/2024	04:35	-127.740	47.105	0	737.30	0	4.1040	0	34.2669	0	27.198	0	729.875	0	8.8	4	2.8	4	-1E+10	1	0.0514	4	0.000144	0	-1E+10	1	-1E+10	1	-1E+10	1
4902624	15	C	11/18/2024	04:35	-127.740	47.105	0	744.80	0	4.1040	0	34.2730	0	27.203	0	737.286	0	-1e10	1	-1e10	1	-1E+10	1	-1e10	1	-1e10	1	-1E+10	1	-1E+10	1	-1E+10	1
4902624	15	C	11/18/2024	04:35	-127.740	47.105	0	746.90	0	4.1131	0	34.2753	0	27.204	0	739.361	0	8.5	4	2.7	4	-1E+10	1	0.0582	4	0.000156	0	-1E+10	1	-1E+10	1	-1E+10	1
4902624	15	C	11/18/2024	04:35	-127.740	47.105	0	754.90	0	4.1480	0	34.2840	0	27.207	0	747.266	0	-1e10	1	-1e10	1	-1E+10	1	-1e10	1	-1e10	1	-1E+10	1	-1E+10	1	-1E+10	1
4902624	15	C	11/18/2024	04:35	-127.740	47.105	0	756.50	0	4.1331	0	34.2832	0	27.208	0	748.847	0	8.7	4	2.7	4	-1E+10	1	0.0514	4	0.000189	0	-1E+10	1	-1E+10	1	-1E+10	1
4902624	15	C	11/18/2024	04:35	-127.740	47.105	0	764.90	0	4.0550	0	34.2790	0	27.213	0	757.147	0	-1e10	1	-1e10	1	-1E+10	1	-1e10	1	-1e10	1	-1E+10	1	-1E+10	1	-1E+10	1
4902624	15	C	11/18/2024	04:35	-127.740	47.105	0	766.10	0	4.0489	0	34.2794	0	27.214	0	758.332	0	8.7	4	2.8	4	-1E+10	1	0.0581	4	0.000168	0	-1E+10	1	-1E+10	1	-1E+10	1
4902624	15	C	11/18/2024	04:35	-127.740	47.105	0	774.90	0	4.0040	0	34.2820	0	27.221	0	767.027	0	-1e10	1	-1e10	1	-1E+10	1	-1e10	1	-1e10	1	-1E+10	1	-1E+10	1	-1E+10	1
4902624	15	C	11/18/2024	04:35	-127.740	47.105	0	775.60	0	4.0019	0	34.2825	0	27.221	0	767.719	0	8.6	4	2.7	4	-1E+10	1	0.0508	4	0.000188	0	-1E+10	1	-1E+10	1	-1E+10	1
4902624	15	C	11/18/2024	04:35	-127.740	47.105	0	785.10	0	3.9730	0	34.2890	0	27.229	0	777.104	0	-1e10	1	-1e10	1	-1E+10	1	-1e10	1	-1e10	1	-1E+10	1	-1E+10	1	-1E+10	1
4902624	15	C	11/18/2024	04:35	-127.740	47.105	0	785.40	0	3.9715	0	34.2891	0	27.230	0	777.401	0	8.5	4	2.7	4	-1E+10	1	0.0438	4	0.000143	0	-1E+10	1	-1E+10	1	-1E+10	1
4902624	15	C	11/18/2024	04:35	-127.740	47.105	0	794.90	0	3.9240	0	34.2930	0	27.238	0	786.786	0	-1e10	1	-1e10	1	-1E+10	1	-1e10	1	-1e10	1	-1E+10	1	-1E+10	1	-1E+10	1
4902624	15	C	11/18/2024	04:35	-127.740	47.105	0	795.50	0	3.9255	0	34.2937	0	27.238	0	787.379	0	8.2	4	2.6	4	-1E+10	1	0.0444	4	0.000143	0	-1E+10	1	-1E+10	1	-1E+10	1
4902624	15	C	11/18/2024	04:35	-127.740	47.105	0	804.80	0	3.9480	0	34.3050	0	27.245	0	796.566	0	-1e10	1	-1e10	1	-1E+10	1	-1e10	1	-1e10	1	-1E+10	1	-1E+10	1	-1E+10	1
4902624	15	C	11/18/2024	04:35	-127.740	47.105	0	805.80	0	3.9465	0	34.3057	0	27.245	0	797.554	0	7.9	4	2.5	4	-1E+10	1	0.0587	4	0.000166	0	-1E+10	1	-1E+10	1	-1E+10	1
4902624	15	C	11/18/2024	04:35	-127.740	47.105	0	814.80	0	3.9330	0	34.3120	0	27.252	0	806.445	0	-1e10	1	-1e10	1	-1E+10	1	-1e10	1	-1e10	1	-1E+10	1	-1E+10	1	-1E+10	1
4902624	15	C	11/18/2024	04:35	-127.740	47.105	0	816.30	0	3.9296	0	34.3126	0	27.253	0	807.926	0	7.8	4	2.5	4	-1E+10	1	0.0650	4	0.000435	0	-1E+10	1	-1E+10	1	-1E+10	1
4902624	15	C	11/18/2024	04:35	-127.740	47.105	0	824.80	0	3.9100	0	34.3160	0	27.258	0	816.323	0	-1e10	1	-1e10	1	-1E+10	1	-1e10	1	-1e10	1	-1E+10	1	-1E+10	1	-1E+10	1
4902624	15	C	11/18/2024	04:35	-127.740	47.105	0	827.00	0	3.9053	0	34.3173	0	27.259	0	818.496	0	7.7	4	2.4	4	-1E+10	1	0.0514	4	0.000180	0	-1E+10	1	-1E+10	1	-1E+10	1
4902624	15	C	11/18/2024	04:35	-127.740	47.105	0	835.00	0	3.8880	0	34.3220	0	27.265	0	826.398	0	-1e10	1	-1e10	1	-1E+10	1	-1e10	1	-1e10	1	-1E+10	1	-1E+10	1	-1E+10	1
4902624	15	C	11/18/2024	04:35	-127.740	47.105	0	838.00	0	3.8783	0	34.3229	0	27.266	0	829.361	0	7.7	4	2.4	4	-1E+10	1	0.0587	4	0.000233	0	-1E+10	1	-1E+10	1	-1E+10	1
4902624	15	C	11/18/2024	04:35	-127.740	47.105	0	844.90	0	3.8560	0	34.3250	0	27.270	0	836.176	0	-1e10	1	-1e10	1	-1E+10	1	-1e10	1	-1e10	1	-1E+10	1	-1E+10	1	-1E+10	1
4902624	15	C	11/18/2024	04:35	-127.740	47.105	0	849.20	0	3.8392	0	34.3263	0	27.273	0	840.423	0	7.8	4	2.5	4	-1E+10	1	0.0657	4	0.000154	0	-1E+10	1	-1E+10	1	-1E+10	1
4902624	15	C	11/18/2024	04:35	-127.740	47.105	0	854.90	0	3.8170	0	34.3280	0	27.277	0	846.052	0	-1e10	1	-1e10	1	-1E+10	1	-1e10	1	-1e10	1	-1E+10	1	-1E+10	1	-1E+10	1
4902624	15	C	11/18/2024	04:35	-127.740	47.105	0	860.40	0	3.7892	0	34.3302	0	27.281	0	851.484	0	7.9	4	2.5	4	-1E+10	1	0.0654	4	0.000154	0	-1E+10	1	-1E+10	1	-1E+10	1
4902624	15	C	11/18/2024	04:35	-127.740	47.105	0	865.00	0	3.7660	0	34.3320	0	27.285	0	856.027	0	-1e10	1	-1e10	1	-1E+10	1	-1e10	1	-1e10	1	-1E+10	1	-1E+10	1	-1E+10	1
4902624	15	C	11/18/2024	04:35	-127.740	47.105	0	871.90	0	3.7421	0	34.3361	0	27.291	0	862.841	0	8.0	4	2.5	4	-1E+10	1	0.0581	4	0.000153	0	-1E+10	1	-1E+10	1	-1E+10	1
4902624	15	C	11/18/2024	04:35	-127.740	47.105	0	875.10	0	3.7310	0	34.3380	0	27.293	0	866.001	0	-1e10	1	-1e10	1	-1E+10	1	-1e10	1	-1e10	1	-1E+10	1	-1E+10	1	-1E+10	1
4902624	15	C	11/18/2024	04:35	-127.740	47.105	0	883.40	0	3.7207	0	34.3448	0	27.300	0	874.198	0	7.9	4	2.5	4	-1E+10	1	0.0516	4	0.000142	0	-1E+10	1	-1E+10	1	-1E+10	1
4902624	15	C	11/18/2024	04:35	-127.740	47.105	0	884.80	0	3.7190	0	34.3460	0	27.301	0	875.580	0	-1e10	1	-1e10	1	-1E+10	1	-1e10	1	-1e10	1	-1E+10	1	-1E+10	1	-1E+10	1
4902624	15	C	11/18/2024	04:35	-127.740	47.105	0	895.10	0	3.6955	0	34.3509	0	27.307	0	885.751	0	7.9	4	2.5	4	-1E+10	1	0.0652	4	0.000141	0	-1E+10	1	-1E+10	1	-1E+10	1
4902624	15	C	11/18/2024	04:35	-127.740	47.105	0	895.30	0	3.6950	0	34.3510	0	27.307	0	885.949	0	-1e10	1	-1e10	1	-1E+10	1	-1e10	1	-1e10	1	-1E+10	1	-1E+10	1	-1E+10	1
4902624	15	C	11/18/2024	04:35	-127.740	47.105	0	904.80	0	3.7150	0	34.3600	0	27.313	0	895.329	0	-1e10	1	-1e10	1	-1E+10	1	-1e10	1	-1e10	1	-1E+10	1	-1E+10	1	-1E+10	1
4902624	15	C	11/18/2024	04:35	-127.740	47.105	0	907.00	0	3.7004	0	34.3591	0	27.313	0	897.501	0	40.9	4	12.8	4	-1E+10	1	0.0517	4	0.000120	0	-1E+10	1	-1E+10	1	-1E+10	1
4902624	15	C	11/18/2024	04:35	-127.740	47.105	0	914.90	0	3.6480	0	34.3560	0	27.316	0	905.302	0	-1e10	1	-1e10	1	-1E+10	1	-1e10	1	-1e10	1	-1E+10	1	-1E+10	1	-1E+10	1
4902624	15	C	11/18/2024	04:35	-127.740	47.105	0	919.10	0	3.6480	0	34.3593	0	27.319	0	909.448	0	44.9	4	14.1	4	-1E+10	1	0.0654	4	0.000153	0	-1E+10	1	-1E+10	1	-1E+10	1
4902624	15	C	11/18/2024	04:35	-127.740	47.105	0	925.10	0	3.6480	0	34.3640	0	27.322	0	915.372	0	-1e10	1	-1e10	1	-1E+10	1	-1e10	1	-1e10	1	-1E+10	1	-1E+10	1	-1E+10	1
4902624	15	C	11/18/2024	04:35	-127.740	47.105	0	931.30	0	3.6392	0	34.3671	0	27.326	0	921.493	0	41.4	4	13.0	4	-1E+10	1	0.0584	4	0.000142	0	-1E+10	1	-1E+10	1	-1E+10	1
4902624	15	C	11/18/2024	04:35	-127.740	47.105	0	935.00	0	3.6340	0	34.3690	0	27.328	0	925.146	0	-1e10	1	-1e10	1	-1E+10	1	-1e10	1	-1e10	1	-1E+10	1	-1E+10	1	-1E+10	1
4902624	15	C	11/18/2024	04:35	-127.740	47.105	0	941.30	0	3.6155	0	34.3709	0	27.331	0	931.366	0	55.7	4	17.5	4	-1E+10	1	0.0577	4	0.000152	0	-1E+10	1	-1E+10	1	-1E+10	1
4902624	15	C	11/18/2024	04:35	-127.740	47.105	0	944.90	0	3.6050	0	34.3720	0	27.333	0	934.920	0	-1e10	1	-1e10	1	-1E+10	1	-1e10	1	-1e10	1	-1E+10	1	-1E+10	1	-1E+10	1
4902624	15	C	11/18/2024	04:35	-127.740	47.105	0	949.40	0	3.6046	0	34.3747	0	27.335	0	939.362	0	64.1	4	20.1	4	-1E+10	1	0.0438	4	0.000143	0	-1E+10	1	-1E+10	1	-1E+10	1
4902624	15	C	11/18/2024	04:35	-127.740	47.105	0	954.90	0	3.6040	0	34.3780	0	27.338	0	944.792	0	-1e10	1	-1e10	1	-1E+10	1	-1e10	1	-1e10	1	-1E+10	1	-1E+10	1	-1E+10	1
4902624	15	C	11/18/2024	04:35	-127.740	47.105	0	957.60	0	3.5987	0	34.3791	0	27.340	0	947.457	0	58.5	4	18.3	4	-1E+10	1	0.0441	4	0.000187	0	-1E+10	1	-1E+10	1	-1E+10	1
4902624	15	C	11/18/2024	04:35	-127.740	47.105	0	965.10	0	3.5840	0	34.3820	0	27.343	0	954.860	0	-1e10	1	-1e10	1	-1E+10	1	-1e10	1	-1e10	1	-1E+10	1	-1E+10	1	-1E+10	1
4902624	15	C	11/18/2024	04:35	-127.740	47.105	0	965.80	0	3.5819	0	34.3821	0	27.344	0	955.551	0	66.1	4	20.7	4	-1E+10	1	0.0516	4	0.000202	0	-1E+10	1	-1E+10	1	-1E+10	1
4902624	15	C	11/18/2024	04:35	-127.740	47.105	0	974.20	0	3.5571	0	34.3839	0	27.347	0	963.843	0	65.9	4	20.6	4	-1E+10	1	0.0649	4	0.001171	0	-1E+10	1	-1E+10	1	-1E+10	1
4902624	15	C	11/18/2024	04:35	-127.740	47.105	0	974.90	0	3.5550	0	34.3840	0	27.348	0	964.534	0	-1e10	1	-1e10	1	-1E+10	1	-1e10	1	-1e10	1	-1E+10	1	-1E+10	1	-1E+10	1
4902624	15	C	11/18/2024	04:35	-127.740	47.105	0	982.80	0	3.5308	0	34.3863	0	27.352	0	972.332	0	58.1	4	18.2	4	-1E+10	1	0.0446	4	0.000130	0	-1E+10	1	-1E+10	1	-1E+10	1
4902624	15	C	11/18/2024	04:35	-127.740	47.105	0	985.00	0	3.5240	0	34.3870	0	27.353	0	974.503	0	-1e10	1	-1e10	1	-1E+10	1	-1e10	1	-1e10	1	-1E+10	1	-1E+10	1	-1E+10	1
4902624	15	C	11/18/2024	04:35	-127.740	47.105	0	991.50	0	3.4977	0	34.3883	0	27.357	0	980.919	0	56.5	4	17.7	4	-1E+10	1	0.0655	4	0.000142	0	-1E+10	1	-1E+10	1	-1E+10	1
4902624	15	C	11/18/2024	04:35	-127.740	47.105	0	994.90	0	3.4840	0	34.3890	0	27.359	0	984.274	0	-1e10	1	-1e10	1	-1E+10	1	-1e10	1	-1e10	1	-1E+10	1	-1E+10	1	-1E+10	1
4902624	15	C	11/18/2024	04:35	-127.740	47.105	0	1009.60	0	3.4642	0	34.3964	0	27.367	0	998.782	0	50.5	4	15.8	4	-1E+10	1	0.0513	4	0.000186	0	-1E+10	1	-1E+10	1	-1E+10	1
4902624	15	C	11/18/2024	04:35	-127.740	47.105	0	1024.60	0	3.4440	0	34.4040	0	27.375	0	1013.585	0	-1e10	1	-1e10	1	-1E+10	1	-1e10	1	-1e10	1	-1E+10	1	-1E+10	1	-1E+10	1
4902624	15	C	11/18/2024	04:35	-127.740	47.105	0	1028.50	0	3.4329	0	34.4050	0	27.377	0	1017.434	0	49.5	4	15.4	4	-1E+10	1	0.0584	4	0.000129	0	-1E+10	1	-1E+10	1	-1E+10	1
4902624	15	C	11/18/2024	04:35	-127.740	47.105	0	1048.30	0	3.3764	0	34.4101	0	27.386	0	1036.972	0	59.2	4	18.4	4	-1E+10	1	0.0585	4	0.000151	0	-1E+10	1	-1E+10	1	-1E+10	1
4902624	15	C	11/18/2024	04:35	-127.740	47.105	0	1069.20	0	3.3167	0	34.4154	0	27.396	0	1057.593	0	59.0	4	18.4	4	-1E+10	1	0.0654	4	0.000116	0	-1E+10	1	-1E+10	1	-1E+10	1
4902624	15	C	11/18/2024	04:35	-127.740	47.105	0	1075.40	0	3.2990	0	34.4170	0	27.399	0	1063.710	0	-1e10	1	-1e10	1	-1E+10	1	-1e10	1	-1e10	1	-1E+10	1	-1E+10	1	-1E+10	1
4902624	15	C	11/18/2024	04:35	-127.740	47.105	0	1091.10	0	3.2666	0	34.4211	0	27.406	0	1079.199	0	55.6	4	17.3	4	-1E+10	1	0.0511	4	0.000105	0	-1E+10	1	-1E+10	1	-1E+10	1
4902624	15	C	11/18/2024	04:35	-127.740	47.105	0	1113.90	0	3.2195	0	34.4271	0	27.415	0	1101.691	0	56.8	4	17.6	4	-1E+10	1	0.0511	4	0.000139	0	-1E+10	1	-1E+10	1	-1E+10	1
4902624	15	C	11/18/2024	04:35	-127.740	47.105	0	1124.80	0	3.1970	0	34.4300	0	27.419	0	1112.443	0	-1e10	1	-1e10	1	-1E+10	1	-1e10	1	-1e10	1	-1E+10	1	-1E+10	1	-1E+10	1
4902624	15	C	11/18/2024	04:35	-127.740	47.105	0	1137.60	0	3.1705	0	34.4340	0	27.425	0	1125.068	0	57.3	4	17.8	4	-1E+10	1	0.0513	4	0.000116	0	-1E+10	1	-1E+10	1	-1E+10	1
4902624	15	C	11/18/2024	04:35	-127.740	47.105	0	1161.60	0	3.1209	0	34.4416	0	27.436	0	1148.738	0	65.5	4	20.3	4	-1E+10	1	0.0583	4	0.000127	0	-1E+10	1	-1E+10	1	-1E+10	1
4902624	15	C	11/18/2024	04:35	-127.740	47.105	0	1175.60	0	3.0920	0	34.4460	0	27.442	0	1162.544	0	-1e10	1	-1e10	1	-1E+10	1	-1e10	1	-1e10	1	-1E+10	1	-1E+10	1	-1E+10	1
4902624	15	C	11/18/2024	04:35	-127.740	47.105	0	1185.90	0	3.0642	0	34.4489	0	27.447	0	1172.701	0	81.9	4	25.3	4	-1E+10	1	0.0513	4	0.000127	0	-1E+10	1	-1E+10	1	-1E+10	1
4902624	15	C	11/18/2024	04:35	-127.740	47.105	0	1204.80	0	3.0131	0	34.4542	0	27.456	0	1191.337	0	86.2	4	26.6	4	-1E+10	1	0.0584	4	0.000149	0	-1E+10	1	-1E+10	1	-1E+10	1
4902624	15	C	11/18/2024	04:35	-127.740	47.105	0	1221.20	0	2.9688	0	34.4589	0	27.464	0	1207.507	0	78.5	4	24.2	4	-1E+10	1	0.0584	4	0.000106	0	-1E+10	1	-1E+10	1	-1E+10	1
4902624	15	C	11/18/2024	04:35	-127.740	47.105	0	1225.20	0	2.9580	0	34.4600	0	27.466	0	1211.450	0	-1e10	1	-1e10	1	-1E+10	1	-1e10	1	-1e10	1	-1E+10	1	-1E+10	1	-1E+10	1
4902624	15	C	11/18/2024	04:35	-127.740	47.105	0	1237.60	0	2.9267	0	34.4640	0	27.472	0	1223.675	0	82.1	4	25.3	4	-1E+10	1	0.0583	4	0.000207	0	-1E+10	1	-1E+10	1	-1E+10	1
4902624	15	C	11/18/2024	04:35	-127.740	47.105	0	1254.30	0	2.8845	0	34.4694	0	27.480	0	1240.138	0	82.4	4	25.4	4	-1E+10	1	0.0512	4	0.000126	0	-1E+10	1	-1E+10	1	-1E+10	1
4902624	15	C	11/18/2024	04:35	-127.740	47.105	0	1271.40	0	2.8413	0	34.4749	0	27.488	0	1256.994	0	83.4	4	25.7	4	-1E+10	1	0.0586	4	0.000126	0	-1E+10	1	-1E+10	1	-1E+10	1
4902624	15	C	11/18/2024	04:35	-127.740	47.105	0	1274.70	0	2.8330	0	34.4760	0	27.490	0	1260.247	0	-1e10	1	-1e10	1	-1E+10	1	-1e10	1	-1e10	1	-1E+10	1	-1E+10	1	-1E+10	1
4902624	15	C	11/18/2024	04:35	-127.740	47.105	0	1289.10	0	2.8017	0	34.4800	0	27.496	0	1274.440	0	84.6	4	26.0	4	-1E+10	1	0.0654	4	0.000137	0	-1E+10	1	-1E+10	1	-1E+10	1
4902624	15	C	11/18/2024	04:35	-127.740	47.105	0	1307.70	0	2.7613	0	34.4852	0	27.503	0	1292.771	0	85.5	4	26.3	4	-1E+10	1	0.0514	4	0.000137	0	-1E+10	1	-1E+10	1	-1E+10	1
4902624	15	C	11/18/2024	04:35	-127.740	47.105	0	1324.90	0	2.7240	0	34.4900	0	27.511	0	1309.722	0	-1e10	1	-1e10	1	-1E+10	1	-1e10	1	-1e10	1	-1E+10	1	-1E+10	1	-1E+10	1
4902624	15	C	11/18/2024	04:35	-127.740	47.105	0	1327.20	0	2.7201	0	34.4905	0	27.511	0	1311.988	0	88.3	4	27.1	4	-1E+10	1	0.0656	4	0.000136	0	-1E+10	1	-1E+10	1	-1E+10	1
4902624	15	C	11/18/2024	04:35	-127.740	47.105	0	1348.40	0	2.6837	0	34.4956	0	27.519	0	1332.878	0	90.3	4	27.7	4	-1E+10	1	0.0584	4	0.000079	0	-1E+10	1	-1E+10	1	-1E+10	1
4902624	15	C	11/18/2024	04:35	-127.740	47.105	0	1370.60	0	2.6456	0	34.5008	0	27.526	0	1354.751	0	90.1	4	27.6	4	-1E+10	1	0.0584	4	0.000137	0	-1E+10	1	-1E+10	1	-1E+10	1
4902624	15	C	11/18/2024	04:35	-127.740	47.105	0	1375.60	0	2.6370	0	34.5020	0	27.528	0	1359.677	0	-1e10	1	-1e10	1	-1E+10	1	-1e10	1	-1e10	1	-1E+10	1	-1E+10	1	-1E+10	1
4902624	15	C	11/18/2024	04:35	-127.740	47.105	0	1386.00	0	2.6212	0	34.5039	0	27.531	0	1369.923	0	91.5	4	28.0	4	-1E+10	1	0.0583	4	0.000136	0	-1E+10	1	-1E+10	1	-1E+10	1
4902624	15	C	11/18/2024	04:35	-127.740	47.105	0	1403.10	0	2.5953	0	34.5071	0	27.536	0	1386.769	0	92.0	4	28.1	4	-1E+10	1	0.0511	4	0.000136	0	-1E+10	1	-1E+10	1	-1E+10	1
4902624	15	C	11/18/2024	04:35	-127.740	47.105	0	1421.50	0	2.5674	0	34.5105	0	27.541	0	1404.893	0	90.9	4	27.8	4	-1E+10	1	0.0507	4	0.000112	0	-1E+10	1	-1E+10	1	-1E+10	1
4902624	15	C	11/18/2024	04:35	-127.740	47.105	0	1424.40	0	2.5630	0	34.5110	0	27.542	0	1407.750	0	-1e10	1	-1e10	1	-1E+10	1	-1e10	1	-1e10	1	-1E+10	1	-1E+10	1	-1E+10	1
4902624	15	C	11/18/2024	04:35	-127.740	47.105	0	1441.00	0	2.5388	0	34.5139	0	27.546	0	1424.100	0	94.6	4	28.9	4	-1E+10	1	0.0296	4	0.000112	0	-1E+10	1	-1E+10	1	-1E+10	1
4902624	15	C	11/18/2024	04:35	-127.740	47.105	0	1461.30	0	2.5091	0	34.5176	0	27.552	0	1444.092	0	97.6	4	29.8	4	-1E+10	1	0.0515	4	0.000124	0	-1E+10	1	-1E+10	1	-1E+10	1
4902624	15	C	11/18/2024	04:35	-127.740	47.105	0	1475.10	0	2.4890	0	34.5200	0	27.555	0	1457.682	0	-1e10	1	-1e10	1	-1E+10	1	-1e10	1	-1e10	1	-1E+10	1	-1E+10	1	-1E+10	1
4902624	15	C	11/18/2024	04:35	-127.740	47.105	0	1481.90	0	2.4796	0	34.5212	0	27.557	0	1464.378	0	81.2	4	24.8	4	-1E+10	1	0.0654	4	0.000135	0	-1E+10	1	-1E+10	1	-1E+10	1
4902624	15	C	11/18/2024	04:35	-127.740	47.105	0	1502.70	0	2.4508	0	34.5250	0	27.563	0	1484.859	0	84.6	4	25.8	4	-1E+10	1	0.0512	4	0.000135	0	-1E+10	1	-1E+10	1	-1E+10	1
4902624	15	C	11/18/2024	04:35	-127.740	47.105	0	1523.90	0	2.4214	0	34.5288	0	27.568	0	1505.732	0	91.8	4	28.0	4	-1E+10	1	0.0581	4	0.000134	0	-1E+10	1	-1E+10	1	-1E+10	1
4902624	15	C	11/18/2024	04:35	-127.740	47.105	0	1524.90	0	2.4200	0	34.5290	0	27.569	0	1506.717	0	-1e10	1	-1e10	1	-1E+10	1	-1e10	1	-1e10	1	-1E+10	1	-1E+10	1	-1E+10	1
4902624	15	C	11/18/2024	04:35	-127.740	47.105	0	1545.20	0	2.3951	0	34.5326	0	27.574	0	1526.701	0	92.9	4	28.3	4	-1E+10	1	0.0441	4	0.000111	0	-1E+10	1	-1E+10	1	-1E+10	1
4902624	15	C	11/18/2024	04:35	-127.740	47.105	0	1566.50	0	2.3689	0	34.5364	0	27.579	0	1547.669	0	97.6	4	29.7	4	-1E+10	1	0.0584	4	0.000112	0	-1E+10	1	-1E+10	1	-1E+10	1
4902624	15	C	11/18/2024	04:35	-127.740	47.105	0	1575.40	0	2.3580	0	34.5380	0	27.581	0	1556.429	0	-1e10	1	-1e10	1	-1E+10	1	-1e10	1	-1e10	1	-1E+10	1	-1E+10	1	-1E+10	1
4902624	15	C	11/18/2024	04:35	-127.740	47.105	0	1588.10	0	2.3403	0	34.5401	0	27.584	0	1568.929	0	101.8	4	30.9	4	-1E+10	1	0.0581	4	0.000146	0	-1E+10	1	-1E+10	1	-1E+10	1
4902624	15	C	11/18/2024	04:35	-127.740	47.105	0	1610.20	0	2.3094	0	34.5436	0	27.590	0	1590.679	0	103.5	4	31.4	4	-1E+10	1	0.0438	4	0.000145	0	-1E+10	1	-1E+10	1	-1E+10	1
4902624	15	C	11/18/2024	04:35	-127.740	47.105	0	1624.80	0	2.2890	0	34.5460	0	27.594	0	1605.047	0	-1e10	1	-1e10	1	-1E+10	1	-1e10	1	-1e10	1	-1E+10	1	-1E+10	1	-1E+10	1
4902624	15	C	11/18/2024	04:35	-127.740	47.105	0	1632.90	0	2.2790	0	34.5473	0	27.595	0	1613.018	0	103.7	4	31.5	4	-1E+10	1	0.0438	4	0.000145	0	-1E+10	1	-1E+10	1	-1E+10	1
4902624	15	C	11/18/2024	04:35	-127.740	47.105	0	1656.40	0	2.2500	0	34.5509	0	27.601	0	1636.141	0	104.7	4	31.7	4	-1E+10	1	0.0442	4	0.000132	0	-1E+10	1	-1E+10	1	-1E+10	1
4902624	15	C	11/18/2024	04:35	-127.740	47.105	0	1675.00	0	2.2271	0	34.5539	0	27.605	0	1654.441	0	104.1	4	31.6	4	-1E+10	1	0.0580	4	0.000110	0	-1E+10	1	-1E+10	1	-1E+10	1
4902624	15	C	11/18/2024	04:35	-127.740	47.105	0	1675.90	0	2.2260	0	34.5540	0	27.605	0	1655.326	0	-1e10	1	-1e10	1	-1E+10	1	-1e10	1	-1e10	1	-1E+10	1	-1E+10	1	-1E+10	1
4902624	15	C	11/18/2024	04:35	-127.740	47.105	0	1691.30	0	2.2083	0	34.5565	0	27.609	0	1670.476	0	106.5	4	32.3	4	-1E+10	1	0.0438	4	0.000144	0	-1E+10	1	-1E+10	1	-1E+10	1
4902624	15	C	11/18/2024	04:35	-127.740	47.105	0	1708.40	0	2.1886	0	34.5593	0	27.613	0	1687.298	0	106.2	4	32.2	4	-1E+10	1	0.0439	4	0.000132	0	-1E+10	1	-1E+10	1	-1E+10	1
4902624	15	C	11/18/2024	04:35	-127.740	47.105	0	1724.60	0	2.1700	0	34.5620	0	27.617	0	1703.233	0	-1e10	1	-1e10	1	-1E+10	1	-1e10	1	-1e10	1	-1E+10	1	-1E+10	1	-1E+10	1
4902624	15	C	11/18/2024	04:35	-127.740	47.105	0	1726.50	0	2.1682	0	34.5623	0	27.617	0	1705.102	0	111.0	4	33.6	4	-1E+10	1	0.0511	4	0.000132	0	-1E+10	1	-1E+10	1	-1E+10	1
4902624	15	C	11/18/2024	04:35	-127.740	47.105	0	1745.50	0	2.1497	0	34.5649	0	27.621	0	1723.789	0	117.3	4	35.5	4	-1E+10	1	0.0510	4	0.000109	0	-1E+10	1	-1E+10	1	-1E+10	1
4902624	15	C	11/18/2024	04:35	-127.740	47.105	0	1765.50	0	2.1302	0	34.5677	0	27.624	0	1743.458	0	123.5	4	37.4	4	-1E+10	1	0.0438	4	0.000131	0	-1E+10	1	-1E+10	1	-1E+10	1
4902624	15	C	11/18/2024	04:35	-127.740	47.105	0	1775.00	0	2.1210	0	34.5690	0	27.626	0	1752.800	0	-1e10	1	-1e10	1	-1E+10	1	-1e10	1	-1e10	1	-1E+10	1	-1E+10	1	-1E+10	1
4902624	15	C	11/18/2024	04:35	-127.740	47.105	0	1786.20	0	2.1100	0	34.5704	0	27.628	0	1763.814	0	126.7	4	38.3	4	-1E+10	1	0.0439	4	0.000108	0	-1E+10	1	-1E+10	1	-1E+10	1
4902624	15	C	11/18/2024	04:35	-127.740	47.105	0	1807.80	0	2.0887	0	34.5730	0	27.632	0	1785.052	0	128.8	4	38.9	4	-1E+10	1	0.0509	4	0.000096	0	-1E+10	1	-1E+10	1	-1E+10	1
4902624	15	C	11/18/2024	04:35	-127.740	47.105	0	1824.80	0	2.0720	0	34.5750	0	27.635	0	1801.766	0	-1e10	1	-1e10	1	-1E+10	1	-1e10	1	-1e10	1	-1E+10	1	-1E+10	1	-1E+10	1
4902624	15	C	11/18/2024	04:35	-127.740	47.105	0	1830.40	0	2.0672	0	34.5759	0	27.636	0	1807.272	0	130.4	4	39.4	4	-1E+10	1	0.0438	4	0.000084	0	-1E+10	1	-1E+10	1	-1E+10	1
4902624	15	C	11/18/2024	04:35	-127.740	47.105	0	1853.70	0	2.0472	0	34.5795	0	27.641	0	1830.177	0	131.4	4	39.7	4	-1E+10	1	0.0440	4	0.000108	0	-1E+10	1	-1E+10	1	-1E+10	1
4902624	15	C	11/18/2024	04:35	-127.740	47.105	0	1873.60	0	2.0301	0	34.5826	0	27.645	0	1849.738	0	131.2	4	39.6	4	-1E+10	1	0.0510	4	0.000130	0	-1E+10	1	-1E+10	1	-1E+10	1
4902624	15	C	11/18/2024	04:35	-127.740	47.105	0	1876.00	0	2.0280	0	34.5830	0	27.645	0	1852.097	0	-1e10	1	-1e10	1	-1E+10	1	-1e10	1	-1e10	1	-1E+10	1	-1E+10	1	-1E+10	1
4902624	15	C	11/18/2024	04:35	-127.740	47.105	0	1889.60	0	2.0163	0	34.5850	0	27.648	0	1865.464	0	131.8	4	39.8	4	-1E+10	1	0.0439	4	0.000130	0	-1E+10	1	-1E+10	1	-1E+10	1
4902624	15	C	11/18/2024	04:35	-127.740	47.105	0	1906.10	0	2.0020	0	34.5873	0	27.651	0	1881.681	0	131.6	4	39.7	4	-1E+10	1	0.0511	4	0.000130	0	-1E+10	1	-1E+10	1	-1E+10	1
4902624	15	C	11/18/2024	04:35	-127.740	47.105	0	1923.20	0	1.9873	0	34.5898	0	27.654	0	1898.485	0	129.8	4	39.1	4	-1E+10	1	0.0511	4	0.000118	0	-1E+10	1	-1E+10	1	-1E+10	1
4902624	15	C	11/18/2024	04:35	-127.740	47.105	0	1924.70	0	1.9860	0	34.5900	0	27.654	0	1899.959	0	-1e10	1	-1e10	1	-1E+10	1	-1e10	1	-1e10	1	-1E+10	1	-1E+10	1	-1E+10	1
4902624	15	C	11/18/2024	04:35	-127.740	47.105	0	1940.80	0	1.9754	0	34.5917	0	27.657	0	1915.780	0	88.0	4	26.5	4	-1E+10	1	0.0510	4	0.000118	0	-1E+10	1	-1E+10	1	-1E+10	1
4902624	15	C	11/18/2024	04:35	-127.740	47.105	0	1959.10	0	1.9634	0	34.5937	0	27.659	0	1933.761	0	87.6	4	26.4	4	-1E+10	1	0.0438	4	0.000118	0	-1E+10	1	-1E+10	1	-1E+10	1
4902624	15	C	11/18/2024	04:35	-127.740	47.105	0	1971.80	0	1.9550	0	34.5950	0	27.661	0	1946.239	0	-1e10	1	-1e10	1	-1E+10	1	-1e10	1	-1e10	1	-1E+10	1	-1E+10	1	-1E+10	1
4902624	15	C	11/18/2024	04:35	-127.740	47.105	0	1977.90	0	-1e10	1	-1e10	1	-1e10	1	1952.232	0	86.8	4	-1e10	4	-1E+10	1	0.0440	4	0.000161	0	-1E+10	1	-1E+10	1	-1E+10	1
4902624	15	C	11/18/2024	04:35	-127.740	47.105	0	1993.50	0	-1e10	1	-1e10	1	-1e10	1	1967.557	0	89.2	4	-1e10	4	-1E+10	1	0.0511	4	0.000127	0	-1E+10	1	-1E+10	1	-1E+10	1
4902624	15	C	11/18/2024	04:35	-127.740	47.105	0																										
4902624	16	C	11/27/2024	23:35	-127.594	47.041	0	0.00	0	10.3610	0	32.2300	0	24.730	0	0.000	0	260.3	4	93.7	4	-1E+10	1	-1e10	1	-1e10	1	-1E+10	1	-1E+10	1	-1E+10	1
4902624	16	C	11/27/2024	23:35	-127.594	47.041	0	0.40	0	10.3610	0	32.2300	0	24.730	0	0.397	0	248.5	4	89.4	4	-1E+10	1	1.2264	4	0.001263	0	-1E+10	1	-1E+10	1	-1E+10	1
4902624	16	C	11/27/2024	23:35	-127.594	47.041	0	0.50	0	10.3644	0	32.2279	0	24.728	0	0.496	0	245.5	4	88.3	4	-1E+10	1	-1e10	1	-1e10	1	-1E+10	1	-1E+10	1	-1E+10	1
4902624	16	C	11/27/2024	23:35	-127.594	47.041	0	0.60	0	10.3677	0	32.2258	0	24.725	0	0.595	0	246.1	4	88.6	4	-1E+10	1	1.2775	4	0.001298	0	-1E+10	1	-1E+10	1	-1E+10	1
4902624	16	C	11/27/2024	23:35	-127.594	47.041	0	1.10	0	10.3845	0	32.2154	0	24.714	0	1.091	0	-1e10	1	-1e10	1	-1E+10	1	1.2775	4	0.001263	0	-1E+10	1	-1E+10	1	-1E+10	1
4902624	16	C	11/27/2024	23:35	-127.594	47.041	0	1.40	0	10.3946	0	32.2091	0	24.708	0	1.388	0	-1e10	1	-1e10	1	-1E+10	1	1.2775	4	0.001251	0	-1E+10	1	-1E+10	1	-1E+10	1
4902624	16	C	11/27/2024	23:35	-127.594	47.041	0	1.50	0	10.3980	0	32.2070	0	24.706	0	1.488	0	-1e10	1	-1e10	1	-1E+10	1	-1e10	1	-1e10	1	-1E+10	1	-1E+10	1	-1E+10	1
4902624	16	C	11/27/2024	23:35	-127.594	47.041	0	1.60	0	10.3977	0	32.2070	0	24.706	0	1.587	0	-1e10	1	-1e10	1	-1E+10	1	1.3140	4	0.001368	0	-1E+10	1	-1E+10	1	-1E+10	1
4902624	16	C	11/27/2024	23:35	-127.594	47.041	0	1.90	0	10.3968	0	32.2070	0	24.706	0	1.884	0	242.6	4	87.3	4	-1E+10	1	1.2848	4	0.001322	0	-1E+10	1	-1E+10	1	-1E+10	1
4902624	16	C	11/27/2024	23:35	-127.594	47.041	0	2.10	0	10.3962	0	32.2070	0	24.706	0	2.083	0	-1e10	1	-1e10	1	-1E+10	1	1.2702	4	0.001392	0	-1E+10	1	-1E+10	1	-1E+10	1
4902624	16	C	11/27/2024	23:35	-127.594	47.041	0	2.30	0	10.3956	0	32.2070	0	24.706	0	2.281	0	-1e10	1	-1e10	1	-1E+10	1	1.2556	4	0.001322	0	-1E+10	1	-1E+10	1	-1E+10	1
4902624	16	C	11/27/2024	23:35	-127.594	47.041	0	2.50	0	10.3950	0	32.2070	0	24.706	0	2.479	0	-1e10	1	-1e10	1	-1E+10	1	-1e10	1	-1e10	1	-1E+10	1	-1E+10	1	-1E+10	1
4902624	16	C	11/27/2024	23:35	-127.594	47.041	0	2.60	0	10.3936	0	32.2069	0	24.706	0	2.578	0	242.2	4	87.2	4	-1E+10	1	1.3213	4	0.001275	0	-1E+10	1	-1E+10	1	-1E+10	1
4902624	16	C	11/27/2024	23:35	-127.594	47.041	0	3.00	0	10.3878	0	32.2064	0	24.707	0	2.975	0	242.1	4	87.1	4	-1E+10	1	1.3213	4	0.001275	0	-1E+10	1	-1E+10	1	-1E+10	1
4902624	16	C	11/27/2024	23:35	-127.594	47.041	0	3.30	0	10.3834	0	32.2061	0	24.707	0	3.273	0	-1e10	1	-1e10	1	-1E+10	1	1.2994	4	0.001333	0	-1E+10	1	-1E+10	1	-1E+10	1
4902624	16	C	11/27/2024	23:35	-127.594	47.041	0	3.40	0	10.3820	0	32.2060	0	24.708	0	3.372	0	-1e10	1	-1e10	1	-1E+10	1	-1e10	1	-1e10	1	-1E+10	1	-1E+10	1	-1E+10	1
4902624	16	C	11/27/2024	23:35	-127.594	47.041	0	3.60	0	10.3792	0	32.2058	0	24.708	0	3.570	0	-1e10	1	-1e10	1	-1E+10	1	1.2848	4	0.001345	0	-1E+10	1	-1E+10	1	-1E+10	1
4902624	16	C	11/27/2024	23:35	-127.594	47.041	0	3.80	0	10.3764	0	32.2056	0	24.708	0	3.768	0	-1e10	1	-1e10	1	-1E+10	1	1.3286	4	0.001533	0	-1E+10	1	-1E+10	1	-1E+10	1
4902624	16	C	11/27/2024	23:35	-127.594	47.041	0	4.00	0	10.3736	0	32.2054	0	24.709	0	3.967	0	241.8	4	87.0	4	-1E+10	1	1.3213	4	0.001357	0	-1E+10	1	-1E+10	1	-1E+10	1
4902624	16	C	11/27/2024	23:35	-127.594	47.041	0	4.30	0	10.3694	0	32.2051	0	24.709	0	4.264	0	-1e10	1	-1e10	1	-1E+10	1	1.3870	4	0.001709	0	-1E+10	1	-1E+10	1	-1E+10	1
4902624	16	C	11/27/2024	23:35	-127.594	47.041	0	4.40	0	10.3680	0	32.2050	0	24.709	0	4.363	0	-1e10	1	-1e10	1	-1E+10	1	-1e10	1	-1e10	1	-1E+10	1	-1E+10	1	-1E+10	1
4902624	16	C	11/27/2024	23:35	-127.594	47.041	0	4.50	0	10.3678	0	32.2051	0	24.709	0	4.463	0	-1e10	1	-1e10	1	-1E+10	1	1.2775	4	0.001345	0	-1E+10	1	-1E+10	1	-1E+10	1
4902624	16	C	11/27/2024	23:35	-127.594	47.041	0	4.80	0	10.3672	0	32.2054	0	24.710	0	4.760	0	-1e10	1	-1e10	1	-1E+10	1	1.3213	4	0.001556	0	-1E+10	1	-1E+10	1	-1E+10	1
4902624	16	C	11/27/2024	23:35	-127.594	47.041	0	5.30	0	10.3662	0	32.2059	0	24.710	0	5.256	0	241.0	4	86.7	4	-1E+10	1	1.3140	4	0.001333	0	-1E+10	1	-1E+10	1	-1E+10	1
4902624	16	C	11/27/2024	23:35	-127.594	47.041	0	5.40	0	10.3660	0	32.2060	0	24.710	0	5.355	0	-1e10	1	-1e10	1	-1E+10	1	-1e10	1	-1e10	1	-1E+10	1	-1E+10	1	-1E+10	1
4902624	16	C	11/27/2024	23:35	-127.594	47.041	0	5.50	0	10.3657	0	32.2062	0	24.711	0	5.454	0	-1e10	1	-1e10	1	-1E+10	1	1.2775	4	0.001357	0	-1E+10	1	-1E+10	1	-1E+10	1
4902624	16	C	11/27/2024	23:35	-127.594	47.041	0	5.80	0	10.3648	0	32.2068	0	24.711	0	5.752	0	-1e10	1	-1e10	1	-1E+10	1	1.3286	4	0.001286	0	-1E+10	1	-1E+10	1	-1E+10	1
4902624	16	C	11/27/2024	23:35	-127.594	47.041	0	6.00	0	10.3642	0	32.2072	0	24.712	0	5.950	0	-1e10	1	-1e10	1	-1E+10	1	1.3651	4	0.001486	0	-1E+10	1	-1E+10	1	-1E+10	1
4902624	16	C	11/27/2024	23:35	-127.594	47.041	0	6.30	0	10.3633	0	32.2078	0	24.712	0	6.248	0	-1e10	1	-1e10	1	-1E+10	1	1.3943	4	0.001310	0	-1E+10	1	-1E+10	1	-1E+10	1
4902624	16	C	11/27/2024	23:35	-127.594	47.041	0	6.40	0	10.3630	0	32.2080	0	24.712	0	6.347	0	-1e10	1	-1e10	1	-1E+10	1	-1e10	1	-1e10	1	-1E+10	1	-1E+10	1	-1E+10	1
4902624	16	C	11/27/2024	23:35	-127.594	47.041	0	6.50	0	10.3621	0	32.2081	0	24.713	0	6.446	0	240.5	4	86.5	4	-1E+10	1	1.3067	4	0.001404	0	-1E+10	1	-1E+10	1	-1E+10	1
4902624	16	C	11/27/2024	23:35	-127.594	47.041	0	6.80	0	10.3594	0	32.2084	0	24.713	0	6.743	0	-1e10	1	-1e10	1	-1E+10	1	1.3943	4	0.001368	0	-1E+10	1	-1E+10	1	-1E+10	1
4902624	16	C	11/27/2024	23:35	-127.594	47.041	0	7.30	0	10.3549	0	32.2089	0	24.714	0	7.239	0	-1e10	1	-1e10	1	-1E+10	1	1.3505	4	0.001322	0	-1E+10	1	-1E+10	1	-1E+10	1
4902624	16	C	11/27/2024	23:35	-127.594	47.041	0	7.40	0	10.3540	0	32.2090	0	24.715	0	7.338	0	-1e10	1	-1e10	1	-1E+10	1	-1e10	1	-1e10	1	-1E+10	1	-1E+10	1	-1E+10	1
4902624	16	C	11/27/2024	23:35	-127.594	47.041	0	7.60	0	10.3529	0	32.2092	0	24.715	0	7.537	0	-1e10	1	-1e10	1	-1E+10	1	1.3432	4	0.001462	0	-1E+10	1	-1E+10	1	-1E+10	1
4902624	16	C	11/27/2024	23:35	-127.594	47.041	0	7.80	0	10.3518	0	32.2094	0	24.715	0	7.735	0	240.1	4	86.3	4	-1E+10	1	1.3359	4	0.001263	0	-1E+10	1	-1E+10	1	-1E+10	1
4902624	16	C	11/27/2024	23:35	-127.594	47.041	0	8.10	0	10.3502	0	32.2096	0	24.716	0	8.033	0	-1e10	1	-1e10	1	-1E+10	1	1.3067	4	0.001310	0	-1E+10	1	-1E+10	1	-1E+10	1
4902624	16	C	11/27/2024	23:35	-127.594	47.041	0	8.30	0	10.3491	0	32.2098	0	24.716	0	8.231	0	-1e10	1	-1e10	1	-1E+10	1	1.3797	4	0.001310	0	-1E+10	1	-1E+10	1	-1E+10	1
4902624	16	C	11/27/2024	23:35	-127.594	47.041	0	8.50	0	10.3480	0	32.2100	0	24.717	0	8.429	0	-1e10	1	-1e10	1	-1E+10	1	-1e10	1	-1e10	1	-1E+10	1	-1E+10	1	-1E+10	1
4902624	16	C	11/27/2024	23:35	-127.594	47.041	0	8.60	0	10.3473	0	32.2103	0	24.717	0	8.528	0	-1e10	1	-1e10	1	-1E+10	1	1.2848	4	0.001310	0	-1E+10	1	-1E+10	1	-1E+10	1
4902624	16	C	11/27/2024	23:35	-127.594	47.041	0	8.80	0	10.3459	0	32.2109	0	24.718	0	8.727	0	-1e10	1	-1e10	1	-1E+10	1	1.3286	4	0.001333	0	-1E+10	1	-1E+10	1	-1E+10	1
4902624	16	C	11/27/2024	23:35	-127.594	47.041	0	9.10	0	10.3438	0	32.2118	0	24.719	0	9.024	0	239.6	4	86.2	4	-1E+10	1	1.3140	4	0.001321	0	-1E+10	1	-1E+10	1	-1E+10	1
4902624	16	C	11/27/2024	23:35	-127.594	47.041	0	9.50	0	10.3410	0	32.2130	0	24.720	0	9.421	0	-1e10	1	-1e10	1	-1E+10	1	-1e10	1	-1e10	1	-1E+10	1	-1E+10	1	-1E+10	1
4902624	16	C	11/27/2024	23:35	-127.594	47.041	0	9.60	0	10.3407	0	32.2131	0	24.720	0	9.520	0	-1e10	1	-1e10	1	-1E+10	1	1.3432	4	0.001298	0	-1E+10	1	-1E+10	1	-1E+10	1
4902624	16	C	11/27/2024	23:35	-127.594	47.041	0	10.40	0	10.3387	0	32.2141	0	24.721	0	10.313	0	239.0	4	85.9	4	-1E+10	1	1.3833	4	0.001298	0	-1E+10	1	-1E+10	1	-1E+10	1
4902624	16	C	11/27/2024	23:35	-127.594	47.041	0	11.10	0	10.3370	0	32.2150	0	24.722	0	11.008	0	-1e10	1	-1e10	1	-1E+10	1	-1e10	1	-1e10	1	-1E+10	1	-1E+10	1	-1E+10	1
4902624	16	C	11/27/2024	23:35	-127.594	47.041	0	11.70	0	10.3386	0	32.2163	0	24.723	0	11.603	0	238.6	4	85.8	4	-1E+10	1	1.3979	4	0.001251	0	-1E+10	1	-1E+10	1	-1E+10	1
4902624	16	C	11/27/2024	23:35	-127.594	47.041	0	13.00	0	10.3420	0	32.2190	0	24.725	0	12.892	0	238.4	4	85.7	4	-1E+10	1	1.3861	4	0.001242	0	-1E+10	1	-1E+10	1	-1E+10	1
4902624	16	C	11/27/2024	23:35	-127.594	47.041	0	14.40	0	10.3434	0	32.2218	0	24.727	0	14.280	0	238.0	4	85.6	4	-1E+10	1	1.3426	4	0.001151	0	-1E+10	1	-1E+10	1	-1E+10	1
4902624	16	C	11/27/2024	23:35	-127.594	47.041	0	15.00	0	10.3440	0	32.2230	0	24.727	0	14.875	0	-1e10	1	-1e10	1	-1E+10	1	-1e10	1	-1e10	1	-1E+10	1	-1E+10	1	-1E+10	1
4902624	16	C	11/27/2024	23:35	-127.594	47.041	0	15.70	0	10.3370	0	32.2240	0	24.729	0	15.569	0	237.7	4	85.5	4	-1E+10	1	1.3528	4	0.001162	0	-1E+10	1	-1E+10	1	-1E+10	1
4902624	16	C	11/27/2024	23:35	-127.594	47.041	0	17.00	0	10.3240	0	32.2260	0	24.733	0	16.858	0	237.6	4	85.4	4	-1E+10	1	1.2994	4	0.001134	0	-1E+10	1	-1E+10	1	-1E+10	1
4902624	16	C	11/27/2024	23:35	-127.594	47.041	0	18.30	0	10.3142	0	32.2267	0	24.735	0	18.147	0	237.2	4	85.3	4	-1E+10	1	1.2460	4	0.001115	0	-1E+10	1	-1E+10	1	-1E+10	1
4902624	16	C	11/27/2024	23:35	-127.594	47.041	0	19.00	0	10.3090	0	32.2270	0	24.737	0	18.841	0	-1e10	1	-1e10	1	-1E+10	1	-1e10	1	-1e10	1	-1E+10	1	-1E+10	1	-1E+10	1
4902624	16	C	11/27/2024	23:35	-127.594	47.041	0	19.60	0	10.3054	0	32.2279	0	24.738	0	19.436	0	237.0	4	85.2	4	-1E+10	1	1.2674	4	0.001074	0	-1E+10	1	-1E+10	1	-1E+10	1
4902624	16	C	11/27/2024	23:35	-127.594	47.041	0	21.00	0	10.2970	0	32.2300	0	24.741	0	20.825	0	236.6	4	85.0	4	-1E+10	1	1.2624	4	0.001192	0	-1E+10	1	-1E+10	1	-1E+10	1
4902624	16	C	11/27/2024	23:35	-127.594	47.041	0	22.30	0	10.2936	0	32.2307	0	24.742	0	22.114	0	236.2	4	84.9	4	-1E+10	1	1.2242	4	0.001172	0	-1E+10	1	-1E+10	1	-1E+10	1
4902624	16	C	11/27/2024	23:35	-127.594	47.041	0	22.90	0	10.2920	0	32.2310	0	24.743	0	22.709	0	-1e10	1	-1e10	1	-1E+10	1	-1e10	1	-1e10	1	-1E+10	1	-1E+10	1	-1E+10	1
4902624	16	C	11/27/2024	23:35	-127.594	47.041	0	23.60	0	10.2897	0	32.2317	0	24.744	0	23.403	0	235.8	4	84.7	4	-1E+10	1	1.2000	4	0.001093	0	-1E+10	1	-1E+10	1	-1E+10	1
4902624	16	C	11/27/2024	23:35	-127.594	47.041	0	24.90	0	10.2853	0	32.2329	0	24.745	0	24.692	0	235.3	4	84.5	4	-1E+10	1	1.1972	4	0.001093	0	-1E+10	1	-1E+10	1	-1E+10	1
4902624	16	C	11/27/2024	23:35	-127.594	47.041	0	25.00	0	10.2850	0	32.2330	0	24.745	0	24.791	0	-1e10	1	-1e10	1	-1E+10	1	-1e10	1	-1e10	1	-1E+10	1	-1E+10	1	-1E+10	1
4902624	16	C	11/27/2024	23:35	-127.594	47.041	0	26.20	0	10.2820	0	32.2342	0	24.747	0	25.981	0	234.8	4	84.3	4	-1E+10	1	1.1858	4	0.001088	0	-1E+10	1	-1E+10	1	-1E+10	1
4902624	16	C	11/27/2024	23:35	-127.594	47.041	0	27.00	0	10.2800	0	32.2350	0	24.748	0	26.774	0	-1e10	1	-1e10	1	-1E+10	1	-1e10	1	-1e10	1	-1E+10	1	-1E+10	1	-1E+10	1
4902624	16	C	11/27/2024	23:35	-127.594	47.041	0	27.50	0	10.2787	0	32.2355	0	24.748	0	27.270	0	234.2	4	84.1	4	-1E+10	1	1.1708	4	0.001060	0	-1E+10	1	-1E+10	1	-1E+10	1
4902624	16	C	11/27/2024	23:35	-127.594	47.041	0	28.80	0	10.2753	0	32.2369	0	24.750	0	28.559	0	233.5	4	83.8	4	-1E+10	1	1.2274	4	0.001172	0	-1E+10	1	-1E+10	1	-1E+10	1
4902624	16	C	11/27/2024	23:35	-127.594	47.041	0	28.90	0	10.2750	0	32.2370	0	24.750	0	28.658	0	-1e10	1	-1e10	1	-1E+10	1	-1e10	1	-1e10	1	-1E+10	1	-1E+10	1	-1E+10	1
4902624	16	C	11/27/2024	23:35	-127.594	47.041	0	30.10	0	10.2727	0	32.2387	0	24.752	0	29.848	0	232.5	4	83.5	4	-1E+10	1	1.2337	4	0.001192	0	-1E+10	1	-1E+10	1	-1E+10	1
4902624	16	C	11/27/2024	23:35	-127.594	47.041	0	31.00	0	10.2710	0	32.2400	0	24.753	0	30.740	0	-1e10	1	-1e10	1	-1E+10	1	-1e10	1	-1e10	1	-1E+10	1	-1E+10	1	-1E+10	1
4902624	16	C	11/27/2024	23:35	-127.594	47.041	0	31.40	0	10.2702	0	32.2404	0	24.754	0	31.137	0	231.5	4	83.1	4	-1E+10	1	1.1578	4	0.001162	0	-1E+10	1	-1E+10	1	-1E+10	1
4902624	16	C	11/27/2024	23:35	-127.594	47.041	0	32.60	0	10.2678	0	32.2416	0	24.755	0	32.327	0	230.5	4	82.8	4	-1E+10	1	1.1236	4	0.001175	0	-1E+10	1	-1E+10	1	-1E+10	1
4902624	16	C	11/27/2024	23:35	-127.594	47.041	0	33.00	0	10.2670	0	32.2420	0	24.756	0	32.723	0	-1e10	1	-1e10	1	-1E+10	1	-1e10	1	-1e10	1	-1E+10	1	-1E+10	1	-1E+10	1
4902624	16	C	11/27/2024	23:35	-127.594	47.041	0	33.90	0	10.2657	0	32.2424	0	24.756	0	33.616	0	229.3	4	82.3	4	-1E+10	1	1.1656	4	0.001227	0	-1E+10	1	-1E+10	1	-1E+10	1
4902624	16	C	11/27/2024	23:35	-127.594	47.041	0	35.10	0	10.2640	0	32.2430	0	24.757	0	34.806	0	-1e10	1	-1e10	1	-1E+10	1	-1e10	1	-1e10	1	-1E+10	1	-1E+10	1	-1E+10	1
4902624	16	C	11/27/2024	23:35	-127.594	47.041	0	35.20	0	10.2639	0	32.2430	0	24.757	0	34.905	0	228.0	4	81.9	4	-1E+10	1	1.1704	4	0.001126	0	-1E+10	1	-1E+10	1	-1E+10	1
4902624	16	C	11/27/2024	23:35	-127.594	47.041	0	36.40	0	10.2633	0	32.2430	0	24.757	0	36.095	0	226.5	4	81.3	4	-1E+10	1	1.1141	4	0.001061	0	-1E+10	1	-1E+10	1	-1E+10	1
4902624	16	C	11/27/2024	23:35	-127.594	47.041	0	37.00	0	10.2630	0	32.2430	0	24.757	0	36.689	0	-1e10	1	-1e10	1	-1E+10	1	-1e10	1	-1e10	1	-1E+10	1	-1E+10	1	-1E+10	1
4902624	16	C	11/27/2024	23:35	-127.594	47.041	0	37.60	0	10.2615	0	32.2427	0	24.757	0	37.284	0	224.7	4	80.7	4	-1E+10	1	1.0377	4	0.001090	0	-1E+10	1	-1E+10	1	-1E+10	1
4902624	16	C	11/27/2024	23:35	-127.594	47.041	0	38.70	0	10.2587	0	32.2421	0	24.757	0	38.375	0	222.8	4	80.0	4	-1E+10	1	1.0087	4	0.000997	0	-1E+10	1	-1E+10	1	-1E+10	1
4902624	16	C	11/27/2024	23:35	-127.594	47.041	0	39.00	0	10.2580	0	32.2420	0	24.757	0	38.672	0	-1e10	1	-1e10	1	-1E+10	1	-1e10	1	-1e10	1	-1E+10	1	-1E+10	1	-1E+10	1
4902624	16	C	11/27/2024	23:35	-127.594	47.041	0	39.60	0	10.2568	0	32.2420	0	24.757	0	39.267	0	220.8	4	79.3	4	-1E+10	1	1.0147	4	0.001016	0	-1E+10	1	-1E+10	1	-1E+10	1
4902624	16	C	11/27/2024	23:35	-127.594	47.041	0	40.40	0	10.2552	0	32.2420	0	24.758	0	40.061	0	218.5	4	78.5	4	-1E+10	1	0.9782	4	0.000969	0	-1E+10	1	-1E+10	1	-1E+10	1
4902624	16	C	11/27/2024	23:35	-127.594	47.041	0	41.00	0	10.2540	0	32.2420	0	24.758	0	40.655	0	-1e10	1	-1e10	1	-1E+10	1	-1e10	1	-1e10	1	-1E+10	1	-1E+10	1	-1E+10	1
4902624	16	C	11/27/2024	23:35	-127.594	47.041	0	41.20	0	10.2527	0	32.2428	0	24.759	0	40.854	0	216.2	4	77.6	4	-1E+10	1	0.9432	4	0.001016	0	-1E+10	1	-1E+10	1	-1E+10	1
4902624	16	C	11/27/2024	23:35	-127.594	47.041	0	41.90	0	10.2481	0	32.2456	0	24.762	0	41.548	0	213.6	4	76.7	4	-1E+10	1	0.8842	4	0.000991	0	-1E+10	1	-1E+10	1	-1E+10	1
4902624	16	C	11/27/2024	23:35	-127.594	47.041	0	42.70	0	10.2430	0	32.2488	0	24.765	0	42.341	0	210.8	4	75.7	4	-1E+10	1	0.7492	4	0.000911	0	-1E+10	1	-1E+10	1	-1E+10	1
4902624	16	C	11/27/2024	23:35	-127.594	47.041	0	43.00	0	10.2410	0	32.2500	0	24.766	0	42.638	0	-1e10	1	-1e10	1	-1E+10	1	-1e10	1	-1e10	1	-1E+10	1	-1E+10	1	-1E+10	1
4902624	16	C	11/27/2024	23:35	-127.594	47.041	0	43.40	0	10.2250	0	32.2569	0	24.774	0	43.035	0	207.6	4	74.5	4	-1E+10	1	0.6680	4	0.000852	0	-1E+10	1	-1E+10	1	-1E+10	1
4902624	16	C	11/27/2024	23:35	-127.594	47.041	0	44.10	0	10.1970	0	32.2689	0	24.788	0	43.729	0	204.1	4	73.2	4	-1E+10	1	0.6351	4	0.000809	0	-1E+10	1	-1E+10	1	-1E+10	1
4902624	16	C	11/27/2024	23:35	-127.594	47.041	0	44.80	0	10.1690	0	32.2809	0	24.803	0	44.423	0	200.2	4	71.7	4	-1E+10	1	0.5986	4	0.000782	0	-1E+10	1	-1E+10	1	-1E+10	1
4902624	16	C	11/27/2024	23:35	-127.594	47.041	0	45.10	0	10.1570	0	32.2860	0	24.809	0	44.721	0	-1e10	1	-1e10	1	-1E+10	1	-1e10	1	-1e10	1	-1E+10	1	-1E+10	1	-1E+10	1
4902624	16	C	11/27/2024	23:35	-127.594	47.041	0	45.60	0	10.1407	0	32.2913	0	24.815	0	45.216	0	195.6	4	70.1	4	-1E+10	1	0.5418	4	0.000844	0	-1E+10	1	-1E+10	1	-1E+10	1
4902624	16	C	11/27/2024	23:35	-127.594	47.041	0	46.30	0	10.1178	0	32.2986	0	24.825	0	45.910	0	191.7	4	68.6	4	-1E+10	1	0.4964	4	0.000817	0	-1E+10	1	-1E+10	1	-1E+10	1
4902624	16	C	11/27/2024	23:35	-127.594	47.041	0	47.00	0	10.0950	0	32.3060	0	24.834	0	46.604	0	-1e10	1	-1e10	1	-1E+10	1	-1e10	1	-1e10	1	-1E+10	1	-1E+10	1	-1E+10	1
4902624	16	C	11/27/2024	23:35	-127.594	47.041	0	47.10	0	10.0771	0	32.3117	0	24.842	0	46.704	0	186.7	4	66.8	4	-1E+10	1	0.5110	4	0.000840	0	-1E+10	1	-1E+10	1	-1E+10	1
4902624	16	C	11/27/2024	23:35	-127.594	47.041	0	47.60	0	9.9876	0	32.3404	0	24.879	0	47.199	0	183.9	4	65.7	4	-1E+10	1	0.4806	4	0.000772	0	-1E+10	1	-1E+10	1	-1E+10	1
4902624	16	C	11/27/2024	23:35	-127.594	47.041	0	48.10	0	9.8982	0	32.3691	0	24.916	0	47.695	0	180.6	4	64.4	4	-1E+10	1	0.4258	4	0.000727	0	-1E+10	1	-1E+10	1	-1E+10	1
4902624	16	C	11/27/2024	23:35	-127.594	47.041	0	48.60	0	9.8087	0	32.3978	0	24.953	0	48.191	0	178.2	4	63.4	4	-1E+10	1	0.3540	4	0.000629	0	-1E+10	1	-1E+10	1	-1E+10	1
4902624	16	C	11/27/2024	23:35	-127.594	47.041	0	48.90	0	9.7550	0	32.4150	0	24.976	0	48.488	0	-1e10	1	-1e10	1	-1E+10	1	-1e10	1	-1e10	1	-1E+10	1	-1E+10	1	-1E+10	1
4902624	16	C	11/27/2024	23:35	-127.594	47.041	0	49.10	0	9.6807	0	32.4389	0	25.006	0	48.686	0	177.3	4	62.9	4	-1E+10	1	0.2896	4	0.000539	0	-1E+10	1	-1E+10	1	-1E+10	1
4902624	16	C	11/27/2024	23:35	-127.594	47.041	0	49.70	0	9.4579	0	32.5106	0	25.098	0	49.281	0	174.6	4	61.7	4	-1E+10	1	0.2500	4	0.000881	0	-1E+10	1	-1E+10	1	-1E+10	1
4902624	16	C	11/27/2024	23:35	-127.594	47.041	0	50.40	0	9.1979	0	32.5943	0	25.205	0	49.975	0	172.6	4	60.7	4	-1E+10	1	0.2272	4	0.001780	0	-1E+10	1	-1E+10	1	-1E+10	1
4902624	16	C	11/27/2024	23:35	-127.594	47.041	0	51.00	0	8.9750	0	32.6660	0	25.296	0	50.570	0	-1e10	1	-1e10	1	-1E+10	1	-1e10	1	-1e10	1	-1E+10	1	-1E+10	1	-1E+10	1
4902624	16	C	11/27/2024	23:35	-127.594	47.041	0	51.10	0	8.9610	0	32.6704	0	25.302	0	50.669	0	170.8	4	59.8	4	-1E+10	1	0.1825	4	0.000559	0	-1E+10	1	-1E+10	1	-1E+10	1
4902624	16	C	11/27/2024	23:35	-127.594	47.041	0	51.80	0	8.8630	0	32.7012	0	25.341	0	51.363	0	169.0	4	59.0	4	-1E+10	1	0.1752	4	0.000512	0	-1E+10	1	-1E+10	1	-1E+10	1
4902624	16	C	11/27/2024	23:35	-127.594	47.041	0	52.50	0	8.7650	0	32.7320	0	25.380	0	52.057	0	167.2	4	58.3	4	-1E+10	1	0.1695	4	0.000448	0	-1E+10	1	-1E+10	1	-1E+10	1
4902624	16	C	11/27/2024	23:35	-127.594	47.041	0	53.00	0	8.6950	0	32.7540	0	25.408	0	52.553	0	-1e10	1	-1e10	1	-1E+10	1	-1e10	1	-1e10	1	-1E+10	1	-1E+10	1	-1E+10	1
4902624	16	C	11/27/2024	23:35	-127.594	47.041	0	53.30	0	8.6613	0	32.7649	0	25.422	0	52.851	0	165.4	4	57.6	4	-1E+10	1	0.1436	4	0.000398	0	-1E+10	1	-1E+10	1	-1E+10	1
4902624	16	C	11/27/2024	23:35	-127.594	47.041	0	54.00	0	8.5825	0	32.7905	0	25.454	0	53.545	0	163.5	4	56.8	4	-1E+10	1	0.1314	4	0.000394	0	-1E+10	1	-1E+10	1	-1E+10	1
4902624	16	C	11/27/2024	23:35	-127.594	47.041	0	54.90	0	8.4812	0	32.8233	0	25.495	0	54.437	0	161.5	4	56.0	4	-1E+10	1	0.1205	4	0.000435	0	-1E+10	1	-1E+10	1	-1E+10	1
4902624	16	C	11/27/2024	23:35	-127.594	47.041	0	55.00	0	8.4700	0	32.8270	0	25.499	0	54.536	0	-1e10	1	-1e10	1	-1E+10	1	-1e10	1	-1e10	1	-1E+10	1	-1E+10	1	-1E+10	1
4902624	16	C	11/27/2024	23:35	-127.594	47.041	0	55.80	0	8.3641	0	32.8708	0	25.549	0	55.329	0	159.0	4	55.0	4	-1E+10	1	0.1022	4	0.000449	0	-1E+10	1	-1E+10	1	-1E+10	1
4902624	16	C	11/27/2024	23:35	-127.594	47.041	0	56.70	0	8.2450	0	32.9201	0	25.606	0	56.221	0	156.8	4	54.1	4	-1E+10	1	0.0869	4	0.000408	0	-1E+10	1	-1E+10	1	-1E+10	1
4902624	16	C	11/27/2024	23:35	-127.594	47.041	0	57.10	0	8.1920	0	32.9420	0	25.631	0	56.618	0	-1e10	1	-1e10	1	-1E+10	1	-1e10	1	-1e10	1	-1E+10	1	-1E+10	1	-1E+10	1
4902624	16	C	11/27/2024	23:35	-127.594	47.041	0	57.80	0	8.1416	0	32.9721	0	25.662	0	57.312	0	155.1	4	53.4	4	-1E+10	1	0.0803	4	0.000340	0	-1E+10	1	-1E+10	1	-1E+10	1
4902624	16	C	11/27/2024	23:35	-127.594	47.041	0	58.80	0	8.0696	0	33.0151	0	25.706	0	58.303	0	153.7	4	52.9	4	-1E+10	1	0.0803	4	0.000418	0	-1E+10	1	-1E+10	1	-1E+10	1
4902624	16	C	11/27/2024	23:35	-127.594	47.041	0	59.10	0	8.0480	0	33.0280	0	25.719	0	58.601	0	-1e10	1	-1e10	1	-1E+10	1	-1e10	1	-1e10	1	-1E+10	1	-1E+10	1	-1E+10	1
4902624	16	C	11/27/2024	23:35	-127.594	47.041	0	59.90	0	8.0308	0	33.0560	0	25.744	0	59.394	0	152.5	4	52.4	4	-1E+10	1	0.0803	4	0.000326	0	-1E+10	1	-1E+10	1	-1E+10	1
4902624	16	C	11/27/2024	23:35	-127.594	47.041	0	61.10	0	8.0050	0	33.0980	0	25.781	0	60.584	0	149.8	4	51.5	4	-1E+10	1	0.0624	4	0.000348	0	-1E+10	1	-1E+10	1	-1E+10	1
4902624	16	C	11/27/2024	23:35	-127.594	47.041	0	62.20	0	7.9990	0	33.1129	0	25.793	0	61.674	0	150.2	4	51.6	4	-1E+10	1	0.0635	4	0.000383	0	-1E+10	1	-1E+10	1	-1E+10	1
4902624	16	C	11/27/2024	23:35	-127.594	47.041	0	63.10	0	7.9940	0	33.1250	0	25.804	0	62.566	0	-1e10	1	-1e10	1	-1E+10	1	-1e10	1	-1e10	1	-1E+10	1	-1E+10	1	-1E+10	1
4902624	16	C	11/27/2024	23:35	-127.594	47.041	0	63.30	0	7.9881	0	33.1287	0	25.807	0	62.765	0	148.9	4	51.2	4	-1E+10	1	0.0657	4	0.000335	0	-1E+10	1	-1E+10	1	-1E+10	1
4902624	16	C	11/27/2024	23:35	-127.594	47.041	0	64.40	0	7.9557	0	33.1489	0	25.828	0	63.855	0	147.6	4	50.7	4	-1E+10	1	0.0614	4	0.000369	0	-1E+10	1	-1E+10	1	-1E+10	1
4902624	16	C	11/27/2024	23:35	-127.594	47.041	0	65.00	0	7.9380	0	33.1600	0	25.839	0	64.450	0	-1e10	1	-1e10	1	-1E+10	1	-1e10	1	-1e10	1	-1E+10	1	-1E+10	1	-1E+10	1
4902624	16	C	11/27/2024	23:35	-127.594	47.041	0	65.60	0	7.9254	0	33.1795	0	25.856	0	65.045	0	146.3	4	50.2	4	-1E+10	1	0.0620	4	0.000400	0	-1E+10	1	-1E+10	1	-1E+10	1
4902624	16	C	11/27/2024	23:35	-127.594	47.041	0	66.70	0	7.9023	0	33.2152	0	25.888	0	66.135	0	145.3	4	49.9	4	-1E+10	1	0.0636	4	0.000369	0	-1E+10	1	-1E+10	1	-1E+10	1
4902624	16	C	11/27/2024	23:35	-127.594	47.041	0	67.00	0	7.8960	0	33.2250	0	25.896	0	66.433	0	-1e10	1	-1e10	1	-1E+10	1	-1e10	1	-1e10	1	-1E+10	1	-1E+10	1	-1E+10	1
4902624	16	C	11/27/2024	23:35	-127.594	47.041	0	67.90	0	7.8794	0	33.2548	0	25.922	0	67.325	0	144.5	4	49.6	4	-1E+10	1	0.0569	4	0.000333	0	-1E+10	1	-1E+10	1	-1E+10	1
4902624	16	C	11/27/2024	23:35	-127.594	47.041	0	68.90	0	7.8610	0	33.2880	0	25.951	0	68.316	0	142.2	4	48.8	4	-1E+10	1	0.0496	4	0.000322	0	-1E+10	1	-1E+10	1	-1E+10	1
4902624	16	C	11/27/2024	23:35	-127.594	47.041	0	69.70	0	7.8426	0	33.3004	0	25.963	0	69.110	0	143.4	4	49.2	4	-1E+10	1	0.0438	4	0.000312	0	-1E+10	1	-1E+10	1	-1E+10	1
4902624	16	C	11/27/2024	23:35	-127.594	47.041	0	70.50	0	7.8242	0	33.3128	0	25.976	0	69.903	0	142.9	4	49.0	4	-1E+10	1	0.0503	4	0.000291	0	-1E+10	1	-1E+10	1	-1E+10	1
4902624	16	C	11/27/2024	23:35	-127.594	47.041	0	70.90	0	7.8150	0	33.3190	0	25.982	0	70.299	0	-1e10	1	-1e10	1	-1E+10	1	-1e10	1	-1e10	1	-1E+10	1	-1E+10	1	-1E+10	1
4902624	16	C	11/27/2024	23:35	-127.594	47.041	0	71.20	0	7.8056	0	33.3235	0	25.987	0	70.597	0	142.3	4	48.8	4	-1E+10	1	0.0323	4	0.000279	0	-1E+10	1	-1E+10	1	-1E+10	1
4902624	16	C	11/27/2024	23:35	-127.594	47.041	0	71.90	0	7.7835	0	33.3340	0	25.998	0	71.291	0	141.8	4	48.6	4	-1E+10	1	0.0438	4	0.000300	0	-1E+10	1	-1E+10	1	-1E+10	1
4902624	16	C	11/27/2024	23:35	-127.594	47.041	0	72.60	0	7.7614	0	33.3445	0	26.010	0	71.984	0	141.2	4	48.4	4	-1E+10	1	0.0511	4	0.000317	0	-1E+10	1	-1E+10	1	-1E+10	1
4902624	16	C	11/27/2024	23:35	-127.594	47.041	0	72.90	0	7.7520	0	33.3490	0	26.015	0	72.282	0	-1e10	1	-1e10	1	-1E+10	1	-1e10	1	-1e10	1	-1E+10	1	-1E+10	1	-1E+10	1
4902624	16	C	11/27/2024	23:35	-127.594	47.041	0	73.40	0	7.7402	0	33.3622	0	26.027	0	72.778	0	140.6	4	48.2	4	-1E+10	1	0.0511	4	0.000333	0	-1E+10	1	-1E+10	1	-1E+10	1
4902624	16	C	11/27/2024	23:35	-127.594	47.041	0	74.20	0	7.7213	0	33.3833	0	26.046	0	73.571	0	140.0	4	47.9	4	-1E+10	1	0.0511	4	0.000336	0	-1E+10	1	-1E+10	1	-1E+10	1
4902624	16	C	11/27/2024	23:35	-127.594	47.041	0	75.00	0	7.7024	0	33.4044	0	26.065	0	74.364	0	139.3	4	47.7	4	-1E+10	1	0.0511	4	0.000321	0	-1E+10	1	-1E+10	1	-1E+10	1
4902624	16	C	11/27/2024	23:35	-127.594	47.041	0	75.10	0	7.7000	0	33.4070	0	26.068	0	74.463	0	-1e10	1	-1e10	1	-1E+10	1	-1e10	1	-1e10	1	-1E+10	1	-1E+10	1	-1E+10	1
4902624	16	C	11/27/2024	23:35	-127.594	47.041	0	75.80	0	7.6919	0	33.4161	0	26.076	0	75.157	0	138.7	4	47.5	4	-1E+10	1	0.0511	4	0.000359	0	-1E+10	1	-1E+10	1	-1E+10	1
4902624	16	C	11/27/2024	23:35	-127.594	47.041	0	76.60	0	7.6827	0	33.4265	0	26.085	0	75.950	0	137.9	4	47.2	4	-1E+10	1	0.0292	4	0.000289	0	-1E+10	1	-1E+10	1	-1E+10	1
4902624	16	C	11/27/2024	23:35	-127.594	47.041	0	77.10	0	7.6770	0	33.4330	0	26.091	0	76.445	0	-1e10	1	-1e10	1	-1E+10	1	-1e10	1	-1e10	1	-1E+10	1	-1E+10	1	-1E+10	1
4902624	16	C	11/27/2024	23:35	-127.594	47.041	0	77.40	0	7.6721	0	33.4369	0	26.095	0	76.743	0	137.2	4	46.9	4	-1E+10	1	0.0350	4	0.000289	0	-1E+10	1	-1E+10	1	-1E+10	1
4902624	16	C	11/27/2024	23:35	-127.594	47.041	0	78.20	0	7.6591	0	33.4475	0	26.105	0	77.536	0	136.5	4	46.7	4	-1E+10	1	0.0414	4	0.000336	0	-1E+10	1	-1E+10	1	-1E+10	1
4902624	16	C	11/27/2024	23:35	-127.594	47.041	0	79.00	0	7.6460	0	33.4580	0	26.115	0	78.329	0	134.1	4	45.8	4	-1E+10	1	0.0438	4	0.000330	0	-1E+10	1	-1E+10	1	-1E+10	1
4902624	16	C	11/27/2024	23:35	-127.594	47.041	0	79.80	0	7.6201	0	33.4652	0	26.125	0	79.122	0	135.0	4	46.1	4	-1E+10	1	0.0402	4	0.000294	0	-1E+10	1	-1E+10	1	-1E+10	1
4902624	16	C	11/27/2024	23:35	-127.594	47.041	0	80.60	0	7.5942	0	33.4725	0	26.134	0	79.915	0	133.9	4	45.7	4	-1E+10	1	0.0431	4	0.000291	0	-1E+10	1	-1E+10	1	-1E+10	1
4902624	16	C	11/27/2024	23:35	-127.594	47.041	0	81.10	0	7.5780	0	33.4770	0	26.140	0	80.411	0	-1e10	1	-1e10	1	-1E+10	1	-1e10	1	-1e10	1	-1E+10	1	-1E+10	1	-1E+10	1
4902624	16	C	11/27/2024	23:35	-127.594	47.041	0	81.40	0	7.5801	0	33.4826	0	26.144	0	80.708	0	132.6	4	45.3	4	-1E+10	1	0.0566	4	0.000318	0	-1E+10	1	-1E+10	1	-1E+10	1
4902624	16	C	11/27/2024	23:35	-127.594	47.041	0	82.30	0	7.5864	0	33.4992	0	26.156	0	81.600	0	131.4	4	44.9	4	-1E+10	1	0.0438	4	0.000278	0	-1E+10	1	-1E+10	1	-1E+10	1
4902624	16	C	11/27/2024	23:35	-127.594	47.041	0	83.10	0	7.5920	0	33.5140	0	26.167	0	82.393	0	128.6	4	44.0	4	-1E+10	1	0.0438	4	0.000282	0	-1E+10	1	-1E+10	1	-1E+10	1
4902624	16	C	11/27/2024	23:35	-127.594	47.041	0	83.90	0	7.5976	0	33.5256	0	26.176	0	83.186	0	129.6	4	44.3	4	-1E+10	1	0.0380	4	0.000306	0	-1E+10	1	-1E+10	1	-1E+10	1
4902624	16	C	11/27/2024	23:35	-127.594	47.041	0	84.80	0	7.6039	0	33.5387	0	26.185	0	84.079	0	128.7	4	44.0	4	-1E+10	1	0.0493	4	0.000281	0	-1E+10	1	-1E+10	1	-1E+10	1
4902624	16	C	11/27/2024	23:35	-127.594	47.041	0	85.10	0	7.6060	0	33.5430	0	26.188	0	84.376	0	-1e10	1	-1e10	1	-1E+10	1	-1e10	1	-1e10	1	-1E+10	1	-1E+10	1	-1E+10	1
4902624	16	C	11/27/2024	23:35	-127.594	47.041	0	85.60	0	7.6007	0	33.5492	0	26.194	0	84.872	0	127.9	4	43.7	4	-1E+10	1	0.0511	4	0.000284	0	-1E+10	1	-1E+10	1	-1E+10	1
4902624	16	C	11/27/2024	23:35	-127.594	47.041	0	86.40	0	7.5924	0	33.5592	0	26.203	0	85.665	0	126.9	4	43.4	4	-1E+10	1	0.0394	4	0.000298	0	-1E+10	1	-1E+10	1	-1E+10	1
4902624	16	C	11/27/2024	23:35	-127.594	47.041	0	87.10	0	7.5850	0	33.5680	0	26.211	0	86.358	0	-1e10	1	-1e10	1	-1E+10	1	-1e10	1	-1e10	1	-1E+10	1	-1E+10	1	-1E+10	1
4902624	16	C	11/27/2024	23:35	-127.594	47.041	0	87.30	0	7.5849	0	33.5697	0	26.212	0	86.557	0	125.9	4	43.0	4	-1E+10	1	0.0274	4	0.000312	0	-1E+10	1	-1E+10	1	-1E+10	1
4902624	16	C	11/27/2024	23:35	-127.594	47.041	0	88.10	0	7.5845	0	33.5764	0	26.217	0	87.350	0	124.9	4	42.7	4	-1E+10	1	0.0365	4	0.000333	0	-1E+10	1	-1E+10	1	-1E+10	1
4902624	16	C	11/27/2024	23:35	-127.594	47.041	0	88.90	0	7.5841	0	33.5832	0	26.223	0	88.143	0	123.8	4	42.3	4	-1E+10	1	0.0373	4	0.000375	0	-1E+10	1	-1E+10	1	-1E+10	1
4902624	16	C	11/27/2024	23:35	-127.594	47.041	0	89.00	0	7.5840	0	33.5840	0	26.224	0	88.242	0	-1e10	1	-1e10	1	-1E+10	1	-1e10	1	-1e10	1	-1E+10	1	-1E+10	1	-1E+10	1
4902624	16	C	11/27/2024	23:35	-127.594	47.041	0	89.70	0	7.5936	0	33.5965	0	26.232	0	88.936	0	122.7	4	41.9	4	-1E+10	1	0.0438	4	0.000312	0	-1E+10	1	-1E+10	1	-1E+10	1
4902624	16	C	11/27/2024	23:35	-127.594	47.041	0	90.50	0	7.6045	0	33.6108	0	26.242	0	89.729	0	121.6	4	41.6	4	-1E+10	1	0.0365	4	0.000300	0	-1E+10	1	-1E+10	1	-1E+10	1
4902624	16	C	11/27/2024	23:35	-127.594	47.041	0	90.90	0	7.6100	0	33.6180	0	26.247	0	90.125	0	-1e10	1	-1e10	1	-1E+10	1	-1e10	1	-1e10	1	-1E+10	1	-1E+10	1	-1E+10	1
4902624	16	C	11/27/2024	23:35	-127.594	47.041	0	91.40	0	7.6143	0	33.6244	0	26.251	0	90.621	0	120.8	4	41.3	4	-1E+10	1	0.0431	4	0.000332	0	-1E+10	1	-1E+10	1	-1E+10	1
4902624	16	C	11/27/2024	23:35	-127.594	47.041	0	92.20	0	7.6211	0	33.6347	0	26.258	0	91.414	0	120.2	4	41.1	4	-1E+10	1	0.0484	4	0.000335	0	-1E+10	1	-1E+10	1	-1E+10	1
4902624	16	C	11/27/2024	23:35	-127.594	47.041	0	93.00	0	7.6280	0	33.6450	0	26.265	0	92.207	0	-1e10	1	-1e10	1	-1E+10	1	-1e10	1	-1e10	1	-1E+10	1	-1E+10	1	-1E+10	1
4902624	16	C	11/27/2024	23:35	-127.594	47.041	0	93.10	0	7.6278	0	33.6456	0	26.266	0	92.306	0	119.5	4	40.9	4	-1E+10	1	0.0465	4	0.000306	0	-1E+10	1	-1E+10	1	-1E+10	1
4902624	16	C	11/27/2024	23:35	-127.594	47.041	0	93.90	0	7.6259	0	33.6506	0	26.270	0	93.099	0	118.9	4	40.7	4	-1E+10	1	0.0438	4	0.000312	0	-1E+10	1	-1E+10	1	-1E+10	1
4902624	16	C	11/27/2024	23:35	-127.594	47.041	0	94.80	0	7.6237	0	33.6561	0	26.275	0	93.991	0	118.3	4	40.5	4	-1E+10	1	0.0438	4	0.000331	0	-1E+10	1	-1E+10	1	-1E+10	1
4902624	16	C	11/27/2024	23:35	-127.594	47.041	0	95.10	0	7.6230	0	33.6580	0	26.276	0	94.289	0	-1e10	1	-1e10	1	-1E+10	1	-1e10	1	-1e10	1	-1E+10	1	-1E+10	1	-1E+10	1
4902624	16	C	11/27/2024	23:35	-127.594	47.041	0	95.60	0	7.6230	0	33.6588	0	26.277	0	94.784	0	117.7	4	40.3	4	-1E+10	1	0.0438	4	0.000331	0	-1E+10	1	-1E+10	1	-1E+10	1
4902624	16	C	11/27/2024	23:35	-127.594	47.041	0	96.40	0	7.6230	0	33.6600	0	26.278	0	95.577	0	117.0	4	40.0	4	-1E+10	1	0.0431	4	0.000371	0	-1E+10	1	-1E+10	1	-1E+10	1
4902624	16	C	11/27/2024	23:35	-127.594	47.041	0	97.10	0	7.6230	0	33.6610	0	26.279	0	96.271	0	-1e10	1	-1e10	1	-1E+10	1	-1e10	1	-1e10	1	-1E+10	1	-1E+10	1	-1E+10	1
4902624	16	C	11/27/2024	23:35	-127.594	47.041	0	97.30	0	7.6222	0	33.6624	0	26.280	0	96.469	0	116.2	4	39.8	4	-1E+10	1	0.0365	4	0.000265	0	-1E+10	1	-1E+10	1	-1E+10	1
4902624	16	C	11/27/2024	23:35	-127.594	47.041	0	98.10	0	7.6190	0	33.6680	0	26.285	0	97.262	0	115.5	4	39.5	4	-1E+10	1	0.0423	4	0.000312	0	-1E+10	1	-1E+10	1	-1E+10	1
4902624	16	C	11/27/2024	23:35	-127.594	47.041	0	98.90	0	7.6158	0	33.6736	0	26.290	0	98.055	0	114.8	4	39.3	4	-1E+10	1	0.0383	4	0.000301	0	-1E+10	1	-1E+10	1	-1E+10	1
4902624	16	C	11/27/2024	23:35	-127.594	47.041	0	99.10	0	7.6150	0	33.6750	0	26.291	0	98.253	0	-1e10	1	-1e10	1	-1E+10	1	-1e10	1	-1e10	1	-1E+10	1	-1E+10	1	-1E+10	1
4902624	16	C	11/27/2024	23:35	-127.594	47.041	0	99.80	0	7.6132	0	33.6816	0	26.296	0	98.947	0	114.3	4	39.1	4	-1E+10	1	0.0467	4	0.000306	0	-1E+10	1	-1E+10	1	-1E+10	1
4902624	16	C	11/27/2024	23:35	-127.594	47.041	0	100.60	0	7.6112	0	33.6893	0	26.303	0	99.740	0	113.8	4	39.0	4	-1E+10	1	0.0511	4	0.000320	0	-1E+10	1	-1E+10	1	-1E+10	1
4902624	16	C	11/27/2024	23:35	-127.594	47.041	0	101.10	0	7.6100	0	33.6940	0	26.306	0	100.236	0	-1e10	1	-1e10	1	-1E+10	1	-1e10	1	-1e10	1	-1E+10	1	-1E+10	1	-1E+10	1
4902624	16	C	11/27/2024	23:35	-127.594	47.041	0	101.50	0	7.6068	0	33.6976	0	26.310	0	100.632	0	113.4	4	38.8	4	-1E+10	1	0.0479	4	0.000321	0	-1E+10	1	-1E+10	1	-1E+10	1
4902624	16	C	11/27/2024	23:35	-127.594	47.041	0	102.40	0	7.5997	0	33.7056	0	26.317	0	101.524	0	113.0	4	38.7	4	-1E+10	1	0.0411	4	0.000316	0	-1E+10	1	-1E+10	1	-1E+10	1
4902624	16	C	11/27/2024	23:35	-127.594	47.041	0	103.00	0	7.5950	0	33.7110	0	26.322	0	102.119	0	-1e10	1	-1e10	1	-1E+10	1	-1e10	1	-1e10	1	-1E+10	1	-1E+10	1	-1E+10	1
4902624	16	C	11/27/2024	23:35	-127.594	47.041	0	103.30	0	7.5930	0	33.7126	0	26.324	0	102.417	0	112.8	4	38.6	4	-1E+10	1	0.0380	4	0.000319	0	-1E+10	1	-1E+10	1	-1E+10	1
4902624	16	C	11/27/2024	23:35	-127.594	47.041	0	104.10	0	7.5877	0	33.7168	0	26.328	0	103.210	0	112.5	4	38.5	4	-1E+10	1	0.0438	4	0.000300	0	-1E+10	1	-1E+10	1	-1E+10	1
4902624	16	C	11/27/2024	23:35	-127.594	47.041	0	105.00	0	7.5817	0	33.7215	0	26.332	0	104.102	0	112.3	4	38.4	4	-1E+10	1	0.0438	4	0.000324	0	-1E+10	1	-1E+10	1	-1E+10	1
4902624	16	C	11/27/2024	23:35	-127.594	47.041	0	105.10	0	7.5810	0	33.7220	0	26.333	0	104.201	0	-1e10	1	-1e10	1	-1E+10	1	-1e10	1	-1e10	1	-1E+10	1	-1E+10	1	-1E+10	1
4902624	16	C	11/27/2024	23:35	-127.594	47.041	0	106.00	0	7.5767	0	33.7286	0	26.338	0	105.093	0	112.0	4	38.3	4	-1E+10	1	0.0377	4	0.000324	0	-1E+10	1	-1E+10	1	-1E+10	1
4902624	16	C	11/27/2024	23:35	-127.594	47.041	0	106.90	0	7.5725	0	33.7353	0	26.344	0	105.985	0	111.4	4	38.1	4	-1E+10	1	0.0365	4	0.000316	0	-1E+10	1	-1E+10	1	-1E+10	1
4902624	16	C	11/27/2024	23:35	-127.594	47.041	0	107.00	0	7.5720	0	33.7360	0	26.345	0	106.084	0	-1e10	1	-1e10	1	-1E+10	1	-1e10	1	-1e10	1	-1E+10	1	-1E+10	1	-1E+10	1
4902624	16	C	11/27/2024	23:35	-127.594	47.041	0	107.90	0	7.5639	0	33.7445	0	26.353	0	106.976	0	110.7	4	37.9	4	-1E+10	1	0.0316	4	0.000312	0	-1E+10	1	-1E+10	1	-1E+10	1
4902624	16	C	11/27/2024	23:35	-127.594	47.041	0	108.80	0	7.5559	0	33.7531	0	26.361	0	107.868	0	110.0	4	37.6	4	-1E+10	1	0.0402	4	0.000329	0	-1E+10	1	-1E+10	1	-1E+10	1
4902624	16	C	11/27/2024	23:35	-127.594	47.041	0	108.90	0	7.5550	0	33.7540	0	26.362	0	107.967	0	-1e10	1	-1e10	1	-1E+10	1	-1e10	1	-1e10	1	-1E+10	1	-1E+10	1	-1E+10	1
4902624	16	C	11/27/2024	23:35	-127.594	47.041	0	109.80	0	7.5517	0	33.7581	0	26.365	0	108.859	0	109.4	4	37.4	4	-1E+10	1	0.0487	4	0.000324	0	-1E+10	1	-1E+10	1	-1E+10	1
4902624	16	C	11/27/2024	23:35	-127.594	47.041	0	110.80	0	7.5481	0	33.7626	0	26.369	0	109.850	0	108.8	4	37.2	4	-1E+10	1	0.0422	4	0.000284	0	-1E+10	1	-1E+10	1	-1E+10	1
4902624	16	C	11/27/2024	23:35	-127.594	47.041	0	111.10	0	7.5470	0	33.7640	0	26.371	0	110.148	0	-1e10	1	-1e10	1	-1E+10	1	-1e10	1	-1e10	1	-1E+10	1	-1E+10	1	-1E+10	1
4902624	16	C	11/27/2024	23:35	-127.594	47.041	0	111.70	0	7.5410	0	33.7678	0	26.374	0	110.742	0	108.2	4	37.0	4	-1E+10	1	0.0365	4	0.000312	0	-1E+10	1	-1E+10	1	-1E+10	1
4902624	16	C	11/27/2024	23:35	-127.594	47.041	0	112.70	0	7.5310	0	33.7741	0	26.381	0	111.734	0	107.8	4	36.9	4	-1E+10	1	0.0365	4	0.000312	0	-1E+10	1	-1E+10	1	-1E+10	1
4902624	16	C	11/27/2024	23:35	-127.594	47.041	0	113.00	0	7.5280	0	33.7760	0	26.383	0	112.031	0	-1e10	1	-1e10	1	-1E+10	1	-1e10	1	-1e10	1	-1E+10	1	-1E+10	1	-1E+10	1
4902624	16	C	11/27/2024	23:35	-127.594	47.041	0	113.70	0	7.5247	0	33.7807	0	26.387	0	112.725	0	107.5	4	36.7	4	-1E+10	1	0.0365	4	0.000419	0	-1E+10	1	-1E+10	1	-1E+10	1
4902624	16	C	11/27/2024	23:35	-127.594	47.041	0	114.70	0	7.5199	0	33.7873	0	26.393	0	113.716	0	107.0	4	36.6	4	-1E+10	1	0.0248	4	0.000356	0	-1E+10	1	-1E+10	1	-1E+10	1
4902624	16	C	11/27/2024	23:35	-127.594	47.041	0	115.10	0	7.5180	0	33.7900	0	26.395	0	114.112	0	-1e10	1	-1e10	1	-1E+10	1	-1e10	1	-1e10	1	-1E+10	1	-1E+10	1	-1E+10	1
4902624	16	C	11/27/2024	23:35	-127.594	47.041	0	115.80	0	7.5088	0	33.7941	0	26.400	0	114.806	0	106.5	4	36.4	4	-1E+10	1	0.0421	4	0.000319	0	-1E+10	1	-1E+10	1	-1E+10	1
4902624	16	C	11/27/2024	23:35	-127.594	47.041	0	116.80	0	7.4956	0	33.7998	0	26.406	0	115.797	0	106.0	4	36.2	4	-1E+10	1	0.0511	4	0.000318	0	-1E+10	1	-1E+10	1	-1E+10	1
4902624	16	C	11/27/2024	23:35	-127.594	47.041	0	117.00	0	7.4930	0	33.8010	0	26.407	0	115.996	0	-1e10	1	-1e10	1	-1E+10	1	-1e10	1	-1e10	1	-1E+10	1	-1E+10	1	-1E+10	1
4902624	16	C	11/27/2024	23:35	-127.594	47.041	0	117.80	0	7.4842	0	33.8038	0	26.411	0	116.788	0	105.5	4	36.0	4	-1E+10	1	0.0458	4	0.000315	0	-1E+10	1	-1E+10	1	-1E+10	1
4902624	16	C	11/27/2024	23:35	-127.594	47.041	0	118.90	0	7.4721	0	33.8076	0	26.416	0	117.879	0	104.8	4	35.8	4	-1E+10	1	0.0387	4	0.000304	0	-1E+10	1	-1E+10	1	-1E+10	1
4902624	16	C	11/27/2024	23:35	-127.594	47.041	0	119.00	0	7.4710	0	33.8080	0	26.416	0	117.978	0	-1e10	1	-1e10	1	-1E+10	1	-1e10	1	-1e10	1	-1E+10	1	-1E+10	1	-1E+10	1
4902624	16	C	11/27/2024	23:35	-127.594	47.041	0	120.00	0	7.4685	0	33.8125	0	26.420	0	118.969	0	104.3	4	35.6	4	-1E+10	1	0.0438	4	0.000306	0	-1E+10	1	-1E+10	1	-1E+10	1
4902624	16	C	11/27/2024	23:35	-127.594	47.041	0	121.00	0	7.4660	0	33.8170	0	26.424	0	119.960	0	-1e10	1	-1e10	1	-1E+10	1	-1e10	1	-1e10	1	-1E+10	1	-1E+10	1	-1E+10	1
4902624	16	C	11/27/2024	23:35	-127.594	47.041	0	121.10	0	7.4640	0	33.8172	0	26.424	0	120.059	0	104.0	4	35.5	4	-1E+10	1	0.0438	4	0.000277	0	-1E+10	1	-1E+10	1	-1E+10	1
4902624	16	C	11/27/2024	23:35	-127.594	47.041	0	122.10	0	7.4440	0	33.8197	0	26.429	0	121.050	0	103.8	4	35.4	4	-1E+10	1	0.0438	4	0.000323	0	-1E+10	1	-1E+10	1	-1E+10	1
4902624	16	C	11/27/2024	23:35	-127.594	47.041	0	123.00	0	7.4260	0	33.8220	0	26.434	0	121.942	0	-1e10	1	-1e10	1	-1E+10	1	-1e10	1	-1e10	1	-1E+10	1	-1E+10	1	-1E+10	1
4902624	16	C	11/27/2024	23:35	-127.594	47.041	0	123.20	0	7.4247	0	33.8226	0	26.434	0	122.140	0	103.3	4	35.2	4	-1E+10	1	0.0438	4	0.000287	0	-1E+10	1	-1E+10	1	-1E+10	1
4902624	16	C	11/27/2024	23:35	-127.594	47.041	0	124.30	0	7.4176	0	33.8259	0	26.438	0	123.231	0	102.8	4	35.1	4	-1E+10	1	0.0438	4	0.000305	0	-1E+10	1	-1E+10	1	-1E+10	1
4902624	16	C	11/27/2024	23:35	-127.594	47.041	0	125.00	0	7.4130	0	33.8280	0	26.440	0	123.924	0	-1e10	1	-1e10	1	-1E+10	1	-1e10	1	-1e10	1	-1E+10	1	-1E+10	1	-1E+10	1
4902624	16	C	11/27/2024	23:35	-127.594	47.041	0	125.40	0	7.4132	0	33.8297	0	26.441	0	124.321	0	102.6	4	35.0	4	-1E+10	1	0.0378	4	0.000302	0	-1E+10	1	-1E+10	1	-1E+10	1
4902624	16	C	11/27/2024	23:35	-127.594	47.041	0	126.50	0	7.4138	0	33.8343	0	26.445	0	125.411	0	102.4	4	34.9	4	-1E+10	1	0.0416	4	0.000303	0	-1E+10	1	-1E+10	1	-1E+10	1
4902624	16	C	11/27/2024	23:35	-127.594	47.041	0	126.90	0	7.4140	0	33.8360	0	26.446	0	125.808	0	-1e10	1	-1e10	1	-1E+10	1	-1e10	1	-1e10	1	-1E+10	1	-1E+10	1	-1E+10	1
4902624	16	C	11/27/2024	23:35	-127.594	47.041	0	127.60	0	7.4074	0	33.8367	0	26.448	0	126.501	0	102.2	4	34.9	4	-1E+10	1	0.0438	4	0.000309	0	-1E+10	1	-1E+10	1	-1E+10	1
4902624	16	C	11/27/2024	23:35	-127.594	47.041	0	128.70	0	7.3969	0	33.8378	0	26.450	0	127.591	0	102.1	4	34.8	4	-1E+10	1	0.0471	4	0.000306	0	-1E+10	1	-1E+10	1	-1E+10	1
4902624	16	C	11/27/2024	23:35	-127.594	47.041	0	128.90	0	7.3950	0	33.8380	0	26.451	0	127.790	0	-1e10	1	-1e10	1	-1E+10	1	-1e10	1	-1e10	1	-1E+10	1	-1E+10	1	-1E+10	1
4902624	16	C	11/27/2024	23:35	-127.594	47.041	0	129.80	0	7.3878	0	33.8389	0	26.452	0	128.682	0	102.0	4	34.8	4	-1E+10	1	0.0485	4	0.000304	0	-1E+10	1	-1E+10	1	-1E+10	1
4902624	16	C	11/27/2024	23:35	-127.594	47.041	0	130.90	0	7.3790	0	33.8400	0	26.454	0	129.772	0	100.3	4	34.2	4	-1E+10	1	0.0438	4	0.000319	0	-1E+10	1	-1E+10	1	-1E+10	1
4902624	16	C	11/27/2024	23:35	-127.594	47.041	0	132.00	0	7.3592	0	33.8411	0	26.458	0	130.862	0	101.8	4	34.7	4	-1E+10	1	0.0438	4	0.000359	0	-1E+10	1	-1E+10	1	-1E+10	1
4902624	16	C	11/27/2024	23:35	-127.594	47.041	0	132.90	0	7.3430	0	33.8420	0	26.461	0	131.754	0	-1e10	1	-1e10	1	-1E+10	1	-1e10	1	-1e10	1	-1E+10	1	-1E+10	1	-1E+10	1
4902624	16	C	11/27/2024	23:35	-127.594	47.041	0	133.10	0	7.3408	0	33.8426	0	26.462	0	131.952	0	101.6	4	34.6	4	-1E+10	1	0.0365	4	0.000323	0	-1E+10	1	-1E+10	1	-1E+10	1
4902624	16	C	11/27/2024	23:35	-127.594	47.041	0	134.20	0	7.3287	0	33.8459	0	26.466	0	133.042	0	101.6	4	34.6	4	-1E+10	1	0.0480	4	0.000508	0	-1E+10	1	-1E+10	1	-1E+10	1
4902624	16	C	11/27/2024	23:35	-127.594	47.041	0	134.90	0	7.3210	0	33.8480	0	26.469	0	133.736	0	-1e10	1	-1e10	1	-1E+10	1	-1e10	1	-1e10	1	-1E+10	1	-1E+10	1	-1E+10	1
4902624	16	C	11/27/2024	23:35	-127.594	47.041	0	135.40	0	7.3077	0	33.8494	0	26.472	0	134.232	0	101.7	4	34.6	4	-1E+10	1	0.0417	4	0.000437	0	-1E+10	1	-1E+10	1	-1E+10	1
4902624	16	C	11/27/2024	23:35	-127.594	47.041	0	136.50	0	7.2783	0	33.8526	0	26.478	0	135.322	0	101.8	4	34.6	4	-1E+10	1	0.0325	4	0.000347	0	-1E+10	1	-1E+10	1	-1E+10	1
4902624	16	C	11/27/2024	23:35	-127.594	47.041	0	137.00	0	7.2650	0	33.8540	0	26.481	0	135.817	0	-1e10	1	-1e10	1	-1E+10	1	-1e10	1	-1e10	1	-1E+10	1	-1E+10	1	-1E+10	1
4902624	16	C	11/27/2024	23:35	-127.594	47.041	0	137.70	0	7.2580	0	33.8540	0	26.482	0	136.511	0	101.9	4	34.6	4	-1E+10	1	0.0475	4	0.000343	0	-1E+10	1	-1E+10	1	-1E+10	1
4902624	16	C	11/27/2024	23:35	-127.594	47.041	0	138.90	0	7.2460	0	33.8540	0	26.484	0	137.700	0	102.0	4	34.7	4	-1E+10	1	0.0631	4	0.000346	0	-1E+10	1	-1E+10	1	-1E+10	1
4902624	16	C	11/27/2024	23:35	-127.594	47.041	0	139.00	0	7.2450	0	33.8540	0	26.484	0	137.799	0	-1e10	1	-1e10	1	-1E+10	1	-1e10	1	-1e10	1	-1E+10	1	-1E+10	1	-1E+10	1
4902624	16	C	11/27/2024	23:35	-127.594	47.041	0	140.00	0	7.2350	0	33.8550	0	26.486	0	138.790	0	102.0	4	34.7	4	-1E+10	1	0.0548	4	0.000326	0	-1E+10	1	-1E+10	1	-1E+10	1
4902624	16	C	11/27/2024	23:35	-127.594	47.041	0	141.00	0	7.2250	0	33.8560	0	26.489	0	139.781	0	-1e10	1	-1e10	1	-1E+10	1	-1e10	1	-1e10	1	-1E+10	1	-1E+10	1	-1E+10	1
4902624	16	C	11/27/2024	23:35	-127.594	47.041	0	141.20	0	7.2216	0	33.8565	0	26.490	0	139.980	0	102.0	4	34.7	4	-1E+10	1	0.0396	4	0.000339	0	-1E+10	1	-1E+10	1	-1E+10	1
4902624	16	C	11/27/2024	23:35	-127.594	47.041	0	142.40	0	7.2014	0	33.8597	0	26.495	0	141.169	0	102.2	4	34.7	4	-1E+10	1	0.0584	4	0.000335	0	-1E+10	1	-1E+10	1	-1E+10	1
4902624	16	C	11/27/2024	23:35	-127.594	47.041	0	142.90	0	7.1930	0	33.8610	0	26.497	0	141.664	0	-1e10	1	-1e10	1	-1E+10	1	-1e10	1	-1e10	1	-1E+10	1	-1E+10	1	-1E+10	1
4902624	16	C	11/27/2024	23:35	-127.594	47.041	0	143.50	0	7.1834	0	33.8610	0	26.498	0	142.259	0	102.5	4	34.8	4	-1E+10	1	0.0469	4	0.000353	0	-1E+10	1	-1E+10	1	-1E+10	1
4902624	16	C	11/27/2024	23:35	-127.594	47.041	0	144.70	0	7.1642	0	33.8610	0	26.501	0	143.448	0	102.7	4	34.8	4	-1E+10	1	0.0493	4	0.000376	0	-1E+10	1	-1E+10	1	-1E+10	1
4902624	16	C	11/27/2024	23:35	-127.594	47.041	0	144.90	0	7.1610	0	33.8610	0	26.501	0	143.646	0	-1e10	1	-1e10	1	-1E+10	1	-1e10	1	-1e10	1	-1E+10	1	-1E+10	1	-1E+10	1
4902624	16	C	11/27/2024	23:35	-127.594	47.041	0	145.90	0	7.1280	0	33.8615	0	26.506	0	144.637	0	102.8	4	34.8	4	-1E+10	1	0.0558	4	0.000329	0	-1E+10	1	-1E+10	1	-1E+10	1
4902624	16	C	11/27/2024	23:35	-127.594	47.041	0	146.90	0	7.0950	0	33.8620	0	26.511	0	145.628	0	-1e10	1	-1e10	1	-1E+10	1	-1e10	1	-1e10	1	-1E+10	1	-1E+10	1	-1E+10	1
4902624	16	C	11/27/2024	23:35	-127.594	47.041	0	147.10	0	7.0905	0	33.8620	0	26.512	0	145.827	0	102.7	4	34.8	4	-1E+10	1	0.0548	4	0.000300	0	-1E+10	1	-1E+10	1	-1E+10	1
4902624	16	C	11/27/2024	23:35	-127.594	47.041	0	148.20	0	7.0659	0	33.8620	0	26.515	0	146.917	0	102.6	4	34.7	4	-1E+10	1	0.0484	4	0.000317	0	-1E+10	1	-1E+10	1	-1E+10	1
4902624	16	C	11/27/2024	23:35	-127.594	47.041	0	149.00	0	7.0480	0	33.8620	0	26.518	0	147.709	0	-1e10	1	-1e10	1	-1E+10	1	-1e10	1	-1e10	1	-1E+10	1	-1E+10	1	-1E+10	1
4902624	16	C	11/27/2024	23:35	-127.594	47.041	0	149.50	0	7.0387	0	33.8625	0	26.520	0	148.205	0	102.4	4	34.6	4	-1E+10	1	0.0467	4	0.000347	0	-1E+10	1	-1E+10	1	-1E+10	1
4902624	16	C	11/27/2024	23:35	-127.594	47.041	0	150.60	0	7.0184	0	33.8636	0	26.523	0	149.295	0	102.3	4	34.6	4	-1E+10	1	0.0521	4	0.000342	0	-1E+10	1	-1E+10	1	-1E+10	1
4902624	16	C	11/27/2024	23:35	-127.594	47.041	0	151.00	0	7.0110	0	33.8640	0	26.525	0	149.691	0	-1e10	1	-1e10	1	-1E+10	1	-1e10	1	-1e10	1	-1E+10	1	-1E+10	1	-1E+10	1
4902624	16	C	11/27/2024	23:35	-127.594	47.041	0	151.80	0	7.0038	0	33.8640	0	26.526	0	150.484	0	102.1	4	34.5	4	-1E+10	1	0.0584	4	0.000311	0	-1E+10	1	-1E+10	1	-1E+10	1
4902624	16	C	11/27/2024	23:35	-127.594	47.041	0	153.00	0	6.9930	0	33.8640	0	26.527	0	151.673	0	100.2	4	33.9	4	-1E+10	1	0.0511	4	0.000257	0	-1E+10	1	-1E+10	1	-1E+10	1
4902624	16	C	11/27/2024	23:35	-127.594	47.041	0	154.10	0	6.9861	0	33.8640	0	26.528	0	152.763	0	101.5	4	34.3	4	-1E+10	1	0.0454	4	0.000318	0	-1E+10	1	-1E+10	1	-1E+10	1
4902624	16	C	11/27/2024	23:35	-127.594	47.041	0	154.90	0	6.9810	0	33.8640	0	26.529	0	153.556	0	-1e10	1	-1e10	1	-1E+10	1	-1e10	1	-1e10	1	-1E+10	1	-1E+10	1	-1E+10	1
4902624	16	C	11/27/2024	23:35	-127.594	47.041	0	155.30	0	6.9694	0	33.8634	0	26.530	0	153.952	0	101.3	4	34.2	4	-1E+10	1	0.0532	4	0.000342	0	-1E+10	1	-1E+10	1	-1E+10	1
4902624	16	C	11/27/2024	23:35	-127.594	47.041	0	156.50	0	6.9346	0	33.8616	0	26.533	0	155.142	0	100.8	4	34.0	4	-1E+10	1	0.0538	4	0.000297	0	-1E+10	1	-1E+10	1	-1E+10	1
4902624	16	C	11/27/2024	23:35	-127.594	47.041	0	156.90	0	6.9230	0	33.8610	0	26.534	0	155.538	0	-1e10	1	-1e10	1	-1E+10	1	-1e10	1	-1e10	1	-1E+10	1	-1E+10	1	-1E+10	1
4902624	16	C	11/27/2024	23:35	-127.594	47.041	0	157.60	0	6.9034	0	33.8606	0	26.537	0	156.232	0	100.4	4	33.9	4	-1E+10	1	0.0474	4	0.000284	0	-1E+10	1	-1E+10	1	-1E+10	1
4902624	16	C	11/27/2024	23:35	-127.594	47.041	0	158.80	0	6.8698	0	33.8601	0	26.541	0	157.421	0	99.9	4	33.7	4	-1E+10	1	0.0487	4	0.000315	0	-1E+10	1	-1E+10	1	-1E+10	1
4902624	16	C	11/27/2024	23:35	-127.594	47.041	0	158.90	0	6.8670	0	33.8600	0	26.541	0	157.520	0	-1e10	1	-1e10	1	-1E+10	1	-1e10	1	-1e10	1	-1E+10	1	-1E+10	1	-1E+10	1
4902624	16	C	11/27/2024	23:35	-127.594	47.041	0	160.00	0	6.8602	0	33.8647	0	26.546	0	158.610	0	99.6	4	33.5	4	-1E+10	1	0.0584	4	0.000336	0	-1E+10	1	-1E+10	1	-1E+10	1
4902624	16	C	11/27/2024	23:35	-127.594	47.041	0	161.00	0	6.8540	0	33.8690	0	26.550	0	159.601	0	-1e10	1	-1e10	1	-1E+10	1	-1e10	1	-1e10	1	-1E+10	1	-1E+10	1	-1E+10	1
4902624	16	C	11/27/2024	23:35	-127.594	47.041	0	161.20	0	6.8512	0	33.8691	0	26.550	0	159.799	0	99.2	4	33.4	4	-1E+10	1	0.0574	4	0.000278	0	-1E+10	1	-1E+10	1	-1E+10	1
4902624	16	C	11/27/2024	23:35	-127.594	47.041	0	162.40	0	6.8344	0	33.8697	0	26.553	0	160.988	0	98.8	4	33.3	4	-1E+10	1	0.0511	4	0.000264	0	-1E+10	1	-1E+10	1	-1E+10	1
4902624	16	C	11/27/2024	23:35	-127.594	47.041	0	163.00	0	6.8260	0	33.8700	0	26.554	0	161.583	0	-1e10	1	-1e10	1	-1E+10	1	-1e10	1	-1e10	1	-1E+10	1	-1E+10	1	-1E+10	1
4902624	16	C	11/27/2024	23:35	-127.594	47.041	0	163.70	0	6.8173	0	33.8710	0	26.556	0	162.276	0	98.3	4	33.1	4	-1E+10	1	0.0511	4	0.000315	0	-1E+10	1	-1E+10	1	-1E+10	1
4902624	16	C	11/27/2024	23:35	-127.594	47.041	0	164.80	0	6.8035	0	33.8727	0	26.560	0	163.366	0	97.8	4	32.9	4	-1E+10	1	0.0456	4	0.000323	0	-1E+10	1	-1E+10	1	-1E+10	1
4902624	16	C	11/27/2024	23:35	-127.594	47.041	0	165.00	0	6.8010	0	33.8730	0	26.560	0	163.564	0	-1e10	1	-1e10	1	-1E+10	1	-1e10	1	-1e10	1	-1E+10	1	-1E+10	1	-1E+10	1
4902624	16	C	11/27/2024	23:35	-127.594	47.041	0	166.10	0	6.7941	0	33.8747	0	26.563	0	164.654	0	97.2	4	32.7	4	-1E+10	1	0.0487	4	0.000472	0	-1E+10	1	-1E+10	1	-1E+10	1
4902624	16	C	11/27/2024	23:35	-127.594	47.041	0	166.90	0	6.7890	0	33.8760	0	26.564	0	165.447	0	-1e10	1	-1e10	1	-1E+10	1	-1e10	1	-1e10	1	-1E+10	1	-1E+10	1	-1E+10	1
4902624	16	C	11/27/2024	23:35	-127.594	47.041	0	167.30	0	6.7778	0	33.8758	0	26.566	0	165.844	0	96.7	4	32.5	4	-1E+10	1	0.0548	4	0.000434	0	-1E+10	1	-1E+10	1	-1E+10	1
4902624	16	C	11/27/2024	23:35	-127.594	47.041	0	168.50	0	6.7440	0	33.8752	0	26.570	0	167.033	0	96.1	4	32.3	4	-1E+10	1	0.0523	4	0.000313	0	-1E+10	1	-1E+10	1	-1E+10	1
4902624	16	C	11/27/2024	23:35	-127.594	47.041	0	169.00	0	6.7300	0	33.8750	0	26.571	0	167.528	0	-1e10	1	-1e10	1	-1E+10	1	-1e10	1	-1e10	1	-1E+10	1	-1E+10	1	-1E+10	1
4902624	16	C	11/27/2024	23:35	-127.594	47.041	0	169.70	0	6.7200	0	33.8740	0	26.572	0	168.222	0	95.4	4	32.1	4	-1E+10	1	0.0462	4	0.000300	0	-1E+10	1	-1E+10	1	-1E+10	1
4902624	16	C	11/27/2024	23:35	-127.594	47.041	0	170.90	0	6.7029	0	33.8723	0	26.573	0	169.411	0	94.7	4	31.8	4	-1E+10	1	0.0511	4	0.000301	0	-1E+10	1	-1E+10	1	-1E+10	1
4902624	16	C	11/27/2024	23:35	-127.594	47.041	0	171.10	0	6.7000	0	33.8720	0	26.573	0	169.609	0	-1e10	1	-1e10	1	-1E+10	1	-1e10	1	-1e10	1	-1E+10	1	-1E+10	1	-1E+10	1
4902624	16	C	11/27/2024	23:35	-127.594	47.041	0	172.20	0	6.7174	0	33.8772	0	26.575	0	170.699	0	94.1	4	31.6	4	-1E+10	1	0.0511	4	0.000311	0	-1E+10	1	-1E+10	1	-1E+10	1
4902624	16	C	11/27/2024	23:35	-127.594	47.041	0	173.00	0	6.7300	0	33.8810	0	26.576	0	171.492	0	-1e10	1	-1e10	1	-1E+10	1	-1e10	1	-1e10	1	-1E+10	1	-1E+10	1	-1E+10	1
4902624	16	C	11/27/2024	23:35	-127.594	47.041	0	173.40	0	6.7266	0	33.8821	0	26.577	0	171.888	0	93.6	4	31.4	4	-1E+10	1	0.0584	4	0.000264	0	-1E+10	1	-1E+10	1	-1E+10	1
4902624	16	C	11/27/2024	23:35	-127.594	47.041	0	174.60	0	6.7165	0	33.8852	0	26.581	0	173.077	0	93.1	4	31.3	4	-1E+10	1	0.0584	4	0.002054	0	-1E+10	1	-1E+10	1	-1E+10	1
4902624	16	C	11/27/2024	23:35	-127.594	47.041	0	174.90	0	6.7140	0	33.8860	0	26.582	0	173.374	0	-1e10	1	-1e10	1	-1E+10	1	-1e10	1	-1e10	1	-1E+10	1	-1E+10	1	-1E+10	1
4902624	16	C	11/27/2024	23:35	-127.594	47.041	0	175.80	0	6.7033	0	33.8864	0	26.584	0	174.266	0	92.5	4	31.1	4	-1E+10	1	0.0487	4	0.000960	0	-1E+10	1	-1E+10	1	-1E+10	1
4902624	16	C	11/27/2024	23:35	-127.594	47.041	0	177.00	0	6.6890	0	33.8870	0	26.586	0	175.455	0	90.4	4	30.3	4	-1E+10	1	0.0481	4	0.000285	0	-1E+10	1	-1E+10	1	-1E+10	1
4902624	16	C	11/27/2024	23:35	-127.594	47.041	0	178.20	0	6.6787	0	33.8899	0	26.590	0	176.644	0	91.4	4	30.7	4	-1E+10	1	0.0474	4	0.000317	0	-1E+10	1	-1E+10	1	-1E+10	1
4902624	16	C	11/27/2024	23:35	-127.594	47.041	0	179.10	0	6.6710	0	33.8920	0	26.593	0	177.536	0	-1e10	1	-1e10	1	-1E+10	1	-1e10	1	-1e10	1	-1E+10	1	-1E+10	1	-1E+10	1
4902624	16	C	11/27/2024	23:35	-127.594	47.041	0	179.40	0	6.6674	0	33.8926	0	26.594	0	177.833	0	91.0	4	30.5	4	-1E+10	1	0.0438	4	0.000327	0	-1E+10	1	-1E+10	1	-1E+10	1
4902624	16	C	11/27/2024	23:35	-127.594	47.041	0	180.70	0	6.6516	0	33.8954	0	26.598	0	179.121	0	90.7	4	30.4	4	-1E+10	1	0.0456	4	0.000297	0	-1E+10	1	-1E+10	1	-1E+10	1
4902624	16	C	11/27/2024	23:35	-127.594	47.041	0	181.00	0	6.6480	0	33.8960	0	26.599	0	179.418	0	-1e10	1	-1e10	1	-1E+10	1	-1e10	1	-1e10	1	-1E+10	1	-1E+10	1	-1E+10	1
4902624	16	C	11/27/2024	23:35	-127.594	47.041	0	181.90	0	6.6403	0	33.8965	0	26.600	0	180.310	0	90.4	4	30.3	4	-1E+10	1	0.0467	4	0.000257	0	-1E+10	1	-1E+10	1	-1E+10	1
4902624	16	C	11/27/2024	23:35	-127.594	47.041	0	183.00	0	6.6310	0	33.8970	0	26.602	0	181.400	0	-1e10	1	-1e10	1	-1E+10	1	-1e10	1	-1e10	1	-1E+10	1	-1E+10	1	-1E+10	1
4902624	16	C	11/27/2024	23:35	-127.594	47.041	0	183.10	0	6.6303	0	33.8970	0	26.602	0	181.499	0	90.1	4	30.2	4	-1E+10	1	0.0292	4	0.000276	0	-1E+10	1	-1E+10	1	-1E+10	1
4902624	16	C	11/27/2024	23:35	-127.594	47.041	0	184.30	0	6.6219	0	33.8976	0	26.604	0	182.688	0	89.8	4	30.1	4	-1E+10	1	0.0480	4	0.000296	0	-1E+10	1	-1E+10	1	-1E+10	1
4902624	16	C	11/27/2024	23:35	-127.594	47.041	0	185.00	0	6.6170	0	33.8980	0	26.605	0	183.382	0	-1e10	1	-1e10	1	-1E+10	1	-1e10	1	-1e10	1	-1E+10	1	-1E+10	1	-1E+10	1
4902624	16	C	11/27/2024	23:35	-127.594	47.041	0	185.50	0	6.6075	0	33.8982	0	26.606	0	183.877	0	89.5	4	30.0	4	-1E+10	1	0.0693	4	0.000290	0	-1E+10	1	-1E+10	1	-1E+10	1
4902624	16	C	11/27/2024	23:35	-127.594	47.041	0	186.70	0	6.5846	0	33.8988	0	26.610	0	185.066	0	89.1	4	29.8	4	-1E+10	1	0.0535	4	0.000280	0	-1E+10	1	-1E+10	1	-1E+10	1
4902624	16	C	11/27/2024	23:35	-127.594	47.041	0	187.10	0	6.5770	0	33.8990	0	26.611	0	185.462	0	-1e10	1	-1e10	1	-1E+10	1	-1e10	1	-1e10	1	-1E+10	1	-1E+10	1	-1E+10	1
4902624	16	C	11/27/2024	23:35	-127.594	47.041	0	187.90	0	6.5661	0	33.8994	0	26.613	0	186.255	0	88.7	4	29.7	4	-1E+10	1	0.0438	4	0.000276	0	-1E+10	1	-1E+10	1	-1E+10	1
4902624	16	C	11/27/2024	23:35	-127.594	47.041	0	189.00	0	6.5510	0	33.9000	0	26.615	0	187.345	0	-1e10	1	-1e10	1	-1E+10	1	-1e10	1	-1e10	1	-1E+10	1	-1E+10	1	-1E+10	1
4902624	16	C	11/27/2024	23:35	-127.594	47.041	0	189.10	0	6.5506	0	33.9001	0	26.615	0	187.444	0	88.3	4	29.5	4	-1E+10	1	0.0438	4	0.000271	0	-1E+10	1	-1E+10	1	-1E+10	1
4902624	16	C	11/27/2024	23:35	-127.594	47.041	0	190.30	0	6.5458	0	33.9007	0	26.616	0	188.633	0	88.0	4	29.4	4	-1E+10	1	0.0438	4	0.000269	0	-1E+10	1	-1E+10	1	-1E+10	1
4902624	16	C	11/27/2024	23:35	-127.594	47.041	0	191.00	0	6.5430	0	33.9010	0	26.617	0	189.326	0	-1e10	1	-1e10	1	-1E+10	1	-1e10	1	-1e10	1	-1E+10	1	-1E+10	1	-1E+10	1
4902624	16	C	11/27/2024	23:35	-127.594	47.041	0	191.30	0	6.5403	0	33.9013	0	26.617	0	189.624	0	87.6	4	29.3	4	-1E+10	1	0.0453	4	0.000372	0	-1E+10	1	-1E+10	1	-1E+10	1
4902624	16	C	11/27/2024	23:35	-127.594	47.041	0	192.10	0	6.5331	0	33.9021	0	26.619	0	190.416	0	87.3	4	29.2	4	-1E+10	1	0.0511	4	0.000757	0	-1E+10	1	-1E+10	1	-1E+10	1
4902624	16	C	11/27/2024	23:35	-127.594	47.041	0	192.90	0	6.5259	0	33.9029	0	26.621	0	191.209	0	87.1	4	29.1	4	-1E+10	1	0.0292	4	0.000288	0	-1E+10	1	-1E+10	1	-1E+10	1
4902624	16	C	11/27/2024	23:35	-127.594	47.041	0	193.00	0	6.5250	0	33.9030	0	26.621	0	191.308	0	-1e10	1	-1e10	1	-1E+10	1	-1e10	1	-1e10	1	-1E+10	1	-1E+10	1	-1E+10	1
4902624	16	C	11/27/2024	23:35	-127.594	47.041	0	193.60	0	6.5244	0	33.9039	0	26.622	0	191.902	0	86.9	4	29.0	4	-1E+10	1	0.0519	4	0.000288	0	-1E+10	1	-1E+10	1	-1E+10	1
4902624	16	C	11/27/2024	23:35	-127.594	47.041	0	194.40	0	6.5236	0	33.9051	0	26.623	0	192.695	0	86.6	4	29.0	4	-1E+10	1	0.0584	4	0.000280	0	-1E+10	1	-1E+10	1	-1E+10	1
4902624	16	C	11/27/2024	23:35	-127.594	47.041	0	195.00	0	6.5230	0	33.9060	0	26.623	0	193.289	0	-1e10	1	-1e10	1	-1E+10	1	-1e10	1	-1e10	1	-1E+10	1	-1E+10	1	-1E+10	1
4902624	16	C	11/27/2024	23:35	-127.594	47.041	0	195.10	0	6.5226	0	33.9060	0	26.624	0	193.388	0	86.4	4	28.9	4	-1E+10	1	0.0542	4	0.000262	0	-1E+10	1	-1E+10	1	-1E+10	1
4902624	16	C	11/27/2024	23:35	-127.594	47.041	0	195.80	0	6.5198	0	33.9064	0	26.624	0	194.082	0	86.1	4	28.8	4	-1E+10	1	0.0446	4	0.000252	0	-1E+10	1	-1E+10	1	-1E+10	1
4902624	16	C	11/27/2024	23:35	-127.594	47.041	0	196.60	0	6.5166	0	33.9068	0	26.625	0	194.875	0	85.8	4	28.7	4	-1E+10	1	0.0414	4	0.000252	0	-1E+10	1	-1E+10	1	-1E+10	1
4902624	16	C	11/27/2024	23:35	-127.594	47.041	0	197.00	0	6.5150	0	33.9070	0	26.625	0	195.271	0	-1e10	1	-1e10	1	-1E+10	1	-1e10	1	-1e10	1	-1E+10	1	-1E+10	1	-1E+10	1
4902624	16	C	11/27/2024	23:35	-127.594	47.041	0	197.30	0	6.5132	0	33.9076	0	26.626	0	195.568	0	85.6	4	28.6	4	-1E+10	1	0.0490	4	0.000262	0	-1E+10	1	-1E+10	1	-1E+10	1
4902624	16	C	11/27/2024	23:35	-127.594	47.041	0	198.10	0	6.5084	0	33.9092	0	26.628	0	196.361	0	85.5	4	28.6	4	-1E+10	1	0.0397	4	0.000310	0	-1E+10	1	-1E+10	1	-1E+10	1
4902624	16	C	11/27/2024	23:35	-127.594	47.041	0	198.80	0	6.5042	0	33.9106	0	26.630	0	197.054	0	85.4	4	28.5	4	-1E+10	1	0.0511	4	0.000264	0	-1E+10	1	-1E+10	1	-1E+10	1
4902624	16	C	11/27/2024	23:35	-127.594	47.041	0	199.00	0	6.5030	0	33.9110	0	26.630	0	197.252	0	-1e10	1	-1e10	1	-1E+10	1	-1e10	1	-1e10	1	-1E+10	1	-1E+10	1	-1E+10	1
4902624	16	C	11/27/2024	23:35	-127.594	47.041	0	199.60	0	6.4994	0	33.9113	0	26.631	0	197.847	0	85.3	4	28.5	4	-1E+10	1	0.0511	4	0.000264	0	-1E+10	1	-1E+10	1	-1E+10	1
4902624	16	C	11/27/2024	23:35	-127.594	47.041	0	200.30	0	6.4952	0	33.9116	0	26.632	0	198.540	0	85.2	4	28.5	4	-1E+10	1	0.0584	4	0.003068	0	-1E+10	1	-1E+10	1	-1E+10	1
4902624	16	C	11/27/2024	23:35	-127.594	47.041	0	201.00	0	6.4910	0	33.9120	0	26.632	0	199.234	0	83.6	4	27.9	4	-1E+10	1	0.0584	4	0.000878	0	-1E+10	1	-1E+10	1	-1E+10	1
4902624	16	C	11/27/2024	23:35	-127.594	47.041	0	201.80	0	6.4870	0	33.9120	0	26.633	0	200.026	0	84.9	4	28.4	4	-1E+10	1	0.0487	4	0.000268	0	-1E+10	1	-1E+10	1	-1E+10	1
4902624	16	C	11/27/2024	23:35	-127.594	47.041	0	202.50	0	6.4835	0	33.9120	0	26.633	0	200.720	0	84.7	4	28.3	4	-1E+10	1	0.0511	4	0.000293	0	-1E+10	1	-1E+10	1	-1E+10	1
4902624	16	C	11/27/2024	23:35	-127.594	47.041	0	203.00	0	6.4810	0	33.9120	0	26.634	0	201.215	0	-1e10	1	-1e10	1	-1E+10	1	-1e10	1	-1e10	1	-1E+10	1	-1E+10	1	-1E+10	1
4902624	16	C	11/27/2024	23:35	-127.594	47.041	0	203.30	0	6.4777	0	33.9122	0	26.634	0	201.513	0	84.5	4	28.2	4	-1E+10	1	0.0552	4	0.000306	0	-1E+10	1	-1E+10	1	-1E+10	1
4902624	16	C	11/27/2024	23:35	-127.594	47.041	0	204.10	0	6.4688	0	33.9126	0	26.636	0	202.305	0	84.3	4	28.1	4	-1E+10	1	0.0511	4	0.000276	0	-1E+10	1	-1E+10	1	-1E+10	1
4902624	16	C	11/27/2024	23:35	-127.594	47.041	0	204.90	0	6.4600	0	33.9130	0	26.637	0	203.098	0	82.7	4	27.6	4	-1E+10	1	0.0529	4	0.000238	0	-1E+10	1	-1E+10	1	-1E+10	1
4902624	16	C	11/27/2024	23:35	-127.594	47.041	0	205.60	0	6.4523	0	33.9130	0	26.638	0	203.791	0	83.9	4	28.0	4	-1E+10	1	0.0576	4	0.000260	0	-1E+10	1	-1E+10	1	-1E+10	1
4902624	16	C	11/27/2024	23:35	-127.594	47.041	0	206.40	0	6.4436	0	33.9130	0	26.639	0	204.584	0	83.7	4	27.9	4	-1E+10	1	0.0511	4	0.000229	0	-1E+10	1	-1E+10	1	-1E+10	1
4902624	16	C	11/27/2024	23:35	-127.594	47.041	0	207.00	0	6.4370	0	33.9130	0	26.640	0	205.178	0	-1e10	1	-1e10	1	-1E+10	1	-1e10	1	-1e10	1	-1E+10	1	-1E+10	1	-1E+10	1
4902624	16	C	11/27/2024	23:35	-127.594	47.041	0	207.20	0	6.4319	0	33.9132	0	26.641	0	205.376	0	83.4	4	27.8	4	-1E+10	1	0.0576	4	0.000260	0	-1E+10	1	-1E+10	1	-1E+10	1
4902624	16	C	11/27/2024	23:35	-127.594	47.041	0	208.00	0	6.4115	0	33.9140	0	26.644	0	206.169	0	83.2	4	27.8	4	-1E+10	1	0.0520	4	0.000449	0	-1E+10	1	-1E+10	1	-1E+10	1
4902624	16	C	11/27/2024	23:35	-127.594	47.041	0	208.80	0	6.3911	0	33.9148	0	26.648	0	206.961	0	82.9	4	27.6	4	-1E+10	1	0.0460	4	0.000336	0	-1E+10	1	-1E+10	1	-1E+10	1
4902624	16	C	11/27/2024	23:35	-127.594	47.041	0	209.00	0	6.3860	0	33.9150	0	26.649	0	207.160	0	-1e10	1	-1e10	1	-1E+10	1	-1e10	1	-1e10	1	-1E+10	1	-1E+10	1	-1E+10	1
4902624	16	C	11/27/2024	23:35	-127.594	47.041	0	209.60	0	6.3806	0	33.9153	0	26.649	0	207.754	0	82.7	4	27.5	4	-1E+10	1	0.0548	4	0.000305	0	-1E+10	1	-1E+10	1	-1E+10	1
4902624	16	C	11/27/2024	23:35	-127.594	47.041	0	210.40	0	6.3735	0	33.9157	0	26.651	0	208.547	0	82.4	4	27.5	4	-1E+10	1	0.0575	4	0.000305	0	-1E+10	1	-1E+10	1	-1E+10	1
4902624	16	C	11/27/2024	23:35	-127.594	47.041	0	210.90	0	6.3690	0	33.9160	0	26.652	0	209.042	0	-1e10	1	-1e10	1	-1E+10	1	-1e10	1	-1e10	1	-1E+10	1	-1E+10	1	-1E+10	1
4902624	16	C	11/27/2024	23:35	-127.594	47.041	0	211.20	0	6.3671	0	33.9163	0	26.652	0	209.339	0	82.2	4	27.4	4	-1E+10	1	0.0460	4	0.000269	0	-1E+10	1	-1E+10	1	-1E+10	1
4902624	16	C	11/27/2024	23:35	-127.594	47.041	0	212.00	0	6.3618	0	33.9171	0	26.653	0	210.132	0	82.0	4	27.3	4	-1E+10	1	0.0518	4	0.000296	0	-1E+10	1	-1E+10	1	-1E+10	1
4902624	16	C	11/27/2024	23:35	-127.594	47.041	0	212.90	0	6.3560	0	33.9180	0	26.655	0	211.023	0	80.3	4	26.7	4	-1E+10	1	0.0584	4	0.000268	0	-1E+10	1	-1E+10	1	-1E+10	1
4902624	16	C	11/27/2024	23:35	-127.594	47.041	0	213.70	0	6.3461	0	33.9176	0	26.656	0	211.816	0	81.3	4	27.1	4	-1E+10	1	0.0511	4	0.000229	0	-1E+10	1	-1E+10	1	-1E+10	1
4902624	16	C	11/27/2024	23:35	-127.594	47.041	0	214.50	0	6.3362	0	33.9172	0	26.657	0	212.608	0	80.9	4	26.9	4	-1E+10	1	0.0511	4	0.000266	0	-1E+10	1	-1E+10	1	-1E+10	1
4902624	16	C	11/27/2024	23:35	-127.594	47.041	0	215.00	0	6.3300	0	33.9170	0	26.657	0	213.104	0	-1e10	1	-1e10	1	-1E+10	1	-1e10	1	-1e10	1	-1E+10	1	-1E+10	1	-1E+10	1
4902624	16	C	11/27/2024	23:35	-127.594	47.041	0	215.40	0	6.3266	0	33.9174	0	26.658	0	213.500	0	80.5	4	26.8	4	-1E+10	1	0.0511	4	0.000276	0	-1E+10	1	-1E+10	1	-1E+10	1
4902624	16	C	11/27/2024	23:35	-127.594	47.041	0	216.20	0	6.3199	0	33.9183	0	26.660	0	214.292	0	80.1	4	26.7	4	-1E+10	1	0.0511	4	0.000289	0	-1E+10	1	-1E+10	1	-1E+10	1
4902624	16	C	11/27/2024	23:35	-127.594	47.041	0	216.90	0	6.3140	0	33.9190	0	26.661	0	214.986	0	-1e10	1	-1e10	1	-1E+10	1	-1e10	1	-1e10	1	-1E+10	1	-1E+10	1	-1E+10	1
4902624	16	C	11/27/2024	23:35	-127.594	47.041	0	217.10	0	6.3119	0	33.9192	0	26.662	0	215.184	0	79.7	4	26.5	4	-1E+10	1	0.0548	4	0.000287	0	-1E+10	1	-1E+10	1	-1E+10	1
4902624	16	C	11/27/2024	23:35	-127.594	47.041	0	217.90	0	6.3035	0	33.9200	0	26.663	0	215.977	0	79.3	4	26.4	4	-1E+10	1	0.0562	4	0.000276	0	-1E+10	1	-1E+10	1	-1E+10	1
4902624	16	C	11/27/2024	23:35	-127.594	47.041	0	218.80	0	6.2941	0	33.9208	0	26.665	0	216.868	0	78.9	4	26.2	4	-1E+10	1	0.0527	4	0.000270	0	-1E+10	1	-1E+10	1	-1E+10	1
4902624	16	C	11/27/2024	23:35	-127.594	47.041	0	219.00	0	6.2920	0	33.9210	0	26.666	0	217.066	0	-1e10	1	-1e10	1	-1E+10	1	-1e10	1	-1e10	1	-1E+10	1	-1E+10	1	-1E+10	1
4902624	16	C	11/27/2024	23:35	-127.594	47.041	0	219.60	0	6.2968	0	33.9225	0	26.666	0	217.661	0	78.5	4	26.1	4	-1E+10	1	0.0562	4	0.000253	0	-1E+10	1	-1E+10	1	-1E+10	1
4902624	16	C	11/27/2024	23:35	-127.594	47.041	0	220.50	0	6.3040	0	33.9248	0	26.667	0	218.552	0	78.2	4	26.0	4	-1E+10	1	0.0365	4	0.000264	0	-1E+10	1	-1E+10	1	-1E+10	1
4902624	16	C	11/27/2024	23:35	-127.594	47.041	0	221.00	0	6.3080	0	33.9260	0	26.667	0	219.048	0	-1e10	1	-1e10	1	-1E+10	1	-1e10	1	-1e10	1	-1E+10	1	-1E+10	1	-1E+10	1
4902624	16	C	11/27/2024	23:35	-127.594	47.041	0	221.30	0	6.3078	0	33.9266	0	26.668	0	219.345	0	78.0	4	26.0	4	-1E+10	1	0.0540	4	0.000405	0	-1E+10	1	-1E+10	1	-1E+10	1
4902624	16	C	11/27/2024	23:35	-127.594	47.041	0	222.20	0	6.3074	0	33.9284	0	26.669	0	220.236	0	77.8	4	25.9	4	-1E+10	1	0.0527	4	0.000312	0	-1E+10	1	-1E+10	1	-1E+10	1
4902624	16	C	11/27/2024	23:35	-127.594	47.041	0	223.00	0	6.3070	0	33.9300	0	26.671	0	221.029	0	-1e10	1	-1e10	1	-1E+10	1	-1e10	1	-1e10	1	-1E+10	1	-1E+10	1	-1E+10	1
4902624	16	C	11/27/2024	23:35	-127.594	47.041	0	223.10	0	6.3064	0	33.9300	0	26.671	0	221.128	0	77.8	4	25.9	4	-1E+10	1	0.0511	4	0.000306	0	-1E+10	1	-1E+10	1	-1E+10	1
4902624	16	C	11/27/2024	23:35	-127.594	47.041	0	224.00	0	6.3005	0	33.9305	0	26.672	0	222.019	0	77.8	4	25.9	4	-1E+10	1	0.0438	4	0.000305	0	-1E+10	1	-1E+10	1	-1E+10	1
4902624	16	C	11/27/2024	23:35	-127.594	47.041	0	224.80	0	6.2953	0	33.9309	0	26.673	0	222.812	0	77.8	4	25.9	4	-1E+10	1	0.0438	4	0.000272	0	-1E+10	1	-1E+10	1	-1E+10	1
4902624	16	C	11/27/2024	23:35	-127.594	47.041	0	225.00	0	6.2940	0	33.9310	0	26.673	0	223.010	0	-1e10	1	-1e10	1	-1E+10	1	-1e10	1	-1e10	1	-1E+10	1	-1E+10	1	-1E+10	1
4902624	16	C	11/27/2024	23:35	-127.594	47.041	0	225.70	0	6.2752	0	33.9299	0	26.675	0	223.704	0	77.7	4	25.8	4	-1E+10	1	0.0584	4	0.000256	0	-1E+10	1	-1E+10	1	-1E+10	1
4902624	16	C	11/27/2024	23:35	-127.594	47.041	0	226.60	0	6.2511	0	33.9285	0	26.677	0	224.595	0	77.5	4	25.8	4	-1E+10	1	0.0569	4	0.000296	0	-1E+10	1	-1E+10	1	-1E+10	1
4902624	16	C	11/27/2024	23:35	-127.594	47.041	0	226.90	0	6.2430	0	33.9280	0	26.677	0	224.892	0	-1e10	1	-1e10	1	-1E+10	1	-1e10	1	-1e10	1	-1E+10	1	-1E+10	1	-1E+10	1
4902624	16	C	11/27/2024	23:35	-127.594	47.041	0	227.50	0	6.2304	0	33.9274	0	26.679	0	225.487	0	77.4	4	25.7	4	-1E+10	1	0.0438	4	0.000264	0	-1E+10	1	-1E+10	1	-1E+10	1
4902624	16	C	11/27/2024	23:35	-127.594	47.041	0	228.40	0	6.2116	0	33.9266	0	26.680	0	226.378	0	77.1	4	25.6	4	-1E+10	1	0.0584	4	0.000252	0	-1E+10	1	-1E+10	1	-1E+10	1
4902624	16	C	11/27/2024	23:35	-127.594	47.041	0	229.00	0	6.1990	0	33.9260	0	26.681	0	226.973	0	-1e10	1	-1e10	1	-1E+10	1	-1e10	1	-1e10	1	-1E+10	1	-1E+10	1	-1E+10	1
4902624	16	C	11/27/2024	23:35	-127.594	47.041	0	229.30	0	6.1944	0	33.9257	0	26.682	0	227.270	0	76.8	4	25.5	4	-1E+10	1	0.0405	4	0.000262	0	-1E+10	1	-1E+10	1	-1E+10	1
4902624	16	C	11/27/2024	23:35	-127.594	47.041	0	230.20	0	6.1807	0	33.9247	0	26.683	0	228.161	0	76.5	4	25.4	4	-1E+10	1	0.0411	4	0.000301	0	-1E+10	1	-1E+10	1	-1E+10	1
4902624	16	C	11/27/2024	23:35	-127.594	47.041	0	230.90	0	6.1700	0	33.9240	0	26.684	0	228.855	0	-1e10	1	-1e10	1	-1E+10	1	-1e10	1	-1e10	1	-1E+10	1	-1E+10	1	-1E+10	1
4902624	16	C	11/27/2024	23:35	-127.594	47.041	0	231.10	0	6.1687	0	33.9243	0	26.684	0	229.053	0	76.1	4	25.2	4	-1E+10	1	0.0479	4	0.000303	0	-1E+10	1	-1E+10	1	-1E+10	1
4902624	16	C	11/27/2024	23:35	-127.594	47.041	0	232.00	0	6.1627	0	33.9256	0	26.686	0	229.944	0	75.8	4	25.1	4	-1E+10	1	0.0544	4	0.000255	0	-1E+10	1	-1E+10	1	-1E+10	1
4902624	16	C	11/27/2024	23:35	-127.594	47.041	0	232.90	0	6.1567	0	33.9269	0	26.688	0	230.836	0	75.5	4	25.0	4	-1E+10	1	0.0604	4	0.000230	0	-1E+10	1	-1E+10	1	-1E+10	1
4902624	16	C	11/27/2024	23:35	-127.594	47.041	0	233.00	0	6.1560	0	33.9270	0	26.688	0	230.935	0	-1e10	1	-1e10	1	-1E+10	1	-1e10	1	-1e10	1	-1E+10	1	-1E+10	1	-1E+10	1
4902624	16	C	11/27/2024	23:35	-127.594	47.041	0	233.90	0	6.1470	0	33.9274	0	26.689	0	231.826	0	75.2	4	24.9	4	-1E+10	1	0.0625	4	0.000355	0	-1E+10	1	-1E+10	1	-1E+10	1
4902624	16	C	11/27/2024	23:35	-127.594	47.041	0	234.70	0	6.1390	0	33.9279	0	26.691	0	232.619	0	74.9	4	24.8	4	-1E+10	1	0.0504	4	0.000639	0	-1E+10	1	-1E+10	1	-1E+10	1
4902624	16	C	11/27/2024	23:35	-127.594	47.041	0	235.00	0	6.1360	0	33.9280	0	26.691	0	232.916	0	-1e10	1	-1e10	1	-1E+10	1	-1e10	1	-1e10	1	-1E+10	1	-1E+10	1	-1E+10	1
4902624	16	C	11/27/2024	23:35	-127.594	47.041	0	235.70	0	6.1308	0	33.9280	0	26.692	0	233.609	0	74.6	4	24.7	4	-1E+10	1	0.0438	4	0.000287	0	-1E+10	1	-1E+10	1	-1E+10	1
4902624	16	C	11/27/2024	23:35	-127.594	47.041	0	236.60	0	6.1242	0	33.9280	0	26.693	0	234.501	0	74.2	4	24.6	4	-1E+10	1	0.0498	4	0.000249	0	-1E+10	1	-1E+10	1	-1E+10	1
4902624	16	C	11/27/2024	23:35	-127.594	47.041	0	236.90	0	6.1220	0	33.9280	0	26.693	0	234.798	0	-1e10	1	-1e10	1	-1E+10	1	-1e10	1	-1e10	1	-1E+10	1	-1E+10	1	-1E+10	1
4902624	16	C	11/27/2024	23:35	-127.594	47.041	0	237.50	0	6.1145	0	33.9286	0	26.694	0	235.392	0	73.8	4	24.5	4	-1E+10	1	0.0511	4	0.000240	0	-1E+10	1	-1E+10	1	-1E+10	1
4902624	16	C	11/27/2024	23:35	-127.594	47.041	0	238.40	0	6.1033	0	33.9295	0	26.696	0	236.284	0	73.4	4	24.3	4	-1E+10	1	0.0511	4	0.000248	0	-1E+10	1	-1E+10	1	-1E+10	1
4902624	16	C	11/27/2024	23:35	-127.594	47.041	0	238.90	0	6.0970	0	33.9300	0	26.698	0	236.779	0	-1e10	1	-1e10	1	-1E+10	1	-1e10	1	-1e10	1	-1E+10	1	-1E+10	1	-1E+10	1
4902624	16	C	11/27/2024	23:35	-127.594	47.041	0	239.30	0	6.0914	0	33.9302	0	26.699	0	237.175	0	73.1	4	24.2	4	-1E+10	1	0.0577	4	0.000247	0	-1E+10	1	-1E+10	1	-1E+10	1
4902624	16	C	11/27/2024	23:35	-127.594	47.041	0	240.30	0	6.0774	0	33.9307	0	26.701	0	238.166	0	72.7	4	24.1	4	-1E+10	1	0.0625	4	0.000240	0	-1E+10	1	-1E+10	1	-1E+10	1
4902624	16	C	11/27/2024	23:35	-127.594	47.041	0	240.90	0	6.0690	0	33.9310	0	26.702	0	238.760	0	-1e10	1	-1e10	1	-1E+10	1	-1e10	1	-1e10	1	-1E+10	1	-1E+10	1	-1E+10	1
4902624	16	C	11/27/2024	23:35	-127.594	47.041	0	241.20	0	6.0649	0	33.9313	0	26.703	0	239.057	0	72.2	4	23.9	4	-1E+10	1	0.0504	4	0.000232	0	-1E+10	1	-1E+10	1	-1E+10	1
4902624	16	C	11/27/2024	23:35	-127.594	47.041	0	242.10	0	6.0524	0	33.9321	0	26.705	0	239.949	0	71.9	4	23.8	4	-1E+10	1	0.0378	4	0.000220	0	-1E+10	1	-1E+10	1	-1E+10	1
4902624	16	C	11/27/2024	23:35	-127.594	47.041	0	243.00	0	6.0400	0	33.9330	0	26.707	0	240.840	0	70.3	4	23.3	4	-1E+10	1	0.0438	4	0.000232	0	-1E+10	1	-1E+10	1	-1E+10	1
4902624	16	C	11/27/2024	23:35	-127.594	47.041	0	243.90	0	6.0289	0	33.9330	0	26.709	0	241.732	0	71.2	4	23.5	4	-1E+10	1	0.0584	4	0.000217	0	-1E+10	1	-1E+10	1	-1E+10	1
4902624	16	C	11/27/2024	23:35	-127.594	47.041	0	244.80	0	6.0177	0	33.9330	0	26.710	0	242.623	0	70.9	4	23.4	4	-1E+10	1	0.0584	4	0.000226	0	-1E+10	1	-1E+10	1	-1E+10	1
4902624	16	C	11/27/2024	23:35	-127.594	47.041	0	245.10	0	6.0140	0	33.9330	0	26.711	0	242.921	0	-1e10	1	-1e10	1	-1E+10	1	-1e10	1	-1e10	1	-1E+10	1	-1E+10	1	-1E+10	1
4902624	16	C	11/27/2024	23:35	-127.594	47.041	0	245.70	0	6.0086	0	33.9339	0	26.712	0	243.515	0	70.5	4	23.3	4	-1E+10	1	0.0491	4	0.000229	0	-1E+10	1	-1E+10	1	-1E+10	1
4902624	16	C	11/27/2024	23:35	-127.594	47.041	0	246.70	0	5.9997	0	33.9355	0	26.714	0	244.505	0	70.2	4	23.2	4	-1E+10	1	0.0535	4	0.000247	0	-1E+10	1	-1E+10	1	-1E+10	1
4902624	16	C	11/27/2024	23:35	-127.594	47.041	0	247.00	0	5.9970	0	33.9360	0	26.715	0	244.802	0	-1e10	1	-1e10	1	-1E+10	1	-1e10	1	-1e10	1	-1E+10	1	-1E+10	1	-1E+10	1
4902624	16	C	11/27/2024	23:35	-127.594	47.041	0	247.60	0	5.9925	0	33.9372	0	26.717	0	245.397	0	69.9	4	23.1	4	-1E+10	1	0.0548	4	0.000260	0	-1E+10	1	-1E+10	1	-1E+10	1
4902624	16	C	11/27/2024	23:35	-127.594	47.041	0	248.60	0	5.9850	0	33.9392	0	26.719	0	246.387	0	69.5	4	23.0	4	-1E+10	1	0.0511	4	0.000277	0	-1E+10	1	-1E+10	1	-1E+10	1
4902624	16	C	11/27/2024	23:35	-127.594	47.041	0	249.00	0	5.9820	0	33.9400	0	26.720	0	246.784	0	-1e10	1	-1e10	1	-1E+10	1	-1e10	1	-1e10	1	-1E+10	1	-1E+10	1	-1E+10	1
4902624	16	C	11/27/2024	23:35	-127.594	47.041	0	249.50	0	5.9805	0	33.9403	0	26.721	0	247.279	0	69.2	4	22.8	4	-1E+10	1	0.0526	4	0.000301	0	-1E+10	1	-1E+10	1	-1E+10	1
4902624	16	C	11/27/2024	23:35	-127.594	47.041	0	250.40	0	5.9778	0	33.9407	0	26.721	0	248.170	0	68.8	4	22.7	4	-1E+10	1	0.0584	4	0.000305	0	-1E+10	1	-1E+10	1	-1E+10	1
4902624	16	C	11/27/2024	23:35	-127.594	47.041	0	251.00	0	5.9760	0	33.9410	0	26.722	0	248.765	0	-1e10	1	-1e10	1	-1E+10	1	-1e10	1	-1e10	1	-1E+10	1	-1E+10	1	-1E+10	1
4902624	16	C	11/27/2024	23:35	-127.594	47.041	0	251.40	0	5.9746	0	33.9412	0	26.722	0	249.161	0	68.4	4	22.6	4	-1E+10	1	0.0584	4	0.000252	0	-1E+10	1	-1E+10	1	-1E+10	1
4902624	16	C	11/27/2024	23:35	-127.594	47.041	0	252.30	0	5.9714	0	33.9417	0	26.723	0	250.052	0	67.9	4	22.4	4	-1E+10	1	0.0584	4	0.000233	0	-1E+10	1	-1E+10	1	-1E+10	1
4902624	16	C	11/27/2024	23:35	-127.594	47.041	0	253.00	0	5.9690	0	33.9420	0	26.723	0	250.745	0	-1e10	1	-1e10	1	-1E+10	1	-1e10	1	-1e10	1	-1E+10	1	-1E+10	1	-1E+10	1
4902624	16	C	11/27/2024	23:35	-127.594	47.041	0	253.20	0	5.9673	0	33.9421	0	26.724	0	250.944	0	67.5	4	22.3	4	-1E+10	1	0.0470	4	0.000219	0	-1E+10	1	-1E+10	1	-1E+10	1
4902624	16	C	11/27/2024	23:35	-127.594	47.041	0	254.10	0	5.9597	0	33.9426	0	26.725	0	251.835	0	67.1	4	22.1	4	-1E+10	1	0.0438	4	0.000224	0	-1E+10	1	-1E+10	1	-1E+10	1
4902624	16	C	11/27/2024	23:35	-127.594	47.041	0	255.00	0	5.9520	0	33.9430	0	26.726	0	252.726	0	65.5	4	21.6	4	-1E+10	1	0.0438	4	0.000244	0	-1E+10	1	-1E+10	1	-1E+10	1
4902624	16	C	11/27/2024	23:35	-127.594	47.041	0	256.00	0	5.9485	0	33.9445	0	26.728	0	253.717	0	66.2	4	21.8	4	-1E+10	1	0.0470	4	0.000248	0	-1E+10	1	-1E+10	1	-1E+10	1
4902624	16	C	11/27/2024	23:35	-127.594	47.041	0	256.90	0	5.9454	0	33.9459	0	26.729	0	254.608	0	65.8	4	21.7	4	-1E+10	1	0.0511	4	0.000250	0	-1E+10	1	-1E+10	1	-1E+10	1
4902624	16	C	11/27/2024	23:35	-127.594	47.041	0	257.00	0	5.9450	0	33.9460	0	26.730	0	254.707	0	-1e10	1	-1e10	1	-1E+10	1	-1e10	1	-1e10	1	-1E+10	1	-1E+10	1	-1E+10	1
4902624	16	C	11/27/2024	23:35	-127.594	47.041	0	257.80	0	5.9311	0	33.9481	0	26.733	0	255.500	0	65.4	4	21.6	4	-1E+10	1	0.0523	4	0.000275	0	-1E+10	1	-1E+10	1	-1E+10	1
4902624	16	C	11/27/2024	23:35	-127.594	47.041	0	258.80	0	5.9137	0	33.9507	0	26.737	0	256.490	0	65.0	4	21.4	4	-1E+10	1	0.0584	4	0.000217	0	-1E+10	1	-1E+10	1	-1E+10	1
4902624	16	C	11/27/2024	23:35	-127.594	47.041	0	258.90	0	5.9120	0	33.9510	0	26.738	0	256.589	0	-1e10	1	-1e10	1	-1E+10	1	-1e10	1	-1e10	1	-1E+10	1	-1E+10	1	-1E+10	1
4902624	16	C	11/27/2024	23:35	-127.594	47.041	0	259.70	0	5.9044	0	33.9521	0	26.739	0	257.382	0	64.8	4	21.4	4	-1E+10	1	0.0511	4	0.000193	0	-1E+10	1	-1E+10	1	-1E+10	1
4902624	16	C	11/27/2024	23:35	-127.594	47.041	0	260.70	0	5.8949	0	33.9536	0	26.742	0	258.372	0	64.5	4	21.3	4	-1E+10	1	0.0511	4	0.000232	0	-1E+10	1	-1E+10	1	-1E+10	1
4902624	16	C	11/27/2024	23:35	-127.594	47.041	0	261.00	0	5.8920	0	33.9540	0	26.742	0	258.669	0	-1e10	1	-1e10	1	-1E+10	1	-1e10	1	-1e10	1	-1E+10	1	-1E+10	1	-1E+10	1
4902624	16	C	11/27/2024	23:35	-127.594	47.041	0	261.60	0	5.8896	0	33.9540	0	26.743	0	259.263	0	64.2	4	21.2	4	-1E+10	1	0.0557	4	0.000263	0	-1E+10	1	-1E+10	1	-1E+10	1
4902624	16	C	11/27/2024	23:35	-127.594	47.041	0	262.50	0	5.8860	0	33.9540	0	26.743	0	260.155	0	63.9	4	21.1	4	-1E+10	1	0.0584	4	0.000236	0	-1E+10	1	-1E+10	1	-1E+10	1
4902624	16	C	11/27/2024	23:35	-127.594	47.041	0	263.00	0	5.8840	0	33.9540	0	26.744	0	260.650	0	-1e10	1	-1e10	1	-1E+10	1	-1e10	1	-1e10	1	-1E+10	1	-1E+10	1	-1E+10	1
4902624	16	C	11/27/2024	23:35	-127.594	47.041	0	263.50	0	5.8830	0	33.9545	0	26.744	0	261.145	0	63.7	4	21.0	4	-1E+10	1	0.0511	4	0.000211	0	-1E+10	1	-1E+10	1	-1E+10	1
4902624	16	C	11/27/2024	23:35	-127.594	47.041	0	264.40	0	5.8812	0	33.9554	0	26.745	0	262.037	0	63.4	4	20.9	4	-1E+10	1	0.0498	4	0.000220	0	-1E+10	1	-1E+10	1	-1E+10	1
4902624	16	C	11/27/2024	23:35	-127.594	47.041	0	265.00	0	5.8800	0	33.9560	0	26.746	0	262.631	0	-1e10	1	-1e10	1	-1E+10	1	-1e10	1	-1e10	1	-1E+10	1	-1E+10	1	-1E+10	1
4902624	16	C	11/27/2024	23:35	-127.594	47.041	0	265.40	0	5.8770	0	33.9566	0	26.746	0	263.027	0	63.2	4	20.8	4	-1E+10	1	0.0625	4	0.000231	0	-1E+10	1	-1E+10	1	-1E+10	1
4902624	16	C	11/27/2024	23:35	-127.594	47.041	0	266.30	0	5.8702	0	33.9580	0	26.748	0	263.918	0	63.1	4	20.8	4	-1E+10	1	0.0535	4	0.000240	0	-1E+10	1	-1E+10	1	-1E+10	1
4902624	16	C	11/27/2024	23:35	-127.594	47.041	0	267.00	0	5.8650	0	33.9590	0	26.750	0	264.612	0	-1e10	1	-1e10	1	-1E+10	1	-1e10	1	-1e10	1	-1E+10	1	-1E+10	1	-1E+10	1
4902624	16	C	11/27/2024	23:35	-127.594	47.041	0	267.30	0	5.8620	0	33.9589	0	26.750	0	264.909	0	62.9	4	20.7	4	-1E+10	1	0.0657	4	0.000240	0	-1E+10	1	-1E+10	1	-1E+10	1
4902624	16	C	11/27/2024	23:35	-127.594	47.041	0	268.20	0	5.8530	0	33.9584	0	26.751	0	265.800	0	62.8	4	20.7	4	-1E+10	1	0.0538	4	0.000221	0	-1E+10	1	-1E+10	1	-1E+10	1
4902624	16	C	11/27/2024	23:35	-127.594	47.041	0	269.00	0	5.8450	0	33.9580	0	26.752	0	266.593	0	-1e10	1	-1e10	1	-1E+10	1	-1e10	1	-1e10	1	-1E+10	1	-1E+10	1	-1E+10	1
4902624	16	C	11/27/2024	23:35	-127.594	47.041	0	269.20	0	5.8428	0	33.9579	0	26.752	0	266.791	0	62.6	4	20.6	4	-1E+10	1	0.0511	4	0.000226	0	-1E+10	1	-1E+10	1	-1E+10	1
4902624	16	C	11/27/2024	23:35	-127.594	47.041	0	270.10	0	5.8329	0	33.9575	0	26.753	0	267.682	0	62.4	4	20.5	4	-1E+10	1	0.0557	4	0.000221	0	-1E+10	1	-1E+10	1	-1E+10	1
4902624	16	C	11/27/2024	23:35	-127.594	47.041	0	271.00	0	5.8230	0	33.9570	0	26.753	0	268.573	0	-1e10	1	-1e10	1	-1E+10	1	-1e10	1	-1e10	1	-1E+10	1	-1E+10	1	-1E+10	1
4902624	16	C	11/27/2024	23:35	-127.594	47.041	0	271.10	0	5.8202	0	33.9569	0	26.754	0	268.672	0	62.1	4	20.4	4	-1E+10	1	0.0511	4	0.000222	0	-1E+10	1	-1E+10	1	-1E+10	1
4902624	16	C	11/27/2024	23:35	-127.594	47.041	0	272.10	0	5.7923	0	33.9558	0	26.756	0	269.663	0	61.8	4	20.3	4	-1E+10	1	0.0438	4	0.000218	0	-1E+10	1	-1E+10	1	-1E+10	1
4902624	16	C	11/27/2024	23:35	-127.594	47.041	0	272.90	0	5.7700	0	33.9550	0	26.758	0	270.455	0	-1e10	1	-1e10	1	-1E+10	1	-1e10	1	-1e10	1	-1E+10	1	-1E+10	1	-1E+10	1
4902624	16	C	11/27/2024	23:35	-127.594	47.041	0	273.00	0	5.7695	0	33.9550	0	26.758	0	270.554	0	61.4	4	20.2	4	-1E+10	1	0.0487	4	0.000213	0	-1E+10	1	-1E+10	1	-1E+10	1
4902624	16	C	11/27/2024	23:35	-127.594	47.041	0	274.00	0	5.7642	0	33.9545	0	26.759	0	271.545	0	60.9	4	20.0	4	-1E+10	1	0.0571	4	0.000233	0	-1E+10	1	-1E+10	1	-1E+10	1
4902624	16	C	11/27/2024	23:35	-127.594	47.041	0	274.90	0	5.7595	0	33.9540	0	26.759	0	272.436	0	60.4	4	19.8	4	-1E+10	1	0.0511	4	0.000252	0	-1E+10	1	-1E+10	1	-1E+10	1
4902624	16	C	11/27/2024	23:35	-127.594	47.041	0	275.00	0	5.7590	0	33.9540	0	26.759	0	272.535	0	-1e10	1	-1e10	1	-1E+10	1	-1e10	1	-1e10	1	-1E+10	1	-1E+10	1	-1E+10	1
4902624	16	C	11/27/2024	23:35	-127.594	47.041	0	275.90	0	5.7689	0	33.9558	0	26.759	0	273.426	0	59.8	4	19.7	4	-1E+10	1	0.0584	4	0.000275	0	-1E+10	1	-1E+10	1	-1E+10	1
4902624	16	C	11/27/2024	23:35	-127.594	47.041	0	276.90	0	5.7799	0	33.9578	0	26.759	0	274.417	0	59.3	4	19.5	4	-1E+10	1	0.0523	4	0.000324	0	-1E+10	1	-1E+10	1	-1E+10	1
4902624	16	C	11/27/2024	23:35	-127.594	47.041	0	277.00	0	5.7810	0	33.9580	0	26.760	0	274.516	0	-1e10	1	-1e10	1	-1E+10	1	-1e10	1	-1e10	1	-1E+10	1	-1E+10	1	-1E+10	1
4902624	16	C	11/27/2024	23:35	-127.594	47.041	0	277.80	0	5.7850	0	33.9604	0	26.761	0	275.308	0	59.0	4	19.4	4	-1E+10	1	0.0418	4	0.000274	0	-1E+10	1	-1E+10	1	-1E+10	1
4902624	16	C	11/27/2024	23:35	-127.594	47.041	0	278.80	0	5.7900	0	33.9634	0	26.763	0	276.298	0	58.6	4	19.3	4	-1E+10	1	0.0453	4	0.000247	0	-1E+10	1	-1E+10	1	-1E+10	1
4902624	16	C	11/27/2024	23:35	-127.594	47.041	0	279.00	0	5.7910	0	33.9640	0	26.763	0	276.496	0	-1e10	1	-1e10	1	-1E+10	1	-1e10	1	-1e10	1	-1E+10	1	-1E+10	1	-1E+10	1
4902624	16	C	11/27/2024	23:35	-127.594	47.041	0	279.70	0	5.7931	0	33.9654	0	26.764	0	277.190	0	58.2	4	19.1	4	-1E+10	1	0.0478	4	0.000257	0	-1E+10	1	-1E+10	1	-1E+10	1
4902624	16	C	11/27/2024	23:35	-127.594	47.041	0	280.70	0	5.7961	0	33.9674	0	26.765	0	278.180	0	57.9	4	19.0	4	-1E+10	1	0.0487	4	0.000252	0	-1E+10	1	-1E+10	1	-1E+10	1
4902624	16	C	11/27/2024	23:35	-127.594	47.041	0	281.00	0	5.7970	0	33.9680	0	26.765	0	278.477	0	-1e10	1	-1e10	1	-1E+10	1	-1e10	1	-1e10	1	-1E+10	1	-1E+10	1	-1E+10	1
4902624	16	C	11/27/2024	23:35	-127.594	47.041	0	281.70	0	5.7963	0	33.9698	0	26.767	0	279.170	0	57.6	4	18.9	4	-1E+10	1	0.0555	4	0.000231	0	-1E+10	1	-1E+10	1	-1E+10	1
4902624	16	C	11/27/2024	23:35	-127.594	47.041	0	282.60	0	5.7953	0	33.9722	0	26.769	0	280.062	0	57.3	4	18.8	4	-1E+10	1	0.0458	4	0.000240	0	-1E+10	1	-1E+10	1	-1E+10	1
4902624	16	C	11/27/2024	23:35	-127.594	47.041	0	282.90	0	5.7950	0	33.9730	0	26.770	0	280.359	0	-1e10	1	-1e10	1	-1E+10	1	-1e10	1	-1e10	1	-1E+10	1	-1E+10	1	-1E+10	1
4902624	16	C	11/27/2024	23:35	-127.594	47.041	0	283.60	0	5.7960	0	33.9743	0	26.771	0	281.052	0	57.0	4	18.7	4	-1E+10	1	0.0657	4	0.000240	0	-1E+10	1	-1E+10	1	-1E+10	1
4902624	16	C	11/27/2024	23:35	-127.594	47.041	0	284.60	0	5.7973	0	33.9761	0	26.772	0	282.042	0	56.8	4	18.7	4	-1E+10	1	0.0535	4	0.000279	0	-1E+10	1	-1E+10	1	-1E+10	1
4902624	16	C	11/27/2024	23:35	-127.594	47.041	0	285.10	0	5.7980	0	33.9770	0	26.773	0	282.538	0	-1e10	1	-1e10	1	-1E+10	1	-1e10	1	-1e10	1	-1E+10	1	-1E+10	1	-1E+10	1
4902624	16	C	11/27/2024	23:35	-127.594	47.041	0	285.60	0	5.7943	0	33.9778	0	26.774	0	283.033	0	56.6	4	18.6	4	-1E+10	1	0.0453	4	0.000231	0	-1E+10	1	-1E+10	1	-1E+10	1
4902624	16	C	11/27/2024	23:35	-127.594	47.041	0	286.60	0	5.7867	0	33.9792	0	26.776	0	284.023	0	56.5	4	18.6	4	-1E+10	1	0.0438	4	0.000232	0	-1E+10	1	-1E+10	1	-1E+10	1
4902624	16	C	11/27/2024	23:35	-127.594	47.041	0	287.10	0	5.7830	0	33.9800	0	26.777	0	284.518	0	-1e10	1	-1e10	1	-1E+10	1	-1e10	1	-1e10	1	-1E+10	1	-1E+10	1	-1E+10	1
4902624	16	C	11/27/2024	23:35	-127.594	47.041	0	287.60	0	5.7787	0	33.9800	0	26.777	0	285.013	0	56.2	4	18.5	4	-1E+10	1	0.0438	4	0.000234	0	-1E+10	1	-1E+10	1	-1E+10	1
4902624	16	C	11/27/2024	23:35	-127.594	47.041	0	288.60	0	5.7702	0	33.9800	0	26.778	0	286.004	0	55.9	4	18.4	4	-1E+10	1	0.0467	4	0.000219	0	-1E+10	1	-1E+10	1	-1E+10	1
4902624	16	C	11/27/2024	23:35	-127.594	47.041	0	289.10	0	5.7660	0	33.9800	0	26.779	0	286.499	0	-1e10	1	-1e10	1	-1E+10	1	-1e10	1	-1e10	1	-1E+10	1	-1E+10	1	-1E+10	1
4902624	16	C	11/27/2024	23:35	-127.594	47.041	0	289.60	0	5.7618	0	33.9803	0	26.780	0	286.994	0	55.6	4	18.3	4	-1E+10	1	0.0560	4	0.000232	0	-1E+10	1	-1E+10	1	-1E+10	1
4902624	16	C	11/27/2024	23:35	-127.594	47.041	0	290.60	0	5.7535	0	33.9808	0	26.781	0	287.984	0	55.3	4	18.2	4	-1E+10	1	0.0633	4	0.000277	0	-1E+10	1	-1E+10	1	-1E+10	1
4902624	16	C	11/27/2024	23:35	-127.594	47.041	0	290.90	0	5.7510	0	33.9810	0	26.782	0	288.281	0	-1e10	1	-1e10	1	-1E+10	1	-1e10	1	-1e10	1	-1E+10	1	-1E+10	1	-1E+10	1
4902624	16	C	11/27/2024	23:35	-127.594	47.041	0	291.60	0	5.7471	0	33.9817	0	26.783	0	288.975	0	55.0	4	18.1	4	-1E+10	1	0.0511	4	0.000228	0	-1E+10	1	-1E+10	1	-1E+10	1
4902624	16	C	11/27/2024	23:35	-127.594	47.041	0	292.60	0	5.7416	0	33.9827	0	26.784	0	289.965	0	54.7	4	18.0	4	-1E+10	1	0.0584	4	0.000205	0	-1E+10	1	-1E+10	1	-1E+10	1
4902624	16	C	11/27/2024	23:35	-127.594	47.041	0	292.90	0	5.7400	0	33.9830	0	26.784	0	290.262	0	-1e10	1	-1e10	1	-1E+10	1	-1e10	1	-1e10	1	-1E+10	1	-1E+10	1	-1E+10	1
4902624	16	C	11/27/2024	23:35	-127.594	47.041	0	293.60	0	5.7347	0	33.9837	0	26.786	0	290.955	0	54.3	4	17.8	4	-1E+10	1	0.0462	4	0.000214	0	-1E+10	1	-1E+10	1	-1E+10	1
4902624	16	C	11/27/2024	23:35	-127.594	47.041	0	294.60	0	5.7273	0	33.9847	0	26.787	0	291.945	0	54.0	4	17.7	4	-1E+10	1	0.0535	4	0.000240	0	-1E+10	1	-1E+10	1	-1E+10	1
4902624	16	C	11/27/2024	23:35	-127.594	47.041	0	294.90	0	5.7250	0	33.9850	0	26.788	0	292.243	0	-1e10	1	-1e10	1	-1E+10	1	-1e10	1	-1e10	1	-1E+10	1	-1E+10	1	-1E+10	1
4902624	16	C	11/27/2024	23:35	-127.594	47.041	0	295.70	0	5.7204	0	33.9861	0	26.789	0	293.035	0	53.6	4	17.6	4	-1E+10	1	0.0538	4	0.000259	0	-1E+10	1	-1E+10	1	-1E+10	1
4902624	16	C	11/27/2024	23:35	-127.594	47.041	0	296.70	0	5.7147	0	33.9876	0	26.791	0	294.025	0	53.3	4	17.5	4	-1E+10	1	0.0511	4	0.000246	0	-1E+10	1	-1E+10	1	-1E+10	1
4902624	16	C	11/27/2024	23:35	-127.594	47.041	0	297.00	0	5.7130	0	33.9880	0	26.792	0	294.322	0	-1e10	1	-1e10	1	-1E+10	1	-1e10	1	-1e10	1	-1E+10	1	-1E+10	1	-1E+10	1
4902624	16	C	11/27/2024	23:35	-127.594	47.041	0	297.70	0	5.7070	0	33.9887	0	26.793	0	295.015	0	53.1	4	17.4	4	-1E+10	1	0.0540	4	0.000242	0	-1E+10	1	-1E+10	1	-1E+10	1
4902624	16	C	11/27/2024	23:35	-127.594	47.041	0	298.70	0	5.6986	0	33.9897	0	26.795	0	296.006	0	52.8	4	17.3	4	-1E+10	1	0.0526	4	0.000254	0	-1E+10	1	-1E+10	1	-1E+10	1
4902624	16	C	11/27/2024	23:35	-127.594	47.041	0	299.00	0	5.6960	0	33.9900	0	26.795	0	296.303	0	-1e10	1	-1e10	1	-1E+10	1	-1e10	1	-1e10	1	-1E+10	1	-1E+10	1	-1E+10	1
4902624	16	C	11/27/2024	23:35	-127.594	47.041	0	299.80	0	5.6940	0	33.9911	0	26.797	0	297.095	0	52.6	4	17.3	4	-1E+10	1	0.0442	4	0.000238	0	-1E+10	1	-1E+10	1	-1E+10	1
4902624	16	C	11/27/2024	23:35	-127.594	47.041	0	304.90	0	5.6810	0	33.9980	0	26.804	0	302.145	0	-1e10	1	-1e10	1	-1E+10	1	-1e10	1	-1e10	1	-1E+10	1	-1E+10	1	-1E+10	1
4902624	16	C	11/27/2024	23:35	-127.594	47.041	0	310.10	0	5.6367	0	33.9990	0	26.810	0	307.294	0	50.8	4	16.6	4	-1E+10	1	0.0514	4	0.000205	0	-1E+10	1	-1E+10	1	-1E+10	1
4902624	16	C	11/27/2024	23:35	-127.594	47.041	0	315.00	0	5.5950	0	34.0000	0	26.816	0	312.146	0	-1e10	1	-1e10	1	-1E+10	1	-1e10	1	-1e10	1	-1E+10	1	-1E+10	1	-1E+10	1
4902624	16	C	11/27/2024	23:35	-127.594	47.041	0	320.70	0	5.5522	0	34.0028	0	26.823	0	317.790	0	48.9	4	16.0	4	-1E+10	1	0.0581	4	0.000229	0	-1E+10	1	-1E+10	1	-1E+10	1
4902624	16	C	11/27/2024	23:35	-127.594	47.041	0	325.00	0	5.5200	0	34.0050	0	26.829	0	322.048	0	-1e10	1	-1e10	1	-1E+10	1	-1e10	1	-1e10	1	-1E+10	1	-1E+10	1	-1E+10	1
4902624	16	C	11/27/2024	23:35	-127.594	47.041	0	331.60	0	5.4952	0	34.0070	0	26.833	0	328.583	0	47.1	4	15.4	4	-1E+10	1	0.0518	4	0.000250	0	-1E+10	1	-1E+10	1	-1E+10	1
4902624	16	C	11/27/2024	23:35	-127.594	47.041	0	335.10	0	5.4820	0	34.0080	0	26.836	0	332.048	0	-1e10	1	-1e10	1	-1E+10	1	-1e10	1	-1e10	1	-1E+10	1	-1E+10	1	-1E+10	1
4902624	16	C	11/27/2024	23:35	-127.594	47.041	0	342.60	0	5.4572	0	34.0177	0	26.847	0	339.474	0	43.9	4	14.3	4	-1E+10	1	0.0647	4	0.000227	0	-1E+10	1	-1E+10	1	-1E+10	1
4902624	16	C	11/27/2024	23:35	-127.594	47.041	0	345.10	0	5.4490	0	34.0210	0	26.850	0	341.949	0	-1e10	1	-1e10	1	-1E+10	1	-1e10	1	-1e10	1	-1E+10	1	-1E+10	1	-1E+10	1
4902624	16	C	11/27/2024	23:35	-127.594	47.041	0	353.90	0	5.4046	0	34.0281	0	26.861	0	350.661	0	41.6	4	13.5	4	-1E+10	1	0.0444	4	0.000220	0	-1E+10	1	-1E+10	1	-1E+10	1
4902624	16	C	11/27/2024	23:35	-127.594	47.041	0	355.00	0	5.3990	0	34.0290	0	26.862	0	351.750	0	-1e10	1	-1e10	1	-1E+10	1	-1e10	1	-1e10	1	-1E+10	1	-1E+10	1	-1E+10	1
4902624	16	C	11/27/2024	23:35	-127.594	47.041	0	364.80	0	5.4030	0	34.0410	0	26.872	0	361.452	0	-1e10	1	-1e10	1	-1E+10	1	-1e10	1	-1e10	1	-1E+10	1	-1E+10	1	-1E+10	1
4902624	16	C	11/27/2024	23:35	-127.594	47.041	0	365.50	0	5.4029	0	34.0418	0	26.872	0	362.145	0	38.9	4	12.7	4	-1E+10	1	0.0584	4	0.000320	0	-1E+10	1	-1E+10	1	-1E+10	1
4902624	16	C	11/27/2024	23:35	-127.594	47.041	0	375.00	0	5.4020	0	34.0530	0	26.881	0	371.549	0	-1e10	1	-1e10	1	-1E+10	1	-1e10	1	-1e10	1	-1E+10	1	-1E+10	1	-1E+10	1
4902624	16	C	11/27/2024	23:35	-127.594	47.041	0	377.50	0	5.3935	0	34.0549	0	26.884	0	374.024	0	37.1	4	12.1	4	-1E+10	1	0.0584	4	0.000274	0	-1E+10	1	-1E+10	1	-1E+10	1
4902624	16	C	11/27/2024	23:35	-127.594	47.041	0	385.30	0	5.3670	0	34.0610	0	26.892	0	381.745	0	-1e10	1	-1e10	1	-1E+10	1	-1e10	1	-1e10	1	-1E+10	1	-1E+10	1	-1E+10	1
4902624	16	C	11/27/2024	23:35	-127.594	47.041	0	389.70	0	5.3620	0	34.0660	0	26.896	0	386.100	0	34.9	4	11.4	4	-1E+10	1	0.0584	4	0.000277	0	-1E+10	1	-1E+10	1	-1E+10	1
4902624	16	C	11/27/2024	23:35	-127.594	47.041	0	395.00	0	5.3560	0	34.0720	0	26.902	0	391.346	0	-1e10	1	-1e10	1	-1E+10	1	-1e10	1	-1e10	1	-1E+10	1	-1E+10	1	-1E+10	1
4902624	16	C	11/27/2024	23:35	-127.594	47.041	0	402.20	0	5.3387	0	34.0763	0	26.908	0	398.473	0	33.5	4	10.9	4	-1E+10	1	0.0580	4	0.000332	0	-1E+10	1	-1E+10	1	-1E+10	1
4902624	16	C	11/27/2024	23:35	-127.594	47.041	0	405.00	0	5.3320	0	34.0780	0	26.910	0	401.244	0	-1e10	1	-1e10	1	-1E+10	1	-1e10	1	-1e10	1	-1E+10	1	-1E+10	1	-1E+10	1
4902624	16	C	11/27/2024	23:35	-127.594	47.041	0	412.30	0	5.3103	0	34.0809	0	26.915	0	408.469	0	32.7	4	10.6	4	-1E+10	1	0.0511	4	0.000321	0	-1E+10	1	-1E+10	1	-1E+10	1
4902624	16	C	11/27/2024	23:35	-127.594	47.041	0	415.10	0	5.3020	0	34.0820	0	26.916	0	411.240	0	-1e10	1	-1e10	1	-1E+10	1	-1e10	1	-1e10	1	-1E+10	1	-1E+10	1	-1E+10	1
4902624	16	C	11/27/2024	23:35	-127.594	47.041	0	420.30	0	5.2852	0	34.0836	0	26.920	0	416.387	0	31.6	4	10.3	4	-1E+10	1	0.0516	4	0.000309	0	-1E+10	1	-1E+10	1	-1E+10	1
4902624	16	C	11/27/2024	23:35	-127.594	47.041	0	425.00	0	5.2700	0	34.0850	0	26.923	0	421.038	0	-1e10	1	-1e10	1	-1E+10	1	-1e10	1	-1e10	1	-1E+10	1	-1E+10	1	-1E+10	1
4902624	16	C	11/27/2024	23:35	-127.594	47.041	0	428.60	0	5.2460	0	34.0868	0	26.927	0	424.601	0	30.6	4	9.9	4	-1E+10	1	0.0657	4	0.000297	0	-1E+10	1	-1E+10	1	-1E+10	1
4902624	16	C	11/27/2024	23:35	-127.594	47.041	0	434.90	0	5.2040	0	34.0900	0	26.934	0	430.835	0	-1e10	1	-1e10	1	-1E+10	1	-1e10	1	-1e10	1	-1E+10	1	-1E+10	1	-1E+10	1
4902624	16	C	11/27/2024	23:35	-127.594	47.041	0	437.10	0	5.1920	0	34.0902	0	26.936	0	433.013	0	29.8	4	9.7	4	-1E+10	1	0.0650	4	0.000286	0	-1E+10	1	-1E+10	1	-1E+10	1
4902624	16	C	11/27/2024	23:35	-127.594	47.041	0	444.80	0	5.1500	0	34.0910	0	26.942	0	440.632	0	-1e10	1	-1e10	1	-1E+10	1	-1e10	1	-1e10	1	-1E+10	1	-1E+10	1	-1E+10	1
4902624	16	C	11/27/2024	23:35	-127.594	47.041	0	445.90	0	5.1447	0	34.0915	0	26.943	0	441.721	0	28.7	4	9.3	4	-1E+10	1	0.0511	4	0.000287	0	-1E+10	1	-1E+10	1	-1E+10	1
4902624	16	C	11/27/2024	23:35	-127.594	47.041	0	455.00	0	5.1010	0	34.0960	0	26.951	0	450.726	0	-1e10	1	-1e10	1	-1E+10	1	-1e10	1	-1e10	1	-1E+10	1	-1E+10	1	-1E+10	1
4902624	16	C	11/27/2024	23:35	-127.594	47.041	0	455.10	0	5.1010	0	34.0961	0	26.951	0	450.825	0	27.6	4	8.9	4	-1E+10	1	0.0508	4	0.000320	0	-1E+10	1	-1E+10	1	-1E+10	1
4902624	16	C	11/27/2024	23:35	-127.594	47.041	0	464.50	0	5.0963	0	34.1063	0	26.960	0	460.126	0	26.2	4	8.5	4	-1E+10	1	0.0447	4	0.000297	0	-1E+10	1	-1E+10	1	-1E+10	1
4902624	16	C	11/27/2024	23:35	-127.594	47.041	0	465.10	0	5.0960	0	34.1070	0	26.961	0	460.720	0	-1e10	1	-1e10	1	-1E+10	1	-1e10	1	-1e10	1	-1E+10	1	-1E+10	1	-1E+10	1
4902624	16	C	11/27/2024	23:35	-127.594	47.041	0	473.80	0	5.0556	0	34.1140	0	26.971	0	469.328	0	24.7	4	8.0	4	-1E+10	1	0.0655	4	0.000297	0	-1E+10	1	-1E+10	1	-1E+10	1
4902624	16	C	11/27/2024	23:35	-127.594	47.041	0	475.00	0	5.0500	0	34.1150	0	26.972	0	470.515	0	-1e10	1	-1e10	1	-1E+10	1	-1e10	1	-1e10	1	-1E+10	1	-1E+10	1	-1E+10	1
4902624	16	C	11/27/2024	23:35	-127.594	47.041	0	483.30	0	5.0106	0	34.1225	0	26.983	0	478.727	0	23.4	4	7.6	4	-1E+10	1	0.0587	4	0.000296	0	-1E+10	1	-1E+10	1	-1E+10	1
4902624	16	C	11/27/2024	23:35	-127.594	47.041	0	484.90	0	5.0030	0	34.1240	0	26.985	0	480.310	0	-1e10	1	-1e10	1	-1E+10	1	-1e10	1	-1e10	1	-1E+10	1	-1E+10	1	-1E+10	1
4902624	16	C	11/27/2024	23:35	-127.594	47.041	0	492.70	0	4.9694	0	34.1294	0	26.993	0	488.027	0	22.3	4	7.2	4	-1E+10	1	0.0650	4	0.000285	0	-1E+10	1	-1E+10	1	-1E+10	1
4902624	16	C	11/27/2024	23:35	-127.594	47.041	0	495.10	0	4.9590	0	34.1310	0	26.996	0	490.402	0	-1e10	1	-1e10	1	-1E+10	1	-1e10	1	-1e10	1	-1E+10	1	-1E+10	1	-1E+10	1
4902624	16	C	11/27/2024	23:35	-127.594	47.041	0	502.00	0	4.9335	0	34.1358	0	27.002	0	497.228	0	21.3	4	6.9	4	-1E+10	1	0.0443	4	0.000275	0	-1E+10	1	-1E+10	1	-1E+10	1
4902624	16	C	11/27/2024	23:35	-127.594	47.041	0	505.10	0	4.9220	0	34.1380	0	27.005	0	500.295	0	-1e10	1	-1e10	1	-1E+10	1	-1e10	1	-1e10	1	-1E+10	1	-1E+10	1	-1E+10	1
4902624	16	C	11/27/2024	23:35	-127.594	47.041	0	511.30	0	4.8879	0	34.1405	0	27.011	0	506.428	0	20.0	4	6.5	4	-1E+10	1	0.0581	4	0.000322	0	-1E+10	1	-1E+10	1	-1E+10	1
4902624	16	C	11/27/2024	23:35	-127.594	47.041	0	515.10	0	4.8670	0	34.1420	0	27.015	0	510.187	0	-1e10	1	-1e10	1	-1E+10	1	-1e10	1	-1e10	1	-1E+10	1	-1E+10	1	-1E+10	1
4902624	16	C	11/27/2024	23:35	-127.594	47.041	0	520.60	0	4.8379	0	34.1464	0	27.022	0	515.628	0	18.9	4	6.1	4	-1E+10	1	0.0511	4	0.000350	0	-1E+10	1	-1E+10	1	-1E+10	1
4902624	16	C	11/27/2024	23:35	-127.594	47.041	0	525.10	0	4.8140	0	34.1500	0	27.027	0	520.080	0	-1e10	1	-1e10	1	-1E+10	1	-1e10	1	-1e10	1	-1E+10	1	-1E+10	1	-1E+10	1
4902624	16	C	11/27/2024	23:35	-127.594	47.041	0	529.90	0	4.7959	0	34.1538	0	27.032	0	524.828	0	17.8	4	5.7	4	-1E+10	1	0.0517	4	0.000245	0	-1E+10	1	-1E+10	1	-1E+10	1
4902624	16	C	11/27/2024	23:35	-127.594	47.041	0	535.20	0	4.7760	0	34.1580	0	27.038	0	530.070	0	-1e10	1	-1e10	1	-1E+10	1	-1e10	1	-1e10	1	-1E+10	1	-1E+10	1	-1E+10	1
4902624	16	C	11/27/2024	23:35	-127.594	47.041	0	539.30	0	4.7573	0	34.1612	0	27.043	0	534.126	0	16.8	4	5.4	4	-1E+10	1	0.0651	4	0.000394	0	-1E+10	1	-1E+10	1	-1E+10	1
4902624	16	C	11/27/2024	23:35	-127.594	47.041	0	545.30	0	4.7300	0	34.1660	0	27.049	0	540.060	0	-1e10	1	-1e10	1	-1E+10	1	-1e10	1	-1e10	1	-1E+10	1	-1E+10	1	-1E+10	1
4902624	16	C	11/27/2024	23:35	-127.594	47.041	0	548.60	0	4.7167	0	34.1691	0	27.053	0	543.324	0	15.9	4	5.1	4	-1E+10	1	0.0511	4	0.000214	0	-1E+10	1	-1E+10	1	-1E+10	1
4902624	16	C	11/27/2024	23:35	-127.594	47.041	0	555.00	0	4.6910	0	34.1750	0	27.061	0	549.654	0	-1e10	1	-1e10	1	-1E+10	1	-1e10	1	-1e10	1	-1E+10	1	-1E+10	1	-1E+10	1
4902624	16	C	11/27/2024	23:35	-127.594	47.041	0	558.20	0	4.6823	0	34.1779	0	27.064	0	552.819	0	15.1	4	4.8	4	-1E+10	1	0.0511	4	0.000215	0	-1E+10	1	-1E+10	1	-1E+10	1
4902624	16	C	11/27/2024	23:35	-127.594	47.041	0	564.90	0	4.6640	0	34.1840	0	27.071	0	559.446	0	-1e10	1	-1e10	1	-1E+10	1	-1e10	1	-1e10	1	-1E+10	1	-1E+10	1	-1E+10	1
4902624	16	C	11/27/2024	23:35	-127.594	47.041	0	568.00	0	4.6485	0	34.1859	0	27.074	0	562.511	0	14.2	4	4.5	4	-1E+10	1	0.0514	4	0.000226	0	-1E+10	1	-1E+10	1	-1E+10	1
4902624	16	C	11/27/2024	23:35	-127.594	47.041	0	574.90	0	4.6140	0	34.1900	0	27.081	0	569.335	0	-1e10	1	-1e10	1	-1E+10	1	-1e10	1	-1e10	1	-1E+10	1	-1E+10	1	-1E+10	1
4902624	16	C	11/27/2024	23:35	-127.594	47.041	0	578.10	0	4.6011	0	34.1919	0	27.084	0	572.500	0	13.5	4	4.3	4	-1E+10	1	0.0575	4	0.000225	0	-1E+10	1	-1E+10	1	-1E+10	1
4902624	16	C	11/27/2024	23:35	-127.594	47.041	0	584.80	0	4.5740	0	34.1960	0	27.091	0	579.126	0	-1e10	1	-1e10	1	-1E+10	1	-1e10	1	-1e10	1	-1E+10	1	-1E+10	1	-1E+10	1
4902624	16	C	11/27/2024	23:35	-127.594	47.041	0	588.40	0	4.5658	0	34.1985	0	27.094	0	582.686	0	12.9	4	4.1	4	-1E+10	1	0.0373	4	0.000214	0	-1E+10	1	-1E+10	1	-1E+10	1
4902624	16	C	11/27/2024	23:35	-127.594	47.041	0	594.90	0	4.5510	0	34.2030	0	27.099	0	589.114	0	-1e10	1	-1e10	1	-1E+10	1	-1e10	1	-1e10	1	-1E+10	1	-1E+10	1	-1E+10	1
4902624	16	C	11/27/2024	23:35	-127.594	47.041	0	599.00	0	4.5361	0	34.2058	0	27.103	0	593.168	0	12.2	4	3.9	4	-1E+10	1	0.0587	4	0.000214	0	-1E+10	1	-1E+10	1	-1E+10	1
4902624	16	C	11/27/2024	23:35	-127.594	47.041	0	605.10	0	4.5140	0	34.2100	0	27.108	0	599.200	0	-1e10	1	-1e10	1	-1E+10	1	-1e10	1	-1e10	1	-1E+10	1	-1E+10	1	-1E+10	1
4902624	16	C	11/27/2024	23:35	-127.594	47.041	0	609.90	0	4.5009	0	34.2129	0	27.112	0	603.946	0	11.5	4	3.7	4	-1E+10	1	0.0654	4	0.000226	0	-1E+10	1	-1E+10	1	-1E+10	1
4902624	16	C	11/27/2024	23:35	-127.594	47.041	0	615.00	0	4.4870	0	34.2160	0	27.116	0	608.989	0	-1e10	1	-1e10	1	-1E+10	1	-1e10	1	-1e10	1	-1E+10	1	-1E+10	1	-1E+10	1
4902624	16	C	11/27/2024	23:35	-127.594	47.041	0	621.10	0	4.4663	0	34.2203	0	27.122	0	615.020	0	11.1	4	3.5	4	-1E+10	1	0.0584	4	0.000235	0	-1E+10	1	-1E+10	1	-1E+10	1
4902624	16	C	11/27/2024	23:35	-127.594	47.041	0	625.00	0	4.4530	0	34.2230	0	27.125	0	618.876	0	-1e10	1	-1e10	1	-1E+10	1	-1e10	1	-1e10	1	-1E+10	1	-1E+10	1	-1E+10	1
4902624	16	C	11/27/2024	23:35	-127.594	47.041	0	632.80	0	4.4198	0	34.2276	0	27.133	0	626.588	0	10.6	4	3.4	4	-1E+10	1	0.0586	4	0.000190	0	-1E+10	1	-1E+10	1	-1E+10	1
4902624	16	C	11/27/2024	23:35	-127.594	47.041	0	635.10	0	4.4100	0	34.2290	0	27.135	0	628.862	0	-1e10	1	-1e10	1	-1E+10	1	-1e10	1	-1e10	1	-1E+10	1	-1E+10	1	-1E+10	1
4902624	16	C	11/27/2024	23:35	-127.594	47.041	0	644.70	0	4.3687	0	34.2348	0	27.144	0	638.353	0	10.1	4	3.2	4	-1E+10	1	0.0654	4	0.000202	0	-1E+10	1	-1E+10	1	-1E+10	1
4902624	16	C	11/27/2024	23:35	-127.594	47.041	0	645.10	0	4.3670	0	34.2350	0	27.144	0	638.748	0	-1e10	1	-1e10	1	-1E+10	1	-1e10	1	-1e10	1	-1E+10	1	-1E+10	1	-1E+10	1
4902624	16	C	11/27/2024	23:35	-127.594	47.041	0	655.00	0	4.3610	0	34.2430	0	27.151	0	648.535	0	-1e10	1	-1e10	1	-1E+10	1	-1e10	1	-1e10	1	-1E+10	1	-1E+10	1	-1E+10	1
4902624	16	C	11/27/2024	23:35	-127.594	47.041	0	656.80	0	4.3562	0	34.2441	0	27.153	0	650.315	0	9.7	4	3.1	4	-1E+10	1	0.0584	4	0.000208	0	-1E+10	1	-1E+10	1	-1E+10	1
4902624	16	C	11/27/2024	23:35	-127.594	47.041	0	664.80	0	4.3350	0	34.2490	0	27.159	0	658.223	0	-1e10	1	-1e10	1	-1E+10	1	-1e10	1	-1e10	1	-1E+10	1	-1E+10	1	-1E+10	1
4902624	16	C	11/27/2024	23:35	-127.594	47.041	0	668.30	0	4.3209	0	34.2511	0	27.162	0	661.683	0	9.4	4	3.0	4	-1E+10	1	0.0581	4	0.000347	0	-1E+10	1	-1E+10	1	-1E+10	1
4902624	16	C	11/27/2024	23:35	-127.594	47.041	0	675.00	0	4.2940	0	34.2550	0	27.168	0	668.306	0	-1e10	1	-1e10	1	-1E+10	1	-1e10	1	-1e10	1	-1E+10	1	-1E+10	1	-1E+10	1
4902624	16	C	11/27/2024	23:35	-127.594	47.041	0	676.30	0	4.2920	0	34.2562	0	27.169	0	669.591	0	9.1	4	2.9	4	-1E+10	1	0.0514	4	0.000177	0	-1E+10	1	-1E+10	1	-1E+10	1
4902624	16	C	11/27/2024	23:35	-127.594	47.041	0	684.70	0	4.2794	0	34.2637	0	27.177	0	677.894	0	8.9	4	2.8	4	-1E+10	1	0.0584	4	0.000166	0	-1E+10	1	-1E+10	1	-1E+10	1
4902624	16	C	11/27/2024	23:35	-127.594	47.041	0	685.00	0	4.2790	0	34.2640	0	27.177	0	678.190	0	-1e10	1	-1e10	1	-1E+10	1	-1e10	1	-1e10	1	-1E+10	1	-1E+10	1	-1E+10	1
4902624	16	C	11/27/2024	23:35	-127.594	47.041	0	693.20	0	4.2577	0	34.2673	0	27.182	0	686.295	0	8.7	4	2.8	4	-1E+10	1	0.0584	4	0.000155	0	-1E+10	1	-1E+10	1	-1E+10	1
4902624	16	C	11/27/2024	23:35	-127.594	47.041	0	695.00	0	4.2530	0	34.2680	0	27.183	0	688.075	0	-1e10	1	-1e10	1	-1E+10	1	-1e10	1	-1e10	1	-1E+10	1	-1E+10	1	-1E+10	1
4902624	16	C	11/27/2024	23:35	-127.594	47.041	0	701.80	0	4.2410	0	34.2713	0	27.187	0	694.795	0	8.6	4	2.7	4	-1E+10	1	0.0581	4	0.000189	0	-1E+10	1	-1E+10	1	-1E+10	1
4902624	16	C	11/27/2024	23:35	-127.594	47.041	0	705.20	0	4.2350	0	34.2730	0	27.189	0	698.156	0	-1e10	1	-1e10	1	-1E+10	1	-1e10	1	-1e10	1	-1E+10	1	-1E+10	1	-1E+10	1
4902624	16	C	11/27/2024	23:35	-127.594	47.041	0	710.50	0	4.2211	0	34.2762	0	27.193	0	703.394	0	8.5	4	2.7	4	-1E+10	1	0.0508	4	0.000188	0	-1E+10	1	-1E+10	1	-1E+10	1
4902624	16	C	11/27/2024	23:35	-127.594	47.041	0	715.10	0	4.2090	0	34.2790	0	27.197	0	707.940	0	-1e10	1	-1e10	1	-1E+10	1	-1e10	1	-1e10	1	-1E+10	1	-1E+10	1	-1E+10	1
4902624	16	C	11/27/2024	23:35	-127.594	47.041	0	719.30	0	4.1954	0	34.2811	0	27.200	0	712.091	0	8.3	4	2.6	4	-1E+10	1	0.0441	4	0.000166	0	-1E+10	1	-1E+10	1	-1E+10	1
4902624	16	C	11/27/2024	23:35	-127.594	47.041	0	725.00	0	4.1770	0	34.2840	0	27.204	0	717.724	0	-1e10	1	-1e10	1	-1E+10	1	-1e10	1	-1e10	1	-1E+10	1	-1E+10	1	-1E+10	1
4902624	16	C	11/27/2024	23:35	-127.594	47.041	0	728.00	0	4.1684	0	34.2858	0	27.206	0	720.689	0	8.2	4	2.6	4	-1E+10	1	0.0514	4	0.000177	0	-1E+10	1	-1E+10	1	-1E+10	1
4902624	16	C	11/27/2024	23:35	-127.594	47.041	0	735.10	0	4.1480	0	34.2900	0	27.212	0	727.705	0	-1e10	1	-1e10	1	-1E+10	1	-1e10	1	-1e10	1	-1E+10	1	-1E+10	1	-1E+10	1
4902624	16	C	11/27/2024	23:35	-127.594	47.041	0	736.80	0	4.1435	0	34.2907	0	27.213	0	729.385	0	8.1	4	2.6	4	-1E+10	1	0.0584	4	0.000166	0	-1E+10	1	-1E+10	1	-1E+10	1
4902624	16	C	11/27/2024	23:35	-127.594	47.041	0	745.20	0	4.1210	0	34.2940	0	27.218	0	737.686	0	-1e10	1	-1e10	1	-1E+10	1	-1e10	1	-1e10	1	-1E+10	1	-1E+10	1	-1E+10	1
4902624	16	C	11/27/2024	23:35	-127.594	47.041	0	745.70	0	4.1204	0	34.2942	0	27.218	0	738.180	0	8.0	4	2.6	4	-1E+10	1	0.0574	4	0.000166	0	-1E+10	1	-1E+10	1	-1E+10	1
4902624	16	C	11/27/2024	23:35	-127.594	47.041	0	754.60	0	4.1106	0	34.2978	0	27.222	0	746.974	0	8.0	4	2.5	4	-1E+10	1	0.0375	4	0.000178	0	-1E+10	1	-1E+10	1	-1E+10	1
4902624	16	C	11/27/2024	23:35	-127.594	47.041	0	755.10	0	4.1100	0	34.2980	0	27.222	0	747.468	0	-1e10	1	-1e10	1	-1E+10	1	-1e10	1	-1e10	1	-1E+10	1	-1E+10	1	-1E+10	1
4902624	16	C	11/27/2024	23:35	-127.594	47.041	0	763.50	0	4.0611	0	34.3006	0	27.229	0	755.768	0	8.1	4	2.6	4	-1E+10	1	0.0586	4	0.000189	0	-1E+10	1	-1E+10	1	-1E+10	1
4902624	16	C	11/27/2024	23:35	-127.594	47.041	0	764.90	0	4.0530	0	34.3010	0	27.231	0	757.151	0	-1e10	1	-1e10	1	-1E+10	1	-1e10	1	-1e10	1	-1E+10	1	-1E+10	1	-1E+10	1
4902624	16	C	11/27/2024	23:35	-127.594	47.041	0	772.40	0	4.0081	0	34.3003	0	27.235	0	764.562	0	8.1	4	2.6	4	-1E+10	1	0.0654	4	0.000188	0	-1E+10	1	-1E+10	1	-1E+10	1
4902624	16	C	11/27/2024	23:35	-127.594	47.041	0	775.10	0	3.9920	0	34.3000	0	27.236	0	767.229	0	-1e10	1	-1e10	1	-1E+10	1	-1e10	1	-1e10	1	-1E+10	1	-1E+10	1	-1E+10	1
4902624	16	C	11/27/2024	23:35	-127.594	47.041	0	781.40	0	3.9970	0	34.3069	0	27.241	0	773.454	0	7.9	4	2.5	4	-1E+10	1	0.0584	4	0.000166	0	-1E+10	1	-1E+10	1	-1E+10	1
4902624	16	C	11/27/2024	23:35	-127.594	47.041	0	785.10	0	4.0000	0	34.3110	0	27.244	0	777.109	0	-1e10	1	-1e10	1	-1E+10	1	-1e10	1	-1e10	1	-1E+10	1	-1E+10	1	-1E+10	1
4902624	16	C	11/27/2024	23:35	-127.594	47.041	0	790.50	0	3.9861	0	34.3132	0	27.247	0	782.444	0	7.8	4	2.5	4	-1E+10	1	0.0578	4	0.000188	0	-1E+10	1	-1E+10	1	-1E+10	1
4902624	16	C	11/27/2024	23:35	-127.594	47.041	0	794.80	0	3.9750	0	34.3150	0	27.250	0	786.692	0	-1e10	1	-1e10	1	-1E+10	1	-1e10	1	-1e10	1	-1E+10	1	-1E+10	1	-1E+10	1
4902624	16	C	11/27/2024	23:35	-127.594	47.041	0	799.50	0	3.9247	0	34.3136	0	27.254	0	791.335	0	8.0	4	2.5	4	-1E+10	1	0.0447	4	0.000187	0	-1E+10	1	-1E+10	1	-1E+10	1
4902624	16	C	11/27/2024	23:35	-127.594	47.041	0	804.80	0	3.8680	0	34.3120	0	27.258	0	796.571	0	-1e10	1	-1e10	1	-1E+10	1	-1e10	1	-1e10	1	-1E+10	1	-1E+10	1	-1E+10	1
4902624	16	C	11/27/2024	23:35	-127.594	47.041	0	808.80	0	3.8600	0	34.3136	0	27.260	0	800.522	0	7.9	4	2.5	4	-1E+10	1	0.0651	4	0.000152	0	-1E+10	1	-1E+10	1	-1E+10	1
4902624	16	C	11/27/2024	23:35	-127.594	47.041	0	814.80	0	3.8480	0	34.3160	0	27.264	0	806.449	0	-1e10	1	-1e10	1	-1E+10	1	-1e10	1	-1e10	1	-1E+10	1	-1E+10	1	-1E+10	1
4902624	16	C	11/27/2024	23:35	-127.594	47.041	0	818.40	0	3.8455	0	34.3182	0	27.266	0	810.006	0	7.8	4	2.5	4	-1E+10	1	0.0513	4	0.000130	0	-1E+10	1	-1E+10	1	-1E+10	1
4902624	16	C	11/27/2024	23:35	-127.594	47.041	0	824.70	0	3.8410	0	34.3220	0	27.269	0	816.229	0	-1e10	1	-1e10	1	-1E+10	1	-1e10	1	-1e10	1	-1E+10	1	-1E+10	1	-1E+10	1
4902624	16	C	11/27/2024	23:35	-127.594	47.041	0	828.30	0	3.8328	0	34.3238	0	27.271	0	819.785	0	16.6	4	5.2	4	-1E+10	1	0.0581	4	0.000141	0	-1E+10	1	-1E+10	1	-1E+10	1
4902624	16	C	11/27/2024	23:35	-127.594	47.041	0	834.80	0	3.8180	0	34.3270	0	27.276	0	826.205	0	-1e10	1	-1e10	1	-1E+10	1	-1e10	1	-1e10	1	-1E+10	1	-1E+10	1	-1E+10	1
4902624	16	C	11/27/2024	23:35	-127.594	47.041	0	838.40	0	3.8079	0	34.3291	0	27.278	0	829.761	0	7.8	4	2.4	4	-1E+10	1	0.0511	4	0.000130	0	-1E+10	1	-1E+10	1	-1E+10	1
4902624	16	C	11/27/2024	23:35	-127.594	47.041	0	845.10	0	3.7890	0	34.3330	0	27.283	0	836.378	0	-1e10	1	-1e10	1	-1E+10	1	-1e10	1	-1e10	1	-1E+10	1	-1E+10	1	-1E+10	1
4902624	16	C	11/27/2024	23:35	-127.594	47.041	0	848.70	0	3.7858	0	34.3359	0	27.286	0	839.934	0	7.7	4	2.4	4	-1E+10	1	0.0517	4	0.000152	0	-1E+10	1	-1E+10	1	-1E+10	1
4902624	16	C	11/27/2024	23:35	-127.594	47.041	0	855.10	0	3.7800	0	34.3410	0	27.291	0	846.255	0	-1e10	1	-1e10	1	-1E+10	1	-1e10	1	-1e10	1	-1E+10	1	-1E+10	1	-1E+10	1
4902624	16	C	11/27/2024	23:35	-127.594	47.041	0	859.30	0	3.7729	0	34.3427	0	27.293	0	850.403	0	7.8	4	2.5	4	-1E+10	1	0.0657	4	0.000141	0	-1E+10	1	-1E+10	1	-1E+10	1
4902624	16	C	11/27/2024	23:35	-127.594	47.041	0	865.20	0	3.7630	0	34.3450	0	27.296	0	856.230	0	-1e10	1	-1e10	1	-1E+10	1	-1e10	1	-1e10	1	-1E+10	1	-1E+10	1	-1E+10	1
4902624	16	C	11/27/2024	23:35	-127.594	47.041	0	870.40	0	3.7510	0	34.3481	0	27.299	0	861.365	0	7.8	4	2.5	4	-1E+10	1	0.0654	4	0.000153	0	-1E+10	1	-1E+10	1	-1E+10	1
4902624	16	C	11/27/2024	23:35	-127.594	47.041	0	875.20	0	3.7400	0	34.3510	0	27.303	0	866.105	0	-1e10	1	-1e10	1	-1E+10	1	-1e10	1	-1e10	1	-1E+10	1	-1E+10	1	-1E+10	1
4902624	16	C	11/27/2024	23:35	-127.594	47.041	0	881.80	0	3.7235	0	34.3538	0	27.307	0	872.623	0	9.6	4	3.0	4	-1E+10	1	0.0582	4	0.000164	0	-1E+10	1	-1E+10	1	-1E+10	1
4902624	16	C	11/27/2024	23:35	-127.594	47.041	0	884.80	0	3.7160	0	34.3550	0	27.308	0	875.585	0	-1e10	1	-1e10	1	-1E+10	1	-1e10	1	-1e10	1	-1E+10	1	-1E+10	1	-1E+10	1
4902624	16	C	11/27/2024	23:35	-127.594	47.041	0	893.50	0	3.7061	0	34.3608	0	27.314	0	884.176	0	7.9	4	2.5	4	-1E+10	1	0.0511	4	0.000163	0	-1E+10	1	-1E+10	1	-1E+10	1
4902624	16	C	11/27/2024	23:35	-127.594	47.041	0	895.30	0	3.7040	0	34.3620	0	27.315	0	885.954	0	-1e10	1	-1e10	1	-1E+10	1	-1e10	1	-1e10	1	-1E+10	1	-1E+10	1	-1E+10	1
4902624	16	C	11/27/2024	23:35	-127.594	47.041	0	905.30	0	3.6570	0	34.3640	0	27.321	0	895.828	0	-1e10	1	-1e10	1	-1E+10	1	-1e10	1	-1e10	1	-1E+10	1	-1E+10	1	-1E+10	1
4902624	16	C	11/27/2024	23:35	-127.594	47.041	0	905.40	0	3.6566	0	34.3640	0	27.321	0	895.927	0	40.1	8	12.6	8	-1E+10	1	0.0520	4	0.000140	0	-1E+10	1	-1E+10	1	-1E+10	1
4902624	16	C	11/27/2024	23:35	-127.594	47.041	0	913.40	0	3.6218	0	34.3648	0	27.326	0	903.826	0	11.6	8	3.6	8	-1E+10	1	0.0651	4	0.000140	0	-1E+10	1	-1E+10	1	-1E+10	1
4902624	16	C	11/27/2024	23:35	-127.594	47.041	0	915.20	0	3.6140	0	34.3650	0	27.327	0	905.603	0	-1e10	1	-1e10	1	-1E+10	1	-1e10	1	-1e10	1	-1E+10	1	-1E+10	1	-1E+10	1
4902624	16	C	11/27/2024	23:35	-127.594	47.041	0	921.30	0	3.5939	0	34.3674	0	27.330	0	911.626	0	48.2	4	15.1	4	-1E+10	1	0.0508	4	0.000141	0	-1E+10	1	-1E+10	1	-1E+10	1
4902624	16	C	11/27/2024	23:35	-127.594	47.041	0	925.20	0	3.5810	0	34.3690	0	27.333	0	915.476	0	-1e10	1	-1e10	1	-1E+10	1	-1e10	1	-1e10	1	-1E+10	1	-1E+10	1	-1E+10	1
4902624	16	C	11/27/2024	23:35	-127.594	47.041	0	929.40	0	3.5806	0	34.3724	0	27.336	0	919.623	0	60.6	4	19.0	4	-1E+10	1	0.0445	4	0.000164	0	-1E+10	1	-1E+10	1	-1E+10	1
4902624	16	C	11/27/2024	23:35	-127.594	47.041	0	935.10	0	3.5800	0	34.3770	0	27.340	0	925.250	0	-1e10	1	-1e10	1	-1E+10	1	-1e10	1	-1e10	1	-1E+10	1	-1E+10	1	-1E+10	1
4902624	16	C	11/27/2024	23:35	-127.594	47.041	0	937.70	0	3.5824	0	34.3794	0	27.341	0	927.817	0	62.8	4	19.7	4	-1E+10	1	0.0574	4	0.000173	0	-1E+10	1	-1E+10	1	-1E+10	1
4902624	16	C	11/27/2024	23:35	-127.594	47.041	0	945.00	0	3.5890	0	34.3860	0	27.346	0	935.024	0	-1e10	1	-1e10	1	-1E+10	1	-1e10	1	-1e10	1	-1E+10	1	-1E+10	1	-1E+10	1
4902624	16	C	11/27/2024	23:35	-127.594	47.041	0	946.00	0	3.5862	0	34.3864	0	27.346	0	936.011	0	63.6	4	19.9	4	-1E+10	1	0.0370	4	0.000130	0	-1E+10	1	-1E+10	1	-1E+10	1
4902624	16	C	11/27/2024	23:35	-127.594	47.041	0	954.60	0	3.5626	0	34.3899	0	27.352	0	944.501	0	47.3	4	14.8	4	-1E+10	1	0.0513	4	0.000186	0	-1E+10	1	-1E+10	1	-1E+10	1
4902624	16	C	11/27/2024	23:35	-127.594	47.041	0	954.80	0	3.5620	0	34.3900	0	27.352	0	944.698	0	-1e10	1	-1e10	1	-1E+10	1	-1e10	1	-1e10	1	-1E+10	1	-1E+10	1	-1E+10	1
4902624	16	C	11/27/2024	23:35	-127.594	47.041	0	963.40	0	3.5629	0	34.3960	0	27.356	0	953.188	0	46.3	4	14.5	4	-1E+10	1	0.0586	4	0.000163	0	-1E+10	1	-1E+10	1	-1E+10	1
4902624	16	C	11/27/2024	23:35	-127.594	47.041	0	964.90	0	3.5630	0	34.3970	0	27.357	0	954.669	0	-1e10	1	-1e10	1	-1E+10	1	-1e10	1	-1e10	1	-1E+10	1	-1E+10	1	-1E+10	1
4902624	16	C	11/27/2024	23:35	-127.594	47.041	0	972.30	0	3.5117	0	34.3948	0	27.361	0	961.973	0	44.0	4	13.7	4	-1E+10	1	0.0652	4	0.000151	0	-1E+10	1	-1E+10	1	-1E+10	1
4902624	16	C	11/27/2024	23:35	-127.594	47.041	0	975.00	0	3.4930	0	34.3940	0	27.362	0	964.638	0	-1e10	1	-1e10	1	-1E+10	1	-1e10	1	-1e10	1	-1E+10	1	-1E+10	1	-1E+10	1
4902624	16	C	11/27/2024	23:35	-127.594	47.041	0	981.30	0	3.4656	0	34.3946	0	27.365	0	970.857	0	38.7	4	12.1	4	-1E+10	1	0.0521	4	0.000139	0	-1E+10	1	-1E+10	1	-1E+10	1
4902624	16	C	11/27/2024	23:35	-127.594	47.041	0	985.10	0	3.4490	0	34.3950	0	27.367	0	974.607	0	-1e10	1	-1e10	1	-1E+10	1	-1e10	1	-1e10	1	-1E+10	1	-1E+10	1	-1E+10	1
4902624	16	C	11/27/2024	23:35	-127.594	47.041	0	990.50	0	3.4315	0	34.3966	0	27.370	0	979.937	0	47.3	4	14.8	4	-1E+10	1	0.0724	4	0.000128	0	-1E+10	1	-1E+10	1	-1E+10	1
4902624	16	C	11/27/2024	23:35	-127.594	47.041	0	995.00	0	3.4170	0	34.3980	0	27.372	0	984.379	0	-1e10	1	-1e10	1	-1E+10	1	-1e10	1	-1e10	1	-1E+10	1	-1E+10	1	-1E+10	1
4902624	16	C	11/27/2024	23:35	-127.594	47.041	0	999.90	0	3.4075	0	34.3995	0	27.374	0	989.215	0	15.5	8	4.8	8	-1E+10	1	0.0584	4	0.000140	0	-1E+10	1	-1E+10	1	-1E+10	1
4902624	16	C	11/27/2024	23:35	-127.594	47.041	0	1018.80	0	3.3707	0	34.4052	0	27.383	0	1007.868	0	55.1	4	17.2	4	-1E+10	1	0.0585	4	0.000139	0	-1E+10	1	-1E+10	1	-1E+10	1
4902624	16	C	11/27/2024	23:35	-127.594	47.041	0	1024.80	0	3.3590	0	34.4070	0	27.385	0	1013.789	0	-1e10	1	-1e10	1	-1E+10	1	-1e10	1	-1e10	1	-1E+10	1	-1E+10	1	-1E+10	1
4902624	16	C	11/27/2024	23:35	-127.594	47.041	0	1038.20	0	3.3313	0	34.4121	0	27.392	0	1027.012	0	57.9	4	18.0	4	-1E+10	1	0.0655	4	0.000105	0	-1E+10	1	-1E+10	1	-1E+10	1
4902624	16	C	11/27/2024	23:35	-127.594	47.041	0	1058.40	0	3.2897	0	34.4197	0	27.402	0	1046.944	0	58.0	4	18.0	4	-1E+10	1	0.0583	4	0.000127	0	-1E+10	1	-1E+10	1	-1E+10	1
4902624	16	C	11/27/2024	23:35	-127.594	47.041	0	1075.20	0	3.2550	0	34.4260	0	27.410	0	1063.519	0	-1e10	1	-1e10	1	-1E+10	1	-1e10	1	-1e10	1	-1E+10	1	-1E+10	1	-1E+10	1
4902624	16	C	11/27/2024	23:35	-127.594	47.041	0	1079.60	0	3.2449	0	34.4272	0	27.412	0	1067.860	0	31.5	4	9.8	4	-1E+10	1	0.0510	4	0.000139	0	-1E+10	1	-1E+10	1	-1E+10	1
4902624	16	C	11/27/2024	23:35	-127.594	47.041	0	1102.00	0	3.1934	0	34.4336	0	27.422	0	1089.959	0	52.4	4	16.3	4	-1E+10	1	0.0443	4	0.000127	0	-1E+10	1	-1E+10	1	-1E+10	1
4902624	16	C	11/27/2024	23:35	-127.594	47.041	0	1124.80	0	3.1410	0	34.4400	0	27.432	0	1112.449	0	-1e10	1	-1e10	1	-1E+10	1	-1e10	1	-1e10	1	-1E+10	1	-1E+10	1	-1E+10	1
4902624	16	C	11/27/2024	23:35	-127.594	47.041	0	1125.20	0	3.1401	0	34.4401	0	27.433	0	1112.844	0	54.2	4	16.8	4	-1E+10	1	0.0657	4	0.000138	0	-1E+10	1	-1E+10	1	-1E+10	1
4902624	16	C	11/27/2024	23:35	-127.594	47.041	0	1148.70	0	3.0887	0	34.4461	0	27.442	0	1136.022	0	50.2	4	15.5	4	-1E+10	1	0.0655	4	0.000115	0	-1E+10	1	-1E+10	1	-1E+10	1
4902624	16	C	11/27/2024	23:35	-127.594	47.041	0	1172.60	0	3.0363	0	34.4523	0	27.452	0	1159.592	0	59.2	4	18.3	4	-1E+10	1	0.0584	4	0.000126	0	-1E+10	1	-1E+10	1	-1E+10	1
4902624	16	C	11/27/2024	23:35	-127.594	47.041	0	1175.50	0	3.0300	0	34.4530	0	27.453	0	1162.452	0	-1e10	1	-1e10	1	-1E+10	1	-1e10	1	-1e10	1	-1E+10	1	-1E+10	1	-1E+10	1
4902624	16	C	11/27/2024	23:35	-127.594	47.041	0	1190.90	0	3.0025	0	34.4564	0	27.458	0	1177.638	0	62.3	4	19.2	4	-1E+10	1	0.0581	4	0.000126	0	-1E+10	1	-1E+10	1	-1E+10	1
4902624	16	C	11/27/2024	23:35	-127.594	47.041	0	1207.10	0	2.9736	0	34.4601	0	27.464	0	1193.612	0	63.0	4	19.4	4	-1E+10	1	0.0440	4	0.000137	0	-1E+10	1	-1E+10	1	-1E+10	1
4902624	16	C	11/27/2024	23:35	-127.594	47.041	0	1223.70	0	2.9440	0	34.4638	0	27.470	0	1209.979	0	67.5	4	20.8	4	-1E+10	1	0.0512	4	0.000126	0	-1E+10	1	-1E+10	1	-1E+10	1
4902624	16	C	11/27/2024	23:35	-127.594	47.041	0	1224.80	0	2.9420	0	34.4640	0	27.470	0	1211.063	0	-1e10	1	-1e10	1	-1E+10	1	-1e10	1	-1e10	1	-1E+10	1	-1E+10	1	-1E+10	1
4902624	16	C	11/27/2024	23:35	-127.594	47.041	0	1240.90	0	2.9098	0	34.4679	0	27.476	0	1226.936	0	71.2	4	21.9	4	-1E+10	1	0.0585	4	0.000137	0	-1E+10	1	-1E+10	1	-1E+10	1
4902624	16	C	11/27/2024	23:35	-127.594	47.041	0	1258.80	0	2.8740	0	34.4722	0	27.483	0	1244.581	0	70.4	4	21.7	4	-1E+10	1	0.0655	4	0.000137	0	-1E+10	1	-1E+10	1	-1E+10	1
4902624	16	C	11/27/2024	23:35	-127.594	47.041	0	1274.80	0	2.8420	0	34.4760	0	27.489	0	1260.353	0	-1e10	1	-1e10	1	-1E+10	1	-1e10	1	-1e10	1	-1E+10	1	-1E+10	1	-1E+10	1
4902624	16	C	11/27/2024	23:35	-127.594	47.041	0	1277.10	0	2.8372	0	34.4766	0	27.490	0	1262.620	0	68.2	4	21.0	4	-1E+10	1	0.0513	4	0.000125	0	-1E+10	1	-1E+10	1	-1E+10	1
4902624	16	C	11/27/2024	23:35	-127.594	47.041	0	1296.10	0	2.7978	0	34.4811	0	27.497	0	1281.347	0	66.6	4	20.5	4	-1E+10	1	0.0587	4	0.000125	0	-1E+10	1	-1E+10	1	-1E+10	1
4902624	16	C	11/27/2024	23:35	-127.594	47.041	0	1315.50	0	2.7575	0	34.4857	0	27.504	0	1300.466	0	65.5	4	20.1	4	-1E+10	1	0.0729	4	0.000125	0	-1E+10	1	-1E+10	1	-1E+10	1
4902624	16	C	11/27/2024	23:35	-127.594	47.041	0	1324.90	0	2.7380	0	34.4880	0	27.508	0	1309.729	0	-1e10	1	-1e10	1	-1E+10	1	-1e10	1	-1e10	1	-1E+10	1	-1E+10	1	-1E+10	1
4902624	16	C	11/27/2024	23:35	-127.594	47.041	0	1335.80	0	2.7202	0	34.4904	0	27.511	0	1320.470	0	65.6	4	20.1	4	-1E+10	1	0.0656	4	0.000124	0	-1E+10	1	-1E+10	1	-1E+10	1
4902624	16	C	11/27/2024	23:35	-127.594	47.041	0	1356.80	0	2.6858	0	34.4950	0	27.518	0	1341.163	0	65.3	4	20.0	4	-1E+10	1	0.0580	4	0.000124	0	-1E+10	1	-1E+10	1	-1E+10	1
4902624	16	C	11/27/2024	23:35	-127.594	47.041	0	1375.00	0	2.6560	0	34.4990	0	27.524	0	1359.094	0	-1e10	1	-1e10	1	-1E+10	1	-1e10	1	-1e10	1	-1E+10	1	-1E+10	1	-1E+10	1
4902624	16	C	11/27/2024	23:35	-127.594	47.041	0	1378.70	0	2.6498	0	34.4997	0	27.525	0	1362.739	0	68.2	4	20.9	4	-1E+10	1	0.0367	4	0.000113	0	-1E+10	1	-1E+10	1	-1E+10	1
4902624	16	C	11/27/2024	23:35	-127.594	47.041	0	1401.40	0	2.6117	0	34.5037	0	27.532	0	1385.102	0	70.3	4	21.5	4	-1E+10	1	0.0436	4	0.000148	0	-1E+10	1	-1E+10	1	-1E+10	1
4902624	16	C	11/27/2024	23:35	-127.594	47.041	0	1424.20	0	2.5735	0	34.5077	0	27.538	0	1407.561	0	71.9	4	22.0	4	-1E+10	1	0.0370	4	0.000687	0	-1E+10	1	-1E+10	1	-1E+10	1
4902624	16	C	11/27/2024	23:35	-127.594	47.041	0	1425.70	0	2.5710	0	34.5080	0	27.539	0	1409.038	0	-1e10	1	-1e10	1	-1E+10	1	-1e10	1	-1e10	1	-1E+10	1	-1E+10	1	-1E+10	1
4902624	16	C	11/27/2024	23:35	-127.594	47.041	0	1440.60	0	2.5486	0	34.5108	0	27.543	0	1423.714	0	72.8	4	22.2	4	-1E+10	1	0.0652	4	0.000112	0	-1E+10	1	-1E+10	1	-1E+10	1
4902624	16	C	11/27/2024	23:35	-127.594	47.041	0	1458.00	0	2.5225	0	34.5140	0	27.548	0	1440.851	0	77.8	4	23.7	4	-1E+10	1	0.0440	4	0.000125	0	-1E+10	1	-1E+10	1	-1E+10	1
4902624	16	C	11/27/2024	23:35	-127.594	47.041	0	1474.30	0	2.4980	0	34.5170	0	27.552	0	1456.903	0	-1e10	1	-1e10	1	-1E+10	1	-1e10	1	-1e10	1	-1E+10	1	-1E+10	1	-1E+10	1
4902624	16	C	11/27/2024	23:35	-127.594	47.041	0	1476.30	0	2.4954	0	34.5174	0	27.553	0	1458.872	0	86.0	4	26.2	4	-1E+10	1	0.0509	4	0.000192	0	-1E+10	1	-1E+10	1	-1E+10	1
4902624	16	C	11/27/2024	23:35	-127.594	47.041	0	1495.70	0	2.4706	0	34.5212	0	27.558	0	1477.976	0	90.2	4	27.5	4	-1E+10	1	0.0442	4	0.000134	0	-1E+10	1	-1E+10	1	-1E+10	1
4902624	16	C	11/27/2024	23:35	-127.594	47.041	0	1516.10	0	2.4444	0	34.5252	0	27.564	0	1498.062	0	93.3	4	28.4	4	-1E+10	1	0.0654	4	0.000122	0	-1E+10	1	-1E+10	1	-1E+10	1
4902624	16	C	11/27/2024	23:35	-127.594	47.041	0	1525.00	0	2.4330	0	34.5270	0	27.566	0	1506.824	0	-1e10	1	-1e10	1	-1E+10	1	-1e10	1	-1e10	1	-1E+10	1	-1E+10	1	-1E+10	1
4902624	16	C	11/27/2024	23:35	-127.594	47.041	0	1537.40	0	2.4178	0	34.5287	0	27.569	0	1519.032	0	99.5	4	30.3	4	-1E+10	1	0.0513	4	0.000111	0	-1E+10	1	-1E+10	1	-1E+10	1
4902624	16	C	11/27/2024	23:35	-127.594	47.041	0	1559.40	0	2.3909	0	34.5318	0	27.574	0	1540.689	0	89.2	4	27.2	4	-1E+10	1	0.0582	4	0.000122	0	-1E+10	1	-1E+10	1	-1E+10	1
4902624	16	C	11/27/2024	23:35	-127.594	47.041	0	1574.80	0	2.3720	0	34.5340	0	27.577	0	1555.847	0	-1e10	1	-1e10	1	-1E+10	1	-1e10	1	-1e10	1	-1E+10	1	-1E+10	1	-1E+10	1
4902624	16	C	11/27/2024	23:35	-127.594	47.041	0	1582.20	0	2.3621	0	34.5353	0	27.579	0	1563.131	0	99.1	4	30.2	4	-1E+10	1	0.0510	4	0.000132	0	-1E+10	1	-1E+10	1	-1E+10	1
4902624	16	C	11/27/2024	23:35	-127.594	47.041	0	1605.60	0	2.3308	0	34.5395	0	27.585	0	1586.161	0	101.2	4	30.7	4	-1E+10	1	0.0440	4	0.001385	0	-1E+10	1	-1E+10	1	-1E+10	1
4902624	16	C	11/27/2024	23:35	-127.594	47.041	0	1625.60	0	2.3040	0	34.5430	0	27.590	0	1605.843	0	-1e10	1	-1e10	1	-1E+10	1	-1e10	1	-1e10	1	-1E+10	1	-1E+10	1	-1E+10	1
4902624	16	C	11/27/2024	23:35	-127.594	47.041	0	1629.60	0	2.2994	0	34.5436	0	27.591	0	1609.780	0	101.0	4	30.7	4	-1E+10	1	0.0510	4	0.000110	0	-1E+10	1	-1E+10	1	-1E+10	1
4902624	16	C	11/27/2024	23:35	-127.594	47.041	0	1654.10	0	2.2711	0	34.5470	0	27.596	0	1633.887	0	98.2	4	29.8	4	-1E+10	1	0.0440	4	0.000121	0	-1E+10	1	-1E+10	1	-1E+10	1
4902624	16	C	11/27/2024	23:35	-127.594	47.041	0	1673.10	0	2.2492	0	34.5497	0	27.600	0	1652.581	0	97.4	4	29.5	4	-1E+10	1	0.0514	4	0.000121	0	-1E+10	1	-1E+10	1	-1E+10	1
4902624	16	C	11/27/2024	23:35	-127.594	47.041	0	1675.00	0	2.2470	0	34.5500	0	27.600	0	1654.450	0	-1e10	1	-1e10	1	-1E+10	1	-1e10	1	-1e10	1	-1E+10	1	-1E+10	1	-1E+10	1
4902624	16	C	11/27/2024	23:35	-127.594	47.041	0	1689.90	0	2.2276	0	34.5530	0	27.605	0	1669.109	0	90.8	4	27.5	4	-1E+10	1	0.0653	4	0.000110	0	-1E+10	1	-1E+10	1	-1E+10	1
4902624	16	C	11/27/2024	23:35	-127.594	47.041	0	1707.00	0	2.2052	0	34.5564	0	27.609	0	1685.931	0	97.4	4	29.5	4	-1E+10	1	0.0441	4	0.000155	0	-1E+10	1	-1E+10	1	-1E+10	1
4902624	16	C	11/27/2024	23:35	-127.594	47.041	0	1724.60	0	2.1823	0	34.5600	0	27.614	0	1703.243	0	105.0	4	31.8	4	-1E+10	1	0.0582	4	0.000120	0	-1E+10	1	-1E+10	1	-1E+10	1
4902624	16	C	11/27/2024	23:35	-127.594	47.041	0	1724.80	0	2.1820	0	34.5600	0	27.614	0	1703.439	0	-1e10	1	-1e10	1	-1E+10	1	-1e10	1	-1e10	1	-1E+10	1	-1E+10	1	-1E+10	1
4902624	16	C	11/27/2024	23:35	-127.594	47.041	0	1742.50	0	2.1611	0	34.5632	0	27.618	0	1720.848	0	114.0	4	34.5	4	-1E+10	1	0.0509	4	0.000108	0	-1E+10	1	-1E+10	1	-1E+10	1
4902624	16	C	11/27/2024	23:35	-127.594	47.041	0	1761.30	0	2.1388	0	34.5666	0	27.623	0	1739.338	0	120.8	4	36.6	4	-1E+10	1	0.0370	4	0.000108	0	-1E+10	1	-1E+10	1	-1E+10	1
4902624	16	C	11/27/2024	23:35	-127.594	47.041	0	1774.70	0	2.1230	0	34.5690	0	27.626	0	1752.515	0	-1e10	1	-1e10	1	-1E+10	1	-1e10	1	-1e10	1	-1E+10	1	-1E+10	1	-1E+10	1
4902624	16	C	11/27/2024	23:35	-127.594	47.041	0	1780.50	0	2.1170	0	34.5698	0	27.627	0	1758.219	0	124.1	4	37.5	4	-1E+10	1	0.0580	4	0.000108	0	-1E+10	1	-1E+10	1	-1E+10	1
4902624	16	C	11/27/2024	23:35	-127.594	47.041	0	1800.10	0	2.0966	0	34.5726	0	27.631	0	1777.492	0	126.2	4	38.1	4	-1E+10	1	0.0366	4	0.000119	0	-1E+10	1	-1E+10	1	-1E+10	1
4902624	16	C	11/27/2024	23:35	-127.594	47.041	0	1820.30	0	2.0756	0	34.5754	0	27.635	0	1797.353	0	127.9	4	38.6	4	-1E+10	1	0.0439	4	0.000119	0	-1E+10	1	-1E+10	1	-1E+10	1
4902624	16	C	11/27/2024	23:35	-127.594	47.041	0	1824.70	0	2.0710	0	34.5760	0	27.636	0	1801.679	0	-1e10	1	-1e10	1	-1E+10	1	-1e10	1	-1e10	1	-1E+10	1	-1E+10	1	-1E+10	1
4902624	16	C	11/27/2024	23:35	-127.594	47.041	0	1840.80	0	2.0544	0	34.5789	0	27.640	0	1817.507	0	130.2	4	39.3	4	-1E+10	1	0.0508	4	0.000119	0	-1E+10	1	-1E+10	1	-1E+10	1
4902624	16	C	11/27/2024	23:35	-127.594	47.041	0	1861.90	0	2.0326	0	34.5826	0	27.645	0	1838.249	0	132.0	4	39.8	4	-1E+10	1	0.0368	4	0.000107	0	-1E+10	1	-1E+10	1	-1E+10	1
4902624	16	C	11/27/2024	23:35	-127.594	47.041	0	1875.10	0	2.0190	0	34.5850	0	27.648	0	1851.223	0	-1e10	1	-1e10	1	-1E+10	1	-1e10	1	-1e10	1	-1E+10	1	-1E+10	1	-1E+10	1
4902624	16	C	11/27/2024	23:35	-127.594	47.041	0	1883.70	0	2.0107	0	34.5864	0	27.649	0	1859.676	0	133.7	4	40.3	4	-1E+10	1	0.0507	4	0.000107	0	-1E+10	1	-1E+10	1	-1E+10	1
4902624	16	C	11/27/2024	23:35	-127.594	47.041	0	1905.60	0	1.9896	0	34.5898	0	27.654	0	1881.200	0	135.7	4	40.9	4	-1E+10	1	0.0298	4	0.000129	0	-1E+10	1	-1E+10	1	-1E+10	1
4902624	16	C	11/27/2024	23:35	-127.594	47.041	0	1924.70	0	1.9712	0	34.5928	0	27.658	0	1899.970	0	136.3	4	41.1	4	-1E+10	1	0.0583	4	0.000106	0	-1E+10	1	-1E+10	1	-1E+10	1
4902624	16	C	11/27/2024	23:35	-127.594	47.041	0	1925.90	0	1.9700	0	34.5930	0	27.658	0	1901.150	0	-1e10	1	-1e10	1	-1E+10	1	-1e10	1	-1e10	1	-1E+10	1	-1E+10	1	-1E+10	1
4902624	16	C	11/27/2024	23:35	-127.594	47.041	0	1940.90	0	1.9603	0	34.5947	0	27.660	0	1915.890	0	136.2	4	41.0	4	-1E+10	1	0.0511	4	0.000106	0	-1E+10	1	-1E+10	1	-1E+10	1
4902624	16	C	11/27/2024	23:35	-127.594	47.041	0	1958.10	0	1.9492	0	34.5966	0	27.663	0	1932.790	0	135.5	4	40.8	4	-1E+10	1	0.0509	4	0.000108	0	-1E+10	1	-1E+10	1	-1E+10	1
4902624	16	C	11/27/2024	23:35	-127.594	47.041	0	1970.80	0	1.9410	0	34.5980	0	27.665	0	1945.268	0	-1e10	1	-1e10	1	-1E+10	1	-1e10	1	-1e10	1	-1E+10	1	-1E+10	1	-1E+10	1
4902624	16	C	11/27/2024	23:35	-127.594	47.041	0	1976.10	0	-1e10	1	-1e10	1	-1e10	1	1950.475	0	139.7	4	-1e10	4	-1E+10	1	0.0440	4	0.000193	0	-1E+10	1	-1E+10	1	-1E+10	1
4902624	16	C	11/27/2024	23:35	-127.594	47.041	0	1991.60	0	-1e10	1	-1e10	1	-1e10	1	1965.702	0	134.8	4	-1e10	4	-1E+10	1	0.0511	4	0.000113	0	-1E+10	1	-1E+10	1	-1E+10	1
4902624	16	C	11/27/2024	23:35	-127.594	47.041	0																										
4902624	17	C	12/08/2024	18:40	-127.392	46.913	0	0.00	0	10.2600	0	32.2090	0	24.730	0	0.000	0	246.2	4	88.4	4	-1E+10	1	0.3285	4	0.000903	0	-1E+10	1	-1E+10	1	-1E+10	1
4902624	17	C	12/08/2024	18:40	-127.392	46.913	0	0.20	0	10.2600	0	32.2090	0	24.730	0	0.198	0	242.9	4	87.2	4	-1E+10	1	0.1022	4	0.000188	0	-1E+10	1	-1E+10	1	-1E+10	1
4902624	17	C	12/08/2024	18:40	-127.392	46.913	0	0.40	0	10.2600	0	32.2090	0	24.730	0	0.397	0	241.6	4	86.7	4	-1E+10	1	-1e10	1	-1e10	1	-1E+10	1	-1E+10	1	-1E+10	1
4902624	17	C	12/08/2024	18:40	-127.392	46.913	0	0.50	0	10.2600	0	32.2090	0	24.730	0	0.496	0	250.8	4	90.0	4	-1E+10	1	0.0146	4	-0.000333	8	-1E+10	1	-1E+10	1	-1E+10	1
4902624	17	C	12/08/2024	18:40	-127.392	46.913	0	0.60	0	10.2602	0	32.2089	0	24.730	0	0.595	0	251.2	4	90.2	4	-1E+10	1	-1e10	1	-1e10	1	-1E+10	1	-1E+10	1	-1E+10	1
4902624	17	C	12/08/2024	18:40	-127.392	46.913	0	0.90	0	10.2608	0	32.2086	0	24.730	0	0.893	0	-1e10	1	-1e10	1	-1E+10	1	0.6497	4	0.000723	0	-1E+10	1	-1E+10	1	-1E+10	1
4902624	17	C	12/08/2024	18:40	-127.392	46.913	0	1.00	0	10.2610	0	32.2085	0	24.730	0	0.992	0	-1e10	1	-1e10	1	-1E+10	1	0.4964	4	0.001228	0	-1E+10	1	-1E+10	1	-1E+10	1
4902624	17	C	12/08/2024	18:40	-127.392	46.913	0	1.30	0	10.2616	0	32.2082	0	24.730	0	1.289	0	-1e10	1	-1e10	1	-1E+10	1	0.4380	4	0.000887	0	-1E+10	1	-1E+10	1	-1E+10	1
4902624	17	C	12/08/2024	18:40	-127.392	46.913	0	1.40	0	10.2618	0	32.2081	0	24.729	0	1.388	0	-1e10	1	-1e10	1	-1E+10	1	0.4380	4	0.000852	0	-1E+10	1	-1E+10	1	-1E+10	1
4902624	17	C	12/08/2024	18:40	-127.392	46.913	0	1.50	0	10.2620	0	32.2080	0	24.729	0	1.488	0	-1e10	1	-1e10	1	-1E+10	1	-1e10	1	-1e10	1	-1E+10	1	-1E+10	1	-1E+10	1
4902624	17	C	12/08/2024	18:40	-127.392	46.913	0	1.60	0	10.2619	0	32.2081	0	24.729	0	1.587	0	-1e10	1	-1e10	1	-1E+10	1	0.4453	4	0.000876	0	-1E+10	1	-1E+10	1	-1E+10	1
4902624	17	C	12/08/2024	18:40	-127.392	46.913	0	1.70	0	10.2618	0	32.2082	0	24.730	0	1.686	0	249.2	4	89.4	4	-1E+10	1	0.4964	4	0.000899	0	-1E+10	1	-1E+10	1	-1E+10	1
4902624	17	C	12/08/2024	18:40	-127.392	46.913	0	1.90	0	10.2616	0	32.2084	0	24.730	0	1.884	0	-1e10	1	-1e10	1	-1E+10	1	0.4891	4	0.000911	0	-1E+10	1	-1E+10	1	-1E+10	1
4902624	17	C	12/08/2024	18:40	-127.392	46.913	0	2.20	0	10.2613	0	32.2087	0	24.730	0	2.182	0	-1e10	1	-1e10	1	-1E+10	1	0.4964	4	0.001005	0	-1E+10	1	-1E+10	1	-1E+10	1
4902624	17	C	12/08/2024	18:40	-127.392	46.913	0	2.30	0	10.2612	0	32.2088	0	24.730	0	2.281	0	249.2	4	89.5	4	-1E+10	1	0.4818	4	0.000911	0	-1E+10	1	-1E+10	1	-1E+10	1
4902624	17	C	12/08/2024	18:40	-127.392	46.913	0	2.50	0	10.2610	0	32.2090	0	24.730	0	2.479	0	-1e10	1	-1e10	1	-1E+10	1	0.5037	4	0.000852	0	-1E+10	1	-1E+10	1	-1E+10	1
4902624	17	C	12/08/2024	18:40	-127.392	46.913	0	2.60	0	10.2610	0	32.2090	0	24.730	0	2.578	0	-1e10	1	-1e10	1	-1E+10	1	0.5621	4	0.000852	0	-1E+10	1	-1E+10	1	-1E+10	1
4902624	17	C	12/08/2024	18:40	-127.392	46.913	0	2.80	0	10.2610	0	32.2090	0	24.730	0	2.777	0	-1e10	1	-1e10	1	-1E+10	1	-0.1168	8	-0.000004	8	-1E+10	1	-1E+10	1	-1E+10	1
4902624	17	C	12/08/2024	18:40	-127.392	46.913	0	2.90	0	10.2610	0	32.2090	0	24.730	0	2.876	0	-1e10	1	-1e10	1	-1E+10	1	-0.0730	4	0.000864	0	-1E+10	1	-1E+10	1	-1E+10	1
4902624	17	C	12/08/2024	18:40	-127.392	46.913	0	3.20	0	10.2610	0	32.2090	0	24.730	0	3.173	0	249.2	4	89.4	4	-1E+10	1	0.7592	4	0.000043	0	-1E+10	1	-1E+10	1	-1E+10	1
4902624	17	C	12/08/2024	18:40	-127.392	46.913	0	3.40	0	10.2610	0	32.2090	0	24.730	0	3.372	0	-1e10	1	-1e10	1	-1E+10	1	0.3431	4	-0.000110	8	-1E+10	1	-1E+10	1	-1E+10	1
4902624	17	C	12/08/2024	18:40	-127.392	46.913	0	3.50	0	10.2610	0	32.2090	0	24.730	0	3.471	0	-1e10	1	-1e10	1	-1E+10	1	0.7227	4	0.000054	0	-1E+10	1	-1E+10	1	-1E+10	1
4902624	17	C	12/08/2024	18:40	-127.392	46.913	0	3.60	0	10.2610	0	32.2090	0	24.730	0	3.570	0	-1e10	1	-1e10	1	-1E+10	1	-1e10	1	-1e10	1	-1E+10	1	-1E+10	1	-1E+10	1
4902624	17	C	12/08/2024	18:40	-127.392	46.913	0	3.70	0	10.2610	0	32.2090	0	24.730	0	3.669	0	-1e10	1	-1e10	1	-1E+10	1	0.5621	4	0.001040	0	-1E+10	1	-1E+10	1	-1E+10	1
4902624	17	C	12/08/2024	18:40	-127.392	46.913	0	3.80	0	10.2610	0	32.2090	0	24.730	0	3.768	0	249.1	4	89.4	4	-1E+10	1	0.6570	4	0.000535	0	-1E+10	1	-1E+10	1	-1E+10	1
4902624	17	C	12/08/2024	18:40	-127.392	46.913	0	4.00	0	10.2610	0	32.2090	0	24.730	0	3.967	0	-1e10	1	-1e10	1	-1E+10	1	0.5548	4	0.000899	0	-1E+10	1	-1E+10	1	-1E+10	1
4902624	17	C	12/08/2024	18:40	-127.392	46.913	0	4.10	0	10.2610	0	32.2090	0	24.730	0	4.066	0	-1e10	1	-1e10	1	-1E+10	1	0.5694	4	0.001052	0	-1E+10	1	-1E+10	1	-1E+10	1
4902624	17	C	12/08/2024	18:40	-127.392	46.913	0	4.30	0	10.2610	0	32.2090	0	24.730	0	4.264	0	-1e10	1	-1e10	1	-1E+10	1	0.5475	4	0.000829	0	-1E+10	1	-1E+10	1	-1E+10	1
4902624	17	C	12/08/2024	18:40	-127.392	46.913	0	4.50	0	10.2610	0	32.2090	0	24.730	0	4.463	0	249.1	4	89.4	4	-1E+10	1	0.5183	4	0.000829	0	-1E+10	1	-1E+10	1	-1E+10	1
4902624	17	C	12/08/2024	18:40	-127.392	46.913	0	4.70	0	10.2610	0	32.2090	0	24.730	0	4.661	0	-1e10	1	-1e10	1	-1E+10	1	0.4745	4	0.000852	0	-1E+10	1	-1E+10	1	-1E+10	1
4902624	17	C	12/08/2024	18:40	-127.392	46.913	0	4.90	0	10.2610	0	32.2090	0	24.730	0	4.859	0	-1e10	1	-1e10	1	-1E+10	1	0.5110	4	0.000876	0	-1E+10	1	-1E+10	1	-1E+10	1
4902624	17	C	12/08/2024	18:40	-127.392	46.913	0	5.00	0	10.2610	0	32.2090	0	24.730	0	4.958	0	-1e10	1	-1e10	1	-1E+10	1	0.4964	4	0.000852	0	-1E+10	1	-1E+10	1	-1E+10	1
4902624	17	C	12/08/2024	18:40	-127.392	46.913	0	5.20	0	10.2610	0	32.2090	0	24.730	0	5.157	0	-1e10	1	-1e10	1	-1E+10	1	0.5110	4	0.000970	0	-1E+10	1	-1E+10	1	-1E+10	1
4902624	17	C	12/08/2024	18:40	-127.392	46.913	0	5.40	0	10.2610	0	32.2090	0	24.730	0	5.355	0	249.0	4	89.4	4	-1E+10	1	0.5256	4	0.000852	0	-1E+10	1	-1E+10	1	-1E+10	1
4902624	17	C	12/08/2024	18:40	-127.392	46.913	0	5.50	0	10.2610	0	32.2090	0	24.730	0	5.454	0	-1e10	1	-1e10	1	-1E+10	1	0.5475	4	0.000887	0	-1E+10	1	-1E+10	1	-1E+10	1
4902624	17	C	12/08/2024	18:40	-127.392	46.913	0	5.90	0	10.2610	0	32.2086	0	24.730	0	5.851	0	-1e10	1	-1e10	1	-1E+10	1	0.5037	4	0.000911	0	-1E+10	1	-1E+10	1	-1E+10	1
4902624	17	C	12/08/2024	18:40	-127.392	46.913	0	6.10	0	10.2610	0	32.2084	0	24.730	0	6.049	0	-1e10	1	-1e10	1	-1E+10	1	0.5183	4	0.000876	0	-1E+10	1	-1E+10	1	-1E+10	1
4902624	17	C	12/08/2024	18:40	-127.392	46.913	0	6.30	0	10.2610	0	32.2082	0	24.730	0	6.248	0	248.8	4	89.3	4	-1E+10	1	0.5986	4	0.000911	0	-1E+10	1	-1E+10	1	-1E+10	1
4902624	17	C	12/08/2024	18:40	-127.392	46.913	0	6.40	0	10.2610	0	32.2081	0	24.730	0	6.347	0	-1e10	1	-1e10	1	-1E+10	1	0.5621	4	0.000840	0	-1E+10	1	-1E+10	1	-1E+10	1
4902624	17	C	12/08/2024	18:40	-127.392	46.913	0	6.50	0	10.2610	0	32.2080	0	24.730	0	6.446	0	-1e10	1	-1e10	1	-1E+10	1	-1e10	1	-1e10	1	-1E+10	1	-1E+10	1	-1E+10	1
4902624	17	C	12/08/2024	18:40	-127.392	46.913	0	6.60	0	10.2610	0	32.2080	0	24.730	0	6.545	0	-1e10	1	-1e10	1	-1E+10	1	0.5913	4	0.000876	0	-1E+10	1	-1E+10	1	-1E+10	1
4902624	17	C	12/08/2024	18:40	-127.392	46.913	0	6.80	0	10.2610	0	32.2080	0	24.730	0	6.744	0	-1e10	1	-1e10	1	-1E+10	1	0.5548	4	0.000864	0	-1E+10	1	-1E+10	1	-1E+10	1
4902624	17	C	12/08/2024	18:40	-127.392	46.913	0	6.90	0	10.2610	0	32.2080	0	24.730	0	6.843	0	-1e10	1	-1e10	1	-1E+10	1	0.5694	4	0.000899	0	-1E+10	1	-1E+10	1	-1E+10	1
4902624	17	C	12/08/2024	18:40	-127.392	46.913	0	7.20	0	10.2610	0	32.2080	0	24.730	0	7.140	0	248.7	4	89.3	4	-1E+10	1	0.5840	4	0.000852	0	-1E+10	1	-1E+10	1	-1E+10	1
4902624	17	C	12/08/2024	18:40	-127.392	46.913	0	7.50	0	10.2610	0	32.2080	0	24.730	0	7.438	0	-1e10	1	-1e10	1	-1E+10	1	0.6132	4	0.000934	0	-1E+10	1	-1E+10	1	-1E+10	1
4902624	17	C	12/08/2024	18:40	-127.392	46.913	0	7.70	0	10.2610	0	32.2082	0	24.730	0	7.636	0	-1e10	1	-1e10	1	-1E+10	1	0.5986	4	0.000923	0	-1E+10	1	-1E+10	1	-1E+10	1
4902624	17	C	12/08/2024	18:40	-127.392	46.913	0	7.90	0	10.2610	0	32.2084	0	24.730	0	7.834	0	-1e10	1	-1e10	1	-1E+10	1	0.5840	4	0.000829	0	-1E+10	1	-1E+10	1	-1E+10	1
4902624	17	C	12/08/2024	18:40	-127.392	46.913	0	8.00	0	10.2610	0	32.2086	0	24.730	0	7.934	0	248.6	4	89.2	4	-1E+10	1	0.6351	4	0.000934	0	-1E+10	1	-1E+10	1	-1E+10	1
4902624	17	C	12/08/2024	18:40	-127.392	46.913	0	8.10	0	10.2610	0	32.2087	0	24.730	0	8.033	0	-1e10	1	-1e10	1	-1E+10	1	0.5986	4	0.000887	0	-1E+10	1	-1E+10	1	-1E+10	1
4902624	17	C	12/08/2024	18:40	-127.392	46.913	0	8.40	0	10.2610	0	32.2090	0	24.730	0	8.330	0	-1e10	1	-1e10	1	-1E+10	1	0.5767	4	0.000923	0	-1E+10	1	-1E+10	1	-1E+10	1
4902624	17	C	12/08/2024	18:40	-127.392	46.913	0	8.60	0	10.2610	0	32.2090	0	24.730	0	8.529	0	-1e10	1	-1e10	1	-1E+10	1	0.6351	4	0.000934	0	-1E+10	1	-1E+10	1	-1E+10	1
4902624	17	C	12/08/2024	18:40	-127.392	46.913	0	8.90	0	10.2610	0	32.2090	0	24.730	0	8.826	0	248.5	4	89.2	4	-1E+10	1	0.6570	4	0.000899	0	-1E+10	1	-1E+10	1	-1E+10	1
4902624	17	C	12/08/2024	18:40	-127.392	46.913	0	9.10	0	10.2610	0	32.2090	0	24.730	0	9.024	0	-1e10	1	-1e10	1	-1E+10	1	0.6278	4	0.000923	0	-1E+10	1	-1E+10	1	-1E+10	1
4902624	17	C	12/08/2024	18:40	-127.392	46.913	0	9.30	0	10.2610	0	32.2090	0	24.730	0	9.223	0	-1e10	1	-1e10	1	-1E+10	1	0.6716	4	0.000876	0	-1E+10	1	-1E+10	1	-1E+10	1
4902624	17	C	12/08/2024	18:40	-127.392	46.913	0	9.50	0	10.2610	0	32.2090	0	24.730	0	9.421	0	-1e10	1	-1e10	1	-1E+10	1	-1e10	1	-1e10	1	-1E+10	1	-1E+10	1	-1E+10	1
4902624	17	C	12/08/2024	18:40	-127.392	46.913	0	9.80	0	10.2610	0	32.2090	0	24.730	0	9.719	0	248.4	4	89.1	4	-1E+10	1	0.6643	4	0.000899	0	-1E+10	1	-1E+10	1	-1E+10	1
4902624	17	C	12/08/2024	18:40	-127.392	46.913	0	10.70	0	10.2610	0	32.2090	0	24.730	0	10.611	0	248.2	4	89.1	4	-1E+10	1	0.7081	4	0.000961	0	-1E+10	1	-1E+10	1	-1E+10	1
4902624	17	C	12/08/2024	18:40	-127.392	46.913	0	10.90	0	10.2610	0	32.2090	0	24.730	0	10.809	0	-1e10	1	-1e10	1	-1E+10	1	-1e10	1	-1e10	1	-1E+10	1	-1E+10	1	-1E+10	1
4902624	17	C	12/08/2024	18:40	-127.392	46.913	0	11.70	0	10.2610	0	32.2090	0	24.730	0	11.603	0	248.2	4	89.1	4	-1E+10	1	0.7534	4	0.000989	0	-1E+10	1	-1E+10	1	-1E+10	1
4902624	17	C	12/08/2024	18:40	-127.392	46.913	0	12.60	0	10.2610	0	32.2090	0	24.730	0	12.495	0	248.1	4	89.1	4	-1E+10	1	0.7625	4	0.000942	0	-1E+10	1	-1E+10	1	-1E+10	1
4902624	17	C	12/08/2024	18:40	-127.392	46.913	0	12.90	0	10.2610	0	32.2090	0	24.730	0	12.793	0	-1e10	1	-1e10	1	-1E+10	1	-1e10	1	-1e10	1	-1E+10	1	-1E+10	1	-1E+10	1
4902624	17	C	12/08/2024	18:40	-127.392	46.913	0	13.60	0	10.2610	0	32.2090	0	24.730	0	13.487	0	248.0	4	89.0	4	-1E+10	1	0.7592	4	0.000904	0	-1E+10	1	-1E+10	1	-1E+10	1
4902624	17	C	12/08/2024	18:40	-127.392	46.913	0	14.70	0	10.2610	0	32.2090	0	24.731	0	14.578	0	247.8	4	89.0	4	-1E+10	1	0.7480	4	0.000896	0	-1E+10	1	-1E+10	1	-1E+10	1
4902624	17	C	12/08/2024	18:40	-127.392	46.913	0	14.90	0	10.2610	0	32.2090	0	24.731	0	14.776	0	-1e10	1	-1e10	1	-1E+10	1	-1e10	1	-1e10	1	-1E+10	1	-1E+10	1	-1E+10	1
4902624	17	C	12/08/2024	18:40	-127.392	46.913	0	15.80	0	10.2615	0	32.2090	0	24.730	0	15.668	0	247.7	4	88.9	4	-1E+10	1	0.7227	4	0.000870	0	-1E+10	1	-1E+10	1	-1E+10	1
4902624	17	C	12/08/2024	18:40	-127.392	46.913	0	16.80	0	10.2620	0	32.2090	0	24.730	0	16.660	0	-1e10	1	-1e10	1	-1E+10	1	-1e10	1	-1e10	1	-1E+10	1	-1E+10	1	-1E+10	1
4902624	17	C	12/08/2024	18:40	-127.392	46.913	0	17.00	0	10.2620	0	32.2090	0	24.730	0	16.858	0	247.7	4	88.9	4	-1E+10	1	0.7274	4	0.000914	0	-1E+10	1	-1E+10	1	-1E+10	1
4902624	17	C	12/08/2024	18:40	-127.392	46.913	0	18.10	0	10.2620	0	32.2090	0	24.730	0	17.949	0	247.5	4	88.8	4	-1E+10	1	0.7446	4	0.000969	0	-1E+10	1	-1E+10	1	-1E+10	1
4902624	17	C	12/08/2024	18:40	-127.392	46.913	0	19.00	0	10.2620	0	32.2090	0	24.730	0	18.842	0	-1e10	1	-1e10	1	-1E+10	1	-1e10	1	-1e10	1	-1E+10	1	-1E+10	1	-1E+10	1
4902624	17	C	12/08/2024	18:40	-127.392	46.913	0	19.20	0	10.2620	0	32.2090	0	24.730	0	19.040	0	247.5	4	88.8	4	-1E+10	1	0.7227	4	0.001251	0	-1E+10	1	-1E+10	1	-1E+10	1
4902624	17	C	12/08/2024	18:40	-127.392	46.913	0	20.10	0	10.2620	0	32.2090	0	24.730	0	19.932	0	247.3	4	88.8	4	-1E+10	1	0.7526	4	0.000973	0	-1E+10	1	-1E+10	1	-1E+10	1
4902624	17	C	12/08/2024	18:40	-127.392	46.913	0	21.00	0	10.2620	0	32.2090	0	24.730	0	20.825	0	247.2	4	88.7	4	-1E+10	1	0.7762	4	0.000856	0	-1E+10	1	-1E+10	1	-1E+10	1
4902624	17	C	12/08/2024	18:40	-127.392	46.913	0	22.00	0	10.2620	0	32.2090	0	24.730	0	21.816	0	247.0	4	88.7	4	-1E+10	1	0.7811	4	0.000893	0	-1E+10	1	-1E+10	1	-1E+10	1
4902624	17	C	12/08/2024	18:40	-127.392	46.913	0	22.90	0	10.2620	0	32.2090	0	24.731	0	22.709	0	246.8	4	88.6	4	-1E+10	1	0.7826	4	0.000937	0	-1E+10	1	-1E+10	1	-1E+10	1
4902624	17	C	12/08/2024	18:40	-127.392	46.913	0	23.00	0	10.2620	0	32.2090	0	24.731	0	22.808	0	-1e10	1	-1e10	1	-1E+10	1	-1e10	1	-1e10	1	-1E+10	1	-1E+10	1	-1E+10	1
4902624	17	C	12/08/2024	18:40	-127.392	46.913	0	23.80	0	10.2620	0	32.2090	0	24.731	0	23.601	0	246.6	4	88.5	4	-1E+10	1	0.7838	4	0.000871	0	-1E+10	1	-1E+10	1	-1E+10	1
4902624	17	C	12/08/2024	18:40	-127.392	46.913	0	24.80	0	10.2620	0	32.2090	0	24.731	0	24.593	0	246.4	4	88.5	4	-1E+10	1	0.7580	4	0.000821	0	-1E+10	1	-1E+10	1	-1E+10	1
4902624	17	C	12/08/2024	18:40	-127.392	46.913	0	24.90	0	10.2620	0	32.2090	0	24.731	0	24.692	0	-1e10	1	-1e10	1	-1E+10	1	-1e10	1	-1e10	1	-1E+10	1	-1E+10	1	-1E+10	1
4902624	17	C	12/08/2024	18:40	-127.392	46.913	0	25.80	0	10.2620	0	32.2090	0	24.731	0	25.584	0	246.4	4	88.5	4	-1E+10	1	0.7884	4	0.000782	0	-1E+10	1	-1E+10	1	-1E+10	1
4902624	17	C	12/08/2024	18:40	-127.392	46.913	0	26.90	0	10.2620	0	32.2090	0	24.731	0	26.675	0	246.2	4	88.4	4	-1E+10	1	0.7811	4	0.000969	0	-1E+10	1	-1E+10	1	-1E+10	1
4902624	17	C	12/08/2024	18:40	-127.392	46.913	0	27.00	0	10.2620	0	32.2090	0	24.731	0	26.774	0	-1e10	1	-1e10	1	-1E+10	1	-1e10	1	-1e10	1	-1E+10	1	-1E+10	1	-1E+10	1
4902624	17	C	12/08/2024	18:40	-127.392	46.913	0	28.00	0	10.2620	0	32.2090	0	24.731	0	27.766	0	245.9	4	88.3	4	-1E+10	1	0.7935	4	0.000949	0	-1E+10	1	-1E+10	1	-1E+10	1
4902624	17	C	12/08/2024	18:40	-127.392	46.913	0	29.00	0	10.2620	0	32.2090	0	24.731	0	28.758	0	-1e10	1	-1e10	1	-1E+10	1	-1e10	1	-1e10	1	-1E+10	1	-1E+10	1	-1E+10	1
4902624	17	C	12/08/2024	18:40	-127.392	46.913	0	29.10	0	10.2620	0	32.2090	0	24.731	0	28.857	0	245.7	4	88.2	4	-1E+10	1	0.7957	4	0.001125	0	-1E+10	1	-1E+10	1	-1E+10	1
4902624	17	C	12/08/2024	18:40	-127.392	46.913	0	30.10	0	10.2620	0	32.2090	0	24.731	0	29.848	0	245.6	4	88.2	4	-1E+10	1	0.8076	4	0.001018	0	-1E+10	1	-1E+10	1	-1E+10	1
4902624	17	C	12/08/2024	18:40	-127.392	46.913	0	31.00	0	10.2620	0	32.2090	0	24.731	0	30.741	0	-1e10	1	-1e10	1	-1E+10	1	-1e10	1	-1e10	1	-1E+10	1	-1E+10	1	-1E+10	1
4902624	17	C	12/08/2024	18:40	-127.392	46.913	0	31.20	0	10.2620	0	32.2090	0	24.731	0	30.939	0	245.3	4	88.0	4	-1E+10	1	0.7940	4	0.000842	0	-1E+10	1	-1E+10	1	-1E+10	1
4902624	17	C	12/08/2024	18:40	-127.392	46.913	0	32.30	0	10.2620	0	32.2090	0	24.731	0	32.030	0	245.0	4	87.9	4	-1E+10	1	0.7811	4	0.000829	0	-1E+10	1	-1E+10	1	-1E+10	1
4902624	17	C	12/08/2024	18:40	-127.392	46.913	0	32.90	0	10.2620	0	32.2090	0	24.731	0	32.625	0	-1e10	1	-1e10	1	-1E+10	1	-1e10	1	-1e10	1	-1E+10	1	-1E+10	1	-1E+10	1
4902624	17	C	12/08/2024	18:40	-127.392	46.913	0	33.40	0	10.2620	0	32.2090	0	24.731	0	33.120	0	244.6	4	87.8	4	-1E+10	1	0.8183	4	0.000855	0	-1E+10	1	-1E+10	1	-1E+10	1
4902624	17	C	12/08/2024	18:40	-127.392	46.913	0	34.40	0	10.2620	0	32.2090	0	24.731	0	34.112	0	244.3	4	87.7	4	-1E+10	1	0.8395	4	0.000852	0	-1E+10	1	-1E+10	1	-1E+10	1
4902624	17	C	12/08/2024	18:40	-127.392	46.913	0	34.90	0	10.2620	0	32.2090	0	24.731	0	34.608	0	-1e10	1	-1e10	1	-1E+10	1	-1e10	1	-1e10	1	-1E+10	1	-1E+10	1	-1E+10	1
4902624	17	C	12/08/2024	18:40	-127.392	46.913	0	35.40	0	10.2622	0	32.2090	0	24.731	0	35.103	0	243.9	4	87.6	4	-1E+10	1	0.8395	4	0.000793	0	-1E+10	1	-1E+10	1	-1E+10	1
4902624	17	C	12/08/2024	18:40	-127.392	46.913	0	36.60	0	10.2628	0	32.2090	0	24.731	0	36.293	0	243.4	4	87.4	4	-1E+10	1	0.8541	4	0.000946	0	-1E+10	1	-1E+10	1	-1E+10	1
4902624	17	C	12/08/2024	18:40	-127.392	46.913	0	36.90	0	10.2630	0	32.2090	0	24.731	0	36.591	0	-1e10	1	-1e10	1	-1E+10	1	-1e10	1	-1e10	1	-1E+10	1	-1E+10	1	-1E+10	1
4902624	17	C	12/08/2024	18:40	-127.392	46.913	0	37.80	0	10.2630	0	32.2090	0	24.731	0	37.483	0	242.8	4	87.2	4	-1E+10	1	0.8614	4	0.000805	0	-1E+10	1	-1E+10	1	-1E+10	1
4902624	17	C	12/08/2024	18:40	-127.392	46.913	0	38.70	0	10.2630	0	32.2090	0	24.731	0	38.375	0	242.3	4	87.0	4	-1E+10	1	0.8260	4	0.000902	0	-1E+10	1	-1E+10	1	-1E+10	1
4902624	17	C	12/08/2024	18:40	-127.392	46.913	0	39.00	0	10.2630	0	32.2090	0	24.731	0	38.673	0	-1e10	1	-1e10	1	-1E+10	1	-1e10	1	-1e10	1	-1E+10	1	-1E+10	1	-1E+10	1
4902624	17	C	12/08/2024	18:40	-127.392	46.913	0	39.60	0	10.2630	0	32.2090	0	24.731	0	39.268	0	241.6	4	86.7	4	-1E+10	1	0.8140	4	0.001028	0	-1E+10	1	-1E+10	1	-1E+10	1
4902624	17	C	12/08/2024	18:40	-127.392	46.913	0	40.70	0	10.2630	0	32.2090	0	24.731	0	40.359	0	240.9	4	86.5	4	-1E+10	1	0.8526	4	0.001011	0	-1E+10	1	-1E+10	1	-1E+10	1
4902624	17	C	12/08/2024	18:40	-127.392	46.913	0	41.00	0	10.2630	0	32.2090	0	24.731	0	40.656	0	-1e10	1	-1e10	1	-1E+10	1	-1e10	1	-1e10	1	-1E+10	1	-1E+10	1	-1E+10	1
4902624	17	C	12/08/2024	18:40	-127.392	46.913	0	41.70	0	10.2630	0	32.2090	0	24.731	0	41.350	0	240.0	4	86.2	4	-1E+10	1	0.8423	4	0.000902	0	-1E+10	1	-1E+10	1	-1E+10	1
4902624	17	C	12/08/2024	18:40	-127.392	46.913	0	42.80	0	10.2630	0	32.2090	0	24.731	0	42.441	0	239.0	4	85.8	4	-1E+10	1	0.8273	4	0.000860	0	-1E+10	1	-1E+10	1	-1E+10	1
4902624	17	C	12/08/2024	18:40	-127.392	46.913	0	43.00	0	10.2630	0	32.2090	0	24.731	0	42.639	0	-1e10	1	-1e10	1	-1E+10	1	-1e10	1	-1e10	1	-1E+10	1	-1E+10	1	-1E+10	1
4902624	17	C	12/08/2024	18:40	-127.392	46.913	0	43.80	0	10.2634	0	32.2090	0	24.731	0	43.432	0	237.9	4	85.4	4	-1E+10	1	0.8687	4	0.000878	0	-1E+10	1	-1E+10	1	-1E+10	1
4902624	17	C	12/08/2024	18:40	-127.392	46.913	0	44.80	0	10.2639	0	32.2090	0	24.731	0	44.424	0	236.5	4	84.9	4	-1E+10	1	0.8395	4	0.000885	0	-1E+10	1	-1E+10	1	-1E+10	1
4902624	17	C	12/08/2024	18:40	-127.392	46.913	0	45.10	0	10.2640	0	32.2090	0	24.731	0	44.721	0	-1e10	1	-1e10	1	-1E+10	1	-1e10	1	-1e10	1	-1E+10	1	-1E+10	1	-1E+10	1
4902624	17	C	12/08/2024	18:40	-127.392	46.913	0	45.70	0	10.2637	0	32.2087	0	24.730	0	45.316	0	234.9	4	84.3	4	-1E+10	1	0.8395	4	0.000875	0	-1E+10	1	-1E+10	1	-1E+10	1
4902624	17	C	12/08/2024	18:40	-127.392	46.913	0	46.40	0	10.2633	0	32.2083	0	24.730	0	46.010	0	233.4	4	83.8	4	-1E+10	1	0.8565	4	0.001040	0	-1E+10	1	-1E+10	1	-1E+10	1
4902624	17	C	12/08/2024	18:40	-127.392	46.913	0	47.00	0	10.2630	0	32.2080	0	24.730	0	46.605	0	-1e10	1	-1e10	1	-1E+10	1	-1e10	1	-1e10	1	-1E+10	1	-1E+10	1	-1E+10	1
4902624	17	C	12/08/2024	18:40	-127.392	46.913	0	47.10	0	10.2631	0	32.2079	0	24.730	0	46.704	0	231.6	4	83.1	4	-1E+10	1	0.8492	4	0.000940	0	-1E+10	1	-1E+10	1	-1E+10	1
4902624	17	C	12/08/2024	18:40	-127.392	46.913	0	47.80	0	10.2634	0	32.2076	0	24.730	0	47.398	0	229.5	4	82.4	4	-1E+10	1	0.7981	4	0.000871	0	-1E+10	1	-1E+10	1	-1E+10	1
4902624	17	C	12/08/2024	18:40	-127.392	46.913	0	48.50	0	10.2638	0	32.2072	0	24.729	0	48.092	0	227.1	4	81.5	4	-1E+10	1	0.7994	4	0.000840	0	-1E+10	1	-1E+10	1	-1E+10	1
4902624	17	C	12/08/2024	18:40	-127.392	46.913	0	48.90	0	10.2640	0	32.2070	0	24.729	0	48.489	0	-1e10	1	-1e10	1	-1E+10	1	-1e10	1	-1e10	1	-1E+10	1	-1E+10	1	-1E+10	1
4902624	17	C	12/08/2024	18:40	-127.392	46.913	0	49.20	0	10.2616	0	32.2076	0	24.730	0	48.786	0	224.1	4	80.5	4	-1E+10	1	0.8499	4	0.000834	0	-1E+10	1	-1E+10	1	-1E+10	1
4902624	17	C	12/08/2024	18:40	-127.392	46.913	0	49.90	0	10.2559	0	32.2089	0	24.732	0	49.480	0	220.7	4	79.2	4	-1E+10	1	0.8541	4	0.000852	0	-1E+10	1	-1E+10	1	-1E+10	1
4902624	17	C	12/08/2024	18:40	-127.392	46.913	0	50.60	0	10.2502	0	32.2102	0	24.734	0	50.174	0	217.3	4	78.0	4	-1E+10	1	0.7738	4	0.000880	0	-1E+10	1	-1E+10	1	-1E+10	1
4902624	17	C	12/08/2024	18:40	-127.392	46.913	0	51.00	0	10.2470	0	32.2110	0	24.735	0	50.571	0	-1e10	1	-1e10	1	-1E+10	1	-1e10	1	-1e10	1	-1E+10	1	-1E+10	1	-1E+10	1
4902624	17	C	12/08/2024	18:40	-127.392	46.913	0	51.30	0	10.2259	0	32.2190	0	24.745	0	50.868	0	213.4	4	76.5	4	-1E+10	1	0.6205	4	0.000910	0	-1E+10	1	-1E+10	1	-1E+10	1
4902624	17	C	12/08/2024	18:40	-127.392	46.913	0	52.00	0	10.1765	0	32.2377	0	24.768	0	51.562	0	209.5	4	75.1	4	-1E+10	1	0.5037	4	0.000723	0	-1E+10	1	-1E+10	1	-1E+10	1
4902624	17	C	12/08/2024	18:40	-127.392	46.913	0	52.90	0	10.1131	0	32.2617	0	24.797	0	52.455	0	204.7	4	73.3	4	-1E+10	1	0.4599	4	0.000641	0	-1E+10	1	-1E+10	1	-1E+10	1
4902624	17	C	12/08/2024	18:40	-127.392	46.913	0	53.10	0	10.0990	0	32.2670	0	24.804	0	52.653	0	-1e10	1	-1e10	1	-1E+10	1	-1e10	1	-1e10	1	-1E+10	1	-1E+10	1	-1E+10	1
4902624	17	C	12/08/2024	18:40	-127.392	46.913	0	53.80	0	10.0150	0	32.2967	0	24.841	0	53.347	0	200.3	4	71.6	4	-1E+10	1	0.3066	4	0.000676	0	-1E+10	1	-1E+10	1	-1E+10	1
4902624	17	C	12/08/2024	18:40	-127.392	46.913	0	54.50	0	9.9310	0	32.3263	0	24.878	0	54.041	0	196.8	4	70.2	4	-1E+10	1	0.2555	4	0.000547	0	-1E+10	1	-1E+10	1	-1E+10	1
4902624	17	C	12/08/2024	18:40	-127.392	46.913	0	55.10	0	9.8590	0	32.3518	0	24.909	0	54.636	0	193.3	4	68.9	4	-1E+10	1	0.2774	4	0.000512	0	-1E+10	1	-1E+10	1	-1E+10	1
4902624	17	C	12/08/2024	18:40	-127.392	46.913	0	55.20	0	9.8470	0	32.3560	0	24.915	0	54.735	0	-1e10	1	-1e10	1	-1E+10	1	-1e10	1	-1e10	1	-1E+10	1	-1E+10	1	-1E+10	1
4902624	17	C	12/08/2024	18:40	-127.392	46.913	0	55.30	0	9.8274	0	32.3618	0	24.922	0	54.834	0	191.9	4	68.3	4	-1E+10	1	0.2701	4	0.000512	0	-1E+10	1	-1E+10	1	-1E+10	1
4902624	17	C	12/08/2024	18:40	-127.392	46.913	0	55.50	0	9.7883	0	32.3734	0	24.938	0	55.032	0	188.7	4	67.1	4	-1E+10	1	0.2628	4	0.000512	0	-1E+10	1	-1E+10	1	-1E+10	1
4902624	17	C	12/08/2024	18:40	-127.392	46.913	0	55.90	0	9.7099	0	32.3965	0	24.969	0	55.429	0	185.1	4	65.8	4	-1E+10	1	0.2482	4	0.000594	0	-1E+10	1	-1E+10	1	-1E+10	1
4902624	17	C	12/08/2024	18:40	-127.392	46.913	0	56.30	0	9.6316	0	32.4197	0	24.999	0	55.826	0	181.8	4	64.5	4	-1E+10	1	0.2628	4	0.000547	0	-1E+10	1	-1E+10	1	-1E+10	1
4902624	17	C	12/08/2024	18:40	-127.392	46.913	0	56.90	0	9.5142	0	32.4544	0	25.045	0	56.420	0	178.2	4	63.0	4	-1E+10	1	0.2190	4	0.000500	0	-1E+10	1	-1E+10	1	-1E+10	1
4902624	17	C	12/08/2024	18:40	-127.392	46.913	0	57.10	0	9.4750	0	32.4660	0	25.061	0	56.619	0	-1e10	1	-1e10	1	-1E+10	1	-1e10	1	-1e10	1	-1E+10	1	-1E+10	1	-1E+10	1
4902624	17	C	12/08/2024	18:40	-127.392	46.913	0	57.30	0	9.4151	0	32.4852	0	25.085	0	56.817	0	174.7	4	61.7	4	-1E+10	1	0.1956	4	0.000490	0	-1E+10	1	-1E+10	1	-1E+10	1
4902624	17	C	12/08/2024	18:40	-127.392	46.913	0	57.80	0	9.2654	0	32.5331	0	25.147	0	57.313	0	172.2	4	60.6	4	-1E+10	1	0.1773	4	0.000502	0	-1E+10	1	-1E+10	1	-1E+10	1
4902624	17	C	12/08/2024	18:40	-127.392	46.913	0	58.40	0	9.0857	0	32.5905	0	25.220	0	57.908	0	168.5	4	59.1	4	-1E+10	1	0.1624	4	0.000512	0	-1E+10	1	-1E+10	1	-1E+10	1
4902624	17	C	12/08/2024	18:40	-127.392	46.913	0	59.00	0	8.9060	0	32.6480	0	25.293	0	58.502	0	-1e10	1	-1e10	1	-1E+10	1	-1e10	1	-1e10	1	-1E+10	1	-1E+10	1	-1E+10	1
4902624	17	C	12/08/2024	18:40	-127.392	46.913	0	59.20	0	8.8655	0	32.6639	0	25.311	0	58.701	0	165.6	4	57.8	4	-1E+10	1	0.1408	4	0.000441	0	-1E+10	1	-1E+10	1	-1E+10	1
4902624	17	C	12/08/2024	18:40	-127.392	46.913	0	59.90	0	8.7239	0	32.7196	0	25.377	0	59.395	0	163.2	4	56.8	4	-1E+10	1	0.1241	4	0.000375	0	-1E+10	1	-1E+10	1	-1E+10	1
4902624	17	C	12/08/2024	18:40	-127.392	46.913	0	60.70	0	8.5620	0	32.7832	0	25.451	0	60.188	0	161.0	4	55.9	4	-1E+10	1	0.1214	4	0.000476	0	-1E+10	1	-1E+10	1	-1E+10	1
4902624	17	C	12/08/2024	18:40	-127.392	46.913	0	61.10	0	8.4810	0	32.8150	0	25.488	0	60.584	0	-1e10	1	-1e10	1	-1E+10	1	-1e10	1	-1e10	1	-1E+10	1	-1E+10	1	-1E+10	1
4902624	17	C	12/08/2024	18:40	-127.392	46.913	0	61.60	0	8.4197	0	32.8424	0	25.519	0	61.080	0	159.3	4	55.2	4	-1E+10	1	0.1095	4	0.000688	0	-1E+10	1	-1E+10	1	-1E+10	1
4902624	17	C	12/08/2024	18:40	-127.392	46.913	0	62.50	0	8.3093	0	32.8916	0	25.574	0	61.972	0	158.0	4	54.6	4	-1E+10	1	0.1022	4	0.000465	0	-1E+10	1	-1E+10	1	-1E+10	1
4902624	17	C	12/08/2024	18:40	-127.392	46.913	0	63.00	0	8.2480	0	32.9190	0	25.605	0	62.468	0	-1e10	1	-1e10	1	-1E+10	1	-1e10	1	-1e10	1	-1E+10	1	-1E+10	1	-1E+10	1
4902624	17	C	12/08/2024	18:40	-127.392	46.913	0	63.40	0	8.2255	0	32.9300	0	25.617	0	62.865	0	156.7	4	54.1	4	-1E+10	1	0.0903	4	0.000388	0	-1E+10	1	-1E+10	1	-1E+10	1
4902624	17	C	12/08/2024	18:40	-127.392	46.913	0	64.40	0	8.1693	0	32.9577	0	25.647	0	63.856	0	155.3	4	53.5	4	-1E+10	1	0.0827	4	0.000355	0	-1E+10	1	-1E+10	1	-1E+10	1
4902624	17	C	12/08/2024	18:40	-127.392	46.913	0	65.10	0	8.1300	0	32.9770	0	25.668	0	64.550	0	-1e10	1	-1e10	1	-1E+10	1	-1e10	1	-1e10	1	-1E+10	1	-1E+10	1	-1E+10	1
4902624	17	C	12/08/2024	18:40	-127.392	46.913	0	65.40	0	8.1088	0	32.9888	0	25.680	0	64.847	0	154.3	4	53.1	4	-1E+10	1	0.0715	4	0.000326	0	-1E+10	1	-1E+10	1	-1E+10	1
4902624	17	C	12/08/2024	18:40	-127.392	46.913	0	66.50	0	8.0313	0	33.0323	0	25.725	0	65.938	0	153.4	4	52.7	4	-1E+10	1	0.0696	4	0.000318	0	-1E+10	1	-1E+10	1	-1E+10	1
4902624	17	C	12/08/2024	18:40	-127.392	46.913	0	67.00	0	7.9960	0	33.0520	0	25.746	0	66.434	0	-1e10	1	-1e10	1	-1E+10	1	-1e10	1	-1e10	1	-1E+10	1	-1E+10	1	-1E+10	1
4902624	17	C	12/08/2024	18:40	-127.392	46.913	0	67.50	0	7.9808	0	33.0637	0	25.757	0	66.929	0	152.2	4	52.3	4	-1E+10	1	0.0730	4	0.000331	0	-1E+10	1	-1E+10	1	-1E+10	1
4902624	17	C	12/08/2024	18:40	-127.392	46.913	0	68.60	0	7.9472	0	33.0896	0	25.783	0	68.020	0	151.0	4	51.8	4	-1E+10	1	0.0715	4	0.000345	0	-1E+10	1	-1E+10	1	-1E+10	1
4902624	17	C	12/08/2024	18:40	-127.392	46.913	0	69.00	0	7.9350	0	33.0990	0	25.792	0	68.416	0	-1e10	1	-1e10	1	-1E+10	1	-1e10	1	-1e10	1	-1E+10	1	-1E+10	1	-1E+10	1
4902624	17	C	12/08/2024	18:40	-127.392	46.913	0	69.60	0	7.9326	0	33.1065	0	25.798	0	69.011	0	149.6	4	51.4	4	-1E+10	1	0.0657	4	0.000332	0	-1E+10	1	-1E+10	1	-1E+10	1
4902624	17	C	12/08/2024	18:40	-127.392	46.913	0	70.60	0	7.9286	0	33.1190	0	25.808	0	70.003	0	148.2	4	50.9	4	-1E+10	1	0.0657	4	0.000312	0	-1E+10	1	-1E+10	1	-1E+10	1
4902624	17	C	12/08/2024	18:40	-127.392	46.913	0	71.00	0	7.9270	0	33.1240	0	25.813	0	70.399	0	-1e10	1	-1e10	1	-1E+10	1	-1e10	1	-1e10	1	-1E+10	1	-1E+10	1	-1E+10	1
4902624	17	C	12/08/2024	18:40	-127.392	46.913	0	71.70	0	7.9320	0	33.1457	0	25.829	0	71.093	0	146.9	4	50.4	4	-1E+10	1	0.0438	4	0.000359	0	-1E+10	1	-1E+10	1	-1E+10	1
4902624	17	C	12/08/2024	18:40	-127.392	46.913	0	72.50	0	7.9377	0	33.1704	0	25.848	0	71.886	0	146.0	4	50.1	4	-1E+10	1	0.0511	4	0.000371	0	-1E+10	1	-1E+10	1	-1E+10	1
4902624	17	C	12/08/2024	18:40	-127.392	46.913	0	73.10	0	7.9420	0	33.1890	0	25.861	0	72.481	0	144.3	4	49.6	4	-1E+10	1	0.0675	4	0.000327	0	-1E+10	1	-1E+10	1	-1E+10	1
4902624	17	C	12/08/2024	18:40	-127.392	46.913	0	73.70	0	7.9294	0	33.2016	0	25.873	0	73.076	0	145.5	4	50.0	4	-1E+10	1	0.0688	4	0.000352	0	-1E+10	1	-1E+10	1	-1E+10	1
4902624	17	C	12/08/2024	18:40	-127.392	46.913	0	74.20	0	7.9188	0	33.2122	0	25.883	0	73.571	0	145.1	4	49.8	4	-1E+10	1	0.0628	4	0.000368	0	-1E+10	1	-1E+10	1	-1E+10	1
4902624	17	C	12/08/2024	18:40	-127.392	46.913	0	74.70	0	7.9083	0	33.2227	0	25.893	0	74.067	0	144.9	4	49.7	4	-1E+10	1	0.0535	4	0.000328	0	-1E+10	1	-1E+10	1	-1E+10	1
4902624	17	C	12/08/2024	18:40	-127.392	46.913	0	75.00	0	7.9020	0	33.2290	0	25.899	0	74.365	0	-1e10	1	-1e10	1	-1E+10	1	-1e10	1	-1e10	1	-1E+10	1	-1E+10	1	-1E+10	1
4902624	17	C	12/08/2024	18:40	-127.392	46.913	0	75.20	0	7.8947	0	33.2347	0	25.904	0	74.563	0	144.6	4	49.6	4	-1E+10	1	0.0480	4	0.000294	0	-1E+10	1	-1E+10	1	-1E+10	1
4902624	17	C	12/08/2024	18:40	-127.392	46.913	0	75.80	0	7.8728	0	33.2518	0	25.921	0	75.158	0	144.2	4	49.5	4	-1E+10	1	0.0730	4	0.000324	0	-1E+10	1	-1E+10	1	-1E+10	1
4902624	17	C	12/08/2024	18:40	-127.392	46.913	0	76.40	0	7.8509	0	33.2689	0	25.937	0	75.752	0	143.7	4	49.3	4	-1E+10	1	0.0657	4	0.000371	0	-1E+10	1	-1E+10	1	-1E+10	1
4902624	17	C	12/08/2024	18:40	-127.392	46.913	0	77.00	0	7.8290	0	33.2860	0	25.954	0	76.347	0	141.4	4	48.5	4	-1E+10	1	0.0594	4	0.000431	0	-1E+10	1	-1E+10	1	-1E+10	1
4902624	17	C	12/08/2024	18:40	-127.392	46.913	0	77.60	0	7.8257	0	33.2998	0	25.965	0	76.942	0	142.5	4	48.9	4	-1E+10	1	0.0523	4	0.000343	0	-1E+10	1	-1E+10	1	-1E+10	1
4902624	17	C	12/08/2024	18:40	-127.392	46.913	0	78.20	0	7.8224	0	33.3136	0	25.977	0	77.537	0	142.0	4	48.7	4	-1E+10	1	0.0511	4	0.000304	0	-1E+10	1	-1E+10	1	-1E+10	1
4902624	17	C	12/08/2024	18:40	-127.392	46.913	0	78.80	0	7.8191	0	33.3274	0	25.988	0	78.132	0	141.6	4	48.6	4	-1E+10	1	0.0648	4	0.000308	0	-1E+10	1	-1E+10	1	-1E+10	1
4902624	17	C	12/08/2024	18:40	-127.392	46.913	0	79.00	0	7.8180	0	33.3320	0	25.992	0	78.330	0	-1e10	1	-1e10	1	-1E+10	1	-1e10	1	-1e10	1	-1E+10	1	-1E+10	1	-1E+10	1
4902624	17	C	12/08/2024	18:40	-127.392	46.913	0	79.50	0	7.8088	0	33.3388	0	25.998	0	78.826	0	141.2	4	48.4	4	-1E+10	1	0.0694	4	0.000324	0	-1E+10	1	-1E+10	1	-1E+10	1
4902624	17	C	12/08/2024	18:40	-127.392	46.913	0	80.20	0	7.7958	0	33.3482	0	26.008	0	79.519	0	140.7	4	48.2	4	-1E+10	1	0.0626	4	0.000330	0	-1E+10	1	-1E+10	1	-1E+10	1
4902624	17	C	12/08/2024	18:40	-127.392	46.913	0	80.90	0	7.7829	0	33.3577	0	26.017	0	80.213	0	140.2	4	48.0	4	-1E+10	1	0.0557	4	0.000310	0	-1E+10	1	-1E+10	1	-1E+10	1
4902624	17	C	12/08/2024	18:40	-127.392	46.913	0	81.00	0	7.7810	0	33.3590	0	26.018	0	80.313	0	-1e10	1	-1e10	1	-1E+10	1	-1e10	1	-1e10	1	-1E+10	1	-1E+10	1	-1E+10	1
4902624	17	C	12/08/2024	18:40	-127.392	46.913	0	81.50	0	7.7736	0	33.3645	0	26.024	0	80.808	0	139.7	4	47.9	4	-1E+10	1	0.0520	4	0.000293	0	-1E+10	1	-1E+10	1	-1E+10	1
4902624	17	C	12/08/2024	18:40	-127.392	46.913	0	82.20	0	7.7633	0	33.3723	0	26.031	0	81.502	0	139.1	4	47.6	4	-1E+10	1	0.0584	4	0.000324	0	-1E+10	1	-1E+10	1	-1E+10	1
4902624	17	C	12/08/2024	18:40	-127.392	46.913	0	82.90	0	7.7530	0	33.3800	0	26.039	0	82.196	0	-1e10	1	-1e10	1	-1E+10	1	-1e10	1	-1e10	1	-1E+10	1	-1E+10	1	-1E+10	1
4902624	17	C	12/08/2024	18:40	-127.392	46.913	0	83.00	0	7.7522	0	33.3819	0	26.041	0	82.295	0	138.3	4	47.4	4	-1E+10	1	0.0438	4	0.000288	0	-1E+10	1	-1E+10	1	-1E+10	1
4902624	17	C	12/08/2024	18:40	-127.392	46.913	0	83.70	0	7.7465	0	33.3949	0	26.052	0	82.989	0	137.5	4	47.1	4	-1E+10	1	0.0438	4	0.000279	0	-1E+10	1	-1E+10	1	-1E+10	1
4902624	17	C	12/08/2024	18:40	-127.392	46.913	0	84.50	0	7.7400	0	33.4097	0	26.064	0	83.782	0	136.7	4	46.8	4	-1E+10	1	0.0438	4	0.000300	0	-1E+10	1	-1E+10	1	-1E+10	1
4902624	17	C	12/08/2024	18:40	-127.392	46.913	0	85.00	0	7.7360	0	33.4190	0	26.072	0	84.278	0	-1e10	1	-1e10	1	-1E+10	1	-1e10	1	-1e10	1	-1E+10	1	-1E+10	1	-1E+10	1
4902624	17	C	12/08/2024	18:40	-127.392	46.913	0	85.30	0	7.7346	0	33.4234	0	26.076	0	84.575	0	135.9	4	46.6	4	-1E+10	1	0.0529	4	0.000312	0	-1E+10	1	-1E+10	1	-1E+10	1
4902624	17	C	12/08/2024	18:40	-127.392	46.913	0	86.10	0	7.7308	0	33.4352	0	26.086	0	85.368	0	135.2	4	46.3	4	-1E+10	1	0.0548	4	0.000318	0	-1E+10	1	-1E+10	1	-1E+10	1
4902624	17	C	12/08/2024	18:40	-127.392	46.913	0	86.90	0	7.7270	0	33.4470	0	26.095	0	86.161	0	134.5	4	46.1	4	-1E+10	1	0.0533	4	0.000310	0	-1E+10	1	-1E+10	1	-1E+10	1
4902624	17	C	12/08/2024	18:40	-127.392	46.913	0	87.10	0	7.7260	0	33.4500	0	26.098	0	86.360	0	-1e10	1	-1e10	1	-1E+10	1	-1e10	1	-1e10	1	-1E+10	1	-1E+10	1	-1E+10	1
4902624	17	C	12/08/2024	18:40	-127.392	46.913	0	87.80	0	7.7234	0	33.4563	0	26.103	0	87.053	0	133.7	4	45.8	4	-1E+10	1	0.0600	4	0.000274	0	-1E+10	1	-1E+10	1	-1E+10	1
4902624	17	C	12/08/2024	18:40	-127.392	46.913	0	88.70	0	7.7201	0	33.4643	0	26.110	0	87.946	0	132.8	4	45.5	4	-1E+10	1	0.0599	4	0.000293	0	-1E+10	1	-1E+10	1	-1E+10	1
4902624	17	C	12/08/2024	18:40	-127.392	46.913	0	89.00	0	7.7190	0	33.4670	0	26.112	0	88.243	0	-1e10	1	-1e10	1	-1E+10	1	-1e10	1	-1e10	1	-1E+10	1	-1E+10	1	-1E+10	1
4902624	17	C	12/08/2024	18:40	-127.392	46.913	0	89.50	0	7.7129	0	33.4820	0	26.125	0	88.739	0	131.9	4	45.2	4	-1E+10	1	0.0365	4	0.000406	0	-1E+10	1	-1E+10	1	-1E+10	1
4902624	17	C	12/08/2024	18:40	-127.392	46.913	0	90.40	0	7.7021	0	33.5090	0	26.148	0	89.631	0	131.2	4	44.9	4	-1E+10	1	0.0365	4	0.000348	0	-1E+10	1	-1E+10	1	-1E+10	1
4902624	17	C	12/08/2024	18:40	-127.392	46.913	0	90.90	0	7.6960	0	33.5240	0	26.160	0	90.126	0	-1e10	1	-1e10	1	-1E+10	1	-1e10	1	-1e10	1	-1E+10	1	-1E+10	1	-1E+10	1
4902624	17	C	12/08/2024	18:40	-127.392	46.913	0	91.40	0	7.6915	0	33.5322	0	26.168	0	90.622	0	130.7	4	44.8	4	-1E+10	1	0.0430	4	0.000304	0	-1E+10	1	-1E+10	1	-1E+10	1
4902624	17	C	12/08/2024	18:40	-127.392	46.913	0	92.30	0	7.6834	0	33.5471	0	26.180	0	91.514	0	130.3	4	44.6	4	-1E+10	1	0.0385	4	0.000343	0	-1E+10	1	-1E+10	1	-1E+10	1
4902624	17	C	12/08/2024	18:40	-127.392	46.913	0	92.90	0	7.6780	0	33.5570	0	26.189	0	92.109	0	-1e10	1	-1e10	1	-1E+10	1	-1e10	1	-1e10	1	-1E+10	1	-1E+10	1	-1E+10	1
4902624	17	C	12/08/2024	18:40	-127.392	46.913	0	93.30	0	7.6729	0	33.5619	0	26.194	0	92.505	0	129.9	4	44.5	4	-1E+10	1	0.0408	4	0.000359	0	-1E+10	1	-1E+10	1	-1E+10	1
4902624	17	C	12/08/2024	18:40	-127.392	46.913	0	94.20	0	7.6615	0	33.5730	0	26.204	0	93.398	0	129.6	4	44.4	4	-1E+10	1	0.0438	4	0.000349	0	-1E+10	1	-1E+10	1	-1E+10	1
4902624	17	C	12/08/2024	18:40	-127.392	46.913	0	95.10	0	7.6500	0	33.5840	0	26.214	0	94.290	0	-1e10	1	-1e10	1	-1E+10	1	-1e10	1	-1e10	1	-1E+10	1	-1E+10	1	-1E+10	1
4902624	17	C	12/08/2024	18:40	-127.392	46.913	0	95.20	0	7.6498	0	33.5843	0	26.214	0	94.389	0	129.3	4	44.2	4	-1E+10	1	0.0465	4	0.000318	0	-1E+10	1	-1E+10	1	-1E+10	1
4902624	17	C	12/08/2024	18:40	-127.392	46.913	0	96.10	0	7.6479	0	33.5872	0	26.217	0	95.281	0	129.1	4	44.2	4	-1E+10	1	0.0499	4	0.000294	0	-1E+10	1	-1E+10	1	-1E+10	1
4902624	17	C	12/08/2024	18:40	-127.392	46.913	0	97.00	0	7.6460	0	33.5900	0	26.219	0	96.173	0	-1e10	1	-1e10	1	-1E+10	1	-1e10	1	-1e10	1	-1E+10	1	-1E+10	1	-1E+10	1
4902624	17	C	12/08/2024	18:40	-127.392	46.913	0	97.10	0	7.6455	0	33.5905	0	26.220	0	96.272	0	128.8	4	44.1	4	-1E+10	1	0.0438	4	0.000324	0	-1E+10	1	-1E+10	1	-1E+10	1
4902624	17	C	12/08/2024	18:40	-127.392	46.913	0	98.10	0	7.6410	0	33.5955	0	26.225	0	97.263	0	128.6	4	44.0	4	-1E+10	1	0.0365	4	0.000312	0	-1E+10	1	-1E+10	1	-1E+10	1
4902624	17	C	12/08/2024	18:40	-127.392	46.913	0	99.00	0	7.6370	0	33.6000	0	26.229	0	98.156	0	126.5	4	43.3	4	-1E+10	1	0.0484	4	0.000302	0	-1E+10	1	-1E+10	1	-1E+10	1
4902624	17	C	12/08/2024	18:40	-127.392	46.913	0	100.00	0	7.6354	0	33.6032	0	26.231	0	99.147	0	128.0	4	43.8	4	-1E+10	1	0.0462	4	0.000300	0	-1E+10	1	-1E+10	1	-1E+10	1
4902624	17	C	12/08/2024	18:40	-127.392	46.913	0	100.90	0	7.6340	0	33.6060	0	26.234	0	100.039	0	126.0	4	43.1	4	-1E+10	1	0.0397	4	0.000300	0	-1E+10	1	-1E+10	1	-1E+10	1
4902624	17	C	12/08/2024	18:40	-127.392	46.913	0	101.80	0	7.6336	0	33.6086	0	26.236	0	100.931	0	127.5	4	43.6	4	-1E+10	1	0.0431	4	0.000337	0	-1E+10	1	-1E+10	1	-1E+10	1
4902624	17	C	12/08/2024	18:40	-127.392	46.913	0	102.80	0	7.6331	0	33.6114	0	26.238	0	101.922	0	127.1	4	43.5	4	-1E+10	1	0.0484	4	0.000352	0	-1E+10	1	-1E+10	1	-1E+10	1
4902624	17	C	12/08/2024	18:40	-127.392	46.913	0	103.00	0	7.6330	0	33.6120	0	26.239	0	102.120	0	-1e10	1	-1e10	1	-1E+10	1	-1e10	1	-1e10	1	-1E+10	1	-1E+10	1	-1E+10	1
4902624	17	C	12/08/2024	18:40	-127.392	46.913	0	103.70	0	7.6330	0	33.6152	0	26.241	0	102.814	0	126.8	4	43.4	4	-1E+10	1	0.0438	4	0.000295	0	-1E+10	1	-1E+10	1	-1E+10	1
4902624	17	C	12/08/2024	18:40	-127.392	46.913	0	104.60	0	7.6330	0	33.6192	0	26.244	0	103.706	0	126.5	4	43.3	4	-1E+10	1	0.0425	4	0.000304	0	-1E+10	1	-1E+10	1	-1E+10	1
4902624	17	C	12/08/2024	18:40	-127.392	46.913	0	105.00	0	7.6330	0	33.6210	0	26.246	0	104.103	0	-1e10	1	-1e10	1	-1E+10	1	-1e10	1	-1e10	1	-1E+10	1	-1E+10	1	-1E+10	1
4902624	17	C	12/08/2024	18:40	-127.392	46.913	0	105.50	0	7.6124	0	33.6282	0	26.254	0	104.598	0	126.2	4	43.2	4	-1E+10	1	0.0365	4	0.000429	0	-1E+10	1	-1E+10	1	-1E+10	1
4902624	17	C	12/08/2024	18:40	-127.392	46.913	0	106.40	0	7.5754	0	33.6412	0	26.270	0	105.490	0	126.0	4	43.1	4	-1E+10	1	0.0544	4	0.000333	0	-1E+10	1	-1E+10	1	-1E+10	1
4902624	17	C	12/08/2024	18:40	-127.392	46.913	0	106.80	0	7.5590	0	33.6470	0	26.277	0	105.887	0	-1e10	1	-1e10	1	-1E+10	1	-1e10	1	-1e10	1	-1E+10	1	-1E+10	1	-1E+10	1
4902624	17	C	12/08/2024	18:40	-127.392	46.913	0	107.40	0	7.5452	0	33.6480	0	26.280	0	106.482	0	125.6	4	42.9	4	-1E+10	1	0.0526	4	0.000387	0	-1E+10	1	-1E+10	1	-1E+10	1
4902624	17	C	12/08/2024	18:40	-127.392	46.913	0	108.40	0	7.5221	0	33.6498	0	26.284	0	107.473	0	125.1	4	42.7	4	-1E+10	1	0.0414	4	0.000390	0	-1E+10	1	-1E+10	1	-1E+10	1
4902624	17	C	12/08/2024	18:40	-127.392	46.913	0	109.10	0	7.5060	0	33.6510	0	26.288	0	108.167	0	-1e10	1	-1e10	1	-1E+10	1	-1e10	1	-1e10	1	-1E+10	1	-1E+10	1	-1E+10	1
4902624	17	C	12/08/2024	18:40	-127.392	46.913	0	109.30	0	7.5040	0	33.6518	0	26.288	0	108.365	0	124.5	4	42.5	4	-1E+10	1	0.0465	4	0.000339	0	-1E+10	1	-1E+10	1	-1E+10	1
4902624	17	C	12/08/2024	18:40	-127.392	46.913	0	110.30	0	7.4940	0	33.6561	0	26.293	0	109.356	0	123.9	4	42.3	4	-1E+10	1	0.0526	4	0.000335	0	-1E+10	1	-1E+10	1	-1E+10	1
4902624	17	C	12/08/2024	18:40	-127.392	46.913	0	111.00	0	7.4870	0	33.6590	0	26.297	0	110.050	0	-1e10	1	-1e10	1	-1E+10	1	-1e10	1	-1e10	1	-1E+10	1	-1E+10	1	-1E+10	1
4902624	17	C	12/08/2024	18:40	-127.392	46.913	0	111.30	0	7.4881	0	33.6612	0	26.298	0	110.347	0	123.3	4	42.1	4	-1E+10	1	0.0438	4	0.000370	0	-1E+10	1	-1E+10	1	-1E+10	1
4902624	17	C	12/08/2024	18:40	-127.392	46.913	0	112.20	0	7.4914	0	33.6678	0	26.303	0	111.239	0	122.8	4	41.9	4	-1E+10	1	0.0445	4	0.000298	0	-1E+10	1	-1E+10	1	-1E+10	1
4902624	17	C	12/08/2024	18:40	-127.392	46.913	0	112.90	0	7.4940	0	33.6730	0	26.307	0	111.933	0	-1e10	1	-1e10	1	-1E+10	1	-1e10	1	-1e10	1	-1E+10	1	-1E+10	1	-1E+10	1
4902624	17	C	12/08/2024	18:40	-127.392	46.913	0	113.20	0	7.4952	0	33.6742	0	26.307	0	112.231	0	122.4	4	41.8	4	-1E+10	1	0.0511	4	0.000276	0	-1E+10	1	-1E+10	1	-1E+10	1
4902624	17	C	12/08/2024	18:40	-127.392	46.913	0	114.20	0	7.4993	0	33.6783	0	26.310	0	113.222	0	121.9	4	41.6	4	-1E+10	1	0.0511	4	0.000300	0	-1E+10	1	-1E+10	1	-1E+10	1
4902624	17	C	12/08/2024	18:40	-127.392	46.913	0	115.10	0	7.5030	0	33.6820	0	26.312	0	114.114	0	-1e10	1	-1e10	1	-1E+10	1	-1e10	1	-1e10	1	-1E+10	1	-1E+10	1	-1E+10	1
4902624	17	C	12/08/2024	18:40	-127.392	46.913	0	115.20	0	7.5017	0	33.6823	0	26.313	0	114.213	0	121.4	4	41.4	4	-1E+10	1	0.0572	4	0.000290	0	-1E+10	1	-1E+10	1	-1E+10	1
4902624	17	C	12/08/2024	18:40	-127.392	46.913	0	116.20	0	7.4885	0	33.6849	0	26.317	0	115.204	0	120.8	4	41.2	4	-1E+10	1	0.0389	4	0.000280	0	-1E+10	1	-1E+10	1	-1E+10	1
4902624	17	C	12/08/2024	18:40	-127.392	46.913	0	117.00	0	7.4780	0	33.6870	0	26.320	0	115.997	0	-1e10	1	-1e10	1	-1E+10	1	-1e10	1	-1e10	1	-1E+10	1	-1E+10	1	-1E+10	1
4902624	17	C	12/08/2024	18:40	-127.392	46.913	0	117.10	0	7.4768	0	33.6872	0	26.320	0	116.096	0	120.1	4	41.0	4	-1E+10	1	0.0333	4	0.000342	0	-1E+10	1	-1E+10	1	-1E+10	1
4902624	17	C	12/08/2024	18:40	-127.392	46.913	0	118.00	0	7.4660	0	33.6890	0	26.323	0	116.988	0	119.2	4	40.6	4	-1E+10	1	0.0365	4	0.000351	0	-1E+10	1	-1E+10	1	-1E+10	1
4902624	17	C	12/08/2024	18:40	-127.392	46.913	0	119.00	0	7.4540	0	33.6910	0	26.326	0	117.979	0	116.5	4	39.7	4	-1E+10	1	0.0389	4	0.000323	0	-1E+10	1	-1E+10	1	-1E+10	1
4902624	17	C	12/08/2024	18:40	-127.392	46.913	0	120.00	0	7.4511	0	33.7039	0	26.337	0	118.970	0	117.4	4	40.0	4	-1E+10	1	0.0453	4	0.000352	0	-1E+10	1	-1E+10	1	-1E+10	1
4902624	17	C	12/08/2024	18:40	-127.392	46.913	0	121.00	0	7.4483	0	33.7167	0	26.348	0	119.961	0	116.7	4	39.8	4	-1E+10	1	0.0511	4	0.000357	0	-1E+10	1	-1E+10	1	-1E+10	1
4902624	17	C	12/08/2024	18:40	-127.392	46.913	0	121.10	0	7.4480	0	33.7180	0	26.349	0	120.061	0	-1e10	1	-1e10	1	-1E+10	1	-1e10	1	-1e10	1	-1E+10	1	-1E+10	1	-1E+10	1
4902624	17	C	12/08/2024	18:40	-127.392	46.913	0	122.00	0	7.4412	0	33.7257	0	26.356	0	120.953	0	116.0	4	39.6	4	-1E+10	1	0.0511	4	0.000757	0	-1E+10	1	-1E+10	1	-1E+10	1
4902624	17	C	12/08/2024	18:40	-127.392	46.913	0	122.90	0	7.4345	0	33.7333	0	26.363	0	121.845	0	115.5	4	39.4	4	-1E+10	1	0.0456	4	0.000476	0	-1E+10	1	-1E+10	1	-1E+10	1
4902624	17	C	12/08/2024	18:40	-127.392	46.913	0	123.10	0	7.4330	0	33.7350	0	26.364	0	122.043	0	-1e10	1	-1e10	1	-1E+10	1	-1e10	1	-1e10	1	-1E+10	1	-1E+10	1	-1E+10	1
4902624	17	C	12/08/2024	18:40	-127.392	46.913	0	124.00	0	7.4245	0	33.7445	0	26.373	0	122.935	0	114.8	4	39.2	4	-1E+10	1	0.0555	4	0.000316	0	-1E+10	1	-1E+10	1	-1E+10	1
4902624	17	C	12/08/2024	18:40	-127.392	46.913	0	125.00	0	7.4150	0	33.7550	0	26.382	0	123.926	0	112.6	4	38.4	4	-1E+10	1	0.0487	4	0.000323	0	-1E+10	1	-1E+10	1	-1E+10	1
4902624	17	C	12/08/2024	18:40	-127.392	46.913	0	126.10	0	7.3974	0	33.7589	0	26.388	0	125.016	0	113.8	4	38.8	4	-1E+10	1	0.0477	4	0.000335	0	-1E+10	1	-1E+10	1	-1E+10	1
4902624	17	C	12/08/2024	18:40	-127.392	46.913	0	127.00	0	7.3830	0	33.7620	0	26.392	0	125.908	0	-1e10	1	-1e10	1	-1E+10	1	-1e10	1	-1e10	1	-1E+10	1	-1E+10	1	-1E+10	1
4902624	17	C	12/08/2024	18:40	-127.392	46.913	0	127.10	0	7.3818	0	33.7623	0	26.393	0	126.007	0	113.1	4	38.5	4	-1E+10	1	0.0453	4	0.000307	0	-1E+10	1	-1E+10	1	-1E+10	1
4902624	17	C	12/08/2024	18:40	-127.392	46.913	0	128.20	0	7.3686	0	33.7650	0	26.397	0	127.097	0	112.5	4	38.3	4	-1E+10	1	0.0365	4	0.000289	0	-1E+10	1	-1E+10	1	-1E+10	1
4902624	17	C	12/08/2024	18:40	-127.392	46.913	0	129.00	0	7.3590	0	33.7670	0	26.400	0	127.890	0	-1e10	1	-1e10	1	-1E+10	1	-1e10	1	-1e10	1	-1E+10	1	-1E+10	1	-1E+10	1
4902624	17	C	12/08/2024	18:40	-127.392	46.913	0	129.20	0	7.3576	0	33.7675	0	26.400	0	128.089	0	111.7	4	38.0	4	-1E+10	1	0.0365	4	0.000322	0	-1E+10	1	-1E+10	1	-1E+10	1
4902624	17	C	12/08/2024	18:40	-127.392	46.913	0	130.30	0	7.3499	0	33.7702	0	26.404	0	129.179	0	110.9	4	37.7	4	-1E+10	1	0.0365	4	0.000288	0	-1E+10	1	-1E+10	1	-1E+10	1
4902624	17	C	12/08/2024	18:40	-127.392	46.913	0	131.00	0	7.3450	0	33.7720	0	26.406	0	129.872	0	-1e10	1	-1e10	1	-1E+10	1	-1e10	1	-1e10	1	-1E+10	1	-1E+10	1	-1E+10	1
4902624	17	C	12/08/2024	18:40	-127.392	46.913	0	131.30	0	7.3480	0	33.7736	0	26.406	0	130.170	0	109.9	4	37.4	4	-1E+10	1	0.0438	4	0.000312	0	-1E+10	1	-1E+10	1	-1E+10	1
4902624	17	C	12/08/2024	18:40	-127.392	46.913	0	132.40	0	7.3590	0	33.7793	0	26.409	0	131.260	0	108.9	4	37.1	4	-1E+10	1	0.0438	4	0.000341	0	-1E+10	1	-1E+10	1	-1E+10	1
4902624	17	C	12/08/2024	18:40	-127.392	46.913	0	133.10	0	7.3660	0	33.7830	0	26.411	0	131.954	0	-1e10	1	-1e10	1	-1E+10	1	-1e10	1	-1e10	1	-1E+10	1	-1E+10	1	-1E+10	1
4902624	17	C	12/08/2024	18:40	-127.392	46.913	0	133.50	0	7.3698	0	33.7862	0	26.413	0	132.350	0	108.2	4	36.8	4	-1E+10	1	0.0489	4	0.000298	0	-1E+10	1	-1E+10	1	-1E+10	1
4902624	17	C	12/08/2024	18:40	-127.392	46.913	0	134.60	0	7.3802	0	33.7948	0	26.419	0	133.440	0	107.6	4	36.7	4	-1E+10	1	0.0511	4	0.000280	0	-1E+10	1	-1E+10	1	-1E+10	1
4902624	17	C	12/08/2024	18:40	-127.392	46.913	0	135.00	0	7.3840	0	33.7980	0	26.421	0	133.837	0	-1e10	1	-1e10	1	-1E+10	1	-1e10	1	-1e10	1	-1E+10	1	-1E+10	1	-1E+10	1
4902624	17	C	12/08/2024	18:40	-127.392	46.913	0	135.70	0	7.3773	0	33.8001	0	26.423	0	134.530	0	107.0	4	36.5	4	-1E+10	1	0.0432	4	0.000336	0	-1E+10	1	-1E+10	1	-1E+10	1
4902624	17	C	12/08/2024	18:40	-127.392	46.913	0	136.80	0	7.3669	0	33.8034	0	26.427	0	135.621	0	106.5	4	36.3	4	-1E+10	1	0.0365	4	0.000350	0	-1E+10	1	-1E+10	1	-1E+10	1
4902624	17	C	12/08/2024	18:40	-127.392	46.913	0	137.00	0	7.3650	0	33.8040	0	26.428	0	135.819	0	-1e10	1	-1e10	1	-1E+10	1	-1e10	1	-1e10	1	-1E+10	1	-1E+10	1	-1E+10	1
4902624	17	C	12/08/2024	18:40	-127.392	46.913	0	137.90	0	7.3519	0	33.8067	0	26.432	0	136.711	0	106.0	4	36.1	4	-1E+10	1	0.0365	4	0.000311	0	-1E+10	1	-1E+10	1	-1E+10	1
4902624	17	C	12/08/2024	18:40	-127.392	46.913	0	138.90	0	7.3375	0	33.8097	0	26.436	0	137.702	0	105.5	4	35.9	4	-1E+10	1	0.0365	4	0.000297	0	-1E+10	1	-1E+10	1	-1E+10	1
4902624	17	C	12/08/2024	18:40	-127.392	46.913	0	139.00	0	7.3360	0	33.8100	0	26.437	0	137.801	0	-1e10	1	-1e10	1	-1E+10	1	-1e10	1	-1e10	1	-1E+10	1	-1E+10	1	-1E+10	1
4902624	17	C	12/08/2024	18:40	-127.392	46.913	0	140.00	0	7.3212	0	33.8124	0	26.441	0	138.792	0	105.1	4	35.8	4	-1E+10	1	0.0365	4	0.000269	0	-1E+10	1	-1E+10	1	-1E+10	1
4902624	17	C	12/08/2024	18:40	-127.392	46.913	0	141.10	0	7.3050	0	33.8150	0	26.445	0	139.882	0	103.0	4	35.0	4	-1E+10	1	0.0365	4	0.000293	0	-1E+10	1	-1E+10	1	-1E+10	1
4902624	17	C	12/08/2024	18:40	-127.392	46.913	0	142.20	0	7.2998	0	33.8185	0	26.449	0	140.972	0	104.1	4	35.4	4	-1E+10	1	0.0511	4	0.000311	0	-1E+10	1	-1E+10	1	-1E+10	1
4902624	17	C	12/08/2024	18:40	-127.392	46.913	0	143.00	0	7.2960	0	33.8210	0	26.451	0	141.765	0	-1e10	1	-1e10	1	-1E+10	1	-1e10	1	-1e10	1	-1E+10	1	-1E+10	1	-1E+10	1
4902624	17	C	12/08/2024	18:40	-127.392	46.913	0	143.30	0	7.2855	0	33.8214	0	26.453	0	142.062	0	103.6	4	35.2	4	-1E+10	1	0.0511	4	0.000331	0	-1E+10	1	-1E+10	1	-1E+10	1
4902624	17	C	12/08/2024	18:40	-127.392	46.913	0	144.30	0	7.2505	0	33.8230	0	26.459	0	143.053	0	102.9	4	35.0	4	-1E+10	1	0.0466	4	0.000306	0	-1E+10	1	-1E+10	1	-1E+10	1
4902624	17	C	12/08/2024	18:40	-127.392	46.913	0	145.00	0	7.2260	0	33.8240	0	26.463	0	143.747	0	-1e10	1	-1e10	1	-1E+10	1	-1e10	1	-1e10	1	-1E+10	1	-1E+10	1	-1E+10	1
4902624	17	C	12/08/2024	18:40	-127.392	46.913	0	145.40	0	7.2140	0	33.8238	0	26.465	0	144.144	0	101.8	4	34.6	4	-1E+10	1	0.0394	4	0.000288	0	-1E+10	1	-1E+10	1	-1E+10	1
4902624	17	C	12/08/2024	18:40	-127.392	46.913	0	146.40	0	7.1840	0	33.8233	0	26.469	0	145.135	0	100.4	4	34.1	4	-1E+10	1	0.0432	4	0.000304	0	-1E+10	1	-1E+10	1	-1E+10	1
4902624	17	C	12/08/2024	18:40	-127.392	46.913	0	147.00	0	7.1660	0	33.8230	0	26.471	0	145.729	0	-1e10	1	-1e10	1	-1E+10	1	-1e10	1	-1e10	1	-1E+10	1	-1E+10	1	-1E+10	1
4902624	17	C	12/08/2024	18:40	-127.392	46.913	0	147.50	0	7.1762	0	33.8270	0	26.473	0	146.225	0	99.1	4	33.6	4	-1E+10	1	0.0511	4	0.000320	0	-1E+10	1	-1E+10	1	-1E+10	1
4902624	17	C	12/08/2024	18:40	-127.392	46.913	0	148.60	0	7.1988	0	33.8358	0	26.476	0	147.315	0	98.0	4	33.3	4	-1E+10	1	0.0496	4	0.000318	0	-1E+10	1	-1E+10	1	-1E+10	1
4902624	17	C	12/08/2024	18:40	-127.392	46.913	0	149.00	0	7.2070	0	33.8390	0	26.478	0	147.711	0	-1e10	1	-1e10	1	-1E+10	1	-1e10	1	-1e10	1	-1E+10	1	-1E+10	1	-1E+10	1
4902624	17	C	12/08/2024	18:40	-127.392	46.913	0	149.70	0	7.2098	0	33.8432	0	26.481	0	148.405	0	97.3	4	33.0	4	-1E+10	1	0.0455	4	0.000344	0	-1E+10	1	-1E+10	1	-1E+10	1
4902624	17	C	12/08/2024	18:40	-127.392	46.913	0	150.70	0	7.2138	0	33.8492	0	26.485	0	149.396	0	96.6	4	32.8	4	-1E+10	1	0.0511	4	0.000335	0	-1E+10	1	-1E+10	1	-1E+10	1
4902624	17	C	12/08/2024	18:40	-127.392	46.913	0	151.00	0	7.2150	0	33.8510	0	26.486	0	149.693	0	-1e10	1	-1e10	1	-1E+10	1	-1e10	1	-1e10	1	-1E+10	1	-1E+10	1	-1E+10	1
4902624	17	C	12/08/2024	18:40	-127.392	46.913	0	151.80	0	7.2179	0	33.8565	0	26.490	0	150.486	0	96.1	4	32.6	4	-1E+10	1	0.0511	4	0.000307	0	-1E+10	1	-1E+10	1	-1E+10	1
4902624	17	C	12/08/2024	18:40	-127.392	46.913	0	152.90	0	7.2220	0	33.8640	0	26.495	0	151.576	0	94.3	4	32.0	4	-1E+10	1	0.0670	4	0.000283	0	-1E+10	1	-1E+10	1	-1E+10	1
4902624	17	C	12/08/2024	18:40	-127.392	46.913	0	154.00	0	7.2105	0	33.8667	0	26.499	0	152.666	0	95.5	4	32.4	4	-1E+10	1	0.0550	4	0.000291	0	-1E+10	1	-1E+10	1	-1E+10	1
4902624	17	C	12/08/2024	18:40	-127.392	46.913	0	154.90	0	7.2010	0	33.8690	0	26.502	0	153.558	0	-1e10	1	-1e10	1	-1E+10	1	-1e10	1	-1e10	1	-1E+10	1	-1E+10	1	-1E+10	1
4902624	17	C	12/08/2024	18:40	-127.392	46.913	0	155.10	0	7.2005	0	33.8691	0	26.503	0	153.756	0	95.4	4	32.4	4	-1E+10	1	0.0472	4	0.000294	0	-1E+10	1	-1E+10	1	-1E+10	1
4902624	17	C	12/08/2024	18:40	-127.392	46.913	0	156.20	0	7.1979	0	33.8696	0	26.503	0	154.846	0	95.2	4	32.3	4	-1E+10	1	0.0458	4	0.000301	0	-1E+10	1	-1E+10	1	-1E+10	1
4902624	17	C	12/08/2024	18:40	-127.392	46.913	0	157.00	0	7.1960	0	33.8700	0	26.504	0	155.639	0	-1e10	1	-1e10	1	-1E+10	1	-1e10	1	-1e10	1	-1E+10	1	-1E+10	1	-1E+10	1
4902624	17	C	12/08/2024	18:40	-127.392	46.913	0	157.30	0	7.1951	0	33.8701	0	26.504	0	155.936	0	95.0	4	32.3	4	-1E+10	1	0.0410	4	0.000319	0	-1E+10	1	-1E+10	1	-1E+10	1
4902624	17	C	12/08/2024	18:40	-127.392	46.913	0	158.50	0	7.1915	0	33.8708	0	26.505	0	157.125	0	94.8	4	32.2	4	-1E+10	1	0.0511	4	0.000319	0	-1E+10	1	-1E+10	1	-1E+10	1
4902624	17	C	12/08/2024	18:40	-127.392	46.913	0	159.00	0	7.1900	0	33.8710	0	26.506	0	157.621	0	-1e10	1	-1e10	1	-1E+10	1	-1e10	1	-1e10	1	-1E+10	1	-1E+10	1	-1E+10	1
4902624	17	C	12/08/2024	18:40	-127.392	46.913	0	159.60	0	7.1868	0	33.8719	0	26.507	0	158.215	0	94.7	4	32.1	4	-1E+10	1	0.0511	4	0.000346	0	-1E+10	1	-1E+10	1	-1E+10	1
4902624	17	C	12/08/2024	18:40	-127.392	46.913	0	160.70	0	7.1811	0	33.8737	0	26.509	0	159.305	0	94.6	4	32.1	4	-1E+10	1	0.0438	4	0.000358	0	-1E+10	1	-1E+10	1	-1E+10	1
4902624	17	C	12/08/2024	18:40	-127.392	46.913	0	160.90	0	7.1800	0	33.8740	0	26.509	0	159.504	0	-1e10	1	-1e10	1	-1E+10	1	-1e10	1	-1e10	1	-1E+10	1	-1E+10	1	-1E+10	1
4902624	17	C	12/08/2024	18:40	-127.392	46.913	0	161.80	0	7.1671	0	33.8744	0	26.511	0	160.395	0	94.3	4	32.0	4	-1E+10	1	0.0495	4	0.000395	0	-1E+10	1	-1E+10	1	-1E+10	1
4902624	17	C	12/08/2024	18:40	-127.392	46.913	0	163.00	0	7.1500	0	33.8750	0	26.514	0	161.585	0	92.4	4	31.3	4	-1E+10	1	0.0464	4	0.000375	0	-1E+10	1	-1E+10	1	-1E+10	1
4902624	17	C	12/08/2024	18:40	-127.392	46.913	0	164.10	0	7.1351	0	33.8788	0	26.519	0	162.675	0	93.4	4	31.7	4	-1E+10	1	0.0438	4	0.000326	0	-1E+10	1	-1E+10	1	-1E+10	1
4902624	17	C	12/08/2024	18:40	-127.392	46.913	0	165.00	0	7.1230	0	33.8820	0	26.524	0	163.566	0	-1e10	1	-1e10	1	-1E+10	1	-1e10	1	-1e10	1	-1E+10	1	-1E+10	1	-1E+10	1
4902624	17	C	12/08/2024	18:40	-127.392	46.913	0	165.30	0	7.1204	0	33.8830	0	26.525	0	163.864	0	92.9	4	31.5	4	-1E+10	1	0.0556	4	0.000306	0	-1E+10	1	-1E+10	1	-1E+10	1
4902624	17	C	12/08/2024	18:40	-127.392	46.913	0	166.40	0	7.1110	0	33.8867	0	26.529	0	164.954	0	92.4	4	31.3	4	-1E+10	1	0.0657	4	0.000324	0	-1E+10	1	-1E+10	1	-1E+10	1
4902624	17	C	12/08/2024	18:40	-127.392	46.913	0	167.10	0	7.1050	0	33.8890	0	26.532	0	165.647	0	-1e10	1	-1e10	1	-1E+10	1	-1e10	1	-1e10	1	-1E+10	1	-1E+10	1	-1E+10	1
4902624	17	C	12/08/2024	18:40	-127.392	46.913	0	167.50	0	7.0949	0	33.8894	0	26.533	0	166.044	0	92.0	4	31.2	4	-1E+10	1	0.0630	4	0.000338	0	-1E+10	1	-1E+10	1	-1E+10	1
4902624	17	C	12/08/2024	18:40	-127.392	46.913	0	168.70	0	7.0646	0	33.8907	0	26.538	0	167.233	0	91.5	4	31.0	4	-1E+10	1	0.0527	4	0.000299	0	-1E+10	1	-1E+10	1	-1E+10	1
4902624	17	C	12/08/2024	18:40	-127.392	46.913	0	169.00	0	7.0570	0	33.8910	0	26.540	0	167.530	0	-1e10	1	-1e10	1	-1E+10	1	-1e10	1	-1e10	1	-1E+10	1	-1E+10	1	-1E+10	1
4902624	17	C	12/08/2024	18:40	-127.392	46.913	0	169.80	0	7.0478	0	33.8926	0	26.542	0	168.323	0	91.1	4	30.8	4	-1E+10	1	0.0584	4	0.000299	0	-1E+10	1	-1E+10	1	-1E+10	1
4902624	17	C	12/08/2024	18:40	-127.392	46.913	0	171.00	0	7.0340	0	33.8950	0	26.546	0	169.512	0	89.4	4	30.2	4	-1E+10	1	0.0459	4	0.000360	0	-1E+10	1	-1E+10	1	-1E+10	1
4902624	17	C	12/08/2024	18:40	-127.392	46.913	0	172.20	0	7.0202	0	33.8962	0	26.549	0	170.701	0	90.5	4	30.6	4	-1E+10	1	0.0377	4	0.000546	0	-1E+10	1	-1E+10	1	-1E+10	1
4902624	17	C	12/08/2024	18:40	-127.392	46.913	0	173.00	0	7.0110	0	33.8970	0	26.551	0	171.494	0	-1e10	1	-1e10	1	-1E+10	1	-1e10	1	-1e10	1	-1E+10	1	-1E+10	1	-1E+10	1
4902624	17	C	12/08/2024	18:40	-127.392	46.913	0	173.30	0	7.0082	0	33.8970	0	26.551	0	171.791	0	90.2	4	30.5	4	-1E+10	1	0.0365	4	0.000408	0	-1E+10	1	-1E+10	1	-1E+10	1
4902624	17	C	12/08/2024	18:40	-127.392	46.913	0	174.50	0	6.9967	0	33.8970	0	26.553	0	172.980	0	90.0	4	30.4	4	-1E+10	1	0.0438	4	0.000305	0	-1E+10	1	-1E+10	1	-1E+10	1
4902624	17	C	12/08/2024	18:40	-127.392	46.913	0	175.00	0	6.9920	0	33.8970	0	26.553	0	173.475	0	-1e10	1	-1e10	1	-1E+10	1	-1e10	1	-1e10	1	-1E+10	1	-1E+10	1	-1E+10	1
4902624	17	C	12/08/2024	18:40	-127.392	46.913	0	175.70	0	6.9812	0	33.8980	0	26.556	0	174.169	0	89.8	4	30.3	4	-1E+10	1	0.0481	4	0.000299	0	-1E+10	1	-1E+10	1	-1E+10	1
4902624	17	C	12/08/2024	18:40	-127.392	46.913	0	176.80	0	6.9641	0	33.8997	0	26.559	0	175.259	0	89.7	4	30.3	4	-1E+10	1	0.0417	4	0.000303	0	-1E+10	1	-1E+10	1	-1E+10	1
4902624	17	C	12/08/2024	18:40	-127.392	46.913	0	177.00	0	6.9610	0	33.9000	0	26.560	0	175.457	0	-1e10	1	-1e10	1	-1E+10	1	-1e10	1	-1e10	1	-1E+10	1	-1E+10	1	-1E+10	1
4902624	17	C	12/08/2024	18:40	-127.392	46.913	0	178.00	0	6.9545	0	33.8995	0	26.561	0	176.448	0	89.6	4	30.2	4	-1E+10	1	0.0386	4	0.000316	0	-1E+10	1	-1E+10	1	-1E+10	1
4902624	17	C	12/08/2024	18:40	-127.392	46.913	0	179.00	0	6.9480	0	33.8990	0	26.561	0	177.439	0	-1e10	1	-1e10	1	-1E+10	1	-1e10	1	-1e10	1	-1E+10	1	-1E+10	1	-1E+10	1
4902624	17	C	12/08/2024	18:40	-127.392	46.913	0	179.20	0	6.9425	0	33.8988	0	26.562	0	177.637	0	89.4	4	30.2	4	-1E+10	1	0.0511	4	0.000346	0	-1E+10	1	-1E+10	1	-1E+10	1
4902624	17	C	12/08/2024	18:40	-127.392	46.913	0	180.40	0	6.9095	0	33.8976	0	26.565	0	178.826	0	89.2	4	30.1	4	-1E+10	1	0.0438	4	0.000358	0	-1E+10	1	-1E+10	1	-1E+10	1
4902624	17	C	12/08/2024	18:40	-127.392	46.913	0	181.00	0	6.8930	0	33.8970	0	26.567	0	179.420	0	-1e10	1	-1e10	1	-1E+10	1	-1e10	1	-1e10	1	-1E+10	1	-1E+10	1	-1E+10	1
4902624	17	C	12/08/2024	18:40	-127.392	46.913	0	181.60	0	6.8816	0	33.8967	0	26.568	0	180.015	0	88.7	4	29.9	4	-1E+10	1	0.0380	4	0.000321	0	-1E+10	1	-1E+10	1	-1E+10	1
4902624	17	C	12/08/2024	18:40	-127.392	46.913	0	182.90	0	6.8569	0	33.8960	0	26.571	0	181.303	0	88.2	4	29.7	4	-1E+10	1	0.0469	4	0.000286	0	-1E+10	1	-1E+10	1	-1E+10	1
4902624	17	C	12/08/2024	18:40	-127.392	46.913	0	183.00	0	6.8550	0	33.8960	0	26.571	0	181.402	0	-1e10	1	-1e10	1	-1E+10	1	-1e10	1	-1e10	1	-1E+10	1	-1E+10	1	-1E+10	1
4902624	17	C	12/08/2024	18:40	-127.392	46.913	0	184.10	0	6.8405	0	33.8972	0	26.574	0	182.492	0	87.4	4	29.4	4	-1E+10	1	0.0511	4	0.000283	0	-1E+10	1	-1E+10	1	-1E+10	1
4902624	17	C	12/08/2024	18:40	-127.392	46.913	0	184.90	0	6.8300	0	33.8980	0	26.576	0	183.285	0	-1e10	1	-1e10	1	-1E+10	1	-1e10	1	-1e10	1	-1E+10	1	-1E+10	1	-1E+10	1
4902624	17	C	12/08/2024	18:40	-127.392	46.913	0	185.30	0	6.8273	0	33.8988	0	26.577	0	183.681	0	87.1	4	29.3	4	-1E+10	1	0.0474	4	0.000311	0	-1E+10	1	-1E+10	1	-1E+10	1
4902624	17	C	12/08/2024	18:40	-127.392	46.913	0	186.50	0	6.8193	0	33.9010	0	26.580	0	184.870	0	86.7	4	29.2	4	-1E+10	1	0.0462	4	0.000319	0	-1E+10	1	-1E+10	1	-1E+10	1
4902624	17	C	12/08/2024	18:40	-127.392	46.913	0	187.00	0	6.8160	0	33.9020	0	26.581	0	185.365	0	-1e10	1	-1e10	1	-1E+10	1	-1e10	1	-1e10	1	-1E+10	1	-1E+10	1	-1E+10	1
4902624	17	C	12/08/2024	18:40	-127.392	46.913	0	187.70	0	6.8047	0	33.9023	0	26.583	0	186.059	0	86.4	4	29.1	4	-1E+10	1	0.0487	4	0.000286	0	-1E+10	1	-1E+10	1	-1E+10	1
4902624	17	C	12/08/2024	18:40	-127.392	46.913	0	189.00	0	6.7836	0	33.9030	0	26.586	0	187.347	0	86.0	4	28.9	4	-1E+10	1	0.0423	4	0.000276	0	-1E+10	1	-1E+10	1	-1E+10	1
4902624	17	C	12/08/2024	18:40	-127.392	46.913	0	189.10	0	6.7820	0	33.9030	0	26.587	0	187.446	0	-1e10	1	-1e10	1	-1E+10	1	-1e10	1	-1e10	1	-1E+10	1	-1E+10	1	-1E+10	1
4902624	17	C	12/08/2024	18:40	-127.392	46.913	0	190.20	0	6.7743	0	33.9030	0	26.588	0	188.536	0	85.4	4	28.7	4	-1E+10	1	0.0657	4	0.000276	0	-1E+10	1	-1E+10	1	-1E+10	1
4902624	17	C	12/08/2024	18:40	-127.392	46.913	0	191.10	0	6.7680	0	33.9030	0	26.589	0	189.428	0	-1e10	1	-1e10	1	-1E+10	1	-1e10	1	-1e10	1	-1E+10	1	-1E+10	1	-1E+10	1
4902624	17	C	12/08/2024	18:40	-127.392	46.913	0	191.50	0	6.7712	0	33.9045	0	26.589	0	189.824	0	85.0	4	28.6	4	-1E+10	1	0.0467	4	0.000276	0	-1E+10	1	-1E+10	1	-1E+10	1
4902624	17	C	12/08/2024	18:40	-127.392	46.913	0	192.70	0	6.7806	0	33.9089	0	26.592	0	191.013	0	84.9	4	28.5	4	-1E+10	1	0.0377	4	0.000315	0	-1E+10	1	-1E+10	1	-1E+10	1
4902624	17	C	12/08/2024	18:40	-127.392	46.913	0	193.00	0	6.7830	0	33.9100	0	26.592	0	191.310	0	-1e10	1	-1e10	1	-1E+10	1	-1e10	1	-1e10	1	-1E+10	1	-1E+10	1	-1E+10	1
4902624	17	C	12/08/2024	18:40	-127.392	46.913	0	193.90	0	6.7740	0	33.9104	0	26.594	0	192.202	0	84.8	4	28.5	4	-1E+10	1	0.0462	4	0.000448	0	-1E+10	1	-1E+10	1	-1E+10	1
4902624	17	C	12/08/2024	18:40	-127.392	46.913	0	195.00	0	6.7630	0	33.9110	0	26.596	0	193.292	0	-1e10	1	-1e10	1	-1E+10	1	-1e10	1	-1e10	1	-1E+10	1	-1E+10	1	-1E+10	1
4902624	17	C	12/08/2024	18:40	-127.392	46.913	0	195.10	0	6.7627	0	33.9113	0	26.596	0	193.391	0	84.6	4	28.5	4	-1E+10	1	0.0548	4	0.000399	0	-1E+10	1	-1E+10	1	-1E+10	1
4902624	17	C	12/08/2024	18:40	-127.392	46.913	0	196.30	0	6.7596	0	33.9144	0	26.599	0	194.580	0	84.8	4	28.5	4	-1E+10	1	0.0584	4	0.000439	0	-1E+10	1	-1E+10	1	-1E+10	1
4902624	17	C	12/08/2024	18:40	-127.392	46.913	0	196.90	0	6.7580	0	33.9160	0	26.600	0	195.174	0	-1e10	1	-1e10	1	-1E+10	1	-1e10	1	-1e10	1	-1E+10	1	-1E+10	1	-1E+10	1
4902624	17	C	12/08/2024	18:40	-127.392	46.913	0	197.50	0	6.7523	0	33.9157	0	26.601	0	195.769	0	85.2	4	28.6	4	-1E+10	1	0.0560	4	0.000534	0	-1E+10	1	-1E+10	1	-1E+10	1
4902624	17	C	12/08/2024	18:40	-127.392	46.913	0	198.70	0	6.7409	0	33.9151	0	26.602	0	196.958	0	85.6	4	28.8	4	-1E+10	1	0.0501	4	0.000303	0	-1E+10	1	-1E+10	1	-1E+10	1
4902624	17	C	12/08/2024	18:40	-127.392	46.913	0	199.00	0	6.7380	0	33.9150	0	26.602	0	197.255	0	-1e10	1	-1e10	1	-1E+10	1	-1e10	1	-1e10	1	-1E+10	1	-1E+10	1	-1E+10	1
4902624	17	C	12/08/2024	18:40	-127.392	46.913	0	199.90	0	6.7204	0	33.9141	0	26.604	0	198.146	0	85.8	4	28.8	4	-1E+10	1	0.0438	4	0.000323	0	-1E+10	1	-1E+10	1	-1E+10	1
4902624	17	C	12/08/2024	18:40	-127.392	46.913	0	201.10	0	6.6970	0	33.9130	0	26.606	0	199.335	0	-1e10	1	-1e10	1	-1E+10	1	-1e10	1	-1e10	1	-1E+10	1	-1E+10	1	-1E+10	1
4902624	17	C	12/08/2024	18:40	-127.392	46.913	0	201.20	0	6.6944	0	33.9129	0	26.606	0	199.434	0	86.0	4	28.9	4	-1E+10	1	0.0511	4	0.000499	0	-1E+10	1	-1E+10	1	-1E+10	1
4902624	17	C	12/08/2024	18:40	-127.392	46.913	0	202.40	0	6.6635	0	33.9116	0	26.609	0	200.623	0	86.0	4	28.9	4	-1E+10	1	0.0574	4	0.000308	0	-1E+10	1	-1E+10	1	-1E+10	1
4902624	17	C	12/08/2024	18:40	-127.392	46.913	0	203.00	0	6.6480	0	33.9110	0	26.611	0	201.218	0	-1e10	1	-1e10	1	-1E+10	1	-1e10	1	-1e10	1	-1E+10	1	-1E+10	1	-1E+10	1
4902624	17	C	12/08/2024	18:40	-127.392	46.913	0	203.60	0	6.6420	0	33.9104	0	26.611	0	201.812	0	86.0	4	28.8	4	-1E+10	1	0.0480	4	0.000343	0	-1E+10	1	-1E+10	1	-1E+10	1
4902624	17	C	12/08/2024	18:40	-127.392	46.913	0	204.70	0	6.6310	0	33.9092	0	26.612	0	202.902	0	85.8	4	28.8	4	-1E+10	1	0.0438	4	0.000340	0	-1E+10	1	-1E+10	1	-1E+10	1
4902624	17	C	12/08/2024	18:40	-127.392	46.913	0	204.90	0	6.6290	0	33.9090	0	26.612	0	203.100	0	-1e10	1	-1e10	1	-1E+10	1	-1e10	1	-1e10	1	-1E+10	1	-1E+10	1	-1E+10	1
4902624	17	C	12/08/2024	18:40	-127.392	46.913	0	205.70	0	6.6230	0	33.9086	0	26.612	0	203.893	0	85.7	4	28.7	4	-1E+10	1	0.0478	4	0.000316	0	-1E+10	1	-1E+10	1	-1E+10	1
4902624	17	C	12/08/2024	18:40	-127.392	46.913	0	206.50	0	6.6170	0	33.9082	0	26.613	0	204.685	0	85.6	4	28.7	4	-1E+10	1	0.0511	4	0.000330	0	-1E+10	1	-1E+10	1	-1E+10	1
4902624	17	C	12/08/2024	18:40	-127.392	46.913	0	206.90	0	6.6140	0	33.9080	0	26.613	0	205.082	0	-1e10	1	-1e10	1	-1E+10	1	-1e10	1	-1e10	1	-1E+10	1	-1E+10	1	-1E+10	1
4902624	17	C	12/08/2024	18:40	-127.392	46.913	0	207.30	0	6.6047	0	33.9084	0	26.615	0	205.478	0	85.4	4	28.6	4	-1E+10	1	0.0511	4	0.000370	0	-1E+10	1	-1E+10	1	-1E+10	1
4902624	17	C	12/08/2024	18:40	-127.392	46.913	0	208.00	0	6.5885	0	33.9090	0	26.617	0	206.171	0	85.1	4	28.5	4	-1E+10	1	0.0511	4	0.000366	0	-1E+10	1	-1E+10	1	-1E+10	1
4902624	17	C	12/08/2024	18:40	-127.392	46.913	0	208.80	0	6.5700	0	33.9097	0	26.620	0	206.964	0	85.0	4	28.4	4	-1E+10	1	0.0511	4	0.000334	0	-1E+10	1	-1E+10	1	-1E+10	1
4902624	17	C	12/08/2024	18:40	-127.392	46.913	0	209.10	0	6.5630	0	33.9100	0	26.622	0	207.261	0	-1e10	1	-1e10	1	-1E+10	1	-1e10	1	-1e10	1	-1E+10	1	-1E+10	1	-1E+10	1
4902624	17	C	12/08/2024	18:40	-127.392	46.913	0	209.70	0	6.5600	0	33.9106	0	26.622	0	207.856	0	84.7	4	28.4	4	-1E+10	1	0.0511	4	0.000264	0	-1E+10	1	-1E+10	1	-1E+10	1
4902624	17	C	12/08/2024	18:40	-127.392	46.913	0	210.40	0	6.5565	0	33.9113	0	26.623	0	208.549	0	84.4	4	28.2	4	-1E+10	1	0.0657	4	0.000393	0	-1E+10	1	-1E+10	1	-1E+10	1
4902624	17	C	12/08/2024	18:40	-127.392	46.913	0	211.10	0	6.5530	0	33.9120	0	26.624	0	209.243	0	83.0	4	27.8	4	-1E+10	1	0.0555	4	0.000352	0	-1E+10	1	-1E+10	1	-1E+10	1
4902624	17	C	12/08/2024	18:40	-127.392	46.913	0	211.80	0	6.5508	0	33.9120	0	26.625	0	209.936	0	84.2	4	28.2	4	-1E+10	1	0.0553	4	0.000314	0	-1E+10	1	-1E+10	1	-1E+10	1
4902624	17	C	12/08/2024	18:40	-127.392	46.913	0	212.60	0	6.5483	0	33.9120	0	26.625	0	210.729	0	84.0	4	28.1	4	-1E+10	1	0.0538	4	0.000299	0	-1E+10	1	-1E+10	1	-1E+10	1
4902624	17	C	12/08/2024	18:40	-127.392	46.913	0	213.00	0	6.5470	0	33.9120	0	26.625	0	211.125	0	-1e10	1	-1e10	1	-1E+10	1	-1e10	1	-1e10	1	-1E+10	1	-1E+10	1	-1E+10	1
4902624	17	C	12/08/2024	18:40	-127.392	46.913	0	213.40	0	6.5434	0	33.9122	0	26.626	0	211.521	0	83.7	4	28.0	4	-1E+10	1	0.0548	4	0.000293	0	-1E+10	1	-1E+10	1	-1E+10	1
4902624	17	C	12/08/2024	18:40	-127.392	46.913	0	214.20	0	6.5363	0	33.9126	0	26.627	0	212.314	0	83.4	4	27.9	4	-1E+10	1	0.0560	4	0.000272	0	-1E+10	1	-1E+10	1	-1E+10	1
4902624	17	C	12/08/2024	18:40	-127.392	46.913	0	214.90	0	6.5300	0	33.9130	0	26.628	0	213.007	0	-1e10	1	-1e10	1	-1E+10	1	-1e10	1	-1e10	1	-1E+10	1	-1E+10	1	-1E+10	1
4902624	17	C	12/08/2024	18:40	-127.392	46.913	0	215.00	0	6.5289	0	33.9131	0	26.628	0	213.106	0	83.2	4	27.8	4	-1E+10	1	0.0493	4	0.000287	0	-1E+10	1	-1E+10	1	-1E+10	1
4902624	17	C	12/08/2024	18:40	-127.392	46.913	0	215.80	0	6.5202	0	33.9138	0	26.630	0	213.899	0	83.0	4	27.8	4	-1E+10	1	0.0438	4	0.000399	0	-1E+10	1	-1E+10	1	-1E+10	1
4902624	17	C	12/08/2024	18:40	-127.392	46.913	0	216.50	0	6.5125	0	33.9145	0	26.632	0	214.592	0	82.8	4	27.7	4	-1E+10	1	0.0438	4	0.000299	0	-1E+10	1	-1E+10	1	-1E+10	1
4902624	17	C	12/08/2024	18:40	-127.392	46.913	0	217.10	0	6.5060	0	33.9150	0	26.633	0	215.187	0	-1e10	1	-1e10	1	-1E+10	1	-1e10	1	-1e10	1	-1E+10	1	-1E+10	1	-1E+10	1
4902624	17	C	12/08/2024	18:40	-127.392	46.913	0	217.30	0	6.5015	0	33.9150	0	26.634	0	215.385	0	82.7	4	27.6	4	-1E+10	1	0.0496	4	0.000299	0	-1E+10	1	-1E+10	1	-1E+10	1
4902624	17	C	12/08/2024	18:40	-127.392	46.913	0	218.20	0	6.4812	0	33.9150	0	26.636	0	216.276	0	82.5	4	27.5	4	-1E+10	1	0.0575	4	0.000299	0	-1E+10	1	-1E+10	1	-1E+10	1
4902624	17	C	12/08/2024	18:40	-127.392	46.913	0	219.00	0	6.4633	0	33.9150	0	26.639	0	217.069	0	82.1	4	27.4	4	-1E+10	1	0.0533	4	0.000283	0	-1E+10	1	-1E+10	1	-1E+10	1
4902624	17	C	12/08/2024	18:40	-127.392	46.913	0	219.10	0	6.4610	0	33.9150	0	26.639	0	217.168	0	-1e10	1	-1e10	1	-1E+10	1	-1e10	1	-1e10	1	-1E+10	1	-1E+10	1	-1E+10	1
4902624	17	C	12/08/2024	18:40	-127.392	46.913	0	219.80	0	6.4437	0	33.9146	0	26.641	0	217.861	0	81.9	4	27.3	4	-1E+10	1	0.0511	4	0.000269	0	-1E+10	1	-1E+10	1	-1E+10	1
4902624	17	C	12/08/2024	18:40	-127.392	46.913	0	220.60	0	6.4239	0	33.9142	0	26.643	0	218.654	0	81.5	4	27.2	4	-1E+10	1	0.0479	4	0.000394	0	-1E+10	1	-1E+10	1	-1E+10	1
4902624	17	C	12/08/2024	18:40	-127.392	46.913	0	221.00	0	6.4140	0	33.9140	0	26.644	0	219.050	0	-1e10	1	-1e10	1	-1E+10	1	-1e10	1	-1e10	1	-1E+10	1	-1E+10	1	-1E+10	1
4902624	17	C	12/08/2024	18:40	-127.392	46.913	0	221.40	0	6.4159	0	33.9144	0	26.644	0	219.446	0	81.1	4	27.0	4	-1E+10	1	0.0460	4	0.000466	0	-1E+10	1	-1E+10	1	-1E+10	1
4902624	17	C	12/08/2024	18:40	-127.392	46.913	0	222.20	0	6.4197	0	33.9153	0	26.645	0	220.239	0	80.7	4	26.9	4	-1E+10	1	0.0511	4	0.000257	0	-1E+10	1	-1E+10	1	-1E+10	1
4902624	17	C	12/08/2024	18:40	-127.392	46.913	0	222.90	0	6.4230	0	33.9160	0	26.645	0	220.932	0	-1e10	1	-1e10	1	-1E+10	1	-1e10	1	-1e10	1	-1E+10	1	-1E+10	1	-1E+10	1
4902624	17	C	12/08/2024	18:40	-127.392	46.913	0	223.10	0	6.4204	0	33.9163	0	26.645	0	221.131	0	80.3	4	26.8	4	-1E+10	1	0.0511	4	0.000299	0	-1E+10	1	-1E+10	1	-1E+10	1
4902624	17	C	12/08/2024	18:40	-127.392	46.913	0	223.90	0	6.4101	0	33.9174	0	26.647	0	221.923	0	79.9	4	26.6	4	-1E+10	1	0.0584	4	0.000276	0	-1E+10	1	-1E+10	1	-1E+10	1
4902624	17	C	12/08/2024	18:40	-127.392	46.913	0	224.80	0	6.3986	0	33.9187	0	26.650	0	222.815	0	79.4	4	26.5	4	-1E+10	1	0.0584	4	0.000265	0	-1E+10	1	-1E+10	1	-1E+10	1
4902624	17	C	12/08/2024	18:40	-127.392	46.913	0	225.00	0	6.3960	0	33.9190	0	26.651	0	223.013	0	-1e10	1	-1e10	1	-1E+10	1	-1e10	1	-1e10	1	-1E+10	1	-1E+10	1	-1E+10	1
4902624	17	C	12/08/2024	18:40	-127.392	46.913	0	225.60	0	6.3939	0	33.9202	0	26.652	0	223.607	0	78.9	4	26.3	4	-1E+10	1	0.0491	4	0.000279	0	-1E+10	1	-1E+10	1	-1E+10	1
4902624	17	C	12/08/2024	18:40	-127.392	46.913	0	226.50	0	6.3907	0	33.9220	0	26.654	0	224.499	0	78.5	4	26.2	4	-1E+10	1	0.0529	4	0.000302	0	-1E+10	1	-1E+10	1	-1E+10	1
4902624	17	C	12/08/2024	18:40	-127.392	46.913	0	227.00	0	6.3890	0	33.9230	0	26.655	0	224.994	0	-1e10	1	-1e10	1	-1E+10	1	-1e10	1	-1e10	1	-1E+10	1	-1E+10	1	-1E+10	1
4902624	17	C	12/08/2024	18:40	-127.392	46.913	0	227.30	0	6.3893	0	33.9235	0	26.655	0	225.291	0	78.2	4	26.1	4	-1E+10	1	0.0548	4	0.000281	0	-1E+10	1	-1E+10	1	-1E+10	1
4902624	17	C	12/08/2024	18:40	-127.392	46.913	0	228.20	0	6.3902	0	33.9248	0	26.656	0	226.183	0	77.7	4	25.9	4	-1E+10	1	0.0538	4	0.000273	0	-1E+10	1	-1E+10	1	-1E+10	1
4902624	17	C	12/08/2024	18:40	-127.392	46.913	0	229.00	0	6.3910	0	33.9260	0	26.657	0	226.975	0	76.0	4	25.3	4	-1E+10	1	0.0575	4	0.000309	0	-1E+10	1	-1E+10	1	-1E+10	1
4902624	17	C	12/08/2024	18:40	-127.392	46.913	0	229.90	0	6.3870	0	33.9260	0	26.657	0	227.867	0	76.7	4	25.6	4	-1E+10	1	0.0524	4	0.000310	0	-1E+10	1	-1E+10	1	-1E+10	1
4902624	17	C	12/08/2024	18:40	-127.392	46.913	0	230.80	0	6.3829	0	33.9260	0	26.658	0	228.758	0	76.1	4	25.4	4	-1E+10	1	0.0584	4	0.000358	0	-1E+10	1	-1E+10	1	-1E+10	1
4902624	17	C	12/08/2024	18:40	-127.392	46.913	0	231.00	0	6.3820	0	33.9260	0	26.658	0	228.956	0	-1e10	1	-1e10	1	-1E+10	1	-1e10	1	-1e10	1	-1E+10	1	-1E+10	1	-1E+10	1
4902624	17	C	12/08/2024	18:40	-127.392	46.913	0	231.70	0	6.3776	0	33.9267	0	26.659	0	229.650	0	75.5	4	25.2	4	-1E+10	1	0.0518	4	0.000273	0	-1E+10	1	-1E+10	1	-1E+10	1
4902624	17	C	12/08/2024	18:40	-127.392	46.913	0	232.50	0	6.3725	0	33.9276	0	26.660	0	230.442	0	74.9	4	25.0	4	-1E+10	1	0.0568	4	0.000264	0	-1E+10	1	-1E+10	1	-1E+10	1
4902624	17	C	12/08/2024	18:40	-127.392	46.913	0	232.90	0	6.3700	0	33.9280	0	26.661	0	230.839	0	-1e10	1	-1e10	1	-1E+10	1	-1e10	1	-1e10	1	-1E+10	1	-1E+10	1	-1E+10	1
4902624	17	C	12/08/2024	18:40	-127.392	46.913	0	233.40	0	6.3707	0	33.9295	0	26.662	0	231.334	0	74.3	4	24.7	4	-1E+10	1	0.0431	4	0.000256	0	-1E+10	1	-1E+10	1	-1E+10	1
4902624	17	C	12/08/2024	18:40	-127.392	46.913	0	234.30	0	6.3721	0	33.9322	0	26.664	0	232.225	0	73.7	4	24.6	4	-1E+10	1	0.0365	4	0.000271	0	-1E+10	1	-1E+10	1	-1E+10	1
4902624	17	C	12/08/2024	18:40	-127.392	46.913	0	234.90	0	6.3730	0	33.9340	0	26.666	0	232.820	0	-1e10	1	-1e10	1	-1E+10	1	-1e10	1	-1e10	1	-1E+10	1	-1E+10	1	-1E+10	1
4902624	17	C	12/08/2024	18:40	-127.392	46.913	0	235.20	0	6.3748	0	33.9352	0	26.666	0	233.117	0	73.2	4	24.4	4	-1E+10	1	0.0397	4	0.000277	0	-1E+10	1	-1E+10	1	-1E+10	1
4902624	17	C	12/08/2024	18:40	-127.392	46.913	0	236.10	0	6.3802	0	33.9388	0	26.668	0	234.008	0	72.8	4	24.3	4	-1E+10	1	0.0491	4	0.000268	0	-1E+10	1	-1E+10	1	-1E+10	1
4902624	17	C	12/08/2024	18:40	-127.392	46.913	0	236.90	0	6.3850	0	33.9420	0	26.670	0	234.801	0	-1e10	1	-1e10	1	-1E+10	1	-1e10	1	-1e10	1	-1E+10	1	-1E+10	1	-1E+10	1
4902624	17	C	12/08/2024	18:40	-127.392	46.913	0	237.00	0	6.3847	0	33.9422	0	26.671	0	234.900	0	72.5	4	24.2	4	-1E+10	1	0.0584	4	0.000269	0	-1E+10	1	-1E+10	1	-1E+10	1
4902624	17	C	12/08/2024	18:40	-127.392	46.913	0	237.90	0	6.3815	0	33.9440	0	26.672	0	235.791	0	72.4	4	24.1	4	-1E+10	1	0.0584	4	0.000240	0	-1E+10	1	-1E+10	1	-1E+10	1
4902624	17	C	12/08/2024	18:40	-127.392	46.913	0	238.80	0	6.3783	0	33.9458	0	26.674	0	236.683	0	72.4	4	24.1	4	-1E+10	1	0.0438	4	0.000334	0	-1E+10	1	-1E+10	1	-1E+10	1
4902624	17	C	12/08/2024	18:40	-127.392	46.913	0	238.90	0	6.3780	0	33.9460	0	26.674	0	236.782	0	-1e10	1	-1e10	1	-1E+10	1	-1e10	1	-1e10	1	-1E+10	1	-1E+10	1	-1E+10	1
4902624	17	C	12/08/2024	18:40	-127.392	46.913	0	239.70	0	6.3660	0	33.9456	0	26.676	0	237.574	0	72.3	4	24.1	4	-1E+10	1	0.0557	4	0.000334	0	-1E+10	1	-1E+10	1	-1E+10	1
4902624	17	C	12/08/2024	18:40	-127.392	46.913	0	240.60	0	6.3525	0	33.9451	0	26.677	0	238.466	0	72.2	4	24.1	4	-1E+10	1	0.0491	4	0.000297	0	-1E+10	1	-1E+10	1	-1E+10	1
4902624	17	C	12/08/2024	18:40	-127.392	46.913	0	240.90	0	6.3480	0	33.9450	0	26.677	0	238.763	0	-1e10	1	-1e10	1	-1E+10	1	-1e10	1	-1e10	1	-1E+10	1	-1E+10	1	-1E+10	1
4902624	17	C	12/08/2024	18:40	-127.392	46.913	0	241.50	0	6.3435	0	33.9450	0	26.678	0	239.357	0	72.1	4	24.0	4	-1E+10	1	0.0600	4	0.000569	0	-1E+10	1	-1E+10	1	-1E+10	1
4902624	17	C	12/08/2024	18:40	-127.392	46.913	0	242.40	0	6.3368	0	33.9450	0	26.679	0	240.249	0	72.0	4	24.0	4	-1E+10	1	0.0664	4	0.000569	0	-1E+10	1	-1E+10	1	-1E+10	1
4902624	17	C	12/08/2024	18:40	-127.392	46.913	0	242.90	0	6.3330	0	33.9450	0	26.679	0	240.744	0	-1e10	1	-1e10	1	-1E+10	1	-1e10	1	-1e10	1	-1E+10	1	-1E+10	1	-1E+10	1
4902624	17	C	12/08/2024	18:40	-127.392	46.913	0	243.30	0	6.3252	0	33.9452	0	26.681	0	241.140	0	71.8	4	23.9	4	-1E+10	1	0.0564	4	0.000287	0	-1E+10	1	-1E+10	1	-1E+10	1
4902624	17	C	12/08/2024	18:40	-127.392	46.913	0	244.20	0	6.3076	0	33.9456	0	26.683	0	242.032	0	71.5	4	23.8	4	-1E+10	1	0.0519	4	0.000281	0	-1E+10	1	-1E+10	1	-1E+10	1
4902624	17	C	12/08/2024	18:40	-127.392	46.913	0	245.00	0	6.2920	0	33.9460	0	26.686	0	242.824	0	-1e10	1	-1e10	1	-1E+10	1	-1e10	1	-1e10	1	-1E+10	1	-1E+10	1	-1E+10	1
4902624	17	C	12/08/2024	18:40	-127.392	46.913	0	245.20	0	6.2911	0	33.9461	0	26.686	0	243.022	0	71.2	4	23.7	4	-1E+10	1	0.0584	4	0.000240	0	-1E+10	1	-1E+10	1	-1E+10	1
4902624	17	C	12/08/2024	18:40	-127.392	46.913	0	246.10	0	6.2873	0	33.9465	0	26.687	0	243.914	0	71.0	4	23.6	4	-1E+10	1	0.0584	4	0.000275	0	-1E+10	1	-1E+10	1	-1E+10	1
4902624	17	C	12/08/2024	18:40	-127.392	46.913	0	247.10	0	6.2830	0	33.9470	0	26.688	0	244.904	0	69.6	4	23.2	4	-1E+10	1	0.0518	4	0.000254	0	-1E+10	1	-1E+10	1	-1E+10	1
4902624	17	C	12/08/2024	18:40	-127.392	46.913	0	248.00	0	6.2882	0	33.9498	0	26.689	0	245.796	0	70.8	4	23.6	4	-1E+10	1	0.0706	4	0.000273	0	-1E+10	1	-1E+10	1	-1E+10	1
4902624	17	C	12/08/2024	18:40	-127.392	46.913	0	248.90	0	6.2934	0	33.9527	0	26.691	0	246.687	0	71.1	4	23.7	4	-1E+10	1	0.0633	4	0.000268	0	-1E+10	1	-1E+10	1	-1E+10	1
4902624	17	C	12/08/2024	18:40	-127.392	46.913	0	249.00	0	6.2940	0	33.9530	0	26.691	0	246.786	0	-1e10	1	-1e10	1	-1E+10	1	-1e10	1	-1e10	1	-1E+10	1	-1E+10	1	-1E+10	1
4902624	17	C	12/08/2024	18:40	-127.392	46.913	0	249.80	0	6.2748	0	33.9522	0	26.693	0	247.579	0	71.4	4	23.7	4	-1E+10	1	0.0551	4	0.000594	0	-1E+10	1	-1E+10	1	-1E+10	1
4902624	17	C	12/08/2024	18:40	-127.392	46.913	0	250.80	0	6.2508	0	33.9512	0	26.695	0	248.569	0	71.5	4	23.8	4	-1E+10	1	0.0511	4	0.000700	0	-1E+10	1	-1E+10	1	-1E+10	1
4902624	17	C	12/08/2024	18:40	-127.392	46.913	0	251.00	0	6.2460	0	33.9510	0	26.695	0	248.767	0	-1e10	1	-1e10	1	-1E+10	1	-1e10	1	-1e10	1	-1E+10	1	-1E+10	1	-1E+10	1
4902624	17	C	12/08/2024	18:40	-127.392	46.913	0	251.70	0	6.2201	0	33.9482	0	26.697	0	249.461	0	71.4	4	23.7	4	-1E+10	1	0.0511	4	0.000264	0	-1E+10	1	-1E+10	1	-1E+10	1
4902624	17	C	12/08/2024	18:40	-127.392	46.913	0	252.70	0	6.1831	0	33.9442	0	26.698	0	250.451	0	71.1	4	23.6	4	-1E+10	1	0.0499	4	0.000271	0	-1E+10	1	-1E+10	1	-1E+10	1
4902624	17	C	12/08/2024	18:40	-127.392	46.913	0	253.00	0	6.1720	0	33.9430	0	26.699	0	250.748	0	-1e10	1	-1e10	1	-1E+10	1	-1e10	1	-1e10	1	-1E+10	1	-1E+10	1	-1E+10	1
4902624	17	C	12/08/2024	18:40	-127.392	46.913	0	253.70	0	6.1573	0	33.9434	0	26.701	0	251.442	0	70.8	4	23.5	4	-1E+10	1	0.0438	4	0.000311	0	-1E+10	1	-1E+10	1	-1E+10	1
4902624	17	C	12/08/2024	18:40	-127.392	46.913	0	254.60	0	6.1383	0	33.9438	0	26.704	0	252.333	0	70.5	4	23.4	4	-1E+10	1	0.0657	4	0.000275	0	-1E+10	1	-1E+10	1	-1E+10	1
4902624	17	C	12/08/2024	18:40	-127.392	46.913	0	254.90	0	6.1320	0	33.9440	0	26.704	0	252.630	0	-1e10	1	-1e10	1	-1E+10	1	-1e10	1	-1e10	1	-1E+10	1	-1E+10	1	-1E+10	1
4902624	17	C	12/08/2024	18:40	-127.392	46.913	0	255.60	0	6.1285	0	33.9443	0	26.705	0	253.324	0	70.2	4	23.3	4	-1E+10	1	0.0596	4	0.000275	0	-1E+10	1	-1E+10	1	-1E+10	1
4902624	17	C	12/08/2024	18:40	-127.392	46.913	0	256.60	0	6.1235	0	33.9448	0	26.706	0	254.314	0	69.7	4	23.1	4	-1E+10	1	0.0535	4	0.000260	0	-1E+10	1	-1E+10	1	-1E+10	1
4902624	17	C	12/08/2024	18:40	-127.392	46.913	0	257.10	0	6.1210	0	33.9450	0	26.707	0	254.809	0	-1e10	1	-1e10	1	-1E+10	1	-1e10	1	-1e10	1	-1E+10	1	-1E+10	1	-1E+10	1
4902624	17	C	12/08/2024	18:40	-127.392	46.913	0	257.60	0	6.1260	0	33.9464	0	26.707	0	255.305	0	69.5	4	23.0	4	-1E+10	1	0.0511	4	0.003584	0	-1E+10	1	-1E+10	1	-1E+10	1
4902624	17	C	12/08/2024	18:40	-127.392	46.913	0	258.50	0	6.1350	0	33.9489	0	26.708	0	256.196	0	69.2	4	23.0	4	-1E+10	1	0.0474	4	0.002756	0	-1E+10	1	-1E+10	1	-1E+10	1
4902624	17	C	12/08/2024	18:40	-127.392	46.913	0	258.90	0	6.1390	0	33.9500	0	26.708	0	256.592	0	-1e10	1	-1e10	1	-1E+10	1	-1e10	1	-1e10	1	-1E+10	1	-1E+10	1	-1E+10	1
4902624	17	C	12/08/2024	18:40	-127.392	46.913	0	259.50	0	6.1324	0	33.9503	0	26.709	0	257.187	0	69.2	4	22.9	4	-1E+10	1	0.0438	4	0.000264	0	-1E+10	1	-1E+10	1	-1E+10	1
4902624	17	C	12/08/2024	18:40	-127.392	46.913	0	260.50	0	6.1215	0	33.9508	0	26.711	0	258.177	0	69.1	4	22.9	4	-1E+10	1	0.0467	4	0.000259	0	-1E+10	1	-1E+10	1	-1E+10	1
4902624	17	C	12/08/2024	18:40	-127.392	46.913	0	261.00	0	6.1160	0	33.9510	0	26.712	0	258.672	0	-1e10	1	-1e10	1	-1E+10	1	-1e10	1	-1e10	1	-1E+10	1	-1E+10	1	-1E+10	1
4902624	17	C	12/08/2024	18:40	-127.392	46.913	0	261.50	0	6.1063	0	33.9505	0	26.713	0	259.167	0	68.9	4	22.8	4	-1E+10	1	0.0584	4	0.000271	0	-1E+10	1	-1E+10	1	-1E+10	1
4902624	17	C	12/08/2024	18:40	-127.392	46.913	0	262.50	0	6.0868	0	33.9495	0	26.715	0	260.158	0	68.6	4	22.7	4	-1E+10	1	0.0584	4	0.000428	0	-1E+10	1	-1E+10	1	-1E+10	1
4902624	17	C	12/08/2024	18:40	-127.392	46.913	0	263.00	0	6.0770	0	33.9490	0	26.715	0	260.653	0	-1e10	1	-1e10	1	-1E+10	1	-1e10	1	-1e10	1	-1E+10	1	-1E+10	1	-1E+10	1
4902624	17	C	12/08/2024	18:40	-127.392	46.913	0	263.40	0	6.0781	0	33.9498	0	26.716	0	261.049	0	68.3	4	22.6	4	-1E+10	1	0.0584	4	0.000293	0	-1E+10	1	-1E+10	1	-1E+10	1
4902624	17	C	12/08/2024	18:40	-127.392	46.913	0	264.40	0	6.0807	0	33.9519	0	26.717	0	262.040	0	68.2	4	22.6	4	-1E+10	1	0.0526	4	0.000245	0	-1E+10	1	-1E+10	1	-1E+10	1
4902624	17	C	12/08/2024	18:40	-127.392	46.913	0	264.90	0	6.0820	0	33.9530	0	26.718	0	262.535	0	-1e10	1	-1e10	1	-1E+10	1	-1e10	1	-1e10	1	-1E+10	1	-1E+10	1	-1E+10	1
4902624	17	C	12/08/2024	18:40	-127.392	46.913	0	265.40	0	6.0834	0	33.9535	0	26.718	0	263.030	0	68.0	4	22.5	4	-1E+10	1	0.0560	4	0.000232	0	-1E+10	1	-1E+10	1	-1E+10	1
4902624	17	C	12/08/2024	18:40	-127.392	46.913	0	266.40	0	6.0861	0	33.9544	0	26.719	0	264.021	0	67.7	4	22.4	4	-1E+10	1	0.0511	4	0.000328	0	-1E+10	1	-1E+10	1	-1E+10	1
4902624	17	C	12/08/2024	18:40	-127.392	46.913	0	267.10	0	6.0880	0	33.9550	0	26.719	0	264.714	0	-1e10	1	-1e10	1	-1E+10	1	-1e10	1	-1e10	1	-1E+10	1	-1E+10	1	-1E+10	1
4902624	17	C	12/08/2024	18:40	-127.392	46.913	0	267.40	0	6.0790	0	33.9546	0	26.720	0	265.011	0	67.5	4	22.3	4	-1E+10	1	0.0496	4	0.000353	0	-1E+10	1	-1E+10	1	-1E+10	1
4902624	17	C	12/08/2024	18:40	-127.392	46.913	0	268.40	0	6.0490	0	33.9530	0	26.722	0	266.001	0	67.1	4	22.2	4	-1E+10	1	0.0584	4	0.000241	0	-1E+10	1	-1E+10	1	-1E+10	1
4902624	17	C	12/08/2024	18:40	-127.392	46.913	0	269.10	0	6.0280	0	33.9520	0	26.724	0	266.695	0	-1e10	1	-1e10	1	-1E+10	1	-1e10	1	-1e10	1	-1E+10	1	-1E+10	1	-1E+10	1
4902624	17	C	12/08/2024	18:40	-127.392	46.913	0	269.40	0	6.0301	0	33.9522	0	26.724	0	266.992	0	66.7	4	22.0	4	-1E+10	1	0.0601	4	0.000237	0	-1E+10	1	-1E+10	1	-1E+10	1
4902624	17	C	12/08/2024	18:40	-127.392	46.913	0	270.40	0	6.0369	0	33.9527	0	26.723	0	267.982	0	66.3	4	21.9	4	-1E+10	1	0.0657	4	0.000217	0	-1E+10	1	-1E+10	1	-1E+10	1
4902624	17	C	12/08/2024	18:40	-127.392	46.913	0	271.00	0	6.0410	0	33.9530	0	26.723	0	268.577	0	-1e10	1	-1e10	1	-1E+10	1	-1e10	1	-1e10	1	-1E+10	1	-1E+10	1	-1E+10	1
4902624	17	C	12/08/2024	18:40	-127.392	46.913	0	271.30	0	6.0365	0	33.9534	0	26.724	0	268.874	0	66.0	4	21.8	4	-1E+10	1	0.0511	4	0.000228	0	-1E+10	1	-1E+10	1	-1E+10	1
4902624	17	C	12/08/2024	18:40	-127.392	46.913	0	272.40	0	6.0200	0	33.9551	0	26.728	0	269.963	0	65.7	4	21.7	4	-1E+10	1	0.0444	4	0.000228	0	-1E+10	1	-1E+10	1	-1E+10	1
4902624	17	C	12/08/2024	18:40	-127.392	46.913	0	273.00	0	6.0110	0	33.9560	0	26.729	0	270.557	0	-1e10	1	-1e10	1	-1E+10	1	-1e10	1	-1e10	1	-1E+10	1	-1E+10	1	-1E+10	1
4902624	17	C	12/08/2024	18:40	-127.392	46.913	0	273.30	0	6.0116	0	33.9565	0	26.730	0	270.854	0	65.3	4	21.6	4	-1E+10	1	0.0438	4	0.000267	0	-1E+10	1	-1E+10	1	-1E+10	1
4902624	17	C	12/08/2024	18:40	-127.392	46.913	0	274.30	0	6.0136	0	33.9580	0	26.731	0	271.845	0	65.1	4	21.5	4	-1E+10	1	0.0526	4	0.000259	0	-1E+10	1	-1E+10	1	-1E+10	1
4902624	17	C	12/08/2024	18:40	-127.392	46.913	0	275.00	0	6.0150	0	33.9590	0	26.731	0	272.538	0	-1e10	1	-1e10	1	-1E+10	1	-1e10	1	-1e10	1	-1E+10	1	-1E+10	1	-1E+10	1
4902624	17	C	12/08/2024	18:40	-127.392	46.913	0	275.30	0	6.0103	0	33.9590	0	26.732	0	272.835	0	64.8	4	21.4	4	-1E+10	1	0.0548	4	0.000246	0	-1E+10	1	-1E+10	1	-1E+10	1
4902624	17	C	12/08/2024	18:40	-127.392	46.913	0	276.30	0	5.9949	0	33.9590	0	26.734	0	273.826	0	64.4	4	21.3	4	-1E+10	1	0.0487	4	0.000244	0	-1E+10	1	-1E+10	1	-1E+10	1
4902624	17	C	12/08/2024	18:40	-127.392	46.913	0	277.00	0	5.9840	0	33.9590	0	26.735	0	274.519	0	-1e10	1	-1e10	1	-1E+10	1	-1e10	1	-1e10	1	-1E+10	1	-1E+10	1	-1E+10	1
4902624	17	C	12/08/2024	18:40	-127.392	46.913	0	277.30	0	5.9803	0	33.9594	0	26.736	0	274.816	0	64.1	4	21.2	4	-1E+10	1	0.0423	4	0.000228	0	-1E+10	1	-1E+10	1	-1E+10	1
4902624	17	C	12/08/2024	18:40	-127.392	46.913	0	278.30	0	5.9679	0	33.9609	0	26.739	0	275.806	0	63.8	4	21.1	4	-1E+10	1	0.0399	4	0.000237	0	-1E+10	1	-1E+10	1	-1E+10	1
4902624	17	C	12/08/2024	18:40	-127.392	46.913	0	279.10	0	5.9580	0	33.9620	0	26.741	0	276.599	0	-1e10	1	-1e10	1	-1E+10	1	-1e10	1	-1e10	1	-1E+10	1	-1E+10	1	-1E+10	1
4902624	17	C	12/08/2024	18:40	-127.392	46.913	0	279.40	0	5.9578	0	33.9625	0	26.741	0	276.896	0	63.6	4	21.0	4	-1E+10	1	0.0584	4	0.000287	0	-1E+10	1	-1E+10	1	-1E+10	1
4902624	17	C	12/08/2024	18:40	-127.392	46.913	0	280.40	0	5.9573	0	33.9640	0	26.742	0	277.886	0	63.4	4	20.9	4	-1E+10	1	0.0645	4	0.000238	0	-1E+10	1	-1E+10	1	-1E+10	1
4902624	17	C	12/08/2024	18:40	-127.392	46.913	0	281.10	0	5.9570	0	33.9650	0	26.743	0	278.579	0	-1e10	1	-1e10	1	-1E+10	1	-1e10	1	-1e10	1	-1E+10	1	-1E+10	1	-1E+10	1
4902624	17	C	12/08/2024	18:40	-127.392	46.913	0	281.40	0	5.9547	0	33.9650	0	26.744	0	278.877	0	63.1	4	20.8	4	-1E+10	1	0.0540	4	0.000247	0	-1E+10	1	-1E+10	1	-1E+10	1
4902624	17	C	12/08/2024	18:40	-127.392	46.913	0	282.40	0	5.9472	0	33.9650	0	26.745	0	279.867	0	62.9	4	20.7	4	-1E+10	1	0.0608	4	0.000236	0	-1E+10	1	-1E+10	1	-1E+10	1
4902624	17	C	12/08/2024	18:40	-127.392	46.913	0	283.10	0	5.9420	0	33.9650	0	26.745	0	280.560	0	-1e10	1	-1e10	1	-1E+10	1	-1e10	1	-1e10	1	-1E+10	1	-1E+10	1	-1E+10	1
4902624	17	C	12/08/2024	18:40	-127.392	46.913	0	283.40	0	5.9433	0	33.9653	0	26.745	0	280.857	0	62.6	4	20.6	4	-1E+10	1	0.0584	4	0.000234	0	-1E+10	1	-1E+10	1	-1E+10	1
4902624	17	C	12/08/2024	18:40	-127.392	46.913	0	284.40	0	5.9475	0	33.9664	0	26.746	0	281.848	0	62.3	4	20.6	4	-1E+10	1	0.0511	4	0.000265	0	-1E+10	1	-1E+10	1	-1E+10	1
4902624	17	C	12/08/2024	18:40	-127.392	46.913	0	285.00	0	5.9500	0	33.9670	0	26.746	0	282.442	0	-1e10	1	-1e10	1	-1E+10	1	-1e10	1	-1e10	1	-1E+10	1	-1E+10	1	-1E+10	1
4902624	17	C	12/08/2024	18:40	-127.392	46.913	0	285.40	0	5.9471	0	33.9678	0	26.747	0	282.838	0	62.1	4	20.5	4	-1E+10	1	0.0560	4	0.000289	0	-1E+10	1	-1E+10	1	-1E+10	1
4902624	17	C	12/08/2024	18:40	-127.392	46.913	0	286.40	0	5.9397	0	33.9699	0	26.749	0	283.828	0	61.9	4	20.4	4	-1E+10	1	0.0633	4	0.000255	0	-1E+10	1	-1E+10	1	-1E+10	1
4902624	17	C	12/08/2024	18:40	-127.392	46.913	0	286.90	0	5.9360	0	33.9710	0	26.751	0	284.323	0	-1e10	1	-1e10	1	-1E+10	1	-1e10	1	-1e10	1	-1E+10	1	-1E+10	1	-1E+10	1
4902624	17	C	12/08/2024	18:40	-127.392	46.913	0	287.40	0	5.9310	0	33.9708	0	26.751	0	284.819	0	61.7	4	20.4	4	-1E+10	1	0.0511	4	0.000216	0	-1E+10	1	-1E+10	1	-1E+10	1
4902624	17	C	12/08/2024	18:40	-127.392	46.913	0	288.50	0	5.9200	0	33.9702	0	26.752	0	285.908	0	61.6	4	20.3	4	-1E+10	1	0.0511	4	0.000228	0	-1E+10	1	-1E+10	1	-1E+10	1
4902624	17	C	12/08/2024	18:40	-127.392	46.913	0	289.00	0	5.9150	0	33.9700	0	26.753	0	286.403	0	-1e10	1	-1e10	1	-1E+10	1	-1e10	1	-1e10	1	-1E+10	1	-1E+10	1	-1E+10	1
4902624	17	C	12/08/2024	18:40	-127.392	46.913	0	289.50	0	5.9060	0	33.9698	0	26.754	0	286.898	0	61.4	4	20.3	4	-1E+10	1	0.0511	4	0.000228	0	-1E+10	1	-1E+10	1	-1E+10	1
4902624	17	C	12/08/2024	18:40	-127.392	46.913	0	290.50	0	5.8879	0	33.9693	0	26.755	0	287.889	0	61.2	4	20.2	4	-1E+10	1	0.0458	4	0.000296	0	-1E+10	1	-1E+10	1	-1E+10	1
4902624	17	C	12/08/2024	18:40	-127.392	46.913	0	291.10	0	5.8770	0	33.9690	0	26.757	0	288.483	0	-1e10	1	-1e10	1	-1E+10	1	-1e10	1	-1e10	1	-1E+10	1	-1E+10	1	-1E+10	1
4902624	17	C	12/08/2024	18:40	-127.392	46.913	0	291.60	0	5.8649	0	33.9690	0	26.758	0	288.978	0	61.0	4	20.1	4	-1E+10	1	0.0496	4	0.000247	0	-1E+10	1	-1E+10	1	-1E+10	1
4902624	17	C	12/08/2024	18:40	-127.392	46.913	0	292.60	0	5.8407	0	33.9690	0	26.761	0	289.968	0	60.7	4	20.0	4	-1E+10	1	0.0511	4	0.000223	0	-1E+10	1	-1E+10	1	-1E+10	1
4902624	17	C	12/08/2024	18:40	-127.392	46.913	0	293.00	0	5.8310	0	33.9690	0	26.762	0	290.364	0	-1e10	1	-1e10	1	-1E+10	1	-1e10	1	-1e10	1	-1E+10	1	-1E+10	1	-1E+10	1
4902624	17	C	12/08/2024	18:40	-127.392	46.913	0	293.70	0	5.8236	0	33.9687	0	26.763	0	291.058	0	60.5	4	19.9	4	-1E+10	1	0.0550	4	0.000243	0	-1E+10	1	-1E+10	1	-1E+10	1
4902624	17	C	12/08/2024	18:40	-127.392	46.913	0	294.70	0	5.8131	0	33.9681	0	26.764	0	292.048	0	60.1	4	19.8	4	-1E+10	1	0.0584	4	0.000259	0	-1E+10	1	-1E+10	1	-1E+10	1
4902624	17	C	12/08/2024	18:40	-127.392	46.913	0	295.00	0	5.8100	0	33.9680	0	26.764	0	292.345	0	-1e10	1	-1e10	1	-1E+10	1	-1e10	1	-1e10	1	-1E+10	1	-1E+10	1	-1E+10	1
4902624	17	C	12/08/2024	18:40	-127.392	46.913	0	295.70	0	5.8107	0	33.9680	0	26.764	0	293.038	0	59.8	4	19.7	4	-1E+10	1	0.0584	4	0.000251	0	-1E+10	1	-1E+10	1	-1E+10	1
4902624	17	C	12/08/2024	18:40	-127.392	46.913	0	297.00	0	5.8120	0	33.9680	0	26.764	0	294.326	0	-1e10	1	-1e10	1	-1E+10	1	-1e10	1	-1e10	1	-1E+10	1	-1E+10	1	-1E+10	1
4902624	17	C	12/08/2024	18:40	-127.392	46.913	0	299.10	0	5.8280	0	33.9760	0	26.768	0	296.405	0	-1e10	1	-1e10	1	-1E+10	1	-1e10	1	-1e10	1	-1E+10	1	-1E+10	1	-1E+10	1
4902624	17	C	12/08/2024	18:40	-127.392	46.913	0	304.90	0	5.7980	0	33.9790	0	26.774	0	302.149	0	-1e10	1	-1e10	1	-1E+10	1	-1e10	1	-1e10	1	-1E+10	1	-1E+10	1	-1E+10	1
4902624	17	C	12/08/2024	18:40	-127.392	46.913	0	306.00	0	5.7900	0	33.9791	0	26.775	0	303.238	0	57.9	4	19.0	4	-1E+10	1	0.0587	4	0.000229	0	-1E+10	1	-1E+10	1	-1E+10	1
4902624	17	C	12/08/2024	18:40	-127.392	46.913	0	314.90	0	5.7250	0	33.9800	0	26.784	0	312.051	0	-1e10	1	-1e10	1	-1E+10	1	-1e10	1	-1e10	1	-1E+10	1	-1E+10	1	-1E+10	1
4902624	17	C	12/08/2024	18:40	-127.392	46.913	0	316.50	0	5.7275	0	33.9830	0	26.786	0	313.635	0	54.0	4	17.7	4	-1E+10	1	0.0651	4	0.000263	0	-1E+10	1	-1E+10	1	-1E+10	1
4902624	17	C	12/08/2024	18:40	-127.392	46.913	0	325.10	0	5.7410	0	33.9990	0	26.797	0	322.151	0	-1e10	1	-1e10	1	-1E+10	1	-1e10	1	-1e10	1	-1E+10	1	-1E+10	1	-1E+10	1
4902624	17	C	12/08/2024	18:40	-127.392	46.913	0	326.90	0	5.7307	0	34.0018	0	26.801	0	323.933	0	49.6	4	16.3	4	-1E+10	1	0.0511	4	0.000263	0	-1E+10	1	-1E+10	1	-1E+10	1
4902624	17	C	12/08/2024	18:40	-127.392	46.913	0	334.90	0	5.6850	0	34.0140	0	26.816	0	331.854	0	-1e10	1	-1e10	1	-1E+10	1	-1e10	1	-1e10	1	-1E+10	1	-1E+10	1	-1E+10	1
4902624	17	C	12/08/2024	18:40	-127.392	46.913	0	337.50	0	5.6616	0	34.0137	0	26.819	0	334.428	0	48.3	4	15.8	4	-1E+10	1	0.0514	4	0.000274	0	-1E+10	1	-1E+10	1	-1E+10	1
4902624	17	C	12/08/2024	18:40	-127.392	46.913	0	345.00	0	5.5940	0	34.0130	0	26.826	0	341.854	0	-1e10	1	-1e10	1	-1E+10	1	-1e10	1	-1e10	1	-1E+10	1	-1E+10	1	-1E+10	1
4902624	17	C	12/08/2024	18:40	-127.392	46.913	0	348.20	0	5.5924	0	34.0168	0	26.830	0	345.022	0	45.9	4	15.0	4	-1E+10	1	0.0574	4	0.000263	0	-1E+10	1	-1E+10	1	-1E+10	1
4902624	17	C	12/08/2024	18:40	-127.392	46.913	0	355.20	0	5.5890	0	34.0250	0	26.837	0	351.952	0	-1e10	1	-1e10	1	-1E+10	1	-1e10	1	-1e10	1	-1E+10	1	-1E+10	1	-1E+10	1
4902624	17	C	12/08/2024	18:40	-127.392	46.913	0	359.10	0	5.5695	0	34.0270	0	26.841	0	355.813	0	43.7	4	14.3	4	-1E+10	1	0.0376	4	0.000273	0	-1E+10	1	-1E+10	1	-1E+10	1
4902624	17	C	12/08/2024	18:40	-127.392	46.913	0	364.80	0	5.5410	0	34.0300	0	26.846	0	361.456	0	-1e10	1	-1e10	1	-1E+10	1	-1e10	1	-1e10	1	-1E+10	1	-1E+10	1	-1E+10	1
4902624	17	C	12/08/2024	18:40	-127.392	46.913	0	370.10	0	5.5016	0	34.0321	0	26.853	0	366.703	0	41.8	4	13.7	4	-1E+10	1	0.0654	4	0.000240	0	-1E+10	1	-1E+10	1	-1E+10	1
4902624	17	C	12/08/2024	18:40	-127.392	46.913	0	374.90	0	5.4660	0	34.0340	0	26.859	0	371.454	0	-1e10	1	-1e10	1	-1E+10	1	-1e10	1	-1e10	1	-1E+10	1	-1E+10	1	-1E+10	1
4902624	17	C	12/08/2024	18:40	-127.392	46.913	0	381.30	0	5.4177	0	34.0379	0	26.868	0	377.790	0	39.8	4	13.0	4	-1E+10	1	0.0581	4	0.000264	0	-1E+10	1	-1E+10	1	-1E+10	1
4902624	17	C	12/08/2024	18:40	-127.392	46.913	0	384.70	0	5.3920	0	34.0400	0	26.872	0	381.155	0	-1e10	1	-1e10	1	-1E+10	1	-1e10	1	-1e10	1	-1E+10	1	-1E+10	1	-1E+10	1
4902624	17	C	12/08/2024	18:40	-127.392	46.913	0	392.90	0	5.3526	0	34.0466	0	26.882	0	389.272	0	37.8	4	12.3	4	-1E+10	1	0.0511	4	0.000286	0	-1E+10	1	-1E+10	1	-1E+10	1
4902624	17	C	12/08/2024	18:40	-127.392	46.913	0	394.70	0	5.3440	0	34.0480	0	26.884	0	391.054	0	-1e10	1	-1e10	1	-1E+10	1	-1e10	1	-1e10	1	-1E+10	1	-1E+10	1	-1E+10	1
4902624	17	C	12/08/2024	18:40	-127.392	46.913	0	404.70	0	5.3326	0	34.0585	0	26.894	0	400.952	0	35.8	4	11.6	4	-1E+10	1	0.0518	4	0.000284	0	-1E+10	1	-1E+10	1	-1E+10	1
4902624	17	C	12/08/2024	18:40	-127.392	46.913	0	405.20	0	5.3320	0	34.0590	0	26.895	0	401.447	0	-1e10	1	-1e10	1	-1E+10	1	-1e10	1	-1e10	1	-1E+10	1	-1E+10	1	-1E+10	1
4902624	17	C	12/08/2024	18:40	-127.392	46.913	0	414.40	0	5.3085	0	34.0665	0	26.903	0	410.552	0	34.3	4	11.1	4	-1E+10	1	0.0657	4	0.000249	0	-1E+10	1	-1E+10	1	-1E+10	1
4902624	17	C	12/08/2024	18:40	-127.392	46.913	0	415.00	0	5.3070	0	34.0670	0	26.904	0	411.146	0	-1e10	1	-1e10	1	-1E+10	1	-1e10	1	-1e10	1	-1E+10	1	-1E+10	1	-1E+10	1
4902624	17	C	12/08/2024	18:40	-127.392	46.913	0	421.90	0	5.2674	0	34.0725	0	26.913	0	417.975	0	32.8	4	10.7	4	-1E+10	1	0.0654	4	0.000206	0	-1E+10	1	-1E+10	1	-1E+10	1
4902624	17	C	12/08/2024	18:40	-127.392	46.913	0	425.10	0	5.2490	0	34.0750	0	26.917	0	421.142	0	-1e10	1	-1e10	1	-1E+10	1	-1e10	1	-1e10	1	-1E+10	1	-1E+10	1	-1E+10	1
4902624	17	C	12/08/2024	18:40	-127.392	46.913	0	429.80	0	5.2243	0	34.0779	0	26.922	0	425.793	0	31.8	4	10.3	4	-1E+10	1	0.0581	4	0.000273	0	-1E+10	1	-1E+10	1	-1E+10	1
4902624	17	C	12/08/2024	18:40	-127.392	46.913	0	435.00	0	5.1970	0	34.0810	0	26.928	0	430.940	0	-1e10	1	-1e10	1	-1E+10	1	-1e10	1	-1e10	1	-1E+10	1	-1E+10	1	-1E+10	1
4902624	17	C	12/08/2024	18:40	-127.392	46.913	0	438.00	0	5.1767	0	34.0816	0	26.931	0	433.908	0	31.0	4	10.1	4	-1E+10	1	0.0514	4	0.000250	0	-1E+10	1	-1E+10	1	-1E+10	1
4902624	17	C	12/08/2024	18:40	-127.392	46.913	0	444.90	0	5.1300	0	34.0830	0	26.938	0	440.737	0	-1e10	1	-1e10	1	-1E+10	1	-1e10	1	-1e10	1	-1E+10	1	-1E+10	1	-1E+10	1
4902624	17	C	12/08/2024	18:40	-127.392	46.913	0	446.30	0	5.1289	0	34.0841	0	26.939	0	442.122	0	30.2	4	9.8	4	-1E+10	1	0.0584	4	0.000250	0	-1E+10	1	-1E+10	1	-1E+10	1
4902624	17	C	12/08/2024	18:40	-127.392	46.913	0	454.80	0	5.1220	0	34.0910	0	26.945	0	450.533	0	28.1	4	9.1	4	-1E+10	1	0.0581	4	0.000251	0	-1E+10	1	-1E+10	1	-1E+10	1
4902624	17	C	12/08/2024	18:40	-127.392	46.913	0	463.60	0	5.0974	0	34.0972	0	26.953	0	459.241	0	27.4	4	8.9	4	-1E+10	1	0.0514	4	0.000261	0	-1E+10	1	-1E+10	1	-1E+10	1
4902624	17	C	12/08/2024	18:40	-127.392	46.913	0	464.80	0	5.0940	0	34.0980	0	26.954	0	460.428	0	-1e10	1	-1e10	1	-1E+10	1	-1e10	1	-1e10	1	-1E+10	1	-1E+10	1	-1E+10	1
4902624	17	C	12/08/2024	18:40	-127.392	46.913	0	472.30	0	5.0308	0	34.1009	0	26.963	0	467.849	0	26.2	4	8.5	4	-1E+10	1	0.0577	4	0.000247	0	-1E+10	1	-1E+10	1	-1E+10	1
4902624	17	C	12/08/2024	18:40	-127.392	46.913	0	475.00	0	5.0080	0	34.1020	0	26.967	0	470.521	0	-1e10	1	-1e10	1	-1E+10	1	-1e10	1	-1e10	1	-1E+10	1	-1E+10	1	-1E+10	1
4902624	17	C	12/08/2024	18:40	-127.392	46.913	0	481.10	0	4.9635	0	34.1057	0	26.975	0	476.556	0	24.8	4	8.0	4	-1E+10	1	0.0445	4	0.000194	0	-1E+10	1	-1E+10	1	-1E+10	1
4902624	17	C	12/08/2024	18:40	-127.392	46.913	0	485.00	0	4.9350	0	34.1080	0	26.980	0	480.415	0	-1e10	1	-1e10	1	-1E+10	1	-1e10	1	-1e10	1	-1E+10	1	-1E+10	1	-1E+10	1
4902624	17	C	12/08/2024	18:40	-127.392	46.913	0	489.90	0	4.9275	0	34.1125	0	26.984	0	485.263	0	23.6	4	7.6	4	-1E+10	1	0.0587	4	0.000248	0	-1E+10	1	-1E+10	1	-1E+10	1
4902624	17	C	12/08/2024	18:40	-127.392	46.913	0	494.80	0	4.9200	0	34.1170	0	26.989	0	490.111	0	-1e10	1	-1e10	1	-1E+10	1	-1e10	1	-1e10	1	-1E+10	1	-1E+10	1	-1E+10	1
4902624	17	C	12/08/2024	18:40	-127.392	46.913	0	498.70	0	4.9011	0	34.1201	0	26.993	0	493.969	0	22.3	4	7.2	4	-1E+10	1	0.0657	4	0.000218	0	-1E+10	1	-1E+10	1	-1E+10	1
4902624	17	C	12/08/2024	18:40	-127.392	46.913	0	504.90	0	4.8710	0	34.1250	0	27.001	0	500.103	0	-1e10	1	-1e10	1	-1E+10	1	-1e10	1	-1e10	1	-1E+10	1	-1E+10	1	-1E+10	1
4902624	17	C	12/08/2024	18:40	-127.392	46.913	0	507.50	0	4.8453	0	34.1260	0	27.004	0	502.675	0	21.2	4	6.8	4	-1E+10	1	0.0657	4	0.000293	0	-1E+10	1	-1E+10	1	-1E+10	1
4902624	17	C	12/08/2024	18:40	-127.392	46.913	0	515.10	0	4.7700	0	34.1290	0	27.015	0	510.194	0	-1e10	1	-1e10	1	-1E+10	1	-1e10	1	-1e10	1	-1E+10	1	-1E+10	1	-1E+10	1
4902624	17	C	12/08/2024	18:40	-127.392	46.913	0	516.20	0	4.7666	0	34.1310	0	27.017	0	511.282	0	19.6	4	6.3	4	-1E+10	1	0.0654	4	0.000203	0	-1E+10	1	-1E+10	1	-1E+10	1
4902624	17	C	12/08/2024	18:40	-127.392	46.913	0	524.90	0	4.7399	0	34.1465	0	27.033	0	519.888	0	18.0	4	5.8	4	-1E+10	1	0.0587	4	0.000230	0	-1E+10	1	-1E+10	1	-1E+10	1
4902624	17	C	12/08/2024	18:40	-127.392	46.913	0	525.20	0	4.7390	0	34.1470	0	27.033	0	520.185	0	-1e10	1	-1e10	1	-1E+10	1	-1e10	1	-1e10	1	-1E+10	1	-1E+10	1	-1E+10	1
4902624	17	C	12/08/2024	18:40	-127.392	46.913	0	533.60	0	4.7188	0	34.1588	0	27.045	0	528.494	0	16.6	4	5.3	4	-1E+10	1	0.0655	4	0.000973	0	-1E+10	1	-1E+10	1	-1E+10	1
4902624	17	C	12/08/2024	18:40	-127.392	46.913	0	535.20	0	4.7150	0	34.1610	0	27.047	0	530.076	0	-1e10	1	-1e10	1	-1E+10	1	-1e10	1	-1e10	1	-1E+10	1	-1E+10	1	-1E+10	1
4902624	17	C	12/08/2024	18:40	-127.392	46.913	0	542.40	0	4.6717	0	34.1676	0	27.057	0	537.198	0	15.8	4	5.1	4	-1E+10	1	0.0582	4	0.000190	0	-1E+10	1	-1E+10	1	-1E+10	1
4902624	17	C	12/08/2024	18:40	-127.392	46.913	0	545.00	0	4.6560	0	34.1700	0	27.061	0	539.770	0	-1e10	1	-1e10	1	-1E+10	1	-1e10	1	-1e10	1	-1E+10	1	-1E+10	1	-1E+10	1
4902624	17	C	12/08/2024	18:40	-127.392	46.913	0	551.40	0	4.6233	0	34.1746	0	27.068	0	546.100	0	14.9	4	4.8	4	-1E+10	1	0.0516	4	0.000170	0	-1E+10	1	-1E+10	1	-1E+10	1
4902624	17	C	12/08/2024	18:40	-127.392	46.913	0	554.80	0	4.6060	0	34.1770	0	27.072	0	549.463	0	-1e10	1	-1e10	1	-1E+10	1	-1e10	1	-1e10	1	-1E+10	1	-1E+10	1	-1E+10	1
4902624	17	C	12/08/2024	18:40	-127.392	46.913	0	560.70	0	4.5829	0	34.1810	0	27.078	0	555.298	0	14.2	4	4.5	4	-1E+10	1	0.0654	4	0.000246	0	-1E+10	1	-1E+10	1	-1E+10	1
4902624	17	C	12/08/2024	18:40	-127.392	46.913	0	565.00	0	4.5660	0	34.1840	0	27.082	0	559.551	0	-1e10	1	-1e10	1	-1E+10	1	-1e10	1	-1e10	1	-1E+10	1	-1E+10	1	-1E+10	1
4902624	17	C	12/08/2024	18:40	-127.392	46.913	0	570.30	0	4.5340	0	34.1866	0	27.087	0	564.793	0	13.6	4	4.3	4	-1E+10	1	0.0587	4	0.000168	0	-1E+10	1	-1E+10	1	-1E+10	1
4902624	17	C	12/08/2024	18:40	-127.392	46.913	0	575.10	0	4.5050	0	34.1890	0	27.092	0	569.540	0	-1e10	1	-1e10	1	-1E+10	1	-1e10	1	-1e10	1	-1E+10	1	-1E+10	1	-1E+10	1
4902624	17	C	12/08/2024	18:40	-127.392	46.913	0	580.10	0	4.5146	0	34.1971	0	27.098	0	574.485	0	12.6	4	4.0	4	-1E+10	1	0.0657	4	0.000203	0	-1E+10	1	-1E+10	1	-1E+10	1
4902624	17	C	12/08/2024	18:40	-127.392	46.913	0	585.00	0	4.5240	0	34.2050	0	27.103	0	579.330	0	-1e10	1	-1e10	1	-1E+10	1	-1e10	1	-1e10	1	-1E+10	1	-1E+10	1	-1E+10	1
4902624	17	C	12/08/2024	18:40	-127.392	46.913	0	590.30	0	4.5044	0	34.2103	0	27.110	0	584.572	0	12.1	4	3.9	4	-1E+10	1	0.0660	4	0.000216	0	-1E+10	1	-1E+10	1	-1E+10	1
4902624	17	C	12/08/2024	18:40	-127.392	46.913	0	595.00	0	4.4870	0	34.2150	0	27.115	0	589.219	0	-1e10	1	-1e10	1	-1E+10	1	-1e10	1	-1e10	1	-1E+10	1	-1E+10	1	-1E+10	1
4902624	17	C	12/08/2024	18:40	-127.392	46.913	0	600.90	0	4.4697	0	34.2186	0	27.120	0	595.054	0	11.6	4	3.7	4	-1E+10	1	0.0730	4	0.000271	0	-1E+10	1	-1E+10	1	-1E+10	1
4902624	17	C	12/08/2024	18:40	-127.392	46.913	0	604.90	0	4.4580	0	34.2210	0	27.123	0	599.009	0	-1e10	1	-1e10	1	-1E+10	1	-1e10	1	-1e10	1	-1E+10	1	-1E+10	1	-1E+10	1
4902624	17	C	12/08/2024	18:40	-127.392	46.913	0	612.00	0	4.4190	0	34.2246	0	27.130	0	606.029	0	11.1	4	3.5	4	-1E+10	1	0.0723	4	0.000235	0	-1E+10	1	-1E+10	1	-1E+10	1
4902624	17	C	12/08/2024	18:40	-127.392	46.913	0	614.90	0	4.4030	0	34.2260	0	27.133	0	608.897	0	-1e10	1	-1e10	1	-1E+10	1	-1e10	1	-1e10	1	-1E+10	1	-1E+10	1	-1E+10	1
4902624	17	C	12/08/2024	18:40	-127.392	46.913	0	623.80	0	4.3915	0	34.2313	0	27.139	0	617.697	0	10.8	4	3.4	4	-1E+10	1	0.0507	4	0.000192	0	-1E+10	1	-1E+10	1	-1E+10	1
4902624	17	C	12/08/2024	18:40	-127.392	46.913	0	625.00	0	4.3900	0	34.2320	0	27.139	0	618.883	0	-1e10	1	-1e10	1	-1E+10	1	-1e10	1	-1e10	1	-1E+10	1	-1E+10	1	-1E+10	1
4902624	17	C	12/08/2024	18:40	-127.392	46.913	0	633.70	0	4.3648	0	34.2364	0	27.146	0	627.485	0	10.5	4	3.3	4	-1E+10	1	0.0444	4	0.000226	0	-1E+10	1	-1E+10	1	-1E+10	1
4902624	17	C	12/08/2024	18:40	-127.392	46.913	0	635.00	0	4.3610	0	34.2370	0	27.146	0	628.770	0	-1e10	1	-1e10	1	-1E+10	1	-1e10	1	-1e10	1	-1E+10	1	-1E+10	1	-1E+10	1
4902624	17	C	12/08/2024	18:40	-127.392	46.913	0	641.40	0	4.3483	0	34.2408	0	27.151	0	635.098	0	10.2	4	3.2	4	-1E+10	1	0.0584	4	0.000236	0	-1E+10	1	-1E+10	1	-1E+10	1
4902624	17	C	12/08/2024	18:40	-127.392	46.913	0	645.10	0	4.3410	0	34.2430	0	27.153	0	638.756	0	-1e10	1	-1e10	1	-1E+10	1	-1e10	1	-1e10	1	-1E+10	1	-1E+10	1	-1E+10	1
4902624	17	C	12/08/2024	18:40	-127.392	46.913	0	649.60	0	4.3410	0	34.2471	0	27.157	0	643.205	0	9.7	4	3.1	4	-1E+10	1	0.0581	4	0.000215	0	-1E+10	1	-1E+10	1	-1E+10	1
4902624	17	C	12/08/2024	18:40	-127.392	46.913	0	654.90	0	4.3410	0	34.2520	0	27.161	0	648.444	0	-1e10	1	-1e10	1	-1E+10	1	-1e10	1	-1e10	1	-1E+10	1	-1E+10	1	-1E+10	1
4902624	17	C	12/08/2024	18:40	-127.392	46.913	0	658.00	0	4.3389	0	34.2538	0	27.162	0	651.509	0	9.6	4	3.0	4	-1E+10	1	0.0514	4	0.000271	0	-1E+10	1	-1E+10	1	-1E+10	1
4902624	17	C	12/08/2024	18:40	-127.392	46.913	0	665.00	0	4.3340	0	34.2580	0	27.166	0	658.429	0	-1e10	1	-1e10	1	-1E+10	1	-1e10	1	-1e10	1	-1E+10	1	-1E+10	1	-1E+10	1
4902624	17	C	12/08/2024	18:40	-127.392	46.913	0	666.70	0	4.3291	0	34.2592	0	27.168	0	660.109	0	9.3	4	3.0	4	-1E+10	1	0.0584	4	0.000247	0	-1E+10	1	-1E+10	1	-1E+10	1
4902624	17	C	12/08/2024	18:40	-127.392	46.913	0	675.00	0	4.3050	0	34.2650	0	27.175	0	668.314	0	-1e10	1	-1e10	1	-1E+10	1	-1e10	1	-1e10	1	-1E+10	1	-1E+10	1	-1E+10	1
4902624	17	C	12/08/2024	18:40	-127.392	46.913	0	675.50	0	4.3035	0	34.2654	0	27.175	0	668.808	0	9.0	4	2.9	4	-1E+10	1	0.0584	4	0.000225	0	-1E+10	1	-1E+10	1	-1E+10	1
4902624	17	C	12/08/2024	18:40	-127.392	46.913	0	684.50	0	4.2762	0	34.2717	0	27.183	0	677.704	0	8.7	4	2.8	4	-1E+10	1	0.0581	4	0.000224	0	-1E+10	1	-1E+10	1	-1E+10	1
4902624	17	C	12/08/2024	18:40	-127.392	46.913	0	684.90	0	4.2750	0	34.2720	0	27.184	0	678.100	0	-1e10	1	-1e10	1	-1E+10	1	-1e10	1	-1e10	1	-1E+10	1	-1E+10	1	-1E+10	1
4902624	17	C	12/08/2024	18:40	-127.392	46.913	0	693.50	0	4.2546	0	34.2763	0	27.189	0	686.600	0	8.7	4	2.8	4	-1E+10	1	0.0516	4	0.000203	0	-1E+10	1	-1E+10	1	-1E+10	1
4902624	17	C	12/08/2024	18:40	-127.392	46.913	0	695.00	0	4.2510	0	34.2770	0	27.190	0	688.083	0	-1e10	1	-1e10	1	-1E+10	1	-1e10	1	-1e10	1	-1E+10	1	-1E+10	1	-1E+10	1
4902624	17	C	12/08/2024	18:40	-127.392	46.913	0	702.70	0	4.2261	0	34.2808	0	27.196	0	695.693	0	8.6	4	2.7	4	-1E+10	1	0.0657	4	0.000250	0	-1E+10	1	-1E+10	1	-1E+10	1
4902624	17	C	12/08/2024	18:40	-127.392	46.913	0	705.20	0	4.2180	0	34.2820	0	27.198	0	698.164	0	-1e10	1	-1e10	1	-1E+10	1	-1e10	1	-1e10	1	-1E+10	1	-1E+10	1	-1E+10	1
4902624	17	C	12/08/2024	18:40	-127.392	46.913	0	712.00	0	4.1988	0	34.2861	0	27.203	0	704.885	0	18.3	4	5.8	4	-1E+10	1	0.0652	4	0.000305	0	-1E+10	1	-1E+10	1	-1E+10	1
4902624	17	C	12/08/2024	18:40	-127.392	46.913	0	715.10	0	4.1900	0	34.2880	0	27.206	0	707.949	0	-1e10	1	-1e10	1	-1E+10	1	-1e10	1	-1e10	1	-1E+10	1	-1E+10	1	-1E+10	1
4902624	17	C	12/08/2024	18:40	-127.392	46.913	0	721.60	0	4.1786	0	34.2907	0	27.209	0	714.372	0	22.4	4	7.1	4	-1E+10	1	0.0511	4	0.000258	0	-1E+10	1	-1E+10	1	-1E+10	1
4902624	17	C	12/08/2024	18:40	-127.392	46.913	0	724.80	0	4.1730	0	34.2920	0	27.211	0	717.535	0	-1e10	1	-1e10	1	-1E+10	1	-1e10	1	-1e10	1	-1E+10	1	-1E+10	1	-1E+10	1
4902624	17	C	12/08/2024	18:40	-127.392	46.913	0	731.40	0	4.1631	0	34.2946	0	27.214	0	724.057	0	18.4	4	5.8	4	-1E+10	1	0.0520	4	0.000224	0	-1E+10	1	-1E+10	1	-1E+10	1
4902624	17	C	12/08/2024	18:40	-127.392	46.913	0	734.80	0	4.1580	0	34.2960	0	27.216	0	727.417	0	-1e10	1	-1e10	1	-1E+10	1	-1e10	1	-1e10	1	-1E+10	1	-1E+10	1	-1E+10	1
4902624	17	C	12/08/2024	18:40	-127.392	46.913	0	741.40	0	4.1401	0	34.2973	0	27.218	0	733.939	0	17.7	4	5.6	4	-1E+10	1	0.0727	4	0.000222	0	-1E+10	1	-1E+10	1	-1E+10	1
4902624	17	C	12/08/2024	18:40	-127.392	46.913	0	745.10	0	4.1300	0	34.2980	0	27.220	0	737.595	0	-1e10	1	-1e10	1	-1E+10	1	-1e10	1	-1e10	1	-1E+10	1	-1E+10	1	-1E+10	1
4902624	17	C	12/08/2024	18:40	-127.392	46.913	0	751.50	0	4.1100	0	34.3006	0	27.224	0	743.920	0	18.8	4	6.0	4	-1E+10	1	0.0651	4	0.000178	0	-1E+10	1	-1E+10	1	-1E+10	1
4902624	17	C	12/08/2024	18:40	-127.392	46.913	0	755.00	0	4.0990	0	34.3020	0	27.227	0	747.378	0	-1e10	1	-1e10	1	-1E+10	1	-1e10	1	-1e10	1	-1E+10	1	-1E+10	1	-1E+10	1
4902624	17	C	12/08/2024	18:40	-127.392	46.913	0	761.50	0	4.0881	0	34.3071	0	27.232	0	753.801	0	20.2	4	6.4	4	-1E+10	1	0.0511	4	0.000190	0	-1E+10	1	-1E+10	1	-1E+10	1
4902624	17	C	12/08/2024	18:40	-127.392	46.913	0	765.10	0	4.0820	0	34.3100	0	27.235	0	757.358	0	-1e10	1	-1e10	1	-1E+10	1	-1e10	1	-1e10	1	-1E+10	1	-1E+10	1	-1E+10	1
4902624	17	C	12/08/2024	18:40	-127.392	46.913	0	771.60	0	4.0716	0	34.3139	0	27.239	0	763.780	0	23.8	4	7.5	4	-1E+10	1	0.0514	4	0.000222	0	-1E+10	1	-1E+10	1	-1E+10	1
4902624	17	C	12/08/2024	18:40	-127.392	46.913	0	775.10	0	4.0660	0	34.3160	0	27.241	0	767.238	0	-1e10	1	-1e10	1	-1E+10	1	-1e10	1	-1e10	1	-1E+10	1	-1E+10	1	-1E+10	1
4902624	17	C	12/08/2024	18:40	-127.392	46.913	0	781.50	0	4.0464	0	34.3206	0	27.247	0	773.561	0	19.7	4	6.2	4	-1E+10	1	0.0584	4	0.000189	0	-1E+10	1	-1E+10	1	-1E+10	1
4902624	17	C	12/08/2024	18:40	-127.392	46.913	0	784.90	0	4.0360	0	34.3230	0	27.250	0	776.921	0	-1e10	1	-1e10	1	-1E+10	1	-1e10	1	-1e10	1	-1E+10	1	-1E+10	1	-1E+10	1
4902624	17	C	12/08/2024	18:40	-127.392	46.913	0	791.50	0	4.0227	0	34.3257	0	27.254	0	783.441	0	18.1	4	5.7	4	-1E+10	1	0.0587	4	0.000199	0	-1E+10	1	-1E+10	1	-1E+10	1
4902624	17	C	12/08/2024	18:40	-127.392	46.913	0	794.80	0	4.0160	0	34.3270	0	27.255	0	786.701	0	-1e10	1	-1e10	1	-1E+10	1	-1e10	1	-1e10	1	-1E+10	1	-1E+10	1	-1E+10	1
4902624	17	C	12/08/2024	18:40	-127.392	46.913	0	801.40	0	4.0000	0	34.3297	0	27.259	0	793.222	0	20.2	4	6.4	4	-1E+10	1	0.0651	4	0.000178	0	-1E+10	1	-1E+10	1	-1E+10	1
4902624	17	C	12/08/2024	18:40	-127.392	46.913	0	804.70	0	3.9920	0	34.3310	0	27.261	0	796.482	0	-1e10	1	-1e10	1	-1E+10	1	-1e10	1	-1e10	1	-1E+10	1	-1E+10	1	-1E+10	1
4902624	17	C	12/08/2024	18:40	-127.392	46.913	0	811.50	0	3.9779	0	34.3337	0	27.265	0	803.199	0	15.6	4	4.9	4	-1E+10	1	0.0517	4	0.000210	0	-1E+10	1	-1E+10	1	-1E+10	1
4902624	17	C	12/08/2024	18:40	-127.392	46.913	0	814.80	0	3.9710	0	34.3350	0	27.266	0	806.459	0	-1e10	1	-1e10	1	-1E+10	1	-1e10	1	-1e10	1	-1E+10	1	-1E+10	1	-1E+10	1
4902624	17	C	12/08/2024	18:40	-127.392	46.913	0	821.80	0	3.9504	0	34.3377	0	27.271	0	813.374	0	15.4	4	4.9	4	-1E+10	1	0.0657	4	0.000166	0	-1E+10	1	-1E+10	1	-1E+10	1
4902624	17	C	12/08/2024	18:40	-127.392	46.913	0	825.00	0	3.9410	0	34.3390	0	27.273	0	816.535	0	-1e10	1	-1e10	1	-1E+10	1	-1e10	1	-1e10	1	-1E+10	1	-1E+10	1	-1E+10	1
4902624	17	C	12/08/2024	18:40	-127.392	46.913	0	832.20	0	3.9289	0	34.3433	0	27.277	0	823.647	0	7.7	4	2.4	4	-1E+10	1	0.0652	4	0.000200	0	-1E+10	1	-1E+10	1	-1E+10	1
4902624	17	C	12/08/2024	18:40	-127.392	46.913	0	835.10	0	3.9240	0	34.3450	0	27.279	0	826.511	0	-1e10	1	-1e10	1	-1E+10	1	-1e10	1	-1e10	1	-1E+10	1	-1E+10	1	-1E+10	1
4902624	17	C	12/08/2024	18:40	-127.392	46.913	0	842.90	0	3.9031	0	34.3498	0	27.285	0	834.215	0	7.7	4	2.4	4	-1E+10	1	0.0519	4	0.000211	0	-1E+10	1	-1E+10	1	-1E+10	1
4902624	17	C	12/08/2024	18:40	-127.392	46.913	0	844.80	0	3.8980	0	34.3510	0	27.287	0	836.092	0	-1e10	1	-1e10	1	-1E+10	1	-1e10	1	-1e10	1	-1E+10	1	-1E+10	1	-1E+10	1
4902624	17	C	12/08/2024	18:40	-127.392	46.913	0	853.80	0	3.8654	0	34.3545	0	27.293	0	844.981	0	7.8	4	2.5	4	-1E+10	1	0.0722	4	0.000187	0	-1E+10	1	-1E+10	1	-1E+10	1
4902624	17	C	12/08/2024	18:40	-127.392	46.913	0	855.00	0	3.8610	0	34.3550	0	27.294	0	846.166	0	-1e10	1	-1e10	1	-1E+10	1	-1e10	1	-1e10	1	-1E+10	1	-1E+10	1	-1E+10	1
4902624	17	C	12/08/2024	18:40	-127.392	46.913	0	864.90	0	3.8110	0	34.3579	0	27.301	0	855.944	0	7.9	4	2.5	4	-1E+10	1	0.0514	4	0.000153	0	-1E+10	1	-1E+10	1	-1E+10	1
4902624	17	C	12/08/2024	18:40	-127.392	46.913	0	865.10	0	3.8100	0	34.3580	0	27.301	0	856.141	0	-1e10	1	-1e10	1	-1E+10	1	-1e10	1	-1e10	1	-1E+10	1	-1E+10	1	-1E+10	1
4902624	17	C	12/08/2024	18:40	-127.392	46.913	0	875.10	0	3.7800	0	34.3620	0	27.308	0	866.017	0	-1e10	1	-1e10	1	-1E+10	1	-1e10	1	-1e10	1	-1E+10	1	-1E+10	1	-1E+10	1
4902624	17	C	12/08/2024	18:40	-127.392	46.913	0	876.20	0	3.7760	0	34.3622	0	27.308	0	867.103	0	7.8	4	2.5	4	-1E+10	1	0.0578	4	0.000153	0	-1E+10	1	-1E+10	1	-1E+10	1
4902624	17	C	12/08/2024	18:40	-127.392	46.913	0	885.10	0	3.7440	0	34.3640	0	27.313	0	875.892	0	-1e10	1	-1e10	1	-1E+10	1	-1e10	1	-1e10	1	-1E+10	1	-1E+10	1	-1E+10	1
4902624	17	C	12/08/2024	18:40	-127.392	46.913	0	887.60	0	3.7291	0	34.3632	0	27.314	0	878.361	0	8.0	4	2.5	4	-1E+10	1	0.0443	4	0.000164	0	-1E+10	1	-1E+10	1	-1E+10	1
4902624	17	C	12/08/2024	18:40	-127.392	46.913	0	895.00	0	3.6850	0	34.3610	0	27.316	0	885.668	0	-1e10	1	-1e10	1	-1E+10	1	-1e10	1	-1e10	1	-1E+10	1	-1E+10	1	-1E+10	1
4902624	17	C	12/08/2024	18:40	-127.392	46.913	0	899.30	0	3.6817	0	34.3639	0	27.319	0	889.914	0	13.6	4	4.3	4	-1E+10	1	0.0584	4	0.000153	0	-1E+10	1	-1E+10	1	-1E+10	1
4902624	17	C	12/08/2024	18:40	-127.392	46.913	0	905.30	0	3.6770	0	34.3680	0	27.323	0	895.839	0	-1e10	1	-1e10	1	-1E+10	1	-1e10	1	-1e10	1	-1E+10	1	-1E+10	1	-1E+10	1
4902624	17	C	12/08/2024	18:40	-127.392	46.913	0	911.10	0	3.6823	0	34.3733	0	27.326	0	901.566	0	64.6	4	20.3	4	-1E+10	1	0.0576	4	0.000176	0	-1E+10	1	-1E+10	1	-1E+10	1
4902624	17	C	12/08/2024	18:40	-127.392	46.913	0	915.10	0	3.6860	0	34.3770	0	27.329	0	905.515	0	-1e10	1	-1e10	1	-1E+10	1	-1e10	1	-1e10	1	-1E+10	1	-1E+10	1	-1E+10	1
4902624	17	C	12/08/2024	18:40	-127.392	46.913	0	920.40	0	3.6781	0	34.3791	0	27.332	0	910.748	0	61.6	4	19.3	4	-1E+10	1	0.0444	4	0.000187	0	-1E+10	1	-1E+10	1	-1E+10	1
4902624	17	C	12/08/2024	18:40	-127.392	46.913	0	925.10	0	3.6710	0	34.3810	0	27.334	0	915.388	0	-1e10	1	-1e10	1	-1E+10	1	-1e10	1	-1e10	1	-1E+10	1	-1E+10	1	-1E+10	1
4902624	17	C	12/08/2024	18:40	-127.392	46.913	0	928.30	0	3.6528	0	34.3813	0	27.336	0	918.548	0	21.8	4	6.8	4	-1E+10	1	0.0581	4	0.000174	0	-1E+10	1	-1E+10	1	-1E+10	1
4902624	17	C	12/08/2024	18:40	-127.392	46.913	0	935.10	0	3.6140	0	34.3820	0	27.340	0	925.261	0	-1e10	1	-1e10	1	-1E+10	1	-1e10	1	-1e10	1	-1E+10	1	-1E+10	1	-1E+10	1
4902624	17	C	12/08/2024	18:40	-127.392	46.913	0	936.30	0	3.6106	0	34.3826	0	27.341	0	926.446	0	44.0	4	13.8	4	-1E+10	1	0.0514	4	0.000130	0	-1E+10	1	-1E+10	1	-1E+10	1
4902624	17	C	12/08/2024	18:40	-127.392	46.913	0	944.70	0	3.5866	0	34.3869	0	27.347	0	934.739	0	70.5	4	22.1	4	-1E+10	1	0.0581	4	0.000161	0	-1E+10	1	-1E+10	1	-1E+10	1
4902624	17	C	12/08/2024	18:40	-127.392	46.913	0	944.90	0	3.5860	0	34.3870	0	27.347	0	934.936	0	-1e10	1	-1e10	1	-1E+10	1	-1e10	1	-1e10	1	-1E+10	1	-1E+10	1	-1E+10	1
4902624	17	C	12/08/2024	18:40	-127.392	46.913	0	953.30	0	3.5638	0	34.3903	0	27.352	0	943.229	0	56.2	4	17.6	4	-1E+10	1	0.0509	4	0.000106	0	-1E+10	1	-1E+10	1	-1E+10	1
4902624	17	C	12/08/2024	18:40	-127.392	46.913	0	955.10	0	3.5590	0	34.3910	0	27.353	0	945.006	0	-1e10	1	-1e10	1	-1E+10	1	-1e10	1	-1e10	1	-1E+10	1	-1E+10	1	-1E+10	1
4902624	17	C	12/08/2024	18:40	-127.392	46.913	0	962.20	0	3.5583	0	34.3939	0	27.355	0	952.015	0	26.6	4	8.3	4	-1E+10	1	0.0448	4	0.000152	0	-1E+10	1	-1E+10	1	-1E+10	1
4902624	17	C	12/08/2024	18:40	-127.392	46.913	0	964.90	0	3.5580	0	34.3950	0	27.356	0	954.680	0	-1e10	1	-1e10	1	-1E+10	1	-1e10	1	-1e10	1	-1E+10	1	-1E+10	1	-1E+10	1
4902624	17	C	12/08/2024	18:40	-127.392	46.913	0	971.10	0	3.5251	0	34.3944	0	27.359	0	960.800	0	39.1	4	12.2	4	-1E+10	1	0.0655	4	0.000156	0	-1E+10	1	-1E+10	1	-1E+10	1
4902624	17	C	12/08/2024	18:40	-127.392	46.913	0	974.70	0	3.5060	0	34.3940	0	27.360	0	964.354	0	-1e10	1	-1e10	1	-1E+10	1	-1e10	1	-1e10	1	-1E+10	1	-1E+10	1	-1E+10	1
4902624	17	C	12/08/2024	18:40	-127.392	46.913	0	980.40	0	3.4859	0	34.3951	0	27.363	0	969.980	0	41.8	4	13.0	4	-1E+10	1	0.0584	4	0.000276	0	-1E+10	1	-1E+10	1	-1E+10	1
4902624	17	C	12/08/2024	18:40	-127.392	46.913	0	984.90	0	3.4700	0	34.3960	0	27.366	0	974.422	0	-1e10	1	-1e10	1	-1E+10	1	-1e10	1	-1e10	1	-1E+10	1	-1E+10	1	-1E+10	1
4902624	17	C	12/08/2024	18:40	-127.392	46.913	0	990.00	0	3.4608	0	34.3975	0	27.368	0	979.455	0	46.3	4	14.5	4	-1E+10	1	0.0589	4	0.000140	0	-1E+10	1	-1E+10	1	-1E+10	1
4902624	17	C	12/08/2024	18:40	-127.392	46.913	0	994.90	0	3.4520	0	34.3990	0	27.370	0	984.292	0	-1e10	1	-1e10	1	-1E+10	1	-1e10	1	-1e10	1	-1E+10	1	-1E+10	1	-1E+10	1
4902624	17	C	12/08/2024	18:40	-127.392	46.913	0	1000.70	0	3.4372	0	34.4009	0	27.373	0	990.016	0	45.6	4	14.2	4	-1E+10	1	0.0727	4	0.000163	0	-1E+10	1	-1E+10	1	-1E+10	1
4902624	17	C	12/08/2024	18:40	-127.392	46.913	0	1020.80	0	3.3860	0	34.4076	0	27.383	0	1009.853	0	44.6	4	13.9	4	-1E+10	1	0.0585	4	0.000171	0	-1E+10	1	-1E+10	1	-1E+10	1
4902624	17	C	12/08/2024	18:40	-127.392	46.913	0	1025.10	0	3.3750	0	34.4090	0	27.385	0	1014.097	0	-1e10	1	-1e10	1	-1E+10	1	-1e10	1	-1e10	1	-1E+10	1	-1E+10	1	-1E+10	1
4902624	17	C	12/08/2024	18:40	-127.392	46.913	0	1041.50	0	3.3396	0	34.4139	0	27.393	0	1030.280	0	43.3	4	13.5	4	-1E+10	1	0.0656	4	0.000577	0	-1E+10	1	-1E+10	1	-1E+10	1
4902624	17	C	12/08/2024	18:40	-127.392	46.913	0	1062.70	0	3.2938	0	34.4203	0	27.402	0	1051.199	0	47.7	4	14.8	4	-1E+10	1	0.0583	4	0.000151	0	-1E+10	1	-1E+10	1	-1E+10	1
4902624	17	C	12/08/2024	18:40	-127.392	46.913	0	1075.10	0	3.2670	0	34.4240	0	27.408	0	1063.433	0	-1e10	1	-1e10	1	-1E+10	1	-1e10	1	-1e10	1	-1E+10	1	-1E+10	1	-1E+10	1
4902624	17	C	12/08/2024	18:40	-127.392	46.913	0	1084.50	0	3.2447	0	34.4271	0	27.412	0	1072.707	0	51.6	4	16.0	4	-1E+10	1	0.0514	4	0.000150	0	-1E+10	1	-1E+10	1	-1E+10	1
4902624	17	C	12/08/2024	18:40	-127.392	46.913	0	1106.60	0	3.1922	0	34.4342	0	27.423	0	1094.509	0	48.2	4	14.9	4	-1E+10	1	0.0657	4	0.000127	0	-1E+10	1	-1E+10	1	-1E+10	1
4902624	17	C	12/08/2024	18:40	-127.392	46.913	0	1124.40	0	3.1500	0	34.4400	0	27.432	0	1112.068	0	-1e10	1	-1e10	1	-1E+10	1	-1e10	1	-1e10	1	-1E+10	1	-1E+10	1	-1E+10	1
4902624	17	C	12/08/2024	18:40	-127.392	46.913	0	1129.20	0	3.1392	0	34.4414	0	27.434	0	1116.802	0	57.4	4	17.8	4	-1E+10	1	0.0656	4	0.000138	0	-1E+10	1	-1E+10	1	-1E+10	1
4902624	17	C	12/08/2024	18:40	-127.392	46.913	0	1152.40	0	3.0869	0	34.4482	0	27.444	0	1139.685	0	58.4	4	18.1	4	-1E+10	1	0.0584	4	0.000139	0	-1E+10	1	-1E+10	1	-1E+10	1
4902624	17	C	12/08/2024	18:40	-127.392	46.913	0	1173.80	0	3.0387	0	34.4544	0	27.453	0	1160.790	0	68.3	4	21.1	4	-1E+10	1	0.0583	4	0.000172	0	-1E+10	1	-1E+10	1	-1E+10	1
4902624	17	C	12/08/2024	18:40	-127.392	46.913	0	1175.90	0	3.0340	0	34.4550	0	27.454	0	1162.861	0	-1e10	1	-1e10	1	-1E+10	1	-1e10	1	-1e10	1	-1E+10	1	-1E+10	1	-1E+10	1
4902624	17	C	12/08/2024	18:40	-127.392	46.913	0	1189.50	0	3.0039	0	34.4581	0	27.460	0	1176.272	0	67.0	4	20.7	4	-1E+10	1	0.0510	4	0.000115	0	-1E+10	1	-1E+10	1	-1E+10	1
4902624	17	C	12/08/2024	18:40	-127.392	46.913	0	1205.90	0	2.9676	0	34.4618	0	27.466	0	1192.443	0	37.0	8	11.4	8	-1E+10	1	0.0441	4	0.000149	0	-1E+10	1	-1E+10	1	-1E+10	1
4902624	17	C	12/08/2024	18:40	-127.392	46.913	0	1222.90	0	2.9300	0	34.4656	0	27.472	0	1209.204	0	75.1	4	23.1	4	-1E+10	1	0.0584	4	0.000137	0	-1E+10	1	-1E+10	1	-1E+10	1
4902624	17	C	12/08/2024	18:40	-127.392	46.913	0	1224.70	0	2.9260	0	34.4660	0	27.473	0	1210.979	0	-1e10	1	-1e10	1	-1E+10	1	-1e10	1	-1e10	1	-1E+10	1	-1E+10	1	-1E+10	1
4902624	17	C	12/08/2024	18:40	-127.392	46.913	0	1240.50	0	2.8905	0	34.4701	0	27.480	0	1226.556	0	64.9	4	20.0	4	-1E+10	1	0.0584	4	0.000137	0	-1E+10	1	-1E+10	1	-1E+10	1
4902624	17	C	12/08/2024	18:40	-127.392	46.913	0	1258.70	0	2.8497	0	34.4749	0	27.487	0	1244.497	0	66.4	4	20.4	4	-1E+10	1	0.0584	4	0.000137	0	-1E+10	1	-1E+10	1	-1E+10	1
4902624	17	C	12/08/2024	18:40	-127.392	46.913	0	1274.60	0	2.8140	0	34.4790	0	27.494	0	1260.170	0	-1e10	1	-1e10	1	-1E+10	1	-1e10	1	-1e10	1	-1E+10	1	-1E+10	1	-1E+10	1
4902624	17	C	12/08/2024	18:40	-127.392	46.913	0	1277.60	0	2.8085	0	34.4797	0	27.495	0	1263.128	0	67.4	4	20.7	4	-1E+10	1	0.0584	4	0.000125	0	-1E+10	1	-1E+10	1	-1E+10	1
4902624	17	C	12/08/2024	18:40	-127.392	46.913	0	1297.40	0	2.7725	0	34.4840	0	27.501	0	1282.643	0	84.3	4	25.9	4	-1E+10	1	0.0584	4	0.000148	0	-1E+10	1	-1E+10	1	-1E+10	1
4902624	17	C	12/08/2024	18:40	-127.392	46.913	0	1318.00	0	2.7349	0	34.4885	0	27.508	0	1302.945	0	88.7	4	27.2	4	-1E+10	1	0.0584	4	0.000113	0	-1E+10	1	-1E+10	1	-1E+10	1
4902624	17	C	12/08/2024	18:40	-127.392	46.913	0	1325.10	0	2.7220	0	34.4900	0	27.511	0	1309.942	0	-1e10	1	-1e10	1	-1E+10	1	-1e10	1	-1e10	1	-1E+10	1	-1E+10	1	-1E+10	1
4902624	17	C	12/08/2024	18:40	-127.392	46.913	0	1339.50	0	2.6995	0	34.4932	0	27.515	0	1324.132	0	95.2	4	29.2	4	-1E+10	1	0.0581	4	0.000124	0	-1E+10	1	-1E+10	1	-1E+10	1
4902624	17	C	12/08/2024	18:40	-127.392	46.913	0	1361.60	0	2.6649	0	34.4982	0	27.522	0	1345.908	0	99.4	4	30.5	4	-1E+10	1	0.0441	4	0.000113	0	-1E+10	1	-1E+10	1	-1E+10	1
4902624	17	C	12/08/2024	18:40	-127.392	46.913	0	1374.30	0	2.6450	0	34.5010	0	27.527	0	1358.421	0	-1e10	1	-1e10	1	-1E+10	1	-1e10	1	-1e10	1	-1E+10	1	-1E+10	1	-1E+10	1
4902624	17	C	12/08/2024	18:40	-127.392	46.913	0	1384.50	0	2.6276	0	34.5030	0	27.530	0	1368.470	0	106.0	4	32.4	4	-1E+10	1	0.0584	4	0.000124	0	-1E+10	1	-1E+10	1	-1E+10	1
4902624	17	C	12/08/2024	18:40	-127.392	46.913	0	1407.90	0	2.5876	0	34.5075	0	27.537	0	1391.522	0	110.5	4	33.8	4	-1E+10	1	0.0583	4	0.000135	0	-1E+10	1	-1E+10	1	-1E+10	1
4902624	17	C	12/08/2024	18:40	-127.392	46.913	0	1425.80	0	2.5570	0	34.5110	0	27.542	0	1409.154	0	-1e10	1	-1e10	1	-1E+10	1	-1e10	1	-1e10	1	-1E+10	1	-1E+10	1	-1E+10	1
4902624	17	C	12/08/2024	18:40	-127.392	46.913	0	1426.70	0	2.5557	0	34.5112	0	27.543	0	1410.040	0	111.7	4	34.1	4	-1E+10	1	0.0511	4	0.000135	0	-1E+10	1	-1E+10	1	-1E+10	1
4902624	17	C	12/08/2024	18:40	-127.392	46.913	0	1443.20	0	2.5318	0	34.5142	0	27.547	0	1426.292	0	115.5	4	35.3	4	-1E+10	1	0.0514	4	0.000123	0	-1E+10	1	-1E+10	1	-1E+10	1
4902624	17	C	12/08/2024	18:40	-127.392	46.913	0	1460.20	0	2.5072	0	34.5173	0	27.552	0	1443.034	0	118.3	4	36.1	4	-1E+10	1	0.0655	4	0.000102	0	-1E+10	1	-1E+10	1	-1E+10	1
4902624	17	C	12/08/2024	18:40	-127.392	46.913	0	1474.80	0	2.4860	0	34.5200	0	27.556	0	1457.413	0	-1e10	1	-1e10	1	-1E+10	1	-1e10	1	-1e10	1	-1E+10	1	-1E+10	1	-1E+10	1
4902624	17	C	12/08/2024	18:40	-127.392	46.913	0	1477.70	0	2.4817	0	34.5205	0	27.557	0	1460.268	0	91.9	8	28.0	8	-1E+10	1	0.0584	4	0.000204	0	-1E+10	1	-1E+10	1	-1E+10	1
4902624	17	C	12/08/2024	18:40	-127.392	46.913	0	1495.90	0	2.4545	0	34.5238	0	27.562	0	1478.190	0	117.1	4	35.7	4	-1E+10	1	0.0581	4	0.000122	0	-1E+10	1	-1E+10	1	-1E+10	1
4902624	17	C	12/08/2024	18:40	-127.392	46.913	0	1515.40	0	2.4253	0	34.5273	0	27.567	0	1497.390	0	96.7	4	29.4	4	-1E+10	1	0.0365	4	0.000111	0	-1E+10	1	-1E+10	1	-1E+10	1
4902624	17	C	12/08/2024	18:40	-127.392	46.913	0	1525.00	0	2.4110	0	34.5290	0	27.569	0	1506.842	0	-1e10	1	-1e10	1	-1E+10	1	-1e10	1	-1e10	1	-1E+10	1	-1E+10	1	-1E+10	1
4902624	17	C	12/08/2024	18:40	-127.392	46.913	0	1535.70	0	2.3942	0	34.5311	0	27.573	0	1517.376	0	100.0	4	30.4	4	-1E+10	1	0.0368	4	0.000134	0	-1E+10	1	-1E+10	1	-1E+10	1
4902624	17	C	12/08/2024	18:40	-127.392	46.913	0	1556.90	0	2.3610	0	34.5354	0	27.579	0	1538.246	0	100.6	4	30.6	4	-1E+10	1	0.0513	4	0.000133	0	-1E+10	1	-1E+10	1	-1E+10	1
4902624	17	C	12/08/2024	18:40	-127.392	46.913	0	1574.80	0	2.3330	0	34.5390	0	27.584	0	1555.866	0	-1e10	1	-1e10	1	-1E+10	1	-1e10	1	-1e10	1	-1E+10	1	-1E+10	1	-1E+10	1
4902624	17	C	12/08/2024	18:40	-127.392	46.913	0	1578.90	0	2.3273	0	34.5398	0	27.585	0	1559.901	0	105.5	4	32.1	4	-1E+10	1	0.0581	4	0.000110	0	-1E+10	1	-1E+10	1	-1E+10	1
4902624	17	C	12/08/2024	18:40	-127.392	46.913	0	1602.20	0	2.2946	0	34.5444	0	27.592	0	1582.834	0	109.5	4	33.2	4	-1E+10	1	0.0442	4	0.000122	0	-1E+10	1	-1E+10	1	-1E+10	1
4902624	17	C	12/08/2024	18:40	-127.392	46.913	0	1622.60	0	2.2661	0	34.5484	0	27.597	0	1602.910	0	99.8	4	30.3	4	-1E+10	1	0.0583	4	0.000156	0	-1E+10	1	-1E+10	1	-1E+10	1
4902624	17	C	12/08/2024	18:40	-127.392	46.913	0	1625.50	0	2.2620	0	34.5490	0	27.598	0	1605.764	0	-1e10	1	-1e10	1	-1E+10	1	-1e10	1	-1e10	1	-1E+10	1	-1E+10	1	-1E+10	1
4902624	17	C	12/08/2024	18:40	-127.392	46.913	0	1639.60	0	2.2477	0	34.5510	0	27.601	0	1619.639	0	101.3	4	30.7	4	-1E+10	1	0.0511	4	0.000133	0	-1E+10	1	-1E+10	1	-1E+10	1
4902624	17	C	12/08/2024	18:40	-127.392	46.913	0	1657.40	0	2.2296	0	34.5535	0	27.605	0	1637.154	0	102.2	4	31.0	4	-1E+10	1	0.0513	4	0.000132	0	-1E+10	1	-1E+10	1	-1E+10	1
4902624	17	C	12/08/2024	18:40	-127.392	46.913	0	1674.70	0	2.2120	0	34.5560	0	27.608	0	1654.175	0	-1e10	1	-1e10	1	-1E+10	1	-1e10	1	-1e10	1	-1E+10	1	-1E+10	1	-1E+10	1
4902624	17	C	12/08/2024	18:40	-127.392	46.913	0	1675.80	0	2.2108	0	34.5562	0	27.608	0	1655.257	0	108.4	4	32.9	4	-1E+10	1	0.0584	4	0.000097	0	-1E+10	1	-1E+10	1	-1E+10	1
4902624	17	C	12/08/2024	18:40	-127.392	46.913	0	1694.80	0	2.1895	0	34.5592	0	27.613	0	1673.949	0	117.2	4	35.5	4	-1E+10	1	0.0582	4	0.000097	0	-1E+10	1	-1E+10	1	-1E+10	1
4902624	17	C	12/08/2024	18:40	-127.392	46.913	0	1714.10	0	2.1680	0	34.5623	0	27.617	0	1692.935	0	121.0	4	36.6	4	-1E+10	1	0.0511	4	0.000121	0	-1E+10	1	-1E+10	1	-1E+10	1
4902624	17	C	12/08/2024	18:40	-127.392	46.913	0	1724.80	0	2.1560	0	34.5640	0	27.619	0	1703.460	0	-1e10	1	-1e10	1	-1E+10	1	-1e10	1	-1e10	1	-1E+10	1	-1E+10	1	-1E+10	1
4902624	17	C	12/08/2024	18:40	-127.392	46.913	0	1733.60	0	2.1460	0	34.5654	0	27.621	0	1712.115	0	123.5	4	37.4	4	-1E+10	1	0.0511	4	0.000143	0	-1E+10	1	-1E+10	1	-1E+10	1
4902624	17	C	12/08/2024	18:40	-127.392	46.913	0	1753.30	0	2.1235	0	34.5686	0	27.626	0	1731.491	0	125.8	4	38.0	4	-1E+10	1	0.0511	4	0.000119	0	-1E+10	1	-1E+10	1	-1E+10	1
4902624	17	C	12/08/2024	18:40	-127.392	46.913	0	1773.40	0	2.1006	0	34.5718	0	27.630	0	1751.258	0	127.8	4	38.6	4	-1E+10	1	0.0511	4	0.000096	0	-1E+10	1	-1E+10	1	-1E+10	1
4902624	17	C	12/08/2024	18:40	-127.392	46.913	0	1774.80	0	2.0990	0	34.5720	0	27.630	0	1752.635	0	-1e10	1	-1e10	1	-1E+10	1	-1e10	1	-1e10	1	-1E+10	1	-1E+10	1	-1E+10	1
4902624	17	C	12/08/2024	18:40	-127.392	46.913	0	1793.80	0	2.0811	0	34.5747	0	27.634	0	1771.318	0	129.4	4	39.1	4	-1E+10	1	0.0509	4	0.000108	0	-1E+10	1	-1E+10	1	-1E+10	1
4902624	17	C	12/08/2024	18:40	-127.392	46.913	0	1814.60	0	2.0615	0	34.5776	0	27.638	0	1791.770	0	131.3	4	39.7	4	-1E+10	1	0.0437	4	0.000119	0	-1E+10	1	-1E+10	1	-1E+10	1
4902624	17	C	12/08/2024	18:40	-127.392	46.913	0	1824.70	0	2.0520	0	34.5790	0	27.640	0	1801.700	0	-1e10	1	-1e10	1	-1E+10	1	-1e10	1	-1e10	1	-1E+10	1	-1E+10	1	-1E+10	1
4902624	17	C	12/08/2024	18:40	-127.392	46.913	0	1836.00	0	2.0412	0	34.5808	0	27.642	0	1812.809	0	133.3	4	40.2	4	-1E+10	1	0.0368	4	0.000118	0	-1E+10	1	-1E+10	1	-1E+10	1
4902624	17	C	12/08/2024	18:40	-127.392	46.913	0	1857.70	0	2.0205	0	34.5844	0	27.647	0	1834.142	0	135.1	4	40.8	4	-1E+10	1	0.0511	4	0.000096	0	-1E+10	1	-1E+10	1	-1E+10	1
4902624	17	C	12/08/2024	18:40	-127.392	46.913	0	1874.00	0	2.0050	0	34.5870	0	27.650	0	1850.164	0	-1e10	1	-1e10	1	-1E+10	1	-1e10	1	-1e10	1	-1E+10	1	-1E+10	1	-1E+10	1
4902624	17	C	12/08/2024	18:40	-127.392	46.913	0	1880.50	0	1.9998	0	34.5879	0	27.651	0	1856.553	0	136.9	4	41.3	4	-1E+10	1	0.0505	4	0.000118	0	-1E+10	1	-1E+10	1	-1E+10	1
4902624	17	C	12/08/2024	18:40	-127.392	46.913	0	1903.30	0	1.9814	0	34.5910	0	27.656	0	1878.962	0	138.5	4	41.7	4	-1E+10	1	0.0228	4	0.000095	0	-1E+10	1	-1E+10	1	-1E+10	1
4902624	17	C	12/08/2024	18:40	-127.392	46.913	0	1919.40	0	1.9684	0	34.5932	0	27.658	0	1894.785	0	139.6	4	42.1	4	-1E+10	1	0.0580	4	0.000106	0	-1E+10	1	-1E+10	1	-1E+10	1
4902624	17	C	12/08/2024	18:40	-127.392	46.913	0	1924.90	0	1.9640	0	34.5940	0	27.659	0	1900.190	0	-1e10	1	-1e10	1	-1E+10	1	-1e10	1	-1e10	1	-1E+10	1	-1E+10	1	-1E+10	1
4902624	17	C	12/08/2024	18:40	-127.392	46.913	0	1936.30	0	1.9555	0	34.5953	0	27.661	0	1911.392	0	140.4	4	42.3	4	-1E+10	1	0.0365	4	0.000106	0	-1E+10	1	-1E+10	1	-1E+10	1
4902624	17	C	12/08/2024	18:40	-127.392	46.913	0	1954.10	0	1.9422	0	34.5973	0	27.664	0	1928.882	0	140.7	4	42.4	4	-1E+10	1	0.0371	4	0.000118	0	-1E+10	1	-1E+10	1	-1E+10	1
4902624	17	C	12/08/2024	18:40	-127.392	46.913	0	1969.20	0	1.9310	0	34.5990	0	27.666	0	1943.719	0	-1e10	1	-1e10	1	-1E+10	1	-1e10	1	-1e10	1	-1E+10	1	-1E+10	1	-1E+10	1
4902624	17	C	12/08/2024	18:40	-127.392	46.913	0	1972.60	0	-1e10	1	-1e10	1	-1e10	1	1947.059	0	145.2	4	-1e10	4	-1E+10	1	0.0653	4	0.000147	0	-1E+10	1	-1E+10	1	-1E+10	1
4902624	17	C	12/08/2024	18:40	-127.392	46.913	0	1988.40	0	-1e10	1	-1e10	1	-1e10	1	1962.582	0	139.6	4	-1e10	4	-1E+10	1	0.0511	4	0.000113	0	-1E+10	1	-1E+10	1	-1E+10	1
4902624	17	C	12/08/2024	18:40	-127.392	46.913	0																										
4902624	18	C	12/18/2024	13:32	-127.027	47.059	0	0.00	0	9.9639	0	32.2046	0	24.776	0	0.000	0	251.1	4	89.6	4	-1E+10	1	0.6132	4	0.000938	0	-1E+10	1	-1E+10	1	-1E+10	1
4902624	18	C	12/18/2024	13:32	-127.027	47.059	0	0.10	0	9.9693	0	32.2019	0	24.773	0	0.099	0	-1e10	1	-1e10	1	-1E+10	1	0.6059	4	0.000875	0	-1E+10	1	-1E+10	1	-1E+10	1
4902624	18	C	12/18/2024	13:32	-127.027	47.059	0	0.20	0	9.9747	0	32.1991	0	24.770	0	0.198	0	-1e10	1	-1e10	1	-1E+10	1	0.6132	4	0.000793	0	-1E+10	1	-1E+10	1	-1E+10	1
4902624	18	C	12/18/2024	13:32	-127.027	47.059	0	0.30	0	9.9801	0	32.1964	0	24.767	0	0.298	0	-1e10	1	-1e10	1	-1E+10	1	0.6351	4	0.000746	0	-1E+10	1	-1E+10	1	-1E+10	1
4902624	18	C	12/18/2024	13:32	-127.027	47.059	0	0.50	0	9.9910	0	32.1910	0	24.761	0	0.496	0	249.4	4	89.0	4	-1E+10	1	0.6424	4	0.000875	0	-1E+10	1	-1E+10	1	-1E+10	1
4902624	18	C	12/18/2024	13:32	-127.027	47.059	0	0.80	0	9.9913	0	32.1923	0	24.762	0	0.793	0	249.3	4	89.0	4	-1E+10	1	0.6293	4	0.000798	0	-1E+10	1	-1E+10	1	-1E+10	1
4902624	18	C	12/18/2024	13:32	-127.027	47.059	0	1.00	0	9.9916	0	32.1932	0	24.763	0	0.992	0	250.1	4	89.3	4	-1E+10	1	0.6205	4	0.000746	0	-1E+10	1	-1E+10	1	-1E+10	1
4902624	18	C	12/18/2024	13:32	-127.027	47.059	0	1.20	0	9.9918	0	32.1941	0	24.763	0	1.190	0	249.2	4	88.9	4	-1E+10	1	0.6380	4	0.000777	0	-1E+10	1	-1E+10	1	-1E+10	1
4902624	18	C	12/18/2024	13:32	-127.027	47.059	0	1.40	0	9.9920	0	32.1950	0	24.764	0	1.388	0	-1e10	1	-1e10	1	-1E+10	1	-1e10	1	-1e10	1	-1E+10	1	-1E+10	1	-1E+10	1
4902624	18	C	12/18/2024	13:32	-127.027	47.059	0	1.60	0	9.9925	0	32.1950	0	24.764	0	1.587	0	-1e10	1	-1e10	1	-1E+10	1	0.6497	4	0.000711	0	-1E+10	1	-1E+10	1	-1E+10	1
4902624	18	C	12/18/2024	13:32	-127.027	47.059	0	1.70	0	9.9928	0	32.1950	0	24.764	0	1.686	0	248.9	4	88.8	4	-1E+10	1	0.6351	4	0.000781	0	-1E+10	1	-1E+10	1	-1E+10	1
4902624	18	C	12/18/2024	13:32	-127.027	47.059	0	1.80	0	9.9931	0	32.1950	0	24.764	0	1.785	0	-1e10	1	-1e10	1	-1E+10	1	0.7373	4	0.000746	0	-1E+10	1	-1E+10	1	-1E+10	1
4902624	18	C	12/18/2024	13:32	-127.027	47.059	0	1.90	0	9.9934	0	32.1950	0	24.764	0	1.884	0	-1e10	1	-1e10	1	-1E+10	1	0.6935	4	0.000781	0	-1E+10	1	-1E+10	1	-1E+10	1
4902624	18	C	12/18/2024	13:32	-127.027	47.059	0	2.10	0	9.9939	0	32.1950	0	24.764	0	2.083	0	-1e10	1	-1e10	1	-1E+10	1	0.6205	4	0.000723	0	-1E+10	1	-1E+10	1	-1E+10	1
4902624	18	C	12/18/2024	13:32	-127.027	47.059	0	2.30	0	9.9945	0	32.1950	0	24.764	0	2.281	0	-1e10	1	-1e10	1	-1E+10	1	0.6862	4	0.000770	0	-1E+10	1	-1E+10	1	-1E+10	1
4902624	18	C	12/18/2024	13:32	-127.027	47.059	0	2.50	0	9.9950	0	32.1950	0	24.764	0	2.479	0	248.9	4	88.8	4	-1E+10	1	0.6643	4	0.000813	0	-1E+10	1	-1E+10	1	-1E+10	1
4902624	18	C	12/18/2024	13:32	-127.027	47.059	0	2.90	0	9.9950	0	32.1950	0	24.764	0	2.876	0	248.6	4	88.7	4	-1E+10	1	0.6643	4	0.000799	0	-1E+10	1	-1E+10	1	-1E+10	1
4902624	18	C	12/18/2024	13:32	-127.027	47.059	0	3.10	0	9.9950	0	32.1950	0	24.764	0	3.074	0	-1e10	1	-1e10	1	-1E+10	1	0.7081	4	0.000817	0	-1E+10	1	-1E+10	1	-1E+10	1
4902624	18	C	12/18/2024	13:32	-127.027	47.059	0	3.30	0	9.9950	0	32.1950	0	24.764	0	3.273	0	248.6	4	88.7	4	-1E+10	1	0.6753	4	0.000793	0	-1E+10	1	-1E+10	1	-1E+10	1
4902624	18	C	12/18/2024	13:32	-127.027	47.059	0	3.40	0	9.9950	0	32.1950	0	24.764	0	3.372	0	-1e10	1	-1e10	1	-1E+10	1	0.7081	4	0.000805	0	-1E+10	1	-1E+10	1	-1E+10	1
4902624	18	C	12/18/2024	13:32	-127.027	47.059	0	3.50	0	9.9951	0	32.1950	0	24.764	0	3.471	0	-1e10	1	-1e10	1	-1E+10	1	0.6351	4	0.000793	0	-1E+10	1	-1E+10	1	-1E+10	1
4902624	18	C	12/18/2024	13:32	-127.027	47.059	0	3.60	0	9.9952	0	32.1950	0	24.764	0	3.570	0	-1e10	1	-1e10	1	-1E+10	1	0.6935	4	0.000746	0	-1E+10	1	-1E+10	1	-1E+10	1
4902624	18	C	12/18/2024	13:32	-127.027	47.059	0	3.70	0	9.9953	0	32.1950	0	24.764	0	3.669	0	-1e10	1	-1e10	1	-1E+10	1	0.6497	4	0.000793	0	-1E+10	1	-1E+10	1	-1E+10	1
4902624	18	C	12/18/2024	13:32	-127.027	47.059	0	3.80	0	9.9954	0	32.1950	0	24.764	0	3.768	0	248.5	4	88.7	4	-1E+10	1	0.6205	4	0.000781	0	-1E+10	1	-1E+10	1	-1E+10	1
4902624	18	C	12/18/2024	13:32	-127.027	47.059	0	3.90	0	9.9955	0	32.1950	0	24.764	0	3.868	0	-1e10	1	-1e10	1	-1E+10	1	0.6497	4	0.000746	0	-1E+10	1	-1E+10	1	-1E+10	1
4902624	18	C	12/18/2024	13:32	-127.027	47.059	0	4.00	0	9.9956	0	32.1950	0	24.764	0	3.967	0	-1e10	1	-1e10	1	-1E+10	1	0.6497	4	0.000758	0	-1E+10	1	-1E+10	1	-1E+10	1
4902624	18	C	12/18/2024	13:32	-127.027	47.059	0	4.10	0	9.9957	0	32.1950	0	24.764	0	4.066	0	-1e10	1	-1e10	1	-1E+10	1	0.6278	4	0.000899	0	-1E+10	1	-1E+10	1	-1E+10	1
4902624	18	C	12/18/2024	13:32	-127.027	47.059	0	4.20	0	9.9958	0	32.1950	0	24.764	0	4.165	0	248.3	4	88.6	4	-1E+10	1	0.6424	4	0.000758	0	-1E+10	1	-1E+10	1	-1E+10	1
4902624	18	C	12/18/2024	13:32	-127.027	47.059	0	4.30	0	9.9959	0	32.1950	0	24.764	0	4.264	0	-1e10	1	-1e10	1	-1E+10	1	0.6278	4	0.000840	0	-1E+10	1	-1E+10	1	-1E+10	1
4902624	18	C	12/18/2024	13:32	-127.027	47.059	0	4.40	0	9.9960	0	32.1950	0	24.764	0	4.363	0	-1e10	1	-1e10	1	-1E+10	1	-1e10	1	-1e10	1	-1E+10	1	-1E+10	1	-1E+10	1
4902624	18	C	12/18/2024	13:32	-127.027	47.059	0	4.60	0	9.9962	0	32.1950	0	24.764	0	4.562	0	-1e10	1	-1e10	1	-1E+10	1	0.6570	4	0.000781	0	-1E+10	1	-1E+10	1	-1E+10	1
4902624	18	C	12/18/2024	13:32	-127.027	47.059	0	4.70	0	9.9963	0	32.1950	0	24.763	0	4.661	0	248.2	4	88.6	4	-1E+10	1	0.6205	4	0.000793	0	-1E+10	1	-1E+10	1	-1E+10	1
4902624	18	C	12/18/2024	13:32	-127.027	47.059	0	4.80	0	9.9964	0	32.1950	0	24.763	0	4.760	0	-1e10	1	-1e10	1	-1E+10	1	0.6570	4	0.000852	0	-1E+10	1	-1E+10	1	-1E+10	1
4902624	18	C	12/18/2024	13:32	-127.027	47.059	0	5.00	0	9.9965	0	32.1950	0	24.763	0	4.958	0	-1e10	1	-1e10	1	-1E+10	1	0.6789	4	0.000934	0	-1E+10	1	-1E+10	1	-1E+10	1
4902624	18	C	12/18/2024	13:32	-127.027	47.059	0	5.10	0	9.9966	0	32.1950	0	24.763	0	5.058	0	-1e10	1	-1e10	1	-1E+10	1	0.6424	4	0.001086	0	-1E+10	1	-1E+10	1	-1E+10	1
4902624	18	C	12/18/2024	13:32	-127.027	47.059	0	5.20	0	9.9967	0	32.1950	0	24.763	0	5.157	0	248.1	4	88.5	4	-1E+10	1	0.6935	4	0.000746	0	-1E+10	1	-1E+10	1	-1E+10	1
4902624	18	C	12/18/2024	13:32	-127.027	47.059	0	5.30	0	9.9968	0	32.1950	0	24.763	0	5.256	0	-1e10	1	-1e10	1	-1E+10	1	0.6789	4	0.000723	0	-1E+10	1	-1E+10	1	-1E+10	1
4902624	18	C	12/18/2024	13:32	-127.027	47.059	0	5.50	0	9.9970	0	32.1950	0	24.763	0	5.454	0	-1e10	1	-1e10	1	-1E+10	1	0.7154	4	0.000793	0	-1E+10	1	-1E+10	1	-1E+10	1
4902624	18	C	12/18/2024	13:32	-127.027	47.059	0	5.60	0	9.9972	0	32.1951	0	24.763	0	5.553	0	-1e10	1	-1e10	1	-1E+10	1	0.6351	4	0.000793	0	-1E+10	1	-1E+10	1	-1E+10	1
4902624	18	C	12/18/2024	13:32	-127.027	47.059	0	5.70	0	9.9974	0	32.1952	0	24.763	0	5.653	0	-1e10	1	-1e10	1	-1E+10	1	0.6643	4	0.000758	0	-1E+10	1	-1E+10	1	-1E+10	1
4902624	18	C	12/18/2024	13:32	-127.027	47.059	0	5.80	0	9.9976	0	32.1953	0	24.764	0	5.752	0	247.9	4	88.5	4	-1E+10	1	0.6570	4	0.000746	0	-1E+10	1	-1E+10	1	-1E+10	1
4902624	18	C	12/18/2024	13:32	-127.027	47.059	0	6.10	0	9.9982	0	32.1956	0	24.764	0	6.049	0	-1e10	1	-1e10	1	-1E+10	1	0.6643	4	0.000770	0	-1E+10	1	-1E+10	1	-1E+10	1
4902624	18	C	12/18/2024	13:32	-127.027	47.059	0	6.20	0	9.9984	0	32.1957	0	24.764	0	6.148	0	-1e10	1	-1e10	1	-1E+10	1	0.6497	4	0.000817	0	-1E+10	1	-1E+10	1	-1E+10	1
4902624	18	C	12/18/2024	13:32	-127.027	47.059	0	6.40	0	9.9988	0	32.1959	0	24.764	0	6.347	0	-1e10	1	-1e10	1	-1E+10	1	0.7081	4	0.000758	0	-1E+10	1	-1E+10	1	-1E+10	1
4902624	18	C	12/18/2024	13:32	-127.027	47.059	0	6.50	0	9.9990	0	32.1960	0	24.764	0	6.446	0	247.9	4	88.5	4	-1E+10	1	0.6570	4	0.000735	0	-1E+10	1	-1E+10	1	-1E+10	1
4902624	18	C	12/18/2024	13:32	-127.027	47.059	0	6.70	0	9.9988	0	32.1958	0	24.764	0	6.644	0	-1e10	1	-1e10	1	-1E+10	1	0.6716	4	0.000828	0	-1E+10	1	-1E+10	1	-1E+10	1
4902624	18	C	12/18/2024	13:32	-127.027	47.059	0	6.80	0	9.9987	0	32.1957	0	24.764	0	6.743	0	-1e10	1	-1e10	1	-1E+10	1	0.6424	4	0.000746	0	-1E+10	1	-1E+10	1	-1E+10	1
4902624	18	C	12/18/2024	13:32	-127.027	47.059	0	7.00	0	9.9985	0	32.1955	0	24.764	0	6.942	0	-1e10	1	-1e10	1	-1E+10	1	0.6716	4	0.000793	0	-1E+10	1	-1E+10	1	-1E+10	1
4902624	18	C	12/18/2024	13:32	-127.027	47.059	0	7.30	0	9.9982	0	32.1952	0	24.763	0	7.239	0	247.7	4	88.4	4	-1E+10	1	0.6278	4	0.000817	0	-1E+10	1	-1E+10	1	-1E+10	1
4902624	18	C	12/18/2024	13:32	-127.027	47.059	0	7.50	0	9.9980	0	32.1950	0	24.763	0	7.438	0	-1e10	1	-1e10	1	-1E+10	1	-1e10	1	-1e10	1	-1E+10	1	-1E+10	1	-1E+10	1
4902624	18	C	12/18/2024	13:32	-127.027	47.059	0	7.70	0	9.9982	0	32.1952	0	24.763	0	7.636	0	-1e10	1	-1e10	1	-1E+10	1	0.6570	4	0.001004	0	-1E+10	1	-1E+10	1	-1E+10	1
4902624	18	C	12/18/2024	13:32	-127.027	47.059	0	7.90	0	9.9984	0	32.1954	0	24.764	0	7.834	0	-1e10	1	-1e10	1	-1E+10	1	0.6424	4	0.000828	0	-1E+10	1	-1E+10	1	-1E+10	1
4902624	18	C	12/18/2024	13:32	-127.027	47.059	0	8.10	0	9.9986	0	32.1956	0	24.764	0	8.033	0	247.6	4	88.4	4	-1E+10	1	0.6643	4	0.000828	0	-1E+10	1	-1E+10	1	-1E+10	1
4902624	18	C	12/18/2024	13:32	-127.027	47.059	0	8.20	0	9.9987	0	32.1957	0	24.764	0	8.132	0	-1e10	1	-1e10	1	-1E+10	1	0.6205	4	0.000969	0	-1E+10	1	-1E+10	1	-1E+10	1
4902624	18	C	12/18/2024	13:32	-127.027	47.059	0	8.40	0	9.9989	0	32.1959	0	24.764	0	8.330	0	-1e10	1	-1e10	1	-1E+10	1	0.6351	4	0.000770	0	-1E+10	1	-1E+10	1	-1E+10	1
4902624	18	C	12/18/2024	13:32	-127.027	47.059	0	8.50	0	9.9990	0	32.1960	0	24.764	0	8.429	0	-1e10	1	-1e10	1	-1E+10	1	-1e10	1	-1e10	1	-1E+10	1	-1E+10	1	-1E+10	1
4902624	18	C	12/18/2024	13:32	-127.027	47.059	0	8.70	0	9.9990	0	32.1960	0	24.764	0	8.628	0	-1e10	1	-1e10	1	-1E+10	1	0.6716	4	0.000864	0	-1E+10	1	-1E+10	1	-1E+10	1
4902624	18	C	12/18/2024	13:32	-127.027	47.059	0	8.80	0	9.9990	0	32.1960	0	24.764	0	8.727	0	247.5	4	88.3	4	-1E+10	1	0.6424	4	0.000910	0	-1E+10	1	-1E+10	1	-1E+10	1
4902624	18	C	12/18/2024	13:32	-127.027	47.059	0	8.90	0	9.9990	0	32.1960	0	24.764	0	8.826	0	-1e10	1	-1e10	1	-1E+10	1	0.6570	4	0.000969	0	-1E+10	1	-1E+10	1	-1E+10	1
4902624	18	C	12/18/2024	13:32	-127.027	47.059	0	9.20	0	9.9990	0	32.1960	0	24.764	0	9.123	0	-1e10	1	-1e10	1	-1E+10	1	0.6497	4	0.000746	0	-1E+10	1	-1E+10	1	-1E+10	1
4902624	18	C	12/18/2024	13:32	-127.027	47.059	0	9.50	0	9.9990	0	32.1960	0	24.764	0	9.421	0	-1e10	1	-1e10	1	-1E+10	1	-1e10	1	-1e10	1	-1E+10	1	-1E+10	1	-1E+10	1
4902624	18	C	12/18/2024	13:32	-127.027	47.059	0	9.70	0	9.9991	0	32.1961	0	24.764	0	9.619	0	247.2	4	88.2	4	-1E+10	1	0.7118	4	0.000758	0	-1E+10	1	-1E+10	1	-1E+10	1
4902624	18	C	12/18/2024	13:32	-127.027	47.059	0	10.50	0	9.9997	0	32.1967	0	24.764	0	10.413	0	247.0	4	88.2	4	-1E+10	1	0.7373	4	0.000770	0	-1E+10	1	-1E+10	1	-1E+10	1
4902624	18	C	12/18/2024	13:32	-127.027	47.059	0	11.00	0	10.0000	0	32.1970	0	24.765	0	10.908	0	-1e10	1	-1e10	1	-1E+10	1	-1e10	1	-1e10	1	-1E+10	1	-1E+10	1	-1E+10	1
4902624	18	C	12/18/2024	13:32	-127.027	47.059	0	11.40	0	9.9998	0	32.1980	0	24.765	0	11.305	0	246.9	4	88.1	4	-1E+10	1	0.7154	4	0.000776	0	-1E+10	1	-1E+10	1	-1E+10	1
4902624	18	C	12/18/2024	13:32	-127.027	47.059	0	12.30	0	9.9994	0	32.2001	0	24.767	0	12.197	0	246.8	4	88.1	4	-1E+10	1	0.6716	4	0.000781	0	-1E+10	1	-1E+10	1	-1E+10	1
4902624	18	C	12/18/2024	13:32	-127.027	47.059	0	13.10	0	9.9990	0	32.2020	0	24.769	0	12.991	0	-1e10	1	-1e10	1	-1E+10	1	-1e10	1	-1e10	1	-1E+10	1	-1E+10	1	-1E+10	1
4902624	18	C	12/18/2024	13:32	-127.027	47.059	0	13.30	0	9.9990	0	32.2029	0	24.769	0	13.189	0	246.7	4	88.1	4	-1E+10	1	0.6833	4	0.000786	0	-1E+10	1	-1E+10	1	-1E+10	1
4902624	18	C	12/18/2024	13:32	-127.027	47.059	0	14.20	0	9.9990	0	32.2069	0	24.772	0	14.082	0	246.5	4	88.0	4	-1E+10	1	0.7273	4	0.000803	0	-1E+10	1	-1E+10	1	-1E+10	1
4902624	18	C	12/18/2024	13:32	-127.027	47.059	0	14.90	0	9.9990	0	32.2100	0	24.775	0	14.776	0	-1e10	1	-1e10	1	-1E+10	1	-1e10	1	-1e10	1	-1E+10	1	-1E+10	1	-1E+10	1
4902624	18	C	12/18/2024	13:32	-127.027	47.059	0	15.20	0	9.9990	0	32.2103	0	24.775	0	15.073	0	246.4	4	88.0	4	-1E+10	1	0.7008	4	0.000781	0	-1E+10	1	-1E+10	1	-1E+10	1
4902624	18	C	12/18/2024	13:32	-127.027	47.059	0	16.10	0	9.9990	0	32.2113	0	24.776	0	15.966	0	246.4	4	87.9	4	-1E+10	1	0.7731	4	0.000792	0	-1E+10	1	-1E+10	1	-1E+10	1
4902624	18	C	12/18/2024	13:32	-127.027	47.059	0	16.80	0	9.9990	0	32.2120	0	24.777	0	16.660	0	-1e10	1	-1e10	1	-1E+10	1	-1e10	1	-1e10	1	-1E+10	1	-1E+10	1	-1E+10	1
4902624	18	C	12/18/2024	13:32	-127.027	47.059	0	16.90	0	9.9990	0	32.2120	0	24.776	0	16.759	0	246.3	4	87.9	4	-1E+10	1	0.7073	4	0.000793	0	-1E+10	1	-1E+10	1	-1E+10	1
4902624	18	C	12/18/2024	13:32	-127.027	47.059	0	17.70	0	9.9990	0	32.2116	0	24.776	0	17.552	0	246.2	4	87.9	4	-1E+10	1	0.7037	4	0.000807	0	-1E+10	1	-1E+10	1	-1E+10	1
4902624	18	C	12/18/2024	13:32	-127.027	47.059	0	18.60	0	9.9990	0	32.2111	0	24.776	0	18.445	0	246.1	4	87.8	4	-1E+10	1	0.7453	4	0.000811	0	-1E+10	1	-1E+10	1	-1E+10	1
4902624	18	C	12/18/2024	13:32	-127.027	47.059	0	18.90	0	9.9990	0	32.2110	0	24.776	0	18.742	0	-1e10	1	-1e10	1	-1E+10	1	-1e10	1	-1e10	1	-1E+10	1	-1E+10	1	-1E+10	1
4902624	18	C	12/18/2024	13:32	-127.027	47.059	0	19.50	0	9.9990	0	32.2139	0	24.778	0	19.337	0	245.9	4	87.8	4	-1E+10	1	0.7702	4	0.000800	0	-1E+10	1	-1E+10	1	-1E+10	1
4902624	18	C	12/18/2024	13:32	-127.027	47.059	0	20.40	0	9.9990	0	32.2181	0	24.781	0	20.230	0	245.8	4	87.7	4	-1E+10	1	0.7439	4	0.000776	0	-1E+10	1	-1E+10	1	-1E+10	1
4902624	18	C	12/18/2024	13:32	-127.027	47.059	0	21.00	0	9.9990	0	32.2210	0	24.784	0	20.825	0	-1e10	1	-1e10	1	-1E+10	1	-1e10	1	-1e10	1	-1E+10	1	-1E+10	1	-1E+10	1
4902624	18	C	12/18/2024	13:32	-127.027	47.059	0	21.30	0	9.9990	0	32.2207	0	24.783	0	21.122	0	245.7	4	87.7	4	-1E+10	1	0.7234	4	0.000755	0	-1E+10	1	-1E+10	1	-1E+10	1
4902624	18	C	12/18/2024	13:32	-127.027	47.059	0	22.20	0	9.9990	0	32.2198	0	24.783	0	22.014	0	245.5	4	87.6	4	-1E+10	1	0.6935	4	0.000793	0	-1E+10	1	-1E+10	1	-1E+10	1
4902624	18	C	12/18/2024	13:32	-127.027	47.059	0	23.00	0	9.9990	0	32.2190	0	24.782	0	22.808	0	-1e10	1	-1e10	1	-1E+10	1	-1e10	1	-1e10	1	-1E+10	1	-1E+10	1	-1E+10	1
4902624	18	C	12/18/2024	13:32	-127.027	47.059	0	23.10	0	9.9990	0	32.2194	0	24.782	0	22.907	0	245.3	4	87.6	4	-1E+10	1	0.7446	4	0.000734	0	-1E+10	1	-1E+10	1	-1E+10	1
4902624	18	C	12/18/2024	13:32	-127.027	47.059	0	24.00	0	9.9995	0	32.2230	0	24.785	0	23.799	0	245.2	4	87.5	4	-1E+10	1	0.7446	4	0.000754	0	-1E+10	1	-1E+10	1	-1E+10	1
4902624	18	C	12/18/2024	13:32	-127.027	47.059	0	24.90	0	10.0000	0	32.2266	0	24.788	0	24.692	0	245.0	4	87.5	4	-1E+10	1	0.7403	4	0.000785	0	-1E+10	1	-1E+10	1	-1E+10	1
4902624	18	C	12/18/2024	13:32	-127.027	47.059	0	25.00	0	10.0000	0	32.2270	0	24.788	0	24.791	0	-1e10	1	-1e10	1	-1E+10	1	-1e10	1	-1e10	1	-1E+10	1	-1E+10	1	-1E+10	1
4902624	18	C	12/18/2024	13:32	-127.027	47.059	0	25.90	0	10.0000	0	32.2274	0	24.789	0	25.683	0	244.7	4	87.4	4	-1E+10	1	0.7251	4	0.000785	0	-1E+10	1	-1E+10	1	-1E+10	1
4902624	18	C	12/18/2024	13:32	-127.027	47.059	0	26.90	0	10.0000	0	32.2279	0	24.789	0	26.675	0	244.5	4	87.3	4	-1E+10	1	0.7194	4	0.000795	0	-1E+10	1	-1E+10	1	-1E+10	1
4902624	18	C	12/18/2024	13:32	-127.027	47.059	0	27.10	0	10.0000	0	32.2280	0	24.789	0	26.873	0	-1e10	1	-1e10	1	-1E+10	1	-1e10	1	-1e10	1	-1E+10	1	-1E+10	1	-1E+10	1
4902624	18	C	12/18/2024	13:32	-127.027	47.059	0	27.80	0	9.9997	0	32.2280	0	24.789	0	27.567	0	244.3	4	87.2	4	-1E+10	1	0.7200	4	0.000799	0	-1E+10	1	-1E+10	1	-1E+10	1
4902624	18	C	12/18/2024	13:32	-127.027	47.059	0	28.70	0	9.9992	0	32.2280	0	24.789	0	28.460	0	244.0	4	87.1	4	-1E+10	1	0.7073	4	0.000780	0	-1E+10	1	-1E+10	1	-1E+10	1
4902624	18	C	12/18/2024	13:32	-127.027	47.059	0	29.10	0	9.9990	0	32.2280	0	24.789	0	28.856	0	-1e10	1	-1e10	1	-1E+10	1	-1e10	1	-1e10	1	-1E+10	1	-1E+10	1	-1E+10	1
4902624	18	C	12/18/2024	13:32	-127.027	47.059	0	29.60	0	9.9993	0	32.2285	0	24.790	0	29.352	0	243.7	4	87.0	4	-1E+10	1	0.6760	4	0.000812	0	-1E+10	1	-1E+10	1	-1E+10	1
4902624	18	C	12/18/2024	13:32	-127.027	47.059	0	30.40	0	9.9997	0	32.2294	0	24.790	0	30.145	0	243.3	4	86.9	4	-1E+10	1	0.6643	4	0.000793	0	-1E+10	1	-1E+10	1	-1E+10	1
4902624	18	C	12/18/2024	13:32	-127.027	47.059	0	31.00	0	10.0000	0	32.2300	0	24.791	0	30.740	0	-1e10	1	-1e10	1	-1E+10	1	-1e10	1	-1e10	1	-1E+10	1	-1E+10	1	-1E+10	1
4902624	18	C	12/18/2024	13:32	-127.027	47.059	0	31.30	0	9.9997	0	32.2305	0	24.791	0	31.038	0	243.0	4	86.7	4	-1E+10	1	0.6703	4	0.000803	0	-1E+10	1	-1E+10	1	-1E+10	1
4902624	18	C	12/18/2024	13:32	-127.027	47.059	0	32.20	0	9.9987	0	32.2319	0	24.792	0	31.930	0	242.6	4	86.6	4	-1E+10	1	0.6773	4	0.000768	0	-1E+10	1	-1E+10	1	-1E+10	1
4902624	18	C	12/18/2024	13:32	-127.027	47.059	0	32.90	0	9.9980	0	32.2330	0	24.793	0	32.624	0	-1e10	1	-1e10	1	-1E+10	1	-1e10	1	-1e10	1	-1E+10	1	-1E+10	1	-1E+10	1
4902624	18	C	12/18/2024	13:32	-127.027	47.059	0	33.10	0	9.9978	0	32.2333	0	24.794	0	32.822	0	242.1	4	86.4	4	-1E+10	1	0.6738	4	0.000741	0	-1E+10	1	-1E+10	1	-1E+10	1
4902624	18	C	12/18/2024	13:32	-127.027	47.059	0	33.90	0	9.9970	0	32.2344	0	24.795	0	33.616	0	241.7	4	86.3	4	-1E+10	1	0.6625	4	0.000742	0	-1E+10	1	-1E+10	1	-1E+10	1
4902624	18	C	12/18/2024	13:32	-127.027	47.059	0	34.80	0	9.9962	0	32.2357	0	24.796	0	34.508	0	241.1	4	86.1	4	-1E+10	1	0.6716	4	0.000746	0	-1E+10	1	-1E+10	1	-1E+10	1
4902624	18	C	12/18/2024	13:32	-127.027	47.059	0	35.00	0	9.9960	0	32.2360	0	24.796	0	34.706	0	-1e10	1	-1e10	1	-1E+10	1	-1e10	1	-1e10	1	-1E+10	1	-1E+10	1	-1E+10	1
4902624	18	C	12/18/2024	13:32	-127.027	47.059	0	35.60	0	9.9954	0	32.2371	0	24.797	0	35.301	0	240.6	4	85.9	4	-1E+10	1	0.6716	4	0.000711	0	-1E+10	1	-1E+10	1	-1E+10	1
4902624	18	C	12/18/2024	13:32	-127.027	47.059	0	36.50	0	9.9946	0	32.2389	0	24.799	0	36.194	0	240.0	4	85.7	4	-1E+10	1	0.6457	4	0.000663	0	-1E+10	1	-1E+10	1	-1E+10	1
4902624	18	C	12/18/2024	13:32	-127.027	47.059	0	37.10	0	9.9940	0	32.2400	0	24.800	0	36.789	0	-1e10	1	-1e10	1	-1E+10	1	-1e10	1	-1e10	1	-1E+10	1	-1E+10	1	-1E+10	1
4902624	18	C	12/18/2024	13:32	-127.027	47.059	0	37.30	0	9.9938	0	32.2402	0	24.800	0	36.987	0	239.4	4	85.5	4	-1E+10	1	0.6105	4	0.000648	0	-1E+10	1	-1E+10	1	-1E+10	1
4902624	18	C	12/18/2024	13:32	-127.027	47.059	0	38.20	0	9.9928	0	32.2412	0	24.801	0	37.879	0	238.8	4	85.2	4	-1E+10	1	0.5928	4	0.000699	0	-1E+10	1	-1E+10	1	-1E+10	1
4902624	18	C	12/18/2024	13:32	-127.027	47.059	0	39.00	0	9.9920	0	32.2420	0	24.801	0	38.672	0	238.1	4	85.0	4	-1E+10	1	0.5986	4	0.000699	0	-1E+10	1	-1E+10	1	-1E+10	1
4902624	18	C	12/18/2024	13:32	-127.027	47.059	0	39.90	0	9.9911	0	32.2429	0	24.802	0	39.565	0	237.2	4	84.7	4	-1E+10	1	0.5986	4	0.000699	0	-1E+10	1	-1E+10	1	-1E+10	1
4902624	18	C	12/18/2024	13:32	-127.027	47.059	0	40.70	0	9.9903	0	32.2437	0	24.803	0	40.358	0	236.3	4	84.4	4	-1E+10	1	0.5986	4	0.000717	0	-1E+10	1	-1E+10	1	-1E+10	1
4902624	18	C	12/18/2024	13:32	-127.027	47.059	0	41.00	0	9.9900	0	32.2440	0	24.803	0	40.655	0	-1e10	1	-1e10	1	-1E+10	1	-1e10	1	-1e10	1	-1E+10	1	-1E+10	1	-1E+10	1
4902624	18	C	12/18/2024	13:32	-127.027	47.059	0	41.60	0	9.9897	0	32.2443	0	24.804	0	41.250	0	235.3	4	84.0	4	-1E+10	1	0.6032	4	0.000693	0	-1E+10	1	-1E+10	1	-1E+10	1
4902624	18	C	12/18/2024	13:32	-127.027	47.059	0	42.50	0	9.9893	0	32.2448	0	24.804	0	42.143	0	234.2	4	83.6	4	-1E+10	1	0.5959	4	0.000681	0	-1E+10	1	-1E+10	1	-1E+10	1
4902624	18	C	12/18/2024	13:32	-127.027	47.059	0	43.00	0	9.9890	0	32.2450	0	24.804	0	42.638	0	-1e10	1	-1e10	1	-1E+10	1	-1e10	1	-1e10	1	-1E+10	1	-1E+10	1	-1E+10	1
4902624	18	C	12/18/2024	13:32	-127.027	47.059	0	43.40	0	9.9884	0	32.2454	0	24.805	0	43.035	0	232.9	4	83.1	4	-1E+10	1	0.5937	4	0.000687	0	-1E+10	1	-1E+10	1	-1E+10	1
4902624	18	C	12/18/2024	13:32	-127.027	47.059	0	44.30	0	9.9871	0	32.2462	0	24.806	0	43.927	0	231.4	4	82.6	4	-1E+10	1	0.6032	4	0.000678	0	-1E+10	1	-1E+10	1	-1E+10	1
4902624	18	C	12/18/2024	13:32	-127.027	47.059	0	45.10	0	9.9860	0	32.2470	0	24.806	0	44.721	0	-1e10	1	-1e10	1	-1E+10	1	-1e10	1	-1e10	1	-1E+10	1	-1E+10	1	-1E+10	1
4902624	18	C	12/18/2024	13:32	-127.027	47.059	0	45.30	0	9.9856	0	32.2473	0	24.807	0	44.919	0	229.9	4	82.0	4	-1E+10	1	0.5767	4	0.000657	0	-1E+10	1	-1E+10	1	-1E+10	1
4902624	18	C	12/18/2024	13:32	-127.027	47.059	0	46.10	0	9.9839	0	32.2486	0	24.808	0	45.712	0	228.1	4	81.4	4	-1E+10	1	0.5767	4	0.000676	0	-1E+10	1	-1E+10	1	-1E+10	1
4902624	18	C	12/18/2024	13:32	-127.027	47.059	0	47.00	0	9.9820	0	32.2500	0	24.810	0	46.604	0	226.3	4	80.7	4	-1E+10	1	0.5548	4	0.000641	0	-1E+10	1	-1E+10	1	-1E+10	1
4902624	18	C	12/18/2024	13:32	-127.027	47.059	0	47.90	0	9.9770	0	32.2523	0	24.812	0	47.497	0	224.0	4	80.0	4	-1E+10	1	0.5130	4	0.000650	0	-1E+10	1	-1E+10	1	-1E+10	1
4902624	18	C	12/18/2024	13:32	-127.027	47.059	0	48.80	0	9.9721	0	32.2545	0	24.815	0	48.389	0	221.6	4	79.1	4	-1E+10	1	0.4944	4	0.000637	0	-1E+10	1	-1E+10	1	-1E+10	1
4902624	18	C	12/18/2024	13:32	-127.027	47.059	0	49.00	0	9.9710	0	32.2550	0	24.815	0	48.587	0	-1e10	1	-1e10	1	-1E+10	1	-1e10	1	-1e10	1	-1E+10	1	-1E+10	1	-1E+10	1
4902624	18	C	12/18/2024	13:32	-127.027	47.059	0	49.70	0	9.9612	0	32.2596	0	24.820	0	49.281	0	218.9	4	78.1	4	-1E+10	1	0.4845	4	0.000629	0	-1E+10	1	-1E+10	1	-1E+10	1
4902624	18	C	12/18/2024	13:32	-127.027	47.059	0	50.50	0	9.9500	0	32.2648	0	24.826	0	50.074	0	216.2	4	77.1	4	-1E+10	1	0.4745	4	0.000611	0	-1E+10	1	-1E+10	1	-1E+10	1
4902624	18	C	12/18/2024	13:32	-127.027	47.059	0	51.00	0	9.9430	0	32.2680	0	24.830	0	50.570	0	-1e10	1	-1e10	1	-1E+10	1	-1e10	1	-1e10	1	-1E+10	1	-1E+10	1	-1E+10	1
4902624	18	C	12/18/2024	13:32	-127.027	47.059	0	51.30	0	9.9333	0	32.2720	0	24.835	0	50.868	0	213.0	4	76.0	4	-1E+10	1	0.4623	4	0.000597	0	-1E+10	1	-1E+10	1	-1E+10	1
4902624	18	C	12/18/2024	13:32	-127.027	47.059	0	52.10	0	9.9074	0	32.2827	0	24.847	0	51.661	0	209.5	4	74.7	4	-1E+10	1	0.4508	4	0.000590	0	-1E+10	1	-1E+10	1	-1E+10	1
4902624	18	C	12/18/2024	13:32	-127.027	47.059	0	52.90	0	9.8815	0	32.2933	0	24.860	0	52.454	0	205.5	4	73.2	4	-1E+10	1	0.4322	4	0.000556	0	-1E+10	1	-1E+10	1	-1E+10	1
4902624	18	C	12/18/2024	13:32	-127.027	47.059	0	53.10	0	9.8750	0	32.2960	0	24.863	0	52.652	0	-1e10	1	-1e10	1	-1E+10	1	-1e10	1	-1e10	1	-1E+10	1	-1E+10	1	-1E+10	1
4902624	18	C	12/18/2024	13:32	-127.027	47.059	0	53.70	0	9.8302	0	32.3115	0	24.883	0	53.247	0	201.0	4	71.5	4	-1E+10	1	0.3796	4	0.000593	0	-1E+10	1	-1E+10	1	-1E+10	1
4902624	18	C	12/18/2024	13:32	-127.027	47.059	0	54.50	0	9.7704	0	32.3321	0	24.908	0	54.040	0	196.2	4	69.7	4	-1E+10	1	0.3536	4	0.000489	0	-1E+10	1	-1E+10	1	-1E+10	1
4902624	18	C	12/18/2024	13:32	-127.027	47.059	0	55.00	0	9.7330	0	32.3450	0	24.925	0	54.536	0	-1e10	1	-1e10	1	-1E+10	1	-1e10	1	-1e10	1	-1E+10	1	-1E+10	1	-1E+10	1
4902624	18	C	12/18/2024	13:32	-127.027	47.059	0	55.20	0	9.6836	0	32.3629	0	24.947	0	54.734	0	191.3	4	67.9	4	-1E+10	1	0.3285	4	0.000467	0	-1E+10	1	-1E+10	1	-1E+10	1
4902624	18	C	12/18/2024	13:32	-127.027	47.059	0	56.00	0	9.4860	0	32.4345	0	25.034	0	55.527	0	186.2	4	65.8	4	-1E+10	1	0.2579	4	0.000480	0	-1E+10	1	-1E+10	1	-1E+10	1
4902624	18	C	12/18/2024	13:32	-127.027	47.059	0	56.80	0	9.2884	0	32.5061	0	25.122	0	56.320	0	180.8	4	63.7	4	-1E+10	1	0.1971	4	0.000458	0	-1E+10	1	-1E+10	1	-1E+10	1
4902624	18	C	12/18/2024	13:32	-127.027	47.059	0	57.00	0	9.2390	0	32.5240	0	25.144	0	56.519	0	-1e10	1	-1e10	1	-1E+10	1	-1e10	1	-1e10	1	-1E+10	1	-1E+10	1	-1E+10	1
4902624	18	C	12/18/2024	13:32	-127.027	47.059	0	57.60	0	9.0740	0	32.5804	0	25.214	0	57.114	0	176.9	4	62.0	4	-1E+10	1	0.1961	4	0.000404	0	-1E+10	1	-1E+10	1	-1E+10	1
4902624	18	C	12/18/2024	13:32	-127.027	47.059	0	58.20	0	8.9090	0	32.6368	0	25.283	0	57.708	0	174.8	4	61.1	4	-1E+10	1	0.1898	4	0.000382	0	-1E+10	1	-1E+10	1	-1E+10	1
4902624	18	C	12/18/2024	13:32	-127.027	47.059	0	58.80	0	8.7440	0	32.6932	0	25.353	0	58.303	0	172.0	4	59.9	4	-1E+10	1	0.1085	4	0.000426	0	-1E+10	1	-1E+10	1	-1E+10	1
4902624	18	C	12/18/2024	13:32	-127.027	47.059	0	59.00	0	8.6890	0	32.7120	0	25.376	0	58.502	0	-1e10	1	-1e10	1	-1E+10	1	-1e10	1	-1e10	1	-1E+10	1	-1E+10	1	-1E+10	1
4902624	18	C	12/18/2024	13:32	-127.027	47.059	0	59.30	0	8.6525	0	32.7273	0	25.394	0	58.799	0	168.6	4	58.6	4	-1E+10	1	0.1241	4	0.000476	0	-1E+10	1	-1E+10	1	-1E+10	1
4902624	18	C	12/18/2024	13:32	-127.027	47.059	0	60.00	0	8.5675	0	32.7630	0	25.434	0	59.493	0	164.8	4	57.2	4	-1E+10	1	0.1168	4	0.000382	0	-1E+10	1	-1E+10	1	-1E+10	1
4902624	18	C	12/18/2024	13:32	-127.027	47.059	0	60.70	0	8.4825	0	32.7987	0	25.475	0	60.187	0	161.5	4	56.0	4	-1E+10	1	0.0849	4	0.000362	0	-1E+10	1	-1E+10	1	-1E+10	1
4902624	18	C	12/18/2024	13:32	-127.027	47.059	0	61.00	0	8.4460	0	32.8140	0	25.493	0	60.484	0	-1e10	1	-1e10	1	-1E+10	1	-1e10	1	-1e10	1	-1E+10	1	-1E+10	1	-1E+10	1
4902624	18	C	12/18/2024	13:32	-127.027	47.059	0	61.40	0	8.4032	0	32.8352	0	25.516	0	60.881	0	159.6	4	55.2	4	-1E+10	1	0.0900	4	0.000343	0	-1E+10	1	-1E+10	1	-1E+10	1
4902624	18	C	12/18/2024	13:32	-127.027	47.059	0	62.10	0	8.3283	0	32.8723	0	25.556	0	61.575	0	157.5	4	54.5	4	-1E+10	1	0.0913	4	0.000353	0	-1E+10	1	-1E+10	1	-1E+10	1
4902624	18	C	12/18/2024	13:32	-127.027	47.059	0	63.00	0	8.2320	0	32.9200	0	25.608	0	62.467	0	154.1	4	53.2	4	-1E+10	1	0.0803	4	0.000347	0	-1E+10	1	-1E+10	1	-1E+10	1
4902624	18	C	12/18/2024	13:32	-127.027	47.059	0	63.90	0	8.1549	0	32.9800	0	25.666	0	63.359	0	153.9	4	53.0	4	-1E+10	1	0.0754	4	0.000331	0	-1E+10	1	-1E+10	1	-1E+10	1
4902624	18	C	12/18/2024	13:32	-127.027	47.059	0	64.80	0	8.0777	0	33.0400	0	25.725	0	64.252	0	153.0	4	52.7	4	-1E+10	1	0.0787	4	0.000350	0	-1E+10	1	-1E+10	1	-1E+10	1
4902624	18	C	12/18/2024	13:32	-127.027	47.059	0	65.10	0	8.0520	0	33.0600	0	25.744	0	64.549	0	-1e10	1	-1e10	1	-1E+10	1	-1e10	1	-1e10	1	-1E+10	1	-1E+10	1	-1E+10	1
4902624	18	C	12/18/2024	13:32	-127.027	47.059	0	65.80	0	8.0421	0	33.0685	0	25.752	0	65.243	0	151.9	4	52.2	4	-1E+10	1	0.0684	4	0.000372	0	-1E+10	1	-1E+10	1	-1E+10	1
4902624	18	C	12/18/2024	13:32	-127.027	47.059	0	66.70	0	8.0293	0	33.0794	0	25.763	0	66.135	0	150.7	4	51.8	4	-1E+10	1	0.0803	4	0.000382	0	-1E+10	1	-1E+10	1	-1E+10	1
4902624	18	C	12/18/2024	13:32	-127.027	47.059	0	67.00	0	8.0250	0	33.0830	0	25.766	0	66.433	0	-1e10	1	-1e10	1	-1E+10	1	-1e10	1	-1e10	1	-1E+10	1	-1E+10	1	-1E+10	1
4902624	18	C	12/18/2024	13:32	-127.027	47.059	0	67.70	0	8.0180	0	33.0950	0	25.777	0	67.127	0	149.7	4	51.5	4	-1E+10	1	0.0742	4	0.000333	0	-1E+10	1	-1E+10	1	-1E+10	1
4902624	18	C	12/18/2024	13:32	-127.027	47.059	0	68.70	0	8.0080	0	33.1121	0	25.791	0	68.118	0	148.8	4	51.2	4	-1E+10	1	0.0613	4	0.000333	0	-1E+10	1	-1E+10	1	-1E+10	1
4902624	18	C	12/18/2024	13:32	-127.027	47.059	0	69.10	0	8.0040	0	33.1190	0	25.797	0	68.515	0	-1e10	1	-1e10	1	-1E+10	1	-1e10	1	-1e10	1	-1E+10	1	-1E+10	1	-1E+10	1
4902624	18	C	12/18/2024	13:32	-127.027	47.059	0	69.70	0	7.9847	0	33.1407	0	25.817	0	69.109	0	147.7	4	50.8	4	-1E+10	1	0.0681	4	0.000359	0	-1E+10	1	-1E+10	1	-1E+10	1
4902624	18	C	12/18/2024	13:32	-127.027	47.059	0	70.70	0	7.9524	0	33.1768	0	25.850	0	70.101	0	146.5	4	50.3	4	-1E+10	1	0.0650	4	0.000364	0	-1E+10	1	-1E+10	1	-1E+10	1
4902624	18	C	12/18/2024	13:32	-127.027	47.059	0	70.90	0	7.9460	0	33.1840	0	25.857	0	70.299	0	-1e10	1	-1e10	1	-1E+10	1	-1e10	1	-1e10	1	-1E+10	1	-1E+10	1	-1E+10	1
4902624	18	C	12/18/2024	13:32	-127.027	47.059	0	71.80	0	7.9159	0	33.2169	0	25.887	0	71.191	0	145.0	4	49.8	4	-1E+10	1	0.0672	4	0.000337	0	-1E+10	1	-1E+10	1	-1E+10	1
4902624	18	C	12/18/2024	13:32	-127.027	47.059	0	72.90	0	7.8790	0	33.2570	0	25.924	0	72.282	0	142.3	4	48.8	4	-1E+10	1	0.0657	4	0.000323	0	-1E+10	1	-1E+10	1	-1E+10	1
4902624	18	C	12/18/2024	13:32	-127.027	47.059	0	74.10	0	7.8607	0	33.2827	0	25.947	0	73.471	0	142.5	4	48.9	4	-1E+10	1	0.0584	4	0.000322	0	-1E+10	1	-1E+10	1	-1E+10	1
4902624	18	C	12/18/2024	13:32	-127.027	47.059	0	75.00	0	7.8470	0	33.3020	0	25.964	0	74.364	0	-1e10	1	-1e10	1	-1E+10	1	-1e10	1	-1e10	1	-1E+10	1	-1E+10	1	-1E+10	1
4902624	18	C	12/18/2024	13:32	-127.027	47.059	0	75.20	0	7.8464	0	33.3069	0	25.968	0	74.562	0	141.4	4	48.5	4	-1E+10	1	0.0560	4	0.000327	0	-1E+10	1	-1E+10	1	-1E+10	1
4902624	18	C	12/18/2024	13:32	-127.027	47.059	0	76.40	0	7.8430	0	33.3360	0	25.991	0	75.751	0	140.8	4	48.3	4	-1E+10	1	0.0472	4	0.000365	0	-1E+10	1	-1E+10	1	-1E+10	1
4902624	18	C	12/18/2024	13:32	-127.027	47.059	0	77.10	0	7.8410	0	33.3530	0	26.005	0	76.445	0	-1e10	1	-1e10	1	-1E+10	1	-1e10	1	-1e10	1	-1E+10	1	-1E+10	1	-1E+10	1
4902624	18	C	12/18/2024	13:32	-127.027	47.059	0	77.50	0	7.8366	0	33.3586	0	26.010	0	76.842	0	140.3	4	48.1	4	-1E+10	1	0.0657	4	0.000335	0	-1E+10	1	-1E+10	1	-1E+10	1
4902624	18	C	12/18/2024	13:32	-127.027	47.059	0	78.70	0	7.8234	0	33.3754	0	26.025	0	78.031	0	139.7	4	47.9	4	-1E+10	1	0.0532	4	0.000295	0	-1E+10	1	-1E+10	1	-1E+10	1
4902624	18	C	12/18/2024	13:32	-127.027	47.059	0	79.10	0	7.8190	0	33.3810	0	26.030	0	78.428	0	-1e10	1	-1e10	1	-1E+10	1	-1e10	1	-1e10	1	-1E+10	1	-1E+10	1	-1E+10	1
4902624	18	C	12/18/2024	13:32	-127.027	47.059	0	79.60	0	7.8158	0	33.3844	0	26.033	0	78.924	0	139.3	4	47.8	4	-1E+10	1	0.0511	4	0.000315	0	-1E+10	1	-1E+10	1	-1E+10	1
4902624	18	C	12/18/2024	13:32	-127.027	47.059	0	80.40	0	7.8108	0	33.3899	0	26.038	0	79.717	0	138.8	4	47.6	4	-1E+10	1	0.0560	4	0.000323	0	-1E+10	1	-1E+10	1	-1E+10	1
4902624	18	C	12/18/2024	13:32	-127.027	47.059	0	81.00	0	7.8070	0	33.3940	0	26.042	0	80.311	0	-1e10	1	-1e10	1	-1E+10	1	-1e10	1	-1e10	1	-1E+10	1	-1E+10	1	-1E+10	1
4902624	18	C	12/18/2024	13:32	-127.027	47.059	0	81.10	0	7.8055	0	33.3956	0	26.044	0	80.411	0	138.3	4	47.4	4	-1E+10	1	0.0620	4	0.000312	0	-1E+10	1	-1E+10	1	-1E+10	1
4902624	18	C	12/18/2024	13:32	-127.027	47.059	0	81.80	0	7.7948	0	33.4066	0	26.054	0	81.105	0	137.7	4	47.2	4	-1E+10	1	0.0657	4	0.000291	0	-1E+10	1	-1E+10	1	-1E+10	1
4902624	18	C	12/18/2024	13:32	-127.027	47.059	0	82.60	0	7.7826	0	33.4191	0	26.065	0	81.898	0	137.2	4	47.0	4	-1E+10	1	0.0633	4	0.000300	0	-1E+10	1	-1E+10	1	-1E+10	1
4902624	18	C	12/18/2024	13:32	-127.027	47.059	0	83.10	0	7.7750	0	33.4270	0	26.073	0	82.393	0	-1e10	1	-1e10	1	-1E+10	1	-1e10	1	-1e10	1	-1E+10	1	-1E+10	1	-1E+10	1
4902624	18	C	12/18/2024	13:32	-127.027	47.059	0	83.40	0	7.7734	0	33.4306	0	26.076	0	82.691	0	136.7	4	46.9	4	-1E+10	1	0.0584	4	0.000357	0	-1E+10	1	-1E+10	1	-1E+10	1
4902624	18	C	12/18/2024	13:32	-127.027	47.059	0	84.10	0	7.7697	0	33.4391	0	26.083	0	83.384	0	136.2	4	46.7	4	-1E+10	1	0.0584	4	0.000394	0	-1E+10	1	-1E+10	1	-1E+10	1
4902624	18	C	12/18/2024	13:32	-127.027	47.059	0	84.90	0	7.7655	0	33.4488	0	26.091	0	84.178	0	135.8	4	46.6	4	-1E+10	1	0.0511	4	0.000323	0	-1E+10	1	-1E+10	1	-1E+10	1
4902624	18	C	12/18/2024	13:32	-127.027	47.059	0	85.00	0	7.7650	0	33.4500	0	26.092	0	84.277	0	-1e10	1	-1e10	1	-1E+10	1	-1e10	1	-1e10	1	-1E+10	1	-1E+10	1	-1E+10	1
4902624	18	C	12/18/2024	13:32	-127.027	47.059	0	85.60	0	7.7517	0	33.4544	0	26.098	0	84.871	0	135.5	4	46.5	4	-1E+10	1	0.0511	4	0.000278	0	-1E+10	1	-1E+10	1	-1E+10	1
4902624	18	C	12/18/2024	13:32	-127.027	47.059	0	86.40	0	7.7341	0	33.4603	0	26.105	0	85.664	0	135.2	4	46.3	4	-1E+10	1	0.0511	4	0.000296	0	-1E+10	1	-1E+10	1	-1E+10	1
4902624	18	C	12/18/2024	13:32	-127.027	47.059	0	86.90	0	7.7230	0	33.4640	0	26.109	0	86.160	0	-1e10	1	-1e10	1	-1E+10	1	-1e10	1	-1e10	1	-1E+10	1	-1E+10	1	-1E+10	1
4902624	18	C	12/18/2024	13:32	-127.027	47.059	0	87.10	0	7.7178	0	33.4654	0	26.111	0	86.358	0	134.8	4	46.2	4	-1E+10	1	0.0511	4	0.000318	0	-1E+10	1	-1E+10	1	-1E+10	1
4902624	18	C	12/18/2024	13:32	-127.027	47.059	0	87.90	0	7.6968	0	33.4711	0	26.119	0	87.151	0	134.3	4	46.0	4	-1E+10	1	0.0474	4	0.000323	0	-1E+10	1	-1E+10	1	-1E+10	1
4902624	18	C	12/18/2024	13:32	-127.027	47.059	0	88.70	0	7.6759	0	33.4769	0	26.126	0	87.944	0	133.6	4	45.7	4	-1E+10	1	0.0487	4	0.000331	0	-1E+10	1	-1E+10	1	-1E+10	1
4902624	18	C	12/18/2024	13:32	-127.027	47.059	0	89.00	0	7.6680	0	33.4790	0	26.129	0	88.242	0	-1e10	1	-1e10	1	-1E+10	1	-1e10	1	-1e10	1	-1E+10	1	-1E+10	1	-1E+10	1
4902624	18	C	12/18/2024	13:32	-127.027	47.059	0	89.50	0	7.6630	0	33.4840	0	26.134	0	88.737	0	132.8	4	45.4	4	-1E+10	1	0.0548	4	0.000341	0	-1E+10	1	-1E+10	1	-1E+10	1
4902624	18	C	12/18/2024	13:32	-127.027	47.059	0	90.30	0	7.6550	0	33.4920	0	26.141	0	89.530	0	132.0	4	45.2	4	-1E+10	1	0.0438	4	0.000321	0	-1E+10	1	-1E+10	1	-1E+10	1
4902624	18	C	12/18/2024	13:32	-127.027	47.059	0	90.90	0	7.6490	0	33.4980	0	26.147	0	90.125	0	-1e10	1	-1e10	1	-1E+10	1	-1e10	1	-1e10	1	-1E+10	1	-1E+10	1	-1E+10	1
4902624	18	C	12/18/2024	13:32	-127.027	47.059	0	91.10	0	7.6510	0	33.4993	0	26.147	0	90.323	0	131.1	4	44.9	4	-1E+10	1	0.0438	4	0.000311	0	-1E+10	1	-1E+10	1	-1E+10	1
4902624	18	C	12/18/2024	13:32	-127.027	47.059	0	91.90	0	7.6590	0	33.5047	0	26.150	0	91.116	0	130.3	4	44.6	4	-1E+10	1	0.0321	4	0.000330	0	-1E+10	1	-1E+10	1	-1E+10	1
4902624	18	C	12/18/2024	13:32	-127.027	47.059	0	92.70	0	7.6670	0	33.5100	0	26.154	0	91.909	0	129.4	4	44.3	4	-1E+10	1	0.0402	4	0.000291	0	-1E+10	1	-1E+10	1	-1E+10	1
4902624	18	C	12/18/2024	13:32	-127.027	47.059	0	93.00	0	7.6700	0	33.5120	0	26.155	0	92.207	0	-1e10	1	-1e10	1	-1E+10	1	-1e10	1	-1e10	1	-1E+10	1	-1E+10	1	-1E+10	1
4902624	18	C	12/18/2024	13:32	-127.027	47.059	0	93.50	0	7.6702	0	33.5213	0	26.162	0	92.702	0	129.0	4	44.1	4	-1E+10	1	0.0394	4	0.000304	0	-1E+10	1	-1E+10	1	-1E+10	1
4902624	18	C	12/18/2024	13:32	-127.027	47.059	0	94.40	0	7.6707	0	33.5379	0	26.175	0	93.595	0	128.4	4	43.9	4	-1E+10	1	0.0406	4	0.000382	0	-1E+10	1	-1E+10	1	-1E+10	1
4902624	18	C	12/18/2024	13:32	-127.027	47.059	0	95.00	0	7.6710	0	33.5490	0	26.184	0	94.189	0	-1e10	1	-1e10	1	-1E+10	1	-1e10	1	-1e10	1	-1E+10	1	-1E+10	1	-1E+10	1
4902624	18	C	12/18/2024	13:32	-127.027	47.059	0	95.20	0	7.6695	0	33.5522	0	26.186	0	94.388	0	127.9	4	43.8	4	-1E+10	1	0.0470	4	0.000366	0	-1E+10	1	-1E+10	1	-1E+10	1
4902624	18	C	12/18/2024	13:32	-127.027	47.059	0	96.00	0	7.6635	0	33.5650	0	26.197	0	95.181	0	127.2	4	43.5	4	-1E+10	1	0.0489	4	0.000295	0	-1E+10	1	-1E+10	1	-1E+10	1
4902624	18	C	12/18/2024	13:32	-127.027	47.059	0	96.90	0	7.6568	0	33.5794	0	26.210	0	96.073	0	126.5	4	43.3	4	-1E+10	1	0.0451	4	0.000314	0	-1E+10	1	-1E+10	1	-1E+10	1
4902624	18	C	12/18/2024	13:32	-127.027	47.059	0	97.00	0	7.6560	0	33.5810	0	26.211	0	96.172	0	-1e10	1	-1e10	1	-1E+10	1	-1e10	1	-1e10	1	-1E+10	1	-1E+10	1	-1E+10	1
4902624	18	C	12/18/2024	13:32	-127.027	47.059	0	97.80	0	7.6513	0	33.5941	0	26.222	0	96.965	0	125.9	4	43.1	4	-1E+10	1	0.0511	4	0.000323	0	-1E+10	1	-1E+10	1	-1E+10	1
4902624	18	C	12/18/2024	13:32	-127.027	47.059	0	98.60	0	7.6465	0	33.6072	0	26.233	0	97.758	0	125.3	4	42.9	4	-1E+10	1	0.0438	4	0.000347	0	-1E+10	1	-1E+10	1	-1E+10	1
4902624	18	C	12/18/2024	13:32	-127.027	47.059	0	99.20	0	7.6430	0	33.6170	0	26.241	0	98.352	0	-1e10	1	-1e10	1	-1E+10	1	-1e10	1	-1e10	1	-1E+10	1	-1E+10	1	-1E+10	1
4902624	18	C	12/18/2024	13:32	-127.027	47.059	0	99.50	0	7.6414	0	33.6181	0	26.242	0	98.650	0	124.7	4	42.7	4	-1E+10	1	0.0378	4	0.000433	0	-1E+10	1	-1E+10	1	-1E+10	1
4902624	18	C	12/18/2024	13:32	-127.027	47.059	0	100.40	0	7.6366	0	33.6212	0	26.245	0	99.542	0	124.1	4	42.5	4	-1E+10	1	0.0467	4	0.000370	0	-1E+10	1	-1E+10	1	-1E+10	1
4902624	18	C	12/18/2024	13:32	-127.027	47.059	0	100.90	0	7.6340	0	33.6230	0	26.247	0	100.037	0	-1e10	1	-1e10	1	-1E+10	1	-1e10	1	-1e10	1	-1E+10	1	-1E+10	1	-1E+10	1
4902624	18	C	12/18/2024	13:32	-127.027	47.059	0	101.20	0	7.6323	0	33.6241	0	26.248	0	100.335	0	123.5	4	42.3	4	-1E+10	1	0.0511	4	0.000322	0	-1E+10	1	-1E+10	1	-1E+10	1
4902624	18	C	12/18/2024	13:32	-127.027	47.059	0	102.10	0	7.6274	0	33.6272	0	26.251	0	101.227	0	122.7	4	42.0	4	-1E+10	1	0.0474	4	0.000288	0	-1E+10	1	-1E+10	1	-1E+10	1
4902624	18	C	12/18/2024	13:32	-127.027	47.059	0	102.90	0	7.6230	0	33.6300	0	26.254	0	102.020	0	-1e10	1	-1e10	1	-1E+10	1	-1e10	1	-1e10	1	-1E+10	1	-1E+10	1	-1E+10	1
4902624	18	C	12/18/2024	13:32	-127.027	47.059	0	103.00	0	7.6226	0	33.6310	0	26.255	0	102.119	0	121.8	4	41.7	4	-1E+10	1	0.0411	4	0.000286	0	-1E+10	1	-1E+10	1	-1E+10	1
4902624	18	C	12/18/2024	13:32	-127.027	47.059	0	103.90	0	7.6187	0	33.6395	0	26.262	0	103.011	0	120.8	4	41.3	4	-1E+10	1	0.0430	4	0.000328	0	-1E+10	1	-1E+10	1	-1E+10	1
4902624	18	C	12/18/2024	13:32	-127.027	47.059	0	104.80	0	7.6149	0	33.6481	0	26.270	0	103.903	0	120.1	4	41.1	4	-1E+10	1	0.0645	4	0.000337	0	-1E+10	1	-1E+10	1	-1E+10	1
4902624	18	C	12/18/2024	13:32	-127.027	47.059	0	105.00	0	7.6140	0	33.6500	0	26.271	0	104.101	0	-1e10	1	-1e10	1	-1E+10	1	-1e10	1	-1e10	1	-1E+10	1	-1E+10	1	-1E+10	1
4902624	18	C	12/18/2024	13:32	-127.027	47.059	0	105.80	0	7.6188	0	33.6612	0	26.279	0	104.894	0	119.5	4	40.9	4	-1E+10	1	0.0584	4	0.000288	0	-1E+10	1	-1E+10	1	-1E+10	1
4902624	18	C	12/18/2024	13:32	-127.027	47.059	0	106.70	0	7.6242	0	33.6738	0	26.289	0	105.786	0	119.2	4	40.8	4	-1E+10	1	0.0405	4	0.000297	0	-1E+10	1	-1E+10	1	-1E+10	1
4902624	18	C	12/18/2024	13:32	-127.027	47.059	0	107.00	0	7.6260	0	33.6780	0	26.292	0	106.084	0	-1e10	1	-1e10	1	-1E+10	1	-1e10	1	-1e10	1	-1E+10	1	-1E+10	1	-1E+10	1
4902624	18	C	12/18/2024	13:32	-127.027	47.059	0	107.70	0	7.6242	0	33.6836	0	26.296	0	106.778	0	119.1	4	40.8	4	-1E+10	1	0.0300	4	0.000362	0	-1E+10	1	-1E+10	1	-1E+10	1
4902624	18	C	12/18/2024	13:32	-127.027	47.059	0	108.60	0	7.6220	0	33.6908	0	26.302	0	107.670	0	119.1	4	40.8	4	-1E+10	1	0.0292	4	0.000350	0	-1E+10	1	-1E+10	1	-1E+10	1
4902624	18	C	12/18/2024	13:32	-127.027	47.059	0	109.00	0	7.6210	0	33.6940	0	26.305	0	108.066	0	-1e10	1	-1e10	1	-1E+10	1	-1e10	1	-1e10	1	-1E+10	1	-1E+10	1	-1E+10	1
4902624	18	C	12/18/2024	13:32	-127.027	47.059	0	109.60	0	7.6078	0	33.6949	0	26.308	0	108.661	0	119.2	4	40.8	4	-1E+10	1	0.0332	4	0.000331	0	-1E+10	1	-1E+10	1	-1E+10	1
4902624	18	C	12/18/2024	13:32	-127.027	47.059	0	110.50	0	7.5880	0	33.6963	0	26.311	0	109.553	0	119.1	4	40.7	4	-1E+10	1	0.0394	4	0.000314	0	-1E+10	1	-1E+10	1	-1E+10	1
4902624	18	C	12/18/2024	13:32	-127.027	47.059	0	111.00	0	7.5770	0	33.6970	0	26.314	0	110.048	0	-1e10	1	-1e10	1	-1E+10	1	-1e10	1	-1e10	1	-1E+10	1	-1E+10	1	-1E+10	1
4902624	18	C	12/18/2024	13:32	-127.027	47.059	0	111.50	0	7.5673	0	33.6987	0	26.316	0	110.544	0	118.9	4	40.6	4	-1E+10	1	0.0385	4	0.000304	0	-1E+10	1	-1E+10	1	-1E+10	1
4902624	18	C	12/18/2024	13:32	-127.027	47.059	0	112.40	0	7.5497	0	33.7019	0	26.321	0	111.436	0	118.7	4	40.6	4	-1E+10	1	0.0316	4	0.000309	0	-1E+10	1	-1E+10	1	-1E+10	1
4902624	18	C	12/18/2024	13:32	-127.027	47.059	0	113.00	0	7.5380	0	33.7040	0	26.325	0	112.031	0	-1e10	1	-1e10	1	-1E+10	1	-1e10	1	-1e10	1	-1E+10	1	-1E+10	1	-1E+10	1
4902624	18	C	12/18/2024	13:32	-127.027	47.059	0	113.40	0	7.5264	0	33.7066	0	26.328	0	112.427	0	118.4	4	40.5	4	-1E+10	1	0.0438	4	0.000300	0	-1E+10	1	-1E+10	1	-1E+10	1
4902624	18	C	12/18/2024	13:32	-127.027	47.059	0	114.40	0	7.4974	0	33.7131	0	26.338	0	113.418	0	118.1	4	40.3	4	-1E+10	1	0.0365	4	0.000288	0	-1E+10	1	-1E+10	1	-1E+10	1
4902624	18	C	12/18/2024	13:32	-127.027	47.059	0	115.00	0	7.4800	0	33.7170	0	26.343	0	114.013	0	-1e10	1	-1e10	1	-1E+10	1	-1e10	1	-1e10	1	-1E+10	1	-1E+10	1	-1E+10	1
4902624	18	C	12/18/2024	13:32	-127.027	47.059	0	115.30	0	7.4773	0	33.7185	0	26.345	0	114.310	0	117.7	4	40.2	4	-1E+10	1	0.0425	4	0.000345	0	-1E+10	1	-1E+10	1	-1E+10	1
4902624	18	C	12/18/2024	13:32	-127.027	47.059	0	116.30	0	7.4683	0	33.7235	0	26.350	0	115.302	0	117.4	4	40.0	4	-1E+10	1	0.0438	4	0.000421	0	-1E+10	1	-1E+10	1	-1E+10	1
4902624	18	C	12/18/2024	13:32	-127.027	47.059	0	117.00	0	7.4620	0	33.7270	0	26.354	0	115.995	0	-1e10	1	-1e10	1	-1E+10	1	-1e10	1	-1e10	1	-1E+10	1	-1E+10	1	-1E+10	1
4902624	18	C	12/18/2024	13:32	-127.027	47.059	0	117.30	0	7.4595	0	33.7279	0	26.355	0	116.293	0	117.0	4	39.9	4	-1E+10	1	0.0394	4	0.000368	0	-1E+10	1	-1E+10	1	-1E+10	1
4902624	18	C	12/18/2024	13:32	-127.027	47.059	0	118.30	0	7.4511	0	33.7311	0	26.358	0	117.284	0	116.5	4	39.7	4	-1E+10	1	0.0365	4	0.000318	0	-1E+10	1	-1E+10	1	-1E+10	1
4902624	18	C	12/18/2024	13:32	-127.027	47.059	0	118.90	0	7.4460	0	33.7330	0	26.361	0	117.878	0	-1e10	1	-1e10	1	-1E+10	1	-1e10	1	-1e10	1	-1E+10	1	-1E+10	1	-1E+10	1
4902624	18	C	12/18/2024	13:32	-127.027	47.059	0	119.20	0	7.4411	0	33.7342	0	26.362	0	118.176	0	115.9	4	39.5	4	-1E+10	1	0.0365	4	0.000327	0	-1E+10	1	-1E+10	1	-1E+10	1
4902624	18	C	12/18/2024	13:32	-127.027	47.059	0	120.20	0	7.4246	0	33.7382	0	26.368	0	119.167	0	115.3	4	39.3	4	-1E+10	1	0.0394	4	0.000323	0	-1E+10	1	-1E+10	1	-1E+10	1
4902624	18	C	12/18/2024	13:32	-127.027	47.059	0	120.90	0	7.4130	0	33.7410	0	26.372	0	119.861	0	-1e10	1	-1e10	1	-1E+10	1	-1e10	1	-1e10	1	-1E+10	1	-1E+10	1	-1E+10	1
4902624	18	C	12/18/2024	13:32	-127.027	47.059	0	121.20	0	7.4120	0	33.7426	0	26.373	0	120.158	0	114.6	4	39.0	4	-1E+10	1	0.0511	4	0.000278	0	-1E+10	1	-1E+10	1	-1E+10	1
4902624	18	C	12/18/2024	13:32	-127.027	47.059	0	122.20	0	7.4087	0	33.7478	0	26.378	0	121.149	0	113.7	4	38.8	4	-1E+10	1	0.0511	4	0.000288	0	-1E+10	1	-1E+10	1	-1E+10	1
4902624	18	C	12/18/2024	13:32	-127.027	47.059	0	123.00	0	7.4060	0	33.7520	0	26.381	0	121.942	0	-1e10	1	-1e10	1	-1E+10	1	-1e10	1	-1e10	1	-1E+10	1	-1E+10	1	-1E+10	1
4902624	18	C	12/18/2024	13:32	-127.027	47.059	0	123.30	0	7.4032	0	33.7539	0	26.383	0	122.239	0	113.1	4	38.6	4	-1E+10	1	0.0573	4	0.000327	0	-1E+10	1	-1E+10	1	-1E+10	1
4902624	18	C	12/18/2024	13:32	-127.027	47.059	0	124.30	0	7.3937	0	33.7604	0	26.390	0	123.230	0	112.6	4	38.4	4	-1E+10	1	0.0409	4	0.000382	0	-1E+10	1	-1E+10	1	-1E+10	1
4902624	18	C	12/18/2024	13:32	-127.027	47.059	0	125.00	0	7.3870	0	33.7650	0	26.394	0	123.924	0	-1e10	1	-1e10	1	-1E+10	1	-1e10	1	-1e10	1	-1E+10	1	-1E+10	1	-1E+10	1
4902624	18	C	12/18/2024	13:32	-127.027	47.059	0	125.30	0	7.3902	0	33.7680	0	26.396	0	124.222	0	112.1	4	38.2	4	-1E+10	1	0.0414	4	0.000331	0	-1E+10	1	-1E+10	1	-1E+10	1
4902624	18	C	12/18/2024	13:32	-127.027	47.059	0	126.30	0	7.4007	0	33.7780	0	26.403	0	125.213	0	111.9	4	38.1	4	-1E+10	1	0.0438	4	0.000354	0	-1E+10	1	-1E+10	1	-1E+10	1
4902624	18	C	12/18/2024	13:32	-127.027	47.059	0	126.90	0	7.4070	0	33.7840	0	26.406	0	125.807	0	-1e10	1	-1e10	1	-1E+10	1	-1e10	1	-1e10	1	-1E+10	1	-1E+10	1	-1E+10	1
4902624	18	C	12/18/2024	13:32	-127.027	47.059	0	127.40	0	7.3975	0	33.7868	0	26.410	0	126.303	0	111.8	4	38.1	4	-1E+10	1	0.0350	4	0.000375	0	-1E+10	1	-1E+10	1	-1E+10	1
4902624	18	C	12/18/2024	13:32	-127.027	47.059	0	128.40	0	7.3785	0	33.7922	0	26.417	0	127.294	0	111.8	4	38.1	4	-1E+10	1	0.0286	4	0.000311	0	-1E+10	1	-1E+10	1	-1E+10	1
4902624	18	C	12/18/2024	13:32	-127.027	47.059	0	128.90	0	7.3690	0	33.7950	0	26.420	0	127.789	0	-1e10	1	-1e10	1	-1E+10	1	-1e10	1	-1e10	1	-1E+10	1	-1E+10	1	-1E+10	1
4902624	18	C	12/18/2024	13:32	-127.027	47.059	0	129.50	0	7.3627	0	33.7956	0	26.422	0	128.384	0	111.7	4	38.0	4	-1E+10	1	0.0438	4	0.000330	0	-1E+10	1	-1E+10	1	-1E+10	1
4902624	18	C	12/18/2024	13:32	-127.027	47.059	0	130.60	0	7.3512	0	33.7966	0	26.424	0	129.474	0	111.5	4	38.0	4	-1E+10	1	0.0423	4	0.000391	0	-1E+10	1	-1E+10	1	-1E+10	1
4902624	18	C	12/18/2024	13:32	-127.027	47.059	0	131.00	0	7.3470	0	33.7970	0	26.425	0	129.871	0	-1e10	1	-1e10	1	-1E+10	1	-1e10	1	-1e10	1	-1E+10	1	-1E+10	1	-1E+10	1
4902624	18	C	12/18/2024	13:32	-127.027	47.059	0	131.60	0	7.3347	0	33.7976	0	26.427	0	130.465	0	111.2	4	37.8	4	-1E+10	1	0.0376	4	0.000295	0	-1E+10	1	-1E+10	1	-1E+10	1
4902624	18	C	12/18/2024	13:32	-127.027	47.059	0	132.70	0	7.3122	0	33.7987	0	26.431	0	131.556	0	110.7	4	37.7	4	-1E+10	1	0.0438	4	0.000335	0	-1E+10	1	-1E+10	1	-1E+10	1
4902624	18	C	12/18/2024	13:32	-127.027	47.059	0	133.00	0	7.3060	0	33.7990	0	26.432	0	131.853	0	-1e10	1	-1e10	1	-1E+10	1	-1e10	1	-1e10	1	-1E+10	1	-1E+10	1	-1E+10	1
4902624	18	C	12/18/2024	13:32	-127.027	47.059	0	133.70	0	7.2976	0	33.8018	0	26.436	0	132.547	0	110.2	4	37.5	4	-1E+10	1	0.0494	4	0.000289	0	-1E+10	1	-1E+10	1	-1E+10	1
4902624	18	C	12/18/2024	13:32	-127.027	47.059	0	134.80	0	7.2844	0	33.8062	0	26.441	0	133.637	0	109.8	4	37.3	4	-1E+10	1	0.0453	4	0.000261	0	-1E+10	1	-1E+10	1	-1E+10	1
4902624	18	C	12/18/2024	13:32	-127.027	47.059	0	135.00	0	7.2820	0	33.8070	0	26.442	0	133.835	0	-1e10	1	-1e10	1	-1E+10	1	-1e10	1	-1e10	1	-1E+10	1	-1E+10	1	-1E+10	1
4902624	18	C	12/18/2024	13:32	-127.027	47.059	0	135.90	0	7.2671	0	33.8120	0	26.448	0	134.727	0	109.3	4	37.1	4	-1E+10	1	0.0438	4	0.000343	0	-1E+10	1	-1E+10	1	-1E+10	1
4902624	18	C	12/18/2024	13:32	-127.027	47.059	0	136.90	0	7.2506	0	33.8175	0	26.455	0	135.718	0	108.7	4	36.9	4	-1E+10	1	0.0539	4	0.000349	0	-1E+10	1	-1E+10	1	-1E+10	1
4902624	18	C	12/18/2024	13:32	-127.027	47.059	0	137.00	0	7.2490	0	33.8180	0	26.455	0	135.817	0	-1e10	1	-1e10	1	-1E+10	1	-1e10	1	-1e10	1	-1E+10	1	-1E+10	1	-1E+10	1
4902624	18	C	12/18/2024	13:32	-127.027	47.059	0	138.00	0	7.2295	0	33.8213	0	26.461	0	136.808	0	108.1	4	36.7	4	-1E+10	1	0.0577	4	0.000337	0	-1E+10	1	-1E+10	1	-1E+10	1
4902624	18	C	12/18/2024	13:32	-127.027	47.059	0	139.10	0	7.2080	0	33.8250	0	26.467	0	137.898	0	106.0	4	36.0	4	-1E+10	1	0.0462	4	0.000378	0	-1E+10	1	-1E+10	1	-1E+10	1
4902624	18	C	12/18/2024	13:32	-127.027	47.059	0	140.10	0	7.1948	0	33.8271	0	26.470	0	138.889	0	107.0	4	36.3	4	-1E+10	1	0.0511	4	0.000363	0	-1E+10	1	-1E+10	1	-1E+10	1
4902624	18	C	12/18/2024	13:32	-127.027	47.059	0	141.00	0	7.1830	0	33.8290	0	26.473	0	139.781	0	-1e10	1	-1e10	1	-1E+10	1	-1e10	1	-1e10	1	-1E+10	1	-1E+10	1	-1E+10	1
4902624	18	C	12/18/2024	13:32	-127.027	47.059	0	141.20	0	7.1798	0	33.8294	0	26.474	0	139.979	0	106.5	4	36.1	4	-1E+10	1	0.0511	4	0.000323	0	-1E+10	1	-1E+10	1	-1E+10	1
4902624	18	C	12/18/2024	13:32	-127.027	47.059	0	142.30	0	7.1622	0	33.8316	0	26.478	0	141.069	0	105.9	4	35.9	4	-1E+10	1	0.0584	4	0.000323	0	-1E+10	1	-1E+10	1	-1E+10	1
4902624	18	C	12/18/2024	13:32	-127.027	47.059	0	143.00	0	7.1510	0	33.8330	0	26.481	0	141.763	0	-1e10	1	-1e10	1	-1E+10	1	-1e10	1	-1e10	1	-1E+10	1	-1E+10	1	-1E+10	1
4902624	18	C	12/18/2024	13:32	-127.027	47.059	0	143.40	0	7.1450	0	33.8340	0	26.482	0	142.160	0	105.0	4	35.6	4	-1E+10	1	0.0460	4	0.000293	0	-1E+10	1	-1E+10	1	-1E+10	1
4902624	18	C	12/18/2024	13:32	-127.027	47.059	0	144.50	0	7.1285	0	33.8368	0	26.487	0	143.250	0	104.1	4	35.3	4	-1E+10	1	0.0438	4	0.000298	0	-1E+10	1	-1E+10	1	-1E+10	1
4902624	18	C	12/18/2024	13:32	-127.027	47.059	0	145.00	0	7.1210	0	33.8380	0	26.489	0	143.745	0	-1e10	1	-1e10	1	-1E+10	1	-1e10	1	-1e10	1	-1E+10	1	-1E+10	1	-1E+10	1
4902624	18	C	12/18/2024	13:32	-127.027	47.059	0	145.60	0	7.1210	0	33.8399	0	26.490	0	144.340	0	103.2	4	35.0	4	-1E+10	1	0.0478	4	0.000308	0	-1E+10	1	-1E+10	1	-1E+10	1
4902624	18	C	12/18/2024	13:32	-127.027	47.059	0	146.70	0	7.1210	0	33.8434	0	26.493	0	145.430	0	102.5	4	34.7	4	-1E+10	1	0.0477	4	0.000316	0	-1E+10	1	-1E+10	1	-1E+10	1
4902624	18	C	12/18/2024	13:32	-127.027	47.059	0	146.90	0	7.1210	0	33.8440	0	26.494	0	145.628	0	-1e10	1	-1e10	1	-1E+10	1	-1e10	1	-1e10	1	-1E+10	1	-1E+10	1	-1E+10	1
4902624	18	C	12/18/2024	13:32	-127.027	47.059	0	147.90	0	7.1090	0	33.8465	0	26.497	0	146.619	0	101.7	4	34.4	4	-1E+10	1	0.0438	4	0.000318	0	-1E+10	1	-1E+10	1	-1E+10	1
4902624	18	C	12/18/2024	13:32	-127.027	47.059	0	148.90	0	7.0970	0	33.8490	0	26.501	0	147.610	0	-1e10	1	-1e10	1	-1E+10	1	-1e10	1	-1e10	1	-1E+10	1	-1E+10	1	-1E+10	1
4902624	18	C	12/18/2024	13:32	-127.027	47.059	0	149.00	0	7.0958	0	33.8492	0	26.501	0	147.709	0	101.0	4	34.2	4	-1E+10	1	0.0478	4	0.000308	0	-1E+10	1	-1E+10	1	-1E+10	1
4902624	18	C	12/18/2024	13:32	-127.027	47.059	0	150.10	0	7.0832	0	33.8514	0	26.505	0	148.799	0	100.3	4	33.9	4	-1E+10	1	0.0568	4	0.000317	0	-1E+10	1	-1E+10	1	-1E+10	1
4902624	18	C	12/18/2024	13:32	-127.027	47.059	0	150.90	0	7.0740	0	33.8530	0	26.507	0	149.592	0	-1e10	1	-1e10	1	-1E+10	1	-1e10	1	-1e10	1	-1E+10	1	-1E+10	1	-1E+10	1
4902624	18	C	12/18/2024	13:32	-127.027	47.059	0	151.20	0	7.0730	0	33.8534	0	26.508	0	149.889	0	99.4	4	33.6	4	-1E+10	1	0.0511	4	0.000381	0	-1E+10	1	-1E+10	1	-1E+10	1
4902624	18	C	12/18/2024	13:32	-127.027	47.059	0	152.30	0	7.0693	0	33.8550	0	26.509	0	150.979	0	98.4	4	33.3	4	-1E+10	1	0.0573	4	0.000302	0	-1E+10	1	-1E+10	1	-1E+10	1
4902624	18	C	12/18/2024	13:32	-127.027	47.059	0	153.00	0	7.0670	0	33.8560	0	26.511	0	151.673	0	-1e10	1	-1e10	1	-1E+10	1	-1e10	1	-1e10	1	-1E+10	1	-1E+10	1	-1E+10	1
4902624	18	C	12/18/2024	13:32	-127.027	47.059	0	153.40	0	7.0630	0	33.8570	0	26.512	0	152.069	0	97.3	4	32.9	4	-1E+10	1	0.0465	4	0.000326	0	-1E+10	1	-1E+10	1	-1E+10	1
4902624	18	C	12/18/2024	13:32	-127.027	47.059	0	154.50	0	7.0520	0	33.8597	0	26.516	0	153.159	0	96.1	4	32.5	4	-1E+10	1	0.0532	4	0.000315	0	-1E+10	1	-1E+10	1	-1E+10	1
4902624	18	C	12/18/2024	13:32	-127.027	47.059	0	155.00	0	7.0470	0	33.8610	0	26.517	0	153.655	0	-1e10	1	-1e10	1	-1E+10	1	-1e10	1	-1e10	1	-1E+10	1	-1E+10	1	-1E+10	1
4902624	18	C	12/18/2024	13:32	-127.027	47.059	0	155.60	0	7.0431	0	33.8631	0	26.519	0	154.249	0	95.1	4	32.2	4	-1E+10	1	0.0550	4	0.000361	0	-1E+10	1	-1E+10	1	-1E+10	1
4902624	18	C	12/18/2024	13:32	-127.027	47.059	0	156.80	0	7.0353	0	33.8673	0	26.524	0	155.439	0	94.0	4	31.8	4	-1E+10	1	0.0541	4	0.000370	0	-1E+10	1	-1E+10	1	-1E+10	1
4902624	18	C	12/18/2024	13:32	-127.027	47.059	0	157.00	0	7.0340	0	33.8680	0	26.525	0	155.637	0	-1e10	1	-1e10	1	-1E+10	1	-1e10	1	-1e10	1	-1E+10	1	-1E+10	1	-1E+10	1
4902624	18	C	12/18/2024	13:32	-127.027	47.059	0	157.90	0	7.0376	0	33.8725	0	26.528	0	156.529	0	93.2	4	31.5	4	-1E+10	1	0.0562	4	0.000316	0	-1E+10	1	-1E+10	1	-1E+10	1
4902624	18	C	12/18/2024	13:32	-127.027	47.059	0	159.00	0	7.0420	0	33.8780	0	26.531	0	157.619	0	91.4	4	30.9	4	-1E+10	1	0.0489	4	0.000381	0	-1E+10	1	-1E+10	1	-1E+10	1
4902624	18	C	12/18/2024	13:32	-127.027	47.059	0	160.10	0	7.0348	0	33.8829	0	26.536	0	158.709	0	92.4	4	31.3	4	-1E+10	1	0.0365	4	0.000381	0	-1E+10	1	-1E+10	1	-1E+10	1
4902624	18	C	12/18/2024	13:32	-127.027	47.059	0	161.00	0	7.0290	0	33.8870	0	26.540	0	159.601	0	-1e10	1	-1e10	1	-1E+10	1	-1e10	1	-1e10	1	-1E+10	1	-1E+10	1	-1E+10	1
4902624	18	C	12/18/2024	13:32	-127.027	47.059	0	161.30	0	7.0288	0	33.8876	0	26.541	0	159.898	0	92.0	4	31.1	4	-1E+10	1	0.0365	4	0.000323	0	-1E+10	1	-1E+10	1	-1E+10	1
4902624	18	C	12/18/2024	13:32	-127.027	47.059	0	162.40	0	7.0283	0	33.8898	0	26.543	0	160.988	0	91.7	4	31.0	4	-1E+10	1	0.0489	4	0.000323	0	-1E+10	1	-1E+10	1	-1E+10	1
4902624	18	C	12/18/2024	13:32	-127.027	47.059	0	163.00	0	7.0280	0	33.8910	0	26.544	0	161.582	0	-1e10	1	-1e10	1	-1E+10	1	-1e10	1	-1e10	1	-1E+10	1	-1E+10	1	-1E+10	1
4902624	18	C	12/18/2024	13:32	-127.027	47.059	0	163.50	0	7.0251	0	33.8923	0	26.545	0	162.078	0	91.6	4	31.0	4	-1E+10	1	0.0464	4	0.000308	0	-1E+10	1	-1E+10	1	-1E+10	1
4902624	18	C	12/18/2024	13:32	-127.027	47.059	0	164.70	0	7.0182	0	33.8955	0	26.549	0	163.267	0	91.7	4	31.0	4	-1E+10	1	0.0474	4	0.000305	0	-1E+10	1	-1E+10	1	-1E+10	1
4902624	18	C	12/18/2024	13:32	-127.027	47.059	0	164.90	0	7.0170	0	33.8960	0	26.549	0	163.465	0	-1e10	1	-1e10	1	-1E+10	1	-1e10	1	-1e10	1	-1E+10	1	-1E+10	1	-1E+10	1
4902624	18	C	12/18/2024	13:32	-127.027	47.059	0	165.80	0	7.0066	0	33.8969	0	26.551	0	164.357	0	91.8	4	31.0	4	-1E+10	1	0.0511	4	0.000307	0	-1E+10	1	-1E+10	1	-1E+10	1
4902624	18	C	12/18/2024	13:32	-127.027	47.059	0	166.90	0	6.9940	0	33.8980	0	26.554	0	165.447	0	-1e10	1	-1e10	1	-1E+10	1	-1e10	1	-1e10	1	-1E+10	1	-1E+10	1	-1E+10	1
4902624	18	C	12/18/2024	13:32	-127.027	47.059	0	167.00	0	6.9924	0	33.8980	0	26.554	0	165.546	0	92.0	4	31.1	4	-1E+10	1	0.0511	4	0.000303	0	-1E+10	1	-1E+10	1	-1E+10	1
4902624	18	C	12/18/2024	13:32	-127.027	47.059	0	168.10	0	6.9746	0	33.8980	0	26.556	0	166.636	0	92.3	4	31.2	4	-1E+10	1	0.0511	4	0.000329	0	-1E+10	1	-1E+10	1	-1E+10	1
4902624	18	C	12/18/2024	13:32	-127.027	47.059	0	169.00	0	6.9600	0	33.8980	0	26.558	0	167.528	0	-1e10	1	-1e10	1	-1E+10	1	-1e10	1	-1e10	1	-1E+10	1	-1E+10	1	-1E+10	1
4902624	18	C	12/18/2024	13:32	-127.027	47.059	0	169.20	0	6.9571	0	33.8979	0	26.559	0	167.726	0	92.7	4	31.3	4	-1E+10	1	0.0511	4	0.000402	0	-1E+10	1	-1E+10	1	-1E+10	1
4902624	18	C	12/18/2024	13:32	-127.027	47.059	0	170.30	0	6.9408	0	33.8973	0	26.561	0	168.816	0	93.2	4	31.5	4	-1E+10	1	0.0511	4	0.000358	0	-1E+10	1	-1E+10	1	-1E+10	1
4902624	18	C	12/18/2024	13:32	-127.027	47.059	0	170.90	0	6.9320	0	33.8970	0	26.562	0	169.410	0	-1e10	1	-1e10	1	-1E+10	1	-1e10	1	-1e10	1	-1E+10	1	-1E+10	1	-1E+10	1
4902624	18	C	12/18/2024	13:32	-127.027	47.059	0	171.60	0	6.9072	0	33.8967	0	26.565	0	170.104	0	93.8	4	31.6	4	-1E+10	1	0.0365	4	0.000369	0	-1E+10	1	-1E+10	1	-1E+10	1
4902624	18	C	12/18/2024	13:32	-127.027	47.059	0	172.80	0	6.8646	0	33.8961	0	26.570	0	171.293	0	94.0	4	31.7	4	-1E+10	1	0.0511	4	0.000276	0	-1E+10	1	-1E+10	1	-1E+10	1
4902624	18	C	12/18/2024	13:32	-127.027	47.059	0	173.10	0	6.8540	0	33.8960	0	26.571	0	171.590	0	-1e10	1	-1e10	1	-1E+10	1	-1e10	1	-1e10	1	-1E+10	1	-1E+10	1	-1E+10	1
4902624	18	C	12/18/2024	13:32	-127.027	47.059	0	173.70	0	6.8277	0	33.8937	0	26.573	0	172.185	0	94.0	4	31.7	4	-1E+10	1	0.0460	4	0.000292	0	-1E+10	1	-1E+10	1	-1E+10	1
4902624	18	C	12/18/2024	13:32	-127.027	47.059	0	174.60	0	6.7882	0	33.8902	0	26.576	0	173.077	0	93.8	4	31.5	4	-1E+10	1	0.0464	4	0.000295	0	-1E+10	1	-1E+10	1	-1E+10	1
4902624	18	C	12/18/2024	13:32	-127.027	47.059	0	174.90	0	6.7750	0	33.8890	0	26.576	0	173.374	0	-1e10	1	-1e10	1	-1E+10	1	-1e10	1	-1e10	1	-1E+10	1	-1E+10	1	-1E+10	1
4902624	18	C	12/18/2024	13:32	-127.027	47.059	0	175.70	0	6.7659	0	33.8886	0	26.577	0	174.167	0	93.5	4	31.4	4	-1E+10	1	0.0498	4	0.000283	0	-1E+10	1	-1E+10	1	-1E+10	1
4902624	18	C	12/18/2024	13:32	-127.027	47.059	0	177.10	0	6.7500	0	33.8880	0	26.579	0	175.554	0	91.6	4	30.8	4	-1E+10	1	0.0490	4	0.000272	0	-1E+10	1	-1E+10	1	-1E+10	1
4902624	18	C	12/18/2024	13:32	-127.027	47.059	0	178.20	0	6.7431	0	33.8868	0	26.579	0	176.644	0	92.5	4	31.1	4	-1E+10	1	0.0584	4	0.000287	0	-1E+10	1	-1E+10	1	-1E+10	1
4902624	18	C	12/18/2024	13:32	-127.027	47.059	0	179.00	0	6.7380	0	33.8860	0	26.579	0	177.436	0	-1e10	1	-1e10	1	-1E+10	1	-1e10	1	-1e10	1	-1E+10	1	-1E+10	1	-1E+10	1
4902624	18	C	12/18/2024	13:32	-127.027	47.059	0	179.40	0	6.7338	0	33.8864	0	26.580	0	177.833	0	92.0	4	30.9	4	-1E+10	1	0.0584	4	0.000287	0	-1E+10	1	-1E+10	1	-1E+10	1
4902624	18	C	12/18/2024	13:32	-127.027	47.059	0	180.50	0	6.7222	0	33.8875	0	26.582	0	178.923	0	91.3	4	30.7	4	-1E+10	1	0.0584	4	0.000299	0	-1E+10	1	-1E+10	1	-1E+10	1
4902624	18	C	12/18/2024	13:32	-127.027	47.059	0	181.00	0	6.7170	0	33.8880	0	26.583	0	179.418	0	-1e10	1	-1e10	1	-1E+10	1	-1e10	1	-1e10	1	-1E+10	1	-1E+10	1	-1E+10	1
4902624	18	C	12/18/2024	13:32	-127.027	47.059	0	181.70	0	6.7120	0	33.8887	0	26.585	0	180.112	0	90.7	4	30.4	4	-1E+10	1	0.0334	4	0.000299	0	-1E+10	1	-1E+10	1	-1E+10	1
4902624	18	C	12/18/2024	13:32	-127.027	47.059	0	182.60	0	6.7056	0	33.8895	0	26.586	0	181.003	0	90.0	4	30.2	4	-1E+10	1	0.0335	4	0.000274	0	-1E+10	1	-1E+10	1	-1E+10	1
4902624	18	C	12/18/2024	13:32	-127.027	47.059	0	183.10	0	6.7020	0	33.8900	0	26.587	0	181.499	0	-1e10	1	-1e10	1	-1E+10	1	-1e10	1	-1e10	1	-1E+10	1	-1E+10	1	-1E+10	1
4902624	18	C	12/18/2024	13:32	-127.027	47.059	0	184.00	0	6.6914	0	33.8916	0	26.590	0	182.390	0	89.4	4	30.0	4	-1E+10	1	0.0459	4	0.000276	0	-1E+10	1	-1E+10	1	-1E+10	1
4902624	18	C	12/18/2024	13:32	-127.027	47.059	0	184.80	0	6.6820	0	33.8930	0	26.592	0	183.183	0	-1e10	1	-1e10	1	-1E+10	1	-1e10	1	-1e10	1	-1E+10	1	-1E+10	1	-1E+10	1
4902624	18	C	12/18/2024	13:32	-127.027	47.059	0	185.20	0	6.6771	0	33.8933	0	26.593	0	183.579	0	88.8	4	29.8	4	-1E+10	1	0.0511	4	0.000347	0	-1E+10	1	-1E+10	1	-1E+10	1
4902624	18	C	12/18/2024	13:32	-127.027	47.059	0	186.30	0	6.6637	0	33.8943	0	26.596	0	184.669	0	88.2	4	29.6	4	-1E+10	1	0.0481	4	0.000338	0	-1E+10	1	-1E+10	1	-1E+10	1
4902624	18	C	12/18/2024	13:32	-127.027	47.059	0	187.10	0	6.6540	0	33.8950	0	26.597	0	185.462	0	-1e10	1	-1e10	1	-1E+10	1	-1e10	1	-1e10	1	-1E+10	1	-1E+10	1	-1E+10	1
4902624	18	C	12/18/2024	13:32	-127.027	47.059	0	187.50	0	6.6480	0	33.8957	0	26.599	0	185.858	0	87.5	4	29.3	4	-1E+10	1	0.0460	4	0.000277	0	-1E+10	1	-1E+10	1	-1E+10	1
4902624	18	C	12/18/2024	13:32	-127.027	47.059	0	188.60	0	6.6315	0	33.8975	0	26.602	0	186.948	0	86.8	4	29.1	4	-1E+10	1	0.0584	4	0.000287	0	-1E+10	1	-1E+10	1	-1E+10	1
4902624	18	C	12/18/2024	13:32	-127.027	47.059	0	188.90	0	6.6270	0	33.8980	0	26.603	0	187.245	0	-1e10	1	-1e10	1	-1E+10	1	-1e10	1	-1e10	1	-1E+10	1	-1E+10	1	-1E+10	1
4902624	18	C	12/18/2024	13:32	-127.027	47.059	0	189.80	0	6.6147	0	33.8996	0	26.606	0	188.137	0	86.2	4	28.9	4	-1E+10	1	0.0584	4	0.000346	0	-1E+10	1	-1E+10	1	-1E+10	1
4902624	18	C	12/18/2024	13:32	-127.027	47.059	0	191.10	0	6.5970	0	33.9020	0	26.611	0	189.425	0	-1e10	1	-1e10	1	-1E+10	1	-1e10	1	-1e10	1	-1E+10	1	-1E+10	1	-1E+10	1
4902624	18	C	12/18/2024	13:32	-127.027	47.059	0	191.20	0	6.5964	0	33.9022	0	26.611	0	189.524	0	85.5	4	28.6	4	-1E+10	1	0.0511	4	0.000275	0	-1E+10	1	-1E+10	1	-1E+10	1
4902624	18	C	12/18/2024	13:32	-127.027	47.059	0	192.20	0	6.5906	0	33.9043	0	26.613	0	190.515	0	85.1	4	28.5	4	-1E+10	1	0.0511	4	0.000285	0	-1E+10	1	-1E+10	1	-1E+10	1
4902624	18	C	12/18/2024	13:32	-127.027	47.059	0	193.00	0	6.5860	0	33.9060	0	26.615	0	191.308	0	-1e10	1	-1e10	1	-1E+10	1	-1e10	1	-1e10	1	-1E+10	1	-1E+10	1	-1E+10	1
4902624	18	C	12/18/2024	13:32	-127.027	47.059	0	193.10	0	6.5852	0	33.9060	0	26.615	0	191.407	0	84.7	4	28.3	4	-1E+10	1	0.0584	4	0.000293	0	-1E+10	1	-1E+10	1	-1E+10	1
4902624	18	C	12/18/2024	13:32	-127.027	47.059	0	194.30	0	6.5755	0	33.9060	0	26.617	0	192.596	0	84.1	4	28.2	4	-1E+10	1	0.0579	4	0.000311	0	-1E+10	1	-1E+10	1	-1E+10	1
4902624	18	C	12/18/2024	13:32	-127.027	47.059	0	195.10	0	6.5690	0	33.9060	0	26.617	0	193.388	0	-1e10	1	-1e10	1	-1E+10	1	-1e10	1	-1e10	1	-1E+10	1	-1E+10	1	-1E+10	1
4902624	18	C	12/18/2024	13:32	-127.027	47.059	0	195.70	0	6.5636	0	33.9063	0	26.618	0	193.983	0	83.5	4	28.0	4	-1E+10	1	0.0462	4	0.000346	0	-1E+10	1	-1E+10	1	-1E+10	1
4902624	18	C	12/18/2024	13:32	-127.027	47.059	0	196.90	0	6.5528	0	33.9069	0	26.620	0	195.172	0	82.9	4	27.7	4	-1E+10	1	0.0511	4	0.000354	0	-1E+10	1	-1E+10	1	-1E+10	1
4902624	18	C	12/18/2024	13:32	-127.027	47.059	0	197.10	0	6.5510	0	33.9070	0	26.621	0	195.370	0	-1e10	1	-1e10	1	-1E+10	1	-1e10	1	-1e10	1	-1E+10	1	-1E+10	1	-1E+10	1
4902624	18	C	12/18/2024	13:32	-127.027	47.059	0	198.10	0	6.5257	0	33.9091	0	26.626	0	196.360	0	82.2	4	27.5	4	-1E+10	1	0.0511	4	0.000279	0	-1E+10	1	-1E+10	1	-1E+10	1
4902624	18	C	12/18/2024	13:32	-127.027	47.059	0	199.00	0	6.5030	0	33.9110	0	26.630	0	197.252	0	-1e10	1	-1e10	1	-1E+10	1	-1e10	1	-1e10	1	-1E+10	1	-1E+10	1	-1E+10	1
4902624	18	C	12/18/2024	13:32	-127.027	47.059	0	199.30	0	6.5007	0	33.9111	0	26.630	0	197.549	0	81.3	4	27.2	4	-1E+10	1	0.0511	4	0.000299	0	-1E+10	1	-1E+10	1	-1E+10	1
4902624	18	C	12/18/2024	13:32	-127.027	47.059	0	200.50	0	6.4917	0	33.9118	0	26.632	0	198.738	0	80.4	4	26.9	4	-1E+10	1	0.0569	4	0.000318	0	-1E+10	1	-1E+10	1	-1E+10	1
4902624	18	C	12/18/2024	13:32	-127.027	47.059	0	201.00	0	6.4880	0	33.9120	0	26.633	0	199.234	0	-1e10	1	-1e10	1	-1E+10	1	-1e10	1	-1e10	1	-1E+10	1	-1E+10	1	-1E+10	1
4902624	18	C	12/18/2024	13:32	-127.027	47.059	0	201.70	0	6.4963	0	33.9147	0	26.634	0	199.927	0	79.9	4	26.7	4	-1E+10	1	0.0639	4	0.000296	0	-1E+10	1	-1E+10	1	-1E+10	1
4902624	18	C	12/18/2024	13:32	-127.027	47.059	0	202.90	0	6.5106	0	33.9192	0	26.636	0	201.116	0	79.6	4	26.6	4	-1E+10	1	0.0610	4	0.000295	0	-1E+10	1	-1E+10	1	-1E+10	1
4902624	18	C	12/18/2024	13:32	-127.027	47.059	0	203.10	0	6.5130	0	33.9200	0	26.636	0	201.314	0	-1e10	1	-1e10	1	-1E+10	1	-1e10	1	-1e10	1	-1E+10	1	-1E+10	1	-1E+10	1
4902624	18	C	12/18/2024	13:32	-127.027	47.059	0	204.20	0	6.4841	0	33.9206	0	26.640	0	202.404	0	79.4	4	26.5	4	-1E+10	1	0.0545	4	0.000286	0	-1E+10	1	-1E+10	1	-1E+10	1
4902624	18	C	12/18/2024	13:32	-127.027	47.059	0	205.00	0	6.4630	0	33.9210	0	26.643	0	203.196	0	-1e10	1	-1e10	1	-1E+10	1	-1e10	1	-1e10	1	-1E+10	1	-1E+10	1	-1E+10	1
4902624	18	C	12/18/2024	13:32	-127.027	47.059	0	205.40	0	6.4626	0	33.9218	0	26.644	0	203.593	0	78.9	4	26.4	4	-1E+10	1	0.0511	4	0.000320	0	-1E+10	1	-1E+10	1	-1E+10	1
4902624	18	C	12/18/2024	13:32	-127.027	47.059	0	206.70	0	6.4613	0	33.9244	0	26.646	0	204.881	0	78.9	4	26.3	4	-1E+10	1	0.0541	4	0.000354	0	-1E+10	1	-1E+10	1	-1E+10	1
4902624	18	C	12/18/2024	13:32	-127.027	47.059	0	207.00	0	6.4610	0	33.9250	0	26.647	0	205.178	0	-1e10	1	-1e10	1	-1E+10	1	-1e10	1	-1e10	1	-1E+10	1	-1E+10	1	-1E+10	1
4902624	18	C	12/18/2024	13:32	-127.027	47.059	0	207.90	0	6.4475	0	33.9245	0	26.648	0	206.069	0	78.6	4	26.2	4	-1E+10	1	0.0584	4	0.000299	0	-1E+10	1	-1E+10	1	-1E+10	1
4902624	18	C	12/18/2024	13:32	-127.027	47.059	0	209.00	0	6.4310	0	33.9240	0	26.650	0	207.159	0	-1e10	1	-1e10	1	-1E+10	1	-1e10	1	-1e10	1	-1E+10	1	-1E+10	1	-1E+10	1
4902624	18	C	12/18/2024	13:32	-127.027	47.059	0	209.10	0	6.4316	0	33.9242	0	26.650	0	207.258	0	78.4	4	26.2	4	-1E+10	1	0.0584	4	0.000318	0	-1E+10	1	-1E+10	1	-1E+10	1
4902624	18	C	12/18/2024	13:32	-127.027	47.059	0	210.30	0	6.4385	0	33.9267	0	26.651	0	208.447	0	78.3	4	26.1	4	-1E+10	1	0.0574	4	0.000399	0	-1E+10	1	-1E+10	1	-1E+10	1
4902624	18	C	12/18/2024	13:32	-127.027	47.059	0	210.90	0	6.4420	0	33.9280	0	26.652	0	209.042	0	-1e10	1	-1e10	1	-1E+10	1	-1e10	1	-1e10	1	-1E+10	1	-1E+10	1	-1E+10	1
4902624	18	C	12/18/2024	13:32	-127.027	47.059	0	211.50	0	6.4391	0	33.9280	0	26.652	0	209.636	0	78.2	4	26.1	4	-1E+10	1	0.0511	4	0.000299	0	-1E+10	1	-1E+10	1	-1E+10	1
4902624	18	C	12/18/2024	13:32	-127.027	47.059	0	212.80	0	6.4330	0	33.9280	0	26.653	0	210.924	0	78.2	4	26.1	4	-1E+10	1	0.0384	4	0.000303	0	-1E+10	1	-1E+10	1	-1E+10	1
4902624	18	C	12/18/2024	13:32	-127.027	47.059	0	213.00	0	6.4320	0	33.9280	0	26.653	0	211.122	0	-1e10	1	-1e10	1	-1E+10	1	-1e10	1	-1e10	1	-1E+10	1	-1E+10	1	-1E+10	1
4902624	18	C	12/18/2024	13:32	-127.027	47.059	0	214.00	0	6.4325	0	33.9285	0	26.653	0	212.113	0	78.2	4	26.1	4	-1E+10	1	0.0487	4	0.000339	0	-1E+10	1	-1E+10	1	-1E+10	1
4902624	18	C	12/18/2024	13:32	-127.027	47.059	0	215.10	0	6.4330	0	33.9290	0	26.654	0	213.202	0	78.3	4	26.1	4	-1E+10	1	0.0460	4	0.000313	0	-1E+10	1	-1E+10	1	-1E+10	1
4902624	18	C	12/18/2024	13:32	-127.027	47.059	0	215.20	0	6.4330	0	33.9290	0	26.654	0	213.301	0	-1e10	1	-1e10	1	-1E+10	1	-1e10	1	-1e10	1	-1E+10	1	-1E+10	1	-1E+10	1
4902624	18	C	12/18/2024	13:32	-127.027	47.059	0	216.20	0	6.4169	0	33.9301	0	26.657	0	214.292	0	78.4	4	26.1	4	-1E+10	1	0.0523	4	0.000292	0	-1E+10	1	-1E+10	1	-1E+10	1
4902624	18	C	12/18/2024	13:32	-127.027	47.059	0	217.00	0	6.4040	0	33.9310	0	26.659	0	215.085	0	-1e10	1	-1e10	1	-1E+10	1	-1e10	1	-1e10	1	-1E+10	1	-1E+10	1	-1E+10	1
4902624	18	C	12/18/2024	13:32	-127.027	47.059	0	217.10	0	6.4023	0	33.9309	0	26.659	0	215.184	0	78.5	4	26.2	4	-1E+10	1	0.0620	4	0.000410	0	-1E+10	1	-1E+10	1	-1E+10	1
4902624	18	C	12/18/2024	13:32	-127.027	47.059	0	217.80	0	6.3908	0	33.9302	0	26.660	0	215.877	0	78.6	4	26.2	4	-1E+10	1	0.0613	4	0.000459	0	-1E+10	1	-1E+10	1	-1E+10	1
4902624	18	C	12/18/2024	13:32	-127.027	47.059	0	218.60	0	6.3776	0	33.9294	0	26.661	0	216.670	0	78.7	4	26.2	4	-1E+10	1	0.0511	4	0.000290	0	-1E+10	1	-1E+10	1	-1E+10	1
4902624	18	C	12/18/2024	13:32	-127.027	47.059	0	219.00	0	6.3710	0	33.9290	0	26.662	0	217.066	0	-1e10	1	-1e10	1	-1E+10	1	-1e10	1	-1e10	1	-1E+10	1	-1E+10	1	-1E+10	1
4902624	18	C	12/18/2024	13:32	-127.027	47.059	0	219.40	0	6.3644	0	33.9282	0	26.662	0	217.462	0	78.8	4	26.2	4	-1E+10	1	0.0511	4	0.000310	0	-1E+10	1	-1E+10	1	-1E+10	1
4902624	18	C	12/18/2024	13:32	-127.027	47.059	0	220.20	0	6.3512	0	33.9266	0	26.662	0	218.255	0	78.7	4	26.2	4	-1E+10	1	0.0511	4	0.000287	0	-1E+10	1	-1E+10	1	-1E+10	1
4902624	18	C	12/18/2024	13:32	-127.027	47.059	0	221.00	0	6.3380	0	33.9250	0	26.663	0	219.047	0	77.2	4	25.7	4	-1E+10	1	0.0641	4	0.000266	0	-1E+10	1	-1E+10	1	-1E+10	1
4902624	18	C	12/18/2024	13:32	-127.027	47.059	0	221.80	0	6.3348	0	33.9262	0	26.664	0	219.840	0	78.4	4	26.1	4	-1E+10	1	0.0402	4	0.000272	0	-1E+10	1	-1E+10	1	-1E+10	1
4902624	18	C	12/18/2024	13:32	-127.027	47.059	0	222.60	0	6.3316	0	33.9274	0	26.666	0	220.632	0	78.3	4	26.1	4	-1E+10	1	0.0429	4	0.000290	0	-1E+10	1	-1E+10	1	-1E+10	1
4902624	18	C	12/18/2024	13:32	-127.027	47.059	0	223.00	0	6.3300	0	33.9280	0	26.666	0	221.028	0	-1e10	1	-1e10	1	-1E+10	1	-1e10	1	-1e10	1	-1E+10	1	-1E+10	1	-1E+10	1
4902624	18	C	12/18/2024	13:32	-127.027	47.059	0	223.40	0	6.3214	0	33.9280	0	26.667	0	221.425	0	78.3	4	26.1	4	-1E+10	1	0.0548	4	0.000293	0	-1E+10	1	-1E+10	1	-1E+10	1
4902624	18	C	12/18/2024	13:32	-127.027	47.059	0	224.20	0	6.3042	0	33.9280	0	26.670	0	222.217	0	78.2	4	26.0	4	-1E+10	1	0.0540	4	0.000280	0	-1E+10	1	-1E+10	1	-1E+10	1
4902624	18	C	12/18/2024	13:32	-127.027	47.059	0	225.00	0	6.2870	0	33.9280	0	26.672	0	223.010	0	76.7	4	25.5	4	-1E+10	1	0.0447	4	0.000262	0	-1E+10	1	-1E+10	1	-1E+10	1
4902624	18	C	12/18/2024	13:32	-127.027	47.059	0	225.80	0	6.2782	0	33.9288	0	26.674	0	223.802	0	77.9	4	25.9	4	-1E+10	1	0.0526	4	0.000308	0	-1E+10	1	-1E+10	1	-1E+10	1
4902624	18	C	12/18/2024	13:32	-127.027	47.059	0	226.70	0	6.2683	0	33.9297	0	26.676	0	224.694	0	77.8	4	25.9	4	-1E+10	1	0.0657	4	0.000815	0	-1E+10	1	-1E+10	1	-1E+10	1
4902624	18	C	12/18/2024	13:32	-127.027	47.059	0	227.00	0	6.2650	0	33.9300	0	26.676	0	224.991	0	-1e10	1	-1e10	1	-1E+10	1	-1e10	1	-1e10	1	-1E+10	1	-1E+10	1	-1E+10	1
4902624	18	C	12/18/2024	13:32	-127.027	47.059	0	227.50	0	6.2582	0	33.9297	0	26.677	0	225.486	0	77.8	4	25.9	4	-1E+10	1	0.0540	4	0.000627	0	-1E+10	1	-1E+10	1	-1E+10	1
4902624	18	C	12/18/2024	13:32	-127.027	47.059	0	228.40	0	6.2461	0	33.9293	0	26.678	0	226.378	0	77.8	4	25.9	4	-1E+10	1	0.0447	4	0.000313	0	-1E+10	1	-1E+10	1	-1E+10	1
4902624	18	C	12/18/2024	13:32	-127.027	47.059	0	229.00	0	6.2380	0	33.9290	0	26.679	0	226.972	0	-1e10	1	-1e10	1	-1E+10	1	-1e10	1	-1e10	1	-1E+10	1	-1E+10	1	-1E+10	1
4902624	18	C	12/18/2024	13:32	-127.027	47.059	0	229.20	0	6.2361	0	33.9287	0	26.679	0	227.170	0	77.7	4	25.8	4	-1E+10	1	0.0489	4	0.000275	0	-1E+10	1	-1E+10	1	-1E+10	1
4902624	18	C	12/18/2024	13:32	-127.027	47.059	0	230.00	0	6.2285	0	33.9274	0	26.679	0	227.963	0	77.6	4	25.8	4	-1E+10	1	0.0511	4	0.000258	0	-1E+10	1	-1E+10	1	-1E+10	1
4902624	18	C	12/18/2024	13:32	-127.027	47.059	0	230.90	0	6.2200	0	33.9260	0	26.679	0	228.854	0	76.2	4	25.3	4	-1E+10	1	0.0511	4	0.000245	0	-1E+10	1	-1E+10	1	-1E+10	1
4902624	18	C	12/18/2024	13:32	-127.027	47.059	0	231.70	0	6.2067	0	33.9256	0	26.680	0	229.647	0	77.3	4	25.7	4	-1E+10	1	0.0511	4	0.000248	0	-1E+10	1	-1E+10	1	-1E+10	1
4902624	18	C	12/18/2024	13:32	-127.027	47.059	0	232.60	0	6.1917	0	33.9252	0	26.682	0	230.538	0	77.1	4	25.6	4	-1E+10	1	0.0511	4	0.000240	0	-1E+10	1	-1E+10	1	-1E+10	1
4902624	18	C	12/18/2024	13:32	-127.027	47.059	0	233.00	0	6.1850	0	33.9250	0	26.683	0	230.934	0	-1e10	1	-1e10	1	-1E+10	1	-1e10	1	-1e10	1	-1E+10	1	-1E+10	1	-1E+10	1
4902624	18	C	12/18/2024	13:32	-127.027	47.059	0	233.40	0	6.1810	0	33.9252	0	26.683	0	231.331	0	77.0	4	25.5	4	-1E+10	1	0.0511	4	0.000240	0	-1E+10	1	-1E+10	1	-1E+10	1
4902624	18	C	12/18/2024	13:32	-127.027	47.059	0	234.30	0	6.1720	0	33.9256	0	26.685	0	232.222	0	76.8	4	25.5	4	-1E+10	1	0.0657	4	0.000252	0	-1E+10	1	-1E+10	1	-1E+10	1
4902624	18	C	12/18/2024	13:32	-127.027	47.059	0	235.00	0	6.1650	0	33.9260	0	26.686	0	232.916	0	-1e10	1	-1e10	1	-1E+10	1	-1e10	1	-1e10	1	-1E+10	1	-1E+10	1	-1E+10	1
4902624	18	C	12/18/2024	13:32	-127.027	47.059	0	235.20	0	6.1630	0	33.9260	0	26.686	0	233.114	0	76.6	4	25.4	4	-1E+10	1	0.0460	4	0.000231	0	-1E+10	1	-1E+10	1	-1E+10	1
4902624	18	C	12/18/2024	13:32	-127.027	47.059	0	236.00	0	6.1550	0	33.9260	0	26.687	0	233.906	0	76.4	4	25.3	4	-1E+10	1	0.0489	4	0.000245	0	-1E+10	1	-1E+10	1	-1E+10	1
4902624	18	C	12/18/2024	13:32	-127.027	47.059	0	236.90	0	6.1460	0	33.9260	0	26.688	0	234.798	0	76.2	4	25.3	4	-1E+10	1	0.0462	4	0.000674	0	-1E+10	1	-1E+10	1	-1E+10	1
4902624	18	C	12/18/2024	13:32	-127.027	47.059	0	237.00	0	6.1450	0	33.9260	0	26.688	0	234.897	0	-1e10	1	-1e10	1	-1E+10	1	-1e10	1	-1e10	1	-1E+10	1	-1E+10	1	-1E+10	1
4902624	18	C	12/18/2024	13:32	-127.027	47.059	0	237.70	0	6.1391	0	33.9260	0	26.689	0	235.590	0	76.0	4	25.2	4	-1E+10	1	0.0504	4	0.000640	0	-1E+10	1	-1E+10	1	-1E+10	1
4902624	18	C	12/18/2024	13:32	-127.027	47.059	0	238.60	0	6.1314	0	33.9260	0	26.690	0	236.482	0	75.8	4	25.1	4	-1E+10	1	0.0540	4	0.000345	0	-1E+10	1	-1E+10	1	-1E+10	1
4902624	18	C	12/18/2024	13:32	-127.027	47.059	0	239.00	0	6.1280	0	33.9260	0	26.691	0	236.878	0	-1e10	1	-1e10	1	-1E+10	1	-1e10	1	-1e10	1	-1E+10	1	-1E+10	1	-1E+10	1
4902624	18	C	12/18/2024	13:32	-127.027	47.059	0	239.50	0	6.1190	0	33.9260	0	26.692	0	237.373	0	75.6	4	25.0	4	-1E+10	1	0.0456	4	0.000316	0	-1E+10	1	-1E+10	1	-1E+10	1
4902624	18	C	12/18/2024	13:32	-127.027	47.059	0	240.30	0	6.1046	0	33.9260	0	26.694	0	238.166	0	75.4	4	25.0	4	-1E+10	1	0.0484	4	0.000228	0	-1E+10	1	-1E+10	1	-1E+10	1
4902624	18	C	12/18/2024	13:32	-127.027	47.059	0	241.00	0	6.0920	0	33.9260	0	26.695	0	238.859	0	-1e10	1	-1e10	1	-1E+10	1	-1e10	1	-1e10	1	-1E+10	1	-1E+10	1	-1E+10	1
4902624	18	C	12/18/2024	13:32	-127.027	47.059	0	241.20	0	6.0903	0	33.9259	0	26.695	0	239.057	0	75.1	4	24.9	4	-1E+10	1	0.0365	4	0.000228	0	-1E+10	1	-1E+10	1	-1E+10	1
4902624	18	C	12/18/2024	13:32	-127.027	47.059	0	242.10	0	6.0826	0	33.9254	0	26.696	0	239.949	0	74.9	4	24.8	4	-1E+10	1	0.0496	4	0.000228	0	-1E+10	1	-1E+10	1	-1E+10	1
4902624	18	C	12/18/2024	13:32	-127.027	47.059	0	242.90	0	6.0759	0	33.9250	0	26.696	0	240.741	0	74.7	4	24.7	4	-1E+10	1	0.0568	4	0.000255	0	-1E+10	1	-1E+10	1	-1E+10	1
4902624	18	C	12/18/2024	13:32	-127.027	47.059	0	243.00	0	6.0750	0	33.9250	0	26.697	0	240.840	0	-1e10	1	-1e10	1	-1E+10	1	-1e10	1	-1e10	1	-1E+10	1	-1E+10	1	-1E+10	1
4902624	18	C	12/18/2024	13:32	-127.027	47.059	0	243.80	0	6.0714	0	33.9254	0	26.697	0	241.632	0	74.4	4	24.6	4	-1E+10	1	0.0538	4	0.000278	0	-1E+10	1	-1E+10	1	-1E+10	1
4902624	18	C	12/18/2024	13:32	-127.027	47.059	0	244.70	0	6.0673	0	33.9258	0	26.698	0	242.524	0	74.0	4	24.5	4	-1E+10	1	0.0584	4	0.000257	0	-1E+10	1	-1E+10	1	-1E+10	1
4902624	18	C	12/18/2024	13:32	-127.027	47.059	0	245.00	0	6.0660	0	33.9260	0	26.698	0	242.821	0	-1e10	1	-1e10	1	-1E+10	1	-1e10	1	-1e10	1	-1E+10	1	-1E+10	1	-1E+10	1
4902624	18	C	12/18/2024	13:32	-127.027	47.059	0	245.60	0	6.0684	0	33.9278	0	26.700	0	243.415	0	73.8	4	24.4	4	-1E+10	1	0.0657	4	0.000259	0	-1E+10	1	-1E+10	1	-1E+10	1
4902624	18	C	12/18/2024	13:32	-127.027	47.059	0	246.40	0	6.0716	0	33.9302	0	26.701	0	244.208	0	73.6	4	24.4	4	-1E+10	1	0.0635	4	0.000281	0	-1E+10	1	-1E+10	1	-1E+10	1
4902624	18	C	12/18/2024	13:32	-127.027	47.059	0	247.00	0	6.0740	0	33.9320	0	26.702	0	244.802	0	-1e10	1	-1e10	1	-1E+10	1	-1e10	1	-1e10	1	-1E+10	1	-1E+10	1	-1E+10	1
4902624	18	C	12/18/2024	13:32	-127.027	47.059	0	247.30	0	6.0745	0	33.9326	0	26.703	0	245.099	0	73.4	4	24.3	4	-1E+10	1	0.0544	4	0.000242	0	-1E+10	1	-1E+10	1	-1E+10	1
4902624	18	C	12/18/2024	13:32	-127.027	47.059	0	248.20	0	6.0758	0	33.9344	0	26.704	0	245.991	0	73.3	4	24.3	4	-1E+10	1	0.0365	4	0.000252	0	-1E+10	1	-1E+10	1	-1E+10	1
4902624	18	C	12/18/2024	13:32	-127.027	47.059	0	249.00	0	6.0770	0	33.9360	0	26.705	0	246.783	0	-1e10	1	-1e10	1	-1E+10	1	-1e10	1	-1e10	1	-1E+10	1	-1E+10	1	-1E+10	1
4902624	18	C	12/18/2024	13:32	-127.027	47.059	0	249.10	0	6.0765	0	33.9361	0	26.705	0	246.882	0	73.3	4	24.3	4	-1E+10	1	0.0584	4	0.000287	0	-1E+10	1	-1E+10	1	-1E+10	1
4902624	18	C	12/18/2024	13:32	-127.027	47.059	0	250.00	0	6.0720	0	33.9370	0	26.706	0	247.774	0	73.3	4	24.3	4	-1E+10	1	0.0465	4	0.000258	0	-1E+10	1	-1E+10	1	-1E+10	1
4902624	18	C	12/18/2024	13:32	-127.027	47.059	0	250.80	0	6.0680	0	33.9378	0	26.708	0	248.566	0	73.3	4	24.3	4	-1E+10	1	0.0482	4	0.000237	0	-1E+10	1	-1E+10	1	-1E+10	1
4902624	18	C	12/18/2024	13:32	-127.027	47.059	0	251.00	0	6.0670	0	33.9380	0	26.708	0	248.764	0	-1e10	1	-1e10	1	-1E+10	1	-1e10	1	-1e10	1	-1E+10	1	-1E+10	1	-1E+10	1
4902624	18	C	12/18/2024	13:32	-127.027	47.059	0	251.70	0	6.0467	0	33.9362	0	26.709	0	249.457	0	73.2	4	24.2	4	-1E+10	1	0.0470	4	0.000235	0	-1E+10	1	-1E+10	1	-1E+10	1
4902624	18	C	12/18/2024	13:32	-127.027	47.059	0	252.60	0	6.0206	0	33.9340	0	26.711	0	250.349	0	73.0	4	24.1	4	-1E+10	1	0.0474	4	0.000252	0	-1E+10	1	-1E+10	1	-1E+10	1
4902624	18	C	12/18/2024	13:32	-127.027	47.059	0	253.00	0	6.0090	0	33.9330	0	26.711	0	250.745	0	-1e10	1	-1e10	1	-1E+10	1	-1e10	1	-1e10	1	-1E+10	1	-1E+10	1	-1E+10	1
4902624	18	C	12/18/2024	13:32	-127.027	47.059	0	253.50	0	6.0100	0	33.9335	0	26.712	0	251.240	0	72.6	4	24.0	4	-1E+10	1	0.0484	4	0.000250	0	-1E+10	1	-1E+10	1	-1E+10	1
4902624	18	C	12/18/2024	13:32	-127.027	47.059	0	254.30	0	6.0115	0	33.9342	0	26.712	0	252.033	0	72.3	4	23.9	4	-1E+10	1	0.0446	4	0.000244	0	-1E+10	1	-1E+10	1	-1E+10	1
4902624	18	C	12/18/2024	13:32	-127.027	47.059	0	255.10	0	6.0130	0	33.9350	0	26.712	0	252.825	0	-1e10	1	-1e10	1	-1E+10	1	-1e10	1	-1e10	1	-1E+10	1	-1E+10	1	-1E+10	1
4902624	18	C	12/18/2024	13:32	-127.027	47.059	0	255.20	0	6.0121	0	33.9351	0	26.713	0	252.924	0	72.2	4	23.9	4	-1E+10	1	0.0511	4	0.000473	0	-1E+10	1	-1E+10	1	-1E+10	1
4902624	18	C	12/18/2024	13:32	-127.027	47.059	0	256.10	0	6.0035	0	33.9355	0	26.714	0	253.816	0	72.1	4	23.8	4	-1E+10	1	0.0511	4	0.001378	0	-1E+10	1	-1E+10	1	-1E+10	1
4902624	18	C	12/18/2024	13:32	-127.027	47.059	0	257.00	0	5.9950	0	33.9360	0	26.715	0	254.707	0	70.7	4	23.4	4	-1E+10	1	0.0451	4	0.000466	0	-1E+10	1	-1E+10	1	-1E+10	1
4902624	18	C	12/18/2024	13:32	-127.027	47.059	0	257.90	0	5.9628	0	33.9336	0	26.718	0	255.598	0	71.5	4	23.6	4	-1E+10	1	0.0381	4	0.000300	0	-1E+10	1	-1E+10	1	-1E+10	1
4902624	18	C	12/18/2024	13:32	-127.027	47.059	0	258.80	0	5.9306	0	33.9313	0	26.720	0	256.490	0	70.9	4	23.4	4	-1E+10	1	0.0411	4	0.000273	0	-1E+10	1	-1E+10	1	-1E+10	1
4902624	18	C	12/18/2024	13:32	-127.027	47.059	0	258.90	0	5.9270	0	33.9310	0	26.720	0	256.589	0	-1e10	1	-1e10	1	-1E+10	1	-1e10	1	-1e10	1	-1E+10	1	-1E+10	1	-1E+10	1
4902624	18	C	12/18/2024	13:32	-127.027	47.059	0	259.70	0	5.9210	0	33.9306	0	26.720	0	257.381	0	70.2	4	23.1	4	-1E+10	1	0.0474	4	0.000246	0	-1E+10	1	-1E+10	1	-1E+10	1
4902624	18	C	12/18/2024	13:32	-127.027	47.059	0	260.60	0	5.9143	0	33.9301	0	26.721	0	258.273	0	69.5	4	22.9	4	-1E+10	1	0.0479	4	0.000276	0	-1E+10	1	-1E+10	1	-1E+10	1
4902624	18	C	12/18/2024	13:32	-127.027	47.059	0	260.90	0	5.9120	0	33.9300	0	26.721	0	258.570	0	-1e10	1	-1e10	1	-1E+10	1	-1e10	1	-1e10	1	-1E+10	1	-1E+10	1	-1E+10	1
4902624	18	C	12/18/2024	13:32	-127.027	47.059	0	261.50	0	5.9154	0	33.9320	0	26.722	0	259.164	0	68.7	4	22.7	4	-1E+10	1	0.0491	4	0.000318	0	-1E+10	1	-1E+10	1	-1E+10	1
4902624	18	C	12/18/2024	13:32	-127.027	47.059	0	262.40	0	5.9206	0	33.9350	0	26.724	0	260.055	0	68.0	4	22.4	4	-1E+10	1	0.0597	4	0.000308	0	-1E+10	1	-1E+10	1	-1E+10	1
4902624	18	C	12/18/2024	13:32	-127.027	47.059	0	263.00	0	5.9240	0	33.9370	0	26.725	0	260.650	0	-1e10	1	-1e10	1	-1E+10	1	-1e10	1	-1e10	1	-1E+10	1	-1E+10	1	-1E+10	1
4902624	18	C	12/18/2024	13:32	-127.027	47.059	0	263.30	0	5.9295	0	33.9385	0	26.726	0	260.947	0	67.4	4	22.2	4	-1E+10	1	0.0657	4	0.000298	0	-1E+10	1	-1E+10	1	-1E+10	1
4902624	18	C	12/18/2024	13:32	-127.027	47.059	0	264.20	0	5.9462	0	33.9430	0	26.727	0	261.838	0	67.0	4	22.1	4	-1E+10	1	0.0584	4	0.000498	0	-1E+10	1	-1E+10	1	-1E+10	1
4902624	18	C	12/18/2024	13:32	-127.027	47.059	0	265.00	0	5.9610	0	33.9470	0	26.728	0	262.631	0	-1e10	1	-1e10	1	-1E+10	1	-1e10	1	-1e10	1	-1E+10	1	-1E+10	1	-1E+10	1
4902624	18	C	12/18/2024	13:32	-127.027	47.059	0	265.10	0	5.9608	0	33.9472	0	26.729	0	262.730	0	66.7	4	22.0	4	-1E+10	1	0.0524	4	0.000306	0	-1E+10	1	-1E+10	1	-1E+10	1
4902624	18	C	12/18/2024	13:32	-127.027	47.059	0	266.00	0	5.9590	0	33.9490	0	26.730	0	263.621	0	66.5	4	21.9	4	-1E+10	1	0.0465	4	0.000248	0	-1E+10	1	-1E+10	1	-1E+10	1
4902624	18	C	12/18/2024	13:32	-127.027	47.059	0	266.90	0	5.9572	0	33.9508	0	26.732	0	264.512	0	66.2	4	21.9	4	-1E+10	1	0.0519	4	0.000272	0	-1E+10	1	-1E+10	1	-1E+10	1
4902624	18	C	12/18/2024	13:32	-127.027	47.059	0	267.00	0	5.9570	0	33.9510	0	26.732	0	264.611	0	-1e10	1	-1e10	1	-1E+10	1	-1e10	1	-1e10	1	-1E+10	1	-1E+10	1	-1E+10	1
4902624	18	C	12/18/2024	13:32	-127.027	47.059	0	267.80	0	5.9376	0	33.9506	0	26.734	0	265.404	0	66.0	4	21.8	4	-1E+10	1	0.0484	4	0.000261	0	-1E+10	1	-1E+10	1	-1E+10	1
4902624	18	C	12/18/2024	13:32	-127.027	47.059	0	268.80	0	5.9134	0	33.9501	0	26.737	0	266.394	0	65.7	4	21.7	4	-1E+10	1	0.0471	4	0.000276	0	-1E+10	1	-1E+10	1	-1E+10	1
4902624	18	C	12/18/2024	13:32	-127.027	47.059	0	268.90	0	5.9110	0	33.9500	0	26.737	0	266.493	0	-1e10	1	-1e10	1	-1E+10	1	-1e10	1	-1e10	1	-1E+10	1	-1E+10	1	-1E+10	1
4902624	18	C	12/18/2024	13:32	-127.027	47.059	0	269.70	0	5.8980	0	33.9489	0	26.738	0	267.285	0	65.4	4	21.6	4	-1E+10	1	0.0608	4	0.000344	0	-1E+10	1	-1E+10	1	-1E+10	1
4902624	18	C	12/18/2024	13:32	-127.027	47.059	0	270.60	0	5.8835	0	33.9476	0	26.739	0	268.177	0	65.0	4	21.4	4	-1E+10	1	0.0451	4	0.000218	0	-1E+10	1	-1E+10	1	-1E+10	1
4902624	18	C	12/18/2024	13:32	-127.027	47.059	0	271.00	0	5.8770	0	33.9470	0	26.739	0	268.573	0	-1e10	1	-1e10	1	-1E+10	1	-1e10	1	-1e10	1	-1E+10	1	-1E+10	1	-1E+10	1
4902624	18	C	12/18/2024	13:32	-127.027	47.059	0	271.50	0	5.8720	0	33.9473	0	26.740	0	269.068	0	64.6	4	21.3	4	-1E+10	1	0.0511	4	0.000228	0	-1E+10	1	-1E+10	1	-1E+10	1
4902624	18	C	12/18/2024	13:32	-127.027	47.059	0	272.50	0	5.8620	0	33.9478	0	26.741	0	270.059	0	64.2	4	21.2	4	-1E+10	1	0.0572	4	0.000208	0	-1E+10	1	-1E+10	1	-1E+10	1
4902624	18	C	12/18/2024	13:32	-127.027	47.059	0	273.00	0	5.8570	0	33.9480	0	26.742	0	270.554	0	-1e10	1	-1e10	1	-1E+10	1	-1e10	1	-1e10	1	-1E+10	1	-1E+10	1	-1E+10	1
4902624	18	C	12/18/2024	13:32	-127.027	47.059	0	273.50	0	5.8507	0	33.9480	0	26.743	0	271.049	0	63.8	4	21.0	4	-1E+10	1	0.0409	4	0.000233	0	-1E+10	1	-1E+10	1	-1E+10	1
4902624	18	C	12/18/2024	13:32	-127.027	47.059	0	274.40	0	5.8395	0	33.9480	0	26.744	0	271.940	0	63.4	4	20.9	4	-1E+10	1	0.0458	4	0.000247	0	-1E+10	1	-1E+10	1	-1E+10	1
4902624	18	C	12/18/2024	13:32	-127.027	47.059	0	275.00	0	5.8320	0	33.9480	0	26.745	0	272.535	0	-1e10	1	-1e10	1	-1E+10	1	-1e10	1	-1e10	1	-1E+10	1	-1E+10	1	-1E+10	1
4902624	18	C	12/18/2024	13:32	-127.027	47.059	0	275.40	0	5.8330	0	33.9486	0	26.746	0	272.931	0	62.9	4	20.7	4	-1E+10	1	0.0471	4	0.000239	0	-1E+10	1	-1E+10	1	-1E+10	1
4902624	18	C	12/18/2024	13:32	-127.027	47.059	0	276.30	0	5.8352	0	33.9500	0	26.746	0	273.822	0	62.3	4	20.5	4	-1E+10	1	0.0526	4	0.000228	0	-1E+10	1	-1E+10	1	-1E+10	1
4902624	18	C	12/18/2024	13:32	-127.027	47.059	0	277.00	0	5.8370	0	33.9510	0	26.747	0	274.515	0	-1e10	1	-1e10	1	-1E+10	1	-1e10	1	-1e10	1	-1E+10	1	-1E+10	1	-1E+10	1
4902624	18	C	12/18/2024	13:32	-127.027	47.059	0	277.30	0	5.8391	0	33.9517	0	26.747	0	274.812	0	61.9	4	20.4	4	-1E+10	1	0.0604	4	0.000224	0	-1E+10	1	-1E+10	1	-1E+10	1
4902624	18	C	12/18/2024	13:32	-127.027	47.059	0	278.20	0	5.8456	0	33.9539	0	26.748	0	275.704	0	61.4	4	20.2	4	-1E+10	1	0.0511	4	0.000221	0	-1E+10	1	-1E+10	1	-1E+10	1
4902624	18	C	12/18/2024	13:32	-127.027	47.059	0	279.10	0	5.8520	0	33.9560	0	26.749	0	276.595	0	59.9	4	19.7	4	-1E+10	1	0.0511	4	0.000243	0	-1E+10	1	-1E+10	1	-1E+10	1
4902624	18	C	12/18/2024	13:32	-127.027	47.059	0	280.10	0	5.8748	0	33.9604	0	26.750	0	277.585	0	60.6	4	20.0	4	-1E+10	1	0.0511	4	0.000216	0	-1E+10	1	-1E+10	1	-1E+10	1
4902624	18	C	12/18/2024	13:32	-127.027	47.059	0	280.90	0	5.8930	0	33.9640	0	26.750	0	278.378	0	-1e10	1	-1e10	1	-1E+10	1	-1e10	1	-1e10	1	-1E+10	1	-1E+10	1	-1E+10	1
4902624	18	C	12/18/2024	13:32	-127.027	47.059	0	281.00	0	5.8902	0	33.9641	0	26.751	0	278.477	0	60.4	4	19.9	4	-1E+10	1	0.0690	4	0.000245	0	-1E+10	1	-1E+10	1	-1E+10	1
4902624	18	C	12/18/2024	13:32	-127.027	47.059	0	282.00	0	5.8626	0	33.9656	0	26.756	0	279.467	0	60.2	4	19.8	4	-1E+10	1	0.0584	4	0.000619	0	-1E+10	1	-1E+10	1	-1E+10	1
4902624	18	C	12/18/2024	13:32	-127.027	47.059	0	283.00	0	5.8350	0	33.9670	0	26.760	0	280.457	0	59.0	4	19.4	4	-1E+10	1	0.0555	4	0.000472	0	-1E+10	1	-1E+10	1	-1E+10	1
4902624	18	C	12/18/2024	13:32	-127.027	47.059	0	284.00	0	5.8274	0	33.9660	0	26.760	0	281.448	0	59.6	4	19.6	4	-1E+10	1	0.0504	4	0.000245	0	-1E+10	1	-1E+10	1	-1E+10	1
4902624	18	C	12/18/2024	13:32	-127.027	47.059	0	285.00	0	5.8198	0	33.9651	0	26.760	0	282.438	0	59.3	4	19.5	4	-1E+10	1	0.0499	4	0.000244	0	-1E+10	1	-1E+10	1	-1E+10	1
4902624	18	C	12/18/2024	13:32	-127.027	47.059	0	285.10	0	5.8190	0	33.9650	0	26.760	0	282.537	0	-1e10	1	-1e10	1	-1E+10	1	-1e10	1	-1e10	1	-1E+10	1	-1E+10	1	-1E+10	1
4902624	18	C	12/18/2024	13:32	-127.027	47.059	0	285.90	0	5.8226	0	33.9670	0	26.762	0	283.329	0	59.0	4	19.4	4	-1E+10	1	0.0584	4	0.000411	0	-1E+10	1	-1E+10	1	-1E+10	1
4902624	18	C	12/18/2024	13:32	-127.027	47.059	0	287.00	0	5.8275	0	33.9697	0	26.763	0	284.419	0	58.8	4	19.4	4	-1E+10	1	0.0584	4	0.000982	0	-1E+10	1	-1E+10	1	-1E+10	1
4902624	18	C	12/18/2024	13:32	-127.027	47.059	0	287.10	0	5.8280	0	33.9700	0	26.763	0	284.518	0	-1e10	1	-1e10	1	-1E+10	1	-1e10	1	-1e10	1	-1E+10	1	-1E+10	1	-1E+10	1
4902624	18	C	12/18/2024	13:32	-127.027	47.059	0	288.00	0	5.8307	0	33.9723	0	26.765	0	285.409	0	58.6	4	19.3	4	-1E+10	1	0.0584	4	0.000239	0	-1E+10	1	-1E+10	1	-1E+10	1
4902624	18	C	12/18/2024	13:32	-127.027	47.059	0	289.00	0	5.8337	0	33.9747	0	26.766	0	286.399	0	58.4	4	19.2	4	-1E+10	1	0.0523	4	0.000249	0	-1E+10	1	-1E+10	1	-1E+10	1
4902624	18	C	12/18/2024	13:32	-127.027	47.059	0	289.10	0	5.8340	0	33.9750	0	26.767	0	286.498	0	-1e10	1	-1e10	1	-1E+10	1	-1e10	1	-1e10	1	-1E+10	1	-1E+10	1	-1E+10	1
4902624	18	C	12/18/2024	13:32	-127.027	47.059	0	290.00	0	5.8130	0	33.9745	0	26.769	0	287.390	0	58.3	4	19.2	4	-1E+10	1	0.0511	4	0.000242	0	-1E+10	1	-1E+10	1	-1E+10	1
4902624	18	C	12/18/2024	13:32	-127.027	47.059	0	290.90	0	5.7920	0	33.9740	0	26.771	0	288.281	0	-1e10	1	-1e10	1	-1E+10	1	-1e10	1	-1e10	1	-1E+10	1	-1E+10	1	-1E+10	1
4902624	18	C	12/18/2024	13:32	-127.027	47.059	0	291.00	0	5.7906	0	33.9739	0	26.771	0	288.380	0	58.1	4	19.1	4	-1E+10	1	0.0453	4	0.000239	0	-1E+10	1	-1E+10	1	-1E+10	1
4902624	18	C	12/18/2024	13:32	-127.027	47.059	0	292.10	0	5.7754	0	33.9723	0	26.772	0	289.469	0	57.9	4	19.0	4	-1E+10	1	0.0438	4	0.000231	0	-1E+10	1	-1E+10	1	-1E+10	1
4902624	18	C	12/18/2024	13:32	-127.027	47.059	0	293.00	0	5.7630	0	33.9710	0	26.772	0	290.361	0	-1e10	1	-1e10	1	-1E+10	1	-1e10	1	-1e10	1	-1E+10	1	-1E+10	1	-1E+10	1
4902624	18	C	12/18/2024	13:32	-127.027	47.059	0	293.10	0	5.7617	0	33.9710	0	26.772	0	290.460	0	57.6	4	18.9	4	-1E+10	1	0.0482	4	0.000249	0	-1E+10	1	-1E+10	1	-1E+10	1
4902624	18	C	12/18/2024	13:32	-127.027	47.059	0	294.10	0	5.7489	0	33.9710	0	26.774	0	291.450	0	57.3	4	18.8	4	-1E+10	1	0.0545	4	0.000236	0	-1E+10	1	-1E+10	1	-1E+10	1
4902624	18	C	12/18/2024	13:32	-127.027	47.059	0	295.10	0	5.7360	0	33.9710	0	26.775	0	292.440	0	56.0	4	18.4	4	-1E+10	1	0.0584	4	0.000210	0	-1E+10	1	-1E+10	1	-1E+10	1
4902624	18	C	12/18/2024	13:32	-127.027	47.059	0	296.40	0	5.7497	0	33.9744	0	26.777	0	293.727	0	56.7	4	18.6	4	-1E+10	1	0.0581	4	0.000229	0	-1E+10	1	-1E+10	1	-1E+10	1
4902624	18	C	12/18/2024	13:32	-127.027	47.059	0	297.00	0	5.7560	0	33.9760	0	26.777	0	294.322	0	-1e10	1	-1e10	1	-1E+10	1	-1e10	1	-1e10	1	-1E+10	1	-1E+10	1	-1E+10	1
4902624	18	C	12/18/2024	13:32	-127.027	47.059	0	299.00	0	5.7090	0	33.9740	0	26.781	0	296.302	0	-1e10	1	-1e10	1	-1E+10	1	-1e10	1	-1e10	1	-1E+10	1	-1E+10	1	-1E+10	1
4902624	18	C	12/18/2024	13:32	-127.027	47.059	0	305.10	0	5.7060	0	33.9820	0	26.788	0	302.343	0	-1e10	1	-1e10	1	-1E+10	1	-1e10	1	-1e10	1	-1E+10	1	-1E+10	1	-1E+10	1
4902624	18	C	12/18/2024	13:32	-127.027	47.059	0	306.80	0	5.7144	0	33.9856	0	26.790	0	304.026	0	52.7	4	17.3	4	-1E+10	1	0.0517	4	0.000252	0	-1E+10	1	-1E+10	1	-1E+10	1
4902624	18	C	12/18/2024	13:32	-127.027	47.059	0	315.00	0	5.7550	0	34.0030	0	26.799	0	312.146	0	-1e10	1	-1e10	1	-1E+10	1	-1e10	1	-1e10	1	-1E+10	1	-1E+10	1	-1E+10	1
4902624	18	C	12/18/2024	13:32	-127.027	47.059	0	317.40	0	5.7290	0	34.0030	0	26.802	0	314.522	0	50.2	4	16.5	4	-1E+10	1	0.0654	4	0.000288	0	-1E+10	1	-1E+10	1	-1E+10	1
4902624	18	C	12/18/2024	13:32	-127.027	47.059	0	324.80	0	5.6490	0	34.0030	0	26.812	0	321.849	0	-1e10	1	-1e10	1	-1E+10	1	-1e10	1	-1e10	1	-1E+10	1	-1E+10	1	-1E+10	1
4902624	18	C	12/18/2024	13:32	-127.027	47.059	0	328.00	0	5.6286	0	34.0074	0	26.818	0	325.018	0	47.4	4	15.5	4	-1E+10	1	0.0584	4	0.000329	0	-1E+10	1	-1E+10	1	-1E+10	1
4902624	18	C	12/18/2024	13:32	-127.027	47.059	0	335.00	0	5.5840	0	34.0170	0	26.831	0	331.949	0	-1e10	1	-1e10	1	-1E+10	1	-1e10	1	-1e10	1	-1E+10	1	-1E+10	1	-1E+10	1
4902624	18	C	12/18/2024	13:32	-127.027	47.059	0	338.60	0	5.5600	0	34.0177	0	26.834	0	335.513	0	45.0	4	14.7	4	-1E+10	1	0.0581	4	0.000227	0	-1E+10	1	-1E+10	1	-1E+10	1
4902624	18	C	12/18/2024	13:32	-127.027	47.059	0	345.20	0	5.5160	0	34.0190	0	26.841	0	342.047	0	-1e10	1	-1e10	1	-1E+10	1	-1e10	1	-1e10	1	-1E+10	1	-1E+10	1	-1E+10	1
4902624	18	C	12/18/2024	13:32	-127.027	47.059	0	349.20	0	5.5180	0	34.0243	0	26.845	0	346.007	0	43.2	4	14.1	4	-1E+10	1	0.0508	4	0.000228	0	-1E+10	1	-1E+10	1	-1E+10	1
4902624	18	C	12/18/2024	13:32	-127.027	47.059	0	355.10	0	5.5210	0	34.0320	0	26.850	0	351.848	0	-1e10	1	-1e10	1	-1E+10	1	-1e10	1	-1e10	1	-1E+10	1	-1E+10	1	-1E+10	1
4902624	18	C	12/18/2024	13:32	-127.027	47.059	0	360.00	0	5.5101	0	34.0369	0	26.856	0	356.699	0	41.0	4	13.4	4	-1E+10	1	0.0446	4	0.000250	0	-1E+10	1	-1E+10	1	-1E+10	1
4902624	18	C	12/18/2024	13:32	-127.027	47.059	0	365.00	0	5.4990	0	34.0420	0	26.861	0	361.649	0	-1e10	1	-1e10	1	-1E+10	1	-1e10	1	-1e10	1	-1E+10	1	-1E+10	1	-1E+10	1
4902624	18	C	12/18/2024	13:32	-127.027	47.059	0	370.80	0	5.4582	0	34.0426	0	26.866	0	367.391	0	40.0	4	13.1	4	-1E+10	1	0.0654	4	0.000238	0	-1E+10	1	-1E+10	1	-1E+10	1
4902624	18	C	12/18/2024	13:32	-127.027	47.059	0	375.10	0	5.4280	0	34.0430	0	26.870	0	371.647	0	-1e10	1	-1e10	1	-1E+10	1	-1e10	1	-1e10	1	-1E+10	1	-1E+10	1	-1E+10	1
4902624	18	C	12/18/2024	13:32	-127.027	47.059	0	381.60	0	5.3858	0	34.0457	0	26.878	0	378.082	0	38.2	4	12.5	4	-1E+10	1	0.0581	4	0.000229	0	-1E+10	1	-1E+10	1	-1E+10	1
4902624	18	C	12/18/2024	13:32	-127.027	47.059	0	384.80	0	5.3650	0	34.0470	0	26.881	0	381.249	0	-1e10	1	-1e10	1	-1E+10	1	-1e10	1	-1e10	1	-1E+10	1	-1E+10	1	-1E+10	1
4902624	18	C	12/18/2024	13:32	-127.027	47.059	0	392.50	0	5.3371	0	34.0553	0	26.891	0	388.871	0	36.0	4	11.7	4	-1E+10	1	0.0514	4	0.000272	0	-1E+10	1	-1E+10	1	-1E+10	1
4902624	18	C	12/18/2024	13:32	-127.027	47.059	0	395.00	0	5.3280	0	34.0580	0	26.894	0	391.345	0	-1e10	1	-1e10	1	-1E+10	1	-1e10	1	-1e10	1	-1E+10	1	-1E+10	1	-1E+10	1
4902624	18	C	12/18/2024	13:32	-127.027	47.059	0	403.70	0	5.2932	0	34.0632	0	26.902	0	399.957	0	34.0	4	11.1	4	-1E+10	1	0.0581	4	0.000219	0	-1E+10	1	-1E+10	1	-1E+10	1
4902624	18	C	12/18/2024	13:32	-127.027	47.059	0	405.00	0	5.2880	0	34.0640	0	26.904	0	401.243	0	-1e10	1	-1e10	1	-1E+10	1	-1e10	1	-1e10	1	-1E+10	1	-1E+10	1	-1E+10	1
4902624	18	C	12/18/2024	13:32	-127.027	47.059	0	415.00	0	5.2243	0	34.0728	0	26.918	0	411.141	0	32.0	4	10.4	4	-1E+10	1	0.0508	4	0.000306	0	-1E+10	1	-1E+10	1	-1E+10	1
4902624	18	C	12/18/2024	13:32	-127.027	47.059	0	415.20	0	5.2230	0	34.0730	0	26.919	0	411.338	0	-1e10	1	-1e10	1	-1E+10	1	-1e10	1	-1e10	1	-1E+10	1	-1E+10	1	-1E+10	1
4902624	18	C	12/18/2024	13:32	-127.027	47.059	0	425.00	0	5.1520	0	34.0790	0	26.932	0	421.037	0	-1e10	1	-1e10	1	-1E+10	1	-1e10	1	-1e10	1	-1E+10	1	-1E+10	1	-1E+10	1
4902624	18	C	12/18/2024	13:32	-127.027	47.059	0	426.40	0	5.1473	0	34.0806	0	26.933	0	422.423	0	29.8	4	9.7	4	-1E+10	1	0.0441	4	0.000245	0	-1E+10	1	-1E+10	1	-1E+10	1
4902624	18	C	12/18/2024	13:32	-127.027	47.059	0	434.90	0	5.1190	0	34.0900	0	26.944	0	430.835	0	-1e10	1	-1e10	1	-1E+10	1	-1e10	1	-1e10	1	-1E+10	1	-1E+10	1	-1E+10	1
4902624	18	C	12/18/2024	13:32	-127.027	47.059	0	438.00	0	5.1061	0	34.0915	0	26.947	0	433.903	0	28.2	4	9.1	4	-1E+10	1	0.0511	4	0.000396	0	-1E+10	1	-1E+10	1	-1E+10	1
4902624	18	C	12/18/2024	13:32	-127.027	47.059	0	445.00	0	5.0770	0	34.0950	0	26.953	0	440.830	0	-1e10	1	-1e10	1	-1E+10	1	-1e10	1	-1e10	1	-1E+10	1	-1E+10	1	-1E+10	1
4902624	18	C	12/18/2024	13:32	-127.027	47.059	0	449.20	0	5.0674	0	34.0992	0	26.958	0	444.986	0	26.8	4	8.7	4	-1E+10	1	0.0514	4	0.000216	0	-1E+10	1	-1E+10	1	-1E+10	1
4902624	18	C	12/18/2024	13:32	-127.027	47.059	0	455.10	0	5.0540	0	34.1050	0	26.964	0	450.824	0	-1e10	1	-1e10	1	-1E+10	1	-1e10	1	-1e10	1	-1E+10	1	-1E+10	1	-1E+10	1
4902624	18	C	12/18/2024	13:32	-127.027	47.059	0	456.90	0	5.0376	0	34.1059	0	26.966	0	452.605	0	25.6	4	8.3	4	-1E+10	1	0.0584	4	0.000237	0	-1E+10	1	-1E+10	1	-1E+10	1
4902624	18	C	12/18/2024	13:32	-127.027	47.059	0	464.90	0	4.9649	0	34.1100	0	26.978	0	460.521	0	24.3	4	7.9	4	-1E+10	1	0.0581	4	0.000206	0	-1E+10	1	-1E+10	1	-1E+10	1
4902624	18	C	12/18/2024	13:32	-127.027	47.059	0	465.00	0	4.9640	0	34.1100	0	26.978	0	460.620	0	-1e10	1	-1e10	1	-1E+10	1	-1e10	1	-1e10	1	-1E+10	1	-1E+10	1	-1E+10	1
4902624	18	C	12/18/2024	13:32	-127.027	47.059	0	473.20	0	4.9135	0	34.1150	0	26.988	0	468.734	0	23.1	4	7.4	4	-1E+10	1	0.0508	4	0.000282	0	-1E+10	1	-1E+10	1	-1E+10	1
4902624	18	C	12/18/2024	13:32	-127.027	47.059	0	474.90	0	4.9030	0	34.1160	0	26.990	0	470.416	0	-1e10	1	-1e10	1	-1E+10	1	-1e10	1	-1e10	1	-1E+10	1	-1E+10	1	-1E+10	1
4902624	18	C	12/18/2024	13:32	-127.027	47.059	0	481.90	0	4.8852	0	34.1236	0	26.998	0	477.341	0	21.7	4	7.0	4	-1E+10	1	0.0438	4	0.000192	0	-1E+10	1	-1E+10	1	-1E+10	1
4902624	18	C	12/18/2024	13:32	-127.027	47.059	0	485.10	0	4.8770	0	34.1270	0	27.002	0	480.508	0	-1e10	1	-1e10	1	-1E+10	1	-1e10	1	-1e10	1	-1E+10	1	-1E+10	1	-1E+10	1
4902624	18	C	12/18/2024	13:32	-127.027	47.059	0	490.90	0	4.8442	0	34.1323	0	27.009	0	486.246	0	20.4	4	6.6	4	-1E+10	1	0.0441	4	0.000234	0	-1E+10	1	-1E+10	1	-1E+10	1
4902624	18	C	12/18/2024	13:32	-127.027	47.059	0	495.00	0	4.8210	0	34.1360	0	27.015	0	490.302	0	-1e10	1	-1e10	1	-1E+10	1	-1e10	1	-1e10	1	-1E+10	1	-1E+10	1	-1E+10	1
4902624	18	C	12/18/2024	13:32	-127.027	47.059	0	500.30	0	4.7895	0	34.1381	0	27.020	0	495.545	0	19.4	4	6.3	4	-1E+10	1	0.0516	4	0.000407	0	-1E+10	1	-1E+10	1	-1E+10	1
4902624	18	C	12/18/2024	13:32	-127.027	47.059	0	505.10	0	4.7610	0	34.1400	0	27.025	0	500.294	0	-1e10	1	-1e10	1	-1E+10	1	-1e10	1	-1e10	1	-1E+10	1	-1E+10	1	-1E+10	1
4902624	18	C	12/18/2024	13:32	-127.027	47.059	0	510.20	0	4.7523	0	34.1456	0	27.030	0	505.339	0	18.2	4	5.8	4	-1E+10	1	0.0653	4	0.000212	0	-1E+10	1	-1E+10	1	-1E+10	1
4902624	18	C	12/18/2024	13:32	-127.027	47.059	0	515.10	0	4.7440	0	34.1510	0	27.036	0	510.187	0	-1e10	1	-1e10	1	-1E+10	1	-1e10	1	-1e10	1	-1E+10	1	-1E+10	1	-1E+10	1
4902624	18	C	12/18/2024	13:32	-127.027	47.059	0	520.20	0	4.7172	0	34.1562	0	27.043	0	515.232	0	16.9	4	5.4	4	-1E+10	1	0.0584	4	0.000168	0	-1E+10	1	-1E+10	1	-1E+10	1
4902624	18	C	12/18/2024	13:32	-127.027	47.059	0	525.00	0	4.6920	0	34.1610	0	27.049	0	519.980	0	-1e10	1	-1e10	1	-1E+10	1	-1e10	1	-1e10	1	-1E+10	1	-1E+10	1	-1E+10	1
4902624	18	C	12/18/2024	13:32	-127.027	47.059	0	530.50	0	4.6753	0	34.1660	0	27.055	0	525.420	0	16.0	4	5.1	4	-1E+10	1	0.0578	4	0.000202	0	-1E+10	1	-1E+10	1	-1E+10	1
4902624	18	C	12/18/2024	13:32	-127.027	47.059	0	534.90	0	4.6620	0	34.1700	0	27.060	0	529.773	0	-1e10	1	-1e10	1	-1E+10	1	-1e10	1	-1e10	1	-1E+10	1	-1E+10	1	-1E+10	1
4902624	18	C	12/18/2024	13:32	-127.027	47.059	0	541.00	0	4.6411	0	34.1736	0	27.065	0	535.806	0	15.2	4	4.9	4	-1E+10	1	0.0444	4	0.000203	0	-1E+10	1	-1E+10	1	-1E+10	1
4902624	18	C	12/18/2024	13:32	-127.027	47.059	0	545.10	0	4.6270	0	34.1760	0	27.069	0	539.862	0	-1e10	1	-1e10	1	-1E+10	1	-1e10	1	-1e10	1	-1E+10	1	-1E+10	1	-1E+10	1
4902624	18	C	12/18/2024	13:32	-127.027	47.059	0	551.60	0	4.6007	0	34.1786	0	27.074	0	546.291	0	14.6	4	4.7	4	-1E+10	1	0.0587	4	0.000224	0	-1E+10	1	-1E+10	1	-1E+10	1
4902624	18	C	12/18/2024	13:32	-127.027	47.059	0	555.00	0	4.5870	0	34.1800	0	27.076	0	549.653	0	-1e10	1	-1e10	1	-1E+10	1	-1e10	1	-1e10	1	-1E+10	1	-1E+10	1	-1E+10	1
4902624	18	C	12/18/2024	13:32	-127.027	47.059	0	562.40	0	4.5787	0	34.1883	0	27.084	0	556.972	0	13.7	4	4.4	4	-1E+10	1	0.0652	4	0.000179	0	-1E+10	1	-1E+10	1	-1E+10	1
4902624	18	C	12/18/2024	13:32	-127.027	47.059	0	564.80	0	4.5760	0	34.1910	0	27.086	0	559.346	0	-1e10	1	-1e10	1	-1E+10	1	-1e10	1	-1e10	1	-1E+10	1	-1E+10	1	-1E+10	1
4902624	18	C	12/18/2024	13:32	-127.027	47.059	0	573.20	0	4.5604	0	34.1992	0	27.095	0	567.653	0	13.0	4	4.1	4	-1E+10	1	0.0511	4	0.000202	0	-1E+10	1	-1E+10	1	-1E+10	1
4902624	18	C	12/18/2024	13:32	-127.027	47.059	0	575.00	0	4.5570	0	34.2010	0	27.096	0	569.433	0	-1e10	1	-1e10	1	-1E+10	1	-1e10	1	-1e10	1	-1E+10	1	-1E+10	1	-1E+10	1
4902624	18	C	12/18/2024	13:32	-127.027	47.059	0	584.10	0	4.5320	0	34.2064	0	27.103	0	578.433	0	12.5	4	4.0	4	-1E+10	1	0.0518	4	0.000212	0	-1E+10	1	-1E+10	1	-1E+10	1
4902624	18	C	12/18/2024	13:32	-127.027	47.059	0	585.20	0	4.5290	0	34.2070	0	27.104	0	579.520	0	-1e10	1	-1e10	1	-1E+10	1	-1e10	1	-1e10	1	-1E+10	1	-1E+10	1	-1E+10	1
4902624	18	C	12/18/2024	13:32	-127.027	47.059	0	595.00	0	4.5072	0	34.2110	0	27.110	0	589.211	0	12.0	4	3.8	4	-1E+10	1	0.0654	4	0.000191	0	-1E+10	1	-1E+10	1	-1E+10	1
4902624	18	C	12/18/2024	13:32	-127.027	47.059	0	595.10	0	4.5070	0	34.2110	0	27.110	0	589.310	0	-1e10	1	-1e10	1	-1E+10	1	-1e10	1	-1e10	1	-1E+10	1	-1E+10	1	-1E+10	1
4902624	18	C	12/18/2024	13:32	-127.027	47.059	0	604.80	0	4.4830	0	34.2170	0	27.117	0	598.902	0	-1e10	1	-1e10	1	-1E+10	1	-1e10	1	-1e10	1	-1E+10	1	-1E+10	1	-1E+10	1
4902624	18	C	12/18/2024	13:32	-127.027	47.059	0	606.10	0	4.4785	0	34.2178	0	27.118	0	600.187	0	11.6	4	3.7	4	-1E+10	1	0.0584	4	0.000213	0	-1E+10	1	-1E+10	1	-1E+10	1
4902624	18	C	12/18/2024	13:32	-127.027	47.059	0	615.10	0	4.4470	0	34.2230	0	27.126	0	609.086	0	-1e10	1	-1e10	1	-1E+10	1	-1e10	1	-1e10	1	-1E+10	1	-1E+10	1	-1E+10	1
4902624	18	C	12/18/2024	13:32	-127.027	47.059	0	617.20	0	4.4424	0	34.2243	0	27.128	0	611.163	0	11.1	4	3.5	4	-1E+10	1	0.0579	4	0.000201	0	-1E+10	1	-1E+10	1	-1E+10	1
4902624	18	C	12/18/2024	13:32	-127.027	47.059	0	625.10	0	4.4250	0	34.2290	0	27.133	0	618.974	0	-1e10	1	-1e10	1	-1E+10	1	-1e10	1	-1e10	1	-1E+10	1	-1E+10	1	-1E+10	1
4902624	18	C	12/18/2024	13:32	-127.027	47.059	0	628.40	0	4.4203	0	34.2324	0	27.136	0	622.237	0	10.5	4	3.4	4	-1E+10	1	0.0438	4	0.000191	0	-1E+10	1	-1E+10	1	-1E+10	1
4902624	18	C	12/18/2024	13:32	-127.027	47.059	0	634.90	0	4.4110	0	34.2390	0	27.143	0	628.663	0	-1e10	1	-1e10	1	-1E+10	1	-1e10	1	-1e10	1	-1E+10	1	-1E+10	1	-1E+10	1
4902624	18	C	12/18/2024	13:32	-127.027	47.059	0	639.70	0	4.3984	0	34.2423	0	27.147	0	633.409	0	10.1	4	3.2	4	-1E+10	1	0.0444	4	0.000212	0	-1E+10	1	-1E+10	1	-1E+10	1
4902624	18	C	12/18/2024	13:32	-127.027	47.059	0	645.20	0	4.3840	0	34.2460	0	27.151	0	638.846	0	-1e10	1	-1e10	1	-1E+10	1	-1e10	1	-1e10	1	-1E+10	1	-1E+10	1	-1E+10	1
4902624	18	C	12/18/2024	13:32	-127.027	47.059	0	651.30	0	4.3594	0	34.2503	0	27.157	0	644.877	0	9.7	4	3.1	4	-1E+10	1	0.0581	4	0.000201	0	-1E+10	1	-1E+10	1	-1E+10	1
4902624	18	C	12/18/2024	13:32	-127.027	47.059	0	655.10	0	4.3440	0	34.2530	0	27.161	0	648.633	0	-1e10	1	-1e10	1	-1E+10	1	-1e10	1	-1e10	1	-1E+10	1	-1E+10	1	-1E+10	1
4902624	18	C	12/18/2024	13:32	-127.027	47.059	0	663.20	0	4.3159	0	34.2586	0	27.169	0	656.640	0	9.3	4	3.0	4	-1E+10	1	0.0515	4	0.000200	0	-1E+10	1	-1E+10	1	-1E+10	1
4902624	18	C	12/18/2024	13:32	-127.027	47.059	0	665.20	0	4.3090	0	34.2600	0	27.171	0	658.618	0	-1e10	1	-1e10	1	-1E+10	1	-1e10	1	-1e10	1	-1E+10	1	-1E+10	1	-1E+10	1
4902624	18	C	12/18/2024	13:32	-127.027	47.059	0	672.70	0	4.2855	0	34.2638	0	27.176	0	666.031	0	9.0	4	2.9	4	-1E+10	1	0.0581	4	0.000190	0	-1E+10	1	-1E+10	1	-1E+10	1
4902624	18	C	12/18/2024	13:32	-127.027	47.059	0	675.10	0	4.2780	0	34.2650	0	27.178	0	668.404	0	-1e10	1	-1e10	1	-1E+10	1	-1e10	1	-1e10	1	-1E+10	1	-1E+10	1	-1E+10	1
4902624	18	C	12/18/2024	13:32	-127.027	47.059	0	680.60	0	4.2652	0	34.2700	0	27.183	0	673.840	0	8.7	4	2.8	4	-1E+10	1	0.0516	4	0.000212	0	-1E+10	1	-1E+10	1	-1E+10	1
4902624	18	C	12/18/2024	13:32	-127.027	47.059	0	685.00	0	4.2550	0	34.2740	0	27.187	0	678.189	0	-1e10	1	-1e10	1	-1E+10	1	-1e10	1	-1e10	1	-1E+10	1	-1E+10	1	-1E+10	1
4902624	18	C	12/18/2024	13:32	-127.027	47.059	0	688.70	0	4.2404	0	34.2777	0	27.192	0	681.847	0	8.5	4	2.7	4	-1E+10	1	0.0649	4	0.000190	0	-1E+10	1	-1E+10	1	-1E+10	1
4902624	18	C	12/18/2024	13:32	-127.027	47.059	0	694.90	0	4.2160	0	34.2840	0	27.200	0	687.975	0	-1e10	1	-1e10	1	-1E+10	1	-1e10	1	-1e10	1	-1E+10	1	-1E+10	1	-1E+10	1
4902624	18	C	12/18/2024	13:32	-127.027	47.059	0	697.30	0	4.2078	0	34.2854	0	27.202	0	690.347	0	8.3	4	2.6	4	-1E+10	1	0.0445	4	0.000212	0	-1E+10	1	-1E+10	1	-1E+10	1
4902624	18	C	12/18/2024	13:32	-127.027	47.059	0	704.90	0	4.1820	0	34.2900	0	27.208	0	697.858	0	-1e10	1	-1e10	1	-1E+10	1	-1e10	1	-1e10	1	-1E+10	1	-1E+10	1	-1E+10	1
4902624	18	C	12/18/2024	13:32	-127.027	47.059	0	706.20	0	4.1781	0	34.2906	0	27.209	0	699.143	0	8.2	4	2.6	4	-1E+10	1	0.0651	4	0.000213	0	-1E+10	1	-1E+10	1	-1E+10	1
4902624	18	C	12/18/2024	13:32	-127.027	47.059	0	715.00	0	4.1520	0	34.2950	0	27.215	0	707.840	0	-1e10	1	-1e10	1	-1E+10	1	-1e10	1	-1e10	1	-1E+10	1	-1E+10	1	-1E+10	1
4902624	18	C	12/18/2024	13:32	-127.027	47.059	0	715.30	0	4.1513	0	34.2951	0	27.215	0	708.137	0	8.1	4	2.6	4	-1E+10	1	0.0511	4	0.000222	0	-1E+10	1	-1E+10	1	-1E+10	1
4902624	18	C	12/18/2024	13:32	-127.027	47.059	0	724.60	0	4.1299	0	34.2988	0	27.221	0	717.328	0	8.0	4	2.5	4	-1E+10	1	0.0514	4	0.000200	0	-1E+10	1	-1E+10	1	-1E+10	1
4902624	18	C	12/18/2024	13:32	-127.027	47.059	0	725.00	0	4.1290	0	34.2990	0	27.221	0	717.723	0	-1e10	1	-1e10	1	-1E+10	1	-1e10	1	-1e10	1	-1E+10	1	-1E+10	1	-1E+10	1
4902624	18	C	12/18/2024	13:32	-127.027	47.059	0	733.90	0	4.1074	0	34.3044	0	27.227	0	726.518	0	7.8	4	2.5	4	-1E+10	1	0.0577	4	0.000455	0	-1E+10	1	-1E+10	1	-1E+10	1
4902624	18	C	12/18/2024	13:32	-127.027	47.059	0	734.90	0	4.1050	0	34.3050	0	27.228	0	727.506	0	-1e10	1	-1e10	1	-1E+10	1	-1e10	1	-1e10	1	-1E+10	1	-1E+10	1	-1E+10	1
4902624	18	C	12/18/2024	13:32	-127.027	47.059	0	743.50	0	4.0735	0	34.3110	0	27.236	0	736.005	0	7.8	4	2.5	4	-1E+10	1	0.0372	4	0.000336	0	-1E+10	1	-1E+10	1	-1E+10	1
4902624	18	C	12/18/2024	13:32	-127.027	47.059	0	745.00	0	4.0680	0	34.3120	0	27.238	0	737.487	0	-1e10	1	-1e10	1	-1E+10	1	-1e10	1	-1e10	1	-1E+10	1	-1E+10	1	-1E+10	1
4902624	18	C	12/18/2024	13:32	-127.027	47.059	0	753.50	0	4.0366	0	34.3154	0	27.244	0	745.886	0	7.8	4	2.5	4	-1E+10	1	0.0590	4	0.000177	0	-1E+10	1	-1E+10	1	-1E+10	1
4902624	18	C	12/18/2024	13:32	-127.027	47.059	0	755.00	0	4.0310	0	34.3160	0	27.245	0	747.368	0	-1e10	1	-1e10	1	-1E+10	1	-1e10	1	-1e10	1	-1E+10	1	-1E+10	1	-1E+10	1
4902624	18	C	12/18/2024	13:32	-127.027	47.059	0	763.80	0	4.0141	0	34.3196	0	27.249	0	756.063	0	7.7	4	2.4	4	-1E+10	1	0.0722	4	0.000176	0	-1E+10	1	-1E+10	1	-1E+10	1
4902624	18	C	12/18/2024	13:32	-127.027	47.059	0	764.90	0	4.0120	0	34.3200	0	27.250	0	757.150	0	-1e10	1	-1e10	1	-1E+10	1	-1e10	1	-1e10	1	-1E+10	1	-1E+10	1	-1E+10	1
4902624	18	C	12/18/2024	13:32	-127.027	47.059	0	774.20	0	3.9327	0	34.3154	0	27.254	0	766.339	0	7.8	4	2.5	4	-1E+10	1	0.0514	4	0.000166	0	-1E+10	1	-1E+10	1	-1E+10	1
4902624	18	C	12/18/2024	13:32	-127.027	47.059	0	775.10	0	3.9250	0	34.3150	0	27.255	0	767.228	0	-1e10	1	-1e10	1	-1E+10	1	-1e10	1	-1e10	1	-1E+10	1	-1E+10	1	-1E+10	1
4902624	18	C	12/18/2024	13:32	-127.027	47.059	0	784.80	0	3.8717	0	34.3150	0	27.260	0	776.811	0	7.8	4	2.4	4	-1E+10	1	0.0581	4	0.000187	0	-1E+10	1	-1E+10	1	-1E+10	1
4902624	18	C	12/18/2024	13:32	-127.027	47.059	0	785.30	0	3.8690	0	34.3150	0	27.261	0	777.305	0	-1e10	1	-1e10	1	-1E+10	1	-1e10	1	-1e10	1	-1E+10	1	-1E+10	1	-1E+10	1
4902624	18	C	12/18/2024	13:32	-127.027	47.059	0	795.20	0	3.8390	0	34.3180	0	27.266	0	787.086	0	-1e10	1	-1e10	1	-1E+10	1	-1e10	1	-1e10	1	-1E+10	1	-1E+10	1	-1E+10	1
4902624	18	C	12/18/2024	13:32	-127.027	47.059	0	795.70	0	3.8384	0	34.3182	0	27.266	0	787.580	0	7.7	4	2.4	4	-1E+10	1	0.0514	4	0.000144	0	-1E+10	1	-1E+10	1	-1E+10	1
4902624	18	C	12/18/2024	13:32	-127.027	47.059	0	805.00	0	3.8270	0	34.3220	0	27.270	0	796.767	0	-1e10	1	-1e10	1	-1E+10	1	-1e10	1	-1e10	1	-1E+10	1	-1E+10	1	-1E+10	1
4902624	18	C	12/18/2024	13:32	-127.027	47.059	0	806.50	0	3.8230	0	34.3220	0	27.271	0	798.249	0	7.7	4	2.4	4	-1E+10	1	0.0584	4	0.000129	0	-1E+10	1	-1E+10	1	-1E+10	1
4902624	18	C	12/18/2024	13:32	-127.027	47.059	0	814.80	0	3.8010	0	34.3220	0	27.273	0	806.448	0	-1e10	1	-1e10	1	-1E+10	1	-1e10	1	-1e10	1	-1E+10	1	-1E+10	1	-1E+10	1
4902624	18	C	12/18/2024	13:32	-127.027	47.059	0	817.30	0	3.8022	0	34.3244	0	27.275	0	808.918	0	7.6	4	2.4	4	-1E+10	1	0.0581	4	0.000120	0	-1E+10	1	-1E+10	1	-1E+10	1
4902624	18	C	12/18/2024	13:32	-127.027	47.059	0	825.10	0	3.8060	0	34.3320	0	27.281	0	816.622	0	-1e10	1	-1e10	1	-1E+10	1	-1e10	1	-1e10	1	-1E+10	1	-1E+10	1	-1E+10	1
4902624	18	C	12/18/2024	13:32	-127.027	47.059	0	828.20	0	3.7913	0	34.3335	0	27.283	0	819.684	0	7.6	4	2.4	4	-1E+10	1	0.0514	4	0.000189	0	-1E+10	1	-1E+10	1	-1E+10	1
4902624	18	C	12/18/2024	13:32	-127.027	47.059	0	835.20	0	3.7580	0	34.3370	0	27.289	0	826.599	0	-1e10	1	-1e10	1	-1E+10	1	-1e10	1	-1e10	1	-1E+10	1	-1E+10	1	-1E+10	1
4902624	18	C	12/18/2024	13:32	-127.027	47.059	0	839.10	0	3.7497	0	34.3390	0	27.292	0	830.451	0	7.6	4	2.4	4	-1E+10	1	0.0581	4	0.000231	0	-1E+10	1	-1E+10	1	-1E+10	1
4902624	18	C	12/18/2024	13:32	-127.027	47.059	0	845.10	0	3.7370	0	34.3420	0	27.296	0	836.377	0	-1e10	1	-1e10	1	-1E+10	1	-1e10	1	-1e10	1	-1E+10	1	-1E+10	1	-1E+10	1
4902624	18	C	12/18/2024	13:32	-127.027	47.059	0	850.00	0	3.7462	0	34.3486	0	27.300	0	841.216	0	7.5	4	2.3	4	-1E+10	1	0.0511	4	0.000141	0	-1E+10	1	-1E+10	1	-1E+10	1
4902624	18	C	12/18/2024	13:32	-127.027	47.059	0	854.70	0	3.7550	0	34.3550	0	27.304	0	845.858	0	-1e10	1	-1e10	1	-1E+10	1	-1e10	1	-1e10	1	-1E+10	1	-1E+10	1	-1E+10	1
4902624	18	C	12/18/2024	13:32	-127.027	47.059	0	861.20	0	3.7133	0	34.3537	0	27.307	0	852.278	0	7.6	4	2.4	4	-1E+10	1	0.0511	4	0.000151	0	-1E+10	1	-1E+10	1	-1E+10	1
4902624	18	C	12/18/2024	13:32	-127.027	47.059	0	865.00	0	3.6890	0	34.3530	0	27.309	0	856.031	0	-1e10	1	-1e10	1	-1E+10	1	-1e10	1	-1e10	1	-1E+10	1	-1E+10	1	-1E+10	1
4902624	18	C	12/18/2024	13:32	-127.027	47.059	0	872.50	0	3.6607	0	34.3553	0	27.314	0	863.438	0	7.6	4	2.4	4	-1E+10	1	0.0514	4	0.000128	0	-1E+10	1	-1E+10	1	-1E+10	1
4902624	18	C	12/18/2024	13:32	-127.027	47.059	0	874.80	0	3.6520	0	34.3560	0	27.315	0	865.709	0	-1e10	1	-1e10	1	-1E+10	1	-1e10	1	-1e10	1	-1E+10	1	-1E+10	1	-1E+10	1
4902624	18	C	12/18/2024	13:32	-127.027	47.059	0	884.00	0	3.6456	0	34.3624	0	27.321	0	874.794	0	7.8	4	2.4	4	-1E+10	1	0.0578	4	0.000118	0	-1E+10	1	-1E+10	1	-1E+10	1
4902624	18	C	12/18/2024	13:32	-127.027	47.059	0	884.80	0	3.6450	0	34.3630	0	27.322	0	875.584	0	-1e10	1	-1e10	1	-1E+10	1	-1e10	1	-1e10	1	-1E+10	1	-1E+10	1	-1E+10	1
4902624	18	C	12/18/2024	13:32	-127.027	47.059	0	895.10	0	3.6140	0	34.3660	0	27.327	0	885.755	0	-1e10	1	-1e10	1	-1E+10	1	-1e10	1	-1e10	1	-1E+10	1	-1E+10	1	-1E+10	1
4902624	18	C	12/18/2024	13:32	-127.027	47.059	0	895.60	0	3.6134	0	34.3664	0	27.328	0	886.249	0	7.9	4	2.5	4	-1E+10	1	0.0443	4	0.000140	0	-1E+10	1	-1E+10	1	-1E+10	1
4902624	18	C	12/18/2024	13:32	-127.027	47.059	0	905.30	0	3.6020	0	34.3750	0	27.336	0	895.827	0	-1e10	1	-1e10	1	-1E+10	1	-1e10	1	-1e10	1	-1E+10	1	-1E+10	1	-1E+10	1
4902624	18	C	12/18/2024	13:32	-127.027	47.059	0	907.50	0	3.5987	0	34.3761	0	27.337	0	897.999	0	31.7	4	9.9	4	-1E+10	1	0.0584	4	0.000141	0	-1E+10	1	-1E+10	1	-1E+10	1
4902624	18	C	12/18/2024	13:32	-127.027	47.059	0	915.20	0	3.5870	0	34.3800	0	27.341	0	905.602	0	-1e10	1	-1e10	1	-1E+10	1	-1e10	1	-1e10	1	-1E+10	1	-1E+10	1	-1E+10	1
4902624	18	C	12/18/2024	13:32	-127.027	47.059	0	917.30	0	3.5834	0	34.3809	0	27.342	0	907.675	0	18.9	4	5.9	4	-1E+10	1	0.0584	4	0.000163	0	-1E+10	1	-1E+10	1	-1E+10	1
4902624	18	C	12/18/2024	13:32	-127.027	47.059	0	925.00	0	3.5700	0	34.3840	0	27.346	0	915.277	0	-1e10	1	-1e10	1	-1E+10	1	-1e10	1	-1e10	1	-1E+10	1	-1E+10	1	-1E+10	1
4902624	18	C	12/18/2024	13:32	-127.027	47.059	0	925.50	0	3.5686	0	34.3841	0	27.346	0	915.771	0	44.6	4	14.0	4	-1E+10	1	0.0584	4	0.000163	0	-1E+10	1	-1E+10	1	-1E+10	1
4902624	18	C	12/18/2024	13:32	-127.027	47.059	0	934.10	0	3.5440	0	34.3859	0	27.350	0	924.262	0	44.6	4	13.9	4	-1E+10	1	0.0587	4	0.000152	0	-1E+10	1	-1E+10	1	-1E+10	1
4902624	18	C	12/18/2024	13:32	-127.027	47.059	0	934.80	0	3.5420	0	34.3860	0	27.350	0	924.953	0	-1e10	1	-1e10	1	-1E+10	1	-1e10	1	-1e10	1	-1E+10	1	-1E+10	1	-1E+10	1
4902624	18	C	12/18/2024	13:32	-127.027	47.059	0	942.90	0	3.5228	0	34.3884	0	27.354	0	932.949	0	54.1	4	16.9	4	-1E+10	1	0.0655	4	0.000150	0	-1E+10	1	-1E+10	1	-1E+10	1
4902624	18	C	12/18/2024	13:32	-127.027	47.059	0	944.90	0	3.5180	0	34.3890	0	27.355	0	934.924	0	-1e10	1	-1e10	1	-1E+10	1	-1e10	1	-1e10	1	-1E+10	1	-1E+10	1	-1E+10	1
4902624	18	C	12/18/2024	13:32	-127.027	47.059	0	952.20	0	3.4949	0	34.3904	0	27.359	0	942.130	0	65.6	4	20.5	4	-1E+10	1	0.0581	4	0.000106	0	-1E+10	1	-1E+10	1	-1E+10	1
4902624	18	C	12/18/2024	13:32	-127.027	47.059	0	955.00	0	3.4860	0	34.3910	0	27.360	0	944.894	0	-1e10	1	-1e10	1	-1E+10	1	-1e10	1	-1e10	1	-1E+10	1	-1E+10	1	-1E+10	1
4902624	18	C	12/18/2024	13:32	-127.027	47.059	0	961.60	0	3.4678	0	34.3930	0	27.363	0	951.410	0	66.7	4	20.8	4	-1E+10	1	0.0518	4	0.000139	0	-1E+10	1	-1E+10	1	-1E+10	1
4902624	18	C	12/18/2024	13:32	-127.027	47.059	0	964.80	0	3.4590	0	34.3940	0	27.365	0	954.568	0	-1e10	1	-1e10	1	-1E+10	1	-1e10	1	-1e10	1	-1E+10	1	-1E+10	1	-1E+10	1
4902624	18	C	12/18/2024	13:32	-127.027	47.059	0	971.40	0	3.4512	0	34.3966	0	27.368	0	961.083	0	67.7	4	21.1	4	-1E+10	1	0.0721	4	0.000117	0	-1E+10	1	-1E+10	1	-1E+10	1
4902624	18	C	12/18/2024	13:32	-127.027	47.059	0	975.00	0	3.4470	0	34.3980	0	27.369	0	964.637	0	-1e10	1	-1e10	1	-1E+10	1	-1e10	1	-1e10	1	-1E+10	1	-1E+10	1	-1E+10	1
4902624	18	C	12/18/2024	13:32	-127.027	47.059	0	981.40	0	3.4357	0	34.4011	0	27.373	0	970.954	0	53.9	4	16.8	4	-1E+10	1	0.0514	4	0.000151	0	-1E+10	1	-1E+10	1	-1E+10	1
4902624	18	C	12/18/2024	13:32	-127.027	47.059	0	985.20	0	3.4290	0	34.4030	0	27.375	0	974.705	0	-1e10	1	-1e10	1	-1E+10	1	-1e10	1	-1e10	1	-1E+10	1	-1E+10	1	-1E+10	1
4902624	18	C	12/18/2024	13:32	-127.027	47.059	0	991.60	0	3.4212	0	34.4050	0	27.377	0	981.021	0	53.9	4	16.8	4	-1E+10	1	0.0585	4	0.000139	0	-1E+10	1	-1E+10	1	-1E+10	1
4902624	18	C	12/18/2024	13:32	-127.027	47.059	0	995.00	0	3.4170	0	34.4060	0	27.379	0	984.377	0	-1e10	1	-1e10	1	-1E+10	1	-1e10	1	-1e10	1	-1E+10	1	-1E+10	1	-1E+10	1
4902624	18	C	12/18/2024	13:32	-127.027	47.059	0	1012.80	0	3.3715	0	34.4125	0	27.388	0	1001.945	0	51.1	4	15.9	4	-1E+10	1	0.0657	4	0.000128	0	-1E+10	1	-1E+10	1	-1E+10	1
4902624	18	C	12/18/2024	13:32	-127.027	47.059	0	1025.10	0	3.3400	0	34.4170	0	27.395	0	1014.083	0	-1e10	1	-1e10	1	-1E+10	1	-1e10	1	-1e10	1	-1E+10	1	-1E+10	1	-1E+10	1
4902624	18	C	12/18/2024	13:32	-127.027	47.059	0	1034.20	0	3.3166	0	34.4197	0	27.399	0	1023.063	0	52.3	4	16.3	4	-1E+10	1	0.0654	4	0.000139	0	-1E+10	1	-1E+10	1	-1E+10	1
4902624	18	C	12/18/2024	13:32	-127.027	47.059	0	1055.60	0	3.2615	0	34.4261	0	27.410	0	1044.179	0	60.4	4	18.8	4	-1E+10	1	0.0516	4	0.000150	0	-1E+10	1	-1E+10	1	-1E+10	1
4902624	18	C	12/18/2024	13:32	-127.027	47.059	0	1075.20	0	3.2110	0	34.4320	0	27.419	0	1063.518	0	-1e10	1	-1e10	1	-1E+10	1	-1e10	1	-1e10	1	-1E+10	1	-1E+10	1	-1E+10	1
4902624	18	C	12/18/2024	13:32	-127.027	47.059	0	1077.40	0	3.2064	0	34.4324	0	27.420	0	1065.688	0	76.3	4	23.7	4	-1E+10	1	0.0725	4	0.000139	0	-1E+10	1	-1E+10	1	-1E+10	1
4902624	18	C	12/18/2024	13:32	-127.027	47.059	0	1099.70	0	3.1594	0	34.4364	0	27.428	0	1087.688	0	79.3	4	24.6	4	-1E+10	1	0.0439	4	0.000161	0	-1E+10	1	-1E+10	1	-1E+10	1
4902624	18	C	12/18/2024	13:32	-127.027	47.059	0	1122.00	0	3.1125	0	34.4404	0	27.435	0	1109.686	0	85.6	4	26.5	4	-1E+10	1	0.0511	4	0.000138	0	-1E+10	1	-1E+10	1	-1E+10	1
4902624	18	C	12/18/2024	13:32	-127.027	47.059	0	1125.10	0	3.1060	0	34.4410	0	27.436	0	1112.743	0	-1e10	1	-1e10	1	-1E+10	1	-1e10	1	-1e10	1	-1E+10	1	-1E+10	1	-1E+10	1
4902624	18	C	12/18/2024	13:32	-127.027	47.059	0	1144.40	0	3.0667	0	34.4467	0	27.445	0	1131.779	0	88.3	4	27.3	4	-1E+10	1	0.0511	4	0.000127	0	-1E+10	1	-1E+10	1	-1E+10	1
4902624	18	C	12/18/2024	13:32	-127.027	47.059	0	1165.20	0	3.0244	0	34.4529	0	27.454	0	1152.293	0	96.2	4	29.7	4	-1E+10	1	0.0511	4	0.000160	0	-1E+10	1	-1E+10	1	-1E+10	1
4902624	18	C	12/18/2024	13:32	-127.027	47.059	0	1175.70	0	3.0030	0	34.4560	0	27.458	0	1162.648	0	-1e10	1	-1e10	1	-1E+10	1	-1e10	1	-1e10	1	-1E+10	1	-1E+10	1	-1E+10	1
4902624	18	C	12/18/2024	13:32	-127.027	47.059	0	1181.10	0	2.9930	0	34.4572	0	27.460	0	1167.973	0	72.0	4	22.2	4	-1E+10	1	0.0512	4	0.000114	0	-1E+10	1	-1E+10	1	-1E+10	1
4902624	18	C	12/18/2024	13:32	-127.027	47.059	0	1198.50	0	2.9607	0	34.4611	0	27.466	0	1185.130	0	79.3	4	24.5	4	-1E+10	1	0.0582	4	0.000137	0	-1E+10	1	-1E+10	1	-1E+10	1
4902624	18	C	12/18/2024	13:32	-127.027	47.059	0	1217.20	0	2.9259	0	34.4653	0	27.473	0	1203.568	0	82.7	4	25.5	4	-1E+10	1	0.0511	4	0.000137	0	-1E+10	1	-1E+10	1	-1E+10	1
4902624	18	C	12/18/2024	13:32	-127.027	47.059	0	1224.70	0	2.9120	0	34.4670	0	27.475	0	1210.963	0	-1e10	1	-1e10	1	-1E+10	1	-1e10	1	-1e10	1	-1E+10	1	-1E+10	1	-1E+10	1
4902624	18	C	12/18/2024	13:32	-127.027	47.059	0	1237.00	0	2.8915	0	34.4697	0	27.479	0	1223.089	0	87.4	4	26.9	4	-1E+10	1	0.0511	4	0.000137	0	-1E+10	1	-1E+10	1	-1E+10	1
4902624	18	C	12/18/2024	13:32	-127.027	47.059	0	1257.80	0	2.8569	0	34.4742	0	27.486	0	1243.594	0	81.9	4	25.2	4	-1E+10	1	0.0512	4	0.000137	0	-1E+10	1	-1E+10	1	-1E+10	1
4902624	18	C	12/18/2024	13:32	-127.027	47.059	0	1275.20	0	2.8280	0	34.4780	0	27.492	0	1260.745	0	-1e10	1	-1e10	1	-1E+10	1	-1e10	1	-1e10	1	-1E+10	1	-1E+10	1	-1E+10	1
4902624	18	C	12/18/2024	13:32	-127.027	47.059	0	1279.20	0	2.8210	0	34.4790	0	27.493	0	1264.688	0	84.7	4	26.0	4	-1E+10	1	0.0579	4	0.000148	0	-1E+10	1	-1E+10	1	-1E+10	1
4902624	18	C	12/18/2024	13:32	-127.027	47.059	0	1301.10	0	2.7827	0	34.4848	0	27.501	0	1286.272	0	83.7	4	25.7	4	-1E+10	1	0.0368	4	0.000147	0	-1E+10	1	-1E+10	1	-1E+10	1
4902624	18	C	12/18/2024	13:32	-127.027	47.059	0	1323.70	0	2.7431	0	34.4907	0	27.510	0	1308.545	0	84.6	4	26.0	4	-1E+10	1	0.0511	4	0.000112	0	-1E+10	1	-1E+10	1	-1E+10	1
4902624	18	C	12/18/2024	13:32	-127.027	47.059	0	1324.90	0	2.7410	0	34.4910	0	27.510	0	1309.727	0	-1e10	1	-1e10	1	-1E+10	1	-1e10	1	-1e10	1	-1E+10	1	-1E+10	1	-1E+10	1
4902624	18	C	12/18/2024	13:32	-127.027	47.059	0	1346.70	0	2.7044	0	34.4953	0	27.517	0	1331.209	0	101.2	4	31.0	4	-1E+10	1	0.0514	4	0.000113	0	-1E+10	1	-1E+10	1	-1E+10	1
4902624	18	C	12/18/2024	13:32	-127.027	47.059	0	1370.20	0	2.6650	0	34.5000	0	27.524	0	1354.363	0	104.7	4	32.1	4	-1E+10	1	0.0652	4	0.000135	0	-1E+10	1	-1E+10	1	-1E+10	1
4902624	18	C	12/18/2024	13:32	-127.027	47.059	0	1375.00	0	2.6570	0	34.5010	0	27.526	0	1359.092	0	-1e10	1	-1e10	1	-1E+10	1	-1e10	1	-1e10	1	-1E+10	1	-1E+10	1	-1E+10	1
4902624	18	C	12/18/2024	13:32	-127.027	47.059	0	1394.10	0	2.6200	0	34.5052	0	27.532	0	1377.909	0	82.6	4	25.3	4	-1E+10	1	0.0440	4	0.000112	0	-1E+10	1	-1E+10	1	-1E+10	1
4902624	18	C	12/18/2024	13:32	-127.027	47.059	0	1411.20	0	2.5869	0	34.5089	0	27.538	0	1394.754	0	83.3	4	25.5	4	-1E+10	1	0.0511	4	0.000112	0	-1E+10	1	-1E+10	1	-1E+10	1
4902624	18	C	12/18/2024	13:32	-127.027	47.059	0	1425.10	0	2.5600	0	34.5120	0	27.543	0	1408.445	0	-1e10	1	-1e10	1	-1E+10	1	-1e10	1	-1e10	1	-1E+10	1	-1E+10	1	-1E+10	1
4902624	18	C	12/18/2024	13:32	-127.027	47.059	0	1427.60	0	2.5557	0	34.5125	0	27.544	0	1410.908	0	81.7	4	25.0	4	-1E+10	1	0.0509	4	0.000134	0	-1E+10	1	-1E+10	1	-1E+10	1
4902624	18	C	12/18/2024	13:32	-127.027	47.059	0	1444.60	0	2.5261	0	34.5159	0	27.549	0	1427.651	0	84.3	4	25.8	4	-1E+10	1	0.0436	4	0.000100	0	-1E+10	1	-1E+10	1	-1E+10	1
4902624	18	C	12/18/2024	13:32	-127.027	47.059	0	1462.20	0	2.4955	0	34.5195	0	27.554	0	1444.985	0	110.2	4	33.6	4	-1E+10	1	0.0367	4	0.000123	0	-1E+10	1	-1E+10	1	-1E+10	1
4902624	18	C	12/18/2024	13:32	-127.027	47.059	0	1474.60	0	2.4740	0	34.5220	0	27.558	0	1457.196	0	-1e10	1	-1e10	1	-1E+10	1	-1e10	1	-1e10	1	-1E+10	1	-1E+10	1	-1E+10	1
4902624	18	C	12/18/2024	13:32	-127.027	47.059	0	1480.60	0	2.4647	0	34.5231	0	27.560	0	1463.104	0	125.8	4	38.3	4	-1E+10	1	0.0440	4	0.000112	0	-1E+10	1	-1E+10	1	-1E+10	1
4902624	18	C	12/18/2024	13:32	-127.027	47.059	0	1499.90	0	2.4348	0	34.5265	0	27.565	0	1482.109	0	87.3	4	26.6	4	-1E+10	1	0.0512	4	0.000157	0	-1E+10	1	-1E+10	1	-1E+10	1
4902624	18	C	12/18/2024	13:32	-127.027	47.059	0	1520.00	0	2.4036	0	34.5301	0	27.571	0	1501.899	0	110.6	4	33.7	4	-1E+10	1	0.0584	4	0.000122	0	-1E+10	1	-1E+10	1	-1E+10	1
4902624	18	C	12/18/2024	13:32	-127.027	47.059	0	1524.90	0	2.3960	0	34.5310	0	27.572	0	1506.723	0	-1e10	1	-1e10	1	-1E+10	1	-1e10	1	-1e10	1	-1E+10	1	-1E+10	1	-1E+10	1
4902624	18	C	12/18/2024	13:32	-127.027	47.059	0	1541.20	0	2.3734	0	34.5336	0	27.576	0	1522.770	0	89.9	4	27.3	4	-1E+10	1	0.0581	4	0.000133	0	-1E+10	1	-1E+10	1	-1E+10	1
4902624	18	C	12/18/2024	13:32	-127.027	47.059	0	1563.30	0	2.3428	0	34.5372	0	27.582	0	1544.525	0	85.3	4	25.9	4	-1E+10	1	0.0441	4	0.000122	0	-1E+10	1	-1E+10	1	-1E+10	1
4902624	18	C	12/18/2024	13:32	-127.027	47.059	0	1574.70	0	2.3270	0	34.5390	0	27.585	0	1555.746	0	-1e10	1	-1e10	1	-1E+10	1	-1e10	1	-1e10	1	-1E+10	1	-1E+10	1	-1E+10	1
4902624	18	C	12/18/2024	13:32	-127.027	47.059	0	1586.20	0	2.3110	0	34.5410	0	27.588	0	1567.065	0	93.3	4	28.3	4	-1E+10	1	0.0584	4	0.000110	0	-1E+10	1	-1E+10	1	-1E+10	1
4902624	18	C	12/18/2024	13:32	-127.027	47.059	0	1609.70	0	2.2784	0	34.5452	0	27.594	0	1590.194	0	98.1	4	29.8	4	-1E+10	1	0.0584	4	0.000133	0	-1E+10	1	-1E+10	1	-1E+10	1
4902624	18	C	12/18/2024	13:32	-127.027	47.059	0	1625.80	0	2.2560	0	34.5480	0	27.598	0	1606.038	0	-1e10	1	-1e10	1	-1E+10	1	-1e10	1	-1e10	1	-1E+10	1	-1E+10	1	-1E+10	1
4902624	18	C	12/18/2024	13:32	-127.027	47.059	0	1629.60	0	2.2508	0	34.5488	0	27.599	0	1609.777	0	99.8	4	30.3	4	-1E+10	1	0.0582	4	0.000144	0	-1E+10	1	-1E+10	1	-1E+10	1
4902624	18	C	12/18/2024	13:32	-127.027	47.059	0	1645.50	0	2.2292	0	34.5520	0	27.603	0	1625.423	0	103.7	4	31.4	4	-1E+10	1	0.0511	4	0.000121	0	-1E+10	1	-1E+10	1	-1E+10	1
4902624	18	C	12/18/2024	13:32	-127.027	47.059	0	1662.00	0	2.2067	0	34.5554	0	27.608	0	1641.657	0	107.6	4	32.6	4	-1E+10	1	0.0514	4	0.000133	0	-1E+10	1	-1E+10	1	-1E+10	1
4902624	18	C	12/18/2024	13:32	-127.027	47.059	0	1675.00	0	2.1890	0	34.5580	0	27.611	0	1654.448	0	-1e10	1	-1e10	1	-1E+10	1	-1e10	1	-1e10	1	-1E+10	1	-1E+10	1	-1E+10	1
4902624	18	C	12/18/2024	13:32	-127.027	47.059	0	1678.90	0	2.1841	0	34.5586	0	27.612	0	1658.285	0	113.6	4	34.4	4	-1E+10	1	0.0655	4	0.000154	0	-1E+10	1	-1E+10	1	-1E+10	1
4902624	18	C	12/18/2024	13:32	-127.027	47.059	0	1696.10	0	2.1627	0	34.5614	0	27.616	0	1675.205	0	85.9	4	26.0	4	-1E+10	1	0.0584	4	0.000097	0	-1E+10	1	-1E+10	1	-1E+10	1
4902624	18	C	12/18/2024	13:32	-127.027	47.059	0	1713.50	0	2.1411	0	34.5642	0	27.620	0	1692.322	0	90.7	4	27.5	4	-1E+10	1	0.0582	4	0.000097	0	-1E+10	1	-1E+10	1	-1E+10	1
4902624	18	C	12/18/2024	13:32	-127.027	47.059	0	1724.80	0	2.1270	0	34.5660	0	27.623	0	1703.437	0	-1e10	1	-1e10	1	-1E+10	1	-1e10	1	-1e10	1	-1E+10	1	-1E+10	1	-1E+10	1
4902624	18	C	12/18/2024	13:32	-127.027	47.059	0	1731.30	0	2.1201	0	34.5670	0	27.625	0	1709.830	0	90.9	4	27.5	4	-1E+10	1	0.0511	4	0.000097	0	-1E+10	1	-1E+10	1	-1E+10	1
4902624	18	C	12/18/2024	13:32	-127.027	47.059	0	1749.40	0	2.1008	0	34.5700	0	27.628	0	1727.632	0	91.9	4	27.8	4	-1E+10	1	0.0509	4	0.000143	0	-1E+10	1	-1E+10	1	-1E+10	1
4902624	18	C	12/18/2024	13:32	-127.027	47.059	0	1768.00	0	2.0810	0	34.5729	0	27.632	0	1745.924	0	98.6	4	29.8	4	-1E+10	1	0.0368	4	0.000108	0	-1E+10	1	-1E+10	1	-1E+10	1
4902624	18	C	12/18/2024	13:32	-127.027	47.059	0	1774.60	0	2.0740	0	34.5740	0	27.634	0	1752.414	0	-1e10	1	-1e10	1	-1E+10	1	-1e10	1	-1e10	1	-1E+10	1	-1E+10	1	-1E+10	1
4902624	18	C	12/18/2024	13:32	-127.027	47.059	0	1787.20	0	2.0618	0	34.5762	0	27.637	0	1764.805	0	103.3	4	31.2	4	-1E+10	1	0.0511	4	0.000142	0	-1E+10	1	-1E+10	1	-1E+10	1
4902624	18	C	12/18/2024	13:32	-127.027	47.059	0	1806.80	0	2.0428	0	34.5797	0	27.641	0	1784.077	0	104.6	4	31.6	4	-1E+10	1	0.0511	4	0.000131	0	-1E+10	1	-1E+10	1	-1E+10	1
4902624	18	C	12/18/2024	13:32	-127.027	47.059	0	1825.20	0	2.0250	0	34.5830	0	27.645	0	1802.167	0	-1e10	1	-1e10	1	-1E+10	1	-1e10	1	-1e10	1	-1E+10	1	-1E+10	1	-1E+10	1
4902624	18	C	12/18/2024	13:32	-127.027	47.059	0	1827.20	0	2.0233	0	34.5833	0	27.646	0	1804.134	0	106.1	4	32.0	4	-1E+10	1	0.0509	4	0.000119	0	-1E+10	1	-1E+10	1	-1E+10	1
4902624	18	C	12/18/2024	13:32	-127.027	47.059	0	1848.30	0	2.0056	0	34.5862	0	27.649	0	1824.877	0	107.2	4	32.3	4	-1E+10	1	0.0438	4	0.000108	0	-1E+10	1	-1E+10	1	-1E+10	1
4902624	18	C	12/18/2024	13:32	-127.027	47.059	0	1869.80	0	1.9876	0	34.5892	0	27.653	0	1846.011	0	108.2	4	32.6	4	-1E+10	1	0.0436	4	0.000164	0	-1E+10	1	-1E+10	1	-1E+10	1
4902624	18	C	12/18/2024	13:32	-127.027	47.059	0	1875.30	0	1.9830	0	34.5900	0	27.654	0	1851.417	0	-1e10	1	-1e10	1	-1E+10	1	-1e10	1	-1e10	1	-1E+10	1	-1E+10	1	-1E+10	1
4902624	18	C	12/18/2024	13:32	-127.027	47.059	0	1891.70	0	1.9710	0	34.5923	0	27.657	0	1867.536	0	107.8	4	32.5	4	-1E+10	1	0.0368	4	0.000143	0	-1E+10	1	-1E+10	1	-1E+10	1
4902624	18	C	12/18/2024	13:32	-127.027	47.059	0	1914.20	0	1.9544	0	34.5954	0	27.661	0	1889.649	0	108.3	4	32.6	4	-1E+10	1	0.0509	4	0.001733	0	-1E+10	1	-1E+10	1	-1E+10	1
4902624	18	C	12/18/2024	13:32	-127.027	47.059	0	1925.70	0	1.9460	0	34.5970	0	27.663	0	1900.950	0	-1e10	1	-1e10	1	-1E+10	1	-1e10	1	-1e10	1	-1E+10	1	-1E+10	1	-1E+10	1
4902624	18	C	12/18/2024	13:32	-127.027	47.059	0	1930.80	0	1.9425	0	34.5976	0	27.664	0	1905.962	0	109.6	4	33.0	4	-1E+10	1	0.0437	4	0.000141	0	-1E+10	1	-1E+10	1	-1E+10	1
4902624	18	C	12/18/2024	13:32	-127.027	47.059	0	1947.20	0	1.9313	0	34.5997	0	27.667	0	1922.077	0	103.5	4	31.1	4	-1E+10	1	0.0370	4	0.000117	0	-1E+10	1	-1E+10	1	-1E+10	1
4902624	18	C	12/18/2024	13:32	-127.027	47.059	0	1964.70	0	1.9193	0	34.6020	0	27.669	0	1939.271	0	95.4	4	28.7	4	-1E+10	1	0.0653	4	0.000118	0	-1E+10	1	-1E+10	1	-1E+10	1
4902624	18	C	12/18/2024	13:32	-127.027	47.059	0	1965.10	0	1.9190	0	34.6020	0	27.669	0	1939.664	0	-1e10	1	-1e10	1	-1E+10	1	-1e10	1	-1e10	1	-1E+10	1	-1E+10	1	-1E+10	1
4902624	18	C	12/18/2024	13:32	-127.027	47.059	0	1979.60	0	-1e10	1	-1e10	1	-1e10	1	1953.910	0	112.5	4	-1e10	4	-1E+10	1	0.0438	4	0.000171	0	-1E+10	1	-1E+10	1	-1E+10	1
4902624	18	C	12/18/2024	13:32	-127.027	47.059	0																										
4902624	20	C	01/07/2025	03:32	-126.290	46.962	0	0.40	0	9.8410	0	32.2420	0	24.826	0	0.397	0	247.4	4	88.0	4	-1E+10	1	0.6570	4	0.000622	0	-1E+10	1	-1E+10	1	-1E+10	1
4902624	20	C	01/07/2025	03:32	-126.290	46.962	0	0.50	0	9.8410	0	32.2420	0	24.826	0	0.496	0	247.4	4	88.0	4	-1E+10	1	0.6789	4	0.000563	0	-1E+10	1	-1E+10	1	-1E+10	1
4902624	20	C	01/07/2025	03:32	-126.290	46.962	0	0.60	0	9.8410	0	32.2420	0	24.826	0	0.595	0	-1e10	1	-1e10	1	-1E+10	1	-1e10	1	-1e10	1	-1E+10	1	-1E+10	1	-1E+10	1
4902624	20	C	01/07/2025	03:32	-126.290	46.962	0	0.70	0	9.8418	0	32.2418	0	24.825	0	0.694	0	254.3	4	90.5	4	-1E+10	1	0.6789	4	0.000576	0	-1E+10	1	-1E+10	1	-1E+10	1
4902624	20	C	01/07/2025	03:32	-126.290	46.962	0	0.80	0	9.8426	0	32.2416	0	24.825	0	0.793	0	254.6	4	90.6	4	-1E+10	1	0.6789	4	0.000582	0	-1E+10	1	-1E+10	1	-1E+10	1
4902624	20	C	01/07/2025	03:32	-126.290	46.962	0	0.90	0	9.8433	0	32.2413	0	24.825	0	0.893	0	-1e10	1	-1e10	1	-1E+10	1	0.7081	4	0.000605	0	-1E+10	1	-1E+10	1	-1E+10	1
4902624	20	C	01/07/2025	03:32	-126.290	46.962	0	1.30	0	9.8464	0	32.2404	0	24.824	0	1.289	0	-1e10	1	-1e10	1	-1E+10	1	0.6935	4	0.000605	0	-1E+10	1	-1E+10	1	-1E+10	1
4902624	20	C	01/07/2025	03:32	-126.290	46.962	0	1.50	0	9.8480	0	32.2400	0	24.823	0	1.488	0	253.9	4	90.4	4	-1E+10	1	0.7300	4	0.000594	0	-1E+10	1	-1E+10	1	-1E+10	1
4902624	20	C	01/07/2025	03:32	-126.290	46.962	0	1.70	0	9.8484	0	32.2400	0	24.823	0	1.686	0	-1e10	1	-1e10	1	-1E+10	1	0.7154	4	0.000570	0	-1E+10	1	-1E+10	1	-1E+10	1
4902624	20	C	01/07/2025	03:32	-126.290	46.962	0	1.90	0	9.8488	0	32.2400	0	24.823	0	1.884	0	-1e10	1	-1e10	1	-1E+10	1	0.7081	4	0.000594	0	-1E+10	1	-1E+10	1	-1E+10	1
4902624	20	C	01/07/2025	03:32	-126.290	46.962	0	2.10	0	9.8492	0	32.2400	0	24.823	0	2.083	0	-1e10	1	-1e10	1	-1E+10	1	0.6716	4	0.000605	0	-1E+10	1	-1E+10	1	-1E+10	1
4902624	20	C	01/07/2025	03:32	-126.290	46.962	0	2.30	0	9.8496	0	32.2400	0	24.823	0	2.281	0	253.7	4	90.3	4	-1E+10	1	0.7081	4	0.000605	0	-1E+10	1	-1E+10	1	-1E+10	1
4902624	20	C	01/07/2025	03:32	-126.290	46.962	0	2.50	0	9.8500	0	32.2400	0	24.823	0	2.479	0	-1e10	1	-1e10	1	-1E+10	1	0.6862	4	0.000582	0	-1E+10	1	-1E+10	1	-1E+10	1
4902624	20	C	01/07/2025	03:32	-126.290	46.962	0	2.90	0	9.8500	0	32.2404	0	24.823	0	2.876	0	-1e10	1	-1e10	1	-1E+10	1	0.7081	4	0.000617	0	-1E+10	1	-1E+10	1	-1E+10	1
4902624	20	C	01/07/2025	03:32	-126.290	46.962	0	3.10	0	9.8500	0	32.2406	0	24.823	0	3.074	0	-1e10	1	-1e10	1	-1E+10	1	0.6862	4	0.000629	0	-1E+10	1	-1E+10	1	-1E+10	1
4902624	20	C	01/07/2025	03:32	-126.290	46.962	0	3.30	0	9.8500	0	32.2408	0	24.823	0	3.273	0	253.8	4	90.3	4	-1E+10	1	0.7227	4	0.000617	0	-1E+10	1	-1E+10	1	-1E+10	1
4902624	20	C	01/07/2025	03:32	-126.290	46.962	0	3.50	0	9.8500	0	32.2410	0	24.823	0	3.471	0	-1e10	1	-1e10	1	-1E+10	1	0.6643	4	0.000617	0	-1E+10	1	-1E+10	1	-1E+10	1
4902624	20	C	01/07/2025	03:32	-126.290	46.962	0	3.70	0	9.8502	0	32.2408	0	24.823	0	3.669	0	-1e10	1	-1e10	1	-1E+10	1	0.7227	4	0.000605	0	-1E+10	1	-1E+10	1	-1E+10	1
4902624	20	C	01/07/2025	03:32	-126.290	46.962	0	3.90	0	9.8504	0	32.2406	0	24.823	0	3.868	0	-1e10	1	-1e10	1	-1E+10	1	0.6935	4	0.000617	0	-1E+10	1	-1E+10	1	-1E+10	1
4902624	20	C	01/07/2025	03:32	-126.290	46.962	0	4.20	0	9.8507	0	32.2403	0	24.823	0	4.165	0	-1e10	1	-1e10	1	-1E+10	1	0.7081	4	0.000605	0	-1E+10	1	-1E+10	1	-1E+10	1
4902624	20	C	01/07/2025	03:32	-126.290	46.962	0	4.40	0	9.8509	0	32.2401	0	24.823	0	4.363	0	253.7	4	90.3	4	-1E+10	1	0.6716	4	0.000676	0	-1E+10	1	-1E+10	1	-1E+10	1
4902624	20	C	01/07/2025	03:32	-126.290	46.962	0	4.50	0	9.8510	0	32.2400	0	24.822	0	4.463	0	-1e10	1	-1e10	1	-1E+10	1	-1e10	1	-1e10	1	-1E+10	1	-1E+10	1	-1E+10	1
4902624	20	C	01/07/2025	03:32	-126.290	46.962	0	4.80	0	9.8510	0	32.2403	0	24.823	0	4.760	0	-1e10	1	-1e10	1	-1E+10	1	0.7154	4	0.000617	0	-1E+10	1	-1E+10	1	-1E+10	1
4902624	20	C	01/07/2025	03:32	-126.290	46.962	0	5.10	0	9.8510	0	32.2407	0	24.823	0	5.058	0	-1e10	1	-1e10	1	-1E+10	1	0.7227	4	0.000687	0	-1E+10	1	-1E+10	1	-1E+10	1
4902624	20	C	01/07/2025	03:32	-126.290	46.962	0	5.30	0	9.8510	0	32.2409	0	24.823	0	5.256	0	-1e10	1	-1e10	1	-1E+10	1	0.7081	4	0.000793	0	-1E+10	1	-1E+10	1	-1E+10	1
4902624	20	C	01/07/2025	03:32	-126.290	46.962	0	5.40	0	9.8510	0	32.2410	0	24.823	0	5.355	0	-1e10	1	-1e10	1	-1E+10	1	-1e10	1	-1e10	1	-1E+10	1	-1E+10	1	-1E+10	1
4902624	20	C	01/07/2025	03:32	-126.290	46.962	0	5.50	0	9.8511	0	32.2409	0	24.823	0	5.454	0	253.5	4	90.2	4	-1E+10	1	0.6789	4	0.000781	0	-1E+10	1	-1E+10	1	-1E+10	1
4902624	20	C	01/07/2025	03:32	-126.290	46.962	0	5.80	0	9.8514	0	32.2406	0	24.823	0	5.752	0	-1e10	1	-1e10	1	-1E+10	1	0.7081	4	0.000676	0	-1E+10	1	-1E+10	1	-1E+10	1
4902624	20	C	01/07/2025	03:32	-126.290	46.962	0	6.10	0	9.8517	0	32.2403	0	24.823	0	6.049	0	-1e10	1	-1e10	1	-1E+10	1	0.6716	4	0.000594	0	-1E+10	1	-1E+10	1	-1E+10	1
4902624	20	C	01/07/2025	03:32	-126.290	46.962	0	6.30	0	9.8519	0	32.2401	0	24.822	0	6.248	0	-1e10	1	-1e10	1	-1E+10	1	0.7300	4	0.000582	0	-1E+10	1	-1E+10	1	-1E+10	1
4902624	20	C	01/07/2025	03:32	-126.290	46.962	0	6.40	0	9.8520	0	32.2400	0	24.822	0	6.347	0	-1e10	1	-1e10	1	-1E+10	1	-1e10	1	-1e10	1	-1E+10	1	-1E+10	1	-1E+10	1
4902624	20	C	01/07/2025	03:32	-126.290	46.962	0	6.80	0	9.8520	0	32.2404	0	24.823	0	6.743	0	253.4	4	90.2	4	-1E+10	1	0.7519	4	0.000582	0	-1E+10	1	-1E+10	1	-1E+10	1
4902624	20	C	01/07/2025	03:32	-126.290	46.962	0	7.10	0	9.8520	0	32.2407	0	24.823	0	7.041	0	-1e10	1	-1e10	1	-1E+10	1	0.7227	4	0.000594	0	-1E+10	1	-1E+10	1	-1E+10	1
4902624	20	C	01/07/2025	03:32	-126.290	46.962	0	7.30	0	9.8520	0	32.2409	0	24.823	0	7.239	0	-1e10	1	-1e10	1	-1E+10	1	0.6935	4	0.000594	0	-1E+10	1	-1E+10	1	-1E+10	1
4902624	20	C	01/07/2025	03:32	-126.290	46.962	0	7.40	0	9.8520	0	32.2410	0	24.823	0	7.338	0	-1e10	1	-1e10	1	-1E+10	1	-1e10	1	-1e10	1	-1E+10	1	-1E+10	1	-1E+10	1
4902624	20	C	01/07/2025	03:32	-126.290	46.962	0	7.60	0	9.8520	0	32.2408	0	24.823	0	7.537	0	-1e10	1	-1e10	1	-1E+10	1	0.7519	4	0.000617	0	-1E+10	1	-1E+10	1	-1E+10	1
4902624	20	C	01/07/2025	03:32	-126.290	46.962	0	7.80	0	9.8520	0	32.2406	0	24.823	0	7.735	0	-1e10	1	-1e10	1	-1E+10	1	0.6935	4	0.000582	0	-1E+10	1	-1E+10	1	-1E+10	1
4902624	20	C	01/07/2025	03:32	-126.290	46.962	0	8.00	0	9.8520	0	32.2405	0	24.823	0	7.933	0	253.4	4	90.2	4	-1E+10	1	0.6935	4	0.000617	0	-1E+10	1	-1E+10	1	-1E+10	1
4902624	20	C	01/07/2025	03:32	-126.290	46.962	0	8.30	0	9.8520	0	32.2402	0	24.823	0	8.231	0	-1e10	1	-1e10	1	-1E+10	1	0.7227	4	0.000593	0	-1E+10	1	-1E+10	1	-1E+10	1
4902624	20	C	01/07/2025	03:32	-126.290	46.962	0	8.50	0	9.8520	0	32.2400	0	24.822	0	8.429	0	-1e10	1	-1e10	1	-1E+10	1	0.7300	4	0.000605	0	-1E+10	1	-1E+10	1	-1E+10	1
4902624	20	C	01/07/2025	03:32	-126.290	46.962	0	9.00	0	9.8520	0	32.2400	0	24.822	0	8.925	0	-1e10	1	-1e10	1	-1E+10	1	0.7081	4	0.000687	0	-1E+10	1	-1E+10	1	-1E+10	1
4902624	20	C	01/07/2025	03:32	-126.290	46.962	0	9.30	0	9.8520	0	32.2400	0	24.822	0	9.223	0	253.4	4	90.2	4	-1E+10	1	0.7227	4	0.000605	0	-1E+10	1	-1E+10	1	-1E+10	1
4902624	20	C	01/07/2025	03:32	-126.290	46.962	0	9.50	0	9.8520	0	32.2400	0	24.822	0	9.421	0	-1e10	1	-1e10	1	-1E+10	1	0.7446	4	0.000605	0	-1E+10	1	-1E+10	1	-1E+10	1
4902624	20	C	01/07/2025	03:32	-126.290	46.962	0	9.80	0	9.8520	0	32.2400	0	24.822	0	9.718	0	-1e10	1	-1e10	1	-1E+10	1	0.7227	4	0.000582	0	-1E+10	1	-1E+10	1	-1E+10	1
4902624	20	C	01/07/2025	03:32	-126.290	46.962	0	10.50	0	9.8520	0	32.2400	0	24.822	0	10.413	0	253.3	4	90.1	4	-1E+10	1	0.7178	4	0.000691	0	-1E+10	1	-1E+10	1	-1E+10	1
4902624	20	C	01/07/2025	03:32	-126.290	46.962	0	10.90	0	9.8520	0	32.2400	0	24.822	0	10.809	0	-1e10	1	-1e10	1	-1E+10	1	-1e10	1	-1e10	1	-1E+10	1	-1E+10	1	-1E+10	1
4902624	20	C	01/07/2025	03:32	-126.290	46.962	0	11.90	0	9.8525	0	32.2400	0	24.822	0	11.801	0	253.3	4	90.2	4	-1E+10	1	0.7100	4	0.000665	0	-1E+10	1	-1E+10	1	-1E+10	1
4902624	20	C	01/07/2025	03:32	-126.290	46.962	0	13.00	0	9.8530	0	32.2400	0	24.822	0	12.892	0	-1e10	1	-1e10	1	-1E+10	1	-1e10	1	-1e10	1	-1E+10	1	-1E+10	1	-1E+10	1
4902624	20	C	01/07/2025	03:32	-126.290	46.962	0	13.20	0	9.8530	0	32.2400	0	24.822	0	13.090	0	253.2	4	90.1	4	-1E+10	1	0.7172	4	0.000572	0	-1E+10	1	-1E+10	1	-1E+10	1
4902624	20	C	01/07/2025	03:32	-126.290	46.962	0	14.60	0	9.8530	0	32.2400	0	24.822	0	14.478	0	253.1	4	90.1	4	-1E+10	1	0.7300	4	0.000582	0	-1E+10	1	-1E+10	1	-1E+10	1
4902624	20	C	01/07/2025	03:32	-126.290	46.962	0	14.90	0	9.8530	0	32.2400	0	24.822	0	14.776	0	-1e10	1	-1e10	1	-1E+10	1	-1e10	1	-1e10	1	-1E+10	1	-1E+10	1	-1E+10	1
4902624	20	C	01/07/2025	03:32	-126.290	46.962	0	16.00	0	9.8530	0	32.2400	0	24.822	0	15.867	0	253.0	4	90.1	4	-1E+10	1	0.7240	4	0.000591	0	-1E+10	1	-1E+10	1	-1E+10	1
4902624	20	C	01/07/2025	03:32	-126.290	46.962	0	17.00	0	9.8530	0	32.2400	0	24.822	0	16.858	0	-1e10	1	-1e10	1	-1E+10	1	-1e10	1	-1e10	1	-1E+10	1	-1E+10	1	-1E+10	1
4902624	20	C	01/07/2025	03:32	-126.290	46.962	0	17.40	0	9.8532	0	32.2400	0	24.822	0	17.255	0	253.1	4	90.1	4	-1E+10	1	0.7743	4	0.000593	0	-1E+10	1	-1E+10	1	-1E+10	1
4902624	20	C	01/07/2025	03:32	-126.290	46.962	0	18.80	0	9.8539	0	32.2400	0	24.822	0	18.643	0	253.0	4	90.0	4	-1E+10	1	0.7827	4	0.000594	0	-1E+10	1	-1E+10	1	-1E+10	1
4902624	20	C	01/07/2025	03:32	-126.290	46.962	0	19.10	0	9.8540	0	32.2400	0	24.822	0	18.941	0	-1e10	1	-1e10	1	-1E+10	1	-1e10	1	-1e10	1	-1E+10	1	-1E+10	1	-1E+10	1
4902624	20	C	01/07/2025	03:32	-126.290	46.962	0	20.10	0	9.8540	0	32.2400	0	24.822	0	19.932	0	252.9	4	90.0	4	-1E+10	1	0.7762	4	0.000601	0	-1E+10	1	-1E+10	1	-1E+10	1
4902624	20	C	01/07/2025	03:32	-126.290	46.962	0	21.10	0	9.8540	0	32.2400	0	24.822	0	20.924	0	-1e10	1	-1e10	1	-1E+10	1	-1e10	1	-1e10	1	-1E+10	1	-1E+10	1	-1E+10	1
4902624	20	C	01/07/2025	03:32	-126.290	46.962	0	21.30	0	9.8540	0	32.2400	0	24.822	0	21.122	0	252.8	4	90.0	4	-1E+10	1	0.7599	4	0.000583	0	-1E+10	1	-1E+10	1	-1E+10	1
4902624	20	C	01/07/2025	03:32	-126.290	46.962	0	22.30	0	9.8540	0	32.2400	0	24.822	0	22.114	0	252.8	4	90.0	4	-1E+10	1	0.7798	4	0.000583	0	-1E+10	1	-1E+10	1	-1E+10	1
4902624	20	C	01/07/2025	03:32	-126.290	46.962	0	23.00	0	9.8540	0	32.2400	0	24.822	0	22.808	0	-1e10	1	-1e10	1	-1E+10	1	-1e10	1	-1e10	1	-1E+10	1	-1E+10	1	-1E+10	1
4902624	20	C	01/07/2025	03:32	-126.290	46.962	0	23.20	0	9.8540	0	32.2400	0	24.822	0	23.006	0	252.7	4	89.9	4	-1E+10	1	0.8163	4	0.000585	0	-1E+10	1	-1E+10	1	-1E+10	1
4902624	20	C	01/07/2025	03:32	-126.290	46.962	0	24.00	0	9.8540	0	32.2400	0	24.822	0	23.799	0	252.6	4	89.9	4	-1E+10	1	0.8304	4	0.000571	0	-1E+10	1	-1E+10	1	-1E+10	1
4902624	20	C	01/07/2025	03:32	-126.290	46.962	0	24.90	0	9.8540	0	32.2400	0	24.822	0	24.692	0	252.6	4	89.9	4	-1E+10	1	0.7697	4	0.000589	0	-1E+10	1	-1E+10	1	-1E+10	1
4902624	20	C	01/07/2025	03:32	-126.290	46.962	0	25.00	0	9.8540	0	32.2400	0	24.822	0	24.791	0	-1e10	1	-1e10	1	-1E+10	1	-1e10	1	-1e10	1	-1E+10	1	-1E+10	1	-1E+10	1
4902624	20	C	01/07/2025	03:32	-126.290	46.962	0	25.60	0	9.8543	0	32.2403	0	24.823	0	25.386	0	252.5	4	89.9	4	-1E+10	1	0.7811	4	0.000617	0	-1E+10	1	-1E+10	1	-1E+10	1
4902624	20	C	01/07/2025	03:32	-126.290	46.962	0	26.40	0	9.8547	0	32.2407	0	24.823	0	26.179	0	252.5	4	89.9	4	-1E+10	1	0.7811	4	0.000579	0	-1E+10	1	-1E+10	1	-1E+10	1
4902624	20	C	01/07/2025	03:32	-126.290	46.962	0	27.10	0	9.8550	0	32.2410	0	24.823	0	26.873	0	-1e10	1	-1e10	1	-1E+10	1	-1e10	1	-1e10	1	-1E+10	1	-1E+10	1	-1E+10	1
4902624	20	C	01/07/2025	03:32	-126.290	46.962	0	27.20	0	9.8550	0	32.2409	0	24.823	0	26.973	0	252.5	4	89.9	4	-1E+10	1	0.7483	4	0.000561	0	-1E+10	1	-1E+10	1	-1E+10	1
4902624	20	C	01/07/2025	03:32	-126.290	46.962	0	28.00	0	9.8550	0	32.2405	0	24.823	0	27.766	0	252.4	4	89.8	4	-1E+10	1	0.7519	4	0.000582	0	-1E+10	1	-1E+10	1	-1E+10	1
4902624	20	C	01/07/2025	03:32	-126.290	46.962	0	28.70	0	9.8550	0	32.2402	0	24.822	0	28.460	0	252.4	4	89.8	4	-1E+10	1	0.7462	4	0.000583	0	-1E+10	1	-1E+10	1	-1E+10	1
4902624	20	C	01/07/2025	03:32	-126.290	46.962	0	29.00	0	9.8550	0	32.2400	0	24.822	0	28.757	0	-1e10	1	-1e10	1	-1E+10	1	-1e10	1	-1e10	1	-1E+10	1	-1E+10	1	-1E+10	1
4902624	20	C	01/07/2025	03:32	-126.290	46.962	0	29.50	0	9.8550	0	32.2400	0	24.822	0	29.253	0	252.2	4	89.8	4	-1E+10	1	0.7492	4	0.000579	0	-1E+10	1	-1E+10	1	-1E+10	1
4902624	20	C	01/07/2025	03:32	-126.290	46.962	0	30.30	0	9.8550	0	32.2400	0	24.822	0	30.046	0	252.3	4	89.8	4	-1E+10	1	0.7787	4	0.000586	0	-1E+10	1	-1E+10	1	-1E+10	1
4902624	20	C	01/07/2025	03:32	-126.290	46.962	0	31.00	0	9.8550	0	32.2400	0	24.822	0	30.740	0	252.2	4	89.8	4	-1E+10	1	0.7730	4	0.000574	0	-1E+10	1	-1E+10	1	-1E+10	1
4902624	20	C	01/07/2025	03:32	-126.290	46.962	0	31.10	0	9.8550	0	32.2400	0	24.822	0	30.840	0	-1e10	1	-1e10	1	-1E+10	1	-1e10	1	-1e10	1	-1E+10	1	-1E+10	1	-1E+10	1
4902624	20	C	01/07/2025	03:32	-126.290	46.962	0	31.80	0	9.8550	0	32.2400	0	24.822	0	31.534	0	252.2	4	89.8	4	-1E+10	1	0.7665	4	0.000605	0	-1E+10	1	-1E+10	1	-1E+10	1
4902624	20	C	01/07/2025	03:32	-126.290	46.962	0	32.50	0	9.8550	0	32.2400	0	24.822	0	32.228	0	252.0	4	89.7	4	-1E+10	1	0.8030	4	0.000593	0	-1E+10	1	-1E+10	1	-1E+10	1
4902624	20	C	01/07/2025	03:32	-126.290	46.962	0	32.90	0	9.8550	0	32.2400	0	24.822	0	32.624	0	-1e10	1	-1e10	1	-1E+10	1	-1e10	1	-1e10	1	-1E+10	1	-1E+10	1	-1E+10	1
4902624	20	C	01/07/2025	03:32	-126.290	46.962	0	33.30	0	9.8550	0	32.2400	0	24.822	0	33.021	0	251.9	4	89.7	4	-1E+10	1	0.7965	4	0.000625	0	-1E+10	1	-1E+10	1	-1E+10	1
4902624	20	C	01/07/2025	03:32	-126.290	46.962	0	34.00	0	9.8550	0	32.2400	0	24.822	0	33.715	0	251.8	4	89.6	4	-1E+10	1	0.8001	4	0.000593	0	-1E+10	1	-1E+10	1	-1E+10	1
4902624	20	C	01/07/2025	03:32	-126.290	46.962	0	34.80	0	9.8550	0	32.2400	0	24.822	0	34.508	0	251.7	4	89.6	4	-1E+10	1	0.7696	4	0.000590	0	-1E+10	1	-1E+10	1	-1E+10	1
4902624	20	C	01/07/2025	03:32	-126.290	46.962	0	34.90	0	9.8550	0	32.2400	0	24.822	0	34.608	0	-1e10	1	-1e10	1	-1E+10	1	-1e10	1	-1e10	1	-1E+10	1	-1E+10	1	-1E+10	1
4902624	20	C	01/07/2025	03:32	-126.290	46.962	0	35.60	0	9.8550	0	32.2400	0	24.822	0	35.302	0	251.7	4	89.6	4	-1E+10	1	0.7446	4	0.000587	0	-1E+10	1	-1E+10	1	-1E+10	1
4902624	20	C	01/07/2025	03:32	-126.290	46.962	0	36.40	0	9.8550	0	32.2400	0	24.822	0	36.095	0	251.6	4	89.5	4	-1E+10	1	0.7446	4	0.000570	0	-1E+10	1	-1E+10	1	-1E+10	1
4902624	20	C	01/07/2025	03:32	-126.290	46.962	0	37.00	0	9.8550	0	32.2400	0	24.822	0	36.690	0	-1e10	1	-1e10	1	-1E+10	1	-1e10	1	-1e10	1	-1E+10	1	-1E+10	1	-1E+10	1
4902624	20	C	01/07/2025	03:32	-126.290	46.962	0	37.30	0	9.8550	0	32.2400	0	24.822	0	36.987	0	251.4	4	89.5	4	-1E+10	1	0.7511	4	0.000572	0	-1E+10	1	-1E+10	1	-1E+10	1
4902624	20	C	01/07/2025	03:32	-126.290	46.962	0	38.20	0	9.8550	0	32.2400	0	24.822	0	37.880	0	251.3	4	89.4	4	-1E+10	1	0.7751	4	0.000577	0	-1E+10	1	-1E+10	1	-1E+10	1
4902624	20	C	01/07/2025	03:32	-126.290	46.962	0	39.10	0	9.8550	0	32.2400	0	24.822	0	38.772	0	251.3	4	89.4	4	-1E+10	1	0.7811	4	0.000558	0	-1E+10	1	-1E+10	1	-1E+10	1
4902624	20	C	01/07/2025	03:32	-126.290	46.962	0	40.00	0	9.8550	0	32.2400	0	24.822	0	39.664	0	251.0	4	89.3	4	-1E+10	1	0.7811	4	0.000590	0	-1E+10	1	-1E+10	1	-1E+10	1
4902624	20	C	01/07/2025	03:32	-126.290	46.962	0	40.90	0	9.8550	0	32.2400	0	24.822	0	40.557	0	250.8	4	89.3	4	-1E+10	1	0.7928	4	0.000565	0	-1E+10	1	-1E+10	1	-1E+10	1
4902624	20	C	01/07/2025	03:32	-126.290	46.962	0	41.00	0	9.8550	0	32.2400	0	24.822	0	40.656	0	-1e10	1	-1e10	1	-1E+10	1	-1e10	1	-1e10	1	-1E+10	1	-1E+10	1	-1E+10	1
4902624	20	C	01/07/2025	03:32	-126.290	46.962	0	41.80	0	9.8554	0	32.2400	0	24.822	0	41.449	0	250.7	4	89.2	4	-1E+10	1	0.7771	4	0.000588	0	-1E+10	1	-1E+10	1	-1E+10	1
4902624	20	C	01/07/2025	03:32	-126.290	46.962	0	42.80	0	9.8559	0	32.2400	0	24.822	0	42.440	0	250.5	4	89.1	4	-1E+10	1	0.7665	4	0.000599	0	-1E+10	1	-1E+10	1	-1E+10	1
4902624	20	C	01/07/2025	03:32	-126.290	46.962	0	43.00	0	9.8560	0	32.2400	0	24.822	0	42.639	0	-1e10	1	-1e10	1	-1E+10	1	-1e10	1	-1e10	1	-1E+10	1	-1E+10	1	-1E+10	1
4902624	20	C	01/07/2025	03:32	-126.290	46.962	0	43.70	0	9.8560	0	32.2400	0	24.822	0	43.333	0	250.2	4	89.1	4	-1E+10	1	0.7860	4	0.000588	0	-1E+10	1	-1E+10	1	-1E+10	1
4902624	20	C	01/07/2025	03:32	-126.290	46.962	0	44.60	0	9.8560	0	32.2400	0	24.822	0	44.225	0	250.0	4	89.0	4	-1E+10	1	0.7933	4	0.000589	0	-1E+10	1	-1E+10	1	-1E+10	1
4902624	20	C	01/07/2025	03:32	-126.290	46.962	0	45.00	0	9.8560	0	32.2400	0	24.822	0	44.622	0	-1e10	1	-1e10	1	-1E+10	1	-1e10	1	-1e10	1	-1E+10	1	-1E+10	1	-1E+10	1
4902624	20	C	01/07/2025	03:32	-126.290	46.962	0	45.50	0	9.8560	0	32.2400	0	24.822	0	45.118	0	249.8	4	88.9	4	-1E+10	1	0.7619	4	0.000605	0	-1E+10	1	-1E+10	1	-1E+10	1
4902624	20	C	01/07/2025	03:32	-126.290	46.962	0	46.50	0	9.8560	0	32.2400	0	24.822	0	46.109	0	249.5	4	88.8	4	-1E+10	1	0.7884	4	0.000605	0	-1E+10	1	-1E+10	1	-1E+10	1
4902624	20	C	01/07/2025	03:32	-126.290	46.962	0	47.00	0	9.8560	0	32.2400	0	24.822	0	46.605	0	-1e10	1	-1e10	1	-1E+10	1	-1e10	1	-1e10	1	-1E+10	1	-1E+10	1	-1E+10	1
4902624	20	C	01/07/2025	03:32	-126.290	46.962	0	47.40	0	9.8560	0	32.2400	0	24.822	0	47.001	0	249.3	4	88.7	4	-1E+10	1	0.8249	4	0.000617	0	-1E+10	1	-1E+10	1	-1E+10	1
4902624	20	C	01/07/2025	03:32	-126.290	46.962	0	48.40	0	9.8560	0	32.2400	0	24.822	0	47.993	0	249.0	4	88.6	4	-1E+10	1	0.8103	4	0.000581	0	-1E+10	1	-1E+10	1	-1E+10	1
4902624	20	C	01/07/2025	03:32	-126.290	46.962	0	49.00	0	9.8560	0	32.2400	0	24.822	0	48.588	0	-1e10	1	-1e10	1	-1E+10	1	-1e10	1	-1e10	1	-1E+10	1	-1E+10	1	-1E+10	1
4902624	20	C	01/07/2025	03:32	-126.290	46.962	0	49.30	0	9.8560	0	32.2400	0	24.822	0	48.885	0	248.7	4	88.5	4	-1E+10	1	0.7745	4	0.000581	0	-1E+10	1	-1E+10	1	-1E+10	1
4902624	20	C	01/07/2025	03:32	-126.290	46.962	0	50.30	0	9.8560	0	32.2400	0	24.822	0	49.877	0	248.3	4	88.4	4	-1E+10	1	0.7600	4	0.000571	0	-1E+10	1	-1E+10	1	-1E+10	1
4902624	20	C	01/07/2025	03:32	-126.290	46.962	0	51.00	0	9.8560	0	32.2400	0	24.823	0	50.571	0	-1e10	1	-1e10	1	-1E+10	1	-1e10	1	-1e10	1	-1E+10	1	-1E+10	1	-1E+10	1
4902624	20	C	01/07/2025	03:32	-126.290	46.962	0	51.20	0	9.8558	0	32.2402	0	24.823	0	50.769	0	247.9	4	88.2	4	-1E+10	1	0.7751	4	0.000570	0	-1E+10	1	-1E+10	1	-1E+10	1
4902624	20	C	01/07/2025	03:32	-126.290	46.962	0	52.10	0	9.8550	0	32.2410	0	24.824	0	51.661	0	247.6	4	88.1	4	-1E+10	1	0.7811	4	0.000538	0	-1E+10	1	-1E+10	1	-1E+10	1
4902624	20	C	01/07/2025	03:32	-126.290	46.962	0	53.00	0	9.8541	0	32.2419	0	24.824	0	52.554	0	247.4	4	88.1	4	-1E+10	1	0.7681	4	0.000537	0	-1E+10	1	-1E+10	1	-1E+10	1
4902624	20	C	01/07/2025	03:32	-126.290	46.962	0	53.10	0	9.8540	0	32.2420	0	24.824	0	52.653	0	-1e10	1	-1e10	1	-1E+10	1	-1e10	1	-1e10	1	-1E+10	1	-1E+10	1	-1E+10	1
4902624	20	C	01/07/2025	03:32	-126.290	46.962	0	53.90	0	9.8532	0	32.2428	0	24.825	0	53.446	0	247.1	4	87.9	4	-1E+10	1	0.7466	4	0.000561	0	-1E+10	1	-1E+10	1	-1E+10	1
4902624	20	C	01/07/2025	03:32	-126.290	46.962	0	54.80	0	9.8523	0	32.2437	0	24.826	0	54.338	0	246.6	4	87.8	4	-1E+10	1	0.7358	4	0.000553	0	-1E+10	1	-1E+10	1	-1E+10	1
4902624	20	C	01/07/2025	03:32	-126.290	46.962	0	55.10	0	9.8520	0	32.2440	0	24.826	0	54.636	0	-1e10	1	-1e10	1	-1E+10	1	-1e10	1	-1e10	1	-1E+10	1	-1E+10	1	-1E+10	1
4902624	20	C	01/07/2025	03:32	-126.290	46.962	0	55.60	0	9.8520	0	32.2440	0	24.826	0	55.131	0	246.2	4	87.6	4	-1E+10	1	0.7300	4	0.000581	0	-1E+10	1	-1E+10	1	-1E+10	1
4902624	20	C	01/07/2025	03:32	-126.290	46.962	0	56.50	0	9.8520	0	32.2440	0	24.826	0	56.024	0	245.8	4	87.5	4	-1E+10	1	0.7373	4	0.000581	0	-1E+10	1	-1E+10	1	-1E+10	1
4902624	20	C	01/07/2025	03:32	-126.290	46.962	0	57.00	0	9.8520	0	32.2440	0	24.826	0	56.519	0	-1e10	1	-1e10	1	-1E+10	1	-1e10	1	-1e10	1	-1E+10	1	-1E+10	1	-1E+10	1
4902624	20	C	01/07/2025	03:32	-126.290	46.962	0	57.30	0	9.8520	0	32.2440	0	24.826	0	56.817	0	245.2	4	87.3	4	-1E+10	1	0.6964	4	0.000563	0	-1E+10	1	-1E+10	1	-1E+10	1
4902624	20	C	01/07/2025	03:32	-126.290	46.962	0	58.20	0	9.8520	0	32.2440	0	24.826	0	57.709	0	244.6	4	87.0	4	-1E+10	1	0.7187	4	0.000782	0	-1E+10	1	-1E+10	1	-1E+10	1
4902624	20	C	01/07/2025	03:32	-126.290	46.962	0	59.00	0	9.8520	0	32.2440	0	24.826	0	58.502	0	-1e10	1	-1e10	1	-1E+10	1	-1e10	1	-1e10	1	-1E+10	1	-1E+10	1	-1E+10	1
4902624	20	C	01/07/2025	03:32	-126.290	46.962	0	59.10	0	9.8520	0	32.2440	0	24.826	0	58.601	0	243.7	4	86.7	4	-1E+10	1	0.7130	4	0.000688	0	-1E+10	1	-1E+10	1	-1E+10	1
4902624	20	C	01/07/2025	03:32	-126.290	46.962	0	60.00	0	9.8520	0	32.2445	0	24.827	0	59.494	0	242.9	4	86.4	4	-1E+10	1	0.6869	4	0.000538	0	-1E+10	1	-1E+10	1	-1E+10	1
4902624	20	C	01/07/2025	03:32	-126.290	46.962	0	60.90	0	9.8520	0	32.2449	0	24.827	0	60.386	0	241.9	4	86.1	4	-1E+10	1	0.6680	4	0.000577	0	-1E+10	1	-1E+10	1	-1E+10	1
4902624	20	C	01/07/2025	03:32	-126.290	46.962	0	61.00	0	9.8520	0	32.2450	0	24.827	0	60.485	0	-1e10	1	-1e10	1	-1E+10	1	-1e10	1	-1e10	1	-1E+10	1	-1E+10	1	-1E+10	1
4902624	20	C	01/07/2025	03:32	-126.290	46.962	0	61.80	0	9.8524	0	32.2450	0	24.827	0	61.278	0	240.7	4	85.7	4	-1E+10	1	0.6468	4	0.000598	0	-1E+10	1	-1E+10	1	-1E+10	1
4902624	20	C	01/07/2025	03:32	-126.290	46.962	0	62.80	0	9.8529	0	32.2450	0	24.827	0	62.269	0	239.4	4	85.2	4	-1E+10	1	0.6630	4	0.000602	0	-1E+10	1	-1E+10	1	-1E+10	1
4902624	20	C	01/07/2025	03:32	-126.290	46.962	0	63.00	0	9.8530	0	32.2450	0	24.827	0	62.468	0	-1e10	1	-1e10	1	-1E+10	1	-1e10	1	-1e10	1	-1E+10	1	-1E+10	1	-1E+10	1
4902624	20	C	01/07/2025	03:32	-126.290	46.962	0	63.70	0	9.8530	0	32.2454	0	24.827	0	63.162	0	238.0	4	84.7	4	-1E+10	1	0.6570	4	0.000534	0	-1E+10	1	-1E+10	1	-1E+10	1
4902624	20	C	01/07/2025	03:32	-126.290	46.962	0	64.60	0	9.8530	0	32.2458	0	24.828	0	64.054	0	236.5	4	84.2	4	-1E+10	1	0.6510	4	0.000506	0	-1E+10	1	-1E+10	1	-1E+10	1
4902624	20	C	01/07/2025	03:32	-126.290	46.962	0	64.90	0	9.8530	0	32.2460	0	24.828	0	64.351	0	-1e10	1	-1e10	1	-1E+10	1	-1e10	1	-1e10	1	-1E+10	1	-1E+10	1	-1E+10	1
4902624	20	C	01/07/2025	03:32	-126.290	46.962	0	65.50	0	9.8533	0	32.2466	0	24.828	0	64.946	0	234.7	4	83.5	4	-1E+10	1	0.6213	4	0.000527	0	-1E+10	1	-1E+10	1	-1E+10	1
4902624	20	C	01/07/2025	03:32	-126.290	46.962	0	66.40	0	9.8537	0	32.2474	0	24.829	0	65.838	0	232.9	4	82.9	4	-1E+10	1	0.5482	4	0.000482	0	-1E+10	1	-1E+10	1	-1E+10	1
4902624	20	C	01/07/2025	03:32	-126.290	46.962	0	67.00	0	9.8540	0	32.2480	0	24.829	0	66.433	0	-1e10	1	-1e10	1	-1E+10	1	-1e10	1	-1e10	1	-1E+10	1	-1E+10	1	-1E+10	1
4902624	20	C	01/07/2025	03:32	-126.290	46.962	0	67.40	0	9.8530	0	32.2522	0	24.833	0	66.830	0	230.8	4	82.1	4	-1E+10	1	0.4632	4	0.000452	0	-1E+10	1	-1E+10	1	-1E+10	1
4902624	20	C	01/07/2025	03:32	-126.290	46.962	0	68.30	0	9.8507	0	32.2617	0	24.841	0	67.722	0	228.6	4	81.4	4	-1E+10	1	0.4000	4	0.000452	0	-1E+10	1	-1E+10	1	-1E+10	1
4902624	20	C	01/07/2025	03:32	-126.290	46.962	0	69.00	0	9.8490	0	32.2690	0	24.847	0	68.416	0	-1e10	1	-1e10	1	-1E+10	1	-1e10	1	-1e10	1	-1E+10	1	-1E+10	1	-1E+10	1
4902624	20	C	01/07/2025	03:32	-126.290	46.962	0	69.20	0	9.8478	0	32.2718	0	24.849	0	68.614	0	226.1	4	80.5	4	-1E+10	1	0.3491	4	0.000449	0	-1E+10	1	-1E+10	1	-1E+10	1
4902624	20	C	01/07/2025	03:32	-126.290	46.962	0	70.20	0	9.8416	0	32.2856	0	24.861	0	69.606	0	223.3	4	79.5	4	-1E+10	1	0.3054	4	0.000440	0	-1E+10	1	-1E+10	1	-1E+10	1
4902624	20	C	01/07/2025	03:32	-126.290	46.962	0	71.10	0	9.8360	0	32.2980	0	24.871	0	70.498	0	-1e10	1	-1e10	1	-1E+10	1	-1e10	1	-1e10	1	-1E+10	1	-1E+10	1	-1E+10	1
4902624	20	C	01/07/2025	03:32	-126.290	46.962	0	71.20	0	9.8349	0	32.2991	0	24.872	0	70.597	0	220.3	4	78.4	4	-1E+10	1	0.2993	4	0.000440	0	-1E+10	1	-1E+10	1	-1E+10	1
4902624	20	C	01/07/2025	03:32	-126.290	46.962	0	72.10	0	9.8250	0	32.3090	0	24.882	0	71.489	0	217.0	4	77.2	4	-1E+10	1	0.2701	4	0.000417	0	-1E+10	1	-1E+10	1	-1E+10	1
4902624	20	C	01/07/2025	03:32	-126.290	46.962	0	73.10	0	9.8140	0	32.3200	0	24.892	0	72.481	0	213.6	4	76.0	4	-1E+10	1	0.2628	4	0.000406	0	-1E+10	1	-1E+10	1	-1E+10	1
4902624	20	C	01/07/2025	03:32	-126.290	46.962	0	73.70	0	9.7988	0	32.3276	0	24.901	0	73.075	0	211.3	4	75.2	4	-1E+10	1	0.2683	4	0.000423	0	-1E+10	1	-1E+10	1	-1E+10	1
4902624	20	C	01/07/2025	03:32	-126.290	46.962	0	74.20	0	9.7862	0	32.3339	0	24.908	0	73.571	0	209.4	4	74.5	4	-1E+10	1	0.2745	4	0.000394	0	-1E+10	1	-1E+10	1	-1E+10	1
4902624	20	C	01/07/2025	03:32	-126.290	46.962	0	74.70	0	9.7736	0	32.3402	0	24.915	0	74.067	0	207.8	4	73.9	4	-1E+10	1	0.2774	4	0.000363	0	-1E+10	1	-1E+10	1	-1E+10	1
4902624	20	C	01/07/2025	03:32	-126.290	46.962	0	75.00	0	9.7660	0	32.3440	0	24.919	0	74.364	0	-1e10	1	-1e10	1	-1E+10	1	-1e10	1	-1e10	1	-1E+10	1	-1E+10	1	-1E+10	1
4902624	20	C	01/07/2025	03:32	-126.290	46.962	0	75.10	0	9.7540	0	32.3491	0	24.925	0	74.463	0	205.9	4	73.2	4	-1E+10	1	0.2725	4	0.000370	0	-1E+10	1	-1E+10	1	-1E+10	1
4902624	20	C	01/07/2025	03:32	-126.290	46.962	0	75.60	0	9.6937	0	32.3746	0	24.954	0	74.959	0	203.3	4	72.2	4	-1E+10	1	0.2584	4	0.000394	0	-1E+10	1	-1E+10	1	-1E+10	1
4902624	20	C	01/07/2025	03:32	-126.290	46.962	0	76.10	0	9.6334	0	32.4001	0	24.984	0	75.455	0	200.7	4	71.2	4	-1E+10	1	0.2409	4	0.000391	0	-1E+10	1	-1E+10	1	-1E+10	1
4902624	20	C	01/07/2025	03:32	-126.290	46.962	0	76.50	0	9.5852	0	32.4205	0	25.008	0	75.851	0	198.3	4	70.3	4	-1E+10	1	0.2409	4	0.000382	0	-1E+10	1	-1E+10	1	-1E+10	1
4902624	20	C	01/07/2025	03:32	-126.290	46.962	0	77.00	0	9.5250	0	32.4460	0	25.037	0	76.347	0	194.8	4	68.9	4	-1E+10	1	0.2166	4	0.000401	0	-1E+10	1	-1E+10	1	-1E+10	1
4902624	20	C	01/07/2025	03:32	-126.290	46.962	0	77.50	0	9.4790	0	32.4707	0	25.064	0	76.843	0	191.6	4	67.8	4	-1E+10	1	0.2117	4	0.000377	0	-1E+10	1	-1E+10	1	-1E+10	1
4902624	20	C	01/07/2025	03:32	-126.290	46.962	0	78.00	0	9.4330	0	32.4955	0	25.091	0	77.338	0	188.7	4	66.7	4	-1E+10	1	0.2068	4	0.000370	0	-1E+10	1	-1E+10	1	-1E+10	1
4902624	20	C	01/07/2025	03:32	-126.290	46.962	0	78.50	0	9.3870	0	32.5202	0	25.118	0	77.834	0	186.6	4	65.9	4	-1E+10	1	0.2081	4	0.000358	0	-1E+10	1	-1E+10	1	-1E+10	1
4902624	20	C	01/07/2025	03:32	-126.290	46.962	0	79.00	0	9.3410	0	32.5450	0	25.144	0	78.330	0	183.3	4	64.6	4	-1E+10	1	0.2029	4	0.000356	0	-1E+10	1	-1E+10	1	-1E+10	1
4902624	20	C	01/07/2025	03:32	-126.290	46.962	0	79.50	0	9.2910	0	32.5740	0	25.175	0	78.825	0	179.8	4	63.3	4	-1E+10	1	0.1856	4	0.000377	0	-1E+10	1	-1E+10	1	-1E+10	1
4902624	20	C	01/07/2025	03:32	-126.290	46.962	0	80.10	0	9.2310	0	32.6088	0	25.212	0	79.420	0	176.3	4	62.1	4	-1E+10	1	0.1752	4	0.000393	0	-1E+10	1	-1E+10	1	-1E+10	1
4902624	20	C	01/07/2025	03:32	-126.290	46.962	0	80.70	0	9.1710	0	32.6436	0	25.248	0	80.015	0	173.5	4	61.0	4	-1E+10	1	0.1752	4	0.000393	0	-1E+10	1	-1E+10	1	-1E+10	1
4902624	20	C	01/07/2025	03:32	-126.290	46.962	0	81.00	0	9.1410	0	32.6610	0	25.267	0	80.312	0	-1e10	1	-1e10	1	-1E+10	1	-1e10	1	-1e10	1	-1E+10	1	-1E+10	1	-1E+10	1
4902624	20	C	01/07/2025	03:32	-126.290	46.962	0	81.20	0	9.1284	0	32.6668	0	25.273	0	80.510	0	170.5	4	59.9	4	-1E+10	1	0.1679	4	0.000382	0	-1E+10	1	-1E+10	1	-1E+10	1
4902624	20	C	01/07/2025	03:32	-126.290	46.962	0	81.80	0	9.0905	0	32.6842	0	25.293	0	81.105	0	167.4	4	58.8	4	-1E+10	1	0.1616	4	0.000362	0	-1E+10	1	-1E+10	1	-1E+10	1
4902624	20	C	01/07/2025	03:32	-126.290	46.962	0	82.40	0	9.0526	0	32.7015	0	25.312	0	81.700	0	163.3	4	57.3	4	-1E+10	1	0.1606	4	0.000350	0	-1E+10	1	-1E+10	1	-1E+10	1
4902624	20	C	01/07/2025	03:32	-126.290	46.962	0	82.90	0	9.0210	0	32.7160	0	25.328	0	82.196	0	-1e10	1	-1e10	1	-1E+10	1	-1e10	1	-1e10	1	-1E+10	1	-1E+10	1	-1E+10	1
4902624	20	C	01/07/2025	03:32	-126.290	46.962	0	83.00	0	9.0058	0	32.7239	0	25.337	0	82.295	0	158.8	4	55.7	4	-1E+10	1	0.1509	4	0.000370	0	-1E+10	1	-1E+10	1	-1E+10	1
4902624	20	C	01/07/2025	03:32	-126.290	46.962	0	83.60	0	8.9147	0	32.7713	0	25.388	0	82.890	0	154.8	4	54.2	4	-1E+10	1	0.1418	4	0.000388	0	-1E+10	1	-1E+10	1	-1E+10	1
4902624	20	C	01/07/2025	03:32	-126.290	46.962	0	84.40	0	8.7931	0	32.8346	0	25.457	0	83.683	0	150.1	4	52.4	4	-1E+10	1	0.1204	4	0.000423	0	-1E+10	1	-1E+10	1	-1E+10	1
4902624	20	C	01/07/2025	03:32	-126.290	46.962	0	85.00	0	8.7020	0	32.8820	0	25.508	0	84.277	0	-1e10	1	-1e10	1	-1E+10	1	-1e10	1	-1e10	1	-1E+10	1	-1E+10	1	-1E+10	1
4902624	20	C	01/07/2025	03:32	-126.290	46.962	0	85.30	0	8.6313	0	32.9178	0	25.547	0	84.575	0	145.9	4	50.8	4	-1E+10	1	0.1022	4	0.000416	0	-1E+10	1	-1E+10	1	-1E+10	1
4902624	20	C	01/07/2025	03:32	-126.290	46.962	0	86.20	0	8.4191	0	33.0254	0	25.663	0	85.467	0	143.3	4	49.7	4	-1E+10	1	0.0998	4	0.000366	0	-1E+10	1	-1E+10	1	-1E+10	1
4902624	20	C	01/07/2025	03:32	-126.290	46.962	0	86.90	0	8.2540	0	33.1090	0	25.753	0	86.161	0	-1e10	1	-1e10	1	-1E+10	1	-1e10	1	-1e10	1	-1E+10	1	-1E+10	1	-1E+10	1
4902624	20	C	01/07/2025	03:32	-126.290	46.962	0	87.20	0	8.2263	0	33.1239	0	25.769	0	86.458	0	140.6	4	48.6	4	-1E+10	1	0.0925	4	0.000352	0	-1E+10	1	-1E+10	1	-1E+10	1
4902624	20	C	01/07/2025	03:32	-126.290	46.962	0	88.20	0	8.1339	0	33.1734	0	25.821	0	87.450	0	139.2	4	48.0	4	-1E+10	1	0.0803	4	0.000323	0	-1E+10	1	-1E+10	1	-1E+10	1
4902624	20	C	01/07/2025	03:32	-126.290	46.962	0	89.00	0	8.0600	0	33.2130	0	25.863	0	88.243	0	-1e10	1	-1e10	1	-1E+10	1	-1e10	1	-1e10	1	-1E+10	1	-1E+10	1	-1E+10	1
4902624	20	C	01/07/2025	03:32	-126.290	46.962	0	89.30	0	8.0445	0	33.2213	0	25.872	0	88.540	0	138.4	4	47.7	4	-1E+10	1	0.0803	4	0.000311	0	-1E+10	1	-1E+10	1	-1E+10	1
4902624	20	C	01/07/2025	03:32	-126.290	46.962	0	90.40	0	7.9879	0	33.2515	0	25.904	0	89.630	0	138.0	4	47.5	4	-1E+10	1	0.0803	4	0.000371	0	-1E+10	1	-1E+10	1	-1E+10	1
4902624	20	C	01/07/2025	03:32	-126.290	46.962	0	91.00	0	7.9570	0	33.2680	0	25.922	0	90.225	0	-1e10	1	-1e10	1	-1E+10	1	-1e10	1	-1e10	1	-1E+10	1	-1E+10	1	-1E+10	1
4902624	20	C	01/07/2025	03:32	-126.290	46.962	0	91.50	0	7.9430	0	33.2765	0	25.930	0	90.721	0	137.6	4	47.3	4	-1E+10	1	0.0752	4	0.000349	0	-1E+10	1	-1E+10	1	-1E+10	1
4902624	20	C	01/07/2025	03:32	-126.290	46.962	0	92.60	0	7.9122	0	33.2952	0	25.949	0	91.811	0	137.1	4	47.1	4	-1E+10	1	0.0645	4	0.000328	0	-1E+10	1	-1E+10	1	-1E+10	1
4902624	20	C	01/07/2025	03:32	-126.290	46.962	0	93.00	0	7.9010	0	33.3020	0	25.956	0	92.208	0	-1e10	1	-1e10	1	-1E+10	1	-1e10	1	-1e10	1	-1E+10	1	-1E+10	1	-1E+10	1
4902624	20	C	01/07/2025	03:32	-126.290	46.962	0	93.80	0	7.8814	0	33.3200	0	25.973	0	93.001	0	136.7	4	46.9	4	-1E+10	1	0.0620	4	0.000329	0	-1E+10	1	-1E+10	1	-1E+10	1
4902624	20	C	01/07/2025	03:32	-126.290	46.962	0	95.00	0	7.8520	0	33.3470	0	25.999	0	94.190	0	134.9	4	46.3	4	-1E+10	1	0.0631	4	0.000331	0	-1E+10	1	-1E+10	1	-1E+10	1
4902624	20	C	01/07/2025	03:32	-126.290	46.962	0	96.20	0	7.8189	0	33.3819	0	26.031	0	95.380	0	136.0	4	46.7	4	-1E+10	1	0.0601	4	0.000326	0	-1E+10	1	-1E+10	1	-1E+10	1
4902624	20	C	01/07/2025	03:32	-126.290	46.962	0	97.10	0	7.7940	0	33.4080	0	26.055	0	96.272	0	-1e10	1	-1e10	1	-1E+10	1	-1e10	1	-1e10	1	-1E+10	1	-1E+10	1	-1E+10	1
4902624	20	C	01/07/2025	03:32	-126.290	46.962	0	97.40	0	7.7916	0	33.4113	0	26.058	0	96.569	0	135.8	4	46.6	4	-1E+10	1	0.0647	4	0.000336	0	-1E+10	1	-1E+10	1	-1E+10	1
4902624	20	C	01/07/2025	03:32	-126.290	46.962	0	98.60	0	7.7822	0	33.4246	0	26.070	0	97.759	0	135.6	4	46.5	4	-1E+10	1	0.0584	4	0.000346	0	-1E+10	1	-1E+10	1	-1E+10	1
4902624	20	C	01/07/2025	03:32	-126.290	46.962	0	99.00	0	7.7790	0	33.4290	0	26.074	0	98.155	0	-1e10	1	-1e10	1	-1E+10	1	-1e10	1	-1e10	1	-1E+10	1	-1E+10	1	-1E+10	1
4902624	20	C	01/07/2025	03:32	-126.290	46.962	0	100.10	0	7.7724	0	33.4389	0	26.083	0	99.245	0	135.0	4	46.3	4	-1E+10	1	0.0657	4	0.000299	0	-1E+10	1	-1E+10	1	-1E+10	1
4902624	20	C	01/07/2025	03:32	-126.290	46.962	0	101.00	0	7.7670	0	33.4470	0	26.090	0	100.138	0	-1e10	1	-1e10	1	-1E+10	1	-1e10	1	-1e10	1	-1E+10	1	-1E+10	1	-1E+10	1
4902624	20	C	01/07/2025	03:32	-126.290	46.962	0	101.20	0	7.7661	0	33.4486	0	26.091	0	100.336	0	134.1	4	46.0	4	-1E+10	1	0.0584	4	0.000299	0	-1E+10	1	-1E+10	1	-1E+10	1
4902624	20	C	01/07/2025	03:32	-126.290	46.962	0	102.00	0	7.7625	0	33.4550	0	26.097	0	101.129	0	135.2	4	46.4	4	-1E+10	1	0.0531	4	0.000299	0	-1E+10	1	-1E+10	1	-1E+10	1
4902624	20	C	01/07/2025	03:32	-126.290	46.962	0	102.80	0	7.7589	0	33.4614	0	26.102	0	101.922	0	135.2	4	46.3	4	-1E+10	1	0.0430	4	0.000306	0	-1E+10	1	-1E+10	1	-1E+10	1
4902624	20	C	01/07/2025	03:32	-126.290	46.962	0	103.00	0	7.7580	0	33.4630	0	26.104	0	102.120	0	-1e10	1	-1e10	1	-1E+10	1	-1e10	1	-1e10	1	-1E+10	1	-1E+10	1	-1E+10	1
4902624	20	C	01/07/2025	03:32	-126.290	46.962	0	103.50	0	7.7562	0	33.4658	0	26.106	0	102.616	0	135.1	4	46.3	4	-1E+10	1	0.0365	4	0.000321	0	-1E+10	1	-1E+10	1	-1E+10	1
4902624	20	C	01/07/2025	03:32	-126.290	46.962	0	104.20	0	7.7538	0	33.4696	0	26.110	0	103.309	0	135.1	4	46.3	4	-1E+10	1	0.0414	4	0.000331	0	-1E+10	1	-1E+10	1	-1E+10	1
4902624	20	C	01/07/2025	03:32	-126.290	46.962	0	105.00	0	7.7510	0	33.4740	0	26.113	0	104.102	0	133.5	4	45.8	4	-1E+10	1	0.0527	4	0.000339	0	-1E+10	1	-1E+10	1	-1E+10	1
4902624	20	C	01/07/2025	03:32	-126.290	46.962	0	105.70	0	7.7455	0	33.4795	0	26.119	0	104.796	0	135.1	4	46.3	4	-1E+10	1	0.0584	4	0.000393	0	-1E+10	1	-1E+10	1	-1E+10	1
4902624	20	C	01/07/2025	03:32	-126.290	46.962	0	106.50	0	7.7392	0	33.4858	0	26.124	0	105.589	0	135.1	4	46.3	4	-1E+10	1	0.0657	4	0.000276	0	-1E+10	1	-1E+10	1	-1E+10	1
4902624	20	C	01/07/2025	03:32	-126.290	46.962	0	106.90	0	7.7360	0	33.4890	0	26.127	0	105.986	0	-1e10	1	-1e10	1	-1E+10	1	-1e10	1	-1e10	1	-1E+10	1	-1E+10	1	-1E+10	1
4902624	20	C	01/07/2025	03:32	-126.290	46.962	0	107.20	0	7.7315	0	33.4921	0	26.130	0	106.283	0	135.2	4	46.3	4	-1E+10	1	0.0487	4	0.000303	0	-1E+10	1	-1E+10	1	-1E+10	1
4902624	20	C	01/07/2025	03:32	-126.290	46.962	0	108.00	0	7.7195	0	33.5005	0	26.139	0	107.076	0	135.3	4	46.4	4	-1E+10	1	0.0535	4	0.000288	0	-1E+10	1	-1E+10	1	-1E+10	1
4902624	20	C	01/07/2025	03:32	-126.290	46.962	0	108.70	0	7.7090	0	33.5078	0	26.146	0	107.770	0	135.5	4	46.4	4	-1E+10	1	0.0542	4	0.000303	0	-1E+10	1	-1E+10	1	-1E+10	1
4902624	20	C	01/07/2025	03:32	-126.290	46.962	0	109.10	0	7.7030	0	33.5120	0	26.150	0	108.166	0	-1e10	1	-1e10	1	-1E+10	1	-1e10	1	-1e10	1	-1E+10	1	-1E+10	1	-1E+10	1
4902624	20	C	01/07/2025	03:32	-126.290	46.962	0	109.40	0	7.6998	0	33.5141	0	26.152	0	108.464	0	135.7	4	46.5	4	-1E+10	1	0.0543	4	0.000354	0	-1E+10	1	-1E+10	1	-1E+10	1
4902624	20	C	01/07/2025	03:32	-126.290	46.962	0	110.20	0	7.6914	0	33.5195	0	26.158	0	109.257	0	135.9	4	46.5	4	-1E+10	1	0.0560	4	0.000370	0	-1E+10	1	-1E+10	1	-1E+10	1
4902624	20	C	01/07/2025	03:32	-126.290	46.962	0	111.00	0	7.6830	0	33.5250	0	26.163	0	110.049	0	134.6	4	46.1	4	-1E+10	1	0.0493	4	0.000320	0	-1E+10	1	-1E+10	1	-1E+10	1
4902624	20	C	01/07/2025	03:32	-126.290	46.962	0	111.70	0	7.6661	0	33.5324	0	26.172	0	110.743	0	136.6	4	46.7	4	-1E+10	1	0.0438	4	0.000314	0	-1E+10	1	-1E+10	1	-1E+10	1
4902624	20	C	01/07/2025	03:32	-126.290	46.962	0	112.50	0	7.6467	0	33.5408	0	26.181	0	111.536	0	136.9	4	46.8	4	-1E+10	1	0.0438	4	0.000335	0	-1E+10	1	-1E+10	1	-1E+10	1
4902624	20	C	01/07/2025	03:32	-126.290	46.962	0	112.90	0	7.6370	0	33.5450	0	26.186	0	111.933	0	-1e10	1	-1e10	1	-1E+10	1	-1e10	1	-1e10	1	-1E+10	1	-1E+10	1	-1E+10	1
4902624	20	C	01/07/2025	03:32	-126.290	46.962	0	113.30	0	7.6240	0	33.5494	0	26.191	0	112.329	0	137.2	4	46.9	4	-1E+10	1	0.0438	4	0.000314	0	-1E+10	1	-1E+10	1	-1E+10	1
4902624	20	C	01/07/2025	03:32	-126.290	46.962	0	114.10	0	7.5981	0	33.5581	0	26.202	0	113.122	0	137.5	4	47.0	4	-1E+10	1	0.0374	4	0.000362	0	-1E+10	1	-1E+10	1	-1E+10	1
4902624	20	C	01/07/2025	03:32	-126.290	46.962	0	114.90	0	7.5722	0	33.5669	0	26.212	0	113.915	0	137.9	4	47.1	4	-1E+10	1	0.0467	4	0.000337	0	-1E+10	1	-1E+10	1	-1E+10	1
4902624	20	C	01/07/2025	03:32	-126.290	46.962	0	115.00	0	7.5690	0	33.5680	0	26.213	0	114.014	0	-1e10	1	-1e10	1	-1E+10	1	-1e10	1	-1e10	1	-1E+10	1	-1E+10	1	-1E+10	1
4902624	20	C	01/07/2025	03:32	-126.290	46.962	0	115.70	0	7.5483	0	33.5730	0	26.220	0	114.708	0	138.2	4	47.2	4	-1E+10	1	0.0592	4	0.000297	0	-1E+10	1	-1E+10	1	-1E+10	1
4902624	20	C	01/07/2025	03:32	-126.290	46.962	0	116.50	0	7.5247	0	33.5787	0	26.228	0	115.501	0	138.3	4	47.2	4	-1E+10	1	0.0625	4	0.000323	0	-1E+10	1	-1E+10	1	-1E+10	1
4902624	20	C	01/07/2025	03:32	-126.290	46.962	0	117.10	0	7.5070	0	33.5830	0	26.234	0	116.095	0	-1e10	1	-1e10	1	-1E+10	1	-1e10	1	-1e10	1	-1E+10	1	-1E+10	1	-1E+10	1
4902624	20	C	01/07/2025	03:32	-126.290	46.962	0	117.30	0	7.5041	0	33.5837	0	26.235	0	116.294	0	138.5	4	47.2	4	-1E+10	1	0.0562	4	0.000367	0	-1E+10	1	-1E+10	1	-1E+10	1
4902624	20	C	01/07/2025	03:32	-126.290	46.962	0	118.10	0	7.4923	0	33.5867	0	26.239	0	117.087	0	138.6	4	47.3	4	-1E+10	1	0.0503	4	0.000328	0	-1E+10	1	-1E+10	1	-1E+10	1
4902624	20	C	01/07/2025	03:32	-126.290	46.962	0	118.90	0	7.4805	0	33.5896	0	26.243	0	117.880	0	138.8	4	47.3	4	-1E+10	1	0.0438	4	0.000276	0	-1E+10	1	-1E+10	1	-1E+10	1
4902624	20	C	01/07/2025	03:32	-126.290	46.962	0	119.00	0	7.4790	0	33.5900	0	26.244	0	117.979	0	-1e10	1	-1e10	1	-1E+10	1	-1e10	1	-1e10	1	-1E+10	1	-1E+10	1	-1E+10	1
4902624	20	C	01/07/2025	03:32	-126.290	46.962	0	119.70	0	7.4650	0	33.5935	0	26.248	0	118.672	0	138.9	4	47.4	4	-1E+10	1	0.0365	4	0.000264	0	-1E+10	1	-1E+10	1	-1E+10	1
4902624	20	C	01/07/2025	03:32	-126.290	46.962	0	120.60	0	7.4470	0	33.5980	0	26.254	0	119.564	0	139.1	4	47.4	4	-1E+10	1	0.0425	4	0.000293	0	-1E+10	1	-1E+10	1	-1E+10	1
4902624	20	C	01/07/2025	03:32	-126.290	46.962	0	121.00	0	7.4390	0	33.6000	0	26.257	0	119.961	0	-1e10	1	-1e10	1	-1E+10	1	-1e10	1	-1e10	1	-1E+10	1	-1E+10	1	-1E+10	1
4902624	20	C	01/07/2025	03:32	-126.290	46.962	0	121.50	0	7.4119	0	33.6043	0	26.264	0	120.456	0	139.2	4	47.4	4	-1E+10	1	0.0489	4	0.000283	0	-1E+10	1	-1E+10	1	-1E+10	1
4902624	20	C	01/07/2025	03:32	-126.290	46.962	0	122.30	0	7.3684	0	33.6111	0	26.276	0	121.249	0	138.9	4	47.3	4	-1E+10	1	0.0511	4	0.000302	0	-1E+10	1	-1E+10	1	-1E+10	1
4902624	20	C	01/07/2025	03:32	-126.290	46.962	0	123.10	0	7.3250	0	33.6180	0	26.287	0	122.042	0	-1e10	1	-1e10	1	-1E+10	1	-1e10	1	-1e10	1	-1E+10	1	-1E+10	1	-1E+10	1
4902624	20	C	01/07/2025	03:32	-126.290	46.962	0	123.20	0	7.3228	0	33.6188	0	26.288	0	122.141	0	138.4	4	47.0	4	-1E+10	1	0.0378	4	0.000323	0	-1E+10	1	-1E+10	1	-1E+10	1
4902624	20	C	01/07/2025	03:32	-126.290	46.962	0	124.10	0	7.3035	0	33.6260	0	26.296	0	123.033	0	137.9	4	46.9	4	-1E+10	1	0.0279	4	0.000316	0	-1E+10	1	-1E+10	1	-1E+10	1
4902624	20	C	01/07/2025	03:32	-126.290	46.962	0	125.00	0	7.2842	0	33.6332	0	26.305	0	123.925	0	137.3	4	46.6	4	-1E+10	1	0.0430	4	0.000297	0	-1E+10	1	-1E+10	1	-1E+10	1
4902624	20	C	01/07/2025	03:32	-126.290	46.962	0	125.10	0	7.2820	0	33.6340	0	26.306	0	124.024	0	-1e10	1	-1e10	1	-1E+10	1	-1e10	1	-1e10	1	-1E+10	1	-1E+10	1	-1E+10	1
4902624	20	C	01/07/2025	03:32	-126.290	46.962	0	125.90	0	7.2740	0	33.6395	0	26.311	0	124.817	0	136.7	4	46.4	4	-1E+10	1	0.0358	4	0.000280	0	-1E+10	1	-1E+10	1	-1E+10	1
4902624	20	C	01/07/2025	03:32	-126.290	46.962	0	126.90	0	7.2640	0	33.6463	0	26.318	0	125.808	0	136.0	4	46.1	4	-1E+10	1	0.0292	4	0.000323	0	-1E+10	1	-1E+10	1	-1E+10	1
4902624	20	C	01/07/2025	03:32	-126.290	46.962	0	127.00	0	7.2630	0	33.6470	0	26.319	0	125.908	0	-1e10	1	-1e10	1	-1E+10	1	-1e10	1	-1e10	1	-1E+10	1	-1E+10	1	-1E+10	1
4902624	20	C	01/07/2025	03:32	-126.290	46.962	0	127.80	0	7.2510	0	33.6514	0	26.324	0	126.700	0	135.2	4	45.9	4	-1E+10	1	0.0411	4	0.000275	0	-1E+10	1	-1E+10	1	-1E+10	1
4902624	20	C	01/07/2025	03:32	-126.290	46.962	0	128.80	0	7.2360	0	33.6569	0	26.330	0	127.692	0	134.4	4	45.6	4	-1E+10	1	0.0321	4	0.000269	0	-1E+10	1	-1E+10	1	-1E+10	1
4902624	20	C	01/07/2025	03:32	-126.290	46.962	0	129.00	0	7.2330	0	33.6580	0	26.332	0	127.890	0	-1e10	1	-1e10	1	-1E+10	1	-1e10	1	-1e10	1	-1E+10	1	-1E+10	1	-1E+10	1
4902624	20	C	01/07/2025	03:32	-126.290	46.962	0	129.70	0	7.2176	0	33.6654	0	26.339	0	128.583	0	133.6	4	45.3	4	-1E+10	1	0.0385	4	0.000311	0	-1E+10	1	-1E+10	1	-1E+10	1
4902624	20	C	01/07/2025	03:32	-126.290	46.962	0	130.70	0	7.1956	0	33.6758	0	26.351	0	129.575	0	132.7	4	45.0	4	-1E+10	1	0.0438	4	0.000311	0	-1E+10	1	-1E+10	1	-1E+10	1
4902624	20	C	01/07/2025	03:32	-126.290	46.962	0	131.00	0	7.1890	0	33.6790	0	26.354	0	129.872	0	-1e10	1	-1e10	1	-1E+10	1	-1e10	1	-1e10	1	-1E+10	1	-1E+10	1	-1E+10	1
4902624	20	C	01/07/2025	03:32	-126.290	46.962	0	131.70	0	7.1796	0	33.6832	0	26.359	0	130.566	0	131.6	4	44.6	4	-1E+10	1	0.0380	4	0.000330	0	-1E+10	1	-1E+10	1	-1E+10	1
4902624	20	C	01/07/2025	03:32	-126.290	46.962	0	132.70	0	7.1660	0	33.6892	0	26.365	0	131.557	0	130.4	4	44.2	4	-1E+10	1	0.0292	4	0.000362	0	-1E+10	1	-1E+10	1	-1E+10	1
4902624	20	C	01/07/2025	03:32	-126.290	46.962	0	133.00	0	7.1620	0	33.6910	0	26.367	0	131.854	0	-1e10	1	-1e10	1	-1E+10	1	-1e10	1	-1e10	1	-1E+10	1	-1E+10	1	-1E+10	1
4902624	20	C	01/07/2025	03:32	-126.290	46.962	0	133.70	0	7.1522	0	33.6980	0	26.374	0	132.548	0	129.0	4	43.7	4	-1E+10	1	0.0304	4	0.000297	0	-1E+10	1	-1E+10	1	-1E+10	1
4902624	20	C	01/07/2025	03:32	-126.290	46.962	0	134.70	0	7.1382	0	33.7080	0	26.384	0	133.539	0	127.7	4	43.3	4	-1E+10	1	0.0365	4	0.000287	0	-1E+10	1	-1E+10	1	-1E+10	1
4902624	20	C	01/07/2025	03:32	-126.290	46.962	0	135.00	0	7.1340	0	33.7110	0	26.387	0	133.836	0	-1e10	1	-1e10	1	-1E+10	1	-1e10	1	-1e10	1	-1E+10	1	-1E+10	1	-1E+10	1
4902624	20	C	01/07/2025	03:32	-126.290	46.962	0	135.70	0	7.1317	0	33.7163	0	26.392	0	134.530	0	126.3	4	42.8	4	-1E+10	1	0.0438	4	0.000276	0	-1E+10	1	-1E+10	1	-1E+10	1
4902624	20	C	01/07/2025	03:32	-126.290	46.962	0	136.70	0	7.1283	0	33.7240	0	26.398	0	135.521	0	124.8	4	42.3	4	-1E+10	1	0.0377	4	0.000276	0	-1E+10	1	-1E+10	1	-1E+10	1
4902624	20	C	01/07/2025	03:32	-126.290	46.962	0	137.10	0	7.1270	0	33.7270	0	26.401	0	135.917	0	-1e10	1	-1e10	1	-1E+10	1	-1e10	1	-1e10	1	-1E+10	1	-1E+10	1	-1E+10	1
4902624	20	C	01/07/2025	03:32	-126.290	46.962	0	137.70	0	7.1245	0	33.7308	0	26.404	0	136.512	0	123.4	4	41.8	4	-1E+10	1	0.0268	4	0.000276	0	-1E+10	1	-1E+10	1	-1E+10	1
4902624	20	C	01/07/2025	03:32	-126.290	46.962	0	138.80	0	7.1198	0	33.7377	0	26.410	0	137.602	0	121.9	4	41.3	4	-1E+10	1	0.0358	4	0.000268	0	-1E+10	1	-1E+10	1	-1E+10	1
4902624	20	C	01/07/2025	03:32	-126.290	46.962	0	139.00	0	7.1190	0	33.7390	0	26.411	0	137.800	0	-1e10	1	-1e10	1	-1E+10	1	-1e10	1	-1e10	1	-1E+10	1	-1E+10	1	-1E+10	1
4902624	20	C	01/07/2025	03:32	-126.290	46.962	0	139.80	0	7.1304	0	33.7491	0	26.418	0	138.593	0	120.5	4	40.8	4	-1E+10	1	0.0438	4	0.000280	0	-1E+10	1	-1E+10	1	-1E+10	1
4902624	20	C	01/07/2025	03:32	-126.290	46.962	0	140.90	0	7.1460	0	33.7630	0	26.426	0	139.683	0	117.7	4	39.9	4	-1E+10	1	0.0416	4	0.000306	0	-1E+10	1	-1E+10	1	-1E+10	1
4902624	20	C	01/07/2025	03:32	-126.290	46.962	0	142.00	0	7.1658	0	33.7724	0	26.431	0	140.773	0	118.1	4	40.0	4	-1E+10	1	0.0378	4	0.000315	0	-1E+10	1	-1E+10	1	-1E+10	1
4902624	20	C	01/07/2025	03:32	-126.290	46.962	0	142.90	0	7.1820	0	33.7800	0	26.435	0	141.665	0	-1e10	1	-1e10	1	-1E+10	1	-1e10	1	-1e10	1	-1E+10	1	-1E+10	1	-1E+10	1
4902624	20	C	01/07/2025	03:32	-126.290	46.962	0	143.10	0	7.1852	0	33.7811	0	26.435	0	141.864	0	117.3	4	39.8	4	-1E+10	1	0.0398	4	0.000284	0	-1E+10	1	-1E+10	1	-1E+10	1
4902624	20	C	01/07/2025	03:32	-126.290	46.962	0	144.20	0	7.2030	0	33.7874	0	26.438	0	142.954	0	116.7	4	39.6	4	-1E+10	1	0.0253	4	0.000310	0	-1E+10	1	-1E+10	1	-1E+10	1
4902624	20	C	01/07/2025	03:32	-126.290	46.962	0	145.00	0	7.2160	0	33.7920	0	26.440	0	143.746	0	-1e10	1	-1e10	1	-1E+10	1	-1e10	1	-1e10	1	-1E+10	1	-1E+10	1	-1E+10	1
4902624	20	C	01/07/2025	03:32	-126.290	46.962	0	145.30	0	7.2193	0	33.7929	0	26.440	0	144.044	0	116.1	4	39.4	4	-1E+10	1	0.0438	4	0.000370	0	-1E+10	1	-1E+10	1	-1E+10	1
4902624	20	C	01/07/2025	03:32	-126.290	46.962	0	146.40	0	7.2313	0	33.7960	0	26.441	0	145.134	0	115.7	4	39.3	4	-1E+10	1	0.0365	4	0.000299	0	-1E+10	1	-1E+10	1	-1E+10	1
4902624	20	C	01/07/2025	03:32	-126.290	46.962	0	147.10	0	7.2390	0	33.7980	0	26.441	0	145.828	0	-1e10	1	-1e10	1	-1E+10	1	-1e10	1	-1e10	1	-1E+10	1	-1E+10	1	-1E+10	1
4902624	20	C	01/07/2025	03:32	-126.290	46.962	0	147.50	0	7.2432	0	33.8018	0	26.444	0	146.224	0	115.8	4	39.3	4	-1E+10	1	0.0489	4	0.000319	0	-1E+10	1	-1E+10	1	-1E+10	1
4902624	20	C	01/07/2025	03:32	-126.290	46.962	0	148.60	0	7.2548	0	33.8122	0	26.450	0	147.314	0	116.0	4	39.4	4	-1E+10	1	0.0410	4	0.000286	0	-1E+10	1	-1E+10	1	-1E+10	1
4902624	20	C	01/07/2025	03:32	-126.290	46.962	0	149.00	0	7.2590	0	33.8160	0	26.453	0	147.710	0	-1e10	1	-1e10	1	-1E+10	1	-1e10	1	-1e10	1	-1E+10	1	-1E+10	1	-1E+10	1
4902624	20	C	01/07/2025	03:32	-126.290	46.962	0	149.70	0	7.2523	0	33.8167	0	26.454	0	148.404	0	116.3	4	39.5	4	-1E+10	1	0.0411	4	0.000266	0	-1E+10	1	-1E+10	1	-1E+10	1
4902624	20	C	01/07/2025	03:32	-126.290	46.962	0	150.80	0	7.2419	0	33.8178	0	26.456	0	149.494	0	116.6	4	39.6	4	-1E+10	1	0.0517	4	0.000277	0	-1E+10	1	-1E+10	1	-1E+10	1
4902624	20	C	01/07/2025	03:32	-126.290	46.962	0	151.00	0	7.2400	0	33.8180	0	26.457	0	149.692	0	-1e10	1	-1e10	1	-1E+10	1	-1e10	1	-1e10	1	-1E+10	1	-1E+10	1	-1E+10	1
4902624	20	C	01/07/2025	03:32	-126.290	46.962	0	151.90	0	7.2238	0	33.8162	0	26.458	0	150.584	0	116.8	4	39.7	4	-1E+10	1	0.0506	4	0.000325	0	-1E+10	1	-1E+10	1	-1E+10	1
4902624	20	C	01/07/2025	03:32	-126.290	46.962	0	153.00	0	7.2040	0	33.8140	0	26.459	0	151.674	0	115.1	4	39.1	4	-1E+10	1	0.0352	4	0.000378	0	-1E+10	1	-1E+10	1	-1E+10	1
4902624	20	C	01/07/2025	03:32	-126.290	46.962	0	154.10	0	7.1798	0	33.8145	0	26.462	0	152.764	0	116.6	4	39.5	4	-1E+10	1	0.0323	4	0.000311	0	-1E+10	1	-1E+10	1	-1E+10	1
4902624	20	C	01/07/2025	03:32	-126.290	46.962	0	155.00	0	7.1600	0	33.8150	0	26.466	0	153.656	0	-1e10	1	-1e10	1	-1E+10	1	-1e10	1	-1e10	1	-1E+10	1	-1E+10	1	-1E+10	1
4902624	20	C	01/07/2025	03:32	-126.290	46.962	0	155.30	0	7.1570	0	33.8150	0	26.466	0	153.954	0	116.2	4	39.4	4	-1E+10	1	0.0511	4	0.000311	0	-1E+10	1	-1E+10	1	-1E+10	1
4902624	20	C	01/07/2025	03:32	-126.290	46.962	0	156.40	0	7.1460	0	33.8150	0	26.467	0	155.044	0	116.0	4	39.3	4	-1E+10	1	0.0326	4	0.000291	0	-1E+10	1	-1E+10	1	-1E+10	1
4902624	20	C	01/07/2025	03:32	-126.290	46.962	0	157.10	0	7.1390	0	33.8150	0	26.468	0	155.737	0	-1e10	1	-1e10	1	-1E+10	1	-1e10	1	-1e10	1	-1E+10	1	-1E+10	1	-1E+10	1
4902624	20	C	01/07/2025	03:32	-126.290	46.962	0	157.50	0	7.1382	0	33.8154	0	26.469	0	156.134	0	115.5	4	39.2	4	-1E+10	1	0.0471	4	0.000297	0	-1E+10	1	-1E+10	1	-1E+10	1
4902624	20	C	01/07/2025	03:32	-126.290	46.962	0	158.60	0	7.1358	0	33.8166	0	26.470	0	157.224	0	115.1	4	39.0	4	-1E+10	1	0.0511	4	0.000291	0	-1E+10	1	-1E+10	1	-1E+10	1
4902624	20	C	01/07/2025	03:32	-126.290	46.962	0	159.00	0	7.1350	0	33.8170	0	26.471	0	157.620	0	-1e10	1	-1e10	1	-1E+10	1	-1e10	1	-1e10	1	-1E+10	1	-1E+10	1	-1E+10	1
4902624	20	C	01/07/2025	03:32	-126.290	46.962	0	159.80	0	7.1262	0	33.8178	0	26.472	0	158.413	0	114.7	4	38.9	4	-1E+10	1	0.0511	4	0.000293	0	-1E+10	1	-1E+10	1	-1E+10	1
4902624	20	C	01/07/2025	03:32	-126.290	46.962	0	160.90	0	7.1140	0	33.8190	0	26.475	0	159.503	0	112.5	4	38.1	4	-1E+10	1	0.0484	4	0.000282	0	-1E+10	1	-1E+10	1	-1E+10	1
4902624	20	C	01/07/2025	03:32	-126.290	46.962	0	162.00	0	7.1140	0	33.8251	0	26.480	0	160.593	0	113.8	4	38.5	4	-1E+10	1	0.0483	4	0.000272	0	-1E+10	1	-1E+10	1	-1E+10	1
4902624	20	C	01/07/2025	03:32	-126.290	46.962	0	162.90	0	7.1140	0	33.8300	0	26.484	0	161.485	0	-1e10	1	-1e10	1	-1E+10	1	-1e10	1	-1e10	1	-1E+10	1	-1E+10	1	-1E+10	1
4902624	20	C	01/07/2025	03:32	-126.290	46.962	0	163.20	0	7.1027	0	33.8304	0	26.486	0	161.782	0	113.7	4	38.5	4	-1E+10	1	0.0568	4	0.000310	0	-1E+10	1	-1E+10	1	-1E+10	1
4902624	20	C	01/07/2025	03:32	-126.290	46.962	0	164.30	0	7.0613	0	33.8320	0	26.493	0	162.872	0	113.4	4	38.4	4	-1E+10	1	0.0511	4	0.000287	0	-1E+10	1	-1E+10	1	-1E+10	1
4902624	20	C	01/07/2025	03:32	-126.290	46.962	0	165.00	0	7.0350	0	33.8330	0	26.497	0	163.566	0	-1e10	1	-1e10	1	-1E+10	1	-1e10	1	-1e10	1	-1E+10	1	-1E+10	1	-1E+10	1
4902624	20	C	01/07/2025	03:32	-126.290	46.962	0	165.40	0	7.0308	0	33.8328	0	26.497	0	163.962	0	112.8	4	38.2	4	-1E+10	1	0.0292	4	0.000299	0	-1E+10	1	-1E+10	1	-1E+10	1
4902624	20	C	01/07/2025	03:32	-126.290	46.962	0	166.60	0	7.0182	0	33.8322	0	26.499	0	165.151	0	112.2	4	37.9	4	-1E+10	1	0.0542	4	0.000410	0	-1E+10	1	-1E+10	1	-1E+10	1
4902624	20	C	01/07/2025	03:32	-126.290	46.962	0	167.00	0	7.0140	0	33.8320	0	26.499	0	165.547	0	-1e10	1	-1e10	1	-1E+10	1	-1e10	1	-1e10	1	-1E+10	1	-1E+10	1	-1E+10	1
4902624	20	C	01/07/2025	03:32	-126.290	46.962	0	167.70	0	7.0120	0	33.8347	0	26.501	0	166.241	0	111.7	4	37.7	4	-1E+10	1	0.0537	4	0.000353	0	-1E+10	1	-1E+10	1	-1E+10	1
4902624	20	C	01/07/2025	03:32	-126.290	46.962	0	168.80	0	7.0089	0	33.8389	0	26.505	0	167.331	0	111.2	4	37.6	4	-1E+10	1	0.0471	4	0.000323	0	-1E+10	1	-1E+10	1	-1E+10	1
4902624	20	C	01/07/2025	03:32	-126.290	46.962	0	169.10	0	7.0080	0	33.8400	0	26.506	0	167.628	0	-1e10	1	-1e10	1	-1E+10	1	-1e10	1	-1e10	1	-1E+10	1	-1E+10	1	-1E+10	1
4902624	20	C	01/07/2025	03:32	-126.290	46.962	0	170.00	0	6.9891	0	33.8382	0	26.507	0	168.520	0	110.4	4	37.3	4	-1E+10	1	0.0438	4	0.000315	0	-1E+10	1	-1E+10	1	-1E+10	1
4902624	20	C	01/07/2025	03:32	-126.290	46.962	0	171.10	0	6.9660	0	33.8360	0	26.509	0	169.610	0	107.9	4	36.4	4	-1E+10	1	0.0464	4	0.000303	0	-1E+10	1	-1E+10	1	-1E+10	1
4902624	20	C	01/07/2025	03:32	-126.290	46.962	0	172.20	0	6.9556	0	33.8366	0	26.511	0	170.700	0	108.3	4	36.5	4	-1E+10	1	0.0511	4	0.000299	0	-1E+10	1	-1E+10	1	-1E+10	1
4902624	20	C	01/07/2025	03:32	-126.290	46.962	0	173.10	0	6.9470	0	33.8370	0	26.512	0	171.592	0	-1e10	1	-1e10	1	-1E+10	1	-1e10	1	-1e10	1	-1E+10	1	-1E+10	1	-1E+10	1
4902624	20	C	01/07/2025	03:32	-126.290	46.962	0	173.30	0	6.9466	0	33.8381	0	26.513	0	171.790	0	107.0	4	36.1	4	-1E+10	1	0.0489	4	0.000259	0	-1E+10	1	-1E+10	1	-1E+10	1
4902624	20	C	01/07/2025	03:32	-126.290	46.962	0	174.40	0	6.9444	0	33.8442	0	26.518	0	172.880	0	105.8	4	35.7	4	-1E+10	1	0.0365	4	0.000334	0	-1E+10	1	-1E+10	1	-1E+10	1
4902624	20	C	01/07/2025	03:32	-126.290	46.962	0	175.10	0	6.9430	0	33.8480	0	26.521	0	173.574	0	-1e10	1	-1e10	1	-1E+10	1	-1e10	1	-1e10	1	-1E+10	1	-1E+10	1	-1E+10	1
4902624	20	C	01/07/2025	03:32	-126.290	46.962	0	175.50	0	6.9367	0	33.8495	0	26.523	0	173.970	0	104.8	4	35.3	4	-1E+10	1	0.0427	4	0.000314	0	-1E+10	1	-1E+10	1	-1E+10	1
4902624	20	C	01/07/2025	03:32	-126.290	46.962	0	176.70	0	6.9177	0	33.8539	0	26.530	0	175.159	0	103.8	4	35.0	4	-1E+10	1	0.0499	4	0.000291	0	-1E+10	1	-1E+10	1	-1E+10	1
4902624	20	C	01/07/2025	03:32	-126.290	46.962	0	177.00	0	6.9130	0	33.8550	0	26.531	0	175.456	0	-1e10	1	-1e10	1	-1E+10	1	-1e10	1	-1e10	1	-1E+10	1	-1E+10	1	-1E+10	1
4902624	20	C	01/07/2025	03:32	-126.290	46.962	0	177.80	0	6.9151	0	33.8571	0	26.532	0	176.249	0	103.1	4	34.8	4	-1E+10	1	0.0558	4	0.000295	0	-1E+10	1	-1E+10	1	-1E+10	1
4902624	20	C	01/07/2025	03:32	-126.290	46.962	0	178.90	0	6.9180	0	33.8600	0	26.534	0	177.339	0	101.0	4	34.1	4	-1E+10	1	0.0517	4	0.000315	0	-1E+10	1	-1E+10	1	-1E+10	1
4902624	20	C	01/07/2025	03:32	-126.290	46.962	0	180.10	0	6.9220	0	33.8623	0	26.536	0	178.528	0	102.0	4	34.4	4	-1E+10	1	0.0405	4	0.000302	0	-1E+10	1	-1E+10	1	-1E+10	1
4902624	20	C	01/07/2025	03:32	-126.290	46.962	0	181.00	0	6.9250	0	33.8640	0	26.537	0	179.420	0	-1e10	1	-1e10	1	-1E+10	1	-1e10	1	-1e10	1	-1E+10	1	-1E+10	1	-1E+10	1
4902624	20	C	01/07/2025	03:32	-126.290	46.962	0	181.20	0	6.9230	0	33.8645	0	26.537	0	179.618	0	101.6	4	34.3	4	-1E+10	1	0.0391	4	0.000293	0	-1E+10	1	-1E+10	1	-1E+10	1
4902624	20	C	01/07/2025	03:32	-126.290	46.962	0	182.40	0	6.9110	0	33.8673	0	26.541	0	180.807	0	101.2	4	34.1	4	-1E+10	1	0.0438	4	0.000348	0	-1E+10	1	-1E+10	1	-1E+10	1
4902624	20	C	01/07/2025	03:32	-126.290	46.962	0	183.10	0	6.9040	0	33.8690	0	26.543	0	181.500	0	-1e10	1	-1e10	1	-1E+10	1	-1e10	1	-1e10	1	-1E+10	1	-1E+10	1	-1E+10	1
4902624	20	C	01/07/2025	03:32	-126.290	46.962	0	183.50	0	6.8987	0	33.8692	0	26.544	0	181.897	0	101.0	4	34.0	4	-1E+10	1	0.0438	4	0.000357	0	-1E+10	1	-1E+10	1	-1E+10	1
4902624	20	C	01/07/2025	03:32	-126.290	46.962	0	184.70	0	6.8829	0	33.8698	0	26.547	0	183.086	0	100.6	4	33.9	4	-1E+10	1	0.0584	4	0.000311	0	-1E+10	1	-1E+10	1	-1E+10	1
4902624	20	C	01/07/2025	03:32	-126.290	46.962	0	185.00	0	6.8790	0	33.8700	0	26.548	0	183.383	0	-1e10	1	-1e10	1	-1E+10	1	-1e10	1	-1e10	1	-1E+10	1	-1E+10	1	-1E+10	1
4902624	20	C	01/07/2025	03:32	-126.290	46.962	0	185.80	0	6.8686	0	33.8696	0	26.549	0	184.176	0	100.3	4	33.8	4	-1E+10	1	0.0460	4	0.000311	0	-1E+10	1	-1E+10	1	-1E+10	1
4902624	20	C	01/07/2025	03:32	-126.290	46.962	0	187.00	0	6.8530	0	33.8690	0	26.550	0	185.365	0	98.2	4	33.1	4	-1E+10	1	0.0386	4	0.000294	0	-1E+10	1	-1E+10	1	-1E+10	1
4902624	20	C	01/07/2025	03:32	-126.290	46.962	0	188.10	0	6.8409	0	33.8690	0	26.552	0	186.454	0	99.0	4	33.4	4	-1E+10	1	0.0365	4	0.000328	0	-1E+10	1	-1E+10	1	-1E+10	1
4902624	20	C	01/07/2025	03:32	-126.290	46.962	0	189.00	0	6.8310	0	33.8690	0	26.553	0	187.346	0	-1e10	1	-1e10	1	-1E+10	1	-1e10	1	-1e10	1	-1E+10	1	-1E+10	1	-1E+10	1
4902624	20	C	01/07/2025	03:32	-126.290	46.962	0	189.20	0	6.8284	0	33.8694	0	26.554	0	187.544	0	98.3	4	33.1	4	-1E+10	1	0.0365	4	0.000330	0	-1E+10	1	-1E+10	1	-1E+10	1
4902624	20	C	01/07/2025	03:32	-126.290	46.962	0	190.40	0	6.8130	0	33.8717	0	26.558	0	188.733	0	97.7	4	32.9	4	-1E+10	1	0.0417	4	0.000290	0	-1E+10	1	-1E+10	1	-1E+10	1
4902624	20	C	01/07/2025	03:32	-126.290	46.962	0	191.10	0	6.8040	0	33.8730	0	26.560	0	189.427	0	-1e10	1	-1e10	1	-1E+10	1	-1e10	1	-1e10	1	-1E+10	1	-1E+10	1	-1E+10	1
4902624	20	C	01/07/2025	03:32	-126.290	46.962	0	191.50	0	6.7960	0	33.8730	0	26.561	0	189.823	0	97.0	4	32.6	4	-1E+10	1	0.0511	4	0.000292	0	-1E+10	1	-1E+10	1	-1E+10	1
4902624	20	C	01/07/2025	03:32	-126.290	46.962	0	192.70	0	6.7720	0	33.8730	0	26.564	0	191.012	0	95.9	4	32.2	4	-1E+10	1	0.0464	4	0.000354	0	-1E+10	1	-1E+10	1	-1E+10	1
4902624	20	C	01/07/2025	03:32	-126.290	46.962	0	193.00	0	6.7660	0	33.8730	0	26.565	0	191.309	0	-1e10	1	-1e10	1	-1E+10	1	-1e10	1	-1e10	1	-1E+10	1	-1E+10	1	-1E+10	1
4902624	20	C	01/07/2025	03:32	-126.290	46.962	0	193.80	0	6.7600	0	33.8746	0	26.567	0	192.102	0	94.8	4	31.9	4	-1E+10	1	0.0292	4	0.000299	0	-1E+10	1	-1E+10	1	-1E+10	1
4902624	20	C	01/07/2025	03:32	-126.290	46.962	0	195.00	0	6.7510	0	33.8770	0	26.570	0	193.291	0	92.6	4	31.1	4	-1E+10	1	0.0480	4	0.000289	0	-1E+10	1	-1E+10	1	-1E+10	1
4902624	20	C	01/07/2025	03:32	-126.290	46.962	0	196.10	0	6.7417	0	33.8803	0	26.574	0	194.381	0	93.3	4	31.3	4	-1E+10	1	0.0630	4	0.000277	0	-1E+10	1	-1E+10	1	-1E+10	1
4902624	20	C	01/07/2025	03:32	-126.290	46.962	0	197.00	0	6.7340	0	33.8830	0	26.577	0	195.272	0	-1e10	1	-1e10	1	-1E+10	1	-1e10	1	-1e10	1	-1E+10	1	-1E+10	1	-1E+10	1
4902624	20	C	01/07/2025	03:32	-126.290	46.962	0	197.30	0	6.7319	0	33.8834	0	26.578	0	195.570	0	92.7	4	31.1	4	-1E+10	1	0.0553	4	0.000300	0	-1E+10	1	-1E+10	1	-1E+10	1
4902624	20	C	01/07/2025	03:32	-126.290	46.962	0	198.40	0	6.7242	0	33.8851	0	26.580	0	196.659	0	92.1	4	30.9	4	-1E+10	1	0.0511	4	0.000281	0	-1E+10	1	-1E+10	1	-1E+10	1
4902624	20	C	01/07/2025	03:32	-126.290	46.962	0	199.00	0	6.7200	0	33.8860	0	26.582	0	197.254	0	-1e10	1	-1e10	1	-1E+10	1	-1e10	1	-1e10	1	-1E+10	1	-1E+10	1	-1E+10	1
4902624	20	C	01/07/2025	03:32	-126.290	46.962	0	199.60	0	6.7113	0	33.8869	0	26.584	0	197.848	0	91.4	4	30.7	4	-1E+10	1	0.0481	4	0.000286	0	-1E+10	1	-1E+10	1	-1E+10	1
4902624	20	C	01/07/2025	03:32	-126.290	46.962	0	200.70	0	6.6954	0	33.8885	0	26.587	0	198.938	0	90.9	4	30.5	4	-1E+10	1	0.0459	4	0.000314	0	-1E+10	1	-1E+10	1	-1E+10	1
4902624	20	C	01/07/2025	03:32	-126.290	46.962	0	201.00	0	6.6910	0	33.8890	0	26.588	0	199.235	0	-1e10	1	-1e10	1	-1E+10	1	-1e10	1	-1e10	1	-1E+10	1	-1E+10	1	-1E+10	1
4902624	20	C	01/07/2025	03:32	-126.290	46.962	0	201.90	0	6.6779	0	33.8899	0	26.590	0	200.127	0	90.3	4	30.3	4	-1E+10	1	0.0533	4	0.000266	0	-1E+10	1	-1E+10	1	-1E+10	1
4902624	20	C	01/07/2025	03:32	-126.290	46.962	0	203.00	0	6.6620	0	33.8910	0	26.593	0	201.217	0	88.4	4	29.6	4	-1E+10	1	0.0657	4	0.000280	0	-1E+10	1	-1E+10	1	-1E+10	1
4902624	20	C	01/07/2025	03:32	-126.290	46.962	0	204.20	0	6.6506	0	33.8921	0	26.596	0	202.406	0	89.2	4	29.9	4	-1E+10	1	0.0584	4	0.000275	0	-1E+10	1	-1E+10	1	-1E+10	1
4902624	20	C	01/07/2025	03:32	-126.290	46.962	0	205.10	0	6.6420	0	33.8930	0	26.598	0	203.297	0	-1e10	1	-1e10	1	-1E+10	1	-1e10	1	-1e10	1	-1E+10	1	-1E+10	1	-1E+10	1
4902624	20	C	01/07/2025	03:32	-126.290	46.962	0	205.30	0	6.6392	0	33.8933	0	26.598	0	203.495	0	88.7	4	29.7	4	-1E+10	1	0.0522	4	0.000265	0	-1E+10	1	-1E+10	1	-1E+10	1
4902624	20	C	01/07/2025	03:32	-126.290	46.962	0	206.40	0	6.6238	0	33.8950	0	26.602	0	204.585	0	88.3	4	29.6	4	-1E+10	1	0.0511	4	0.000271	0	-1E+10	1	-1E+10	1	-1E+10	1
4902624	20	C	01/07/2025	03:32	-126.290	46.962	0	207.10	0	6.6140	0	33.8960	0	26.604	0	205.279	0	-1e10	1	-1e10	1	-1E+10	1	-1e10	1	-1e10	1	-1E+10	1	-1E+10	1	-1E+10	1
4902624	20	C	01/07/2025	03:32	-126.290	46.962	0	207.50	0	6.6046	0	33.8968	0	26.606	0	205.675	0	88.0	4	29.5	4	-1E+10	1	0.0471	4	0.000275	0	-1E+10	1	-1E+10	1	-1E+10	1
4902624	20	C	01/07/2025	03:32	-126.290	46.962	0	208.60	0	6.5787	0	33.8990	0	26.611	0	206.765	0	87.7	4	29.4	4	-1E+10	1	0.0404	4	0.000275	0	-1E+10	1	-1E+10	1	-1E+10	1
4902624	20	C	01/07/2025	03:32	-126.290	46.962	0	209.10	0	6.5670	0	33.9000	0	26.613	0	207.260	0	-1e10	1	-1e10	1	-1E+10	1	-1e10	1	-1e10	1	-1E+10	1	-1E+10	1	-1E+10	1
4902624	20	C	01/07/2025	03:32	-126.290	46.962	0	209.70	0	6.5623	0	33.9003	0	26.614	0	207.855	0	87.3	4	29.2	4	-1E+10	1	0.0386	4	0.000302	0	-1E+10	1	-1E+10	1	-1E+10	1
4902624	20	C	01/07/2025	03:32	-126.290	46.962	0	210.90	0	6.5528	0	33.9009	0	26.616	0	209.043	0	87.1	4	29.1	4	-1E+10	1	0.0451	4	0.000356	0	-1E+10	1	-1E+10	1	-1E+10	1
4902624	20	C	01/07/2025	03:32	-126.290	46.962	0	211.00	0	6.5520	0	33.9010	0	26.616	0	209.142	0	-1e10	1	-1e10	1	-1E+10	1	-1e10	1	-1e10	1	-1E+10	1	-1E+10	1	-1E+10	1
4902624	20	C	01/07/2025	03:32	-126.290	46.962	0	212.00	0	6.5462	0	33.9021	0	26.617	0	210.133	0	86.8	4	29.0	4	-1E+10	1	0.0511	4	0.000297	0	-1E+10	1	-1E+10	1	-1E+10	1
4902624	20	C	01/07/2025	03:32	-126.290	46.962	0	212.90	0	6.5410	0	33.9030	0	26.619	0	211.025	0	-1e10	1	-1e10	1	-1E+10	1	-1e10	1	-1e10	1	-1E+10	1	-1E+10	1	-1E+10	1
4902624	20	C	01/07/2025	03:32	-126.290	46.962	0	213.20	0	6.5400	0	33.9031	0	26.619	0	211.322	0	86.5	4	28.9	4	-1E+10	1	0.0511	4	0.000287	0	-1E+10	1	-1E+10	1	-1E+10	1
4902624	20	C	01/07/2025	03:32	-126.290	46.962	0	214.30	0	6.5363	0	33.9037	0	26.620	0	212.412	0	86.3	4	28.9	4	-1E+10	1	0.0449	4	0.000287	0	-1E+10	1	-1E+10	1	-1E+10	1
4902624	20	C	01/07/2025	03:32	-126.290	46.962	0	215.00	0	6.5340	0	33.9040	0	26.621	0	213.105	0	-1e10	1	-1e10	1	-1E+10	1	-1e10	1	-1e10	1	-1E+10	1	-1E+10	1	-1E+10	1
4902624	20	C	01/07/2025	03:32	-126.290	46.962	0	215.40	0	6.5330	0	33.9038	0	26.621	0	213.501	0	86.0	4	28.8	4	-1E+10	1	0.0498	4	0.000306	0	-1E+10	1	-1E+10	1	-1E+10	1
4902624	20	C	01/07/2025	03:32	-126.290	46.962	0	216.60	0	6.5300	0	33.9032	0	26.621	0	214.690	0	85.6	4	28.6	4	-1E+10	1	0.0511	4	0.000305	0	-1E+10	1	-1E+10	1	-1E+10	1
4902624	20	C	01/07/2025	03:32	-126.290	46.962	0	217.00	0	6.5290	0	33.9030	0	26.621	0	215.087	0	-1e10	1	-1e10	1	-1E+10	1	-1e10	1	-1e10	1	-1E+10	1	-1E+10	1	-1E+10	1
4902624	20	C	01/07/2025	03:32	-126.290	46.962	0	217.70	0	6.5263	0	33.9033	0	26.621	0	215.780	0	85.2	4	28.5	4	-1E+10	1	0.0511	4	0.000295	0	-1E+10	1	-1E+10	1	-1E+10	1
4902624	20	C	01/07/2025	03:32	-126.290	46.962	0	218.80	0	6.5221	0	33.9039	0	26.622	0	216.870	0	84.7	4	28.3	4	-1E+10	1	0.0538	4	0.000274	0	-1E+10	1	-1E+10	1	-1E+10	1
4902624	20	C	01/07/2025	03:32	-126.290	46.962	0	219.10	0	6.5210	0	33.9040	0	26.622	0	217.167	0	-1e10	1	-1e10	1	-1E+10	1	-1e10	1	-1e10	1	-1E+10	1	-1E+10	1	-1E+10	1
4902624	20	C	01/07/2025	03:32	-126.290	46.962	0	220.00	0	6.5147	0	33.9053	0	26.624	0	218.059	0	84.2	4	28.2	4	-1E+10	1	0.0551	4	0.000252	0	-1E+10	1	-1E+10	1	-1E+10	1
4902624	20	C	01/07/2025	03:32	-126.290	46.962	0	221.10	0	6.5070	0	33.9070	0	26.627	0	219.148	0	82.6	4	27.6	4	-1E+10	1	0.0485	4	0.000264	0	-1E+10	1	-1E+10	1	-1E+10	1
4902624	20	C	01/07/2025	03:32	-126.290	46.962	0	222.20	0	6.5024	0	33.9087	0	26.629	0	220.238	0	83.5	4	27.9	4	-1E+10	1	0.0478	4	0.000278	0	-1E+10	1	-1E+10	1	-1E+10	1
4902624	20	C	01/07/2025	03:32	-126.290	46.962	0	223.00	0	6.4990	0	33.9100	0	26.630	0	221.030	0	-1e10	1	-1e10	1	-1E+10	1	-1e10	1	-1e10	1	-1E+10	1	-1E+10	1	-1E+10	1
4902624	20	C	01/07/2025	03:32	-126.290	46.962	0	223.30	0	6.4958	0	33.9100	0	26.630	0	221.328	0	83.2	4	27.8	4	-1E+10	1	0.0636	4	0.000241	0	-1E+10	1	-1E+10	1	-1E+10	1
4902624	20	C	01/07/2025	03:32	-126.290	46.962	0	224.50	0	6.4832	0	33.9100	0	26.632	0	222.516	0	82.9	4	27.7	4	-1E+10	1	0.0511	4	0.000252	0	-1E+10	1	-1E+10	1	-1E+10	1
4902624	20	C	01/07/2025	03:32	-126.290	46.962	0	224.90	0	6.4790	0	33.9100	0	26.633	0	222.913	0	-1e10	1	-1e10	1	-1E+10	1	-1e10	1	-1e10	1	-1E+10	1	-1E+10	1	-1E+10	1
4902624	20	C	01/07/2025	03:32	-126.290	46.962	0	225.60	0	6.4773	0	33.9097	0	26.633	0	223.606	0	82.4	4	27.5	4	-1E+10	1	0.0387	4	0.000261	0	-1E+10	1	-1E+10	1	-1E+10	1
4902624	20	C	01/07/2025	03:32	-126.290	46.962	0	226.70	0	6.4747	0	33.9091	0	26.633	0	224.696	0	82.0	4	27.4	4	-1E+10	1	0.0474	4	0.000267	0	-1E+10	1	-1E+10	1	-1E+10	1
4902624	20	C	01/07/2025	03:32	-126.290	46.962	0	227.00	0	6.4740	0	33.9090	0	26.633	0	224.993	0	-1e10	1	-1e10	1	-1E+10	1	-1e10	1	-1e10	1	-1E+10	1	-1E+10	1	-1E+10	1
4902624	20	C	01/07/2025	03:32	-126.290	46.962	0	227.90	0	6.4713	0	33.9099	0	26.634	0	225.884	0	81.4	4	27.2	4	-1E+10	1	0.0511	4	0.000297	0	-1E+10	1	-1E+10	1	-1E+10	1
4902624	20	C	01/07/2025	03:32	-126.290	46.962	0	229.00	0	6.4680	0	33.9110	0	26.635	0	226.974	0	79.5	4	26.6	4	-1E+10	1	0.0474	4	0.000293	0	-1E+10	1	-1E+10	1	-1E+10	1
4902624	20	C	01/07/2025	03:32	-126.290	46.962	0	230.10	0	6.4565	0	33.9136	0	26.639	0	228.064	0	80.3	4	26.8	4	-1E+10	1	0.0462	4	0.000267	0	-1E+10	1	-1E+10	1	-1E+10	1
4902624	20	C	01/07/2025	03:32	-126.290	46.962	0	231.10	0	6.4460	0	33.9160	0	26.642	0	229.054	0	-1e10	1	-1e10	1	-1E+10	1	-1e10	1	-1e10	1	-1E+10	1	-1E+10	1	-1E+10	1
4902624	20	C	01/07/2025	03:32	-126.290	46.962	0	231.30	0	6.4454	0	33.9159	0	26.642	0	229.253	0	79.9	4	26.7	4	-1E+10	1	0.0466	4	0.000251	0	-1E+10	1	-1E+10	1	-1E+10	1
4902624	20	C	01/07/2025	03:32	-126.290	46.962	0	232.40	0	6.4419	0	33.9153	0	26.642	0	230.342	0	79.4	4	26.5	4	-1E+10	1	0.0375	4	0.000255	0	-1E+10	1	-1E+10	1	-1E+10	1
4902624	20	C	01/07/2025	03:32	-126.290	46.962	0	233.00	0	6.4400	0	33.9150	0	26.642	0	230.937	0	-1e10	1	-1e10	1	-1E+10	1	-1e10	1	-1e10	1	-1E+10	1	-1E+10	1	-1E+10	1
4902624	20	C	01/07/2025	03:32	-126.290	46.962	0	233.60	0	6.4305	0	33.9163	0	26.644	0	231.531	0	79.0	4	26.3	4	-1E+10	1	0.0438	4	0.000275	0	-1E+10	1	-1E+10	1	-1E+10	1
4902624	20	C	01/07/2025	03:32	-126.290	46.962	0	234.70	0	6.4132	0	33.9186	0	26.648	0	232.621	0	78.6	4	26.2	4	-1E+10	1	0.0511	4	0.000251	0	-1E+10	1	-1E+10	1	-1E+10	1
4902624	20	C	01/07/2025	03:32	-126.290	46.962	0	234.90	0	6.4100	0	33.9190	0	26.649	0	232.819	0	-1e10	1	-1e10	1	-1E+10	1	-1e10	1	-1e10	1	-1E+10	1	-1E+10	1	-1E+10	1
4902624	20	C	01/07/2025	03:32	-126.290	46.962	0	235.80	0	6.3959	0	33.9207	0	26.652	0	233.710	0	78.4	4	26.1	4	-1E+10	1	0.0511	4	0.000298	0	-1E+10	1	-1E+10	1	-1E+10	1
4902624	20	C	01/07/2025	03:32	-126.290	46.962	0	237.00	0	6.3770	0	33.9230	0	26.656	0	234.899	0	76.9	4	25.6	4	-1E+10	1	0.0511	4	0.000286	0	-1E+10	1	-1E+10	1	-1E+10	1
4902624	20	C	01/07/2025	03:32	-126.290	46.962	0	238.10	0	6.3621	0	33.9230	0	26.658	0	235.988	0	77.8	4	25.9	4	-1E+10	1	0.0604	4	0.000267	0	-1E+10	1	-1E+10	1	-1E+10	1
4902624	20	C	01/07/2025	03:32	-126.290	46.962	0	239.00	0	6.3500	0	33.9230	0	26.660	0	236.880	0	-1e10	1	-1e10	1	-1E+10	1	-1e10	1	-1e10	1	-1E+10	1	-1E+10	1	-1E+10	1
4902624	20	C	01/07/2025	03:32	-126.290	46.962	0	239.10	0	6.3484	0	33.9231	0	26.660	0	236.979	0	77.5	4	25.8	4	-1E+10	1	0.0498	4	0.000276	0	-1E+10	1	-1E+10	1	-1E+10	1
4902624	20	C	01/07/2025	03:32	-126.290	46.962	0	239.90	0	6.3358	0	33.9235	0	26.662	0	237.771	0	77.2	4	25.7	4	-1E+10	1	0.0414	4	0.000283	0	-1E+10	1	-1E+10	1	-1E+10	1
4902624	20	C	01/07/2025	03:32	-126.290	46.962	0	240.60	0	6.3247	0	33.9238	0	26.664	0	238.465	0	76.9	4	25.6	4	-1E+10	1	0.0511	4	0.000276	0	-1E+10	1	-1E+10	1	-1E+10	1
4902624	20	C	01/07/2025	03:32	-126.290	46.962	0	240.90	0	6.3200	0	33.9240	0	26.665	0	238.762	0	-1e10	1	-1e10	1	-1E+10	1	-1e10	1	-1e10	1	-1E+10	1	-1E+10	1	-1E+10	1
4902624	20	C	01/07/2025	03:32	-126.290	46.962	0	241.40	0	6.3081	0	33.9247	0	26.667	0	239.257	0	76.6	4	25.5	4	-1E+10	1	0.0511	4	0.000288	0	-1E+10	1	-1E+10	1	-1E+10	1
4902624	20	C	01/07/2025	03:32	-126.290	46.962	0	242.10	0	6.2914	0	33.9257	0	26.670	0	239.951	0	76.3	4	25.4	4	-1E+10	1	0.0511	4	0.000298	0	-1E+10	1	-1E+10	1	-1E+10	1
4902624	20	C	01/07/2025	03:32	-126.290	46.962	0	242.90	0	6.2724	0	33.9269	0	26.673	0	240.743	0	76.0	4	25.3	4	-1E+10	1	0.0511	4	0.000261	0	-1E+10	1	-1E+10	1	-1E+10	1
4902624	20	C	01/07/2025	03:32	-126.290	46.962	0	243.00	0	6.2700	0	33.9270	0	26.673	0	240.842	0	-1e10	1	-1e10	1	-1E+10	1	-1e10	1	-1e10	1	-1E+10	1	-1E+10	1	-1E+10	1
4902624	20	C	01/07/2025	03:32	-126.290	46.962	0	243.60	0	6.2622	0	33.9270	0	26.674	0	241.436	0	75.7	4	25.2	4	-1E+10	1	0.0566	4	0.000261	0	-1E+10	1	-1E+10	1	-1E+10	1
4902624	20	C	01/07/2025	03:32	-126.290	46.962	0	244.40	0	6.2518	0	33.9270	0	26.676	0	242.229	0	75.4	4	25.1	4	-1E+10	1	0.0438	4	0.000271	0	-1E+10	1	-1E+10	1	-1E+10	1
4902624	20	C	01/07/2025	03:32	-126.290	46.962	0	245.00	0	6.2440	0	33.9270	0	26.677	0	242.823	0	-1e10	1	-1e10	1	-1E+10	1	-1e10	1	-1e10	1	-1E+10	1	-1E+10	1	-1E+10	1
4902624	20	C	01/07/2025	03:32	-126.290	46.962	0	245.10	0	6.2435	0	33.9270	0	26.677	0	242.922	0	75.1	4	24.9	4	-1E+10	1	0.0397	4	0.000270	0	-1E+10	1	-1E+10	1	-1E+10	1
4902624	20	C	01/07/2025	03:32	-126.290	46.962	0	245.90	0	6.2400	0	33.9274	0	26.678	0	243.715	0	74.7	4	24.8	4	-1E+10	1	0.0469	4	0.000273	0	-1E+10	1	-1E+10	1	-1E+10	1
4902624	20	C	01/07/2025	03:32	-126.290	46.962	0	246.60	0	6.2368	0	33.9278	0	26.678	0	244.408	0	74.3	4	24.7	4	-1E+10	1	0.0487	4	0.000267	0	-1E+10	1	-1E+10	1	-1E+10	1
4902624	20	C	01/07/2025	03:32	-126.290	46.962	0	247.00	0	6.2350	0	33.9280	0	26.679	0	244.804	0	-1e10	1	-1e10	1	-1E+10	1	-1e10	1	-1e10	1	-1E+10	1	-1E+10	1	-1E+10	1
4902624	20	C	01/07/2025	03:32	-126.290	46.962	0	247.40	0	6.2308	0	33.9284	0	26.680	0	245.200	0	73.9	4	24.6	4	-1E+10	1	0.0470	4	0.000233	0	-1E+10	1	-1E+10	1	-1E+10	1
4902624	20	C	01/07/2025	03:32	-126.290	46.962	0	248.10	0	6.2234	0	33.9292	0	26.681	0	245.894	0	73.6	4	24.5	4	-1E+10	1	0.0584	4	0.000251	0	-1E+10	1	-1E+10	1	-1E+10	1
4902624	20	C	01/07/2025	03:32	-126.290	46.962	0	248.90	0	6.2150	0	33.9300	0	26.683	0	246.686	0	72.1	4	23.9	4	-1E+10	1	0.0511	4	0.000268	0	-1E+10	1	-1E+10	1	-1E+10	1
4902624	20	C	01/07/2025	03:32	-126.290	46.962	0	249.60	0	6.2080	0	33.9303	0	26.684	0	247.380	0	72.8	4	24.2	4	-1E+10	1	0.0511	4	0.000273	0	-1E+10	1	-1E+10	1	-1E+10	1
4902624	20	C	01/07/2025	03:32	-126.290	46.962	0	250.40	0	6.2000	0	33.9307	0	26.685	0	248.172	0	72.3	4	24.0	4	-1E+10	1	0.0511	4	0.000283	0	-1E+10	1	-1E+10	1	-1E+10	1
4902624	20	C	01/07/2025	03:32	-126.290	46.962	0	251.00	0	6.1940	0	33.9310	0	26.686	0	248.766	0	-1e10	1	-1e10	1	-1E+10	1	-1e10	1	-1e10	1	-1E+10	1	-1E+10	1	-1E+10	1
4902624	20	C	01/07/2025	03:32	-126.290	46.962	0	251.20	0	6.1915	0	33.9312	0	26.687	0	248.964	0	71.8	4	23.8	4	-1E+10	1	0.0602	4	0.000272	0	-1E+10	1	-1E+10	1	-1E+10	1
4902624	20	C	01/07/2025	03:32	-126.290	46.962	0	251.90	0	6.1829	0	33.9319	0	26.688	0	249.658	0	71.2	4	23.6	4	-1E+10	1	0.0560	4	0.000284	0	-1E+10	1	-1E+10	1	-1E+10	1
4902624	20	C	01/07/2025	03:32	-126.290	46.962	0	252.70	0	6.1730	0	33.9326	0	26.690	0	250.450	0	70.6	4	23.4	4	-1E+10	1	0.0482	4	0.000299	0	-1E+10	1	-1E+10	1	-1E+10	1
4902624	20	C	01/07/2025	03:32	-126.290	46.962	0	253.10	0	6.1680	0	33.9330	0	26.691	0	250.846	0	-1e10	1	-1e10	1	-1E+10	1	-1e10	1	-1e10	1	-1E+10	1	-1E+10	1	-1E+10	1
4902624	20	C	01/07/2025	03:32	-126.290	46.962	0	253.50	0	6.1619	0	33.9341	0	26.693	0	251.243	0	70.1	4	23.2	4	-1E+10	1	0.0602	4	0.000270	0	-1E+10	1	-1E+10	1	-1E+10	1
4902624	20	C	01/07/2025	03:32	-126.290	46.962	0	254.30	0	6.1497	0	33.9362	0	26.696	0	252.035	0	69.6	4	23.1	4	-1E+10	1	0.0689	4	0.000238	0	-1E+10	1	-1E+10	1	-1E+10	1
4902624	20	C	01/07/2025	03:32	-126.290	46.962	0	255.00	0	6.1390	0	33.9380	0	26.699	0	252.728	0	-1e10	1	-1e10	1	-1E+10	1	-1e10	1	-1e10	1	-1E+10	1	-1E+10	1	-1E+10	1
4902624	20	C	01/07/2025	03:32	-126.290	46.962	0	255.10	0	6.1379	0	33.9381	0	26.699	0	252.827	0	69.1	4	22.9	4	-1E+10	1	0.0365	4	0.000228	0	-1E+10	1	-1E+10	1	-1E+10	1
4902624	20	C	01/07/2025	03:32	-126.290	46.962	0	256.00	0	6.1276	0	33.9394	0	26.701	0	253.719	0	68.6	4	22.7	4	-1E+10	1	0.0496	4	0.000270	0	-1E+10	1	-1E+10	1	-1E+10	1
4902624	20	C	01/07/2025	03:32	-126.290	46.962	0	256.80	0	6.1184	0	33.9406	0	26.704	0	254.511	0	68.1	4	22.6	4	-1E+10	1	0.0454	4	0.000256	0	-1E+10	1	-1E+10	1	-1E+10	1
4902624	20	C	01/07/2025	03:32	-126.290	46.962	0	257.10	0	6.1150	0	33.9410	0	26.704	0	254.808	0	-1e10	1	-1e10	1	-1E+10	1	-1e10	1	-1e10	1	-1E+10	1	-1E+10	1	-1E+10	1
4902624	20	C	01/07/2025	03:32	-126.290	46.962	0	257.60	0	6.1130	0	33.9415	0	26.705	0	255.304	0	67.7	4	22.4	4	-1E+10	1	0.0438	4	0.000267	0	-1E+10	1	-1E+10	1	-1E+10	1
4902624	20	C	01/07/2025	03:32	-126.290	46.962	0	258.40	0	6.1098	0	33.9423	0	26.706	0	256.096	0	67.1	4	22.2	4	-1E+10	1	0.0474	4	0.000275	0	-1E+10	1	-1E+10	1	-1E+10	1
4902624	20	C	01/07/2025	03:32	-126.290	46.962	0	259.10	0	6.1070	0	33.9430	0	26.707	0	256.789	0	-1e10	1	-1e10	1	-1E+10	1	-1e10	1	-1e10	1	-1E+10	1	-1E+10	1	-1E+10	1
4902624	20	C	01/07/2025	03:32	-126.290	46.962	0	259.30	0	6.1061	0	33.9434	0	26.707	0	256.987	0	66.6	4	22.1	4	-1E+10	1	0.0446	4	0.000264	0	-1E+10	1	-1E+10	1	-1E+10	1
4902624	20	C	01/07/2025	03:32	-126.290	46.962	0	260.10	0	6.1023	0	33.9451	0	26.709	0	257.780	0	66.0	4	21.9	4	-1E+10	1	0.0431	4	0.000258	0	-1E+10	1	-1E+10	1	-1E+10	1
4902624	20	C	01/07/2025	03:32	-126.290	46.962	0	261.00	0	6.0980	0	33.9470	0	26.711	0	258.671	0	64.4	4	21.3	4	-1E+10	1	0.0555	4	0.000279	0	-1E+10	1	-1E+10	1	-1E+10	1
4902624	20	C	01/07/2025	03:32	-126.290	46.962	0	261.80	0	6.0964	0	33.9502	0	26.714	0	259.463	0	64.9	4	21.5	4	-1E+10	1	0.0438	4	0.000298	0	-1E+10	1	-1E+10	1	-1E+10	1
4902624	20	C	01/07/2025	03:32	-126.290	46.962	0	262.70	0	6.0946	0	33.9538	0	26.717	0	260.355	0	64.6	4	21.4	4	-1E+10	1	0.0511	4	0.000239	0	-1E+10	1	-1E+10	1	-1E+10	1
4902624	20	C	01/07/2025	03:32	-126.290	46.962	0	263.00	0	6.0940	0	33.9550	0	26.718	0	260.652	0	-1e10	1	-1e10	1	-1E+10	1	-1e10	1	-1e10	1	-1E+10	1	-1E+10	1	-1E+10	1
4902624	20	C	01/07/2025	03:32	-126.290	46.962	0	263.50	0	6.0925	0	33.9557	0	26.719	0	261.147	0	64.2	4	21.3	4	-1E+10	1	0.0511	4	0.000277	0	-1E+10	1	-1E+10	1	-1E+10	1
4902624	20	C	01/07/2025	03:32	-126.290	46.962	0	264.40	0	6.0898	0	33.9571	0	26.720	0	262.039	0	63.8	4	21.1	4	-1E+10	1	0.0562	4	0.000254	0	-1E+10	1	-1E+10	1	-1E+10	1
4902624	20	C	01/07/2025	03:32	-126.290	46.962	0	265.00	0	6.0880	0	33.9580	0	26.721	0	262.633	0	-1e10	1	-1e10	1	-1E+10	1	-1e10	1	-1e10	1	-1E+10	1	-1E+10	1	-1E+10	1
4902624	20	C	01/07/2025	03:32	-126.290	46.962	0	265.30	0	6.0856	0	33.9583	0	26.722	0	262.930	0	63.5	4	21.0	4	-1E+10	1	0.0584	4	0.000271	0	-1E+10	1	-1E+10	1	-1E+10	1
4902624	20	C	01/07/2025	03:32	-126.290	46.962	0	266.10	0	6.0792	0	33.9591	0	26.723	0	263.722	0	63.1	4	20.9	4	-1E+10	1	0.0548	4	0.000286	0	-1E+10	1	-1E+10	1	-1E+10	1
4902624	20	C	01/07/2025	03:32	-126.290	46.962	0	267.00	0	6.0720	0	33.9600	0	26.725	0	264.614	0	61.8	4	20.5	4	-1E+10	1	0.0511	4	0.000278	0	-1E+10	1	-1E+10	1	-1E+10	1
4902624	20	C	01/07/2025	03:32	-126.290	46.962	0	267.90	0	6.0675	0	33.9609	0	26.726	0	265.505	0	62.5	4	20.7	4	-1E+10	1	0.0511	4	0.000257	0	-1E+10	1	-1E+10	1	-1E+10	1
4902624	20	C	01/07/2025	03:32	-126.290	46.962	0	268.70	0	6.0635	0	33.9617	0	26.727	0	266.297	0	62.1	4	20.5	4	-1E+10	1	0.0511	4	0.000252	0	-1E+10	1	-1E+10	1	-1E+10	1
4902624	20	C	01/07/2025	03:32	-126.290	46.962	0	269.00	0	6.0620	0	33.9620	0	26.728	0	266.595	0	-1e10	1	-1e10	1	-1E+10	1	-1e10	1	-1e10	1	-1E+10	1	-1E+10	1	-1E+10	1
4902624	20	C	01/07/2025	03:32	-126.290	46.962	0	269.60	0	6.0580	0	33.9631	0	26.729	0	267.189	0	61.7	4	20.4	4	-1E+10	1	0.0511	4	0.000310	0	-1E+10	1	-1E+10	1	-1E+10	1
4902624	20	C	01/07/2025	03:32	-126.290	46.962	0	270.50	0	6.0520	0	33.9649	0	26.731	0	268.080	0	61.4	4	20.3	4	-1E+10	1	0.0380	4	0.000246	0	-1E+10	1	-1E+10	1	-1E+10	1
4902624	20	C	01/07/2025	03:32	-126.290	46.962	0	271.10	0	6.0480	0	33.9660	0	26.733	0	268.674	0	-1e10	1	-1e10	1	-1E+10	1	-1e10	1	-1e10	1	-1E+10	1	-1E+10	1	-1E+10	1
4902624	20	C	01/07/2025	03:32	-126.290	46.962	0	271.30	0	6.0464	0	33.9662	0	26.733	0	268.872	0	61.0	4	20.2	4	-1E+10	1	0.0479	4	0.000239	0	-1E+10	1	-1E+10	1	-1E+10	1
4902624	20	C	01/07/2025	03:32	-126.290	46.962	0	272.20	0	6.0393	0	33.9672	0	26.735	0	269.764	0	60.6	4	20.1	4	-1E+10	1	0.0613	4	0.000256	0	-1E+10	1	-1E+10	1	-1E+10	1
4902624	20	C	01/07/2025	03:32	-126.290	46.962	0	273.00	0	6.0330	0	33.9680	0	26.736	0	270.556	0	-1e10	1	-1e10	1	-1E+10	1	-1e10	1	-1e10	1	-1E+10	1	-1E+10	1	-1E+10	1
4902624	20	C	01/07/2025	03:32	-126.290	46.962	0	273.10	0	6.0320	0	33.9681	0	26.736	0	270.655	0	60.3	4	19.9	4	-1E+10	1	0.0538	4	0.000256	0	-1E+10	1	-1E+10	1	-1E+10	1
4902624	20	C	01/07/2025	03:32	-126.290	46.962	0	274.00	0	6.0235	0	33.9690	0	26.738	0	271.547	0	59.9	4	19.8	4	-1E+10	1	0.0503	4	0.000267	0	-1E+10	1	-1E+10	1	-1E+10	1
4902624	20	C	01/07/2025	03:32	-126.290	46.962	0	274.90	0	6.0149	0	33.9698	0	26.740	0	272.438	0	59.6	4	19.7	4	-1E+10	1	0.0584	4	0.000282	0	-1E+10	1	-1E+10	1	-1E+10	1
4902624	20	C	01/07/2025	03:32	-126.290	46.962	0	275.10	0	6.0130	0	33.9700	0	26.740	0	272.636	0	-1e10	1	-1e10	1	-1E+10	1	-1e10	1	-1e10	1	-1E+10	1	-1E+10	1	-1E+10	1
4902624	20	C	01/07/2025	03:32	-126.290	46.962	0	275.80	0	6.0060	0	33.9711	0	26.742	0	273.329	0	59.2	4	19.6	4	-1E+10	1	0.0584	4	0.000270	0	-1E+10	1	-1E+10	1	-1E+10	1
4902624	20	C	01/07/2025	03:32	-126.290	46.962	0	276.70	0	5.9970	0	33.9724	0	26.744	0	274.221	0	58.8	4	19.4	4	-1E+10	1	0.0584	4	0.000251	0	-1E+10	1	-1E+10	1	-1E+10	1
4902624	20	C	01/07/2025	03:32	-126.290	46.962	0	277.10	0	5.9930	0	33.9730	0	26.745	0	274.617	0	-1e10	1	-1e10	1	-1E+10	1	-1e10	1	-1e10	1	-1E+10	1	-1E+10	1	-1E+10	1
4902624	20	C	01/07/2025	03:32	-126.290	46.962	0	277.60	0	5.9917	0	33.9738	0	26.746	0	275.112	0	58.5	4	19.3	4	-1E+10	1	0.0438	4	0.000275	0	-1E+10	1	-1E+10	1	-1E+10	1
4902624	20	C	01/07/2025	03:32	-126.290	46.962	0	278.50	0	5.9895	0	33.9751	0	26.747	0	276.003	0	58.1	4	19.2	4	-1E+10	1	0.0504	4	0.000306	0	-1E+10	1	-1E+10	1	-1E+10	1
4902624	20	C	01/07/2025	03:32	-126.290	46.962	0	279.10	0	5.9880	0	33.9760	0	26.748	0	276.597	0	-1e10	1	-1e10	1	-1E+10	1	-1e10	1	-1e10	1	-1E+10	1	-1E+10	1	-1E+10	1
4902624	20	C	01/07/2025	03:32	-126.290	46.962	0	279.40	0	5.9871	0	33.9765	0	26.749	0	276.895	0	57.8	4	19.1	4	-1E+10	1	0.0511	4	0.000271	0	-1E+10	1	-1E+10	1	-1E+10	1
4902624	20	C	01/07/2025	03:32	-126.290	46.962	0	280.30	0	5.9844	0	33.9778	0	26.750	0	277.786	0	57.4	4	19.0	4	-1E+10	1	0.0511	4	0.000258	0	-1E+10	1	-1E+10	1	-1E+10	1
4902624	20	C	01/07/2025	03:32	-126.290	46.962	0	281.10	0	5.9820	0	33.9790	0	26.751	0	278.578	0	-1e10	1	-1e10	1	-1E+10	1	-1e10	1	-1e10	1	-1E+10	1	-1E+10	1	-1E+10	1
4902624	20	C	01/07/2025	03:32	-126.290	46.962	0	281.20	0	5.9815	0	33.9791	0	26.751	0	278.677	0	57.0	4	18.8	4	-1E+10	1	0.0511	4	0.000284	0	-1E+10	1	-1E+10	1	-1E+10	1
4902624	20	C	01/07/2025	03:32	-126.290	46.962	0	282.10	0	5.9775	0	33.9805	0	26.753	0	279.569	0	56.6	4	18.7	4	-1E+10	1	0.0511	4	0.000291	0	-1E+10	1	-1E+10	1	-1E+10	1
4902624	20	C	01/07/2025	03:32	-126.290	46.962	0	283.10	0	5.9730	0	33.9820	0	26.755	0	280.559	0	55.4	4	18.3	4	-1E+10	1	0.0527	4	0.000291	0	-1E+10	1	-1E+10	1	-1E+10	1
4902624	20	C	01/07/2025	03:32	-126.290	46.962	0	284.00	0	5.9707	0	33.9838	0	26.757	0	281.450	0	55.9	4	18.5	4	-1E+10	1	0.0584	4	0.000480	0	-1E+10	1	-1E+10	1	-1E+10	1
4902624	20	C	01/07/2025	03:32	-126.290	46.962	0	284.90	0	5.9685	0	33.9856	0	26.758	0	282.342	0	55.5	4	18.3	4	-1E+10	1	0.0584	4	0.000509	0	-1E+10	1	-1E+10	1	-1E+10	1
4902624	20	C	01/07/2025	03:32	-126.290	46.962	0	285.10	0	5.9680	0	33.9860	0	26.759	0	282.540	0	-1e10	1	-1e10	1	-1E+10	1	-1e10	1	-1e10	1	-1E+10	1	-1E+10	1	-1E+10	1
4902624	20	C	01/07/2025	03:32	-126.290	46.962	0	285.90	0	5.9684	0	33.9873	0	26.760	0	283.332	0	55.3	4	18.3	4	-1E+10	1	0.0584	4	0.000264	0	-1E+10	1	-1E+10	1	-1E+10	1
4902624	20	C	01/07/2025	03:32	-126.290	46.962	0	286.80	0	5.9689	0	33.9888	0	26.761	0	284.223	0	55.0	4	18.2	4	-1E+10	1	0.0584	4	0.000258	0	-1E+10	1	-1E+10	1	-1E+10	1
4902624	20	C	01/07/2025	03:32	-126.290	46.962	0	286.90	0	5.9690	0	33.9890	0	26.761	0	284.322	0	-1e10	1	-1e10	1	-1E+10	1	-1e10	1	-1e10	1	-1E+10	1	-1E+10	1	-1E+10	1
4902624	20	C	01/07/2025	03:32	-126.290	46.962	0	287.70	0	5.9663	0	33.9905	0	26.762	0	285.114	0	54.7	4	18.1	4	-1E+10	1	0.0584	4	0.000272	0	-1E+10	1	-1E+10	1	-1E+10	1
4902624	20	C	01/07/2025	03:32	-126.290	46.962	0	288.60	0	5.9633	0	33.9922	0	26.764	0	286.006	0	54.5	4	18.0	4	-1E+10	1	0.0584	4	0.000255	0	-1E+10	1	-1E+10	1	-1E+10	1
4902624	20	C	01/07/2025	03:32	-126.290	46.962	0	289.00	0	5.9620	0	33.9930	0	26.765	0	286.402	0	-1e10	1	-1e10	1	-1E+10	1	-1e10	1	-1e10	1	-1E+10	1	-1E+10	1	-1E+10	1
4902624	20	C	01/07/2025	03:32	-126.290	46.962	0	289.60	0	5.9594	0	33.9933	0	26.765	0	286.996	0	54.3	4	17.9	4	-1E+10	1	0.0584	4	0.000269	0	-1E+10	1	-1E+10	1	-1E+10	1
4902624	20	C	01/07/2025	03:32	-126.290	46.962	0	290.50	0	5.9556	0	33.9937	0	26.766	0	287.887	0	54.0	4	17.8	4	-1E+10	1	0.0584	4	0.000256	0	-1E+10	1	-1E+10	1	-1E+10	1
4902624	20	C	01/07/2025	03:32	-126.290	46.962	0	291.10	0	5.9530	0	33.9940	0	26.767	0	288.482	0	-1e10	1	-1e10	1	-1E+10	1	-1e10	1	-1e10	1	-1E+10	1	-1E+10	1	-1E+10	1
4902624	20	C	01/07/2025	03:32	-126.290	46.962	0	291.40	0	5.9500	0	33.9943	0	26.767	0	288.779	0	53.9	4	17.8	4	-1E+10	1	0.0584	4	0.000235	0	-1E+10	1	-1E+10	1	-1E+10	1
4902624	20	C	01/07/2025	03:32	-126.290	46.962	0	292.60	0	5.9380	0	33.9955	0	26.770	0	289.967	0	53.7	4	17.7	4	-1E+10	1	0.0581	4	0.000276	0	-1E+10	1	-1E+10	1	-1E+10	1
4902624	20	C	01/07/2025	03:32	-126.290	46.962	0	293.10	0	5.9330	0	33.9960	0	26.771	0	290.462	0	-1e10	1	-1e10	1	-1E+10	1	-1e10	1	-1e10	1	-1E+10	1	-1E+10	1	-1E+10	1
4902624	20	C	01/07/2025	03:32	-126.290	46.962	0	295.10	0	5.9060	0	33.9980	0	26.776	0	292.443	0	-1e10	1	-1e10	1	-1E+10	1	-1e10	1	-1e10	1	-1E+10	1	-1E+10	1	-1E+10	1
4902624	20	C	01/07/2025	03:32	-126.290	46.962	0	297.10	0	5.8960	0	34.0010	0	26.780	0	294.423	0	-1e10	1	-1e10	1	-1E+10	1	-1e10	1	-1e10	1	-1E+10	1	-1E+10	1	-1E+10	1
4902624	20	C	01/07/2025	03:32	-126.290	46.962	0	299.00	0	5.8820	0	34.0020	0	26.782	0	296.305	0	-1e10	1	-1e10	1	-1E+10	1	-1e10	1	-1e10	1	-1E+10	1	-1E+10	1	-1E+10	1
4902624	20	C	01/07/2025	03:32	-126.290	46.962	0	302.00	0	5.8373	0	34.0000	0	26.786	0	299.276	0	52.6	4	17.3	4	-1E+10	1	0.0517	4	0.000317	0	-1E+10	1	-1E+10	1	-1E+10	1
4902624	20	C	01/07/2025	03:32	-126.290	46.962	0	304.90	0	5.7940	0	33.9980	0	26.790	0	302.147	0	-1e10	1	-1e10	1	-1E+10	1	-1e10	1	-1e10	1	-1E+10	1	-1E+10	1	-1E+10	1
4902624	20	C	01/07/2025	03:32	-126.290	46.962	0	311.70	0	5.7293	0	34.0033	0	26.802	0	308.881	0	50.1	4	16.5	4	-1E+10	1	0.0651	4	0.000227	0	-1E+10	1	-1E+10	1	-1E+10	1
4902624	20	C	01/07/2025	03:32	-126.290	46.962	0	315.10	0	5.6970	0	34.0060	0	26.808	0	312.248	0	-1e10	1	-1e10	1	-1E+10	1	-1e10	1	-1e10	1	-1E+10	1	-1E+10	1	-1E+10	1
4902624	20	C	01/07/2025	03:32	-126.290	46.962	0	321.80	0	5.6407	0	34.0067	0	26.816	0	318.882	0	49.1	4	16.1	4	-1E+10	1	0.0517	4	0.000226	0	-1E+10	1	-1E+10	1	-1E+10	1
4902624	20	C	01/07/2025	03:32	-126.290	46.962	0	325.10	0	5.6130	0	34.0070	0	26.819	0	322.149	0	-1e10	1	-1e10	1	-1E+10	1	-1e10	1	-1e10	1	-1E+10	1	-1E+10	1	-1E+10	1
4902624	20	C	01/07/2025	03:32	-126.290	46.962	0	332.10	0	5.5529	0	34.0070	0	26.826	0	329.080	0	48.1	4	15.7	4	-1E+10	1	0.0654	4	0.000204	0	-1E+10	1	-1E+10	1	-1E+10	1
4902624	20	C	01/07/2025	03:32	-126.290	46.962	0	335.00	0	5.5280	0	34.0070	0	26.830	0	331.951	0	-1e10	1	-1e10	1	-1E+10	1	-1e10	1	-1e10	1	-1E+10	1	-1E+10	1	-1E+10	1
4902624	20	C	01/07/2025	03:32	-126.290	46.962	0	342.40	0	5.4954	0	34.0100	0	26.836	0	339.278	0	46.3	4	15.1	4	-1E+10	1	0.0577	4	0.000204	0	-1E+10	1	-1E+10	1	-1E+10	1
4902624	20	C	01/07/2025	03:32	-126.290	46.962	0	345.00	0	5.4840	0	34.0110	0	26.838	0	341.852	0	-1e10	1	-1e10	1	-1E+10	1	-1e10	1	-1e10	1	-1E+10	1	-1E+10	1	-1E+10	1
4902624	20	C	01/07/2025	03:32	-126.290	46.962	0	353.00	0	5.4407	0	34.0167	0	26.848	0	349.772	0	44.2	4	14.4	4	-1E+10	1	0.0441	4	0.000204	0	-1E+10	1	-1E+10	1	-1E+10	1
4902624	20	C	01/07/2025	03:32	-126.290	46.962	0	354.80	0	5.4310	0	34.0180	0	26.850	0	351.555	0	-1e10	1	-1e10	1	-1E+10	1	-1e10	1	-1e10	1	-1E+10	1	-1E+10	1	-1E+10	1
4902624	20	C	01/07/2025	03:32	-126.290	46.962	0	363.90	0	5.3777	0	34.0226	0	26.860	0	360.563	0	42.6	4	13.9	4	-1E+10	1	0.0511	4	0.000216	0	-1E+10	1	-1E+10	1	-1E+10	1
4902624	20	C	01/07/2025	03:32	-126.290	46.962	0	364.70	0	5.3730	0	34.0230	0	26.861	0	361.355	0	-1e10	1	-1e10	1	-1E+10	1	-1e10	1	-1e10	1	-1E+10	1	-1E+10	1	-1E+10	1
4902624	20	C	01/07/2025	03:32	-126.290	46.962	0	374.70	0	5.3290	0	34.0280	0	26.870	0	371.255	0	-1e10	1	-1e10	1	-1E+10	1	-1e10	1	-1e10	1	-1E+10	1	-1E+10	1	-1E+10	1
4902624	20	C	01/07/2025	03:32	-126.290	46.962	0	374.80	0	5.3286	0	34.0281	0	26.870	0	371.354	0	40.8	4	13.3	4	-1E+10	1	0.0508	4	0.000233	0	-1E+10	1	-1E+10	1	-1E+10	1
4902624	20	C	01/07/2025	03:32	-126.290	46.962	0	385.00	0	5.2890	0	34.0360	0	26.881	0	381.450	0	-1e10	1	-1e10	1	-1E+10	1	-1e10	1	-1e10	1	-1E+10	1	-1E+10	1	-1E+10	1
4902624	20	C	01/07/2025	03:32	-126.290	46.962	0	385.80	0	5.2854	0	34.0367	0	26.882	0	382.242	0	38.6	4	12.5	4	-1E+10	1	0.0448	4	0.000349	0	-1E+10	1	-1E+10	1	-1E+10	1
4902624	20	C	01/07/2025	03:32	-126.290	46.962	0	395.10	0	5.2440	0	34.0450	0	26.894	0	391.448	0	-1e10	1	-1e10	1	-1E+10	1	-1e10	1	-1e10	1	-1E+10	1	-1E+10	1	-1E+10	1
4902624	20	C	01/07/2025	03:32	-126.290	46.962	0	396.90	0	5.2336	0	34.0459	0	26.896	0	393.230	0	36.7	4	11.9	4	-1E+10	1	0.0652	4	0.000214	0	-1E+10	1	-1E+10	1	-1E+10	1
4902624	20	C	01/07/2025	03:32	-126.290	46.962	0	405.00	0	5.1870	0	34.0500	0	26.904	0	401.247	0	-1e10	1	-1e10	1	-1E+10	1	-1e10	1	-1e10	1	-1E+10	1	-1E+10	1	-1E+10	1
4902624	20	C	01/07/2025	03:32	-126.290	46.962	0	408.30	0	5.1780	0	34.0523	0	26.907	0	404.513	0	34.8	4	11.3	4	-1E+10	1	0.0511	4	0.000180	0	-1E+10	1	-1E+10	1	-1E+10	1
4902624	20	C	01/07/2025	03:32	-126.290	46.962	0	414.90	0	5.1600	0	34.0570	0	26.913	0	411.045	0	-1e10	1	-1e10	1	-1E+10	1	-1e10	1	-1e10	1	-1E+10	1	-1E+10	1	-1E+10	1
4902624	20	C	01/07/2025	03:32	-126.290	46.962	0	419.80	0	5.1317	0	34.0618	0	26.920	0	415.895	0	32.5	4	10.5	4	-1E+10	1	0.0506	4	0.000179	0	-1E+10	1	-1E+10	1	-1E+10	1
4902624	20	C	01/07/2025	03:32	-126.290	46.962	0	425.10	0	5.1010	0	34.0670	0	26.928	0	421.140	0	-1e10	1	-1e10	1	-1E+10	1	-1e10	1	-1e10	1	-1E+10	1	-1E+10	1	-1E+10	1
4902624	20	C	01/07/2025	03:32	-126.290	46.962	0	431.50	0	5.0768	0	34.0716	0	26.934	0	427.474	0	30.3	4	9.8	4	-1E+10	1	0.0374	4	0.000158	0	-1E+10	1	-1E+10	1	-1E+10	1
4902624	20	C	01/07/2025	03:32	-126.290	46.962	0	434.90	0	5.0640	0	34.0740	0	26.938	0	430.839	0	-1e10	1	-1e10	1	-1E+10	1	-1e10	1	-1e10	1	-1E+10	1	-1E+10	1	-1E+10	1
4902624	20	C	01/07/2025	03:32	-126.290	46.962	0	443.20	0	5.0287	0	34.0847	0	26.950	0	439.052	0	27.2	4	8.8	4	-1E+10	1	0.0584	4	0.000201	0	-1E+10	1	-1E+10	1	-1E+10	1
4902624	20	C	01/07/2025	03:32	-126.290	46.962	0	445.00	0	5.0210	0	34.0870	0	26.953	0	440.834	0	-1e10	1	-1e10	1	-1E+10	1	-1e10	1	-1e10	1	-1E+10	1	-1E+10	1	-1E+10	1
4902624	20	C	01/07/2025	03:32	-126.290	46.962	0	454.80	0	4.9670	0	34.1010	0	26.970	0	450.531	0	-1e10	1	-1e10	1	-1E+10	1	-1e10	1	-1e10	1	-1E+10	1	-1E+10	1	-1E+10	1
4902624	20	C	01/07/2025	03:32	-126.290	46.962	0	455.10	0	4.9661	0	34.1013	0	26.971	0	450.828	0	24.9	4	8.1	4	-1E+10	1	0.0576	4	0.000169	0	-1E+10	1	-1E+10	1	-1E+10	1
4902624	20	C	01/07/2025	03:32	-126.290	46.962	0	464.10	0	4.9390	0	34.1100	0	26.981	0	459.734	0	23.6	4	7.6	4	-1E+10	1	0.0441	4	0.000201	0	-1E+10	1	-1E+10	1	-1E+10	1
4902624	20	C	01/07/2025	03:32	-126.290	46.962	0	465.10	0	4.9360	0	34.1110	0	26.982	0	460.723	0	-1e10	1	-1e10	1	-1E+10	1	-1e10	1	-1e10	1	-1E+10	1	-1E+10	1	-1E+10	1
4902624	20	C	01/07/2025	03:32	-126.290	46.962	0	472.20	0	4.9182	0	34.1181	0	26.990	0	467.748	0	22.5	4	7.3	4	-1E+10	1	0.0511	4	0.000168	0	-1E+10	1	-1E+10	1	-1E+10	1
4902624	20	C	01/07/2025	03:32	-126.290	46.962	0	475.10	0	4.9110	0	34.1210	0	26.993	0	470.618	0	-1e10	1	-1e10	1	-1E+10	1	-1e10	1	-1e10	1	-1E+10	1	-1E+10	1	-1E+10	1
4902624	20	C	01/07/2025	03:32	-126.290	46.962	0	480.90	0	4.8841	0	34.1245	0	26.999	0	476.356	0	21.5	4	6.9	4	-1E+10	1	0.0514	4	0.000193	0	-1E+10	1	-1E+10	1	-1E+10	1
4902624	20	C	01/07/2025	03:32	-126.290	46.962	0	485.00	0	4.8650	0	34.1270	0	27.003	0	480.413	0	-1e10	1	-1e10	1	-1E+10	1	-1e10	1	-1e10	1	-1E+10	1	-1E+10	1	-1E+10	1
4902624	20	C	01/07/2025	03:32	-126.290	46.962	0	489.80	0	4.8500	0	34.1304	0	27.007	0	485.162	0	20.4	4	6.6	4	-1E+10	1	0.0584	4	0.000246	0	-1E+10	1	-1E+10	1	-1E+10	1
4902624	20	C	01/07/2025	03:32	-126.290	46.962	0	494.90	0	4.8340	0	34.1340	0	27.012	0	490.208	0	-1e10	1	-1e10	1	-1E+10	1	-1e10	1	-1e10	1	-1E+10	1	-1E+10	1	-1E+10	1
4902624	20	C	01/07/2025	03:32	-126.290	46.962	0	499.20	0	4.8133	0	34.1353	0	27.015	0	494.462	0	19.7	4	6.3	4	-1E+10	1	0.0575	4	0.000155	0	-1E+10	1	-1E+10	1	-1E+10	1
4902624	20	C	01/07/2025	03:32	-126.290	46.962	0	505.10	0	4.7850	0	34.1370	0	27.020	0	500.299	0	-1e10	1	-1e10	1	-1E+10	1	-1e10	1	-1e10	1	-1E+10	1	-1E+10	1	-1E+10	1
4902624	20	C	01/07/2025	03:32	-126.290	46.962	0	508.80	0	4.7777	0	34.1399	0	27.023	0	503.959	0	18.8	4	6.0	4	-1E+10	1	0.0368	4	0.000157	0	-1E+10	1	-1E+10	1	-1E+10	1
4902624	20	C	01/07/2025	03:32	-126.290	46.962	0	515.30	0	4.7650	0	34.1450	0	27.029	0	510.389	0	-1e10	1	-1e10	1	-1E+10	1	-1e10	1	-1e10	1	-1E+10	1	-1E+10	1	-1E+10	1
4902624	20	C	01/07/2025	03:32	-126.290	46.962	0	518.80	0	4.7604	0	34.1489	0	27.032	0	513.851	0	17.7	4	5.7	4	-1E+10	1	0.0444	4	0.000191	0	-1E+10	1	-1E+10	1	-1E+10	1
4902624	20	C	01/07/2025	03:32	-126.290	46.962	0	525.10	0	4.7520	0	34.1560	0	27.039	0	520.083	0	-1e10	1	-1e10	1	-1E+10	1	-1e10	1	-1e10	1	-1E+10	1	-1E+10	1	-1E+10	1
4902624	20	C	01/07/2025	03:32	-126.290	46.962	0	528.90	0	4.7459	0	34.1598	0	27.043	0	523.842	0	16.7	4	5.4	4	-1E+10	1	0.0587	4	0.000212	0	-1E+10	1	-1E+10	1	-1E+10	1
4902624	20	C	01/07/2025	03:32	-126.290	46.962	0	535.10	0	4.7360	0	34.1660	0	27.049	0	529.975	0	-1e10	1	-1e10	1	-1E+10	1	-1e10	1	-1e10	1	-1E+10	1	-1E+10	1	-1E+10	1
4902624	20	C	01/07/2025	03:32	-126.290	46.962	0	539.30	0	4.7515	0	34.1731	0	27.053	0	534.130	0	15.4	4	4.9	4	-1E+10	1	0.0660	4	0.000179	0	-1E+10	1	-1E+10	1	-1E+10	1
4902624	20	C	01/07/2025	03:32	-126.290	46.962	0	545.10	0	4.7730	0	34.1830	0	27.058	0	539.866	0	-1e10	1	-1e10	1	-1E+10	1	-1e10	1	-1e10	1	-1E+10	1	-1E+10	1	-1E+10	1
4902624	20	C	01/07/2025	03:32	-126.290	46.962	0	549.90	0	4.7524	0	34.1884	0	27.065	0	544.614	0	14.3	4	4.6	4	-1E+10	1	0.0722	4	0.000190	0	-1E+10	1	-1E+10	1	-1E+10	1
4902624	20	C	01/07/2025	03:32	-126.290	46.962	0	554.90	0	4.7310	0	34.1940	0	27.072	0	549.559	0	-1e10	1	-1e10	1	-1E+10	1	-1e10	1	-1e10	1	-1E+10	1	-1E+10	1	-1E+10	1
4902624	20	C	01/07/2025	03:32	-126.290	46.962	0	560.70	0	4.7067	0	34.1976	0	27.077	0	555.296	0	13.6	4	4.4	4	-1E+10	1	0.0511	4	0.000189	0	-1E+10	1	-1E+10	1	-1E+10	1
4902624	20	C	01/07/2025	03:32	-126.290	46.962	0	564.70	0	4.6900	0	34.2000	0	27.081	0	559.252	0	-1e10	1	-1e10	1	-1E+10	1	-1e10	1	-1e10	1	-1E+10	1	-1E+10	1	-1E+10	1
4902624	20	C	01/07/2025	03:32	-126.290	46.962	0	571.60	0	4.6601	0	34.2013	0	27.085	0	566.076	0	13.2	4	4.2	4	-1E+10	1	0.0514	4	0.000168	0	-1E+10	1	-1E+10	1	-1E+10	1
4902624	20	C	01/07/2025	03:32	-126.290	46.962	0	575.10	0	4.6450	0	34.2020	0	27.088	0	569.537	0	-1e10	1	-1e10	1	-1E+10	1	-1e10	1	-1e10	1	-1E+10	1	-1E+10	1	-1E+10	1
4902624	20	C	01/07/2025	03:32	-126.290	46.962	0	582.60	0	4.6014	0	34.2058	0	27.095	0	576.954	0	12.5	4	4.0	4	-1E+10	1	0.0577	4	0.000189	0	-1E+10	1	-1E+10	1	-1E+10	1
4902624	20	C	01/07/2025	03:32	-126.290	46.962	0	584.90	0	4.5880	0	34.2070	0	27.098	0	579.229	0	-1e10	1	-1e10	1	-1E+10	1	-1e10	1	-1e10	1	-1E+10	1	-1E+10	1	-1E+10	1
4902624	20	C	01/07/2025	03:32	-126.290	46.962	0	593.70	0	4.5640	0	34.2141	0	27.106	0	587.931	0	11.8	4	3.8	4	-1E+10	1	0.0438	4	0.000177	0	-1E+10	1	-1E+10	1	-1E+10	1
4902624	20	C	01/07/2025	03:32	-126.290	46.962	0	594.80	0	4.5610	0	34.2150	0	27.107	0	589.019	0	-1e10	1	-1e10	1	-1E+10	1	-1e10	1	-1e10	1	-1E+10	1	-1E+10	1	-1E+10	1
4902624	20	C	01/07/2025	03:32	-126.290	46.962	0	605.00	0	4.5140	0	34.2190	0	27.116	0	599.105	0	11.2	4	3.6	4	-1E+10	1	0.0448	4	0.000166	0	-1E+10	1	-1E+10	1	-1E+10	1
4902624	20	C	01/07/2025	03:32	-126.290	46.962	0	615.10	0	4.5040	0	34.2270	0	27.123	0	609.092	0	-1e10	1	-1e10	1	-1E+10	1	-1e10	1	-1e10	1	-1E+10	1	-1E+10	1	-1E+10	1
4902624	20	C	01/07/2025	03:32	-126.290	46.962	0	616.10	0	4.4997	0	34.2276	0	27.124	0	610.081	0	10.7	4	3.4	4	-1E+10	1	0.0654	4	0.000155	0	-1E+10	1	-1E+10	1	-1E+10	1
4902624	20	C	01/07/2025	03:32	-126.290	46.962	0	625.10	0	4.4610	0	34.2330	0	27.133	0	618.979	0	-1e10	1	-1e10	1	-1E+10	1	-1e10	1	-1e10	1	-1E+10	1	-1E+10	1	-1E+10	1
4902624	20	C	01/07/2025	03:32	-126.290	46.962	0	627.40	0	4.4502	0	34.2346	0	27.135	0	621.253	0	10.2	4	3.3	4	-1E+10	1	0.0584	4	0.000166	0	-1E+10	1	-1E+10	1	-1E+10	1
4902624	20	C	01/07/2025	03:32	-126.290	46.962	0	635.10	0	4.4140	0	34.2400	0	27.143	0	628.866	0	-1e10	1	-1e10	1	-1E+10	1	-1e10	1	-1e10	1	-1E+10	1	-1E+10	1	-1E+10	1
4902624	20	C	01/07/2025	03:32	-126.290	46.962	0	638.60	0	4.3970	0	34.2428	0	27.147	0	632.327	0	9.7	4	3.1	4	-1E+10	1	0.0584	4	0.000165	0	-1E+10	1	-1E+10	1	-1E+10	1
4902624	20	C	01/07/2025	03:32	-126.290	46.962	0	645.00	0	4.3660	0	34.2480	0	27.155	0	638.654	0	-1e10	1	-1e10	1	-1E+10	1	-1e10	1	-1e10	1	-1E+10	1	-1E+10	1	-1E+10	1
4902624	20	C	01/07/2025	03:32	-126.290	46.962	0	649.90	0	4.3490	0	34.2514	0	27.159	0	643.498	0	9.3	4	3.0	4	-1E+10	1	0.0584	4	0.000143	0	-1E+10	1	-1E+10	1	-1E+10	1
4902624	20	C	01/07/2025	03:32	-126.290	46.962	0	655.10	0	4.3310	0	34.2550	0	27.164	0	648.639	0	-1e10	1	-1e10	1	-1E+10	1	-1e10	1	-1e10	1	-1E+10	1	-1E+10	1	-1E+10	1
4902624	20	C	01/07/2025	03:32	-126.290	46.962	0	661.20	0	4.3057	0	34.2618	0	27.172	0	654.669	0	8.9	4	2.8	4	-1E+10	1	0.0584	4	0.000166	0	-1E+10	1	-1E+10	1	-1E+10	1
4902624	20	C	01/07/2025	03:32	-126.290	46.962	0	665.00	0	4.2900	0	34.2660	0	27.177	0	658.426	0	-1e10	1	-1e10	1	-1E+10	1	-1e10	1	-1e10	1	-1E+10	1	-1E+10	1	-1E+10	1
4902624	20	C	01/07/2025	03:32	-126.290	46.962	0	672.80	0	4.2491	0	34.2698	0	27.185	0	666.136	0	8.8	4	2.8	4	-1E+10	1	0.0581	4	0.000165	0	-1E+10	1	-1E+10	1	-1E+10	1
4902624	20	C	01/07/2025	03:32	-126.290	46.962	0	675.30	0	4.2360	0	34.2710	0	27.187	0	668.607	0	-1e10	1	-1e10	1	-1E+10	1	-1e10	1	-1e10	1	-1E+10	1	-1E+10	1	-1E+10	1
4902624	20	C	01/07/2025	03:32	-126.290	46.962	0	684.60	0	4.1756	0	34.2710	0	27.193	0	677.800	0	18.1	4	5.8	4	-1E+10	1	0.0511	4	0.000154	0	-1E+10	1	-1E+10	1	-1E+10	1
4902624	20	C	01/07/2025	03:32	-126.290	46.962	0	685.00	0	4.1730	0	34.2710	0	27.194	0	678.195	0	-1e10	1	-1e10	1	-1E+10	1	-1e10	1	-1e10	1	-1E+10	1	-1E+10	1	-1E+10	1
4902624	20	C	01/07/2025	03:32	-126.290	46.962	0	695.10	0	4.1140	0	34.2730	0	27.201	0	688.178	0	-1e10	1	-1e10	1	-1E+10	1	-1e10	1	-1e10	1	-1E+10	1	-1E+10	1	-1E+10	1
4902624	20	C	01/07/2025	03:32	-126.290	46.962	0	696.40	0	4.1094	0	34.2736	0	27.202	0	689.463	0	20.0	4	6.3	4	-1E+10	1	0.0518	4	0.000152	0	-1E+10	1	-1E+10	1	-1E+10	1
4902624	20	C	01/07/2025	03:32	-126.290	46.962	0	704.50	0	4.0805	0	34.2777	0	27.209	0	697.469	0	22.5	4	7.1	4	-1E+10	1	0.0652	4	0.000131	0	-1E+10	1	-1E+10	1	-1E+10	1
4902624	20	C	01/07/2025	03:32	-126.290	46.962	0	705.20	0	4.0780	0	34.2780	0	27.209	0	698.161	0	-1e10	1	-1e10	1	-1E+10	1	-1e10	1	-1e10	1	-1E+10	1	-1E+10	1	-1E+10	1
4902624	20	C	01/07/2025	03:32	-126.290	46.962	0	712.60	0	4.0931	0	34.2871	0	27.215	0	705.475	0	24.1	4	7.6	4	-1E+10	1	0.0514	4	0.000170	0	-1E+10	1	-1E+10	1	-1E+10	1
4902624	20	C	01/07/2025	03:32	-126.290	46.962	0	715.00	0	4.0980	0	34.2900	0	27.217	0	707.846	0	-1e10	1	-1e10	1	-1E+10	1	-1e10	1	-1e10	1	-1E+10	1	-1E+10	1	-1E+10	1
4902624	20	C	01/07/2025	03:32	-126.290	46.962	0	720.90	0	4.0783	0	34.2930	0	27.221	0	713.677	0	23.8	4	7.5	4	-1E+10	1	0.0587	4	0.000256	0	-1E+10	1	-1E+10	1	-1E+10	1
4902624	20	C	01/07/2025	03:32	-126.290	46.962	0	724.90	0	4.0650	0	34.2950	0	27.224	0	717.630	0	-1e10	1	-1e10	1	-1E+10	1	-1e10	1	-1e10	1	-1E+10	1	-1E+10	1	-1E+10	1
4902624	20	C	01/07/2025	03:32	-126.290	46.962	0	729.50	0	4.0351	0	34.2954	0	27.228	0	722.176	0	24.1	4	7.6	4	-1E+10	1	0.0655	4	0.000176	0	-1E+10	1	-1E+10	1	-1E+10	1
4902624	20	C	01/07/2025	03:32	-126.290	46.962	0	735.20	0	3.9980	0	34.2960	0	27.232	0	727.809	0	-1e10	1	-1e10	1	-1E+10	1	-1e10	1	-1e10	1	-1E+10	1	-1E+10	1	-1E+10	1
4902624	20	C	01/07/2025	03:32	-126.290	46.962	0	738.40	0	3.9689	0	34.2960	0	27.235	0	730.971	0	13.0	4	4.1	4	-1E+10	1	0.0581	4	0.000140	0	-1E+10	1	-1E+10	1	-1E+10	1
4902624	20	C	01/07/2025	03:32	-126.290	46.962	0	745.10	0	3.9080	0	34.2960	0	27.241	0	737.592	0	-1e10	1	-1e10	1	-1E+10	1	-1e10	1	-1e10	1	-1E+10	1	-1E+10	1	-1E+10	1
4902624	20	C	01/07/2025	03:32	-126.290	46.962	0	747.30	0	3.8945	0	34.2958	0	27.242	0	739.766	0	22.5	4	7.1	4	-1E+10	1	0.0509	4	0.000119	0	-1E+10	1	-1E+10	1	-1E+10	1
4902624	20	C	01/07/2025	03:32	-126.290	46.962	0	755.20	0	3.8460	0	34.2950	0	27.247	0	747.572	0	-1e10	1	-1e10	1	-1E+10	1	-1e10	1	-1e10	1	-1E+10	1	-1E+10	1	-1E+10	1
4902624	20	C	01/07/2025	03:32	-126.290	46.962	0	756.80	0	3.8463	0	34.2961	0	27.248	0	749.153	0	32.4	4	10.2	4	-1E+10	1	0.0447	4	0.000153	0	-1E+10	1	-1E+10	1	-1E+10	1
4902624	20	C	01/07/2025	03:32	-126.290	46.962	0	765.10	0	3.8480	0	34.3020	0	27.252	0	757.354	0	-1e10	1	-1e10	1	-1E+10	1	-1e10	1	-1e10	1	-1E+10	1	-1E+10	1	-1E+10	1
4902624	20	C	01/07/2025	03:32	-126.290	46.962	0	766.60	0	3.8491	0	34.3037	0	27.253	0	758.836	0	15.9	4	5.0	4	-1E+10	1	0.0654	4	0.000153	0	-1E+10	1	-1E+10	1	-1E+10	1
4902624	20	C	01/07/2025	03:32	-126.290	46.962	0	774.90	0	3.8550	0	34.3130	0	27.260	0	767.037	0	-1e10	1	-1e10	1	-1E+10	1	-1e10	1	-1e10	1	-1E+10	1	-1E+10	1	-1E+10	1
4902624	20	C	01/07/2025	03:32	-126.290	46.962	0	776.70	0	3.8546	0	34.3144	0	27.261	0	768.816	0	14.3	4	4.5	4	-1E+10	1	0.0587	4	0.000141	0	-1E+10	1	-1E+10	1	-1E+10	1
4902624	20	C	01/07/2025	03:32	-126.290	46.962	0	784.90	0	3.8530	0	34.3210	0	27.267	0	776.917	0	-1e10	1	-1e10	1	-1E+10	1	-1e10	1	-1e10	1	-1E+10	1	-1E+10	1	-1E+10	1
4902624	20	C	01/07/2025	03:32	-126.290	46.962	0	787.10	0	3.8405	0	34.3214	0	27.269	0	779.091	0	7.6	4	2.4	4	-1E+10	1	0.0654	4	0.000131	0	-1E+10	1	-1E+10	1	-1E+10	1
4902624	20	C	01/07/2025	03:32	-126.290	46.962	0	794.90	0	3.7960	0	34.3230	0	27.274	0	786.797	0	-1e10	1	-1e10	1	-1E+10	1	-1e10	1	-1e10	1	-1E+10	1	-1E+10	1	-1E+10	1
4902624	20	C	01/07/2025	03:32	-126.290	46.962	0	797.70	0	3.7889	0	34.3247	0	27.276	0	789.563	0	29.2	4	9.2	4	-1E+10	1	0.0579	4	0.000164	0	-1E+10	1	-1E+10	1	-1E+10	1
4902624	20	C	01/07/2025	03:32	-126.290	46.962	0	804.80	0	3.7710	0	34.3290	0	27.282	0	796.577	0	-1e10	1	-1e10	1	-1E+10	1	-1e10	1	-1e10	1	-1E+10	1	-1E+10	1	-1E+10	1
4902624	20	C	01/07/2025	03:32	-126.290	46.962	0	808.50	0	3.7653	0	34.3308	0	27.284	0	800.232	0	7.5	4	2.4	4	-1E+10	1	0.0438	4	0.000152	0	-1E+10	1	-1E+10	1	-1E+10	1
4902624	20	C	01/07/2025	03:32	-126.290	46.962	0	815.10	0	3.7550	0	34.3340	0	27.287	0	806.752	0	-1e10	1	-1e10	1	-1E+10	1	-1e10	1	-1e10	1	-1E+10	1	-1E+10	1	-1E+10	1
4902624	20	C	01/07/2025	03:32	-126.290	46.962	0	819.40	0	3.7512	0	34.3357	0	27.289	0	810.999	0	7.5	4	2.3	4	-1E+10	1	0.0441	4	0.000141	0	-1E+10	1	-1E+10	1	-1E+10	1
4902624	20	C	01/07/2025	03:32	-126.290	46.962	0	825.20	0	3.7460	0	34.3380	0	27.291	0	816.728	0	-1e10	1	-1e10	1	-1E+10	1	-1e10	1	-1e10	1	-1E+10	1	-1E+10	1	-1E+10	1
4902624	20	C	01/07/2025	03:32	-126.290	46.962	0	830.50	0	3.7271	0	34.3407	0	27.295	0	821.964	0	7.5	4	2.4	4	-1E+10	1	0.0516	4	0.000140	0	-1E+10	1	-1E+10	1	-1E+10	1
4902624	20	C	01/07/2025	03:32	-126.290	46.962	0	835.00	0	3.7110	0	34.3430	0	27.299	0	826.408	0	-1e10	1	-1e10	1	-1E+10	1	-1e10	1	-1e10	1	-1E+10	1	-1E+10	1	-1E+10	1
4902624	20	C	01/07/2025	03:32	-126.290	46.962	0	842.00	0	3.6879	0	34.3465	0	27.304	0	833.323	0	23.6	4	7.4	4	-1E+10	1	0.0651	4	0.000128	0	-1E+10	1	-1E+10	1	-1E+10	1
4902624	20	C	01/07/2025	03:32	-126.290	46.962	0	845.00	0	3.6780	0	34.3480	0	27.306	0	836.286	0	-1e10	1	-1e10	1	-1E+10	1	-1e10	1	-1e10	1	-1E+10	1	-1E+10	1	-1E+10	1
4902624	20	C	01/07/2025	03:32	-126.290	46.962	0	853.60	0	3.6637	0	34.3514	0	27.310	0	844.780	0	7.5	4	2.4	4	-1E+10	1	0.0514	4	0.000117	0	-1E+10	1	-1E+10	1	-1E+10	1
4902624	20	C	01/07/2025	03:32	-126.290	46.962	0	855.20	0	3.6610	0	34.3520	0	27.311	0	846.360	0	-1e10	1	-1e10	1	-1E+10	1	-1e10	1	-1e10	1	-1E+10	1	-1E+10	1	-1E+10	1
4902624	20	C	01/07/2025	03:32	-126.290	46.962	0	865.10	0	3.6470	0	34.3580	0	27.317	0	856.137	0	-1e10	1	-1e10	1	-1E+10	1	-1e10	1	-1e10	1	-1E+10	1	-1E+10	1	-1E+10	1
4902624	20	C	01/07/2025	03:32	-126.290	46.962	0	865.30	0	3.6467	0	34.3580	0	27.317	0	856.335	0	12.3	4	3.8	4	-1E+10	1	0.0584	4	0.000129	0	-1E+10	1	-1E+10	1	-1E+10	1
4902624	20	C	01/07/2025	03:32	-126.290	46.962	0	874.80	0	3.6310	0	34.3600	0	27.321	0	865.717	0	-1e10	1	-1e10	1	-1E+10	1	-1e10	1	-1e10	1	-1E+10	1	-1E+10	1	-1E+10	1
4902624	20	C	01/07/2025	03:32	-126.290	46.962	0	877.10	0	3.6278	0	34.3611	0	27.322	0	867.988	0	8.0	4	2.5	4	-1E+10	1	0.0584	4	0.000150	0	-1E+10	1	-1E+10	1	-1E+10	1
4902624	20	C	01/07/2025	03:32	-126.290	46.962	0	885.00	0	3.6170	0	34.3650	0	27.326	0	875.789	0	-1e10	1	-1e10	1	-1E+10	1	-1e10	1	-1e10	1	-1E+10	1	-1E+10	1	-1E+10	1
4902624	20	C	01/07/2025	03:32	-126.290	46.962	0	888.90	0	3.6124	0	34.3673	0	27.328	0	879.641	0	12.6	4	4.0	4	-1E+10	1	0.0578	4	0.000118	0	-1E+10	1	-1E+10	1	-1E+10	1
4902624	20	C	01/07/2025	03:32	-126.290	46.962	0	895.10	0	3.6050	0	34.3710	0	27.332	0	885.763	0	-1e10	1	-1e10	1	-1E+10	1	-1e10	1	-1e10	1	-1E+10	1	-1E+10	1	-1E+10	1
4902624	20	C	01/07/2025	03:32	-126.290	46.962	0	900.90	0	3.5921	0	34.3728	0	27.335	0	891.490	0	31.0	4	9.7	4	-1E+10	1	0.0451	4	0.000139	0	-1E+10	1	-1E+10	1	-1E+10	1
4902624	20	C	01/07/2025	03:32	-126.290	46.962	0	905.00	0	3.5830	0	34.3740	0	27.337	0	895.538	0	-1e10	1	-1e10	1	-1E+10	1	-1e10	1	-1e10	1	-1E+10	1	-1E+10	1	-1E+10	1
4902624	20	C	01/07/2025	03:32	-126.290	46.962	0	910.60	0	3.5647	0	34.3757	0	27.340	0	901.068	0	23.4	4	7.3	4	-1E+10	1	0.0650	4	0.000129	0	-1E+10	1	-1E+10	1	-1E+10	1
4902624	20	C	01/07/2025	03:32	-126.290	46.962	0	914.80	0	3.5510	0	34.3770	0	27.342	0	905.215	0	-1e10	1	-1e10	1	-1E+10	1	-1e10	1	-1e10	1	-1E+10	1	-1E+10	1	-1E+10	1
4902624	20	C	01/07/2025	03:32	-126.290	46.962	0	918.60	0	3.5487	0	34.3797	0	27.345	0	908.967	0	57.6	4	18.0	4	-1E+10	1	0.0516	4	0.000141	0	-1E+10	1	-1E+10	1	-1E+10	1
4902624	20	C	01/07/2025	03:32	-126.290	46.962	0	924.80	0	3.5450	0	34.3840	0	27.348	0	915.088	0	-1e10	1	-1e10	1	-1E+10	1	-1e10	1	-1e10	1	-1E+10	1	-1E+10	1	-1E+10	1
4902624	20	C	01/07/2025	03:32	-126.290	46.962	0	926.90	0	3.5435	0	34.3850	0	27.349	0	917.161	0	56.8	4	17.8	4	-1E+10	1	0.0657	4	0.000162	0	-1E+10	1	-1E+10	1	-1E+10	1
4902624	20	C	01/07/2025	03:32	-126.290	46.962	0	934.90	0	3.5380	0	34.3890	0	27.353	0	925.060	0	-1e10	1	-1e10	1	-1E+10	1	-1e10	1	-1e10	1	-1E+10	1	-1E+10	1	-1E+10	1
4902624	20	C	01/07/2025	03:32	-126.290	46.962	0	935.30	0	3.5380	0	34.3891	0	27.353	0	925.455	0	64.5	4	20.2	4	-1E+10	1	0.0654	4	0.000139	0	-1E+10	1	-1E+10	1	-1E+10	1
4902624	20	C	01/07/2025	03:32	-126.290	46.962	0	943.90	0	3.5371	0	34.3908	0	27.355	0	933.945	0	69.0	4	21.6	4	-1E+10	1	0.0584	4	0.000128	0	-1E+10	1	-1E+10	1	-1E+10	1
4902624	20	C	01/07/2025	03:32	-126.290	46.962	0	944.90	0	3.5370	0	34.3910	0	27.355	0	934.932	0	-1e10	1	-1e10	1	-1E+10	1	-1e10	1	-1e10	1	-1E+10	1	-1E+10	1	-1E+10	1
4902624	20	C	01/07/2025	03:32	-126.290	46.962	0	952.50	0	3.5378	0	34.3948	0	27.358	0	942.435	0	70.7	4	22.1	4	-1E+10	1	0.0582	4	0.000129	0	-1E+10	1	-1E+10	1	-1E+10	1
4902624	20	C	01/07/2025	03:32	-126.290	46.962	0	954.80	0	3.5380	0	34.3960	0	27.359	0	944.705	0	-1e10	1	-1e10	1	-1E+10	1	-1e10	1	-1e10	1	-1E+10	1	-1E+10	1	-1E+10	1
4902624	20	C	01/07/2025	03:32	-126.290	46.962	0	961.50	0	3.5269	0	34.3986	0	27.362	0	951.319	0	68.3	4	21.4	4	-1E+10	1	0.0517	4	0.000150	0	-1E+10	1	-1E+10	1	-1E+10	1
4902624	20	C	01/07/2025	03:32	-126.290	46.962	0	965.10	0	3.5210	0	34.4000	0	27.364	0	954.873	0	-1e10	1	-1e10	1	-1E+10	1	-1e10	1	-1e10	1	-1E+10	1	-1E+10	1	-1E+10	1
4902624	20	C	01/07/2025	03:32	-126.290	46.962	0	970.60	0	3.5104	0	34.4017	0	27.366	0	960.302	0	66.3	4	20.7	4	-1E+10	1	0.0654	4	0.000128	0	-1E+10	1	-1E+10	1	-1E+10	1
4902624	20	C	01/07/2025	03:32	-126.290	46.962	0	975.00	0	3.5020	0	34.4030	0	27.368	0	964.645	0	-1e10	1	-1e10	1	-1E+10	1	-1e10	1	-1e10	1	-1E+10	1	-1E+10	1	-1E+10	1
4902624	20	C	01/07/2025	03:32	-126.290	46.962	0	979.90	0	3.4822	0	34.4040	0	27.371	0	969.482	0	68.7	4	21.4	4	-1E+10	1	0.0587	4	0.000128	0	-1E+10	1	-1E+10	1	-1E+10	1
4902624	20	C	01/07/2025	03:32	-126.290	46.962	0	984.90	0	3.4620	0	34.4050	0	27.374	0	974.417	0	-1e10	1	-1e10	1	-1E+10	1	-1e10	1	-1e10	1	-1E+10	1	-1E+10	1	-1E+10	1
4902624	20	C	01/07/2025	03:32	-126.290	46.962	0	989.40	0	3.4492	0	34.4063	0	27.376	0	978.859	0	71.6	4	22.4	4	-1E+10	1	0.0654	4	0.000128	0	-1E+10	1	-1E+10	1	-1E+10	1
4902624	20	C	01/07/2025	03:32	-126.290	46.962	0	995.10	0	3.4330	0	34.4080	0	27.379	0	984.485	0	-1e10	1	-1e10	1	-1E+10	1	-1e10	1	-1e10	1	-1E+10	1	-1E+10	1	-1E+10	1
4902624	20	C	01/07/2025	03:32	-126.290	46.962	0	999.20	0	3.4241	0	34.4090	0	27.380	0	988.531	0	82.6	4	25.8	4	-1E+10	1	0.0585	4	0.000139	0	-1E+10	1	-1E+10	1	-1E+10	1
4902624	20	C	01/07/2025	03:32	-126.290	46.962	0	1019.70	0	3.3799	0	34.4137	0	27.389	0	1008.763	0	73.5	4	22.9	4	-1E+10	1	0.0656	4	0.000150	0	-1E+10	1	-1E+10	1	-1E+10	1
4902624	20	C	01/07/2025	03:32	-126.290	46.962	0	1025.20	0	3.3680	0	34.4150	0	27.391	0	1014.191	0	-1e10	1	-1e10	1	-1E+10	1	-1e10	1	-1e10	1	-1E+10	1	-1E+10	1	-1E+10	1
4902624	20	C	01/07/2025	03:32	-126.290	46.962	0	1041.40	0	3.3308	0	34.4202	0	27.398	0	1030.177	0	73.8	4	23.0	4	-1E+10	1	0.0585	4	0.000138	0	-1E+10	1	-1E+10	1	-1E+10	1
4902624	20	C	01/07/2025	03:32	-126.290	46.962	0	1063.90	0	3.2792	0	34.4275	0	27.409	0	1052.378	0	73.0	4	22.7	4	-1E+10	1	0.0654	4	0.000127	0	-1E+10	1	-1E+10	1	-1E+10	1
4902624	20	C	01/07/2025	03:32	-126.290	46.962	0	1074.90	0	3.2540	0	34.4310	0	27.414	0	1063.231	0	-1e10	1	-1e10	1	-1E+10	1	-1e10	1	-1e10	1	-1E+10	1	-1E+10	1	-1E+10	1
4902624	20	C	01/07/2025	03:32	-126.290	46.962	0	1087.20	0	3.2211	0	34.4339	0	27.420	0	1075.366	0	72.2	4	22.4	4	-1E+10	1	0.0513	4	0.000138	0	-1E+10	1	-1E+10	1	-1E+10	1
4902624	20	C	01/07/2025	03:32	-126.290	46.962	0	1111.40	0	3.1563	0	34.4396	0	27.431	0	1099.239	0	73.3	4	22.7	4	-1E+10	1	0.0580	4	0.000150	0	-1E+10	1	-1E+10	1	-1E+10	1
4902624	20	C	01/07/2025	03:32	-126.290	46.962	0	1125.70	0	3.1180	0	34.4430	0	27.437	0	1113.345	0	-1e10	1	-1e10	1	-1E+10	1	-1e10	1	-1e10	1	-1E+10	1	-1E+10	1	-1E+10	1
4902624	20	C	01/07/2025	03:32	-126.290	46.962	0	1131.50	0	3.1079	0	34.4446	0	27.439	0	1119.066	0	73.4	4	22.7	4	-1E+10	1	0.0441	4	0.000173	0	-1E+10	1	-1E+10	1	-1E+10	1
4902624	20	C	01/07/2025	03:32	-126.290	46.962	0	1147.70	0	3.0797	0	34.4492	0	27.445	0	1135.044	0	74.6	4	23.1	4	-1E+10	1	0.0583	4	0.000183	0	-1E+10	1	-1E+10	1	-1E+10	1
4902624	20	C	01/07/2025	03:32	-126.290	46.962	0	1164.40	0	3.0506	0	34.4540	0	27.452	0	1151.514	0	75.5	4	23.3	4	-1E+10	1	0.0513	4	0.000115	0	-1E+10	1	-1E+10	1	-1E+10	1
4902624	20	C	01/07/2025	03:32	-126.290	46.962	0	1175.10	0	3.0320	0	34.4570	0	27.456	0	1162.066	0	-1e10	1	-1e10	1	-1E+10	1	-1e10	1	-1e10	1	-1E+10	1	-1E+10	1	-1E+10	1
4902624	20	C	01/07/2025	03:32	-126.290	46.962	0	1181.50	0	3.0176	0	34.4588	0	27.459	0	1168.378	0	76.0	4	23.5	4	-1E+10	1	0.0584	4	0.000149	0	-1E+10	1	-1E+10	1	-1E+10	1
4902624	20	C	01/07/2025	03:32	-126.290	46.962	0	1198.90	0	2.9786	0	34.4637	0	27.467	0	1185.535	0	76.5	4	23.6	4	-1E+10	1	0.0581	4	0.000137	0	-1E+10	1	-1E+10	1	-1E+10	1
4902624	20	C	01/07/2025	03:32	-126.290	46.962	0	1216.80	0	2.9385	0	34.4688	0	27.474	0	1203.185	0	76.3	4	23.5	4	-1E+10	1	0.0441	4	0.000138	0	-1E+10	1	-1E+10	1	-1E+10	1
4902624	20	C	01/07/2025	03:32	-126.290	46.962	0	1224.60	0	2.9210	0	34.4710	0	27.478	0	1210.875	0	-1e10	1	-1e10	1	-1E+10	1	-1e10	1	-1e10	1	-1E+10	1	-1E+10	1	-1E+10	1
4902624	20	C	01/07/2025	03:32	-126.290	46.962	0	1235.40	0	2.9021	0	34.4736	0	27.481	0	1221.522	0	74.9	4	23.1	4	-1E+10	1	0.0584	4	0.000194	0	-1E+10	1	-1E+10	1	-1E+10	1
4902624	20	C	01/07/2025	03:32	-126.290	46.962	0	1254.80	0	2.8682	0	34.4782	0	27.488	0	1240.647	0	71.0	4	21.9	4	-1E+10	1	0.0583	4	0.000113	0	-1E+10	1	-1E+10	1	-1E+10	1
4902624	20	C	01/07/2025	03:32	-126.290	46.962	0	1274.90	0	2.8330	0	34.4830	0	27.495	0	1260.461	0	-1e10	1	-1e10	1	-1E+10	1	-1e10	1	-1e10	1	-1E+10	1	-1E+10	1	-1E+10	1
4902624	20	C	01/07/2025	03:32	-126.290	46.962	0	1275.20	0	2.8325	0	34.4831	0	27.495	0	1260.756	0	58.9	4	18.1	4	-1E+10	1	0.0511	4	0.000113	0	-1E+10	1	-1E+10	1	-1E+10	1
4902624	20	C	01/07/2025	03:32	-126.290	46.962	0	1296.70	0	2.7983	0	34.4883	0	27.503	0	1281.947	0	69.4	4	21.3	4	-1E+10	1	0.0509	4	0.000113	0	-1E+10	1	-1E+10	1	-1E+10	1
4902624	20	C	01/07/2025	03:32	-126.290	46.962	0	1318.90	0	2.7631	0	34.4936	0	27.510	0	1303.826	0	66.2	4	20.3	4	-1E+10	1	0.0443	4	0.000147	0	-1E+10	1	-1E+10	1	-1E+10	1
4902624	20	C	01/07/2025	03:32	-126.290	46.962	0	1324.60	0	2.7540	0	34.4950	0	27.512	0	1309.443	0	-1e10	1	-1e10	1	-1E+10	1	-1e10	1	-1e10	1	-1E+10	1	-1E+10	1	-1E+10	1
4902624	20	C	01/07/2025	03:32	-126.290	46.962	0	1342.10	0	2.7289	0	34.4981	0	27.517	0	1326.688	0	71.1	4	21.8	4	-1E+10	1	0.0655	4	0.000135	0	-1E+10	1	-1E+10	1	-1E+10	1
4902624	20	C	01/07/2025	03:32	-126.290	46.962	0	1366.00	0	2.6945	0	34.5023	0	27.523	0	1350.237	0	71.6	4	21.9	4	-1E+10	1	0.0583	4	0.000124	0	-1E+10	1	-1E+10	1	-1E+10	1
4902624	20	C	01/07/2025	03:32	-126.290	46.962	0	1375.40	0	2.6810	0	34.5040	0	27.526	0	1359.498	0	-1e10	1	-1e10	1	-1E+10	1	-1e10	1	-1e10	1	-1E+10	1	-1E+10	1	-1E+10	1
4902624	20	C	01/07/2025	03:32	-126.290	46.962	0	1390.30	0	2.6547	0	34.5067	0	27.530	0	1374.177	0	75.4	4	23.1	4	-1E+10	1	0.0513	4	0.000127	0	-1E+10	1	-1E+10	1	-1E+10	1
4902624	20	C	01/07/2025	03:32	-126.290	46.962	0	1409.10	0	2.6216	0	34.5101	0	27.536	0	1392.697	0	76.3	4	23.3	4	-1E+10	1	0.0585	4	0.000262	0	-1E+10	1	-1E+10	1	-1E+10	1
4902624	20	C	01/07/2025	03:32	-126.290	46.962	0	1425.30	0	2.5930	0	34.5130	0	27.541	0	1408.655	0	-1e10	1	-1e10	1	-1E+10	1	-1e10	1	-1e10	1	-1E+10	1	-1E+10	1	-1E+10	1
4902624	20	C	01/07/2025	03:32	-126.290	46.962	0	1425.40	0	2.5928	0	34.5130	0	27.541	0	1408.753	0	76.8	4	23.5	4	-1E+10	1	0.0654	4	0.000134	0	-1E+10	1	-1E+10	1	-1E+10	1
4902624	20	C	01/07/2025	03:32	-126.290	46.962	0	1442.30	0	2.5653	0	34.5165	0	27.546	0	1425.399	0	76.8	4	23.5	4	-1E+10	1	0.0513	4	0.000111	0	-1E+10	1	-1E+10	1	-1E+10	1
4902624	20	C	01/07/2025	03:32	-126.290	46.962	0	1459.40	0	2.5374	0	34.5199	0	27.551	0	1442.240	0	78.4	4	23.9	4	-1E+10	1	0.0585	4	0.000088	0	-1E+10	1	-1E+10	1	-1E+10	1
4902624	20	C	01/07/2025	03:32	-126.290	46.962	0	1474.40	0	2.5130	0	34.5230	0	27.556	0	1457.012	0	-1e10	1	-1e10	1	-1E+10	1	-1e10	1	-1e10	1	-1E+10	1	-1E+10	1	-1E+10	1
4902624	20	C	01/07/2025	03:32	-126.290	46.962	0	1477.60	0	2.5081	0	34.5235	0	27.557	0	1460.163	0	81.8	4	25.0	4	-1E+10	1	0.0654	4	0.000111	0	-1E+10	1	-1E+10	1	-1E+10	1
4902624	20	C	01/07/2025	03:32	-126.290	46.962	0	1496.70	0	2.4790	0	34.5265	0	27.562	0	1478.971	0	85.1	4	25.9	4	-1E+10	1	0.0510	4	0.000122	0	-1E+10	1	-1E+10	1	-1E+10	1
4902624	20	C	01/07/2025	03:32	-126.290	46.962	0	1516.80	0	2.4484	0	34.5297	0	27.567	0	1498.762	0	83.6	4	25.5	4	-1E+10	1	0.0439	4	0.000122	0	-1E+10	1	-1E+10	1	-1E+10	1
4902624	20	C	01/07/2025	03:32	-126.290	46.962	0	1524.90	0	2.4360	0	34.5310	0	27.569	0	1506.737	0	-1e10	1	-1e10	1	-1E+10	1	-1e10	1	-1e10	1	-1E+10	1	-1E+10	1	-1E+10	1
4902624	20	C	01/07/2025	03:32	-126.290	46.962	0	1537.60	0	2.4139	0	34.5333	0	27.573	0	1519.240	0	79.1	4	24.1	4	-1E+10	1	0.0513	4	0.000133	0	-1E+10	1	-1E+10	1	-1E+10	1
4902624	20	C	01/07/2025	03:32	-126.290	46.962	0	1559.30	0	2.3762	0	34.5371	0	27.579	0	1540.602	0	95.5	4	29.1	4	-1E+10	1	0.0579	4	0.000121	0	-1E+10	1	-1E+10	1	-1E+10	1
4902624	20	C	01/07/2025	03:32	-126.290	46.962	0	1575.50	0	2.3480	0	34.5400	0	27.584	0	1556.548	0	-1e10	1	-1e10	1	-1E+10	1	-1e10	1	-1e10	1	-1E+10	1	-1E+10	1	-1E+10	1
4902624	20	C	01/07/2025	03:32	-126.290	46.962	0	1581.80	0	2.3386	0	34.5409	0	27.585	0	1562.749	0	117.6	4	35.7	4	-1E+10	1	0.0368	4	0.000110	0	-1E+10	1	-1E+10	1	-1E+10	1
4902624	20	C	01/07/2025	03:32	-126.290	46.962	0	1604.60	0	2.3048	0	34.5441	0	27.591	0	1585.189	0	79.6	4	24.2	4	-1E+10	1	0.0511	4	0.000111	0	-1E+10	1	-1E+10	1	-1E+10	1
4902624	20	C	01/07/2025	03:32	-126.290	46.962	0	1625.30	0	2.2740	0	34.5470	0	27.596	0	1605.560	0	-1e10	1	-1e10	1	-1E+10	1	-1e10	1	-1e10	1	-1E+10	1	-1E+10	1	-1E+10	1
4902624	20	C	01/07/2025	03:32	-126.290	46.962	0	1627.80	0	2.2707	0	34.5475	0	27.596	0	1608.020	0	55.8	4	16.9	4	-1E+10	1	0.0508	4	0.000156	0	-1E+10	1	-1E+10	1	-1E+10	1
4902624	20	C	01/07/2025	03:32	-126.290	46.962	0	1650.50	0	2.2406	0	34.5516	0	27.602	0	1630.357	0	66.6	4	20.2	4	-1E+10	1	0.0369	4	0.000144	0	-1E+10	1	-1E+10	1	-1E+10	1
4902624	20	C	01/07/2025	03:32	-126.290	46.962	0	1666.70	0	2.2191	0	34.5545	0	27.606	0	1646.296	0	77.3	4	23.4	4	-1E+10	1	0.0583	4	0.000132	0	-1E+10	1	-1E+10	1	-1E+10	1
4902624	20	C	01/07/2025	03:32	-126.290	46.962	0	1675.10	0	2.2080	0	34.5560	0	27.608	0	1654.561	0	-1e10	1	-1e10	1	-1E+10	1	-1e10	1	-1e10	1	-1E+10	1	-1E+10	1	-1E+10	1
4902624	20	C	01/07/2025	03:32	-126.290	46.962	0	1683.40	0	2.1981	0	34.5573	0	27.610	0	1662.727	0	84.4	4	25.6	4	-1E+10	1	0.0511	4	0.000132	0	-1E+10	1	-1E+10	1	-1E+10	1
4902624	20	C	01/07/2025	03:32	-126.290	46.962	0	1700.60	0	2.1775	0	34.5601	0	27.614	0	1679.647	0	96.7	4	29.3	4	-1E+10	1	0.0512	4	0.000120	0	-1E+10	1	-1E+10	1	-1E+10	1
4902624	20	C	01/07/2025	03:32	-126.290	46.962	0	1718.20	0	2.1564	0	34.5630	0	27.618	0	1696.960	0	103.0	4	31.2	4	-1E+10	1	0.0581	4	0.000108	0	-1E+10	1	-1E+10	1	-1E+10	1
4902624	20	C	01/07/2025	03:32	-126.290	46.962	0	1724.40	0	2.1490	0	34.5640	0	27.620	0	1703.058	0	-1e10	1	-1e10	1	-1E+10	1	-1e10	1	-1e10	1	-1E+10	1	-1E+10	1	-1E+10	1
4902624	20	C	01/07/2025	03:32	-126.290	46.962	0	1736.00	0	2.1412	0	34.5667	0	27.623	0	1714.468	0	115.0	4	34.8	4	-1E+10	1	0.0440	4	0.000108	0	-1E+10	1	-1E+10	1	-1E+10	1
4902624	20	C	01/07/2025	03:32	-126.290	46.962	0	1754.20	0	2.1290	0	34.5711	0	27.627	0	1732.368	0	120.2	4	36.4	4	-1E+10	1	0.0513	4	0.000121	0	-1E+10	1	-1E+10	1	-1E+10	1
4902624	20	C	01/07/2025	03:32	-126.290	46.962	0	1773.00	0	2.1163	0	34.5755	0	27.632	0	1750.857	0	123.0	4	37.2	4	-1E+10	1	0.0583	4	0.000178	0	-1E+10	1	-1E+10	1	-1E+10	1
4902624	20	C	01/07/2025	03:32	-126.290	46.962	0	1775.00	0	2.1150	0	34.5760	0	27.632	0	1752.823	0	-1e10	1	-1e10	1	-1E+10	1	-1e10	1	-1e10	1	-1E+10	1	-1E+10	1	-1E+10	1
4902624	20	C	01/07/2025	03:32	-126.290	46.962	0	1792.80	0	2.0955	0	34.5785	0	27.636	0	1770.327	0	128.0	4	38.7	4	-1E+10	1	0.0510	4	0.000154	0	-1E+10	1	-1E+10	1	-1E+10	1
4902624	20	C	01/07/2025	03:32	-126.290	46.962	0	1813.70	0	2.0725	0	34.5814	0	27.640	0	1790.877	0	137.8	4	41.6	4	-1E+10	1	0.0441	4	0.000131	0	-1E+10	1	-1E+10	1	-1E+10	1
4902624	20	C	01/07/2025	03:32	-126.290	46.962	0	1825.10	0	2.0600	0	34.5830	0	27.643	0	1802.085	0	-1e10	1	-1e10	1	-1E+10	1	-1e10	1	-1e10	1	-1E+10	1	-1E+10	1	-1E+10	1
4902624	20	C	01/07/2025	03:32	-126.290	46.962	0	1835.30	0	2.0509	0	34.5842	0	27.644	0	1812.113	0	144.0	4	43.5	4	-1E+10	1	0.0584	4	0.000153	0	-1E+10	1	-1E+10	1	-1E+10	1
4902624	20	C	01/07/2025	03:32	-126.290	46.962	0	1857.70	0	2.0310	0	34.5869	0	27.648	0	1834.133	0	127.7	4	38.5	4	-1E+10	1	0.0585	4	0.000120	0	-1E+10	1	-1E+10	1	-1E+10	1
4902624	20	C	01/07/2025	03:32	-126.290	46.962	0	1875.60	0	2.0150	0	34.5890	0	27.651	0	1851.728	0	-1e10	1	-1e10	1	-1E+10	1	-1e10	1	-1e10	1	-1E+10	1	-1E+10	1	-1E+10	1
4902624	20	C	01/07/2025	03:32	-126.290	46.962	0	1880.40	0	2.0118	0	34.5897	0	27.652	0	1856.446	0	122.7	4	37.0	4	-1E+10	1	0.0653	4	0.000222	0	-1E+10	1	-1E+10	1	-1E+10	1
4902624	20	C	01/07/2025	03:32	-126.290	46.962	0	1896.90	0	2.0006	0	34.5921	0	27.655	0	1872.664	0	122.4	4	36.9	4	-1E+10	1	0.0439	4	0.000118	0	-1E+10	1	-1E+10	1	-1E+10	1
4902624	20	C	01/07/2025	03:32	-126.290	46.962	0	1914.60	0	1.9886	0	34.5946	0	27.658	0	1890.059	0	125.8	4	37.9	4	-1E+10	1	0.0509	4	0.000118	0	-1E+10	1	-1E+10	1	-1E+10	1
4902624	20	C	01/07/2025	03:32	-126.290	46.962	0	1924.40	0	1.9820	0	34.5960	0	27.660	0	1899.690	0	-1e10	1	-1e10	1	-1E+10	1	-1e10	1	-1e10	1	-1E+10	1	-1E+10	1	-1E+10	1
4902624	20	C	01/07/2025	03:32	-126.290	46.962	0	1933.10	0	1.9760	0	34.5972	0	27.661	0	1908.239	0	159.5	4	48.1	4	-1E+10	1	0.0440	4	0.000106	0	-1E+10	1	-1E+10	1	-1E+10	1
4902624	20	C	01/07/2025	03:32	-126.290	46.962	0	1952.40	0	1.9627	0	34.6000	0	27.664	0	1927.203	0	164.8	4	49.6	4	-1E+10	1	0.0513	4	0.000131	0	-1E+10	1	-1E+10	1	-1E+10	1
4902624	20	C	01/07/2025	03:32	-126.290	46.962	0	1959.30	0	1.9580	0	34.6010	0	27.666	0	1933.983	0	-1e10	1	-1e10	1	-1E+10	1	-1e10	1	-1e10	1	-1E+10	1	-1E+10	1	-1E+10	1
4902624	20	C	01/07/2025	03:32	-126.290	46.962	0	1968.50	0	-1e10	1	-1e10	1	-1e10	1	1943.022	0	177.1	4	-1e10	4	-1E+10	1	0.0584	4	0.000218	0	-1E+10	1	-1E+10	1	-1E+10	1
4902624	20	C	01/07/2025	03:32	-126.290	46.962	0																										
4902624	21	C	01/17/2025	18:16	-125.902	47.135	0	0.10	0	9.6050	0	32.1780	0	24.814	0	0.099	0	-1e10	1	-1e10	1	-1E+10	1	0.3431	4	0.000716	0	-1E+10	1	-1E+10	1	-1E+10	1
4902624	21	C	01/17/2025	18:16	-125.902	47.135	0	0.50	0	9.6050	0	32.1780	0	24.814	0	0.496	0	258.8	4	91.6	4	-1E+10	1	0.3942	4	0.000852	0	-1E+10	1	-1E+10	1	-1E+10	1
4902624	21	C	01/17/2025	18:16	-125.902	47.135	0	0.90	0	9.6086	0	32.1748	0	24.811	0	0.893	0	-1e10	1	-1e10	1	-1E+10	1	0.3869	4	0.000816	0	-1E+10	1	-1E+10	1	-1E+10	1
4902624	21	C	01/17/2025	18:16	-125.902	47.135	0	1.00	0	9.6095	0	32.1740	0	24.810	0	0.992	0	-1e10	1	-1e10	1	-1E+10	1	0.4088	4	0.000805	0	-1E+10	1	-1E+10	1	-1E+10	1
4902624	21	C	01/17/2025	18:16	-125.902	47.135	0	1.20	0	9.6113	0	32.1724	0	24.809	0	1.190	0	-1e10	1	-1e10	1	-1E+10	1	0.3066	4	0.000934	0	-1E+10	1	-1E+10	1	-1E+10	1
4902624	21	C	01/17/2025	18:16	-125.902	47.135	0	1.30	0	9.6122	0	32.1716	0	24.808	0	1.289	0	-1e10	1	-1e10	1	-1E+10	1	0.4161	4	0.000851	0	-1E+10	1	-1E+10	1	-1E+10	1
4902624	21	C	01/17/2025	18:16	-125.902	47.135	0	1.40	0	9.6131	0	32.1708	0	24.807	0	1.388	0	-1e10	1	-1e10	1	-1E+10	1	0.4088	4	0.000863	0	-1E+10	1	-1E+10	1	-1E+10	1
4902624	21	C	01/17/2025	18:16	-125.902	47.135	0	1.50	0	9.6140	0	32.1700	0	24.806	0	1.488	0	-1e10	1	-1e10	1	-1E+10	1	-1e10	1	-1e10	1	-1E+10	1	-1E+10	1	-1E+10	1
4902624	21	C	01/17/2025	18:16	-125.902	47.135	0	1.60	0	9.6140	0	32.1700	0	24.806	0	1.587	0	258.0	4	91.3	4	-1E+10	1	0.3139	4	0.000535	0	-1E+10	1	-1E+10	1	-1E+10	1
4902624	21	C	01/17/2025	18:16	-125.902	47.135	0	2.20	0	9.6140	0	32.1700	0	24.806	0	2.182	0	257.9	4	91.3	4	-1E+10	1	0.4307	4	0.000851	0	-1E+10	1	-1E+10	1	-1E+10	1
4902624	21	C	01/17/2025	18:16	-125.902	47.135	0	2.40	0	9.6140	0	32.1700	0	24.806	0	2.380	0	-1e10	1	-1e10	1	-1E+10	1	0.4526	4	0.000793	0	-1E+10	1	-1E+10	1	-1E+10	1
4902624	21	C	01/17/2025	18:16	-125.902	47.135	0	2.50	0	9.6140	0	32.1700	0	24.806	0	2.479	0	-1e10	1	-1e10	1	-1E+10	1	-1e10	1	-1e10	1	-1E+10	1	-1E+10	1	-1E+10	1
4902624	21	C	01/17/2025	18:16	-125.902	47.135	0	2.60	0	9.6140	0	32.1699	0	24.806	0	2.578	0	-1e10	1	-1e10	1	-1E+10	1	0.4599	4	0.000828	0	-1E+10	1	-1E+10	1	-1E+10	1
4902624	21	C	01/17/2025	18:16	-125.902	47.135	0	2.80	0	9.6140	0	32.1697	0	24.806	0	2.777	0	-1e10	1	-1e10	1	-1E+10	1	0.4745	4	0.000781	0	-1E+10	1	-1E+10	1	-1E+10	1
4902624	21	C	01/17/2025	18:16	-125.902	47.135	0	3.20	0	9.6140	0	32.1693	0	24.806	0	3.173	0	257.8	4	91.2	4	-1E+10	1	0.4854	4	0.000828	0	-1E+10	1	-1E+10	1	-1E+10	1
4902624	21	C	01/17/2025	18:16	-125.902	47.135	0	3.40	0	9.6140	0	32.1691	0	24.806	0	3.372	0	-1e10	1	-1e10	1	-1E+10	1	0.4891	4	0.000828	0	-1E+10	1	-1E+10	1	-1E+10	1
4902624	21	C	01/17/2025	18:16	-125.902	47.135	0	3.50	0	9.6140	0	32.1690	0	24.806	0	3.471	0	-1e10	1	-1e10	1	-1E+10	1	-1e10	1	-1e10	1	-1E+10	1	-1E+10	1	-1E+10	1
4902624	21	C	01/17/2025	18:16	-125.902	47.135	0	3.60	0	9.6139	0	32.1690	0	24.806	0	3.570	0	-1e10	1	-1e10	1	-1E+10	1	0.5183	4	0.000769	0	-1E+10	1	-1E+10	1	-1E+10	1
4902624	21	C	01/17/2025	18:16	-125.902	47.135	0	3.80	0	9.6137	0	32.1690	0	24.806	0	3.768	0	-1e10	1	-1e10	1	-1E+10	1	0.4891	4	0.000781	0	-1E+10	1	-1E+10	1	-1E+10	1
4902624	21	C	01/17/2025	18:16	-125.902	47.135	0	4.00	0	9.6134	0	32.1690	0	24.806	0	3.967	0	-1e10	1	-1e10	1	-1E+10	1	0.5548	4	0.000840	0	-1E+10	1	-1E+10	1	-1E+10	1
4902624	21	C	01/17/2025	18:16	-125.902	47.135	0	4.10	0	9.6133	0	32.1690	0	24.806	0	4.066	0	257.7	4	91.2	4	-1E+10	1	0.4964	4	0.000793	0	-1E+10	1	-1E+10	1	-1E+10	1
4902624	21	C	01/17/2025	18:16	-125.902	47.135	0	4.40	0	9.6130	0	32.1690	0	24.806	0	4.363	0	-1e10	1	-1e10	1	-1E+10	1	0.4964	4	0.000816	0	-1E+10	1	-1E+10	1	-1E+10	1
4902624	21	C	01/17/2025	18:16	-125.902	47.135	0	4.50	0	9.6131	0	32.1692	0	24.806	0	4.463	0	-1e10	1	-1e10	1	-1E+10	1	0.5402	4	0.000910	0	-1E+10	1	-1E+10	1	-1E+10	1
4902624	21	C	01/17/2025	18:16	-125.902	47.135	0	4.70	0	9.6133	0	32.1695	0	24.806	0	4.661	0	-1e10	1	-1e10	1	-1E+10	1	0.5548	4	0.000828	0	-1E+10	1	-1E+10	1	-1E+10	1
4902624	21	C	01/17/2025	18:16	-125.902	47.135	0	5.10	0	9.6136	0	32.1703	0	24.807	0	5.058	0	257.3	4	91.1	4	-1E+10	1	0.5183	4	0.000805	0	-1E+10	1	-1E+10	1	-1E+10	1
4902624	21	C	01/17/2025	18:16	-125.902	47.135	0	5.30	0	9.6138	0	32.1706	0	24.807	0	5.256	0	-1e10	1	-1e10	1	-1E+10	1	0.5767	4	0.000805	0	-1E+10	1	-1E+10	1	-1E+10	1
4902624	21	C	01/17/2025	18:16	-125.902	47.135	0	5.50	0	9.6140	0	32.1710	0	24.807	0	5.454	0	-1e10	1	-1e10	1	-1E+10	1	0.5621	4	0.000781	0	-1E+10	1	-1E+10	1	-1E+10	1
4902624	21	C	01/17/2025	18:16	-125.902	47.135	0	5.70	0	9.6140	0	32.1720	0	24.808	0	5.653	0	-1e10	1	-1e10	1	-1E+10	1	0.5621	4	0.000840	0	-1E+10	1	-1E+10	1	-1E+10	1
4902624	21	C	01/17/2025	18:16	-125.902	47.135	0	5.90	0	9.6140	0	32.1730	0	24.809	0	5.851	0	-1e10	1	-1e10	1	-1E+10	1	0.5913	4	0.000805	0	-1E+10	1	-1E+10	1	-1E+10	1
4902624	21	C	01/17/2025	18:16	-125.902	47.135	0	6.10	0	9.6140	0	32.1740	0	24.809	0	6.049	0	257.1	4	91.0	4	-1E+10	1	0.5694	4	0.000816	0	-1E+10	1	-1E+10	1	-1E+10	1
4902624	21	C	01/17/2025	18:16	-125.902	47.135	0	6.20	0	9.6140	0	32.1745	0	24.810	0	6.148	0	-1e10	1	-1e10	1	-1E+10	1	0.5475	4	0.000816	0	-1E+10	1	-1E+10	1	-1E+10	1
4902624	21	C	01/17/2025	18:16	-125.902	47.135	0	6.50	0	9.6140	0	32.1760	0	24.811	0	6.446	0	-1e10	1	-1e10	1	-1E+10	1	-1e10	1	-1e10	1	-1E+10	1	-1E+10	1	-1E+10	1
4902624	21	C	01/17/2025	18:16	-125.902	47.135	0	6.70	0	9.6140	0	32.1771	0	24.812	0	6.644	0	-1e10	1	-1e10	1	-1E+10	1	0.5767	4	0.000781	0	-1E+10	1	-1E+10	1	-1E+10	1
4902624	21	C	01/17/2025	18:16	-125.902	47.135	0	6.80	0	9.6140	0	32.1776	0	24.812	0	6.743	0	-1e10	1	-1e10	1	-1E+10	1	0.5694	4	0.000851	0	-1E+10	1	-1E+10	1	-1E+10	1
4902624	21	C	01/17/2025	18:16	-125.902	47.135	0	7.00	0	9.6140	0	32.1787	0	24.813	0	6.942	0	256.9	4	90.9	4	-1E+10	1	0.5694	4	0.000805	0	-1E+10	1	-1E+10	1	-1E+10	1
4902624	21	C	01/17/2025	18:16	-125.902	47.135	0	7.20	0	9.6140	0	32.1798	0	24.814	0	7.140	0	-1e10	1	-1e10	1	-1E+10	1	0.5621	4	0.000805	0	-1E+10	1	-1E+10	1	-1E+10	1
4902624	21	C	01/17/2025	18:16	-125.902	47.135	0	7.40	0	9.6140	0	32.1809	0	24.815	0	7.338	0	-1e10	1	-1e10	1	-1E+10	1	0.5694	4	0.000793	0	-1E+10	1	-1E+10	1	-1E+10	1
4902624	21	C	01/17/2025	18:16	-125.902	47.135	0	7.60	0	9.6140	0	32.1820	0	24.816	0	7.537	0	-1e10	1	-1e10	1	-1E+10	1	0.5621	4	0.000816	0	-1E+10	1	-1E+10	1	-1E+10	1
4902624	21	C	01/17/2025	18:16	-125.902	47.135	0	8.00	0	9.6140	0	32.1828	0	24.816	0	7.933	0	256.9	4	90.9	4	-1E+10	1	0.5876	4	0.000799	0	-1E+10	1	-1E+10	1	-1E+10	1
4902624	21	C	01/17/2025	18:16	-125.902	47.135	0	8.20	0	9.6140	0	32.1832	0	24.817	0	8.132	0	-1e10	1	-1e10	1	-1E+10	1	0.5986	4	0.000816	0	-1E+10	1	-1E+10	1	-1E+10	1
4902624	21	C	01/17/2025	18:16	-125.902	47.135	0	8.40	0	9.6140	0	32.1836	0	24.817	0	8.330	0	-1e10	1	-1e10	1	-1E+10	1	0.5694	4	0.000875	0	-1E+10	1	-1E+10	1	-1E+10	1
4902624	21	C	01/17/2025	18:16	-125.902	47.135	0	8.60	0	9.6140	0	32.1840	0	24.817	0	8.528	0	-1e10	1	-1e10	1	-1E+10	1	0.5913	4	0.000781	0	-1E+10	1	-1E+10	1	-1E+10	1
4902624	21	C	01/17/2025	18:16	-125.902	47.135	0	8.70	0	9.6141	0	32.1844	0	24.818	0	8.627	0	-1e10	1	-1e10	1	-1E+10	1	0.6424	4	0.000816	0	-1E+10	1	-1E+10	1	-1E+10	1
4902624	21	C	01/17/2025	18:16	-125.902	47.135	0	8.90	0	9.6143	0	32.1853	0	24.818	0	8.826	0	256.6	4	90.8	4	-1E+10	1	0.6205	4	0.000805	0	-1E+10	1	-1E+10	1	-1E+10	1
4902624	21	C	01/17/2025	18:16	-125.902	47.135	0	9.10	0	9.6146	0	32.1862	0	24.819	0	9.024	0	-1e10	1	-1e10	1	-1E+10	1	0.6424	4	0.000805	0	-1E+10	1	-1E+10	1	-1E+10	1
4902624	21	C	01/17/2025	18:16	-125.902	47.135	0	9.30	0	9.6148	0	32.1871	0	24.820	0	9.222	0	-1e10	1	-1e10	1	-1E+10	1	0.6351	4	0.000746	0	-1E+10	1	-1E+10	1	-1E+10	1
4902624	21	C	01/17/2025	18:16	-125.902	47.135	0	9.50	0	9.6150	0	32.1880	0	24.820	0	9.421	0	-1e10	1	-1e10	1	-1E+10	1	0.6570	4	0.000781	0	-1E+10	1	-1E+10	1	-1E+10	1
4902624	21	C	01/17/2025	18:16	-125.902	47.135	0	9.90	0	9.6150	0	32.1891	0	24.821	0	9.817	0	256.4	4	90.7	4	-1E+10	1	0.6862	4	0.000781	0	-1E+10	1	-1E+10	1	-1E+10	1
4902624	21	C	01/17/2025	18:16	-125.902	47.135	0	10.10	0	9.6150	0	32.1896	0	24.822	0	10.016	0	-1e10	1	-1e10	1	-1E+10	1	0.6789	4	0.000840	0	-1E+10	1	-1E+10	1	-1E+10	1
4902624	21	C	01/17/2025	18:16	-125.902	47.135	0	10.90	0	9.6150	0	32.1917	0	24.823	0	10.809	0	256.1	4	90.6	4	-1E+10	1	0.7008	4	0.000793	0	-1E+10	1	-1E+10	1	-1E+10	1
4902624	21	C	01/17/2025	18:16	-125.902	47.135	0	11.00	0	9.6150	0	32.1920	0	24.823	0	10.908	0	-1e10	1	-1e10	1	-1E+10	1	-1e10	1	-1e10	1	-1E+10	1	-1E+10	1	-1E+10	1
4902624	21	C	01/17/2025	18:16	-125.902	47.135	0	12.00	0	9.6195	0	32.1960	0	24.826	0	11.900	0	255.9	4	90.6	4	-1E+10	1	0.7317	4	0.000823	0	-1E+10	1	-1E+10	1	-1E+10	1
4902624	21	C	01/17/2025	18:16	-125.902	47.135	0	13.00	0	9.6240	0	32.2000	0	24.828	0	12.892	0	-1e10	1	-1e10	1	-1E+10	1	-1e10	1	-1e10	1	-1E+10	1	-1E+10	1	-1E+10	1
4902624	21	C	01/17/2025	18:16	-125.902	47.135	0	13.10	0	9.6242	0	32.2002	0	24.828	0	12.991	0	255.7	4	90.5	4	-1E+10	1	0.7272	4	0.000812	0	-1E+10	1	-1E+10	1	-1E+10	1
4902624	21	C	01/17/2025	18:16	-125.902	47.135	0	14.20	0	9.6265	0	32.2019	0	24.829	0	14.081	0	255.4	4	90.4	4	-1E+10	1	0.7227	4	0.000825	0	-1E+10	1	-1E+10	1	-1E+10	1
4902624	21	C	01/17/2025	18:16	-125.902	47.135	0	14.90	0	9.6280	0	32.2030	0	24.830	0	14.776	0	-1e10	1	-1e10	1	-1E+10	1	-1e10	1	-1e10	1	-1E+10	1	-1E+10	1	-1E+10	1
4902624	21	C	01/17/2025	18:16	-125.902	47.135	0	15.30	0	9.6302	0	32.2090	0	24.834	0	15.172	0	255.1	4	90.3	4	-1E+10	1	0.7092	4	0.000807	0	-1E+10	1	-1E+10	1	-1E+10	1
4902624	21	C	01/17/2025	18:16	-125.902	47.135	0	16.50	0	9.6368	0	32.2270	0	24.847	0	16.362	0	254.7	4	90.2	4	-1E+10	1	0.6805	4	0.000736	0	-1E+10	1	-1E+10	1	-1E+10	1
4902624	21	C	01/17/2025	18:16	-125.902	47.135	0	16.90	0	9.6390	0	32.2330	0	24.852	0	16.759	0	-1e10	1	-1e10	1	-1E+10	1	-1e10	1	-1e10	1	-1E+10	1	-1E+10	1	-1E+10	1
4902624	21	C	01/17/2025	18:16	-125.902	47.135	0	17.60	0	9.6347	0	32.2440	0	24.861	0	17.453	0	254.6	4	90.2	4	-1E+10	1	0.6530	4	0.000673	0	-1E+10	1	-1E+10	1	-1E+10	1
4902624	21	C	01/17/2025	18:16	-125.902	47.135	0	18.70	0	9.6279	0	32.2613	0	24.876	0	18.544	0	254.5	4	90.1	4	-1E+10	1	0.6341	4	0.000670	0	-1E+10	1	-1E+10	1	-1E+10	1
4902624	21	C	01/17/2025	18:16	-125.902	47.135	0	19.00	0	9.6260	0	32.2660	0	24.880	0	18.841	0	-1e10	1	-1e10	1	-1E+10	1	-1e10	1	-1e10	1	-1E+10	1	-1E+10	1	-1E+10	1
4902624	21	C	01/17/2025	18:16	-125.902	47.135	0	19.90	0	9.6229	0	32.2673	0	24.881	0	19.734	0	254.3	4	90.1	4	-1E+10	1	0.6278	4	0.000711	0	-1E+10	1	-1E+10	1	-1E+10	1
4902624	21	C	01/17/2025	18:16	-125.902	47.135	0	21.00	0	9.6190	0	32.2690	0	24.883	0	20.824	0	-1e10	1	-1e10	1	-1E+10	1	-1e10	1	-1e10	1	-1E+10	1	-1E+10	1	-1E+10	1
4902624	21	C	01/17/2025	18:16	-125.902	47.135	0	21.10	0	9.6186	0	32.2691	0	24.883	0	20.924	0	254.1	4	90.0	4	-1E+10	1	0.6453	4	0.000692	0	-1E+10	1	-1E+10	1	-1E+10	1
4902624	21	C	01/17/2025	18:16	-125.902	47.135	0	22.30	0	9.6138	0	32.2710	0	24.885	0	22.113	0	253.9	4	89.9	4	-1E+10	1	0.6378	4	0.000677	0	-1E+10	1	-1E+10	1	-1E+10	1
4902624	21	C	01/17/2025	18:16	-125.902	47.135	0	23.00	0	9.6110	0	32.2720	0	24.887	0	22.808	0	-1e10	1	-1e10	1	-1E+10	1	-1e10	1	-1e10	1	-1E+10	1	-1E+10	1	-1E+10	1
4902624	21	C	01/17/2025	18:16	-125.902	47.135	0	23.40	0	9.6096	0	32.2724	0	24.887	0	23.204	0	253.8	4	89.9	4	-1E+10	1	0.6633	4	0.000645	0	-1E+10	1	-1E+10	1	-1E+10	1
4902624	21	C	01/17/2025	18:16	-125.902	47.135	0	24.70	0	9.6051	0	32.2737	0	24.889	0	24.493	0	253.6	4	89.8	4	-1E+10	1	0.6711	4	0.000641	0	-1E+10	1	-1E+10	1	-1E+10	1
4902624	21	C	01/17/2025	18:16	-125.902	47.135	0	25.00	0	9.6040	0	32.2740	0	24.890	0	24.791	0	-1e10	1	-1e10	1	-1E+10	1	-1e10	1	-1e10	1	-1E+10	1	-1E+10	1	-1E+10	1
4902624	21	C	01/17/2025	18:16	-125.902	47.135	0	25.90	0	9.6022	0	32.2740	0	24.890	0	25.683	0	253.4	4	89.7	4	-1E+10	1	0.6491	4	0.001028	0	-1E+10	1	-1E+10	1	-1E+10	1
4902624	21	C	01/17/2025	18:16	-125.902	47.135	0	27.00	0	9.6000	0	32.2740	0	24.890	0	26.774	0	-1e10	1	-1e10	1	-1E+10	1	-1e10	1	-1e10	1	-1E+10	1	-1E+10	1	-1E+10	1
4902624	21	C	01/17/2025	18:16	-125.902	47.135	0	27.10	0	9.5998	0	32.2740	0	24.890	0	26.873	0	253.2	4	89.6	4	-1E+10	1	0.6252	4	0.001233	0	-1E+10	1	-1E+10	1	-1E+10	1
4902624	21	C	01/17/2025	18:16	-125.902	47.135	0	28.30	0	9.5974	0	32.2747	0	24.891	0	28.063	0	252.9	4	89.5	4	-1E+10	1	0.6176	4	0.000652	0	-1E+10	1	-1E+10	1	-1E+10	1
4902624	21	C	01/17/2025	18:16	-125.902	47.135	0	29.00	0	9.5960	0	32.2750	0	24.892	0	28.757	0	-1e10	1	-1e10	1	-1E+10	1	-1e10	1	-1e10	1	-1E+10	1	-1E+10	1	-1E+10	1
4902624	21	C	01/17/2025	18:16	-125.902	47.135	0	29.50	0	9.5950	0	32.2748	0	24.892	0	29.253	0	252.6	4	89.4	4	-1E+10	1	0.6059	4	0.000652	0	-1E+10	1	-1E+10	1	-1E+10	1
4902624	21	C	01/17/2025	18:16	-125.902	47.135	0	30.60	0	9.5930	0	32.2742	0	24.892	0	30.343	0	252.3	4	89.3	4	-1E+10	1	0.5767	4	0.000605	0	-1E+10	1	-1E+10	1	-1E+10	1
4902624	21	C	01/17/2025	18:16	-125.902	47.135	0	31.10	0	9.5920	0	32.2740	0	24.892	0	30.839	0	-1e10	1	-1e10	1	-1E+10	1	-1e10	1	-1e10	1	-1E+10	1	-1E+10	1	-1E+10	1
4902624	21	C	01/17/2025	18:16	-125.902	47.135	0	32.00	0	9.5901	0	32.2740	0	24.892	0	31.732	0	251.9	4	89.2	4	-1E+10	1	0.5840	4	0.000652	0	-1E+10	1	-1E+10	1	-1E+10	1
4902624	21	C	01/17/2025	18:16	-125.902	47.135	0	32.90	0	9.5882	0	32.2740	0	24.892	0	32.624	0	251.7	4	89.1	4	-1E+10	1	0.5840	4	0.000599	0	-1E+10	1	-1E+10	1	-1E+10	1
4902624	21	C	01/17/2025	18:16	-125.902	47.135	0	33.00	0	9.5880	0	32.2740	0	24.892	0	32.723	0	-1e10	1	-1e10	1	-1E+10	1	-1e10	1	-1e10	1	-1E+10	1	-1E+10	1	-1E+10	1
4902624	21	C	01/17/2025	18:16	-125.902	47.135	0	33.70	0	9.5873	0	32.2740	0	24.892	0	33.417	0	251.3	4	88.9	4	-1E+10	1	0.5703	4	0.000603	0	-1E+10	1	-1E+10	1	-1E+10	1
4902624	21	C	01/17/2025	18:16	-125.902	47.135	0	34.50	0	9.5865	0	32.2740	0	24.892	0	34.210	0	250.8	4	88.8	4	-1E+10	1	0.5783	4	0.000656	0	-1E+10	1	-1E+10	1	-1E+10	1
4902624	21	C	01/17/2025	18:16	-125.902	47.135	0	35.00	0	9.5860	0	32.2740	0	24.893	0	34.706	0	-1e10	1	-1e10	1	-1E+10	1	-1e10	1	-1e10	1	-1E+10	1	-1E+10	1	-1E+10	1
4902624	21	C	01/17/2025	18:16	-125.902	47.135	0	35.20	0	9.5851	0	32.2742	0	24.893	0	34.904	0	250.5	4	88.6	4	-1E+10	1	0.5757	4	0.000642	0	-1E+10	1	-1E+10	1	-1E+10	1
4902624	21	C	01/17/2025	18:16	-125.902	47.135	0	35.90	0	9.5820	0	32.2749	0	24.894	0	35.598	0	250.0	4	88.5	4	-1E+10	1	0.5579	4	0.000576	0	-1E+10	1	-1E+10	1	-1E+10	1
4902624	21	C	01/17/2025	18:16	-125.902	47.135	0	36.60	0	9.5788	0	32.2756	0	24.895	0	36.293	0	249.5	4	88.3	4	-1E+10	1	0.5555	4	0.000911	0	-1E+10	1	-1E+10	1	-1E+10	1
4902624	21	C	01/17/2025	18:16	-125.902	47.135	0	37.00	0	9.5770	0	32.2760	0	24.896	0	36.689	0	-1e10	1	-1e10	1	-1E+10	1	-1e10	1	-1e10	1	-1E+10	1	-1E+10	1	-1E+10	1
4902624	21	C	01/17/2025	18:16	-125.902	47.135	0	37.40	0	9.5736	0	32.2766	0	24.897	0	37.086	0	249.0	4	88.1	4	-1E+10	1	0.5411	4	0.001584	0	-1E+10	1	-1E+10	1	-1E+10	1
4902624	21	C	01/17/2025	18:16	-125.902	47.135	0	38.10	0	9.5676	0	32.2776	0	24.898	0	37.780	0	248.4	4	87.9	4	-1E+10	1	0.5475	4	0.000722	0	-1E+10	1	-1E+10	1	-1E+10	1
4902624	21	C	01/17/2025	18:16	-125.902	47.135	0	38.80	0	9.5617	0	32.2787	0	24.900	0	38.474	0	247.6	4	87.6	4	-1E+10	1	0.5475	4	0.000628	0	-1E+10	1	-1E+10	1	-1E+10	1
4902624	21	C	01/17/2025	18:16	-125.902	47.135	0	39.00	0	9.5600	0	32.2790	0	24.901	0	38.672	0	-1e10	1	-1e10	1	-1E+10	1	-1e10	1	-1e10	1	-1E+10	1	-1E+10	1	-1E+10	1
4902624	21	C	01/17/2025	18:16	-125.902	47.135	0	39.50	0	9.5505	0	32.2795	0	24.903	0	39.168	0	246.9	4	87.3	4	-1E+10	1	0.5603	4	0.000628	0	-1E+10	1	-1E+10	1	-1E+10	1
4902624	21	C	01/17/2025	18:16	-125.902	47.135	0	40.20	0	9.5373	0	32.2803	0	24.905	0	39.862	0	245.9	4	86.9	4	-1E+10	1	0.5524	4	0.000597	0	-1E+10	1	-1E+10	1	-1E+10	1
4902624	21	C	01/17/2025	18:16	-125.902	47.135	0	40.90	0	9.5240	0	32.2810	0	24.908	0	40.556	0	244.9	4	86.6	4	-1E+10	1	0.5308	4	0.000601	0	-1E+10	1	-1E+10	1	-1E+10	1
4902624	21	C	01/17/2025	18:16	-125.902	47.135	0	41.60	0	9.5195	0	32.2834	0	24.911	0	41.250	0	243.7	4	86.1	4	-1E+10	1	0.5118	4	0.000596	0	-1E+10	1	-1E+10	1	-1E+10	1
4902624	21	C	01/17/2025	18:16	-125.902	47.135	0	42.40	0	9.5142	0	32.2862	0	24.914	0	42.043	0	242.5	4	85.7	4	-1E+10	1	0.4928	4	0.000583	0	-1E+10	1	-1E+10	1	-1E+10	1
4902624	21	C	01/17/2025	18:16	-125.902	47.135	0	42.90	0	9.5110	0	32.2880	0	24.916	0	42.539	0	-1e10	1	-1e10	1	-1E+10	1	-1e10	1	-1e10	1	-1E+10	1	-1E+10	1	-1E+10	1
4902624	21	C	01/17/2025	18:16	-125.902	47.135	0	43.10	0	9.5077	0	32.2895	0	24.917	0	42.737	0	241.1	4	85.2	4	-1E+10	1	0.4682	4	0.000588	0	-1E+10	1	-1E+10	1	-1E+10	1
4902624	21	C	01/17/2025	18:16	-125.902	47.135	0	43.80	0	9.4963	0	32.2945	0	24.923	0	43.431	0	239.8	4	84.7	4	-1E+10	1	0.4445	4	0.000549	0	-1E+10	1	-1E+10	1	-1E+10	1
4902624	21	C	01/17/2025	18:16	-125.902	47.135	0	44.50	0	9.4848	0	32.2996	0	24.929	0	44.125	0	238.3	4	84.2	4	-1E+10	1	0.4161	4	0.000558	0	-1E+10	1	-1E+10	1	-1E+10	1
4902624	21	C	01/17/2025	18:16	-125.902	47.135	0	45.10	0	9.4750	0	32.3040	0	24.934	0	44.720	0	-1e10	1	-1e10	1	-1E+10	1	-1e10	1	-1e10	1	-1E+10	1	-1E+10	1	-1E+10	1
4902624	21	C	01/17/2025	18:16	-125.902	47.135	0	45.40	0	9.4747	0	32.3067	0	24.936	0	45.018	0	236.1	4	83.4	4	-1E+10	1	0.3723	4	0.000511	0	-1E+10	1	-1E+10	1	-1E+10	1
4902624	21	C	01/17/2025	18:16	-125.902	47.135	0	46.00	0	9.4741	0	32.3121	0	24.940	0	45.613	0	234.4	4	82.8	4	-1E+10	1	0.3660	4	0.000501	0	-1E+10	1	-1E+10	1	-1E+10	1
4902624	21	C	01/17/2025	18:16	-125.902	47.135	0	46.60	0	9.4734	0	32.3174	0	24.945	0	46.207	0	232.3	4	82.0	4	-1E+10	1	0.3650	4	0.000506	0	-1E+10	1	-1E+10	1	-1E+10	1
4902624	21	C	01/17/2025	18:16	-125.902	47.135	0	47.00	0	9.4730	0	32.3210	0	24.948	0	46.604	0	-1e10	1	-1e10	1	-1E+10	1	-1e10	1	-1e10	1	-1E+10	1	-1E+10	1	-1E+10	1
4902624	21	C	01/17/2025	18:16	-125.902	47.135	0	47.40	0	9.4776	0	32.3280	0	24.952	0	47.001	0	229.6	4	81.1	4	-1E+10	1	0.3468	4	0.000487	0	-1E+10	1	-1E+10	1	-1E+10	1
4902624	21	C	01/17/2025	18:16	-125.902	47.135	0	48.20	0	9.4868	0	32.3420	0	24.962	0	47.794	0	226.7	4	80.1	4	-1E+10	1	0.3176	4	0.000460	0	-1E+10	1	-1E+10	1	-1E+10	1
4902624	21	C	01/17/2025	18:16	-125.902	47.135	0	49.00	0	9.4960	0	32.3560	0	24.971	0	48.587	0	223.9	4	79.1	4	-1E+10	1	0.2949	4	0.000452	0	-1E+10	1	-1E+10	1	-1E+10	1
4902624	21	C	01/17/2025	18:16	-125.902	47.135	0	49.80	0	9.5025	0	32.3724	0	24.983	0	49.380	0	221.7	4	78.4	4	-1E+10	1	0.2854	4	0.000449	0	-1E+10	1	-1E+10	1	-1E+10	1
4902624	21	C	01/17/2025	18:16	-125.902	47.135	0	50.70	0	9.5098	0	32.3908	0	24.996	0	50.272	0	219.7	4	77.7	4	-1E+10	1	0.2920	4	0.000417	0	-1E+10	1	-1E+10	1	-1E+10	1
4902624	21	C	01/17/2025	18:16	-125.902	47.135	0	51.10	0	9.5130	0	32.3990	0	25.002	0	50.669	0	-1e10	1	-1e10	1	-1E+10	1	-1e10	1	-1e10	1	-1E+10	1	-1E+10	1	-1E+10	1
4902624	21	C	01/17/2025	18:16	-125.902	47.135	0	51.60	0	9.5064	0	32.4079	0	25.010	0	51.165	0	217.7	4	77.0	4	-1E+10	1	0.2482	4	0.000440	0	-1E+10	1	-1E+10	1	-1E+10	1
4902624	21	C	01/17/2025	18:16	-125.902	47.135	0	52.50	0	9.4946	0	32.4240	0	25.025	0	52.057	0	215.6	4	76.2	4	-1E+10	1	0.2422	4	0.000412	0	-1E+10	1	-1E+10	1	-1E+10	1
4902624	21	C	01/17/2025	18:16	-125.902	47.135	0	53.00	0	9.4880	0	32.4330	0	25.033	0	52.553	0	-1e10	1	-1e10	1	-1E+10	1	-1e10	1	-1e10	1	-1E+10	1	-1E+10	1	-1E+10	1
4902624	21	C	01/17/2025	18:16	-125.902	47.135	0	53.40	0	9.4798	0	32.4378	0	25.038	0	52.949	0	213.3	4	75.4	4	-1E+10	1	0.2223	4	0.000420	0	-1E+10	1	-1E+10	1	-1E+10	1
4902624	21	C	01/17/2025	18:16	-125.902	47.135	0	54.40	0	9.4593	0	32.4499	0	25.051	0	53.941	0	211.0	4	74.5	4	-1E+10	1	0.2248	4	0.000408	0	-1E+10	1	-1E+10	1	-1E+10	1
4902624	21	C	01/17/2025	18:16	-125.902	47.135	0	54.90	0	9.4490	0	32.4560	0	25.057	0	54.436	0	-1e10	1	-1e10	1	-1E+10	1	-1e10	1	-1e10	1	-1E+10	1	-1E+10	1	-1E+10	1
4902624	21	C	01/17/2025	18:16	-125.902	47.135	0	55.40	0	9.4395	0	32.4624	0	25.064	0	54.932	0	208.8	4	73.8	4	-1E+10	1	0.2373	4	0.000405	0	-1E+10	1	-1E+10	1	-1E+10	1
4902624	21	C	01/17/2025	18:16	-125.902	47.135	0	56.40	0	9.4204	0	32.4753	0	25.077	0	55.924	0	206.4	4	72.9	4	-1E+10	1	0.2336	4	0.000409	0	-1E+10	1	-1E+10	1	-1E+10	1
4902624	21	C	01/17/2025	18:16	-125.902	47.135	0	57.00	0	9.4090	0	32.4830	0	25.085	0	56.518	0	-1e10	1	-1e10	1	-1E+10	1	-1e10	1	-1e10	1	-1E+10	1	-1E+10	1	-1E+10	1
4902624	21	C	01/17/2025	18:16	-125.902	47.135	0	57.50	0	9.3950	0	32.4902	0	25.093	0	57.014	0	203.8	4	71.9	4	-1E+10	1	0.2230	4	0.000393	0	-1E+10	1	-1E+10	1	-1E+10	1
4902624	21	C	01/17/2025	18:16	-125.902	47.135	0	58.50	0	9.3670	0	32.5048	0	25.108	0	58.005	0	201.2	4	71.0	4	-1E+10	1	0.2291	4	0.000393	0	-1E+10	1	-1E+10	1	-1E+10	1
4902624	21	C	01/17/2025	18:16	-125.902	47.135	0	59.00	0	9.3530	0	32.5120	0	25.116	0	58.501	0	-1e10	1	-1e10	1	-1E+10	1	-1e10	1	-1e10	1	-1E+10	1	-1E+10	1	-1E+10	1
4902624	21	C	01/17/2025	18:16	-125.902	47.135	0	59.60	0	9.3278	0	32.5258	0	25.131	0	59.096	0	198.7	4	70.1	4	-1E+10	1	0.2044	4	0.000393	0	-1E+10	1	-1E+10	1	-1E+10	1
4902624	21	C	01/17/2025	18:16	-125.902	47.135	0	60.80	0	9.2774	0	32.5534	0	25.161	0	60.286	0	195.7	4	68.9	4	-1E+10	1	0.1825	4	0.000358	0	-1E+10	1	-1E+10	1	-1E+10	1
4902624	21	C	01/17/2025	18:16	-125.902	47.135	0	61.00	0	9.2690	0	32.5580	0	25.166	0	60.484	0	-1e10	1	-1e10	1	-1E+10	1	-1e10	1	-1e10	1	-1E+10	1	-1E+10	1	-1E+10	1
4902624	21	C	01/17/2025	18:16	-125.902	47.135	0	61.80	0	9.2061	0	32.5919	0	25.202	0	61.277	0	193.6	4	68.1	4	-1E+10	1	0.1752	4	0.000358	0	-1E+10	1	-1E+10	1	-1E+10	1
4902624	21	C	01/17/2025	18:16	-125.902	47.135	0	62.50	0	9.1511	0	32.6216	0	25.234	0	61.971	0	192.2	4	67.5	4	-1E+10	1	0.1599	4	0.000391	0	-1E+10	1	-1E+10	1	-1E+10	1
4902624	21	C	01/17/2025	18:16	-125.902	47.135	0	63.10	0	9.1040	0	32.6470	0	25.261	0	62.566	0	-1e10	1	-1e10	1	-1E+10	1	-1e10	1	-1e10	1	-1E+10	1	-1E+10	1	-1E+10	1
4902624	21	C	01/17/2025	18:16	-125.902	47.135	0	63.20	0	9.0950	0	32.6501	0	25.265	0	62.665	0	190.5	4	66.9	4	-1E+10	1	0.1575	4	0.000405	0	-1E+10	1	-1E+10	1	-1E+10	1
4902624	21	C	01/17/2025	18:16	-125.902	47.135	0	63.80	0	9.0410	0	32.6684	0	25.288	0	63.260	0	189.2	4	66.4	4	-1E+10	1	0.1569	4	0.000382	0	-1E+10	1	-1E+10	1	-1E+10	1
4902624	21	C	01/17/2025	18:16	-125.902	47.135	0	64.30	0	8.9960	0	32.6836	0	25.307	0	63.756	0	187.6	4	65.7	4	-1E+10	1	0.1533	4	0.000365	0	-1E+10	1	-1E+10	1	-1E+10	1
4902624	21	C	01/17/2025	18:16	-125.902	47.135	0	64.90	0	8.9420	0	32.7020	0	25.329	0	64.350	0	185.7	4	65.0	4	-1E+10	1	0.1543	4	0.000377	0	-1E+10	1	-1E+10	1	-1E+10	1
4902624	21	C	01/17/2025	18:16	-125.902	47.135	0	65.00	0	8.9330	0	32.7050	0	25.333	0	64.450	0	-1e10	1	-1e10	1	-1E+10	1	-1e10	1	-1e10	1	-1E+10	1	-1E+10	1	-1E+10	1
4902624	21	C	01/17/2025	18:16	-125.902	47.135	0	65.50	0	8.8441	0	32.7353	0	25.371	0	64.945	0	183.5	4	64.1	4	-1E+10	1	0.1606	4	0.000346	0	-1E+10	1	-1E+10	1	-1E+10	1
4902624	21	C	01/17/2025	18:16	-125.902	47.135	0	66.10	0	8.7373	0	32.7716	0	25.415	0	65.540	0	181.5	4	63.3	4	-1E+10	1	0.1533	4	0.000382	0	-1E+10	1	-1E+10	1	-1E+10	1
4902624	21	C	01/17/2025	18:16	-125.902	47.135	0	66.90	0	8.5950	0	32.8200	0	25.475	0	66.333	0	179.8	4	62.5	4	-1E+10	1	0.1241	4	0.000356	0	-1E+10	1	-1E+10	1	-1E+10	1
4902624	21	C	01/17/2025	18:16	-125.902	47.135	0	67.50	0	8.5444	0	32.8443	0	25.502	0	66.928	0	178.6	4	62.0	4	-1E+10	1	0.1569	4	0.000349	0	-1E+10	1	-1E+10	1	-1E+10	1
4902624	21	C	01/17/2025	18:16	-125.902	47.135	0	68.10	0	8.4939	0	32.8686	0	25.528	0	67.523	0	177.2	4	61.5	4	-1E+10	1	0.1512	4	0.000367	0	-1E+10	1	-1E+10	1	-1E+10	1
4902624	21	C	01/17/2025	18:16	-125.902	47.135	0	68.80	0	8.4349	0	32.8969	0	25.559	0	68.217	0	175.6	4	60.9	4	-1E+10	1	0.1277	4	0.000364	0	-1E+10	1	-1E+10	1	-1E+10	1
4902624	21	C	01/17/2025	18:16	-125.902	47.135	0	69.00	0	8.4180	0	32.9050	0	25.568	0	68.415	0	-1e10	1	-1e10	1	-1E+10	1	-1e10	1	-1e10	1	-1E+10	1	-1E+10	1	-1E+10	1
4902624	21	C	01/17/2025	18:16	-125.902	47.135	0	69.50	0	8.4014	0	32.9134	0	25.577	0	68.911	0	173.7	4	60.2	4	-1E+10	1	0.1168	4	0.000360	0	-1E+10	1	-1E+10	1	-1E+10	1
4902624	21	C	01/17/2025	18:16	-125.902	47.135	0	70.10	0	8.3815	0	32.9235	0	25.588	0	69.505	0	171.8	4	59.5	4	-1E+10	1	0.1168	4	0.000405	0	-1E+10	1	-1E+10	1	-1E+10	1
4902624	21	C	01/17/2025	18:16	-125.902	47.135	0	70.70	0	8.3616	0	32.9336	0	25.599	0	70.100	0	169.6	4	58.7	4	-1E+10	1	0.1168	4	0.000497	0	-1E+10	1	-1E+10	1	-1E+10	1
4902624	21	C	01/17/2025	18:16	-125.902	47.135	0	70.90	0	8.3550	0	32.9370	0	25.603	0	70.299	0	-1e10	1	-1e10	1	-1E+10	1	-1e10	1	-1e10	1	-1E+10	1	-1E+10	1	-1E+10	1
4902624	21	C	01/17/2025	18:16	-125.902	47.135	0	71.40	0	8.3315	0	32.9508	0	25.617	0	70.794	0	167.5	4	57.9	4	-1E+10	1	0.1168	4	0.000323	0	-1E+10	1	-1E+10	1	-1E+10	1
4902624	21	C	01/17/2025	18:16	-125.902	47.135	0	72.10	0	8.2986	0	32.9700	0	25.637	0	71.488	0	164.9	4	57.0	4	-1E+10	1	0.1095	4	0.000346	0	-1E+10	1	-1E+10	1	-1E+10	1
4902624	21	C	01/17/2025	18:16	-125.902	47.135	0	72.70	0	8.2704	0	32.9865	0	25.654	0	72.083	0	163.1	4	56.3	4	-1E+10	1	0.1283	4	0.000346	0	-1E+10	1	-1E+10	1	-1E+10	1
4902624	21	C	01/17/2025	18:16	-125.902	47.135	0	72.90	0	8.2610	0	32.9920	0	25.660	0	72.281	0	-1e10	1	-1e10	1	-1E+10	1	-1e10	1	-1e10	1	-1E+10	1	-1E+10	1	-1E+10	1
4902624	21	C	01/17/2025	18:16	-125.902	47.135	0	73.30	0	8.2300	0	33.0078	0	25.677	0	72.678	0	161.3	4	55.7	4	-1E+10	1	0.1223	4	0.000354	0	-1E+10	1	-1E+10	1	-1E+10	1
4902624	21	C	01/17/2025	18:16	-125.902	47.135	0	74.00	0	8.1757	0	33.0354	0	25.707	0	73.372	0	159.1	4	54.9	4	-1E+10	1	0.1168	4	0.000337	0	-1E+10	1	-1E+10	1	-1E+10	1
4902624	21	C	01/17/2025	18:16	-125.902	47.135	0	74.70	0	8.1215	0	33.0631	0	25.736	0	74.066	0	156.7	4	54.0	4	-1E+10	1	0.1189	4	0.000325	0	-1E+10	1	-1E+10	1	-1E+10	1
4902624	21	C	01/17/2025	18:16	-125.902	47.135	0	74.90	0	8.1060	0	33.0710	0	25.745	0	74.264	0	-1e10	1	-1e10	1	-1E+10	1	-1e10	1	-1e10	1	-1E+10	1	-1E+10	1	-1E+10	1
4902624	21	C	01/17/2025	18:16	-125.902	47.135	0	75.50	0	8.0883	0	33.0909	0	25.763	0	74.859	0	154.2	4	53.1	4	-1E+10	1	0.1217	4	0.000374	0	-1E+10	1	-1E+10	1	-1E+10	1
4902624	21	C	01/17/2025	18:16	-125.902	47.135	0	76.30	0	8.0646	0	33.1175	0	25.787	0	75.652	0	152.5	4	52.5	4	-1E+10	1	0.1095	4	0.000385	0	-1E+10	1	-1E+10	1	-1E+10	1
4902624	21	C	01/17/2025	18:16	-125.902	47.135	0	77.10	0	8.0410	0	33.1440	0	25.812	0	76.445	0	149.0	4	51.3	4	-1E+10	1	0.0892	4	0.000328	0	-1E+10	1	-1E+10	1	-1E+10	1
4902624	21	C	01/17/2025	18:16	-125.902	47.135	0	77.90	0	8.0246	0	33.1663	0	25.832	0	77.238	0	147.6	4	50.8	4	-1E+10	1	0.0956	4	0.000346	0	-1E+10	1	-1E+10	1	-1E+10	1
4902624	21	C	01/17/2025	18:16	-125.902	47.135	0	78.90	0	8.0041	0	33.1942	0	25.857	0	78.229	0	145.9	4	50.2	4	-1E+10	1	0.1022	4	0.000346	0	-1E+10	1	-1E+10	1	-1E+10	1
4902624	21	C	01/17/2025	18:16	-125.902	47.135	0	79.00	0	8.0020	0	33.1970	0	25.859	0	78.328	0	-1e10	1	-1e10	1	-1E+10	1	-1e10	1	-1e10	1	-1E+10	1	-1E+10	1	-1E+10	1
4902624	21	C	01/17/2025	18:16	-125.902	47.135	0	79.80	0	7.9972	0	33.2066	0	25.867	0	79.121	0	144.0	4	49.5	4	-1E+10	1	0.1082	4	0.000375	0	-1E+10	1	-1E+10	1	-1E+10	1
4902624	21	C	01/17/2025	18:16	-125.902	47.135	0	80.70	0	7.9918	0	33.2174	0	25.877	0	80.014	0	141.9	4	48.8	4	-1E+10	1	0.0868	4	0.000327	0	-1E+10	1	-1E+10	1	-1E+10	1
4902624	21	C	01/17/2025	18:16	-125.902	47.135	0	81.00	0	7.9900	0	33.2210	0	25.880	0	80.311	0	-1e10	1	-1e10	1	-1E+10	1	-1e10	1	-1e10	1	-1E+10	1	-1E+10	1	-1E+10	1
4902624	21	C	01/17/2025	18:16	-125.902	47.135	0	81.60	0	7.9801	0	33.2405	0	25.896	0	80.906	0	139.9	4	48.1	4	-1E+10	1	0.0757	4	0.000319	0	-1E+10	1	-1E+10	1	-1E+10	1
4902624	21	C	01/17/2025	18:16	-125.902	47.135	0	82.60	0	7.9636	0	33.2730	0	25.924	0	81.897	0	138.7	4	47.7	4	-1E+10	1	0.0730	4	0.000317	0	-1E+10	1	-1E+10	1	-1E+10	1
4902624	21	C	01/17/2025	18:16	-125.902	47.135	0	83.00	0	7.9570	0	33.2860	0	25.936	0	82.293	0	-1e10	1	-1e10	1	-1E+10	1	-1e10	1	-1e10	1	-1E+10	1	-1E+10	1	-1E+10	1
4902624	21	C	01/17/2025	18:16	-125.902	47.135	0	83.60	0	7.9504	0	33.2983	0	25.946	0	82.888	0	137.6	4	47.3	4	-1E+10	1	0.0759	4	0.000321	0	-1E+10	1	-1E+10	1	-1E+10	1
4902624	21	C	01/17/2025	18:16	-125.902	47.135	0	84.60	0	7.9394	0	33.3188	0	25.964	0	83.880	0	136.6	4	47.0	4	-1E+10	1	0.0781	4	0.000335	0	-1E+10	1	-1E+10	1	-1E+10	1
4902624	21	C	01/17/2025	18:16	-125.902	47.135	0	85.00	0	7.9350	0	33.3270	0	25.971	0	84.276	0	-1e10	1	-1e10	1	-1E+10	1	-1e10	1	-1e10	1	-1E+10	1	-1E+10	1	-1E+10	1
4902624	21	C	01/17/2025	18:16	-125.902	47.135	0	85.70	0	7.9276	0	33.3354	0	25.979	0	84.970	0	135.7	4	46.7	4	-1E+10	1	0.0730	4	0.000340	0	-1E+10	1	-1E+10	1	-1E+10	1
4902624	21	C	01/17/2025	18:16	-125.902	47.135	0	86.70	0	7.9172	0	33.3474	0	25.990	0	85.961	0	135.1	4	46.4	4	-1E+10	1	0.0730	4	0.000370	0	-1E+10	1	-1E+10	1	-1E+10	1
4902624	21	C	01/17/2025	18:16	-125.902	47.135	0	87.00	0	7.9140	0	33.3510	0	25.993	0	86.259	0	-1e10	1	-1e10	1	-1E+10	1	-1e10	1	-1e10	1	-1E+10	1	-1E+10	1	-1E+10	1
4902624	21	C	01/17/2025	18:16	-125.902	47.135	0	87.70	0	7.9070	0	33.3563	0	25.998	0	86.952	0	134.4	4	46.2	4	-1E+10	1	0.0803	4	0.000335	0	-1E+10	1	-1E+10	1	-1E+10	1
4902624	21	C	01/17/2025	18:16	-125.902	47.135	0	88.80	0	7.8960	0	33.3647	0	26.006	0	88.043	0	133.7	4	45.9	4	-1E+10	1	0.0679	4	0.000374	0	-1E+10	1	-1E+10	1	-1E+10	1
4902624	21	C	01/17/2025	18:16	-125.902	47.135	0	89.10	0	7.8930	0	33.3670	0	26.009	0	88.340	0	-1e10	1	-1e10	1	-1E+10	1	-1e10	1	-1e10	1	-1E+10	1	-1E+10	1	-1E+10	1
4902624	21	C	01/17/2025	18:16	-125.902	47.135	0	89.90	0	7.8791	0	33.3771	0	26.019	0	89.133	0	133.1	4	45.7	4	-1E+10	1	0.0708	4	0.000601	0	-1E+10	1	-1E+10	1	-1E+10	1
4902624	21	C	01/17/2025	18:16	-125.902	47.135	0	91.00	0	7.8600	0	33.3910	0	26.032	0	90.224	0	131.1	4	45.0	4	-1E+10	1	0.0602	4	0.000466	0	-1E+10	1	-1E+10	1	-1E+10	1
4902624	21	C	01/17/2025	18:16	-125.902	47.135	0	92.20	0	7.8206	0	33.4219	0	26.062	0	91.413	0	132.1	4	45.3	4	-1E+10	1	0.0545	4	0.000316	0	-1E+10	1	-1E+10	1	-1E+10	1
4902624	21	C	01/17/2025	18:16	-125.902	47.135	0	93.10	0	7.7910	0	33.4450	0	26.085	0	92.305	0	-1e10	1	-1e10	1	-1E+10	1	-1e10	1	-1e10	1	-1E+10	1	-1E+10	1	-1E+10	1
4902624	21	C	01/17/2025	18:16	-125.902	47.135	0	93.40	0	7.7856	0	33.4494	0	26.089	0	92.603	0	131.6	4	45.1	4	-1E+10	1	0.0584	4	0.000335	0	-1E+10	1	-1E+10	1	-1E+10	1
4902624	21	C	01/17/2025	18:16	-125.902	47.135	0	94.70	0	7.7624	0	33.4686	0	26.107	0	93.891	0	131.1	4	44.9	4	-1E+10	1	0.0602	4	0.000326	0	-1E+10	1	-1E+10	1	-1E+10	1
4902624	21	C	01/17/2025	18:16	-125.902	47.135	0	95.00	0	7.7570	0	33.4730	0	26.112	0	94.189	0	-1e10	1	-1e10	1	-1E+10	1	-1e10	1	-1e10	1	-1E+10	1	-1E+10	1	-1E+10	1
4902624	21	C	01/17/2025	18:16	-125.902	47.135	0	95.80	0	7.7482	0	33.4810	0	26.119	0	94.982	0	130.5	4	44.7	4	-1E+10	1	0.0647	4	0.000304	0	-1E+10	1	-1E+10	1	-1E+10	1
4902624	21	C	01/17/2025	18:16	-125.902	47.135	0	96.90	0	7.7360	0	33.4920	0	26.130	0	96.072	0	-1e10	1	-1e10	1	-1E+10	1	-1e10	1	-1e10	1	-1E+10	1	-1E+10	1	-1E+10	1
4902624	21	C	01/17/2025	18:16	-125.902	47.135	0	97.10	0	7.7334	0	33.4948	0	26.132	0	96.270	0	129.9	4	44.5	4	-1E+10	1	0.0584	4	0.000334	0	-1E+10	1	-1E+10	1	-1E+10	1
4902624	21	C	01/17/2025	18:16	-125.902	47.135	0	98.30	0	7.7180	0	33.5113	0	26.147	0	97.460	0	129.4	4	44.3	4	-1E+10	1	0.0521	4	0.000345	0	-1E+10	1	-1E+10	1	-1E+10	1
4902624	21	C	01/17/2025	18:16	-125.902	47.135	0	99.00	0	7.7090	0	33.5210	0	26.156	0	98.153	0	-1e10	1	-1e10	1	-1E+10	1	-1e10	1	-1e10	1	-1E+10	1	-1E+10	1	-1E+10	1
4902624	21	C	01/17/2025	18:16	-125.902	47.135	0	99.40	0	7.7066	0	33.5262	0	26.161	0	98.550	0	128.7	4	44.1	4	-1E+10	1	0.0402	4	0.000830	0	-1E+10	1	-1E+10	1	-1E+10	1
4902624	21	C	01/17/2025	18:16	-125.902	47.135	0	100.60	0	7.6994	0	33.5418	0	26.174	0	99.739	0	127.9	4	43.8	4	-1E+10	1	0.0459	4	0.000569	0	-1E+10	1	-1E+10	1	-1E+10	1
4902624	21	C	01/17/2025	18:16	-125.902	47.135	0	101.00	0	7.6970	0	33.5470	0	26.178	0	100.136	0	-1e10	1	-1e10	1	-1E+10	1	-1e10	1	-1e10	1	-1E+10	1	-1E+10	1	-1E+10	1
4902624	21	C	01/17/2025	18:16	-125.902	47.135	0	101.90	0	7.6961	0	33.5521	0	26.183	0	101.028	0	127.4	4	43.6	4	-1E+10	1	0.0472	4	0.000328	0	-1E+10	1	-1E+10	1	-1E+10	1
4902624	21	C	01/17/2025	18:16	-125.902	47.135	0	103.10	0	7.6950	0	33.5590	0	26.188	0	102.217	0	125.3	4	42.9	4	-1E+10	1	0.0438	4	0.000328	0	-1E+10	1	-1E+10	1	-1E+10	1
4902624	21	C	01/17/2025	18:16	-125.902	47.135	0	104.20	0	7.6928	0	33.5650	0	26.193	0	103.308	0	126.2	4	43.2	4	-1E+10	1	0.0414	4	0.000346	0	-1E+10	1	-1E+10	1	-1E+10	1
4902624	21	C	01/17/2025	18:16	-125.902	47.135	0	105.10	0	7.6910	0	33.5700	0	26.197	0	104.200	0	-1e10	1	-1e10	1	-1E+10	1	-1e10	1	-1e10	1	-1E+10	1	-1E+10	1	-1E+10	1
4902624	21	C	01/17/2025	18:16	-125.902	47.135	0	105.30	0	7.6873	0	33.5734	0	26.201	0	104.398	0	125.7	4	43.1	4	-1E+10	1	0.0405	4	0.000347	0	-1E+10	1	-1E+10	1	-1E+10	1
4902624	21	C	01/17/2025	18:16	-125.902	47.135	0	106.10	0	7.6725	0	33.5870	0	26.213	0	105.191	0	125.4	4	42.9	4	-1E+10	1	0.0511	4	0.000287	0	-1E+10	1	-1E+10	1	-1E+10	1
4902624	21	C	01/17/2025	18:16	-125.902	47.135	0	106.80	0	7.6595	0	33.5989	0	26.225	0	105.885	0	125.0	4	42.8	4	-1E+10	1	0.0511	4	0.000311	0	-1E+10	1	-1E+10	1	-1E+10	1
4902624	21	C	01/17/2025	18:16	-125.902	47.135	0	107.10	0	7.6540	0	33.6040	0	26.229	0	106.182	0	-1e10	1	-1e10	1	-1E+10	1	-1e10	1	-1e10	1	-1E+10	1	-1E+10	1	-1E+10	1
4902624	21	C	01/17/2025	18:16	-125.902	47.135	0	107.50	0	7.6458	0	33.6099	0	26.235	0	106.579	0	124.8	4	42.7	4	-1E+10	1	0.0511	4	0.000347	0	-1E+10	1	-1E+10	1	-1E+10	1
4902624	21	C	01/17/2025	18:16	-125.902	47.135	0	108.20	0	7.6314	0	33.6202	0	26.245	0	107.272	0	124.5	4	42.6	4	-1E+10	1	0.0511	4	0.000351	0	-1E+10	1	-1E+10	1	-1E+10	1
4902624	21	C	01/17/2025	18:16	-125.902	47.135	0	108.90	0	7.6171	0	33.6305	0	26.256	0	107.966	0	124.2	4	42.5	4	-1E+10	1	0.0553	4	0.000346	0	-1E+10	1	-1E+10	1	-1E+10	1
4902624	21	C	01/17/2025	18:16	-125.902	47.135	0	109.00	0	7.6150	0	33.6320	0	26.257	0	108.065	0	-1e10	1	-1e10	1	-1E+10	1	-1e10	1	-1e10	1	-1E+10	1	-1E+10	1	-1E+10	1
4902624	21	C	01/17/2025	18:16	-125.902	47.135	0	109.70	0	7.6083	0	33.6360	0	26.261	0	108.759	0	123.9	4	42.4	4	-1E+10	1	0.0543	4	0.000333	0	-1E+10	1	-1E+10	1	-1E+10	1
4902624	21	C	01/17/2025	18:16	-125.902	47.135	0	110.40	0	7.6017	0	33.6400	0	26.265	0	109.453	0	123.5	4	42.2	4	-1E+10	1	0.0484	4	0.000331	0	-1E+10	1	-1E+10	1	-1E+10	1
4902624	21	C	01/17/2025	18:16	-125.902	47.135	0	111.10	0	7.5950	0	33.6440	0	26.269	0	110.147	0	121.6	4	41.6	4	-1E+10	1	0.0459	4	0.000333	0	-1E+10	1	-1E+10	1	-1E+10	1
4902624	21	C	01/17/2025	18:16	-125.902	47.135	0	111.80	0	7.5761	0	33.6566	0	26.282	0	110.841	0	123.0	4	42.0	4	-1E+10	1	0.0527	4	0.000302	0	-1E+10	1	-1E+10	1	-1E+10	1
4902624	21	C	01/17/2025	18:16	-125.902	47.135	0	112.50	0	7.5572	0	33.6692	0	26.295	0	111.534	0	122.9	4	42.0	4	-1E+10	1	0.0584	4	0.000311	0	-1E+10	1	-1E+10	1	-1E+10	1
4902624	21	C	01/17/2025	18:16	-125.902	47.135	0	113.10	0	7.5410	0	33.6800	0	26.305	0	112.129	0	-1e10	1	-1e10	1	-1E+10	1	-1e10	1	-1e10	1	-1E+10	1	-1E+10	1	-1E+10	1
4902624	21	C	01/17/2025	18:16	-125.902	47.135	0	113.20	0	7.5391	0	33.6810	0	26.306	0	112.228	0	122.8	4	41.9	4	-1E+10	1	0.0456	4	0.000331	0	-1E+10	1	-1E+10	1	-1E+10	1
4902624	21	C	01/17/2025	18:16	-125.902	47.135	0	113.90	0	7.5258	0	33.6876	0	26.314	0	112.922	0	122.7	4	41.9	4	-1E+10	1	0.0375	4	0.000304	0	-1E+10	1	-1E+10	1	-1E+10	1
4902624	21	C	01/17/2025	18:16	-125.902	47.135	0	114.60	0	7.5125	0	33.6943	0	26.321	0	113.616	0	122.6	4	41.9	4	-1E+10	1	0.0365	4	0.000330	0	-1E+10	1	-1E+10	1	-1E+10	1
4902624	21	C	01/17/2025	18:16	-125.902	47.135	0	115.10	0	7.5030	0	33.6990	0	26.326	0	114.111	0	-1e10	1	-1e10	1	-1E+10	1	-1e10	1	-1e10	1	-1E+10	1	-1E+10	1	-1E+10	1
4902624	21	C	01/17/2025	18:16	-125.902	47.135	0	115.40	0	7.4962	0	33.7020	0	26.329	0	114.409	0	122.5	4	41.8	4	-1E+10	1	0.0406	4	0.000333	0	-1E+10	1	-1E+10	1	-1E+10	1
4902624	21	C	01/17/2025	18:16	-125.902	47.135	0	116.10	0	7.4805	0	33.7090	0	26.337	0	115.103	0	122.4	4	41.8	4	-1E+10	1	0.0383	4	0.000521	0	-1E+10	1	-1E+10	1	-1E+10	1
4902624	21	C	01/17/2025	18:16	-125.902	47.135	0	116.90	0	7.4625	0	33.7170	0	26.346	0	115.895	0	122.4	4	41.8	4	-1E+10	1	0.0341	4	0.000663	0	-1E+10	1	-1E+10	1	-1E+10	1
4902624	21	C	01/17/2025	18:16	-125.902	47.135	0	117.10	0	7.4580	0	33.7190	0	26.348	0	116.094	0	-1e10	1	-1e10	1	-1E+10	1	-1e10	1	-1e10	1	-1E+10	1	-1E+10	1	-1E+10	1
4902624	21	C	01/17/2025	18:16	-125.902	47.135	0	117.70	0	7.4520	0	33.7214	0	26.351	0	116.688	0	122.4	4	41.7	4	-1E+10	1	0.0453	4	0.000287	0	-1E+10	1	-1E+10	1	-1E+10	1
4902624	21	C	01/17/2025	18:16	-125.902	47.135	0	118.50	0	7.4440	0	33.7246	0	26.354	0	117.481	0	122.3	4	41.7	4	-1E+10	1	0.0511	4	0.000287	0	-1E+10	1	-1E+10	1	-1E+10	1
4902624	21	C	01/17/2025	18:16	-125.902	47.135	0	119.10	0	7.4380	0	33.7270	0	26.357	0	118.076	0	-1e10	1	-1e10	1	-1E+10	1	-1e10	1	-1e10	1	-1E+10	1	-1E+10	1	-1E+10	1
4902624	21	C	01/17/2025	18:16	-125.902	47.135	0	119.30	0	7.4369	0	33.7275	0	26.358	0	118.274	0	122.2	4	41.7	4	-1E+10	1	0.0438	4	0.000276	0	-1E+10	1	-1E+10	1	-1E+10	1
4902624	21	C	01/17/2025	18:16	-125.902	47.135	0	120.10	0	7.4325	0	33.7295	0	26.360	0	119.067	0	122.2	4	41.7	4	-1E+10	1	0.0438	4	0.000304	0	-1E+10	1	-1E+10	1	-1E+10	1
4902624	21	C	01/17/2025	18:16	-125.902	47.135	0	120.90	0	7.4281	0	33.7315	0	26.362	0	119.860	0	122.1	4	41.6	4	-1E+10	1	0.0243	4	0.000319	0	-1E+10	1	-1E+10	1	-1E+10	1
4902624	21	C	01/17/2025	18:16	-125.902	47.135	0	121.10	0	7.4270	0	33.7320	0	26.363	0	120.058	0	-1e10	1	-1e10	1	-1E+10	1	-1e10	1	-1e10	1	-1E+10	1	-1E+10	1	-1E+10	1
4902624	21	C	01/17/2025	18:16	-125.902	47.135	0	121.80	0	7.4130	0	33.7362	0	26.368	0	120.752	0	122.0	4	41.6	4	-1E+10	1	0.0438	4	0.000283	0	-1E+10	1	-1E+10	1	-1E+10	1
4902624	21	C	01/17/2025	18:16	-125.902	47.135	0	122.60	0	7.3970	0	33.7410	0	26.374	0	121.545	0	121.9	4	41.5	4	-1E+10	1	0.0511	4	0.000302	0	-1E+10	1	-1E+10	1	-1E+10	1
4902624	21	C	01/17/2025	18:16	-125.902	47.135	0	123.10	0	7.3870	0	33.7440	0	26.378	0	122.040	0	-1e10	1	-1e10	1	-1E+10	1	-1e10	1	-1e10	1	-1E+10	1	-1E+10	1	-1E+10	1
4902624	21	C	01/17/2025	18:16	-125.902	47.135	0	123.50	0	7.3805	0	33.7453	0	26.380	0	122.437	0	121.8	4	41.5	4	-1E+10	1	0.0385	4	0.000334	0	-1E+10	1	-1E+10	1	-1E+10	1
4902624	21	C	01/17/2025	18:16	-125.902	47.135	0	124.30	0	7.3674	0	33.7478	0	26.383	0	123.230	0	121.5	4	41.4	4	-1E+10	1	0.0319	4	0.000328	0	-1E+10	1	-1E+10	1	-1E+10	1
4902624	21	C	01/17/2025	18:16	-125.902	47.135	0	125.00	0	7.3560	0	33.7500	0	26.387	0	123.923	0	-1e10	1	-1e10	1	-1E+10	1	-1e10	1	-1e10	1	-1E+10	1	-1E+10	1	-1E+10	1
4902624	21	C	01/17/2025	18:16	-125.902	47.135	0	125.10	0	7.3557	0	33.7500	0	26.387	0	124.022	0	121.3	4	41.3	4	-1E+10	1	0.0518	4	0.000361	0	-1E+10	1	-1E+10	1	-1E+10	1
4902624	21	C	01/17/2025	18:16	-125.902	47.135	0	126.00	0	7.3527	0	33.7500	0	26.387	0	124.914	0	120.9	4	41.2	4	-1E+10	1	0.0584	4	0.000334	0	-1E+10	1	-1E+10	1	-1E+10	1
4902624	21	C	01/17/2025	18:16	-125.902	47.135	0	126.80	0	7.3500	0	33.7500	0	26.388	0	125.707	0	120.6	4	41.0	4	-1E+10	1	0.0526	4	0.000269	0	-1E+10	1	-1E+10	1	-1E+10	1
4902624	21	C	01/17/2025	18:16	-125.902	47.135	0	127.10	0	7.3490	0	33.7500	0	26.388	0	126.005	0	-1e10	1	-1e10	1	-1E+10	1	-1e10	1	-1e10	1	-1E+10	1	-1E+10	1	-1E+10	1
4902624	21	C	01/17/2025	18:16	-125.902	47.135	0	127.70	0	7.3453	0	33.7507	0	26.389	0	126.599	0	120.2	4	40.9	4	-1E+10	1	0.0383	4	0.000283	0	-1E+10	1	-1E+10	1	-1E+10	1
4902624	21	C	01/17/2025	18:16	-125.902	47.135	0	128.50	0	7.3404	0	33.7516	0	26.390	0	127.392	0	119.6	4	40.7	4	-1E+10	1	0.0467	4	0.000328	0	-1E+10	1	-1E+10	1	-1E+10	1
4902624	21	C	01/17/2025	18:16	-125.902	47.135	0	128.90	0	7.3380	0	33.7520	0	26.391	0	127.789	0	-1e10	1	-1e10	1	-1E+10	1	-1e10	1	-1e10	1	-1E+10	1	-1E+10	1	-1E+10	1
4902624	21	C	01/17/2025	18:16	-125.902	47.135	0	129.40	0	7.3357	0	33.7530	0	26.392	0	128.284	0	118.9	4	40.5	4	-1E+10	1	0.0471	4	0.000359	0	-1E+10	1	-1E+10	1	-1E+10	1
4902624	21	C	01/17/2025	18:16	-125.902	47.135	0	130.30	0	7.3317	0	33.7548	0	26.394	0	129.176	0	118.0	4	40.2	4	-1E+10	1	0.0438	4	0.000322	0	-1E+10	1	-1E+10	1	-1E+10	1
4902624	21	C	01/17/2025	18:16	-125.902	47.135	0	130.90	0	7.3290	0	33.7560	0	26.395	0	129.771	0	-1e10	1	-1e10	1	-1E+10	1	-1e10	1	-1e10	1	-1E+10	1	-1E+10	1	-1E+10	1
4902624	21	C	01/17/2025	18:16	-125.902	47.135	0	131.20	0	7.3266	0	33.7570	0	26.396	0	130.068	0	117.2	4	39.9	4	-1E+10	1	0.0438	4	0.000289	0	-1E+10	1	-1E+10	1	-1E+10	1
4902624	21	C	01/17/2025	18:16	-125.902	47.135	0	132.10	0	7.3194	0	33.7602	0	26.400	0	130.960	0	116.2	4	39.5	4	-1E+10	1	0.0451	4	0.000341	0	-1E+10	1	-1E+10	1	-1E+10	1
4902624	21	C	01/17/2025	18:16	-125.902	47.135	0	132.90	0	7.3130	0	33.7630	0	26.403	0	131.753	0	-1e10	1	-1e10	1	-1E+10	1	-1e10	1	-1e10	1	-1E+10	1	-1E+10	1	-1E+10	1
4902624	21	C	01/17/2025	18:16	-125.902	47.135	0	133.00	0	7.3129	0	33.7640	0	26.404	0	131.852	0	115.3	4	39.2	4	-1E+10	1	0.0511	4	0.000369	0	-1E+10	1	-1E+10	1	-1E+10	1
4902624	21	C	01/17/2025	18:16	-125.902	47.135	0	133.90	0	7.3120	0	33.7725	0	26.411	0	132.744	0	114.5	4	38.9	4	-1E+10	1	0.0438	4	0.000334	0	-1E+10	1	-1E+10	1	-1E+10	1
4902624	21	C	01/17/2025	18:16	-125.902	47.135	0	134.80	0	7.3112	0	33.7811	0	26.418	0	133.636	0	113.9	4	38.8	4	-1E+10	1	0.0498	4	0.000310	0	-1E+10	1	-1E+10	1	-1E+10	1
4902624	21	C	01/17/2025	18:16	-125.902	47.135	0	135.00	0	7.3110	0	33.7830	0	26.419	0	133.834	0	-1e10	1	-1e10	1	-1E+10	1	-1e10	1	-1e10	1	-1E+10	1	-1E+10	1	-1E+10	1
4902624	21	C	01/17/2025	18:16	-125.902	47.135	0	135.80	0	7.3160	0	33.7864	0	26.421	0	134.627	0	113.4	4	38.6	4	-1E+10	1	0.0316	4	0.000300	0	-1E+10	1	-1E+10	1	-1E+10	1
4902624	21	C	01/17/2025	18:16	-125.902	47.135	0	136.70	0	7.3215	0	33.7903	0	26.423	0	135.519	0	112.7	4	38.4	4	-1E+10	1	0.0409	4	0.000280	0	-1E+10	1	-1E+10	1	-1E+10	1
4902624	21	C	01/17/2025	18:16	-125.902	47.135	0	137.10	0	7.3240	0	33.7920	0	26.424	0	135.915	0	-1e10	1	-1e10	1	-1E+10	1	-1e10	1	-1e10	1	-1E+10	1	-1E+10	1	-1E+10	1
4902624	21	C	01/17/2025	18:16	-125.902	47.135	0	137.70	0	7.3256	0	33.7945	0	26.426	0	136.510	0	112.2	4	38.2	4	-1E+10	1	0.0491	4	0.000275	0	-1E+10	1	-1E+10	1	-1E+10	1
4902624	21	C	01/17/2025	18:16	-125.902	47.135	0	138.60	0	7.3279	0	33.7983	0	26.429	0	137.402	0	111.6	4	38.0	4	-1E+10	1	0.0438	4	0.000305	0	-1E+10	1	-1E+10	1	-1E+10	1
4902624	21	C	01/17/2025	18:16	-125.902	47.135	0	139.00	0	7.3290	0	33.8000	0	26.430	0	137.798	0	-1e10	1	-1e10	1	-1E+10	1	-1e10	1	-1e10	1	-1E+10	1	-1E+10	1	-1E+10	1
4902624	21	C	01/17/2025	18:16	-125.902	47.135	0	139.60	0	7.3305	0	33.8024	0	26.432	0	138.393	0	110.9	4	37.7	4	-1E+10	1	0.0333	4	0.000308	0	-1E+10	1	-1E+10	1	-1E+10	1
4902624	21	C	01/17/2025	18:16	-125.902	47.135	0	140.50	0	7.3328	0	33.8060	0	26.434	0	139.285	0	110.1	4	37.5	4	-1E+10	1	0.0389	4	0.000307	0	-1E+10	1	-1E+10	1	-1E+10	1
4902624	21	C	01/17/2025	18:16	-125.902	47.135	0	141.00	0	7.3340	0	33.8080	0	26.436	0	139.780	0	-1e10	1	-1e10	1	-1E+10	1	-1e10	1	-1e10	1	-1E+10	1	-1E+10	1	-1E+10	1
4902624	21	C	01/17/2025	18:16	-125.902	47.135	0	141.50	0	7.3342	0	33.8102	0	26.437	0	140.276	0	109.4	4	37.2	4	-1E+10	1	0.0557	4	0.000350	0	-1E+10	1	-1E+10	1	-1E+10	1
4902624	21	C	01/17/2025	18:16	-125.902	47.135	0	142.40	0	7.3347	0	33.8143	0	26.441	0	141.168	0	108.7	4	37.0	4	-1E+10	1	0.0438	4	0.000264	0	-1E+10	1	-1E+10	1	-1E+10	1
4902624	21	C	01/17/2025	18:16	-125.902	47.135	0	143.00	0	7.3350	0	33.8170	0	26.443	0	141.762	0	-1e10	1	-1e10	1	-1E+10	1	-1e10	1	-1e10	1	-1E+10	1	-1E+10	1	-1E+10	1
4902624	21	C	01/17/2025	18:16	-125.902	47.135	0	143.40	0	7.3356	0	33.8184	0	26.444	0	142.159	0	108.1	4	36.8	4	-1E+10	1	0.0438	4	0.000275	0	-1E+10	1	-1E+10	1	-1E+10	1
4902624	21	C	01/17/2025	18:16	-125.902	47.135	0	144.30	0	7.3369	0	33.8216	0	26.446	0	143.050	0	107.5	4	36.6	4	-1E+10	1	0.0498	4	0.000323	0	-1E+10	1	-1E+10	1	-1E+10	1
4902624	21	C	01/17/2025	18:16	-125.902	47.135	0	145.00	0	7.3380	0	33.8240	0	26.448	0	143.744	0	-1e10	1	-1e10	1	-1E+10	1	-1e10	1	-1e10	1	-1E+10	1	-1E+10	1	-1E+10	1
4902624	21	C	01/17/2025	18:16	-125.902	47.135	0	145.30	0	7.3359	0	33.8258	0	26.449	0	144.041	0	106.9	4	36.4	4	-1E+10	1	0.0511	4	0.000295	0	-1E+10	1	-1E+10	1	-1E+10	1
4902624	21	C	01/17/2025	18:16	-125.902	47.135	0	146.20	0	7.3296	0	33.8312	0	26.455	0	144.933	0	106.4	4	36.2	4	-1E+10	1	0.0511	4	0.000295	0	-1E+10	1	-1E+10	1	-1E+10	1
4902624	21	C	01/17/2025	18:16	-125.902	47.135	0	147.00	0	7.3240	0	33.8360	0	26.459	0	145.726	0	-1e10	1	-1e10	1	-1E+10	1	-1e10	1	-1e10	1	-1E+10	1	-1E+10	1	-1E+10	1
4902624	21	C	01/17/2025	18:16	-125.902	47.135	0	147.20	0	7.3210	0	33.8366	0	26.460	0	145.924	0	105.9	4	36.1	4	-1E+10	1	0.0474	4	0.000316	0	-1E+10	1	-1E+10	1	-1E+10	1
4902624	21	C	01/17/2025	18:16	-125.902	47.135	0	148.20	0	7.3060	0	33.8396	0	26.465	0	146.915	0	105.6	4	35.9	4	-1E+10	1	0.0411	4	0.000322	0	-1E+10	1	-1E+10	1	-1E+10	1
4902624	21	C	01/17/2025	18:16	-125.902	47.135	0	149.00	0	7.2940	0	33.8420	0	26.468	0	147.708	0	-1e10	1	-1e10	1	-1E+10	1	-1e10	1	-1e10	1	-1E+10	1	-1E+10	1	-1E+10	1
4902624	21	C	01/17/2025	18:16	-125.902	47.135	0	149.10	0	7.2921	0	33.8422	0	26.469	0	147.807	0	105.4	4	35.9	4	-1E+10	1	0.0380	4	0.000313	0	-1E+10	1	-1E+10	1	-1E+10	1
4902624	21	C	01/17/2025	18:16	-125.902	47.135	0	150.10	0	7.2732	0	33.8437	0	26.472	0	148.798	0	105.4	4	35.8	4	-1E+10	1	0.0450	4	0.000281	0	-1E+10	1	-1E+10	1	-1E+10	1
4902624	21	C	01/17/2025	18:16	-125.902	47.135	0	150.90	0	7.2580	0	33.8450	0	26.476	0	149.591	0	-1e10	1	-1e10	1	-1E+10	1	-1e10	1	-1e10	1	-1E+10	1	-1E+10	1	-1E+10	1
4902624	21	C	01/17/2025	18:16	-125.902	47.135	0	151.10	0	7.2530	0	33.8446	0	26.476	0	149.789	0	105.3	4	35.8	4	-1E+10	1	0.0511	4	0.000311	0	-1E+10	1	-1E+10	1	-1E+10	1
4902624	21	C	01/17/2025	18:16	-125.902	47.135	0	152.10	0	7.2283	0	33.8427	0	26.478	0	150.780	0	105.2	4	35.7	4	-1E+10	1	0.0511	4	0.000311	0	-1E+10	1	-1E+10	1	-1E+10	1
4902624	21	C	01/17/2025	18:16	-125.902	47.135	0	153.00	0	7.2060	0	33.8410	0	26.480	0	151.672	0	-1e10	1	-1e10	1	-1E+10	1	-1e10	1	-1e10	1	-1E+10	1	-1E+10	1	-1E+10	1
4902624	21	C	01/17/2025	18:16	-125.902	47.135	0	153.10	0	7.2039	0	33.8410	0	26.480	0	151.771	0	105.0	4	35.7	4	-1E+10	1	0.0511	4	0.000290	0	-1E+10	1	-1E+10	1	-1E+10	1
4902624	21	C	01/17/2025	18:16	-125.902	47.135	0	154.00	0	7.1850	0	33.8410	0	26.483	0	152.663	0	104.6	4	35.5	4	-1E+10	1	0.0560	4	0.000295	0	-1E+10	1	-1E+10	1	-1E+10	1
4902624	21	C	01/17/2025	18:16	-125.902	47.135	0	155.00	0	7.1641	0	33.8410	0	26.485	0	153.654	0	104.0	4	35.3	4	-1E+10	1	0.0511	4	0.000293	0	-1E+10	1	-1E+10	1	-1E+10	1
4902624	21	C	01/17/2025	18:16	-125.902	47.135	0	155.10	0	7.1620	0	33.8410	0	26.486	0	153.753	0	-1e10	1	-1e10	1	-1E+10	1	-1e10	1	-1e10	1	-1E+10	1	-1E+10	1	-1E+10	1
4902624	21	C	01/17/2025	18:16	-125.902	47.135	0	155.90	0	7.1531	0	33.8419	0	26.488	0	154.546	0	103.5	4	35.1	4	-1E+10	1	0.0389	4	0.000287	0	-1E+10	1	-1E+10	1	-1E+10	1
4902624	21	C	01/17/2025	18:16	-125.902	47.135	0	156.90	0	7.1420	0	33.8430	0	26.490	0	155.537	0	101.3	4	34.3	4	-1E+10	1	0.0292	4	0.000291	0	-1E+10	1	-1E+10	1	-1E+10	1
4902624	21	C	01/17/2025	18:16	-125.902	47.135	0	157.90	0	7.1353	0	33.8454	0	26.493	0	156.528	0	101.9	4	34.6	4	-1E+10	1	0.0316	4	0.000305	0	-1E+10	1	-1E+10	1	-1E+10	1
4902624	21	C	01/17/2025	18:16	-125.902	47.135	0	158.90	0	7.1287	0	33.8478	0	26.496	0	157.518	0	101.2	4	34.3	4	-1E+10	1	0.0438	4	0.000334	0	-1E+10	1	-1E+10	1	-1E+10	1
4902624	21	C	01/17/2025	18:16	-125.902	47.135	0	159.00	0	7.1280	0	33.8480	0	26.496	0	157.618	0	-1e10	1	-1e10	1	-1E+10	1	-1e10	1	-1e10	1	-1E+10	1	-1E+10	1	-1E+10	1
4902624	21	C	01/17/2025	18:16	-125.902	47.135	0	159.80	0	7.1238	0	33.8518	0	26.500	0	158.410	0	100.4	4	34.0	4	-1E+10	1	0.0511	4	0.000334	0	-1E+10	1	-1E+10	1	-1E+10	1
4902624	21	C	01/17/2025	18:16	-125.902	47.135	0	160.80	0	7.1185	0	33.8565	0	26.504	0	159.401	0	99.8	4	33.8	4	-1E+10	1	0.0511	4	0.000295	0	-1E+10	1	-1E+10	1	-1E+10	1
4902624	21	C	01/17/2025	18:16	-125.902	47.135	0	160.90	0	7.1180	0	33.8570	0	26.504	0	159.500	0	-1e10	1	-1e10	1	-1E+10	1	-1e10	1	-1e10	1	-1E+10	1	-1E+10	1	-1E+10	1
4902624	21	C	01/17/2025	18:16	-125.902	47.135	0	161.80	0	7.1126	0	33.8588	0	26.507	0	160.392	0	99.1	4	33.6	4	-1E+10	1	0.0462	4	0.000310	0	-1E+10	1	-1E+10	1	-1E+10	1
4902624	21	C	01/17/2025	18:16	-125.902	47.135	0	162.80	0	7.1066	0	33.8608	0	26.509	0	161.383	0	98.9	4	33.5	4	-1E+10	1	0.0394	4	0.000350	0	-1E+10	1	-1E+10	1	-1E+10	1
4902624	21	C	01/17/2025	18:16	-125.902	47.135	0	162.90	0	7.1060	0	33.8610	0	26.509	0	161.482	0	-1e10	1	-1e10	1	-1E+10	1	-1e10	1	-1e10	1	-1E+10	1	-1E+10	1	-1E+10	1
4902624	21	C	01/17/2025	18:16	-125.902	47.135	0	163.80	0	7.0889	0	33.8664	0	26.516	0	162.374	0	99.2	4	33.6	4	-1E+10	1	0.0402	4	0.000340	0	-1E+10	1	-1E+10	1	-1E+10	1
4902624	21	C	01/17/2025	18:16	-125.902	47.135	0	164.80	0	7.0699	0	33.8724	0	26.523	0	163.365	0	99.2	4	33.6	4	-1E+10	1	0.0460	4	0.000303	0	-1E+10	1	-1E+10	1	-1E+10	1
4902624	21	C	01/17/2025	18:16	-125.902	47.135	0	164.90	0	7.0680	0	33.8730	0	26.524	0	163.464	0	-1e10	1	-1e10	1	-1E+10	1	-1e10	1	-1e10	1	-1E+10	1	-1E+10	1	-1E+10	1
4902624	21	C	01/17/2025	18:16	-125.902	47.135	0	165.80	0	7.0315	0	33.8717	0	26.528	0	164.356	0	98.8	4	33.4	4	-1E+10	1	0.0511	4	0.000288	0	-1E+10	1	-1E+10	1	-1E+10	1
4902624	21	C	01/17/2025	18:16	-125.902	47.135	0	166.90	0	6.9870	0	33.8700	0	26.533	0	165.446	0	97.0	4	32.8	4	-1E+10	1	0.0499	4	0.000305	0	-1E+10	1	-1E+10	1	-1E+10	1
4902624	21	C	01/17/2025	18:16	-125.902	47.135	0	167.90	0	6.9841	0	33.8714	0	26.534	0	166.437	0	98.0	4	33.1	4	-1E+10	1	0.0438	4	0.000334	0	-1E+10	1	-1E+10	1	-1E+10	1
4902624	21	C	01/17/2025	18:16	-125.902	47.135	0	168.90	0	6.9813	0	33.8729	0	26.536	0	167.427	0	97.5	4	32.9	4	-1E+10	1	0.0377	4	0.000285	0	-1E+10	1	-1E+10	1	-1E+10	1
4902624	21	C	01/17/2025	18:16	-125.902	47.135	0	169.00	0	6.9810	0	33.8730	0	26.536	0	167.527	0	-1e10	1	-1e10	1	-1E+10	1	-1e10	1	-1e10	1	-1E+10	1	-1E+10	1	-1E+10	1
4902624	21	C	01/17/2025	18:16	-125.902	47.135	0	170.00	0	6.9750	0	33.8750	0	26.538	0	168.517	0	97.0	4	32.8	4	-1E+10	1	0.0604	4	0.000304	0	-1E+10	1	-1E+10	1	-1E+10	1
4902624	21	C	01/17/2025	18:16	-125.902	47.135	0	171.00	0	6.9690	0	33.8770	0	26.541	0	169.508	0	95.1	4	32.1	4	-1E+10	1	0.0462	4	0.000357	0	-1E+10	1	-1E+10	1	-1E+10	1
4902624	21	C	01/17/2025	18:16	-125.902	47.135	0	172.00	0	6.9615	0	33.8775	0	26.542	0	170.499	0	95.9	4	32.4	4	-1E+10	1	0.0365	4	0.000328	0	-1E+10	1	-1E+10	1	-1E+10	1
4902624	21	C	01/17/2025	18:16	-125.902	47.135	0	173.00	0	6.9540	0	33.8780	0	26.544	0	171.490	0	93.9	4	31.7	4	-1E+10	1	0.0365	4	0.000382	0	-1E+10	1	-1E+10	1	-1E+10	1
4902624	21	C	01/17/2025	18:16	-125.902	47.135	0	174.10	0	6.9546	0	33.8797	0	26.545	0	172.580	0	94.7	4	32.0	4	-1E+10	1	0.0343	4	0.000482	0	-1E+10	1	-1E+10	1	-1E+10	1
4902624	21	C	01/17/2025	18:16	-125.902	47.135	0	174.90	0	6.9550	0	33.8810	0	26.546	0	173.373	0	-1e10	1	-1e10	1	-1E+10	1	-1e10	1	-1e10	1	-1E+10	1	-1E+10	1	-1E+10	1
4902624	21	C	01/17/2025	18:16	-125.902	47.135	0	175.20	0	6.9609	0	33.8831	0	26.547	0	173.670	0	94.1	4	31.8	4	-1E+10	1	0.0329	4	0.000285	0	-1E+10	1	-1E+10	1	-1E+10	1
4902624	21	C	01/17/2025	18:16	-125.902	47.135	0	176.20	0	6.9804	0	33.8903	0	26.550	0	174.661	0	93.8	4	31.7	4	-1E+10	1	0.0511	4	0.000275	0	-1E+10	1	-1E+10	1	-1E+10	1
4902624	21	C	01/17/2025	18:16	-125.902	47.135	0	177.00	0	6.9960	0	33.8960	0	26.552	0	175.453	0	-1e10	1	-1e10	1	-1E+10	1	-1e10	1	-1e10	1	-1E+10	1	-1E+10	1	-1E+10	1
4902624	21	C	01/17/2025	18:16	-125.902	47.135	0	177.30	0	6.9889	0	33.8966	0	26.554	0	175.751	0	93.6	4	31.6	4	-1E+10	1	0.0365	4	0.000299	0	-1E+10	1	-1E+10	1	-1E+10	1
4902624	21	C	01/17/2025	18:16	-125.902	47.135	0	178.40	0	6.9631	0	33.8988	0	26.559	0	176.841	0	93.4	4	31.5	4	-1E+10	1	0.0612	4	0.000318	0	-1E+10	1	-1E+10	1	-1E+10	1
4902624	21	C	01/17/2025	18:16	-125.902	47.135	0	179.00	0	6.9490	0	33.9000	0	26.562	0	177.435	0	-1e10	1	-1e10	1	-1E+10	1	-1e10	1	-1e10	1	-1E+10	1	-1E+10	1	-1E+10	1
4902624	21	C	01/17/2025	18:16	-125.902	47.135	0	179.50	0	6.9351	0	33.8989	0	26.563	0	177.931	0	93.2	4	31.4	4	-1E+10	1	0.0606	4	0.000306	0	-1E+10	1	-1E+10	1	-1E+10	1
4902624	21	C	01/17/2025	18:16	-125.902	47.135	0	180.50	0	6.9072	0	33.8968	0	26.565	0	178.921	0	92.9	4	31.3	4	-1E+10	1	0.0496	4	0.000288	0	-1E+10	1	-1E+10	1	-1E+10	1
4902624	21	C	01/17/2025	18:16	-125.902	47.135	0	180.90	0	6.8960	0	33.8960	0	26.566	0	179.318	0	-1e10	1	-1e10	1	-1E+10	1	-1e10	1	-1e10	1	-1E+10	1	-1E+10	1	-1E+10	1
4902624	21	C	01/17/2025	18:16	-125.902	47.135	0	181.60	0	6.8757	0	33.8940	0	26.567	0	180.011	0	92.6	4	31.2	4	-1E+10	1	0.0477	4	0.000284	0	-1E+10	1	-1E+10	1	-1E+10	1
4902624	21	C	01/17/2025	18:16	-125.902	47.135	0	182.70	0	6.8437	0	33.8909	0	26.569	0	181.101	0	92.2	4	31.1	4	-1E+10	1	0.0485	4	0.000316	0	-1E+10	1	-1E+10	1	-1E+10	1
4902624	21	C	01/17/2025	18:16	-125.902	47.135	0	183.00	0	6.8350	0	33.8900	0	26.569	0	181.398	0	-1e10	1	-1e10	1	-1E+10	1	-1e10	1	-1e10	1	-1E+10	1	-1E+10	1	-1E+10	1
4902624	21	C	01/17/2025	18:16	-125.902	47.135	0	183.80	0	6.8361	0	33.8908	0	26.570	0	182.191	0	91.8	4	30.9	4	-1E+10	1	0.0453	4	0.000350	0	-1E+10	1	-1E+10	1	-1E+10	1
4902624	21	C	01/17/2025	18:16	-125.902	47.135	0	184.90	0	6.8377	0	33.8918	0	26.570	0	183.281	0	91.4	4	30.8	4	-1E+10	1	0.0511	4	0.000278	0	-1E+10	1	-1E+10	1	-1E+10	1
4902624	21	C	01/17/2025	18:16	-125.902	47.135	0	185.10	0	6.8380	0	33.8920	0	26.570	0	183.479	0	-1e10	1	-1e10	1	-1E+10	1	-1e10	1	-1e10	1	-1E+10	1	-1E+10	1	-1E+10	1
4902624	21	C	01/17/2025	18:16	-125.902	47.135	0	186.00	0	6.8398	0	33.8942	0	26.572	0	184.371	0	91.0	4	30.6	4	-1E+10	1	0.0511	4	0.000287	0	-1E+10	1	-1E+10	1	-1E+10	1
4902624	21	C	01/17/2025	18:16	-125.902	47.135	0	187.10	0	6.8420	0	33.8970	0	26.574	0	185.461	0	89.2	4	30.1	4	-1E+10	1	0.0449	4	0.000336	0	-1E+10	1	-1E+10	1	-1E+10	1
4902624	21	C	01/17/2025	18:16	-125.902	47.135	0	188.20	0	6.8339	0	33.8987	0	26.576	0	186.551	0	90.1	4	30.3	4	-1E+10	1	0.0438	4	0.000480	0	-1E+10	1	-1E+10	1	-1E+10	1
4902624	21	C	01/17/2025	18:16	-125.902	47.135	0	189.00	0	6.8280	0	33.9000	0	26.578	0	187.343	0	-1e10	1	-1e10	1	-1E+10	1	-1e10	1	-1e10	1	-1E+10	1	-1E+10	1	-1E+10	1
4902624	21	C	01/17/2025	18:16	-125.902	47.135	0	189.30	0	6.8270	0	33.9007	0	26.579	0	187.640	0	89.6	4	30.2	4	-1E+10	1	0.0489	4	0.000339	0	-1E+10	1	-1E+10	1	-1E+10	1
4902624	21	C	01/17/2025	18:16	-125.902	47.135	0	190.40	0	6.8231	0	33.9035	0	26.582	0	188.730	0	89.3	4	30.1	4	-1E+10	1	0.0472	4	0.000272	0	-1E+10	1	-1E+10	1	-1E+10	1
4902624	21	C	01/17/2025	18:16	-125.902	47.135	0	191.00	0	6.8210	0	33.9050	0	26.583	0	189.325	0	-1e10	1	-1e10	1	-1E+10	1	-1e10	1	-1e10	1	-1E+10	1	-1E+10	1	-1E+10	1
4902624	21	C	01/17/2025	18:16	-125.902	47.135	0	191.50	0	6.8190	0	33.9053	0	26.584	0	189.820	0	88.9	4	29.9	4	-1E+10	1	0.0471	4	0.000283	0	-1E+10	1	-1E+10	1	-1E+10	1
4902624	21	C	01/17/2025	18:16	-125.902	47.135	0	192.60	0	6.8146	0	33.9058	0	26.585	0	190.910	0	88.5	4	29.8	4	-1E+10	1	0.0539	4	0.000273	0	-1E+10	1	-1E+10	1	-1E+10	1
4902624	21	C	01/17/2025	18:16	-125.902	47.135	0	193.00	0	6.8130	0	33.9060	0	26.585	0	191.306	0	-1e10	1	-1e10	1	-1E+10	1	-1e10	1	-1e10	1	-1E+10	1	-1E+10	1	-1E+10	1
4902624	21	C	01/17/2025	18:16	-125.902	47.135	0	193.70	0	6.8102	0	33.9067	0	26.586	0	192.000	0	88.1	4	29.7	4	-1E+10	1	0.0553	4	0.000259	0	-1E+10	1	-1E+10	1	-1E+10	1
4902624	21	C	01/17/2025	18:16	-125.902	47.135	0	194.80	0	6.8058	0	33.9078	0	26.587	0	193.090	0	87.7	4	29.5	4	-1E+10	1	0.0438	4	0.000287	0	-1E+10	1	-1E+10	1	-1E+10	1
4902624	21	C	01/17/2025	18:16	-125.902	47.135	0	195.00	0	6.8050	0	33.9080	0	26.588	0	193.288	0	-1e10	1	-1e10	1	-1E+10	1	-1e10	1	-1e10	1	-1E+10	1	-1E+10	1	-1E+10	1
4902624	21	C	01/17/2025	18:16	-125.902	47.135	0	195.90	0	6.8000	0	33.9080	0	26.588	0	194.179	0	87.3	4	29.4	4	-1E+10	1	0.0584	4	0.000263	0	-1E+10	1	-1E+10	1	-1E+10	1
4902624	21	C	01/17/2025	18:16	-125.902	47.135	0	197.00	0	6.7940	0	33.9080	0	26.589	0	195.269	0	85.6	4	28.8	4	-1E+10	1	0.0522	4	0.000303	0	-1E+10	1	-1E+10	1	-1E+10	1
4902624	21	C	01/17/2025	18:16	-125.902	47.135	0	198.10	0	6.7769	0	33.9091	0	26.592	0	196.359	0	86.3	4	29.0	4	-1E+10	1	0.0460	4	0.000351	0	-1E+10	1	-1E+10	1	-1E+10	1
4902624	21	C	01/17/2025	18:16	-125.902	47.135	0	199.00	0	6.7630	0	33.9100	0	26.595	0	197.251	0	-1e10	1	-1e10	1	-1E+10	1	-1e10	1	-1e10	1	-1E+10	1	-1E+10	1	-1E+10	1
4902624	21	C	01/17/2025	18:16	-125.902	47.135	0	199.20	0	6.7564	0	33.9096	0	26.595	0	197.449	0	85.9	4	28.9	4	-1E+10	1	0.0438	4	0.000317	0	-1E+10	1	-1E+10	1	-1E+10	1
4902624	21	C	01/17/2025	18:16	-125.902	47.135	0	200.30	0	6.7201	0	33.9074	0	26.599	0	198.539	0	85.4	4	28.7	4	-1E+10	1	0.0438	4	0.000306	0	-1E+10	1	-1E+10	1	-1E+10	1
4902624	21	C	01/17/2025	18:16	-125.902	47.135	0	201.00	0	6.6970	0	33.9060	0	26.601	0	199.232	0	-1e10	1	-1e10	1	-1E+10	1	-1e10	1	-1e10	1	-1E+10	1	-1E+10	1	-1E+10	1
4902624	21	C	01/17/2025	18:16	-125.902	47.135	0	201.30	0	6.6898	0	33.9061	0	26.602	0	199.529	0	85.0	4	28.5	4	-1E+10	1	0.0460	4	0.000307	0	-1E+10	1	-1E+10	1	-1E+10	1
4902624	21	C	01/17/2025	18:16	-125.902	47.135	0	202.50	0	6.6610	0	33.9067	0	26.606	0	200.718	0	84.7	4	28.4	4	-1E+10	1	0.0491	4	0.000278	0	-1E+10	1	-1E+10	1	-1E+10	1
4902624	21	C	01/17/2025	18:16	-125.902	47.135	0	203.00	0	6.6490	0	33.9070	0	26.608	0	201.214	0	-1e10	1	-1e10	1	-1E+10	1	-1e10	1	-1e10	1	-1E+10	1	-1E+10	1	-1E+10	1
4902624	21	C	01/17/2025	18:16	-125.902	47.135	0	203.60	0	6.6389	0	33.9076	0	26.610	0	201.808	0	84.4	4	28.3	4	-1E+10	1	0.0454	4	0.000282	0	-1E+10	1	-1E+10	1	-1E+10	1
4902624	21	C	01/17/2025	18:16	-125.902	47.135	0	204.70	0	6.6204	0	33.9088	0	26.613	0	202.898	0	84.2	4	28.2	4	-1E+10	1	0.0511	4	0.000263	0	-1E+10	1	-1E+10	1	-1E+10	1
4902624	21	C	01/17/2025	18:16	-125.902	47.135	0	204.90	0	6.6170	0	33.9090	0	26.614	0	203.096	0	-1e10	1	-1e10	1	-1E+10	1	-1e10	1	-1e10	1	-1E+10	1	-1E+10	1	-1E+10	1
4902624	21	C	01/17/2025	18:16	-125.902	47.135	0	205.80	0	6.6044	0	33.9099	0	26.616	0	203.988	0	83.9	4	28.1	4	-1E+10	1	0.0438	4	0.000322	0	-1E+10	1	-1E+10	1	-1E+10	1
4902624	21	C	01/17/2025	18:16	-125.902	47.135	0	206.90	0	6.5890	0	33.9110	0	26.619	0	205.077	0	82.4	4	27.6	4	-1E+10	1	0.0511	4	0.000280	0	-1E+10	1	-1E+10	1	-1E+10	1
4902624	21	C	01/17/2025	18:16	-125.902	47.135	0	208.00	0	6.5841	0	33.9104	0	26.619	0	206.167	0	83.4	4	27.9	4	-1E+10	1	0.0511	4	0.000286	0	-1E+10	1	-1E+10	1	-1E+10	1
4902624	21	C	01/17/2025	18:16	-125.902	47.135	0	208.90	0	6.5800	0	33.9100	0	26.619	0	207.059	0	-1e10	1	-1e10	1	-1E+10	1	-1e10	1	-1e10	1	-1E+10	1	-1E+10	1	-1E+10	1
4902624	21	C	01/17/2025	18:16	-125.902	47.135	0	209.10	0	6.5780	0	33.9103	0	26.620	0	207.257	0	83.2	4	27.8	4	-1E+10	1	0.0511	4	0.000294	0	-1E+10	1	-1E+10	1	-1E+10	1
4902624	21	C	01/17/2025	18:16	-125.902	47.135	0	210.20	0	6.5670	0	33.9119	0	26.622	0	208.347	0	82.9	4	27.7	4	-1E+10	1	0.0431	4	0.000285	0	-1E+10	1	-1E+10	1	-1E+10	1
4902624	21	C	01/17/2025	18:16	-125.902	47.135	0	211.00	0	6.5590	0	33.9130	0	26.624	0	209.139	0	-1e10	1	-1e10	1	-1E+10	1	-1e10	1	-1e10	1	-1E+10	1	-1E+10	1	-1E+10	1
4902624	21	C	01/17/2025	18:16	-125.902	47.135	0	211.30	0	6.5566	0	33.9131	0	26.625	0	209.436	0	82.7	4	27.7	4	-1E+10	1	0.0466	4	0.000275	0	-1E+10	1	-1E+10	1	-1E+10	1
4902624	21	C	01/17/2025	18:16	-125.902	47.135	0	212.40	0	6.5477	0	33.9137	0	26.626	0	210.526	0	82.5	4	27.6	4	-1E+10	1	0.0562	4	0.000278	0	-1E+10	1	-1E+10	1	-1E+10	1
4902624	21	C	01/17/2025	18:16	-125.902	47.135	0	213.10	0	6.5420	0	33.9140	0	26.627	0	211.220	0	-1e10	1	-1e10	1	-1E+10	1	-1e10	1	-1e10	1	-1E+10	1	-1E+10	1	-1E+10	1
4902624	21	C	01/17/2025	18:16	-125.902	47.135	0	213.50	0	6.5416	0	33.9142	0	26.628	0	211.616	0	82.3	4	27.5	4	-1E+10	1	0.0511	4	0.000280	0	-1E+10	1	-1E+10	1	-1E+10	1
4902624	21	C	01/17/2025	18:16	-125.902	47.135	0	214.60	0	6.5405	0	33.9147	0	26.628	0	212.706	0	82.0	4	27.4	4	-1E+10	1	0.0489	4	0.000257	0	-1E+10	1	-1E+10	1	-1E+10	1
4902624	21	C	01/17/2025	18:16	-125.902	47.135	0	215.10	0	6.5400	0	33.9150	0	26.629	0	213.201	0	-1e10	1	-1e10	1	-1E+10	1	-1e10	1	-1e10	1	-1E+10	1	-1E+10	1	-1E+10	1
4902624	21	C	01/17/2025	18:16	-125.902	47.135	0	215.70	0	6.5391	0	33.9150	0	26.629	0	213.795	0	81.7	4	27.3	4	-1E+10	1	0.0365	4	0.000287	0	-1E+10	1	-1E+10	1	-1E+10	1
4902624	21	C	01/17/2025	18:16	-125.902	47.135	0	216.80	0	6.5375	0	33.9150	0	26.629	0	214.885	0	81.5	4	27.3	4	-1E+10	1	0.0480	4	0.000291	0	-1E+10	1	-1E+10	1	-1E+10	1
4902624	21	C	01/17/2025	18:16	-125.902	47.135	0	217.10	0	6.5370	0	33.9150	0	26.629	0	215.182	0	-1e10	1	-1e10	1	-1E+10	1	-1e10	1	-1e10	1	-1E+10	1	-1E+10	1	-1E+10	1
4902624	21	C	01/17/2025	18:16	-125.902	47.135	0	217.90	0	6.5298	0	33.9167	0	26.631	0	215.975	0	81.2	4	27.2	4	-1E+10	1	0.0628	4	0.000316	0	-1E+10	1	-1E+10	1	-1E+10	1
4902624	21	C	01/17/2025	18:16	-125.902	47.135	0	219.00	0	6.5200	0	33.9190	0	26.634	0	217.064	0	79.8	4	26.7	4	-1E+10	1	0.0516	4	0.000359	0	-1E+10	1	-1E+10	1	-1E+10	1
4902624	21	C	01/17/2025	18:16	-125.902	47.135	0	220.10	0	6.5134	0	33.9190	0	26.635	0	218.154	0	80.8	4	27.0	4	-1E+10	1	0.0472	4	0.000326	0	-1E+10	1	-1E+10	1	-1E+10	1
4902624	21	C	01/17/2025	18:16	-125.902	47.135	0	221.00	0	6.5080	0	33.9190	0	26.636	0	219.046	0	-1e10	1	-1e10	1	-1E+10	1	-1e10	1	-1e10	1	-1E+10	1	-1E+10	1	-1E+10	1
4902624	21	C	01/17/2025	18:16	-125.902	47.135	0	221.20	0	6.5065	0	33.9191	0	26.636	0	219.244	0	80.5	4	26.9	4	-1E+10	1	0.0511	4	0.000395	0	-1E+10	1	-1E+10	1	-1E+10	1
4902624	21	C	01/17/2025	18:16	-125.902	47.135	0	222.30	0	6.4983	0	33.9196	0	26.638	0	220.333	0	80.2	4	26.8	4	-1E+10	1	0.0533	4	0.000529	0	-1E+10	1	-1E+10	1	-1E+10	1
4902624	21	C	01/17/2025	18:16	-125.902	47.135	0	223.00	0	6.4930	0	33.9200	0	26.639	0	221.027	0	-1e10	1	-1e10	1	-1E+10	1	-1e10	1	-1e10	1	-1E+10	1	-1E+10	1	-1E+10	1
4902624	21	C	01/17/2025	18:16	-125.902	47.135	0	223.40	0	6.4886	0	33.9200	0	26.639	0	221.423	0	80.0	4	26.7	4	-1E+10	1	0.0573	4	0.000308	0	-1E+10	1	-1E+10	1	-1E+10	1
4902624	21	C	01/17/2025	18:16	-125.902	47.135	0	224.50	0	6.4765	0	33.9200	0	26.641	0	222.513	0	79.8	4	26.6	4	-1E+10	1	0.0511	4	0.000298	0	-1E+10	1	-1E+10	1	-1E+10	1
4902624	21	C	01/17/2025	18:16	-125.902	47.135	0	225.00	0	6.4710	0	33.9200	0	26.642	0	223.008	0	-1e10	1	-1e10	1	-1E+10	1	-1e10	1	-1e10	1	-1E+10	1	-1E+10	1	-1E+10	1
4902624	21	C	01/17/2025	18:16	-125.902	47.135	0	225.60	0	6.4704	0	33.9203	0	26.642	0	223.603	0	79.5	4	26.6	4	-1E+10	1	0.0584	4	0.000275	0	-1E+10	1	-1E+10	1	-1E+10	1
4902624	21	C	01/17/2025	18:16	-125.902	47.135	0	226.80	0	6.4692	0	33.9209	0	26.643	0	224.791	0	79.2	4	26.5	4	-1E+10	1	0.0521	4	0.000289	0	-1E+10	1	-1E+10	1	-1E+10	1
4902624	21	C	01/17/2025	18:16	-125.902	47.135	0	227.00	0	6.4690	0	33.9210	0	26.643	0	224.989	0	-1e10	1	-1e10	1	-1E+10	1	-1e10	1	-1e10	1	-1E+10	1	-1E+10	1	-1E+10	1
4902624	21	C	01/17/2025	18:16	-125.902	47.135	0	227.90	0	6.4605	0	33.9210	0	26.644	0	225.881	0	78.9	4	26.3	4	-1E+10	1	0.0612	4	0.000296	0	-1E+10	1	-1E+10	1	-1E+10	1
4902624	21	C	01/17/2025	18:16	-125.902	47.135	0	228.90	0	6.4510	0	33.9210	0	26.645	0	226.871	0	77.3	4	25.8	4	-1E+10	1	0.0617	4	0.000298	0	-1E+10	1	-1E+10	1	-1E+10	1
4902624	21	C	01/17/2025	18:16	-125.902	47.135	0	230.00	0	6.4416	0	33.9210	0	26.646	0	227.961	0	78.1	4	26.1	4	-1E+10	1	0.0517	4	0.000282	0	-1E+10	1	-1E+10	1	-1E+10	1
4902624	21	C	01/17/2025	18:16	-125.902	47.135	0	230.90	0	6.4340	0	33.9210	0	26.647	0	228.853	0	-1e10	1	-1e10	1	-1E+10	1	-1e10	1	-1e10	1	-1E+10	1	-1E+10	1	-1E+10	1
4902624	21	C	01/17/2025	18:16	-125.902	47.135	0	231.10	0	6.4319	0	33.9213	0	26.648	0	229.051	0	77.7	4	25.9	4	-1E+10	1	0.0438	4	0.000270	0	-1E+10	1	-1E+10	1	-1E+10	1
4902624	21	C	01/17/2025	18:16	-125.902	47.135	0	232.20	0	6.4204	0	33.9229	0	26.651	0	230.140	0	77.4	4	25.8	4	-1E+10	1	0.0451	4	0.000291	0	-1E+10	1	-1E+10	1	-1E+10	1
4902624	21	C	01/17/2025	18:16	-125.902	47.135	0	233.00	0	6.4120	0	33.9240	0	26.653	0	230.933	0	-1e10	1	-1e10	1	-1E+10	1	-1e10	1	-1e10	1	-1E+10	1	-1E+10	1	-1E+10	1
4902624	21	C	01/17/2025	18:16	-125.902	47.135	0	233.30	0	6.4100	0	33.9239	0	26.653	0	231.230	0	77.0	4	25.7	4	-1E+10	1	0.0511	4	0.000308	0	-1E+10	1	-1E+10	1	-1E+10	1
4902624	21	C	01/17/2025	18:16	-125.902	47.135	0	234.40	0	6.4027	0	33.9233	0	26.653	0	232.320	0	76.5	4	25.5	4	-1E+10	1	0.0511	4	0.000298	0	-1E+10	1	-1E+10	1	-1E+10	1
4902624	21	C	01/17/2025	18:16	-125.902	47.135	0	235.10	0	6.3980	0	33.9230	0	26.654	0	233.013	0	-1e10	1	-1e10	1	-1E+10	1	-1e10	1	-1e10	1	-1E+10	1	-1E+10	1	-1E+10	1
4902624	21	C	01/17/2025	18:16	-125.902	47.135	0	235.50	0	6.3963	0	33.9230	0	26.654	0	233.409	0	76.0	4	25.3	4	-1E+10	1	0.0573	4	0.000258	0	-1E+10	1	-1E+10	1	-1E+10	1
4902624	21	C	01/17/2025	18:16	-125.902	47.135	0	236.60	0	6.3917	0	33.9230	0	26.654	0	234.499	0	75.5	4	25.2	4	-1E+10	1	0.0584	4	0.000232	0	-1E+10	1	-1E+10	1	-1E+10	1
4902624	21	C	01/17/2025	18:16	-125.902	47.135	0	237.00	0	6.3900	0	33.9230	0	26.655	0	234.895	0	-1e10	1	-1e10	1	-1E+10	1	-1e10	1	-1e10	1	-1E+10	1	-1E+10	1	-1E+10	1
4902624	21	C	01/17/2025	18:16	-125.902	47.135	0	237.70	0	6.3851	0	33.9234	0	26.656	0	235.588	0	74.9	4	25.0	4	-1E+10	1	0.0533	4	0.000260	0	-1E+10	1	-1E+10	1	-1E+10	1
4902624	21	C	01/17/2025	18:16	-125.902	47.135	0	238.80	0	6.3774	0	33.9239	0	26.657	0	236.678	0	74.2	4	24.7	4	-1E+10	1	0.0548	4	0.000286	0	-1E+10	1	-1E+10	1	-1E+10	1
4902624	21	C	01/17/2025	18:16	-125.902	47.135	0	239.00	0	6.3760	0	33.9240	0	26.657	0	236.876	0	-1e10	1	-1e10	1	-1E+10	1	-1e10	1	-1e10	1	-1E+10	1	-1E+10	1	-1E+10	1
4902624	21	C	01/17/2025	18:16	-125.902	47.135	0	239.90	0	6.3639	0	33.9258	0	26.660	0	237.768	0	73.4	4	24.5	4	-1E+10	1	0.0531	4	0.000289	0	-1E+10	1	-1E+10	1	-1E+10	1
4902624	21	C	01/17/2025	18:16	-125.902	47.135	0	241.00	0	6.3490	0	33.9280	0	26.664	0	238.857	0	71.7	4	23.9	4	-1E+10	1	0.0460	4	0.000296	0	-1E+10	1	-1E+10	1	-1E+10	1
4902624	21	C	01/17/2025	18:16	-125.902	47.135	0	242.10	0	6.3402	0	33.9307	0	26.667	0	239.947	0	72.2	4	24.0	4	-1E+10	1	0.0533	4	0.000336	0	-1E+10	1	-1E+10	1	-1E+10	1
4902624	21	C	01/17/2025	18:16	-125.902	47.135	0	243.00	0	6.3330	0	33.9330	0	26.670	0	240.838	0	-1e10	1	-1e10	1	-1E+10	1	-1e10	1	-1e10	1	-1E+10	1	-1E+10	1	-1E+10	1
4902624	21	C	01/17/2025	18:16	-125.902	47.135	0	243.20	0	6.3326	0	33.9333	0	26.670	0	241.036	0	71.7	4	23.9	4	-1E+10	1	0.0657	4	0.000286	0	-1E+10	1	-1E+10	1	-1E+10	1
4902624	21	C	01/17/2025	18:16	-125.902	47.135	0	244.40	0	6.3303	0	33.9350	0	26.672	0	242.225	0	71.2	4	23.7	4	-1E+10	1	0.0511	4	0.000298	0	-1E+10	1	-1E+10	1	-1E+10	1
4902624	21	C	01/17/2025	18:16	-125.902	47.135	0	245.10	0	6.3290	0	33.9360	0	26.673	0	242.918	0	-1e10	1	-1e10	1	-1E+10	1	-1e10	1	-1e10	1	-1E+10	1	-1E+10	1	-1E+10	1
4902624	21	C	01/17/2025	18:16	-125.902	47.135	0	245.50	0	6.3267	0	33.9368	0	26.674	0	243.315	0	70.7	4	23.5	4	-1E+10	1	0.0573	4	0.000278	0	-1E+10	1	-1E+10	1	-1E+10	1
4902624	21	C	01/17/2025	18:16	-125.902	47.135	0	246.70	0	6.3197	0	33.9394	0	26.677	0	244.503	0	70.2	4	23.4	4	-1E+10	1	0.0532	4	0.000266	0	-1E+10	1	-1E+10	1	-1E+10	1
4902624	21	C	01/17/2025	18:16	-125.902	47.135	0	247.00	0	6.3180	0	33.9400	0	26.677	0	244.800	0	-1e10	1	-1e10	1	-1E+10	1	-1e10	1	-1e10	1	-1E+10	1	-1E+10	1	-1E+10	1
4902624	21	C	01/17/2025	18:16	-125.902	47.135	0	247.80	0	6.3062	0	33.9400	0	26.679	0	245.593	0	69.7	4	23.2	4	-1E+10	1	0.0511	4	0.000278	0	-1E+10	1	-1E+10	1	-1E+10	1
4902624	21	C	01/17/2025	18:16	-125.902	47.135	0	248.90	0	6.2900	0	33.9400	0	26.681	0	246.682	0	68.0	4	22.6	4	-1E+10	1	0.0474	4	0.000274	0	-1E+10	1	-1E+10	1	-1E+10	1
4902624	21	C	01/17/2025	18:16	-125.902	47.135	0	250.00	0	6.2827	0	33.9405	0	26.682	0	247.772	0	68.5	4	22.8	4	-1E+10	1	0.0460	4	0.000263	0	-1E+10	1	-1E+10	1	-1E+10	1
4902624	21	C	01/17/2025	18:16	-125.902	47.135	0	251.00	0	6.2760	0	33.9410	0	26.684	0	248.762	0	-1e10	1	-1e10	1	-1E+10	1	-1e10	1	-1e10	1	-1E+10	1	-1E+10	1	-1E+10	1
4902624	21	C	01/17/2025	18:16	-125.902	47.135	0	251.20	0	6.2756	0	33.9416	0	26.684	0	248.960	0	67.8	4	22.5	4	-1E+10	1	0.0511	4	0.000269	0	-1E+10	1	-1E+10	1	-1E+10	1
4902624	21	C	01/17/2025	18:16	-125.902	47.135	0	252.30	0	6.2734	0	33.9449	0	26.687	0	250.050	0	67.1	4	22.3	4	-1E+10	1	0.0511	4	0.000303	0	-1E+10	1	-1E+10	1	-1E+10	1
4902624	21	C	01/17/2025	18:16	-125.902	47.135	0	253.00	0	6.2720	0	33.9470	0	26.689	0	250.743	0	-1e10	1	-1e10	1	-1E+10	1	-1e10	1	-1e10	1	-1E+10	1	-1E+10	1	-1E+10	1
4902624	21	C	01/17/2025	18:16	-125.902	47.135	0	253.50	0	6.2717	0	33.9482	0	26.690	0	251.239	0	66.8	4	22.2	4	-1E+10	1	0.0511	4	0.000403	0	-1E+10	1	-1E+10	1	-1E+10	1
4902624	21	C	01/17/2025	18:16	-125.902	47.135	0	254.60	0	6.2712	0	33.9510	0	26.692	0	252.328	0	66.5	4	22.1	4	-1E+10	1	0.0568	4	0.000274	0	-1E+10	1	-1E+10	1	-1E+10	1
4902624	21	C	01/17/2025	18:16	-125.902	47.135	0	255.00	0	6.2710	0	33.9520	0	26.693	0	252.724	0	-1e10	1	-1e10	1	-1E+10	1	-1e10	1	-1e10	1	-1E+10	1	-1E+10	1	-1E+10	1
4902624	21	C	01/17/2025	18:16	-125.902	47.135	0	255.80	0	6.2678	0	33.9528	0	26.694	0	253.517	0	66.2	4	22.0	4	-1E+10	1	0.0584	4	0.000335	0	-1E+10	1	-1E+10	1	-1E+10	1
4902624	21	C	01/17/2025	18:16	-125.902	47.135	0	256.90	0	6.2634	0	33.9539	0	26.696	0	254.606	0	65.9	4	21.9	4	-1E+10	1	0.0537	4	0.000289	0	-1E+10	1	-1E+10	1	-1E+10	1
4902624	21	C	01/17/2025	18:16	-125.902	47.135	0	257.00	0	6.2630	0	33.9540	0	26.696	0	254.705	0	-1e10	1	-1e10	1	-1E+10	1	-1e10	1	-1e10	1	-1E+10	1	-1E+10	1	-1E+10	1
4902624	21	C	01/17/2025	18:16	-125.902	47.135	0	258.10	0	6.2586	0	33.9551	0	26.697	0	255.795	0	65.6	4	21.8	4	-1E+10	1	0.0584	4	0.000280	0	-1E+10	1	-1E+10	1	-1E+10	1
4902624	21	C	01/17/2025	18:16	-125.902	47.135	0	259.00	0	6.2550	0	33.9560	0	26.698	0	256.686	0	-1e10	1	-1e10	1	-1E+10	1	-1e10	1	-1e10	1	-1E+10	1	-1E+10	1	-1E+10	1
4902624	21	C	01/17/2025	18:16	-125.902	47.135	0	259.30	0	6.2523	0	33.9565	0	26.699	0	256.983	0	65.4	4	21.7	4	-1E+10	1	0.0596	4	0.000295	0	-1E+10	1	-1E+10	1	-1E+10	1
4902624	21	C	01/17/2025	18:16	-125.902	47.135	0	260.50	0	6.2415	0	33.9583	0	26.702	0	258.172	0	65.3	4	21.7	4	-1E+10	1	0.0511	4	0.000290	0	-1E+10	1	-1E+10	1	-1E+10	1
4902624	21	C	01/17/2025	18:16	-125.902	47.135	0	261.00	0	6.2370	0	33.9590	0	26.703	0	258.667	0	-1e10	1	-1e10	1	-1E+10	1	-1e10	1	-1e10	1	-1E+10	1	-1E+10	1	-1E+10	1
4902624	21	C	01/17/2025	18:16	-125.902	47.135	0	261.70	0	6.2345	0	33.9590	0	26.703	0	259.360	0	65.1	4	21.6	4	-1E+10	1	0.0532	4	0.000310	0	-1E+10	1	-1E+10	1	-1E+10	1
4902624	21	C	01/17/2025	18:16	-125.902	47.135	0	262.90	0	6.2304	0	33.9590	0	26.704	0	260.549	0	64.9	4	21.6	4	-1E+10	1	0.0657	4	0.000239	0	-1E+10	1	-1E+10	1	-1E+10	1
4902624	21	C	01/17/2025	18:16	-125.902	47.135	0	263.00	0	6.2300	0	33.9590	0	26.704	0	260.648	0	-1e10	1	-1e10	1	-1E+10	1	-1e10	1	-1e10	1	-1E+10	1	-1E+10	1	-1E+10	1
4902624	21	C	01/17/2025	18:16	-125.902	47.135	0	264.10	0	6.2223	0	33.9601	0	26.706	0	261.737	0	64.7	4	21.5	4	-1E+10	1	0.0511	4	0.000345	0	-1E+10	1	-1E+10	1	-1E+10	1
4902624	21	C	01/17/2025	18:16	-125.902	47.135	0	265.00	0	6.2160	0	33.9610	0	26.707	0	262.629	0	-1e10	1	-1e10	1	-1E+10	1	-1e10	1	-1e10	1	-1E+10	1	-1E+10	1	-1E+10	1
4902624	21	C	01/17/2025	18:16	-125.902	47.135	0	265.20	0	6.2152	0	33.9610	0	26.707	0	262.827	0	64.6	4	21.5	4	-1E+10	1	0.0454	4	0.000289	0	-1E+10	1	-1E+10	1	-1E+10	1
4902624	21	C	01/17/2025	18:16	-125.902	47.135	0	266.40	0	6.2104	0	33.9610	0	26.708	0	264.015	0	64.5	4	21.4	4	-1E+10	1	0.0532	4	0.000282	0	-1E+10	1	-1E+10	1	-1E+10	1
4902624	21	C	01/17/2025	18:16	-125.902	47.135	0	267.00	0	6.2080	0	33.9610	0	26.708	0	264.609	0	-1e10	1	-1e10	1	-1E+10	1	-1e10	1	-1e10	1	-1E+10	1	-1E+10	1	-1E+10	1
4902624	21	C	01/17/2025	18:16	-125.902	47.135	0	267.60	0	6.2077	0	33.9610	0	26.708	0	265.204	0	64.3	4	21.4	4	-1E+10	1	0.0584	4	0.000457	0	-1E+10	1	-1E+10	1	-1E+10	1
4902624	21	C	01/17/2025	18:16	-125.902	47.135	0	268.80	0	6.2071	0	33.9610	0	26.709	0	266.392	0	64.2	4	21.3	4	-1E+10	1	0.0548	4	0.000409	0	-1E+10	1	-1E+10	1	-1E+10	1
4902624	21	C	01/17/2025	18:16	-125.902	47.135	0	269.00	0	6.2070	0	33.9610	0	26.709	0	266.590	0	-1e10	1	-1e10	1	-1E+10	1	-1e10	1	-1e10	1	-1E+10	1	-1E+10	1	-1E+10	1
4902624	21	C	01/17/2025	18:16	-125.902	47.135	0	270.00	0	6.2013	0	33.9605	0	26.709	0	267.581	0	64.0	4	21.3	4	-1E+10	1	0.0487	4	0.000243	0	-1E+10	1	-1E+10	1	-1E+10	1
4902624	21	C	01/17/2025	18:16	-125.902	47.135	0	271.10	0	6.1950	0	33.9600	0	26.709	0	268.670	0	-1e10	1	-1e10	1	-1E+10	1	-1e10	1	-1e10	1	-1E+10	1	-1E+10	1	-1E+10	1
4902624	21	C	01/17/2025	18:16	-125.902	47.135	0	271.20	0	6.1928	0	33.9601	0	26.710	0	268.769	0	63.8	4	21.2	4	-1E+10	1	0.0438	4	0.000251	0	-1E+10	1	-1E+10	1	-1E+10	1
4902624	21	C	01/17/2025	18:16	-125.902	47.135	0	272.40	0	6.1663	0	33.9614	0	26.714	0	269.958	0	63.6	4	21.1	4	-1E+10	1	0.0453	4	0.000251	0	-1E+10	1	-1E+10	1	-1E+10	1
4902624	21	C	01/17/2025	18:16	-125.902	47.135	0	273.00	0	6.1530	0	33.9620	0	26.716	0	270.552	0	-1e10	1	-1e10	1	-1E+10	1	-1e10	1	-1e10	1	-1E+10	1	-1E+10	1	-1E+10	1
4902624	21	C	01/17/2025	18:16	-125.902	47.135	0	273.60	0	6.1497	0	33.9626	0	26.717	0	271.146	0	63.3	4	21.0	4	-1E+10	1	0.0511	4	0.000251	0	-1E+10	1	-1E+10	1	-1E+10	1
4902624	21	C	01/17/2025	18:16	-125.902	47.135	0	274.80	0	6.1431	0	33.9638	0	26.719	0	272.335	0	63.2	4	21.0	4	-1E+10	1	0.0574	4	0.000255	0	-1E+10	1	-1E+10	1	-1E+10	1
4902624	21	C	01/17/2025	18:16	-125.902	47.135	0	275.00	0	6.1420	0	33.9640	0	26.719	0	272.533	0	-1e10	1	-1e10	1	-1E+10	1	-1e10	1	-1e10	1	-1E+10	1	-1E+10	1	-1E+10	1
4902624	21	C	01/17/2025	18:16	-125.902	47.135	0	276.00	0	6.1396	0	33.9645	0	26.720	0	273.523	0	63.0	4	20.9	4	-1E+10	1	0.0584	4	0.000242	0	-1E+10	1	-1E+10	1	-1E+10	1
4902624	21	C	01/17/2025	18:16	-125.902	47.135	0	277.10	0	6.1370	0	33.9650	0	26.721	0	274.612	0	-1e10	1	-1e10	1	-1E+10	1	-1e10	1	-1e10	1	-1E+10	1	-1E+10	1	-1E+10	1
4902624	21	C	01/17/2025	18:16	-125.902	47.135	0	277.20	0	6.1364	0	33.9649	0	26.721	0	274.711	0	62.9	4	20.8	4	-1E+10	1	0.0535	4	0.000239	0	-1E+10	1	-1E+10	1	-1E+10	1
4902624	21	C	01/17/2025	18:16	-125.902	47.135	0	278.40	0	6.1295	0	33.9643	0	26.721	0	275.900	0	62.7	4	20.8	4	-1E+10	1	0.0548	4	0.000257	0	-1E+10	1	-1E+10	1	-1E+10	1
4902624	21	C	01/17/2025	18:16	-125.902	47.135	0	279.00	0	6.1260	0	33.9640	0	26.721	0	276.494	0	-1e10	1	-1e10	1	-1E+10	1	-1e10	1	-1e10	1	-1E+10	1	-1E+10	1	-1E+10	1
4902624	21	C	01/17/2025	18:16	-125.902	47.135	0	279.60	0	6.1176	0	33.9646	0	26.723	0	277.088	0	62.5	4	20.7	4	-1E+10	1	0.0584	4	0.000299	0	-1E+10	1	-1E+10	1	-1E+10	1
4902624	21	C	01/17/2025	18:16	-125.902	47.135	0	280.80	0	6.1008	0	33.9658	0	26.726	0	278.277	0	62.3	4	20.6	4	-1E+10	1	0.0558	4	0.000295	0	-1E+10	1	-1E+10	1	-1E+10	1
4902624	21	C	01/17/2025	18:16	-125.902	47.135	0	281.00	0	6.0980	0	33.9660	0	26.726	0	278.475	0	-1e10	1	-1e10	1	-1E+10	1	-1e10	1	-1e10	1	-1E+10	1	-1E+10	1	-1E+10	1
4902624	21	C	01/17/2025	18:16	-125.902	47.135	0	281.90	0	6.0827	0	33.9655	0	26.728	0	279.366	0	62.1	4	20.5	4	-1E+10	1	0.0511	4	0.000236	0	-1E+10	1	-1E+10	1	-1E+10	1
4902624	21	C	01/17/2025	18:16	-125.902	47.135	0	283.00	0	6.0640	0	33.9650	0	26.730	0	280.455	0	-1e10	1	-1e10	1	-1E+10	1	-1e10	1	-1e10	1	-1E+10	1	-1E+10	1	-1E+10	1
4902624	21	C	01/17/2025	18:16	-125.902	47.135	0	283.10	0	6.0627	0	33.9651	0	26.730	0	280.554	0	61.8	4	20.5	4	-1E+10	1	0.0511	4	0.000286	0	-1E+10	1	-1E+10	1	-1E+10	1
4902624	21	C	01/17/2025	18:16	-125.902	47.135	0	284.30	0	6.0471	0	33.9669	0	26.734	0	281.743	0	61.6	4	20.4	4	-1E+10	1	0.0511	4	0.000274	0	-1E+10	1	-1E+10	1	-1E+10	1
4902624	21	C	01/17/2025	18:16	-125.902	47.135	0	285.00	0	6.0380	0	33.9680	0	26.736	0	282.436	0	-1e10	1	-1e10	1	-1E+10	1	-1e10	1	-1e10	1	-1E+10	1	-1E+10	1	-1E+10	1
4902624	21	C	01/17/2025	18:16	-125.902	47.135	0	285.50	0	6.0337	0	33.9680	0	26.736	0	282.931	0	61.4	4	20.3	4	-1E+10	1	0.0569	4	0.000274	0	-1E+10	1	-1E+10	1	-1E+10	1
4902624	21	C	01/17/2025	18:16	-125.902	47.135	0	286.70	0	6.0234	0	33.9680	0	26.737	0	284.120	0	61.1	4	20.2	4	-1E+10	1	0.0524	4	0.000245	0	-1E+10	1	-1E+10	1	-1E+10	1
4902624	21	C	01/17/2025	18:16	-125.902	47.135	0	287.10	0	6.0200	0	33.9680	0	26.738	0	284.516	0	-1e10	1	-1e10	1	-1E+10	1	-1e10	1	-1e10	1	-1E+10	1	-1E+10	1	-1E+10	1
4902624	21	C	01/17/2025	18:16	-125.902	47.135	0	287.90	0	6.0107	0	33.9684	0	26.739	0	285.308	0	60.9	4	20.1	4	-1E+10	1	0.0511	4	0.000249	0	-1E+10	1	-1E+10	1	-1E+10	1
4902624	21	C	01/17/2025	18:16	-125.902	47.135	0	289.00	0	5.9980	0	33.9690	0	26.741	0	286.397	0	-1e10	1	-1e10	1	-1E+10	1	-1e10	1	-1e10	1	-1E+10	1	-1E+10	1	-1E+10	1
4902624	21	C	01/17/2025	18:16	-125.902	47.135	0	289.10	0	5.9964	0	33.9690	0	26.742	0	286.496	0	60.6	4	20.0	4	-1E+10	1	0.0560	4	0.000243	0	-1E+10	1	-1E+10	1	-1E+10	1
4902624	21	C	01/17/2025	18:16	-125.902	47.135	0	290.30	0	5.9778	0	33.9690	0	26.744	0	287.685	0	60.4	4	19.9	4	-1E+10	1	0.0511	4	0.000247	0	-1E+10	1	-1E+10	1	-1E+10	1
4902624	21	C	01/17/2025	18:16	-125.902	47.135	0	291.00	0	5.9670	0	33.9690	0	26.745	0	288.378	0	-1e10	1	-1e10	1	-1E+10	1	-1e10	1	-1e10	1	-1E+10	1	-1E+10	1	-1E+10	1
4902624	21	C	01/17/2025	18:16	-125.902	47.135	0	291.50	0	5.9605	0	33.9695	0	26.747	0	288.873	0	60.0	4	19.8	4	-1E+10	1	0.0438	4	0.000244	0	-1E+10	1	-1E+10	1	-1E+10	1
4902624	21	C	01/17/2025	18:16	-125.902	47.135	0	292.70	0	5.9449	0	33.9707	0	26.749	0	290.061	0	59.7	4	19.7	4	-1E+10	1	0.0441	4	0.000228	0	-1E+10	1	-1E+10	1	-1E+10	1
4902624	21	C	01/17/2025	18:16	-125.902	47.135	0	293.00	0	5.9410	0	33.9710	0	26.750	0	290.358	0	-1e10	1	-1e10	1	-1E+10	1	-1e10	1	-1e10	1	-1E+10	1	-1E+10	1	-1E+10	1
4902624	21	C	01/17/2025	18:16	-125.902	47.135	0	295.00	0	5.9250	0	33.9750	0	26.755	0	292.339	0	-1e10	1	-1e10	1	-1E+10	1	-1e10	1	-1e10	1	-1E+10	1	-1E+10	1	-1E+10	1
4902624	21	C	01/17/2025	18:16	-125.902	47.135	0	297.00	0	5.9190	0	33.9750	0	26.756	0	294.320	0	-1e10	1	-1e10	1	-1E+10	1	-1e10	1	-1e10	1	-1E+10	1	-1E+10	1	-1E+10	1
4902624	21	C	01/17/2025	18:16	-125.902	47.135	0	299.10	0	5.9130	0	33.9760	0	26.758	0	296.399	0	-1e10	1	-1e10	1	-1E+10	1	-1e10	1	-1e10	1	-1E+10	1	-1E+10	1	-1E+10	1
4902624	21	C	01/17/2025	18:16	-125.902	47.135	0	304.70	0	5.8647	0	33.9789	0	26.766	0	301.944	0	57.4	4	18.9	4	-1E+10	1	0.0511	4	0.000247	0	-1E+10	1	-1E+10	1	-1E+10	1
4902624	21	C	01/17/2025	18:16	-125.902	47.135	0	304.90	0	5.8630	0	33.9790	0	26.766	0	302.143	0	-1e10	1	-1e10	1	-1E+10	1	-1e10	1	-1e10	1	-1E+10	1	-1E+10	1	-1E+10	1
4902624	21	C	01/17/2025	18:16	-125.902	47.135	0	313.00	0	5.7883	0	33.9837	0	26.779	0	310.163	0	55.0	4	18.1	4	-1E+10	1	0.0508	4	0.000181	0	-1E+10	1	-1E+10	1	-1E+10	1
4902624	21	C	01/17/2025	18:16	-125.902	47.135	0	315.20	0	5.7680	0	33.9850	0	26.783	0	312.342	0	-1e10	1	-1e10	1	-1E+10	1	-1e10	1	-1e10	1	-1E+10	1	-1E+10	1	-1E+10	1
4902624	21	C	01/17/2025	18:16	-125.902	47.135	0	321.40	0	5.7233	0	33.9908	0	26.793	0	318.481	0	52.5	4	17.2	4	-1E+10	1	0.0435	4	0.000222	0	-1E+10	1	-1E+10	1	-1E+10	1
4902624	21	C	01/17/2025	18:16	-125.902	47.135	0	324.90	0	5.6980	0	33.9940	0	26.799	0	321.946	0	-1e10	1	-1e10	1	-1E+10	1	-1e10	1	-1e10	1	-1E+10	1	-1E+10	1	-1E+10	1
4902624	21	C	01/17/2025	18:16	-125.902	47.135	0	330.00	0	5.6645	0	33.9997	0	26.807	0	326.996	0	49.8	4	16.3	4	-1E+10	1	0.0365	4	0.000351	0	-1E+10	1	-1E+10	1	-1E+10	1
4902624	21	C	01/17/2025	18:16	-125.902	47.135	0	334.80	0	5.6330	0	34.0050	0	26.815	0	331.748	0	-1e10	1	-1e10	1	-1E+10	1	-1e10	1	-1e10	1	-1E+10	1	-1E+10	1	-1E+10	1
4902624	21	C	01/17/2025	18:16	-125.902	47.135	0	338.80	0	5.6001	0	34.0066	0	26.821	0	335.708	0	48.3	4	15.8	4	-1E+10	1	0.0370	4	0.000204	0	-1E+10	1	-1E+10	1	-1E+10	1
4902624	21	C	01/17/2025	18:16	-125.902	47.135	0	344.90	0	5.5500	0	34.0090	0	26.829	0	341.748	0	-1e10	1	-1e10	1	-1E+10	1	-1e10	1	-1e10	1	-1E+10	1	-1E+10	1	-1E+10	1
4902624	21	C	01/17/2025	18:16	-125.902	47.135	0	347.80	0	5.5379	0	34.0119	0	26.832	0	344.619	0	46.0	4	15.0	4	-1E+10	1	0.0511	4	0.000226	0	-1E+10	1	-1E+10	1	-1E+10	1
4902624	21	C	01/17/2025	18:16	-125.902	47.135	0	355.00	0	5.5080	0	34.0190	0	26.842	0	351.747	0	-1e10	1	-1e10	1	-1E+10	1	-1e10	1	-1e10	1	-1E+10	1	-1E+10	1	-1E+10	1
4902624	21	C	01/17/2025	18:16	-125.902	47.135	0	356.90	0	5.5026	0	34.0205	0	26.843	0	353.628	0	43.8	4	14.3	4	-1E+10	1	0.0514	4	0.000203	0	-1E+10	1	-1E+10	1	-1E+10	1
4902624	21	C	01/17/2025	18:16	-125.902	47.135	0	364.90	0	5.4800	0	34.0270	0	26.851	0	361.548	0	-1e10	1	-1e10	1	-1E+10	1	-1e10	1	-1e10	1	-1E+10	1	-1E+10	1	-1E+10	1
4902624	21	C	01/17/2025	18:16	-125.902	47.135	0	366.10	0	5.4724	0	34.0276	0	26.853	0	362.735	0	42.0	4	13.7	4	-1E+10	1	0.0584	4	0.000204	0	-1E+10	1	-1E+10	1	-1E+10	1
4902624	21	C	01/17/2025	18:16	-125.902	47.135	0	374.90	0	5.4170	0	34.0320	0	26.863	0	371.447	0	-1e10	1	-1e10	1	-1E+10	1	-1e10	1	-1e10	1	-1E+10	1	-1E+10	1	-1E+10	1
4902624	21	C	01/17/2025	18:16	-125.902	47.135	0	375.40	0	5.4161	0	34.0329	0	26.864	0	371.942	0	40.1	4	13.1	4	-1E+10	1	0.0578	4	0.000214	0	-1E+10	1	-1E+10	1	-1E+10	1
4902624	21	C	01/17/2025	18:16	-125.902	47.135	0	384.80	0	5.3995	0	34.0495	0	26.879	0	381.246	0	36.7	4	12.0	4	-1E+10	1	0.0440	4	0.000202	0	-1E+10	1	-1E+10	1	-1E+10	1
4902624	21	C	01/17/2025	18:16	-125.902	47.135	0	385.10	0	5.3990	0	34.0500	0	26.879	0	381.543	0	-1e10	1	-1e10	1	-1E+10	1	-1e10	1	-1e10	1	-1E+10	1	-1E+10	1	-1E+10	1
4902624	21	C	01/17/2025	18:16	-125.902	47.135	0	394.50	0	5.3511	0	34.0622	0	26.895	0	390.848	0	35.2	4	11.5	4	-1E+10	1	0.0511	4	0.000178	0	-1E+10	1	-1E+10	1	-1E+10	1
4902624	21	C	01/17/2025	18:16	-125.902	47.135	0	395.10	0	5.3480	0	34.0630	0	26.896	0	391.442	0	-1e10	1	-1e10	1	-1E+10	1	-1e10	1	-1e10	1	-1E+10	1	-1E+10	1	-1E+10	1
4902624	21	C	01/17/2025	18:16	-125.902	47.135	0	404.80	0	5.3366	0	34.0706	0	26.903	0	401.042	0	33.6	4	11.0	4	-1E+10	1	0.0511	4	0.000147	0	-1E+10	1	-1E+10	1	-1E+10	1
4902624	21	C	01/17/2025	18:16	-125.902	47.135	0	405.30	0	5.3360	0	34.0710	0	26.904	0	401.537	0	-1e10	1	-1e10	1	-1E+10	1	-1e10	1	-1e10	1	-1E+10	1	-1E+10	1	-1E+10	1
4902624	21	C	01/17/2025	18:16	-125.902	47.135	0	415.00	0	5.3080	0	34.0770	0	26.912	0	411.138	0	-1e10	1	-1e10	1	-1E+10	1	-1e10	1	-1e10	1	-1E+10	1	-1E+10	1	-1E+10	1
4902624	21	C	01/17/2025	18:16	-125.902	47.135	0	415.60	0	5.3055	0	34.0772	0	26.912	0	411.731	0	32.2	4	10.5	4	-1E+10	1	0.0514	4	0.000212	0	-1E+10	1	-1E+10	1	-1E+10	1
4902624	21	C	01/17/2025	18:16	-125.902	47.135	0	424.90	0	5.2660	0	34.0810	0	26.920	0	420.935	0	-1e10	1	-1e10	1	-1E+10	1	-1e10	1	-1e10	1	-1E+10	1	-1E+10	1	-1E+10	1
4902624	21	C	01/17/2025	18:16	-125.902	47.135	0	426.60	0	5.2553	0	34.0825	0	26.922	0	422.618	0	30.4	4	9.9	4	-1E+10	1	0.0581	4	0.000168	0	-1E+10	1	-1E+10	1	-1E+10	1
4902624	21	C	01/17/2025	18:16	-125.902	47.135	0	435.10	0	5.2020	0	34.0900	0	26.935	0	431.030	0	-1e10	1	-1e10	1	-1E+10	1	-1e10	1	-1e10	1	-1E+10	1	-1E+10	1	-1E+10	1
4902624	21	C	01/17/2025	18:16	-125.902	47.135	0	437.80	0	5.1877	0	34.0928	0	26.939	0	433.702	0	28.3	4	9.2	4	-1E+10	1	0.0514	4	0.000190	0	-1E+10	1	-1E+10	1	-1E+10	1
4902624	21	C	01/17/2025	18:16	-125.902	47.135	0	444.70	0	5.1510	0	34.1000	0	26.949	0	440.530	0	-1e10	1	-1e10	1	-1E+10	1	-1e10	1	-1e10	1	-1E+10	1	-1E+10	1	-1E+10	1
4902624	21	C	01/17/2025	18:16	-125.902	47.135	0	449.40	0	5.1236	0	34.1018	0	26.953	0	445.181	0	26.9	4	8.7	4	-1E+10	1	0.0581	4	0.000178	0	-1E+10	1	-1E+10	1	-1E+10	1
4902624	21	C	01/17/2025	18:16	-125.902	47.135	0	455.00	0	5.0910	0	34.1040	0	26.959	0	450.722	0	-1e10	1	-1e10	1	-1E+10	1	-1e10	1	-1e10	1	-1E+10	1	-1E+10	1	-1E+10	1
4902624	21	C	01/17/2025	18:16	-125.902	47.135	0	461.20	0	5.0501	0	34.1070	0	26.966	0	456.857	0	25.3	4	8.2	4	-1E+10	1	0.0511	4	0.000162	0	-1E+10	1	-1E+10	1	-1E+10	1
4902624	21	C	01/17/2025	18:16	-125.902	47.135	0	465.30	0	5.0230	0	34.1090	0	26.971	0	460.914	0	-1e10	1	-1e10	1	-1E+10	1	-1e10	1	-1e10	1	-1E+10	1	-1E+10	1	-1E+10	1
4902624	21	C	01/17/2025	18:16	-125.902	47.135	0	473.10	0	4.9928	0	34.1146	0	26.978	0	468.631	0	23.5	4	7.6	4	-1E+10	1	0.0508	4	0.000301	0	-1E+10	1	-1E+10	1	-1E+10	1
4902624	21	C	01/17/2025	18:16	-125.902	47.135	0	475.10	0	4.9850	0	34.1160	0	26.981	0	470.610	0	-1e10	1	-1e10	1	-1E+10	1	-1e10	1	-1e10	1	-1E+10	1	-1E+10	1	-1E+10	1
4902624	21	C	01/17/2025	18:16	-125.902	47.135	0	484.90	0	4.9570	0	34.1290	0	26.994	0	480.306	0	-1e10	1	-1e10	1	-1E+10	1	-1e10	1	-1e10	1	-1E+10	1	-1E+10	1	-1E+10	1
4902624	21	C	01/17/2025	18:16	-125.902	47.135	0	485.10	0	4.9566	0	34.1292	0	26.994	0	480.504	0	21.5	4	6.9	4	-1E+10	1	0.0444	4	0.000155	0	-1E+10	1	-1E+10	1	-1E+10	1
4902624	21	C	01/17/2025	18:16	-125.902	47.135	0	494.90	0	4.9380	0	34.1380	0	27.003	0	490.200	0	-1e10	1	-1e10	1	-1E+10	1	-1e10	1	-1e10	1	-1E+10	1	-1E+10	1	-1E+10	1
4902624	21	C	01/17/2025	18:16	-125.902	47.135	0	497.10	0	4.9285	0	34.1395	0	27.006	0	492.376	0	20.2	4	6.5	4	-1E+10	1	0.0580	4	0.000196	0	-1E+10	1	-1E+10	1	-1E+10	1
4902624	21	C	01/17/2025	18:16	-125.902	47.135	0	505.10	0	4.8940	0	34.1450	0	27.014	0	500.291	0	-1e10	1	-1e10	1	-1E+10	1	-1e10	1	-1e10	1	-1E+10	1	-1E+10	1	-1E+10	1
4902624	21	C	01/17/2025	18:16	-125.902	47.135	0	505.70	0	4.8917	0	34.1455	0	27.015	0	500.884	0	19.3	4	6.2	4	-1E+10	1	0.0518	4	0.000647	0	-1E+10	1	-1E+10	1	-1E+10	1
4902624	21	C	01/17/2025	18:16	-125.902	47.135	0	513.50	0	4.8624	0	34.1525	0	27.024	0	508.600	0	18.3	4	5.9	4	-1E+10	1	0.0654	4	0.000190	0	-1E+10	1	-1E+10	1	-1E+10	1
4902624	21	C	01/17/2025	18:16	-125.902	47.135	0	515.20	0	4.8560	0	34.1540	0	27.026	0	510.282	0	-1e10	1	-1e10	1	-1E+10	1	-1e10	1	-1e10	1	-1E+10	1	-1E+10	1	-1E+10	1
4902624	21	C	01/17/2025	18:16	-125.902	47.135	0	521.60	0	4.8368	0	34.1591	0	27.032	0	516.613	0	17.4	4	5.6	4	-1E+10	1	0.0587	4	0.000195	0	-1E+10	1	-1E+10	1	-1E+10	1
4902624	21	C	01/17/2025	18:16	-125.902	47.135	0	525.20	0	4.8260	0	34.1620	0	27.035	0	520.174	0	-1e10	1	-1e10	1	-1E+10	1	-1e10	1	-1e10	1	-1E+10	1	-1E+10	1	-1E+10	1
4902624	21	C	01/17/2025	18:16	-125.902	47.135	0	530.00	0	4.8119	0	34.1668	0	27.041	0	524.922	0	16.3	4	5.3	4	-1E+10	1	0.0654	4	0.000322	0	-1E+10	1	-1E+10	1	-1E+10	1
4902624	21	C	01/17/2025	18:16	-125.902	47.135	0	535.10	0	4.7970	0	34.1720	0	27.047	0	529.967	0	-1e10	1	-1e10	1	-1E+10	1	-1e10	1	-1e10	1	-1E+10	1	-1E+10	1	-1E+10	1
4902624	21	C	01/17/2025	18:16	-125.902	47.135	0	538.60	0	4.7797	0	34.1745	0	27.051	0	533.429	0	15.6	4	5.0	4	-1E+10	1	0.0582	4	0.000155	0	-1E+10	1	-1E+10	1	-1E+10	1
4902624	21	C	01/17/2025	18:16	-125.902	47.135	0	545.00	0	4.7480	0	34.1790	0	27.058	0	539.759	0	-1e10	1	-1e10	1	-1E+10	1	-1e10	1	-1e10	1	-1E+10	1	-1E+10	1	-1E+10	1
4902624	21	C	01/17/2025	18:16	-125.902	47.135	0	547.60	0	4.7415	0	34.1816	0	27.060	0	542.330	0	14.7	4	4.7	4	-1E+10	1	0.0513	4	0.000167	0	-1E+10	1	-1E+10	1	-1E+10	1
4902624	21	C	01/17/2025	18:16	-125.902	47.135	0	555.00	0	4.7230	0	34.1890	0	27.068	0	549.649	0	-1e10	1	-1e10	1	-1E+10	1	-1e10	1	-1e10	1	-1E+10	1	-1E+10	1	-1E+10	1
4902624	21	C	01/17/2025	18:16	-125.902	47.135	0	557.00	0	4.7200	0	34.1900	0	27.070	0	551.628	0	14.1	4	4.5	4	-1E+10	1	0.0584	4	0.000177	0	-1E+10	1	-1E+10	1	-1E+10	1
4902624	21	C	01/17/2025	18:16	-125.902	47.135	0	565.00	0	4.7080	0	34.1940	0	27.074	0	559.540	0	-1e10	1	-1e10	1	-1E+10	1	-1e10	1	-1e10	1	-1E+10	1	-1E+10	1	-1E+10	1
4902624	21	C	01/17/2025	18:16	-125.902	47.135	0	566.80	0	4.7056	0	34.1947	0	27.075	0	561.320	0	13.7	4	4.4	4	-1E+10	1	0.0578	4	0.000171	0	-1E+10	1	-1E+10	1	-1E+10	1
4902624	21	C	01/17/2025	18:16	-125.902	47.135	0	574.80	0	4.6950	0	34.1980	0	27.079	0	569.232	0	-1e10	1	-1e10	1	-1E+10	1	-1e10	1	-1e10	1	-1E+10	1	-1E+10	1	-1E+10	1
4902624	21	C	01/17/2025	18:16	-125.902	47.135	0	577.00	0	4.6890	0	34.1993	0	27.081	0	571.407	0	13.1	4	4.2	4	-1E+10	1	0.0448	4	0.000278	0	-1E+10	1	-1E+10	1	-1E+10	1
4902624	21	C	01/17/2025	18:16	-125.902	47.135	0	585.00	0	4.6670	0	34.2040	0	27.087	0	579.319	0	-1e10	1	-1e10	1	-1E+10	1	-1e10	1	-1e10	1	-1E+10	1	-1E+10	1	-1E+10	1
4902624	21	C	01/17/2025	18:16	-125.902	47.135	0	587.50	0	4.6554	0	34.2070	0	27.090	0	581.791	0	12.1	4	3.9	4	-1E+10	1	0.0660	4	0.000177	0	-1E+10	1	-1E+10	1	-1E+10	1
4902624	21	C	01/17/2025	18:16	-125.902	47.135	0	595.10	0	4.6200	0	34.2160	0	27.102	0	589.306	0	-1e10	1	-1e10	1	-1E+10	1	-1e10	1	-1e10	1	-1E+10	1	-1E+10	1	-1E+10	1
4902624	21	C	01/17/2025	18:16	-125.902	47.135	0	598.50	0	4.6086	0	34.2190	0	27.105	0	592.668	0	11.5	4	3.7	4	-1E+10	1	0.0727	4	0.000166	0	-1E+10	1	-1E+10	1	-1E+10	1
4902624	21	C	01/17/2025	18:16	-125.902	47.135	0	605.20	0	4.5860	0	34.2250	0	27.113	0	599.293	0	-1e10	1	-1e10	1	-1E+10	1	-1e10	1	-1e10	1	-1E+10	1	-1E+10	1	-1E+10	1
4902624	21	C	01/17/2025	18:16	-125.902	47.135	0	609.80	0	4.5757	0	34.2269	0	27.115	0	603.842	0	11.0	4	3.5	4	-1E+10	1	0.0652	4	0.000189	0	-1E+10	1	-1E+10	1	-1E+10	1
4902624	21	C	01/17/2025	18:16	-125.902	47.135	0	615.00	0	4.5640	0	34.2290	0	27.118	0	608.983	0	-1e10	1	-1e10	1	-1E+10	1	-1e10	1	-1e10	1	-1E+10	1	-1E+10	1	-1E+10	1
4902624	21	C	01/17/2025	18:16	-125.902	47.135	0	621.30	0	4.5384	0	34.2352	0	27.126	0	615.212	0	10.4	4	3.3	4	-1E+10	1	0.0514	4	0.000189	0	-1E+10	1	-1E+10	1	-1E+10	1
4902624	21	C	01/17/2025	18:16	-125.902	47.135	0	625.10	0	4.5230	0	34.2390	0	27.131	0	618.969	0	-1e10	1	-1e10	1	-1E+10	1	-1e10	1	-1e10	1	-1E+10	1	-1E+10	1	-1E+10	1
4902624	21	C	01/17/2025	18:16	-125.902	47.135	0	632.90	0	4.4949	0	34.2460	0	27.139	0	626.681	0	9.9	4	3.2	4	-1E+10	1	0.0581	4	0.000188	0	-1E+10	1	-1E+10	1	-1E+10	1
4902624	21	C	01/17/2025	18:16	-125.902	47.135	0	635.10	0	4.4870	0	34.2480	0	27.142	0	628.856	0	-1e10	1	-1e10	1	-1E+10	1	-1e10	1	-1e10	1	-1E+10	1	-1E+10	1	-1E+10	1
4902624	21	C	01/17/2025	18:16	-125.902	47.135	0	644.20	0	4.4777	0	34.2499	0	27.144	0	637.853	0	9.6	4	3.1	4	-1E+10	1	0.0508	4	0.000176	0	-1E+10	1	-1E+10	1	-1E+10	1
4902624	21	C	01/17/2025	18:16	-125.902	47.135	0	644.90	0	4.4770	0	34.2500	0	27.145	0	638.545	0	-1e10	1	-1e10	1	-1E+10	1	-1e10	1	-1e10	1	-1E+10	1	-1E+10	1	-1E+10	1
4902624	21	C	01/17/2025	18:16	-125.902	47.135	0	655.30	0	4.4530	0	34.2560	0	27.152	0	648.826	0	-1e10	1	-1e10	1	-1E+10	1	-1e10	1	-1e10	1	-1E+10	1	-1E+10	1	-1E+10	1
4902624	21	C	01/17/2025	18:16	-125.902	47.135	0	655.50	0	4.4525	0	34.2561	0	27.152	0	649.024	0	9.3	4	3.0	4	-1E+10	1	0.0444	4	0.000155	0	-1E+10	1	-1E+10	1	-1E+10	1
4902624	21	C	01/17/2025	18:16	-125.902	47.135	0	665.00	0	4.4300	0	34.2610	0	27.158	0	658.415	0	-1e10	1	-1e10	1	-1E+10	1	-1e10	1	-1e10	1	-1E+10	1	-1E+10	1	-1E+10	1
4902624	21	C	01/17/2025	18:16	-125.902	47.135	0	666.70	0	4.4244	0	34.2622	0	27.160	0	660.096	0	9.1	4	2.9	4	-1E+10	1	0.0587	4	0.000188	0	-1E+10	1	-1E+10	1	-1E+10	1
4902624	21	C	01/17/2025	18:16	-125.902	47.135	0	675.00	0	4.3970	0	34.2680	0	27.168	0	668.300	0	-1e10	1	-1e10	1	-1E+10	1	-1e10	1	-1e10	1	-1E+10	1	-1E+10	1	-1E+10	1
4902624	21	C	01/17/2025	18:16	-125.902	47.135	0	677.80	0	4.3890	0	34.2697	0	27.170	0	671.068	0	8.8	4	2.8	4	-1E+10	1	0.0654	4	0.000177	0	-1E+10	1	-1E+10	1	-1E+10	1
4902624	21	C	01/17/2025	18:16	-125.902	47.135	0	685.10	0	4.3680	0	34.2740	0	27.176	0	678.283	0	-1e10	1	-1e10	1	-1E+10	1	-1e10	1	-1e10	1	-1E+10	1	-1E+10	1	-1E+10	1
4902624	21	C	01/17/2025	18:16	-125.902	47.135	0	688.70	0	4.3520	0	34.2773	0	27.180	0	681.842	0	8.5	4	2.7	4	-1E+10	1	0.0581	4	0.000187	0	-1E+10	1	-1E+10	1	-1E+10	1
4902624	21	C	01/17/2025	18:16	-125.902	47.135	0	694.80	0	4.3250	0	34.2830	0	27.187	0	687.871	0	-1e10	1	-1e10	1	-1E+10	1	-1e10	1	-1e10	1	-1E+10	1	-1E+10	1	-1E+10	1
4902624	21	C	01/17/2025	18:16	-125.902	47.135	0	699.50	0	4.3103	0	34.2867	0	27.192	0	692.516	0	8.2	4	2.6	4	-1E+10	1	0.0518	4	0.000166	0	-1E+10	1	-1E+10	1	-1E+10	1
4902624	21	C	01/17/2025	18:16	-125.902	47.135	0	705.00	0	4.2930	0	34.2910	0	27.197	0	697.952	0	-1e10	1	-1e10	1	-1E+10	1	-1e10	1	-1e10	1	-1E+10	1	-1E+10	1	-1E+10	1
4902624	21	C	01/17/2025	18:16	-125.902	47.135	0	710.60	0	4.2815	0	34.2937	0	27.201	0	703.487	0	8.1	4	2.6	4	-1E+10	1	0.0650	4	0.000186	0	-1E+10	1	-1E+10	1	-1E+10	1
4902624	21	C	01/17/2025	18:16	-125.902	47.135	0	715.20	0	4.2720	0	34.2960	0	27.203	0	708.033	0	-1e10	1	-1e10	1	-1E+10	1	-1e10	1	-1e10	1	-1E+10	1	-1E+10	1	-1E+10	1
4902624	21	C	01/17/2025	18:16	-125.902	47.135	0	721.70	0	4.2629	0	34.2980	0	27.206	0	714.457	0	8.0	4	2.6	4	-1E+10	1	0.0511	4	0.000143	0	-1E+10	1	-1E+10	1	-1E+10	1
4902624	21	C	01/17/2025	18:16	-125.902	47.135	0	725.20	0	4.2580	0	34.2990	0	27.207	0	717.915	0	-1e10	1	-1e10	1	-1E+10	1	-1e10	1	-1e10	1	-1E+10	1	-1E+10	1	-1E+10	1
4902624	21	C	01/17/2025	18:16	-125.902	47.135	0	733.00	0	4.2469	0	34.3022	0	27.211	0	725.624	0	7.9	4	2.5	4	-1E+10	1	0.0516	4	0.000190	0	-1E+10	1	-1E+10	1	-1E+10	1
4902624	21	C	01/17/2025	18:16	-125.902	47.135	0	735.00	0	4.2440	0	34.3030	0	27.212	0	727.600	0	-1e10	1	-1e10	1	-1E+10	1	-1e10	1	-1e10	1	-1E+10	1	-1E+10	1	-1E+10	1
4902624	21	C	01/17/2025	18:16	-125.902	47.135	0	744.60	0	4.2205	0	34.3089	0	27.219	0	737.086	0	7.8	4	2.5	4	-1E+10	1	0.0654	4	0.000243	0	-1E+10	1	-1E+10	1	-1E+10	1
4902624	21	C	01/17/2025	18:16	-125.902	47.135	0	744.80	0	4.2200	0	34.3090	0	27.219	0	737.284	0	-1e10	1	-1e10	1	-1E+10	1	-1e10	1	-1e10	1	-1E+10	1	-1E+10	1	-1E+10	1
4902624	21	C	01/17/2025	18:16	-125.902	47.135	0	754.90	0	4.1880	0	34.3140	0	27.227	0	747.264	0	-1e10	1	-1e10	1	-1E+10	1	-1e10	1	-1e10	1	-1E+10	1	-1E+10	1	-1E+10	1
4902624	21	C	01/17/2025	18:16	-125.902	47.135	0	756.20	0	4.1831	0	34.3148	0	27.228	0	748.548	0	7.7	4	2.5	4	-1E+10	1	0.0580	4	0.000163	0	-1E+10	1	-1E+10	1	-1E+10	1
4902624	21	C	01/17/2025	18:16	-125.902	47.135	0	765.00	0	4.1500	0	34.3200	0	27.236	0	757.243	0	-1e10	1	-1e10	1	-1E+10	1	-1e10	1	-1e10	1	-1E+10	1	-1E+10	1	-1E+10	1
4902624	21	C	01/17/2025	18:16	-125.902	47.135	0	765.70	0	4.1484	0	34.3204	0	27.236	0	757.935	0	7.6	4	2.4	4	-1E+10	1	0.0518	4	0.000154	0	-1E+10	1	-1E+10	1	-1E+10	1
4902624	21	C	01/17/2025	18:16	-125.902	47.135	0	774.00	0	4.1291	0	34.3255	0	27.242	0	766.136	0	7.6	4	2.4	4	-1E+10	1	0.0654	4	0.000187	0	-1E+10	1	-1E+10	1	-1E+10	1
4902624	21	C	01/17/2025	18:16	-125.902	47.135	0	774.90	0	4.1270	0	34.3260	0	27.243	0	767.025	0	-1e10	1	-1e10	1	-1E+10	1	-1e10	1	-1e10	1	-1E+10	1	-1E+10	1	-1E+10	1
4902624	21	C	01/17/2025	18:16	-125.902	47.135	0	782.70	0	4.1036	0	34.3276	0	27.247	0	774.731	0	7.5	4	2.4	4	-1E+10	1	0.0584	4	0.000175	0	-1E+10	1	-1E+10	1	-1E+10	1
4902624	21	C	01/17/2025	18:16	-125.902	47.135	0	784.90	0	4.0970	0	34.3280	0	27.248	0	776.905	0	-1e10	1	-1e10	1	-1E+10	1	-1e10	1	-1e10	1	-1E+10	1	-1E+10	1	-1E+10	1
4902624	21	C	01/17/2025	18:16	-125.902	47.135	0	791.70	0	4.0849	0	34.3314	0	27.252	0	783.623	0	39.4	4	12.5	4	-1E+10	1	0.0584	4	0.000164	0	-1E+10	1	-1E+10	1	-1E+10	1
4902624	21	C	01/17/2025	18:16	-125.902	47.135	0	795.00	0	4.0790	0	34.3330	0	27.254	0	786.883	0	-1e10	1	-1e10	1	-1E+10	1	-1e10	1	-1e10	1	-1E+10	1	-1E+10	1	-1E+10	1
4902624	21	C	01/17/2025	18:16	-125.902	47.135	0	800.90	0	4.0684	0	34.3348	0	27.256	0	792.711	0	40.0	4	12.7	4	-1E+10	1	0.0590	4	0.000174	0	-1E+10	1	-1E+10	1	-1E+10	1
4902624	21	C	01/17/2025	18:16	-125.902	47.135	0	805.00	0	4.0610	0	34.3360	0	27.258	0	796.762	0	-1e10	1	-1e10	1	-1E+10	1	-1e10	1	-1e10	1	-1E+10	1	-1E+10	1	-1E+10	1
4902624	21	C	01/17/2025	18:16	-125.902	47.135	0	810.40	0	4.0468	0	34.3393	0	27.262	0	802.096	0	40.0	4	12.6	4	-1E+10	1	0.0724	4	0.000154	0	-1E+10	1	-1E+10	1	-1E+10	1
4902624	21	C	01/17/2025	18:16	-125.902	47.135	0	814.90	0	4.0350	0	34.3420	0	27.265	0	806.541	0	-1e10	1	-1e10	1	-1E+10	1	-1e10	1	-1e10	1	-1E+10	1	-1E+10	1	-1E+10	1
4902624	21	C	01/17/2025	18:16	-125.902	47.135	0	820.30	0	4.0246	0	34.3431	0	27.267	0	811.875	0	38.8	4	12.3	4	-1E+10	1	0.0587	4	0.000209	0	-1E+10	1	-1E+10	1	-1E+10	1
4902624	21	C	01/17/2025	18:16	-125.902	47.135	0	824.80	0	4.0160	0	34.3440	0	27.269	0	816.320	0	-1e10	1	-1e10	1	-1E+10	1	-1e10	1	-1e10	1	-1E+10	1	-1E+10	1	-1E+10	1
4902624	21	C	01/17/2025	18:16	-125.902	47.135	0	830.50	0	3.9989	0	34.3451	0	27.272	0	821.950	0	36.4	4	11.5	4	-1E+10	1	0.0654	4	0.000174	0	-1E+10	1	-1E+10	1	-1E+10	1
4902624	21	C	01/17/2025	18:16	-125.902	47.135	0	834.80	0	3.9860	0	34.3460	0	27.274	0	826.198	0	-1e10	1	-1e10	1	-1E+10	1	-1e10	1	-1e10	1	-1E+10	1	-1E+10	1	-1E+10	1
4902624	21	C	01/17/2025	18:16	-125.902	47.135	0	841.30	0	3.9574	0	34.3473	0	27.278	0	832.618	0	34.6	4	10.9	4	-1E+10	1	0.0577	4	0.000153	0	-1E+10	1	-1E+10	1	-1E+10	1
4902624	21	C	01/17/2025	18:16	-125.902	47.135	0	844.80	0	3.9420	0	34.3480	0	27.280	0	836.075	0	-1e10	1	-1e10	1	-1E+10	1	-1e10	1	-1e10	1	-1E+10	1	-1E+10	1	-1E+10	1
4902624	21	C	01/17/2025	18:16	-125.902	47.135	0	852.10	0	3.9274	0	34.3531	0	27.286	0	843.285	0	38.0	4	12.0	4	-1E+10	1	0.0448	4	0.000184	0	-1E+10	1	-1E+10	1	-1E+10	1
4902624	21	C	01/17/2025	18:16	-125.902	47.135	0	854.80	0	3.9220	0	34.3550	0	27.288	0	845.951	0	-1e10	1	-1e10	1	-1E+10	1	-1e10	1	-1e10	1	-1E+10	1	-1E+10	1	-1E+10	1
4902624	21	C	01/17/2025	18:16	-125.902	47.135	0	862.90	0	3.9044	0	34.3590	0	27.293	0	853.951	0	37.4	4	11.8	4	-1E+10	1	0.0654	4	0.000141	0	-1E+10	1	-1E+10	1	-1E+10	1
4902624	21	C	01/17/2025	18:16	-125.902	47.135	0	864.90	0	3.9000	0	34.3600	0	27.294	0	855.926	0	-1e10	1	-1e10	1	-1E+10	1	-1e10	1	-1e10	1	-1E+10	1	-1E+10	1	-1E+10	1
4902624	21	C	01/17/2025	18:16	-125.902	47.135	0	873.60	0	3.8904	0	34.3644	0	27.298	0	864.518	0	33.2	4	10.5	4	-1E+10	1	0.0581	4	0.000175	0	-1E+10	1	-1E+10	1	-1E+10	1
4902624	21	C	01/17/2025	18:16	-125.902	47.135	0	874.90	0	3.8890	0	34.3650	0	27.299	0	865.802	0	-1e10	1	-1e10	1	-1E+10	1	-1e10	1	-1e10	1	-1E+10	1	-1E+10	1	-1E+10	1
4902624	21	C	01/17/2025	18:16	-125.902	47.135	0	884.10	0	3.8712	0	34.3744	0	27.308	0	874.887	0	34.7	4	10.9	4	-1E+10	1	0.0511	4	0.000186	0	-1E+10	1	-1E+10	1	-1E+10	1
4902624	21	C	01/17/2025	18:16	-125.902	47.135	0	884.70	0	3.8700	0	34.3750	0	27.309	0	875.479	0	-1e10	1	-1e10	1	-1E+10	1	-1e10	1	-1e10	1	-1E+10	1	-1E+10	1	-1E+10	1
4902624	21	C	01/17/2025	18:16	-125.902	47.135	0	894.80	0	3.8360	0	34.3760	0	27.313	0	885.452	0	29.6	4	9.3	4	-1E+10	1	0.0511	4	0.000183	0	-1E+10	1	-1E+10	1	-1E+10	1
4902624	21	C	01/17/2025	18:16	-125.902	47.135	0	905.10	0	3.7800	0	34.3690	0	27.313	0	895.623	0	-1e10	1	-1e10	1	-1E+10	1	-1e10	1	-1e10	1	-1E+10	1	-1E+10	1	-1E+10	1
4902624	21	C	01/17/2025	18:16	-125.902	47.135	0	905.60	0	3.7781	0	34.3690	0	27.314	0	896.116	0	30.5	4	9.6	4	-1E+10	1	0.0518	4	0.000123	0	-1E+10	1	-1E+10	1	-1E+10	1
4902624	21	C	01/17/2025	18:16	-125.902	47.135	0	915.00	0	3.7420	0	34.3700	0	27.318	0	905.398	0	-1e10	1	-1e10	1	-1E+10	1	-1e10	1	-1e10	1	-1E+10	1	-1E+10	1	-1E+10	1
4902624	21	C	01/17/2025	18:16	-125.902	47.135	0	916.50	0	3.7359	0	34.3699	0	27.318	0	906.879	0	22.8	4	7.2	4	-1E+10	1	0.0654	4	0.000161	0	-1E+10	1	-1E+10	1	-1E+10	1
4902624	21	C	01/17/2025	18:16	-125.902	47.135	0	925.00	0	3.7010	0	34.3690	0	27.321	0	915.271	0	-1e10	1	-1e10	1	-1E+10	1	-1e10	1	-1e10	1	-1E+10	1	-1E+10	1	-1E+10	1
4902624	21	C	01/17/2025	18:16	-125.902	47.135	0	927.60	0	3.6953	0	34.3695	0	27.322	0	917.838	0	33.3	4	10.4	4	-1E+10	1	0.0581	4	0.000139	0	-1E+10	1	-1E+10	1	-1E+10	1
4902624	21	C	01/17/2025	18:16	-125.902	47.135	0	935.00	0	3.6790	0	34.3710	0	27.325	0	925.144	0	-1e10	1	-1e10	1	-1E+10	1	-1e10	1	-1e10	1	-1E+10	1	-1E+10	1	-1E+10	1
4902624	21	C	01/17/2025	18:16	-125.902	47.135	0	938.80	0	3.6635	0	34.3721	0	27.328	0	928.895	0	12.2	4	3.8	4	-1E+10	1	0.0514	4	0.000140	0	-1E+10	1	-1E+10	1	-1E+10	1
4902624	21	C	01/17/2025	18:16	-125.902	47.135	0	945.30	0	3.6370	0	34.3740	0	27.332	0	935.312	0	-1e10	1	-1e10	1	-1E+10	1	-1e10	1	-1e10	1	-1E+10	1	-1E+10	1	-1E+10	1
4902624	21	C	01/17/2025	18:16	-125.902	47.135	0	950.00	0	3.6210	0	34.3750	0	27.334	0	939.952	0	54.2	4	17.0	4	-1E+10	1	0.0584	4	0.000161	0	-1E+10	1	-1E+10	1	-1E+10	1
4902624	21	C	01/17/2025	18:16	-125.902	47.135	0	955.00	0	3.6040	0	34.3760	0	27.337	0	944.888	0	-1e10	1	-1e10	1	-1E+10	1	-1e10	1	-1e10	1	-1E+10	1	-1E+10	1	-1E+10	1
4902624	21	C	01/17/2025	18:16	-125.902	47.135	0	961.40	0	3.5781	0	34.3779	0	27.341	0	951.205	0	55.8	4	17.5	4	-1E+10	1	0.0581	4	0.000139	0	-1E+10	1	-1E+10	1	-1E+10	1
4902624	21	C	01/17/2025	18:16	-125.902	47.135	0	964.90	0	3.5640	0	34.3790	0	27.343	0	954.660	0	-1e10	1	-1e10	1	-1E+10	1	-1e10	1	-1e10	1	-1E+10	1	-1E+10	1	-1E+10	1
4902624	21	C	01/17/2025	18:16	-125.902	47.135	0	972.80	0	3.5555	0	34.3852	0	27.349	0	962.458	0	54.4	4	17.0	4	-1E+10	1	0.0511	4	0.000138	0	-1E+10	1	-1E+10	1	-1E+10	1
4902624	21	C	01/17/2025	18:16	-125.902	47.135	0	975.10	0	3.5530	0	34.3870	0	27.350	0	964.729	0	-1e10	1	-1e10	1	-1E+10	1	-1e10	1	-1e10	1	-1E+10	1	-1E+10	1	-1E+10	1
4902624	21	C	01/17/2025	18:16	-125.902	47.135	0	984.30	0	3.5484	0	34.3907	0	27.354	0	973.809	0	55.6	4	17.4	4	-1E+10	1	0.0511	4	0.000125	0	-1E+10	1	-1E+10	1	-1E+10	1
4902624	21	C	01/17/2025	18:16	-125.902	47.135	0	985.00	0	3.5480	0	34.3910	0	27.354	0	974.500	0	-1e10	1	-1e10	1	-1E+10	1	-1e10	1	-1e10	1	-1E+10	1	-1E+10	1	-1E+10	1
4902624	21	C	01/17/2025	18:16	-125.902	47.135	0	992.10	0	3.5248	0	34.3910	0	27.356	0	981.508	0	57.5	4	18.0	4	-1E+10	1	0.0516	4	0.000105	0	-1E+10	1	-1E+10	1	-1E+10	1
4902624	21	C	01/17/2025	18:16	-125.902	47.135	0	995.10	0	3.5150	0	34.3910	0	27.357	0	984.469	0	-1e10	1	-1e10	1	-1E+10	1	-1e10	1	-1e10	1	-1E+10	1	-1E+10	1	-1E+10	1
4902624	21	C	01/17/2025	18:16	-125.902	47.135	0	1001.10	0	3.4969	0	34.3936	0	27.361	0	990.391	0	59.5	4	18.6	4	-1E+10	1	0.0656	4	0.000149	0	-1E+10	1	-1E+10	1	-1E+10	1
4902624	21	C	01/17/2025	18:16	-125.902	47.135	0	1017.40	0	3.4477	0	34.4007	0	27.372	0	1006.477	0	60.3	4	18.8	4	-1E+10	1	0.0584	4	0.000126	0	-1E+10	1	-1E+10	1	-1E+10	1
4902624	21	C	01/17/2025	18:16	-125.902	47.135	0	1024.90	0	3.4250	0	34.4040	0	27.377	0	1013.879	0	-1e10	1	-1e10	1	-1E+10	1	-1e10	1	-1e10	1	-1E+10	1	-1E+10	1	-1E+10	1
4902624	21	C	01/17/2025	18:16	-125.902	47.135	0	1034.70	0	3.4010	0	34.4079	0	27.382	0	1023.549	0	58.9	4	18.3	4	-1E+10	1	0.0583	4	0.000137	0	-1E+10	1	-1E+10	1	-1E+10	1
4902624	21	C	01/17/2025	18:16	-125.902	47.135	0	1053.10	0	3.3561	0	34.4153	0	27.392	0	1041.705	0	57.9	4	18.0	4	-1E+10	1	0.0512	4	0.000103	0	-1E+10	1	-1E+10	1	-1E+10	1
4902624	21	C	01/17/2025	18:16	-125.902	47.135	0	1072.00	0	3.3098	0	34.4229	0	27.403	0	1060.353	0	57.4	4	17.9	4	-1E+10	1	0.0584	4	0.000126	0	-1E+10	1	-1E+10	1	-1E+10	1
4902624	21	C	01/17/2025	18:16	-125.902	47.135	0	1074.80	0	3.3030	0	34.4240	0	27.404	0	1063.116	0	-1e10	1	-1e10	1	-1E+10	1	-1e10	1	-1e10	1	-1E+10	1	-1E+10	1	-1E+10	1
4902624	21	C	01/17/2025	18:16	-125.902	47.135	0	1091.90	0	3.2631	0	34.4295	0	27.413	0	1079.986	0	55.9	4	17.4	4	-1E+10	1	0.0581	4	0.000149	0	-1E+10	1	-1E+10	1	-1E+10	1
4902624	21	C	01/17/2025	18:16	-125.902	47.135	0	1112.80	0	3.2144	0	34.4361	0	27.422	0	1100.603	0	53.8	4	16.7	4	-1E+10	1	0.0441	4	0.000160	0	-1E+10	1	-1E+10	1	-1E+10	1
4902624	21	C	01/17/2025	18:16	-125.902	47.135	0	1125.00	0	3.1860	0	34.4400	0	27.428	0	1112.637	0	-1e10	1	-1e10	1	-1E+10	1	-1e10	1	-1e10	1	-1E+10	1	-1E+10	1	-1E+10	1
4902624	21	C	01/17/2025	18:16	-125.902	47.135	0	1134.80	0	3.1629	0	34.4429	0	27.433	0	1122.303	0	55.0	4	17.1	4	-1E+10	1	0.0582	4	0.000114	0	-1E+10	1	-1E+10	1	-1E+10	1
4902624	21	C	01/17/2025	18:16	-125.902	47.135	0	1157.90	0	3.1084	0	34.4499	0	27.443	0	1145.086	0	55.0	4	17.0	4	-1E+10	1	0.0511	4	0.000125	0	-1E+10	1	-1E+10	1	-1E+10	1
4902624	21	C	01/17/2025	18:16	-125.902	47.135	0	1175.00	0	3.0680	0	34.4550	0	27.451	0	1161.949	0	-1e10	1	-1e10	1	-1E+10	1	-1e10	1	-1e10	1	-1E+10	1	-1E+10	1	-1E+10	1
4902624	21	C	01/17/2025	18:16	-125.902	47.135	0	1181.50	0	3.0522	0	34.4563	0	27.454	0	1168.359	0	39.8	4	12.3	4	-1E+10	1	0.0512	4	0.000125	0	-1E+10	1	-1E+10	1	-1E+10	1
4902624	21	C	01/17/2025	18:16	-125.902	47.135	0	1205.10	0	2.9950	0	34.4610	0	27.463	0	1191.630	0	59.9	4	18.5	4	-1E+10	1	0.0582	4	0.000158	0	-1E+10	1	-1E+10	1	-1E+10	1
4902624	21	C	01/17/2025	18:16	-125.902	47.135	0	1225.30	0	2.9460	0	34.4650	0	27.471	0	1211.546	0	-1e10	1	-1e10	1	-1E+10	1	-1e10	1	-1e10	1	-1E+10	1	-1E+10	1	-1E+10	1
4902624	21	C	01/17/2025	18:16	-125.902	47.135	0	1229.00	0	2.9399	0	34.4658	0	27.472	0	1215.193	0	73.8	4	22.8	4	-1E+10	1	0.0511	4	0.000113	0	-1E+10	1	-1E+10	1	-1E+10	1
4902624	21	C	01/17/2025	18:16	-125.902	47.135	0	1252.60	0	2.9013	0	34.4709	0	27.479	0	1238.459	0	92.3	4	28.4	4	-1E+10	1	0.0512	4	0.000135	0	-1E+10	1	-1E+10	1	-1E+10	1
4902624	21	C	01/17/2025	18:16	-125.902	47.135	0	1274.30	0	2.8658	0	34.4756	0	27.487	0	1259.849	0	79.0	4	24.3	4	-1E+10	1	0.0583	4	0.000112	0	-1E+10	1	-1E+10	1	-1E+10	1
4902624	21	C	01/17/2025	18:16	-125.902	47.135	0	1276.00	0	2.8630	0	34.4760	0	27.487	0	1261.525	0	-1e10	1	-1e10	1	-1E+10	1	-1e10	1	-1e10	1	-1E+10	1	-1E+10	1	-1E+10	1
4902624	21	C	01/17/2025	18:16	-125.902	47.135	0	1290.70	0	2.8374	0	34.4802	0	27.493	0	1276.013	0	83.1	4	25.6	4	-1E+10	1	0.0509	4	0.000124	0	-1E+10	1	-1E+10	1	-1E+10	1
4902624	21	C	01/17/2025	18:16	-125.902	47.135	0	1307.60	0	2.8080	0	34.4851	0	27.499	0	1292.669	0	90.6	4	27.9	4	-1E+10	1	0.0440	4	0.000135	0	-1E+10	1	-1E+10	1	-1E+10	1
4902624	21	C	01/17/2025	18:16	-125.902	47.135	0	1324.80	0	2.7780	0	34.4900	0	27.506	0	1309.619	0	-1e10	1	-1e10	1	-1E+10	1	-1e10	1	-1e10	1	-1E+10	1	-1E+10	1	-1E+10	1
4902624	21	C	01/17/2025	18:16	-125.902	47.135	0	1325.20	0	2.7774	0	34.4901	0	27.506	0	1310.013	0	92.5	4	28.4	4	-1E+10	1	0.0509	4	0.000131	0	-1E+10	1	-1E+10	1	-1E+10	1
4902624	21	C	01/17/2025	18:16	-125.902	47.135	0	1344.40	0	2.7506	0	34.4967	0	27.514	0	1328.933	0	94.0	4	28.9	4	-1E+10	1	0.0438	4	0.000124	0	-1E+10	1	-1E+10	1	-1E+10	1
4902624	21	C	01/17/2025	18:16	-125.902	47.135	0	1364.40	0	2.7227	0	34.5034	0	27.522	0	1348.639	0	95.3	4	29.3	4	-1E+10	1	0.0438	4	0.000170	0	-1E+10	1	-1E+10	1	-1E+10	1
4902624	21	C	01/17/2025	18:16	-125.902	47.135	0	1374.90	0	2.7080	0	34.5070	0	27.526	0	1358.984	0	-1e10	1	-1e10	1	-1E+10	1	-1e10	1	-1e10	1	-1E+10	1	-1E+10	1	-1E+10	1
4902624	21	C	01/17/2025	18:16	-125.902	47.135	0	1385.10	0	2.6866	0	34.5108	0	27.531	0	1369.033	0	86.0	4	26.4	4	-1E+10	1	0.0439	4	0.000183	0	-1E+10	1	-1E+10	1	-1E+10	1
4902624	21	C	01/17/2025	18:16	-125.902	47.135	0	1406.60	0	2.6415	0	34.5189	0	27.541	0	1390.212	0	91.3	4	28.0	4	-1E+10	1	0.0514	4	0.000273	0	-1E+10	1	-1E+10	1	-1E+10	1
4902624	21	C	01/17/2025	18:16	-125.902	47.135	0	1425.40	0	2.6020	0	34.5260	0	27.551	0	1408.731	0	-1e10	1	-1e10	1	-1E+10	1	-1e10	1	-1e10	1	-1E+10	1	-1E+10	1	-1E+10	1
4902624	21	C	01/17/2025	18:16	-125.902	47.135	0	1429.20	0	2.5957	0	34.5268	0	27.552	0	1412.474	0	91.8	4	28.1	4	-1E+10	1	0.0650	4	0.000182	0	-1E+10	1	-1E+10	1	-1E+10	1
4902624	21	C	01/17/2025	18:16	-125.902	47.135	0	1445.70	0	2.5682	0	34.5301	0	27.557	0	1428.725	0	98.0	4	30.0	4	-1E+10	1	0.0438	4	0.000226	0	-1E+10	1	-1E+10	1	-1E+10	1
4902624	21	C	01/17/2025	18:16	-125.902	47.135	0	1462.20	0	2.5407	0	34.5335	0	27.562	0	1444.974	0	176.3	4	53.8	4	-1E+10	1	0.0437	4	0.000180	0	-1E+10	1	-1E+10	1	-1E+10	1
4902624	21	C	01/17/2025	18:16	-125.902	47.135	0	1474.60	0	2.5200	0	34.5360	0	27.566	0	1457.186	0	-1e10	1	-1e10	1	-1E+10	1	-1e10	1	-1e10	1	-1E+10	1	-1E+10	1	-1E+10	1
4902624	21	C	01/17/2025	18:16	-125.902	47.135	0	1479.60	0	2.5138	0	34.5366	0	27.567	0	1462.109	0	193.8	4	59.2	4	-1E+10	1	0.0367	4	0.000180	0	-1E+10	1	-1E+10	1	-1E+10	1
4902624	21	C	01/17/2025	18:16	-125.902	47.135	0	1497.90	0	2.4913	0	34.5388	0	27.570	0	1480.129	0	192.3	4	58.7	4	-1E+10	1	0.0508	4	0.000181	0	-1E+10	1	-1E+10	1	-1E+10	1
4902624	21	C	01/17/2025	18:16	-125.902	47.135	0	1518.30	0	2.4662	0	34.5412	0	27.575	0	1500.215	0	190.1	4	58.0	4	-1E+10	1	0.0368	4	0.000241	0	-1E+10	1	-1E+10	1	-1E+10	1
4902624	21	C	01/17/2025	18:16	-125.902	47.135	0	1525.00	0	2.4580	0	34.5420	0	27.576	0	1506.811	0	-1e10	1	-1e10	1	-1E+10	1	-1e10	1	-1e10	1	-1E+10	1	-1E+10	1	-1E+10	1
4902624	21	C	01/17/2025	18:16	-125.902	47.135	0	1541.50	0	2.4353	0	34.5446	0	27.580	0	1523.055	0	195.6	4	59.6	4	-1E+10	1	0.0511	4	0.000365	0	-1E+10	1	-1E+10	1	-1E+10	1
4902624	21	C	01/17/2025	18:16	-125.902	47.135	0	1563.10	0	2.4055	0	34.5481	0	27.585	0	1544.317	0	203.3	4	61.9	4	-1E+10	1	0.0509	4	0.000297	0	-1E+10	1	-1E+10	1	-1E+10	1
4902624	21	C	01/17/2025	18:16	-125.902	47.135	0	1575.10	0	2.3890	0	34.5500	0	27.588	0	1556.129	0	-1e10	1	-1e10	1	-1E+10	1	-1e10	1	-1e10	1	-1E+10	1	-1E+10	1	-1E+10	1
4902624	21	C	01/17/2025	18:16	-125.902	47.135	0	1583.90	0	2.3800	0	34.5509	0	27.590	0	1564.791	0	204.5	4	62.2	4	-1E+10	1	0.0442	4	0.000331	0	-1E+10	1	-1E+10	1	-1E+10	1
4902624	21	C	01/17/2025	18:16	-125.902	47.135	0	1604.40	0	2.3591	0	34.5529	0	27.593	0	1584.967	0	204.8	4	62.3	4	-1E+10	1	0.0585	4	0.000310	0	-1E+10	1	-1E+10	1	-1E+10	1
4902624	21	C	01/17/2025	18:16	-125.902	47.135	0	1624.90	0	2.3382	0	34.5550	0	27.597	0	1605.141	0	206.0	4	62.6	4	-1E+10	1	0.0656	4	0.000421	0	-1E+10	1	-1E+10	1	-1E+10	1
4902624	21	C	01/17/2025	18:16	-125.902	47.135	0	1625.10	0	2.3380	0	34.5550	0	27.597	0	1605.337	0	-1e10	1	-1e10	1	-1E+10	1	-1e10	1	-1e10	1	-1E+10	1	-1E+10	1	-1E+10	1
4902624	21	C	01/17/2025	18:16	-125.902	47.135	0	1645.70	0	2.3123	0	34.5579	0	27.601	0	1625.608	0	207.5	4	63.0	4	-1E+10	1	0.0584	4	0.000226	0	-1E+10	1	-1E+10	1	-1E+10	1
4902624	21	C	01/17/2025	18:16	-125.902	47.135	0	1668.10	0	2.2844	0	34.5611	0	27.606	0	1647.647	0	208.8	4	63.4	4	-1E+10	1	0.0583	4	0.000295	0	-1E+10	1	-1E+10	1	-1E+10	1
4902624	21	C	01/17/2025	18:16	-125.902	47.135	0	1674.80	0	2.2760	0	34.5620	0	27.608	0	1654.239	0	-1e10	1	-1e10	1	-1E+10	1	-1e10	1	-1e10	1	-1E+10	1	-1E+10	1	-1E+10	1
4902624	21	C	01/17/2025	18:16	-125.902	47.135	0	1691.90	0	2.2723	0	34.5620	0	27.608	0	1671.062	0	208.2	4	63.2	4	-1E+10	1	0.0514	4	0.000284	0	-1E+10	1	-1E+10	1	-1E+10	1
4902624	21	C	01/17/2025	18:16	-125.902	47.135	0	1714.90	0	2.2673	0	34.5620	0	27.609	0	1693.687	0	207.2	4	62.9	4	-1E+10	1	0.0656	4	0.000328	0	-1E+10	1	-1E+10	1	-1E+10	1
4902624	21	C	01/17/2025	18:16	-125.902	47.135	0	1725.60	0	2.2650	0	34.5620	0	27.609	0	1704.212	0	-1e10	1	-1e10	1	-1E+10	1	-1e10	1	-1e10	1	-1E+10	1	-1E+10	1	-1E+10	1
4902624	21	C	01/17/2025	18:16	-125.902	47.135	0	1734.60	0	2.2564	0	34.5629	0	27.610	0	1713.064	0	206.3	4	62.6	4	-1E+10	1	0.0582	4	0.000270	0	-1E+10	1	-1E+10	1	-1E+10	1
4902624	21	C	01/17/2025	18:16	-125.902	47.135	0	1752.60	0	2.2393	0	34.5648	0	27.613	0	1730.767	0	207.3	4	62.9	4	-1E+10	1	0.0515	4	0.000273	0	-1E+10	1	-1E+10	1	-1E+10	1
4902624	21	C	01/17/2025	18:16	-125.902	47.135	0	1755.00	0	2.2370	0	34.5650	0	27.614	0	1733.127	0	-1e10	1	-1e10	1	-1E+10	1	-1e10	1	-1e10	1	-1E+10	1	-1E+10	1	-1E+10	1
4902624	21	C	01/17/2025	18:16	-125.902	47.135	0	1759.70	0	-1e10	1	-1e10	1	-1e10	1	1737.749	0	213.5	4	-1e10	4	-1E+10	1	0.0584	4	0.000523	0	-1E+10	1	-1E+10	1	-1E+10	1
4902624	21	C	01/17/2025	18:16	-125.902	47.135	0																										
4902624	22	C	01/27/2025	12:20	-125.871	47.183	0	0.20	0	8.7950	8	32.6335	8	25.297	0	0.198	0	-1e10	1	-1e10	1	-1E+10	1	0.7592	4	0.000672	0	-1E+10	1	-1E+10	1	-1E+10	1
4902624	22	C	01/27/2025	12:20	-125.871	47.183	0	0.40	0	9.0483	8	32.4105	8	25.084	0	0.397	0	258.5	4	90.5	4	-1E+10	1	0.6424	4	0.000883	0	-1E+10	1	-1E+10	1	-1E+10	1
4902624	22	C	01/27/2025	12:20	-125.871	47.183	0	0.50	0	9.1750	8	32.2990	8	24.977	0	0.496	0	-1e10	1	-1e10	1	-1E+10	1	-1e10	1	-1e10	1	-1E+10	1	-1E+10	1	-1E+10	1
4902624	22	C	01/27/2025	12:20	-125.871	47.183	0	0.80	0	9.1738	8	32.3011	8	24.979	0	0.793	0	-1e10	1	-1e10	1	-1E+10	1	0.6132	4	0.000907	0	-1E+10	1	-1E+10	1	-1E+10	1
4902624	22	C	01/27/2025	12:20	-125.871	47.183	0	0.90	0	9.1734	8	32.3018	8	24.979	0	0.893	0	-1e10	1	-1e10	1	-1E+10	1	0.6497	4	0.000731	0	-1E+10	1	-1E+10	1	-1E+10	1
4902624	22	C	01/27/2025	12:20	-125.871	47.183	0	1.10	0	9.1726	8	32.3032	8	24.980	0	1.091	0	-1e10	1	-1e10	1	-1E+10	1	0.6424	4	0.000684	0	-1E+10	1	-1E+10	1	-1E+10	1
4902624	22	C	01/27/2025	12:20	-125.871	47.183	0	1.50	0	9.1710	0	32.3060	0	24.983	0	1.488	0	-1e10	1	-1e10	1	-1E+10	1	0.6278	4	0.000675	0	-1E+10	1	-1E+10	1	-1E+10	1
4902624	22	C	01/27/2025	12:20	-125.871	47.183	0	1.70	0	9.1712	0	32.3060	0	24.983	0	1.686	0	257.3	4	90.3	4	-1E+10	1	0.6132	4	0.000660	0	-1E+10	1	-1E+10	1	-1E+10	1
4902624	22	C	01/27/2025	12:20	-125.871	47.183	0	1.90	0	9.1714	0	32.3060	0	24.983	0	1.884	0	-1e10	1	-1e10	1	-1E+10	1	0.6351	4	0.000660	0	-1E+10	1	-1E+10	1	-1E+10	1
4902624	22	C	01/27/2025	12:20	-125.871	47.183	0	2.00	0	9.1716	0	32.3060	0	24.983	0	1.983	0	-1e10	1	-1e10	1	-1E+10	1	0.6132	4	0.000649	0	-1E+10	1	-1E+10	1	-1E+10	1
4902624	22	C	01/27/2025	12:20	-125.871	47.183	0	2.20	0	9.1718	0	32.3060	0	24.983	0	2.182	0	-1e10	1	-1e10	1	-1E+10	1	0.6570	4	0.000672	0	-1E+10	1	-1E+10	1	-1E+10	1
4902624	22	C	01/27/2025	12:20	-125.871	47.183	0	2.40	0	9.1720	0	32.3060	0	24.983	0	2.380	0	258.9	4	90.8	4	-1E+10	1	0.6132	4	0.000675	0	-1E+10	1	-1E+10	1	-1E+10	1
4902624	22	C	01/27/2025	12:20	-125.871	47.183	0	2.60	0	9.1725	0	32.3058	0	24.983	0	2.578	0	-1e10	1	-1e10	1	-1E+10	1	0.5986	4	0.000696	0	-1E+10	1	-1E+10	1	-1E+10	1
4902624	22	C	01/27/2025	12:20	-125.871	47.183	0	2.80	0	9.1731	0	32.3056	0	24.982	0	2.777	0	-1e10	1	-1e10	1	-1E+10	1	0.6278	4	0.000660	0	-1E+10	1	-1E+10	1	-1E+10	1
4902624	22	C	01/27/2025	12:20	-125.871	47.183	0	3.20	0	9.1742	0	32.3053	0	24.982	0	3.173	0	-1e10	1	-1e10	1	-1E+10	1	0.6132	4	0.000684	0	-1E+10	1	-1E+10	1	-1E+10	1
4902624	22	C	01/27/2025	12:20	-125.871	47.183	0	3.40	0	9.1747	0	32.3051	0	24.982	0	3.372	0	257.1	4	90.2	4	-1E+10	1	0.6643	4	0.006280	0	-1E+10	1	-1E+10	1	-1E+10	1
4902624	22	C	01/27/2025	12:20	-125.871	47.183	0	3.50	0	9.1750	0	32.3050	0	24.982	0	3.471	0	-1e10	1	-1e10	1	-1E+10	1	-1e10	1	-1e10	1	-1E+10	1	-1E+10	1	-1E+10	1
4902624	22	C	01/27/2025	12:20	-125.871	47.183	0	3.60	0	9.1758	0	32.3049	0	24.981	0	3.570	0	-1e10	1	-1e10	1	-1E+10	1	0.6351	4	0.001728	0	-1E+10	1	-1E+10	1	-1E+10	1
4902624	22	C	01/27/2025	12:20	-125.871	47.183	0	3.80	0	9.1774	0	32.3047	0	24.981	0	3.768	0	-1e10	1	-1e10	1	-1E+10	1	0.7081	4	0.000813	0	-1E+10	1	-1E+10	1	-1E+10	1
4902624	22	C	01/27/2025	12:20	-125.871	47.183	0	4.00	0	9.1790	0	32.3045	0	24.981	0	3.967	0	-1e10	1	-1e10	1	-1E+10	1	0.6278	4	0.000707	0	-1E+10	1	-1E+10	1	-1E+10	1
4902624	22	C	01/27/2025	12:20	-125.871	47.183	0	4.10	0	9.1798	0	32.3044	0	24.980	0	4.066	0	-1e10	1	-1e10	1	-1E+10	1	0.6351	4	0.000672	0	-1E+10	1	-1E+10	1	-1E+10	1
4902624	22	C	01/27/2025	12:20	-125.871	47.183	0	4.40	0	9.1822	0	32.3041	0	24.980	0	4.363	0	256.9	4	90.1	4	-1E+10	1	0.6132	4	0.000719	0	-1E+10	1	-1E+10	1	-1E+10	1
4902624	22	C	01/27/2025	12:20	-125.871	47.183	0	4.50	0	9.1830	0	32.3040	0	24.980	0	4.463	0	-1e10	1	-1e10	1	-1E+10	1	-1e10	1	-1e10	1	-1E+10	1	-1E+10	1	-1E+10	1
4902624	22	C	01/27/2025	12:20	-125.871	47.183	0	4.80	0	9.1833	0	32.3040	0	24.979	0	4.760	0	-1e10	1	-1e10	1	-1E+10	1	0.6059	4	0.000649	0	-1E+10	1	-1E+10	1	-1E+10	1
4902624	22	C	01/27/2025	12:20	-125.871	47.183	0	5.00	0	9.1835	0	32.3040	0	24.979	0	4.958	0	-1e10	1	-1e10	1	-1E+10	1	0.6132	4	0.000649	0	-1E+10	1	-1E+10	1	-1E+10	1
4902624	22	C	01/27/2025	12:20	-125.871	47.183	0	5.20	0	9.1837	0	32.3040	0	24.979	0	5.157	0	-1e10	1	-1e10	1	-1E+10	1	0.6132	4	0.000637	0	-1E+10	1	-1E+10	1	-1E+10	1
4902624	22	C	01/27/2025	12:20	-125.871	47.183	0	5.40	0	9.1839	0	32.3040	0	24.979	0	5.355	0	256.8	4	90.1	4	-1E+10	1	0.6351	4	0.000731	0	-1E+10	1	-1E+10	1	-1E+10	1
4902624	22	C	01/27/2025	12:20	-125.871	47.183	0	5.50	0	9.1840	0	32.3040	0	24.979	0	5.454	0	-1e10	1	-1e10	1	-1E+10	1	-1e10	1	-1e10	1	-1E+10	1	-1E+10	1	-1E+10	1
4902624	22	C	01/27/2025	12:20	-125.871	47.183	0	5.60	0	9.1845	0	32.3040	0	24.979	0	5.553	0	-1e10	1	-1e10	1	-1E+10	1	0.6205	4	0.000695	0	-1E+10	1	-1E+10	1	-1E+10	1
4902624	22	C	01/27/2025	12:20	-125.871	47.183	0	5.80	0	9.1855	0	32.3040	0	24.979	0	5.752	0	-1e10	1	-1e10	1	-1E+10	1	0.6278	4	0.000707	0	-1E+10	1	-1E+10	1	-1E+10	1
4902624	22	C	01/27/2025	12:20	-125.871	47.183	0	6.00	0	9.1865	0	32.3040	0	24.979	0	5.950	0	-1e10	1	-1e10	1	-1E+10	1	0.6351	4	0.000684	0	-1E+10	1	-1E+10	1	-1E+10	1
4902624	22	C	01/27/2025	12:20	-125.871	47.183	0	6.50	0	9.1890	0	32.3040	0	24.979	0	6.446	0	258.2	4	90.6	4	-1E+10	1	0.6249	4	0.000651	0	-1E+10	1	-1E+10	1	-1E+10	1
4902624	22	C	01/27/2025	12:20	-125.871	47.183	0	6.70	0	9.1904	0	32.3038	0	24.978	0	6.644	0	-1e10	1	-1e10	1	-1E+10	1	0.6132	4	0.000660	0	-1E+10	1	-1E+10	1	-1E+10	1
4902624	22	C	01/27/2025	12:20	-125.871	47.183	0	6.90	0	9.1918	0	32.3036	0	24.978	0	6.842	0	-1e10	1	-1e10	1	-1E+10	1	0.6278	4	0.000672	0	-1E+10	1	-1E+10	1	-1E+10	1
4902624	22	C	01/27/2025	12:20	-125.871	47.183	0	7.10	0	9.1932	0	32.3034	0	24.977	0	7.041	0	-1e10	1	-1e10	1	-1E+10	1	0.6497	4	0.000672	0	-1E+10	1	-1E+10	1	-1E+10	1
4902624	22	C	01/27/2025	12:20	-125.871	47.183	0	7.30	0	9.1946	0	32.3032	0	24.977	0	7.239	0	-1e10	1	-1e10	1	-1E+10	1	0.6351	4	0.000836	0	-1E+10	1	-1E+10	1	-1E+10	1
4902624	22	C	01/27/2025	12:20	-125.871	47.183	0	7.50	0	9.1960	0	32.3030	0	24.977	0	7.437	0	-1e10	1	-1e10	1	-1E+10	1	-1e10	1	-1e10	1	-1E+10	1	-1E+10	1	-1E+10	1
4902624	22	C	01/27/2025	12:20	-125.871	47.183	0	7.60	0	9.1958	0	32.3031	0	24.977	0	7.537	0	256.5	4	90.0	4	-1E+10	1	0.6205	4	0.000684	0	-1E+10	1	-1E+10	1	-1E+10	1
4902624	22	C	01/27/2025	12:20	-125.871	47.183	0	7.80	0	9.1954	0	32.3033	0	24.977	0	7.735	0	-1e10	1	-1e10	1	-1E+10	1	0.6132	4	0.000695	0	-1E+10	1	-1E+10	1	-1E+10	1
4902624	22	C	01/27/2025	12:20	-125.871	47.183	0	8.00	0	9.1950	0	32.3035	0	24.977	0	7.933	0	-1e10	1	-1e10	1	-1E+10	1	0.6497	4	0.000660	0	-1E+10	1	-1E+10	1	-1E+10	1
4902624	22	C	01/27/2025	12:20	-125.871	47.183	0	8.40	0	9.1942	0	32.3039	0	24.978	0	8.330	0	-1e10	1	-1e10	1	-1E+10	1	0.6278	4	0.000719	0	-1E+10	1	-1E+10	1	-1E+10	1
4902624	22	C	01/27/2025	12:20	-125.871	47.183	0	8.50	0	9.1940	0	32.3040	0	24.978	0	8.429	0	-1e10	1	-1e10	1	-1E+10	1	-1e10	1	-1e10	1	-1E+10	1	-1E+10	1	-1E+10	1
4902624	22	C	01/27/2025	12:20	-125.871	47.183	0	8.60	0	9.1938	0	32.3040	0	24.978	0	8.528	0	256.3	4	89.9	4	-1E+10	1	0.6351	4	0.000742	0	-1E+10	1	-1E+10	1	-1E+10	1
4902624	22	C	01/27/2025	12:20	-125.871	47.183	0	8.80	0	9.1934	0	32.3040	0	24.978	0	8.727	0	-1e10	1	-1e10	1	-1E+10	1	0.6205	4	0.000684	0	-1E+10	1	-1E+10	1	-1E+10	1
4902624	22	C	01/27/2025	12:20	-125.871	47.183	0	9.10	0	9.1928	0	32.3040	0	24.978	0	9.024	0	-1e10	1	-1e10	1	-1E+10	1	0.6497	4	0.000813	0	-1E+10	1	-1E+10	1	-1E+10	1
4902624	22	C	01/27/2025	12:20	-125.871	47.183	0	9.30	0	9.1924	0	32.3040	0	24.978	0	9.222	0	-1e10	1	-1e10	1	-1E+10	1	0.6059	4	0.000684	0	-1E+10	1	-1E+10	1	-1E+10	1
4902624	22	C	01/27/2025	12:20	-125.871	47.183	0	9.50	0	9.1920	0	32.3040	0	24.978	0	9.421	0	-1e10	1	-1e10	1	-1E+10	1	0.6570	4	0.000675	0	-1E+10	1	-1E+10	1	-1E+10	1
4902624	22	C	01/27/2025	12:20	-125.871	47.183	0	9.70	0	9.1918	0	32.3041	0	24.978	0	9.619	0	256.2	4	89.9	4	-1E+10	1	0.6497	4	0.000684	0	-1E+10	1	-1E+10	1	-1E+10	1
4902624	22	C	01/27/2025	12:20	-125.871	47.183	0	10.80	0	9.1904	0	32.3048	0	24.979	0	10.710	0	256.1	4	89.9	4	-1E+10	1	0.6796	4	0.000708	0	-1E+10	1	-1E+10	1	-1E+10	1
4902624	22	C	01/27/2025	12:20	-125.871	47.183	0	11.10	0	9.1900	0	32.3050	0	24.979	0	11.007	0	-1e10	1	-1e10	1	-1E+10	1	-1e10	1	-1e10	1	-1E+10	1	-1E+10	1	-1E+10	1
4902624	22	C	01/27/2025	12:20	-125.871	47.183	0	12.00	0	9.1909	0	32.3055	0	24.980	0	11.900	0	255.9	4	89.8	4	-1E+10	1	0.7221	4	0.000649	0	-1E+10	1	-1E+10	1	-1E+10	1
4902624	22	C	01/27/2025	12:20	-125.871	47.183	0	13.00	0	9.1919	0	32.3060	0	24.980	0	12.891	0	255.8	4	89.8	4	-1E+10	1	0.6779	4	0.000645	0	-1E+10	1	-1E+10	1	-1E+10	1
4902624	22	C	01/27/2025	12:20	-125.871	47.183	0	13.10	0	9.1920	0	32.3060	0	24.980	0	12.991	0	-1e10	1	-1e10	1	-1E+10	1	-1e10	1	-1e10	1	-1E+10	1	-1E+10	1	-1E+10	1
4902624	22	C	01/27/2025	12:20	-125.871	47.183	0	14.20	0	9.1925	0	32.3071	0	24.981	0	14.081	0	255.6	4	89.7	4	-1E+10	1	0.6278	4	0.000625	0	-1E+10	1	-1E+10	1	-1E+10	1
4902624	22	C	01/27/2025	12:20	-125.871	47.183	0	15.10	0	9.1930	0	32.3080	0	24.981	0	14.974	0	-1e10	1	-1e10	1	-1E+10	1	-1e10	1	-1e10	1	-1E+10	1	-1E+10	1	-1E+10	1
4902624	22	C	01/27/2025	12:20	-125.871	47.183	0	15.30	0	9.1921	0	32.3082	0	24.982	0	15.172	0	255.6	4	89.7	4	-1E+10	1	0.6716	4	0.000672	0	-1E+10	1	-1E+10	1	-1E+10	1
4902624	22	C	01/27/2025	12:20	-125.871	47.183	0	16.40	0	9.1868	0	32.3094	0	24.983	0	16.263	0	255.5	4	89.7	4	-1E+10	1	0.6531	4	0.000692	0	-1E+10	1	-1E+10	1	-1E+10	1
4902624	22	C	01/27/2025	12:20	-125.871	47.183	0	17.00	0	9.1840	0	32.3100	0	24.984	0	16.858	0	-1e10	1	-1e10	1	-1E+10	1	-1e10	1	-1e10	1	-1E+10	1	-1E+10	1	-1E+10	1
4902624	22	C	01/27/2025	12:20	-125.871	47.183	0	17.60	0	9.1808	0	32.3097	0	24.985	0	17.453	0	255.6	4	89.7	4	-1E+10	1	0.6497	4	0.000662	0	-1E+10	1	-1E+10	1	-1E+10	1
4902624	22	C	01/27/2025	12:20	-125.871	47.183	0	18.70	0	9.1751	0	32.3091	0	24.985	0	18.544	0	255.5	4	89.6	4	-1E+10	1	0.7054	4	0.000663	0	-1E+10	1	-1E+10	1	-1E+10	1
4902624	22	C	01/27/2025	12:20	-125.871	47.183	0	18.90	0	9.1740	0	32.3090	0	24.985	0	18.742	0	-1e10	1	-1e10	1	-1E+10	1	-1e10	1	-1e10	1	-1E+10	1	-1E+10	1	-1E+10	1
4902624	22	C	01/27/2025	12:20	-125.871	47.183	0	19.80	0	9.1708	0	32.3099	0	24.986	0	19.634	0	255.4	4	89.6	4	-1E+10	1	0.7154	4	0.000754	0	-1E+10	1	-1E+10	1	-1E+10	1
4902624	22	C	01/27/2025	12:20	-125.871	47.183	0	20.90	0	9.1670	0	32.3110	0	24.988	0	20.725	0	256.9	4	90.1	4	-1E+10	1	0.6998	4	0.000789	0	-1E+10	1	-1E+10	1	-1E+10	1
4902624	22	C	01/27/2025	12:20	-125.871	47.183	0	22.10	0	9.1659	0	32.3116	0	24.988	0	21.915	0	255.2	4	89.5	4	-1E+10	1	0.7061	4	0.000666	0	-1E+10	1	-1E+10	1	-1E+10	1
4902624	22	C	01/27/2025	12:20	-125.871	47.183	0	23.00	0	9.1650	0	32.3120	0	24.989	0	22.807	0	-1e10	1	-1e10	1	-1E+10	1	-1e10	1	-1e10	1	-1E+10	1	-1E+10	1	-1E+10	1
4902624	22	C	01/27/2025	12:20	-125.871	47.183	0	23.30	0	9.1647	0	32.3120	0	24.989	0	23.105	0	254.8	4	89.4	4	-1E+10	1	0.6674	4	0.000687	0	-1E+10	1	-1E+10	1	-1E+10	1
4902624	22	C	01/27/2025	12:20	-125.871	47.183	0	24.40	0	9.1636	0	32.3120	0	24.989	0	24.196	0	254.7	4	89.3	4	-1E+10	1	0.6789	4	0.000860	0	-1E+10	1	-1E+10	1	-1E+10	1
4902624	22	C	01/27/2025	12:20	-125.871	47.183	0	25.00	0	9.1630	0	32.3120	0	24.989	0	24.791	0	-1e10	1	-1e10	1	-1E+10	1	-1e10	1	-1e10	1	-1E+10	1	-1E+10	1	-1E+10	1
4902624	22	C	01/27/2025	12:20	-125.871	47.183	0	25.50	0	9.1625	0	32.3122	0	24.990	0	25.286	0	254.5	4	89.2	4	-1E+10	1	0.6862	4	0.000625	0	-1E+10	1	-1E+10	1	-1E+10	1
4902624	22	C	01/27/2025	12:20	-125.871	47.183	0	26.70	0	9.1613	0	32.3129	0	24.990	0	26.476	0	254.4	4	89.2	4	-1E+10	1	0.7300	4	0.000648	0	-1E+10	1	-1E+10	1	-1E+10	1
4902624	22	C	01/27/2025	12:20	-125.871	47.183	0	27.00	0	9.1610	0	32.3130	0	24.990	0	26.774	0	-1e10	1	-1e10	1	-1E+10	1	-1e10	1	-1e10	1	-1E+10	1	-1E+10	1	-1E+10	1
4902624	22	C	01/27/2025	12:20	-125.871	47.183	0	27.90	0	9.1601	0	32.3130	0	24.991	0	27.666	0	254.1	4	89.1	4	-1E+10	1	0.7050	4	0.000679	0	-1E+10	1	-1E+10	1	-1E+10	1
4902624	22	C	01/27/2025	12:20	-125.871	47.183	0	29.10	0	9.1590	0	32.3130	0	24.991	0	28.856	0	255.6	4	89.7	4	-1E+10	1	0.7164	4	0.000709	0	-1E+10	1	-1E+10	1	-1E+10	1
4902624	22	C	01/27/2025	12:20	-125.871	47.183	0	30.30	0	9.1584	0	32.3136	0	24.991	0	30.046	0	253.8	4	89.0	4	-1E+10	1	0.7324	4	0.000664	0	-1E+10	1	-1E+10	1	-1E+10	1
4902624	22	C	01/27/2025	12:20	-125.871	47.183	0	31.10	0	9.1580	0	32.3140	0	24.992	0	30.839	0	-1e10	1	-1e10	1	-1E+10	1	-1e10	1	-1e10	1	-1E+10	1	-1E+10	1	-1E+10	1
4902624	22	C	01/27/2025	12:20	-125.871	47.183	0	31.50	0	9.1582	0	32.3140	0	24.992	0	31.236	0	253.6	4	88.9	4	-1E+10	1	0.7023	4	0.000643	0	-1E+10	1	-1E+10	1	-1E+10	1
4902624	22	C	01/27/2025	12:20	-125.871	47.183	0	32.70	0	9.1588	0	32.3140	0	24.992	0	32.425	0	253.3	4	88.8	4	-1E+10	1	0.6794	4	0.000673	0	-1E+10	1	-1E+10	1	-1E+10	1
4902624	22	C	01/27/2025	12:20	-125.871	47.183	0	33.00	0	9.1590	0	32.3140	0	24.992	0	32.723	0	-1e10	1	-1e10	1	-1E+10	1	-1e10	1	-1e10	1	-1E+10	1	-1E+10	1	-1E+10	1
4902624	22	C	01/27/2025	12:20	-125.871	47.183	0	33.80	0	9.1586	0	32.3140	0	24.992	0	33.516	0	253.0	4	88.7	4	-1E+10	1	0.6984	4	0.000732	0	-1E+10	1	-1E+10	1	-1E+10	1
4902624	22	C	01/27/2025	12:20	-125.871	47.183	0	35.00	0	9.1580	0	32.3140	0	24.992	0	34.706	0	254.3	4	89.2	4	-1E+10	1	0.7217	4	0.000781	0	-1E+10	1	-1E+10	1	-1E+10	1
4902624	22	C	01/27/2025	12:20	-125.871	47.183	0	36.20	0	9.1574	0	32.3140	0	24.992	0	35.896	0	252.3	4	88.5	4	-1E+10	1	0.7154	4	0.000660	0	-1E+10	1	-1E+10	1	-1E+10	1
4902624	22	C	01/27/2025	12:20	-125.871	47.183	0	37.00	0	9.1570	0	32.3140	0	24.992	0	36.689	0	-1e10	1	-1e10	1	-1E+10	1	-1e10	1	-1e10	1	-1E+10	1	-1E+10	1	-1E+10	1
4902624	22	C	01/27/2025	12:20	-125.871	47.183	0	37.30	0	9.1567	0	32.3140	0	24.992	0	36.986	0	252.0	4	88.4	4	-1E+10	1	0.7097	4	0.000669	0	-1E+10	1	-1E+10	1	-1E+10	1
4902624	22	C	01/27/2025	12:20	-125.871	47.183	0	38.50	0	9.1555	0	32.3140	0	24.992	0	38.176	0	251.6	4	88.2	4	-1E+10	1	0.7026	4	0.000645	0	-1E+10	1	-1E+10	1	-1E+10	1
4902624	22	C	01/27/2025	12:20	-125.871	47.183	0	39.00	0	9.1550	0	32.3140	0	24.992	0	38.672	0	-1e10	1	-1e10	1	-1E+10	1	-1e10	1	-1e10	1	-1E+10	1	-1E+10	1	-1E+10	1
4902624	22	C	01/27/2025	12:20	-125.871	47.183	0	39.70	0	9.1543	0	32.3144	0	24.993	0	39.366	0	251.0	4	88.0	4	-1E+10	1	0.7055	4	0.000659	0	-1E+10	1	-1E+10	1	-1E+10	1
4902624	22	C	01/27/2025	12:20	-125.871	47.183	0	40.90	0	9.1531	0	32.3149	0	24.993	0	40.556	0	250.5	4	87.8	4	-1E+10	1	0.7008	4	0.000666	0	-1E+10	1	-1E+10	1	-1E+10	1
4902624	22	C	01/27/2025	12:20	-125.871	47.183	0	41.00	0	9.1530	0	32.3150	0	24.993	0	40.655	0	-1e10	1	-1e10	1	-1E+10	1	-1e10	1	-1e10	1	-1E+10	1	-1E+10	1	-1E+10	1
4902624	22	C	01/27/2025	12:20	-125.871	47.183	0	42.00	0	9.1525	0	32.3150	0	24.994	0	41.646	0	249.9	4	87.6	4	-1E+10	1	0.7041	4	0.000720	0	-1E+10	1	-1E+10	1	-1E+10	1
4902624	22	C	01/27/2025	12:20	-125.871	47.183	0	43.00	0	9.1520	0	32.3150	0	24.994	0	42.638	0	-1e10	1	-1e10	1	-1E+10	1	-1e10	1	-1e10	1	-1E+10	1	-1E+10	1	-1E+10	1
4902624	22	C	01/27/2025	12:20	-125.871	47.183	0	43.20	0	9.1520	0	32.3151	0	24.994	0	42.836	0	249.2	4	87.4	4	-1E+10	1	0.7071	4	0.000766	0	-1E+10	1	-1E+10	1	-1E+10	1
4902624	22	C	01/27/2025	12:20	-125.871	47.183	0	44.40	0	9.1520	0	32.3157	0	24.994	0	44.026	0	248.5	4	87.1	4	-1E+10	1	0.6818	4	0.000662	0	-1E+10	1	-1E+10	1	-1E+10	1
4902624	22	C	01/27/2025	12:20	-125.871	47.183	0	45.00	0	9.1520	0	32.3160	0	24.994	0	44.621	0	-1e10	1	-1e10	1	-1E+10	1	-1e10	1	-1e10	1	-1E+10	1	-1E+10	1	-1E+10	1
4902624	22	C	01/27/2025	12:20	-125.871	47.183	0	45.60	0	9.1517	0	32.3160	0	24.994	0	45.216	0	247.6	4	86.8	4	-1E+10	1	0.6935	4	0.000672	0	-1E+10	1	-1E+10	1	-1E+10	1
4902624	22	C	01/27/2025	12:20	-125.871	47.183	0	46.70	0	9.1511	0	32.3160	0	24.995	0	46.306	0	246.6	4	86.5	4	-1E+10	1	0.6716	4	0.000660	0	-1E+10	1	-1E+10	1	-1E+10	1
4902624	22	C	01/27/2025	12:20	-125.871	47.183	0	47.00	0	9.1510	0	32.3160	0	24.995	0	46.604	0	-1e10	1	-1e10	1	-1E+10	1	-1e10	1	-1e10	1	-1E+10	1	-1E+10	1	-1E+10	1
4902624	22	C	01/27/2025	12:20	-125.871	47.183	0	47.90	0	9.1510	0	32.3164	0	24.995	0	47.496	0	245.4	4	86.0	4	-1E+10	1	0.6716	4	0.000670	0	-1E+10	1	-1E+10	1	-1E+10	1
4902624	22	C	01/27/2025	12:20	-125.871	47.183	0	49.10	0	9.1510	0	32.3170	0	24.995	0	48.686	0	245.8	4	86.2	4	-1E+10	1	0.6872	4	0.000697	0	-1E+10	1	-1E+10	1	-1E+10	1
4902624	22	C	01/27/2025	12:20	-125.871	47.183	0	50.20	0	9.1504	0	32.3170	0	24.996	0	49.776	0	242.6	4	85.1	4	-1E+10	1	0.8596	4	0.000673	0	-1E+10	1	-1E+10	1	-1E+10	1
4902624	22	C	01/27/2025	12:20	-125.871	47.183	0	51.00	0	9.1500	0	32.3170	0	24.996	0	50.570	0	-1e10	1	-1e10	1	-1E+10	1	-1e10	1	-1e10	1	-1E+10	1	-1E+10	1	-1E+10	1
4902624	22	C	01/27/2025	12:20	-125.871	47.183	0	51.30	0	9.1497	0	32.3172	0	24.996	0	50.867	0	241.0	4	84.5	4	-1E+10	1	0.8535	4	0.000648	0	-1E+10	1	-1E+10	1	-1E+10	1
4902624	22	C	01/27/2025	12:20	-125.871	47.183	0	52.40	0	9.1486	0	32.3177	0	24.996	0	51.958	0	239.0	4	83.8	4	-1E+10	1	0.6946	4	0.000637	0	-1E+10	1	-1E+10	1	-1E+10	1
4902624	22	C	01/27/2025	12:20	-125.871	47.183	0	53.00	0	9.1480	0	32.3180	0	24.997	0	52.552	0	-1e10	1	-1e10	1	-1E+10	1	-1e10	1	-1e10	1	-1E+10	1	-1E+10	1	-1E+10	1
4902624	22	C	01/27/2025	12:20	-125.871	47.183	0	53.50	0	9.1499	0	32.3190	0	24.997	0	53.048	0	236.7	4	83.0	4	-1E+10	1	0.6546	4	0.000621	0	-1E+10	1	-1E+10	1	-1E+10	1
4902624	22	C	01/27/2025	12:20	-125.871	47.183	0	54.40	0	9.1533	0	32.3207	0	24.998	0	53.940	0	234.2	4	82.1	4	-1E+10	1	0.6205	4	0.000641	0	-1E+10	1	-1E+10	1	-1E+10	1
4902624	22	C	01/27/2025	12:20	-125.871	47.183	0	55.10	0	9.1560	0	32.3220	0	24.999	0	54.634	0	233.5	4	81.9	4	-1E+10	1	0.6205	4	0.000616	0	-1E+10	1	-1E+10	1	-1E+10	1
4902624	22	C	01/27/2025	12:20	-125.871	47.183	0	55.70	0	9.1582	0	32.3236	0	25.000	0	55.229	0	229.7	4	80.6	4	-1E+10	1	0.6205	4	0.000623	0	-1E+10	1	-1E+10	1	-1E+10	1
4902624	22	C	01/27/2025	12:20	-125.871	47.183	0	56.30	0	9.1604	0	32.3252	0	25.000	0	55.824	0	227.1	4	79.7	4	-1E+10	1	0.5840	4	0.000608	0	-1E+10	1	-1E+10	1	-1E+10	1
4902624	22	C	01/27/2025	12:20	-125.871	47.183	0	57.00	0	9.1630	0	32.3270	0	25.002	0	56.518	0	225.9	4	79.2	4	-1E+10	1	0.5485	4	0.000928	0	-1E+10	1	-1E+10	1	-1E+10	1
4902624	22	C	01/27/2025	12:20	-125.871	47.183	0	57.60	0	9.1676	0	32.3290	0	25.002	0	57.113	0	221.0	4	77.5	4	-1E+10	1	0.5329	4	0.000795	0	-1E+10	1	-1E+10	1	-1E+10	1
4902624	22	C	01/27/2025	12:20	-125.871	47.183	0	58.20	0	9.1721	0	32.3310	0	25.003	0	57.708	0	217.4	4	76.3	4	-1E+10	1	0.5110	4	0.000550	0	-1E+10	1	-1E+10	1	-1E+10	1
4902624	22	C	01/27/2025	12:20	-125.871	47.183	0	58.80	0	9.1767	0	32.3330	0	25.004	0	58.303	0	213.3	4	74.8	4	-1E+10	1	0.4581	4	0.000557	0	-1E+10	1	-1E+10	1	-1E+10	1
4902624	22	C	01/27/2025	12:20	-125.871	47.183	0	59.10	0	9.1790	0	32.3340	0	25.005	0	58.600	0	-1e10	1	-1e10	1	-1E+10	1	-1e10	1	-1e10	1	-1E+10	1	-1E+10	1	-1E+10	1
4902624	22	C	01/27/2025	12:20	-125.871	47.183	0	59.50	0	9.1881	0	32.3478	0	25.014	0	58.997	0	208.7	4	73.3	4	-1E+10	1	0.3754	4	0.000455	0	-1E+10	1	-1E+10	1	-1E+10	1
4902624	22	C	01/27/2025	12:20	-125.871	47.183	0	60.20	0	9.2041	0	32.3719	0	25.030	0	59.691	0	204.3	4	71.8	4	-1E+10	1	0.2993	4	0.000425	0	-1E+10	1	-1E+10	1	-1E+10	1
4902624	22	C	01/27/2025	12:20	-125.871	47.183	0	60.90	0	9.2200	0	32.3960	0	25.047	0	60.385	0	201.3	4	70.7	4	-1E+10	1	0.2612	4	0.000412	0	-1E+10	1	-1E+10	1	-1E+10	1
4902624	22	C	01/27/2025	12:20	-125.871	47.183	0	61.60	0	9.2022	0	32.4303	0	25.076	0	61.079	0	195.8	4	68.8	4	-1E+10	1	0.2555	4	0.000367	0	-1E+10	1	-1E+10	1	-1E+10	1
4902624	22	C	01/27/2025	12:20	-125.871	47.183	0	62.40	0	9.1817	0	32.4695	0	25.110	0	61.872	0	191.4	4	67.2	4	-1E+10	1	0.2295	4	0.000377	0	-1E+10	1	-1E+10	1	-1E+10	1
4902624	22	C	01/27/2025	12:20	-125.871	47.183	0	62.90	0	9.1690	0	32.4940	0	25.131	0	62.367	0	-1e10	1	-1e10	1	-1E+10	1	-1e10	1	-1e10	1	-1E+10	1	-1E+10	1	-1E+10	1
4902624	22	C	01/27/2025	12:20	-125.871	47.183	0	63.20	0	9.1346	0	32.5192	0	25.156	0	62.665	0	187.6	4	65.8	4	-1E+10	1	0.1979	4	0.000369	0	-1E+10	1	-1E+10	1	-1E+10	1
4902624	22	C	01/27/2025	12:20	-125.871	47.183	0	64.10	0	9.0316	0	32.5948	0	25.232	0	63.557	0	184.8	4	64.8	4	-1E+10	1	0.1745	4	0.000367	0	-1E+10	1	-1E+10	1	-1E+10	1
4902624	22	C	01/27/2025	12:20	-125.871	47.183	0	64.90	0	8.9400	0	32.6620	0	25.298	0	64.350	0	182.7	4	63.9	4	-1E+10	1	0.1745	4	0.000372	0	-1E+10	1	-1E+10	1	-1E+10	1
4902624	22	C	01/27/2025	12:20	-125.871	47.183	0	65.80	0	8.8877	0	32.6929	0	25.331	0	65.242	0	179.4	4	62.7	4	-1E+10	1	0.1752	4	0.000363	0	-1E+10	1	-1E+10	1	-1E+10	1
4902624	22	C	01/27/2025	12:20	-125.871	47.183	0	66.70	0	8.8354	0	32.7237	0	25.363	0	66.135	0	176.8	4	61.7	4	-1E+10	1	0.1566	4	0.000325	0	-1E+10	1	-1E+10	1	-1E+10	1
4902624	22	C	01/27/2025	12:20	-125.871	47.183	0	67.00	0	8.8180	0	32.7340	0	25.374	0	66.432	0	-1e10	1	-1e10	1	-1E+10	1	-1e10	1	-1e10	1	-1E+10	1	-1E+10	1	-1E+10	1
4902624	22	C	01/27/2025	12:20	-125.871	47.183	0	67.70	0	8.7747	0	32.7583	0	25.399	0	67.126	0	174.3	4	60.8	4	-1E+10	1	0.1420	4	0.000308	0	-1E+10	1	-1E+10	1	-1E+10	1
4902624	22	C	01/27/2025	12:20	-125.871	47.183	0	68.60	0	8.7190	0	32.7896	0	25.432	0	68.018	0	171.5	4	59.8	4	-1E+10	1	0.1241	4	0.000308	0	-1E+10	1	-1E+10	1	-1E+10	1
4902624	22	C	01/27/2025	12:20	-125.871	47.183	0	69.10	0	8.6880	0	32.8070	0	25.451	0	68.514	0	-1e10	1	-1e10	1	-1E+10	1	-1e10	1	-1e10	1	-1E+10	1	-1E+10	1	-1E+10	1
4902624	22	C	01/27/2025	12:20	-125.871	47.183	0	69.50	0	8.6573	0	32.8221	0	25.467	0	68.910	0	168.4	4	58.6	4	-1E+10	1	0.1387	4	0.000308	0	-1E+10	1	-1E+10	1	-1E+10	1
4902624	22	C	01/27/2025	12:20	-125.871	47.183	0	70.50	0	8.5807	0	32.8599	0	25.509	0	69.902	0	166.0	4	57.7	4	-1E+10	1	0.1144	4	0.000298	0	-1E+10	1	-1E+10	1	-1E+10	1
4902624	22	C	01/27/2025	12:20	-125.871	47.183	0	70.90	0	8.5500	0	32.8750	0	25.525	0	70.298	0	-1e10	1	-1e10	1	-1E+10	1	-1e10	1	-1e10	1	-1E+10	1	-1E+10	1	-1E+10	1
4902624	22	C	01/27/2025	12:20	-125.871	47.183	0	71.50	0	8.4942	0	32.9059	0	25.558	0	70.893	0	163.4	4	56.7	4	-1E+10	1	0.1095	4	0.000296	0	-1E+10	1	-1E+10	1	-1E+10	1
4902624	22	C	01/27/2025	12:20	-125.871	47.183	0	72.40	0	8.4105	0	32.9523	0	25.607	0	71.785	0	161.0	4	55.8	4	-1E+10	1	0.1095	4	0.000309	0	-1E+10	1	-1E+10	1	-1E+10	1
4902624	22	C	01/27/2025	12:20	-125.871	47.183	0	72.90	0	8.3640	0	32.9780	0	25.634	0	72.281	0	-1e10	1	-1e10	1	-1E+10	1	-1e10	1	-1e10	1	-1E+10	1	-1E+10	1	-1E+10	1
4902624	22	C	01/27/2025	12:20	-125.871	47.183	0	73.30	0	8.3173	0	33.0042	0	25.661	0	72.677	0	160.0	4	55.3	4	-1E+10	1	0.1014	4	0.000280	0	-1E+10	1	-1E+10	1	-1E+10	1
4902624	22	C	01/27/2025	12:20	-125.871	47.183	0	73.90	0	8.2472	0	33.0435	0	25.702	0	73.272	0	159.0	4	54.9	4	-1E+10	1	0.0970	4	0.000263	0	-1E+10	1	-1E+10	1	-1E+10	1
4902624	22	C	01/27/2025	12:20	-125.871	47.183	0	74.60	0	8.1654	0	33.0893	0	25.751	0	73.966	0	158.2	4	54.6	4	-1E+10	1	0.1001	4	0.000299	0	-1E+10	1	-1E+10	1	-1E+10	1
4902624	22	C	01/27/2025	12:20	-125.871	47.183	0	75.10	0	8.1070	0	33.1220	0	25.785	0	74.462	0	-1e10	1	-1e10	1	-1E+10	1	-1e10	1	-1e10	1	-1E+10	1	-1E+10	1	-1E+10	1
4902624	22	C	01/27/2025	12:20	-125.871	47.183	0	75.20	0	8.1016	0	33.1248	0	25.788	0	74.561	0	157.5	4	54.3	4	-1E+10	1	0.0949	4	0.000308	0	-1E+10	1	-1E+10	1	-1E+10	1
4902624	22	C	01/27/2025	12:20	-125.871	47.183	0	75.90	0	8.0634	0	33.1447	0	25.809	0	75.255	0	156.9	4	54.0	4	-1E+10	1	0.0949	4	0.000308	0	-1E+10	1	-1E+10	1	-1E+10	1
4902624	22	C	01/27/2025	12:20	-125.871	47.183	0	76.70	0	8.0199	0	33.1673	0	25.833	0	76.048	0	156.1	4	53.7	4	-1E+10	1	0.0949	4	0.000296	0	-1E+10	1	-1E+10	1	-1E+10	1
4902624	22	C	01/27/2025	12:20	-125.871	47.183	0	76.90	0	8.0090	0	33.1730	0	25.839	0	76.246	0	-1e10	1	-1e10	1	-1E+10	1	-1e10	1	-1e10	1	-1E+10	1	-1E+10	1	-1E+10	1
4902624	22	C	01/27/2025	12:20	-125.871	47.183	0	77.30	0	7.9915	0	33.1841	0	25.850	0	76.643	0	155.6	4	53.5	4	-1E+10	1	0.0824	4	0.000306	0	-1E+10	1	-1E+10	1	-1E+10	1
4902624	22	C	01/27/2025	12:20	-125.871	47.183	0	77.90	0	7.9654	0	33.2007	0	25.867	0	77.238	0	155.1	4	53.3	4	-1E+10	1	0.0849	4	0.000352	0	-1E+10	1	-1E+10	1	-1E+10	1
4902624	22	C	01/27/2025	12:20	-125.871	47.183	0	78.70	0	7.9305	0	33.2229	0	25.890	0	78.031	0	154.5	4	53.1	4	-1E+10	1	0.0803	4	0.000343	0	-1E+10	1	-1E+10	1	-1E+10	1
4902624	22	C	01/27/2025	12:20	-125.871	47.183	0	79.10	0	7.9130	0	33.2340	0	25.901	0	78.427	0	-1e10	1	-1e10	1	-1E+10	1	-1e10	1	-1e10	1	-1E+10	1	-1E+10	1	-1E+10	1
4902624	22	C	01/27/2025	12:20	-125.871	47.183	0	79.50	0	7.8930	0	33.2471	0	25.914	0	78.824	0	153.7	4	52.8	4	-1E+10	1	0.0703	4	0.000308	0	-1E+10	1	-1E+10	1	-1E+10	1
4902624	22	C	01/27/2025	12:20	-125.871	47.183	0	80.40	0	7.8480	0	33.2767	0	25.944	0	79.716	0	153.5	4	52.7	4	-1E+10	1	0.0774	4	0.000308	0	-1E+10	1	-1E+10	1	-1E+10	1
4902624	22	C	01/27/2025	12:20	-125.871	47.183	0	81.20	0	7.8080	0	33.3030	0	25.971	0	80.509	0	153.2	4	52.5	4	-1E+10	1	0.0936	4	0.000314	0	-1E+10	1	-1E+10	1	-1E+10	1
4902624	22	C	01/27/2025	12:20	-125.871	47.183	0	82.10	0	7.7644	0	33.3229	0	25.992	0	81.401	0	153.6	4	52.6	4	-1E+10	1	0.0876	4	0.000343	0	-1E+10	1	-1E+10	1	-1E+10	1
4902624	22	C	01/27/2025	12:20	-125.871	47.183	0	83.00	0	7.7208	0	33.3428	0	26.014	0	82.293	0	153.4	4	52.5	4	-1E+10	1	0.0657	4	0.000308	0	-1E+10	1	-1E+10	1	-1E+10	1
4902624	22	C	01/27/2025	12:20	-125.871	47.183	0	83.10	0	7.7160	0	33.3450	0	26.017	0	82.392	0	-1e10	1	-1e10	1	-1E+10	1	-1e10	1	-1e10	1	-1E+10	1	-1E+10	1	-1E+10	1
4902624	22	C	01/27/2025	12:20	-125.871	47.183	0	83.90	0	7.6815	0	33.3589	0	26.033	0	83.185	0	153.2	4	52.4	4	-1E+10	1	0.0712	4	0.000334	0	-1E+10	1	-1E+10	1	-1E+10	1
4902624	22	C	01/27/2025	12:20	-125.871	47.183	0	84.90	0	7.6383	0	33.3763	0	26.052	0	84.177	0	152.9	4	52.2	4	-1E+10	1	0.0730	4	0.000327	0	-1E+10	1	-1E+10	1	-1E+10	1
4902624	22	C	01/27/2025	12:20	-125.871	47.183	0	85.00	0	7.6340	0	33.3780	0	26.054	0	84.276	0	-1e10	1	-1e10	1	-1E+10	1	-1e10	1	-1e10	1	-1E+10	1	-1E+10	1	-1E+10	1
4902624	22	C	01/27/2025	12:20	-125.871	47.183	0	85.80	0	7.6159	0	33.3860	0	26.063	0	85.069	0	152.4	4	52.0	4	-1E+10	1	0.0599	4	0.000312	0	-1E+10	1	-1E+10	1	-1E+10	1
4902624	22	C	01/27/2025	12:20	-125.871	47.183	0	86.80	0	7.5933	0	33.3960	0	26.074	0	86.060	0	152.0	4	51.9	4	-1E+10	1	0.0591	4	0.000321	0	-1E+10	1	-1E+10	1	-1E+10	1
4902624	22	C	01/27/2025	12:20	-125.871	47.183	0	86.90	0	7.5910	0	33.3970	0	26.075	0	86.159	0	-1e10	1	-1e10	1	-1E+10	1	-1e10	1	-1e10	1	-1E+10	1	-1E+10	1	-1E+10	1
4902624	22	C	01/27/2025	12:20	-125.871	47.183	0	87.70	0	7.5734	0	33.4038	0	26.083	0	86.952	0	151.5	4	51.7	4	-1E+10	1	0.0633	4	0.000327	0	-1E+10	1	-1E+10	1	-1E+10	1
4902624	22	C	01/27/2025	12:20	-125.871	47.183	0	88.60	0	7.5536	0	33.4114	0	26.092	0	87.844	0	150.7	4	51.4	4	-1E+10	1	0.0576	4	0.000331	0	-1E+10	1	-1E+10	1	-1E+10	1
4902624	22	C	01/27/2025	12:20	-125.871	47.183	0	88.90	0	7.5470	0	33.4140	0	26.095	0	88.142	0	-1e10	1	-1e10	1	-1E+10	1	-1e10	1	-1e10	1	-1E+10	1	-1E+10	1	-1E+10	1
4902624	22	C	01/27/2025	12:20	-125.871	47.183	0	89.60	0	7.5435	0	33.4179	0	26.099	0	88.836	0	149.8	4	51.1	4	-1E+10	1	0.0523	4	0.000409	0	-1E+10	1	-1E+10	1	-1E+10	1
4902624	22	C	01/27/2025	12:20	-125.871	47.183	0	90.60	0	7.5385	0	33.4234	0	26.104	0	89.827	0	148.9	4	50.8	4	-1E+10	1	0.0584	4	0.000331	0	-1E+10	1	-1E+10	1	-1E+10	1
4902624	22	C	01/27/2025	12:20	-125.871	47.183	0	90.90	0	7.5370	0	33.4250	0	26.105	0	90.124	0	-1e10	1	-1e10	1	-1E+10	1	-1e10	1	-1e10	1	-1E+10	1	-1E+10	1	-1E+10	1
4902624	22	C	01/27/2025	12:20	-125.871	47.183	0	91.60	0	7.5332	0	33.4285	0	26.108	0	90.818	0	147.8	4	50.4	4	-1E+10	1	0.0528	4	0.000295	0	-1E+10	1	-1E+10	1	-1E+10	1
4902624	22	C	01/27/2025	12:20	-125.871	47.183	0	92.60	0	7.5276	0	33.4335	0	26.113	0	91.809	0	146.6	4	50.0	4	-1E+10	1	0.0625	4	0.000293	0	-1E+10	1	-1E+10	1	-1E+10	1
4902624	22	C	01/27/2025	12:20	-125.871	47.183	0	92.90	0	7.5260	0	33.4350	0	26.115	0	92.107	0	-1e10	1	-1e10	1	-1E+10	1	-1e10	1	-1e10	1	-1E+10	1	-1E+10	1	-1E+10	1
4902624	22	C	01/27/2025	12:20	-125.871	47.183	0	93.70	0	7.5228	0	33.4442	0	26.122	0	92.900	0	145.2	4	49.5	4	-1E+10	1	0.0657	4	0.000296	0	-1E+10	1	-1E+10	1	-1E+10	1
4902624	22	C	01/27/2025	12:20	-125.871	47.183	0	94.70	0	7.5188	0	33.4557	0	26.132	0	93.891	0	143.6	4	49.0	4	-1E+10	1	0.0620	4	0.000278	0	-1E+10	1	-1E+10	1	-1E+10	1
4902624	22	C	01/27/2025	12:20	-125.871	47.183	0	94.90	0	7.5180	0	33.4580	0	26.134	0	94.089	0	-1e10	1	-1e10	1	-1E+10	1	-1e10	1	-1e10	1	-1E+10	1	-1E+10	1	-1E+10	1
4902624	22	C	01/27/2025	12:20	-125.871	47.183	0	95.70	0	7.5157	0	33.4694	0	26.143	0	94.882	0	142.1	4	48.5	4	-1E+10	1	0.0584	4	0.000265	0	-1E+10	1	-1E+10	1	-1E+10	1
4902624	22	C	01/27/2025	12:20	-125.871	47.183	0	96.70	0	7.5129	0	33.4837	0	26.155	0	95.873	0	140.9	4	48.0	4	-1E+10	1	0.0584	4	0.000288	0	-1E+10	1	-1E+10	1	-1E+10	1
4902624	22	C	01/27/2025	12:20	-125.871	47.183	0	97.00	0	7.5120	0	33.4880	0	26.158	0	96.171	0	-1e10	1	-1e10	1	-1E+10	1	-1e10	1	-1e10	1	-1E+10	1	-1E+10	1	-1E+10	1
4902624	22	C	01/27/2025	12:20	-125.871	47.183	0	97.80	0	7.5120	0	33.4964	0	26.165	0	96.964	0	139.5	4	47.6	4	-1E+10	1	0.0584	4	0.000314	0	-1E+10	1	-1E+10	1	-1E+10	1
4902624	22	C	01/27/2025	12:20	-125.871	47.183	0	98.80	0	7.5120	0	33.5069	0	26.173	0	97.955	0	137.9	4	47.0	4	-1E+10	1	0.0584	4	0.000296	0	-1E+10	1	-1E+10	1	-1E+10	1
4902624	22	C	01/27/2025	12:20	-125.871	47.183	0	99.00	0	7.5120	0	33.5090	0	26.175	0	98.153	0	-1e10	1	-1e10	1	-1E+10	1	-1e10	1	-1e10	1	-1E+10	1	-1E+10	1	-1E+10	1
4902624	22	C	01/27/2025	12:20	-125.871	47.183	0	99.90	0	7.5255	0	33.5328	0	26.192	0	99.045	0	136.4	4	46.5	4	-1E+10	1	0.0584	4	0.000319	0	-1E+10	1	-1E+10	1	-1E+10	1
4902624	22	C	01/27/2025	12:20	-125.871	47.183	0	101.00	0	7.5420	0	33.5620	0	26.212	0	100.135	0	134.8	4	46.0	4	-1E+10	1	0.0527	4	0.000301	0	-1E+10	1	-1E+10	1	-1E+10	1
4902624	22	C	01/27/2025	12:20	-125.871	47.183	0	102.20	0	7.5612	0	33.5812	0	26.225	0	101.325	0	135.0	4	46.1	4	-1E+10	1	0.0511	4	0.000296	0	-1E+10	1	-1E+10	1	-1E+10	1
4902624	22	C	01/27/2025	12:20	-125.871	47.183	0	103.00	0	7.5740	0	33.5940	0	26.233	0	102.118	0	-1e10	1	-1e10	1	-1E+10	1	-1e10	1	-1e10	1	-1E+10	1	-1E+10	1	-1E+10	1
4902624	22	C	01/27/2025	12:20	-125.871	47.183	0	103.30	0	7.5727	0	33.5957	0	26.235	0	102.415	0	134.6	4	46.0	4	-1E+10	1	0.0468	4	0.000282	0	-1E+10	1	-1E+10	1	-1E+10	1
4902624	22	C	01/27/2025	12:20	-125.871	47.183	0	104.50	0	7.5677	0	33.6027	0	26.241	0	103.605	0	134.1	4	45.8	4	-1E+10	1	0.0402	4	0.000290	0	-1E+10	1	-1E+10	1	-1E+10	1
4902624	22	C	01/27/2025	12:20	-125.871	47.183	0	104.90	0	7.5660	0	33.6050	0	26.243	0	104.001	0	-1e10	1	-1e10	1	-1E+10	1	-1e10	1	-1e10	1	-1E+10	1	-1E+10	1	-1E+10	1
4902624	22	C	01/27/2025	12:20	-125.871	47.183	0	105.60	0	7.5600	0	33.6120	0	26.249	0	104.695	0	133.6	4	45.7	4	-1E+10	1	0.0428	4	0.000304	0	-1E+10	1	-1E+10	1	-1E+10	1
4902624	22	C	01/27/2025	12:20	-125.871	47.183	0	106.80	0	7.5497	0	33.6240	0	26.260	0	105.884	0	133.3	4	45.5	4	-1E+10	1	0.0531	4	0.000304	0	-1E+10	1	-1E+10	1	-1E+10	1
4902624	22	C	01/27/2025	12:20	-125.871	47.183	0	107.00	0	7.5480	0	33.6260	0	26.262	0	106.083	0	-1e10	1	-1e10	1	-1E+10	1	-1e10	1	-1e10	1	-1E+10	1	-1E+10	1	-1E+10	1
4902624	22	C	01/27/2025	12:20	-125.871	47.183	0	107.90	0	7.5282	0	33.6292	0	26.267	0	106.975	0	133.0	4	45.4	4	-1E+10	1	0.0311	4	0.000337	0	-1E+10	1	-1E+10	1	-1E+10	1
4902624	22	C	01/27/2025	12:20	-125.871	47.183	0	109.00	0	7.5040	0	33.6330	0	26.274	0	108.065	0	-1e10	1	-1e10	1	-1E+10	1	-1e10	1	-1e10	1	-1E+10	1	-1E+10	1	-1E+10	1
4902624	22	C	01/27/2025	12:20	-125.871	47.183	0	109.20	0	7.5025	0	33.6346	0	26.275	0	108.263	0	132.5	4	45.2	4	-1E+10	1	0.0438	4	0.000296	0	-1E+10	1	-1E+10	1	-1E+10	1
4902624	22	C	01/27/2025	12:20	-125.871	47.183	0	110.30	0	7.4941	0	33.6435	0	26.283	0	109.353	0	132.1	4	45.1	4	-1E+10	1	0.0610	4	0.000296	0	-1E+10	1	-1E+10	1	-1E+10	1
4902624	22	C	01/27/2025	12:20	-125.871	47.183	0	111.10	0	7.4880	0	33.6500	0	26.289	0	110.146	0	-1e10	1	-1e10	1	-1E+10	1	-1e10	1	-1e10	1	-1E+10	1	-1E+10	1	-1E+10	1
4902624	22	C	01/27/2025	12:20	-125.871	47.183	0	111.50	0	7.4894	0	33.6516	0	26.290	0	110.543	0	131.8	4	45.0	4	-1E+10	1	0.0548	4	0.000349	0	-1E+10	1	-1E+10	1	-1E+10	1
4902624	22	C	01/27/2025	12:20	-125.871	47.183	0	112.70	0	7.4936	0	33.6564	0	26.294	0	111.732	0	131.5	4	44.9	4	-1E+10	1	0.0464	4	0.000313	0	-1E+10	1	-1E+10	1	-1E+10	1
4902624	22	C	01/27/2025	12:20	-125.871	47.183	0	113.10	0	7.4950	0	33.6580	0	26.295	0	112.129	0	-1e10	1	-1e10	1	-1E+10	1	-1e10	1	-1e10	1	-1E+10	1	-1E+10	1	-1E+10	1
4902624	22	C	01/27/2025	12:20	-125.871	47.183	0	113.90	0	7.4978	0	33.6616	0	26.297	0	112.922	0	131.3	4	44.8	4	-1E+10	1	0.0404	4	0.000290	0	-1E+10	1	-1E+10	1	-1E+10	1
4902624	22	C	01/27/2025	12:20	-125.871	47.183	0	115.10	0	7.5020	0	33.6670	0	26.301	0	114.111	0	-1e10	1	-1e10	1	-1E+10	1	-1e10	1	-1e10	1	-1E+10	1	-1E+10	1	-1E+10	1
4902624	22	C	01/27/2025	12:20	-125.871	47.183	0	115.20	0	7.5001	0	33.6674	0	26.301	0	114.210	0	131.2	4	44.8	4	-1E+10	1	0.0426	4	0.000296	0	-1E+10	1	-1E+10	1	-1E+10	1
4902624	22	C	01/27/2025	12:20	-125.871	47.183	0	116.40	0	7.4766	0	33.6716	0	26.308	0	115.399	0	130.9	4	44.7	4	-1E+10	1	0.0511	4	0.000288	0	-1E+10	1	-1E+10	1	-1E+10	1
4902624	22	C	01/27/2025	12:20	-125.871	47.183	0	117.10	0	7.4630	0	33.6740	0	26.312	0	116.093	0	-1e10	1	-1e10	1	-1E+10	1	-1e10	1	-1e10	1	-1E+10	1	-1E+10	1	-1E+10	1
4902624	22	C	01/27/2025	12:20	-125.871	47.183	0	117.70	0	7.4492	0	33.6773	0	26.316	0	116.688	0	130.6	4	44.5	4	-1E+10	1	0.0497	4	0.000277	0	-1E+10	1	-1E+10	1	-1E+10	1
4902624	22	C	01/27/2025	12:20	-125.871	47.183	0	119.00	0	7.4193	0	33.6845	0	26.326	0	117.976	0	130.0	4	44.3	4	-1E+10	1	0.0438	4	0.000296	0	-1E+10	1	-1E+10	1	-1E+10	1
4902624	22	C	01/27/2025	12:20	-125.871	47.183	0	119.10	0	7.4170	0	33.6850	0	26.327	0	118.075	0	-1e10	1	-1e10	1	-1E+10	1	-1e10	1	-1e10	1	-1E+10	1	-1E+10	1	-1E+10	1
4902624	22	C	01/27/2025	12:20	-125.871	47.183	0	120.20	0	7.4043	0	33.6850	0	26.329	0	119.166	0	129.3	4	44.1	4	-1E+10	1	0.0365	4	0.000261	0	-1E+10	1	-1E+10	1	-1E+10	1
4902624	22	C	01/27/2025	12:20	-125.871	47.183	0	121.00	0	7.3950	0	33.6850	0	26.330	0	119.958	0	-1e10	1	-1e10	1	-1E+10	1	-1e10	1	-1e10	1	-1E+10	1	-1E+10	1	-1E+10	1
4902624	22	C	01/27/2025	12:20	-125.871	47.183	0	121.50	0	7.3900	0	33.6889	0	26.334	0	120.454	0	128.8	4	43.9	4	-1E+10	1	0.0365	4	0.000299	0	-1E+10	1	-1E+10	1	-1E+10	1
4902624	22	C	01/27/2025	12:20	-125.871	47.183	0	122.80	0	7.3770	0	33.6992	0	26.344	0	121.742	0	128.2	4	43.6	4	-1E+10	1	0.0511	4	0.000300	0	-1E+10	1	-1E+10	1	-1E+10	1
4902624	22	C	01/27/2025	12:20	-125.871	47.183	0	122.90	0	7.3760	0	33.7000	0	26.345	0	121.842	0	-1e10	1	-1e10	1	-1E+10	1	-1e10	1	-1e10	1	-1E+10	1	-1E+10	1	-1E+10	1
4902624	22	C	01/27/2025	12:20	-125.871	47.183	0	124.10	0	7.3646	0	33.7063	0	26.351	0	123.031	0	127.5	4	43.4	4	-1E+10	1	0.0494	4	0.000310	0	-1E+10	1	-1E+10	1	-1E+10	1
4902624	22	C	01/27/2025	12:20	-125.871	47.183	0	125.00	0	7.3560	0	33.7110	0	26.356	0	123.923	0	-1e10	1	-1e10	1	-1E+10	1	-1e10	1	-1e10	1	-1E+10	1	-1E+10	1	-1E+10	1
4902624	22	C	01/27/2025	12:20	-125.871	47.183	0	125.40	0	7.3543	0	33.7106	0	26.356	0	124.319	0	126.6	4	43.1	4	-1E+10	1	0.0402	4	0.000319	0	-1E+10	1	-1E+10	1	-1E+10	1
4902624	22	C	01/27/2025	12:20	-125.871	47.183	0	126.70	0	7.3487	0	33.7094	0	26.356	0	125.608	0	125.6	4	42.8	4	-1E+10	1	0.0449	4	0.000319	0	-1E+10	1	-1E+10	1	-1E+10	1
4902624	22	C	01/27/2025	12:20	-125.871	47.183	0	127.10	0	7.3470	0	33.7090	0	26.356	0	126.004	0	-1e10	1	-1e10	1	-1E+10	1	-1e10	1	-1e10	1	-1E+10	1	-1E+10	1	-1E+10	1
4902624	22	C	01/27/2025	12:20	-125.871	47.183	0	128.00	0	7.3451	0	33.7033	0	26.352	0	126.896	0	124.5	4	42.4	4	-1E+10	1	0.0472	4	0.000351	0	-1E+10	1	-1E+10	1	-1E+10	1
4902624	22	C	01/27/2025	12:20	-125.871	47.183	0	129.00	0	7.3430	0	33.6970	0	26.347	0	127.887	0	-1e10	1	-1e10	1	-1E+10	1	-1e10	1	-1e10	1	-1E+10	1	-1E+10	1	-1E+10	1
4902624	22	C	01/27/2025	12:20	-125.871	47.183	0	129.30	0	7.3414	0	33.6959	0	26.346	0	128.184	0	123.2	4	41.9	4	-1E+10	1	0.0292	4	0.000350	0	-1E+10	1	-1E+10	1	-1E+10	1
4902624	22	C	01/27/2025	12:20	-125.871	47.183	0	130.60	0	7.3342	0	33.6914	0	26.344	0	129.473	0	121.8	4	41.4	4	-1E+10	1	0.0292	4	0.000264	0	-1E+10	1	-1E+10	1	-1E+10	1
4902624	22	C	01/27/2025	12:20	-125.871	47.183	0	131.00	0	7.3320	0	33.6900	0	26.343	0	129.869	0	-1e10	1	-1e10	1	-1E+10	1	-1e10	1	-1e10	1	-1E+10	1	-1E+10	1	-1E+10	1
4902624	22	C	01/27/2025	12:20	-125.871	47.183	0	131.90	0	7.3167	0	33.6959	0	26.350	0	130.761	0	120.2	4	40.9	4	-1E+10	1	0.0292	4	0.000331	0	-1E+10	1	-1E+10	1	-1E+10	1
4902624	22	C	01/27/2025	12:20	-125.871	47.183	0	133.00	0	7.2980	0	33.7030	0	26.358	0	131.851	0	-1e10	1	-1e10	1	-1E+10	1	-1e10	1	-1e10	1	-1E+10	1	-1E+10	1	-1E+10	1
4902624	22	C	01/27/2025	12:20	-125.871	47.183	0	133.10	0	7.2954	0	33.7046	0	26.360	0	131.950	0	118.8	4	40.4	4	-1E+10	1	0.0219	4	0.000331	0	-1E+10	1	-1E+10	1	-1E+10	1
4902624	22	C	01/27/2025	12:20	-125.871	47.183	0	134.40	0	7.2623	0	33.7254	0	26.381	0	133.239	0	117.8	4	40.0	4	-1E+10	1	0.0516	4	0.000312	0	-1E+10	1	-1E+10	1	-1E+10	1
4902624	22	C	01/27/2025	12:20	-125.871	47.183	0	135.00	0	7.2470	0	33.7350	0	26.390	0	133.833	0	-1e10	1	-1e10	1	-1E+10	1	-1e10	1	-1e10	1	-1E+10	1	-1E+10	1	-1E+10	1
4902624	22	C	01/27/2025	12:20	-125.871	47.183	0	135.70	0	7.2320	0	33.7542	0	26.408	0	134.527	0	116.9	4	39.7	4	-1E+10	1	0.0341	4	0.000307	0	-1E+10	1	-1E+10	1	-1E+10	1
4902624	22	C	01/27/2025	12:20	-125.871	47.183	0	136.90	0	7.2062	0	33.7873	0	26.437	0	135.716	0	116.1	4	39.4	4	-1E+10	1	0.0258	4	0.000307	0	-1E+10	1	-1E+10	1	-1E+10	1
4902624	22	C	01/27/2025	12:20	-125.871	47.183	0	137.00	0	7.2040	0	33.7900	0	26.440	0	135.815	0	-1e10	1	-1e10	1	-1E+10	1	-1e10	1	-1e10	1	-1E+10	1	-1E+10	1	-1E+10	1
4902624	22	C	01/27/2025	12:20	-125.871	47.183	0	138.30	0	7.2040	0	33.7955	0	26.444	0	137.104	0	115.3	4	39.1	4	-1E+10	1	0.0438	4	0.000325	0	-1E+10	1	-1E+10	1	-1E+10	1
4902624	22	C	01/27/2025	12:20	-125.871	47.183	0	138.90	0	7.2040	0	33.7980	0	26.446	0	137.698	0	-1e10	1	-1e10	1	-1E+10	1	-1e10	1	-1e10	1	-1E+10	1	-1E+10	1	-1E+10	1
4902624	22	C	01/27/2025	12:20	-125.871	47.183	0	139.60	0	7.2107	0	33.7930	0	26.441	0	138.392	0	114.5	4	38.8	4	-1E+10	1	0.0511	4	0.000331	0	-1E+10	1	-1E+10	1	-1E+10	1
4902624	22	C	01/27/2025	12:20	-125.871	47.183	0	140.90	0	7.2230	0	33.7837	0	26.432	0	139.680	0	113.9	4	38.7	4	-1E+10	1	0.0348	4	0.000315	0	-1E+10	1	-1E+10	1	-1E+10	1
4902624	22	C	01/27/2025	12:20	-125.871	47.183	0	141.00	0	7.2240	0	33.7830	0	26.431	0	139.780	0	-1e10	1	-1e10	1	-1E+10	1	-1e10	1	-1e10	1	-1E+10	1	-1E+10	1	-1E+10	1
4902624	22	C	01/27/2025	12:20	-125.871	47.183	0	142.20	0	7.2216	0	33.7788	0	26.428	0	140.969	0	113.8	4	38.6	4	-1E+10	1	0.0360	4	0.000327	0	-1E+10	1	-1E+10	1	-1E+10	1
4902624	22	C	01/27/2025	12:20	-125.871	47.183	0	143.00	0	7.2200	0	33.7760	0	26.426	0	141.762	0	-1e10	1	-1e10	1	-1E+10	1	-1e10	1	-1e10	1	-1E+10	1	-1E+10	1	-1E+10	1
4902624	22	C	01/27/2025	12:20	-125.871	47.183	0	143.50	0	7.2226	0	33.7684	0	26.420	0	142.257	0	113.8	4	38.6	4	-1E+10	1	0.0657	4	0.000260	0	-1E+10	1	-1E+10	1	-1E+10	1
4902624	22	C	01/27/2025	12:20	-125.871	47.183	0	144.80	0	7.2295	0	33.7485	0	26.403	0	143.545	0	113.7	4	38.6	4	-1E+10	1	0.0538	4	0.000318	0	-1E+10	1	-1E+10	1	-1E+10	1
4902624	22	C	01/27/2025	12:20	-125.871	47.183	0	144.90	0	7.2300	0	33.7470	0	26.402	0	143.644	0	-1e10	1	-1e10	1	-1E+10	1	-1e10	1	-1e10	1	-1E+10	1	-1E+10	1	-1E+10	1
4902624	22	C	01/27/2025	12:20	-125.871	47.183	0	146.10	0	7.2083	0	33.7361	0	26.397	0	144.834	0	113.9	4	38.6	4	-1E+10	1	0.0511	4	0.000304	0	-1E+10	1	-1E+10	1	-1E+10	1
4902624	22	C	01/27/2025	12:20	-125.871	47.183	0	147.00	0	7.1920	0	33.7280	0	26.393	0	145.725	0	-1e10	1	-1e10	1	-1E+10	1	-1e10	1	-1e10	1	-1E+10	1	-1E+10	1	-1E+10	1
4902624	22	C	01/27/2025	12:20	-125.871	47.183	0	147.40	0	7.1828	0	33.7288	0	26.394	0	146.122	0	114.0	4	38.7	4	-1E+10	1	0.0462	4	0.000280	0	-1E+10	1	-1E+10	1	-1E+10	1
4902624	22	C	01/27/2025	12:20	-125.871	47.183	0	148.70	0	7.1529	0	33.7314	0	26.401	0	147.410	0	113.9	4	38.6	4	-1E+10	1	0.0511	4	0.000301	0	-1E+10	1	-1E+10	1	-1E+10	1
4902624	22	C	01/27/2025	12:20	-125.871	47.183	0	149.00	0	7.1460	0	33.7320	0	26.402	0	147.707	0	-1e10	1	-1e10	1	-1E+10	1	-1e10	1	-1e10	1	-1E+10	1	-1E+10	1	-1E+10	1
4902624	22	C	01/27/2025	12:20	-125.871	47.183	0	149.90	0	7.1186	0	33.7363	0	26.409	0	148.599	0	114.0	4	38.6	4	-1E+10	1	0.0535	4	0.000315	0	-1E+10	1	-1E+10	1	-1E+10	1
4902624	22	C	01/27/2025	12:20	-125.871	47.183	0	151.10	0	7.0820	0	33.7420	0	26.419	0	149.788	0	-1e10	1	-1e10	1	-1E+10	1	-1e10	1	-1e10	1	-1E+10	1	-1E+10	1	-1E+10	1
4902624	22	C	01/27/2025	12:20	-125.871	47.183	0	151.20	0	7.0784	0	33.7436	0	26.420	0	149.888	0	114.0	4	38.6	4	-1E+10	1	0.0438	4	0.000288	0	-1E+10	1	-1E+10	1	-1E+10	1
4902624	22	C	01/27/2025	12:20	-125.871	47.183	0	152.50	0	7.0312	0	33.7641	0	26.443	0	151.176	0	113.9	4	38.5	4	-1E+10	1	0.0438	4	0.000298	0	-1E+10	1	-1E+10	1	-1E+10	1
4902624	22	C	01/27/2025	12:20	-125.871	47.183	0	153.00	0	7.0130	0	33.7720	0	26.452	0	151.671	0	-1e10	1	-1e10	1	-1E+10	1	-1e10	1	-1e10	1	-1E+10	1	-1E+10	1	-1E+10	1
4902624	22	C	01/27/2025	12:20	-125.871	47.183	0	153.80	0	6.9970	0	33.7771	0	26.458	0	152.464	0	113.5	4	38.3	4	-1E+10	1	0.0438	4	0.000307	0	-1E+10	1	-1E+10	1	-1E+10	1
4902624	22	C	01/27/2025	12:20	-125.871	47.183	0	154.90	0	6.9750	0	33.7840	0	26.466	0	153.554	0	-1e10	1	-1e10	1	-1E+10	1	-1e10	1	-1e10	1	-1E+10	1	-1E+10	1	-1E+10	1
4902624	22	C	01/27/2025	12:20	-125.871	47.183	0	155.00	0	6.9733	0	33.7847	0	26.467	0	153.653	0	112.8	4	38.1	4	-1E+10	1	0.0438	4	0.000284	0	-1E+10	1	-1E+10	1	-1E+10	1
4902624	22	C	01/27/2025	12:20	-125.871	47.183	0	156.30	0	6.9517	0	33.7940	0	26.478	0	154.941	0	112.0	4	37.8	4	-1E+10	1	0.0379	4	0.000255	0	-1E+10	1	-1E+10	1	-1E+10	1
4902624	22	C	01/27/2025	12:20	-125.871	47.183	0	157.00	0	6.9400	0	33.7990	0	26.483	0	155.635	0	-1e10	1	-1e10	1	-1E+10	1	-1e10	1	-1e10	1	-1E+10	1	-1E+10	1	-1E+10	1
4902624	22	C	01/27/2025	12:20	-125.871	47.183	0	157.60	0	6.9277	0	33.8074	0	26.491	0	156.230	0	111.1	4	37.5	4	-1E+10	1	0.0414	4	0.000295	0	-1E+10	1	-1E+10	1	-1E+10	1
4902624	22	C	01/27/2025	12:20	-125.871	47.183	0	158.80	0	6.9031	0	33.8242	0	26.508	0	157.419	0	110.0	4	37.1	4	-1E+10	1	0.0438	4	0.000285	0	-1E+10	1	-1E+10	1	-1E+10	1
4902624	22	C	01/27/2025	12:20	-125.871	47.183	0	159.00	0	6.8990	0	33.8270	0	26.511	0	157.617	0	-1e10	1	-1e10	1	-1E+10	1	-1e10	1	-1e10	1	-1E+10	1	-1E+10	1	-1E+10	1
4902624	22	C	01/27/2025	12:20	-125.871	47.183	0	160.10	0	6.8913	0	33.8391	0	26.521	0	158.707	0	108.4	4	36.5	4	-1E+10	1	0.0438	4	0.000266	0	-1E+10	1	-1E+10	1	-1E+10	1
4902624	22	C	01/27/2025	12:20	-125.871	47.183	0	161.00	0	6.8850	0	33.8490	0	26.530	0	159.599	0	-1e10	1	-1e10	1	-1E+10	1	-1e10	1	-1e10	1	-1E+10	1	-1E+10	1	-1E+10	1
4902624	22	C	01/27/2025	12:20	-125.871	47.183	0	161.40	0	6.8894	0	33.8444	0	26.526	0	159.995	0	106.6	4	35.9	4	-1E+10	1	0.0438	4	0.000292	0	-1E+10	1	-1E+10	1	-1E+10	1
4902624	22	C	01/27/2025	12:20	-125.871	47.183	0	162.70	0	6.9036	0	33.8296	0	26.512	0	161.283	0	105.4	4	35.5	4	-1E+10	1	0.0404	4	0.000320	0	-1E+10	1	-1E+10	1	-1E+10	1
4902624	22	C	01/27/2025	12:20	-125.871	47.183	0	163.10	0	6.9080	0	33.8250	0	26.508	0	161.680	0	-1e10	1	-1e10	1	-1E+10	1	-1e10	1	-1e10	1	-1E+10	1	-1E+10	1	-1E+10	1
4902624	22	C	01/27/2025	12:20	-125.871	47.183	0	164.00	0	6.9085	0	33.8155	0	26.500	0	162.571	0	104.8	4	35.3	4	-1E+10	1	0.0321	4	0.000279	0	-1E+10	1	-1E+10	1	-1E+10	1
4902624	22	C	01/27/2025	12:20	-125.871	47.183	0	165.00	0	6.9090	0	33.8050	0	26.492	0	163.562	0	-1e10	1	-1e10	1	-1E+10	1	-1e10	1	-1e10	1	-1E+10	1	-1E+10	1	-1E+10	1
4902624	22	C	01/27/2025	12:20	-125.871	47.183	0	165.20	0	6.9055	0	33.8053	0	26.493	0	163.760	0	104.5	4	35.2	4	-1E+10	1	0.0438	4	0.000260	0	-1E+10	1	-1E+10	1	-1E+10	1
4902624	22	C	01/27/2025	12:20	-125.871	47.183	0	166.40	0	6.8843	0	33.8070	0	26.497	0	164.950	0	104.5	4	35.2	4	-1E+10	1	0.0501	4	0.000270	0	-1E+10	1	-1E+10	1	-1E+10	1
4902624	22	C	01/27/2025	12:20	-125.871	47.183	0	167.10	0	6.8720	0	33.8080	0	26.499	0	165.643	0	-1e10	1	-1e10	1	-1E+10	1	-1e10	1	-1e10	1	-1E+10	1	-1E+10	1	-1E+10	1
4902624	22	C	01/27/2025	12:20	-125.871	47.183	0	167.40	0	6.8656	0	33.8066	0	26.499	0	165.940	0	104.5	4	35.2	4	-1E+10	1	0.0511	4	0.000300	0	-1E+10	1	-1E+10	1	-1E+10	1
4902624	22	C	01/27/2025	12:20	-125.871	47.183	0	168.30	0	6.8462	0	33.8026	0	26.499	0	166.832	0	104.5	4	35.2	4	-1E+10	1	0.0511	4	0.000282	0	-1E+10	1	-1E+10	1	-1E+10	1
4902624	22	C	01/27/2025	12:20	-125.871	47.183	0	169.10	0	6.8290	0	33.7990	0	26.498	0	167.625	0	103.7	4	34.9	4	-1E+10	1	0.0511	4	0.000272	0	-1E+10	1	-1E+10	1	-1E+10	1
4902624	22	C	01/27/2025	12:20	-125.871	47.183	0	169.90	0	6.7970	0	33.8154	0	26.515	0	168.418	0	104.3	4	35.1	4	-1E+10	1	0.0511	4	0.000268	0	-1E+10	1	-1E+10	1	-1E+10	1
4902624	22	C	01/27/2025	12:20	-125.871	47.183	0	170.80	0	6.7610	0	33.8339	0	26.535	0	169.309	0	104.0	4	34.9	4	-1E+10	1	0.0540	4	0.000279	0	-1E+10	1	-1E+10	1	-1E+10	1
4902624	22	C	01/27/2025	12:20	-125.871	47.183	0	171.10	0	6.7490	0	33.8400	0	26.541	0	169.607	0	-1e10	1	-1e10	1	-1E+10	1	-1e10	1	-1e10	1	-1E+10	1	-1E+10	1	-1E+10	1
4902624	22	C	01/27/2025	12:20	-125.871	47.183	0	171.50	0	6.7412	0	33.8456	0	26.547	0	170.003	0	103.6	4	34.8	4	-1E+10	1	0.0577	4	0.000305	0	-1E+10	1	-1E+10	1	-1E+10	1
4902624	22	C	01/27/2025	12:20	-125.871	47.183	0	172.40	0	6.7236	0	33.8582	0	26.559	0	170.895	0	103.0	4	34.6	4	-1E+10	1	0.0511	4	0.000284	0	-1E+10	1	-1E+10	1	-1E+10	1
4902624	22	C	01/27/2025	12:20	-125.871	47.183	0	173.10	0	6.7100	0	33.8680	0	26.569	0	171.588	0	101.5	4	34.1	4	-1E+10	1	0.0584	4	0.000269	0	-1E+10	1	-1E+10	1	-1E+10	1
4902624	22	C	01/27/2025	12:20	-125.871	47.183	0	173.90	0	6.7092	0	33.8708	0	26.571	0	172.381	0	101.6	4	34.1	4	-1E+10	1	0.0584	4	0.000318	0	-1E+10	1	-1E+10	1	-1E+10	1
4902624	22	C	01/27/2025	12:20	-125.871	47.183	0	174.70	0	6.7084	0	33.8736	0	26.573	0	173.174	0	100.9	4	33.9	4	-1E+10	1	0.0487	4	0.000284	0	-1E+10	1	-1E+10	1	-1E+10	1
4902624	22	C	01/27/2025	12:20	-125.871	47.183	0	175.10	0	6.7080	0	33.8750	0	26.574	0	173.570	0	-1e10	1	-1e10	1	-1E+10	1	-1e10	1	-1e10	1	-1E+10	1	-1E+10	1	-1E+10	1
4902624	22	C	01/27/2025	12:20	-125.871	47.183	0	175.50	0	6.7102	0	33.8732	0	26.573	0	173.966	0	100.1	4	33.6	4	-1E+10	1	0.0392	4	0.000282	0	-1E+10	1	-1E+10	1	-1E+10	1
4902624	22	C	01/27/2025	12:20	-125.871	47.183	0	176.30	0	6.7146	0	33.8696	0	26.569	0	174.759	0	99.2	4	33.3	4	-1E+10	1	0.0438	4	0.000278	0	-1E+10	1	-1E+10	1	-1E+10	1
4902624	22	C	01/27/2025	12:20	-125.871	47.183	0	177.10	0	6.7190	0	33.8660	0	26.566	0	175.552	0	97.8	4	32.8	4	-1E+10	1	0.0462	4	0.000268	0	-1E+10	1	-1E+10	1	-1E+10	1
4902624	22	C	01/27/2025	12:20	-125.871	47.183	0	177.90	0	6.7199	0	33.8611	0	26.562	0	176.344	0	97.9	4	32.9	4	-1E+10	1	0.0402	4	0.000287	0	-1E+10	1	-1E+10	1	-1E+10	1
4902624	22	C	01/27/2025	12:20	-125.871	47.183	0	178.70	0	6.7208	0	33.8562	0	26.558	0	177.137	0	97.2	4	32.7	4	-1E+10	1	0.0495	4	0.000285	0	-1E+10	1	-1E+10	1	-1E+10	1
4902624	22	C	01/27/2025	12:20	-125.871	47.183	0	178.90	0	6.7210	0	33.8550	0	26.557	0	177.335	0	-1e10	1	-1e10	1	-1E+10	1	-1e10	1	-1e10	1	-1E+10	1	-1E+10	1	-1E+10	1
4902624	22	C	01/27/2025	12:20	-125.871	47.183	0	179.40	0	6.7190	0	33.8540	0	26.556	0	177.831	0	96.6	4	32.4	4	-1E+10	1	0.0438	4	0.000248	0	-1E+10	1	-1E+10	1	-1E+10	1
4902624	22	C	01/27/2025	12:20	-125.871	47.183	0	180.20	0	6.7158	0	33.8524	0	26.556	0	178.623	0	96.1	4	32.3	4	-1E+10	1	0.0438	4	0.000267	0	-1E+10	1	-1E+10	1	-1E+10	1
4902624	22	C	01/27/2025	12:20	-125.871	47.183	0	180.90	0	6.7130	0	33.8510	0	26.555	0	179.317	0	-1e10	1	-1e10	1	-1E+10	1	-1e10	1	-1e10	1	-1E+10	1	-1E+10	1	-1E+10	1
4902624	22	C	01/27/2025	12:20	-125.871	47.183	0	181.00	0	6.7113	0	33.8523	0	26.556	0	179.416	0	95.8	4	32.2	4	-1E+10	1	0.0563	4	0.000262	0	-1E+10	1	-1E+10	1	-1E+10	1
4902624	22	C	01/27/2025	12:20	-125.871	47.183	0	181.70	0	6.6993	0	33.8613	0	26.565	0	180.110	0	95.4	4	32.0	4	-1E+10	1	0.0584	4	0.000260	0	-1E+10	1	-1E+10	1	-1E+10	1
4902624	22	C	01/27/2025	12:20	-125.871	47.183	0	182.50	0	6.6856	0	33.8716	0	26.575	0	180.902	0	95.1	4	31.9	4	-1E+10	1	0.0519	4	0.000269	0	-1E+10	1	-1E+10	1	-1E+10	1
4902624	22	C	01/27/2025	12:20	-125.871	47.183	0	183.00	0	6.6770	0	33.8780	0	26.581	0	181.398	0	-1e10	1	-1e10	1	-1E+10	1	-1e10	1	-1e10	1	-1E+10	1	-1E+10	1	-1E+10	1
4902624	22	C	01/27/2025	12:20	-125.871	47.183	0	183.30	0	6.6723	0	33.8826	0	26.585	0	181.695	0	94.7	4	31.8	4	-1E+10	1	0.0465	4	0.000268	0	-1E+10	1	-1E+10	1	-1E+10	1
4902624	22	C	01/27/2025	12:20	-125.871	47.183	0	184.10	0	6.6599	0	33.8951	0	26.597	0	182.487	0	94.4	4	31.6	4	-1E+10	1	0.0487	4	0.000252	0	-1E+10	1	-1E+10	1	-1E+10	1
4902624	22	C	01/27/2025	12:20	-125.871	47.183	0	184.90	0	6.6476	0	33.9075	0	26.608	0	183.280	0	93.9	4	31.5	4	-1E+10	1	0.0453	4	0.000265	0	-1E+10	1	-1E+10	1	-1E+10	1
4902624	22	C	01/27/2025	12:20	-125.871	47.183	0	185.00	0	6.6460	0	33.9090	0	26.609	0	183.379	0	-1e10	1	-1e10	1	-1E+10	1	-1e10	1	-1e10	1	-1E+10	1	-1E+10	1	-1E+10	1
4902624	22	C	01/27/2025	12:20	-125.871	47.183	0	185.70	0	6.6418	0	33.9139	0	26.614	0	184.073	0	93.4	4	31.3	4	-1E+10	1	0.0511	4	0.000284	0	-1E+10	1	-1E+10	1	-1E+10	1
4902624	22	C	01/27/2025	12:20	-125.871	47.183	0	186.50	0	6.6370	0	33.9195	0	26.619	0	184.865	0	92.9	4	31.2	4	-1E+10	1	0.0438	4	0.000319	0	-1E+10	1	-1E+10	1	-1E+10	1
4902624	22	C	01/27/2025	12:20	-125.871	47.183	0	187.00	0	6.6340	0	33.9230	0	26.622	0	185.361	0	-1e10	1	-1e10	1	-1E+10	1	-1e10	1	-1e10	1	-1E+10	1	-1E+10	1	-1E+10	1
4902624	22	C	01/27/2025	12:20	-125.871	47.183	0	187.30	0	6.6356	0	33.9213	0	26.621	0	185.658	0	92.3	4	31.0	4	-1E+10	1	0.0496	4	0.000291	0	-1E+10	1	-1E+10	1	-1E+10	1
4902624	22	C	01/27/2025	12:20	-125.871	47.183	0	188.10	0	6.6400	0	33.9170	0	26.617	0	186.451	0	91.7	4	30.7	4	-1E+10	1	0.0511	4	0.000276	0	-1E+10	1	-1E+10	1	-1E+10	1
4902624	22	C	01/27/2025	12:20	-125.871	47.183	0	188.90	0	6.6445	0	33.9125	0	26.613	0	187.243	0	91.2	4	30.6	4	-1E+10	1	0.0511	4	0.000265	0	-1E+10	1	-1E+10	1	-1E+10	1
4902624	22	C	01/27/2025	12:20	-125.871	47.183	0	189.00	0	6.6450	0	33.9120	0	26.612	0	187.342	0	-1e10	1	-1e10	1	-1E+10	1	-1e10	1	-1e10	1	-1E+10	1	-1E+10	1	-1E+10	1
4902624	22	C	01/27/2025	12:20	-125.871	47.183	0	189.70	0	6.6488	0	33.9078	0	26.608	0	188.036	0	90.7	4	30.4	4	-1E+10	1	0.0511	4	0.000260	0	-1E+10	1	-1E+10	1	-1E+10	1
4902624	22	C	01/27/2025	12:20	-125.871	47.183	0	190.60	0	6.6538	0	33.9024	0	26.603	0	188.928	0	90.2	4	30.3	4	-1E+10	1	0.0462	4	0.000256	0	-1E+10	1	-1E+10	1	-1E+10	1
4902624	22	C	01/27/2025	12:20	-125.871	47.183	0	191.00	0	6.6560	0	33.9000	0	26.601	0	189.324	0	-1e10	1	-1e10	1	-1E+10	1	-1e10	1	-1e10	1	-1E+10	1	-1E+10	1	-1E+10	1
4902624	22	C	01/27/2025	12:20	-125.871	47.183	0	191.40	0	6.6572	0	33.8982	0	26.600	0	189.720	0	89.8	4	30.1	4	-1E+10	1	0.0397	4	0.000256	0	-1E+10	1	-1E+10	1	-1E+10	1
4902624	22	C	01/27/2025	12:20	-125.871	47.183	0	192.30	0	6.6599	0	33.8941	0	26.596	0	190.612	0	89.4	4	30.0	4	-1E+10	1	0.0524	4	0.000279	0	-1E+10	1	-1E+10	1	-1E+10	1
4902624	22	C	01/27/2025	12:20	-125.871	47.183	0	193.00	0	6.6620	0	33.8910	0	26.593	0	191.305	0	-1e10	1	-1e10	1	-1E+10	1	-1e10	1	-1e10	1	-1E+10	1	-1E+10	1	-1E+10	1
4902624	22	C	01/27/2025	12:20	-125.871	47.183	0	193.20	0	6.6623	0	33.8903	0	26.593	0	191.504	0	89.0	4	29.9	4	-1E+10	1	0.0584	4	0.000260	0	-1E+10	1	-1E+10	1	-1E+10	1
4902624	22	C	01/27/2025	12:20	-125.871	47.183	0	194.00	0	6.6636	0	33.8873	0	26.590	0	192.296	0	88.7	4	29.7	4	-1E+10	1	0.0409	4	0.000861	0	-1E+10	1	-1E+10	1	-1E+10	1
4902624	22	C	01/27/2025	12:20	-125.871	47.183	0	194.90	0	6.6650	0	33.8840	0	26.587	0	193.188	0	87.7	4	29.4	4	-1E+10	1	0.0493	4	0.000344	0	-1E+10	1	-1E+10	1	-1E+10	1
4902624	22	C	01/27/2025	12:20	-125.871	47.183	0	195.70	0	6.6639	0	33.8825	0	26.586	0	193.980	0	88.0	4	29.5	4	-1E+10	1	0.0557	4	0.000256	0	-1E+10	1	-1E+10	1	-1E+10	1
4902624	22	C	01/27/2025	12:20	-125.871	47.183	0	196.60	0	6.6626	0	33.8808	0	26.585	0	194.872	0	87.8	4	29.4	4	-1E+10	1	0.0584	4	0.000252	0	-1E+10	1	-1E+10	1	-1E+10	1
4902624	22	C	01/27/2025	12:20	-125.871	47.183	0	197.00	0	6.6620	0	33.8800	0	26.585	0	195.268	0	-1e10	1	-1e10	1	-1E+10	1	-1e10	1	-1e10	1	-1E+10	1	-1E+10	1	-1E+10	1
4902624	22	C	01/27/2025	12:20	-125.871	47.183	0	197.50	0	6.6593	0	33.8808	0	26.586	0	195.764	0	87.5	4	29.4	4	-1E+10	1	0.0493	4	0.000254	0	-1E+10	1	-1E+10	1	-1E+10	1
4902624	22	C	01/27/2025	12:20	-125.871	47.183	0	198.30	0	6.6549	0	33.8820	0	26.587	0	196.556	0	87.3	4	29.3	4	-1E+10	1	0.0438	4	0.000260	0	-1E+10	1	-1E+10	1	-1E+10	1
4902624	22	C	01/27/2025	12:20	-125.871	47.183	0	199.00	0	6.6510	0	33.8830	0	26.588	0	197.250	0	-1e10	1	-1e10	1	-1E+10	1	-1e10	1	-1e10	1	-1E+10	1	-1E+10	1	-1E+10	1
4902624	22	C	01/27/2025	12:20	-125.871	47.183	0	199.20	0	6.6497	0	33.8839	0	26.589	0	197.448	0	87.1	4	29.2	4	-1E+10	1	0.0438	4	0.000260	0	-1E+10	1	-1E+10	1	-1E+10	1
4902624	22	C	01/27/2025	12:20	-125.871	47.183	0	200.10	0	6.6441	0	33.8882	0	26.594	0	198.340	0	86.8	4	29.1	4	-1E+10	1	0.0454	4	0.000260	0	-1E+10	1	-1E+10	1	-1E+10	1
4902624	22	C	01/27/2025	12:20	-125.871	47.183	0	200.90	0	6.6390	0	33.8920	0	26.597	0	199.132	0	-1e10	1	-1e10	1	-1E+10	1	-1e10	1	-1e10	1	-1E+10	1	-1E+10	1	-1E+10	1
4902624	22	C	01/27/2025	12:20	-125.871	47.183	0	201.00	0	6.6385	0	33.8924	0	26.598	0	199.231	0	86.6	4	29.0	4	-1E+10	1	0.0511	4	0.000264	0	-1E+10	1	-1E+10	1	-1E+10	1
4902624	22	C	01/27/2025	12:20	-125.871	47.183	0	201.90	0	6.6342	0	33.8963	0	26.601	0	200.123	0	86.4	4	28.9	4	-1E+10	1	0.0511	4	0.000283	0	-1E+10	1	-1E+10	1	-1E+10	1
4902624	22	C	01/27/2025	12:20	-125.871	47.183	0	202.80	0	6.6300	0	33.9001	0	26.605	0	201.015	0	86.1	4	28.9	4	-1E+10	1	0.0571	4	0.000281	0	-1E+10	1	-1E+10	1	-1E+10	1
4902624	22	C	01/27/2025	12:20	-125.871	47.183	0	203.00	0	6.6290	0	33.9010	0	26.606	0	201.213	0	-1e10	1	-1e10	1	-1E+10	1	-1e10	1	-1e10	1	-1E+10	1	-1E+10	1	-1E+10	1
4902624	22	C	01/27/2025	12:20	-125.871	47.183	0	203.80	0	6.6270	0	33.9038	0	26.608	0	202.005	0	85.9	4	28.8	4	-1E+10	1	0.0519	4	0.000304	0	-1E+10	1	-1E+10	1	-1E+10	1
4902624	22	C	01/27/2025	12:20	-125.871	47.183	0	204.70	0	6.6248	0	33.9070	0	26.611	0	202.897	0	85.6	4	28.7	4	-1E+10	1	0.0511	4	0.000268	0	-1E+10	1	-1E+10	1	-1E+10	1
4902624	22	C	01/27/2025	12:20	-125.871	47.183	0	205.00	0	6.6240	0	33.9080	0	26.612	0	203.194	0	-1e10	1	-1e10	1	-1E+10	1	-1e10	1	-1e10	1	-1E+10	1	-1E+10	1	-1E+10	1
4902624	22	C	01/27/2025	12:20	-125.871	47.183	0	205.70	0	6.6233	0	33.9101	0	26.614	0	203.888	0	85.3	4	28.6	4	-1E+10	1	0.0471	4	0.000274	0	-1E+10	1	-1E+10	1	-1E+10	1
4902624	22	C	01/27/2025	12:20	-125.871	47.183	0	206.60	0	6.6224	0	33.9128	0	26.616	0	204.779	0	85.0	4	28.5	4	-1E+10	1	0.0467	4	0.000276	0	-1E+10	1	-1E+10	1	-1E+10	1
4902624	22	C	01/27/2025	12:20	-125.871	47.183	0	207.00	0	6.6220	0	33.9140	0	26.617	0	205.176	0	-1e10	1	-1e10	1	-1E+10	1	-1e10	1	-1e10	1	-1E+10	1	-1E+10	1	-1E+10	1
4902624	22	C	01/27/2025	12:20	-125.871	47.183	0	207.60	0	6.6202	0	33.9152	0	26.618	0	205.770	0	84.6	4	28.4	4	-1E+10	1	0.0535	4	0.000248	0	-1E+10	1	-1E+10	1	-1E+10	1
4902624	22	C	01/27/2025	12:20	-125.871	47.183	0	208.60	0	6.6172	0	33.9172	0	26.620	0	206.761	0	84.2	4	28.2	4	-1E+10	1	0.0557	4	0.000246	0	-1E+10	1	-1E+10	1	-1E+10	1
4902624	22	C	01/27/2025	12:20	-125.871	47.183	0	209.00	0	6.6160	0	33.9180	0	26.621	0	207.157	0	-1e10	1	-1e10	1	-1E+10	1	-1e10	1	-1e10	1	-1E+10	1	-1E+10	1	-1E+10	1
4902624	22	C	01/27/2025	12:20	-125.871	47.183	0	209.50	0	6.6118	0	33.9188	0	26.622	0	207.652	0	83.7	4	28.0	4	-1E+10	1	0.0438	4	0.000236	0	-1E+10	1	-1E+10	1	-1E+10	1
4902624	22	C	01/27/2025	12:20	-125.871	47.183	0	210.50	0	6.6033	0	33.9202	0	26.624	0	208.643	0	83.3	4	27.9	4	-1E+10	1	0.0584	4	0.000260	0	-1E+10	1	-1E+10	1	-1E+10	1
4902624	22	C	01/27/2025	12:20	-125.871	47.183	0	211.00	0	6.5990	0	33.9210	0	26.625	0	209.138	0	-1e10	1	-1e10	1	-1E+10	1	-1e10	1	-1e10	1	-1E+10	1	-1E+10	1	-1E+10	1
4902624	22	C	01/27/2025	12:20	-125.871	47.183	0	211.50	0	6.5959	0	33.9212	0	26.626	0	209.634	0	82.8	4	27.8	4	-1E+10	1	0.0523	4	0.000260	0	-1E+10	1	-1E+10	1	-1E+10	1
4902624	22	C	01/27/2025	12:20	-125.871	47.183	0	212.60	0	6.5891	0	33.9218	0	26.627	0	210.723	0	82.4	4	27.6	4	-1E+10	1	0.0562	4	0.000252	0	-1E+10	1	-1E+10	1	-1E+10	1
4902624	22	C	01/27/2025	12:20	-125.871	47.183	0	213.10	0	6.5860	0	33.9220	0	26.628	0	211.219	0	-1e10	1	-1e10	1	-1E+10	1	-1e10	1	-1e10	1	-1E+10	1	-1E+10	1	-1E+10	1
4902624	22	C	01/27/2025	12:20	-125.871	47.183	0	213.60	0	6.5855	0	33.9225	0	26.628	0	211.714	0	82.0	4	27.5	4	-1E+10	1	0.0496	4	0.000354	0	-1E+10	1	-1E+10	1	-1E+10	1
4902624	22	C	01/27/2025	12:20	-125.871	47.183	0	214.60	0	6.5845	0	33.9235	0	26.629	0	212.705	0	81.5	4	27.3	4	-1E+10	1	0.0402	4	0.000330	0	-1E+10	1	-1E+10	1	-1E+10	1
4902624	22	C	01/27/2025	12:20	-125.871	47.183	0	215.10	0	6.5840	0	33.9240	0	26.630	0	213.200	0	-1e10	1	-1e10	1	-1E+10	1	-1e10	1	-1e10	1	-1E+10	1	-1E+10	1	-1E+10	1
4902624	22	C	01/27/2025	12:20	-125.871	47.183	0	215.60	0	6.5859	0	33.9257	0	26.631	0	213.695	0	81.1	4	27.2	4	-1E+10	1	0.0365	4	0.000252	0	-1E+10	1	-1E+10	1	-1E+10	1
4902624	22	C	01/27/2025	12:20	-125.871	47.183	0	216.60	0	6.5898	0	33.9290	0	26.633	0	214.686	0	80.8	4	27.1	4	-1E+10	1	0.0392	4	0.000281	0	-1E+10	1	-1E+10	1	-1E+10	1
4902624	22	C	01/27/2025	12:20	-125.871	47.183	0	216.90	0	6.5910	0	33.9300	0	26.634	0	214.983	0	-1e10	1	-1e10	1	-1E+10	1	-1e10	1	-1e10	1	-1E+10	1	-1E+10	1	-1E+10	1
4902624	22	C	01/27/2025	12:20	-125.871	47.183	0	217.60	0	6.5897	0	33.9307	0	26.634	0	215.677	0	80.4	4	26.9	4	-1E+10	1	0.0511	4	0.000271	0	-1E+10	1	-1E+10	1	-1E+10	1
4902624	22	C	01/27/2025	12:20	-125.871	47.183	0	218.70	0	6.5876	0	33.9317	0	26.636	0	216.766	0	80.1	4	26.8	4	-1E+10	1	0.0511	4	0.000260	0	-1E+10	1	-1E+10	1	-1E+10	1
4902624	22	C	01/27/2025	12:20	-125.871	47.183	0	219.00	0	6.5870	0	33.9320	0	26.636	0	217.063	0	-1e10	1	-1e10	1	-1E+10	1	-1e10	1	-1e10	1	-1E+10	1	-1E+10	1	-1E+10	1
4902624	22	C	01/27/2025	12:20	-125.871	47.183	0	219.70	0	6.5793	0	33.9338	0	26.638	0	217.757	0	79.8	4	26.7	4	-1E+10	1	0.0572	4	0.000240	0	-1E+10	1	-1E+10	1	-1E+10	1
4902624	22	C	01/27/2025	12:20	-125.871	47.183	0	220.80	0	6.5672	0	33.9365	0	26.642	0	218.847	0	79.5	4	26.6	4	-1E+10	1	0.0524	4	0.000234	0	-1E+10	1	-1E+10	1	-1E+10	1
4902624	22	C	01/27/2025	12:20	-125.871	47.183	0	221.00	0	6.5650	0	33.9370	0	26.643	0	219.045	0	-1e10	1	-1e10	1	-1E+10	1	-1e10	1	-1e10	1	-1E+10	1	-1E+10	1	-1E+10	1
4902624	22	C	01/27/2025	12:20	-125.871	47.183	0	221.80	0	6.5393	0	33.9357	0	26.645	0	219.837	0	79.3	4	26.5	4	-1E+10	1	0.0466	4	0.000228	0	-1E+10	1	-1E+10	1	-1E+10	1
4902624	22	C	01/27/2025	12:20	-125.871	47.183	0	222.90	0	6.5040	0	33.9340	0	26.648	0	220.927	0	-1e10	1	-1e10	1	-1E+10	1	-1e10	1	-1e10	1	-1E+10	1	-1E+10	1	-1E+10	1
4902624	22	C	01/27/2025	12:20	-125.871	47.183	0	223.00	0	6.5031	0	33.9340	0	26.648	0	221.026	0	79.2	4	26.5	4	-1E+10	1	0.0477	4	0.000275	0	-1E+10	1	-1E+10	1	-1E+10	1
4902624	22	C	01/27/2025	12:20	-125.871	47.183	0	224.00	0	6.4941	0	33.9340	0	26.650	0	222.017	0	78.9	4	26.4	4	-1E+10	1	0.0511	4	0.000297	0	-1E+10	1	-1E+10	1	-1E+10	1
4902624	22	C	01/27/2025	12:20	-125.871	47.183	0	224.90	0	6.4860	0	33.9340	0	26.651	0	222.908	0	-1e10	1	-1e10	1	-1E+10	1	-1e10	1	-1e10	1	-1E+10	1	-1E+10	1	-1E+10	1
4902624	22	C	01/27/2025	12:20	-125.871	47.183	0	225.10	0	6.4830	0	33.9340	0	26.651	0	223.106	0	78.8	4	26.3	4	-1E+10	1	0.0511	4	0.000274	0	-1E+10	1	-1E+10	1	-1E+10	1
4902624	22	C	01/27/2025	12:20	-125.871	47.183	0	226.20	0	6.4668	0	33.9340	0	26.653	0	224.196	0	78.6	4	26.3	4	-1E+10	1	0.0511	4	0.000310	0	-1E+10	1	-1E+10	1	-1E+10	1
4902624	22	C	01/27/2025	12:20	-125.871	47.183	0	227.00	0	6.4550	0	33.9340	0	26.655	0	224.988	0	-1e10	1	-1e10	1	-1E+10	1	-1e10	1	-1e10	1	-1E+10	1	-1E+10	1	-1E+10	1
4902624	22	C	01/27/2025	12:20	-125.871	47.183	0	227.30	0	6.4516	0	33.9339	0	26.655	0	225.286	0	78.6	4	26.2	4	-1E+10	1	0.0511	4	0.000330	0	-1E+10	1	-1E+10	1	-1E+10	1
4902624	22	C	01/27/2025	12:20	-125.871	47.183	0	228.40	0	6.4390	0	33.9333	0	26.656	0	226.375	0	78.5	4	26.2	4	-1E+10	1	0.0657	4	0.000295	0	-1E+10	1	-1E+10	1	-1E+10	1
4902624	22	C	01/27/2025	12:20	-125.871	47.183	0	229.10	0	6.4310	0	33.9330	0	26.657	0	227.069	0	-1e10	1	-1e10	1	-1E+10	1	-1e10	1	-1e10	1	-1E+10	1	-1E+10	1	-1E+10	1
4902624	22	C	01/27/2025	12:20	-125.871	47.183	0	229.50	0	6.4302	0	33.9328	0	26.657	0	227.465	0	78.5	4	26.2	4	-1E+10	1	0.0533	4	0.000265	0	-1E+10	1	-1E+10	1	-1E+10	1
4902624	22	C	01/27/2025	12:20	-125.871	47.183	0	230.60	0	6.4280	0	33.9323	0	26.657	0	228.554	0	78.4	4	26.2	4	-1E+10	1	0.0605	4	0.000265	0	-1E+10	1	-1E+10	1	-1E+10	1
4902624	22	C	01/27/2025	12:20	-125.871	47.183	0	231.10	0	6.4270	0	33.9320	0	26.657	0	229.050	0	-1e10	1	-1e10	1	-1E+10	1	-1e10	1	-1e10	1	-1E+10	1	-1E+10	1	-1E+10	1
4902624	22	C	01/27/2025	12:20	-125.871	47.183	0	231.80	0	6.4237	0	33.9320	0	26.657	0	229.743	0	78.3	4	26.1	4	-1E+10	1	0.0564	4	0.000255	0	-1E+10	1	-1E+10	1	-1E+10	1
4902624	22	C	01/27/2025	12:20	-125.871	47.183	0	232.90	0	6.4185	0	33.9320	0	26.658	0	230.833	0	78.3	4	26.1	4	-1E+10	1	0.0584	4	0.000254	0	-1E+10	1	-1E+10	1	-1E+10	1
4902624	22	C	01/27/2025	12:20	-125.871	47.183	0	233.00	0	6.4180	0	33.9320	0	26.658	0	230.932	0	-1e10	1	-1e10	1	-1E+10	1	-1e10	1	-1e10	1	-1E+10	1	-1E+10	1	-1E+10	1
4902624	22	C	01/27/2025	12:20	-125.871	47.183	0	234.00	0	6.4096	0	33.9320	0	26.659	0	231.922	0	78.3	4	26.1	4	-1E+10	1	0.0545	4	0.000262	0	-1E+10	1	-1E+10	1	-1E+10	1
4902624	22	C	01/27/2025	12:20	-125.871	47.183	0	234.90	0	6.4020	0	33.9320	0	26.660	0	232.814	0	-1e10	1	-1e10	1	-1E+10	1	-1e10	1	-1e10	1	-1E+10	1	-1E+10	1	-1E+10	1
4902624	22	C	01/27/2025	12:20	-125.871	47.183	0	235.10	0	6.4004	0	33.9320	0	26.660	0	233.012	0	78.3	4	26.1	4	-1E+10	1	0.0345	4	0.000264	0	-1E+10	1	-1E+10	1	-1E+10	1
4902624	22	C	01/27/2025	12:20	-125.871	47.183	0	236.20	0	6.3916	0	33.9320	0	26.662	0	234.102	0	78.3	4	26.1	4	-1E+10	1	0.0574	4	0.000250	0	-1E+10	1	-1E+10	1	-1E+10	1
4902624	22	C	01/27/2025	12:20	-125.871	47.183	0	236.90	0	6.3860	0	33.9320	0	26.662	0	234.795	0	-1e10	1	-1e10	1	-1E+10	1	-1e10	1	-1e10	1	-1E+10	1	-1E+10	1	-1E+10	1
4902624	22	C	01/27/2025	12:20	-125.871	47.183	0	237.40	0	6.3830	0	33.9320	0	26.663	0	235.290	0	78.4	4	26.1	4	-1E+10	1	0.0511	4	0.000260	0	-1E+10	1	-1E+10	1	-1E+10	1
4902624	22	C	01/27/2025	12:20	-125.871	47.183	0	238.50	0	6.3764	0	33.9320	0	26.664	0	236.380	0	78.5	4	26.2	4	-1E+10	1	0.0449	4	0.000240	0	-1E+10	1	-1E+10	1	-1E+10	1
4902624	22	C	01/27/2025	12:20	-125.871	47.183	0	238.90	0	6.3740	0	33.9320	0	26.664	0	236.776	0	-1e10	1	-1e10	1	-1E+10	1	-1e10	1	-1e10	1	-1E+10	1	-1E+10	1	-1E+10	1
4902624	22	C	01/27/2025	12:20	-125.871	47.183	0	239.60	0	6.3687	0	33.9317	0	26.664	0	237.469	0	78.6	4	26.2	4	-1E+10	1	0.0548	4	0.000254	0	-1E+10	1	-1E+10	1	-1E+10	1
4902624	22	C	01/27/2025	12:20	-125.871	47.183	0	240.80	0	6.3595	0	33.9311	0	26.665	0	238.658	0	78.7	4	26.2	4	-1E+10	1	0.0533	4	0.000252	0	-1E+10	1	-1E+10	1	-1E+10	1
4902624	22	C	01/27/2025	12:20	-125.871	47.183	0	241.00	0	6.3580	0	33.9310	0	26.665	0	238.856	0	-1e10	1	-1e10	1	-1E+10	1	-1e10	1	-1e10	1	-1E+10	1	-1E+10	1	-1E+10	1
4902624	22	C	01/27/2025	12:20	-125.871	47.183	0	241.90	0	6.3346	0	33.9305	0	26.668	0	239.748	0	78.8	4	26.2	4	-1E+10	1	0.0548	4	0.000254	0	-1E+10	1	-1E+10	1	-1E+10	1
4902624	22	C	01/27/2025	12:20	-125.871	47.183	0	243.00	0	6.3060	0	33.9300	0	26.671	0	240.837	0	78.1	4	26.0	4	-1E+10	1	0.0557	4	0.000260	0	-1E+10	1	-1E+10	1	-1E+10	1
4902624	22	C	01/27/2025	12:20	-125.871	47.183	0	244.20	0	6.2952	0	33.9288	0	26.672	0	242.026	0	78.8	4	26.2	4	-1E+10	1	0.0537	4	0.000260	0	-1E+10	1	-1E+10	1	-1E+10	1
4902624	22	C	01/27/2025	12:20	-125.871	47.183	0	245.00	0	6.2880	0	33.9280	0	26.672	0	242.818	0	-1e10	1	-1e10	1	-1E+10	1	-1e10	1	-1e10	1	-1E+10	1	-1E+10	1	-1E+10	1
4902624	22	C	01/27/2025	12:20	-125.871	47.183	0	245.30	0	6.2814	0	33.9282	0	26.673	0	243.115	0	78.8	4	26.2	4	-1E+10	1	0.0574	4	0.000260	0	-1E+10	1	-1E+10	1	-1E+10	1
4902624	22	C	01/27/2025	12:20	-125.871	47.183	0	246.50	0	6.2548	0	33.9288	0	26.677	0	244.304	0	78.7	4	26.2	4	-1E+10	1	0.0511	4	0.000260	0	-1E+10	1	-1E+10	1	-1E+10	1
4902624	22	C	01/27/2025	12:20	-125.871	47.183	0	246.90	0	6.2460	0	33.9290	0	26.678	0	244.700	0	-1e10	1	-1e10	1	-1E+10	1	-1e10	1	-1e10	1	-1E+10	1	-1E+10	1	-1E+10	1
4902624	22	C	01/27/2025	12:20	-125.871	47.183	0	247.60	0	6.2297	0	33.9277	0	26.679	0	245.394	0	78.5	4	26.1	4	-1E+10	1	0.0584	4	0.000248	0	-1E+10	1	-1E+10	1	-1E+10	1
4902624	22	C	01/27/2025	12:20	-125.871	47.183	0	248.80	0	6.2017	0	33.9254	0	26.681	0	246.582	0	78.3	4	26.0	4	-1E+10	1	0.0647	4	0.000235	0	-1E+10	1	-1E+10	1	-1E+10	1
4902624	22	C	01/27/2025	12:20	-125.871	47.183	0	249.00	0	6.1970	0	33.9250	0	26.681	0	246.780	0	-1e10	1	-1e10	1	-1E+10	1	-1e10	1	-1e10	1	-1E+10	1	-1E+10	1	-1E+10	1
4902624	22	C	01/27/2025	12:20	-125.871	47.183	0	249.90	0	6.1970	0	33.9250	0	26.681	0	247.672	0	77.9	4	25.9	4	-1E+10	1	0.0469	4	0.000280	0	-1E+10	1	-1E+10	1	-1E+10	1
4902624	22	C	01/27/2025	12:20	-125.871	47.183	0	251.00	0	6.1970	0	33.9250	0	26.681	0	248.761	0	-1e10	1	-1e10	1	-1E+10	1	-1e10	1	-1e10	1	-1E+10	1	-1E+10	1	-1E+10	1
4902624	22	C	01/27/2025	12:20	-125.871	47.183	0	251.10	0	6.1971	0	33.9250	0	26.681	0	248.860	0	77.6	4	25.7	4	-1E+10	1	0.0493	4	0.000286	0	-1E+10	1	-1E+10	1	-1E+10	1
4902624	22	C	01/27/2025	12:20	-125.871	47.183	0	252.30	0	6.1977	0	33.9250	0	26.681	0	250.049	0	77.2	4	25.6	4	-1E+10	1	0.0545	4	0.000244	0	-1E+10	1	-1E+10	1	-1E+10	1
4902624	22	C	01/27/2025	12:20	-125.871	47.183	0	252.90	0	6.1980	0	33.9250	0	26.681	0	250.643	0	-1e10	1	-1e10	1	-1E+10	1	-1e10	1	-1e10	1	-1E+10	1	-1E+10	1	-1E+10	1
4902624	22	C	01/27/2025	12:20	-125.871	47.183	0	253.40	0	6.1975	0	33.9255	0	26.682	0	251.138	0	76.7	4	25.5	4	-1E+10	1	0.0511	4	0.000243	0	-1E+10	1	-1E+10	1	-1E+10	1
4902624	22	C	01/27/2025	12:20	-125.871	47.183	0	254.50	0	6.1965	0	33.9265	0	26.682	0	252.228	0	76.2	4	25.3	4	-1E+10	1	0.0487	4	0.000279	0	-1E+10	1	-1E+10	1	-1E+10	1
4902624	22	C	01/27/2025	12:20	-125.871	47.183	0	255.00	0	6.1960	0	33.9270	0	26.683	0	252.723	0	-1e10	1	-1e10	1	-1E+10	1	-1e10	1	-1e10	1	-1E+10	1	-1E+10	1	-1E+10	1
4902624	22	C	01/27/2025	12:20	-125.871	47.183	0	255.70	0	6.2009	0	33.9291	0	26.684	0	253.416	0	76.0	4	25.2	4	-1E+10	1	0.0365	4	0.000260	0	-1E+10	1	-1E+10	1	-1E+10	1
4902624	22	C	01/27/2025	12:20	-125.871	47.183	0	256.80	0	6.2086	0	33.9324	0	26.686	0	254.506	0	75.8	4	25.2	4	-1E+10	1	0.0365	4	0.000260	0	-1E+10	1	-1E+10	1	-1E+10	1
4902624	22	C	01/27/2025	12:20	-125.871	47.183	0	257.00	0	6.2100	0	33.9330	0	26.686	0	254.704	0	-1e10	1	-1e10	1	-1E+10	1	-1e10	1	-1e10	1	-1E+10	1	-1E+10	1	-1E+10	1
4902624	22	C	01/27/2025	12:20	-125.871	47.183	0	257.90	0	6.2055	0	33.9325	0	26.686	0	255.595	0	75.7	4	25.1	4	-1E+10	1	0.0427	4	0.000240	0	-1E+10	1	-1E+10	1	-1E+10	1
4902624	22	C	01/27/2025	12:20	-125.871	47.183	0	259.00	0	6.2000	0	33.9320	0	26.686	0	256.685	0	75.0	4	24.9	4	-1E+10	1	0.0498	4	0.000255	0	-1E+10	1	-1E+10	1	-1E+10	1
4902624	22	C	01/27/2025	12:20	-125.871	47.183	0	260.20	0	6.1834	0	33.9314	0	26.688	0	257.873	0	75.4	4	25.0	4	-1E+10	1	0.0615	4	0.000419	0	-1E+10	1	-1E+10	1	-1E+10	1
4902624	22	C	01/27/2025	12:20	-125.871	47.183	0	261.10	0	6.1710	0	33.9310	0	26.689	0	258.765	0	-1e10	1	-1e10	1	-1E+10	1	-1e10	1	-1e10	1	-1E+10	1	-1E+10	1	-1E+10	1
4902624	22	C	01/27/2025	12:20	-125.871	47.183	0	261.30	0	6.1669	0	33.9310	0	26.690	0	258.963	0	75.1	4	24.9	4	-1E+10	1	0.0620	4	0.000359	0	-1E+10	1	-1E+10	1	-1E+10	1
4902624	22	C	01/27/2025	12:20	-125.871	47.183	0	262.50	0	6.1423	0	33.9310	0	26.693	0	260.151	0	74.7	4	24.8	4	-1E+10	1	0.0617	4	0.000241	0	-1E+10	1	-1E+10	1	-1E+10	1
4902624	22	C	01/27/2025	12:20	-125.871	47.183	0	263.00	0	6.1320	0	33.9310	0	26.694	0	260.647	0	-1e10	1	-1e10	1	-1E+10	1	-1e10	1	-1e10	1	-1E+10	1	-1E+10	1	-1E+10	1
4902624	22	C	01/27/2025	12:20	-125.871	47.183	0	263.60	0	6.1213	0	33.9310	0	26.696	0	261.241	0	74.3	4	24.6	4	-1E+10	1	0.0553	4	0.000256	0	-1E+10	1	-1E+10	1	-1E+10	1
4902624	22	C	01/27/2025	12:20	-125.871	47.183	0	264.70	0	6.1016	0	33.9310	0	26.698	0	262.330	0	74.0	4	24.5	4	-1E+10	1	0.0399	4	0.000277	0	-1E+10	1	-1E+10	1	-1E+10	1
4902624	22	C	01/27/2025	12:20	-125.871	47.183	0	264.90	0	6.0980	0	33.9310	0	26.699	0	262.528	0	-1e10	1	-1e10	1	-1E+10	1	-1e10	1	-1e10	1	-1E+10	1	-1E+10	1	-1E+10	1
4902624	22	C	01/27/2025	12:20	-125.871	47.183	0	265.80	0	6.0872	0	33.9319	0	26.701	0	263.420	0	73.5	4	24.3	4	-1E+10	1	0.0584	4	0.000306	0	-1E+10	1	-1E+10	1	-1E+10	1
4902624	22	C	01/27/2025	12:20	-125.871	47.183	0	266.90	0	6.0740	0	33.9330	0	26.703	0	264.509	0	72.5	4	24.0	4	-1E+10	1	0.0511	4	0.000279	0	-1E+10	1	-1E+10	1	-1E+10	1
4902624	22	C	01/27/2025	12:20	-125.871	47.183	0	268.10	0	6.0597	0	33.9341	0	26.706	0	265.698	0	72.7	4	24.1	4	-1E+10	1	0.0511	4	0.000272	0	-1E+10	1	-1E+10	1	-1E+10	1
4902624	22	C	01/27/2025	12:20	-125.871	47.183	0	269.00	0	6.0490	0	33.9350	0	26.708	0	266.589	0	-1e10	1	-1e10	1	-1E+10	1	-1e10	1	-1e10	1	-1E+10	1	-1E+10	1	-1E+10	1
4902624	22	C	01/27/2025	12:20	-125.871	47.183	0	269.20	0	6.0470	0	33.9350	0	26.708	0	266.787	0	72.3	4	23.9	4	-1E+10	1	0.0460	4	0.000247	0	-1E+10	1	-1E+10	1	-1E+10	1
4902624	22	C	01/27/2025	12:20	-125.871	47.183	0	270.30	0	6.0360	0	33.9350	0	26.710	0	267.877	0	71.8	4	23.8	4	-1E+10	1	0.0523	4	0.000270	0	-1E+10	1	-1E+10	1	-1E+10	1
4902624	22	C	01/27/2025	12:20	-125.871	47.183	0	271.00	0	6.0290	0	33.9350	0	26.711	0	268.570	0	-1e10	1	-1e10	1	-1E+10	1	-1e10	1	-1e10	1	-1E+10	1	-1E+10	1	-1E+10	1
4902624	22	C	01/27/2025	12:20	-125.871	47.183	0	271.40	0	6.0266	0	33.9350	0	26.711	0	268.966	0	71.3	4	23.6	4	-1E+10	1	0.0550	4	0.000262	0	-1E+10	1	-1E+10	1	-1E+10	1
4902624	22	C	01/27/2025	12:20	-125.871	47.183	0	272.60	0	6.0194	0	33.9350	0	26.712	0	270.155	0	70.7	4	23.4	4	-1E+10	1	0.0537	4	0.000233	0	-1E+10	1	-1E+10	1	-1E+10	1
4902624	22	C	01/27/2025	12:20	-125.871	47.183	0	273.00	0	6.0170	0	33.9350	0	26.712	0	270.551	0	-1e10	1	-1e10	1	-1E+10	1	-1e10	1	-1e10	1	-1E+10	1	-1E+10	1	-1E+10	1
4902624	22	C	01/27/2025	12:20	-125.871	47.183	0	273.70	0	6.0160	0	33.9350	0	26.712	0	271.244	0	69.9	4	23.1	4	-1E+10	1	0.0571	4	0.000246	0	-1E+10	1	-1E+10	1	-1E+10	1
4902624	22	C	01/27/2025	12:20	-125.871	47.183	0	274.80	0	6.0143	0	33.9350	0	26.712	0	272.333	0	69.1	4	22.8	4	-1E+10	1	0.0500	4	0.000234	0	-1E+10	1	-1E+10	1	-1E+10	1
4902624	22	C	01/27/2025	12:20	-125.871	47.183	0	275.00	0	6.0140	0	33.9350	0	26.712	0	272.531	0	-1e10	1	-1e10	1	-1E+10	1	-1e10	1	-1e10	1	-1E+10	1	-1E+10	1	-1E+10	1
4902624	22	C	01/27/2025	12:20	-125.871	47.183	0	275.90	0	6.0248	0	33.9399	0	26.715	0	273.423	0	68.5	4	22.6	4	-1E+10	1	0.0438	4	0.000224	0	-1E+10	1	-1E+10	1	-1E+10	1
4902624	22	C	01/27/2025	12:20	-125.871	47.183	0	277.00	0	6.0380	0	33.9460	0	26.718	0	274.512	0	67.5	4	22.3	4	-1E+10	1	0.0376	4	0.000214	0	-1E+10	1	-1E+10	1	-1E+10	1
4902624	22	C	01/27/2025	12:20	-125.871	47.183	0	278.10	0	5.9940	0	33.9444	0	26.722	0	275.602	0	67.4	4	22.3	4	-1E+10	1	0.0604	4	0.000376	0	-1E+10	1	-1E+10	1	-1E+10	1
4902624	22	C	01/27/2025	12:20	-125.871	47.183	0	279.00	0	5.9580	0	33.9430	0	26.726	0	276.493	0	-1e10	1	-1e10	1	-1E+10	1	-1e10	1	-1e10	1	-1E+10	1	-1E+10	1	-1E+10	1
4902624	22	C	01/27/2025	12:20	-125.871	47.183	0	279.20	0	5.9539	0	33.9429	0	26.726	0	276.691	0	66.6	4	22.0	4	-1E+10	1	0.0556	4	0.000323	0	-1E+10	1	-1E+10	1	-1E+10	1
4902624	22	C	01/27/2025	12:20	-125.871	47.183	0	280.30	0	5.9313	0	33.9424	0	26.729	0	277.780	0	65.7	4	21.7	4	-1E+10	1	0.0511	4	0.000258	0	-1E+10	1	-1E+10	1	-1E+10	1
4902624	22	C	01/27/2025	12:20	-125.871	47.183	0	281.00	0	5.9170	0	33.9420	0	26.730	0	278.474	0	-1e10	1	-1e10	1	-1E+10	1	-1e10	1	-1e10	1	-1E+10	1	-1E+10	1	-1E+10	1
4902624	22	C	01/27/2025	12:20	-125.871	47.183	0	281.40	0	5.9266	0	33.9434	0	26.730	0	278.870	0	64.6	4	21.3	4	-1E+10	1	0.0511	4	0.000241	0	-1E+10	1	-1E+10	1	-1E+10	1
4902624	22	C	01/27/2025	12:20	-125.871	47.183	0	282.50	0	5.9530	0	33.9473	0	26.730	0	279.959	0	63.8	4	21.1	4	-1E+10	1	0.0489	4	0.000248	0	-1E+10	1	-1E+10	1	-1E+10	1
4902624	22	C	01/27/2025	12:20	-125.871	47.183	0	283.00	0	5.9650	0	33.9490	0	26.730	0	280.454	0	-1e10	1	-1e10	1	-1E+10	1	-1e10	1	-1e10	1	-1E+10	1	-1E+10	1	-1E+10	1
4902624	22	C	01/27/2025	12:20	-125.871	47.183	0	283.60	0	5.9862	0	33.9544	0	26.731	0	281.048	0	63.5	4	21.0	4	-1E+10	1	0.0449	4	0.000248	0	-1E+10	1	-1E+10	1	-1E+10	1
4902624	22	C	01/27/2025	12:20	-125.871	47.183	0	284.70	0	6.0249	0	33.9642	0	26.734	0	282.138	0	63.5	4	21.0	4	-1E+10	1	0.0511	4	0.000248	0	-1E+10	1	-1E+10	1	-1E+10	1
4902624	22	C	01/27/2025	12:20	-125.871	47.183	0	284.90	0	6.0320	0	33.9660	0	26.735	0	282.336	0	-1e10	1	-1e10	1	-1E+10	1	-1e10	1	-1e10	1	-1E+10	1	-1E+10	1	-1E+10	1
4902624	22	C	01/27/2025	12:20	-125.871	47.183	0	285.80	0	6.0248	0	33.9660	0	26.736	0	283.227	0	63.5	4	21.0	4	-1E+10	1	0.0511	4	0.000283	0	-1E+10	1	-1E+10	1	-1E+10	1
4902624	22	C	01/27/2025	12:20	-125.871	47.183	0	286.90	0	6.0160	0	33.9660	0	26.737	0	284.316	0	63.0	4	20.8	4	-1E+10	1	0.0511	4	0.000246	0	-1E+10	1	-1E+10	1	-1E+10	1
4902624	22	C	01/27/2025	12:20	-125.871	47.183	0	288.00	0	5.9940	0	33.9644	0	26.738	0	285.406	0	63.4	4	21.0	4	-1E+10	1	0.0405	4	0.000244	0	-1E+10	1	-1E+10	1	-1E+10	1
4902624	22	C	01/27/2025	12:20	-125.871	47.183	0	288.90	0	5.9760	0	33.9630	0	26.739	0	286.297	0	-1e10	1	-1e10	1	-1E+10	1	-1e10	1	-1e10	1	-1E+10	1	-1E+10	1	-1E+10	1
4902624	22	C	01/27/2025	12:20	-125.871	47.183	0	289.10	0	5.9734	0	33.9628	0	26.740	0	286.495	0	63.3	4	20.9	4	-1E+10	1	0.0418	4	0.000239	0	-1E+10	1	-1E+10	1	-1E+10	1
4902624	22	C	01/27/2025	12:20	-125.871	47.183	0	290.30	0	5.9578	0	33.9616	0	26.741	0	287.683	0	63.0	4	20.8	4	-1E+10	1	0.0539	4	0.000244	0	-1E+10	1	-1E+10	1	-1E+10	1
4902624	22	C	01/27/2025	12:20	-125.871	47.183	0	290.90	0	5.9500	0	33.9610	0	26.741	0	288.278	0	-1e10	1	-1e10	1	-1E+10	1	-1e10	1	-1e10	1	-1E+10	1	-1E+10	1	-1E+10	1
4902624	22	C	01/27/2025	12:20	-125.871	47.183	0	291.30	0	5.9348	0	33.9606	0	26.743	0	288.674	0	62.8	4	20.7	4	-1E+10	1	0.0550	4	0.000231	0	-1E+10	1	-1E+10	1	-1E+10	1
4902624	22	C	01/27/2025	12:20	-125.871	47.183	0	292.50	0	5.8892	0	33.9594	0	26.747	0	289.862	0	62.3	4	20.5	4	-1E+10	1	0.0544	4	0.000228	0	-1E+10	1	-1E+10	1	-1E+10	1
4902624	22	C	01/27/2025	12:20	-125.871	47.183	0	292.90	0	5.8740	0	33.9590	0	26.749	0	290.258	0	-1e10	1	-1e10	1	-1E+10	1	-1e10	1	-1e10	1	-1E+10	1	-1E+10	1	-1E+10	1
4902624	22	C	01/27/2025	12:20	-125.871	47.183	0	293.60	0	5.8719	0	33.9594	0	26.750	0	290.951	0	61.8	4	20.4	4	-1E+10	1	0.0581	4	0.000247	0	-1E+10	1	-1E+10	1	-1E+10	1
4902624	22	C	01/27/2025	12:20	-125.871	47.183	0	294.90	0	5.8680	0	33.9600	0	26.751	0	292.239	0	-1e10	1	-1e10	1	-1E+10	1	-1e10	1	-1e10	1	-1E+10	1	-1E+10	1	-1E+10	1
4902624	22	C	01/27/2025	12:20	-125.871	47.183	0	297.00	0	5.8800	0	33.9630	0	26.751	0	294.318	0	-1e10	1	-1e10	1	-1E+10	1	-1e10	1	-1e10	1	-1E+10	1	-1E+10	1	-1E+10	1
4902624	22	C	01/27/2025	12:20	-125.871	47.183	0	299.10	0	5.8840	0	33.9650	0	26.753	0	296.398	0	-1e10	1	-1e10	1	-1E+10	1	-1e10	1	-1e10	1	-1E+10	1	-1E+10	1	-1E+10	1
4902624	22	C	01/27/2025	12:20	-125.871	47.183	0	304.60	0	5.9294	0	33.9790	0	26.758	0	301.844	0	54.5	4	18.0	4	-1E+10	1	0.0514	4	0.000246	0	-1E+10	1	-1E+10	1	-1E+10	1
4902624	22	C	01/27/2025	12:20	-125.871	47.183	0	305.40	0	5.9360	0	33.9810	0	26.759	0	302.636	0	-1e10	1	-1e10	1	-1E+10	1	-1e10	1	-1e10	1	-1E+10	1	-1E+10	1	-1E+10	1
4902624	22	C	01/27/2025	12:20	-125.871	47.183	0	315.00	0	5.9320	0	34.0050	0	26.778	0	312.142	0	-1e10	1	-1e10	1	-1E+10	1	-1e10	1	-1e10	1	-1E+10	1	-1E+10	1	-1E+10	1
4902624	22	C	01/27/2025	12:20	-125.871	47.183	0	315.80	0	5.9269	0	34.0056	0	26.780	0	312.934	0	50.5	4	16.7	4	-1E+10	1	0.0576	4	0.000223	0	-1E+10	1	-1E+10	1	-1E+10	1
4902624	22	C	01/27/2025	12:20	-125.871	47.183	0	325.20	0	5.8670	0	34.0130	0	26.793	0	322.242	0	-1e10	1	-1e10	1	-1E+10	1	-1e10	1	-1e10	1	-1E+10	1	-1E+10	1	-1E+10	1
4902624	22	C	01/27/2025	12:20	-125.871	47.183	0	327.20	0	5.8514	0	34.0134	0	26.795	0	324.222	0	48.9	4	16.1	4	-1E+10	1	0.0377	4	0.000212	0	-1E+10	1	-1E+10	1	-1E+10	1
4902624	22	C	01/27/2025	12:20	-125.871	47.183	0	335.30	0	5.7880	0	34.0150	0	26.804	0	332.242	0	-1e10	1	-1e10	1	-1E+10	1	-1e10	1	-1e10	1	-1E+10	1	-1E+10	1	-1E+10	1
4902624	22	C	01/27/2025	12:20	-125.871	47.183	0	338.90	0	5.7579	0	34.0161	0	26.809	0	335.806	0	47.4	4	15.6	4	-1E+10	1	0.0651	4	0.000212	0	-1E+10	1	-1E+10	1	-1E+10	1
4902624	22	C	01/27/2025	12:20	-125.871	47.183	0	345.00	0	5.7070	0	34.0180	0	26.817	0	341.845	0	-1e10	1	-1e10	1	-1E+10	1	-1e10	1	-1e10	1	-1E+10	1	-1E+10	1	-1E+10	1
4902624	22	C	01/27/2025	12:20	-125.871	47.183	0	350.80	0	5.6502	0	34.0197	0	26.825	0	347.587	0	45.7	4	15.0	4	-1E+10	1	0.0511	4	0.000225	0	-1E+10	1	-1E+10	1	-1E+10	1
4902624	22	C	01/27/2025	12:20	-125.871	47.183	0	355.00	0	5.6090	0	34.0210	0	26.831	0	351.745	0	-1e10	1	-1e10	1	-1E+10	1	-1e10	1	-1e10	1	-1E+10	1	-1E+10	1	-1E+10	1
4902624	22	C	01/27/2025	12:20	-125.871	47.183	0	363.10	0	5.5828	0	34.0294	0	26.841	0	359.764	0	43.2	4	14.2	4	-1E+10	1	0.0514	4	0.000258	0	-1E+10	1	-1E+10	1	-1E+10	1
4902624	22	C	01/27/2025	12:20	-125.871	47.183	0	364.60	0	5.5780	0	34.0310	0	26.843	0	361.249	0	-1e10	1	-1e10	1	-1E+10	1	-1e10	1	-1e10	1	-1E+10	1	-1E+10	1	-1E+10	1
4902624	22	C	01/27/2025	12:20	-125.871	47.183	0	373.50	0	5.5212	0	34.0352	0	26.853	0	370.059	0	41.9	4	13.7	4	-1E+10	1	0.0584	4	0.000246	0	-1E+10	1	-1E+10	1	-1E+10	1
4902624	22	C	01/27/2025	12:20	-125.871	47.183	0	375.10	0	5.5110	0	34.0360	0	26.855	0	371.643	0	-1e10	1	-1e10	1	-1E+10	1	-1e10	1	-1e10	1	-1E+10	1	-1E+10	1	-1E+10	1
4902624	22	C	01/27/2025	12:20	-125.871	47.183	0	381.80	0	5.4506	0	34.0373	0	26.863	0	378.275	0	40.8	4	13.3	4	-1E+10	1	0.0584	4	0.000211	0	-1E+10	1	-1E+10	1	-1E+10	1
4902624	22	C	01/27/2025	12:20	-125.871	47.183	0	385.30	0	5.4190	0	34.0380	0	26.868	0	381.740	0	-1e10	1	-1e10	1	-1E+10	1	-1e10	1	-1e10	1	-1E+10	1	-1E+10	1	-1E+10	1
4902624	22	C	01/27/2025	12:20	-125.871	47.183	0	390.30	0	5.4113	0	34.0436	0	26.873	0	386.689	0	39.0	4	12.7	4	-1E+10	1	0.0581	4	0.000199	0	-1E+10	1	-1E+10	1	-1E+10	1
4902624	22	C	01/27/2025	12:20	-125.871	47.183	0	395.10	0	5.4040	0	34.0490	0	26.878	0	391.440	0	-1e10	1	-1e10	1	-1E+10	1	-1e10	1	-1e10	1	-1E+10	1	-1E+10	1	-1E+10	1
4902624	22	C	01/27/2025	12:20	-125.871	47.183	0	399.00	0	5.3737	0	34.0494	0	26.882	0	395.300	0	38.1	4	12.4	4	-1E+10	1	0.0516	4	0.000189	0	-1E+10	1	-1E+10	1	-1E+10	1
4902624	22	C	01/27/2025	12:20	-125.871	47.183	0	405.00	0	5.3270	0	34.0500	0	26.888	0	401.239	0	-1e10	1	-1e10	1	-1E+10	1	-1e10	1	-1e10	1	-1E+10	1	-1E+10	1	-1E+10	1
4902624	22	C	01/27/2025	12:20	-125.871	47.183	0	407.90	0	5.3157	0	34.0514	0	26.891	0	404.109	0	36.9	4	12.0	4	-1E+10	1	0.0652	4	0.000212	0	-1E+10	1	-1E+10	1	-1E+10	1
4902624	22	C	01/27/2025	12:20	-125.871	47.183	0	415.00	0	5.2880	0	34.0550	0	26.897	0	411.136	0	-1e10	1	-1e10	1	-1E+10	1	-1e10	1	-1e10	1	-1E+10	1	-1E+10	1	-1E+10	1
4902624	22	C	01/27/2025	12:20	-125.871	47.183	0	417.00	0	5.2828	0	34.0567	0	26.899	0	413.115	0	35.4	4	11.5	4	-1E+10	1	0.0511	4	0.000222	0	-1E+10	1	-1E+10	1	-1E+10	1
4902624	22	C	01/27/2025	12:20	-125.871	47.183	0	425.30	0	5.2610	0	34.0640	0	26.907	0	421.329	0	-1e10	1	-1e10	1	-1E+10	1	-1e10	1	-1e10	1	-1E+10	1	-1E+10	1	-1E+10	1
4902624	22	C	01/27/2025	12:20	-125.871	47.183	0	426.30	0	5.2574	0	34.0647	0	26.908	0	422.319	0	33.8	4	11.0	4	-1E+10	1	0.0514	4	0.000188	0	-1E+10	1	-1E+10	1	-1E+10	1
4902624	22	C	01/27/2025	12:20	-125.871	47.183	0	435.20	0	5.2250	0	34.0710	0	26.917	0	431.127	0	-1e10	1	-1e10	1	-1E+10	1	-1e10	1	-1e10	1	-1E+10	1	-1E+10	1	-1E+10	1
4902624	22	C	01/27/2025	12:20	-125.871	47.183	0	435.90	0	5.2218	0	34.0711	0	26.917	0	431.819	0	32.8	4	10.6	4	-1E+10	1	0.0586	4	0.000199	0	-1E+10	1	-1E+10	1	-1E+10	1
4902624	22	C	01/27/2025	12:20	-125.871	47.183	0	445.20	0	5.1800	0	34.0730	0	26.924	0	441.023	0	-1e10	1	-1e10	1	-1E+10	1	-1e10	1	-1e10	1	-1E+10	1	-1E+10	1	-1E+10	1
4902624	22	C	01/27/2025	12:20	-125.871	47.183	0	445.80	0	5.1758	0	34.0734	0	26.925	0	441.616	0	31.3	4	10.1	4	-1E+10	1	0.0654	4	0.000200	0	-1E+10	1	-1E+10	1	-1E+10	1
4902624	22	C	01/27/2025	12:20	-125.871	47.183	0	455.00	0	5.1110	0	34.0800	0	26.937	0	450.720	0	-1e10	1	-1e10	1	-1E+10	1	-1e10	1	-1e10	1	-1E+10	1	-1E+10	1	-1E+10	1
4902624	22	C	01/27/2025	12:20	-125.871	47.183	0	455.90	0	5.1058	0	34.0809	0	26.939	0	451.611	0	29.2	4	9.5	4	-1E+10	1	0.0581	4	0.000210	0	-1E+10	1	-1E+10	1	-1E+10	1
4902624	22	C	01/27/2025	12:20	-125.871	47.183	0	464.80	0	5.0540	0	34.0900	0	26.952	0	460.417	0	-1e10	1	-1e10	1	-1E+10	1	-1e10	1	-1e10	1	-1E+10	1	-1E+10	1	-1E+10	1
4902624	22	C	01/27/2025	12:20	-125.871	47.183	0	466.40	0	5.0490	0	34.0910	0	26.953	0	462.000	0	27.6	4	8.9	4	-1E+10	1	0.0511	4	0.000176	0	-1E+10	1	-1E+10	1	-1E+10	1
4902624	22	C	01/27/2025	12:20	-125.871	47.183	0	474.80	0	5.0230	0	34.0960	0	26.960	0	470.311	0	-1e10	1	-1e10	1	-1E+10	1	-1e10	1	-1e10	1	-1E+10	1	-1E+10	1	-1E+10	1
4902624	22	C	01/27/2025	12:20	-125.871	47.183	0	477.10	0	5.0185	0	34.0976	0	26.962	0	472.587	0	26.2	4	8.5	4	-1E+10	1	0.0511	4	0.000187	0	-1E+10	1	-1E+10	1	-1E+10	1
4902624	22	C	01/27/2025	12:20	-125.871	47.183	0	485.00	0	5.0030	0	34.1030	0	26.968	0	480.403	0	-1e10	1	-1e10	1	-1E+10	1	-1e10	1	-1e10	1	-1E+10	1	-1E+10	1	-1E+10	1
4902624	22	C	01/27/2025	12:20	-125.871	47.183	0	488.10	0	4.9949	0	34.1052	0	26.971	0	483.470	0	24.8	4	8.0	4	-1E+10	1	0.0514	4	0.000187	0	-1E+10	1	-1E+10	1	-1E+10	1
4902624	22	C	01/27/2025	12:20	-125.871	47.183	0	494.90	0	4.9770	0	34.1100	0	26.977	0	490.198	0	-1e10	1	-1e10	1	-1E+10	1	-1e10	1	-1e10	1	-1E+10	1	-1E+10	1	-1E+10	1
4902624	22	C	01/27/2025	12:20	-125.871	47.183	0	499.40	0	4.9572	0	34.1123	0	26.981	0	494.649	0	23.5	4	7.6	4	-1E+10	1	0.0582	4	0.000177	0	-1E+10	1	-1E+10	1	-1E+10	1
4902624	22	C	01/27/2025	12:20	-125.871	47.183	0	504.90	0	4.9330	0	34.1150	0	26.986	0	500.091	0	-1e10	1	-1e10	1	-1E+10	1	-1e10	1	-1e10	1	-1E+10	1	-1E+10	1	-1E+10	1
4902624	22	C	01/27/2025	12:20	-125.871	47.183	0	511.30	0	4.9026	0	34.1187	0	26.992	0	506.422	0	22.1	4	7.1	4	-1E+10	1	0.0511	4	0.000209	0	-1E+10	1	-1E+10	1	-1E+10	1
4902624	22	C	01/27/2025	12:20	-125.871	47.183	0	515.20	0	4.8840	0	34.1210	0	26.996	0	510.280	0	-1e10	1	-1e10	1	-1E+10	1	-1e10	1	-1e10	1	-1E+10	1	-1E+10	1	-1E+10	1
4902624	22	C	01/27/2025	12:20	-125.871	47.183	0	523.40	0	4.8523	0	34.1259	0	27.004	0	518.391	0	20.6	4	6.6	4	-1E+10	1	0.0511	4	0.000176	0	-1E+10	1	-1E+10	1	-1E+10	1
4902624	22	C	01/27/2025	12:20	-125.871	47.183	0	525.30	0	4.8450	0	34.1270	0	27.005	0	520.271	0	-1e10	1	-1e10	1	-1E+10	1	-1e10	1	-1e10	1	-1E+10	1	-1E+10	1	-1E+10	1
4902624	22	C	01/27/2025	12:20	-125.871	47.183	0	535.00	0	4.8100	0	34.1360	0	27.017	0	529.865	0	-1e10	1	-1e10	1	-1E+10	1	-1e10	1	-1e10	1	-1E+10	1	-1E+10	1	-1E+10	1
4902624	22	C	01/27/2025	12:20	-125.871	47.183	0	535.70	0	4.8079	0	34.1365	0	27.017	0	530.558	0	19.2	4	6.2	4	-1E+10	1	0.0514	4	0.000186	0	-1E+10	1	-1E+10	1	-1E+10	1
4902624	22	C	01/27/2025	12:20	-125.871	47.183	0	545.20	0	4.7800	0	34.1430	0	27.026	0	539.954	0	-1e10	1	-1e10	1	-1E+10	1	-1e10	1	-1e10	1	-1E+10	1	-1E+10	1	-1E+10	1
4902624	22	C	01/27/2025	12:20	-125.871	47.183	0	548.20	0	4.7683	0	34.1457	0	27.029	0	542.922	0	17.9	4	5.7	4	-1E+10	1	0.0578	4	0.000154	0	-1E+10	1	-1E+10	1	-1E+10	1
4902624	22	C	01/27/2025	12:20	-125.871	47.183	0	555.20	0	4.7410	0	34.1520	0	27.037	0	549.845	0	-1e10	1	-1e10	1	-1E+10	1	-1e10	1	-1e10	1	-1E+10	1	-1E+10	1	-1E+10	1
4902624	22	C	01/27/2025	12:20	-125.871	47.183	0	560.70	0	4.7284	0	34.1564	0	27.042	0	555.285	0	16.8	4	5.4	4	-1E+10	1	0.0441	4	0.000221	0	-1E+10	1	-1E+10	1	-1E+10	1
4902624	22	C	01/27/2025	12:20	-125.871	47.183	0	565.20	0	4.7180	0	34.1600	0	27.046	0	559.735	0	-1e10	1	-1e10	1	-1E+10	1	-1e10	1	-1e10	1	-1E+10	1	-1E+10	1	-1E+10	1
4902624	22	C	01/27/2025	12:20	-125.871	47.183	0	573.20	0	4.6984	0	34.1673	0	27.054	0	567.647	0	15.7	4	5.0	4	-1E+10	1	0.0511	4	0.000197	0	-1E+10	1	-1E+10	1	-1E+10	1
4902624	22	C	01/27/2025	12:20	-125.871	47.183	0	575.00	0	4.6940	0	34.1690	0	27.056	0	569.427	0	-1e10	1	-1e10	1	-1E+10	1	-1e10	1	-1e10	1	-1E+10	1	-1E+10	1	-1E+10	1
4902624	22	C	01/27/2025	12:20	-125.871	47.183	0	585.10	0	4.6580	0	34.1750	0	27.065	0	579.415	0	-1e10	1	-1e10	1	-1E+10	1	-1e10	1	-1e10	1	-1E+10	1	-1E+10	1	-1E+10	1
4902624	22	C	01/27/2025	12:20	-125.871	47.183	0	585.30	0	4.6573	0	34.1752	0	27.065	0	579.613	0	14.9	4	4.8	4	-1E+10	1	0.0507	4	0.000176	0	-1E+10	1	-1E+10	1	-1E+10	1
4902624	22	C	01/27/2025	12:20	-125.871	47.183	0	593.50	0	4.6303	0	34.1826	0	27.074	0	587.721	0	14.0	4	4.5	4	-1E+10	1	0.0449	4	0.000209	0	-1E+10	1	-1E+10	1	-1E+10	1
4902624	22	C	01/27/2025	12:20	-125.871	47.183	0	595.10	0	4.6250	0	34.1840	0	27.076	0	589.304	0	-1e10	1	-1e10	1	-1E+10	1	-1e10	1	-1e10	1	-1E+10	1	-1E+10	1	-1E+10	1
4902624	22	C	01/27/2025	12:20	-125.871	47.183	0	601.80	0	4.5990	0	34.1902	0	27.083	0	595.929	0	13.3	4	4.3	4	-1E+10	1	0.0725	4	0.000198	0	-1E+10	1	-1E+10	1	-1E+10	1
4902624	22	C	01/27/2025	12:20	-125.871	47.183	0	604.90	0	4.5870	0	34.1930	0	27.087	0	598.994	0	-1e10	1	-1e10	1	-1E+10	1	-1e10	1	-1e10	1	-1E+10	1	-1E+10	1	-1E+10	1
4902624	22	C	01/27/2025	12:20	-125.871	47.183	0	610.20	0	4.5679	0	34.1988	0	27.094	0	604.235	0	12.6	4	4.0	4	-1E+10	1	0.0581	4	0.000198	0	-1E+10	1	-1E+10	1	-1E+10	1
4902624	22	C	01/27/2025	12:20	-125.871	47.183	0	614.90	0	4.5510	0	34.2040	0	27.100	0	608.882	0	-1e10	1	-1e10	1	-1E+10	1	-1e10	1	-1e10	1	-1E+10	1	-1E+10	1	-1E+10	1
4902624	22	C	01/27/2025	12:20	-125.871	47.183	0	618.80	0	4.5388	0	34.2074	0	27.104	0	612.738	0	12.1	4	3.9	4	-1E+10	1	0.0516	4	0.000186	0	-1E+10	1	-1E+10	1	-1E+10	1
4902624	22	C	01/27/2025	12:20	-125.871	47.183	0	625.10	0	4.5190	0	34.2130	0	27.110	0	618.967	0	-1e10	1	-1e10	1	-1E+10	1	-1e10	1	-1e10	1	-1E+10	1	-1E+10	1	-1E+10	1
4902624	22	C	01/27/2025	12:20	-125.871	47.183	0	627.60	0	4.5120	0	34.2148	0	27.113	0	621.439	0	11.6	4	3.7	4	-1E+10	1	0.0654	4	0.000175	0	-1E+10	1	-1E+10	1	-1E+10	1
4902624	22	C	01/27/2025	12:20	-125.871	47.183	0	635.10	0	4.4910	0	34.2200	0	27.119	0	628.854	0	-1e10	1	-1e10	1	-1E+10	1	-1e10	1	-1e10	1	-1E+10	1	-1E+10	1	-1E+10	1
4902624	22	C	01/27/2025	12:20	-125.871	47.183	0	636.30	0	4.4849	0	34.2208	0	27.120	0	630.040	0	11.0	4	3.5	4	-1E+10	1	0.0582	4	0.000197	0	-1E+10	1	-1E+10	1	-1E+10	1
4902624	22	C	01/27/2025	12:20	-125.871	47.183	0	645.00	0	4.4410	0	34.2270	0	27.130	0	638.641	0	-1e10	1	-1e10	1	-1E+10	1	-1e10	1	-1e10	1	-1E+10	1	-1E+10	1	-1E+10	1
4902624	22	C	01/27/2025	12:20	-125.871	47.183	0	645.30	0	4.4404	0	34.2272	0	27.130	0	638.938	0	10.8	4	3.5	4	-1E+10	1	0.0514	4	0.000185	0	-1E+10	1	-1E+10	1	-1E+10	1
4902624	22	C	01/27/2025	12:20	-125.871	47.183	0	654.50	0	4.4218	0	34.2318	0	27.136	0	648.033	0	10.4	4	3.3	4	-1E+10	1	0.0584	4	0.000174	0	-1E+10	1	-1E+10	1	-1E+10	1
4902624	22	C	01/27/2025	12:20	-125.871	47.183	0	654.90	0	4.4210	0	34.2320	0	27.136	0	648.428	0	-1e10	1	-1e10	1	-1E+10	1	-1e10	1	-1e10	1	-1E+10	1	-1E+10	1	-1E+10	1
4902624	22	C	01/27/2025	12:20	-125.871	47.183	0	663.80	0	4.4043	0	34.2373	0	27.142	0	657.226	0	10.0	4	3.2	4	-1E+10	1	0.0587	4	0.000174	0	-1E+10	1	-1E+10	1	-1E+10	1
4902624	22	C	01/27/2025	12:20	-125.871	47.183	0	665.00	0	4.4020	0	34.2380	0	27.143	0	658.412	0	-1e10	1	-1e10	1	-1E+10	1	-1e10	1	-1e10	1	-1E+10	1	-1E+10	1	-1E+10	1
4902624	22	C	01/27/2025	12:20	-125.871	47.183	0	673.40	0	4.3737	0	34.2447	0	27.152	0	666.716	0	9.7	4	3.1	4	-1E+10	1	0.0657	4	0.000177	0	-1E+10	1	-1E+10	1	-1E+10	1
4902624	22	C	01/27/2025	12:20	-125.871	47.183	0	675.10	0	4.3680	0	34.2460	0	27.153	0	668.396	0	-1e10	1	-1e10	1	-1E+10	1	-1e10	1	-1e10	1	-1E+10	1	-1E+10	1	-1E+10	1
4902624	22	C	01/27/2025	12:20	-125.871	47.183	0	683.20	0	4.3271	0	34.2509	0	27.162	0	676.402	0	9.3	4	3.0	4	-1E+10	1	0.0657	4	0.000252	0	-1E+10	1	-1E+10	1	-1E+10	1
4902624	22	C	01/27/2025	12:20	-125.871	47.183	0	685.00	0	4.3180	0	34.2520	0	27.163	0	678.182	0	-1e10	1	-1e10	1	-1E+10	1	-1e10	1	-1e10	1	-1E+10	1	-1E+10	1	-1E+10	1
4902624	22	C	01/27/2025	12:20	-125.871	47.183	0	693.20	0	4.2967	0	34.2586	0	27.171	0	686.287	0	9.1	4	2.9	4	-1E+10	1	0.0654	4	0.000152	0	-1E+10	1	-1E+10	1	-1E+10	1
4902624	22	C	01/27/2025	12:20	-125.871	47.183	0	695.00	0	4.2920	0	34.2600	0	27.173	0	688.066	0	-1e10	1	-1e10	1	-1E+10	1	-1e10	1	-1e10	1	-1E+10	1	-1E+10	1	-1E+10	1
4902624	22	C	01/27/2025	12:20	-125.871	47.183	0	703.60	0	4.2816	0	34.2635	0	27.177	0	696.565	0	8.9	4	2.8	4	-1E+10	1	0.0584	4	0.000195	0	-1E+10	1	-1E+10	1	-1E+10	1
4902624	22	C	01/27/2025	12:20	-125.871	47.183	0	704.90	0	4.2800	0	34.2640	0	27.177	0	697.850	0	-1e10	1	-1e10	1	-1E+10	1	-1e10	1	-1e10	1	-1E+10	1	-1E+10	1	-1E+10	1
4902624	22	C	01/27/2025	12:20	-125.871	47.183	0	714.20	0	4.2386	0	34.2649	0	27.182	0	707.041	0	8.8	4	2.8	4	-1E+10	1	0.0584	4	0.000151	0	-1E+10	1	-1E+10	1	-1E+10	1
4902624	22	C	01/27/2025	12:20	-125.871	47.183	0	715.00	0	4.2350	0	34.2650	0	27.183	0	707.832	0	-1e10	1	-1e10	1	-1E+10	1	-1e10	1	-1e10	1	-1E+10	1	-1E+10	1	-1E+10	1
4902624	22	C	01/27/2025	12:20	-125.871	47.183	0	725.00	0	4.2142	0	34.2739	0	27.192	0	717.715	0	8.5	4	2.7	4	-1E+10	1	0.0581	4	0.000162	0	-1E+10	1	-1E+10	1	-1E+10	1
4902624	22	C	01/27/2025	12:20	-125.871	47.183	0	725.10	0	4.2140	0	34.2740	0	27.192	0	717.813	0	-1e10	1	-1e10	1	-1E+10	1	-1e10	1	-1e10	1	-1E+10	1	-1E+10	1	-1E+10	1
4902624	22	C	01/27/2025	12:20	-125.871	47.183	0	735.00	0	4.1960	0	34.2780	0	27.197	0	727.597	0	-1e10	1	-1e10	1	-1E+10	1	-1e10	1	-1e10	1	-1E+10	1	-1E+10	1	-1E+10	1
4902624	22	C	01/27/2025	12:20	-125.871	47.183	0	736.10	0	4.1933	0	34.2784	0	27.198	0	728.684	0	8.4	4	2.7	4	-1E+10	1	0.0511	4	0.000162	0	-1E+10	1	-1E+10	1	-1E+10	1
4902624	22	C	01/27/2025	12:20	-125.871	47.183	0	745.00	0	4.1710	0	34.2820	0	27.203	0	737.478	0	-1e10	1	-1e10	1	-1E+10	1	-1e10	1	-1e10	1	-1E+10	1	-1E+10	1	-1E+10	1
4902624	22	C	01/27/2025	12:20	-125.871	47.183	0	747.30	0	4.1675	0	34.2831	0	27.204	0	739.751	0	8.2	4	2.6	4	-1E+10	1	0.0501	4	0.000173	0	-1E+10	1	-1E+10	1	-1E+10	1
4902624	22	C	01/27/2025	12:20	-125.871	47.183	0	755.40	0	4.1550	0	34.2870	0	27.209	0	747.755	0	-1e10	1	-1e10	1	-1E+10	1	-1e10	1	-1e10	1	-1E+10	1	-1E+10	1	-1E+10	1
4902624	22	C	01/27/2025	12:20	-125.871	47.183	0	758.70	0	4.1446	0	34.2877	0	27.210	0	751.015	0	8.1	4	2.6	4	-1E+10	1	0.0307	4	0.000161	0	-1E+10	1	-1E+10	1	-1E+10	1
4902624	22	C	01/27/2025	12:20	-125.871	47.183	0	765.20	0	4.1240	0	34.2890	0	27.214	0	757.438	0	-1e10	1	-1e10	1	-1E+10	1	-1e10	1	-1e10	1	-1E+10	1	-1E+10	1	-1E+10	1
4902624	22	C	01/27/2025	12:20	-125.871	47.183	0	770.20	0	4.1172	0	34.2937	0	27.218	0	762.378	0	18.0	4	5.7	4	-1E+10	1	0.0724	4	0.000139	0	-1E+10	1	-1E+10	1	-1E+10	1
4902624	22	C	01/27/2025	12:20	-125.871	47.183	0	774.70	0	4.1110	0	34.2980	0	27.222	0	766.824	0	-1e10	1	-1e10	1	-1E+10	1	-1e10	1	-1e10	1	-1E+10	1	-1E+10	1	-1E+10	1
4902624	22	C	01/27/2025	12:20	-125.871	47.183	0	782.00	0	4.0977	0	34.3015	0	27.227	0	774.036	0	15.8	4	5.0	4	-1E+10	1	0.0584	4	0.000150	0	-1E+10	1	-1E+10	1	-1E+10	1
4902624	22	C	01/27/2025	12:20	-125.871	47.183	0	785.10	0	4.0920	0	34.3030	0	27.228	0	777.099	0	-1e10	1	-1e10	1	-1E+10	1	-1e10	1	-1e10	1	-1E+10	1	-1E+10	1	-1E+10	1
4902624	22	C	01/27/2025	12:20	-125.871	47.183	0	793.80	0	4.0778	0	34.3092	0	27.235	0	785.694	0	18.1	4	5.7	4	-1E+10	1	0.0584	4	0.000149	0	-1E+10	1	-1E+10	1	-1E+10	1
4902624	22	C	01/27/2025	12:20	-125.871	47.183	0	794.90	0	4.0760	0	34.3100	0	27.236	0	786.781	0	-1e10	1	-1e10	1	-1E+10	1	-1e10	1	-1e10	1	-1E+10	1	-1E+10	1	-1E+10	1
4902624	22	C	01/27/2025	12:20	-125.871	47.183	0	805.00	0	4.0570	0	34.3140	0	27.241	0	796.758	0	-1e10	1	-1e10	1	-1E+10	1	-1e10	1	-1e10	1	-1E+10	1	-1E+10	1	-1E+10	1
4902624	22	C	01/27/2025	12:20	-125.871	47.183	0	805.40	0	4.0557	0	34.3143	0	27.241	0	797.153	0	17.4	4	5.5	4	-1E+10	1	0.0581	4	0.000146	0	-1E+10	1	-1E+10	1	-1E+10	1
4902624	22	C	01/27/2025	12:20	-125.871	47.183	0	815.10	0	4.0230	0	34.3210	0	27.250	0	806.735	0	-1e10	1	-1e10	1	-1E+10	1	-1e10	1	-1e10	1	-1E+10	1	-1E+10	1	-1E+10	1
4902624	22	C	01/27/2025	12:20	-125.871	47.183	0	817.00	0	4.0176	0	34.3228	0	27.252	0	808.612	0	15.4	4	4.9	4	-1E+10	1	0.0514	4	0.000148	0	-1E+10	1	-1E+10	1	-1E+10	1
4902624	22	C	01/27/2025	12:20	-125.871	47.183	0	824.60	0	3.9960	0	34.3300	0	27.260	0	816.119	0	-1e10	1	-1e10	1	-1E+10	1	-1e10	1	-1e10	1	-1E+10	1	-1E+10	1	-1E+10	1
4902624	22	C	01/27/2025	12:20	-125.871	47.183	0	828.50	0	3.9833	0	34.3335	0	27.264	0	819.971	0	15.0	4	4.7	4	-1E+10	1	0.0586	4	0.000126	0	-1E+10	1	-1E+10	1	-1E+10	1
4902624	22	C	01/27/2025	12:20	-125.871	47.183	0	834.70	0	3.9630	0	34.3390	0	27.271	0	826.095	0	-1e10	1	-1e10	1	-1E+10	1	-1e10	1	-1e10	1	-1E+10	1	-1E+10	1	-1E+10	1
4902624	22	C	01/27/2025	12:20	-125.871	47.183	0	840.40	0	3.9460	0	34.3423	0	27.275	0	831.725	0	8.2	4	2.6	4	-1E+10	1	0.0649	4	0.000137	0	-1E+10	1	-1E+10	1	-1E+10	1
4902624	22	C	01/27/2025	12:20	-125.871	47.183	0	845.10	0	3.9320	0	34.3450	0	27.279	0	836.367	0	-1e10	1	-1e10	1	-1E+10	1	-1e10	1	-1e10	1	-1E+10	1	-1E+10	1	-1E+10	1
4902624	22	C	01/27/2025	12:20	-125.871	47.183	0	849.00	0	3.9254	0	34.3458	0	27.280	0	840.219	0	8.2	4	2.6	4	-1E+10	1	0.0514	4	0.000138	0	-1E+10	1	-1E+10	1	-1E+10	1
4902624	22	C	01/27/2025	12:20	-125.871	47.183	0	855.10	0	3.9150	0	34.3470	0	27.282	0	846.244	0	-1e10	1	-1e10	1	-1E+10	1	-1e10	1	-1e10	1	-1E+10	1	-1E+10	1	-1E+10	1
4902624	22	C	01/27/2025	12:20	-125.871	47.183	0	856.90	0	3.9110	0	34.3477	0	27.283	0	848.022	0	7.7	4	2.4	4	-1E+10	1	0.0587	4	0.000161	0	-1E+10	1	-1E+10	1	-1E+10	1
4902624	22	C	01/27/2025	12:20	-125.871	47.183	0	864.90	0	3.8934	0	34.3509	0	27.287	0	855.922	0	7.5	4	2.4	4	-1E+10	1	0.0650	4	0.000172	0	-1E+10	1	-1E+10	1	-1E+10	1
4902624	22	C	01/27/2025	12:20	-125.871	47.183	0	865.10	0	3.8930	0	34.3510	0	27.287	0	856.120	0	-1e10	1	-1e10	1	-1E+10	1	-1e10	1	-1e10	1	-1E+10	1	-1E+10	1	-1E+10	1
4902624	22	C	01/27/2025	12:20	-125.871	47.183	0	873.10	0	3.8621	0	34.3573	0	27.296	0	864.020	0	7.6	4	2.4	4	-1E+10	1	0.0521	4	0.000172	0	-1E+10	1	-1E+10	1	-1E+10	1
4902624	22	C	01/27/2025	12:20	-125.871	47.183	0	875.20	0	3.8540	0	34.3590	0	27.298	0	866.094	0	-1e10	1	-1e10	1	-1E+10	1	-1e10	1	-1e10	1	-1E+10	1	-1E+10	1	-1E+10	1
4902624	22	C	01/27/2025	12:20	-125.871	47.183	0	881.60	0	3.8386	0	34.3622	0	27.302	0	872.414	0	7.6	4	2.4	4	-1E+10	1	0.0720	4	0.000172	0	-1E+10	1	-1E+10	1	-1E+10	1
4902624	22	C	01/27/2025	12:20	-125.871	47.183	0	885.20	0	3.8300	0	34.3640	0	27.304	0	875.969	0	-1e10	1	-1e10	1	-1E+10	1	-1e10	1	-1e10	1	-1E+10	1	-1E+10	1	-1E+10	1
4902624	22	C	01/27/2025	12:20	-125.871	47.183	0	890.30	0	3.8212	0	34.3666	0	27.307	0	881.005	0	7.8	4	2.5	4	-1E+10	1	0.0518	4	0.000163	0	-1E+10	1	-1E+10	1	-1E+10	1
4902624	22	C	01/27/2025	12:20	-125.871	47.183	0	895.00	0	3.8130	0	34.3690	0	27.310	0	885.646	0	-1e10	1	-1e10	1	-1E+10	1	-1e10	1	-1e10	1	-1E+10	1	-1E+10	1	-1E+10	1
4902624	22	C	01/27/2025	12:20	-125.871	47.183	0	899.20	0	3.8042	0	34.3711	0	27.313	0	889.793	0	7.9	4	2.5	4	-1E+10	1	0.0654	4	0.000214	0	-1E+10	1	-1E+10	1	-1E+10	1
4902624	22	C	01/27/2025	12:20	-125.871	47.183	0	905.00	0	3.7920	0	34.3740	0	27.316	0	895.520	0	-1e10	1	-1e10	1	-1E+10	1	-1e10	1	-1e10	1	-1E+10	1	-1E+10	1	-1E+10	1
4902624	22	C	01/27/2025	12:20	-125.871	47.183	0	908.20	0	3.7834	0	34.3756	0	27.318	0	898.680	0	8.1	4	2.5	4	-1E+10	1	0.0584	4	0.000114	0	-1E+10	1	-1E+10	1	-1E+10	1
4902624	22	C	01/27/2025	12:20	-125.871	47.183	0	915.00	0	3.7650	0	34.3790	0	27.323	0	905.394	0	-1e10	1	-1e10	1	-1E+10	1	-1e10	1	-1e10	1	-1E+10	1	-1E+10	1	-1E+10	1
4902624	22	C	01/27/2025	12:20	-125.871	47.183	0	917.60	0	3.7571	0	34.3803	0	27.325	0	907.961	0	9.9	4	3.1	4	-1E+10	1	0.0578	4	0.000126	0	-1E+10	1	-1E+10	1	-1E+10	1
4902624	22	C	01/27/2025	12:20	-125.871	47.183	0	924.90	0	3.7350	0	34.3840	0	27.330	0	915.168	0	-1e10	1	-1e10	1	-1E+10	1	-1e10	1	-1e10	1	-1E+10	1	-1E+10	1	-1E+10	1
4902624	22	C	01/27/2025	12:20	-125.871	47.183	0	927.00	0	3.7278	0	34.3852	0	27.332	0	917.242	0	45.0	4	14.1	4	-1E+10	1	0.0443	4	0.000148	0	-1E+10	1	-1E+10	1	-1E+10	1
4902624	22	C	01/27/2025	12:20	-125.871	47.183	0	935.10	0	3.7000	0	34.3900	0	27.338	0	925.238	0	-1e10	1	-1e10	1	-1E+10	1	-1e10	1	-1e10	1	-1E+10	1	-1E+10	1	-1E+10	1
4902624	22	C	01/27/2025	12:20	-125.871	47.183	0	936.80	0	3.6951	0	34.3907	0	27.339	0	926.917	0	49.0	4	15.4	4	-1E+10	1	0.0581	4	0.000149	0	-1E+10	1	-1E+10	1	-1E+10	1
4902624	22	C	01/27/2025	12:20	-125.871	47.183	0	945.20	0	3.6710	0	34.3940	0	27.344	0	935.209	0	-1e10	1	-1e10	1	-1E+10	1	-1e10	1	-1e10	1	-1E+10	1	-1E+10	1	-1E+10	1
4902624	22	C	01/27/2025	12:20	-125.871	47.183	0	946.80	0	3.6683	0	34.3946	0	27.345	0	936.789	0	50.5	4	15.8	4	-1E+10	1	0.0517	4	0.000161	0	-1E+10	1	-1E+10	1	-1E+10	1
4902624	22	C	01/27/2025	12:20	-125.871	47.183	0	955.10	0	3.6540	0	34.3980	0	27.349	0	944.982	0	-1e10	1	-1e10	1	-1E+10	1	-1e10	1	-1e10	1	-1E+10	1	-1E+10	1	-1E+10	1
4902624	22	C	01/27/2025	12:20	-125.871	47.183	0	957.00	0	3.6459	0	34.3988	0	27.351	0	946.858	0	19.9	4	6.2	4	-1E+10	1	0.0657	4	0.000181	0	-1E+10	1	-1E+10	1	-1E+10	1
4902624	22	C	01/27/2025	12:20	-125.871	47.183	0	965.00	0	3.6120	0	34.4020	0	27.357	0	954.755	0	-1e10	1	-1e10	1	-1E+10	1	-1e10	1	-1e10	1	-1E+10	1	-1E+10	1	-1E+10	1
4902624	22	C	01/27/2025	12:20	-125.871	47.183	0	967.50	0	3.6042	0	34.4027	0	27.358	0	957.223	0	38.5	4	12.0	4	-1E+10	1	0.0654	4	0.000126	0	-1E+10	1	-1E+10	1	-1E+10	1
4902624	22	C	01/27/2025	12:20	-125.871	47.183	0	975.20	0	3.5800	0	34.4050	0	27.362	0	964.823	0	-1e10	1	-1e10	1	-1E+10	1	-1e10	1	-1e10	1	-1E+10	1	-1E+10	1	-1E+10	1
4902624	22	C	01/27/2025	12:20	-125.871	47.183	0	978.10	0	3.5754	0	34.4056	0	27.363	0	967.686	0	42.2	4	13.2	4	-1E+10	1	0.0591	4	0.000171	0	-1E+10	1	-1E+10	1	-1E+10	1
4902624	22	C	01/27/2025	12:20	-125.871	47.183	0	985.20	0	3.5640	0	34.4070	0	27.365	0	974.693	0	-1e10	1	-1e10	1	-1E+10	1	-1e10	1	-1e10	1	-1E+10	1	-1E+10	1	-1E+10	1
4902624	22	C	01/27/2025	12:20	-125.871	47.183	0	988.90	0	3.5618	0	34.4092	0	27.367	0	978.345	0	47.5	4	14.9	4	-1E+10	1	0.0727	4	0.000171	0	-1E+10	1	-1E+10	1	-1E+10	1
4902624	22	C	01/27/2025	12:20	-125.871	47.183	0	995.10	0	3.5580	0	34.4130	0	27.371	0	984.465	0	-1e10	1	-1e10	1	-1E+10	1	-1e10	1	-1e10	1	-1E+10	1	-1E+10	1	-1E+10	1
4902624	22	C	01/27/2025	12:20	-125.871	47.183	0	1009.80	0	3.4979	0	34.4150	0	27.378	0	998.973	0	67.9	4	21.2	4	-1E+10	1	0.0584	4	0.000159	0	-1E+10	1	-1E+10	1	-1E+10	1
4902624	22	C	01/27/2025	12:20	-125.871	47.183	0	1024.70	0	3.4370	0	34.4170	0	27.386	0	1013.677	0	-1e10	1	-1e10	1	-1E+10	1	-1e10	1	-1e10	1	-1E+10	1	-1E+10	1	-1E+10	1
4902624	22	C	01/27/2025	12:20	-125.871	47.183	0	1032.30	0	3.4145	0	34.4184	0	27.389	0	1021.177	0	58.9	4	18.4	4	-1E+10	1	0.0582	4	0.000135	0	-1E+10	1	-1E+10	1	-1E+10	1
4902624	22	C	01/27/2025	12:20	-125.871	47.183	0	1049.80	0	3.3628	0	34.4215	0	27.397	0	1038.445	0	66.1	4	20.6	4	-1E+10	1	0.0511	4	0.000113	0	-1E+10	1	-1E+10	1	-1E+10	1
4902624	22	C	01/27/2025	12:20	-125.871	47.183	0	1066.20	0	3.3143	0	34.4245	0	27.404	0	1054.626	0	67.3	4	20.9	4	-1E+10	1	0.0511	4	0.000158	0	-1E+10	1	-1E+10	1	-1E+10	1
4902624	22	C	01/27/2025	12:20	-125.871	47.183	0	1074.40	0	3.2900	0	34.4260	0	27.407	0	1062.716	0	-1e10	1	-1e10	1	-1E+10	1	-1e10	1	-1e10	1	-1E+10	1	-1E+10	1	-1E+10	1
4902624	22	C	01/27/2025	12:20	-125.871	47.183	0	1083.40	0	3.2743	0	34.4287	0	27.411	0	1071.595	0	68.1	4	21.2	4	-1E+10	1	0.0512	4	0.000135	0	-1E+10	1	-1E+10	1	-1E+10	1
4902624	22	C	01/27/2025	12:20	-125.871	47.183	0	1102.20	0	3.2417	0	34.4342	0	27.418	0	1090.142	0	70.2	4	21.8	4	-1E+10	1	0.0583	4	0.000135	0	-1E+10	1	-1E+10	1	-1E+10	1
4902624	22	C	01/27/2025	12:20	-125.871	47.183	0	1121.90	0	3.2074	0	34.4401	0	27.426	0	1109.574	0	70.1	4	21.8	4	-1E+10	1	0.0514	4	0.000135	0	-1E+10	1	-1E+10	1	-1E+10	1
4902624	22	C	01/27/2025	12:20	-125.871	47.183	0	1125.00	0	3.2020	0	34.4410	0	27.428	0	1112.632	0	-1e10	1	-1e10	1	-1E+10	1	-1e10	1	-1e10	1	-1E+10	1	-1E+10	1	-1E+10	1
4902624	22	C	01/27/2025	12:20	-125.871	47.183	0	1142.20	0	3.1718	0	34.4448	0	27.434	0	1129.597	0	70.8	4	22.0	4	-1E+10	1	0.0656	4	0.000146	0	-1E+10	1	-1E+10	1	-1E+10	1
4902624	22	C	01/27/2025	12:20	-125.871	47.183	0	1163.30	0	3.1349	0	34.4494	0	27.441	0	1150.406	0	70.3	4	21.8	4	-1E+10	1	0.0583	4	0.000124	0	-1E+10	1	-1E+10	1	-1E+10	1
4902624	22	C	01/27/2025	12:20	-125.871	47.183	0	1175.20	0	3.1140	0	34.4520	0	27.445	0	1162.141	0	-1e10	1	-1e10	1	-1E+10	1	-1e10	1	-1e10	1	-1E+10	1	-1E+10	1	-1E+10	1
4902624	22	C	01/27/2025	12:20	-125.871	47.183	0	1184.40	0	3.1054	0	34.4555	0	27.448	0	1171.213	0	68.6	4	21.2	4	-1E+10	1	0.0511	4	0.000159	0	-1E+10	1	-1E+10	1	-1E+10	1
4902624	22	C	01/27/2025	12:20	-125.871	47.183	0	1205.60	0	3.0854	0	34.4636	0	27.457	0	1192.117	0	73.9	4	22.9	4	-1E+10	1	0.0514	4	0.000227	0	-1E+10	1	-1E+10	1	-1E+10	1
4902624	22	C	01/27/2025	12:20	-125.871	47.183	0	1225.20	0	3.0670	0	34.4710	0	27.465	0	1211.442	0	-1e10	1	-1e10	1	-1E+10	1	-1e10	1	-1e10	1	-1E+10	1	-1E+10	1	-1E+10	1
4902624	22	C	01/27/2025	12:20	-125.871	47.183	0	1226.80	0	3.0632	0	34.4715	0	27.465	0	1213.019	0	72.1	4	22.3	4	-1E+10	1	0.0653	4	0.000158	0	-1E+10	1	-1E+10	1	-1E+10	1
4902624	22	C	01/27/2025	12:20	-125.871	47.183	0	1248.80	0	3.0112	0	34.4786	0	27.476	0	1234.708	0	75.8	4	23.4	4	-1E+10	1	0.0438	4	0.000181	0	-1E+10	1	-1E+10	1	-1E+10	1
4902624	22	C	01/27/2025	12:20	-125.871	47.183	0	1271.60	0	2.9573	0	34.4860	0	27.487	0	1257.182	0	74.8	4	23.1	4	-1E+10	1	0.0439	4	0.000181	0	-1E+10	1	-1E+10	1	-1E+10	1
4902624	22	C	01/27/2025	12:20	-125.871	47.183	0	1274.70	0	2.9500	0	34.4870	0	27.488	0	1260.238	0	-1e10	1	-1e10	1	-1E+10	1	-1e10	1	-1e10	1	-1E+10	1	-1E+10	1	-1E+10	1
4902624	22	C	01/27/2025	12:20	-125.871	47.183	0	1294.40	0	2.8928	0	34.4924	0	27.498	0	1279.654	0	76.5	4	23.6	4	-1E+10	1	0.0511	4	0.000205	0	-1E+10	1	-1E+10	1	-1E+10	1
4902624	22	C	01/27/2025	12:20	-125.871	47.183	0	1316.60	0	2.8284	0	34.4985	0	27.508	0	1301.533	0	77.7	4	23.9	4	-1E+10	1	0.0513	4	0.000237	0	-1E+10	1	-1E+10	1	-1E+10	1
4902624	22	C	01/27/2025	12:20	-125.871	47.183	0	1325.70	0	2.8020	0	34.5010	0	27.513	0	1310.500	0	-1e10	1	-1e10	1	-1E+10	1	-1e10	1	-1e10	1	-1E+10	1	-1E+10	1	-1E+10	1
4902624	22	C	01/27/2025	12:20	-125.871	47.183	0	1332.00	0	2.7873	0	34.5021	0	27.515	0	1316.709	0	77.4	4	23.8	4	-1E+10	1	0.0584	4	0.000191	0	-1E+10	1	-1E+10	1	-1E+10	1
4902624	22	C	01/27/2025	12:20	-125.871	47.183	0	1348.30	0	2.7493	0	34.5051	0	27.521	0	1332.770	0	72.5	4	22.2	4	-1E+10	1	0.0581	4	0.000179	0	-1E+10	1	-1E+10	1	-1E+10	1
4902624	22	C	01/27/2025	12:20	-125.871	47.183	0	1366.00	0	2.7080	0	34.5084	0	27.527	0	1350.209	0	70.5	4	21.6	4	-1E+10	1	0.0440	4	0.000145	0	-1E+10	1	-1E+10	1	-1E+10	1
4902624	22	C	01/27/2025	12:20	-125.871	47.183	0	1375.00	0	2.6870	0	34.5100	0	27.530	0	1359.076	0	-1e10	1	-1e10	1	-1E+10	1	-1e10	1	-1e10	1	-1E+10	1	-1E+10	1	-1E+10	1
4902624	22	C	01/27/2025	12:20	-125.871	47.183	0	1383.90	0	2.6750	0	34.5116	0	27.533	0	1367.845	0	67.2	4	20.6	4	-1E+10	1	0.0584	4	0.000168	0	-1E+10	1	-1E+10	1	-1E+10	1
4902624	22	C	01/27/2025	12:20	-125.871	47.183	0	1403.00	0	2.6493	0	34.5151	0	27.538	0	1386.660	0	70.3	4	21.5	4	-1E+10	1	0.0581	4	0.000169	0	-1E+10	1	-1E+10	1	-1E+10	1
4902624	22	C	01/27/2025	12:20	-125.871	47.183	0	1424.70	0	2.6201	0	34.5190	0	27.543	0	1408.035	0	74.7	4	22.9	4	-1E+10	1	0.0442	4	0.000249	0	-1E+10	1	-1E+10	1	-1E+10	1
4902624	22	C	01/27/2025	12:20	-125.871	47.183	0	1424.80	0	2.6200	0	34.5190	0	27.543	0	1408.134	0	-1e10	1	-1e10	1	-1E+10	1	-1e10	1	-1e10	1	-1E+10	1	-1E+10	1	-1E+10	1
4902624	22	C	01/27/2025	12:20	-125.871	47.183	0	1446.40	0	2.5899	0	34.5242	0	27.550	0	1429.408	0	96.0	4	29.4	4	-1E+10	1	0.0655	4	0.000215	0	-1E+10	1	-1E+10	1	-1E+10	1
4902624	22	C	01/27/2025	12:20	-125.871	47.183	0	1469.00	0	2.5585	0	34.5295	0	27.557	0	1451.665	0	108.4	4	33.1	4	-1E+10	1	0.0583	4	0.000237	0	-1E+10	1	-1E+10	1	-1E+10	1
4902624	22	C	01/27/2025	12:20	-125.871	47.183	0	1475.10	0	2.5500	0	34.5310	0	27.559	0	1457.672	0	-1e10	1	-1e10	1	-1E+10	1	-1e10	1	-1e10	1	-1E+10	1	-1E+10	1	-1E+10	1
4902624	22	C	01/27/2025	12:20	-125.871	47.183	0	1491.60	0	2.5338	0	34.5330	0	27.562	0	1473.919	0	118.8	4	36.3	4	-1E+10	1	0.0513	4	0.000203	0	-1E+10	1	-1E+10	1	-1E+10	1
4902624	22	C	01/27/2025	12:20	-125.871	47.183	0	1514.30	0	2.5114	0	34.5357	0	27.566	0	1496.270	0	97.2	4	29.7	4	-1E+10	1	0.0585	4	0.000237	0	-1E+10	1	-1E+10	1	-1E+10	1
4902624	22	C	01/27/2025	12:20	-125.871	47.183	0	1524.90	0	2.5010	0	34.5370	0	27.568	0	1506.706	0	-1e10	1	-1e10	1	-1E+10	1	-1e10	1	-1e10	1	-1E+10	1	-1E+10	1	-1E+10	1
4902624	22	C	01/27/2025	12:20	-125.871	47.183	0	1537.30	0	2.4851	0	34.5387	0	27.571	0	1518.914	0	89.8	4	27.4	4	-1E+10	1	0.0657	4	0.000227	0	-1E+10	1	-1E+10	1	-1E+10	1
4902624	22	C	01/27/2025	12:20	-125.871	47.183	0	1561.10	0	2.4545	0	34.5420	0	27.577	0	1542.342	0	84.9	4	25.9	4	-1E+10	1	0.0653	4	0.000305	0	-1E+10	1	-1E+10	1	-1E+10	1
4902624	22	C	01/27/2025	12:20	-125.871	47.183	0	1575.50	0	2.4360	0	34.5440	0	27.580	0	1556.516	0	-1e10	1	-1e10	1	-1E+10	1	-1e10	1	-1e10	1	-1E+10	1	-1E+10	1	-1E+10	1
4902624	22	C	01/27/2025	12:20	-125.871	47.183	0	1578.20	0	2.4309	0	34.5446	0	27.581	0	1559.174	0	94.8	4	28.9	4	-1E+10	1	0.0512	4	0.000248	0	-1E+10	1	-1E+10	1	-1E+10	1
4902624	22	C	01/27/2025	12:20	-125.871	47.183	0	1594.40	0	2.4000	0	34.5483	0	27.586	0	1575.118	0	102.4	4	31.2	4	-1E+10	1	0.0582	4	0.000252	0	-1E+10	1	-1E+10	1	-1E+10	1
4902624	22	C	01/27/2025	12:20	-125.871	47.183	0	1611.30	0	2.3678	0	34.5521	0	27.592	0	1591.750	0	106.4	4	32.4	4	-1E+10	1	0.0513	4	0.000437	0	-1E+10	1	-1E+10	1	-1E+10	1
4902624	22	C	01/27/2025	12:20	-125.871	47.183	0	1624.30	0	2.3430	0	34.5550	0	27.596	0	1604.543	0	-1e10	1	-1e10	1	-1E+10	1	-1e10	1	-1e10	1	-1E+10	1	-1E+10	1	-1E+10	1
4902624	22	C	01/27/2025	12:20	-125.871	47.183	0	1628.70	0	2.3348	0	34.5560	0	27.598	0	1608.873	0	108.7	4	33.1	4	-1E+10	1	0.0583	4	0.000515	0	-1E+10	1	-1E+10	1	-1E+10	1
4902624	22	C	01/27/2025	12:20	-125.871	47.183	0	1647.40	0	2.2998	0	34.5603	0	27.604	0	1627.274	0	111.3	4	33.8	4	-1E+10	1	0.0511	4	0.000367	0	-1E+10	1	-1E+10	1	-1E+10	1
4902624	22	C	01/27/2025	12:20	-125.871	47.183	0	1667.40	0	2.2623	0	34.5648	0	27.611	0	1646.952	0	112.4	4	34.1	4	-1E+10	1	0.0513	4	0.000478	0	-1E+10	1	-1E+10	1	-1E+10	1
4902624	22	C	01/27/2025	12:20	-125.871	47.183	0	1668.10	0	2.2610	0	34.5650	0	27.611	0	1647.640	0	-1e10	1	-1e10	1	-1E+10	1	-1e10	1	-1e10	1	-1E+10	1	-1E+10	1	-1E+10	1
4902624	22	C	01/27/2025	12:20	-125.871	47.183	0	1684.80	0	-1e10	1	-1e10	1	-1e10	1	1664.070	0	115.1	4	-1e10	4	-1E+10	1	0.0584	4	0.000801	0	-1E+10	1	-1E+10	1	-1E+10	1
4902624	22	C	01/27/2025	12:20	-125.871	47.183	0																										
4902624	23	C	02/06/2025	12:24	-126.046	47.583	0	0.10	0	8.7833	8	32.3757	8	25.097	0	0.099	0	-1e10	1	-1e10	1	-1E+10	1	0.7154	4	0.000768	0	-1E+10	1	-1E+10	1	-1E+10	1
4902624	23	C	02/06/2025	12:24	-126.046	47.583	0	0.40	0	8.8828	8	32.3017	8	25.024	0	0.397	0	260.0	4	90.6	4	-1E+10	1	0.7227	4	0.000721	0	-1E+10	1	-1E+10	1	-1E+10	1
4902624	23	C	02/06/2025	12:24	-126.046	47.583	0	0.50	0	8.9160	8	32.2770	8	25.000	0	0.496	0	-1e10	1	-1e10	1	-1E+10	1	-1e10	1	-1e10	1	-1E+10	1	-1E+10	1	-1E+10	1
4902624	23	C	02/06/2025	12:24	-126.046	47.583	0	0.90	0	8.9208	8	32.2754	8	24.998	0	0.892	0	-1e10	1	-1e10	1	-1E+10	1	0.6935	4	0.000803	0	-1E+10	1	-1E+10	1	-1E+10	1
4902624	23	C	02/06/2025	12:24	-126.046	47.583	0	1.10	0	8.9232	8	32.2746	8	24.997	0	1.091	0	-1e10	1	-1e10	1	-1E+10	1	0.7008	4	0.000756	0	-1E+10	1	-1E+10	1	-1E+10	1
4902624	23	C	02/06/2025	12:24	-126.046	47.583	0	1.30	0	8.9256	8	32.2738	8	24.996	0	1.289	0	-1e10	1	-1e10	1	-1E+10	1	0.6862	4	0.000803	0	-1E+10	1	-1E+10	1	-1E+10	1
4902624	23	C	02/06/2025	12:24	-126.046	47.583	0	1.50	0	8.9280	0	32.2730	0	24.995	0	1.487	0	259.3	4	90.5	4	-1E+10	1	0.6862	4	0.000780	0	-1E+10	1	-1E+10	1	-1E+10	1
4902624	23	C	02/06/2025	12:24	-126.046	47.583	0	1.70	0	8.9284	0	32.2730	0	24.995	0	1.686	0	-1e10	1	-1e10	1	-1E+10	1	0.6935	4	0.000955	0	-1E+10	1	-1E+10	1	-1E+10	1
4902624	23	C	02/06/2025	12:24	-126.046	47.583	0	1.90	0	8.9288	0	32.2730	0	24.995	0	1.884	0	-1e10	1	-1e10	1	-1E+10	1	0.7227	4	0.000908	0	-1E+10	1	-1E+10	1	-1E+10	1
4902624	23	C	02/06/2025	12:24	-126.046	47.583	0	2.10	0	8.9292	0	32.2730	0	24.995	0	2.082	0	-1e10	1	-1e10	1	-1E+10	1	0.7227	4	0.001026	0	-1E+10	1	-1E+10	1	-1E+10	1
4902624	23	C	02/06/2025	12:24	-126.046	47.583	0	2.30	0	8.9296	0	32.2730	0	24.995	0	2.281	0	258.8	4	90.3	4	-1E+10	1	0.7008	4	0.000768	0	-1E+10	1	-1E+10	1	-1E+10	1
4902624	23	C	02/06/2025	12:24	-126.046	47.583	0	2.50	0	8.9300	0	32.2730	0	24.995	0	2.479	0	-1e10	1	-1e10	1	-1E+10	1	-1e10	1	-1e10	1	-1E+10	1	-1E+10	1	-1E+10	1
4902624	23	C	02/06/2025	12:24	-126.046	47.583	0	2.70	0	8.9298	0	32.2730	0	24.995	0	2.677	0	-1e10	1	-1e10	1	-1E+10	1	0.7300	4	0.001014	0	-1E+10	1	-1E+10	1	-1E+10	1
4902624	23	C	02/06/2025	12:24	-126.046	47.583	0	3.00	0	8.9295	0	32.2730	0	24.995	0	2.975	0	-1e10	1	-1e10	1	-1E+10	1	0.7008	4	0.001401	0	-1E+10	1	-1E+10	1	-1E+10	1
4902624	23	C	02/06/2025	12:24	-126.046	47.583	0	3.20	0	8.9293	0	32.2730	0	24.995	0	3.173	0	-1e10	1	-1e10	1	-1E+10	1	0.7519	4	0.000768	0	-1E+10	1	-1E+10	1	-1E+10	1
4902624	23	C	02/06/2025	12:24	-126.046	47.583	0	3.40	0	8.9291	0	32.2730	0	24.995	0	3.372	0	258.8	4	90.3	4	-1E+10	1	0.6862	4	0.000768	0	-1E+10	1	-1E+10	1	-1E+10	1
4902624	23	C	02/06/2025	12:24	-126.046	47.583	0	3.50	0	8.9290	0	32.2730	0	24.995	0	3.471	0	-1e10	1	-1e10	1	-1E+10	1	-1e10	1	-1e10	1	-1E+10	1	-1E+10	1	-1E+10	1
4902624	23	C	02/06/2025	12:24	-126.046	47.583	0	3.60	0	8.9289	0	32.2730	0	24.995	0	3.570	0	-1e10	1	-1e10	1	-1E+10	1	0.7446	4	0.000768	0	-1E+10	1	-1E+10	1	-1E+10	1
4902624	23	C	02/06/2025	12:24	-126.046	47.583	0	3.90	0	8.9286	0	32.2730	0	24.995	0	3.867	0	-1e10	1	-1e10	1	-1E+10	1	0.7227	4	0.000732	0	-1E+10	1	-1E+10	1	-1E+10	1
4902624	23	C	02/06/2025	12:24	-126.046	47.583	0	4.00	0	8.9285	0	32.2730	0	24.995	0	3.967	0	-1e10	1	-1e10	1	-1E+10	1	0.7081	4	0.000709	0	-1E+10	1	-1E+10	1	-1E+10	1
4902624	23	C	02/06/2025	12:24	-126.046	47.583	0	4.50	0	8.9280	0	32.2730	0	24.995	0	4.462	0	259.0	4	90.3	4	-1E+10	1	0.7300	4	0.000733	0	-1E+10	1	-1E+10	1	-1E+10	1
4902624	23	C	02/06/2025	12:24	-126.046	47.583	0	4.80	0	8.9277	0	32.2730	0	24.995	0	4.760	0	-1e10	1	-1e10	1	-1E+10	1	0.7227	4	0.000768	0	-1E+10	1	-1E+10	1	-1E+10	1
4902624	23	C	02/06/2025	12:24	-126.046	47.583	0	5.00	0	8.9275	0	32.2730	0	24.995	0	4.958	0	-1e10	1	-1e10	1	-1E+10	1	0.7081	4	0.000826	0	-1E+10	1	-1E+10	1	-1E+10	1
4902624	23	C	02/06/2025	12:24	-126.046	47.583	0	5.20	0	8.9274	0	32.2730	0	24.995	0	5.156	0	-1e10	1	-1e10	1	-1E+10	1	0.7154	4	0.000815	0	-1E+10	1	-1E+10	1	-1E+10	1
4902624	23	C	02/06/2025	12:24	-126.046	47.583	0	5.50	0	8.9271	0	32.2730	0	24.995	0	5.454	0	-1e10	1	-1e10	1	-1E+10	1	0.6935	4	0.000803	0	-1E+10	1	-1E+10	1	-1E+10	1
4902624	23	C	02/06/2025	12:24	-126.046	47.583	0	5.60	0	8.9270	0	32.2730	0	24.995	0	5.553	0	-1e10	1	-1e10	1	-1E+10	1	-1e10	1	-1e10	1	-1E+10	1	-1E+10	1	-1E+10	1
4902624	23	C	02/06/2025	12:24	-126.046	47.583	0	5.70	0	8.9275	0	32.2730	0	24.995	0	5.652	0	258.5	4	90.2	4	-1E+10	1	0.7884	4	0.000850	0	-1E+10	1	-1E+10	1	-1E+10	1
4902624	23	C	02/06/2025	12:24	-126.046	47.583	0	6.00	0	8.9290	0	32.2730	0	24.995	0	5.950	0	-1e10	1	-1e10	1	-1E+10	1	0.6935	4	0.000932	0	-1E+10	1	-1E+10	1	-1E+10	1
4902624	23	C	02/06/2025	12:24	-126.046	47.583	0	6.50	0	8.9315	0	32.2730	0	24.994	0	6.446	0	-1e10	1	-1e10	1	-1E+10	1	0.7081	4	0.000861	0	-1E+10	1	-1E+10	1	-1E+10	1
4902624	23	C	02/06/2025	12:24	-126.046	47.583	0	6.60	0	8.9320	0	32.2730	0	24.994	0	6.545	0	-1e10	1	-1e10	1	-1E+10	1	-1e10	1	-1e10	1	-1E+10	1	-1E+10	1	-1E+10	1
4902624	23	C	02/06/2025	12:24	-126.046	47.583	0	6.70	0	8.9317	0	32.2730	0	24.994	0	6.644	0	-1e10	1	-1e10	1	-1E+10	1	0.7081	4	0.000756	0	-1E+10	1	-1E+10	1	-1E+10	1
4902624	23	C	02/06/2025	12:24	-126.046	47.583	0	6.90	0	8.9311	0	32.2730	0	24.994	0	6.842	0	258.4	4	90.2	4	-1E+10	1	0.7227	4	0.000768	0	-1E+10	1	-1E+10	1	-1E+10	1
4902624	23	C	02/06/2025	12:24	-126.046	47.583	0	7.20	0	8.9302	0	32.2730	0	24.995	0	7.140	0	-1e10	1	-1e10	1	-1E+10	1	0.7081	4	0.000897	0	-1E+10	1	-1E+10	1	-1E+10	1
4902624	23	C	02/06/2025	12:24	-126.046	47.583	0	7.50	0	8.9293	0	32.2730	0	24.995	0	7.437	0	-1e10	1	-1e10	1	-1E+10	1	0.7081	4	0.000756	0	-1E+10	1	-1E+10	1	-1E+10	1
4902624	23	C	02/06/2025	12:24	-126.046	47.583	0	7.60	0	8.9290	0	32.2730	0	24.995	0	7.536	0	-1e10	1	-1e10	1	-1E+10	1	-1e10	1	-1e10	1	-1E+10	1	-1E+10	1	-1E+10	1
4902624	23	C	02/06/2025	12:24	-126.046	47.583	0	7.70	0	8.9288	0	32.2730	0	24.995	0	7.636	0	-1e10	1	-1e10	1	-1E+10	1	0.7227	4	0.000873	0	-1E+10	1	-1E+10	1	-1E+10	1
4902624	23	C	02/06/2025	12:24	-126.046	47.583	0	7.90	0	8.9283	0	32.2730	0	24.995	0	7.834	0	-1e10	1	-1e10	1	-1E+10	1	0.7373	4	0.000756	0	-1E+10	1	-1E+10	1	-1E+10	1
4902624	23	C	02/06/2025	12:24	-126.046	47.583	0	8.10	0	8.9279	0	32.2730	0	24.995	0	8.032	0	258.4	4	90.1	4	-1E+10	1	0.7154	4	0.000791	0	-1E+10	1	-1E+10	1	-1E+10	1
4902624	23	C	02/06/2025	12:24	-126.046	47.583	0	8.50	0	8.9270	0	32.2730	0	24.995	0	8.429	0	-1e10	1	-1e10	1	-1E+10	1	-1e10	1	-1e10	1	-1E+10	1	-1E+10	1	-1E+10	1
4902624	23	C	02/06/2025	12:24	-126.046	47.583	0	8.60	0	8.9270	0	32.2729	0	24.995	0	8.528	0	-1e10	1	-1e10	1	-1E+10	1	0.7519	4	0.000803	0	-1E+10	1	-1E+10	1	-1E+10	1
4902624	23	C	02/06/2025	12:24	-126.046	47.583	0	8.80	0	8.9270	0	32.2727	0	24.995	0	8.726	0	-1e10	1	-1e10	1	-1E+10	1	0.7154	4	0.000838	0	-1E+10	1	-1E+10	1	-1E+10	1
4902624	23	C	02/06/2025	12:24	-126.046	47.583	0	9.00	0	8.9270	0	32.2725	0	24.995	0	8.925	0	-1e10	1	-1e10	1	-1E+10	1	0.7373	4	0.000814	0	-1E+10	1	-1E+10	1	-1E+10	1
4902624	23	C	02/06/2025	12:24	-126.046	47.583	0	9.20	0	8.9270	0	32.2723	0	24.995	0	9.123	0	258.3	4	90.1	4	-1E+10	1	0.7154	4	0.000756	0	-1E+10	1	-1E+10	1	-1E+10	1
4902624	23	C	02/06/2025	12:24	-126.046	47.583	0	9.40	0	8.9270	0	32.2721	0	24.994	0	9.321	0	-1e10	1	-1e10	1	-1E+10	1	0.7154	4	0.000768	0	-1E+10	1	-1E+10	1	-1E+10	1
4902624	23	C	02/06/2025	12:24	-126.046	47.583	0	9.50	0	8.9270	0	32.2720	0	24.994	0	9.420	0	-1e10	1	-1e10	1	-1E+10	1	-1e10	1	-1e10	1	-1E+10	1	-1E+10	1	-1E+10	1
4902624	23	C	02/06/2025	12:24	-126.046	47.583	0	9.60	0	8.9269	0	32.2721	0	24.994	0	9.520	0	-1e10	1	-1e10	1	-1E+10	1	0.7300	4	0.000803	0	-1E+10	1	-1E+10	1	-1E+10	1
4902624	23	C	02/06/2025	12:24	-126.046	47.583	0	10.20	0	8.9266	0	32.2724	0	24.995	0	10.115	0	258.2	4	90.1	4	-1E+10	1	0.7373	4	0.000781	0	-1E+10	1	-1E+10	1	-1E+10	1
4902624	23	C	02/06/2025	12:24	-126.046	47.583	0	11.00	0	8.9261	0	32.2729	0	24.995	0	10.908	0	258.0	4	90.0	4	-1E+10	1	0.7464	4	0.000813	0	-1E+10	1	-1E+10	1	-1E+10	1
4902624	23	C	02/06/2025	12:24	-126.046	47.583	0	11.10	0	8.9260	0	32.2730	0	24.995	0	11.007	0	-1e10	1	-1e10	1	-1E+10	1	-1e10	1	-1e10	1	-1E+10	1	-1E+10	1	-1E+10	1
4902624	23	C	02/06/2025	12:24	-126.046	47.583	0	11.80	0	8.9263	0	32.2730	0	24.995	0	11.701	0	258.0	4	90.0	4	-1E+10	1	0.7409	4	0.000803	0	-1E+10	1	-1E+10	1	-1E+10	1
4902624	23	C	02/06/2025	12:24	-126.046	47.583	0	12.60	0	8.9268	0	32.2730	0	24.995	0	12.494	0	257.9	4	89.9	4	-1E+10	1	0.7497	4	0.000772	0	-1E+10	1	-1E+10	1	-1E+10	1
4902624	23	C	02/06/2025	12:24	-126.046	47.583	0	13.10	0	8.9270	0	32.2730	0	24.995	0	12.990	0	-1e10	1	-1e10	1	-1E+10	1	-1e10	1	-1e10	1	-1E+10	1	-1E+10	1	-1E+10	1
4902624	23	C	02/06/2025	12:24	-126.046	47.583	0	13.40	0	8.9275	0	32.2730	0	24.995	0	13.288	0	257.8	4	89.9	4	-1E+10	1	0.7911	4	0.000759	0	-1E+10	1	-1E+10	1	-1E+10	1
4902624	23	C	02/06/2025	12:24	-126.046	47.583	0	14.30	0	8.9288	0	32.2730	0	24.995	0	14.180	0	257.7	4	89.9	4	-1E+10	1	0.7577	4	0.000779	0	-1E+10	1	-1E+10	1	-1E+10	1
4902624	23	C	02/06/2025	12:24	-126.046	47.583	0	15.10	0	8.9300	0	32.2730	0	24.995	0	14.973	0	257.9	4	90.0	4	-1E+10	1	0.7519	4	0.000780	0	-1E+10	1	-1E+10	1	-1E+10	1
4902624	23	C	02/06/2025	12:24	-126.046	47.583	0	15.90	0	8.9346	0	32.2755	0	24.996	0	15.767	0	257.4	4	89.8	4	-1E+10	1	0.7694	4	0.000826	0	-1E+10	1	-1E+10	1	-1E+10	1
4902624	23	C	02/06/2025	12:24	-126.046	47.583	0	16.70	0	8.9393	0	32.2781	0	24.997	0	16.560	0	257.4	4	89.8	4	-1E+10	1	0.8121	4	0.000820	0	-1E+10	1	-1E+10	1	-1E+10	1
4902624	23	C	02/06/2025	12:24	-126.046	47.583	0	17.00	0	8.9410	0	32.2790	0	24.998	0	16.857	0	-1e10	1	-1e10	1	-1E+10	1	-1e10	1	-1e10	1	-1E+10	1	-1E+10	1	-1E+10	1
4902624	23	C	02/06/2025	12:24	-126.046	47.583	0	17.50	0	8.9427	0	32.2798	0	24.998	0	17.353	0	257.2	4	89.8	4	-1E+10	1	0.8304	4	0.000806	0	-1E+10	1	-1E+10	1	-1E+10	1
4902624	23	C	02/06/2025	12:24	-126.046	47.583	0	18.40	0	8.9459	0	32.2811	0	24.999	0	18.245	0	257.2	4	89.8	4	-1E+10	1	0.8424	4	0.000803	0	-1E+10	1	-1E+10	1	-1E+10	1
4902624	23	C	02/06/2025	12:24	-126.046	47.583	0	19.00	0	8.9480	0	32.2820	0	24.999	0	18.840	0	-1e10	1	-1e10	1	-1E+10	1	-1e10	1	-1e10	1	-1E+10	1	-1E+10	1	-1E+10	1
4902624	23	C	02/06/2025	12:24	-126.046	47.583	0	19.20	0	8.9481	0	32.2821	0	24.999	0	19.039	0	257.3	4	89.8	4	-1E+10	1	0.8057	4	0.000795	0	-1E+10	1	-1E+10	1	-1E+10	1
4902624	23	C	02/06/2025	12:24	-126.046	47.583	0	19.90	0	8.9484	0	32.2824	0	24.999	0	19.733	0	257.1	4	89.7	4	-1E+10	1	0.8071	4	0.000812	0	-1E+10	1	-1E+10	1	-1E+10	1
4902624	23	C	02/06/2025	12:24	-126.046	47.583	0	20.70	0	8.9488	0	32.2828	0	25.000	0	20.526	0	257.0	4	89.7	4	-1E+10	1	0.8395	4	0.000852	0	-1E+10	1	-1E+10	1	-1E+10	1
4902624	23	C	02/06/2025	12:24	-126.046	47.583	0	21.10	0	8.9490	0	32.2830	0	25.000	0	20.923	0	-1e10	1	-1e10	1	-1E+10	1	-1e10	1	-1e10	1	-1E+10	1	-1E+10	1	-1E+10	1
4902624	23	C	02/06/2025	12:24	-126.046	47.583	0	21.50	0	8.9490	0	32.2830	0	25.000	0	21.319	0	257.1	4	89.7	4	-1E+10	1	0.8441	4	0.000876	0	-1E+10	1	-1E+10	1	-1E+10	1
4902624	23	C	02/06/2025	12:24	-126.046	47.583	0	22.30	0	8.9490	0	32.2830	0	25.000	0	22.113	0	257.0	4	89.7	4	-1E+10	1	0.8775	4	0.000812	0	-1E+10	1	-1E+10	1	-1E+10	1
4902624	23	C	02/06/2025	12:24	-126.046	47.583	0	23.10	0	8.9490	0	32.2830	0	25.000	0	22.906	0	-1e10	1	-1e10	1	-1E+10	1	-1e10	1	-1e10	1	-1E+10	1	-1E+10	1	-1E+10	1
4902624	23	C	02/06/2025	12:24	-126.046	47.583	0	23.20	0	8.9489	0	32.2830	0	25.000	0	23.005	0	257.0	4	89.7	4	-1E+10	1	0.8906	4	0.000791	0	-1E+10	1	-1E+10	1	-1E+10	1
4902624	23	C	02/06/2025	12:24	-126.046	47.583	0	24.00	0	8.9485	0	32.2830	0	25.000	0	23.798	0	257.1	4	89.7	4	-1E+10	1	0.8614	4	0.000782	0	-1E+10	1	-1E+10	1	-1E+10	1
4902624	23	C	02/06/2025	12:24	-126.046	47.583	0	24.80	0	8.9481	0	32.2830	0	25.000	0	24.591	0	257.0	4	89.7	4	-1E+10	1	0.8322	4	0.000824	0	-1E+10	1	-1E+10	1	-1E+10	1
4902624	23	C	02/06/2025	12:24	-126.046	47.583	0	25.00	0	8.9480	0	32.2830	0	25.000	0	24.790	0	-1e10	1	-1e10	1	-1E+10	1	-1e10	1	-1e10	1	-1E+10	1	-1E+10	1	-1E+10	1
4902624	23	C	02/06/2025	12:24	-126.046	47.583	0	25.70	0	8.9462	0	32.2837	0	25.001	0	25.484	0	256.8	4	89.6	4	-1E+10	1	0.8504	4	0.000830	0	-1E+10	1	-1E+10	1	-1E+10	1
4902624	23	C	02/06/2025	12:24	-126.046	47.583	0	26.50	0	8.9443	0	32.2845	0	25.002	0	26.277	0	256.7	4	89.6	4	-1E+10	1	0.8359	4	0.000815	0	-1E+10	1	-1E+10	1	-1E+10	1
4902624	23	C	02/06/2025	12:24	-126.046	47.583	0	27.00	0	8.9430	0	32.2850	0	25.002	0	26.773	0	-1e10	1	-1e10	1	-1E+10	1	-1e10	1	-1e10	1	-1E+10	1	-1E+10	1	-1E+10	1
4902624	23	C	02/06/2025	12:24	-126.046	47.583	0	27.30	0	8.9430	0	32.2850	0	25.002	0	27.070	0	256.7	4	89.6	4	-1E+10	1	0.8267	4	0.000847	0	-1E+10	1	-1E+10	1	-1E+10	1
4902624	23	C	02/06/2025	12:24	-126.046	47.583	0	28.10	0	8.9430	0	32.2850	0	25.002	0	27.863	0	256.5	4	89.5	4	-1E+10	1	0.8453	4	0.000874	0	-1E+10	1	-1E+10	1	-1E+10	1
4902624	23	C	02/06/2025	12:24	-126.046	47.583	0	28.90	0	8.9430	0	32.2850	0	25.002	0	28.657	0	256.3	4	89.4	4	-1E+10	1	0.8379	4	0.000774	0	-1E+10	1	-1E+10	1	-1E+10	1
4902624	23	C	02/06/2025	12:24	-126.046	47.583	0	29.10	0	8.9430	0	32.2850	0	25.002	0	28.855	0	-1e10	1	-1e10	1	-1E+10	1	-1e10	1	-1e10	1	-1E+10	1	-1E+10	1	-1E+10	1
4902624	23	C	02/06/2025	12:24	-126.046	47.583	0	29.70	0	8.9424	0	32.2853	0	25.003	0	29.450	0	256.2	4	89.4	4	-1E+10	1	0.9417	4	0.000826	0	-1E+10	1	-1E+10	1	-1E+10	1
4902624	23	C	02/06/2025	12:24	-126.046	47.583	0	30.60	0	8.9414	0	32.2858	0	25.003	0	30.342	0	256.1	4	89.4	4	-1E+10	1	0.8614	4	0.000803	0	-1E+10	1	-1E+10	1	-1E+10	1
4902624	23	C	02/06/2025	12:24	-126.046	47.583	0	31.00	0	8.9410	0	32.2860	0	25.003	0	30.739	0	-1e10	1	-1e10	1	-1E+10	1	-1e10	1	-1e10	1	-1E+10	1	-1E+10	1	-1E+10	1
4902624	23	C	02/06/2025	12:24	-126.046	47.583	0	31.40	0	8.9406	0	32.2860	0	25.004	0	31.135	0	255.9	4	89.3	4	-1E+10	1	0.8906	4	0.000765	0	-1E+10	1	-1E+10	1	-1E+10	1
4902624	23	C	02/06/2025	12:24	-126.046	47.583	0	32.20	0	8.9398	0	32.2860	0	25.004	0	31.929	0	255.7	4	89.2	4	-1E+10	1	0.8736	4	0.000810	0	-1E+10	1	-1E+10	1	-1E+10	1
4902624	23	C	02/06/2025	12:24	-126.046	47.583	0	33.00	0	8.9390	0	32.2860	0	25.004	0	32.722	0	256.1	4	89.4	4	-1E+10	1	0.8705	4	0.000823	0	-1E+10	1	-1E+10	1	-1E+10	1
4902624	23	C	02/06/2025	12:24	-126.046	47.583	0	33.80	0	8.9378	0	32.2864	0	25.004	0	33.515	0	255.5	4	89.2	4	-1E+10	1	0.9015	4	0.000803	0	-1E+10	1	-1E+10	1	-1E+10	1
4902624	23	C	02/06/2025	12:24	-126.046	47.583	0	34.60	0	8.9366	0	32.2868	0	25.005	0	34.308	0	255.3	4	89.1	4	-1E+10	1	0.9030	4	0.000812	0	-1E+10	1	-1E+10	1	-1E+10	1
4902624	23	C	02/06/2025	12:24	-126.046	47.583	0	35.00	0	8.9360	0	32.2870	0	25.005	0	34.705	0	-1e10	1	-1e10	1	-1E+10	1	-1e10	1	-1e10	1	-1E+10	1	-1E+10	1	-1E+10	1
4902624	23	C	02/06/2025	12:24	-126.046	47.583	0	35.40	0	8.9349	0	32.2872	0	25.005	0	35.101	0	255.2	4	89.0	4	-1E+10	1	0.8486	4	0.000854	0	-1E+10	1	-1E+10	1	-1E+10	1
4902624	23	C	02/06/2025	12:24	-126.046	47.583	0	36.20	0	8.9328	0	32.2876	0	25.006	0	35.894	0	255.0	4	89.0	4	-1E+10	1	0.8563	4	0.000799	0	-1E+10	1	-1E+10	1	-1E+10	1
4902624	23	C	02/06/2025	12:24	-126.046	47.583	0	36.90	0	8.9310	0	32.2880	0	25.007	0	36.588	0	-1e10	1	-1e10	1	-1E+10	1	-1e10	1	-1e10	1	-1E+10	1	-1E+10	1	-1E+10	1
4902624	23	C	02/06/2025	12:24	-126.046	47.583	0	37.10	0	8.9306	0	32.2881	0	25.007	0	36.787	0	254.8	4	88.9	4	-1E+10	1	0.8103	4	0.000767	0	-1E+10	1	-1E+10	1	-1E+10	1
4902624	23	C	02/06/2025	12:24	-126.046	47.583	0	37.90	0	8.9291	0	32.2885	0	25.007	0	37.580	0	254.7	4	88.8	4	-1E+10	1	0.8103	4	0.000805	0	-1E+10	1	-1E+10	1	-1E+10	1
4902624	23	C	02/06/2025	12:24	-126.046	47.583	0	38.70	0	8.9276	0	32.2889	0	25.008	0	38.373	0	254.3	4	88.7	4	-1E+10	1	0.8212	4	0.000832	0	-1E+10	1	-1E+10	1	-1E+10	1
4902624	23	C	02/06/2025	12:24	-126.046	47.583	0	39.00	0	8.9270	0	32.2890	0	25.008	0	38.671	0	-1e10	1	-1e10	1	-1E+10	1	-1e10	1	-1e10	1	-1E+10	1	-1E+10	1	-1E+10	1
4902624	23	C	02/06/2025	12:24	-126.046	47.583	0	39.50	0	8.9258	0	32.2890	0	25.008	0	39.166	0	254.0	4	88.6	4	-1E+10	1	0.8054	4	0.000791	0	-1E+10	1	-1E+10	1	-1E+10	1
4902624	23	C	02/06/2025	12:24	-126.046	47.583	0	40.40	0	8.9237	0	32.2890	0	25.009	0	40.059	0	253.8	4	88.5	4	-1E+10	1	0.7917	4	0.000780	0	-1E+10	1	-1E+10	1	-1E+10	1
4902624	23	C	02/06/2025	12:24	-126.046	47.583	0	41.10	0	8.9220	0	32.2890	0	25.009	0	40.753	0	-1e10	1	-1e10	1	-1E+10	1	-1e10	1	-1e10	1	-1E+10	1	-1E+10	1	-1E+10	1
4902624	23	C	02/06/2025	12:24	-126.046	47.583	0	41.20	0	8.9219	0	32.2891	0	25.009	0	40.852	0	253.5	4	88.4	4	-1E+10	1	0.7829	4	0.000800	0	-1E+10	1	-1E+10	1	-1E+10	1
4902624	23	C	02/06/2025	12:24	-126.046	47.583	0	42.00	0	8.9211	0	32.2895	0	25.009	0	41.645	0	253.1	4	88.3	4	-1E+10	1	0.7891	4	0.000807	0	-1E+10	1	-1E+10	1	-1E+10	1
4902624	23	C	02/06/2025	12:24	-126.046	47.583	0	42.80	0	8.9202	0	32.2899	0	25.010	0	42.438	0	252.6	4	88.1	4	-1E+10	1	0.8242	4	0.000815	0	-1E+10	1	-1E+10	1	-1E+10	1
4902624	23	C	02/06/2025	12:24	-126.046	47.583	0	43.00	0	8.9200	0	32.2900	0	25.010	0	42.636	0	-1e10	1	-1e10	1	-1E+10	1	-1e10	1	-1e10	1	-1E+10	1	-1E+10	1	-1E+10	1
4902624	23	C	02/06/2025	12:24	-126.046	47.583	0	43.70	0	8.9197	0	32.2904	0	25.010	0	43.330	0	252.2	4	88.0	4	-1E+10	1	0.8176	4	0.001037	0	-1E+10	1	-1E+10	1	-1E+10	1
4902624	23	C	02/06/2025	12:24	-126.046	47.583	0	44.50	0	8.9192	0	32.2907	0	25.011	0	44.124	0	251.7	4	87.8	4	-1E+10	1	0.7884	4	0.000744	0	-1E+10	1	-1E+10	1	-1E+10	1
4902624	23	C	02/06/2025	12:24	-126.046	47.583	0	45.00	0	8.9190	0	32.2910	0	25.011	0	44.619	0	-1e10	1	-1e10	1	-1E+10	1	-1e10	1	-1e10	1	-1E+10	1	-1E+10	1	-1E+10	1
4902624	23	C	02/06/2025	12:24	-126.046	47.583	0	45.30	0	8.9190	0	32.2910	0	25.011	0	44.917	0	251.2	4	87.6	4	-1E+10	1	0.8030	4	0.000779	0	-1E+10	1	-1E+10	1	-1E+10	1
4902624	23	C	02/06/2025	12:24	-126.046	47.583	0	46.20	0	8.9190	0	32.2910	0	25.011	0	45.809	0	250.6	4	87.4	4	-1E+10	1	0.7899	4	0.000832	0	-1E+10	1	-1E+10	1	-1E+10	1
4902624	23	C	02/06/2025	12:24	-126.046	47.583	0	47.00	0	8.9190	0	32.2910	0	25.011	0	46.602	0	250.5	4	87.4	4	-1E+10	1	0.7941	4	0.000865	0	-1E+10	1	-1E+10	1	-1E+10	1
4902624	23	C	02/06/2025	12:24	-126.046	47.583	0	47.90	0	8.9190	0	32.2915	0	25.011	0	47.494	0	249.2	4	86.9	4	-1E+10	1	0.8621	4	0.000840	0	-1E+10	1	-1E+10	1	-1E+10	1
4902624	23	C	02/06/2025	12:24	-126.046	47.583	0	48.70	0	8.9190	0	32.2919	0	25.012	0	48.287	0	248.4	4	86.6	4	-1E+10	1	0.8359	4	0.000797	0	-1E+10	1	-1E+10	1	-1E+10	1
4902624	23	C	02/06/2025	12:24	-126.046	47.583	0	49.00	0	8.9190	0	32.2920	0	25.012	0	48.585	0	-1e10	1	-1e10	1	-1E+10	1	-1e10	1	-1e10	1	-1E+10	1	-1E+10	1	-1E+10	1
4902624	23	C	02/06/2025	12:24	-126.046	47.583	0	49.50	0	8.9190	0	32.2920	0	25.012	0	49.081	0	247.4	4	86.3	4	-1E+10	1	0.7762	4	0.000775	0	-1E+10	1	-1E+10	1	-1E+10	1
4902624	23	C	02/06/2025	12:24	-126.046	47.583	0	50.40	0	8.9190	0	32.2920	0	25.012	0	49.973	0	246.3	4	85.9	4	-1E+10	1	0.7641	4	0.000775	0	-1E+10	1	-1E+10	1	-1E+10	1
4902624	23	C	02/06/2025	12:24	-126.046	47.583	0	51.00	0	8.9190	0	32.2920	0	25.012	0	50.568	0	-1e10	1	-1e10	1	-1E+10	1	-1e10	1	-1e10	1	-1E+10	1	-1E+10	1	-1E+10	1
4902624	23	C	02/06/2025	12:24	-126.046	47.583	0	51.20	0	8.9190	0	32.2921	0	25.012	0	50.766	0	245.0	4	85.5	4	-1E+10	1	0.7490	4	0.000756	0	-1E+10	1	-1E+10	1	-1E+10	1
4902624	23	C	02/06/2025	12:24	-126.046	47.583	0	52.00	0	8.9190	0	32.2925	0	25.012	0	51.559	0	243.5	4	84.9	4	-1E+10	1	0.7081	4	0.000802	0	-1E+10	1	-1E+10	1	-1E+10	1
4902624	23	C	02/06/2025	12:24	-126.046	47.583	0	52.90	0	8.9190	0	32.2930	0	25.013	0	52.451	0	242.4	4	84.6	4	-1E+10	1	0.6351	4	0.000721	0	-1E+10	1	-1E+10	1	-1E+10	1
4902624	23	C	02/06/2025	12:24	-126.046	47.583	0	53.70	0	8.9194	0	32.2941	0	25.014	0	53.244	0	239.9	4	83.7	4	-1E+10	1	0.6468	4	0.000683	0	-1E+10	1	-1E+10	1	-1E+10	1
4902624	23	C	02/06/2025	12:24	-126.046	47.583	0	54.50	0	8.9198	0	32.2953	0	25.014	0	54.038	0	237.7	4	82.9	4	-1E+10	1	0.6147	4	0.000687	0	-1E+10	1	-1E+10	1	-1E+10	1
4902624	23	C	02/06/2025	12:24	-126.046	47.583	0	55.00	0	8.9200	0	32.2960	0	25.015	0	54.533	0	-1e10	1	-1e10	1	-1E+10	1	-1e10	1	-1e10	1	-1E+10	1	-1E+10	1	-1E+10	1
4902624	23	C	02/06/2025	12:24	-126.046	47.583	0	55.30	0	8.9221	0	32.2973	0	25.016	0	54.831	0	235.2	4	82.0	4	-1E+10	1	0.5694	4	0.000720	0	-1E+10	1	-1E+10	1	-1E+10	1
4902624	23	C	02/06/2025	12:24	-126.046	47.583	0	56.20	0	8.9286	0	32.3011	0	25.018	0	55.723	0	232.4	4	81.1	4	-1E+10	1	0.5313	4	0.000750	0	-1E+10	1	-1E+10	1	-1E+10	1
4902624	23	C	02/06/2025	12:24	-126.046	47.583	0	56.90	0	8.9336	0	32.3041	0	25.019	0	56.417	0	229.6	4	80.1	4	-1E+10	1	0.5205	4	0.000748	0	-1E+10	1	-1E+10	1	-1E+10	1
4902624	23	C	02/06/2025	12:24	-126.046	47.583	0	57.10	0	8.9350	0	32.3050	0	25.020	0	56.615	0	-1e10	1	-1e10	1	-1E+10	1	-1e10	1	-1e10	1	-1E+10	1	-1E+10	1	-1E+10	1
4902624	23	C	02/06/2025	12:24	-126.046	47.583	0	57.70	0	8.9433	0	32.3083	0	25.021	0	57.210	0	226.7	4	79.1	4	-1E+10	1	0.5256	4	0.000719	0	-1E+10	1	-1E+10	1	-1E+10	1
4902624	23	C	02/06/2025	12:24	-126.046	47.583	0	58.50	0	8.9544	0	32.3128	0	25.023	0	58.003	0	223.5	4	78.0	4	-1E+10	1	0.5207	4	0.000625	0	-1E+10	1	-1E+10	1	-1E+10	1
4902624	23	C	02/06/2025	12:24	-126.046	47.583	0	58.90	0	8.9600	0	32.3150	0	25.024	0	58.400	0	-1e10	1	-1e10	1	-1E+10	1	-1e10	1	-1e10	1	-1E+10	1	-1E+10	1	-1E+10	1
4902624	23	C	02/06/2025	12:24	-126.046	47.583	0	59.30	0	8.9714	0	32.3205	0	25.026	0	58.796	0	219.6	4	76.7	4	-1E+10	1	0.4818	4	0.000615	0	-1E+10	1	-1E+10	1	-1E+10	1
4902624	23	C	02/06/2025	12:24	-126.046	47.583	0	60.10	0	8.9943	0	32.3316	0	25.031	0	59.589	0	215.3	4	75.3	4	-1E+10	1	0.4351	4	0.000568	0	-1E+10	1	-1E+10	1	-1E+10	1
4902624	23	C	02/06/2025	12:24	-126.046	47.583	0	60.90	0	9.0171	0	32.3426	0	25.036	0	60.382	0	210.1	4	73.5	4	-1E+10	1	0.3687	4	0.000635	0	-1E+10	1	-1E+10	1	-1E+10	1
4902624	23	C	02/06/2025	12:24	-126.046	47.583	0	61.00	0	9.0200	0	32.3440	0	25.037	0	60.481	0	-1e10	1	-1e10	1	-1E+10	1	-1e10	1	-1e10	1	-1E+10	1	-1E+10	1	-1E+10	1
4902624	23	C	02/06/2025	12:24	-126.046	47.583	0	61.80	0	9.0612	0	32.3840	0	25.062	0	61.275	0	204.4	4	71.6	4	-1E+10	1	0.3197	4	0.000604	0	-1E+10	1	-1E+10	1	-1E+10	1
4902624	23	C	02/06/2025	12:24	-126.046	47.583	0	62.70	0	9.1076	0	32.4290	0	25.090	0	62.167	0	198.5	4	69.6	4	-1E+10	1	0.2747	4	0.000714	0	-1E+10	1	-1E+10	1	-1E+10	1
4902624	23	C	02/06/2025	12:24	-126.046	47.583	0	63.00	0	9.1230	0	32.4440	0	25.099	0	62.464	0	-1e10	1	-1e10	1	-1E+10	1	-1e10	1	-1e10	1	-1E+10	1	-1E+10	1	-1E+10	1
4902624	23	C	02/06/2025	12:24	-126.046	47.583	0	63.60	0	9.1287	0	32.4794	0	25.126	0	63.059	0	192.8	4	67.7	4	-1E+10	1	0.2278	4	0.000676	0	-1E+10	1	-1E+10	1	-1E+10	1
4902624	23	C	02/06/2025	12:24	-126.046	47.583	0	64.60	0	9.1382	0	32.5383	0	25.171	0	64.050	0	188.0	4	66.0	4	-1E+10	1	0.1825	4	0.000423	0	-1E+10	1	-1E+10	1	-1E+10	1
4902624	23	C	02/06/2025	12:24	-126.046	47.583	0	64.90	0	9.1410	0	32.5560	0	25.184	0	64.348	0	-1e10	1	-1e10	1	-1E+10	1	-1e10	1	-1e10	1	-1E+10	1	-1E+10	1	-1E+10	1
4902624	23	C	02/06/2025	12:24	-126.046	47.583	0	65.60	0	9.1025	0	32.6082	0	25.231	0	65.042	0	185.1	4	65.0	4	-1E+10	1	0.1545	4	0.000370	0	-1E+10	1	-1E+10	1	-1E+10	1
4902624	23	C	02/06/2025	12:24	-126.046	47.583	0	66.60	0	9.0475	0	32.6827	0	25.298	0	66.033	0	182.1	4	63.9	4	-1E+10	1	0.1606	4	0.000380	0	-1E+10	1	-1E+10	1	-1E+10	1
4902624	23	C	02/06/2025	12:24	-126.046	47.583	0	66.90	0	9.0310	0	32.7050	0	25.318	0	66.330	0	-1e10	1	-1e10	1	-1E+10	1	-1e10	1	-1e10	1	-1E+10	1	-1E+10	1	-1E+10	1
4902624	23	C	02/06/2025	12:24	-126.046	47.583	0	67.60	0	8.9750	0	32.7210	0	25.339	0	67.024	0	179.2	4	62.8	4	-1E+10	1	0.1460	4	0.000380	0	-1E+10	1	-1E+10	1	-1E+10	1
4902624	23	C	02/06/2025	12:24	-126.046	47.583	0	68.90	0	8.8710	0	32.7507	0	25.379	0	68.313	0	175.3	4	61.3	4	-1E+10	1	0.1387	4	0.000333	0	-1E+10	1	-1E+10	1	-1E+10	1
4902624	23	C	02/06/2025	12:24	-126.046	47.583	0	69.00	0	8.8630	0	32.7530	0	25.382	0	68.412	0	-1e10	1	-1e10	1	-1E+10	1	-1e10	1	-1e10	1	-1E+10	1	-1E+10	1	-1E+10	1
4902624	23	C	02/06/2025	12:24	-126.046	47.583	0	69.70	0	8.8049	0	32.7820	0	25.413	0	69.106	0	173.1	4	60.4	4	-1E+10	1	0.1387	4	0.000367	0	-1E+10	1	-1E+10	1	-1E+10	1
4902624	23	C	02/06/2025	12:24	-126.046	47.583	0	70.40	0	8.7468	0	32.8111	0	25.445	0	69.800	0	171.3	4	59.8	4	-1E+10	1	0.1429	4	0.000373	0	-1E+10	1	-1E+10	1	-1E+10	1
4902624	23	C	02/06/2025	12:24	-126.046	47.583	0	71.00	0	8.6970	0	32.8360	0	25.472	0	70.395	0	-1e10	1	-1e10	1	-1E+10	1	-1e10	1	-1e10	1	-1E+10	1	-1E+10	1	-1E+10	1
4902624	23	C	02/06/2025	12:24	-126.046	47.583	0	71.10	0	8.6939	0	32.8373	0	25.474	0	70.494	0	169.6	4	59.1	4	-1E+10	1	0.1350	4	0.000362	0	-1E+10	1	-1E+10	1	-1E+10	1
4902624	23	C	02/06/2025	12:24	-126.046	47.583	0	71.80	0	8.6726	0	32.8468	0	25.484	0	71.188	0	167.7	4	58.4	4	-1E+10	1	0.1241	4	0.000427	0	-1E+10	1	-1E+10	1	-1E+10	1
4902624	23	C	02/06/2025	12:24	-126.046	47.583	0	72.50	0	8.6512	0	32.8562	0	25.495	0	71.882	0	165.8	4	57.7	4	-1E+10	1	0.1241	4	0.000490	0	-1E+10	1	-1E+10	1	-1E+10	1
4902624	23	C	02/06/2025	12:24	-126.046	47.583	0	73.00	0	8.6360	0	32.8630	0	25.503	0	72.377	0	-1e10	1	-1e10	1	-1E+10	1	-1e10	1	-1e10	1	-1E+10	1	-1E+10	1	-1E+10	1
4902624	23	C	02/06/2025	12:24	-126.046	47.583	0	73.10	0	8.6310	0	32.8656	0	25.505	0	72.477	0	163.5	4	56.9	4	-1E+10	1	0.1250	4	0.000357	0	-1E+10	1	-1E+10	1	-1E+10	1
4902624	23	C	02/06/2025	12:24	-126.046	47.583	0	73.80	0	8.5964	0	32.8840	0	25.525	0	73.170	0	160.7	4	55.9	4	-1E+10	1	0.1314	4	0.000368	0	-1E+10	1	-1E+10	1	-1E+10	1
4902624	23	C	02/06/2025	12:24	-126.046	47.583	0	74.50	0	8.5617	0	32.9023	0	25.545	0	73.864	0	157.7	4	54.8	4	-1E+10	1	0.1371	4	0.000341	0	-1E+10	1	-1E+10	1	-1E+10	1
4902624	23	C	02/06/2025	12:24	-126.046	47.583	0	75.10	0	8.5320	0	32.9180	0	25.562	0	74.459	0	-1e10	1	-1e10	1	-1E+10	1	-1e10	1	-1e10	1	-1E+10	1	-1E+10	1	-1E+10	1
4902624	23	C	02/06/2025	12:24	-126.046	47.583	0	75.30	0	8.5139	0	32.9306	0	25.574	0	74.657	0	155.6	4	54.0	4	-1E+10	1	0.1262	4	0.000313	0	-1E+10	1	-1E+10	1	-1E+10	1
4902624	23	C	02/06/2025	12:24	-126.046	47.583	0	76.00	0	8.4505	0	32.9748	0	25.618	0	75.351	0	153.8	4	53.4	4	-1E+10	1	0.1144	4	0.000341	0	-1E+10	1	-1E+10	1	-1E+10	1
4902624	23	C	02/06/2025	12:24	-126.046	47.583	0	76.70	0	8.3872	0	33.0191	0	25.663	0	76.045	0	152.1	4	52.7	4	-1E+10	1	0.1095	4	0.000356	0	-1E+10	1	-1E+10	1	-1E+10	1
4902624	23	C	02/06/2025	12:24	-126.046	47.583	0	77.00	0	8.3600	0	33.0380	0	25.681	0	76.343	0	-1e10	1	-1e10	1	-1E+10	1	-1e10	1	-1e10	1	-1E+10	1	-1E+10	1	-1E+10	1
4902624	23	C	02/06/2025	12:24	-126.046	47.583	0	77.50	0	8.3293	0	33.0562	0	25.700	0	76.838	0	151.0	4	52.3	4	-1E+10	1	0.1095	4	0.000352	0	-1E+10	1	-1E+10	1	-1E+10	1
4902624	23	C	02/06/2025	12:24	-126.046	47.583	0	78.20	0	8.2862	0	33.0818	0	25.727	0	77.532	0	149.6	4	51.8	4	-1E+10	1	0.1063	4	0.000345	0	-1E+10	1	-1E+10	1	-1E+10	1
4902624	23	C	02/06/2025	12:24	-126.046	47.583	0	79.00	0	8.2370	0	33.1110	0	25.757	0	78.325	0	147.4	4	51.0	4	-1E+10	1	0.0957	4	0.000342	0	-1E+10	1	-1E+10	1	-1E+10	1
4902624	23	C	02/06/2025	12:24	-126.046	47.583	0	79.80	0	8.1718	0	33.1490	0	25.797	0	79.118	0	146.3	4	50.5	4	-1E+10	1	0.1022	4	0.000321	0	-1E+10	1	-1E+10	1	-1E+10	1
4902624	23	C	02/06/2025	12:24	-126.046	47.583	0	80.70	0	8.0985	0	33.1917	0	25.841	0	80.010	0	145.3	4	50.1	4	-1E+10	1	0.0949	4	0.000309	0	-1E+10	1	-1E+10	1	-1E+10	1
4902624	23	C	02/06/2025	12:24	-126.046	47.583	0	81.00	0	8.0740	0	33.2060	0	25.856	0	80.308	0	-1e10	1	-1e10	1	-1E+10	1	-1e10	1	-1e10	1	-1E+10	1	-1E+10	1	-1E+10	1
4902624	23	C	02/06/2025	12:24	-126.046	47.583	0	81.50	0	8.0459	0	33.2224	0	25.873	0	80.803	0	144.6	4	49.8	4	-1E+10	1	0.0949	4	0.000319	0	-1E+10	1	-1E+10	1	-1E+10	1
4902624	23	C	02/06/2025	12:24	-126.046	47.583	0	82.40	0	7.9953	0	33.2520	0	25.903	0	81.695	0	144.1	4	49.6	4	-1E+10	1	0.0903	4	0.000344	0	-1E+10	1	-1E+10	1	-1E+10	1
4902624	23	C	02/06/2025	12:24	-126.046	47.583	0	83.10	0	7.9560	0	33.2750	0	25.927	0	82.389	0	-1e10	1	-1e10	1	-1E+10	1	-1e10	1	-1e10	1	-1E+10	1	-1E+10	1	-1E+10	1
4902624	23	C	02/06/2025	12:24	-126.046	47.583	0	83.30	0	7.9485	0	33.2804	0	25.932	0	82.587	0	143.6	4	49.4	4	-1E+10	1	0.0998	4	0.000356	0	-1E+10	1	-1E+10	1	-1E+10	1
4902624	23	C	02/06/2025	12:24	-126.046	47.583	0	84.30	0	7.9112	0	33.3072	0	25.959	0	83.579	0	143.2	4	49.2	4	-1E+10	1	0.0949	4	0.000339	0	-1E+10	1	-1E+10	1	-1E+10	1
4902624	23	C	02/06/2025	12:24	-126.046	47.583	0	85.00	0	7.8850	0	33.3260	0	25.978	0	84.273	0	-1e10	1	-1e10	1	-1E+10	1	-1e10	1	-1e10	1	-1E+10	1	-1E+10	1	-1E+10	1
4902624	23	C	02/06/2025	12:24	-126.046	47.583	0	85.30	0	7.8783	0	33.3329	0	25.984	0	84.570	0	142.6	4	49.0	4	-1E+10	1	0.0754	4	0.000317	0	-1E+10	1	-1E+10	1	-1E+10	1
4902624	23	C	02/06/2025	12:24	-126.046	47.583	0	86.30	0	7.8558	0	33.3559	0	26.005	0	85.561	0	142.2	4	48.8	4	-1E+10	1	0.0657	4	0.000302	0	-1E+10	1	-1E+10	1	-1E+10	1
4902624	23	C	02/06/2025	12:24	-126.046	47.583	0	87.00	0	7.8400	0	33.3720	0	26.020	0	86.255	0	-1e10	1	-1e10	1	-1E+10	1	-1e10	1	-1e10	1	-1E+10	1	-1E+10	1	-1E+10	1
4902624	23	C	02/06/2025	12:24	-126.046	47.583	0	87.30	0	7.8375	0	33.3768	0	26.024	0	86.552	0	141.7	4	48.6	4	-1E+10	1	0.0672	4	0.000281	0	-1E+10	1	-1E+10	1	-1E+10	1
4902624	23	C	02/06/2025	12:24	-126.046	47.583	0	88.30	0	7.8289	0	33.3928	0	26.038	0	87.544	0	141.3	4	48.5	4	-1E+10	1	0.0719	4	0.000313	0	-1E+10	1	-1E+10	1	-1E+10	1
4902624	23	C	02/06/2025	12:24	-126.046	47.583	0	89.00	0	7.8230	0	33.4040	0	26.048	0	88.238	0	-1e10	1	-1e10	1	-1E+10	1	-1e10	1	-1e10	1	-1E+10	1	-1E+10	1	-1E+10	1
4902624	23	C	02/06/2025	12:24	-126.046	47.583	0	89.40	0	7.8202	0	33.4074	0	26.051	0	88.634	0	140.8	4	48.3	4	-1E+10	1	0.0657	4	0.000333	0	-1E+10	1	-1E+10	1	-1E+10	1
4902624	23	C	02/06/2025	12:24	-126.046	47.583	0	90.40	0	7.8132	0	33.4159	0	26.059	0	89.625	0	140.3	4	48.1	4	-1E+10	1	0.0584	4	0.000274	0	-1E+10	1	-1E+10	1	-1E+10	1
4902624	23	C	02/06/2025	12:24	-126.046	47.583	0	91.00	0	7.8090	0	33.4210	0	26.063	0	90.220	0	-1e10	1	-1e10	1	-1E+10	1	-1e10	1	-1e10	1	-1E+10	1	-1E+10	1	-1E+10	1
4902624	23	C	02/06/2025	12:24	-126.046	47.583	0	91.40	0	7.8040	0	33.4220	0	26.065	0	90.616	0	139.7	4	47.9	4	-1E+10	1	0.0462	4	0.000313	0	-1E+10	1	-1E+10	1	-1E+10	1
4902624	23	C	02/06/2025	12:24	-126.046	47.583	0	92.50	0	7.7902	0	33.4248	0	26.069	0	91.707	0	139.0	4	47.7	4	-1E+10	1	0.0640	4	0.000313	0	-1E+10	1	-1E+10	1	-1E+10	1
4902624	23	C	02/06/2025	12:24	-126.046	47.583	0	93.00	0	7.7840	0	33.4260	0	26.071	0	92.202	0	-1e10	1	-1e10	1	-1E+10	1	-1e10	1	-1e10	1	-1E+10	1	-1E+10	1	-1E+10	1
4902624	23	C	02/06/2025	12:24	-126.046	47.583	0	93.50	0	7.7795	0	33.4338	0	26.078	0	92.698	0	138.4	4	47.5	4	-1E+10	1	0.0642	4	0.000323	0	-1E+10	1	-1E+10	1	-1E+10	1
4902624	23	C	02/06/2025	12:24	-126.046	47.583	0	94.60	0	7.7696	0	33.4508	0	26.092	0	93.788	0	137.8	4	47.3	4	-1E+10	1	0.0511	4	0.000321	0	-1E+10	1	-1E+10	1	-1E+10	1
4902624	23	C	02/06/2025	12:24	-126.046	47.583	0	95.00	0	7.7660	0	33.4570	0	26.098	0	94.185	0	-1e10	1	-1e10	1	-1E+10	1	-1e10	1	-1e10	1	-1E+10	1	-1E+10	1	-1E+10	1
4902624	23	C	02/06/2025	12:24	-126.046	47.583	0	95.70	0	7.7576	0	33.4616	0	26.103	0	94.879	0	137.4	4	47.1	4	-1E+10	1	0.0487	4	0.000305	0	-1E+10	1	-1E+10	1	-1E+10	1
4902624	23	C	02/06/2025	12:24	-126.046	47.583	0	96.70	0	7.7456	0	33.4681	0	26.109	0	95.870	0	136.9	4	46.9	4	-1E+10	1	0.0597	4	0.000298	0	-1E+10	1	-1E+10	1	-1E+10	1
4902624	23	C	02/06/2025	12:24	-126.046	47.583	0	97.00	0	7.7420	0	33.4700	0	26.111	0	96.167	0	-1e10	1	-1e10	1	-1E+10	1	-1e10	1	-1e10	1	-1E+10	1	-1E+10	1	-1E+10	1
4902624	23	C	02/06/2025	12:24	-126.046	47.583	0	97.80	0	7.7348	0	33.4724	0	26.114	0	96.960	0	136.4	4	46.7	4	-1E+10	1	0.0657	4	0.000296	0	-1E+10	1	-1E+10	1	-1E+10	1
4902624	23	C	02/06/2025	12:24	-126.046	47.583	0	98.90	0	7.7249	0	33.4757	0	26.118	0	98.050	0	135.8	4	46.5	4	-1E+10	1	0.0657	4	0.000286	0	-1E+10	1	-1E+10	1	-1E+10	1
4902624	23	C	02/06/2025	12:24	-126.046	47.583	0	99.00	0	7.7240	0	33.4760	0	26.119	0	98.149	0	-1e10	1	-1e10	1	-1E+10	1	-1e10	1	-1e10	1	-1E+10	1	-1E+10	1	-1E+10	1
4902624	23	C	02/06/2025	12:24	-126.046	47.583	0	100.00	0	7.6930	0	33.4912	0	26.135	0	99.141	0	135.1	4	46.2	4	-1E+10	1	0.0410	4	0.000355	0	-1E+10	1	-1E+10	1	-1E+10	1
4902624	23	C	02/06/2025	12:24	-126.046	47.583	0	101.10	0	7.6590	0	33.5080	0	26.153	0	100.231	0	133.1	4	45.6	4	-1E+10	1	0.0484	4	0.000339	0	-1E+10	1	-1E+10	1	-1E+10	1
4902624	23	C	02/06/2025	12:24	-126.046	47.583	0	102.20	0	7.6584	0	33.5277	0	26.169	0	101.321	0	134.0	4	45.8	4	-1E+10	1	0.0511	4	0.000310	0	-1E+10	1	-1E+10	1	-1E+10	1
4902624	23	C	02/06/2025	12:24	-126.046	47.583	0	103.00	0	7.6580	0	33.5420	0	26.180	0	102.114	0	-1e10	1	-1e10	1	-1E+10	1	-1e10	1	-1e10	1	-1E+10	1	-1E+10	1	-1E+10	1
4902624	23	C	02/06/2025	12:24	-126.046	47.583	0	103.30	0	7.6528	0	33.5434	0	26.182	0	102.411	0	133.9	4	45.8	4	-1E+10	1	0.0542	4	0.000287	0	-1E+10	1	-1E+10	1	-1E+10	1
4902624	23	C	02/06/2025	12:24	-126.046	47.583	0	104.50	0	7.6318	0	33.5487	0	26.189	0	103.601	0	133.6	4	45.7	4	-1E+10	1	0.0531	4	0.000283	0	-1E+10	1	-1E+10	1	-1E+10	1
4902624	23	C	02/06/2025	12:24	-126.046	47.583	0	105.00	0	7.6230	0	33.5510	0	26.192	0	104.096	0	-1e10	1	-1e10	1	-1E+10	1	-1e10	1	-1e10	1	-1E+10	1	-1E+10	1	-1E+10	1
4902624	23	C	02/06/2025	12:24	-126.046	47.583	0	105.70	0	7.6132	0	33.5534	0	26.196	0	104.790	0	133.1	4	45.5	4	-1E+10	1	0.0516	4	0.000293	0	-1E+10	1	-1E+10	1	-1E+10	1
4902624	23	C	02/06/2025	12:24	-126.046	47.583	0	106.80	0	7.5978	0	33.5573	0	26.201	0	105.880	0	132.5	4	45.3	4	-1E+10	1	0.0626	4	0.000286	0	-1E+10	1	-1E+10	1	-1E+10	1
4902624	23	C	02/06/2025	12:24	-126.046	47.583	0	107.00	0	7.5950	0	33.5580	0	26.202	0	106.079	0	-1e10	1	-1e10	1	-1E+10	1	-1e10	1	-1e10	1	-1E+10	1	-1E+10	1	-1E+10	1
4902624	23	C	02/06/2025	12:24	-126.046	47.583	0	108.00	0	7.5810	0	33.5750	0	26.217	0	107.070	0	132.2	4	45.2	4	-1E+10	1	0.0438	4	0.000286	0	-1E+10	1	-1E+10	1	-1E+10	1
4902624	23	C	02/06/2025	12:24	-126.046	47.583	0	109.00	0	7.5670	0	33.5920	0	26.232	0	108.061	0	-1e10	1	-1e10	1	-1E+10	1	-1e10	1	-1e10	1	-1E+10	1	-1E+10	1	-1E+10	1
4902624	23	C	02/06/2025	12:24	-126.046	47.583	0	109.10	0	7.5667	0	33.5924	0	26.233	0	108.160	0	131.9	4	45.1	4	-1E+10	1	0.0511	4	0.000286	0	-1E+10	1	-1E+10	1	-1E+10	1
4902624	23	C	02/06/2025	12:24	-126.046	47.583	0	110.20	0	7.5632	0	33.5964	0	26.237	0	109.250	0	131.6	4	45.0	4	-1E+10	1	0.0511	4	0.000286	0	-1E+10	1	-1E+10	1	-1E+10	1
4902624	23	C	02/06/2025	12:24	-126.046	47.583	0	110.90	0	7.5610	0	33.5990	0	26.239	0	109.944	0	-1e10	1	-1e10	1	-1E+10	1	-1e10	1	-1e10	1	-1E+10	1	-1E+10	1	-1E+10	1
4902624	23	C	02/06/2025	12:24	-126.046	47.583	0	111.40	0	7.5610	0	33.6014	0	26.241	0	110.440	0	131.4	4	44.9	4	-1E+10	1	0.0562	4	0.000294	0	-1E+10	1	-1E+10	1	-1E+10	1
4902624	23	C	02/06/2025	12:24	-126.046	47.583	0	112.50	0	7.5610	0	33.6066	0	26.245	0	111.530	0	131.0	4	44.8	4	-1E+10	1	0.0491	4	0.000297	0	-1E+10	1	-1E+10	1	-1E+10	1
4902624	23	C	02/06/2025	12:24	-126.046	47.583	0	113.00	0	7.5610	0	33.6090	0	26.247	0	112.025	0	-1e10	1	-1e10	1	-1E+10	1	-1e10	1	-1e10	1	-1E+10	1	-1E+10	1	-1E+10	1
4902624	23	C	02/06/2025	12:24	-126.046	47.583	0	113.60	0	7.5607	0	33.6210	0	26.256	0	112.620	0	130.6	4	44.6	4	-1E+10	1	0.0548	4	0.000297	0	-1E+10	1	-1E+10	1	-1E+10	1
4902624	23	C	02/06/2025	12:24	-126.046	47.583	0	114.80	0	7.5601	0	33.6450	0	26.275	0	113.809	0	130.4	4	44.6	4	-1E+10	1	0.0573	4	0.000320	0	-1E+10	1	-1E+10	1	-1E+10	1
4902624	23	C	02/06/2025	12:24	-126.046	47.583	0	115.00	0	7.5600	0	33.6490	0	26.278	0	114.008	0	-1e10	1	-1e10	1	-1E+10	1	-1e10	1	-1e10	1	-1E+10	1	-1E+10	1	-1E+10	1
4902624	23	C	02/06/2025	12:24	-126.046	47.583	0	115.70	0	7.5583	0	33.6553	0	26.284	0	114.701	0	130.3	4	44.5	4	-1E+10	1	0.0438	4	0.000350	0	-1E+10	1	-1E+10	1	-1E+10	1
4902624	23	C	02/06/2025	12:24	-126.046	47.583	0	116.60	0	7.5562	0	33.6635	0	26.290	0	115.593	0	130.1	4	44.5	4	-1E+10	1	0.0454	4	0.000304	0	-1E+10	1	-1E+10	1	-1E+10	1
4902624	23	C	02/06/2025	12:24	-126.046	47.583	0	117.10	0	7.5550	0	33.6680	0	26.294	0	116.089	0	-1e10	1	-1e10	1	-1E+10	1	-1e10	1	-1e10	1	-1E+10	1	-1E+10	1	-1E+10	1
4902624	23	C	02/06/2025	12:24	-126.046	47.583	0	117.30	0	7.5555	0	33.6692	0	26.295	0	116.287	0	129.9	4	44.4	4	-1E+10	1	0.0511	4	0.000286	0	-1E+10	1	-1E+10	1	-1E+10	1
4902624	23	C	02/06/2025	12:24	-126.046	47.583	0	118.10	0	7.5576	0	33.6738	0	26.298	0	117.080	0	129.8	4	44.3	4	-1E+10	1	0.0381	4	0.000296	0	-1E+10	1	-1E+10	1	-1E+10	1
4902624	23	C	02/06/2025	12:24	-126.046	47.583	0	118.80	0	7.5595	0	33.6778	0	26.301	0	117.774	0	129.5	4	44.3	4	-1E+10	1	0.0529	4	0.000303	0	-1E+10	1	-1E+10	1	-1E+10	1
4902624	23	C	02/06/2025	12:24	-126.046	47.583	0	119.00	0	7.5600	0	33.6790	0	26.302	0	117.972	0	-1e10	1	-1e10	1	-1E+10	1	-1e10	1	-1e10	1	-1E+10	1	-1E+10	1	-1E+10	1
4902624	23	C	02/06/2025	12:24	-126.046	47.583	0	119.60	0	7.5591	0	33.6815	0	26.304	0	118.567	0	129.2	4	44.1	4	-1E+10	1	0.0584	4	0.000300	0	-1E+10	1	-1E+10	1	-1E+10	1
4902624	23	C	02/06/2025	12:24	-126.046	47.583	0	120.40	0	7.5578	0	33.6849	0	26.307	0	119.359	0	128.8	4	44.0	4	-1E+10	1	0.0503	4	0.000284	0	-1E+10	1	-1E+10	1	-1E+10	1
4902624	23	C	02/06/2025	12:24	-126.046	47.583	0	120.90	0	7.5570	0	33.6870	0	26.309	0	119.855	0	-1e10	1	-1e10	1	-1E+10	1	-1e10	1	-1e10	1	-1E+10	1	-1E+10	1	-1E+10	1
4902624	23	C	02/06/2025	12:24	-126.046	47.583	0	121.10	0	7.5545	0	33.6887	0	26.310	0	120.053	0	128.4	4	43.9	4	-1E+10	1	0.0438	4	0.000292	0	-1E+10	1	-1E+10	1	-1E+10	1
4902624	23	C	02/06/2025	12:24	-126.046	47.583	0	121.90	0	7.5446	0	33.6956	0	26.317	0	120.846	0	128.0	4	43.7	4	-1E+10	1	0.0462	4	0.000321	0	-1E+10	1	-1E+10	1	-1E+10	1
4902624	23	C	02/06/2025	12:24	-126.046	47.583	0	122.70	0	7.5347	0	33.7024	0	26.324	0	121.639	0	127.8	4	43.7	4	-1E+10	1	0.0526	4	0.000316	0	-1E+10	1	-1E+10	1	-1E+10	1
4902624	23	C	02/06/2025	12:24	-126.046	47.583	0	123.00	0	7.5310	0	33.7050	0	26.327	0	121.936	0	-1e10	1	-1e10	1	-1E+10	1	-1e10	1	-1e10	1	-1E+10	1	-1E+10	1	-1E+10	1
4902624	23	C	02/06/2025	12:24	-126.046	47.583	0	123.50	0	7.5225	0	33.7080	0	26.330	0	122.432	0	127.5	4	43.6	4	-1E+10	1	0.0584	4	0.000297	0	-1E+10	1	-1E+10	1	-1E+10	1
4902624	23	C	02/06/2025	12:24	-126.046	47.583	0	124.30	0	7.5089	0	33.7128	0	26.336	0	123.225	0	127.3	4	43.5	4	-1E+10	1	0.0438	4	0.000344	0	-1E+10	1	-1E+10	1	-1E+10	1
4902624	23	C	02/06/2025	12:24	-126.046	47.583	0	125.00	0	7.4970	0	33.7170	0	26.341	0	123.918	0	-1e10	1	-1e10	1	-1E+10	1	-1e10	1	-1e10	1	-1E+10	1	-1E+10	1	-1E+10	1
4902624	23	C	02/06/2025	12:24	-126.046	47.583	0	125.10	0	7.4948	0	33.7173	0	26.341	0	124.017	0	127.0	4	43.4	4	-1E+10	1	0.0496	4	0.000288	0	-1E+10	1	-1E+10	1	-1E+10	1
4902624	23	C	02/06/2025	12:24	-126.046	47.583	0	125.90	0	7.4771	0	33.7194	0	26.346	0	124.810	0	126.7	4	43.2	4	-1E+10	1	0.0467	4	0.000316	0	-1E+10	1	-1E+10	1	-1E+10	1
4902624	23	C	02/06/2025	12:24	-126.046	47.583	0	126.70	0	7.4594	0	33.7215	0	26.350	0	125.603	0	126.5	4	43.1	4	-1E+10	1	0.0474	4	0.000315	0	-1E+10	1	-1E+10	1	-1E+10	1
4902624	23	C	02/06/2025	12:24	-126.046	47.583	0	126.90	0	7.4550	0	33.7220	0	26.351	0	125.801	0	-1e10	1	-1e10	1	-1E+10	1	-1e10	1	-1e10	1	-1E+10	1	-1E+10	1	-1E+10	1
4902624	23	C	02/06/2025	12:24	-126.046	47.583	0	127.50	0	7.4467	0	33.7226	0	26.352	0	126.396	0	126.1	4	43.0	4	-1E+10	1	0.0540	4	0.000295	0	-1E+10	1	-1E+10	1	-1E+10	1
4902624	23	C	02/06/2025	12:24	-126.046	47.583	0	128.40	0	7.4343	0	33.7234	0	26.355	0	127.288	0	125.8	4	42.9	4	-1E+10	1	0.0511	4	0.000300	0	-1E+10	1	-1E+10	1	-1E+10	1
4902624	23	C	02/06/2025	12:24	-126.046	47.583	0	129.00	0	7.4260	0	33.7240	0	26.357	0	127.882	0	-1e10	1	-1e10	1	-1E+10	1	-1e10	1	-1e10	1	-1E+10	1	-1E+10	1	-1E+10	1
4902624	23	C	02/06/2025	12:24	-126.046	47.583	0	129.10	0	7.4252	0	33.7244	0	26.357	0	127.982	0	125.3	4	42.7	4	-1E+10	1	0.0383	4	0.000291	0	-1E+10	1	-1E+10	1	-1E+10	1
4902624	23	C	02/06/2025	12:24	-126.046	47.583	0	130.00	0	7.4180	0	33.7285	0	26.361	0	128.873	0	124.8	4	42.5	4	-1E+10	1	0.0453	4	0.000394	0	-1E+10	1	-1E+10	1	-1E+10	1
4902624	23	C	02/06/2025	12:24	-126.046	47.583	0	130.80	0	7.4116	0	33.7321	0	26.365	0	129.666	0	124.2	4	42.3	4	-1E+10	1	0.0219	4	0.000544	0	-1E+10	1	-1E+10	1	-1E+10	1
4902624	23	C	02/06/2025	12:24	-126.046	47.583	0	131.00	0	7.4100	0	33.7330	0	26.366	0	129.864	0	-1e10	1	-1e10	1	-1E+10	1	-1e10	1	-1e10	1	-1E+10	1	-1E+10	1	-1E+10	1
4902624	23	C	02/06/2025	12:24	-126.046	47.583	0	131.70	0	7.4005	0	33.7421	0	26.374	0	130.558	0	123.9	4	42.2	4	-1E+10	1	0.0398	4	0.000380	0	-1E+10	1	-1E+10	1	-1E+10	1
4902624	23	C	02/06/2025	12:24	-126.046	47.583	0	132.60	0	7.3884	0	33.7538	0	26.385	0	131.450	0	123.6	4	42.1	4	-1E+10	1	0.0438	4	0.000272	0	-1E+10	1	-1E+10	1	-1E+10	1
4902624	23	C	02/06/2025	12:24	-126.046	47.583	0	133.00	0	7.3830	0	33.7590	0	26.390	0	131.846	0	-1e10	1	-1e10	1	-1E+10	1	-1e10	1	-1e10	1	-1E+10	1	-1E+10	1	-1E+10	1
4902624	23	C	02/06/2025	12:24	-126.046	47.583	0	133.40	0	7.3808	0	33.7594	0	26.391	0	132.243	0	123.3	4	42.0	4	-1E+10	1	0.0438	4	0.000277	0	-1E+10	1	-1E+10	1	-1E+10	1
4902624	23	C	02/06/2025	12:24	-126.046	47.583	0	134.30	0	7.3759	0	33.7603	0	26.392	0	133.135	0	123.0	4	41.9	4	-1E+10	1	0.0402	4	0.000297	0	-1E+10	1	-1E+10	1	-1E+10	1
4902624	23	C	02/06/2025	12:24	-126.046	47.583	0	135.00	0	7.3720	0	33.7610	0	26.393	0	133.829	0	-1e10	1	-1e10	1	-1E+10	1	-1e10	1	-1e10	1	-1E+10	1	-1E+10	1	-1E+10	1
4902624	23	C	02/06/2025	12:24	-126.046	47.583	0	135.20	0	7.3706	0	33.7614	0	26.394	0	134.027	0	122.7	4	41.8	4	-1E+10	1	0.0462	4	0.000304	0	-1E+10	1	-1E+10	1	-1E+10	1
4902624	23	C	02/06/2025	12:24	-126.046	47.583	0	136.00	0	7.3652	0	33.7631	0	26.396	0	134.819	0	122.2	4	41.6	4	-1E+10	1	0.0518	4	0.000294	0	-1E+10	1	-1E+10	1	-1E+10	1
4902624	23	C	02/06/2025	12:24	-126.046	47.583	0	136.90	0	7.3590	0	33.7650	0	26.398	0	135.711	0	120.5	4	41.0	4	-1E+10	1	0.0380	4	0.000297	0	-1E+10	1	-1E+10	1	-1E+10	1
4902624	23	C	02/06/2025	12:24	-126.046	47.583	0	137.70	0	7.3483	0	33.7677	0	26.402	0	136.504	0	121.3	4	41.3	4	-1E+10	1	0.0438	4	0.000344	0	-1E+10	1	-1E+10	1	-1E+10	1
4902624	23	C	02/06/2025	12:24	-126.046	47.583	0	138.60	0	7.3363	0	33.7707	0	26.406	0	137.396	0	120.9	4	41.1	4	-1E+10	1	0.0365	4	0.000368	0	-1E+10	1	-1E+10	1	-1E+10	1
4902624	23	C	02/06/2025	12:24	-126.046	47.583	0	139.00	0	7.3310	0	33.7720	0	26.408	0	137.792	0	-1e10	1	-1e10	1	-1E+10	1	-1e10	1	-1e10	1	-1E+10	1	-1E+10	1	-1E+10	1
4902624	23	C	02/06/2025	12:24	-126.046	47.583	0	139.40	0	7.3236	0	33.7748	0	26.411	0	138.189	0	120.4	4	41.0	4	-1E+10	1	0.0423	4	0.000321	0	-1E+10	1	-1E+10	1	-1E+10	1
4902624	23	C	02/06/2025	12:24	-126.046	47.583	0	140.30	0	7.3070	0	33.7811	0	26.418	0	139.081	0	119.9	4	40.8	4	-1E+10	1	0.0484	4	0.000309	0	-1E+10	1	-1E+10	1	-1E+10	1
4902624	23	C	02/06/2025	12:24	-126.046	47.583	0	141.00	0	7.2940	0	33.7860	0	26.424	0	139.774	0	-1e10	1	-1e10	1	-1E+10	1	-1e10	1	-1e10	1	-1E+10	1	-1E+10	1	-1E+10	1
4902624	23	C	02/06/2025	12:24	-126.046	47.583	0	141.20	0	7.2937	0	33.7865	0	26.424	0	139.973	0	119.6	4	40.7	4	-1E+10	1	0.0420	4	0.000324	0	-1E+10	1	-1E+10	1	-1E+10	1
4902624	23	C	02/06/2025	12:24	-126.046	47.583	0	142.10	0	7.2923	0	33.7887	0	26.426	0	140.864	0	119.3	4	40.6	4	-1E+10	1	0.0365	4	0.000339	0	-1E+10	1	-1E+10	1	-1E+10	1
4902624	23	C	02/06/2025	12:24	-126.046	47.583	0	142.90	0	7.2912	0	33.7907	0	26.428	0	141.657	0	118.9	4	40.4	4	-1E+10	1	0.0365	4	0.000334	0	-1E+10	1	-1E+10	1	-1E+10	1
4902624	23	C	02/06/2025	12:24	-126.046	47.583	0	143.00	0	7.2910	0	33.7910	0	26.428	0	141.756	0	-1e10	1	-1e10	1	-1E+10	1	-1e10	1	-1e10	1	-1E+10	1	-1E+10	1	-1E+10	1
4902624	23	C	02/06/2025	12:24	-126.046	47.583	0	143.80	0	7.2898	0	33.7938	0	26.431	0	142.549	0	118.7	4	40.3	4	-1E+10	1	0.0365	4	0.000319	0	-1E+10	1	-1E+10	1	-1E+10	1
4902624	23	C	02/06/2025	12:24	-126.046	47.583	0	144.60	0	7.2886	0	33.7966	0	26.433	0	143.342	0	118.4	4	40.3	4	-1E+10	1	0.0380	4	0.000356	0	-1E+10	1	-1E+10	1	-1E+10	1
4902624	23	C	02/06/2025	12:24	-126.046	47.583	0	145.00	0	7.2880	0	33.7980	0	26.434	0	143.738	0	-1e10	1	-1e10	1	-1E+10	1	-1e10	1	-1e10	1	-1E+10	1	-1E+10	1	-1E+10	1
4902624	23	C	02/06/2025	12:24	-126.046	47.583	0	145.50	0	7.2866	0	33.7992	0	26.435	0	144.234	0	118.3	4	40.2	4	-1E+10	1	0.0511	4	0.000356	0	-1E+10	1	-1E+10	1	-1E+10	1
4902624	23	C	02/06/2025	12:24	-126.046	47.583	0	146.30	0	7.2843	0	33.8011	0	26.437	0	145.026	0	118.1	4	40.2	4	-1E+10	1	0.0394	4	0.000328	0	-1E+10	1	-1E+10	1	-1E+10	1
4902624	23	C	02/06/2025	12:24	-126.046	47.583	0	147.10	0	7.2820	0	33.8030	0	26.439	0	145.819	0	-1e10	1	-1e10	1	-1E+10	1	-1e10	1	-1e10	1	-1E+10	1	-1E+10	1	-1E+10	1
4902624	23	C	02/06/2025	12:24	-126.046	47.583	0	147.20	0	7.2807	0	33.8032	0	26.439	0	145.918	0	118.0	4	40.1	4	-1E+10	1	0.0429	4	0.000300	0	-1E+10	1	-1E+10	1	-1E+10	1
4902624	23	C	02/06/2025	12:24	-126.046	47.583	0	148.00	0	7.2699	0	33.8053	0	26.443	0	146.711	0	117.8	4	40.0	4	-1E+10	1	0.0438	4	0.000338	0	-1E+10	1	-1E+10	1	-1E+10	1
4902624	23	C	02/06/2025	12:24	-126.046	47.583	0	148.80	0	7.2590	0	33.8073	0	26.446	0	147.504	0	117.5	4	39.9	4	-1E+10	1	0.0402	4	0.000326	0	-1E+10	1	-1E+10	1	-1E+10	1
4902624	23	C	02/06/2025	12:24	-126.046	47.583	0	149.10	0	7.2550	0	33.8080	0	26.447	0	147.801	0	-1e10	1	-1e10	1	-1E+10	1	-1e10	1	-1e10	1	-1E+10	1	-1E+10	1	-1E+10	1
4902624	23	C	02/06/2025	12:24	-126.046	47.583	0	149.60	0	7.2465	0	33.8095	0	26.449	0	148.297	0	117.2	4	39.8	4	-1E+10	1	0.0392	4	0.000302	0	-1E+10	1	-1E+10	1	-1E+10	1
4902624	23	C	02/06/2025	12:24	-126.046	47.583	0	150.40	0	7.2329	0	33.8119	0	26.453	0	149.089	0	116.7	4	39.6	4	-1E+10	1	0.0438	4	0.000317	0	-1E+10	1	-1E+10	1	-1E+10	1
4902624	23	C	02/06/2025	12:24	-126.046	47.583	0	151.10	0	7.2210	0	33.8140	0	26.456	0	149.783	0	-1e10	1	-1e10	1	-1E+10	1	-1e10	1	-1e10	1	-1E+10	1	-1E+10	1	-1E+10	1
4902624	23	C	02/06/2025	12:24	-126.046	47.583	0	151.30	0	7.2198	0	33.8143	0	26.457	0	149.981	0	116.3	4	39.5	4	-1E+10	1	0.0438	4	0.000328	0	-1E+10	1	-1E+10	1	-1E+10	1
4902624	23	C	02/06/2025	12:24	-126.046	47.583	0	152.10	0	7.2150	0	33.8155	0	26.458	0	150.774	0	115.8	4	39.3	4	-1E+10	1	0.0406	4	0.000339	0	-1E+10	1	-1E+10	1	-1E+10	1
4902624	23	C	02/06/2025	12:24	-126.046	47.583	0	153.00	0	7.2096	0	33.8169	0	26.460	0	151.666	0	115.2	4	39.1	4	-1E+10	1	0.0336	4	0.000419	0	-1E+10	1	-1E+10	1	-1E+10	1
4902624	23	C	02/06/2025	12:24	-126.046	47.583	0	153.10	0	7.2090	0	33.8170	0	26.460	0	151.765	0	-1e10	1	-1e10	1	-1E+10	1	-1e10	1	-1e10	1	-1E+10	1	-1E+10	1	-1E+10	1
4902624	23	C	02/06/2025	12:24	-126.046	47.583	0	153.80	0	7.2005	0	33.8196	0	26.464	0	152.458	0	114.7	4	38.9	4	-1E+10	1	0.0511	4	0.000485	0	-1E+10	1	-1E+10	1	-1E+10	1
4902624	23	C	02/06/2025	12:24	-126.046	47.583	0	154.60	0	7.1908	0	33.8225	0	26.467	0	153.251	0	114.2	4	38.8	4	-1E+10	1	0.0511	4	0.000339	0	-1E+10	1	-1E+10	1	-1E+10	1
4902624	23	C	02/06/2025	12:24	-126.046	47.583	0	155.00	0	7.1860	0	33.8240	0	26.469	0	153.648	0	-1e10	1	-1e10	1	-1E+10	1	-1e10	1	-1e10	1	-1E+10	1	-1E+10	1	-1E+10	1
4902624	23	C	02/06/2025	12:24	-126.046	47.583	0	155.40	0	7.1784	0	33.8260	0	26.472	0	154.044	0	113.8	4	38.6	4	-1E+10	1	0.0454	4	0.000403	0	-1E+10	1	-1E+10	1	-1E+10	1
4902624	23	C	02/06/2025	12:24	-126.046	47.583	0	156.20	0	7.1632	0	33.8300	0	26.477	0	154.837	0	113.5	4	38.5	4	-1E+10	1	0.0487	4	0.000317	0	-1E+10	1	-1E+10	1	-1E+10	1
4902624	23	C	02/06/2025	12:24	-126.046	47.583	0	157.00	0	7.1480	0	33.8340	0	26.482	0	155.629	0	112.0	4	38.0	4	-1E+10	1	0.0548	4	0.000279	0	-1E+10	1	-1E+10	1	-1E+10	1
4902624	23	C	02/06/2025	12:24	-126.046	47.583	0	157.90	0	7.1345	0	33.8363	0	26.486	0	156.521	0	113.0	4	38.3	4	-1E+10	1	0.0487	4	0.000318	0	-1E+10	1	-1E+10	1	-1E+10	1
4902624	23	C	02/06/2025	12:24	-126.046	47.583	0	158.70	0	7.1225	0	33.8382	0	26.489	0	157.314	0	112.7	4	38.2	4	-1E+10	1	0.0387	4	0.000362	0	-1E+10	1	-1E+10	1	-1E+10	1
4902624	23	C	02/06/2025	12:24	-126.046	47.583	0	159.00	0	7.1180	0	33.8390	0	26.490	0	157.611	0	-1e10	1	-1e10	1	-1E+10	1	-1e10	1	-1e10	1	-1E+10	1	-1E+10	1	-1E+10	1
4902624	23	C	02/06/2025	12:24	-126.046	47.583	0	159.50	0	7.1155	0	33.8392	0	26.491	0	158.107	0	112.3	4	38.0	4	-1E+10	1	0.0438	4	0.000394	0	-1E+10	1	-1E+10	1	-1E+10	1
4902624	23	C	02/06/2025	12:24	-126.046	47.583	0	160.40	0	7.1110	0	33.8397	0	26.492	0	158.998	0	111.9	4	37.9	4	-1E+10	1	0.0438	4	0.000321	0	-1E+10	1	-1E+10	1	-1E+10	1
4902624	23	C	02/06/2025	12:24	-126.046	47.583	0	161.00	0	7.1080	0	33.8400	0	26.492	0	159.593	0	-1e10	1	-1e10	1	-1E+10	1	-1e10	1	-1e10	1	-1E+10	1	-1E+10	1	-1E+10	1
4902624	23	C	02/06/2025	12:24	-126.046	47.583	0	161.20	0	7.1058	0	33.8403	0	26.493	0	159.791	0	111.5	4	37.8	4	-1E+10	1	0.0438	4	0.000332	0	-1E+10	1	-1E+10	1	-1E+10	1
4902624	23	C	02/06/2025	12:24	-126.046	47.583	0	162.00	0	7.0970	0	33.8415	0	26.495	0	160.584	0	111.1	4	37.6	4	-1E+10	1	0.0555	4	0.000332	0	-1E+10	1	-1E+10	1	-1E+10	1
4902624	23	C	02/06/2025	12:24	-126.046	47.583	0	162.80	0	7.0882	0	33.8427	0	26.497	0	161.376	0	110.6	4	37.5	4	-1E+10	1	0.0409	4	0.000318	0	-1E+10	1	-1E+10	1	-1E+10	1
4902624	23	C	02/06/2025	12:24	-126.046	47.583	0	163.00	0	7.0860	0	33.8430	0	26.498	0	161.575	0	-1e10	1	-1e10	1	-1E+10	1	-1e10	1	-1e10	1	-1E+10	1	-1E+10	1	-1E+10	1
4902624	23	C	02/06/2025	12:24	-126.046	47.583	0	163.60	0	7.0826	0	33.8433	0	26.499	0	162.169	0	110.1	4	37.3	4	-1E+10	1	0.0329	4	0.000315	0	-1E+10	1	-1E+10	1	-1E+10	1
4902624	23	C	02/06/2025	12:24	-126.046	47.583	0	164.50	0	7.0774	0	33.8437	0	26.500	0	163.061	0	109.5	4	37.1	4	-1E+10	1	0.0402	4	0.000297	0	-1E+10	1	-1E+10	1	-1E+10	1
4902624	23	C	02/06/2025	12:24	-126.046	47.583	0	165.10	0	7.0740	0	33.8440	0	26.500	0	163.655	0	-1e10	1	-1e10	1	-1E+10	1	-1e10	1	-1e10	1	-1E+10	1	-1E+10	1	-1E+10	1
4902624	23	C	02/06/2025	12:24	-126.046	47.583	0	165.30	0	7.0721	0	33.8443	0	26.501	0	163.854	0	108.7	4	36.8	4	-1E+10	1	0.0438	4	0.000302	0	-1E+10	1	-1E+10	1	-1E+10	1
4902624	23	C	02/06/2025	12:24	-126.046	47.583	0	166.10	0	7.0645	0	33.8455	0	26.503	0	164.646	0	107.9	4	36.5	4	-1E+10	1	0.0429	4	0.000363	0	-1E+10	1	-1E+10	1	-1E+10	1
4902624	23	C	02/06/2025	12:24	-126.046	47.583	0	166.90	0	7.0569	0	33.8467	0	26.505	0	165.439	0	107.1	4	36.2	4	-1E+10	1	0.0372	4	0.000330	0	-1E+10	1	-1E+10	1	-1E+10	1
4902624	23	C	02/06/2025	12:24	-126.046	47.583	0	167.10	0	7.0550	0	33.8470	0	26.505	0	165.637	0	-1e10	1	-1e10	1	-1E+10	1	-1e10	1	-1e10	1	-1E+10	1	-1E+10	1	-1E+10	1
4902624	23	C	02/06/2025	12:24	-126.046	47.583	0	167.80	0	7.0434	0	33.8491	0	26.509	0	166.331	0	106.6	4	36.1	4	-1E+10	1	0.0438	4	0.000309	0	-1E+10	1	-1E+10	1	-1E+10	1
4902624	23	C	02/06/2025	12:24	-126.046	47.583	0	168.60	0	7.0302	0	33.8515	0	26.512	0	167.123	0	106.3	4	35.9	4	-1E+10	1	0.0555	4	0.000318	0	-1E+10	1	-1E+10	1	-1E+10	1
4902624	23	C	02/06/2025	12:24	-126.046	47.583	0	169.10	0	7.0220	0	33.8530	0	26.515	0	167.619	0	-1e10	1	-1e10	1	-1E+10	1	-1e10	1	-1e10	1	-1E+10	1	-1E+10	1	-1E+10	1
4902624	23	C	02/06/2025	12:24	-126.046	47.583	0	169.50	0	7.0206	0	33.8530	0	26.515	0	168.015	0	106.0	4	35.8	4	-1E+10	1	0.0527	4	0.000311	0	-1E+10	1	-1E+10	1	-1E+10	1
4902624	23	C	02/06/2025	12:24	-126.046	47.583	0	170.30	0	7.0178	0	33.8530	0	26.515	0	168.808	0	105.6	4	35.7	4	-1E+10	1	0.0511	4	0.000309	0	-1E+10	1	-1E+10	1	-1E+10	1
4902624	23	C	02/06/2025	12:24	-126.046	47.583	0	171.10	0	7.0150	0	33.8530	0	26.516	0	169.600	0	104.1	4	35.2	4	-1E+10	1	0.0544	4	0.000330	0	-1E+10	1	-1E+10	1	-1E+10	1
4902624	23	C	02/06/2025	12:24	-126.046	47.583	0	172.00	0	7.0024	0	33.8544	0	26.518	0	170.492	0	104.8	4	35.4	4	-1E+10	1	0.0502	4	0.000334	0	-1E+10	1	-1E+10	1	-1E+10	1
4902624	23	C	02/06/2025	12:24	-126.046	47.583	0	172.80	0	6.9912	0	33.8555	0	26.521	0	171.285	0	104.4	4	35.3	4	-1E+10	1	0.0431	4	0.000297	0	-1E+10	1	-1E+10	1	-1E+10	1
4902624	23	C	02/06/2025	12:24	-126.046	47.583	0	173.10	0	6.9870	0	33.8560	0	26.522	0	171.582	0	-1e10	1	-1e10	1	-1E+10	1	-1e10	1	-1e10	1	-1E+10	1	-1E+10	1	-1E+10	1
4902624	23	C	02/06/2025	12:24	-126.046	47.583	0	173.60	0	6.9738	0	33.8573	0	26.525	0	172.077	0	104.0	4	35.1	4	-1E+10	1	0.0569	4	0.000297	0	-1E+10	1	-1E+10	1	-1E+10	1
4902624	23	C	02/06/2025	12:24	-126.046	47.583	0	174.50	0	6.9502	0	33.8597	0	26.530	0	172.969	0	103.5	4	34.9	4	-1E+10	1	0.0438	4	0.000297	0	-1E+10	1	-1E+10	1	-1E+10	1
4902624	23	C	02/06/2025	12:24	-126.046	47.583	0	175.00	0	6.9370	0	33.8610	0	26.533	0	173.465	0	-1e10	1	-1e10	1	-1E+10	1	-1e10	1	-1e10	1	-1E+10	1	-1E+10	1	-1E+10	1
4902624	23	C	02/06/2025	12:24	-126.046	47.583	0	175.40	0	6.9280	0	33.8622	0	26.535	0	173.861	0	103.1	4	34.8	4	-1E+10	1	0.0365	4	0.000320	0	-1E+10	1	-1E+10	1	-1E+10	1
4902624	23	C	02/06/2025	12:24	-126.046	47.583	0	176.20	0	6.9100	0	33.8646	0	26.539	0	174.654	0	102.7	4	34.7	4	-1E+10	1	0.0482	4	0.000349	0	-1E+10	1	-1E+10	1	-1E+10	1
4902624	23	C	02/06/2025	12:24	-126.046	47.583	0	177.00	0	6.8920	0	33.8670	0	26.543	0	175.446	0	-1e10	1	-1e10	1	-1E+10	1	-1e10	1	-1e10	1	-1E+10	1	-1E+10	1	-1E+10	1
4902624	23	C	02/06/2025	12:24	-126.046	47.583	0	177.10	0	6.8904	0	33.8671	0	26.544	0	175.545	0	102.3	4	34.5	4	-1E+10	1	0.0511	4	0.000356	0	-1E+10	1	-1E+10	1	-1E+10	1
4902624	23	C	02/06/2025	12:24	-126.046	47.583	0	178.00	0	6.8760	0	33.8685	0	26.547	0	176.437	0	101.8	4	34.3	4	-1E+10	1	0.0465	4	0.000319	0	-1E+10	1	-1E+10	1	-1E+10	1
4902624	23	C	02/06/2025	12:24	-126.046	47.583	0	178.80	0	6.8632	0	33.8697	0	26.549	0	177.230	0	101.3	4	34.1	4	-1E+10	1	0.0438	4	0.000281	0	-1E+10	1	-1E+10	1	-1E+10	1
4902624	23	C	02/06/2025	12:24	-126.046	47.583	0	179.00	0	6.8600	0	33.8700	0	26.550	0	177.428	0	-1e10	1	-1e10	1	-1E+10	1	-1e10	1	-1e10	1	-1E+10	1	-1E+10	1	-1E+10	1
4902624	23	C	02/06/2025	12:24	-126.046	47.583	0	179.70	0	6.8530	0	33.8711	0	26.552	0	178.121	0	100.8	4	34.0	4	-1E+10	1	0.0438	4	0.000279	0	-1E+10	1	-1E+10	1	-1E+10	1
4902624	23	C	02/06/2025	12:24	-126.046	47.583	0	180.60	0	6.8440	0	33.8725	0	26.554	0	179.013	0	100.3	4	33.8	4	-1E+10	1	0.0454	4	0.000313	0	-1E+10	1	-1E+10	1	-1E+10	1
4902624	23	C	02/06/2025	12:24	-126.046	47.583	0	180.90	0	6.8410	0	33.8730	0	26.555	0	179.310	0	-1e10	1	-1e10	1	-1E+10	1	-1e10	1	-1e10	1	-1E+10	1	-1E+10	1	-1E+10	1
4902624	23	C	02/06/2025	12:24	-126.046	47.583	0	181.50	0	6.8311	0	33.8736	0	26.557	0	179.905	0	99.9	4	33.6	4	-1E+10	1	0.0511	4	0.000285	0	-1E+10	1	-1E+10	1	-1E+10	1
4902624	23	C	02/06/2025	12:24	-126.046	47.583	0	182.40	0	6.8162	0	33.8745	0	26.560	0	180.796	0	99.6	4	33.5	4	-1E+10	1	0.0511	4	0.000285	0	-1E+10	1	-1E+10	1	-1E+10	1
4902624	23	C	02/06/2025	12:24	-126.046	47.583	0	182.90	0	6.8080	0	33.8750	0	26.561	0	181.292	0	-1e10	1	-1e10	1	-1E+10	1	-1e10	1	-1e10	1	-1E+10	1	-1E+10	1	-1E+10	1
4902624	23	C	02/06/2025	12:24	-126.046	47.583	0	183.30	0	6.8017	0	33.8746	0	26.562	0	181.688	0	99.0	4	33.3	4	-1E+10	1	0.0571	4	0.000285	0	-1E+10	1	-1E+10	1	-1E+10	1
4902624	23	C	02/06/2025	12:24	-126.046	47.583	0	184.20	0	6.7876	0	33.8738	0	26.563	0	182.580	0	98.2	4	33.0	4	-1E+10	1	0.0470	4	0.000322	0	-1E+10	1	-1E+10	1	-1E+10	1
4902624	23	C	02/06/2025	12:24	-126.046	47.583	0	185.00	0	6.7750	0	33.8730	0	26.564	0	183.372	0	-1e10	1	-1e10	1	-1E+10	1	-1e10	1	-1e10	1	-1E+10	1	-1E+10	1	-1E+10	1
4902624	23	C	02/06/2025	12:24	-126.046	47.583	0	185.10	0	6.7741	0	33.8734	0	26.564	0	183.472	0	97.5	4	32.8	4	-1E+10	1	0.0484	4	0.000310	0	-1E+10	1	-1E+10	1	-1E+10	1
4902624	23	C	02/06/2025	12:24	-126.046	47.583	0	186.00	0	6.7660	0	33.8765	0	26.568	0	184.363	0	96.8	4	32.5	4	-1E+10	1	0.0544	4	0.000286	0	-1E+10	1	-1E+10	1	-1E+10	1
4902624	23	C	02/06/2025	12:24	-126.046	47.583	0	186.90	0	6.7579	0	33.8797	0	26.571	0	185.255	0	96.1	4	32.3	4	-1E+10	1	0.0560	4	0.000336	0	-1E+10	1	-1E+10	1	-1E+10	1
4902624	23	C	02/06/2025	12:24	-126.046	47.583	0	187.00	0	6.7570	0	33.8800	0	26.572	0	185.354	0	-1e10	1	-1e10	1	-1E+10	1	-1e10	1	-1e10	1	-1E+10	1	-1E+10	1	-1E+10	1
4902624	23	C	02/06/2025	12:24	-126.046	47.583	0	187.90	0	6.7442	0	33.8828	0	26.576	0	186.246	0	95.4	4	32.1	4	-1E+10	1	0.0511	4	0.000435	0	-1E+10	1	-1E+10	1	-1E+10	1
4902624	23	C	02/06/2025	12:24	-126.046	47.583	0	188.80	0	6.7314	0	33.8857	0	26.580	0	187.137	0	94.8	4	31.9	4	-1E+10	1	0.0511	4	0.000374	0	-1E+10	1	-1E+10	1	-1E+10	1
4902624	23	C	02/06/2025	12:24	-126.046	47.583	0	188.90	0	6.7300	0	33.8860	0	26.580	0	187.236	0	-1e10	1	-1e10	1	-1E+10	1	-1e10	1	-1e10	1	-1E+10	1	-1E+10	1	-1E+10	1
4902624	23	C	02/06/2025	12:24	-126.046	47.583	0	189.70	0	6.7235	0	33.8875	0	26.582	0	188.029	0	94.3	4	31.7	4	-1E+10	1	0.0511	4	0.000297	0	-1E+10	1	-1E+10	1	-1E+10	1
4902624	23	C	02/06/2025	12:24	-126.046	47.583	0	190.60	0	6.7162	0	33.8892	0	26.585	0	188.921	0	94.0	4	31.6	4	-1E+10	1	0.0438	4	0.000344	0	-1E+10	1	-1E+10	1	-1E+10	1
4902624	23	C	02/06/2025	12:24	-126.046	47.583	0	191.00	0	6.7130	0	33.8900	0	26.586	0	189.317	0	-1e10	1	-1e10	1	-1E+10	1	-1e10	1	-1e10	1	-1E+10	1	-1E+10	1	-1E+10	1
4902624	23	C	02/06/2025	12:24	-126.046	47.583	0	191.60	0	6.7084	0	33.8906	0	26.587	0	189.911	0	93.7	4	31.5	4	-1E+10	1	0.0438	4	0.000393	0	-1E+10	1	-1E+10	1	-1E+10	1
4902624	23	C	02/06/2025	12:24	-126.046	47.583	0	192.50	0	6.7016	0	33.8914	0	26.588	0	190.803	0	93.2	4	31.3	4	-1E+10	1	0.0484	4	0.000320	0	-1E+10	1	-1E+10	1	-1E+10	1
4902624	23	C	02/06/2025	12:24	-126.046	47.583	0	193.10	0	6.6970	0	33.8920	0	26.589	0	191.397	0	-1e10	1	-1e10	1	-1E+10	1	-1e10	1	-1e10	1	-1E+10	1	-1E+10	1	-1E+10	1
4902624	23	C	02/06/2025	12:24	-126.046	47.583	0	193.50	0	6.6934	0	33.8924	0	26.590	0	191.794	0	92.9	4	31.2	4	-1E+10	1	0.0423	4	0.000287	0	-1E+10	1	-1E+10	1	-1E+10	1
4902624	23	C	02/06/2025	12:24	-126.046	47.583	0	194.40	0	6.6854	0	33.8934	0	26.592	0	192.685	0	92.6	4	31.1	4	-1E+10	1	0.0431	4	0.000311	0	-1E+10	1	-1E+10	1	-1E+10	1
4902624	23	C	02/06/2025	12:24	-126.046	47.583	0	195.00	0	6.6800	0	33.8940	0	26.593	0	193.280	0	-1e10	1	-1e10	1	-1E+10	1	-1e10	1	-1e10	1	-1E+10	1	-1E+10	1	-1E+10	1
4902624	23	C	02/06/2025	12:24	-126.046	47.583	0	195.40	0	6.6781	0	33.8940	0	26.594	0	193.676	0	92.3	4	31.0	4	-1E+10	1	0.0511	4	0.000316	0	-1E+10	1	-1E+10	1	-1E+10	1
4902624	23	C	02/06/2025	12:24	-126.046	47.583	0	196.30	0	6.6738	0	33.8940	0	26.594	0	194.568	0	91.9	4	30.8	4	-1E+10	1	0.0511	4	0.000293	0	-1E+10	1	-1E+10	1	-1E+10	1
4902624	23	C	02/06/2025	12:24	-126.046	47.583	0	197.10	0	6.6700	0	33.8940	0	26.595	0	195.360	0	-1e10	1	-1e10	1	-1E+10	1	-1e10	1	-1e10	1	-1E+10	1	-1E+10	1	-1E+10	1
4902624	23	C	02/06/2025	12:24	-126.046	47.583	0	197.30	0	6.6690	0	33.8940	0	26.595	0	195.558	0	91.6	4	30.7	4	-1E+10	1	0.0524	4	0.000287	0	-1E+10	1	-1E+10	1	-1E+10	1
4902624	23	C	02/06/2025	12:24	-126.046	47.583	0	198.20	0	6.6645	0	33.8940	0	26.595	0	196.450	0	91.2	4	30.6	4	-1E+10	1	0.0584	4	0.000320	0	-1E+10	1	-1E+10	1	-1E+10	1
4902624	23	C	02/06/2025	12:24	-126.046	47.583	0	198.90	0	6.6610	0	33.8940	0	26.596	0	197.144	0	-1e10	1	-1e10	1	-1E+10	1	-1e10	1	-1e10	1	-1E+10	1	-1E+10	1	-1E+10	1
4902624	23	C	02/06/2025	12:24	-126.046	47.583	0	199.20	0	6.6600	0	33.8941	0	26.596	0	197.441	0	90.8	4	30.4	4	-1E+10	1	0.0523	4	0.000369	0	-1E+10	1	-1E+10	1	-1E+10	1
4902624	23	C	02/06/2025	12:24	-126.046	47.583	0	200.20	0	6.6569	0	33.8946	0	26.597	0	198.431	0	90.3	4	30.3	4	-1E+10	1	0.0628	4	0.000360	0	-1E+10	1	-1E+10	1	-1E+10	1
4902624	23	C	02/06/2025	12:24	-126.046	47.583	0	201.10	0	6.6540	0	33.8950	0	26.598	0	199.323	0	-1e10	1	-1e10	1	-1E+10	1	-1e10	1	-1e10	1	-1E+10	1	-1E+10	1	-1E+10	1
4902624	23	C	02/06/2025	12:24	-126.046	47.583	0	201.20	0	6.6524	0	33.8952	0	26.598	0	199.422	0	89.9	4	30.1	4	-1E+10	1	0.0511	4	0.000316	0	-1E+10	1	-1E+10	1	-1E+10	1
4902624	23	C	02/06/2025	12:24	-126.046	47.583	0	202.10	0	6.6377	0	33.8966	0	26.601	0	200.314	0	89.5	4	30.0	4	-1E+10	1	0.0499	4	0.000292	0	-1E+10	1	-1E+10	1	-1E+10	1
4902624	23	C	02/06/2025	12:24	-126.046	47.583	0	203.00	0	6.6230	0	33.8980	0	26.604	0	201.205	0	-1e10	1	-1e10	1	-1E+10	1	-1e10	1	-1e10	1	-1E+10	1	-1E+10	1	-1E+10	1
4902624	23	C	02/06/2025	12:24	-126.046	47.583	0	203.10	0	6.6225	0	33.8979	0	26.604	0	201.304	0	89.2	4	29.9	4	-1E+10	1	0.0584	4	0.000285	0	-1E+10	1	-1E+10	1	-1E+10	1
4902624	23	C	02/06/2025	12:24	-126.046	47.583	0	204.10	0	6.6170	0	33.8974	0	26.604	0	202.295	0	88.8	4	29.8	4	-1E+10	1	0.0584	4	0.000289	0	-1E+10	1	-1E+10	1	-1E+10	1
4902624	23	C	02/06/2025	12:24	-126.046	47.583	0	205.00	0	6.6120	0	33.8970	0	26.605	0	203.187	0	-1e10	1	-1e10	1	-1E+10	1	-1e10	1	-1e10	1	-1E+10	1	-1E+10	1	-1E+10	1
4902624	23	C	02/06/2025	12:24	-126.046	47.583	0	205.10	0	6.6114	0	33.8970	0	26.605	0	203.286	0	88.3	4	29.6	4	-1E+10	1	0.0584	4	0.000299	0	-1E+10	1	-1E+10	1	-1E+10	1
4902624	23	C	02/06/2025	12:24	-126.046	47.583	0	206.10	0	6.6057	0	33.8970	0	26.606	0	204.276	0	87.8	4	29.4	4	-1E+10	1	0.0584	4	0.000308	0	-1E+10	1	-1E+10	1	-1E+10	1
4902624	23	C	02/06/2025	12:24	-126.046	47.583	0	207.10	0	6.6000	0	33.8970	0	26.606	0	205.267	0	-1e10	1	-1e10	1	-1E+10	1	-1e10	1	-1e10	1	-1E+10	1	-1E+10	1	-1E+10	1
4902624	23	C	02/06/2025	12:24	-126.046	47.583	0	207.20	0	6.5975	0	33.8973	0	26.607	0	205.366	0	87.2	4	29.2	4	-1E+10	1	0.0511	4	0.000297	0	-1E+10	1	-1E+10	1	-1E+10	1
4902624	23	C	02/06/2025	12:24	-126.046	47.583	0	208.20	0	6.5731	0	33.8997	0	26.612	0	206.357	0	86.7	4	29.0	4	-1E+10	1	0.0584	4	0.000285	0	-1E+10	1	-1E+10	1	-1E+10	1
4902624	23	C	02/06/2025	12:24	-126.046	47.583	0	209.10	0	6.5510	0	33.9020	0	26.617	0	207.248	0	-1e10	1	-1e10	1	-1E+10	1	-1e10	1	-1e10	1	-1E+10	1	-1E+10	1	-1E+10	1
4902624	23	C	02/06/2025	12:24	-126.046	47.583	0	209.30	0	6.5485	0	33.9020	0	26.617	0	207.446	0	86.2	4	28.8	4	-1E+10	1	0.0399	4	0.000265	0	-1E+10	1	-1E+10	1	-1E+10	1
4902624	23	C	02/06/2025	12:24	-126.046	47.583	0	210.30	0	6.5358	0	33.9020	0	26.619	0	208.437	0	85.5	4	28.6	4	-1E+10	1	0.0540	4	0.000290	0	-1E+10	1	-1E+10	1	-1E+10	1
4902624	23	C	02/06/2025	12:24	-126.046	47.583	0	211.00	0	6.5270	0	33.9020	0	26.620	0	209.131	0	-1e10	1	-1e10	1	-1E+10	1	-1e10	1	-1e10	1	-1E+10	1	-1E+10	1	-1E+10	1
4902624	23	C	02/06/2025	12:24	-126.046	47.583	0	211.40	0	6.5240	0	33.9024	0	26.621	0	209.527	0	84.9	4	28.4	4	-1E+10	1	0.0533	4	0.000402	0	-1E+10	1	-1E+10	1	-1E+10	1
4902624	23	C	02/06/2025	12:24	-126.046	47.583	0	212.40	0	6.5165	0	33.9034	0	26.622	0	210.517	0	84.3	4	28.2	4	-1E+10	1	0.0477	4	0.000384	0	-1E+10	1	-1E+10	1	-1E+10	1
4902624	23	C	02/06/2025	12:24	-126.046	47.583	0	213.00	0	6.5120	0	33.9040	0	26.624	0	211.112	0	-1e10	1	-1e10	1	-1E+10	1	-1e10	1	-1e10	1	-1E+10	1	-1E+10	1	-1E+10	1
4902624	23	C	02/06/2025	12:24	-126.046	47.583	0	213.50	0	6.5097	0	33.9043	0	26.624	0	211.607	0	83.5	4	27.9	4	-1E+10	1	0.0465	4	0.000360	0	-1E+10	1	-1E+10	1	-1E+10	1
4902624	23	C	02/06/2025	12:24	-126.046	47.583	0	214.60	0	6.5048	0	33.9048	0	26.625	0	212.697	0	82.8	4	27.7	4	-1E+10	1	0.0511	4	0.000402	0	-1E+10	1	-1E+10	1	-1E+10	1
4902624	23	C	02/06/2025	12:24	-126.046	47.583	0	215.00	0	6.5030	0	33.9050	0	26.625	0	213.093	0	-1e10	1	-1e10	1	-1E+10	1	-1e10	1	-1e10	1	-1E+10	1	-1E+10	1	-1E+10	1
4902624	23	C	02/06/2025	12:24	-126.046	47.583	0	215.70	0	6.5002	0	33.9057	0	26.626	0	213.786	0	82.0	4	27.4	4	-1E+10	1	0.0522	4	0.000313	0	-1E+10	1	-1E+10	1	-1E+10	1
4902624	23	C	02/06/2025	12:24	-126.046	47.583	0	216.80	0	6.4958	0	33.9068	0	26.628	0	214.876	0	81.2	4	27.1	4	-1E+10	1	0.0584	4	0.000402	0	-1E+10	1	-1E+10	1	-1E+10	1
4902624	23	C	02/06/2025	12:24	-126.046	47.583	0	217.00	0	6.4950	0	33.9070	0	26.628	0	215.074	0	-1e10	1	-1e10	1	-1E+10	1	-1e10	1	-1e10	1	-1E+10	1	-1E+10	1	-1E+10	1
4902624	23	C	02/06/2025	12:24	-126.046	47.583	0	217.90	0	6.4842	0	33.9084	0	26.631	0	215.966	0	80.3	4	26.8	4	-1E+10	1	0.0584	4	0.000285	0	-1E+10	1	-1E+10	1	-1E+10	1
4902624	23	C	02/06/2025	12:24	-126.046	47.583	0	219.00	0	6.4710	0	33.9100	0	26.634	0	217.055	0	78.6	4	26.2	4	-1E+10	1	0.0399	4	0.000265	0	-1E+10	1	-1E+10	1	-1E+10	1
4902624	23	C	02/06/2025	12:24	-126.046	47.583	0	220.20	0	6.4624	0	33.9134	0	26.638	0	218.244	0	78.7	4	26.3	4	-1E+10	1	0.0469	4	0.000295	0	-1E+10	1	-1E+10	1	-1E+10	1
4902624	23	C	02/06/2025	12:24	-126.046	47.583	0	221.10	0	6.4560	0	33.9160	0	26.640	0	219.136	0	-1e10	1	-1e10	1	-1E+10	1	-1e10	1	-1e10	1	-1E+10	1	-1E+10	1	-1E+10	1
4902624	23	C	02/06/2025	12:24	-126.046	47.583	0	221.30	0	6.4561	0	33.9164	0	26.641	0	219.334	0	78.2	4	26.1	4	-1E+10	1	0.0557	4	0.000278	0	-1E+10	1	-1E+10	1	-1E+10	1
4902624	23	C	02/06/2025	12:24	-126.046	47.583	0	222.40	0	6.4567	0	33.9187	0	26.642	0	220.423	0	77.8	4	26.0	4	-1E+10	1	0.0584	4	0.000279	0	-1E+10	1	-1E+10	1	-1E+10	1
4902624	23	C	02/06/2025	12:24	-126.046	47.583	0	223.00	0	6.4570	0	33.9200	0	26.643	0	221.018	0	-1e10	1	-1e10	1	-1E+10	1	-1e10	1	-1e10	1	-1E+10	1	-1E+10	1	-1E+10	1
4902624	23	C	02/06/2025	12:24	-126.046	47.583	0	223.60	0	6.4529	0	33.9213	0	26.645	0	221.612	0	77.4	4	25.8	4	-1E+10	1	0.0584	4	0.000301	0	-1E+10	1	-1E+10	1	-1E+10	1
4902624	23	C	02/06/2025	12:24	-126.046	47.583	0	224.70	0	6.4454	0	33.9236	0	26.648	0	222.702	0	77.1	4	25.7	4	-1E+10	1	0.0560	4	0.000371	0	-1E+10	1	-1E+10	1	-1E+10	1
4902624	23	C	02/06/2025	12:24	-126.046	47.583	0	224.90	0	6.4440	0	33.9240	0	26.648	0	222.900	0	-1e10	1	-1e10	1	-1E+10	1	-1e10	1	-1e10	1	-1E+10	1	-1E+10	1	-1E+10	1
4902624	23	C	02/06/2025	12:24	-126.046	47.583	0	225.90	0	6.4311	0	33.9250	0	26.651	0	223.890	0	77.0	4	25.7	4	-1E+10	1	0.0449	4	0.000620	0	-1E+10	1	-1E+10	1	-1E+10	1
4902624	23	C	02/06/2025	12:24	-126.046	47.583	0	227.00	0	6.4170	0	33.9260	0	26.653	0	224.980	0	75.9	4	25.3	4	-1E+10	1	0.0511	4	0.000268	0	-1E+10	1	-1E+10	1	-1E+10	1
4902624	23	C	02/06/2025	12:24	-126.046	47.583	0	228.20	0	6.4014	0	33.9266	0	26.656	0	226.169	0	76.7	4	25.6	4	-1E+10	1	0.0511	4	0.000281	0	-1E+10	1	-1E+10	1	-1E+10	1
4902624	23	C	02/06/2025	12:24	-126.046	47.583	0	229.00	0	6.3910	0	33.9270	0	26.658	0	226.961	0	-1e10	1	-1e10	1	-1E+10	1	-1e10	1	-1e10	1	-1E+10	1	-1E+10	1	-1E+10	1
4902624	23	C	02/06/2025	12:24	-126.046	47.583	0	229.40	0	6.3855	0	33.9272	0	26.658	0	227.357	0	76.5	4	25.5	4	-1E+10	1	0.0451	4	0.000323	0	-1E+10	1	-1E+10	1	-1E+10	1
4902624	23	C	02/06/2025	12:24	-126.046	47.583	0	230.60	0	6.3691	0	33.9278	0	26.661	0	228.546	0	76.4	4	25.5	4	-1E+10	1	0.0487	4	0.000293	0	-1E+10	1	-1E+10	1	-1E+10	1
4902624	23	C	02/06/2025	12:24	-126.046	47.583	0	230.90	0	6.3650	0	33.9280	0	26.662	0	228.843	0	-1e10	1	-1e10	1	-1E+10	1	-1e10	1	-1e10	1	-1E+10	1	-1E+10	1	-1E+10	1
4902624	23	C	02/06/2025	12:24	-126.046	47.583	0	231.80	0	6.3594	0	33.9280	0	26.663	0	229.735	0	76.4	4	25.4	4	-1E+10	1	0.0584	4	0.000291	0	-1E+10	1	-1E+10	1	-1E+10	1
4902624	23	C	02/06/2025	12:24	-126.046	47.583	0	233.00	0	6.3520	0	33.9280	0	26.663	0	230.923	0	75.3	4	25.1	4	-1E+10	1	0.0596	4	0.000303	0	-1E+10	1	-1E+10	1	-1E+10	1
4902624	23	C	02/06/2025	12:24	-126.046	47.583	0	234.20	0	6.3268	0	33.9262	0	26.665	0	232.112	0	75.9	4	25.3	4	-1E+10	1	0.0537	4	0.000284	0	-1E+10	1	-1E+10	1	-1E+10	1
4902624	23	C	02/06/2025	12:24	-126.046	47.583	0	235.00	0	6.3100	0	33.9250	0	26.667	0	232.904	0	-1e10	1	-1e10	1	-1E+10	1	-1e10	1	-1e10	1	-1E+10	1	-1E+10	1	-1E+10	1
4902624	23	C	02/06/2025	12:24	-126.046	47.583	0	235.40	0	6.3126	0	33.9260	0	26.667	0	233.301	0	75.7	4	25.2	4	-1E+10	1	0.0569	4	0.000266	0	-1E+10	1	-1E+10	1	-1E+10	1
4902624	23	C	02/06/2025	12:24	-126.046	47.583	0	236.60	0	6.3204	0	33.9290	0	26.668	0	234.489	0	75.7	4	25.2	4	-1E+10	1	0.0511	4	0.000285	0	-1E+10	1	-1E+10	1	-1E+10	1
4902624	23	C	02/06/2025	12:24	-126.046	47.583	0	237.00	0	6.3230	0	33.9300	0	26.669	0	234.885	0	-1e10	1	-1e10	1	-1E+10	1	-1e10	1	-1e10	1	-1E+10	1	-1E+10	1	-1E+10	1
4902624	23	C	02/06/2025	12:24	-126.046	47.583	0	237.80	0	6.3188	0	33.9296	0	26.669	0	235.678	0	75.6	4	25.1	4	-1E+10	1	0.0584	4	0.000296	0	-1E+10	1	-1E+10	1	-1E+10	1
4902624	23	C	02/06/2025	12:24	-126.046	47.583	0	239.00	0	6.3125	0	33.9290	0	26.669	0	236.866	0	75.5	4	25.1	4	-1E+10	1	0.0396	4	0.000256	0	-1E+10	1	-1E+10	1	-1E+10	1
4902624	23	C	02/06/2025	12:24	-126.046	47.583	0	239.10	0	6.3120	0	33.9290	0	26.669	0	236.965	0	-1e10	1	-1e10	1	-1E+10	1	-1e10	1	-1e10	1	-1E+10	1	-1E+10	1	-1E+10	1
4902624	23	C	02/06/2025	12:24	-126.046	47.583	0	240.20	0	6.2831	0	33.9278	0	26.672	0	238.055	0	75.5	4	25.1	4	-1E+10	1	0.0469	4	0.000291	0	-1E+10	1	-1E+10	1	-1E+10	1
4902624	23	C	02/06/2025	12:24	-126.046	47.583	0	241.00	0	6.2620	0	33.9270	0	26.674	0	238.847	0	-1e10	1	-1e10	1	-1E+10	1	-1e10	1	-1e10	1	-1E+10	1	-1E+10	1	-1E+10	1
4902624	23	C	02/06/2025	12:24	-126.046	47.583	0	241.40	0	6.2481	0	33.9259	0	26.675	0	239.244	0	75.0	4	24.9	4	-1E+10	1	0.0511	4	0.000324	0	-1E+10	1	-1E+10	1	-1E+10	1
4902624	23	C	02/06/2025	12:24	-126.046	47.583	0	242.60	0	6.2064	0	33.9228	0	26.678	0	240.432	0	74.4	4	24.7	4	-1E+10	1	0.0472	4	0.000307	0	-1E+10	1	-1E+10	1	-1E+10	1
4902624	23	C	02/06/2025	12:24	-126.046	47.583	0	242.90	0	6.1960	0	33.9220	0	26.679	0	240.729	0	-1e10	1	-1e10	1	-1E+10	1	-1e10	1	-1e10	1	-1E+10	1	-1E+10	1	-1E+10	1
4902624	23	C	02/06/2025	12:24	-126.046	47.583	0	243.80	0	6.1924	0	33.9229	0	26.680	0	241.621	0	73.7	4	24.5	4	-1E+10	1	0.0438	4	0.000269	0	-1E+10	1	-1E+10	1	-1E+10	1
4902624	23	C	02/06/2025	12:24	-126.046	47.583	0	244.90	0	6.1880	0	33.9240	0	26.681	0	242.710	0	-1e10	1	-1e10	1	-1E+10	1	-1e10	1	-1e10	1	-1E+10	1	-1E+10	1	-1E+10	1
4902624	23	C	02/06/2025	12:24	-126.046	47.583	0	245.00	0	6.1868	0	33.9242	0	26.682	0	242.809	0	73.1	4	24.2	4	-1E+10	1	0.0450	4	0.000251	0	-1E+10	1	-1E+10	1	-1E+10	1
4902624	23	C	02/06/2025	12:24	-126.046	47.583	0	246.20	0	6.1725	0	33.9265	0	26.685	0	243.998	0	72.3	4	24.0	4	-1E+10	1	0.0511	4	0.000314	0	-1E+10	1	-1E+10	1	-1E+10	1
4902624	23	C	02/06/2025	12:24	-126.046	47.583	0	247.00	0	6.1630	0	33.9280	0	26.688	0	244.790	0	-1e10	1	-1e10	1	-1E+10	1	-1e10	1	-1e10	1	-1E+10	1	-1E+10	1	-1E+10	1
4902624	23	C	02/06/2025	12:24	-126.046	47.583	0	247.50	0	6.1640	0	33.9290	0	26.688	0	245.286	0	71.5	4	23.7	4	-1E+10	1	0.0511	4	0.000273	0	-1E+10	1	-1E+10	1	-1E+10	1
4902624	23	C	02/06/2025	12:24	-126.046	47.583	0	248.70	0	6.1662	0	33.9312	0	26.690	0	246.474	0	70.9	4	23.5	4	-1E+10	1	0.0628	4	0.000254	0	-1E+10	1	-1E+10	1	-1E+10	1
4902624	23	C	02/06/2025	12:24	-126.046	47.583	0	249.10	0	6.1670	0	33.9320	0	26.690	0	246.870	0	-1e10	1	-1e10	1	-1E+10	1	-1e10	1	-1e10	1	-1E+10	1	-1E+10	1	-1E+10	1
4902624	23	C	02/06/2025	12:24	-126.046	47.583	0	249.90	0	6.1630	0	33.9332	0	26.692	0	247.663	0	70.3	4	23.3	4	-1E+10	1	0.0438	4	0.000373	0	-1E+10	1	-1E+10	1	-1E+10	1
4902624	23	C	02/06/2025	12:24	-126.046	47.583	0	251.10	0	6.1570	0	33.9350	0	26.694	0	248.851	0	-1e10	1	-1e10	1	-1E+10	1	-1e10	1	-1e10	1	-1E+10	1	-1E+10	1	-1E+10	1
4902624	23	C	02/06/2025	12:24	-126.046	47.583	0	251.20	0	6.1573	0	33.9352	0	26.694	0	248.950	0	69.7	4	23.1	4	-1E+10	1	0.0414	4	0.000320	0	-1E+10	1	-1E+10	1	-1E+10	1
4902624	23	C	02/06/2025	12:24	-126.046	47.583	0	252.40	0	6.1604	0	33.9371	0	26.695	0	250.139	0	69.3	4	23.0	4	-1E+10	1	0.0438	4	0.000284	0	-1E+10	1	-1E+10	1	-1E+10	1
4902624	23	C	02/06/2025	12:24	-126.046	47.583	0	253.00	0	6.1620	0	33.9380	0	26.696	0	250.733	0	-1e10	1	-1e10	1	-1E+10	1	-1e10	1	-1e10	1	-1E+10	1	-1E+10	1	-1E+10	1
4902624	23	C	02/06/2025	12:24	-126.046	47.583	0	253.70	0	6.1673	0	33.9398	0	26.697	0	251.426	0	68.9	4	22.9	4	-1E+10	1	0.0499	4	0.000282	0	-1E+10	1	-1E+10	1	-1E+10	1
4902624	23	C	02/06/2025	12:24	-126.046	47.583	0	254.90	0	6.1762	0	33.9427	0	26.698	0	252.615	0	68.6	4	22.7	4	-1E+10	1	0.0560	4	0.000273	0	-1E+10	1	-1E+10	1	-1E+10	1
4902624	23	C	02/06/2025	12:24	-126.046	47.583	0	255.00	0	6.1770	0	33.9430	0	26.698	0	252.714	0	-1e10	1	-1e10	1	-1E+10	1	-1e10	1	-1e10	1	-1E+10	1	-1E+10	1	-1E+10	1
4902624	23	C	02/06/2025	12:24	-126.046	47.583	0	256.10	0	6.1770	0	33.9441	0	26.699	0	253.803	0	68.2	4	22.6	4	-1E+10	1	0.0521	4	0.000296	0	-1E+10	1	-1E+10	1	-1E+10	1
4902624	23	C	02/06/2025	12:24	-126.046	47.583	0	257.00	0	6.1770	0	33.9450	0	26.700	0	254.695	0	-1e10	1	-1e10	1	-1E+10	1	-1e10	1	-1e10	1	-1E+10	1	-1E+10	1	-1E+10	1
4902624	23	C	02/06/2025	12:24	-126.046	47.583	0	257.40	0	6.1760	0	33.9454	0	26.700	0	255.091	0	67.8	4	22.5	4	-1E+10	1	0.0584	4	0.000296	0	-1E+10	1	-1E+10	1	-1E+10	1
4902624	23	C	02/06/2025	12:24	-126.046	47.583	0	258.60	0	6.1730	0	33.9466	0	26.701	0	256.279	0	67.4	4	22.4	4	-1E+10	1	0.0438	4	0.000296	0	-1E+10	1	-1E+10	1	-1E+10	1
4902624	23	C	02/06/2025	12:24	-126.046	47.583	0	259.00	0	6.1720	0	33.9470	0	26.702	0	256.675	0	-1e10	1	-1e10	1	-1E+10	1	-1e10	1	-1e10	1	-1E+10	1	-1E+10	1	-1E+10	1
4902624	23	C	02/06/2025	12:24	-126.046	47.583	0	259.80	0	6.1682	0	33.9478	0	26.703	0	257.468	0	67.1	4	22.3	4	-1E+10	1	0.0555	4	0.000287	0	-1E+10	1	-1E+10	1	-1E+10	1
4902624	23	C	02/06/2025	12:24	-126.046	47.583	0	260.90	0	6.1630	0	33.9490	0	26.705	0	258.557	0	-1e10	1	-1e10	1	-1E+10	1	-1e10	1	-1e10	1	-1E+10	1	-1E+10	1	-1E+10	1
4902624	23	C	02/06/2025	12:24	-126.046	47.583	0	261.10	0	6.1615	0	33.9491	0	26.705	0	258.755	0	66.8	4	22.2	4	-1E+10	1	0.0532	4	0.000293	0	-1E+10	1	-1E+10	1	-1E+10	1
4902624	23	C	02/06/2025	12:24	-126.046	47.583	0	262.30	0	6.1523	0	33.9497	0	26.706	0	259.944	0	66.5	4	22.0	4	-1E+10	1	0.0556	4	0.000318	0	-1E+10	1	-1E+10	1	-1E+10	1
4902624	23	C	02/06/2025	12:24	-126.046	47.583	0	263.00	0	6.1470	0	33.9500	0	26.707	0	260.637	0	-1e10	1	-1e10	1	-1E+10	1	-1e10	1	-1e10	1	-1E+10	1	-1E+10	1	-1E+10	1
4902624	23	C	02/06/2025	12:24	-126.046	47.583	0	263.50	0	6.1441	0	33.9500	0	26.708	0	261.132	0	66.1	4	21.9	4	-1E+10	1	0.0511	4	0.000308	0	-1E+10	1	-1E+10	1	-1E+10	1
4902624	23	C	02/06/2025	12:24	-126.046	47.583	0	264.70	0	6.1373	0	33.9500	0	26.709	0	262.321	0	65.7	4	21.8	4	-1E+10	1	0.0462	4	0.000288	0	-1E+10	1	-1E+10	1	-1E+10	1
4902624	23	C	02/06/2025	12:24	-126.046	47.583	0	265.10	0	6.1350	0	33.9500	0	26.709	0	262.717	0	-1e10	1	-1e10	1	-1E+10	1	-1e10	1	-1e10	1	-1E+10	1	-1E+10	1	-1E+10	1
4902624	23	C	02/06/2025	12:24	-126.046	47.583	0	266.00	0	6.1255	0	33.9509	0	26.711	0	263.608	0	65.4	4	21.7	4	-1E+10	1	0.0511	4	0.000299	0	-1E+10	1	-1E+10	1	-1E+10	1
4902624	23	C	02/06/2025	12:24	-126.046	47.583	0	267.00	0	6.1150	0	33.9520	0	26.713	0	264.599	0	-1e10	1	-1e10	1	-1E+10	1	-1e10	1	-1e10	1	-1E+10	1	-1E+10	1	-1E+10	1
4902624	23	C	02/06/2025	12:24	-126.046	47.583	0	267.20	0	6.1134	0	33.9521	0	26.713	0	264.797	0	65.0	4	21.6	4	-1E+10	1	0.0526	4	0.000310	0	-1E+10	1	-1E+10	1	-1E+10	1
4902624	23	C	02/06/2025	12:24	-126.046	47.583	0	268.40	0	6.1038	0	33.9527	0	26.715	0	265.985	0	64.7	4	21.4	4	-1E+10	1	0.0584	4	0.000320	0	-1E+10	1	-1E+10	1	-1E+10	1
4902624	23	C	02/06/2025	12:24	-126.046	47.583	0	269.00	0	6.0990	0	33.9530	0	26.716	0	266.579	0	-1e10	1	-1e10	1	-1E+10	1	-1e10	1	-1e10	1	-1E+10	1	-1E+10	1	-1E+10	1
4902624	23	C	02/06/2025	12:24	-126.046	47.583	0	269.60	0	6.0933	0	33.9539	0	26.717	0	267.174	0	64.4	4	21.3	4	-1E+10	1	0.0521	4	0.000310	0	-1E+10	1	-1E+10	1	-1E+10	1
4902624	23	C	02/06/2025	12:24	-126.046	47.583	0	270.80	0	6.0819	0	33.9558	0	26.720	0	268.362	0	64.2	4	21.3	4	-1E+10	1	0.0511	4	0.000290	0	-1E+10	1	-1E+10	1	-1E+10	1
4902624	23	C	02/06/2025	12:24	-126.046	47.583	0	270.90	0	6.0810	0	33.9560	0	26.721	0	268.461	0	-1e10	1	-1e10	1	-1E+10	1	-1e10	1	-1e10	1	-1E+10	1	-1E+10	1	-1E+10	1
4902624	23	C	02/06/2025	12:24	-126.046	47.583	0	272.00	0	6.0721	0	33.9570	0	26.723	0	269.550	0	64.0	4	21.2	4	-1E+10	1	0.0558	4	0.000262	0	-1E+10	1	-1E+10	1	-1E+10	1
4902624	23	C	02/06/2025	12:24	-126.046	47.583	0	273.00	0	6.0640	0	33.9580	0	26.724	0	270.541	0	-1e10	1	-1e10	1	-1E+10	1	-1e10	1	-1e10	1	-1E+10	1	-1E+10	1	-1E+10	1
4902624	23	C	02/06/2025	12:24	-126.046	47.583	0	273.20	0	6.0629	0	33.9581	0	26.725	0	270.739	0	63.8	4	21.1	4	-1E+10	1	0.0822	4	0.000255	0	-1E+10	1	-1E+10	1	-1E+10	1
4902624	23	C	02/06/2025	12:24	-126.046	47.583	0	274.50	0	6.0554	0	33.9587	0	26.726	0	272.026	0	63.6	4	21.0	4	-1E+10	1	0.0882	4	0.000256	0	-1E+10	1	-1E+10	1	-1E+10	1
4902624	23	C	02/06/2025	12:24	-126.046	47.583	0	275.10	0	6.0520	0	33.9590	0	26.727	0	272.620	0	-1e10	1	-1e10	1	-1E+10	1	-1e10	1	-1e10	1	-1E+10	1	-1E+10	1	-1E+10	1
4902624	23	C	02/06/2025	12:24	-126.046	47.583	0	275.70	0	6.0460	0	33.9593	0	26.728	0	273.215	0	63.4	4	21.0	4	-1E+10	1	0.0608	4	0.000374	0	-1E+10	1	-1E+10	1	-1E+10	1
4902624	23	C	02/06/2025	12:24	-126.046	47.583	0	276.90	0	6.0340	0	33.9599	0	26.730	0	274.403	0	63.2	4	20.9	4	-1E+10	1	0.0615	4	0.000568	0	-1E+10	1	-1E+10	1	-1E+10	1
4902624	23	C	02/06/2025	12:24	-126.046	47.583	0	277.00	0	6.0330	0	33.9600	0	26.730	0	274.502	0	-1e10	1	-1e10	1	-1E+10	1	-1e10	1	-1e10	1	-1E+10	1	-1E+10	1	-1E+10	1
4902624	23	C	02/06/2025	12:24	-126.046	47.583	0	278.10	0	6.0314	0	33.9605	0	26.730	0	275.591	0	63.0	4	20.8	4	-1E+10	1	0.0365	4	0.000226	0	-1E+10	1	-1E+10	1	-1E+10	1
4902624	23	C	02/06/2025	12:24	-126.046	47.583	0	279.00	0	6.0300	0	33.9610	0	26.731	0	276.483	0	-1e10	1	-1e10	1	-1E+10	1	-1e10	1	-1e10	1	-1E+10	1	-1E+10	1	-1E+10	1
4902624	23	C	02/06/2025	12:24	-126.046	47.583	0	279.40	0	6.0302	0	33.9608	0	26.731	0	276.879	0	62.8	4	20.8	4	-1E+10	1	0.0511	4	0.000237	0	-1E+10	1	-1E+10	1	-1E+10	1
4902624	23	C	02/06/2025	12:24	-126.046	47.583	0	280.60	0	6.0308	0	33.9602	0	26.730	0	278.067	0	62.5	4	20.7	4	-1E+10	1	0.0636	4	0.000268	0	-1E+10	1	-1E+10	1	-1E+10	1
4902624	23	C	02/06/2025	12:24	-126.046	47.583	0	280.90	0	6.0310	0	33.9600	0	26.730	0	278.364	0	-1e10	1	-1e10	1	-1E+10	1	-1e10	1	-1e10	1	-1E+10	1	-1E+10	1	-1E+10	1
4902624	23	C	02/06/2025	12:24	-126.046	47.583	0	281.80	0	6.0271	0	33.9609	0	26.731	0	279.255	0	62.3	4	20.6	4	-1E+10	1	0.0608	4	0.000273	0	-1E+10	1	-1E+10	1	-1E+10	1
4902624	23	C	02/06/2025	12:24	-126.046	47.583	0	283.00	0	6.0220	0	33.9620	0	26.733	0	280.444	0	61.3	4	20.3	4	-1E+10	1	0.0499	4	0.000266	0	-1E+10	1	-1E+10	1	-1E+10	1
4902624	23	C	02/06/2025	12:24	-126.046	47.583	0	284.20	0	6.0157	0	33.9631	0	26.735	0	281.632	0	61.8	4	20.4	4	-1E+10	1	0.0472	4	0.000255	0	-1E+10	1	-1E+10	1	-1E+10	1
4902624	23	C	02/06/2025	12:24	-126.046	47.583	0	285.10	0	6.0110	0	33.9640	0	26.736	0	282.523	0	-1e10	1	-1e10	1	-1E+10	1	-1e10	1	-1e10	1	-1E+10	1	-1E+10	1	-1E+10	1
4902624	23	C	02/06/2025	12:24	-126.046	47.583	0	285.50	0	6.0081	0	33.9646	0	26.737	0	282.920	0	61.5	4	20.3	4	-1E+10	1	0.0485	4	0.000257	0	-1E+10	1	-1E+10	1	-1E+10	1
4902624	23	C	02/06/2025	12:24	-126.046	47.583	0	286.70	0	5.9992	0	33.9665	0	26.739	0	284.108	0	61.3	4	20.3	4	-1E+10	1	0.0474	4	0.000273	0	-1E+10	1	-1E+10	1	-1E+10	1
4902624	23	C	02/06/2025	12:24	-126.046	47.583	0	287.00	0	5.9970	0	33.9670	0	26.740	0	284.405	0	-1e10	1	-1e10	1	-1E+10	1	-1e10	1	-1e10	1	-1E+10	1	-1E+10	1	-1E+10	1
4902624	23	C	02/06/2025	12:24	-126.046	47.583	0	287.90	0	5.9916	0	33.9670	0	26.741	0	285.296	0	61.1	4	20.2	4	-1E+10	1	0.0599	4	0.000263	0	-1E+10	1	-1E+10	1	-1E+10	1
4902624	23	C	02/06/2025	12:24	-126.046	47.583	0	289.00	0	5.9850	0	33.9670	0	26.742	0	286.386	0	-1e10	1	-1e10	1	-1E+10	1	-1e10	1	-1e10	1	-1E+10	1	-1E+10	1	-1E+10	1
4902624	23	C	02/06/2025	12:24	-126.046	47.583	0	289.10	0	5.9847	0	33.9670	0	26.742	0	286.485	0	60.8	4	20.1	4	-1E+10	1	0.0657	4	0.000226	0	-1E+10	1	-1E+10	1	-1E+10	1
4902624	23	C	02/06/2025	12:24	-126.046	47.583	0	290.30	0	5.9805	0	33.9676	0	26.743	0	287.673	0	60.6	4	20.0	4	-1E+10	1	0.0657	4	0.000246	0	-1E+10	1	-1E+10	1	-1E+10	1
4902624	23	C	02/06/2025	12:24	-126.046	47.583	0	291.00	0	5.9780	0	33.9680	0	26.743	0	288.366	0	-1e10	1	-1e10	1	-1E+10	1	-1e10	1	-1e10	1	-1E+10	1	-1E+10	1	-1E+10	1
4902624	23	C	02/06/2025	12:24	-126.046	47.583	0	291.50	0	5.9768	0	33.9680	0	26.743	0	288.861	0	60.3	4	19.9	4	-1E+10	1	0.0535	4	0.000229	0	-1E+10	1	-1E+10	1	-1E+10	1
4902624	23	C	02/06/2025	12:24	-126.046	47.583	0	292.70	0	5.9740	0	33.9680	0	26.744	0	290.049	0	60.0	4	19.8	4	-1E+10	1	0.0511	4	0.000255	0	-1E+10	1	-1E+10	1	-1E+10	1
4902624	23	C	02/06/2025	12:24	-126.046	47.583	0	293.10	0	5.9730	0	33.9680	0	26.744	0	290.446	0	-1e10	1	-1e10	1	-1E+10	1	-1e10	1	-1e10	1	-1E+10	1	-1E+10	1	-1E+10	1
4902624	23	C	02/06/2025	12:24	-126.046	47.583	0	293.90	0	5.9709	0	33.9680	0	26.744	0	291.238	0	59.6	4	19.7	4	-1E+10	1	0.0511	4	0.000237	0	-1E+10	1	-1E+10	1	-1E+10	1
4902624	23	C	02/06/2025	12:24	-126.046	47.583	0	295.00	0	5.9680	0	33.9680	0	26.744	0	292.327	0	-1e10	1	-1e10	1	-1E+10	1	-1e10	1	-1e10	1	-1E+10	1	-1E+10	1	-1E+10	1
4902624	23	C	02/06/2025	12:24	-126.046	47.583	0	295.20	0	5.9667	0	33.9682	0	26.745	0	292.525	0	59.2	4	19.5	4	-1E+10	1	0.0560	4	0.000257	0	-1E+10	1	-1E+10	1	-1E+10	1
4902624	23	C	02/06/2025	12:24	-126.046	47.583	0	296.40	0	5.9589	0	33.9694	0	26.747	0	293.713	0	58.7	4	19.4	4	-1E+10	1	0.0506	4	0.000254	0	-1E+10	1	-1E+10	1	-1E+10	1
4902624	23	C	02/06/2025	12:24	-126.046	47.583	0	297.00	0	5.9550	0	33.9700	0	26.748	0	294.307	0	-1e10	1	-1e10	1	-1E+10	1	-1e10	1	-1e10	1	-1E+10	1	-1E+10	1	-1E+10	1
4902624	23	C	02/06/2025	12:24	-126.046	47.583	0	297.60	0	5.9484	0	33.9709	0	26.749	0	294.902	0	58.4	4	19.3	4	-1E+10	1	0.0462	4	0.000237	0	-1E+10	1	-1E+10	1	-1E+10	1
4902624	23	C	02/06/2025	12:24	-126.046	47.583	0	299.00	0	5.9330	0	33.9730	0	26.753	0	296.288	0	-1e10	1	-1e10	1	-1E+10	1	-1e10	1	-1e10	1	-1E+10	1	-1E+10	1	-1E+10	1
4902624	23	C	02/06/2025	12:24	-126.046	47.583	0	299.10	0	5.9326	0	33.9731	0	26.753	0	296.387	0	57.9	4	19.1	4	-1E+10	1	0.0511	4	0.000240	0	-1E+10	1	-1E+10	1	-1E+10	1
4902624	23	C	02/06/2025	12:24	-126.046	47.583	0	304.90	0	5.9120	0	33.9780	0	26.759	0	302.130	0	-1e10	1	-1e10	1	-1E+10	1	-1e10	1	-1e10	1	-1E+10	1	-1E+10	1	-1E+10	1
4902624	23	C	02/06/2025	12:24	-126.046	47.583	0	311.10	0	5.8810	0	33.9896	0	26.773	0	308.269	0	53.1	4	17.5	4	-1E+10	1	0.0511	4	0.000310	0	-1E+10	1	-1E+10	1	-1E+10	1
4902624	23	C	02/06/2025	12:24	-126.046	47.583	0	315.10	0	5.8610	0	33.9970	0	26.781	0	312.230	0	-1e10	1	-1e10	1	-1E+10	1	-1e10	1	-1e10	1	-1E+10	1	-1E+10	1	-1E+10	1
4902624	23	C	02/06/2025	12:24	-126.046	47.583	0	322.80	0	5.8142	0	34.0049	0	26.793	0	319.854	0	50.5	4	16.6	4	-1E+10	1	0.0508	4	0.000350	0	-1E+10	1	-1E+10	1	-1E+10	1
4902624	23	C	02/06/2025	12:24	-126.046	47.583	0	324.80	0	5.8020	0	34.0070	0	26.796	0	321.834	0	-1e10	1	-1e10	1	-1E+10	1	-1e10	1	-1e10	1	-1E+10	1	-1E+10	1	-1E+10	1
4902624	23	C	02/06/2025	12:24	-126.046	47.583	0	334.50	0	5.7770	0	34.0128	0	26.804	0	331.437	0	48.8	4	16.0	4	-1E+10	1	0.0444	4	0.000248	0	-1E+10	1	-1E+10	1	-1E+10	1
4902624	23	C	02/06/2025	12:24	-126.046	47.583	0	334.90	0	5.7760	0	34.0130	0	26.804	0	331.834	0	-1e10	1	-1e10	1	-1E+10	1	-1e10	1	-1e10	1	-1E+10	1	-1E+10	1	-1E+10	1
4902624	23	C	02/06/2025	12:24	-126.046	47.583	0	345.10	0	5.7300	0	34.0160	0	26.812	0	341.932	0	-1e10	1	-1e10	1	-1E+10	1	-1e10	1	-1e10	1	-1E+10	1	-1E+10	1	-1E+10	1
4902624	23	C	02/06/2025	12:24	-126.046	47.583	0	346.40	0	5.7149	0	34.0154	0	26.814	0	343.219	0	48.0	4	15.8	4	-1E+10	1	0.0588	4	0.000236	0	-1E+10	1	-1E+10	1	-1E+10	1
4902624	23	C	02/06/2025	12:24	-126.046	47.583	0	355.20	0	5.6130	0	34.0110	0	26.823	0	351.930	0	-1e10	1	-1e10	1	-1E+10	1	-1e10	1	-1e10	1	-1E+10	1	-1E+10	1	-1E+10	1
4902624	23	C	02/06/2025	12:24	-126.046	47.583	0	356.20	0	5.6013	0	34.0112	0	26.824	0	352.920	0	47.7	4	15.6	4	-1E+10	1	0.0652	4	0.000224	0	-1E+10	1	-1E+10	1	-1E+10	1
4902624	23	C	02/06/2025	12:24	-126.046	47.583	0	364.60	0	5.5027	0	34.0129	0	26.838	0	361.236	0	44.6	4	14.6	4	-1E+10	1	0.0511	4	0.000202	0	-1E+10	1	-1E+10	1	-1E+10	1
4902624	23	C	02/06/2025	12:24	-126.046	47.583	0	365.00	0	5.4980	0	34.0130	0	26.838	0	361.632	0	-1e10	1	-1e10	1	-1E+10	1	-1e10	1	-1e10	1	-1E+10	1	-1E+10	1	-1E+10	1
4902624	23	C	02/06/2025	12:24	-126.046	47.583	0	373.20	0	5.5253	0	34.0337	0	26.851	0	369.749	0	40.7	4	13.3	4	-1E+10	1	0.0516	4	0.000212	0	-1E+10	1	-1E+10	1	-1E+10	1
4902624	23	C	02/06/2025	12:24	-126.046	47.583	0	374.90	0	5.5310	0	34.0380	0	26.854	0	371.431	0	-1e10	1	-1e10	1	-1E+10	1	-1e10	1	-1e10	1	-1E+10	1	-1E+10	1	-1E+10	1
4902624	23	C	02/06/2025	12:24	-126.046	47.583	0	382.40	0	5.4920	0	34.0455	0	26.865	0	378.855	0	38.6	4	12.6	4	-1E+10	1	0.0651	4	0.000196	0	-1E+10	1	-1E+10	1	-1E+10	1
4902624	23	C	02/06/2025	12:24	-126.046	47.583	0	384.90	0	5.4790	0	34.0480	0	26.868	0	381.330	0	-1e10	1	-1e10	1	-1E+10	1	-1e10	1	-1e10	1	-1E+10	1	-1E+10	1	-1E+10	1
4902624	23	C	02/06/2025	12:24	-126.046	47.583	0	392.00	0	5.4527	0	34.0516	0	26.874	0	388.357	0	37.3	4	12.2	4	-1E+10	1	0.0508	4	0.000348	0	-1E+10	1	-1E+10	1	-1E+10	1
4902624	23	C	02/06/2025	12:24	-126.046	47.583	0	394.90	0	5.4420	0	34.0530	0	26.877	0	391.228	0	-1e10	1	-1e10	1	-1E+10	1	-1e10	1	-1e10	1	-1E+10	1	-1E+10	1	-1E+10	1
4902624	23	C	02/06/2025	12:24	-126.046	47.583	0	402.10	0	5.3982	0	34.0586	0	26.887	0	398.354	0	35.3	4	11.5	4	-1E+10	1	0.0446	4	0.000201	0	-1E+10	1	-1E+10	1	-1E+10	1
4902624	23	C	02/06/2025	12:24	-126.046	47.583	0	405.10	0	5.3800	0	34.0610	0	26.891	0	401.323	0	-1e10	1	-1e10	1	-1E+10	1	-1e10	1	-1e10	1	-1E+10	1	-1E+10	1	-1E+10	1
4902624	23	C	02/06/2025	12:24	-126.046	47.583	0	413.10	0	5.3232	0	34.0674	0	26.902	0	409.240	0	33.7	4	11.0	4	-1E+10	1	0.0647	4	0.000189	0	-1E+10	1	-1E+10	1	-1E+10	1
4902624	23	C	02/06/2025	12:24	-126.046	47.583	0	415.10	0	5.3090	0	34.0690	0	26.905	0	411.220	0	-1e10	1	-1e10	1	-1E+10	1	-1e10	1	-1e10	1	-1E+10	1	-1E+10	1	-1E+10	1
4902624	23	C	02/06/2025	12:24	-126.046	47.583	0	424.40	0	5.2620	0	34.0736	0	26.915	0	420.423	0	32.3	4	10.5	4	-1E+10	1	0.0441	4	0.000190	0	-1E+10	1	-1E+10	1	-1E+10	1
4902624	23	C	02/06/2025	12:24	-126.046	47.583	0	425.20	0	5.2580	0	34.0740	0	26.915	0	421.215	0	-1e10	1	-1e10	1	-1E+10	1	-1e10	1	-1e10	1	-1E+10	1	-1E+10	1	-1E+10	1
4902624	23	C	02/06/2025	12:24	-126.046	47.583	0	435.20	0	5.2160	0	34.0780	0	26.924	0	431.111	0	-1e10	1	-1e10	1	-1E+10	1	-1e10	1	-1e10	1	-1E+10	1	-1E+10	1	-1E+10	1
4902624	23	C	02/06/2025	12:24	-126.046	47.583	0	435.90	0	5.2123	0	34.0784	0	26.924	0	431.804	0	31.2	4	10.1	4	-1E+10	1	0.0511	4	0.000202	0	-1E+10	1	-1E+10	1	-1E+10	1
4902624	23	C	02/06/2025	12:24	-126.046	47.583	0	445.30	0	5.1620	0	34.0840	0	26.935	0	441.105	0	-1e10	1	-1e10	1	-1E+10	1	-1e10	1	-1e10	1	-1E+10	1	-1E+10	1	-1E+10	1
4902624	23	C	02/06/2025	12:24	-126.046	47.583	0	447.40	0	5.1558	0	34.0844	0	26.936	0	443.183	0	30.1	4	9.8	4	-1E+10	1	0.0514	4	0.000235	0	-1E+10	1	-1E+10	1	-1E+10	1
4902624	23	C	02/06/2025	12:24	-126.046	47.583	0	454.80	0	5.1340	0	34.0860	0	26.940	0	450.505	0	-1e10	1	-1e10	1	-1E+10	1	-1e10	1	-1e10	1	-1E+10	1	-1E+10	1	-1E+10	1
4902624	23	C	02/06/2025	12:24	-126.046	47.583	0	458.70	0	5.1170	0	34.0883	0	26.943	0	454.364	0	28.7	4	9.3	4	-1E+10	1	0.0581	4	0.000211	0	-1E+10	1	-1E+10	1	-1E+10	1
4902624	23	C	02/06/2025	12:24	-126.046	47.583	0	464.90	0	5.0900	0	34.0920	0	26.949	0	460.499	0	-1e10	1	-1e10	1	-1E+10	1	-1e10	1	-1e10	1	-1E+10	1	-1E+10	1	-1E+10	1
4902624	23	C	02/06/2025	12:24	-126.046	47.583	0	470.10	0	5.0689	0	34.0951	0	26.954	0	465.644	0	27.3	4	8.8	4	-1E+10	1	0.0514	4	0.000177	0	-1E+10	1	-1E+10	1	-1E+10	1
4902624	23	C	02/06/2025	12:24	-126.046	47.583	0	475.00	0	5.0490	0	34.0980	0	26.959	0	470.492	0	-1e10	1	-1e10	1	-1E+10	1	-1e10	1	-1e10	1	-1E+10	1	-1E+10	1	-1E+10	1
4902624	23	C	02/06/2025	12:24	-126.046	47.583	0	481.30	0	5.0248	0	34.1025	0	26.965	0	476.725	0	25.9	4	8.4	4	-1E+10	1	0.0577	4	0.000180	0	-1E+10	1	-1E+10	1	-1E+10	1
4902624	23	C	02/06/2025	12:24	-126.046	47.583	0	484.90	0	5.0110	0	34.1050	0	26.969	0	480.286	0	-1e10	1	-1e10	1	-1E+10	1	-1e10	1	-1e10	1	-1E+10	1	-1E+10	1	-1E+10	1
4902624	23	C	02/06/2025	12:24	-126.046	47.583	0	492.40	0	4.9709	0	34.1087	0	26.976	0	487.706	0	24.3	4	7.8	4	-1E+10	1	0.0446	4	0.000233	0	-1E+10	1	-1E+10	1	-1E+10	1
4902624	23	C	02/06/2025	12:24	-126.046	47.583	0	495.00	0	4.9570	0	34.1100	0	26.979	0	490.278	0	-1e10	1	-1e10	1	-1E+10	1	-1e10	1	-1e10	1	-1E+10	1	-1E+10	1	-1E+10	1
4902624	23	C	02/06/2025	12:24	-126.046	47.583	0	503.40	0	4.9083	0	34.1176	0	26.991	0	498.588	0	22.3	4	7.2	4	-1E+10	1	0.0654	4	0.000176	0	-1E+10	1	-1E+10	1	-1E+10	1
4902624	23	C	02/06/2025	12:24	-126.046	47.583	0	505.00	0	4.8990	0	34.1190	0	26.993	0	500.171	0	-1e10	1	-1e10	1	-1E+10	1	-1e10	1	-1e10	1	-1E+10	1	-1E+10	1	-1E+10	1
4902624	23	C	02/06/2025	12:24	-126.046	47.583	0	514.40	0	4.8583	0	34.1277	0	27.004	0	509.470	0	20.6	4	6.6	4	-1E+10	1	0.0587	4	0.000167	0	-1E+10	1	-1E+10	1	-1E+10	1
4902624	23	C	02/06/2025	12:24	-126.046	47.583	0	514.70	0	4.8570	0	34.1280	0	27.005	0	509.766	0	-1e10	1	-1e10	1	-1E+10	1	-1e10	1	-1e10	1	-1E+10	1	-1E+10	1	-1E+10	1
4902624	23	C	02/06/2025	12:24	-126.046	47.583	0	524.90	0	4.8110	0	34.1370	0	27.017	0	519.856	0	-1e10	1	-1e10	1	-1E+10	1	-1e10	1	-1e10	1	-1E+10	1	-1E+10	1	-1E+10	1
4902624	23	C	02/06/2025	12:24	-126.046	47.583	0	525.50	0	4.8059	0	34.1375	0	27.018	0	520.449	0	19.1	4	6.1	4	-1E+10	1	0.0652	4	0.000198	0	-1E+10	1	-1E+10	1	-1E+10	1
4902624	23	C	02/06/2025	12:24	-126.046	47.583	0	534.90	0	4.7260	0	34.1460	0	27.034	0	529.747	0	-1e10	1	-1e10	1	-1E+10	1	-1e10	1	-1e10	1	-1E+10	1	-1E+10	1	-1E+10	1
4902624	23	C	02/06/2025	12:24	-126.046	47.583	0	536.90	0	4.7218	0	34.1475	0	27.036	0	531.725	0	17.8	4	5.7	4	-1E+10	1	0.0511	4	0.000154	0	-1E+10	1	-1E+10	1	-1E+10	1
4902624	23	C	02/06/2025	12:24	-126.046	47.583	0	545.40	0	4.7040	0	34.1540	0	27.043	0	540.132	0	-1e10	1	-1e10	1	-1E+10	1	-1e10	1	-1e10	1	-1E+10	1	-1E+10	1	-1E+10	1
4902624	23	C	02/06/2025	12:24	-126.046	47.583	0	548.60	0	4.7034	0	34.1575	0	27.046	0	543.297	0	16.8	4	5.4	4	-1E+10	1	0.0514	4	0.000175	0	-1E+10	1	-1E+10	1	-1E+10	1
4902624	23	C	02/06/2025	12:24	-126.046	47.583	0	555.40	0	4.7020	0	34.1650	0	27.052	0	550.022	0	-1e10	1	-1e10	1	-1E+10	1	-1e10	1	-1e10	1	-1E+10	1	-1E+10	1	-1E+10	1
4902624	23	C	02/06/2025	12:24	-126.046	47.583	0	559.00	0	4.6898	0	34.1669	0	27.055	0	553.583	0	15.9	4	5.1	4	-1E+10	1	0.0581	4	0.000142	0	-1E+10	1	-1E+10	1	-1E+10	1
4902624	23	C	02/06/2025	12:24	-126.046	47.583	0	565.10	0	4.6690	0	34.1700	0	27.059	0	559.615	0	-1e10	1	-1e10	1	-1E+10	1	-1e10	1	-1e10	1	-1E+10	1	-1E+10	1	-1E+10	1
4902624	23	C	02/06/2025	12:24	-126.046	47.583	0	566.90	0	4.6640	0	34.1716	0	27.061	0	561.396	0	15.3	4	4.9	4	-1E+10	1	0.0516	4	0.000175	0	-1E+10	1	-1E+10	1	-1E+10	1
4902624	23	C	02/06/2025	12:24	-126.046	47.583	0	575.00	0	4.6413	0	34.1789	0	27.070	0	569.406	0	14.8	4	4.8	4	-1E+10	1	0.0654	4	0.000154	0	-1E+10	1	-1E+10	1	-1E+10	1
4902624	23	C	02/06/2025	12:24	-126.046	47.583	0	575.10	0	4.6410	0	34.1790	0	27.070	0	569.505	0	-1e10	1	-1e10	1	-1E+10	1	-1e10	1	-1e10	1	-1E+10	1	-1E+10	1	-1E+10	1
4902624	23	C	02/06/2025	12:24	-126.046	47.583	0	583.60	0	4.6308	0	34.1824	0	27.074	0	577.910	0	14.4	4	4.6	4	-1E+10	1	0.0584	4	0.000176	0	-1E+10	1	-1E+10	1	-1E+10	1
4902624	23	C	02/06/2025	12:24	-126.046	47.583	0	585.10	0	4.6290	0	34.1830	0	27.074	0	579.394	0	-1e10	1	-1e10	1	-1E+10	1	-1e10	1	-1e10	1	-1E+10	1	-1E+10	1	-1E+10	1
4902624	23	C	02/06/2025	12:24	-126.046	47.583	0	592.40	0	4.6084	0	34.1882	0	27.081	0	586.612	0	13.7	4	4.4	4	-1E+10	1	0.0590	4	0.000165	0	-1E+10	1	-1E+10	1	-1E+10	1
4902624	23	C	02/06/2025	12:24	-126.046	47.583	0	595.00	0	4.6010	0	34.1900	0	27.083	0	589.183	0	-1e10	1	-1e10	1	-1E+10	1	-1e10	1	-1e10	1	-1E+10	1	-1E+10	1	-1E+10	1
4902624	23	C	02/06/2025	12:24	-126.046	47.583	0	601.70	0	4.5816	0	34.1954	0	27.089	0	595.808	0	13.1	4	4.2	4	-1E+10	1	0.0724	4	0.000176	0	-1E+10	1	-1E+10	1	-1E+10	1
4902624	23	C	02/06/2025	12:24	-126.046	47.583	0	605.00	0	4.5720	0	34.1980	0	27.093	0	599.071	0	-1e10	1	-1e10	1	-1E+10	1	-1e10	1	-1e10	1	-1E+10	1	-1E+10	1	-1E+10	1
4902624	23	C	02/06/2025	12:24	-126.046	47.583	0	611.50	0	4.5567	0	34.2018	0	27.097	0	605.498	0	12.5	4	4.0	4	-1E+10	1	0.0584	4	0.000189	0	-1E+10	1	-1E+10	1	-1E+10	1
4902624	23	C	02/06/2025	12:24	-126.046	47.583	0	615.20	0	4.5480	0	34.2040	0	27.100	0	609.156	0	-1e10	1	-1e10	1	-1E+10	1	-1e10	1	-1e10	1	-1E+10	1	-1E+10	1	-1E+10	1
4902624	23	C	02/06/2025	12:24	-126.046	47.583	0	621.60	0	4.5271	0	34.2092	0	27.107	0	615.484	0	12.0	4	3.8	4	-1E+10	1	0.0581	4	0.000210	0	-1E+10	1	-1E+10	1	-1E+10	1
4902624	23	C	02/06/2025	12:24	-126.046	47.583	0	625.00	0	4.5160	0	34.2120	0	27.110	0	618.845	0	-1e10	1	-1e10	1	-1E+10	1	-1e10	1	-1e10	1	-1E+10	1	-1E+10	1	-1E+10	1
4902624	23	C	02/06/2025	12:24	-126.046	47.583	0	632.10	0	4.4959	0	34.2163	0	27.116	0	625.865	0	11.5	4	3.7	4	-1E+10	1	0.0511	4	0.000176	0	-1E+10	1	-1E+10	1	-1E+10	1
4902624	23	C	02/06/2025	12:24	-126.046	47.583	0	634.90	0	4.4880	0	34.2180	0	27.118	0	628.633	0	-1e10	1	-1e10	1	-1E+10	1	-1e10	1	-1e10	1	-1E+10	1	-1E+10	1	-1E+10	1
4902624	23	C	02/06/2025	12:24	-126.046	47.583	0	642.70	0	4.4733	0	34.2211	0	27.122	0	636.344	0	11.1	4	3.5	4	-1E+10	1	0.0514	4	0.000186	0	-1E+10	1	-1E+10	1	-1E+10	1
4902624	23	C	02/06/2025	12:24	-126.046	47.583	0	645.00	0	4.4690	0	34.2220	0	27.123	0	638.618	0	-1e10	1	-1e10	1	-1E+10	1	-1e10	1	-1e10	1	-1E+10	1	-1E+10	1	-1E+10	1
4902624	23	C	02/06/2025	12:24	-126.046	47.583	0	653.30	0	4.4443	0	34.2286	0	27.131	0	646.823	0	10.6	4	3.4	4	-1E+10	1	0.0584	4	0.000164	0	-1E+10	1	-1E+10	1	-1E+10	1
4902624	23	C	02/06/2025	12:24	-126.046	47.583	0	655.10	0	4.4390	0	34.2300	0	27.133	0	648.602	0	-1e10	1	-1e10	1	-1E+10	1	-1e10	1	-1e10	1	-1E+10	1	-1E+10	1	-1E+10	1
4902624	23	C	02/06/2025	12:24	-126.046	47.583	0	664.00	0	4.4066	0	34.2354	0	27.141	0	657.400	0	10.2	4	3.3	4	-1E+10	1	0.0584	4	0.000163	0	-1E+10	1	-1E+10	1	-1E+10	1
4902624	23	C	02/06/2025	12:24	-126.046	47.583	0	665.00	0	4.4030	0	34.2360	0	27.141	0	658.388	0	-1e10	1	-1e10	1	-1E+10	1	-1e10	1	-1e10	1	-1E+10	1	-1E+10	1	-1E+10	1
4902624	23	C	02/06/2025	12:24	-126.046	47.583	0	674.90	0	4.3778	0	34.2409	0	27.148	0	668.174	0	9.9	4	3.2	4	-1E+10	1	0.0589	4	0.000141	0	-1E+10	1	-1E+10	1	-1E+10	1
4902624	23	C	02/06/2025	12:24	-126.046	47.583	0	675.20	0	4.3770	0	34.2410	0	27.148	0	668.470	0	-1e10	1	-1e10	1	-1E+10	1	-1e10	1	-1e10	1	-1E+10	1	-1E+10	1	-1E+10	1
4902624	23	C	02/06/2025	12:24	-126.046	47.583	0	685.20	0	4.3480	0	34.2490	0	27.158	0	678.354	0	-1e10	1	-1e10	1	-1E+10	1	-1e10	1	-1e10	1	-1E+10	1	-1E+10	1	-1E+10	1
4902624	23	C	02/06/2025	12:24	-126.046	47.583	0	685.90	0	4.3460	0	34.2494	0	27.158	0	679.046	0	9.5	4	3.0	4	-1E+10	1	0.0723	4	0.000174	0	-1E+10	1	-1E+10	1	-1E+10	1
4902624	23	C	02/06/2025	12:24	-126.046	47.583	0	694.80	0	4.3210	0	34.2550	0	27.166	0	687.843	0	-1e10	1	-1e10	1	-1E+10	1	-1e10	1	-1e10	1	-1E+10	1	-1E+10	1	-1E+10	1
4902624	23	C	02/06/2025	12:24	-126.046	47.583	0	697.00	0	4.3142	0	34.2557	0	27.167	0	690.017	0	9.2	4	2.9	4	-1E+10	1	0.0589	4	0.000152	0	-1E+10	1	-1E+10	1	-1E+10	1
4902624	23	C	02/06/2025	12:24	-126.046	47.583	0	704.80	0	4.2900	0	34.2580	0	27.171	0	697.726	0	-1e10	1	-1e10	1	-1E+10	1	-1e10	1	-1e10	1	-1E+10	1	-1E+10	1	-1E+10	1
4902624	23	C	02/06/2025	12:24	-126.046	47.583	0	708.00	0	4.2806	0	34.2598	0	27.174	0	700.888	0	9.0	4	2.9	4	-1E+10	1	0.0727	4	0.000175	0	-1E+10	1	-1E+10	1	-1E+10	1
4902624	23	C	02/06/2025	12:24	-126.046	47.583	0	715.30	0	4.2590	0	34.2640	0	27.179	0	708.103	0	-1e10	1	-1e10	1	-1E+10	1	-1e10	1	-1e10	1	-1E+10	1	-1E+10	1	-1E+10	1
4902624	23	C	02/06/2025	12:24	-126.046	47.583	0	719.10	0	4.2490	0	34.2655	0	27.182	0	711.858	0	8.8	4	2.8	4	-1E+10	1	0.0654	4	0.000174	0	-1E+10	1	-1E+10	1	-1E+10	1
4902624	23	C	02/06/2025	12:24	-126.046	47.583	0	725.20	0	4.2330	0	34.2680	0	27.185	0	717.886	0	-1e10	1	-1e10	1	-1E+10	1	-1e10	1	-1e10	1	-1E+10	1	-1E+10	1	-1E+10	1
4902624	23	C	02/06/2025	12:24	-126.046	47.583	0	730.20	0	4.2150	0	34.2710	0	27.190	0	722.827	0	8.6	4	2.7	4	-1E+10	1	0.0581	4	0.000163	0	-1E+10	1	-1E+10	1	-1E+10	1
4902624	23	C	02/06/2025	12:24	-126.046	47.583	0	735.20	0	4.1970	0	34.2740	0	27.194	0	727.768	0	-1e10	1	-1e10	1	-1E+10	1	-1e10	1	-1e10	1	-1E+10	1	-1E+10	1	-1E+10	1
4902624	23	C	02/06/2025	12:24	-126.046	47.583	0	741.70	0	4.1709	0	34.2774	0	27.199	0	734.190	0	8.3	4	2.6	4	-1E+10	1	0.0516	4	0.000152	0	-1E+10	1	-1E+10	1	-1E+10	1
4902624	23	C	02/06/2025	12:24	-126.046	47.583	0	744.90	0	4.1580	0	34.2790	0	27.202	0	737.352	0	-1e10	1	-1e10	1	-1E+10	1	-1e10	1	-1e10	1	-1E+10	1	-1E+10	1	-1E+10	1
4902624	23	C	02/06/2025	12:24	-126.046	47.583	0	753.40	0	4.1478	0	34.2850	0	27.208	0	745.751	0	8.0	4	2.5	4	-1E+10	1	0.0657	4	0.000187	0	-1E+10	1	-1E+10	1	-1E+10	1
4902624	23	C	02/06/2025	12:24	-126.046	47.583	0	754.90	0	4.1460	0	34.2860	0	27.209	0	747.233	0	-1e10	1	-1e10	1	-1E+10	1	-1e10	1	-1e10	1	-1E+10	1	-1E+10	1	-1E+10	1
4902624	23	C	02/06/2025	12:24	-126.046	47.583	0	765.10	0	4.1150	0	34.2970	0	27.221	0	757.311	0	-1e10	1	-1e10	1	-1E+10	1	-1e10	1	-1e10	1	-1E+10	1	-1E+10	1	-1E+10	1
4902624	23	C	02/06/2025	12:24	-126.046	47.583	0	765.20	0	4.1147	0	34.2971	0	27.221	0	757.410	0	7.7	4	2.5	4	-1E+10	1	0.0657	4	0.000197	0	-1E+10	1	-1E+10	1	-1E+10	1
4902624	23	C	02/06/2025	12:24	-126.046	47.583	0	773.40	0	4.0932	0	34.3045	0	27.229	0	765.511	0	7.6	4	2.4	4	-1E+10	1	0.0654	4	0.000184	0	-1E+10	1	-1E+10	1	-1E+10	1
4902624	23	C	02/06/2025	12:24	-126.046	47.583	0	775.00	0	4.0890	0	34.3060	0	27.231	0	767.092	0	-1e10	1	-1e10	1	-1E+10	1	-1e10	1	-1e10	1	-1E+10	1	-1E+10	1	-1E+10	1
4902624	23	C	02/06/2025	12:24	-126.046	47.583	0	781.40	0	4.0685	0	34.3118	0	27.238	0	773.415	0	7.6	4	2.4	4	-1E+10	1	0.0580	4	0.000141	0	-1E+10	1	-1E+10	1	-1E+10	1
4902624	23	C	02/06/2025	12:24	-126.046	47.583	0	785.00	0	4.0570	0	34.3150	0	27.241	0	776.971	0	-1e10	1	-1e10	1	-1E+10	1	-1e10	1	-1e10	1	-1E+10	1	-1E+10	1	-1E+10	1
4902624	23	C	02/06/2025	12:24	-126.046	47.583	0	789.50	0	4.0471	0	34.3172	0	27.244	0	781.417	0	7.5	4	2.4	4	-1E+10	1	0.0514	4	0.000173	0	-1E+10	1	-1E+10	1	-1E+10	1
4902624	23	C	02/06/2025	12:24	-126.046	47.583	0	795.00	0	4.0350	0	34.3200	0	27.248	0	786.850	0	-1e10	1	-1e10	1	-1E+10	1	-1e10	1	-1e10	1	-1E+10	1	-1E+10	1	-1E+10	1
4902624	23	C	02/06/2025	12:24	-126.046	47.583	0	797.70	0	4.0280	0	34.3219	0	27.250	0	789.518	0	7.4	4	2.4	4	-1E+10	1	0.0579	4	0.000151	0	-1E+10	1	-1E+10	1	-1E+10	1
4902624	23	C	02/06/2025	12:24	-126.046	47.583	0	805.00	0	4.0090	0	34.3270	0	27.256	0	796.729	0	-1e10	1	-1e10	1	-1E+10	1	-1e10	1	-1e10	1	-1E+10	1	-1E+10	1	-1E+10	1
4902624	23	C	02/06/2025	12:24	-126.046	47.583	0	806.10	0	4.0061	0	34.3278	0	27.257	0	797.815	0	7.5	4	2.4	4	-1E+10	1	0.0443	4	0.000164	0	-1E+10	1	-1E+10	1	-1E+10	1
4902624	23	C	02/06/2025	12:24	-126.046	47.583	0	814.70	0	3.9838	0	34.3338	0	27.264	0	806.310	0	7.5	4	2.4	4	-1E+10	1	0.0581	4	0.000217	0	-1E+10	1	-1E+10	1	-1E+10	1
4902624	23	C	02/06/2025	12:24	-126.046	47.583	0	815.00	0	3.9830	0	34.3340	0	27.264	0	806.607	0	-1e10	1	-1e10	1	-1E+10	1	-1e10	1	-1e10	1	-1E+10	1	-1E+10	1	-1E+10	1
4902624	23	C	02/06/2025	12:24	-126.046	47.583	0	823.30	0	3.9510	0	34.3414	0	27.274	0	814.805	0	7.4	4	2.3	4	-1E+10	1	0.0516	4	0.000128	0	-1E+10	1	-1E+10	1	-1E+10	1
4902624	23	C	02/06/2025	12:24	-126.046	47.583	0	825.10	0	3.9440	0	34.3430	0	27.276	0	816.583	0	-1e10	1	-1e10	1	-1E+10	1	-1e10	1	-1e10	1	-1E+10	1	-1E+10	1	-1E+10	1
4902624	23	C	02/06/2025	12:24	-126.046	47.583	0	832.20	0	3.9332	0	34.3451	0	27.278	0	823.596	0	7.5	4	2.4	4	-1E+10	1	0.0651	4	0.000151	0	-1E+10	1	-1E+10	1	-1E+10	1
4902624	23	C	02/06/2025	12:24	-126.046	47.583	0	835.00	0	3.9290	0	34.3460	0	27.280	0	826.361	0	-1e10	1	-1e10	1	-1E+10	1	-1e10	1	-1e10	1	-1E+10	1	-1E+10	1	-1E+10	1
4902624	23	C	02/06/2025	12:24	-126.046	47.583	0	841.50	0	3.9119	0	34.3493	0	27.284	0	832.781	0	7.6	4	2.4	4	-1E+10	1	0.0517	4	0.000162	0	-1E+10	1	-1E+10	1	-1E+10	1
4902624	23	C	02/06/2025	12:24	-126.046	47.583	0	844.90	0	3.9030	0	34.3510	0	27.286	0	836.139	0	-1e10	1	-1e10	1	-1E+10	1	-1e10	1	-1e10	1	-1E+10	1	-1E+10	1	-1E+10	1
4902624	23	C	02/06/2025	12:24	-126.046	47.583	0	851.10	0	3.8803	0	34.3535	0	27.291	0	842.262	0	7.6	4	2.4	4	-1E+10	1	0.0657	4	0.000162	0	-1E+10	1	-1E+10	1	-1E+10	1
4902624	23	C	02/06/2025	12:24	-126.046	47.583	0	855.00	0	3.8660	0	34.3550	0	27.293	0	846.114	0	-1e10	1	-1e10	1	-1E+10	1	-1e10	1	-1e10	1	-1E+10	1	-1E+10	1	-1E+10	1
4902624	23	C	02/06/2025	12:24	-126.046	47.583	0	861.30	0	3.8534	0	34.3588	0	27.298	0	852.336	0	7.7	4	2.4	4	-1E+10	1	0.0654	4	0.000162	0	-1E+10	1	-1E+10	1	-1E+10	1
4902624	23	C	02/06/2025	12:24	-126.046	47.583	0	865.00	0	3.8460	0	34.3610	0	27.300	0	855.989	0	-1e10	1	-1e10	1	-1E+10	1	-1e10	1	-1e10	1	-1E+10	1	-1E+10	1	-1E+10	1
4902624	23	C	02/06/2025	12:24	-126.046	47.583	0	871.80	0	3.8317	0	34.3651	0	27.305	0	862.705	0	7.7	4	2.4	4	-1E+10	1	0.0584	4	0.000173	0	-1E+10	1	-1E+10	1	-1E+10	1
4902624	23	C	02/06/2025	12:24	-126.046	47.583	0	875.00	0	3.8250	0	34.3670	0	27.307	0	865.865	0	-1e10	1	-1e10	1	-1E+10	1	-1e10	1	-1e10	1	-1E+10	1	-1E+10	1	-1E+10	1
4902624	23	C	02/06/2025	12:24	-126.046	47.583	0	882.80	0	3.8116	0	34.3694	0	27.310	0	873.567	0	7.8	4	2.5	4	-1E+10	1	0.0584	4	0.000161	0	-1E+10	1	-1E+10	1	-1E+10	1
4902624	23	C	02/06/2025	12:24	-126.046	47.583	0	884.90	0	3.8080	0	34.3700	0	27.311	0	875.641	0	-1e10	1	-1e10	1	-1E+10	1	-1e10	1	-1e10	1	-1E+10	1	-1E+10	1	-1E+10	1
4902624	23	C	02/06/2025	12:24	-126.046	47.583	0	893.90	0	3.7860	0	34.3728	0	27.316	0	884.527	0	7.9	4	2.5	4	-1E+10	1	0.0581	4	0.000137	0	-1E+10	1	-1E+10	1	-1E+10	1
4902624	23	C	02/06/2025	12:24	-126.046	47.583	0	894.70	0	3.7840	0	34.3730	0	27.316	0	885.317	0	-1e10	1	-1e10	1	-1E+10	1	-1e10	1	-1e10	1	-1E+10	1	-1E+10	1	-1E+10	1
4902624	23	C	02/06/2025	12:24	-126.046	47.583	0	905.10	0	3.7570	0	34.3760	0	27.321	0	895.586	0	7.9	4	2.5	4	-1E+10	1	0.0524	4	0.000116	0	-1E+10	1	-1E+10	1	-1E+10	1
4902624	23	C	02/06/2025	12:24	-126.046	47.583	0	914.90	0	3.7480	0	34.3770	0	27.323	0	905.262	0	-1e10	1	-1e10	1	-1E+10	1	-1e10	1	-1e10	1	-1E+10	1	-1E+10	1	-1E+10	1
4902624	23	C	02/06/2025	12:24	-126.046	47.583	0	916.10	0	3.7464	0	34.3774	0	27.323	0	906.446	0	8.0	4	2.5	4	-1E+10	1	0.0795	4	0.000137	0	-1E+10	1	-1E+10	1	-1E+10	1
4902624	23	C	02/06/2025	12:24	-126.046	47.583	0	924.90	0	3.7350	0	34.3800	0	27.327	0	915.135	0	-1e10	1	-1e10	1	-1E+10	1	-1e10	1	-1e10	1	-1E+10	1	-1E+10	1	-1E+10	1
4902624	23	C	02/06/2025	12:24	-126.046	47.583	0	927.20	0	3.7338	0	34.3812	0	27.328	0	917.405	0	24.8	4	7.8	4	-1E+10	1	0.0584	4	0.000128	0	-1E+10	1	-1E+10	1	-1E+10	1
4902624	23	C	02/06/2025	12:24	-126.046	47.583	0	934.80	0	3.7300	0	34.3850	0	27.331	0	924.908	0	-1e10	1	-1e10	1	-1E+10	1	-1e10	1	-1e10	1	-1E+10	1	-1E+10	1	-1E+10	1
4902624	23	C	02/06/2025	12:24	-126.046	47.583	0	938.10	0	3.7239	0	34.3860	0	27.333	0	928.166	0	8.3	4	2.6	4	-1E+10	1	0.0577	4	0.000161	0	-1E+10	1	-1E+10	1	-1E+10	1
4902624	23	C	02/06/2025	12:24	-126.046	47.583	0	945.00	0	3.7110	0	34.3880	0	27.336	0	934.977	0	-1e10	1	-1e10	1	-1E+10	1	-1e10	1	-1e10	1	-1E+10	1	-1E+10	1	-1E+10	1
4902624	23	C	02/06/2025	12:24	-126.046	47.583	0	949.00	0	3.6982	0	34.3888	0	27.338	0	938.926	0	8.7	4	2.7	4	-1E+10	1	0.0449	4	0.000149	0	-1E+10	1	-1E+10	1	-1E+10	1
4902624	23	C	02/06/2025	12:24	-126.046	47.583	0	955.00	0	3.6790	0	34.3900	0	27.340	0	944.849	0	-1e10	1	-1e10	1	-1E+10	1	-1e10	1	-1e10	1	-1E+10	1	-1E+10	1	-1E+10	1
4902624	23	C	02/06/2025	12:24	-126.046	47.583	0	960.00	0	3.6596	0	34.3895	0	27.342	0	949.784	0	44.3	4	13.9	4	-1E+10	1	0.0727	4	0.000137	0	-1E+10	1	-1E+10	1	-1E+10	1
4902624	23	C	02/06/2025	12:24	-126.046	47.583	0	965.30	0	3.6390	0	34.3890	0	27.344	0	955.016	0	-1e10	1	-1e10	1	-1E+10	1	-1e10	1	-1e10	1	-1E+10	1	-1E+10	1	-1E+10	1
4902624	23	C	02/06/2025	12:24	-126.046	47.583	0	971.00	0	3.6171	0	34.3907	0	27.347	0	960.642	0	42.6	4	13.3	4	-1E+10	1	0.0654	4	0.000127	0	-1E+10	1	-1E+10	1	-1E+10	1
4902624	23	C	02/06/2025	12:24	-126.046	47.583	0	975.20	0	3.6010	0	34.3920	0	27.350	0	964.788	0	-1e10	1	-1e10	1	-1E+10	1	-1e10	1	-1e10	1	-1E+10	1	-1E+10	1	-1E+10	1
4902624	23	C	02/06/2025	12:24	-126.046	47.583	0	982.20	0	3.5798	0	34.3955	0	27.355	0	971.697	0	46.4	4	14.5	4	-1E+10	1	0.0581	4	0.000172	0	-1E+10	1	-1E+10	1	-1E+10	1
4902624	23	C	02/06/2025	12:24	-126.046	47.583	0	985.10	0	3.5710	0	34.3970	0	27.357	0	974.559	0	-1e10	1	-1e10	1	-1E+10	1	-1e10	1	-1e10	1	-1E+10	1	-1E+10	1	-1E+10	1
4902624	23	C	02/06/2025	12:24	-126.046	47.583	0	993.50	0	3.5453	0	34.3996	0	27.361	0	982.849	0	49.9	4	15.6	4	-1E+10	1	0.0511	4	0.000149	0	-1E+10	1	-1E+10	1	-1E+10	1
4902624	23	C	02/06/2025	12:24	-126.046	47.583	0	994.90	0	3.5410	0	34.4000	0	27.362	0	984.231	0	-1e10	1	-1e10	1	-1E+10	1	-1e10	1	-1e10	1	-1E+10	1	-1E+10	1	-1E+10	1
4902624	23	C	02/06/2025	12:24	-126.046	47.583	0	1016.10	0	3.4776	0	34.4063	0	27.373	0	1005.153	0	53.2	4	16.6	4	-1E+10	1	0.0511	4	0.000172	0	-1E+10	1	-1E+10	1	-1E+10	1
4902624	23	C	02/06/2025	12:24	-126.046	47.583	0	1025.00	0	3.4510	0	34.4090	0	27.378	0	1013.935	0	-1e10	1	-1e10	1	-1E+10	1	-1e10	1	-1e10	1	-1E+10	1	-1E+10	1	-1E+10	1
4902624	23	C	02/06/2025	12:24	-126.046	47.583	0	1038.50	0	3.4112	0	34.4136	0	27.386	0	1027.257	0	38.9	4	12.1	4	-1E+10	1	0.0513	4	0.000160	0	-1E+10	1	-1E+10	1	-1E+10	1
4902624	23	C	02/06/2025	12:24	-126.046	47.583	0	1056.00	0	3.3596	0	34.4196	0	27.395	0	1044.524	0	42.0	4	13.1	4	-1E+10	1	0.0585	4	0.000160	0	-1E+10	1	-1E+10	1	-1E+10	1
4902624	23	C	02/06/2025	12:24	-126.046	47.583	0	1072.10	0	3.3121	0	34.4252	0	27.404	0	1060.408	0	42.3	4	13.2	4	-1E+10	1	0.0656	4	0.000148	0	-1E+10	1	-1E+10	1	-1E+10	1
4902624	23	C	02/06/2025	12:24	-126.046	47.583	0	1074.50	0	3.3050	0	34.4260	0	27.406	0	1062.776	0	-1e10	1	-1e10	1	-1E+10	1	-1e10	1	-1e10	1	-1E+10	1	-1E+10	1	-1E+10	1
4902624	23	C	02/06/2025	12:24	-126.046	47.583	0	1090.40	0	3.2722	0	34.4317	0	27.413	0	1078.461	0	39.5	4	12.3	4	-1E+10	1	0.0583	4	0.000147	0	-1E+10	1	-1E+10	1	-1E+10	1
4902624	23	C	02/06/2025	12:24	-126.046	47.583	0	1110.40	0	3.2309	0	34.4388	0	27.423	0	1098.190	0	35.7	4	11.1	4	-1E+10	1	0.0515	4	0.000125	0	-1E+10	1	-1E+10	1	-1E+10	1
4902624	23	C	02/06/2025	12:24	-126.046	47.583	0	1124.90	0	3.2010	0	34.4440	0	27.430	0	1112.492	0	-1e10	1	-1e10	1	-1E+10	1	-1e10	1	-1e10	1	-1E+10	1	-1E+10	1	-1E+10	1
4902624	23	C	02/06/2025	12:24	-126.046	47.583	0	1132.20	0	3.1885	0	34.4462	0	27.433	0	1119.692	0	31.5	4	9.8	4	-1E+10	1	0.0725	4	0.000148	0	-1E+10	1	-1E+10	1	-1E+10	1
4902624	23	C	02/06/2025	12:24	-126.046	47.583	0	1156.00	0	3.1478	0	34.4533	0	27.443	0	1143.165	0	41.2	4	12.8	4	-1E+10	1	0.0441	4	0.000159	0	-1E+10	1	-1E+10	1	-1E+10	1
4902624	23	C	02/06/2025	12:24	-126.046	47.583	0	1175.20	0	3.1150	0	34.4590	0	27.450	0	1162.098	0	-1e10	1	-1e10	1	-1E+10	1	-1e10	1	-1e10	1	-1E+10	1	-1E+10	1	-1E+10	1
4902624	23	C	02/06/2025	12:24	-126.046	47.583	0	1180.40	0	3.1046	0	34.4611	0	27.453	0	1167.226	0	32.7	4	10.1	4	-1E+10	1	0.0583	4	0.000147	0	-1E+10	1	-1E+10	1	-1E+10	1
4902624	23	C	02/06/2025	12:24	-126.046	47.583	0	1204.80	0	3.0556	0	34.4709	0	27.465	0	1191.285	0	32.0	4	9.9	4	-1E+10	1	0.0511	4	0.000172	0	-1E+10	1	-1E+10	1	-1E+10	1
4902624	23	C	02/06/2025	12:24	-126.046	47.583	0	1225.00	0	3.0150	0	34.4790	0	27.476	0	1211.200	0	-1e10	1	-1e10	1	-1E+10	1	-1e10	1	-1e10	1	-1E+10	1	-1E+10	1	-1E+10	1
4902624	23	C	02/06/2025	12:24	-126.046	47.583	0	1229.70	0	3.0018	0	34.4795	0	27.477	0	1215.833	0	65.6	4	20.3	4	-1E+10	1	0.0511	4	0.000249	0	-1E+10	1	-1E+10	1	-1E+10	1
4902624	23	C	02/06/2025	12:24	-126.046	47.583	0	1249.00	0	2.9474	0	34.4814	0	27.484	0	1234.859	0	67.2	4	20.7	4	-1E+10	1	0.0511	4	0.000135	0	-1E+10	1	-1E+10	1	-1E+10	1
4902624	23	C	02/06/2025	12:24	-126.046	47.583	0	1266.00	0	2.8995	0	34.4831	0	27.489	0	1251.616	0	69.7	4	21.5	4	-1E+10	1	0.0512	4	0.000135	0	-1E+10	1	-1E+10	1	-1E+10	1
4902624	23	C	02/06/2025	12:24	-126.046	47.583	0	1274.70	0	2.8750	0	34.4840	0	27.492	0	1260.191	0	-1e10	1	-1e10	1	-1E+10	1	-1e10	1	-1e10	1	-1E+10	1	-1E+10	1	-1E+10	1
4902624	23	C	02/06/2025	12:24	-126.046	47.583	0	1283.40	0	2.8649	0	34.4864	0	27.495	0	1268.766	0	72.9	4	22.5	4	-1E+10	1	0.0584	4	0.000182	0	-1E+10	1	-1E+10	1	-1E+10	1
4902624	23	C	02/06/2025	12:24	-126.046	47.583	0	1301.40	0	2.8442	0	34.4914	0	27.501	0	1286.506	0	71.7	4	22.1	4	-1E+10	1	0.0582	4	0.000215	0	-1E+10	1	-1E+10	1	-1E+10	1
4902624	23	C	02/06/2025	12:24	-126.046	47.583	0	1320.20	0	2.8224	0	34.4967	0	27.507	0	1305.033	0	76.1	4	23.4	4	-1E+10	1	0.0512	4	0.000182	0	-1E+10	1	-1E+10	1	-1E+10	1
4902624	23	C	02/06/2025	12:24	-126.046	47.583	0	1324.90	0	2.8170	0	34.4980	0	27.509	0	1309.664	0	-1e10	1	-1e10	1	-1E+10	1	-1e10	1	-1e10	1	-1E+10	1	-1E+10	1	-1E+10	1
4902624	23	C	02/06/2025	12:24	-126.046	47.583	0	1340.00	0	2.8049	0	34.5019	0	27.513	0	1324.543	0	73.0	4	22.5	4	-1E+10	1	0.0582	4	0.000217	0	-1E+10	1	-1E+10	1	-1E+10	1
4902624	23	C	02/06/2025	12:24	-126.046	47.583	0	1359.60	0	2.7892	0	34.5070	0	27.519	0	1343.854	0	77.3	4	23.8	4	-1E+10	1	0.0512	4	0.000262	0	-1E+10	1	-1E+10	1	-1E+10	1
4902624	23	C	02/06/2025	12:24	-126.046	47.583	0	1374.80	0	2.7770	0	34.5110	0	27.523	0	1358.829	0	-1e10	1	-1e10	1	-1E+10	1	-1e10	1	-1e10	1	-1E+10	1	-1E+10	1	-1E+10	1
4902624	23	C	02/06/2025	12:24	-126.046	47.583	0	1380.10	0	2.7709	0	34.5115	0	27.524	0	1364.051	0	82.2	4	25.3	4	-1E+10	1	0.0583	4	0.000240	0	-1E+10	1	-1E+10	1	-1E+10	1
4902624	23	C	02/06/2025	12:24	-126.046	47.583	0	1402.00	0	2.7456	0	34.5137	0	27.528	0	1385.624	0	86.5	4	26.6	4	-1E+10	1	0.0509	4	0.000321	0	-1E+10	1	-1E+10	1	-1E+10	1
4902624	23	C	02/06/2025	12:24	-126.046	47.583	0	1425.00	0	2.7190	0	34.5160	0	27.533	0	1408.279	0	-1e10	1	-1e10	1	-1E+10	1	-1e10	1	-1e10	1	-1E+10	1	-1E+10	1	-1E+10	1
4902624	23	C	02/06/2025	12:24	-126.046	47.583	0	1425.70	0	2.7187	0	34.5161	0	27.533	0	1408.968	0	95.3	4	29.2	4	-1E+10	1	0.0438	4	0.000354	0	-1E+10	1	-1E+10	1	-1E+10	1
4902624	23	C	02/06/2025	12:24	-126.046	47.583	0	1449.80	0	2.7087	0	34.5180	0	27.535	0	1432.704	0	101.4	4	31.1	4	-1E+10	1	0.0441	4	0.000297	0	-1E+10	1	-1E+10	1	-1E+10	1
4902624	23	C	02/06/2025	12:24	-126.046	47.583	0	1473.80	0	2.6987	0	34.5199	0	27.538	0	1456.338	0	85.5	4	26.2	4	-1E+10	1	0.0582	4	0.000320	0	-1E+10	1	-1E+10	1	-1E+10	1
4902624	23	C	02/06/2025	12:24	-126.046	47.583	0	1475.40	0	2.6980	0	34.5200	0	27.538	0	1457.914	0	-1e10	1	-1e10	1	-1E+10	1	-1e10	1	-1e10	1	-1E+10	1	-1E+10	1	-1E+10	1
4902624	23	C	02/06/2025	12:24	-126.046	47.583	0	1498.10	0	2.6862	0	34.5209	0	27.540	0	1480.265	0	70.8	4	21.7	4	-1E+10	1	0.0441	4	0.000320	0	-1E+10	1	-1E+10	1	-1E+10	1
4902624	23	C	02/06/2025	12:24	-126.046	47.583	0	1522.10	0	2.6737	0	34.5219	0	27.542	0	1503.894	0	79.7	4	24.4	4	-1E+10	1	0.0582	4	0.000331	0	-1E+10	1	-1E+10	1	-1E+10	1
4902624	23	C	02/06/2025	12:24	-126.046	47.583	0	1525.30	0	2.6720	0	34.5220	0	27.542	0	1507.044	0	-1e10	1	-1e10	1	-1E+10	1	-1e10	1	-1e10	1	-1E+10	1	-1E+10	1	-1E+10	1
4902624	23	C	02/06/2025	12:24	-126.046	47.583	0	1539.20	0	2.6375	0	34.5254	0	27.548	0	1520.728	0	85.9	4	26.3	4	-1E+10	1	0.0512	4	0.000332	0	-1E+10	1	-1E+10	1	-1E+10	1
4902624	23	C	02/06/2025	12:24	-126.046	47.583	0	1557.60	0	2.5919	0	34.5298	0	27.555	0	1538.840	0	89.2	4	27.3	4	-1E+10	1	0.0581	4	0.000378	0	-1E+10	1	-1E+10	1	-1E+10	1
4902624	23	C	02/06/2025	12:24	-126.046	47.583	0	1574.90	0	2.5490	0	34.5340	0	27.562	0	1555.868	0	-1e10	1	-1e10	1	-1E+10	1	-1e10	1	-1e10	1	-1E+10	1	-1E+10	1	-1E+10	1
4902624	23	C	02/06/2025	12:24	-126.046	47.583	0	1577.80	0	2.5400	0	34.5349	0	27.564	0	1558.723	0	102.4	4	31.3	4	-1E+10	1	0.0438	4	0.000365	0	-1E+10	1	-1E+10	1	-1E+10	1
4902624	23	C	02/06/2025	12:24	-126.046	47.583	0	1597.60	0	2.4787	0	34.5412	0	27.574	0	1578.209	0	105.0	4	32.0	4	-1E+10	1	0.0441	4	0.000306	0	-1E+10	1	-1E+10	1	-1E+10	1
4902624	23	C	02/06/2025	12:24	-126.046	47.583	0	1617.20	0	2.4181	0	34.5474	0	27.584	0	1597.498	0	102.9	4	31.3	4	-1E+10	1	0.0582	4	0.000285	0	-1E+10	1	-1E+10	1	-1E+10	1
4902624	23	C	02/06/2025	12:24	-126.046	47.583	0	1625.30	0	2.3930	0	34.5500	0	27.588	0	1605.468	0	-1e10	1	-1e10	1	-1E+10	1	-1e10	1	-1e10	1	-1E+10	1	-1E+10	1	-1E+10	1
4902624	23	C	02/06/2025	12:24	-126.046	47.583	0	1636.30	0	2.3664	0	34.5531	0	27.593	0	1616.292	0	110.9	4	33.7	4	-1E+10	1	0.0511	4	0.000380	0	-1E+10	1	-1E+10	1	-1E+10	1
4902624	23	C	02/06/2025	12:24	-126.046	47.583	0	1656.80	0	2.3169	0	34.5588	0	27.602	0	1636.462	0	117.3	4	35.6	4	-1E+10	1	0.0512	4	0.000586	0	-1E+10	1	-1E+10	1	-1E+10	1
4902624	23	C	02/06/2025	12:24	-126.046	47.583	0	1675.40	0	2.2720	0	34.5640	0	27.610	0	1654.761	0	-1e10	1	-1e10	1	-1E+10	1	-1e10	1	-1e10	1	-1E+10	1	-1E+10	1	-1E+10	1
4902624	23	C	02/06/2025	12:24	-126.046	47.583	0	1679.40	0	2.2701	0	34.5643	0	27.610	0	1658.696	0	118.5	4	36.0	4	-1E+10	1	0.0583	4	0.000505	0	-1E+10	1	-1E+10	1	-1E+10	1
4902624	23	C	02/06/2025	12:24	-126.046	47.583	0	1704.20	0	2.2585	0	34.5661	0	27.613	0	1683.092	0	117.8	4	35.7	4	-1E+10	1	0.0511	4	0.001599	0	-1E+10	1	-1E+10	1	-1E+10	1
4902624	23	C	02/06/2025	12:24	-126.046	47.583	0	1715.80	0	2.2530	0	34.5670	0	27.614	0	1694.502	0	-1e10	1	-1e10	1	-1E+10	1	-1e10	1	-1e10	1	-1E+10	1	-1E+10	1	-1E+10	1
4902624	23	C	02/06/2025	12:24	-126.046	47.583	0	1727.10	0	-1e10	1	-1e10	1	-1e10	1	1705.617	0	120.7	4	-1e10	4	-1E+10	1	0.0511	4	0.000639	0	-1E+10	1	-1E+10	1	-1E+10	1
4902624	23	C	02/06/2025	12:24	-126.046	47.583	0																										
4902624	24	C	02/16/2025	09:00	-126.233	47.806	0	0.00	0	8.6572	0	32.2903	0	25.050	0	0.000	0	261.8	4	90.8	4	-1E+10	1	0.6570	4	0.002551	0	-1E+10	1	-1E+10	1	-1E+10	1
4902624	24	C	02/16/2025	09:00	-126.233	47.806	0	0.30	0	8.6580	0	32.2910	0	25.050	0	0.297	0	-1e10	1	-1e10	1	-1E+10	1	0.7008	4	0.000897	0	-1E+10	1	-1E+10	1	-1E+10	1
4902624	24	C	02/16/2025	09:00	-126.233	47.806	0	0.40	0	8.6581	0	32.2910	0	25.050	0	0.397	0	260.5	4	90.3	4	-1E+10	1	0.7227	4	0.000944	0	-1E+10	1	-1E+10	1	-1E+10	1
4902624	24	C	02/16/2025	09:00	-126.233	47.806	0	0.80	0	8.6584	0	32.2910	0	25.050	0	0.793	0	-1e10	1	-1e10	1	-1E+10	1	0.6716	4	0.000862	0	-1E+10	1	-1E+10	1	-1E+10	1
4902624	24	C	02/16/2025	09:00	-126.233	47.806	0	1.10	0	8.6587	0	32.2910	0	25.050	0	1.091	0	-1e10	1	-1e10	1	-1E+10	1	0.7300	4	0.000850	0	-1E+10	1	-1E+10	1	-1E+10	1
4902624	24	C	02/16/2025	09:00	-126.233	47.806	0	1.40	0	8.6589	0	32.2910	0	25.050	0	1.388	0	-1e10	1	-1e10	1	-1E+10	1	0.7154	4	0.000850	0	-1E+10	1	-1E+10	1	-1E+10	1
4902624	24	C	02/16/2025	09:00	-126.233	47.806	0	1.50	0	8.6590	0	32.2910	0	25.050	0	1.487	0	-1e10	1	-1e10	1	-1E+10	1	-1e10	1	-1e10	1	-1E+10	1	-1E+10	1	-1E+10	1
4902624	24	C	02/16/2025	09:00	-126.233	47.806	0	1.60	0	8.6591	0	32.2910	0	25.050	0	1.587	0	-1e10	1	-1e10	1	-1E+10	1	0.7081	4	0.000862	0	-1E+10	1	-1E+10	1	-1E+10	1
4902624	24	C	02/16/2025	09:00	-126.233	47.806	0	1.80	0	8.6593	0	32.2910	0	25.050	0	1.785	0	259.9	4	90.1	4	-1E+10	1	0.7081	4	0.001132	0	-1E+10	1	-1E+10	1	-1E+10	1
4902624	24	C	02/16/2025	09:00	-126.233	47.806	0	1.90	0	8.6594	0	32.2910	0	25.050	0	1.884	0	-1e10	1	-1e10	1	-1E+10	1	0.6935	4	0.000885	0	-1E+10	1	-1E+10	1	-1E+10	1
4902624	24	C	02/16/2025	09:00	-126.233	47.806	0	2.20	0	8.6597	0	32.2910	0	25.050	0	2.182	0	-1e10	1	-1e10	1	-1E+10	1	0.7081	4	0.001002	0	-1E+10	1	-1E+10	1	-1E+10	1
4902624	24	C	02/16/2025	09:00	-126.233	47.806	0	2.30	0	8.6598	0	32.2910	0	25.050	0	2.281	0	-1e10	1	-1e10	1	-1E+10	1	0.7008	4	0.000873	0	-1E+10	1	-1E+10	1	-1E+10	1
4902624	24	C	02/16/2025	09:00	-126.233	47.806	0	2.50	0	8.6600	0	32.2910	0	25.050	0	2.479	0	259.9	4	90.1	4	-1E+10	1	0.6862	4	0.000956	0	-1E+10	1	-1E+10	1	-1E+10	1
4902624	24	C	02/16/2025	09:00	-126.233	47.806	0	2.90	0	8.6600	0	32.2910	0	25.050	0	2.876	0	-1e10	1	-1e10	1	-1E+10	1	0.7154	4	0.000932	0	-1E+10	1	-1E+10	1	-1E+10	1
4902624	24	C	02/16/2025	09:00	-126.233	47.806	0	3.20	0	8.6600	0	32.2910	0	25.050	0	3.173	0	-1e10	1	-1e10	1	-1E+10	1	0.7154	4	0.000885	0	-1E+10	1	-1E+10	1	-1E+10	1
4902624	24	C	02/16/2025	09:00	-126.233	47.806	0	3.30	0	8.6600	0	32.2910	0	25.050	0	3.272	0	-1e10	1	-1e10	1	-1E+10	1	0.7446	4	0.000873	0	-1E+10	1	-1E+10	1	-1E+10	1
4902624	24	C	02/16/2025	09:00	-126.233	47.806	0	3.60	0	8.6600	0	32.2910	0	25.050	0	3.570	0	259.8	4	90.1	4	-1E+10	1	0.7154	4	0.000897	0	-1E+10	1	-1E+10	1	-1E+10	1
4902624	24	C	02/16/2025	09:00	-126.233	47.806	0	3.80	0	8.6600	0	32.2910	0	25.050	0	3.768	0	-1e10	1	-1e10	1	-1E+10	1	0.6789	4	0.001002	0	-1E+10	1	-1E+10	1	-1E+10	1
4902624	24	C	02/16/2025	09:00	-126.233	47.806	0	4.00	0	8.6600	0	32.2910	0	25.050	0	3.966	0	-1e10	1	-1e10	1	-1E+10	1	0.6935	4	0.000850	0	-1E+10	1	-1E+10	1	-1E+10	1
4902624	24	C	02/16/2025	09:00	-126.233	47.806	0	4.20	0	8.6600	0	32.2910	0	25.050	0	4.165	0	-1e10	1	-1e10	1	-1E+10	1	0.6935	4	0.000897	0	-1E+10	1	-1E+10	1	-1E+10	1
4902624	24	C	02/16/2025	09:00	-126.233	47.806	0	4.50	0	8.6600	0	32.2910	0	25.050	0	4.462	0	-1e10	1	-1e10	1	-1E+10	1	-1e10	1	-1e10	1	-1E+10	1	-1E+10	1	-1E+10	1
4902624	24	C	02/16/2025	09:00	-126.233	47.806	0	4.60	0	8.6600	0	32.2910	0	25.050	0	4.561	0	259.6	4	90.0	4	-1E+10	1	0.7052	4	0.000883	0	-1E+10	1	-1E+10	1	-1E+10	1
4902624	24	C	02/16/2025	09:00	-126.233	47.806	0	4.90	0	8.6600	0	32.2910	0	25.050	0	4.859	0	-1e10	1	-1e10	1	-1E+10	1	0.6789	4	0.000897	0	-1E+10	1	-1E+10	1	-1E+10	1
4902624	24	C	02/16/2025	09:00	-126.233	47.806	0	5.10	0	8.6600	0	32.2910	0	25.050	0	5.057	0	-1e10	1	-1e10	1	-1E+10	1	0.7154	4	0.000862	0	-1E+10	1	-1E+10	1	-1E+10	1
4902624	24	C	02/16/2025	09:00	-126.233	47.806	0	5.30	0	8.6600	0	32.2910	0	25.050	0	5.256	0	-1e10	1	-1e10	1	-1E+10	1	0.7154	4	0.001096	0	-1E+10	1	-1E+10	1	-1E+10	1
4902624	24	C	02/16/2025	09:00	-126.233	47.806	0	5.50	0	8.6600	0	32.2910	0	25.050	0	5.454	0	-1e10	1	-1e10	1	-1E+10	1	-1e10	1	-1e10	1	-1E+10	1	-1E+10	1	-1E+10	1
4902624	24	C	02/16/2025	09:00	-126.233	47.806	0	5.60	0	8.6600	0	32.2910	0	25.050	0	5.553	0	-1e10	1	-1e10	1	-1E+10	1	0.7081	4	0.000850	0	-1E+10	1	-1E+10	1	-1E+10	1
4902624	24	C	02/16/2025	09:00	-126.233	47.806	0	5.80	0	8.6600	0	32.2910	0	25.050	0	5.751	0	259.6	4	90.0	4	-1E+10	1	0.7008	4	0.000944	0	-1E+10	1	-1E+10	1	-1E+10	1
4902624	24	C	02/16/2025	09:00	-126.233	47.806	0	6.00	0	8.6600	0	32.2910	0	25.050	0	5.950	0	-1e10	1	-1e10	1	-1E+10	1	0.6862	4	0.000920	0	-1E+10	1	-1E+10	1	-1E+10	1
4902624	24	C	02/16/2025	09:00	-126.233	47.806	0	6.20	0	8.6600	0	32.2910	0	25.050	0	6.148	0	-1e10	1	-1e10	1	-1E+10	1	0.7008	4	0.000897	0	-1E+10	1	-1E+10	1	-1E+10	1
4902624	24	C	02/16/2025	09:00	-126.233	47.806	0	6.50	0	8.6600	0	32.2910	0	25.050	0	6.445	0	-1e10	1	-1e10	1	-1E+10	1	-1e10	1	-1e10	1	-1E+10	1	-1E+10	1	-1E+10	1
4902624	24	C	02/16/2025	09:00	-126.233	47.806	0	6.70	0	8.6602	0	32.2910	0	25.050	0	6.644	0	-1e10	1	-1e10	1	-1E+10	1	0.6643	4	0.000838	0	-1E+10	1	-1E+10	1	-1E+10	1
4902624	24	C	02/16/2025	09:00	-126.233	47.806	0	7.00	0	8.6605	0	32.2910	0	25.050	0	6.941	0	259.5	4	90.0	4	-1E+10	1	0.7373	4	0.000850	0	-1E+10	1	-1E+10	1	-1E+10	1
4902624	24	C	02/16/2025	09:00	-126.233	47.806	0	7.10	0	8.6606	0	32.2910	0	25.050	0	7.040	0	-1e10	1	-1e10	1	-1E+10	1	0.6935	4	0.000885	0	-1E+10	1	-1E+10	1	-1E+10	1
4902624	24	C	02/16/2025	09:00	-126.233	47.806	0	7.40	0	8.6609	0	32.2910	0	25.050	0	7.338	0	-1e10	1	-1e10	1	-1E+10	1	0.6716	4	0.000850	0	-1E+10	1	-1E+10	1	-1E+10	1
4902624	24	C	02/16/2025	09:00	-126.233	47.806	0	7.50	0	8.6610	0	32.2910	0	25.050	0	7.437	0	-1e10	1	-1e10	1	-1E+10	1	-1e10	1	-1e10	1	-1E+10	1	-1E+10	1	-1E+10	1
4902624	24	C	02/16/2025	09:00	-126.233	47.806	0	7.60	0	8.6610	0	32.2910	0	25.050	0	7.536	0	-1e10	1	-1e10	1	-1E+10	1	0.6789	4	0.000838	0	-1E+10	1	-1E+10	1	-1E+10	1
4902624	24	C	02/16/2025	09:00	-126.233	47.806	0	7.90	0	8.6610	0	32.2910	0	25.050	0	7.834	0	-1e10	1	-1e10	1	-1E+10	1	0.7227	4	0.000826	0	-1E+10	1	-1E+10	1	-1E+10	1
4902624	24	C	02/16/2025	09:00	-126.233	47.806	0	8.10	0	8.6610	0	32.2910	0	25.050	0	8.032	0	259.3	4	89.9	4	-1E+10	1	0.6935	4	0.000862	0	-1E+10	1	-1E+10	1	-1E+10	1
4902624	24	C	02/16/2025	09:00	-126.233	47.806	0	8.30	0	8.6610	0	32.2910	0	25.050	0	8.230	0	-1e10	1	-1e10	1	-1E+10	1	0.7227	4	0.000909	0	-1E+10	1	-1E+10	1	-1E+10	1
4902624	24	C	02/16/2025	09:00	-126.233	47.806	0	8.40	0	8.6610	0	32.2910	0	25.050	0	8.329	0	-1e10	1	-1e10	1	-1E+10	1	-1e10	1	-1e10	1	-1E+10	1	-1E+10	1	-1E+10	1
4902624	24	C	02/16/2025	09:00	-126.233	47.806	0	8.80	0	8.6610	0	32.2910	0	25.050	0	8.726	0	-1e10	1	-1e10	1	-1E+10	1	0.7008	4	0.000885	0	-1E+10	1	-1E+10	1	-1E+10	1
4902624	24	C	02/16/2025	09:00	-126.233	47.806	0	9.10	0	8.6610	0	32.2910	0	25.050	0	9.024	0	-1e10	1	-1e10	1	-1E+10	1	0.7373	4	0.000920	0	-1E+10	1	-1E+10	1	-1E+10	1
4902624	24	C	02/16/2025	09:00	-126.233	47.806	0	9.30	0	8.6610	0	32.2910	0	25.050	0	9.222	0	259.3	4	89.9	4	-1E+10	1	0.7300	4	0.000897	0	-1E+10	1	-1E+10	1	-1E+10	1
4902624	24	C	02/16/2025	09:00	-126.233	47.806	0	9.50	0	8.6610	0	32.2910	0	25.050	0	9.420	0	-1e10	1	-1e10	1	-1E+10	1	0.7300	4	0.000932	0	-1E+10	1	-1E+10	1	-1E+10	1
4902624	24	C	02/16/2025	09:00	-126.233	47.806	0	9.70	0	8.6610	0	32.2907	0	25.050	0	9.619	0	-1e10	1	-1e10	1	-1E+10	1	0.7008	4	0.000955	0	-1E+10	1	-1E+10	1	-1E+10	1
4902624	24	C	02/16/2025	09:00	-126.233	47.806	0	10.40	0	8.6610	0	32.2899	0	25.049	0	10.313	0	259.2	4	89.9	4	-1E+10	1	0.7154	4	0.000906	0	-1E+10	1	-1E+10	1	-1E+10	1
4902624	24	C	02/16/2025	09:00	-126.233	47.806	0	11.10	0	8.6610	0	32.2890	0	25.048	0	11.007	0	-1e10	1	-1e10	1	-1E+10	1	-1e10	1	-1e10	1	-1E+10	1	-1E+10	1	-1E+10	1
4902624	24	C	02/16/2025	09:00	-126.233	47.806	0	11.50	0	8.6610	0	32.2890	0	25.048	0	11.403	0	259.1	4	89.9	4	-1E+10	1	0.7154	4	0.000826	0	-1E+10	1	-1E+10	1	-1E+10	1
4902624	24	C	02/16/2025	09:00	-126.233	47.806	0	12.80	0	8.6610	0	32.2890	0	25.048	0	12.692	0	259.2	4	89.9	4	-1E+10	1	0.7154	4	0.000867	0	-1E+10	1	-1E+10	1	-1E+10	1
4902624	24	C	02/16/2025	09:00	-126.233	47.806	0	13.10	0	8.6610	0	32.2890	0	25.048	0	12.990	0	-1e10	1	-1e10	1	-1E+10	1	-1e10	1	-1e10	1	-1E+10	1	-1E+10	1	-1E+10	1
4902624	24	C	02/16/2025	09:00	-126.233	47.806	0	13.90	0	8.6610	0	32.2890	0	25.048	0	13.783	0	259.0	4	89.8	4	-1E+10	1	0.7273	4	0.000883	0	-1E+10	1	-1E+10	1	-1E+10	1
4902624	24	C	02/16/2025	09:00	-126.233	47.806	0	15.00	0	8.6610	0	32.2890	0	25.048	0	14.874	0	-1e10	1	-1e10	1	-1E+10	1	-1e10	1	-1e10	1	-1E+10	1	-1E+10	1	-1E+10	1
4902624	24	C	02/16/2025	09:00	-126.233	47.806	0	15.10	0	8.6610	0	32.2890	0	25.048	0	14.973	0	258.9	4	89.8	4	-1E+10	1	0.7251	4	0.000877	0	-1E+10	1	-1E+10	1	-1E+10	1
4902624	24	C	02/16/2025	09:00	-126.233	47.806	0	16.40	0	8.6610	0	32.2890	0	25.048	0	16.262	0	258.8	4	89.7	4	-1E+10	1	0.7616	4	0.000867	0	-1E+10	1	-1E+10	1	-1E+10	1
4902624	24	C	02/16/2025	09:00	-126.233	47.806	0	17.00	0	8.6610	0	32.2890	0	25.048	0	16.857	0	-1e10	1	-1e10	1	-1E+10	1	-1e10	1	-1e10	1	-1E+10	1	-1E+10	1	-1E+10	1
4902624	24	C	02/16/2025	09:00	-126.233	47.806	0	17.70	0	8.6610	0	32.2887	0	25.048	0	17.551	0	258.7	4	89.7	4	-1E+10	1	0.7822	4	0.000835	0	-1E+10	1	-1E+10	1	-1E+10	1
4902624	24	C	02/16/2025	09:00	-126.233	47.806	0	19.00	0	8.6610	0	32.2880	0	25.048	0	18.840	0	258.7	4	89.7	4	-1E+10	1	0.7528	4	0.000834	0	-1E+10	1	-1E+10	1	-1E+10	1
4902624	24	C	02/16/2025	09:00	-126.233	47.806	0	20.30	0	8.6617	0	32.2880	0	25.047	0	20.129	0	258.7	4	89.7	4	-1E+10	1	0.7273	4	0.000892	0	-1E+10	1	-1E+10	1	-1E+10	1
4902624	24	C	02/16/2025	09:00	-126.233	47.806	0	20.90	0	8.6620	0	32.2880	0	25.047	0	20.724	0	-1e10	1	-1e10	1	-1E+10	1	-1e10	1	-1e10	1	-1E+10	1	-1E+10	1	-1E+10	1
4902624	24	C	02/16/2025	09:00	-126.233	47.806	0	21.60	0	8.6620	0	32.2880	0	25.047	0	21.418	0	258.6	4	89.7	4	-1E+10	1	0.7154	4	0.000920	0	-1E+10	1	-1E+10	1	-1E+10	1
4902624	24	C	02/16/2025	09:00	-126.233	47.806	0	22.90	0	8.6620	0	32.2880	0	25.047	0	22.707	0	258.4	4	89.6	4	-1E+10	1	0.7957	4	0.000920	0	-1E+10	1	-1E+10	1	-1E+10	1
4902624	24	C	02/16/2025	09:00	-126.233	47.806	0	23.00	0	8.6620	0	32.2880	0	25.047	0	22.806	0	-1e10	1	-1e10	1	-1E+10	1	-1e10	1	-1e10	1	-1E+10	1	-1E+10	1	-1E+10	1
4902624	24	C	02/16/2025	09:00	-126.233	47.806	0	24.20	0	8.6620	0	32.2880	0	25.048	0	23.996	0	258.4	4	89.6	4	-1E+10	1	0.7720	4	0.000844	0	-1E+10	1	-1E+10	1	-1E+10	1
4902624	24	C	02/16/2025	09:00	-126.233	47.806	0	25.00	0	8.6620	0	32.2880	0	25.048	0	24.789	0	-1e10	1	-1e10	1	-1E+10	1	-1e10	1	-1e10	1	-1E+10	1	-1E+10	1	-1E+10	1
4902624	24	C	02/16/2025	09:00	-126.233	47.806	0	25.60	0	8.6620	0	32.2880	0	25.048	0	25.384	0	258.3	4	89.6	4	-1E+10	1	0.7615	4	0.000826	0	-1E+10	1	-1E+10	1	-1E+10	1
4902624	24	C	02/16/2025	09:00	-126.233	47.806	0	26.90	0	8.6620	0	32.2880	0	25.048	0	26.673	0	-1e10	1	-1e10	1	-1E+10	1	-1e10	1	-1e10	1	-1E+10	1	-1E+10	1	-1E+10	1
4902624	24	C	02/16/2025	09:00	-126.233	47.806	0	27.00	0	8.6620	0	32.2880	0	25.048	0	26.772	0	258.1	4	89.5	4	-1E+10	1	0.7921	4	0.000856	0	-1E+10	1	-1E+10	1	-1E+10	1
4902624	24	C	02/16/2025	09:00	-126.233	47.806	0	28.30	0	8.6620	0	32.2880	0	25.048	0	28.061	0	258.0	4	89.5	4	-1E+10	1	0.8034	4	0.000862	0	-1E+10	1	-1E+10	1	-1E+10	1
4902624	24	C	02/16/2025	09:00	-126.233	47.806	0	29.00	0	8.6620	0	32.2880	0	25.048	0	28.755	0	-1e10	1	-1e10	1	-1E+10	1	-1e10	1	-1e10	1	-1E+10	1	-1E+10	1	-1E+10	1
4902624	24	C	02/16/2025	09:00	-126.233	47.806	0	29.70	0	8.6623	0	32.2880	0	25.048	0	29.449	0	258.0	4	89.5	4	-1E+10	1	0.8254	4	0.000839	0	-1E+10	1	-1E+10	1	-1E+10	1
4902624	24	C	02/16/2025	09:00	-126.233	47.806	0	31.10	0	8.6630	0	32.2880	0	25.047	0	30.837	0	257.9	4	89.5	4	-1E+10	1	0.8624	4	0.000817	0	-1E+10	1	-1E+10	1	-1E+10	1
4902624	24	C	02/16/2025	09:00	-126.233	47.806	0	32.40	0	8.6630	0	32.2880	0	25.047	0	32.126	0	257.7	4	89.4	4	-1E+10	1	0.7647	4	0.000829	0	-1E+10	1	-1E+10	1	-1E+10	1
4902624	24	C	02/16/2025	09:00	-126.233	47.806	0	33.00	0	8.6630	0	32.2880	0	25.047	0	32.721	0	-1e10	1	-1e10	1	-1E+10	1	-1e10	1	-1e10	1	-1E+10	1	-1E+10	1	-1E+10	1
4902624	24	C	02/16/2025	09:00	-126.233	47.806	0	33.80	0	8.6630	0	32.2880	0	25.048	0	33.514	0	257.6	4	89.3	4	-1E+10	1	0.8030	4	0.000850	0	-1E+10	1	-1E+10	1	-1E+10	1
4902624	24	C	02/16/2025	09:00	-126.233	47.806	0	35.00	0	8.6630	0	32.2880	0	25.048	0	34.704	0	-1e10	1	-1e10	1	-1E+10	1	-1e10	1	-1e10	1	-1E+10	1	-1E+10	1	-1E+10	1
4902624	24	C	02/16/2025	09:00	-126.233	47.806	0	35.10	0	8.6630	0	32.2880	0	25.048	0	34.803	0	257.4	4	89.3	4	-1E+10	1	0.7911	4	0.000897	0	-1E+10	1	-1E+10	1	-1E+10	1
4902624	24	C	02/16/2025	09:00	-126.233	47.806	0	36.50	0	8.6630	0	32.2880	0	25.048	0	36.191	0	257.2	4	89.2	4	-1E+10	1	0.7827	4	0.000835	0	-1E+10	1	-1E+10	1	-1E+10	1
4902624	24	C	02/16/2025	09:00	-126.233	47.806	0	37.00	0	8.6630	0	32.2880	0	25.048	0	36.687	0	-1e10	1	-1e10	1	-1E+10	1	-1e10	1	-1e10	1	-1E+10	1	-1E+10	1	-1E+10	1
4902624	24	C	02/16/2025	09:00	-126.233	47.806	0	37.80	0	8.6630	0	32.2880	0	25.048	0	37.480	0	257.0	4	89.1	4	-1E+10	1	0.7948	4	0.000844	0	-1E+10	1	-1E+10	1	-1E+10	1
4902624	24	C	02/16/2025	09:00	-126.233	47.806	0	38.90	0	8.6630	0	32.2880	0	25.048	0	38.571	0	-1e10	1	-1e10	1	-1E+10	1	-1e10	1	-1e10	1	-1E+10	1	-1E+10	1	-1E+10	1
4902624	24	C	02/16/2025	09:00	-126.233	47.806	0	39.20	0	8.6630	0	32.2880	0	25.048	0	38.868	0	256.8	4	89.1	4	-1E+10	1	0.7884	4	0.000844	0	-1E+10	1	-1E+10	1	-1E+10	1
4902624	24	C	02/16/2025	09:00	-126.233	47.806	0	40.60	0	8.6630	0	32.2880	0	25.048	0	40.256	0	256.6	4	89.0	4	-1E+10	1	0.7894	4	0.000846	0	-1E+10	1	-1E+10	1	-1E+10	1
4902624	24	C	02/16/2025	09:00	-126.233	47.806	0	41.00	0	8.6630	0	32.2880	0	25.048	0	40.653	0	-1e10	1	-1e10	1	-1E+10	1	-1e10	1	-1e10	1	-1E+10	1	-1E+10	1	-1E+10	1
4902624	24	C	02/16/2025	09:00	-126.233	47.806	0	42.00	0	8.6635	0	32.2885	0	25.048	0	41.644	0	256.3	4	88.9	4	-1E+10	1	0.8259	4	0.000863	0	-1E+10	1	-1E+10	1	-1E+10	1
4902624	24	C	02/16/2025	09:00	-126.233	47.806	0	43.10	0	8.6640	0	32.2890	0	25.048	0	42.735	0	-1e10	1	-1e10	1	-1E+10	1	-1e10	1	-1e10	1	-1E+10	1	-1E+10	1	-1E+10	1
4902624	24	C	02/16/2025	09:00	-126.233	47.806	0	43.40	0	8.6640	0	32.2890	0	25.048	0	43.032	0	256.1	4	88.8	4	-1E+10	1	0.8276	4	0.000836	0	-1E+10	1	-1E+10	1	-1E+10	1
4902624	24	C	02/16/2025	09:00	-126.233	47.806	0	44.70	0	8.6640	0	32.2890	0	25.048	0	44.321	0	255.9	4	88.7	4	-1E+10	1	0.7973	4	0.000824	0	-1E+10	1	-1E+10	1	-1E+10	1
4902624	24	C	02/16/2025	09:00	-126.233	47.806	0	45.00	0	8.6640	0	32.2890	0	25.048	0	44.618	0	-1e10	1	-1e10	1	-1E+10	1	-1e10	1	-1e10	1	-1E+10	1	-1E+10	1	-1E+10	1
4902624	24	C	02/16/2025	09:00	-126.233	47.806	0	46.10	0	8.6640	0	32.2896	0	25.049	0	45.709	0	255.6	4	88.6	4	-1E+10	1	0.8030	4	0.000855	0	-1E+10	1	-1E+10	1	-1E+10	1
4902624	24	C	02/16/2025	09:00	-126.233	47.806	0	46.90	0	8.6640	0	32.2900	0	25.049	0	46.502	0	-1e10	1	-1e10	1	-1E+10	1	-1e10	1	-1e10	1	-1E+10	1	-1E+10	1	-1E+10	1
4902624	24	C	02/16/2025	09:00	-126.233	47.806	0	47.50	0	8.6640	0	32.2903	0	25.049	0	47.097	0	255.2	4	88.5	4	-1E+10	1	0.8030	4	0.000826	0	-1E+10	1	-1E+10	1	-1E+10	1
4902624	24	C	02/16/2025	09:00	-126.233	47.806	0	48.90	0	8.6640	0	32.2910	0	25.050	0	48.485	0	254.9	4	88.4	4	-1E+10	1	0.7369	4	0.000874	0	-1E+10	1	-1E+10	1	-1E+10	1
4902624	24	C	02/16/2025	09:00	-126.233	47.806	0	49.00	0	8.6640	0	32.2910	0	25.050	0	48.584	0	-1e10	1	-1e10	1	-1E+10	1	-1e10	1	-1e10	1	-1E+10	1	-1E+10	1	-1E+10	1
4902624	24	C	02/16/2025	09:00	-126.233	47.806	0	50.20	0	8.6640	0	32.2921	0	25.051	0	49.774	0	254.5	4	88.3	4	-1E+10	1	0.8013	4	0.000957	0	-1E+10	1	-1E+10	1	-1E+10	1
4902624	24	C	02/16/2025	09:00	-126.233	47.806	0	51.10	0	8.6640	0	32.2930	0	25.052	0	50.666	0	-1e10	1	-1e10	1	-1E+10	1	-1e10	1	-1e10	1	-1E+10	1	-1E+10	1	-1E+10	1
4902624	24	C	02/16/2025	09:00	-126.233	47.806	0	51.60	0	8.6640	0	32.2930	0	25.052	0	51.162	0	254.0	4	88.1	4	-1E+10	1	0.8060	4	0.000925	0	-1E+10	1	-1E+10	1	-1E+10	1
4902624	24	C	02/16/2025	09:00	-126.233	47.806	0	53.00	0	8.6640	0	32.2930	0	25.052	0	52.549	0	253.7	4	88.0	4	-1E+10	1	0.8163	4	0.000908	0	-1E+10	1	-1E+10	1	-1E+10	1
4902624	24	C	02/16/2025	09:00	-126.233	47.806	0	54.40	0	8.6640	0	32.2944	0	25.053	0	53.937	0	253.0	4	87.8	4	-1E+10	1	0.8030	4	0.000888	0	-1E+10	1	-1E+10	1	-1E+10	1
4902624	24	C	02/16/2025	09:00	-126.233	47.806	0	55.00	0	8.6640	0	32.2950	0	25.053	0	54.532	0	-1e10	1	-1e10	1	-1E+10	1	-1e10	1	-1e10	1	-1E+10	1	-1E+10	1	-1E+10	1
4902624	24	C	02/16/2025	09:00	-126.233	47.806	0	55.80	0	8.6640	0	32.2954	0	25.054	0	55.325	0	252.4	4	87.5	4	-1E+10	1	0.7498	4	0.000830	0	-1E+10	1	-1E+10	1	-1E+10	1
4902624	24	C	02/16/2025	09:00	-126.233	47.806	0	56.90	0	8.6640	0	32.2960	0	25.054	0	56.416	0	-1e10	1	-1e10	1	-1E+10	1	-1e10	1	-1e10	1	-1E+10	1	-1E+10	1	-1E+10	1
4902624	24	C	02/16/2025	09:00	-126.233	47.806	0	57.20	0	8.6640	0	32.2961	0	25.054	0	56.713	0	251.5	4	87.2	4	-1E+10	1	0.7644	4	0.000815	0	-1E+10	1	-1E+10	1	-1E+10	1
4902624	24	C	02/16/2025	09:00	-126.233	47.806	0	58.60	0	8.6640	0	32.2968	0	25.055	0	58.101	0	250.7	4	87.0	4	-1E+10	1	0.7884	4	0.000814	0	-1E+10	1	-1E+10	1	-1E+10	1
4902624	24	C	02/16/2025	09:00	-126.233	47.806	0	59.00	0	8.6640	0	32.2970	0	25.055	0	58.498	0	-1e10	1	-1e10	1	-1E+10	1	-1e10	1	-1e10	1	-1E+10	1	-1E+10	1	-1E+10	1
4902624	24	C	02/16/2025	09:00	-126.233	47.806	0	60.00	0	8.6640	0	32.2970	0	25.055	0	59.489	0	249.7	4	86.6	4	-1E+10	1	0.7884	4	0.000803	0	-1E+10	1	-1E+10	1	-1E+10	1
4902624	24	C	02/16/2025	09:00	-126.233	47.806	0	61.10	0	8.6640	0	32.2970	0	25.055	0	60.579	0	-1e10	1	-1e10	1	-1E+10	1	-1e10	1	-1e10	1	-1E+10	1	-1E+10	1	-1E+10	1
4902624	24	C	02/16/2025	09:00	-126.233	47.806	0	61.40	0	8.6641	0	32.2975	0	25.055	0	60.877	0	248.7	4	86.3	4	-1E+10	1	0.8004	4	0.000880	0	-1E+10	1	-1E+10	1	-1E+10	1
4902624	24	C	02/16/2025	09:00	-126.233	47.806	0	62.70	0	8.6648	0	32.2994	0	25.057	0	62.166	0	247.5	4	85.8	4	-1E+10	1	0.8079	4	0.000857	0	-1E+10	1	-1E+10	1	-1E+10	1
4902624	24	C	02/16/2025	09:00	-126.233	47.806	0	63.10	0	8.6650	0	32.3000	0	25.057	0	62.562	0	-1e10	1	-1e10	1	-1E+10	1	-1e10	1	-1e10	1	-1E+10	1	-1E+10	1	-1E+10	1
4902624	24	C	02/16/2025	09:00	-126.233	47.806	0	64.00	0	8.6655	0	32.3018	0	25.058	0	63.454	0	246.3	4	85.4	4	-1E+10	1	0.7714	4	0.000846	0	-1E+10	1	-1E+10	1	-1E+10	1
4902624	24	C	02/16/2025	09:00	-126.233	47.806	0	65.00	0	8.6660	0	32.3038	0	25.060	0	64.446	0	245.0	4	85.0	4	-1E+10	1	0.7687	4	0.000839	0	-1E+10	1	-1E+10	1	-1E+10	1
4902624	24	C	02/16/2025	09:00	-126.233	47.806	0	65.10	0	8.6660	0	32.3040	0	25.060	0	64.545	0	-1e10	1	-1e10	1	-1E+10	1	-1e10	1	-1e10	1	-1E+10	1	-1E+10	1	-1E+10	1
4902624	24	C	02/16/2025	09:00	-126.233	47.806	0	66.00	0	8.6665	0	32.3050	0	25.061	0	65.437	0	243.6	4	84.5	4	-1E+10	1	0.7864	4	0.000823	0	-1E+10	1	-1E+10	1	-1E+10	1
4902624	24	C	02/16/2025	09:00	-126.233	47.806	0	66.90	0	8.6670	0	32.3060	0	25.062	0	66.329	0	-1e10	1	-1e10	1	-1E+10	1	-1e10	1	-1e10	1	-1E+10	1	-1E+10	1	-1E+10	1
4902624	24	C	02/16/2025	09:00	-126.233	47.806	0	67.00	0	8.6671	0	32.3060	0	25.062	0	66.428	0	242.0	4	84.0	4	-1E+10	1	0.7826	4	0.000824	0	-1E+10	1	-1E+10	1	-1E+10	1
4902624	24	C	02/16/2025	09:00	-126.233	47.806	0	68.00	0	8.6680	0	32.3065	0	25.062	0	67.419	0	240.3	4	83.4	4	-1E+10	1	0.7787	4	0.000851	0	-1E+10	1	-1E+10	1	-1E+10	1
4902624	24	C	02/16/2025	09:00	-126.233	47.806	0	69.00	0	8.6690	0	32.3070	0	25.062	0	68.411	0	238.8	4	82.8	4	-1E+10	1	0.7300	4	0.000803	0	-1E+10	1	-1E+10	1	-1E+10	1
4902624	24	C	02/16/2025	09:00	-126.233	47.806	0	70.00	0	8.6700	0	32.3085	0	25.063	0	69.402	0	236.6	4	82.1	4	-1E+10	1	0.7057	4	0.000842	0	-1E+10	1	-1E+10	1	-1E+10	1
4902624	24	C	02/16/2025	09:00	-126.233	47.806	0	70.90	0	8.6709	0	32.3099	0	25.064	0	70.294	0	234.3	4	81.3	4	-1E+10	1	0.7008	4	0.000840	0	-1E+10	1	-1E+10	1	-1E+10	1
4902624	24	C	02/16/2025	09:00	-126.233	47.806	0	71.00	0	8.6710	0	32.3100	0	25.064	0	70.393	0	-1e10	1	-1e10	1	-1E+10	1	-1e10	1	-1e10	1	-1E+10	1	-1E+10	1	-1E+10	1
4902624	24	C	02/16/2025	09:00	-126.233	47.806	0	71.80	0	8.6726	0	32.3108	0	25.064	0	71.186	0	231.4	4	80.3	4	-1E+10	1	0.6906	4	0.000838	0	-1E+10	1	-1E+10	1	-1E+10	1
4902624	24	C	02/16/2025	09:00	-126.233	47.806	0	72.60	0	8.6742	0	32.3116	0	25.065	0	71.979	0	227.9	4	79.1	4	-1E+10	1	0.6862	4	0.000820	0	-1E+10	1	-1E+10	1	-1E+10	1
4902624	24	C	02/16/2025	09:00	-126.233	47.806	0	73.00	0	8.6750	0	32.3120	0	25.065	0	72.376	0	-1e10	1	-1e10	1	-1E+10	1	-1e10	1	-1e10	1	-1E+10	1	-1E+10	1	-1E+10	1
4902624	24	C	02/16/2025	09:00	-126.233	47.806	0	73.40	0	8.6794	0	32.3210	0	25.071	0	72.772	0	224.0	4	77.7	4	-1E+10	1	0.6698	4	0.000807	0	-1E+10	1	-1E+10	1	-1E+10	1
4902624	24	C	02/16/2025	09:00	-126.233	47.806	0	74.10	0	8.6871	0	32.3368	0	25.083	0	73.466	0	219.9	4	76.3	4	-1E+10	1	0.6299	4	0.000801	0	-1E+10	1	-1E+10	1	-1E+10	1
4902624	24	C	02/16/2025	09:00	-126.233	47.806	0	74.70	0	8.6937	0	32.3503	0	25.092	0	74.061	0	216.0	4	75.0	4	-1E+10	1	0.6015	4	0.000739	0	-1E+10	1	-1E+10	1	-1E+10	1
4902624	24	C	02/16/2025	09:00	-126.233	47.806	0	75.00	0	8.6970	0	32.3570	0	25.097	0	74.358	0	-1e10	1	-1e10	1	-1E+10	1	-1e10	1	-1e10	1	-1E+10	1	-1E+10	1	-1E+10	1
4902624	24	C	02/16/2025	09:00	-126.233	47.806	0	75.10	0	8.6984	0	32.3634	0	25.102	0	74.458	0	212.3	4	73.7	4	-1E+10	1	0.6132	4	0.000627	0	-1E+10	1	-1E+10	1	-1E+10	1
4902624	24	C	02/16/2025	09:00	-126.233	47.806	0	75.40	0	8.7025	0	32.3825	0	25.116	0	74.755	0	208.1	4	72.3	4	-1E+10	1	0.5840	4	0.000767	0	-1E+10	1	-1E+10	1	-1E+10	1
4902624	24	C	02/16/2025	09:00	-126.233	47.806	0	75.80	0	8.7080	0	32.4080	0	25.135	0	75.151	0	204.0	4	70.9	4	-1E+10	1	0.5373	4	0.000664	0	-1E+10	1	-1E+10	1	-1E+10	1
4902624	24	C	02/16/2025	09:00	-126.233	47.806	0	76.20	0	8.7136	0	32.4336	0	25.155	0	75.548	0	199.6	4	69.4	4	-1E+10	1	0.4982	4	0.000673	0	-1E+10	1	-1E+10	1	-1E+10	1
4902624	24	C	02/16/2025	09:00	-126.233	47.806	0	76.60	0	8.7191	0	32.4591	0	25.174	0	75.944	0	195.2	4	67.9	4	-1E+10	1	0.4453	4	0.000668	0	-1E+10	1	-1E+10	1	-1E+10	1
4902624	24	C	02/16/2025	09:00	-126.233	47.806	0	77.00	0	8.7246	0	32.4846	0	25.193	0	76.341	0	190.4	4	66.2	4	-1E+10	1	0.4044	4	0.000605	0	-1E+10	1	-1E+10	1	-1E+10	1
4902624	24	C	02/16/2025	09:00	-126.233	47.806	0	77.10	0	8.7260	0	32.4910	0	25.198	0	76.440	0	-1e10	1	-1e10	1	-1E+10	1	-1e10	1	-1e10	1	-1E+10	1	-1E+10	1	-1E+10	1
4902624	24	C	02/16/2025	09:00	-126.233	47.806	0	77.50	0	8.7367	0	32.5205	0	25.219	0	76.837	0	185.7	4	64.6	4	-1E+10	1	0.3723	4	0.000550	0	-1E+10	1	-1E+10	1	-1E+10	1
4902624	24	C	02/16/2025	09:00	-126.233	47.806	0	78.00	0	8.7502	0	32.5573	0	25.246	0	77.332	0	180.3	4	62.8	4	-1E+10	1	0.3090	4	0.000482	0	-1E+10	1	-1E+10	1	-1E+10	1
4902624	24	C	02/16/2025	09:00	-126.233	47.806	0	78.70	0	8.7689	0	32.6089	0	25.283	0	78.026	0	173.4	4	60.4	4	-1E+10	1	0.1874	4	0.000376	0	-1E+10	1	-1E+10	1	-1E+10	1
4902624	24	C	02/16/2025	09:00	-126.233	47.806	0	79.00	0	8.7770	0	32.6310	0	25.299	0	78.323	0	-1e10	1	-1e10	1	-1E+10	1	-1e10	1	-1e10	1	-1E+10	1	-1E+10	1	-1E+10	1
4902624	24	C	02/16/2025	09:00	-126.233	47.806	0	79.40	0	8.7296	0	32.6808	0	25.346	0	78.720	0	169.7	4	59.1	4	-1E+10	1	0.1371	4	0.000364	0	-1E+10	1	-1E+10	1	-1E+10	1
4902624	24	C	02/16/2025	09:00	-126.233	47.806	0	80.20	0	8.6348	0	32.7804	0	25.438	0	79.513	0	167.0	4	58.1	4	-1E+10	1	0.1241	4	0.000333	0	-1E+10	1	-1E+10	1	-1E+10	1
4902624	24	C	02/16/2025	09:00	-126.233	47.806	0	81.00	0	8.5400	0	32.8800	0	25.531	0	80.306	0	163.9	4	56.9	4	-1E+10	1	0.1168	4	0.000344	0	-1E+10	1	-1E+10	1	-1E+10	1
4902624	24	C	02/16/2025	09:00	-126.233	47.806	0	81.80	0	8.4692	0	32.9208	0	25.573	0	81.099	0	162.4	4	56.3	4	-1E+10	1	0.1168	4	0.000420	0	-1E+10	1	-1E+10	1	-1E+10	1
4902624	24	C	02/16/2025	09:00	-126.233	47.806	0	82.70	0	8.3896	0	32.9667	0	25.621	0	81.991	0	160.1	4	55.5	4	-1E+10	1	0.1117	4	0.000479	0	-1E+10	1	-1E+10	1	-1E+10	1
4902624	24	C	02/16/2025	09:00	-126.233	47.806	0	83.00	0	8.3630	0	32.9820	0	25.637	0	82.288	0	-1e10	1	-1e10	1	-1E+10	1	-1e10	1	-1e10	1	-1E+10	1	-1E+10	1	-1E+10	1
4902624	24	C	02/16/2025	09:00	-126.233	47.806	0	83.50	0	8.3173	0	33.0120	0	25.668	0	82.784	0	157.5	4	54.5	4	-1E+10	1	0.1014	4	0.000419	0	-1E+10	1	-1E+10	1	-1E+10	1
4902624	24	C	02/16/2025	09:00	-126.233	47.806	0	84.40	0	8.2350	0	33.0660	0	25.722	0	83.676	0	155.7	4	53.8	4	-1E+10	1	0.0949	4	0.000345	0	-1E+10	1	-1E+10	1	-1E+10	1
4902624	24	C	02/16/2025	09:00	-126.233	47.806	0	85.10	0	8.1710	0	33.1080	0	25.765	0	84.370	0	-1e10	1	-1e10	1	-1E+10	1	-1e10	1	-1e10	1	-1E+10	1	-1E+10	1	-1E+10	1
4902624	24	C	02/16/2025	09:00	-126.233	47.806	0	85.30	0	8.1623	0	33.1137	0	25.770	0	84.568	0	154.2	4	53.2	4	-1E+10	1	0.0949	4	0.000338	0	-1E+10	1	-1E+10	1	-1E+10	1
4902624	24	C	02/16/2025	09:00	-126.233	47.806	0	86.10	0	8.1273	0	33.1364	0	25.793	0	85.361	0	152.4	4	52.6	4	-1E+10	1	0.0931	4	0.000339	0	-1E+10	1	-1E+10	1	-1E+10	1
4902624	24	C	02/16/2025	09:00	-126.233	47.806	0	86.90	0	8.0924	0	33.1592	0	25.816	0	86.154	0	150.4	4	51.8	4	-1E+10	1	0.0876	4	0.000319	0	-1E+10	1	-1E+10	1	-1E+10	1
4902624	24	C	02/16/2025	09:00	-126.233	47.806	0	87.00	0	8.0880	0	33.1620	0	25.819	0	86.253	0	-1e10	1	-1e10	1	-1E+10	1	-1e10	1	-1e10	1	-1E+10	1	-1E+10	1	-1E+10	1
4902624	24	C	02/16/2025	09:00	-126.233	47.806	0	87.80	0	8.0297	0	33.2009	0	25.858	0	87.046	0	148.2	4	51.0	4	-1E+10	1	0.0876	4	0.000310	0	-1E+10	1	-1E+10	1	-1E+10	1
4902624	24	C	02/16/2025	09:00	-126.233	47.806	0	88.70	0	7.9641	0	33.2446	0	25.902	0	87.938	0	146.7	4	50.5	4	-1E+10	1	0.0810	4	0.000289	0	-1E+10	1	-1E+10	1	-1E+10	1
4902624	24	C	02/16/2025	09:00	-126.233	47.806	0	89.10	0	7.9350	0	33.2640	0	25.922	0	88.335	0	-1e10	1	-1e10	1	-1E+10	1	-1e10	1	-1e10	1	-1E+10	1	-1E+10	1	-1E+10	1
4902624	24	C	02/16/2025	09:00	-126.233	47.806	0	89.60	0	7.9168	0	33.2798	0	25.937	0	88.830	0	145.5	4	50.0	4	-1E+10	1	0.0745	4	0.000296	0	-1E+10	1	-1E+10	1	-1E+10	1
4902624	24	C	02/16/2025	09:00	-126.233	47.806	0	90.50	0	7.8842	0	33.3082	0	25.964	0	89.722	0	144.6	4	49.7	4	-1E+10	1	0.0869	4	0.000283	0	-1E+10	1	-1E+10	1	-1E+10	1
4902624	24	C	02/16/2025	09:00	-126.233	47.806	0	91.00	0	7.8660	0	33.3240	0	25.979	0	90.218	0	-1e10	1	-1e10	1	-1E+10	1	-1e10	1	-1e10	1	-1E+10	1	-1E+10	1	-1E+10	1
4902624	24	C	02/16/2025	09:00	-126.233	47.806	0	91.40	0	7.8616	0	33.3354	0	25.988	0	90.615	0	143.9	4	49.4	4	-1E+10	1	0.0816	4	0.000312	0	-1E+10	1	-1E+10	1	-1E+10	1
4902624	24	C	02/16/2025	09:00	-126.233	47.806	0	92.30	0	7.8517	0	33.3610	0	26.010	0	91.507	0	143.3	4	49.2	4	-1E+10	1	0.0657	4	0.000333	0	-1E+10	1	-1E+10	1	-1E+10	1
4902624	24	C	02/16/2025	09:00	-126.233	47.806	0	93.00	0	7.8440	0	33.3810	0	26.027	0	92.200	0	-1e10	1	-1e10	1	-1E+10	1	-1e10	1	-1e10	1	-1E+10	1	-1E+10	1	-1E+10	1
4902624	24	C	02/16/2025	09:00	-126.233	47.806	0	93.30	0	7.8426	0	33.3916	0	26.035	0	92.498	0	142.8	4	49.0	4	-1E+10	1	0.0604	4	0.000286	0	-1E+10	1	-1E+10	1	-1E+10	1
4902624	24	C	02/16/2025	09:00	-126.233	47.806	0	94.20	0	7.8383	0	33.4233	0	26.061	0	93.390	0	142.3	4	48.8	4	-1E+10	1	0.0511	4	0.000288	0	-1E+10	1	-1E+10	1	-1E+10	1
4902624	24	C	02/16/2025	09:00	-126.233	47.806	0	95.10	0	7.8340	0	33.4550	0	26.086	0	94.282	0	-1e10	1	-1e10	1	-1E+10	1	-1e10	1	-1e10	1	-1E+10	1	-1E+10	1	-1E+10	1
4902624	24	C	02/16/2025	09:00	-126.233	47.806	0	95.20	0	7.8355	0	33.4589	0	26.089	0	94.381	0	141.7	4	48.6	4	-1E+10	1	0.0511	4	0.000298	0	-1E+10	1	-1E+10	1	-1E+10	1
4902624	24	C	02/16/2025	09:00	-126.233	47.806	0	96.10	0	7.8485	0	33.4935	0	26.115	0	95.273	0	140.9	4	48.4	4	-1E+10	1	0.0511	4	0.000310	0	-1E+10	1	-1E+10	1	-1E+10	1
4902624	24	C	02/16/2025	09:00	-126.233	47.806	0	97.10	0	7.8630	0	33.5320	0	26.143	0	96.264	0	138.8	4	47.7	4	-1E+10	1	0.0567	4	0.000283	0	-1E+10	1	-1E+10	1	-1E+10	1
4902624	24	C	02/16/2025	09:00	-126.233	47.806	0	98.20	0	7.8497	0	33.5598	0	26.166	0	97.355	0	139.4	4	47.9	4	-1E+10	1	0.0535	4	0.000313	0	-1E+10	1	-1E+10	1	-1E+10	1
4902624	24	C	02/16/2025	09:00	-126.233	47.806	0	99.00	0	7.8400	0	33.5800	0	26.184	0	98.147	0	-1e10	1	-1e10	1	-1E+10	1	-1e10	1	-1e10	1	-1E+10	1	-1E+10	1	-1E+10	1
4902624	24	C	02/16/2025	09:00	-126.233	47.806	0	99.20	0	7.8402	0	33.5812	0	26.185	0	98.346	0	138.8	4	47.7	4	-1E+10	1	0.0555	4	0.000453	0	-1E+10	1	-1E+10	1	-1E+10	1
4902624	24	C	02/16/2025	09:00	-126.233	47.806	0	100.20	0	7.8413	0	33.5869	0	26.189	0	99.337	0	138.0	4	47.5	4	-1E+10	1	0.0584	4	0.000480	0	-1E+10	1	-1E+10	1	-1E+10	1
4902624	24	C	02/16/2025	09:00	-126.233	47.806	0	100.90	0	7.8420	0	33.5910	0	26.192	0	100.031	0	-1e10	1	-1e10	1	-1E+10	1	-1e10	1	-1e10	1	-1E+10	1	-1E+10	1	-1E+10	1
4902624	24	C	02/16/2025	09:00	-126.233	47.806	0	101.30	0	7.8374	0	33.5954	0	26.196	0	100.427	0	137.2	4	47.2	4	-1E+10	1	0.0584	4	0.000373	0	-1E+10	1	-1E+10	1	-1E+10	1
4902624	24	C	02/16/2025	09:00	-126.233	47.806	0	102.30	0	7.8260	0	33.6063	0	26.206	0	101.418	0	136.5	4	46.9	4	-1E+10	1	0.0568	4	0.000291	0	-1E+10	1	-1E+10	1	-1E+10	1
4902624	24	C	02/16/2025	09:00	-126.233	47.806	0	103.00	0	7.8180	0	33.6140	0	26.214	0	102.112	0	-1e10	1	-1e10	1	-1E+10	1	-1e10	1	-1e10	1	-1E+10	1	-1E+10	1	-1E+10	1
4902624	24	C	02/16/2025	09:00	-126.233	47.806	0	103.20	0	7.8168	0	33.6164	0	26.216	0	102.310	0	136.0	4	46.7	4	-1E+10	1	0.0495	4	0.000307	0	-1E+10	1	-1E+10	1	-1E+10	1
4902624	24	C	02/16/2025	09:00	-126.233	47.806	0	103.90	0	7.8126	0	33.6248	0	26.223	0	103.004	0	135.5	4	46.6	4	-1E+10	1	0.0438	4	0.000310	0	-1E+10	1	-1E+10	1	-1E+10	1
4902624	24	C	02/16/2025	09:00	-126.233	47.806	0	104.60	0	7.8084	0	33.6332	0	26.230	0	103.698	0	135.1	4	46.4	4	-1E+10	1	0.0566	4	0.000279	0	-1E+10	1	-1E+10	1	-1E+10	1
4902624	24	C	02/16/2025	09:00	-126.233	47.806	0	105.00	0	7.8060	0	33.6380	0	26.234	0	104.094	0	-1e10	1	-1e10	1	-1E+10	1	-1e10	1	-1e10	1	-1E+10	1	-1E+10	1	-1E+10	1
4902624	24	C	02/16/2025	09:00	-126.233	47.806	0	105.20	0	7.8031	0	33.6413	0	26.237	0	104.292	0	134.7	4	46.3	4	-1E+10	1	0.0532	4	0.000341	0	-1E+10	1	-1E+10	1	-1E+10	1
4902624	24	C	02/16/2025	09:00	-126.233	47.806	0	105.90	0	7.7930	0	33.6529	0	26.248	0	104.986	0	134.5	4	46.2	4	-1E+10	1	0.0511	4	0.000354	0	-1E+10	1	-1E+10	1	-1E+10	1
4902624	24	C	02/16/2025	09:00	-126.233	47.806	0	106.70	0	7.7814	0	33.6660	0	26.260	0	105.779	0	134.3	4	46.1	4	-1E+10	1	0.0592	4	0.000325	0	-1E+10	1	-1E+10	1	-1E+10	1
4902624	24	C	02/16/2025	09:00	-126.233	47.806	0	107.00	0	7.7770	0	33.6710	0	26.264	0	106.076	0	-1e10	1	-1e10	1	-1E+10	1	-1e10	1	-1e10	1	-1E+10	1	-1E+10	1	-1E+10	1
4902624	24	C	02/16/2025	09:00	-126.233	47.806	0	107.40	0	7.7744	0	33.6718	0	26.265	0	106.473	0	134.1	4	46.1	4	-1E+10	1	0.0594	4	0.000310	0	-1E+10	1	-1E+10	1	-1E+10	1
4902624	24	C	02/16/2025	09:00	-126.233	47.806	0	108.10	0	7.7698	0	33.6732	0	26.267	0	107.167	0	133.9	4	46.0	4	-1E+10	1	0.0560	4	0.000317	0	-1E+10	1	-1E+10	1	-1E+10	1
4902624	24	C	02/16/2025	09:00	-126.233	47.806	0	108.90	0	7.7646	0	33.6748	0	26.269	0	107.960	0	133.8	4	45.9	4	-1E+10	1	0.0576	4	0.000330	0	-1E+10	1	-1E+10	1	-1E+10	1
4902624	24	C	02/16/2025	09:00	-126.233	47.806	0	109.00	0	7.7640	0	33.6750	0	26.270	0	108.059	0	-1e10	1	-1e10	1	-1E+10	1	-1e10	1	-1e10	1	-1E+10	1	-1E+10	1	-1E+10	1
4902624	24	C	02/16/2025	09:00	-126.233	47.806	0	109.60	0	7.7517	0	33.6788	0	26.274	0	108.653	0	133.6	4	45.9	4	-1E+10	1	0.0292	4	0.000321	0	-1E+10	1	-1E+10	1	-1E+10	1
4902624	24	C	02/16/2025	09:00	-126.233	47.806	0	110.40	0	7.7353	0	33.6838	0	26.281	0	109.446	0	133.5	4	45.8	4	-1E+10	1	0.0438	4	0.000309	0	-1E+10	1	-1E+10	1	-1E+10	1
4902624	24	C	02/16/2025	09:00	-126.233	47.806	0	110.90	0	7.7250	0	33.6870	0	26.285	0	109.942	0	-1e10	1	-1e10	1	-1E+10	1	-1e10	1	-1e10	1	-1E+10	1	-1E+10	1	-1E+10	1
4902624	24	C	02/16/2025	09:00	-126.233	47.806	0	111.20	0	7.7183	0	33.6886	0	26.287	0	110.239	0	133.1	4	45.7	4	-1E+10	1	0.0438	4	0.000319	0	-1E+10	1	-1E+10	1	-1E+10	1
4902624	24	C	02/16/2025	09:00	-126.233	47.806	0	112.00	0	7.7004	0	33.6928	0	26.293	0	111.032	0	132.8	4	45.5	4	-1E+10	1	0.0438	4	0.000313	0	-1E+10	1	-1E+10	1	-1E+10	1
4902624	24	C	02/16/2025	09:00	-126.233	47.806	0	112.90	0	7.6802	0	33.6975	0	26.299	0	111.924	0	132.5	4	45.4	4	-1E+10	1	0.0487	4	0.000302	0	-1E+10	1	-1E+10	1	-1E+10	1
4902624	24	C	02/16/2025	09:00	-126.233	47.806	0	113.00	0	7.6780	0	33.6980	0	26.300	0	112.023	0	-1e10	1	-1e10	1	-1E+10	1	-1e10	1	-1e10	1	-1E+10	1	-1E+10	1	-1E+10	1
4902624	24	C	02/16/2025	09:00	-126.233	47.806	0	113.70	0	7.6714	0	33.7005	0	26.303	0	112.717	0	132.2	4	45.3	4	-1E+10	1	0.0474	4	0.000321	0	-1E+10	1	-1E+10	1	-1E+10	1
4902624	24	C	02/16/2025	09:00	-126.233	47.806	0	114.50	0	7.6637	0	33.7033	0	26.306	0	113.510	0	131.9	4	45.2	4	-1E+10	1	0.0438	4	0.000334	0	-1E+10	1	-1E+10	1	-1E+10	1
4902624	24	C	02/16/2025	09:00	-126.233	47.806	0	115.00	0	7.6590	0	33.7050	0	26.308	0	114.005	0	-1e10	1	-1e10	1	-1E+10	1	-1e10	1	-1e10	1	-1E+10	1	-1E+10	1	-1E+10	1
4902624	24	C	02/16/2025	09:00	-126.233	47.806	0	115.40	0	7.6561	0	33.7080	0	26.311	0	114.402	0	131.5	4	45.1	4	-1E+10	1	0.0454	4	0.000307	0	-1E+10	1	-1E+10	1	-1E+10	1
4902624	24	C	02/16/2025	09:00	-126.233	47.806	0	116.30	0	7.6497	0	33.7149	0	26.317	0	115.294	0	131.2	4	44.9	4	-1E+10	1	0.0499	4	0.000304	0	-1E+10	1	-1E+10	1	-1E+10	1
4902624	24	C	02/16/2025	09:00	-126.233	47.806	0	117.10	0	7.6440	0	33.7210	0	26.323	0	116.086	0	-1e10	1	-1e10	1	-1E+10	1	-1e10	1	-1e10	1	-1E+10	1	-1E+10	1	-1E+10	1
4902624	24	C	02/16/2025	09:00	-126.233	47.806	0	117.30	0	7.6427	0	33.7221	0	26.324	0	116.285	0	130.9	4	44.8	4	-1E+10	1	0.0438	4	0.000333	0	-1E+10	1	-1E+10	1	-1E+10	1
4902624	24	C	02/16/2025	09:00	-126.233	47.806	0	118.20	0	7.6371	0	33.7268	0	26.329	0	117.177	0	130.5	4	44.7	4	-1E+10	1	0.0319	4	0.000333	0	-1E+10	1	-1E+10	1	-1E+10	1
4902624	24	C	02/16/2025	09:00	-126.233	47.806	0	119.00	0	7.6320	0	33.7310	0	26.333	0	117.969	0	-1e10	1	-1e10	1	-1E+10	1	-1e10	1	-1e10	1	-1E+10	1	-1E+10	1	-1E+10	1
4902624	24	C	02/16/2025	09:00	-126.233	47.806	0	119.10	0	7.6304	0	33.7317	0	26.333	0	118.069	0	130.2	4	44.6	4	-1E+10	1	0.0349	4	0.000296	0	-1E+10	1	-1E+10	1	-1E+10	1
4902624	24	C	02/16/2025	09:00	-126.233	47.806	0	120.10	0	7.6147	0	33.7383	0	26.341	0	119.060	0	129.9	4	44.5	4	-1E+10	1	0.0365	4	0.000341	0	-1E+10	1	-1E+10	1	-1E+10	1
4902624	24	C	02/16/2025	09:00	-126.233	47.806	0	121.10	0	7.5990	0	33.7450	0	26.348	0	120.051	0	128.2	4	43.9	4	-1E+10	1	0.0402	4	0.000333	0	-1E+10	1	-1E+10	1	-1E+10	1
4902624	24	C	02/16/2025	09:00	-126.233	47.806	0	122.10	0	7.5868	0	33.7483	0	26.353	0	121.042	0	129.2	4	44.2	4	-1E+10	1	0.0438	4	0.000292	0	-1E+10	1	-1E+10	1	-1E+10	1
4902624	24	C	02/16/2025	09:00	-126.233	47.806	0	122.90	0	7.5770	0	33.7510	0	26.356	0	121.835	0	-1e10	1	-1e10	1	-1E+10	1	-1e10	1	-1e10	1	-1E+10	1	-1E+10	1	-1E+10	1
4902624	24	C	02/16/2025	09:00	-126.233	47.806	0	123.10	0	7.5752	0	33.7516	0	26.357	0	122.033	0	128.8	4	44.1	4	-1E+10	1	0.0438	4	0.000315	0	-1E+10	1	-1E+10	1	-1E+10	1
4902624	24	C	02/16/2025	09:00	-126.233	47.806	0	124.00	0	7.5671	0	33.7543	0	26.360	0	122.925	0	128.3	4	43.9	4	-1E+10	1	0.0414	4	0.000350	0	-1E+10	1	-1E+10	1	-1E+10	1
4902624	24	C	02/16/2025	09:00	-126.233	47.806	0	124.90	0	7.5590	0	33.7570	0	26.364	0	123.817	0	-1e10	1	-1e10	1	-1E+10	1	-1e10	1	-1e10	1	-1E+10	1	-1E+10	1	-1E+10	1
4902624	24	C	02/16/2025	09:00	-126.233	47.806	0	125.00	0	7.5583	0	33.7571	0	26.364	0	123.916	0	127.9	4	43.7	4	-1E+10	1	0.0292	4	0.000321	0	-1E+10	1	-1E+10	1	-1E+10	1
4902624	24	C	02/16/2025	09:00	-126.233	47.806	0	126.00	0	7.5513	0	33.7586	0	26.366	0	124.907	0	127.4	4	43.6	4	-1E+10	1	0.0511	4	0.000298	0	-1E+10	1	-1E+10	1	-1E+10	1
4902624	24	C	02/16/2025	09:00	-126.233	47.806	0	126.90	0	7.5450	0	33.7600	0	26.368	0	125.799	0	-1e10	1	-1e10	1	-1E+10	1	-1e10	1	-1e10	1	-1E+10	1	-1E+10	1	-1E+10	1
4902624	24	C	02/16/2025	09:00	-126.233	47.806	0	127.00	0	7.5441	0	33.7602	0	26.368	0	125.898	0	126.9	4	43.4	4	-1E+10	1	0.0450	4	0.000278	0	-1E+10	1	-1E+10	1	-1E+10	1
4902624	24	C	02/16/2025	09:00	-126.233	47.806	0	128.10	0	7.5341	0	33.7623	0	26.371	0	126.988	0	126.3	4	43.2	4	-1E+10	1	0.0337	4	0.000282	0	-1E+10	1	-1E+10	1	-1E+10	1
4902624	24	C	02/16/2025	09:00	-126.233	47.806	0	129.00	0	7.5260	0	33.7640	0	26.374	0	127.880	0	-1e10	1	-1e10	1	-1E+10	1	-1e10	1	-1e10	1	-1E+10	1	-1E+10	1	-1E+10	1
4902624	24	C	02/16/2025	09:00	-126.233	47.806	0	129.10	0	7.5255	0	33.7643	0	26.374	0	127.979	0	125.6	4	42.9	4	-1E+10	1	0.0380	4	0.000293	0	-1E+10	1	-1E+10	1	-1E+10	1
4902624	24	C	02/16/2025	09:00	-126.233	47.806	0	130.10	0	7.5202	0	33.7671	0	26.377	0	128.970	0	124.9	4	42.7	4	-1E+10	1	0.0472	4	0.000292	0	-1E+10	1	-1E+10	1	-1E+10	1
4902624	24	C	02/16/2025	09:00	-126.233	47.806	0	131.10	0	7.5150	0	33.7700	0	26.380	0	129.961	0	122.9	4	42.0	4	-1E+10	1	0.0474	4	0.000283	0	-1E+10	1	-1E+10	1	-1E+10	1
4902624	24	C	02/16/2025	09:00	-126.233	47.806	0	132.20	0	7.5092	0	33.7735	0	26.384	0	131.051	0	123.6	4	42.2	4	-1E+10	1	0.0380	4	0.000278	0	-1E+10	1	-1E+10	1	-1E+10	1
4902624	24	C	02/16/2025	09:00	-126.233	47.806	0	133.00	0	7.5050	0	33.7760	0	26.386	0	131.844	0	-1e10	1	-1e10	1	-1E+10	1	-1e10	1	-1e10	1	-1E+10	1	-1E+10	1	-1E+10	1
4902624	24	C	02/16/2025	09:00	-126.233	47.806	0	133.20	0	7.5034	0	33.7765	0	26.387	0	132.042	0	122.9	4	42.0	4	-1E+10	1	0.0450	4	0.000292	0	-1E+10	1	-1E+10	1	-1E+10	1
4902624	24	C	02/16/2025	09:00	-126.233	47.806	0	134.20	0	7.4955	0	33.7792	0	26.390	0	133.033	0	122.0	4	41.7	4	-1E+10	1	0.0511	4	0.000286	0	-1E+10	1	-1E+10	1	-1E+10	1
4902624	24	C	02/16/2025	09:00	-126.233	47.806	0	134.90	0	7.4900	0	33.7810	0	26.392	0	133.727	0	-1e10	1	-1e10	1	-1E+10	1	-1e10	1	-1e10	1	-1E+10	1	-1E+10	1	-1E+10	1
4902624	24	C	02/16/2025	09:00	-126.233	47.806	0	135.30	0	7.4845	0	33.7831	0	26.395	0	134.123	0	121.1	4	41.4	4	-1E+10	1	0.0449	4	0.000266	0	-1E+10	1	-1E+10	1	-1E+10	1
4902624	24	C	02/16/2025	09:00	-126.233	47.806	0	136.30	0	7.4707	0	33.7883	0	26.401	0	135.114	0	120.1	4	41.0	4	-1E+10	1	0.0496	4	0.000272	0	-1E+10	1	-1E+10	1	-1E+10	1
4902624	24	C	02/16/2025	09:00	-126.233	47.806	0	137.00	0	7.4610	0	33.7920	0	26.405	0	135.808	0	-1e10	1	-1e10	1	-1E+10	1	-1e10	1	-1e10	1	-1E+10	1	-1E+10	1	-1E+10	1
4902624	24	C	02/16/2025	09:00	-126.233	47.806	0	137.40	0	7.4608	0	33.7944	0	26.407	0	136.204	0	119.1	4	40.6	4	-1E+10	1	0.0380	4	0.000285	0	-1E+10	1	-1E+10	1	-1E+10	1
4902624	24	C	02/16/2025	09:00	-126.233	47.806	0	138.40	0	7.4603	0	33.8004	0	26.412	0	137.195	0	118.1	4	40.3	4	-1E+10	1	0.0365	4	0.000302	0	-1E+10	1	-1E+10	1	-1E+10	1
4902624	24	C	02/16/2025	09:00	-126.233	47.806	0	139.00	0	7.4600	0	33.8040	0	26.415	0	137.790	0	-1e10	1	-1e10	1	-1E+10	1	-1e10	1	-1e10	1	-1E+10	1	-1E+10	1	-1E+10	1
4902624	24	C	02/16/2025	09:00	-126.233	47.806	0	139.40	0	7.4532	0	33.8058	0	26.417	0	138.186	0	117.6	4	40.2	4	-1E+10	1	0.0325	4	0.000360	0	-1E+10	1	-1E+10	1	-1E+10	1
4902624	24	C	02/16/2025	09:00	-126.233	47.806	0	140.50	0	7.4345	0	33.8107	0	26.424	0	139.276	0	116.9	4	39.9	4	-1E+10	1	0.0329	4	0.000344	0	-1E+10	1	-1E+10	1	-1E+10	1
4902624	24	C	02/16/2025	09:00	-126.233	47.806	0	141.00	0	7.4260	0	33.8130	0	26.427	0	139.772	0	-1e10	1	-1e10	1	-1E+10	1	-1e10	1	-1e10	1	-1E+10	1	-1E+10	1	-1E+10	1
4902624	24	C	02/16/2025	09:00	-126.233	47.806	0	141.50	0	7.4132	0	33.8138	0	26.429	0	140.267	0	116.0	4	39.6	4	-1E+10	1	0.0410	4	0.000311	0	-1E+10	1	-1E+10	1	-1E+10	1
4902624	24	C	02/16/2025	09:00	-126.233	47.806	0	142.60	0	7.3852	0	33.8154	0	26.434	0	141.357	0	115.0	4	39.2	4	-1E+10	1	0.0496	4	0.000358	0	-1E+10	1	-1E+10	1	-1E+10	1
4902624	24	C	02/16/2025	09:00	-126.233	47.806	0	143.00	0	7.3750	0	33.8160	0	26.436	0	141.753	0	-1e10	1	-1e10	1	-1E+10	1	-1e10	1	-1e10	1	-1E+10	1	-1E+10	1	-1E+10	1
4902624	24	C	02/16/2025	09:00	-126.233	47.806	0	143.60	0	7.3621	0	33.8183	0	26.440	0	142.348	0	113.8	4	38.8	4	-1E+10	1	0.0460	4	0.000314	0	-1E+10	1	-1E+10	1	-1E+10	1
4902624	24	C	02/16/2025	09:00	-126.233	47.806	0	144.70	0	7.3386	0	33.8225	0	26.446	0	143.438	0	112.5	4	38.3	4	-1E+10	1	0.0584	4	0.000274	0	-1E+10	1	-1E+10	1	-1E+10	1
4902624	24	C	02/16/2025	09:00	-126.233	47.806	0	145.10	0	7.3300	0	33.8240	0	26.449	0	143.834	0	-1e10	1	-1e10	1	-1E+10	1	-1e10	1	-1e10	1	-1E+10	1	-1E+10	1	-1E+10	1
4902624	24	C	02/16/2025	09:00	-126.233	47.806	0	145.80	0	7.3278	0	33.8262	0	26.451	0	144.528	0	111.0	4	37.8	4	-1E+10	1	0.0522	4	0.000264	0	-1E+10	1	-1E+10	1	-1E+10	1
4902624	24	C	02/16/2025	09:00	-126.233	47.806	0	146.80	0	7.3246	0	33.8294	0	26.454	0	145.519	0	109.6	4	37.3	4	-1E+10	1	0.0511	4	0.000296	0	-1E+10	1	-1E+10	1	-1E+10	1
4902624	24	C	02/16/2025	09:00	-126.233	47.806	0	147.00	0	7.3240	0	33.8300	0	26.454	0	145.717	0	-1e10	1	-1e10	1	-1E+10	1	-1e10	1	-1e10	1	-1E+10	1	-1E+10	1	-1E+10	1
4902624	24	C	02/16/2025	09:00	-126.233	47.806	0	147.90	0	7.3456	0	33.8372	0	26.457	0	146.609	0	108.7	4	37.0	4	-1E+10	1	0.0460	4	0.000324	0	-1E+10	1	-1E+10	1	-1E+10	1
4902624	24	C	02/16/2025	09:00	-126.233	47.806	0	149.00	0	7.3720	0	33.8460	0	26.460	0	147.699	0	106.7	4	36.4	4	-1E+10	1	0.0399	4	0.000326	0	-1E+10	1	-1E+10	1	-1E+10	1
4902624	24	C	02/16/2025	09:00	-126.233	47.806	0	150.00	0	7.3855	0	33.8505	0	26.462	0	148.690	0	107.3	4	36.6	4	-1E+10	1	0.0418	4	0.000312	0	-1E+10	1	-1E+10	1	-1E+10	1
4902624	24	C	02/16/2025	09:00	-126.233	47.806	0	151.00	0	7.3990	0	33.8550	0	26.464	0	149.681	0	-1e10	1	-1e10	1	-1E+10	1	-1e10	1	-1e10	1	-1E+10	1	-1E+10	1	-1E+10	1
4902624	24	C	02/16/2025	09:00	-126.233	47.806	0	151.10	0	7.3995	0	33.8551	0	26.464	0	149.780	0	106.8	4	36.4	4	-1E+10	1	0.0511	4	0.000317	0	-1E+10	1	-1E+10	1	-1E+10	1
4902624	24	C	02/16/2025	09:00	-126.233	47.806	0	152.10	0	7.4040	0	33.8561	0	26.464	0	150.771	0	106.2	4	36.2	4	-1E+10	1	0.0499	4	0.000342	0	-1E+10	1	-1E+10	1	-1E+10	1
4902624	24	C	02/16/2025	09:00	-126.233	47.806	0	153.00	0	7.4080	0	33.8570	0	26.464	0	151.663	0	-1e10	1	-1e10	1	-1E+10	1	-1e10	1	-1e10	1	-1E+10	1	-1E+10	1	-1E+10	1
4902624	24	C	02/16/2025	09:00	-126.233	47.806	0	153.10	0	7.4054	0	33.8573	0	26.465	0	151.762	0	105.6	4	36.0	4	-1E+10	1	0.0438	4	0.000274	0	-1E+10	1	-1E+10	1	-1E+10	1
4902624	24	C	02/16/2025	09:00	-126.233	47.806	0	154.10	0	7.3794	0	33.8597	0	26.470	0	152.753	0	104.9	4	35.7	4	-1E+10	1	0.0511	4	0.000297	0	-1E+10	1	-1E+10	1	-1E+10	1
4902624	24	C	02/16/2025	09:00	-126.233	47.806	0	155.00	0	7.3560	0	33.8620	0	26.475	0	153.644	0	-1e10	1	-1e10	1	-1E+10	1	-1e10	1	-1e10	1	-1E+10	1	-1E+10	1	-1E+10	1
4902624	24	C	02/16/2025	09:00	-126.233	47.806	0	155.20	0	7.3558	0	33.8624	0	26.476	0	153.843	0	104.1	4	35.5	4	-1E+10	1	0.0635	4	0.000278	0	-1E+10	1	-1E+10	1	-1E+10	1
4902624	24	C	02/16/2025	09:00	-126.233	47.806	0	156.20	0	7.3547	0	33.8645	0	26.477	0	154.833	0	103.3	4	35.2	4	-1E+10	1	0.0511	4	0.000313	0	-1E+10	1	-1E+10	1	-1E+10	1
4902624	24	C	02/16/2025	09:00	-126.233	47.806	0	156.90	0	7.3540	0	33.8660	0	26.479	0	155.527	0	-1e10	1	-1e10	1	-1E+10	1	-1e10	1	-1e10	1	-1E+10	1	-1E+10	1	-1E+10	1
4902624	24	C	02/16/2025	09:00	-126.233	47.806	0	157.20	0	7.3587	0	33.8677	0	26.479	0	155.824	0	102.6	4	35.0	4	-1E+10	1	0.0398	4	0.000313	0	-1E+10	1	-1E+10	1	-1E+10	1
4902624	24	C	02/16/2025	09:00	-126.233	47.806	0	158.20	0	7.3744	0	33.8734	0	26.482	0	156.815	0	102.4	4	34.9	4	-1E+10	1	0.0395	4	0.000297	0	-1E+10	1	-1E+10	1	-1E+10	1
4902624	24	C	02/16/2025	09:00	-126.233	47.806	0	159.00	0	7.3870	0	33.8780	0	26.484	0	157.608	0	-1e10	1	-1e10	1	-1E+10	1	-1e10	1	-1e10	1	-1E+10	1	-1E+10	1	-1E+10	1
4902624	24	C	02/16/2025	09:00	-126.233	47.806	0	159.30	0	7.3827	0	33.8777	0	26.484	0	157.905	0	102.3	4	34.9	4	-1E+10	1	0.0487	4	0.000309	0	-1E+10	1	-1E+10	1	-1E+10	1
4902624	24	C	02/16/2025	09:00	-126.233	47.806	0	160.20	0	7.3699	0	33.8767	0	26.485	0	158.797	0	102.0	4	34.8	4	-1E+10	1	0.0576	4	0.000327	0	-1E+10	1	-1E+10	1	-1E+10	1
4902624	24	C	02/16/2025	09:00	-126.233	47.806	0	160.90	0	7.3600	0	33.8760	0	26.486	0	159.490	0	-1e10	1	-1e10	1	-1E+10	1	-1e10	1	-1e10	1	-1E+10	1	-1E+10	1	-1E+10	1
4902624	24	C	02/16/2025	09:00	-126.233	47.806	0	161.30	0	7.3556	0	33.8771	0	26.487	0	159.887	0	101.7	4	34.6	4	-1E+10	1	0.0511	4	0.000288	0	-1E+10	1	-1E+10	1	-1E+10	1
4902624	24	C	02/16/2025	09:00	-126.233	47.806	0	162.30	0	7.3447	0	33.8800	0	26.491	0	160.878	0	101.4	4	34.6	4	-1E+10	1	0.0511	4	0.000297	0	-1E+10	1	-1E+10	1	-1E+10	1
4902624	24	C	02/16/2025	09:00	-126.233	47.806	0	163.00	0	7.3370	0	33.8820	0	26.494	0	161.571	0	-1e10	1	-1e10	1	-1E+10	1	-1e10	1	-1e10	1	-1E+10	1	-1E+10	1	-1E+10	1
4902624	24	C	02/16/2025	09:00	-126.233	47.806	0	163.30	0	7.3354	0	33.8823	0	26.494	0	161.869	0	101.2	4	34.5	4	-1E+10	1	0.0445	4	0.000308	0	-1E+10	1	-1E+10	1	-1E+10	1
4902624	24	C	02/16/2025	09:00	-126.233	47.806	0	164.30	0	7.3299	0	33.8833	0	26.496	0	162.859	0	101.0	4	34.4	4	-1E+10	1	0.0438	4	0.000309	0	-1E+10	1	-1E+10	1	-1E+10	1
4902624	24	C	02/16/2025	09:00	-126.233	47.806	0	165.00	0	7.3260	0	33.8840	0	26.497	0	163.553	0	-1e10	1	-1e10	1	-1E+10	1	-1e10	1	-1e10	1	-1E+10	1	-1E+10	1	-1E+10	1
4902624	24	C	02/16/2025	09:00	-126.233	47.806	0	165.30	0	7.3239	0	33.8843	0	26.497	0	163.850	0	100.9	4	34.3	4	-1E+10	1	0.0389	4	0.000591	0	-1E+10	1	-1E+10	1	-1E+10	1
4902624	24	C	02/16/2025	09:00	-126.233	47.806	0	166.30	0	7.3169	0	33.8853	0	26.499	0	164.841	0	100.7	4	34.3	4	-1E+10	1	0.0402	4	0.000508	0	-1E+10	1	-1E+10	1	-1E+10	1
4902624	24	C	02/16/2025	09:00	-126.233	47.806	0	167.00	0	7.3120	0	33.8860	0	26.500	0	165.535	0	-1e10	1	-1e10	1	-1E+10	1	-1e10	1	-1e10	1	-1E+10	1	-1E+10	1	-1E+10	1
4902624	24	C	02/16/2025	09:00	-126.233	47.806	0	167.30	0	7.3096	0	33.8862	0	26.501	0	165.832	0	100.5	4	34.2	4	-1E+10	1	0.0438	4	0.000300	0	-1E+10	1	-1E+10	1	-1E+10	1
4902624	24	C	02/16/2025	09:00	-126.233	47.806	0	168.30	0	7.3017	0	33.8867	0	26.502	0	166.823	0	100.4	4	34.2	4	-1E+10	1	0.0438	4	0.000321	0	-1E+10	1	-1E+10	1	-1E+10	1
4902624	24	C	02/16/2025	09:00	-126.233	47.806	0	168.90	0	7.2970	0	33.8870	0	26.503	0	167.417	0	-1e10	1	-1e10	1	-1E+10	1	-1e10	1	-1e10	1	-1E+10	1	-1E+10	1	-1E+10	1
4902624	24	C	02/16/2025	09:00	-126.233	47.806	0	169.30	0	7.2842	0	33.8872	0	26.505	0	167.813	0	100.3	4	34.1	4	-1E+10	1	0.0438	4	0.000342	0	-1E+10	1	-1E+10	1	-1E+10	1
4902624	24	C	02/16/2025	09:00	-126.233	47.806	0	170.30	0	7.2523	0	33.8877	0	26.510	0	168.804	0	100.0	4	34.0	4	-1E+10	1	0.0438	4	0.000450	0	-1E+10	1	-1E+10	1	-1E+10	1
4902624	24	C	02/16/2025	09:00	-126.233	47.806	0	171.00	0	7.2300	0	33.8880	0	26.514	0	169.498	0	-1e10	1	-1e10	1	-1E+10	1	-1e10	1	-1e10	1	-1E+10	1	-1E+10	1	-1E+10	1
4902624	24	C	02/16/2025	09:00	-126.233	47.806	0	171.30	0	7.2232	0	33.8879	0	26.514	0	169.795	0	99.5	4	33.8	4	-1E+10	1	0.0657	4	0.000368	0	-1E+10	1	-1E+10	1	-1E+10	1
4902624	24	C	02/16/2025	09:00	-126.233	47.806	0	172.20	0	7.2030	0	33.8874	0	26.517	0	170.687	0	99.0	4	33.6	4	-1E+10	1	0.0657	4	0.000320	0	-1E+10	1	-1E+10	1	-1E+10	1
4902624	24	C	02/16/2025	09:00	-126.233	47.806	0	173.00	0	7.1850	0	33.8870	0	26.519	0	171.479	0	-1e10	1	-1e10	1	-1E+10	1	-1e10	1	-1e10	1	-1E+10	1	-1E+10	1	-1E+10	1
4902624	24	C	02/16/2025	09:00	-126.233	47.806	0	173.20	0	7.1841	0	33.8873	0	26.519	0	171.678	0	98.4	4	33.4	4	-1E+10	1	0.0511	4	0.000309	0	-1E+10	1	-1E+10	1	-1E+10	1
4902624	24	C	02/16/2025	09:00	-126.233	47.806	0	174.20	0	7.1799	0	33.8887	0	26.521	0	172.668	0	97.8	4	33.2	4	-1E+10	1	0.0389	4	0.000293	0	-1E+10	1	-1E+10	1	-1E+10	1
4902624	24	C	02/16/2025	09:00	-126.233	47.806	0	175.10	0	7.1760	0	33.8900	0	26.523	0	173.560	0	-1e10	1	-1e10	1	-1E+10	1	-1e10	1	-1e10	1	-1E+10	1	-1E+10	1	-1E+10	1
4902624	24	C	02/16/2025	09:00	-126.233	47.806	0	175.20	0	7.1744	0	33.8905	0	26.523	0	173.659	0	97.0	4	32.9	4	-1E+10	1	0.0365	4	0.000323	0	-1E+10	1	-1E+10	1	-1E+10	1
4902624	24	C	02/16/2025	09:00	-126.233	47.806	0	176.20	0	7.1581	0	33.8952	0	26.529	0	174.650	0	96.4	4	32.7	4	-1E+10	1	0.0414	4	0.000335	0	-1E+10	1	-1E+10	1	-1E+10	1
4902624	24	C	02/16/2025	09:00	-126.233	47.806	0	177.00	0	7.1450	0	33.8990	0	26.534	0	175.443	0	-1e10	1	-1e10	1	-1E+10	1	-1e10	1	-1e10	1	-1E+10	1	-1E+10	1	-1E+10	1
4902624	24	C	02/16/2025	09:00	-126.233	47.806	0	177.20	0	7.1429	0	33.8994	0	26.535	0	175.641	0	95.9	4	32.5	4	-1E+10	1	0.0496	4	0.000305	0	-1E+10	1	-1E+10	1	-1E+10	1
4902624	24	C	02/16/2025	09:00	-126.233	47.806	0	178.20	0	7.1324	0	33.9015	0	26.538	0	176.632	0	95.4	4	32.4	4	-1E+10	1	0.0438	4	0.000346	0	-1E+10	1	-1E+10	1	-1E+10	1
4902624	24	C	02/16/2025	09:00	-126.233	47.806	0	178.90	0	7.1250	0	33.9030	0	26.540	0	177.325	0	-1e10	1	-1e10	1	-1E+10	1	-1e10	1	-1e10	1	-1E+10	1	-1E+10	1	-1E+10	1
4902624	24	C	02/16/2025	09:00	-126.233	47.806	0	179.20	0	7.1221	0	33.9034	0	26.541	0	177.622	0	95.1	4	32.2	4	-1E+10	1	0.0438	4	0.000297	0	-1E+10	1	-1E+10	1	-1E+10	1
4902624	24	C	02/16/2025	09:00	-126.233	47.806	0	180.30	0	7.1117	0	33.9050	0	26.543	0	178.712	0	94.8	4	32.1	4	-1E+10	1	0.0438	4	0.000297	0	-1E+10	1	-1E+10	1	-1E+10	1
4902624	24	C	02/16/2025	09:00	-126.233	47.806	0	181.00	0	7.1050	0	33.9060	0	26.545	0	179.406	0	-1e10	1	-1e10	1	-1E+10	1	-1e10	1	-1e10	1	-1E+10	1	-1E+10	1	-1E+10	1
4902624	24	C	02/16/2025	09:00	-126.233	47.806	0	181.30	0	7.1041	0	33.9058	0	26.545	0	179.703	0	94.3	4	32.0	4	-1E+10	1	0.0438	4	0.000288	0	-1E+10	1	-1E+10	1	-1E+10	1
4902624	24	C	02/16/2025	09:00	-126.233	47.806	0	182.30	0	7.1011	0	33.9053	0	26.545	0	180.694	0	93.9	4	31.8	4	-1E+10	1	0.0487	4	0.000301	0	-1E+10	1	-1E+10	1	-1E+10	1
4902624	24	C	02/16/2025	09:00	-126.233	47.806	0	183.00	0	7.0990	0	33.9050	0	26.545	0	181.387	0	-1e10	1	-1e10	1	-1E+10	1	-1e10	1	-1e10	1	-1E+10	1	-1E+10	1	-1E+10	1
4902624	24	C	02/16/2025	09:00	-126.233	47.806	0	183.40	0	7.0975	0	33.9056	0	26.546	0	181.783	0	93.3	4	31.6	4	-1E+10	1	0.0511	4	0.000296	0	-1E+10	1	-1E+10	1	-1E+10	1
4902624	24	C	02/16/2025	09:00	-126.233	47.806	0	184.40	0	7.0938	0	33.9072	0	26.548	0	182.774	0	92.8	4	31.4	4	-1E+10	1	0.0453	4	0.000300	0	-1E+10	1	-1E+10	1	-1E+10	1
4902624	24	C	02/16/2025	09:00	-126.233	47.806	0	184.90	0	7.0920	0	33.9080	0	26.549	0	183.270	0	-1e10	1	-1e10	1	-1E+10	1	-1e10	1	-1e10	1	-1E+10	1	-1E+10	1	-1E+10	1
4902624	24	C	02/16/2025	09:00	-126.233	47.806	0	185.40	0	7.0890	0	33.9094	0	26.550	0	183.765	0	92.3	4	31.3	4	-1E+10	1	0.0414	4	0.000328	0	-1E+10	1	-1E+10	1	-1E+10	1
4902624	24	C	02/16/2025	09:00	-126.233	47.806	0	186.40	0	7.0831	0	33.9121	0	26.553	0	184.756	0	91.9	4	31.1	4	-1E+10	1	0.0487	4	0.000340	0	-1E+10	1	-1E+10	1	-1E+10	1
4902624	24	C	02/16/2025	09:00	-126.233	47.806	0	187.10	0	7.0790	0	33.9140	0	26.555	0	185.449	0	-1e10	1	-1e10	1	-1E+10	1	-1e10	1	-1e10	1	-1E+10	1	-1E+10	1	-1E+10	1
4902624	24	C	02/16/2025	09:00	-126.233	47.806	0	187.40	0	7.0771	0	33.9143	0	26.556	0	185.746	0	91.6	4	31.0	4	-1E+10	1	0.0365	4	0.000321	0	-1E+10	1	-1E+10	1	-1E+10	1
4902624	24	C	02/16/2025	09:00	-126.233	47.806	0	188.40	0	7.0708	0	33.9154	0	26.557	0	186.737	0	91.2	4	30.9	4	-1E+10	1	0.0511	4	0.000297	0	-1E+10	1	-1E+10	1	-1E+10	1
4902624	24	C	02/16/2025	09:00	-126.233	47.806	0	189.00	0	7.0670	0	33.9160	0	26.558	0	187.332	0	-1e10	1	-1e10	1	-1E+10	1	-1e10	1	-1e10	1	-1E+10	1	-1E+10	1	-1E+10	1
4902624	24	C	02/16/2025	09:00	-126.233	47.806	0	189.40	0	7.0657	0	33.9166	0	26.559	0	187.728	0	90.9	4	30.8	4	-1E+10	1	0.0572	4	0.000326	0	-1E+10	1	-1E+10	1	-1E+10	1
4902624	24	C	02/16/2025	09:00	-126.233	47.806	0	190.40	0	7.0626	0	33.9182	0	26.561	0	188.719	0	90.6	4	30.7	4	-1E+10	1	0.0487	4	0.000309	0	-1E+10	1	-1E+10	1	-1E+10	1
4902624	24	C	02/16/2025	09:00	-126.233	47.806	0	190.90	0	7.0610	0	33.9190	0	26.562	0	189.214	0	-1e10	1	-1e10	1	-1E+10	1	-1e10	1	-1e10	1	-1E+10	1	-1E+10	1	-1E+10	1
4902624	24	C	02/16/2025	09:00	-126.233	47.806	0	191.50	0	7.0593	0	33.9199	0	26.562	0	189.808	0	90.3	4	30.6	4	-1E+10	1	0.0540	4	0.000297	0	-1E+10	1	-1E+10	1	-1E+10	1
4902624	24	C	02/16/2025	09:00	-126.233	47.806	0	192.50	0	7.0564	0	33.9213	0	26.564	0	190.799	0	90.0	4	30.5	4	-1E+10	1	0.0505	4	0.000291	0	-1E+10	1	-1E+10	1	-1E+10	1
4902624	24	C	02/16/2025	09:00	-126.233	47.806	0	193.00	0	7.0550	0	33.9220	0	26.565	0	191.294	0	-1e10	1	-1e10	1	-1E+10	1	-1e10	1	-1e10	1	-1E+10	1	-1E+10	1	-1E+10	1
4902624	24	C	02/16/2025	09:00	-126.233	47.806	0	193.50	0	7.0548	0	33.9220	0	26.565	0	191.790	0	89.8	4	30.4	4	-1E+10	1	0.0462	4	0.000289	0	-1E+10	1	-1E+10	1	-1E+10	1
4902624	24	C	02/16/2025	09:00	-126.233	47.806	0	194.60	0	7.0542	0	33.9220	0	26.565	0	192.880	0	89.5	4	30.3	4	-1E+10	1	0.0531	4	0.000307	0	-1E+10	1	-1E+10	1	-1E+10	1
4902624	24	C	02/16/2025	09:00	-126.233	47.806	0	195.10	0	7.0540	0	33.9220	0	26.565	0	193.375	0	-1e10	1	-1e10	1	-1E+10	1	-1e10	1	-1e10	1	-1E+10	1	-1E+10	1	-1E+10	1
4902624	24	C	02/16/2025	09:00	-126.233	47.806	0	195.60	0	7.0540	0	33.9217	0	26.565	0	193.870	0	89.2	4	30.2	4	-1E+10	1	0.0584	4	0.000321	0	-1E+10	1	-1E+10	1	-1E+10	1
4902624	24	C	02/16/2025	09:00	-126.233	47.806	0	196.60	0	7.0540	0	33.9212	0	26.564	0	194.861	0	88.9	4	30.1	4	-1E+10	1	0.0584	4	0.000262	0	-1E+10	1	-1E+10	1	-1E+10	1
4902624	24	C	02/16/2025	09:00	-126.233	47.806	0	197.00	0	7.0540	0	33.9210	0	26.564	0	195.257	0	-1e10	1	-1e10	1	-1E+10	1	-1e10	1	-1e10	1	-1E+10	1	-1E+10	1	-1E+10	1
4902624	24	C	02/16/2025	09:00	-126.233	47.806	0	197.60	0	7.0519	0	33.9216	0	26.565	0	195.852	0	88.5	4	29.9	4	-1E+10	1	0.0523	4	0.000272	0	-1E+10	1	-1E+10	1	-1E+10	1
4902624	24	C	02/16/2025	09:00	-126.233	47.806	0	198.70	0	7.0480	0	33.9227	0	26.566	0	196.941	0	88.1	4	29.8	4	-1E+10	1	0.0392	4	0.000379	0	-1E+10	1	-1E+10	1	-1E+10	1
4902624	24	C	02/16/2025	09:00	-126.233	47.806	0	199.00	0	7.0470	0	33.9230	0	26.567	0	197.239	0	-1e10	1	-1e10	1	-1E+10	1	-1e10	1	-1e10	1	-1E+10	1	-1E+10	1	-1E+10	1
4902624	24	C	02/16/2025	09:00	-126.233	47.806	0	199.70	0	7.0463	0	33.9237	0	26.567	0	197.932	0	87.7	4	29.7	4	-1E+10	1	0.0462	4	0.000356	0	-1E+10	1	-1E+10	1	-1E+10	1
4902624	24	C	02/16/2025	09:00	-126.233	47.806	0	200.70	0	7.0453	0	33.9247	0	26.568	0	198.923	0	87.3	4	29.5	4	-1E+10	1	0.0477	4	0.000327	0	-1E+10	1	-1E+10	1	-1E+10	1
4902624	24	C	02/16/2025	09:00	-126.233	47.806	0	201.00	0	7.0450	0	33.9250	0	26.569	0	199.220	0	-1e10	1	-1e10	1	-1E+10	1	-1e10	1	-1e10	1	-1E+10	1	-1E+10	1	-1E+10	1
4902624	24	C	02/16/2025	09:00	-126.233	47.806	0	201.80	0	7.0382	0	33.9258	0	26.570	0	200.012	0	86.9	4	29.4	4	-1E+10	1	0.0526	4	0.000335	0	-1E+10	1	-1E+10	1	-1E+10	1
4902624	24	C	02/16/2025	09:00	-126.233	47.806	0	202.90	0	7.0289	0	33.9269	0	26.572	0	201.102	0	86.4	4	29.2	4	-1E+10	1	0.0573	4	0.000347	0	-1E+10	1	-1E+10	1	-1E+10	1
4902624	24	C	02/16/2025	09:00	-126.233	47.806	0	203.00	0	7.0280	0	33.9270	0	26.572	0	201.201	0	-1e10	1	-1e10	1	-1E+10	1	-1e10	1	-1e10	1	-1E+10	1	-1E+10	1	-1E+10	1
4902624	24	C	02/16/2025	09:00	-126.233	47.806	0	203.90	0	7.0064	0	33.9274	0	26.576	0	202.093	0	86.0	4	29.1	4	-1E+10	1	0.0438	4	0.000326	0	-1E+10	1	-1E+10	1	-1E+10	1
4902624	24	C	02/16/2025	09:00	-126.233	47.806	0	205.00	0	6.9800	0	33.9280	0	26.580	0	203.182	0	84.5	4	28.6	4	-1E+10	1	0.0438	4	0.000292	0	-1E+10	1	-1E+10	1	-1E+10	1
4902624	24	C	02/16/2025	09:00	-126.233	47.806	0	206.00	0	6.9795	0	33.9305	0	26.582	0	204.173	0	85.1	4	28.8	4	-1E+10	1	0.0511	4	0.000320	0	-1E+10	1	-1E+10	1	-1E+10	1
4902624	24	C	02/16/2025	09:00	-126.233	47.806	0	207.00	0	6.9790	0	33.9330	0	26.584	0	205.164	0	-1e10	1	-1e10	1	-1E+10	1	-1e10	1	-1e10	1	-1E+10	1	-1E+10	1	-1E+10	1
4902624	24	C	02/16/2025	09:00	-126.233	47.806	0	207.10	0	6.9790	0	33.9330	0	26.584	0	205.263	0	84.8	4	28.6	4	-1E+10	1	0.0438	4	0.000285	0	-1E+10	1	-1E+10	1	-1E+10	1
4902624	24	C	02/16/2025	09:00	-126.233	47.806	0	208.20	0	6.9790	0	33.9336	0	26.584	0	206.353	0	84.4	4	28.5	4	-1E+10	1	0.0376	4	0.000305	0	-1E+10	1	-1E+10	1	-1E+10	1
4902624	24	C	02/16/2025	09:00	-126.233	47.806	0	209.10	0	6.9790	0	33.9340	0	26.585	0	207.244	0	-1e10	1	-1e10	1	-1E+10	1	-1e10	1	-1e10	1	-1E+10	1	-1E+10	1	-1E+10	1
4902624	24	C	02/16/2025	09:00	-126.233	47.806	0	209.30	0	6.9781	0	33.9340	0	26.585	0	207.442	0	83.9	4	28.4	4	-1E+10	1	0.0544	4	0.000366	0	-1E+10	1	-1E+10	1	-1E+10	1
4902624	24	C	02/16/2025	09:00	-126.233	47.806	0	210.40	0	6.9728	0	33.9340	0	26.586	0	208.532	0	83.4	4	28.2	4	-1E+10	1	0.0584	4	0.000412	0	-1E+10	1	-1E+10	1	-1E+10	1
4902624	24	C	02/16/2025	09:00	-126.233	47.806	0	211.00	0	6.9700	0	33.9340	0	26.586	0	209.126	0	-1e10	1	-1e10	1	-1E+10	1	-1e10	1	-1e10	1	-1E+10	1	-1E+10	1	-1E+10	1
4902624	24	C	02/16/2025	09:00	-126.233	47.806	0	211.50	0	6.9688	0	33.9345	0	26.587	0	209.622	0	82.9	4	28.0	4	-1E+10	1	0.0505	4	0.000356	0	-1E+10	1	-1E+10	1	-1E+10	1
4902624	24	C	02/16/2025	09:00	-126.233	47.806	0	212.50	0	6.9662	0	33.9355	0	26.588	0	210.612	0	82.3	4	27.8	4	-1E+10	1	0.0465	4	0.000305	0	-1E+10	1	-1E+10	1	-1E+10	1
4902624	24	C	02/16/2025	09:00	-126.233	47.806	0	213.00	0	6.9650	0	33.9360	0	26.588	0	211.107	0	-1e10	1	-1e10	1	-1E+10	1	-1e10	1	-1e10	1	-1E+10	1	-1E+10	1	-1E+10	1
4902624	24	C	02/16/2025	09:00	-126.233	47.806	0	213.60	0	6.9635	0	33.9369	0	26.589	0	211.702	0	81.7	4	27.6	4	-1E+10	1	0.0489	4	0.000306	0	-1E+10	1	-1E+10	1	-1E+10	1
4902624	24	C	02/16/2025	09:00	-126.233	47.806	0	214.70	0	6.9608	0	33.9385	0	26.591	0	212.791	0	81.2	4	27.4	4	-1E+10	1	0.0438	4	0.000278	0	-1E+10	1	-1E+10	1	-1E+10	1
4902624	24	C	02/16/2025	09:00	-126.233	47.806	0	215.00	0	6.9600	0	33.9390	0	26.591	0	213.089	0	-1e10	1	-1e10	1	-1E+10	1	-1e10	1	-1e10	1	-1E+10	1	-1E+10	1	-1E+10	1
4902624	24	C	02/16/2025	09:00	-126.233	47.806	0	215.90	0	6.9532	0	33.9408	0	26.594	0	213.980	0	80.6	4	27.2	4	-1E+10	1	0.0438	4	0.000309	0	-1E+10	1	-1E+10	1	-1E+10	1
4902624	24	C	02/16/2025	09:00	-126.233	47.806	0	217.00	0	6.9450	0	33.9430	0	26.597	0	215.070	0	79.2	4	26.7	4	-1E+10	1	0.0511	4	0.000292	0	-1E+10	1	-1E+10	1	-1E+10	1
4902624	24	C	02/16/2025	09:00	-126.233	47.806	0	218.10	0	6.9406	0	33.9441	0	26.598	0	216.159	0	79.7	4	26.9	4	-1E+10	1	0.0449	4	0.000296	0	-1E+10	1	-1E+10	1	-1E+10	1
4902624	24	C	02/16/2025	09:00	-126.233	47.806	0	219.00	0	6.9370	0	33.9450	0	26.599	0	217.051	0	-1e10	1	-1e10	1	-1E+10	1	-1e10	1	-1e10	1	-1E+10	1	-1E+10	1	-1E+10	1
4902624	24	C	02/16/2025	09:00	-126.233	47.806	0	219.20	0	6.9348	0	33.9454	0	26.600	0	217.249	0	79.2	4	26.7	4	-1E+10	1	0.0539	4	0.000305	0	-1E+10	1	-1E+10	1	-1E+10	1
4902624	24	C	02/16/2025	09:00	-126.233	47.806	0	220.30	0	6.9227	0	33.9476	0	26.603	0	218.339	0	78.7	4	26.6	4	-1E+10	1	0.0491	4	0.000286	0	-1E+10	1	-1E+10	1	-1E+10	1
4902624	24	C	02/16/2025	09:00	-126.233	47.806	0	221.00	0	6.9150	0	33.9490	0	26.605	0	219.032	0	-1e10	1	-1e10	1	-1E+10	1	-1e10	1	-1e10	1	-1E+10	1	-1E+10	1	-1E+10	1
4902624	24	C	02/16/2025	09:00	-126.233	47.806	0	221.40	0	6.9106	0	33.9494	0	26.606	0	219.428	0	78.3	4	26.4	4	-1E+10	1	0.0474	4	0.000285	0	-1E+10	1	-1E+10	1	-1E+10	1
4902624	24	C	02/16/2025	09:00	-126.233	47.806	0	222.50	0	6.8985	0	33.9505	0	26.609	0	220.518	0	77.9	4	26.3	4	-1E+10	1	0.0556	4	0.000286	0	-1E+10	1	-1E+10	1	-1E+10	1
4902624	24	C	02/16/2025	09:00	-126.233	47.806	0	223.00	0	6.8930	0	33.9510	0	26.610	0	221.013	0	-1e10	1	-1e10	1	-1E+10	1	-1e10	1	-1e10	1	-1E+10	1	-1E+10	1	-1E+10	1
4902624	24	C	02/16/2025	09:00	-126.233	47.806	0	223.60	0	6.8906	0	33.9510	0	26.610	0	221.608	0	77.5	4	26.1	4	-1E+10	1	0.0604	4	0.000270	0	-1E+10	1	-1E+10	1	-1E+10	1
4902624	24	C	02/16/2025	09:00	-126.233	47.806	0	224.80	0	6.8858	0	33.9510	0	26.611	0	222.796	0	77.0	4	26.0	4	-1E+10	1	0.0428	4	0.000311	0	-1E+10	1	-1E+10	1	-1E+10	1
4902624	24	C	02/16/2025	09:00	-126.233	47.806	0	225.00	0	6.8850	0	33.9510	0	26.611	0	222.994	0	-1e10	1	-1e10	1	-1E+10	1	-1e10	1	-1e10	1	-1E+10	1	-1E+10	1	-1E+10	1
4902624	24	C	02/16/2025	09:00	-126.233	47.806	0	225.90	0	6.8580	0	33.9528	0	26.616	0	223.886	0	76.6	4	25.8	4	-1E+10	1	0.0657	4	0.000320	0	-1E+10	1	-1E+10	1	-1E+10	1
4902624	24	C	02/16/2025	09:00	-126.233	47.806	0	227.00	0	6.8250	0	33.9550	0	26.622	0	224.975	0	75.4	4	25.4	4	-1E+10	1	0.0542	4	0.000293	0	-1E+10	1	-1E+10	1	-1E+10	1
4902624	24	C	02/16/2025	09:00	-126.233	47.806	0	228.20	0	6.7974	0	33.9556	0	26.627	0	226.164	0	76.0	4	25.6	4	-1E+10	1	0.0511	4	0.000285	0	-1E+10	1	-1E+10	1	-1E+10	1
4902624	24	C	02/16/2025	09:00	-126.233	47.806	0	229.00	0	6.7790	0	33.9560	0	26.629	0	226.957	0	-1e10	1	-1e10	1	-1E+10	1	-1e10	1	-1e10	1	-1E+10	1	-1E+10	1	-1E+10	1
4902624	24	C	02/16/2025	09:00	-126.233	47.806	0	229.30	0	6.7777	0	33.9562	0	26.630	0	227.254	0	75.7	4	25.5	4	-1E+10	1	0.0652	4	0.000285	0	-1E+10	1	-1E+10	1	-1E+10	1
4902624	24	C	02/16/2025	09:00	-126.233	47.806	0	230.50	0	6.7727	0	33.9568	0	26.631	0	228.442	0	75.3	4	25.3	4	-1E+10	1	0.0620	4	0.000385	0	-1E+10	1	-1E+10	1	-1E+10	1
4902624	24	C	02/16/2025	09:00	-126.233	47.806	0	230.90	0	6.7710	0	33.9570	0	26.631	0	228.839	0	-1e10	1	-1e10	1	-1E+10	1	-1e10	1	-1e10	1	-1E+10	1	-1E+10	1	-1E+10	1
4902624	24	C	02/16/2025	09:00	-126.233	47.806	0	231.60	0	6.7673	0	33.9573	0	26.632	0	229.532	0	75.0	4	25.2	4	-1E+10	1	0.0511	4	0.000395	0	-1E+10	1	-1E+10	1	-1E+10	1
4902624	24	C	02/16/2025	09:00	-126.233	47.806	0	232.80	0	6.7610	0	33.9579	0	26.633	0	230.721	0	74.6	4	25.1	4	-1E+10	1	0.0537	4	0.000259	0	-1E+10	1	-1E+10	1	-1E+10	1
4902624	24	C	02/16/2025	09:00	-126.233	47.806	0	233.00	0	6.7600	0	33.9580	0	26.634	0	230.919	0	-1e10	1	-1e10	1	-1E+10	1	-1e10	1	-1e10	1	-1E+10	1	-1E+10	1	-1E+10	1
4902624	24	C	02/16/2025	09:00	-126.233	47.806	0	233.90	0	6.7506	0	33.9585	0	26.635	0	231.810	0	74.2	4	25.0	4	-1E+10	1	0.0584	4	0.000300	0	-1E+10	1	-1E+10	1	-1E+10	1
4902624	24	C	02/16/2025	09:00	-126.233	47.806	0	235.00	0	6.7390	0	33.9590	0	26.637	0	232.900	0	-1e10	1	-1e10	1	-1E+10	1	-1e10	1	-1e10	1	-1E+10	1	-1E+10	1	-1E+10	1
4902624	24	C	02/16/2025	09:00	-126.233	47.806	0	235.10	0	6.7380	0	33.9590	0	26.637	0	232.999	0	73.8	4	24.8	4	-1E+10	1	0.0584	4	0.000320	0	-1E+10	1	-1E+10	1	-1E+10	1
4902624	24	C	02/16/2025	09:00	-126.233	47.806	0	236.30	0	6.7266	0	33.9590	0	26.639	0	234.187	0	73.3	4	24.6	4	-1E+10	1	0.0584	4	0.000273	0	-1E+10	1	-1E+10	1	-1E+10	1
4902624	24	C	02/16/2025	09:00	-126.233	47.806	0	237.00	0	6.7200	0	33.9590	0	26.640	0	234.881	0	-1e10	1	-1e10	1	-1E+10	1	-1e10	1	-1e10	1	-1E+10	1	-1E+10	1	-1E+10	1
4902624	24	C	02/16/2025	09:00	-126.233	47.806	0	237.50	0	6.7172	0	33.9600	0	26.641	0	235.376	0	72.9	4	24.5	4	-1E+10	1	0.0521	4	0.000454	0	-1E+10	1	-1E+10	1	-1E+10	1
4902624	24	C	02/16/2025	09:00	-126.233	47.806	0	238.60	0	6.7112	0	33.9622	0	26.643	0	236.465	0	72.5	4	24.3	4	-1E+10	1	0.0652	4	0.000386	0	-1E+10	1	-1E+10	1	-1E+10	1
4902624	24	C	02/16/2025	09:00	-126.233	47.806	0	239.00	0	6.7090	0	33.9630	0	26.644	0	236.862	0	-1e10	1	-1e10	1	-1E+10	1	-1e10	1	-1e10	1	-1E+10	1	-1E+10	1	-1E+10	1
4902624	24	C	02/16/2025	09:00	-126.233	47.806	0	239.80	0	6.7038	0	33.9650	0	26.647	0	237.654	0	72.3	4	24.3	4	-1E+10	1	0.0602	4	0.000298	0	-1E+10	1	-1E+10	1	-1E+10	1
4902624	24	C	02/16/2025	09:00	-126.233	47.806	0	241.00	0	6.6960	0	33.9680	0	26.650	0	238.843	0	71.3	4	23.9	4	-1E+10	1	0.0474	4	0.000297	0	-1E+10	1	-1E+10	1	-1E+10	1
4902624	24	C	02/16/2025	09:00	-126.233	47.806	0	242.20	0	6.6864	0	33.9686	0	26.652	0	240.031	0	72.1	4	24.2	4	-1E+10	1	0.0464	4	0.000316	0	-1E+10	1	-1E+10	1	-1E+10	1
4902624	24	C	02/16/2025	09:00	-126.233	47.806	0	243.00	0	6.6800	0	33.9690	0	26.653	0	240.823	0	-1e10	1	-1e10	1	-1E+10	1	-1e10	1	-1e10	1	-1E+10	1	-1E+10	1	-1E+10	1
4902624	24	C	02/16/2025	09:00	-126.233	47.806	0	243.40	0	6.6747	0	33.9692	0	26.654	0	241.220	0	72.1	4	24.2	4	-1E+10	1	0.0511	4	0.000300	0	-1E+10	1	-1E+10	1	-1E+10	1
4902624	24	C	02/16/2025	09:00	-126.233	47.806	0	244.60	0	6.6589	0	33.9698	0	26.656	0	242.408	0	72.1	4	24.2	4	-1E+10	1	0.0511	4	0.000271	0	-1E+10	1	-1E+10	1	-1E+10	1
4902624	24	C	02/16/2025	09:00	-126.233	47.806	0	244.90	0	6.6550	0	33.9700	0	26.657	0	242.705	0	-1e10	1	-1e10	1	-1E+10	1	-1e10	1	-1e10	1	-1E+10	1	-1E+10	1	-1E+10	1
4902624	24	C	02/16/2025	09:00	-126.233	47.806	0	245.80	0	6.6387	0	33.9700	0	26.659	0	243.597	0	72.1	4	24.2	4	-1E+10	1	0.0511	4	0.000261	0	-1E+10	1	-1E+10	1	-1E+10	1
4902624	24	C	02/16/2025	09:00	-126.233	47.806	0	247.00	0	6.6170	0	33.9700	0	26.662	0	244.785	0	71.2	4	23.9	4	-1E+10	1	0.0511	4	0.000251	0	-1E+10	1	-1E+10	1	-1E+10	1
4902624	24	C	02/16/2025	09:00	-126.233	47.806	0	248.20	0	6.6004	0	33.9689	0	26.663	0	245.974	0	72.1	4	24.2	4	-1E+10	1	0.0572	4	0.000299	0	-1E+10	1	-1E+10	1	-1E+10	1
4902624	24	C	02/16/2025	09:00	-126.233	47.806	0	249.10	0	6.5880	0	33.9680	0	26.664	0	246.865	0	-1e10	1	-1e10	1	-1E+10	1	-1e10	1	-1e10	1	-1E+10	1	-1E+10	1	-1E+10	1
4902624	24	C	02/16/2025	09:00	-126.233	47.806	0	249.30	0	6.5844	0	33.9679	0	26.665	0	247.063	0	72.1	4	24.2	4	-1E+10	1	0.0584	4	0.000263	0	-1E+10	1	-1E+10	1	-1E+10	1
4902624	24	C	02/16/2025	09:00	-126.233	47.806	0	250.40	0	6.5647	0	33.9673	0	26.667	0	248.153	0	72.1	4	24.1	4	-1E+10	1	0.0504	4	0.000264	0	-1E+10	1	-1E+10	1	-1E+10	1
4902624	24	C	02/16/2025	09:00	-126.233	47.806	0	251.00	0	6.5540	0	33.9670	0	26.668	0	248.747	0	-1e10	1	-1e10	1	-1E+10	1	-1e10	1	-1e10	1	-1E+10	1	-1E+10	1	-1E+10	1
4902624	24	C	02/16/2025	09:00	-126.233	47.806	0	251.30	0	6.5513	0	33.9668	0	26.668	0	249.044	0	72.0	4	24.1	4	-1E+10	1	0.0503	4	0.000280	0	-1E+10	1	-1E+10	1	-1E+10	1
4902624	24	C	02/16/2025	09:00	-126.233	47.806	0	252.10	0	6.5442	0	33.9664	0	26.669	0	249.836	0	71.9	4	24.1	4	-1E+10	1	0.0560	4	0.000269	0	-1E+10	1	-1E+10	1	-1E+10	1
4902624	24	C	02/16/2025	09:00	-126.233	47.806	0	252.80	0	6.5379	0	33.9661	0	26.670	0	250.530	0	71.8	4	24.0	4	-1E+10	1	0.0511	4	0.000260	0	-1E+10	1	-1E+10	1	-1E+10	1
4902624	24	C	02/16/2025	09:00	-126.233	47.806	0	252.90	0	6.5370	0	33.9660	0	26.670	0	250.629	0	-1e10	1	-1e10	1	-1E+10	1	-1e10	1	-1e10	1	-1E+10	1	-1E+10	1	-1E+10	1
4902624	24	C	02/16/2025	09:00	-126.233	47.806	0	253.60	0	6.5283	0	33.9656	0	26.670	0	251.322	0	71.7	4	24.0	4	-1E+10	1	0.0511	4	0.000250	0	-1E+10	1	-1E+10	1	-1E+10	1
4902624	24	C	02/16/2025	09:00	-126.233	47.806	0	254.40	0	6.5182	0	33.9652	0	26.671	0	252.114	0	71.7	4	24.0	4	-1E+10	1	0.0438	4	0.000273	0	-1E+10	1	-1E+10	1	-1E+10	1
4902624	24	C	02/16/2025	09:00	-126.233	47.806	0	254.90	0	6.5120	0	33.9650	0	26.672	0	252.610	0	-1e10	1	-1e10	1	-1E+10	1	-1e10	1	-1e10	1	-1E+10	1	-1E+10	1	-1E+10	1
4902624	24	C	02/16/2025	09:00	-126.233	47.806	0	255.10	0	6.5108	0	33.9649	0	26.672	0	252.808	0	71.5	4	23.9	4	-1E+10	1	0.0495	4	0.000264	0	-1E+10	1	-1E+10	1	-1E+10	1
4902624	24	C	02/16/2025	09:00	-126.233	47.806	0	255.90	0	6.5060	0	33.9645	0	26.673	0	253.600	0	71.4	4	23.9	4	-1E+10	1	0.0462	4	0.000238	0	-1E+10	1	-1E+10	1	-1E+10	1
4902624	24	C	02/16/2025	09:00	-126.233	47.806	0	256.60	0	6.5018	0	33.9641	0	26.673	0	254.293	0	71.3	4	23.8	4	-1E+10	1	0.0474	4	0.000250	0	-1E+10	1	-1E+10	1	-1E+10	1
4902624	24	C	02/16/2025	09:00	-126.233	47.806	0	256.90	0	6.5000	0	33.9640	0	26.673	0	254.590	0	-1e10	1	-1e10	1	-1E+10	1	-1e10	1	-1e10	1	-1E+10	1	-1E+10	1	-1E+10	1
4902624	24	C	02/16/2025	09:00	-126.233	47.806	0	257.40	0	6.4933	0	33.9645	0	26.674	0	255.086	0	71.1	4	23.8	4	-1E+10	1	0.0543	4	0.000263	0	-1E+10	1	-1E+10	1	-1E+10	1
4902624	24	C	02/16/2025	09:00	-126.233	47.806	0	258.20	0	6.4827	0	33.9652	0	26.676	0	255.878	0	71.0	4	23.7	4	-1E+10	1	0.0584	4	0.000254	0	-1E+10	1	-1E+10	1	-1E+10	1
4902624	24	C	02/16/2025	09:00	-126.233	47.806	0	259.00	0	6.4720	0	33.9660	0	26.678	0	256.670	0	70.0	4	23.4	4	-1E+10	1	0.0584	4	0.000259	0	-1E+10	1	-1E+10	1	-1E+10	1
4902624	24	C	02/16/2025	09:00	-126.233	47.806	0	259.80	0	6.4504	0	33.9664	0	26.681	0	257.463	0	70.9	4	23.7	4	-1E+10	1	0.0560	4	0.000250	0	-1E+10	1	-1E+10	1	-1E+10	1
4902624	24	C	02/16/2025	09:00	-126.233	47.806	0	260.60	0	6.4288	0	33.9668	0	26.684	0	258.255	0	70.8	4	23.6	4	-1E+10	1	0.0365	4	0.000250	0	-1E+10	1	-1E+10	1	-1E+10	1
4902624	24	C	02/16/2025	09:00	-126.233	47.806	0	261.00	0	6.4180	0	33.9670	0	26.686	0	258.651	0	-1e10	1	-1e10	1	-1E+10	1	-1e10	1	-1e10	1	-1E+10	1	-1E+10	1	-1E+10	1
4902624	24	C	02/16/2025	09:00	-126.233	47.806	0	261.40	0	6.4098	0	33.9668	0	26.687	0	259.047	0	70.8	4	23.6	4	-1E+10	1	0.0540	4	0.000250	0	-1E+10	1	-1E+10	1	-1E+10	1
4902624	24	C	02/16/2025	09:00	-126.233	47.806	0	262.20	0	6.3934	0	33.9664	0	26.689	0	259.839	0	70.7	4	23.6	4	-1E+10	1	0.0529	4	0.000258	0	-1E+10	1	-1E+10	1	-1E+10	1
4902624	24	C	02/16/2025	09:00	-126.233	47.806	0	262.90	0	6.3790	0	33.9660	0	26.690	0	260.533	0	-1e10	1	-1e10	1	-1E+10	1	-1e10	1	-1e10	1	-1E+10	1	-1E+10	1	-1E+10	1
4902624	24	C	02/16/2025	09:00	-126.233	47.806	0	263.10	0	6.3753	0	33.9659	0	26.691	0	260.731	0	70.7	4	23.6	4	-1E+10	1	0.0562	4	0.000261	0	-1E+10	1	-1E+10	1	-1E+10	1
4902624	24	C	02/16/2025	09:00	-126.233	47.806	0	263.90	0	6.3605	0	33.9655	0	26.692	0	261.523	0	70.6	4	23.5	4	-1E+10	1	0.0511	4	0.000244	0	-1E+10	1	-1E+10	1	-1E+10	1
4902624	24	C	02/16/2025	09:00	-126.233	47.806	0	264.70	0	6.3457	0	33.9651	0	26.694	0	262.315	0	70.5	4	23.5	4	-1E+10	1	0.0411	4	0.000235	0	-1E+10	1	-1E+10	1	-1E+10	1
4902624	24	C	02/16/2025	09:00	-126.233	47.806	0	264.90	0	6.3420	0	33.9650	0	26.694	0	262.513	0	-1e10	1	-1e10	1	-1E+10	1	-1e10	1	-1e10	1	-1E+10	1	-1E+10	1	-1E+10	1
4902624	24	C	02/16/2025	09:00	-126.233	47.806	0	265.60	0	6.3410	0	33.9646	0	26.694	0	263.207	0	70.4	4	23.5	4	-1E+10	1	0.0482	4	0.000240	0	-1E+10	1	-1E+10	1	-1E+10	1
4902624	24	C	02/16/2025	09:00	-126.233	47.806	0	266.40	0	6.3398	0	33.9642	0	26.694	0	263.999	0	70.3	4	23.4	4	-1E+10	1	0.0630	4	0.000228	0	-1E+10	1	-1E+10	1	-1E+10	1
4902624	24	C	02/16/2025	09:00	-126.233	47.806	0	266.90	0	6.3390	0	33.9640	0	26.694	0	264.494	0	-1e10	1	-1e10	1	-1E+10	1	-1e10	1	-1e10	1	-1E+10	1	-1E+10	1	-1E+10	1
4902624	24	C	02/16/2025	09:00	-126.233	47.806	0	267.30	0	6.3354	0	33.9640	0	26.694	0	264.890	0	70.2	4	23.4	4	-1E+10	1	0.0511	4	0.000238	0	-1E+10	1	-1E+10	1	-1E+10	1
4902624	24	C	02/16/2025	09:00	-126.233	47.806	0	268.10	0	6.3281	0	33.9640	0	26.695	0	265.683	0	70.1	4	23.4	4	-1E+10	1	0.0511	4	0.000250	0	-1E+10	1	-1E+10	1	-1E+10	1
4902624	24	C	02/16/2025	09:00	-126.233	47.806	0	268.90	0	6.3209	0	33.9640	0	26.696	0	266.475	0	70.0	4	23.3	4	-1E+10	1	0.0511	4	0.000240	0	-1E+10	1	-1E+10	1	-1E+10	1
4902624	24	C	02/16/2025	09:00	-126.233	47.806	0	269.00	0	6.3200	0	33.9640	0	26.696	0	266.574	0	-1e10	1	-1e10	1	-1E+10	1	-1e10	1	-1e10	1	-1E+10	1	-1E+10	1	-1E+10	1
4902624	24	C	02/16/2025	09:00	-126.233	47.806	0	269.70	0	6.3127	0	33.9636	0	26.697	0	267.267	0	69.9	4	23.3	4	-1E+10	1	0.0414	4	0.000238	0	-1E+10	1	-1E+10	1	-1E+10	1
4902624	24	C	02/16/2025	09:00	-126.233	47.806	0	270.50	0	6.3042	0	33.9632	0	26.698	0	268.059	0	69.8	4	23.2	4	-1E+10	1	0.0446	4	0.000244	0	-1E+10	1	-1E+10	1	-1E+10	1
4902624	24	C	02/16/2025	09:00	-126.233	47.806	0	271.00	0	6.2990	0	33.9630	0	26.698	0	268.554	0	-1e10	1	-1e10	1	-1E+10	1	-1e10	1	-1e10	1	-1E+10	1	-1E+10	1	-1E+10	1
4902624	24	C	02/16/2025	09:00	-126.233	47.806	0	271.30	0	6.2957	0	33.9630	0	26.699	0	268.852	0	69.7	4	23.2	4	-1E+10	1	0.0543	4	0.000250	0	-1E+10	1	-1E+10	1	-1E+10	1
4902624	24	C	02/16/2025	09:00	-126.233	47.806	0	272.20	0	6.2858	0	33.9630	0	26.700	0	269.743	0	69.5	4	23.1	4	-1E+10	1	0.0526	4	0.000273	0	-1E+10	1	-1E+10	1	-1E+10	1
4902624	24	C	02/16/2025	09:00	-126.233	47.806	0	273.00	0	6.2770	0	33.9630	0	26.701	0	270.535	0	68.5	4	22.8	4	-1E+10	1	0.0438	4	0.000290	0	-1E+10	1	-1E+10	1	-1E+10	1
4902624	24	C	02/16/2025	09:00	-126.233	47.806	0	273.90	0	6.2680	0	33.9625	0	26.702	0	271.426	0	69.1	4	23.0	4	-1E+10	1	0.0467	4	0.000233	0	-1E+10	1	-1E+10	1	-1E+10	1
4902624	24	C	02/16/2025	09:00	-126.233	47.806	0	274.70	0	6.2600	0	33.9621	0	26.703	0	272.219	0	68.9	4	22.9	4	-1E+10	1	0.0584	4	0.000261	0	-1E+10	1	-1E+10	1	-1E+10	1
4902624	24	C	02/16/2025	09:00	-126.233	47.806	0	274.90	0	6.2580	0	33.9620	0	26.703	0	272.417	0	-1e10	1	-1e10	1	-1E+10	1	-1e10	1	-1e10	1	-1E+10	1	-1E+10	1	-1E+10	1
4902624	24	C	02/16/2025	09:00	-126.233	47.806	0	275.60	0	6.2463	0	33.9623	0	26.705	0	273.110	0	68.7	4	22.8	4	-1E+10	1	0.0518	4	0.000251	0	-1E+10	1	-1E+10	1	-1E+10	1
4902624	24	C	02/16/2025	09:00	-126.233	47.806	0	276.40	0	6.2330	0	33.9627	0	26.707	0	273.902	0	68.5	4	22.8	4	-1E+10	1	0.0511	4	0.000231	0	-1E+10	1	-1E+10	1	-1E+10	1
4902624	24	C	02/16/2025	09:00	-126.233	47.806	0	277.00	0	6.2230	0	33.9630	0	26.708	0	274.496	0	-1e10	1	-1e10	1	-1E+10	1	-1e10	1	-1e10	1	-1E+10	1	-1E+10	1	-1E+10	1
4902624	24	C	02/16/2025	09:00	-126.233	47.806	0	277.30	0	6.2174	0	33.9631	0	26.709	0	274.793	0	68.3	4	22.7	4	-1E+10	1	0.0511	4	0.000242	0	-1E+10	1	-1E+10	1	-1E+10	1
4902624	24	C	02/16/2025	09:00	-126.233	47.806	0	278.20	0	6.2007	0	33.9636	0	26.711	0	275.685	0	68.0	4	22.6	4	-1E+10	1	0.0471	4	0.000256	0	-1E+10	1	-1E+10	1	-1E+10	1
4902624	24	C	02/16/2025	09:00	-126.233	47.806	0	279.00	0	6.1859	0	33.9640	0	26.714	0	276.477	0	67.8	4	22.5	4	-1E+10	1	0.0462	4	0.000249	0	-1E+10	1	-1E+10	1	-1E+10	1
4902624	24	C	02/16/2025	09:00	-126.233	47.806	0	279.10	0	6.1840	0	33.9640	0	26.714	0	276.576	0	-1e10	1	-1e10	1	-1E+10	1	-1e10	1	-1e10	1	-1E+10	1	-1E+10	1	-1E+10	1
4902624	24	C	02/16/2025	09:00	-126.233	47.806	0	279.90	0	6.1752	0	33.9644	0	26.715	0	277.368	0	67.5	4	22.4	4	-1E+10	1	0.0489	4	0.000230	0	-1E+10	1	-1E+10	1	-1E+10	1
4902624	24	C	02/16/2025	09:00	-126.233	47.806	0	280.80	0	6.1652	0	33.9649	0	26.717	0	278.259	0	67.3	4	22.3	4	-1E+10	1	0.0478	4	0.000236	0	-1E+10	1	-1E+10	1	-1E+10	1
4902624	24	C	02/16/2025	09:00	-126.233	47.806	0	281.00	0	6.1630	0	33.9650	0	26.717	0	278.458	0	-1e10	1	-1e10	1	-1E+10	1	-1e10	1	-1e10	1	-1E+10	1	-1E+10	1	-1E+10	1
4902624	24	C	02/16/2025	09:00	-126.233	47.806	0	281.70	0	6.1585	0	33.9654	0	26.718	0	279.151	0	67.0	4	22.2	4	-1E+10	1	0.0657	4	0.000226	0	-1E+10	1	-1E+10	1	-1E+10	1
4902624	24	C	02/16/2025	09:00	-126.233	47.806	0	282.50	0	6.1533	0	33.9658	0	26.719	0	279.943	0	66.7	4	22.1	4	-1E+10	1	0.0438	4	0.000249	0	-1E+10	1	-1E+10	1	-1E+10	1
4902624	24	C	02/16/2025	09:00	-126.233	47.806	0	283.00	0	6.1500	0	33.9660	0	26.720	0	280.438	0	-1e10	1	-1e10	1	-1E+10	1	-1e10	1	-1e10	1	-1E+10	1	-1E+10	1	-1E+10	1
4902624	24	C	02/16/2025	09:00	-126.233	47.806	0	283.40	0	6.1394	0	33.9664	0	26.722	0	280.834	0	66.5	4	22.0	4	-1E+10	1	0.0498	4	0.000269	0	-1E+10	1	-1E+10	1	-1E+10	1
4902624	24	C	02/16/2025	09:00	-126.233	47.806	0	284.30	0	6.1156	0	33.9673	0	26.725	0	281.725	0	66.2	4	22.0	4	-1E+10	1	0.0511	4	0.000295	0	-1E+10	1	-1E+10	1	-1E+10	1
4902624	24	C	02/16/2025	09:00	-126.233	47.806	0	285.00	0	6.0970	0	33.9680	0	26.728	0	282.419	0	-1e10	1	-1e10	1	-1E+10	1	-1e10	1	-1e10	1	-1E+10	1	-1E+10	1	-1E+10	1
4902624	24	C	02/16/2025	09:00	-126.233	47.806	0	285.20	0	6.0952	0	33.9679	0	26.728	0	282.617	0	66.0	4	21.9	4	-1E+10	1	0.0648	4	0.000286	0	-1E+10	1	-1E+10	1	-1E+10	1
4902624	24	C	02/16/2025	09:00	-126.233	47.806	0	286.10	0	6.0871	0	33.9674	0	26.729	0	283.508	0	65.7	4	21.8	4	-1E+10	1	0.0611	4	0.000292	0	-1E+10	1	-1E+10	1	-1E+10	1
4902624	24	C	02/16/2025	09:00	-126.233	47.806	0	286.90	0	6.0799	0	33.9670	0	26.730	0	284.300	0	65.5	4	21.7	4	-1E+10	1	0.0511	4	0.000695	0	-1E+10	1	-1E+10	1	-1E+10	1
4902624	24	C	02/16/2025	09:00	-126.233	47.806	0	287.00	0	6.0790	0	33.9670	0	26.730	0	284.399	0	-1e10	1	-1e10	1	-1E+10	1	-1e10	1	-1e10	1	-1E+10	1	-1E+10	1	-1E+10	1
4902624	24	C	02/16/2025	09:00	-126.233	47.806	0	287.80	0	6.0756	0	33.9678	0	26.731	0	285.191	0	65.2	4	21.6	4	-1E+10	1	0.0511	4	0.001296	0	-1E+10	1	-1E+10	1	-1E+10	1
4902624	24	C	02/16/2025	09:00	-126.233	47.806	0	288.70	0	6.0717	0	33.9686	0	26.732	0	286.083	0	64.9	4	21.5	4	-1E+10	1	0.0484	4	0.000242	0	-1E+10	1	-1E+10	1	-1E+10	1
4902624	24	C	02/16/2025	09:00	-126.233	47.806	0	289.10	0	6.0700	0	33.9690	0	26.732	0	286.479	0	-1e10	1	-1e10	1	-1E+10	1	-1e10	1	-1e10	1	-1E+10	1	-1E+10	1	-1E+10	1
4902624	24	C	02/16/2025	09:00	-126.233	47.806	0	289.60	0	6.0697	0	33.9693	0	26.733	0	286.974	0	64.6	4	21.4	4	-1E+10	1	0.0365	4	0.000261	0	-1E+10	1	-1E+10	1	-1E+10	1
4902624	24	C	02/16/2025	09:00	-126.233	47.806	0	290.50	0	6.0693	0	33.9697	0	26.733	0	287.865	0	64.2	4	21.3	4	-1E+10	1	0.0431	4	0.000198	0	-1E+10	1	-1E+10	1	-1E+10	1
4902624	24	C	02/16/2025	09:00	-126.233	47.806	0	291.00	0	6.0690	0	33.9700	0	26.733	0	288.360	0	-1e10	1	-1e10	1	-1E+10	1	-1e10	1	-1e10	1	-1E+10	1	-1E+10	1	-1E+10	1
4902624	24	C	02/16/2025	09:00	-126.233	47.806	0	291.30	0	6.0690	0	33.9705	0	26.734	0	288.657	0	64.0	4	21.2	4	-1E+10	1	0.0381	4	0.000245	0	-1E+10	1	-1E+10	1	-1E+10	1
4902624	24	C	02/16/2025	09:00	-126.233	47.806	0	292.20	0	6.0690	0	33.9718	0	26.735	0	289.548	0	63.8	4	21.1	4	-1E+10	1	0.0592	4	0.000206	0	-1E+10	1	-1E+10	1	-1E+10	1
4902624	24	C	02/16/2025	09:00	-126.233	47.806	0	293.00	0	6.0690	0	33.9730	0	26.736	0	290.341	0	-1e10	1	-1e10	1	-1E+10	1	-1e10	1	-1e10	1	-1E+10	1	-1E+10	1	-1E+10	1
4902624	24	C	02/16/2025	09:00	-126.233	47.806	0	293.10	0	6.0682	0	33.9730	0	26.736	0	290.440	0	63.5	4	21.0	4	-1E+10	1	0.0555	4	0.000174	0	-1E+10	1	-1E+10	1	-1E+10	1
4902624	24	C	02/16/2025	09:00	-126.233	47.806	0	294.00	0	6.0610	0	33.9730	0	26.737	0	291.331	0	63.3	4	20.9	4	-1E+10	1	0.0560	4	0.000206	0	-1E+10	1	-1E+10	1	-1E+10	1
4902624	24	C	02/16/2025	09:00	-126.233	47.806	0	294.80	0	6.0546	0	33.9730	0	26.738	0	292.123	0	62.9	4	20.8	4	-1E+10	1	0.0548	4	0.000243	0	-1E+10	1	-1E+10	1	-1E+10	1
4902624	24	C	02/16/2025	09:00	-126.233	47.806	0	295.00	0	6.0530	0	33.9730	0	26.738	0	292.321	0	-1e10	1	-1e10	1	-1E+10	1	-1e10	1	-1e10	1	-1E+10	1	-1E+10	1	-1E+10	1
4902624	24	C	02/16/2025	09:00	-126.233	47.806	0	295.70	0	6.0439	0	33.9730	0	26.739	0	293.014	0	62.6	4	20.7	4	-1E+10	1	0.0511	4	0.000253	0	-1E+10	1	-1E+10	1	-1E+10	1
4902624	24	C	02/16/2025	09:00	-126.233	47.806	0	296.80	0	6.0296	0	33.9730	0	26.741	0	294.103	0	62.2	4	20.6	4	-1E+10	1	0.0511	4	0.000238	0	-1E+10	1	-1E+10	1	-1E+10	1
4902624	24	C	02/16/2025	09:00	-126.233	47.806	0	297.00	0	6.0270	0	33.9730	0	26.741	0	294.301	0	-1e10	1	-1e10	1	-1E+10	1	-1e10	1	-1e10	1	-1E+10	1	-1E+10	1	-1E+10	1
4902624	24	C	02/16/2025	09:00	-126.233	47.806	0	299.00	0	5.9990	0	33.9750	0	26.746	0	296.282	0	-1e10	1	-1e10	1	-1E+10	1	-1e10	1	-1e10	1	-1E+10	1	-1E+10	1	-1E+10	1
4902624	24	C	02/16/2025	09:00	-126.233	47.806	0	305.00	0	5.9600	0	33.9790	0	26.754	0	302.223	0	-1e10	1	-1e10	1	-1E+10	1	-1e10	1	-1e10	1	-1E+10	1	-1E+10	1	-1E+10	1
4902624	24	C	02/16/2025	09:00	-126.233	47.806	0	305.50	0	5.9560	0	33.9797	0	26.755	0	302.718	0	59.2	4	19.6	4	-1E+10	1	0.0506	4	0.000248	0	-1E+10	1	-1E+10	1	-1E+10	1
4902624	24	C	02/16/2025	09:00	-126.233	47.806	0	314.60	0	5.8842	0	33.9924	0	26.774	0	311.728	0	54.5	4	18.0	4	-1E+10	1	0.0371	4	0.000201	0	-1E+10	1	-1E+10	1	-1E+10	1
4902624	24	C	02/16/2025	09:00	-126.233	47.806	0	315.00	0	5.8810	0	33.9930	0	26.775	0	312.124	0	-1e10	1	-1e10	1	-1E+10	1	-1e10	1	-1e10	1	-1E+10	1	-1E+10	1	-1E+10	1
4902624	24	C	02/16/2025	09:00	-126.233	47.806	0	323.70	0	5.8309	0	34.0035	0	26.790	0	320.738	0	51.4	4	16.9	4	-1E+10	1	0.0511	4	0.000169	0	-1E+10	1	-1E+10	1	-1E+10	1
4902624	24	C	02/16/2025	09:00	-126.233	47.806	0	324.90	0	5.8240	0	34.0050	0	26.792	0	321.926	0	-1e10	1	-1e10	1	-1E+10	1	-1e10	1	-1e10	1	-1E+10	1	-1E+10	1	-1E+10	1
4902624	24	C	02/16/2025	09:00	-126.233	47.806	0	332.80	0	5.7766	0	34.0097	0	26.802	0	329.748	0	49.0	4	16.1	4	-1E+10	1	0.0513	4	0.000226	0	-1E+10	1	-1E+10	1	-1E+10	1
4902624	24	C	02/16/2025	09:00	-126.233	47.806	0	334.90	0	5.7640	0	34.0110	0	26.804	0	331.827	0	-1e10	1	-1e10	1	-1E+10	1	-1e10	1	-1e10	1	-1E+10	1	-1E+10	1	-1E+10	1
4902624	24	C	02/16/2025	09:00	-126.233	47.806	0	342.40	0	5.7362	0	34.0155	0	26.811	0	339.252	0	46.8	4	15.4	4	-1E+10	1	0.0584	4	0.000247	0	-1E+10	1	-1E+10	1	-1E+10	1
4902624	24	C	02/16/2025	09:00	-126.233	47.806	0	344.90	0	5.7270	0	34.0170	0	26.813	0	341.727	0	-1e10	1	-1e10	1	-1E+10	1	-1e10	1	-1e10	1	-1E+10	1	-1E+10	1	-1E+10	1
4902624	24	C	02/16/2025	09:00	-126.233	47.806	0	352.10	0	5.6800	0	34.0220	0	26.823	0	348.854	0	44.8	4	14.7	4	-1E+10	1	0.0578	4	0.000193	0	-1E+10	1	-1E+10	1	-1E+10	1
4902624	24	C	02/16/2025	09:00	-126.233	47.806	0	355.00	0	5.6610	0	34.0240	0	26.827	0	351.725	0	-1e10	1	-1e10	1	-1E+10	1	-1e10	1	-1e10	1	-1E+10	1	-1E+10	1	-1E+10	1
4902624	24	C	02/16/2025	09:00	-126.233	47.806	0	362.10	0	5.6146	0	34.0289	0	26.837	0	358.754	0	43.0	4	14.1	4	-1E+10	1	0.0438	4	0.000247	0	-1E+10	1	-1E+10	1	-1E+10	1
4902624	24	C	02/16/2025	09:00	-126.233	47.806	0	365.10	0	5.5950	0	34.0310	0	26.841	0	361.723	0	-1e10	1	-1e10	1	-1E+10	1	-1e10	1	-1e10	1	-1E+10	1	-1E+10	1	-1E+10	1
4902624	24	C	02/16/2025	09:00	-126.233	47.806	0	372.30	0	5.5540	0	34.0353	0	26.849	0	368.850	0	41.0	4	13.4	4	-1E+10	1	0.0441	4	0.000214	0	-1E+10	1	-1E+10	1	-1E+10	1
4902624	24	C	02/16/2025	09:00	-126.233	47.806	0	375.10	0	5.5380	0	34.0370	0	26.852	0	371.622	0	-1e10	1	-1e10	1	-1E+10	1	-1e10	1	-1e10	1	-1E+10	1	-1E+10	1	-1E+10	1
4902624	24	C	02/16/2025	09:00	-126.233	47.806	0	382.60	0	5.4842	0	34.0408	0	26.862	0	379.045	0	39.4	4	12.9	4	-1E+10	1	0.0508	4	0.000224	0	-1E+10	1	-1E+10	1	-1E+10	1
4902624	24	C	02/16/2025	09:00	-126.233	47.806	0	385.00	0	5.4670	0	34.0420	0	26.865	0	381.421	0	-1e10	1	-1e10	1	-1E+10	1	-1e10	1	-1e10	1	-1E+10	1	-1E+10	1	-1E+10	1
4902624	24	C	02/16/2025	09:00	-126.233	47.806	0	393.40	0	5.3959	0	34.0454	0	26.876	0	389.735	0	37.8	4	12.3	4	-1E+10	1	0.0445	4	0.000201	0	-1E+10	1	-1E+10	1	-1E+10	1
4902624	24	C	02/16/2025	09:00	-126.233	47.806	0	394.80	0	5.3840	0	34.0460	0	26.878	0	391.121	0	-1e10	1	-1e10	1	-1E+10	1	-1e10	1	-1e10	1	-1E+10	1	-1E+10	1	-1E+10	1
4902624	24	C	02/16/2025	09:00	-126.233	47.806	0	404.40	0	5.3274	0	34.0518	0	26.889	0	400.622	0	35.4	4	11.5	4	-1E+10	1	0.0584	4	0.000190	0	-1E+10	1	-1E+10	1	-1E+10	1
4902624	24	C	02/16/2025	09:00	-126.233	47.806	0	404.80	0	5.3250	0	34.0520	0	26.890	0	401.018	0	-1e10	1	-1e10	1	-1E+10	1	-1e10	1	-1e10	1	-1E+10	1	-1E+10	1	-1E+10	1
4902624	24	C	02/16/2025	09:00	-126.233	47.806	0	415.00	0	5.2590	0	34.0610	0	26.905	0	411.112	0	-1e10	1	-1e10	1	-1E+10	1	-1e10	1	-1e10	1	-1E+10	1	-1E+10	1	-1E+10	1
4902624	24	C	02/16/2025	09:00	-126.233	47.806	0	415.90	0	5.2561	0	34.0614	0	26.905	0	412.003	0	34.0	4	11.0	4	-1E+10	1	0.0584	4	0.000189	0	-1E+10	1	-1E+10	1	-1E+10	1
4902624	24	C	02/16/2025	09:00	-126.233	47.806	0	425.30	0	5.2260	0	34.0650	0	26.912	0	421.305	0	-1e10	1	-1e10	1	-1E+10	1	-1e10	1	-1e10	1	-1E+10	1	-1E+10	1	-1E+10	1
4902624	24	C	02/16/2025	09:00	-126.233	47.806	0	427.80	0	5.2125	0	34.0672	0	26.915	0	423.779	0	32.2	4	10.4	4	-1E+10	1	0.0581	4	0.000178	0	-1E+10	1	-1E+10	1	-1E+10	1
4902624	24	C	02/16/2025	09:00	-126.233	47.806	0	435.30	0	5.1720	0	34.0740	0	26.925	0	431.201	0	-1e10	1	-1e10	1	-1E+10	1	-1e10	1	-1e10	1	-1E+10	1	-1E+10	1	-1E+10	1
4902624	24	C	02/16/2025	09:00	-126.233	47.806	0	440.00	0	5.1531	0	34.0769	0	26.930	0	435.852	0	30.2	4	9.8	4	-1E+10	1	0.0514	4	0.000189	0	-1E+10	1	-1E+10	1	-1E+10	1
4902624	24	C	02/16/2025	09:00	-126.233	47.806	0	445.00	0	5.1330	0	34.0800	0	26.935	0	440.799	0	-1e10	1	-1e10	1	-1E+10	1	-1e10	1	-1e10	1	-1E+10	1	-1E+10	1	-1E+10	1
4902624	24	C	02/16/2025	09:00	-126.233	47.806	0	452.20	0	5.1055	0	34.0842	0	26.941	0	447.924	0	28.7	4	9.3	4	-1E+10	1	0.0584	4	0.000179	0	-1E+10	1	-1E+10	1	-1E+10	1
4902624	24	C	02/16/2025	09:00	-126.233	47.806	0	455.20	0	5.0940	0	34.0860	0	26.944	0	450.892	0	-1e10	1	-1e10	1	-1E+10	1	-1e10	1	-1e10	1	-1E+10	1	-1E+10	1	-1E+10	1
4902624	24	C	02/16/2025	09:00	-126.233	47.806	0	464.40	0	5.0462	0	34.0943	0	26.956	0	459.995	0	27.0	4	8.7	4	-1E+10	1	0.0581	4	0.000201	0	-1E+10	1	-1E+10	1	-1E+10	1
4902624	24	C	02/16/2025	09:00	-126.233	47.806	0	465.20	0	5.0420	0	34.0950	0	26.957	0	460.786	0	-1e10	1	-1e10	1	-1E+10	1	-1e10	1	-1e10	1	-1E+10	1	-1E+10	1	-1E+10	1
4902624	24	C	02/16/2025	09:00	-126.233	47.806	0	475.20	0	5.0160	0	34.1010	0	26.965	0	470.680	0	-1e10	1	-1e10	1	-1E+10	1	-1e10	1	-1e10	1	-1E+10	1	-1E+10	1	-1E+10	1
4902624	24	C	02/16/2025	09:00	-126.233	47.806	0	476.60	0	5.0106	0	34.1017	0	26.966	0	472.065	0	25.6	4	8.3	4	-1E+10	1	0.0513	4	0.000201	0	-1E+10	1	-1E+10	1	-1E+10	1
4902624	24	C	02/16/2025	09:00	-126.233	47.806	0	485.10	0	4.9780	0	34.1060	0	26.973	0	480.474	0	-1e10	1	-1e10	1	-1E+10	1	-1e10	1	-1e10	1	-1E+10	1	-1E+10	1	-1E+10	1
4902624	24	C	02/16/2025	09:00	-126.233	47.806	0	489.10	0	4.9644	0	34.1080	0	26.977	0	484.432	0	24.3	4	7.9	4	-1E+10	1	0.0584	4	0.000189	0	-1E+10	1	-1E+10	1	-1E+10	1
4902624	24	C	02/16/2025	09:00	-126.233	47.806	0	495.10	0	4.9440	0	34.1110	0	26.981	0	490.367	0	-1e10	1	-1e10	1	-1E+10	1	-1e10	1	-1e10	1	-1E+10	1	-1E+10	1	-1E+10	1
4902624	24	C	02/16/2025	09:00	-126.233	47.806	0	501.60	0	4.9212	0	34.1149	0	26.987	0	496.797	0	23.0	4	7.4	4	-1E+10	1	0.0584	4	0.000177	0	-1E+10	1	-1E+10	1	-1E+10	1
4902624	24	C	02/16/2025	09:00	-126.233	47.806	0	505.10	0	4.9090	0	34.1170	0	26.990	0	500.260	0	-1e10	1	-1e10	1	-1E+10	1	-1e10	1	-1e10	1	-1E+10	1	-1E+10	1	-1E+10	1
4902624	24	C	02/16/2025	09:00	-126.233	47.806	0	513.90	0	4.8797	0	34.1232	0	26.998	0	508.965	0	21.6	4	7.0	4	-1E+10	1	0.0582	4	0.000176	0	-1E+10	1	-1E+10	1	-1E+10	1
4902624	24	C	02/16/2025	09:00	-126.233	47.806	0	515.00	0	4.8760	0	34.1240	0	27.000	0	510.053	0	-1e10	1	-1e10	1	-1E+10	1	-1e10	1	-1e10	1	-1E+10	1	-1E+10	1	-1E+10	1
4902624	24	C	02/16/2025	09:00	-126.233	47.806	0	525.20	0	4.8390	0	34.1310	0	27.009	0	520.142	0	-1e10	1	-1e10	1	-1E+10	1	-1e10	1	-1e10	1	-1E+10	1	-1E+10	1	-1E+10	1
4902624	24	C	02/16/2025	09:00	-126.233	47.806	0	526.10	0	4.8347	0	34.1315	0	27.010	0	521.032	0	20.4	4	6.6	4	-1E+10	1	0.0508	4	0.000143	0	-1E+10	1	-1E+10	1	-1E+10	1
4902624	24	C	02/16/2025	09:00	-126.233	47.806	0	535.10	0	4.7920	0	34.1370	0	27.019	0	529.934	0	-1e10	1	-1e10	1	-1E+10	1	-1e10	1	-1e10	1	-1E+10	1	-1E+10	1	-1E+10	1
4902624	24	C	02/16/2025	09:00	-126.233	47.806	0	538.20	0	4.7817	0	34.1386	0	27.022	0	533.000	0	19.4	4	6.3	4	-1E+10	1	0.0442	4	0.000177	0	-1E+10	1	-1E+10	1	-1E+10	1
4902624	24	C	02/16/2025	09:00	-126.233	47.806	0	545.00	0	4.7590	0	34.1420	0	27.027	0	539.726	0	-1e10	1	-1e10	1	-1E+10	1	-1e10	1	-1e10	1	-1E+10	1	-1E+10	1	-1E+10	1
4902624	24	C	02/16/2025	09:00	-126.233	47.806	0	546.40	0	4.7513	0	34.1433	0	27.029	0	541.110	0	18.5	4	5.9	4	-1E+10	1	0.0511	4	0.000177	0	-1E+10	1	-1E+10	1	-1E+10	1
4902624	24	C	02/16/2025	09:00	-126.233	47.806	0	554.50	0	4.7067	0	34.1506	0	27.040	0	549.121	0	17.6	4	5.7	4	-1E+10	1	0.0514	4	0.000177	0	-1E+10	1	-1E+10	1	-1E+10	1
4902624	24	C	02/16/2025	09:00	-126.233	47.806	0	555.00	0	4.7040	0	34.1510	0	27.040	0	549.616	0	-1e10	1	-1e10	1	-1E+10	1	-1e10	1	-1e10	1	-1E+10	1	-1E+10	1	-1E+10	1
4902624	24	C	02/16/2025	09:00	-126.233	47.806	0	562.70	0	4.6760	0	34.1564	0	27.048	0	557.231	0	16.8	4	5.4	4	-1E+10	1	0.0587	4	0.000176	0	-1E+10	1	-1E+10	1	-1E+10	1
4902624	24	C	02/16/2025	09:00	-126.233	47.806	0	564.90	0	4.6680	0	34.1580	0	27.050	0	559.406	0	-1e10	1	-1e10	1	-1E+10	1	-1e10	1	-1e10	1	-1E+10	1	-1E+10	1	-1E+10	1
4902624	24	C	02/16/2025	09:00	-126.233	47.806	0	571.00	0	4.6393	0	34.1635	0	27.058	0	565.439	0	15.9	4	5.1	4	-1E+10	1	0.0652	4	0.000165	0	-1E+10	1	-1E+10	1	-1E+10	1
4902624	24	C	02/16/2025	09:00	-126.233	47.806	0	574.90	0	4.6210	0	34.1670	0	27.062	0	569.295	0	-1e10	1	-1e10	1	-1E+10	1	-1e10	1	-1e10	1	-1E+10	1	-1E+10	1	-1E+10	1
4902624	24	C	02/16/2025	09:00	-126.233	47.806	0	579.70	0	4.6096	0	34.1703	0	27.066	0	574.042	0	15.2	4	4.9	4	-1E+10	1	0.0513	4	0.000165	0	-1E+10	1	-1E+10	1	-1E+10	1
4902624	24	C	02/16/2025	09:00	-126.233	47.806	0	585.00	0	4.5970	0	34.1740	0	27.071	0	579.283	0	-1e10	1	-1e10	1	-1E+10	1	-1e10	1	-1e10	1	-1E+10	1	-1E+10	1	-1E+10	1
4902624	24	C	02/16/2025	09:00	-126.233	47.806	0	588.90	0	4.5834	0	34.1767	0	27.074	0	583.139	0	14.4	4	4.6	4	-1E+10	1	0.0581	4	0.000165	0	-1E+10	1	-1E+10	1	-1E+10	1
4902624	24	C	02/16/2025	09:00	-126.233	47.806	0	595.00	0	4.5620	0	34.1810	0	27.080	0	589.171	0	-1e10	1	-1e10	1	-1E+10	1	-1e10	1	-1e10	1	-1E+10	1	-1E+10	1	-1E+10	1
4902624	24	C	02/16/2025	09:00	-126.233	47.806	0	598.60	0	4.5532	0	34.1876	0	27.086	0	592.730	0	13.2	4	4.2	4	-1E+10	1	0.0514	4	0.000164	0	-1E+10	1	-1E+10	1	-1E+10	1
4902624	24	C	02/16/2025	09:00	-126.233	47.806	0	604.80	0	4.5380	0	34.1990	0	27.097	0	598.861	0	-1e10	1	-1e10	1	-1E+10	1	-1e10	1	-1e10	1	-1E+10	1	-1E+10	1	-1E+10	1
4902624	24	C	02/16/2025	09:00	-126.233	47.806	0	608.40	0	4.5312	0	34.2019	0	27.100	0	602.420	0	12.4	4	4.0	4	-1E+10	1	0.0582	4	0.000154	0	-1E+10	1	-1E+10	1	-1E+10	1
4902624	24	C	02/16/2025	09:00	-126.233	47.806	0	614.90	0	4.5190	0	34.2070	0	27.106	0	608.847	0	-1e10	1	-1e10	1	-1E+10	1	-1e10	1	-1e10	1	-1E+10	1	-1E+10	1	-1E+10	1
4902624	24	C	02/16/2025	09:00	-126.233	47.806	0	618.70	0	4.5131	0	34.2092	0	27.108	0	612.604	0	11.9	4	3.8	4	-1E+10	1	0.0514	4	0.000188	0	-1E+10	1	-1E+10	1	-1E+10	1
4902624	24	C	02/16/2025	09:00	-126.233	47.806	0	625.20	0	4.5030	0	34.2130	0	27.112	0	619.030	0	-1e10	1	-1e10	1	-1E+10	1	-1e10	1	-1e10	1	-1E+10	1	-1E+10	1	-1E+10	1
4902624	24	C	02/16/2025	09:00	-126.233	47.806	0	629.40	0	4.4951	0	34.2156	0	27.115	0	623.182	0	11.5	4	3.7	4	-1E+10	1	0.0591	4	0.000177	0	-1E+10	1	-1E+10	1	-1E+10	1
4902624	24	C	02/16/2025	09:00	-126.233	47.806	0	634.80	0	4.4850	0	34.2190	0	27.119	0	628.521	0	-1e10	1	-1e10	1	-1E+10	1	-1e10	1	-1e10	1	-1E+10	1	-1E+10	1	-1E+10	1
4902624	24	C	02/16/2025	09:00	-126.233	47.806	0	640.50	0	4.4696	0	34.2236	0	27.124	0	634.156	0	10.9	4	3.5	4	-1E+10	1	0.0720	4	0.000189	0	-1E+10	1	-1E+10	1	-1E+10	1
4902624	24	C	02/16/2025	09:00	-126.233	47.806	0	644.80	0	4.4580	0	34.2270	0	27.128	0	638.407	0	-1e10	1	-1e10	1	-1E+10	1	-1e10	1	-1e10	1	-1E+10	1	-1E+10	1	-1E+10	1
4902624	24	C	02/16/2025	09:00	-126.233	47.806	0	651.80	0	4.4402	0	34.2325	0	27.135	0	645.326	0	10.5	4	3.3	4	-1E+10	1	0.0520	4	0.000211	0	-1E+10	1	-1E+10	1	-1E+10	1
4902624	24	C	02/16/2025	09:00	-126.233	47.806	0	655.00	0	4.4320	0	34.2350	0	27.138	0	648.490	0	-1e10	1	-1e10	1	-1E+10	1	-1e10	1	-1e10	1	-1E+10	1	-1E+10	1	-1E+10	1
4902624	24	C	02/16/2025	09:00	-126.233	47.806	0	663.40	0	4.4089	0	34.2410	0	27.145	0	656.793	0	10.0	4	3.2	4	-1E+10	1	0.0724	4	0.000211	0	-1E+10	1	-1E+10	1	-1E+10	1
4902624	24	C	02/16/2025	09:00	-126.233	47.806	0	664.80	0	4.4050	0	34.2420	0	27.146	0	658.177	0	-1e10	1	-1e10	1	-1E+10	1	-1e10	1	-1e10	1	-1E+10	1	-1E+10	1	-1E+10	1
4902624	24	C	02/16/2025	09:00	-126.233	47.806	0	674.90	0	4.3790	0	34.2470	0	27.153	0	668.160	0	-1e10	1	-1e10	1	-1E+10	1	-1e10	1	-1e10	1	-1E+10	1	-1E+10	1	-1E+10	1
4902624	24	C	02/16/2025	09:00	-126.233	47.806	0	675.20	0	4.3784	0	34.2472	0	27.153	0	668.457	0	9.7	4	3.1	4	-1E+10	1	0.0581	4	0.000209	0	-1E+10	1	-1E+10	1	-1E+10	1
4902624	24	C	02/16/2025	09:00	-126.233	47.806	0	684.80	0	4.3600	0	34.2520	0	27.159	0	677.945	0	-1e10	1	-1e10	1	-1E+10	1	-1e10	1	-1e10	1	-1E+10	1	-1E+10	1	-1E+10	1
4902624	24	C	02/16/2025	09:00	-126.233	47.806	0	687.10	0	4.3548	0	34.2534	0	27.161	0	680.218	0	9.4	4	3.0	4	-1E+10	1	0.0508	4	0.000177	0	-1E+10	1	-1E+10	1	-1E+10	1
4902624	24	C	02/16/2025	09:00	-126.233	47.806	0	695.00	0	4.3370	0	34.2580	0	27.166	0	688.026	0	-1e10	1	-1e10	1	-1E+10	1	-1e10	1	-1e10	1	-1E+10	1	-1E+10	1	-1E+10	1
4902624	24	C	02/16/2025	09:00	-126.233	47.806	0	699.00	0	4.3279	0	34.2596	0	27.168	0	691.979	0	9.2	4	2.9	4	-1E+10	1	0.0441	4	0.000198	0	-1E+10	1	-1E+10	1	-1E+10	1
4902624	24	C	02/16/2025	09:00	-126.233	47.806	0	705.10	0	4.3140	0	34.2620	0	27.172	0	698.008	0	-1e10	1	-1e10	1	-1E+10	1	-1e10	1	-1e10	1	-1E+10	1	-1E+10	1	-1E+10	1
4902624	24	C	02/16/2025	09:00	-126.233	47.806	0	710.80	0	4.2990	0	34.2643	0	27.175	0	703.641	0	8.9	4	2.8	4	-1E+10	1	0.0511	4	0.000186	0	-1E+10	1	-1E+10	1	-1E+10	1
4902624	24	C	02/16/2025	09:00	-126.233	47.806	0	715.00	0	4.2880	0	34.2660	0	27.178	0	707.792	0	-1e10	1	-1e10	1	-1E+10	1	-1e10	1	-1e10	1	-1E+10	1	-1E+10	1	-1E+10	1
4902624	24	C	02/16/2025	09:00	-126.233	47.806	0	722.60	0	4.2632	0	34.2705	0	27.184	0	715.302	0	8.6	4	2.7	4	-1E+10	1	0.0508	4	0.000163	0	-1E+10	1	-1E+10	1	-1E+10	1
4902624	24	C	02/16/2025	09:00	-126.233	47.806	0	725.10	0	4.2550	0	34.2720	0	27.186	0	717.772	0	-1e10	1	-1e10	1	-1E+10	1	-1e10	1	-1e10	1	-1E+10	1	-1E+10	1	-1E+10	1
4902624	24	C	02/16/2025	09:00	-126.233	47.806	0	734.40	0	4.2243	0	34.2739	0	27.191	0	726.962	0	8.5	4	2.7	4	-1E+10	1	0.0444	4	0.000141	0	-1E+10	1	-1E+10	1	-1E+10	1
4902624	24	C	02/16/2025	09:00	-126.233	47.806	0	734.80	0	4.2230	0	34.2740	0	27.191	0	727.357	0	-1e10	1	-1e10	1	-1E+10	1	-1e10	1	-1e10	1	-1E+10	1	-1E+10	1	-1E+10	1
4902624	24	C	02/16/2025	09:00	-126.233	47.806	0	745.10	0	4.1690	0	34.2790	0	27.201	0	737.535	0	-1e10	1	-1e10	1	-1E+10	1	-1e10	1	-1e10	1	-1E+10	1	-1E+10	1	-1E+10	1
4902624	24	C	02/16/2025	09:00	-126.233	47.806	0	746.20	0	4.1666	0	34.2799	0	27.202	0	738.622	0	8.2	4	2.6	4	-1E+10	1	0.0584	4	0.000164	0	-1E+10	1	-1E+10	1	-1E+10	1
4902624	24	C	02/16/2025	09:00	-126.233	47.806	0	755.30	0	4.1470	0	34.2870	0	27.210	0	747.613	0	-1e10	1	-1e10	1	-1E+10	1	-1e10	1	-1e10	1	-1E+10	1	-1E+10	1	-1E+10	1
4902624	24	C	02/16/2025	09:00	-126.233	47.806	0	758.10	0	4.1428	0	34.2892	0	27.212	0	750.379	0	8.0	4	2.5	4	-1E+10	1	0.0587	4	0.000186	0	-1E+10	1	-1E+10	1	-1E+10	1
4902624	24	C	02/16/2025	09:00	-126.233	47.806	0	765.40	0	4.1320	0	34.2950	0	27.218	0	757.592	0	-1e10	1	-1e10	1	-1E+10	1	-1e10	1	-1e10	1	-1E+10	1	-1E+10	1	-1E+10	1
4902624	24	C	02/16/2025	09:00	-126.233	47.806	0	768.60	0	4.1250	0	34.2983	0	27.221	0	760.753	0	7.8	4	2.5	4	-1E+10	1	0.0657	4	0.000163	0	-1E+10	1	-1E+10	1	-1E+10	1
4902624	24	C	02/16/2025	09:00	-126.233	47.806	0	775.00	0	4.1110	0	34.3050	0	27.228	0	767.076	0	-1e10	1	-1e10	1	-1E+10	1	-1e10	1	-1e10	1	-1E+10	1	-1E+10	1	-1E+10	1
4902624	24	C	02/16/2025	09:00	-126.233	47.806	0	776.90	0	4.1093	0	34.3060	0	27.229	0	768.953	0	7.7	4	2.4	4	-1E+10	1	0.0657	4	0.000151	0	-1E+10	1	-1E+10	1	-1E+10	1
4902624	24	C	02/16/2025	09:00	-126.233	47.806	0	784.90	0	4.1020	0	34.3100	0	27.233	0	776.857	0	-1e10	1	-1e10	1	-1E+10	1	-1e10	1	-1e10	1	-1E+10	1	-1E+10	1	-1E+10	1
4902624	24	C	02/16/2025	09:00	-126.233	47.806	0	785.60	0	4.1013	0	34.3102	0	27.233	0	777.548	0	7.7	4	2.4	4	-1E+10	1	0.0654	4	0.000129	0	-1E+10	1	-1E+10	1	-1E+10	1
4902624	24	C	02/16/2025	09:00	-126.233	47.806	0	794.60	0	4.0924	0	34.3129	0	27.236	0	786.439	0	7.6	4	2.4	4	-1E+10	1	0.0590	4	0.000163	0	-1E+10	1	-1E+10	1	-1E+10	1
4902624	24	C	02/16/2025	09:00	-126.233	47.806	0	795.00	0	4.0920	0	34.3130	0	27.236	0	786.834	0	-1e10	1	-1e10	1	-1E+10	1	-1e10	1	-1e10	1	-1E+10	1	-1E+10	1	-1E+10	1
4902624	24	C	02/16/2025	09:00	-126.233	47.806	0	803.90	0	4.0664	0	34.3165	0	27.242	0	795.626	0	7.5	4	2.4	4	-1E+10	1	0.0728	4	0.000163	0	-1E+10	1	-1E+10	1	-1E+10	1
4902624	24	C	02/16/2025	09:00	-126.233	47.806	0	805.10	0	4.0630	0	34.3170	0	27.243	0	796.811	0	-1e10	1	-1e10	1	-1E+10	1	-1e10	1	-1e10	1	-1E+10	1	-1E+10	1	-1E+10	1
4902624	24	C	02/16/2025	09:00	-126.233	47.806	0	813.60	0	4.0493	0	34.3187	0	27.245	0	805.207	0	7.5	4	2.4	4	-1E+10	1	0.0648	4	0.000151	0	-1E+10	1	-1E+10	1	-1E+10	1
4902624	24	C	02/16/2025	09:00	-126.233	47.806	0	815.00	0	4.0470	0	34.3190	0	27.246	0	806.590	0	-1e10	1	-1e10	1	-1E+10	1	-1e10	1	-1e10	1	-1E+10	1	-1E+10	1	-1E+10	1
4902624	24	C	02/16/2025	09:00	-126.233	47.806	0	823.50	0	4.0169	0	34.3267	0	27.255	0	814.986	0	7.5	4	2.4	4	-1E+10	1	0.0438	4	0.000151	0	-1E+10	1	-1E+10	1	-1E+10	1
4902624	24	C	02/16/2025	09:00	-126.233	47.806	0	824.90	0	4.0120	0	34.3280	0	27.257	0	816.369	0	-1e10	1	-1e10	1	-1E+10	1	-1e10	1	-1e10	1	-1E+10	1	-1E+10	1	-1E+10	1
4902624	24	C	02/16/2025	09:00	-126.233	47.806	0	833.80	0	3.9944	0	34.3315	0	27.261	0	825.159	0	7.5	4	2.4	4	-1E+10	1	0.0446	4	0.000151	0	-1E+10	1	-1E+10	1	-1E+10	1
4902624	24	C	02/16/2025	09:00	-126.233	47.806	0	835.00	0	3.9920	0	34.3320	0	27.262	0	826.344	0	-1e10	1	-1e10	1	-1E+10	1	-1e10	1	-1e10	1	-1E+10	1	-1E+10	1	-1E+10	1
4902624	24	C	02/16/2025	09:00	-126.233	47.806	0	844.30	0	3.9749	0	34.3358	0	27.267	0	835.529	0	7.4	4	2.3	4	-1E+10	1	0.0654	4	0.000163	0	-1E+10	1	-1E+10	1	-1E+10	1
4902624	24	C	02/16/2025	09:00	-126.233	47.806	0	844.80	0	3.9740	0	34.3360	0	27.267	0	836.023	0	-1e10	1	-1e10	1	-1E+10	1	-1e10	1	-1e10	1	-1E+10	1	-1E+10	1	-1E+10	1
4902624	24	C	02/16/2025	09:00	-126.233	47.806	0	854.90	0	3.9620	0	34.3400	0	27.272	0	845.998	0	7.4	4	2.3	4	-1E+10	1	0.0584	4	0.000162	0	-1E+10	1	-1E+10	1	-1E+10	1
4902624	24	C	02/16/2025	09:00	-126.233	47.806	0	864.90	0	3.9330	0	34.3460	0	27.279	0	855.873	0	-1e10	1	-1e10	1	-1E+10	1	-1e10	1	-1e10	1	-1E+10	1	-1E+10	1	-1E+10	1
4902624	24	C	02/16/2025	09:00	-126.233	47.806	0	865.70	0	3.9292	0	34.3467	0	27.280	0	856.663	0	7.7	4	2.4	4	-1E+10	1	0.0581	4	0.000152	0	-1E+10	1	-1E+10	1	-1E+10	1
4902624	24	C	02/16/2025	09:00	-126.233	47.806	0	874.90	0	3.8850	0	34.3550	0	27.291	0	865.748	0	-1e10	1	-1e10	1	-1E+10	1	-1e10	1	-1e10	1	-1E+10	1	-1E+10	1	-1E+10	1
4902624	24	C	02/16/2025	09:00	-126.233	47.806	0	876.60	0	3.8764	0	34.3557	0	27.293	0	867.427	0	7.7	4	2.4	4	-1E+10	1	0.0511	4	0.000186	0	-1E+10	1	-1E+10	1	-1E+10	1
4902624	24	C	02/16/2025	09:00	-126.233	47.806	0	885.00	0	3.8340	0	34.3590	0	27.300	0	875.721	0	-1e10	1	-1e10	1	-1E+10	1	-1e10	1	-1e10	1	-1E+10	1	-1E+10	1	-1E+10	1
4902624	24	C	02/16/2025	09:00	-126.233	47.806	0	887.60	0	3.8219	0	34.3598	0	27.302	0	878.289	0	7.8	4	2.5	4	-1E+10	1	0.0514	4	0.000185	0	-1E+10	1	-1E+10	1	-1E+10	1
4902624	24	C	02/16/2025	09:00	-126.233	47.806	0	895.10	0	3.7870	0	34.3620	0	27.307	0	885.694	0	-1e10	1	-1e10	1	-1E+10	1	-1e10	1	-1e10	1	-1E+10	1	-1E+10	1	-1E+10	1
4902624	24	C	02/16/2025	09:00	-126.233	47.806	0	898.80	0	3.7826	0	34.3653	0	27.310	0	889.347	0	7.9	4	2.5	4	-1E+10	1	0.0587	4	0.000172	0	-1E+10	1	-1E+10	1	-1E+10	1
4902624	24	C	02/16/2025	09:00	-126.233	47.806	0	905.20	0	3.7750	0	34.3710	0	27.315	0	895.666	0	-1e10	1	-1e10	1	-1E+10	1	-1e10	1	-1e10	1	-1E+10	1	-1E+10	1	-1E+10	1
4902624	24	C	02/16/2025	09:00	-126.233	47.806	0	910.20	0	3.7629	0	34.3740	0	27.319	0	900.603	0	30.3	4	9.5	4	-1E+10	1	0.0655	4	0.000139	0	-1E+10	1	-1E+10	1	-1E+10	1
4902624	24	C	02/16/2025	09:00	-126.233	47.806	0	915.10	0	3.7510	0	34.3770	0	27.323	0	905.441	0	-1e10	1	-1e10	1	-1E+10	1	-1e10	1	-1e10	1	-1E+10	1	-1E+10	1	-1E+10	1
4902624	24	C	02/16/2025	09:00	-126.233	47.806	0	922.00	0	3.7313	0	34.3812	0	27.328	0	912.253	0	51.2	4	16.1	4	-1E+10	1	0.0582	4	0.000161	0	-1E+10	1	-1E+10	1	-1E+10	1
4902624	24	C	02/16/2025	09:00	-126.233	47.806	0	924.90	0	3.7230	0	34.3830	0	27.330	0	915.116	0	-1e10	1	-1e10	1	-1E+10	1	-1e10	1	-1e10	1	-1E+10	1	-1E+10	1	-1E+10	1
4902624	24	C	02/16/2025	09:00	-126.233	47.806	0	933.80	0	3.6992	0	34.3848	0	27.334	0	923.902	0	51.1	4	16.0	4	-1E+10	1	0.0514	4	0.000153	0	-1E+10	1	-1E+10	1	-1E+10	1
4902624	24	C	02/16/2025	09:00	-126.233	47.806	0	935.00	0	3.6960	0	34.3850	0	27.335	0	925.087	0	-1e10	1	-1e10	1	-1E+10	1	-1e10	1	-1e10	1	-1E+10	1	-1E+10	1	-1E+10	1
4902624	24	C	02/16/2025	09:00	-126.233	47.806	0	945.10	0	3.6540	0	34.3900	0	27.343	0	935.057	0	-1e10	1	-1e10	1	-1E+10	1	-1e10	1	-1e10	1	-1E+10	1	-1E+10	1	-1E+10	1
4902624	24	C	02/16/2025	09:00	-126.233	47.806	0	945.30	0	3.6531	0	34.3901	0	27.343	0	935.254	0	76.7	4	24.1	4	-1E+10	1	0.0581	4	0.000207	0	-1E+10	1	-1E+10	1	-1E+10	1
4902624	24	C	02/16/2025	09:00	-126.233	47.806	0	954.70	0	3.6090	0	34.3950	0	27.351	0	944.533	0	-1e10	1	-1e10	1	-1E+10	1	-1e10	1	-1e10	1	-1E+10	1	-1E+10	1	-1E+10	1
4902624	24	C	02/16/2025	09:00	-126.233	47.806	0	956.80	0	3.6049	0	34.3961	0	27.352	0	946.606	0	78.4	4	24.6	4	-1E+10	1	0.0508	4	0.000173	0	-1E+10	1	-1E+10	1	-1E+10	1
4902624	24	C	02/16/2025	09:00	-126.233	47.806	0	964.50	0	3.5900	0	34.4000	0	27.357	0	954.207	0	-1e10	1	-1e10	1	-1E+10	1	-1e10	1	-1e10	1	-1E+10	1	-1E+10	1	-1E+10	1
4902624	24	C	02/16/2025	09:00	-126.233	47.806	0	968.50	0	3.5625	0	34.4012	0	27.361	0	958.155	0	70.0	4	21.9	4	-1E+10	1	0.0441	4	0.000161	0	-1E+10	1	-1E+10	1	-1E+10	1
4902624	24	C	02/16/2025	09:00	-126.233	47.806	0	974.70	0	3.5200	0	34.4030	0	27.366	0	964.274	0	-1e10	1	-1e10	1	-1E+10	1	-1e10	1	-1e10	1	-1E+10	1	-1E+10	1	-1E+10	1
4902624	24	C	02/16/2025	09:00	-126.233	47.806	0	980.20	0	3.5173	0	34.4062	0	27.369	0	969.703	0	64.6	4	20.2	4	-1E+10	1	0.0508	4	0.000161	0	-1E+10	1	-1E+10	1	-1E+10	1
4902624	24	C	02/16/2025	09:00	-126.233	47.806	0	985.00	0	3.5150	0	34.4090	0	27.372	0	974.440	0	-1e10	1	-1e10	1	-1E+10	1	-1e10	1	-1e10	1	-1E+10	1	-1E+10	1	-1E+10	1
4902624	24	C	02/16/2025	09:00	-126.233	47.806	0	991.90	0	3.4961	0	34.4097	0	27.374	0	981.250	0	65.1	4	20.3	4	-1E+10	1	0.0440	4	0.000162	0	-1E+10	1	-1E+10	1	-1E+10	1
4902624	24	C	02/16/2025	09:00	-126.233	47.806	0	995.20	0	3.4870	0	34.4100	0	27.375	0	984.507	0	-1e10	1	-1e10	1	-1E+10	1	-1e10	1	-1e10	1	-1E+10	1	-1E+10	1	-1E+10	1
4902624	24	C	02/16/2025	09:00	-126.233	47.806	0	1013.40	0	3.4450	0	34.4208	0	27.388	0	1002.468	0	67.8	4	21.2	4	-1E+10	1	0.0512	4	0.000208	0	-1E+10	1	-1E+10	1	-1E+10	1
4902624	24	C	02/16/2025	09:00	-126.233	47.806	0	1025.50	0	3.4170	0	34.4280	0	27.396	0	1014.408	0	-1e10	1	-1e10	1	-1E+10	1	-1e10	1	-1e10	1	-1E+10	1	-1E+10	1	-1E+10	1
4902624	24	C	02/16/2025	09:00	-126.233	47.806	0	1030.10	0	3.4048	0	34.4298	0	27.399	0	1018.947	0	69.7	4	21.7	4	-1E+10	1	0.0584	4	0.000219	0	-1E+10	1	-1E+10	1	-1E+10	1
4902624	24	C	02/16/2025	09:00	-126.233	47.806	0	1047.40	0	3.3590	0	34.4365	0	27.409	0	1036.017	0	68.1	4	21.2	4	-1E+10	1	0.0582	4	0.000184	0	-1E+10	1	-1E+10	1	-1E+10	1
4902624	24	C	02/16/2025	09:00	-126.233	47.806	0	1065.60	0	3.3108	0	34.4435	0	27.419	0	1053.974	0	70.7	4	22.0	4	-1E+10	1	0.0512	4	0.000173	0	-1E+10	1	-1E+10	1	-1E+10	1
4902624	24	C	02/16/2025	09:00	-126.233	47.806	0	1074.60	0	3.2870	0	34.4470	0	27.424	0	1062.853	0	-1e10	1	-1e10	1	-1E+10	1	-1e10	1	-1e10	1	-1E+10	1	-1E+10	1	-1E+10	1
4902624	24	C	02/16/2025	09:00	-126.233	47.806	0	1085.30	0	3.2590	0	34.4502	0	27.429	0	1073.408	0	76.1	4	23.6	4	-1E+10	1	0.0583	4	0.000196	0	-1E+10	1	-1E+10	1	-1E+10	1
4902624	24	C	02/16/2025	09:00	-126.233	47.806	0	1105.80	0	3.2054	0	34.4563	0	27.439	0	1093.630	0	73.3	4	22.7	4	-1E+10	1	0.0512	4	0.000207	0	-1E+10	1	-1E+10	1	-1E+10	1
4902624	24	C	02/16/2025	09:00	-126.233	47.806	0	1124.70	0	3.1560	0	34.4620	0	27.449	0	1112.272	0	-1e10	1	-1e10	1	-1E+10	1	-1e10	1	-1e10	1	-1E+10	1	-1E+10	1	-1E+10	1
4902624	24	C	02/16/2025	09:00	-126.233	47.806	0	1127.50	0	3.1499	0	34.4625	0	27.450	0	1115.034	0	67.4	4	20.9	4	-1E+10	1	0.0584	4	0.000230	0	-1E+10	1	-1E+10	1	-1E+10	1
4902624	24	C	02/16/2025	09:00	-126.233	47.806	0	1150.00	0	3.1009	0	34.4664	0	27.457	0	1137.224	0	57.6	4	17.8	4	-1E+10	1	0.0584	4	0.000195	0	-1E+10	1	-1E+10	1	-1E+10	1
4902624	24	C	02/16/2025	09:00	-126.233	47.806	0	1173.90	0	3.0488	0	34.4706	0	27.466	0	1160.793	0	58.5	4	18.1	4	-1E+10	1	0.0584	4	0.000195	0	-1E+10	1	-1E+10	1	-1E+10	1
4902624	24	C	02/16/2025	09:00	-126.233	47.806	0	1176.10	0	3.0440	0	34.4710	0	27.466	0	1162.962	0	-1e10	1	-1e10	1	-1E+10	1	-1e10	1	-1e10	1	-1E+10	1	-1E+10	1	-1E+10	1
4902624	24	C	02/16/2025	09:00	-126.233	47.806	0	1190.80	0	3.0181	0	34.4744	0	27.471	0	1177.457	0	59.6	4	18.4	4	-1E+10	1	0.0585	4	0.000218	0	-1E+10	1	-1E+10	1	-1E+10	1
4902624	24	C	02/16/2025	09:00	-126.233	47.806	0	1207.60	0	2.9885	0	34.4782	0	27.477	0	1194.021	0	59.8	4	18.5	4	-1E+10	1	0.0657	4	0.000194	0	-1E+10	1	-1E+10	1	-1E+10	1
4902624	24	C	02/16/2025	09:00	-126.233	47.806	0	1224.30	0	2.9590	0	34.4820	0	27.483	0	1210.485	0	-1e10	1	-1e10	1	-1E+10	1	-1e10	1	-1e10	1	-1E+10	1	-1E+10	1	-1E+10	1
4902624	24	C	02/16/2025	09:00	-126.233	47.806	0	1225.30	0	2.9573	0	34.4822	0	27.483	0	1211.471	0	60.8	4	18.8	4	-1E+10	1	0.0653	4	0.000195	0	-1E+10	1	-1E+10	1	-1E+10	1
4902624	24	C	02/16/2025	09:00	-126.233	47.806	0	1244.10	0	2.9257	0	34.4851	0	27.489	0	1230.004	0	66.4	4	20.5	4	-1E+10	1	0.0443	4	0.000228	0	-1E+10	1	-1E+10	1	-1E+10	1
4902624	24	C	02/16/2025	09:00	-126.233	47.806	0	1263.50	0	2.8930	0	34.4882	0	27.494	0	1249.126	0	74.5	4	23.0	4	-1E+10	1	0.0654	4	0.000184	0	-1E+10	1	-1E+10	1	-1E+10	1
4902624	24	C	02/16/2025	09:00	-126.233	47.806	0	1274.80	0	2.8740	0	34.4900	0	27.497	0	1260.264	0	-1e10	1	-1e10	1	-1E+10	1	-1e10	1	-1e10	1	-1E+10	1	-1E+10	1	-1E+10	1
4902624	24	C	02/16/2025	09:00	-126.233	47.806	0	1283.60	0	2.8656	0	34.4916	0	27.499	0	1268.937	0	74.5	4	22.9	4	-1E+10	1	0.0511	4	0.000274	0	-1E+10	1	-1E+10	1	-1E+10	1
4902624	24	C	02/16/2025	09:00	-126.233	47.806	0	1303.90	0	2.8462	0	34.4952	0	27.504	0	1288.943	0	72.9	4	22.4	4	-1E+10	1	0.0511	4	0.000194	0	-1E+10	1	-1E+10	1	-1E+10	1
4902624	24	C	02/16/2025	09:00	-126.233	47.806	0	1324.70	0	2.8263	0	34.4989	0	27.509	0	1309.440	0	74.3	4	22.8	4	-1E+10	1	0.0510	4	0.000217	0	-1E+10	1	-1E+10	1	-1E+10	1
4902624	24	C	02/16/2025	09:00	-126.233	47.806	0	1325.00	0	2.8260	0	34.4990	0	27.509	0	1309.736	0	-1e10	1	-1e10	1	-1E+10	1	-1e10	1	-1e10	1	-1E+10	1	-1E+10	1	-1E+10	1
4902624	24	C	02/16/2025	09:00	-126.233	47.806	0	1346.50	0	2.8101	0	34.5033	0	27.514	0	1330.920	0	75.3	4	23.2	4	-1E+10	1	0.0441	4	0.000206	0	-1E+10	1	-1E+10	1	-1E+10	1
4902624	24	C	02/16/2025	09:00	-126.233	47.806	0	1369.10	0	2.7934	0	34.5078	0	27.519	0	1353.186	0	76.1	4	23.4	4	-1E+10	1	0.0583	4	0.000275	0	-1E+10	1	-1E+10	1	-1E+10	1
4902624	24	C	02/16/2025	09:00	-126.233	47.806	0	1375.00	0	2.7890	0	34.5090	0	27.521	0	1358.999	0	-1e10	1	-1e10	1	-1E+10	1	-1e10	1	-1e10	1	-1E+10	1	-1E+10	1	-1E+10	1
4902624	24	C	02/16/2025	09:00	-126.233	47.806	0	1392.30	0	2.7627	0	34.5117	0	27.525	0	1376.041	0	76.9	4	23.6	4	-1E+10	1	0.0511	4	0.000252	0	-1E+10	1	-1E+10	1	-1E+10	1
4902624	24	C	02/16/2025	09:00	-126.233	47.806	0	1415.70	0	2.7271	0	34.5154	0	27.531	0	1399.090	0	77.0	4	23.6	4	-1E+10	1	0.0513	4	0.000285	0	-1E+10	1	-1E+10	1	-1E+10	1
4902624	24	C	02/16/2025	09:00	-126.233	47.806	0	1425.60	0	2.7120	0	34.5170	0	27.534	0	1408.841	0	-1e10	1	-1e10	1	-1E+10	1	-1e10	1	-1e10	1	-1E+10	1	-1E+10	1	-1E+10	1
4902624	24	C	02/16/2025	09:00	-126.233	47.806	0	1439.50	0	2.6890	0	34.5189	0	27.538	0	1422.531	0	79.1	4	24.3	4	-1E+10	1	0.0581	4	0.000252	0	-1E+10	1	-1E+10	1	-1E+10	1
4902624	24	C	02/16/2025	09:00	-126.233	47.806	0	1463.10	0	2.6500	0	34.5222	0	27.544	0	1445.772	0	85.0	4	26.0	4	-1E+10	1	0.0442	4	0.000297	0	-1E+10	1	-1E+10	1	-1E+10	1
4902624	24	C	02/16/2025	09:00	-126.233	47.806	0	1475.80	0	2.6290	0	34.5240	0	27.547	0	1458.277	0	-1e10	1	-1e10	1	-1E+10	1	-1e10	1	-1e10	1	-1E+10	1	-1E+10	1	-1E+10	1
4902624	24	C	02/16/2025	09:00	-126.233	47.806	0	1479.50	0	2.6219	0	34.5248	0	27.548	0	1461.921	0	89.4	4	27.4	4	-1E+10	1	0.0581	4	0.000274	0	-1E+10	1	-1E+10	1	-1E+10	1
4902624	24	C	02/16/2025	09:00	-126.233	47.806	0	1496.20	0	2.5899	0	34.5282	0	27.554	0	1478.364	0	92.1	4	28.2	4	-1E+10	1	0.0439	4	0.000275	0	-1E+10	1	-1E+10	1	-1E+10	1
4902624	24	C	02/16/2025	09:00	-126.233	47.806	0	1514.00	0	2.5559	0	34.5318	0	27.560	0	1495.889	0	92.5	4	28.3	4	-1E+10	1	0.0511	4	0.000320	0	-1E+10	1	-1E+10	1	-1E+10	1
4902624	24	C	02/16/2025	09:00	-126.233	47.806	0	1524.90	0	2.5350	0	34.5340	0	27.563	0	1506.620	0	-1e10	1	-1e10	1	-1E+10	1	-1e10	1	-1e10	1	-1E+10	1	-1E+10	1	-1E+10	1
4902624	24	C	02/16/2025	09:00	-126.233	47.806	0	1532.00	0	2.5270	0	34.5349	0	27.565	0	1513.609	0	98.0	4	29.9	4	-1E+10	1	0.0509	4	0.000309	0	-1E+10	1	-1E+10	1	-1E+10	1
4902624	24	C	02/16/2025	09:00	-126.233	47.806	0	1550.30	0	2.5063	0	34.5371	0	27.568	0	1531.623	0	100.5	4	30.7	4	-1E+10	1	0.0438	4	0.000310	0	-1E+10	1	-1E+10	1	-1E+10	1
4902624	24	C	02/16/2025	09:00	-126.233	47.806	0	1569.20	0	2.4850	0	34.5394	0	27.572	0	1550.226	0	97.4	4	29.7	4	-1E+10	1	0.0439	4	0.000378	0	-1E+10	1	-1E+10	1	-1E+10	1
4902624	24	C	02/16/2025	09:00	-126.233	47.806	0	1574.50	0	2.4790	0	34.5400	0	27.573	0	1555.443	0	-1e10	1	-1e10	1	-1E+10	1	-1e10	1	-1e10	1	-1E+10	1	-1E+10	1	-1E+10	1
4902624	24	C	02/16/2025	09:00	-126.233	47.806	0	1589.20	0	2.4665	0	34.5415	0	27.575	0	1569.910	0	95.3	4	29.1	4	-1E+10	1	0.0511	4	0.000308	0	-1E+10	1	-1E+10	1	-1E+10	1
4902624	24	C	02/16/2025	09:00	-126.233	47.806	0	1610.60	0	2.4482	0	34.5436	0	27.579	0	1590.970	0	96.7	4	29.5	4	-1E+10	1	0.0511	4	0.000330	0	-1E+10	1	-1E+10	1	-1E+10	1
4902624	24	C	02/16/2025	09:00	-126.233	47.806	0	1624.90	0	2.4360	0	34.5450	0	27.581	0	1605.042	0	-1e10	1	-1e10	1	-1E+10	1	-1e10	1	-1e10	1	-1E+10	1	-1E+10	1	-1E+10	1
4902624	24	C	02/16/2025	09:00	-126.233	47.806	0	1632.70	0	2.4296	0	34.5458	0	27.582	0	1612.717	0	99.1	4	30.2	4	-1E+10	1	0.0511	4	0.000249	0	-1E+10	1	-1E+10	1	-1E+10	1
4902624	24	C	02/16/2025	09:00	-126.233	47.806	0	1655.70	0	2.4106	0	34.5480	0	27.586	0	1635.346	0	99.2	4	30.2	4	-1E+10	1	0.0513	4	0.000272	0	-1E+10	1	-1E+10	1	-1E+10	1
4902624	24	C	02/16/2025	09:00	-126.233	47.806	0	1675.90	0	2.3940	0	34.5500	0	27.589	0	1655.219	0	-1e10	1	-1e10	1	-1E+10	1	-1e10	1	-1e10	1	-1E+10	1	-1E+10	1	-1E+10	1
4902624	24	C	02/16/2025	09:00	-126.233	47.806	0	1679.20	0	2.3886	0	34.5505	0	27.590	0	1658.466	0	100.3	4	30.5	4	-1E+10	1	0.0584	4	0.000262	0	-1E+10	1	-1E+10	1	-1E+10	1
4902624	24	C	02/16/2025	09:00	-126.233	47.806	0	1697.80	0	2.3580	0	34.5536	0	27.595	0	1676.763	0	101.5	4	30.9	4	-1E+10	1	0.0584	4	0.000334	0	-1E+10	1	-1E+10	1	-1E+10	1
4902624	24	C	02/16/2025	09:00	-126.233	47.806	0	1714.90	0	2.3298	0	34.5564	0	27.599	0	1693.582	0	103.2	4	31.4	4	-1E+10	1	0.0581	4	0.000525	0	-1E+10	1	-1E+10	1	-1E+10	1
4902624	24	C	02/16/2025	09:00	-126.233	47.806	0	1724.50	0	2.3140	0	34.5580	0	27.602	0	1703.025	0	-1e10	1	-1e10	1	-1E+10	1	-1e10	1	-1e10	1	-1E+10	1	-1E+10	1	-1E+10	1
4902624	24	C	02/16/2025	09:00	-126.233	47.806	0	1732.80	0	2.2960	0	34.5600	0	27.605	0	1711.188	0	104.1	4	31.6	4	-1E+10	1	0.0439	4	0.000342	0	-1E+10	1	-1E+10	1	-1E+10	1
4902624	24	C	02/16/2025	09:00	-126.233	47.806	0	1751.20	0	2.2560	0	34.5643	0	27.612	0	1729.283	0	105.5	4	32.0	4	-1E+10	1	0.0514	4	0.000329	0	-1E+10	1	-1E+10	1	-1E+10	1
4902624	24	C	02/16/2025	09:00	-126.233	47.806	0	1770.60	0	2.2138	0	34.5689	0	27.619	0	1748.361	0	108.0	4	32.7	4	-1E+10	1	0.0654	4	0.000306	0	-1E+10	1	-1E+10	1	-1E+10	1
4902624	24	C	02/16/2025	09:00	-126.233	47.806	0	1775.10	0	2.2040	0	34.5700	0	27.621	0	1752.786	0	-1e10	1	-1e10	1	-1E+10	1	-1e10	1	-1e10	1	-1E+10	1	-1E+10	1	-1E+10	1
4902624	24	C	02/16/2025	09:00	-126.233	47.806	0	1791.10	0	2.1666	0	34.5748	0	27.627	0	1768.518	0	111.7	4	33.8	4	-1E+10	1	0.0511	4	0.000306	0	-1E+10	1	-1E+10	1	-1E+10	1
4902624	24	C	02/16/2025	09:00	-126.233	47.806	0	1812.30	0	2.1171	0	34.5811	0	27.637	0	1789.361	0	112.8	4	34.1	4	-1E+10	1	0.0512	4	0.000297	0	-1E+10	1	-1E+10	1	-1E+10	1
4902624	24	C	02/16/2025	09:00	-126.233	47.806	0	1825.20	0	2.0870	0	34.5850	0	27.642	0	1802.043	0	-1e10	1	-1e10	1	-1E+10	1	-1e10	1	-1e10	1	-1E+10	1	-1E+10	1	-1E+10	1
4902624	24	C	02/16/2025	09:00	-126.233	47.806	0	1833.90	0	2.0809	0	34.5859	0	27.643	0	1810.596	0	116.3	4	35.1	4	-1E+10	1	0.0586	4	0.000435	0	-1E+10	1	-1E+10	1	-1E+10	1
4902624	24	C	02/16/2025	09:00	-126.233	47.806	0	1853.50	0	2.0670	0	34.5880	0	27.646	0	1829.863	0	-1e10	1	-1e10	1	-1E+10	1	-1e10	1	-1e10	1	-1E+10	1	-1E+10	1	-1E+10	1
4902624	24	C	02/16/2025	09:00	-126.233	47.806	0	1853.80	0	2.0670	0	34.5880	0	27.646	0	1830.157	0	124.9	4	37.7	4	-1E+10	1	0.0657	4	0.000446	0	-1E+10	1	-1E+10	1	-1E+10	1
4902624	24	C	02/16/2025	09:00	-126.233	47.806	0																										
4902624	25	C	02/26/2025	07:39	-126.449	48.002	0	0.10	0	9.1390	0	32.2620	0	24.953	0	0.099	0	252.3	4	88.4	4	-1E+10	1	0.4891	4	0.000727	0	-1E+10	1	-1E+10	1	-1E+10	1
4902624	25	C	02/26/2025	07:39	-126.449	48.002	0	0.20	0	9.1390	0	32.2620	0	24.953	0	0.198	0	251.4	4	88.1	4	-1E+10	1	0.4891	4	0.000657	0	-1E+10	1	-1E+10	1	-1E+10	1
4902624	25	C	02/26/2025	07:39	-126.449	48.002	0	0.30	0	9.1390	0	32.2620	0	24.953	0	0.297	0	250.6	4	87.8	4	-1E+10	1	-1e10	1	-1e10	1	-1E+10	1	-1E+10	1	-1E+10	1
4902624	25	C	02/26/2025	07:39	-126.449	48.002	0	0.40	0	9.1390	0	32.2620	0	24.953	0	0.397	0	256.5	4	89.9	4	-1E+10	1	0.4964	4	0.000657	0	-1E+10	1	-1E+10	1	-1E+10	1
4902624	25	C	02/26/2025	07:39	-126.449	48.002	0	0.50	0	9.1390	0	32.2620	0	24.953	0	0.496	0	-1e10	1	-1e10	1	-1E+10	1	-1e10	1	-1e10	1	-1E+10	1	-1E+10	1	-1E+10	1
4902624	25	C	02/26/2025	07:39	-126.449	48.002	0	0.60	0	9.1393	0	32.2621	0	24.954	0	0.595	0	258.3	4	90.5	4	-1E+10	1	-1e10	1	-1e10	1	-1E+10	1	-1E+10	1	-1E+10	1
4902624	25	C	02/26/2025	07:39	-126.449	48.002	0	0.70	0	9.1396	0	32.2622	0	24.954	0	0.694	0	258.6	4	90.6	4	-1E+10	1	-1e10	1	-1e10	1	-1E+10	1	-1E+10	1	-1E+10	1
4902624	25	C	02/26/2025	07:39	-126.449	48.002	0	0.80	0	9.1399	0	32.2623	0	24.954	0	0.793	0	258.3	4	90.5	4	-1E+10	1	-1e10	1	-1e10	1	-1E+10	1	-1E+10	1	-1E+10	1
4902624	25	C	02/26/2025	07:39	-126.449	48.002	0	1.00	0	9.1405	0	32.2625	0	24.954	0	0.992	0	258.2	4	90.5	4	-1E+10	1	-1e10	1	-1e10	1	-1E+10	1	-1E+10	1	-1E+10	1
4902624	25	C	02/26/2025	07:39	-126.449	48.002	0	1.10	0	9.1408	0	32.2626	0	24.954	0	1.091	0	258.1	4	90.4	4	-1E+10	1	-1e10	1	-1e10	1	-1E+10	1	-1E+10	1	-1E+10	1
4902624	25	C	02/26/2025	07:39	-126.449	48.002	0	1.20	0	9.1411	0	32.2627	0	24.954	0	1.190	0	257.7	4	90.3	4	-1E+10	1	-1e10	1	-1e10	1	-1E+10	1	-1E+10	1	-1E+10	1
4902624	25	C	02/26/2025	07:39	-126.449	48.002	0	1.50	0	9.1420	0	32.2630	0	24.954	0	1.487	0	-1e10	1	-1e10	1	-1E+10	1	-1e10	1	-1e10	1	-1E+10	1	-1E+10	1	-1E+10	1
4902624	25	C	02/26/2025	07:39	-126.449	48.002	0	1.70	0	9.1422	0	32.2630	0	24.954	0	1.686	0	-1e10	1	-1e10	1	-1E+10	1	0.4964	4	0.000675	0	-1E+10	1	-1E+10	1	-1E+10	1
4902624	25	C	02/26/2025	07:39	-126.449	48.002	0	1.80	0	9.1423	0	32.2630	0	24.954	0	1.785	0	-1e10	1	-1e10	1	-1E+10	1	0.5475	4	0.000733	0	-1E+10	1	-1E+10	1	-1E+10	1
4902624	25	C	02/26/2025	07:39	-126.449	48.002	0	1.90	0	9.1424	0	32.2630	0	24.954	0	1.884	0	-1e10	1	-1e10	1	-1E+10	1	0.5037	4	0.000698	0	-1E+10	1	-1E+10	1	-1E+10	1
4902624	25	C	02/26/2025	07:39	-126.449	48.002	0	2.00	0	9.1425	0	32.2630	0	24.954	0	1.983	0	-1e10	1	-1e10	1	-1E+10	1	0.5183	4	0.000686	0	-1E+10	1	-1E+10	1	-1E+10	1
4902624	25	C	02/26/2025	07:39	-126.449	48.002	0	2.10	0	9.1426	0	32.2630	0	24.954	0	2.082	0	-1e10	1	-1e10	1	-1E+10	1	0.5329	4	0.000616	0	-1E+10	1	-1E+10	1	-1E+10	1
4902624	25	C	02/26/2025	07:39	-126.449	48.002	0	2.20	0	9.1427	0	32.2630	0	24.954	0	2.182	0	257.5	4	90.2	4	-1E+10	1	0.5183	4	0.000640	0	-1E+10	1	-1E+10	1	-1E+10	1
4902624	25	C	02/26/2025	07:39	-126.449	48.002	0	2.40	0	9.1429	0	32.2630	0	24.954	0	2.380	0	-1e10	1	-1e10	1	-1E+10	1	0.4891	4	0.000663	0	-1E+10	1	-1E+10	1	-1E+10	1
4902624	25	C	02/26/2025	07:39	-126.449	48.002	0	2.50	0	9.1430	0	32.2630	0	24.954	0	2.479	0	-1e10	1	-1e10	1	-1E+10	1	0.5475	4	0.000675	0	-1E+10	1	-1E+10	1	-1E+10	1
4902624	25	C	02/26/2025	07:39	-126.449	48.002	0	2.80	0	9.1427	0	32.2630	0	24.954	0	2.776	0	257.5	4	90.2	4	-1E+10	1	0.4745	4	0.000675	0	-1E+10	1	-1E+10	1	-1E+10	1
4902624	25	C	02/26/2025	07:39	-126.449	48.002	0	3.00	0	9.1425	0	32.2630	0	24.954	0	2.975	0	-1e10	1	-1e10	1	-1E+10	1	0.4964	4	0.001027	0	-1E+10	1	-1E+10	1	-1E+10	1
4902624	25	C	02/26/2025	07:39	-126.449	48.002	0	3.10	0	9.1424	0	32.2630	0	24.954	0	3.074	0	-1e10	1	-1e10	1	-1E+10	1	0.4891	4	0.000675	0	-1E+10	1	-1E+10	1	-1E+10	1
4902624	25	C	02/26/2025	07:39	-126.449	48.002	0	3.20	0	9.1423	0	32.2630	0	24.954	0	3.173	0	-1e10	1	-1e10	1	-1E+10	1	0.4964	4	0.000769	0	-1E+10	1	-1E+10	1	-1E+10	1
4902624	25	C	02/26/2025	07:39	-126.449	48.002	0	3.40	0	9.1421	0	32.2630	0	24.954	0	3.371	0	-1e10	1	-1e10	1	-1E+10	1	0.4964	4	0.000675	0	-1E+10	1	-1E+10	1	-1E+10	1
4902624	25	C	02/26/2025	07:39	-126.449	48.002	0	3.50	0	9.1420	0	32.2630	0	24.954	0	3.471	0	257.3	4	90.2	4	-1E+10	1	0.5037	4	0.000757	0	-1E+10	1	-1E+10	1	-1E+10	1
4902624	25	C	02/26/2025	07:39	-126.449	48.002	0	3.70	0	9.1420	0	32.2630	0	24.954	0	3.669	0	-1e10	1	-1e10	1	-1E+10	1	0.4964	4	0.000663	0	-1E+10	1	-1E+10	1	-1E+10	1
4902624	25	C	02/26/2025	07:39	-126.449	48.002	0	4.10	0	9.1420	0	32.2630	0	24.954	0	4.066	0	257.3	4	90.2	4	-1E+10	1	0.5220	4	0.000698	0	-1E+10	1	-1E+10	1	-1E+10	1
4902624	25	C	02/26/2025	07:39	-126.449	48.002	0	4.30	0	9.1420	0	32.2630	0	24.954	0	4.264	0	-1e10	1	-1e10	1	-1E+10	1	0.5402	4	0.000722	0	-1E+10	1	-1E+10	1	-1E+10	1
4902624	25	C	02/26/2025	07:39	-126.449	48.002	0	4.40	0	9.1420	0	32.2630	0	24.954	0	4.363	0	-1e10	1	-1e10	1	-1E+10	1	-1e10	1	-1e10	1	-1E+10	1	-1E+10	1	-1E+10	1
4902624	25	C	02/26/2025	07:39	-126.449	48.002	0	4.50	0	9.1420	0	32.2630	0	24.954	0	4.462	0	-1e10	1	-1e10	1	-1E+10	1	0.5402	4	0.000651	0	-1E+10	1	-1E+10	1	-1E+10	1
4902624	25	C	02/26/2025	07:39	-126.449	48.002	0	4.60	0	9.1420	0	32.2630	0	24.954	0	4.561	0	-1e10	1	-1e10	1	-1E+10	1	0.5183	4	0.000675	0	-1E+10	1	-1E+10	1	-1E+10	1
4902624	25	C	02/26/2025	07:39	-126.449	48.002	0	4.70	0	9.1420	0	32.2630	0	24.954	0	4.661	0	-1e10	1	-1e10	1	-1E+10	1	0.5037	4	0.000686	0	-1E+10	1	-1E+10	1	-1E+10	1
4902624	25	C	02/26/2025	07:39	-126.449	48.002	0	4.90	0	9.1420	0	32.2630	0	24.954	0	4.859	0	257.2	4	90.1	4	-1E+10	1	0.5402	4	0.000663	0	-1E+10	1	-1E+10	1	-1E+10	1
4902624	25	C	02/26/2025	07:39	-126.449	48.002	0	5.10	0	9.1420	0	32.2630	0	24.954	0	5.057	0	-1e10	1	-1e10	1	-1E+10	1	0.5110	4	0.000628	0	-1E+10	1	-1E+10	1	-1E+10	1
4902624	25	C	02/26/2025	07:39	-126.449	48.002	0	5.50	0	9.1420	0	32.2630	0	24.954	0	5.454	0	257.1	4	90.1	4	-1E+10	1	0.5220	4	0.000645	0	-1E+10	1	-1E+10	1	-1E+10	1
4902624	25	C	02/26/2025	07:39	-126.449	48.002	0	5.70	0	9.1422	0	32.2630	0	24.954	0	5.652	0	-1e10	1	-1e10	1	-1E+10	1	0.5183	4	0.000663	0	-1E+10	1	-1E+10	1	-1E+10	1
4902624	25	C	02/26/2025	07:39	-126.449	48.002	0	5.80	0	9.1423	0	32.2630	0	24.954	0	5.751	0	-1e10	1	-1e10	1	-1E+10	1	0.4964	4	0.000757	0	-1E+10	1	-1E+10	1	-1E+10	1
4902624	25	C	02/26/2025	07:39	-126.449	48.002	0	6.30	0	9.1428	0	32.2630	0	24.954	0	6.247	0	256.9	4	90.0	4	-1E+10	1	0.5037	4	0.000640	0	-1E+10	1	-1E+10	1	-1E+10	1
4902624	25	C	02/26/2025	07:39	-126.449	48.002	0	6.50	0	9.1430	0	32.2630	0	24.954	0	6.445	0	-1e10	1	-1e10	1	-1E+10	1	0.5110	4	0.000616	0	-1E+10	1	-1E+10	1	-1E+10	1
4902624	25	C	02/26/2025	07:39	-126.449	48.002	0	6.60	0	9.1431	0	32.2630	0	24.954	0	6.545	0	-1e10	1	-1e10	1	-1E+10	1	0.5110	4	0.000628	0	-1E+10	1	-1E+10	1	-1E+10	1
4902624	25	C	02/26/2025	07:39	-126.449	48.002	0	6.80	0	9.1433	0	32.2630	0	24.954	0	6.743	0	-1e10	1	-1e10	1	-1E+10	1	0.5037	4	0.000639	0	-1E+10	1	-1E+10	1	-1E+10	1
4902624	25	C	02/26/2025	07:39	-126.449	48.002	0	6.90	0	9.1434	0	32.2630	0	24.954	0	6.842	0	256.9	4	90.0	4	-1E+10	1	0.5256	4	0.000651	0	-1E+10	1	-1E+10	1	-1E+10	1
4902624	25	C	02/26/2025	07:39	-126.449	48.002	0	7.00	0	9.1435	0	32.2630	0	24.954	0	6.941	0	-1e10	1	-1e10	1	-1E+10	1	0.5183	4	0.000675	0	-1E+10	1	-1E+10	1	-1E+10	1
4902624	25	C	02/26/2025	07:39	-126.449	48.002	0	7.30	0	9.1438	0	32.2630	0	24.954	0	7.239	0	-1e10	1	-1e10	1	-1E+10	1	0.5475	4	0.000733	0	-1E+10	1	-1E+10	1	-1E+10	1
4902624	25	C	02/26/2025	07:39	-126.449	48.002	0	7.40	0	9.1439	0	32.2630	0	24.954	0	7.338	0	-1e10	1	-1e10	1	-1E+10	1	0.4964	4	0.000604	0	-1E+10	1	-1E+10	1	-1E+10	1
4902624	25	C	02/26/2025	07:39	-126.449	48.002	0	7.50	0	9.1440	0	32.2630	0	24.954	0	7.437	0	-1e10	1	-1e10	1	-1E+10	1	-1e10	1	-1e10	1	-1E+10	1	-1E+10	1	-1E+10	1
4902624	25	C	02/26/2025	07:39	-126.449	48.002	0	7.60	0	9.1440	0	32.2630	0	24.954	0	7.536	0	256.9	4	90.0	4	-1E+10	1	0.5037	4	0.000628	0	-1E+10	1	-1E+10	1	-1E+10	1
4902624	25	C	02/26/2025	07:39	-126.449	48.002	0	7.70	0	9.1440	0	32.2630	0	24.954	0	7.635	0	-1e10	1	-1e10	1	-1E+10	1	0.5183	4	0.000769	0	-1E+10	1	-1E+10	1	-1E+10	1
4902624	25	C	02/26/2025	07:39	-126.449	48.002	0	7.80	0	9.1440	0	32.2630	0	24.954	0	7.734	0	-1e10	1	-1e10	1	-1E+10	1	0.4964	4	0.000698	0	-1E+10	1	-1E+10	1	-1E+10	1
4902624	25	C	02/26/2025	07:39	-126.449	48.002	0	8.00	0	9.1440	0	32.2630	0	24.954	0	7.933	0	-1e10	1	-1e10	1	-1E+10	1	0.5183	4	0.000663	0	-1E+10	1	-1E+10	1	-1E+10	1
4902624	25	C	02/26/2025	07:39	-126.449	48.002	0	8.10	0	9.1440	0	32.2630	0	24.954	0	8.032	0	-1e10	1	-1e10	1	-1E+10	1	0.5110	4	0.000651	0	-1E+10	1	-1E+10	1	-1E+10	1
4902624	25	C	02/26/2025	07:39	-126.449	48.002	0	8.20	0	9.1440	0	32.2630	0	24.954	0	8.131	0	256.7	4	90.0	4	-1E+10	1	0.5183	4	0.000686	0	-1E+10	1	-1E+10	1	-1E+10	1
4902624	25	C	02/26/2025	07:39	-126.449	48.002	0	8.50	0	9.1440	0	32.2630	0	24.954	0	8.428	0	-1e10	1	-1e10	1	-1E+10	1	0.5110	4	0.000604	0	-1E+10	1	-1E+10	1	-1E+10	1
4902624	25	C	02/26/2025	07:39	-126.449	48.002	0	8.60	0	9.1440	0	32.2630	0	24.954	0	8.528	0	-1e10	1	-1e10	1	-1E+10	1	0.4964	4	0.000733	0	-1E+10	1	-1E+10	1	-1E+10	1
4902624	25	C	02/26/2025	07:39	-126.449	48.002	0	8.80	0	9.1440	0	32.2630	0	24.954	0	8.726	0	-1e10	1	-1e10	1	-1E+10	1	0.5183	4	0.000604	0	-1E+10	1	-1E+10	1	-1E+10	1
4902624	25	C	02/26/2025	07:39	-126.449	48.002	0	8.90	0	9.1440	0	32.2630	0	24.954	0	8.825	0	256.7	4	90.0	4	-1E+10	1	0.5037	4	0.000686	0	-1E+10	1	-1E+10	1	-1E+10	1
4902624	25	C	02/26/2025	07:39	-126.449	48.002	0	9.00	0	9.1440	0	32.2630	0	24.954	0	8.924	0	-1e10	1	-1e10	1	-1E+10	1	0.5110	4	0.000686	0	-1E+10	1	-1E+10	1	-1E+10	1
4902624	25	C	02/26/2025	07:39	-126.449	48.002	0	9.10	0	9.1440	0	32.2630	0	24.954	0	9.023	0	-1e10	1	-1e10	1	-1E+10	1	0.5110	4	0.000651	0	-1E+10	1	-1E+10	1	-1E+10	1
4902624	25	C	02/26/2025	07:39	-126.449	48.002	0	9.30	0	9.1440	0	32.2630	0	24.954	0	9.222	0	-1e10	1	-1e10	1	-1E+10	1	0.5183	4	0.000616	0	-1E+10	1	-1E+10	1	-1E+10	1
4902624	25	C	02/26/2025	07:39	-126.449	48.002	0	9.50	0	9.1440	0	32.2630	0	24.954	0	9.420	0	-1e10	1	-1e10	1	-1E+10	1	-1e10	1	-1e10	1	-1E+10	1	-1E+10	1	-1E+10	1
4902624	25	C	02/26/2025	07:39	-126.449	48.002	0	9.60	0	9.1441	0	32.2630	0	24.954	0	9.519	0	256.5	4	89.9	4	-1E+10	1	0.5256	4	0.000780	0	-1E+10	1	-1E+10	1	-1E+10	1
4902624	25	C	02/26/2025	07:39	-126.449	48.002	0	9.70	0	9.1441	0	32.2630	0	24.954	0	9.618	0	-1e10	1	-1e10	1	-1E+10	1	0.5694	4	0.000628	0	-1E+10	1	-1E+10	1	-1E+10	1
4902624	25	C	02/26/2025	07:39	-126.449	48.002	0	9.80	0	9.1442	0	32.2630	0	24.954	0	9.718	0	-1e10	1	-1e10	1	-1E+10	1	0.5548	4	0.000616	0	-1E+10	1	-1E+10	1	-1E+10	1
4902624	25	C	02/26/2025	07:39	-126.449	48.002	0	9.90	0	9.1443	0	32.2630	0	24.954	0	9.817	0	-1e10	1	-1e10	1	-1E+10	1	0.4964	4	0.000663	0	-1E+10	1	-1E+10	1	-1E+10	1
4902624	25	C	02/26/2025	07:39	-126.449	48.002	0	10.20	0	9.1445	0	32.2630	0	24.954	0	10.114	0	256.6	4	89.9	4	-1E+10	1	0.5433	4	0.000683	0	-1E+10	1	-1E+10	1	-1E+10	1
4902624	25	C	02/26/2025	07:39	-126.449	48.002	0	10.80	0	9.1449	0	32.2630	0	24.954	0	10.709	0	256.5	4	89.9	4	-1E+10	1	0.5183	4	0.000733	0	-1E+10	1	-1E+10	1	-1E+10	1
4902624	25	C	02/26/2025	07:39	-126.449	48.002	0	11.00	0	9.1450	0	32.2630	0	24.954	0	10.907	0	-1e10	1	-1e10	1	-1E+10	1	-1e10	1	-1e10	1	-1E+10	1	-1E+10	1	-1E+10	1
4902624	25	C	02/26/2025	07:39	-126.449	48.002	0	11.40	0	9.1450	0	32.2630	0	24.954	0	11.304	0	256.3	4	89.8	4	-1E+10	1	0.4964	4	0.000628	0	-1E+10	1	-1E+10	1	-1E+10	1
4902624	25	C	02/26/2025	07:39	-126.449	48.002	0	12.00	0	9.1450	0	32.2630	0	24.954	0	11.899	0	256.3	4	89.8	4	-1E+10	1	0.5183	4	0.000637	0	-1E+10	1	-1E+10	1	-1E+10	1
4902624	25	C	02/26/2025	07:39	-126.449	48.002	0	12.80	0	9.1450	0	32.2630	0	24.954	0	12.692	0	256.2	4	89.8	4	-1E+10	1	0.5159	4	0.000671	0	-1E+10	1	-1E+10	1	-1E+10	1
4902624	25	C	02/26/2025	07:39	-126.449	48.002	0	13.00	0	9.1450	0	32.2630	0	24.954	0	12.891	0	-1e10	1	-1e10	1	-1E+10	1	-1e10	1	-1e10	1	-1E+10	1	-1E+10	1	-1E+10	1
4902624	25	C	02/26/2025	07:39	-126.449	48.002	0	13.60	0	9.1453	0	32.2630	0	24.954	0	13.485	0	256.0	4	89.7	4	-1E+10	1	0.5247	4	0.000672	0	-1E+10	1	-1E+10	1	-1E+10	1
4902624	25	C	02/26/2025	07:39	-126.449	48.002	0	14.40	0	9.1457	0	32.2630	0	24.953	0	14.279	0	256.0	4	89.7	4	-1E+10	1	0.5296	4	0.000647	0	-1E+10	1	-1E+10	1	-1E+10	1
4902624	25	C	02/26/2025	07:39	-126.449	48.002	0	15.10	0	9.1460	0	32.2630	0	24.953	0	14.973	0	-1e10	1	-1e10	1	-1E+10	1	-1e10	1	-1e10	1	-1E+10	1	-1E+10	1	-1E+10	1
4902624	25	C	02/26/2025	07:39	-126.449	48.002	0	15.40	0	9.1460	0	32.2630	0	24.953	0	15.270	0	255.9	4	89.7	4	-1E+10	1	0.5336	4	0.000649	0	-1E+10	1	-1E+10	1	-1E+10	1
4902624	25	C	02/26/2025	07:39	-126.449	48.002	0	16.30	0	9.1460	0	32.2630	0	24.953	0	16.163	0	255.7	4	89.6	4	-1E+10	1	0.5475	4	0.000673	0	-1E+10	1	-1E+10	1	-1E+10	1
4902624	25	C	02/26/2025	07:39	-126.449	48.002	0	17.10	0	9.1460	0	32.2630	0	24.953	0	16.956	0	-1e10	1	-1e10	1	-1E+10	1	-1e10	1	-1e10	1	-1E+10	1	-1E+10	1	-1E+10	1
4902624	25	C	02/26/2025	07:39	-126.449	48.002	0	17.20	0	9.1461	0	32.2630	0	24.953	0	17.055	0	255.7	4	89.6	4	-1E+10	1	0.5462	4	0.000628	0	-1E+10	1	-1E+10	1	-1E+10	1
4902624	25	C	02/26/2025	07:39	-126.449	48.002	0	18.10	0	9.1465	0	32.2630	0	24.953	0	17.947	0	255.6	4	89.6	4	-1E+10	1	0.5402	4	0.000628	0	-1E+10	1	-1E+10	1	-1E+10	1
4902624	25	C	02/26/2025	07:39	-126.449	48.002	0	19.00	0	9.1470	0	32.2630	0	24.953	0	18.840	0	-1e10	1	-1e10	1	-1E+10	1	-1e10	1	-1e10	1	-1E+10	1	-1E+10	1	-1E+10	1
4902624	25	C	02/26/2025	07:39	-126.449	48.002	0	19.10	0	9.1470	0	32.2630	0	24.953	0	18.939	0	255.5	4	89.5	4	-1E+10	1	0.5535	4	0.000596	0	-1E+10	1	-1E+10	1	-1E+10	1
4902624	25	C	02/26/2025	07:39	-126.449	48.002	0	19.90	0	9.1470	0	32.2630	0	24.953	0	19.732	0	255.4	4	89.5	4	-1E+10	1	0.5321	4	0.000629	0	-1E+10	1	-1E+10	1	-1E+10	1
4902624	25	C	02/26/2025	07:39	-126.449	48.002	0	20.80	0	9.1470	0	32.2630	0	24.953	0	20.624	0	255.4	4	89.5	4	-1E+10	1	0.5302	4	0.000639	0	-1E+10	1	-1E+10	1	-1E+10	1
4902624	25	C	02/26/2025	07:39	-126.449	48.002	0	21.00	0	9.1470	0	32.2630	0	24.953	0	20.823	0	-1e10	1	-1e10	1	-1E+10	1	-1e10	1	-1e10	1	-1E+10	1	-1E+10	1	-1E+10	1
4902624	25	C	02/26/2025	07:39	-126.449	48.002	0	21.60	0	9.1470	0	32.2630	0	24.953	0	21.418	0	255.2	4	89.5	4	-1E+10	1	0.5459	4	0.000629	0	-1E+10	1	-1E+10	1	-1E+10	1
4902624	25	C	02/26/2025	07:39	-126.449	48.002	0	22.40	0	9.1470	0	32.2630	0	24.953	0	22.211	0	255.1	4	89.4	4	-1E+10	1	0.5621	4	0.000612	0	-1E+10	1	-1E+10	1	-1E+10	1
4902624	25	C	02/26/2025	07:39	-126.449	48.002	0	23.00	0	9.1470	0	32.2630	0	24.953	0	22.806	0	-1e10	1	-1e10	1	-1E+10	1	-1e10	1	-1e10	1	-1E+10	1	-1E+10	1	-1E+10	1
4902624	25	C	02/26/2025	07:39	-126.449	48.002	0	23.20	0	9.1470	0	32.2630	0	24.953	0	23.004	0	255.0	4	89.4	4	-1E+10	1	0.5446	4	0.000615	0	-1E+10	1	-1E+10	1	-1E+10	1
4902624	25	C	02/26/2025	07:39	-126.449	48.002	0	24.00	0	9.1470	0	32.2630	0	24.953	0	23.797	0	255.0	4	89.4	4	-1E+10	1	0.5059	4	0.000635	0	-1E+10	1	-1E+10	1	-1E+10	1
4902624	25	C	02/26/2025	07:39	-126.449	48.002	0	24.90	0	9.1470	0	32.2630	0	24.953	0	24.690	0	254.9	4	89.3	4	-1E+10	1	0.5256	4	0.000592	0	-1E+10	1	-1E+10	1	-1E+10	1
4902624	25	C	02/26/2025	07:39	-126.449	48.002	0	25.00	0	9.1470	0	32.2630	0	24.953	0	24.789	0	-1e10	1	-1e10	1	-1E+10	1	-1e10	1	-1e10	1	-1E+10	1	-1E+10	1	-1E+10	1
4902624	25	C	02/26/2025	07:39	-126.449	48.002	0	25.70	0	9.1470	0	32.2630	0	24.953	0	25.483	0	254.7	4	89.3	4	-1E+10	1	0.5475	4	0.000581	0	-1E+10	1	-1E+10	1	-1E+10	1
4902624	25	C	02/26/2025	07:39	-126.449	48.002	0	26.60	0	9.1470	0	32.2630	0	24.953	0	26.375	0	254.6	4	89.2	4	-1E+10	1	0.5672	4	0.000591	0	-1E+10	1	-1E+10	1	-1E+10	1
4902624	25	C	02/26/2025	07:39	-126.449	48.002	0	27.00	0	9.1470	0	32.2630	0	24.953	0	26.772	0	-1e10	1	-1e10	1	-1E+10	1	-1e10	1	-1e10	1	-1E+10	1	-1E+10	1	-1E+10	1
4902624	25	C	02/26/2025	07:39	-126.449	48.002	0	27.40	0	9.1474	0	32.2630	0	24.953	0	27.168	0	254.3	4	89.1	4	-1E+10	1	0.5740	4	0.000615	0	-1E+10	1	-1E+10	1	-1E+10	1
4902624	25	C	02/26/2025	07:39	-126.449	48.002	0	28.30	0	9.1482	0	32.2630	0	24.953	0	28.061	0	254.2	4	89.1	4	-1E+10	1	0.5813	4	0.000642	0	-1E+10	1	-1E+10	1	-1E+10	1
4902624	25	C	02/26/2025	07:39	-126.449	48.002	0	29.10	0	9.1490	0	32.2630	0	24.953	0	28.854	0	254.1	4	89.1	4	-1E+10	1	0.5840	4	0.000657	0	-1E+10	1	-1E+10	1	-1E+10	1
4902624	25	C	02/26/2025	07:39	-126.449	48.002	0	30.00	0	9.1486	0	32.2630	0	24.953	0	29.746	0	253.8	4	89.0	4	-1E+10	1	0.5867	4	0.000663	0	-1E+10	1	-1E+10	1	-1E+10	1
4902624	25	C	02/26/2025	07:39	-126.449	48.002	0	30.90	0	9.1481	0	32.2630	0	24.953	0	30.638	0	253.6	4	88.9	4	-1E+10	1	0.5913	4	0.000658	0	-1E+10	1	-1E+10	1	-1E+10	1
4902624	25	C	02/26/2025	07:39	-126.449	48.002	0	31.10	0	9.1480	0	32.2630	0	24.953	0	30.837	0	-1e10	1	-1e10	1	-1E+10	1	-1e10	1	-1e10	1	-1E+10	1	-1E+10	1	-1E+10	1
4902624	25	C	02/26/2025	07:39	-126.449	48.002	0	31.80	0	9.1487	0	32.2630	0	24.953	0	31.531	0	253.4	4	88.8	4	-1E+10	1	0.5913	4	0.000650	0	-1E+10	1	-1E+10	1	-1E+10	1
4902624	25	C	02/26/2025	07:39	-126.449	48.002	0	32.60	0	9.1496	0	32.2630	0	24.953	0	32.324	0	253.1	4	88.7	4	-1E+10	1	0.5920	4	0.000679	0	-1E+10	1	-1E+10	1	-1E+10	1
4902624	25	C	02/26/2025	07:39	-126.449	48.002	0	33.00	0	9.1500	0	32.2630	0	24.953	0	32.720	0	-1e10	1	-1e10	1	-1E+10	1	-1e10	1	-1e10	1	-1E+10	1	-1E+10	1	-1E+10	1
4902624	25	C	02/26/2025	07:39	-126.449	48.002	0	33.50	0	9.1502	0	32.2630	0	24.953	0	33.216	0	252.9	4	88.6	4	-1E+10	1	0.5986	4	0.000616	0	-1E+10	1	-1E+10	1	-1E+10	1
4902624	25	C	02/26/2025	07:39	-126.449	48.002	0	34.40	0	9.1507	0	32.2630	0	24.953	0	34.108	0	252.6	4	88.5	4	-1E+10	1	0.5913	4	0.000815	0	-1E+10	1	-1E+10	1	-1E+10	1
4902624	25	C	02/26/2025	07:39	-126.449	48.002	0	35.00	0	9.1510	0	32.2630	0	24.953	0	34.703	0	-1e10	1	-1e10	1	-1E+10	1	-1e10	1	-1e10	1	-1E+10	1	-1E+10	1	-1E+10	1
4902624	25	C	02/26/2025	07:39	-126.449	48.002	0	35.30	0	9.1510	0	32.2630	0	24.953	0	35.001	0	252.3	4	88.4	4	-1E+10	1	0.5913	4	0.000652	0	-1E+10	1	-1E+10	1	-1E+10	1
4902624	25	C	02/26/2025	07:39	-126.449	48.002	0	36.20	0	9.1510	0	32.2630	0	24.953	0	35.893	0	251.9	4	88.3	4	-1E+10	1	0.6475	4	0.000632	0	-1E+10	1	-1E+10	1	-1E+10	1
4902624	25	C	02/26/2025	07:39	-126.449	48.002	0	37.00	0	9.1510	0	32.2630	0	24.953	0	36.686	0	251.7	4	88.2	4	-1E+10	1	0.6229	4	0.000665	0	-1E+10	1	-1E+10	1	-1E+10	1
4902624	25	C	02/26/2025	07:39	-126.449	48.002	0	37.90	0	9.1491	0	32.2639	0	24.954	0	37.579	0	251.0	4	88.0	4	-1E+10	1	0.6132	4	0.000669	0	-1E+10	1	-1E+10	1	-1E+10	1
4902624	25	C	02/26/2025	07:39	-126.449	48.002	0	38.80	0	9.1472	0	32.2649	0	24.955	0	38.471	0	250.6	4	87.8	4	-1E+10	1	0.6265	4	0.000715	0	-1E+10	1	-1E+10	1	-1E+10	1
4902624	25	C	02/26/2025	07:39	-126.449	48.002	0	38.90	0	9.1470	0	32.2650	0	24.955	0	38.570	0	-1e10	1	-1e10	1	-1E+10	1	-1e10	1	-1e10	1	-1E+10	1	-1E+10	1	-1E+10	1
4902624	25	C	02/26/2025	07:39	-126.449	48.002	0	39.70	0	9.1458	0	32.2658	0	24.956	0	39.363	0	250.0	4	87.6	4	-1E+10	1	0.5937	4	0.000775	0	-1E+10	1	-1E+10	1	-1E+10	1
4902624	25	C	02/26/2025	07:39	-126.449	48.002	0	40.50	0	9.1446	0	32.2666	0	24.957	0	40.156	0	249.4	4	87.4	4	-1E+10	1	0.5782	4	0.000601	0	-1E+10	1	-1E+10	1	-1E+10	1
4902624	25	C	02/26/2025	07:39	-126.449	48.002	0	40.90	0	9.1440	0	32.2670	0	24.957	0	40.553	0	-1e10	1	-1e10	1	-1E+10	1	-1e10	1	-1e10	1	-1E+10	1	-1E+10	1	-1E+10	1
4902624	25	C	02/26/2025	07:39	-126.449	48.002	0	41.40	0	9.1435	0	32.2675	0	24.958	0	41.048	0	248.9	4	87.2	4	-1E+10	1	0.5913	4	0.000674	0	-1E+10	1	-1E+10	1	-1E+10	1
4902624	25	C	02/26/2025	07:39	-126.449	48.002	0	42.30	0	9.1427	0	32.2683	0	24.959	0	41.941	0	248.2	4	87.0	4	-1E+10	1	0.6092	4	0.000655	0	-1E+10	1	-1E+10	1	-1E+10	1
4902624	25	C	02/26/2025	07:39	-126.449	48.002	0	43.00	0	9.1420	0	32.2690	0	24.959	0	42.635	0	-1e10	1	-1e10	1	-1E+10	1	-1e10	1	-1e10	1	-1E+10	1	-1E+10	1	-1E+10	1
4902624	25	C	02/26/2025	07:39	-126.449	48.002	0	43.20	0	9.1420	0	32.2690	0	24.959	0	42.833	0	247.5	4	86.7	4	-1E+10	1	0.5905	4	0.000614	0	-1E+10	1	-1E+10	1	-1E+10	1
4902624	25	C	02/26/2025	07:39	-126.449	48.002	0	44.10	0	9.1420	0	32.2690	0	24.959	0	43.725	0	246.8	4	86.5	4	-1E+10	1	0.5979	4	0.000634	0	-1E+10	1	-1E+10	1	-1E+10	1
4902624	25	C	02/26/2025	07:39	-126.449	48.002	0	45.00	0	9.1420	0	32.2690	0	24.959	0	44.618	0	246.0	4	86.2	4	-1E+10	1	0.6059	4	0.000704	0	-1E+10	1	-1E+10	1	-1E+10	1
4902624	25	C	02/26/2025	07:39	-126.449	48.002	0	45.90	0	9.1420	0	32.2690	0	24.959	0	45.510	0	244.8	4	85.8	4	-1E+10	1	0.6030	4	0.000714	0	-1E+10	1	-1E+10	1	-1E+10	1
4902624	25	C	02/26/2025	07:39	-126.449	48.002	0	46.80	0	9.1420	0	32.2690	0	24.959	0	46.402	0	243.5	4	85.3	4	-1E+10	1	0.5906	4	0.000654	0	-1E+10	1	-1E+10	1	-1E+10	1
4902624	25	C	02/26/2025	07:39	-126.449	48.002	0	47.10	0	9.1420	0	32.2690	0	24.959	0	46.699	0	-1e10	1	-1e10	1	-1E+10	1	-1e10	1	-1e10	1	-1E+10	1	-1E+10	1	-1E+10	1
4902624	25	C	02/26/2025	07:39	-126.449	48.002	0	47.80	0	9.1402	0	32.2694	0	24.960	0	47.393	0	242.2	4	84.9	4	-1E+10	1	0.5667	4	0.000652	0	-1E+10	1	-1E+10	1	-1E+10	1
4902624	25	C	02/26/2025	07:39	-126.449	48.002	0	48.70	0	9.1378	0	32.2698	0	24.961	0	48.286	0	240.6	4	84.3	4	-1E+10	1	0.5548	4	0.000604	0	-1E+10	1	-1E+10	1	-1E+10	1
4902624	25	C	02/26/2025	07:39	-126.449	48.002	0	49.00	0	9.1370	0	32.2700	0	24.961	0	48.583	0	-1e10	1	-1e10	1	-1E+10	1	-1e10	1	-1e10	1	-1E+10	1	-1E+10	1	-1E+10	1
4902624	25	C	02/26/2025	07:39	-126.449	48.002	0	49.60	0	9.1364	0	32.2718	0	24.962	0	49.178	0	239.0	4	83.8	4	-1E+10	1	0.4818	4	0.000604	0	-1E+10	1	-1E+10	1	-1E+10	1
4902624	25	C	02/26/2025	07:39	-126.449	48.002	0	50.50	0	9.1355	0	32.2745	0	24.965	0	50.070	0	237.0	4	83.1	4	-1E+10	1	0.4519	4	0.000594	0	-1E+10	1	-1E+10	1	-1E+10	1
4902624	25	C	02/26/2025	07:39	-126.449	48.002	0	51.00	0	9.1350	0	32.2760	0	24.966	0	50.566	0	-1e10	1	-1e10	1	-1E+10	1	-1e10	1	-1e10	1	-1E+10	1	-1E+10	1	-1E+10	1
4902624	25	C	02/26/2025	07:39	-126.449	48.002	0	51.40	0	9.1380	0	32.2828	0	24.971	0	50.962	0	234.8	4	82.3	4	-1E+10	1	0.4221	4	0.000600	0	-1E+10	1	-1E+10	1	-1E+10	1
4902624	25	C	02/26/2025	07:39	-126.449	48.002	0	52.30	0	9.1447	0	32.2981	0	24.982	0	51.855	0	232.2	4	81.4	4	-1E+10	1	0.3804	4	0.000565	0	-1E+10	1	-1E+10	1	-1E+10	1
4902624	25	C	02/26/2025	07:39	-126.449	48.002	0	53.00	0	9.1500	0	32.3100	0	24.990	0	52.548	0	-1e10	1	-1e10	1	-1E+10	1	-1e10	1	-1e10	1	-1E+10	1	-1E+10	1	-1E+10	1
4902624	25	C	02/26/2025	07:39	-126.449	48.002	0	53.30	0	9.1532	0	32.3190	0	24.997	0	52.846	0	230.0	4	80.7	4	-1E+10	1	0.3395	4	0.000569	0	-1E+10	1	-1E+10	1	-1E+10	1
4902624	25	C	02/26/2025	07:39	-126.449	48.002	0	54.30	0	9.1637	0	32.3490	0	25.019	0	53.837	0	227.9	4	80.0	4	-1E+10	1	0.3132	4	0.000566	0	-1E+10	1	-1E+10	1	-1E+10	1
4902624	25	C	02/26/2025	07:39	-126.449	48.002	0	54.90	0	9.1700	0	32.3670	0	25.032	0	54.432	0	-1e10	1	-1e10	1	-1E+10	1	-1e10	1	-1e10	1	-1E+10	1	-1E+10	1	-1E+10	1
4902624	25	C	02/26/2025	07:39	-126.449	48.002	0	55.20	0	9.1713	0	32.3714	0	25.035	0	54.729	0	225.6	4	79.2	4	-1E+10	1	0.3009	4	0.000514	0	-1E+10	1	-1E+10	1	-1E+10	1
4902624	25	C	02/26/2025	07:39	-126.449	48.002	0	56.10	0	9.1751	0	32.3847	0	25.045	0	55.622	0	223.2	4	78.4	4	-1E+10	1	0.3039	4	0.000564	0	-1E+10	1	-1E+10	1	-1E+10	1
4902624	25	C	02/26/2025	07:39	-126.449	48.002	0	57.00	0	9.1790	0	32.3980	0	25.055	0	56.514	0	220.5	4	77.4	4	-1E+10	1	0.2920	4	0.000545	0	-1E+10	1	-1E+10	1	-1E+10	1
4902624	25	C	02/26/2025	07:39	-126.449	48.002	0	58.00	0	9.1815	0	32.4300	0	25.079	0	57.505	0	217.8	4	76.5	4	-1E+10	1	0.2774	4	0.000534	0	-1E+10	1	-1E+10	1	-1E+10	1
4902624	25	C	02/26/2025	07:39	-126.449	48.002	0	58.90	0	9.1838	0	32.4588	0	25.101	0	58.397	0	215.1	4	75.6	4	-1E+10	1	0.2555	4	0.000510	0	-1E+10	1	-1E+10	1	-1E+10	1
4902624	25	C	02/26/2025	07:39	-126.449	48.002	0	59.00	0	9.1840	0	32.4620	0	25.104	0	58.497	0	-1e10	1	-1e10	1	-1E+10	1	-1e10	1	-1e10	1	-1E+10	1	-1E+10	1	-1E+10	1
4902624	25	C	02/26/2025	07:39	-126.449	48.002	0	59.70	0	9.1766	0	32.4786	0	25.118	0	59.190	0	212.9	4	74.8	4	-1E+10	1	0.2263	4	0.000534	0	-1E+10	1	-1E+10	1	-1E+10	1
4902624	25	C	02/26/2025	07:39	-126.449	48.002	0	60.10	0	9.1724	0	32.4881	0	25.126	0	59.587	0	211.7	4	74.4	4	-1E+10	1	0.2458	4	0.000518	0	-1E+10	1	-1E+10	1	-1E+10	1
4902624	25	C	02/26/2025	07:39	-126.449	48.002	0	60.40	0	9.1693	0	32.4952	0	25.132	0	59.884	0	210.3	4	73.9	4	-1E+10	1	0.2579	4	0.000514	0	-1E+10	1	-1E+10	1	-1E+10	1
4902624	25	C	02/26/2025	07:39	-126.449	48.002	0	60.70	0	9.1661	0	32.5023	0	25.138	0	60.182	0	208.8	4	73.3	4	-1E+10	1	0.2573	4	0.000513	0	-1E+10	1	-1E+10	1	-1E+10	1
4902624	25	C	02/26/2025	07:39	-126.449	48.002	0	60.90	0	9.1640	0	32.5070	0	25.142	0	60.380	0	-1e10	1	-1e10	1	-1E+10	1	-1e10	1	-1e10	1	-1E+10	1	-1E+10	1	-1E+10	1
4902624	25	C	02/26/2025	07:39	-126.449	48.002	0	61.00	0	9.1621	0	32.5117	0	25.146	0	60.479	0	207.4	4	72.8	4	-1E+10	1	0.2409	4	0.000487	0	-1E+10	1	-1E+10	1	-1E+10	1
4902624	25	C	02/26/2025	07:39	-126.449	48.002	0	61.30	0	9.1566	0	32.5256	0	25.158	0	60.777	0	206.0	4	72.3	4	-1E+10	1	0.2336	4	0.000451	0	-1E+10	1	-1E+10	1	-1E+10	1
4902624	25	C	02/26/2025	07:39	-126.449	48.002	0	61.60	0	9.1510	0	32.5396	0	25.170	0	61.074	0	204.3	4	71.8	4	-1E+10	1	0.2409	4	0.000463	0	-1E+10	1	-1E+10	1	-1E+10	1
4902624	25	C	02/26/2025	07:39	-126.449	48.002	0	61.90	0	9.1455	0	32.5535	0	25.181	0	61.371	0	202.5	4	71.1	4	-1E+10	1	0.2409	4	0.000487	0	-1E+10	1	-1E+10	1	-1E+10	1
4902624	25	C	02/26/2025	07:39	-126.449	48.002	0	62.20	0	9.1399	0	32.5674	0	25.193	0	61.669	0	200.3	4	70.4	4	-1E+10	1	0.2190	4	0.000469	0	-1E+10	1	-1E+10	1	-1E+10	1
4902624	25	C	02/26/2025	07:39	-126.449	48.002	0	62.60	0	9.1326	0	32.5860	0	25.209	0	62.065	0	197.6	4	69.4	4	-1E+10	1	0.2117	4	0.000481	0	-1E+10	1	-1E+10	1	-1E+10	1
4902624	25	C	02/26/2025	07:39	-126.449	48.002	0	62.90	0	9.1270	0	32.6000	0	25.221	0	62.363	0	-1e10	1	-1e10	1	-1E+10	1	-1e10	1	-1e10	1	-1E+10	1	-1E+10	1	-1E+10	1
4902624	25	C	02/26/2025	07:39	-126.449	48.002	0	63.00	0	9.1261	0	32.6069	0	25.226	0	62.462	0	193.9	4	68.1	4	-1E+10	1	0.1898	4	0.000492	0	-1E+10	1	-1E+10	1	-1E+10	1
4902624	25	C	02/26/2025	07:39	-126.449	48.002	0	63.50	0	9.1219	0	32.6414	0	25.254	0	62.957	0	191.0	4	67.1	4	-1E+10	1	0.1637	4	0.000492	0	-1E+10	1	-1E+10	1	-1E+10	1
4902624	25	C	02/26/2025	07:39	-126.449	48.002	0	64.10	0	9.1167	0	32.6829	0	25.287	0	63.552	0	188.1	4	66.1	4	-1E+10	1	0.1533	4	0.000471	0	-1E+10	1	-1E+10	1	-1E+10	1
4902624	25	C	02/26/2025	07:39	-126.449	48.002	0	64.70	0	9.1116	0	32.7243	0	25.320	0	64.147	0	185.6	4	65.2	4	-1E+10	1	0.1502	4	0.000458	0	-1E+10	1	-1E+10	1	-1E+10	1
4902624	25	C	02/26/2025	07:39	-126.449	48.002	0	65.00	0	9.1090	0	32.7450	0	25.337	0	64.444	0	-1e10	1	-1e10	1	-1E+10	1	-1e10	1	-1e10	1	-1E+10	1	-1E+10	1	-1E+10	1
4902624	25	C	02/26/2025	07:39	-126.449	48.002	0	65.30	0	9.1079	0	32.7569	0	25.347	0	64.742	0	183.0	4	64.3	4	-1E+10	1	0.1314	4	0.000498	0	-1E+10	1	-1E+10	1	-1E+10	1
4902624	25	C	02/26/2025	07:39	-126.449	48.002	0	65.90	0	9.1056	0	32.7806	0	25.365	0	65.337	0	180.7	4	63.5	4	-1E+10	1	0.1150	4	0.000445	0	-1E+10	1	-1E+10	1	-1E+10	1
4902624	25	C	02/26/2025	07:39	-126.449	48.002	0	66.60	0	9.1029	0	32.8082	0	25.388	0	66.030	0	178.2	4	62.6	4	-1E+10	1	0.1147	4	0.000537	0	-1E+10	1	-1E+10	1	-1E+10	1
4902624	25	C	02/26/2025	07:39	-126.449	48.002	0	67.10	0	9.1010	0	32.8280	0	25.403	0	66.526	0	-1e10	1	-1e10	1	-1E+10	1	-1e10	1	-1e10	1	-1E+10	1	-1E+10	1	-1E+10	1
4902624	25	C	02/26/2025	07:39	-126.449	48.002	0	67.40	0	9.0806	0	32.8392	0	25.415	0	66.823	0	175.7	4	61.7	4	-1E+10	1	0.1119	4	0.000479	0	-1E+10	1	-1E+10	1	-1E+10	1
4902624	25	C	02/26/2025	07:39	-126.449	48.002	0	68.20	0	9.0262	0	32.8693	0	25.447	0	67.617	0	173.5	4	60.9	4	-1E+10	1	0.1136	4	0.000428	0	-1E+10	1	-1E+10	1	-1E+10	1
4902624	25	C	02/26/2025	07:39	-126.449	48.002	0	69.00	0	8.9718	0	32.8993	0	25.479	0	68.410	0	171.5	4	60.2	4	-1E+10	1	0.1168	4	0.000417	0	-1E+10	1	-1E+10	1	-1E+10	1
4902624	25	C	02/26/2025	07:39	-126.449	48.002	0	69.10	0	8.9650	0	32.9030	0	25.483	0	68.509	0	-1e10	1	-1e10	1	-1E+10	1	-1e10	1	-1e10	1	-1E+10	1	-1E+10	1	-1E+10	1
4902624	25	C	02/26/2025	07:39	-126.449	48.002	0	69.80	0	8.8803	0	32.9390	0	25.525	0	69.203	0	170.0	4	59.5	4	-1E+10	1	0.1141	4	0.000413	0	-1E+10	1	-1E+10	1	-1E+10	1
4902624	25	C	02/26/2025	07:39	-126.449	48.002	0	70.70	0	8.7714	0	32.9854	0	25.578	0	70.095	0	168.4	4	58.9	4	-1E+10	1	0.1042	4	0.000419	0	-1E+10	1	-1E+10	1	-1E+10	1
4902624	25	C	02/26/2025	07:39	-126.449	48.002	0	71.10	0	8.7230	0	33.0060	0	25.601	0	70.491	0	-1e10	1	-1e10	1	-1E+10	1	-1e10	1	-1e10	1	-1E+10	1	-1E+10	1	-1E+10	1
4902624	25	C	02/26/2025	07:39	-126.449	48.002	0	71.60	0	8.6962	0	33.0221	0	25.618	0	70.987	0	166.9	4	58.2	4	-1E+10	1	0.0964	4	0.000404	0	-1E+10	1	-1E+10	1	-1E+10	1
4902624	25	C	02/26/2025	07:39	-126.449	48.002	0	72.60	0	8.6425	0	33.0542	0	25.651	0	71.978	0	165.5	4	57.7	4	-1E+10	1	0.1022	4	0.000402	0	-1E+10	1	-1E+10	1	-1E+10	1
4902624	25	C	02/26/2025	07:39	-126.449	48.002	0	73.00	0	8.6210	0	33.0670	0	25.665	0	72.375	0	-1e10	1	-1e10	1	-1E+10	1	-1e10	1	-1e10	1	-1E+10	1	-1E+10	1	-1E+10	1
4902624	25	C	02/26/2025	07:39	-126.449	48.002	0	73.40	0	8.6156	0	33.0714	0	25.669	0	72.771	0	164.3	4	57.3	4	-1E+10	1	0.1022	4	0.000393	0	-1E+10	1	-1E+10	1	-1E+10	1
4902624	25	C	02/26/2025	07:39	-126.449	48.002	0	74.30	0	8.6034	0	33.0813	0	25.679	0	73.663	0	163.0	4	56.8	4	-1E+10	1	0.0962	4	0.000479	0	-1E+10	1	-1E+10	1	-1E+10	1
4902624	25	C	02/26/2025	07:39	-126.449	48.002	0	75.00	0	8.5940	0	33.0890	0	25.686	0	74.357	0	-1e10	1	-1e10	1	-1E+10	1	-1e10	1	-1e10	1	-1E+10	1	-1E+10	1	-1E+10	1
4902624	25	C	02/26/2025	07:39	-126.449	48.002	0	75.20	0	8.5913	0	33.0904	0	25.688	0	74.555	0	161.5	4	56.3	4	-1E+10	1	0.0949	4	0.000385	0	-1E+10	1	-1E+10	1	-1E+10	1
4902624	25	C	02/26/2025	07:39	-126.449	48.002	0	76.00	0	8.5803	0	33.0958	0	25.694	0	75.348	0	159.9	4	55.7	4	-1E+10	1	0.0903	4	0.000384	0	-1E+10	1	-1E+10	1	-1E+10	1
4902624	25	C	02/26/2025	07:39	-126.449	48.002	0	76.90	0	8.5680	0	33.1020	0	25.700	0	76.240	0	157.5	4	54.8	4	-1E+10	1	0.0839	4	0.000387	0	-1E+10	1	-1E+10	1	-1E+10	1
4902624	25	C	02/26/2025	07:39	-126.449	48.002	0	77.70	0	8.5376	0	33.1288	0	25.726	0	77.033	0	157.0	4	54.6	4	-1E+10	1	0.0779	4	0.000393	0	-1E+10	1	-1E+10	1	-1E+10	1
4902624	25	C	02/26/2025	07:39	-126.449	48.002	0	78.60	0	8.5034	0	33.1590	0	25.755	0	77.926	0	155.5	4	54.1	4	-1E+10	1	0.0708	4	0.000402	0	-1E+10	1	-1E+10	1	-1E+10	1
4902624	25	C	02/26/2025	07:39	-126.449	48.002	0	78.90	0	8.4920	0	33.1690	0	25.764	0	78.223	0	-1e10	1	-1e10	1	-1E+10	1	-1e10	1	-1e10	1	-1E+10	1	-1E+10	1	-1E+10	1
4902624	25	C	02/26/2025	07:39	-126.449	48.002	0	79.50	0	8.4714	0	33.1844	0	25.780	0	78.818	0	154.1	4	53.6	4	-1E+10	1	0.0684	4	0.000373	0	-1E+10	1	-1E+10	1	-1E+10	1
4902624	25	C	02/26/2025	07:39	-126.449	48.002	0	80.40	0	8.4406	0	33.2076	0	25.802	0	79.710	0	152.8	4	53.1	4	-1E+10	1	0.0803	4	0.000393	0	-1E+10	1	-1E+10	1	-1E+10	1
4902624	25	C	02/26/2025	07:39	-126.449	48.002	0	81.00	0	8.4200	0	33.2230	0	25.818	0	80.305	0	-1e10	1	-1e10	1	-1E+10	1	-1e10	1	-1e10	1	-1E+10	1	-1E+10	1	-1E+10	1
4902624	25	C	02/26/2025	07:39	-126.449	48.002	0	81.30	0	8.4117	0	33.2293	0	25.824	0	80.602	0	151.5	4	52.6	4	-1E+10	1	0.0730	4	0.000369	0	-1E+10	1	-1E+10	1	-1E+10	1
4902624	25	C	02/26/2025	07:39	-126.449	48.002	0	82.20	0	8.3870	0	33.2482	0	25.842	0	81.494	0	150.2	4	52.1	4	-1E+10	1	0.0790	4	0.000331	0	-1E+10	1	-1E+10	1	-1E+10	1
4902624	25	C	02/26/2025	07:39	-126.449	48.002	0	83.00	0	8.3650	0	33.2650	0	25.859	0	82.287	0	-1e10	1	-1e10	1	-1E+10	1	-1e10	1	-1e10	1	-1E+10	1	-1E+10	1	-1E+10	1
4902624	25	C	02/26/2025	07:39	-126.449	48.002	0	83.10	0	8.3625	0	33.2664	0	25.860	0	82.386	0	149.1	4	51.7	4	-1E+10	1	0.0757	4	0.000367	0	-1E+10	1	-1E+10	1	-1E+10	1
4902624	25	C	02/26/2025	07:39	-126.449	48.002	0	84.00	0	8.3400	0	33.2795	0	25.874	0	83.278	0	148.0	4	51.3	4	-1E+10	1	0.0689	4	0.000353	0	-1E+10	1	-1E+10	1	-1E+10	1
4902624	25	C	02/26/2025	07:39	-126.449	48.002	0	84.90	0	8.3175	0	33.2925	0	25.888	0	84.170	0	146.9	4	50.9	4	-1E+10	1	0.0657	4	0.000354	0	-1E+10	1	-1E+10	1	-1E+10	1
4902624	25	C	02/26/2025	07:39	-126.449	48.002	0	85.00	0	8.3150	0	33.2940	0	25.889	0	84.269	0	-1e10	1	-1e10	1	-1E+10	1	-1e10	1	-1e10	1	-1E+10	1	-1E+10	1	-1E+10	1
4902624	25	C	02/26/2025	07:39	-126.449	48.002	0	85.90	0	8.2925	0	33.3070	0	25.903	0	85.161	0	145.6	4	50.5	4	-1E+10	1	0.0657	4	0.000401	0	-1E+10	1	-1E+10	1	-1E+10	1
4902624	25	C	02/26/2025	07:39	-126.449	48.002	0	86.80	0	8.2700	0	33.3201	0	25.916	0	86.053	0	144.0	4	49.9	4	-1E+10	1	0.0628	4	0.000400	0	-1E+10	1	-1E+10	1	-1E+10	1
4902624	25	C	02/26/2025	07:39	-126.449	48.002	0	87.00	0	8.2650	0	33.3230	0	25.919	0	86.252	0	-1e10	1	-1e10	1	-1E+10	1	-1e10	1	-1e10	1	-1E+10	1	-1E+10	1	-1E+10	1
4902624	25	C	02/26/2025	07:39	-126.449	48.002	0	87.80	0	8.2183	0	33.3495	0	25.947	0	87.045	0	142.6	4	49.4	4	-1E+10	1	0.0523	4	0.000336	0	-1E+10	1	-1E+10	1	-1E+10	1
4902624	25	C	02/26/2025	07:39	-126.449	48.002	0	88.80	0	8.1598	0	33.3827	0	25.982	0	88.036	0	141.4	4	48.9	4	-1E+10	1	0.0584	4	0.000346	0	-1E+10	1	-1E+10	1	-1E+10	1
4902624	25	C	02/26/2025	07:39	-126.449	48.002	0	88.90	0	8.1540	0	33.3860	0	25.985	0	88.135	0	-1e10	1	-1e10	1	-1E+10	1	-1e10	1	-1e10	1	-1E+10	1	-1E+10	1	-1E+10	1
4902624	25	C	02/26/2025	07:39	-126.449	48.002	0	89.90	0	8.1107	0	33.4084	0	26.009	0	89.126	0	140.3	4	48.5	4	-1E+10	1	0.0646	4	0.000365	0	-1E+10	1	-1E+10	1	-1E+10	1
4902624	25	C	02/26/2025	07:39	-126.449	48.002	0	91.00	0	8.0630	0	33.4330	0	26.036	0	90.216	0	138.1	4	47.6	4	-1E+10	1	0.0602	4	0.000360	0	-1E+10	1	-1E+10	1	-1E+10	1
4902624	25	C	02/26/2025	07:39	-126.449	48.002	0	92.20	0	8.0110	0	33.4490	0	26.056	0	91.406	0	138.5	4	47.8	4	-1E+10	1	0.0432	4	0.000333	0	-1E+10	1	-1E+10	1	-1E+10	1
4902624	25	C	02/26/2025	07:39	-126.449	48.002	0	93.10	0	7.9720	0	33.4610	0	26.071	0	92.298	0	-1e10	1	-1e10	1	-1E+10	1	-1e10	1	-1e10	1	-1E+10	1	-1E+10	1	-1E+10	1
4902624	25	C	02/26/2025	07:39	-126.449	48.002	0	93.30	0	7.9618	0	33.4630	0	26.074	0	92.496	0	137.9	4	47.5	4	-1E+10	1	0.0474	4	0.000328	0	-1E+10	1	-1E+10	1	-1E+10	1
4902624	25	C	02/26/2025	07:39	-126.449	48.002	0	94.50	0	7.9005	0	33.4750	0	26.092	0	93.686	0	137.3	4	47.2	4	-1E+10	1	0.0551	4	0.000366	0	-1E+10	1	-1E+10	1	-1E+10	1
4902624	25	C	02/26/2025	07:39	-126.449	48.002	0	95.00	0	7.8750	0	33.4800	0	26.100	0	94.181	0	-1e10	1	-1e10	1	-1E+10	1	-1e10	1	-1e10	1	-1E+10	1	-1E+10	1	-1E+10	1
4902624	25	C	02/26/2025	07:39	-126.449	48.002	0	95.60	0	7.8510	0	33.4895	0	26.111	0	94.776	0	136.7	4	47.0	4	-1E+10	1	0.0511	4	0.000377	0	-1E+10	1	-1E+10	1	-1E+10	1
4902624	25	C	02/26/2025	07:39	-126.449	48.002	0	96.60	0	7.8110	0	33.5053	0	26.129	0	95.767	0	136.1	4	46.7	4	-1E+10	1	0.0499	4	0.000379	0	-1E+10	1	-1E+10	1	-1E+10	1
4902624	25	C	02/26/2025	07:39	-126.449	48.002	0	96.90	0	7.7990	0	33.5100	0	26.135	0	96.064	0	-1e10	1	-1e10	1	-1E+10	1	-1e10	1	-1e10	1	-1E+10	1	-1E+10	1	-1E+10	1
4902624	25	C	02/26/2025	07:39	-126.449	48.002	0	97.60	0	7.7926	0	33.5199	0	26.143	0	96.758	0	135.5	4	46.5	4	-1E+10	1	0.0438	4	0.000604	0	-1E+10	1	-1E+10	1	-1E+10	1
4902624	25	C	02/26/2025	07:39	-126.449	48.002	0	98.30	0	7.7863	0	33.5297	0	26.152	0	97.452	0	135.1	4	46.4	4	-1E+10	1	0.0365	4	0.000334	0	-1E+10	1	-1E+10	1	-1E+10	1
4902624	25	C	02/26/2025	07:39	-126.449	48.002	0	99.00	0	7.7799	0	33.5396	0	26.161	0	98.146	0	134.6	4	46.2	4	-1E+10	1	0.0308	4	0.000352	0	-1E+10	1	-1E+10	1	-1E+10	1
4902624	25	C	02/26/2025	07:39	-126.449	48.002	0	99.10	0	7.7790	0	33.5410	0	26.162	0	98.245	0	-1e10	1	-1e10	1	-1E+10	1	-1e10	1	-1e10	1	-1E+10	1	-1E+10	1	-1E+10	1
4902624	25	C	02/26/2025	07:39	-126.449	48.002	0	99.70	0	7.7790	0	33.5542	0	26.172	0	98.839	0	134.1	4	46.0	4	-1E+10	1	0.0383	4	0.000313	0	-1E+10	1	-1E+10	1	-1E+10	1
4902624	25	C	02/26/2025	07:39	-126.449	48.002	0	100.40	0	7.7790	0	33.5696	0	26.184	0	99.533	0	133.5	4	45.8	4	-1E+10	1	0.0521	4	0.000287	0	-1E+10	1	-1E+10	1	-1E+10	1
4902624	25	C	02/26/2025	07:39	-126.449	48.002	0	101.10	0	7.7790	0	33.5850	0	26.197	0	100.227	0	131.5	4	45.2	4	-1E+10	1	0.0511	4	0.000293	0	-1E+10	1	-1E+10	1	-1E+10	1
4902624	25	C	02/26/2025	07:39	-126.449	48.002	0	101.80	0	7.7748	0	33.5972	0	26.207	0	100.921	0	132.3	4	45.4	4	-1E+10	1	0.0438	4	0.000299	0	-1E+10	1	-1E+10	1	-1E+10	1
4902624	25	C	02/26/2025	07:39	-126.449	48.002	0	102.60	0	7.7700	0	33.6112	0	26.218	0	101.714	0	131.5	4	45.2	4	-1E+10	1	0.0438	4	0.000304	0	-1E+10	1	-1E+10	1	-1E+10	1
4902624	25	C	02/26/2025	07:39	-126.449	48.002	0	103.10	0	7.7670	0	33.6200	0	26.226	0	102.209	0	-1e10	1	-1e10	1	-1E+10	1	-1e10	1	-1e10	1	-1E+10	1	-1E+10	1	-1E+10	1
4902624	25	C	02/26/2025	07:39	-126.449	48.002	0	103.30	0	7.7607	0	33.6234	0	26.229	0	102.408	0	130.9	4	44.9	4	-1E+10	1	0.0454	4	0.000313	0	-1E+10	1	-1E+10	1	-1E+10	1
4902624	25	C	02/26/2025	07:39	-126.449	48.002	0	104.00	0	7.7387	0	33.6353	0	26.242	0	103.101	0	130.3	4	44.7	4	-1E+10	1	0.0511	4	0.000299	0	-1E+10	1	-1E+10	1	-1E+10	1
4902624	25	C	02/26/2025	07:39	-126.449	48.002	0	104.70	0	7.7166	0	33.6472	0	26.254	0	103.795	0	129.6	4	44.5	4	-1E+10	1	0.0454	4	0.000353	0	-1E+10	1	-1E+10	1	-1E+10	1
4902624	25	C	02/26/2025	07:39	-126.449	48.002	0	105.10	0	7.7040	0	33.6540	0	26.262	0	104.191	0	-1e10	1	-1e10	1	-1E+10	1	-1e10	1	-1e10	1	-1E+10	1	-1E+10	1	-1E+10	1
4902624	25	C	02/26/2025	07:39	-126.449	48.002	0	105.50	0	7.6902	0	33.6612	0	26.269	0	104.588	0	129.1	4	44.3	4	-1E+10	1	0.0375	4	0.000319	0	-1E+10	1	-1E+10	1	-1E+10	1
4902624	25	C	02/26/2025	07:39	-126.449	48.002	0	106.20	0	7.6660	0	33.6738	0	26.283	0	105.282	0	128.5	4	44.0	4	-1E+10	1	0.0409	4	0.000310	0	-1E+10	1	-1E+10	1	-1E+10	1
4902624	25	C	02/26/2025	07:39	-126.449	48.002	0	107.00	0	7.6385	0	33.6882	0	26.298	0	106.075	0	128.0	4	43.8	4	-1E+10	1	0.0470	4	0.000310	0	-1E+10	1	-1E+10	1	-1E+10	1
4902624	25	C	02/26/2025	07:39	-126.449	48.002	0	107.10	0	7.6350	0	33.6900	0	26.300	0	106.174	0	-1e10	1	-1e10	1	-1E+10	1	-1e10	1	-1e10	1	-1E+10	1	-1E+10	1	-1E+10	1
4902624	25	C	02/26/2025	07:39	-126.449	48.002	0	107.80	0	7.6299	0	33.6939	0	26.304	0	106.867	0	127.4	4	43.6	4	-1E+10	1	0.0511	4	0.000310	0	-1E+10	1	-1E+10	1	-1E+10	1
4902624	25	C	02/26/2025	07:39	-126.449	48.002	0	108.50	0	7.6249	0	33.6978	0	26.307	0	107.561	0	126.8	4	43.4	4	-1E+10	1	0.0535	4	0.000310	0	-1E+10	1	-1E+10	1	-1E+10	1
4902624	25	C	02/26/2025	07:39	-126.449	48.002	0	108.90	0	7.6220	0	33.7000	0	26.310	0	107.958	0	-1e10	1	-1e10	1	-1E+10	1	-1e10	1	-1e10	1	-1E+10	1	-1E+10	1	-1E+10	1
4902624	25	C	02/26/2025	07:39	-126.449	48.002	0	109.30	0	7.6159	0	33.7036	0	26.313	0	108.354	0	126.1	4	43.2	4	-1E+10	1	0.0535	4	0.000321	0	-1E+10	1	-1E+10	1	-1E+10	1
4902624	25	C	02/26/2025	07:39	-126.449	48.002	0	110.00	0	7.6052	0	33.7100	0	26.320	0	109.048	0	125.3	4	42.9	4	-1E+10	1	0.0365	4	0.000357	0	-1E+10	1	-1E+10	1	-1E+10	1
4902624	25	C	02/26/2025	07:39	-126.449	48.002	0	110.80	0	7.5930	0	33.7172	0	26.327	0	109.841	0	124.5	4	42.6	4	-1E+10	1	0.0438	4	0.000334	0	-1E+10	1	-1E+10	1	-1E+10	1
4902624	25	C	02/26/2025	07:39	-126.449	48.002	0	111.00	0	7.5900	0	33.7190	0	26.329	0	110.039	0	-1e10	1	-1e10	1	-1E+10	1	-1e10	1	-1e10	1	-1E+10	1	-1E+10	1	-1E+10	1
4902624	25	C	02/26/2025	07:39	-126.449	48.002	0	111.60	0	7.5762	0	33.7226	0	26.334	0	110.634	0	123.9	4	42.4	4	-1E+10	1	0.0380	4	0.000306	0	-1E+10	1	-1E+10	1	-1E+10	1
4902624	25	C	02/26/2025	07:39	-126.449	48.002	0	112.40	0	7.5578	0	33.7274	0	26.340	0	111.426	0	123.2	4	42.1	4	-1E+10	1	0.0414	4	0.000306	0	-1E+10	1	-1E+10	1	-1E+10	1
4902624	25	C	02/26/2025	07:39	-126.449	48.002	0	113.00	0	7.5440	0	33.7310	0	26.345	0	112.021	0	-1e10	1	-1e10	1	-1E+10	1	-1e10	1	-1e10	1	-1E+10	1	-1E+10	1	-1E+10	1
4902624	25	C	02/26/2025	07:39	-126.449	48.002	0	113.30	0	7.5364	0	33.7335	0	26.348	0	112.318	0	122.5	4	41.9	4	-1E+10	1	0.0389	4	0.000349	0	-1E+10	1	-1E+10	1	-1E+10	1
4902624	25	C	02/26/2025	07:39	-126.449	48.002	0	114.10	0	7.5162	0	33.7403	0	26.356	0	113.111	0	121.9	4	41.7	4	-1E+10	1	0.0324	4	0.000330	0	-1E+10	1	-1E+10	1	-1E+10	1
4902624	25	C	02/26/2025	07:39	-126.449	48.002	0	114.90	0	7.4960	0	33.7470	0	26.365	0	113.904	0	120.1	4	41.0	4	-1E+10	1	0.0292	4	0.000298	0	-1E+10	1	-1E+10	1	-1E+10	1
4902624	25	C	02/26/2025	07:39	-126.449	48.002	0	115.70	0	7.4895	0	33.7493	0	26.367	0	114.697	0	121.0	4	41.3	4	-1E+10	1	0.0301	4	0.000298	0	-1E+10	1	-1E+10	1	-1E+10	1
4902624	25	C	02/26/2025	07:39	-126.449	48.002	0	116.60	0	7.4822	0	33.7519	0	26.370	0	115.589	0	120.5	4	41.1	4	-1E+10	1	0.0380	4	0.000313	0	-1E+10	1	-1E+10	1	-1E+10	1
4902624	25	C	02/26/2025	07:39	-126.449	48.002	0	117.00	0	7.4790	0	33.7530	0	26.372	0	115.985	0	-1e10	1	-1e10	1	-1E+10	1	-1e10	1	-1e10	1	-1E+10	1	-1E+10	1	-1E+10	1
4902624	25	C	02/26/2025	07:39	-126.449	48.002	0	117.40	0	7.4775	0	33.7540	0	26.373	0	116.382	0	119.9	4	40.9	4	-1E+10	1	0.0438	4	0.000369	0	-1E+10	1	-1E+10	1	-1E+10	1
4902624	25	C	02/26/2025	07:39	-126.449	48.002	0	118.30	0	7.4740	0	33.7561	0	26.375	0	117.274	0	119.3	4	40.7	4	-1E+10	1	0.0569	4	0.000263	0	-1E+10	1	-1E+10	1	-1E+10	1
4902624	25	C	02/26/2025	07:39	-126.449	48.002	0	119.10	0	7.4710	0	33.7580	0	26.377	0	118.066	0	117.3	4	40.0	4	-1E+10	1	0.0527	4	0.000306	0	-1E+10	1	-1E+10	1	-1E+10	1
4902624	25	C	02/26/2025	07:39	-126.449	48.002	0	120.00	0	7.4667	0	33.7613	0	26.380	0	118.958	0	118.1	4	40.3	4	-1E+10	1	0.0460	4	0.000297	0	-1E+10	1	-1E+10	1	-1E+10	1
4902624	25	C	02/26/2025	07:39	-126.449	48.002	0	120.80	0	7.4629	0	33.7643	0	26.383	0	119.751	0	117.4	4	40.1	4	-1E+10	1	0.0405	4	0.000297	0	-1E+10	1	-1E+10	1	-1E+10	1
4902624	25	C	02/26/2025	07:39	-126.449	48.002	0	121.00	0	7.4620	0	33.7650	0	26.384	0	119.949	0	-1e10	1	-1e10	1	-1E+10	1	-1e10	1	-1e10	1	-1E+10	1	-1E+10	1	-1E+10	1
4902624	25	C	02/26/2025	07:39	-126.449	48.002	0	121.70	0	7.4517	0	33.7698	0	26.389	0	120.643	0	116.7	4	39.8	4	-1E+10	1	0.0392	4	0.000306	0	-1E+10	1	-1E+10	1	-1E+10	1
4902624	25	C	02/26/2025	07:39	-126.449	48.002	0	122.60	0	7.4384	0	33.7759	0	26.396	0	121.535	0	116.0	4	39.6	4	-1E+10	1	0.0411	4	0.000307	0	-1E+10	1	-1E+10	1	-1E+10	1
4902624	25	C	02/26/2025	07:39	-126.449	48.002	0	122.90	0	7.4340	0	33.7780	0	26.398	0	121.832	0	-1e10	1	-1e10	1	-1E+10	1	-1e10	1	-1e10	1	-1E+10	1	-1E+10	1	-1E+10	1
4902624	25	C	02/26/2025	07:39	-126.449	48.002	0	123.50	0	7.4243	0	33.7800	0	26.401	0	122.427	0	115.3	4	39.3	4	-1E+10	1	0.0365	4	0.000318	0	-1E+10	1	-1E+10	1	-1E+10	1
4902624	25	C	02/26/2025	07:39	-126.449	48.002	0	124.40	0	7.4097	0	33.7830	0	26.405	0	123.319	0	114.8	4	39.2	4	-1E+10	1	0.0365	4	0.000298	0	-1E+10	1	-1E+10	1	-1E+10	1
4902624	25	C	02/26/2025	07:39	-126.449	48.002	0	125.00	0	7.4000	0	33.7850	0	26.408	0	123.914	0	-1e10	1	-1e10	1	-1E+10	1	-1e10	1	-1e10	1	-1E+10	1	-1E+10	1	-1E+10	1
4902624	25	C	02/26/2025	07:39	-126.449	48.002	0	125.40	0	7.3950	0	33.7872	0	26.411	0	124.310	0	114.5	4	39.0	4	-1E+10	1	0.0511	4	0.000322	0	-1E+10	1	-1E+10	1	-1E+10	1
4902624	25	C	02/26/2025	07:39	-126.449	48.002	0	126.30	0	7.3837	0	33.7922	0	26.416	0	125.202	0	114.4	4	39.0	4	-1E+10	1	0.0511	4	0.000275	0	-1E+10	1	-1E+10	1	-1E+10	1
4902624	25	C	02/26/2025	07:39	-126.449	48.002	0	127.00	0	7.3750	0	33.7960	0	26.420	0	125.896	0	-1e10	1	-1e10	1	-1E+10	1	-1e10	1	-1e10	1	-1E+10	1	-1E+10	1	-1E+10	1
4902624	25	C	02/26/2025	07:39	-126.449	48.002	0	127.20	0	7.3741	0	33.7965	0	26.421	0	126.094	0	114.4	4	39.0	4	-1E+10	1	0.0392	4	0.000284	0	-1E+10	1	-1E+10	1	-1E+10	1
4902624	25	C	02/26/2025	07:39	-126.449	48.002	0	128.20	0	7.3693	0	33.7992	0	26.424	0	127.085	0	114.4	4	39.0	4	-1E+10	1	0.0482	4	0.000418	0	-1E+10	1	-1E+10	1	-1E+10	1
4902624	25	C	02/26/2025	07:39	-126.449	48.002	0	128.90	0	7.3660	0	33.8010	0	26.426	0	127.778	0	-1e10	1	-1e10	1	-1E+10	1	-1e10	1	-1e10	1	-1E+10	1	-1E+10	1	-1E+10	1
4902624	25	C	02/26/2025	07:39	-126.449	48.002	0	129.20	0	7.3643	0	33.8020	0	26.427	0	128.076	0	114.5	4	39.0	4	-1E+10	1	0.0511	4	0.000357	0	-1E+10	1	-1E+10	1	-1E+10	1
4902624	25	C	02/26/2025	07:39	-126.449	48.002	0	130.20	0	7.3586	0	33.8053	0	26.430	0	129.067	0	114.6	4	39.0	4	-1E+10	1	0.0471	4	0.000284	0	-1E+10	1	-1E+10	1	-1E+10	1
4902624	25	C	02/26/2025	07:39	-126.449	48.002	0	131.00	0	7.3540	0	33.8080	0	26.433	0	129.859	0	-1e10	1	-1e10	1	-1E+10	1	-1e10	1	-1e10	1	-1E+10	1	-1E+10	1	-1E+10	1
4902624	25	C	02/26/2025	07:39	-126.449	48.002	0	131.10	0	7.3536	0	33.8083	0	26.433	0	129.959	0	114.8	4	39.1	4	-1E+10	1	0.0438	4	0.000319	0	-1E+10	1	-1E+10	1	-1E+10	1
4902624	25	C	02/26/2025	07:39	-126.449	48.002	0	132.10	0	7.3498	0	33.8111	0	26.436	0	130.950	0	114.9	4	39.1	4	-1E+10	1	0.0487	4	0.000357	0	-1E+10	1	-1E+10	1	-1E+10	1
4902624	25	C	02/26/2025	07:39	-126.449	48.002	0	133.10	0	7.3460	0	33.8140	0	26.439	0	131.941	0	113.5	4	38.6	4	-1E+10	1	0.0557	4	0.000265	0	-1E+10	1	-1E+10	1	-1E+10	1
4902624	25	C	02/26/2025	07:39	-126.449	48.002	0	134.00	0	7.3432	0	33.8159	0	26.440	0	132.832	0	114.9	4	39.1	4	-1E+10	1	0.0438	4	0.000275	0	-1E+10	1	-1E+10	1	-1E+10	1
4902624	25	C	02/26/2025	07:39	-126.449	48.002	0	135.00	0	7.3400	0	33.8180	0	26.443	0	133.823	0	113.4	4	38.6	4	-1E+10	1	0.0438	4	0.000798	0	-1E+10	1	-1E+10	1	-1E+10	1
4902624	25	C	02/26/2025	07:39	-126.449	48.002	0	136.00	0	7.3345	0	33.8205	0	26.445	0	134.814	0	115.0	4	39.1	4	-1E+10	1	0.0438	4	0.000333	0	-1E+10	1	-1E+10	1	-1E+10	1
4902624	25	C	02/26/2025	07:39	-126.449	48.002	0	136.90	0	7.3295	0	33.8228	0	26.448	0	135.706	0	114.9	4	39.1	4	-1E+10	1	0.0438	4	0.000279	0	-1E+10	1	-1E+10	1	-1E+10	1
4902624	25	C	02/26/2025	07:39	-126.449	48.002	0	137.00	0	7.3290	0	33.8230	0	26.448	0	135.805	0	-1e10	1	-1e10	1	-1E+10	1	-1e10	1	-1e10	1	-1E+10	1	-1E+10	1	-1E+10	1
4902624	25	C	02/26/2025	07:39	-126.449	48.002	0	137.90	0	7.3173	0	33.8271	0	26.453	0	136.697	0	114.7	4	39.0	4	-1E+10	1	0.0438	4	0.000282	0	-1E+10	1	-1E+10	1	-1E+10	1
4902624	25	C	02/26/2025	07:39	-126.449	48.002	0	138.90	0	7.3043	0	33.8316	0	26.458	0	137.688	0	114.4	4	38.9	4	-1E+10	1	0.0402	4	0.000292	0	-1E+10	1	-1E+10	1	-1E+10	1
4902624	25	C	02/26/2025	07:39	-126.449	48.002	0	139.00	0	7.3030	0	33.8320	0	26.459	0	137.787	0	-1e10	1	-1e10	1	-1E+10	1	-1e10	1	-1e10	1	-1E+10	1	-1E+10	1	-1E+10	1
4902624	25	C	02/26/2025	07:39	-126.449	48.002	0	139.80	0	7.2967	0	33.8345	0	26.462	0	138.580	0	114.0	4	38.8	4	-1E+10	1	0.0425	4	0.000298	0	-1E+10	1	-1E+10	1	-1E+10	1
4902624	25	C	02/26/2025	07:39	-126.449	48.002	0	140.80	0	7.2888	0	33.8377	0	26.465	0	139.571	0	113.6	4	38.6	4	-1E+10	1	0.0555	4	0.000291	0	-1E+10	1	-1E+10	1	-1E+10	1
4902624	25	C	02/26/2025	07:39	-126.449	48.002	0	140.90	0	7.2880	0	33.8380	0	26.466	0	139.670	0	-1e10	1	-1e10	1	-1E+10	1	-1e10	1	-1e10	1	-1E+10	1	-1E+10	1	-1E+10	1
4902624	25	C	02/26/2025	07:39	-126.449	48.002	0	141.80	0	7.2829	0	33.8389	0	26.467	0	140.562	0	113.1	4	38.5	4	-1E+10	1	0.0450	4	0.000269	0	-1E+10	1	-1E+10	1	-1E+10	1
4902624	25	C	02/26/2025	07:39	-126.449	48.002	0	142.80	0	7.2771	0	33.8398	0	26.469	0	141.553	0	112.7	4	38.3	4	-1E+10	1	0.0511	4	0.000298	0	-1E+10	1	-1E+10	1	-1E+10	1
4902624	25	C	02/26/2025	07:39	-126.449	48.002	0	143.00	0	7.2760	0	33.8400	0	26.469	0	141.751	0	-1e10	1	-1e10	1	-1E+10	1	-1e10	1	-1e10	1	-1E+10	1	-1E+10	1	-1E+10	1
4902624	25	C	02/26/2025	07:39	-126.449	48.002	0	143.80	0	7.2724	0	33.8412	0	26.470	0	142.544	0	112.2	4	38.1	4	-1E+10	1	0.0511	4	0.000279	0	-1E+10	1	-1E+10	1	-1E+10	1
4902624	25	C	02/26/2025	07:39	-126.449	48.002	0	144.80	0	7.2679	0	33.8427	0	26.472	0	143.535	0	111.6	4	38.0	4	-1E+10	1	0.0511	4	0.000261	0	-1E+10	1	-1E+10	1	-1E+10	1
4902624	25	C	02/26/2025	07:39	-126.449	48.002	0	145.00	0	7.2670	0	33.8430	0	26.473	0	143.733	0	-1e10	1	-1e10	1	-1E+10	1	-1e10	1	-1e10	1	-1E+10	1	-1E+10	1	-1E+10	1
4902624	25	C	02/26/2025	07:39	-126.449	48.002	0	145.80	0	7.2582	0	33.8451	0	26.476	0	144.525	0	111.3	4	37.8	4	-1E+10	1	0.0414	4	0.000300	0	-1E+10	1	-1E+10	1	-1E+10	1
4902624	25	C	02/26/2025	07:39	-126.449	48.002	0	146.80	0	7.2471	0	33.8477	0	26.479	0	145.516	0	110.9	4	37.7	4	-1E+10	1	0.0365	4	0.000304	0	-1E+10	1	-1E+10	1	-1E+10	1
4902624	25	C	02/26/2025	07:39	-126.449	48.002	0	146.90	0	7.2460	0	33.8480	0	26.479	0	145.615	0	-1e10	1	-1e10	1	-1E+10	1	-1e10	1	-1e10	1	-1E+10	1	-1E+10	1	-1E+10	1
4902624	25	C	02/26/2025	07:39	-126.449	48.002	0	147.80	0	7.2413	0	33.8489	0	26.481	0	146.507	0	110.6	4	37.6	4	-1E+10	1	0.0392	4	0.000312	0	-1E+10	1	-1E+10	1	-1E+10	1
4902624	25	C	02/26/2025	07:39	-126.449	48.002	0	148.80	0	7.2360	0	33.8498	0	26.482	0	147.498	0	110.2	4	37.4	4	-1E+10	1	0.0438	4	0.000342	0	-1E+10	1	-1E+10	1	-1E+10	1
4902624	25	C	02/26/2025	07:39	-126.449	48.002	0	149.00	0	7.2350	0	33.8500	0	26.483	0	147.696	0	-1e10	1	-1e10	1	-1E+10	1	-1e10	1	-1e10	1	-1E+10	1	-1E+10	1	-1E+10	1
4902624	25	C	02/26/2025	07:39	-126.449	48.002	0	149.90	0	7.2278	0	33.8513	0	26.485	0	148.588	0	109.8	4	37.3	4	-1E+10	1	0.0414	4	0.000296	0	-1E+10	1	-1E+10	1	-1E+10	1
4902624	25	C	02/26/2025	07:39	-126.449	48.002	0	150.90	0	7.2198	0	33.8529	0	26.487	0	149.579	0	109.5	4	37.2	4	-1E+10	1	0.0292	4	0.000286	0	-1E+10	1	-1E+10	1	-1E+10	1
4902624	25	C	02/26/2025	07:39	-126.449	48.002	0	151.00	0	7.2190	0	33.8530	0	26.487	0	149.678	0	-1e10	1	-1e10	1	-1E+10	1	-1e10	1	-1e10	1	-1E+10	1	-1E+10	1	-1E+10	1
4902624	25	C	02/26/2025	07:39	-126.449	48.002	0	151.90	0	7.2168	0	33.8530	0	26.488	0	150.570	0	109.1	4	37.0	4	-1E+10	1	0.0511	4	0.000298	0	-1E+10	1	-1E+10	1	-1E+10	1
4902624	25	C	02/26/2025	07:39	-126.449	48.002	0	152.90	0	7.2143	0	33.8530	0	26.488	0	151.561	0	108.6	4	36.9	4	-1E+10	1	0.0511	4	0.000259	0	-1E+10	1	-1E+10	1	-1E+10	1
4902624	25	C	02/26/2025	07:39	-126.449	48.002	0	153.00	0	7.2140	0	33.8530	0	26.488	0	151.660	0	-1e10	1	-1e10	1	-1E+10	1	-1e10	1	-1e10	1	-1E+10	1	-1E+10	1	-1E+10	1
4902624	25	C	02/26/2025	07:39	-126.449	48.002	0	154.00	0	7.2060	0	33.8545	0	26.490	0	152.651	0	108.2	4	36.7	4	-1E+10	1	0.0460	4	0.000259	0	-1E+10	1	-1E+10	1	-1E+10	1
4902624	25	C	02/26/2025	07:39	-126.449	48.002	0	155.00	0	7.1980	0	33.8560	0	26.493	0	153.642	0	106.4	4	36.1	4	-1E+10	1	0.0526	4	0.000298	0	-1E+10	1	-1E+10	1	-1E+10	1
4902624	25	C	02/26/2025	07:39	-126.449	48.002	0	156.00	0	7.1925	0	33.8565	0	26.494	0	154.632	0	107.4	4	36.5	4	-1E+10	1	0.0548	4	0.000316	0	-1E+10	1	-1E+10	1	-1E+10	1
4902624	25	C	02/26/2025	07:39	-126.449	48.002	0	157.00	0	7.1870	0	33.8570	0	26.495	0	155.623	0	105.6	4	35.8	4	-1E+10	1	0.0511	4	0.000303	0	-1E+10	1	-1E+10	1	-1E+10	1
4902624	25	C	02/26/2025	07:39	-126.449	48.002	0	158.10	0	7.1435	0	33.8597	0	26.503	0	156.713	0	106.9	4	36.2	4	-1E+10	1	0.0482	4	0.000286	0	-1E+10	1	-1E+10	1	-1E+10	1
4902624	25	C	02/26/2025	07:39	-126.449	48.002	0	159.00	0	7.1080	0	33.8620	0	26.510	0	157.605	0	-1e10	1	-1e10	1	-1E+10	1	-1e10	1	-1e10	1	-1E+10	1	-1E+10	1	-1E+10	1
4902624	25	C	02/26/2025	07:39	-126.449	48.002	0	159.10	0	7.1064	0	33.8620	0	26.510	0	157.704	0	106.8	4	36.2	4	-1E+10	1	0.0376	4	0.000286	0	-1E+10	1	-1E+10	1	-1E+10	1
4902624	25	C	02/26/2025	07:39	-126.449	48.002	0	160.20	0	7.0894	0	33.8626	0	26.513	0	158.794	0	106.7	4	36.1	4	-1E+10	1	0.0438	4	0.000286	0	-1E+10	1	-1E+10	1	-1E+10	1
4902624	25	C	02/26/2025	07:39	-126.449	48.002	0	161.00	0	7.0770	0	33.8630	0	26.515	0	159.587	0	-1e10	1	-1e10	1	-1E+10	1	-1e10	1	-1e10	1	-1E+10	1	-1E+10	1	-1E+10	1
4902624	25	C	02/26/2025	07:39	-126.449	48.002	0	161.20	0	7.0736	0	33.8631	0	26.515	0	159.785	0	106.6	4	36.1	4	-1E+10	1	0.0438	4	0.000277	0	-1E+10	1	-1E+10	1	-1E+10	1
4902624	25	C	02/26/2025	07:39	-126.449	48.002	0	162.30	0	7.0549	0	33.8636	0	26.518	0	160.875	0	106.5	4	36.0	4	-1E+10	1	0.0319	4	0.000294	0	-1E+10	1	-1E+10	1	-1E+10	1
4902624	25	C	02/26/2025	07:39	-126.449	48.002	0	163.00	0	7.0430	0	33.8640	0	26.520	0	161.568	0	-1e10	1	-1e10	1	-1E+10	1	-1e10	1	-1e10	1	-1E+10	1	-1E+10	1	-1E+10	1
4902624	25	C	02/26/2025	07:39	-126.449	48.002	0	163.30	0	7.0364	0	33.8646	0	26.522	0	161.866	0	106.4	4	36.0	4	-1E+10	1	0.0438	4	0.000306	0	-1E+10	1	-1E+10	1	-1E+10	1
4902624	25	C	02/26/2025	07:39	-126.449	48.002	0	164.40	0	7.0122	0	33.8668	0	26.527	0	162.955	0	106.3	4	35.9	4	-1E+10	1	0.0432	4	0.000288	0	-1E+10	1	-1E+10	1	-1E+10	1
4902624	25	C	02/26/2025	07:39	-126.449	48.002	0	165.00	0	6.9990	0	33.8680	0	26.529	0	163.550	0	-1e10	1	-1e10	1	-1E+10	1	-1e10	1	-1e10	1	-1E+10	1	-1E+10	1	-1E+10	1
4902624	25	C	02/26/2025	07:39	-126.449	48.002	0	165.40	0	6.9948	0	33.8682	0	26.530	0	163.946	0	106.2	4	35.9	4	-1E+10	1	0.0418	4	0.000267	0	-1E+10	1	-1E+10	1	-1E+10	1
4902624	25	C	02/26/2025	07:39	-126.449	48.002	0	166.50	0	6.9833	0	33.8688	0	26.532	0	165.036	0	106.0	4	35.8	4	-1E+10	1	0.0489	4	0.000285	0	-1E+10	1	-1E+10	1	-1E+10	1
4902624	25	C	02/26/2025	07:39	-126.449	48.002	0	167.00	0	6.9780	0	33.8690	0	26.533	0	165.532	0	-1e10	1	-1e10	1	-1E+10	1	-1e10	1	-1e10	1	-1E+10	1	-1E+10	1	-1E+10	1
4902624	25	C	02/26/2025	07:39	-126.449	48.002	0	167.60	0	6.9708	0	33.8696	0	26.535	0	166.126	0	105.8	4	35.7	4	-1E+10	1	0.0438	4	0.000326	0	-1E+10	1	-1E+10	1	-1E+10	1
4902624	25	C	02/26/2025	07:39	-126.449	48.002	0	168.70	0	6.9576	0	33.8707	0	26.537	0	167.216	0	105.5	4	35.6	4	-1E+10	1	0.0438	4	0.000286	0	-1E+10	1	-1E+10	1	-1E+10	1
4902624	25	C	02/26/2025	07:39	-126.449	48.002	0	169.00	0	6.9540	0	33.8710	0	26.538	0	167.513	0	-1e10	1	-1e10	1	-1E+10	1	-1e10	1	-1e10	1	-1E+10	1	-1E+10	1	-1E+10	1
4902624	25	C	02/26/2025	07:39	-126.449	48.002	0	169.80	0	6.9431	0	33.8718	0	26.540	0	168.306	0	105.3	4	35.5	4	-1E+10	1	0.0511	4	0.000298	0	-1E+10	1	-1E+10	1	-1E+10	1
4902624	25	C	02/26/2025	07:39	-126.449	48.002	0	170.90	0	6.9280	0	33.8730	0	26.543	0	169.396	0	103.6	4	35.0	4	-1E+10	1	0.0449	4	0.000288	0	-1E+10	1	-1E+10	1	-1E+10	1
4902624	25	C	02/26/2025	07:39	-126.449	48.002	0	172.00	0	6.9165	0	33.8745	0	26.546	0	170.486	0	104.6	4	35.3	4	-1E+10	1	0.0489	4	0.000303	0	-1E+10	1	-1E+10	1	-1E+10	1
4902624	25	C	02/26/2025	07:39	-126.449	48.002	0	173.10	0	6.9050	0	33.8760	0	26.549	0	171.575	0	102.9	4	34.7	4	-1E+10	1	0.0511	4	0.000287	0	-1E+10	1	-1E+10	1	-1E+10	1
4902624	25	C	02/26/2025	07:39	-126.449	48.002	0	174.20	0	6.8924	0	33.8771	0	26.551	0	172.665	0	104.0	4	35.1	4	-1E+10	1	0.0584	4	0.000275	0	-1E+10	1	-1E+10	1	-1E+10	1
4902624	25	C	02/26/2025	07:39	-126.449	48.002	0	175.10	0	6.8820	0	33.8780	0	26.553	0	173.557	0	-1e10	1	-1e10	1	-1E+10	1	-1e10	1	-1e10	1	-1E+10	1	-1E+10	1	-1E+10	1
4902624	25	C	02/26/2025	07:39	-126.449	48.002	0	175.30	0	6.8814	0	33.8780	0	26.553	0	173.755	0	103.6	4	34.9	4	-1E+10	1	0.0590	4	0.000271	0	-1E+10	1	-1E+10	1	-1E+10	1
4902624	25	C	02/26/2025	07:39	-126.449	48.002	0	176.40	0	6.8779	0	33.8780	0	26.554	0	174.845	0	103.2	4	34.8	4	-1E+10	1	0.0465	4	0.000265	0	-1E+10	1	-1E+10	1	-1E+10	1
4902624	25	C	02/26/2025	07:39	-126.449	48.002	0	177.00	0	6.8760	0	33.8780	0	26.554	0	175.439	0	-1e10	1	-1e10	1	-1E+10	1	-1e10	1	-1e10	1	-1E+10	1	-1E+10	1	-1E+10	1
4902624	25	C	02/26/2025	07:39	-126.449	48.002	0	177.50	0	6.8705	0	33.8785	0	26.555	0	175.935	0	102.8	4	34.6	4	-1E+10	1	0.0550	4	0.000274	0	-1E+10	1	-1E+10	1	-1E+10	1
4902624	25	C	02/26/2025	07:39	-126.449	48.002	0	178.60	0	6.8584	0	33.8796	0	26.558	0	177.025	0	102.4	4	34.5	4	-1E+10	1	0.0365	4	0.000274	0	-1E+10	1	-1E+10	1	-1E+10	1
4902624	25	C	02/26/2025	07:39	-126.449	48.002	0	179.00	0	6.8540	0	33.8800	0	26.559	0	177.421	0	-1e10	1	-1e10	1	-1E+10	1	-1e10	1	-1e10	1	-1E+10	1	-1E+10	1	-1E+10	1
4902624	25	C	02/26/2025	07:39	-126.449	48.002	0	179.60	0	6.8489	0	33.8800	0	26.559	0	178.015	0	102.0	4	34.3	4	-1E+10	1	0.0421	4	0.000265	0	-1E+10	1	-1E+10	1	-1E+10	1
4902624	25	C	02/26/2025	07:39	-126.449	48.002	0	180.70	0	6.8397	0	33.8800	0	26.561	0	179.105	0	101.5	4	34.2	4	-1E+10	1	0.0380	4	0.000249	0	-1E+10	1	-1E+10	1	-1E+10	1
4902624	25	C	02/26/2025	07:39	-126.449	48.002	0	180.90	0	6.8380	0	33.8800	0	26.561	0	179.303	0	-1e10	1	-1e10	1	-1E+10	1	-1e10	1	-1e10	1	-1E+10	1	-1E+10	1	-1E+10	1
4902624	25	C	02/26/2025	07:39	-126.449	48.002	0	181.80	0	6.8281	0	33.8800	0	26.562	0	180.195	0	101.0	4	34.0	4	-1E+10	1	0.0466	4	0.000282	0	-1E+10	1	-1E+10	1	-1E+10	1
4902624	25	C	02/26/2025	07:39	-126.449	48.002	0	182.90	0	6.8161	0	33.8800	0	26.564	0	181.285	0	100.4	4	33.8	4	-1E+10	1	0.0629	4	0.000285	0	-1E+10	1	-1E+10	1	-1E+10	1
4902624	25	C	02/26/2025	07:39	-126.449	48.002	0	183.00	0	6.8150	0	33.8800	0	26.564	0	181.384	0	-1e10	1	-1e10	1	-1E+10	1	-1e10	1	-1e10	1	-1E+10	1	-1E+10	1	-1E+10	1
4902624	25	C	02/26/2025	07:39	-126.449	48.002	0	184.00	0	6.7940	0	33.8819	0	26.568	0	182.375	0	99.7	4	33.5	4	-1E+10	1	0.0597	4	0.000274	0	-1E+10	1	-1E+10	1	-1E+10	1
4902624	25	C	02/26/2025	07:39	-126.449	48.002	0	185.10	0	6.7710	0	33.8840	0	26.573	0	183.464	0	97.8	4	32.9	4	-1E+10	1	0.0466	4	0.000274	0	-1E+10	1	-1E+10	1	-1E+10	1
4902624	25	C	02/26/2025	07:39	-126.449	48.002	0	186.20	0	6.7559	0	33.8852	0	26.576	0	184.554	0	98.6	4	33.1	4	-1E+10	1	0.0495	4	0.000277	0	-1E+10	1	-1E+10	1	-1E+10	1
4902624	25	C	02/26/2025	07:39	-126.449	48.002	0	187.00	0	6.7450	0	33.8860	0	26.578	0	185.347	0	-1e10	1	-1e10	1	-1E+10	1	-1e10	1	-1e10	1	-1E+10	1	-1E+10	1	-1E+10	1
4902624	25	C	02/26/2025	07:39	-126.449	48.002	0	187.30	0	6.7408	0	33.8863	0	26.579	0	185.644	0	98.0	4	32.9	4	-1E+10	1	0.0438	4	0.000286	0	-1E+10	1	-1E+10	1	-1E+10	1
4902624	25	C	02/26/2025	07:39	-126.449	48.002	0	188.30	0	6.7268	0	33.8873	0	26.582	0	186.635	0	97.4	4	32.7	4	-1E+10	1	0.0511	4	0.000251	0	-1E+10	1	-1E+10	1	-1E+10	1
4902624	25	C	02/26/2025	07:39	-126.449	48.002	0	189.00	0	6.7170	0	33.8880	0	26.584	0	187.328	0	-1e10	1	-1e10	1	-1E+10	1	-1e10	1	-1e10	1	-1E+10	1	-1E+10	1	-1E+10	1
4902624	25	C	02/26/2025	07:39	-126.449	48.002	0	189.40	0	6.7126	0	33.8880	0	26.584	0	187.724	0	96.7	4	32.5	4	-1E+10	1	0.0573	4	0.000261	0	-1E+10	1	-1E+10	1	-1E+10	1
4902624	25	C	02/26/2025	07:39	-126.449	48.002	0	190.50	0	6.7005	0	33.8880	0	26.586	0	188.814	0	96.0	4	32.2	4	-1E+10	1	0.0490	4	0.000274	0	-1E+10	1	-1E+10	1	-1E+10	1
4902624	25	C	02/26/2025	07:39	-126.449	48.002	0	191.00	0	6.6950	0	33.8880	0	26.586	0	189.310	0	-1e10	1	-1e10	1	-1E+10	1	-1e10	1	-1e10	1	-1E+10	1	-1E+10	1	-1E+10	1
4902624	25	C	02/26/2025	07:39	-126.449	48.002	0	191.60	0	6.6912	0	33.8883	0	26.587	0	189.904	0	95.1	4	31.9	4	-1E+10	1	0.0482	4	0.000277	0	-1E+10	1	-1E+10	1	-1E+10	1
4902624	25	C	02/26/2025	07:39	-126.449	48.002	0	192.70	0	6.6843	0	33.8889	0	26.589	0	190.994	0	94.1	4	31.6	4	-1E+10	1	0.0511	4	0.000251	0	-1E+10	1	-1E+10	1	-1E+10	1
4902624	25	C	02/26/2025	07:39	-126.449	48.002	0	192.90	0	6.6830	0	33.8890	0	26.589	0	191.192	0	-1e10	1	-1e10	1	-1E+10	1	-1e10	1	-1e10	1	-1E+10	1	-1E+10	1	-1E+10	1
4902624	25	C	02/26/2025	07:39	-126.449	48.002	0	193.80	0	6.6779	0	33.8899	0	26.590	0	192.084	0	93.1	4	31.2	4	-1E+10	1	0.0487	4	0.000243	0	-1E+10	1	-1E+10	1	-1E+10	1
4902624	25	C	02/26/2025	07:39	-126.449	48.002	0	194.80	0	6.6721	0	33.8908	0	26.592	0	193.074	0	92.0	4	30.9	4	-1E+10	1	0.0451	4	0.000268	0	-1E+10	1	-1E+10	1	-1E+10	1
4902624	25	C	02/26/2025	07:39	-126.449	48.002	0	195.00	0	6.6710	0	33.8910	0	26.592	0	193.272	0	-1e10	1	-1e10	1	-1E+10	1	-1e10	1	-1e10	1	-1E+10	1	-1E+10	1	-1E+10	1
4902624	25	C	02/26/2025	07:39	-126.449	48.002	0	196.00	0	6.6745	0	33.8960	0	26.596	0	194.263	0	91.0	4	30.5	4	-1E+10	1	0.0531	4	0.000252	0	-1E+10	1	-1E+10	1	-1E+10	1
4902624	25	C	02/26/2025	07:39	-126.449	48.002	0	197.00	0	6.6780	0	33.9010	0	26.599	0	195.254	0	88.9	4	29.8	4	-1E+10	1	0.0595	4	0.000281	0	-1E+10	1	-1E+10	1	-1E+10	1
4902624	25	C	02/26/2025	07:39	-126.449	48.002	0	198.10	0	6.6791	0	33.9032	0	26.601	0	196.343	0	89.4	4	30.0	4	-1E+10	1	0.0657	4	0.000251	0	-1E+10	1	-1E+10	1	-1E+10	1
4902624	25	C	02/26/2025	07:39	-126.449	48.002	0	199.00	0	6.6800	0	33.9050	0	26.602	0	197.235	0	-1e10	1	-1e10	1	-1E+10	1	-1e10	1	-1e10	1	-1E+10	1	-1E+10	1	-1E+10	1
4902624	25	C	02/26/2025	07:39	-126.449	48.002	0	199.20	0	6.6798	0	33.9054	0	26.602	0	197.433	0	88.6	4	29.7	4	-1E+10	1	0.0584	4	0.000251	0	-1E+10	1	-1E+10	1	-1E+10	1
4902624	25	C	02/26/2025	07:39	-126.449	48.002	0	200.30	0	6.6788	0	33.9075	0	26.604	0	198.523	0	87.8	4	29.5	4	-1E+10	1	0.0522	4	0.000261	0	-1E+10	1	-1E+10	1	-1E+10	1
4902624	25	C	02/26/2025	07:39	-126.449	48.002	0	201.10	0	6.6780	0	33.9090	0	26.605	0	199.315	0	-1e10	1	-1e10	1	-1E+10	1	-1e10	1	-1e10	1	-1E+10	1	-1E+10	1	-1E+10	1
4902624	25	C	02/26/2025	07:39	-126.449	48.002	0	201.30	0	6.6782	0	33.9096	0	26.606	0	199.513	0	86.8	4	29.1	4	-1E+10	1	0.0466	4	0.000255	0	-1E+10	1	-1E+10	1	-1E+10	1
4902624	25	C	02/26/2025	07:39	-126.449	48.002	0	202.40	0	6.6793	0	33.9129	0	26.608	0	200.603	0	85.9	4	28.8	4	-1E+10	1	0.0478	4	0.000244	0	-1E+10	1	-1E+10	1	-1E+10	1
4902624	25	C	02/26/2025	07:39	-126.449	48.002	0	203.10	0	6.6800	0	33.9150	0	26.610	0	201.297	0	-1e10	1	-1e10	1	-1E+10	1	-1e10	1	-1e10	1	-1E+10	1	-1E+10	1	-1E+10	1
4902624	25	C	02/26/2025	07:39	-126.449	48.002	0	203.50	0	6.6756	0	33.9169	0	26.612	0	201.693	0	85.1	4	28.6	4	-1E+10	1	0.0612	4	0.000245	0	-1E+10	1	-1E+10	1	-1E+10	1
4902624	25	C	02/26/2025	07:39	-126.449	48.002	0	204.60	0	6.6634	0	33.9221	0	26.618	0	202.783	0	84.6	4	28.4	4	-1E+10	1	0.0708	4	0.000251	0	-1E+10	1	-1E+10	1	-1E+10	1
4902624	25	C	02/26/2025	07:39	-126.449	48.002	0	205.00	0	6.6590	0	33.9240	0	26.620	0	203.179	0	-1e10	1	-1e10	1	-1E+10	1	-1e10	1	-1e10	1	-1E+10	1	-1E+10	1	-1E+10	1
4902624	25	C	02/26/2025	07:39	-126.449	48.002	0	205.70	0	6.6453	0	33.9247	0	26.622	0	203.872	0	84.1	4	28.2	4	-1E+10	1	0.0644	4	0.000251	0	-1E+10	1	-1E+10	1	-1E+10	1
4902624	25	C	02/26/2025	07:39	-126.449	48.002	0	206.80	0	6.6239	0	33.9257	0	26.626	0	204.962	0	83.7	4	28.0	4	-1E+10	1	0.0573	4	0.000247	0	-1E+10	1	-1E+10	1	-1E+10	1
4902624	25	C	02/26/2025	07:39	-126.449	48.002	0	207.10	0	6.6180	0	33.9260	0	26.627	0	205.259	0	-1e10	1	-1e10	1	-1E+10	1	-1e10	1	-1e10	1	-1E+10	1	-1E+10	1	-1E+10	1
4902624	25	C	02/26/2025	07:39	-126.449	48.002	0	207.90	0	6.6088	0	33.9256	0	26.628	0	206.052	0	83.1	4	27.8	4	-1E+10	1	0.0511	4	0.000227	0	-1E+10	1	-1E+10	1	-1E+10	1
4902624	25	C	02/26/2025	07:39	-126.449	48.002	0	209.10	0	6.5950	0	33.9250	0	26.629	0	207.240	0	81.3	4	27.2	4	-1E+10	1	0.0386	4	0.000217	0	-1E+10	1	-1E+10	1	-1E+10	1
4902624	25	C	02/26/2025	07:39	-126.449	48.002	0	210.20	0	6.5637	0	33.9277	0	26.635	0	208.330	0	81.8	4	27.4	4	-1E+10	1	0.0425	4	0.000244	0	-1E+10	1	-1E+10	1	-1E+10	1
4902624	25	C	02/26/2025	07:39	-126.449	48.002	0	211.10	0	6.5380	0	33.9300	0	26.641	0	209.222	0	-1e10	1	-1e10	1	-1E+10	1	-1e10	1	-1e10	1	-1E+10	1	-1E+10	1	-1E+10	1
4902624	25	C	02/26/2025	07:39	-126.449	48.002	0	211.30	0	6.5353	0	33.9302	0	26.641	0	209.420	0	81.4	4	27.2	4	-1E+10	1	0.0387	4	0.000259	0	-1E+10	1	-1E+10	1	-1E+10	1
4902624	25	C	02/26/2025	07:39	-126.449	48.002	0	212.40	0	6.5202	0	33.9314	0	26.644	0	210.509	0	81.0	4	27.1	4	-1E+10	1	0.0438	4	0.000274	0	-1E+10	1	-1E+10	1	-1E+10	1
4902624	25	C	02/26/2025	07:39	-126.449	48.002	0	213.00	0	6.5120	0	33.9320	0	26.646	0	211.104	0	-1e10	1	-1e10	1	-1E+10	1	-1e10	1	-1e10	1	-1E+10	1	-1E+10	1	-1E+10	1
4902624	25	C	02/26/2025	07:39	-126.449	48.002	0	213.60	0	6.5098	0	33.9323	0	26.646	0	211.698	0	80.5	4	26.9	4	-1E+10	1	0.0544	4	0.000249	0	-1E+10	1	-1E+10	1	-1E+10	1
4902624	25	C	02/26/2025	07:39	-126.449	48.002	0	214.70	0	6.5057	0	33.9329	0	26.647	0	212.788	0	80.0	4	26.8	4	-1E+10	1	0.0532	4	0.000250	0	-1E+10	1	-1E+10	1	-1E+10	1
4902624	25	C	02/26/2025	07:39	-126.449	48.002	0	214.90	0	6.5050	0	33.9330	0	26.647	0	212.986	0	-1e10	1	-1e10	1	-1E+10	1	-1e10	1	-1e10	1	-1E+10	1	-1E+10	1	-1E+10	1
4902624	25	C	02/26/2025	07:39	-126.449	48.002	0	215.80	0	6.4939	0	33.9334	0	26.649	0	213.877	0	79.5	4	26.6	4	-1E+10	1	0.0448	4	0.000322	0	-1E+10	1	-1E+10	1	-1E+10	1
4902624	25	C	02/26/2025	07:39	-126.449	48.002	0	217.00	0	6.4790	0	33.9340	0	26.652	0	215.066	0	77.9	4	26.0	4	-1E+10	1	0.0511	4	0.000256	0	-1E+10	1	-1E+10	1	-1E+10	1
4902624	25	C	02/26/2025	07:39	-126.449	48.002	0	218.10	0	6.4641	0	33.9346	0	26.654	0	216.156	0	78.5	4	26.2	4	-1E+10	1	0.0511	4	0.000262	0	-1E+10	1	-1E+10	1	-1E+10	1
4902624	25	C	02/26/2025	07:39	-126.449	48.002	0	219.00	0	6.4520	0	33.9350	0	26.656	0	217.047	0	-1e10	1	-1e10	1	-1E+10	1	-1e10	1	-1e10	1	-1E+10	1	-1E+10	1	-1E+10	1
4902624	25	C	02/26/2025	07:39	-126.449	48.002	0	219.20	0	6.4508	0	33.9350	0	26.656	0	217.245	0	77.9	4	26.0	4	-1E+10	1	0.0511	4	0.000253	0	-1E+10	1	-1E+10	1	-1E+10	1
4902624	25	C	02/26/2025	07:39	-126.449	48.002	0	220.30	0	6.4442	0	33.9350	0	26.657	0	218.335	0	77.1	4	25.8	4	-1E+10	1	0.0464	4	0.000251	0	-1E+10	1	-1E+10	1	-1E+10	1
4902624	25	C	02/26/2025	07:39	-126.449	48.002	0	221.00	0	6.4400	0	33.9350	0	26.657	0	219.028	0	-1e10	1	-1e10	1	-1E+10	1	-1e10	1	-1e10	1	-1E+10	1	-1E+10	1	-1E+10	1
4902624	25	C	02/26/2025	07:39	-126.449	48.002	0	221.50	0	6.4386	0	33.9355	0	26.658	0	219.523	0	76.4	4	25.5	4	-1E+10	1	0.0484	4	0.000258	0	-1E+10	1	-1E+10	1	-1E+10	1
4902624	25	C	02/26/2025	07:39	-126.449	48.002	0	222.60	0	6.4354	0	33.9365	0	26.659	0	220.613	0	75.6	4	25.2	4	-1E+10	1	0.0511	4	0.000245	0	-1E+10	1	-1E+10	1	-1E+10	1
4902624	25	C	02/26/2025	07:39	-126.449	48.002	0	223.10	0	6.4340	0	33.9370	0	26.660	0	221.108	0	-1e10	1	-1e10	1	-1E+10	1	-1e10	1	-1e10	1	-1E+10	1	-1E+10	1	-1E+10	1
4902624	25	C	02/26/2025	07:39	-126.449	48.002	0	223.80	0	6.4299	0	33.9385	0	26.662	0	221.802	0	74.8	4	25.0	4	-1E+10	1	0.0485	4	0.000240	0	-1E+10	1	-1E+10	1	-1E+10	1
4902624	25	C	02/26/2025	07:39	-126.449	48.002	0	224.90	0	6.4236	0	33.9408	0	26.664	0	222.891	0	74.0	4	24.7	4	-1E+10	1	0.0450	4	0.000264	0	-1E+10	1	-1E+10	1	-1E+10	1
4902624	25	C	02/26/2025	07:39	-126.449	48.002	0	225.00	0	6.4230	0	33.9410	0	26.664	0	222.990	0	-1e10	1	-1e10	1	-1E+10	1	-1e10	1	-1e10	1	-1E+10	1	-1E+10	1	-1E+10	1
4902624	25	C	02/26/2025	07:39	-126.449	48.002	0	226.10	0	6.4142	0	33.9432	0	26.667	0	224.080	0	73.2	4	24.4	4	-1E+10	1	0.0532	4	0.000267	0	-1E+10	1	-1E+10	1	-1E+10	1
4902624	25	C	02/26/2025	07:39	-126.449	48.002	0	227.00	0	6.4070	0	33.9450	0	26.670	0	224.971	0	-1e10	1	-1e10	1	-1E+10	1	-1e10	1	-1e10	1	-1E+10	1	-1E+10	1	-1E+10	1
4902624	25	C	02/26/2025	07:39	-126.449	48.002	0	227.30	0	6.4049	0	33.9454	0	26.670	0	225.269	0	72.4	4	24.2	4	-1E+10	1	0.0657	4	0.000227	0	-1E+10	1	-1E+10	1	-1E+10	1
4902624	25	C	02/26/2025	07:39	-126.449	48.002	0	228.50	0	6.3965	0	33.9473	0	26.673	0	226.457	0	71.6	4	23.9	4	-1E+10	1	0.0469	4	0.000277	0	-1E+10	1	-1E+10	1	-1E+10	1
4902624	25	C	02/26/2025	07:39	-126.449	48.002	0	229.00	0	6.3930	0	33.9480	0	26.674	0	226.952	0	-1e10	1	-1e10	1	-1E+10	1	-1e10	1	-1e10	1	-1E+10	1	-1E+10	1	-1E+10	1
4902624	25	C	02/26/2025	07:39	-126.449	48.002	0	229.60	0	6.3918	0	33.9495	0	26.675	0	227.547	0	70.7	4	23.6	4	-1E+10	1	0.0383	4	0.000251	0	-1E+10	1	-1E+10	1	-1E+10	1
4902624	25	C	02/26/2025	07:39	-126.449	48.002	0	230.80	0	6.3894	0	33.9525	0	26.678	0	228.735	0	69.8	4	23.3	4	-1E+10	1	0.0459	4	0.000246	0	-1E+10	1	-1E+10	1	-1E+10	1
4902624	25	C	02/26/2025	07:39	-126.449	48.002	0	231.00	0	6.3890	0	33.9530	0	26.678	0	228.933	0	-1e10	1	-1e10	1	-1E+10	1	-1e10	1	-1e10	1	-1E+10	1	-1E+10	1	-1E+10	1
4902624	25	C	02/26/2025	07:39	-126.449	48.002	0	232.00	0	6.4155	0	33.9585	0	26.679	0	229.924	0	69.1	4	23.0	4	-1E+10	1	0.0474	4	0.000292	0	-1E+10	1	-1E+10	1	-1E+10	1
4902624	25	C	02/26/2025	07:39	-126.449	48.002	0	233.00	0	6.4420	0	33.9640	0	26.680	0	230.914	0	-1e10	1	-1e10	1	-1E+10	1	-1e10	1	-1e10	1	-1E+10	1	-1E+10	1	-1E+10	1
4902624	25	C	02/26/2025	07:39	-126.449	48.002	0	233.10	0	6.4418	0	33.9642	0	26.680	0	231.014	0	68.6	4	22.9	4	-1E+10	1	0.0491	4	0.000316	0	-1E+10	1	-1E+10	1	-1E+10	1
4902624	25	C	02/26/2025	07:39	-126.449	48.002	0	234.30	0	6.4387	0	33.9666	0	26.683	0	232.202	0	68.1	4	22.7	4	-1E+10	1	0.0560	4	0.000274	0	-1E+10	1	-1E+10	1	-1E+10	1
4902624	25	C	02/26/2025	07:39	-126.449	48.002	0	235.00	0	6.4370	0	33.9680	0	26.684	0	232.895	0	-1e10	1	-1e10	1	-1E+10	1	-1e10	1	-1e10	1	-1E+10	1	-1E+10	1	-1E+10	1
4902624	25	C	02/26/2025	07:39	-126.449	48.002	0	235.50	0	6.4346	0	33.9685	0	26.685	0	233.391	0	67.6	4	22.6	4	-1E+10	1	0.0511	4	0.000251	0	-1E+10	1	-1E+10	1	-1E+10	1
4902624	25	C	02/26/2025	07:39	-126.449	48.002	0	236.70	0	6.4289	0	33.9696	0	26.686	0	234.579	0	67.0	4	22.4	4	-1E+10	1	0.0511	4	0.000251	0	-1E+10	1	-1E+10	1	-1E+10	1
4902624	25	C	02/26/2025	07:39	-126.449	48.002	0	237.10	0	6.4270	0	33.9700	0	26.687	0	234.975	0	-1e10	1	-1e10	1	-1E+10	1	-1e10	1	-1e10	1	-1E+10	1	-1E+10	1	-1E+10	1
4902624	25	C	02/26/2025	07:39	-126.449	48.002	0	237.90	0	6.4329	0	33.9717	0	26.688	0	235.768	0	66.5	4	22.2	4	-1E+10	1	0.0365	4	0.000333	0	-1E+10	1	-1E+10	1	-1E+10	1
4902624	25	C	02/26/2025	07:39	-126.449	48.002	0	239.00	0	6.4410	0	33.9740	0	26.688	0	236.857	0	-1e10	1	-1e10	1	-1E+10	1	-1e10	1	-1e10	1	-1E+10	1	-1E+10	1	-1E+10	1
4902624	25	C	02/26/2025	07:39	-126.449	48.002	0	239.10	0	6.4418	0	33.9743	0	26.688	0	236.956	0	66.1	4	22.1	4	-1E+10	1	0.0482	4	0.000267	0	-1E+10	1	-1E+10	1	-1E+10	1
4902624	25	C	02/26/2025	07:39	-126.449	48.002	0	240.30	0	6.4519	0	33.9774	0	26.690	0	238.145	0	65.8	4	22.0	4	-1E+10	1	0.0460	4	0.000283	0	-1E+10	1	-1E+10	1	-1E+10	1
4902624	25	C	02/26/2025	07:39	-126.449	48.002	0	240.90	0	6.4570	0	33.9790	0	26.690	0	238.739	0	-1e10	1	-1e10	1	-1E+10	1	-1e10	1	-1e10	1	-1E+10	1	-1E+10	1	-1E+10	1
4902624	25	C	02/26/2025	07:39	-126.449	48.002	0	241.40	0	6.4575	0	33.9798	0	26.691	0	239.234	0	65.6	4	21.9	4	-1E+10	1	0.0531	4	0.000283	0	-1E+10	1	-1E+10	1	-1E+10	1
4902624	25	C	02/26/2025	07:39	-126.449	48.002	0	242.40	0	6.4585	0	33.9812	0	26.692	0	240.225	0	65.4	4	21.8	4	-1E+10	1	0.0544	4	0.000277	0	-1E+10	1	-1E+10	1	-1E+10	1
4902624	25	C	02/26/2025	07:39	-126.449	48.002	0	242.90	0	6.4590	0	33.9820	0	26.692	0	240.720	0	-1e10	1	-1e10	1	-1E+10	1	-1e10	1	-1e10	1	-1E+10	1	-1E+10	1	-1E+10	1
4902624	25	C	02/26/2025	07:39	-126.449	48.002	0	243.30	0	6.4533	0	33.9826	0	26.694	0	241.116	0	65.2	4	21.8	4	-1E+10	1	0.0540	4	0.000277	0	-1E+10	1	-1E+10	1	-1E+10	1
4902624	25	C	02/26/2025	07:39	-126.449	48.002	0	244.00	0	6.4433	0	33.9836	0	26.696	0	241.810	0	65.0	4	21.7	4	-1E+10	1	0.0584	4	0.000286	0	-1E+10	1	-1E+10	1	-1E+10	1
4902624	25	C	02/26/2025	07:39	-126.449	48.002	0	244.80	0	6.4319	0	33.9847	0	26.698	0	242.602	0	64.9	4	21.7	4	-1E+10	1	0.0555	4	0.000340	0	-1E+10	1	-1E+10	1	-1E+10	1
4902624	25	C	02/26/2025	07:39	-126.449	48.002	0	245.00	0	6.4290	0	33.9850	0	26.699	0	242.800	0	-1e10	1	-1e10	1	-1E+10	1	-1e10	1	-1e10	1	-1E+10	1	-1E+10	1	-1E+10	1
4902624	25	C	02/26/2025	07:39	-126.449	48.002	0	245.60	0	6.4152	0	33.9856	0	26.701	0	243.394	0	64.9	4	21.7	4	-1E+10	1	0.0438	4	0.000274	0	-1E+10	1	-1E+10	1	-1E+10	1
4902624	25	C	02/26/2025	07:39	-126.449	48.002	0	246.40	0	6.3968	0	33.9864	0	26.704	0	244.187	0	64.9	4	21.6	4	-1E+10	1	0.0438	4	0.000274	0	-1E+10	1	-1E+10	1	-1E+10	1
4902624	25	C	02/26/2025	07:39	-126.449	48.002	0	247.00	0	6.3830	0	33.9870	0	26.706	0	244.781	0	-1e10	1	-1e10	1	-1E+10	1	-1e10	1	-1e10	1	-1E+10	1	-1E+10	1	-1E+10	1
4902624	25	C	02/26/2025	07:39	-126.449	48.002	0	247.20	0	6.3806	0	33.9870	0	26.707	0	244.979	0	64.9	4	21.6	4	-1E+10	1	0.0374	4	0.000233	0	-1E+10	1	-1E+10	1	-1E+10	1
4902624	25	C	02/26/2025	07:39	-126.449	48.002	0	248.00	0	6.3710	0	33.9870	0	26.708	0	245.771	0	64.9	4	21.6	4	-1E+10	1	0.0467	4	0.000317	0	-1E+10	1	-1E+10	1	-1E+10	1
4902624	25	C	02/26/2025	07:39	-126.449	48.002	0	248.80	0	6.3614	0	33.9870	0	26.709	0	246.564	0	64.9	4	21.6	4	-1E+10	1	0.0584	4	0.000321	0	-1E+10	1	-1E+10	1	-1E+10	1
4902624	25	C	02/26/2025	07:39	-126.449	48.002	0	249.00	0	6.3590	0	33.9870	0	26.709	0	246.762	0	-1e10	1	-1e10	1	-1E+10	1	-1e10	1	-1e10	1	-1E+10	1	-1E+10	1	-1E+10	1
4902624	25	C	02/26/2025	07:39	-126.449	48.002	0	249.60	0	6.3530	0	33.9870	0	26.710	0	247.356	0	64.9	4	21.6	4	-1E+10	1	0.0630	4	0.000272	0	-1E+10	1	-1E+10	1	-1E+10	1
4902624	25	C	02/26/2025	07:39	-126.449	48.002	0	250.40	0	6.3450	0	33.9870	0	26.711	0	248.148	0	64.9	4	21.6	4	-1E+10	1	0.0535	4	0.000262	0	-1E+10	1	-1E+10	1	-1E+10	1
4902624	25	C	02/26/2025	07:39	-126.449	48.002	0	250.90	0	6.3400	0	33.9870	0	26.712	0	248.643	0	-1e10	1	-1e10	1	-1E+10	1	-1e10	1	-1e10	1	-1E+10	1	-1E+10	1	-1E+10	1
4902624	25	C	02/26/2025	07:39	-126.449	48.002	0	251.20	0	6.3383	0	33.9869	0	26.712	0	248.941	0	64.9	4	21.6	4	-1E+10	1	0.0453	4	0.000283	0	-1E+10	1	-1E+10	1	-1E+10	1
4902624	25	C	02/26/2025	07:39	-126.449	48.002	0	252.00	0	6.3337	0	33.9865	0	26.712	0	249.733	0	64.9	4	21.6	4	-1E+10	1	0.0511	4	0.000274	0	-1E+10	1	-1E+10	1	-1E+10	1
4902624	25	C	02/26/2025	07:39	-126.449	48.002	0	252.80	0	6.3291	0	33.9861	0	26.713	0	250.525	0	64.9	4	21.6	4	-1E+10	1	0.0511	4	0.000286	0	-1E+10	1	-1E+10	1	-1E+10	1
4902624	25	C	02/26/2025	07:39	-126.449	48.002	0	253.00	0	6.3280	0	33.9860	0	26.713	0	250.723	0	-1e10	1	-1e10	1	-1E+10	1	-1e10	1	-1e10	1	-1E+10	1	-1E+10	1	-1E+10	1
4902624	25	C	02/26/2025	07:39	-126.449	48.002	0	253.70	0	6.3228	0	33.9856	0	26.713	0	251.417	0	64.9	4	21.6	4	-1E+10	1	0.0511	4	0.000275	0	-1E+10	1	-1E+10	1	-1E+10	1
4902624	25	C	02/26/2025	07:39	-126.449	48.002	0	254.50	0	6.3168	0	33.9853	0	26.713	0	252.209	0	64.9	4	21.6	4	-1E+10	1	0.0511	4	0.000266	0	-1E+10	1	-1E+10	1	-1E+10	1
4902624	25	C	02/26/2025	07:39	-126.449	48.002	0	255.00	0	6.3130	0	33.9850	0	26.714	0	252.704	0	-1e10	1	-1e10	1	-1E+10	1	-1e10	1	-1e10	1	-1E+10	1	-1E+10	1	-1E+10	1
4902624	25	C	02/26/2025	07:39	-126.449	48.002	0	255.30	0	6.3120	0	33.9849	0	26.714	0	253.001	0	64.9	4	21.6	4	-1E+10	1	0.0557	4	0.000277	0	-1E+10	1	-1E+10	1	-1E+10	1
4902624	25	C	02/26/2025	07:39	-126.449	48.002	0	256.20	0	6.3090	0	33.9844	0	26.714	0	253.893	0	65.0	4	21.6	4	-1E+10	1	0.0540	4	0.000272	0	-1E+10	1	-1E+10	1	-1E+10	1
4902624	25	C	02/26/2025	07:39	-126.449	48.002	0	257.00	0	6.3063	0	33.9840	0	26.714	0	254.685	0	64.9	4	21.6	4	-1E+10	1	0.0482	4	0.000267	0	-1E+10	1	-1E+10	1	-1E+10	1
4902624	25	C	02/26/2025	07:39	-126.449	48.002	0	257.10	0	6.3060	0	33.9840	0	26.714	0	254.784	0	-1e10	1	-1e10	1	-1E+10	1	-1e10	1	-1e10	1	-1E+10	1	-1E+10	1	-1E+10	1
4902624	25	C	02/26/2025	07:39	-126.449	48.002	0	257.80	0	6.2980	0	33.9837	0	26.715	0	255.477	0	64.9	4	21.6	4	-1E+10	1	0.0438	4	0.000266	0	-1E+10	1	-1E+10	1	-1E+10	1
4902624	25	C	02/26/2025	07:39	-126.449	48.002	0	258.60	0	6.2888	0	33.9833	0	26.716	0	256.269	0	64.9	4	21.6	4	-1E+10	1	0.0453	4	0.000243	0	-1E+10	1	-1E+10	1	-1E+10	1
4902624	25	C	02/26/2025	07:39	-126.449	48.002	0	259.10	0	6.2830	0	33.9830	0	26.716	0	256.765	0	-1e10	1	-1e10	1	-1E+10	1	-1e10	1	-1e10	1	-1E+10	1	-1E+10	1	-1E+10	1
4902624	25	C	02/26/2025	07:39	-126.449	48.002	0	259.50	0	6.2765	0	33.9826	0	26.717	0	257.161	0	64.9	4	21.6	4	-1E+10	1	0.0584	4	0.000286	0	-1E+10	1	-1E+10	1	-1E+10	1
4902624	25	C	02/26/2025	07:39	-126.449	48.002	0	260.30	0	6.2634	0	33.9817	0	26.718	0	257.953	0	64.8	4	21.6	4	-1E+10	1	0.0642	4	0.000267	0	-1E+10	1	-1E+10	1	-1E+10	1
4902624	25	C	02/26/2025	07:39	-126.449	48.002	0	261.00	0	6.2520	0	33.9810	0	26.718	0	258.646	0	-1e10	1	-1e10	1	-1E+10	1	-1e10	1	-1e10	1	-1E+10	1	-1E+10	1	-1E+10	1
4902624	25	C	02/26/2025	07:39	-126.449	48.002	0	261.10	0	6.2506	0	33.9809	0	26.719	0	258.745	0	64.7	4	21.5	4	-1E+10	1	0.0493	4	0.000245	0	-1E+10	1	-1E+10	1	-1E+10	1
4902624	25	C	02/26/2025	07:39	-126.449	48.002	0	262.00	0	6.2385	0	33.9805	0	26.720	0	259.637	0	64.6	4	21.5	4	-1E+10	1	0.0540	4	0.000255	0	-1E+10	1	-1E+10	1	-1E+10	1
4902624	25	C	02/26/2025	07:39	-126.449	48.002	0	262.90	0	6.2263	0	33.9800	0	26.721	0	260.528	0	64.5	4	21.4	4	-1E+10	1	0.0544	4	0.000268	0	-1E+10	1	-1E+10	1	-1E+10	1
4902624	25	C	02/26/2025	07:39	-126.449	48.002	0	263.00	0	6.2250	0	33.9800	0	26.721	0	260.627	0	-1e10	1	-1e10	1	-1E+10	1	-1e10	1	-1e10	1	-1E+10	1	-1E+10	1	-1E+10	1
4902624	25	C	02/26/2025	07:39	-126.449	48.002	0	263.70	0	6.2198	0	33.9800	0	26.722	0	261.320	0	64.5	4	21.4	4	-1E+10	1	0.0511	4	0.000261	0	-1E+10	1	-1E+10	1	-1E+10	1
4902624	25	C	02/26/2025	07:39	-126.449	48.002	0	264.60	0	6.2132	0	33.9800	0	26.723	0	262.212	0	64.3	4	21.4	4	-1E+10	1	0.0540	4	0.000248	0	-1E+10	1	-1E+10	1	-1E+10	1
4902624	25	C	02/26/2025	07:39	-126.449	48.002	0	264.90	0	6.2110	0	33.9800	0	26.723	0	262.509	0	-1e10	1	-1e10	1	-1E+10	1	-1e10	1	-1e10	1	-1E+10	1	-1E+10	1	-1E+10	1
4902624	25	C	02/26/2025	07:39	-126.449	48.002	0	265.40	0	6.2081	0	33.9800	0	26.723	0	263.004	0	64.2	4	21.3	4	-1E+10	1	0.0540	4	0.000271	0	-1E+10	1	-1E+10	1	-1E+10	1
4902624	25	C	02/26/2025	07:39	-126.449	48.002	0	266.20	0	6.2036	0	33.9800	0	26.724	0	263.796	0	64.1	4	21.3	4	-1E+10	1	0.0365	4	0.000309	0	-1E+10	1	-1E+10	1	-1E+10	1
4902624	25	C	02/26/2025	07:39	-126.449	48.002	0	267.00	0	6.1990	0	33.9800	0	26.725	0	264.588	0	-1e10	1	-1e10	1	-1E+10	1	-1e10	1	-1e10	1	-1E+10	1	-1E+10	1	-1E+10	1
4902624	25	C	02/26/2025	07:39	-126.449	48.002	0	267.10	0	6.1974	0	33.9799	0	26.725	0	264.687	0	64.0	4	21.3	4	-1E+10	1	0.0438	4	0.000215	0	-1E+10	1	-1E+10	1	-1E+10	1
4902624	25	C	02/26/2025	07:39	-126.449	48.002	0	268.00	0	6.1835	0	33.9795	0	26.726	0	265.579	0	63.9	4	21.2	4	-1E+10	1	0.0504	4	0.000236	0	-1E+10	1	-1E+10	1	-1E+10	1
4902624	25	C	02/26/2025	07:39	-126.449	48.002	0	268.80	0	6.1711	0	33.9791	0	26.727	0	266.371	0	63.7	4	21.1	4	-1E+10	1	0.0511	4	0.000261	0	-1E+10	1	-1E+10	1	-1E+10	1
4902624	25	C	02/26/2025	07:39	-126.449	48.002	0	269.00	0	6.1680	0	33.9790	0	26.728	0	266.569	0	-1e10	1	-1e10	1	-1E+10	1	-1e10	1	-1e10	1	-1E+10	1	-1E+10	1	-1E+10	1
4902624	25	C	02/26/2025	07:39	-126.449	48.002	0	269.70	0	6.1586	0	33.9783	0	26.728	0	267.262	0	63.4	4	21.0	4	-1E+10	1	0.0511	4	0.000758	0	-1E+10	1	-1E+10	1	-1E+10	1
4902624	25	C	02/26/2025	07:39	-126.449	48.002	0	270.60	0	6.1464	0	33.9774	0	26.729	0	268.154	0	63.1	4	20.9	4	-1E+10	1	0.0591	4	0.000651	0	-1E+10	1	-1E+10	1	-1E+10	1
4902624	25	C	02/26/2025	07:39	-126.449	48.002	0	271.00	0	6.1410	0	33.9770	0	26.730	0	268.550	0	-1e10	1	-1e10	1	-1E+10	1	-1e10	1	-1e10	1	-1E+10	1	-1E+10	1	-1E+10	1
4902624	25	C	02/26/2025	07:39	-126.449	48.002	0	271.40	0	6.1386	0	33.9772	0	26.730	0	268.946	0	62.8	4	20.8	4	-1E+10	1	0.0635	4	0.000296	0	-1E+10	1	-1E+10	1	-1E+10	1
4902624	25	C	02/26/2025	07:39	-126.449	48.002	0	272.30	0	6.1332	0	33.9776	0	26.731	0	269.837	0	62.4	4	20.7	4	-1E+10	1	0.0552	4	0.000237	0	-1E+10	1	-1E+10	1	-1E+10	1
4902624	25	C	02/26/2025	07:39	-126.449	48.002	0	273.00	0	6.1290	0	33.9780	0	26.732	0	270.530	0	-1e10	1	-1e10	1	-1E+10	1	-1e10	1	-1e10	1	-1E+10	1	-1E+10	1	-1E+10	1
4902624	25	C	02/26/2025	07:39	-126.449	48.002	0	273.20	0	6.1287	0	33.9783	0	26.732	0	270.728	0	62.0	4	20.6	4	-1E+10	1	0.0438	4	0.000238	0	-1E+10	1	-1E+10	1	-1E+10	1
4902624	25	C	02/26/2025	07:39	-126.449	48.002	0	274.00	0	6.1275	0	33.9795	0	26.733	0	271.521	0	61.6	4	20.4	4	-1E+10	1	0.0438	4	0.000262	0	-1E+10	1	-1E+10	1	-1E+10	1
4902624	25	C	02/26/2025	07:39	-126.449	48.002	0	275.00	0	6.1260	0	33.9810	0	26.735	0	272.511	0	-1e10	1	-1e10	1	-1E+10	1	-1e10	1	-1e10	1	-1E+10	1	-1E+10	1	-1E+10	1
4902624	25	C	02/26/2025	07:39	-126.449	48.002	0	275.10	0	6.1269	0	33.9813	0	26.735	0	272.610	0	61.3	4	20.3	4	-1E+10	1	0.0365	4	0.000262	0	-1E+10	1	-1E+10	1	-1E+10	1
4902624	25	C	02/26/2025	07:39	-126.449	48.002	0	275.90	0	6.1341	0	33.9841	0	26.736	0	273.402	0	61.1	4	20.3	4	-1E+10	1	0.0511	4	0.000274	0	-1E+10	1	-1E+10	1	-1E+10	1
4902624	25	C	02/26/2025	07:39	-126.449	48.002	0	276.70	0	6.1413	0	33.9869	0	26.737	0	274.194	0	61.0	4	20.2	4	-1E+10	1	0.0511	4	0.000243	0	-1E+10	1	-1E+10	1	-1E+10	1
4902624	25	C	02/26/2025	07:39	-126.449	48.002	0	277.00	0	6.1440	0	33.9880	0	26.738	0	274.491	0	-1e10	1	-1e10	1	-1E+10	1	-1e10	1	-1e10	1	-1E+10	1	-1E+10	1	-1E+10	1
4902624	25	C	02/26/2025	07:39	-126.449	48.002	0	277.50	0	6.1455	0	33.9885	0	26.738	0	274.987	0	60.8	4	20.2	4	-1E+10	1	0.0511	4	0.000230	0	-1E+10	1	-1E+10	1	-1E+10	1
4902624	25	C	02/26/2025	07:39	-126.449	48.002	0	278.40	0	6.1482	0	33.9894	0	26.739	0	275.878	0	60.7	4	20.1	4	-1E+10	1	0.0511	4	0.000236	0	-1E+10	1	-1E+10	1	-1E+10	1
4902624	25	C	02/26/2025	07:39	-126.449	48.002	0	279.00	0	6.1500	0	33.9900	0	26.739	0	276.472	0	-1e10	1	-1e10	1	-1E+10	1	-1e10	1	-1e10	1	-1E+10	1	-1E+10	1	-1E+10	1
4902624	25	C	02/26/2025	07:39	-126.449	48.002	0	279.30	0	6.1502	0	33.9903	0	26.739	0	276.769	0	60.5	4	20.1	4	-1E+10	1	0.0458	4	0.000246	0	-1E+10	1	-1E+10	1	-1E+10	1
4902624	25	C	02/26/2025	07:39	-126.449	48.002	0	280.20	0	6.1506	0	33.9912	0	26.740	0	277.660	0	60.4	4	20.0	4	-1E+10	1	0.0392	4	0.000238	0	-1E+10	1	-1E+10	1	-1E+10	1
4902624	25	C	02/26/2025	07:39	-126.449	48.002	0	281.00	0	6.1510	0	33.9920	0	26.740	0	278.453	0	-1e10	1	-1e10	1	-1E+10	1	-1e10	1	-1e10	1	-1E+10	1	-1E+10	1	-1E+10	1
4902624	25	C	02/26/2025	07:39	-126.449	48.002	0	281.10	0	6.1508	0	33.9921	0	26.740	0	278.552	0	60.3	4	20.0	4	-1E+10	1	0.0511	4	0.000238	0	-1E+10	1	-1E+10	1	-1E+10	1
4902624	25	C	02/26/2025	07:39	-126.449	48.002	0	282.00	0	6.1485	0	33.9925	0	26.741	0	279.443	0	60.2	4	20.0	4	-1E+10	1	0.0511	4	0.000238	0	-1E+10	1	-1E+10	1	-1E+10	1
4902624	25	C	02/26/2025	07:39	-126.449	48.002	0	282.80	0	6.1465	0	33.9929	0	26.742	0	280.235	0	60.0	4	19.9	4	-1E+10	1	0.0511	4	0.000215	0	-1E+10	1	-1E+10	1	-1E+10	1
4902624	25	C	02/26/2025	07:39	-126.449	48.002	0	283.00	0	6.1460	0	33.9930	0	26.742	0	280.433	0	-1e10	1	-1e10	1	-1E+10	1	-1e10	1	-1e10	1	-1E+10	1	-1E+10	1	-1E+10	1
4902624	25	C	02/26/2025	07:39	-126.449	48.002	0	283.70	0	6.1456	0	33.9934	0	26.742	0	281.126	0	59.9	4	19.9	4	-1E+10	1	0.0511	4	0.000230	0	-1E+10	1	-1E+10	1	-1E+10	1
4902624	25	C	02/26/2025	07:39	-126.449	48.002	0	284.60	0	6.1452	0	33.9938	0	26.742	0	282.017	0	59.8	4	19.8	4	-1E+10	1	0.0511	4	0.000192	0	-1E+10	1	-1E+10	1	-1E+10	1
4902624	25	C	02/26/2025	07:39	-126.449	48.002	0	285.00	0	6.1450	0	33.9940	0	26.743	0	282.414	0	-1e10	1	-1e10	1	-1E+10	1	-1e10	1	-1e10	1	-1E+10	1	-1E+10	1	-1E+10	1
4902624	25	C	02/26/2025	07:39	-126.449	48.002	0	285.50	0	6.1445	0	33.9940	0	26.743	0	282.909	0	59.6	4	19.8	4	-1E+10	1	0.0431	4	0.000187	0	-1E+10	1	-1E+10	1	-1E+10	1
4902624	25	C	02/26/2025	07:39	-126.449	48.002	0	286.30	0	6.1438	0	33.9940	0	26.743	0	283.701	0	59.5	4	19.7	4	-1E+10	1	0.0365	4	0.000202	0	-1E+10	1	-1E+10	1	-1E+10	1
4902624	25	C	02/26/2025	07:39	-126.449	48.002	0	287.10	0	6.1430	0	33.9940	0	26.743	0	284.493	0	-1e10	1	-1e10	1	-1E+10	1	-1e10	1	-1e10	1	-1E+10	1	-1E+10	1	-1E+10	1
4902624	25	C	02/26/2025	07:39	-126.449	48.002	0	287.20	0	6.1425	0	33.9941	0	26.743	0	284.592	0	59.4	4	19.7	4	-1E+10	1	0.0383	4	0.000201	0	-1E+10	1	-1E+10	1	-1E+10	1
4902624	25	C	02/26/2025	07:39	-126.449	48.002	0	288.10	0	6.1377	0	33.9945	0	26.744	0	285.483	0	59.2	4	19.6	4	-1E+10	1	0.0511	4	0.000221	0	-1E+10	1	-1E+10	1	-1E+10	1
4902624	25	C	02/26/2025	07:39	-126.449	48.002	0	289.00	0	6.1330	0	33.9950	0	26.745	0	286.374	0	58.3	4	19.3	4	-1E+10	1	0.0511	4	0.000203	0	-1E+10	1	-1E+10	1	-1E+10	1
4902624	25	C	02/26/2025	07:39	-126.449	48.002	0	289.90	0	6.1298	0	33.9950	0	26.745	0	287.266	0	59.0	4	19.6	4	-1E+10	1	0.0511	4	0.000203	0	-1E+10	1	-1E+10	1	-1E+10	1
4902624	25	C	02/26/2025	07:39	-126.449	48.002	0	290.80	0	6.1267	0	33.9950	0	26.746	0	288.157	0	58.9	4	19.5	4	-1E+10	1	0.0657	4	0.000191	0	-1E+10	1	-1E+10	1	-1E+10	1
4902624	25	C	02/26/2025	07:39	-126.449	48.002	0	291.00	0	6.1260	0	33.9950	0	26.746	0	288.355	0	-1e10	1	-1e10	1	-1E+10	1	-1e10	1	-1e10	1	-1E+10	1	-1E+10	1	-1E+10	1
4902624	25	C	02/26/2025	07:39	-126.449	48.002	0	291.60	0	6.1161	0	33.9953	0	26.747	0	288.949	0	58.8	4	19.5	4	-1E+10	1	0.0599	4	0.000220	0	-1E+10	1	-1E+10	1	-1E+10	1
4902624	25	C	02/26/2025	07:39	-126.449	48.002	0	292.50	0	6.1012	0	33.9958	0	26.750	0	289.840	0	58.7	4	19.4	4	-1E+10	1	0.0584	4	0.000268	0	-1E+10	1	-1E+10	1	-1E+10	1
4902624	25	C	02/26/2025	07:39	-126.449	48.002	0	293.00	0	6.0930	0	33.9960	0	26.751	0	290.335	0	-1e10	1	-1e10	1	-1E+10	1	-1e10	1	-1e10	1	-1E+10	1	-1E+10	1	-1E+10	1
4902624	25	C	02/26/2025	07:39	-126.449	48.002	0	293.40	0	6.0884	0	33.9960	0	26.751	0	290.731	0	58.5	4	19.4	4	-1E+10	1	0.0535	4	0.000246	0	-1E+10	1	-1E+10	1	-1E+10	1
4902624	25	C	02/26/2025	07:39	-126.449	48.002	0	294.20	0	6.0792	0	33.9960	0	26.753	0	291.524	0	58.4	4	19.3	4	-1E+10	1	0.0511	4	0.000221	0	-1E+10	1	-1E+10	1	-1E+10	1
4902624	25	C	02/26/2025	07:39	-126.449	48.002	0	295.00	0	6.0700	0	33.9960	0	26.754	0	292.316	0	-1e10	1	-1e10	1	-1E+10	1	-1e10	1	-1e10	1	-1E+10	1	-1E+10	1	-1E+10	1
4902624	25	C	02/26/2025	07:39	-126.449	48.002	0	295.10	0	6.0699	0	33.9960	0	26.754	0	292.415	0	58.3	4	19.3	4	-1E+10	1	0.0458	4	0.000206	0	-1E+10	1	-1E+10	1	-1E+10	1
4902624	25	C	02/26/2025	07:39	-126.449	48.002	0	296.10	0	6.0689	0	33.9966	0	26.754	0	293.405	0	58.2	4	19.3	4	-1E+10	1	0.0375	4	0.000192	0	-1E+10	1	-1E+10	1	-1E+10	1
4902624	25	C	02/26/2025	07:39	-126.449	48.002	0	297.00	0	6.0680	0	33.9970	0	26.755	0	294.296	0	-1e10	1	-1e10	1	-1E+10	1	-1e10	1	-1e10	1	-1E+10	1	-1E+10	1	-1E+10	1
4902624	25	C	02/26/2025	07:39	-126.449	48.002	0	299.00	0	6.0640	0	33.9980	0	26.756	0	296.276	0	-1e10	1	-1e10	1	-1E+10	1	-1e10	1	-1e10	1	-1E+10	1	-1E+10	1	-1E+10	1
4902624	25	C	02/26/2025	07:39	-126.449	48.002	0	304.80	0	5.9844	0	33.9960	0	26.765	0	302.019	0	57.6	4	19.0	4	-1E+10	1	0.0647	4	0.000213	0	-1E+10	1	-1E+10	1	-1E+10	1
4902624	25	C	02/26/2025	07:39	-126.449	48.002	0	304.90	0	5.9830	0	33.9960	0	26.765	0	302.118	0	-1e10	1	-1e10	1	-1E+10	1	-1e10	1	-1e10	1	-1E+10	1	-1E+10	1	-1E+10	1
4902624	25	C	02/26/2025	07:39	-126.449	48.002	0	313.30	0	5.8654	0	33.9918	0	26.776	0	310.435	0	57.0	4	18.8	4	-1E+10	1	0.0445	4	0.000169	0	-1E+10	1	-1E+10	1	-1E+10	1
4902624	25	C	02/26/2025	07:39	-126.449	48.002	0	314.90	0	5.8430	0	33.9910	0	26.778	0	312.020	0	-1e10	1	-1e10	1	-1E+10	1	-1e10	1	-1e10	1	-1E+10	1	-1E+10	1	-1E+10	1
4902624	25	C	02/26/2025	07:39	-126.449	48.002	0	321.90	0	5.7896	0	33.9931	0	26.787	0	318.950	0	54.8	4	18.0	4	-1E+10	1	0.0584	4	0.000192	0	-1E+10	1	-1E+10	1	-1E+10	1
4902624	25	C	02/26/2025	07:39	-126.449	48.002	0	325.00	0	5.7660	0	33.9940	0	26.790	0	322.019	0	-1e10	1	-1e10	1	-1E+10	1	-1e10	1	-1e10	1	-1E+10	1	-1E+10	1	-1E+10	1
4902624	25	C	02/26/2025	07:39	-126.449	48.002	0	330.50	0	5.7193	0	33.9979	0	26.799	0	327.465	0	52.3	4	17.2	4	-1E+10	1	0.0577	4	0.000212	0	-1E+10	1	-1E+10	1	-1E+10	1
4902624	25	C	02/26/2025	07:39	-126.449	48.002	0	334.90	0	5.6820	0	34.0010	0	26.806	0	331.821	0	-1e10	1	-1e10	1	-1E+10	1	-1e10	1	-1e10	1	-1E+10	1	-1E+10	1	-1E+10	1
4902624	25	C	02/26/2025	07:39	-126.449	48.002	0	339.40	0	5.6530	0	34.0050	0	26.813	0	336.276	0	49.6	4	16.3	4	-1E+10	1	0.0432	4	0.000157	0	-1E+10	1	-1E+10	1	-1E+10	1
4902624	25	C	02/26/2025	07:39	-126.449	48.002	0	345.00	0	5.6170	0	34.0100	0	26.821	0	341.820	0	-1e10	1	-1e10	1	-1E+10	1	-1e10	1	-1e10	1	-1E+10	1	-1E+10	1	-1E+10	1
4902624	25	C	02/26/2025	07:39	-126.449	48.002	0	348.60	0	5.6055	0	34.0140	0	26.826	0	345.383	0	47.2	4	15.5	4	-1E+10	1	0.0299	4	0.000192	0	-1E+10	1	-1E+10	1	-1E+10	1
4902624	25	C	02/26/2025	07:39	-126.449	48.002	0	355.00	0	5.5850	0	34.0210	0	26.834	0	351.719	0	-1e10	1	-1e10	1	-1E+10	1	-1e10	1	-1e10	1	-1E+10	1	-1E+10	1	-1E+10	1
4902624	25	C	02/26/2025	07:39	-126.449	48.002	0	358.20	0	5.5595	0	34.0239	0	26.839	0	354.887	0	44.6	4	14.6	4	-1E+10	1	0.0511	4	0.000212	0	-1E+10	1	-1E+10	1	-1E+10	1
4902624	25	C	02/26/2025	07:39	-126.449	48.002	0	364.80	0	5.5070	0	34.0300	0	26.851	0	361.420	0	-1e10	1	-1e10	1	-1E+10	1	-1e10	1	-1e10	1	-1E+10	1	-1E+10	1	-1E+10	1
4902624	25	C	02/26/2025	07:39	-126.449	48.002	0	368.00	0	5.4978	0	34.0325	0	26.854	0	364.587	0	42.4	4	13.9	4	-1E+10	1	0.0511	4	0.000157	0	-1E+10	1	-1E+10	1	-1E+10	1
4902624	25	C	02/26/2025	07:39	-126.449	48.002	0	374.90	0	5.4780	0	34.0380	0	26.860	0	371.417	0	-1e10	1	-1e10	1	-1E+10	1	-1e10	1	-1e10	1	-1E+10	1	-1E+10	1	-1E+10	1
4902624	25	C	02/26/2025	07:39	-126.449	48.002	0	378.10	0	5.4722	0	34.0431	0	26.865	0	374.585	0	39.5	4	12.9	4	-1E+10	1	0.0511	4	0.000182	0	-1E+10	1	-1E+10	1	-1E+10	1
4902624	25	C	02/26/2025	07:39	-126.449	48.002	0	384.90	0	5.4600	0	34.0540	0	26.875	0	381.315	0	-1e10	1	-1e10	1	-1E+10	1	-1e10	1	-1e10	1	-1E+10	1	-1E+10	1	-1E+10	1
4902624	25	C	02/26/2025	07:39	-126.449	48.002	0	388.70	0	5.4540	0	34.0570	0	26.878	0	385.076	0	37.1	4	12.1	4	-1E+10	1	0.0508	4	0.000247	0	-1E+10	1	-1E+10	1	-1E+10	1
4902624	25	C	02/26/2025	07:39	-126.449	48.002	0	395.00	0	5.4440	0	34.0620	0	26.884	0	391.311	0	-1e10	1	-1e10	1	-1E+10	1	-1e10	1	-1e10	1	-1E+10	1	-1E+10	1	-1E+10	1
4902624	25	C	02/26/2025	07:39	-126.449	48.002	0	399.80	0	5.4264	0	34.0653	0	26.888	0	396.062	0	35.6	4	11.6	4	-1E+10	1	0.0445	4	0.000179	0	-1E+10	1	-1E+10	1	-1E+10	1
4902624	25	C	02/26/2025	07:39	-126.449	48.002	0	405.10	0	5.4070	0	34.0690	0	26.894	0	401.307	0	-1e10	1	-1e10	1	-1E+10	1	-1e10	1	-1e10	1	-1E+10	1	-1E+10	1	-1E+10	1
4902624	25	C	02/26/2025	07:39	-126.449	48.002	0	411.60	0	5.3828	0	34.0722	0	26.899	0	407.740	0	34.4	4	11.2	4	-1E+10	1	0.0657	4	0.000179	0	-1E+10	1	-1E+10	1	-1E+10	1
4902624	25	C	02/26/2025	07:39	-126.449	48.002	0	415.30	0	5.3690	0	34.0740	0	26.902	0	411.402	0	-1e10	1	-1e10	1	-1E+10	1	-1e10	1	-1e10	1	-1E+10	1	-1E+10	1	-1E+10	1
4902624	25	C	02/26/2025	07:39	-126.449	48.002	0	423.80	0	5.3389	0	34.0749	0	26.907	0	419.813	0	33.6	4	10.9	4	-1E+10	1	0.0648	4	0.000178	0	-1E+10	1	-1E+10	1	-1E+10	1
4902624	25	C	02/26/2025	07:39	-126.449	48.002	0	424.90	0	5.3350	0	34.0750	0	26.907	0	420.902	0	-1e10	1	-1e10	1	-1E+10	1	-1e10	1	-1e10	1	-1E+10	1	-1E+10	1	-1E+10	1
4902624	25	C	02/26/2025	07:39	-126.449	48.002	0	435.00	0	5.3010	0	34.0770	0	26.913	0	430.896	0	-1e10	1	-1e10	1	-1E+10	1	-1e10	1	-1e10	1	-1E+10	1	-1E+10	1	-1E+10	1
4902624	25	C	02/26/2025	07:39	-126.449	48.002	0	436.60	0	5.2966	0	34.0776	0	26.914	0	432.480	0	32.2	4	10.5	4	-1E+10	1	0.0449	4	0.000156	0	-1E+10	1	-1E+10	1	-1E+10	1
4902624	25	C	02/26/2025	07:39	-126.449	48.002	0	445.20	0	5.2730	0	34.0810	0	26.919	0	440.989	0	-1e10	1	-1e10	1	-1E+10	1	-1e10	1	-1e10	1	-1E+10	1	-1E+10	1	-1E+10	1
4902624	25	C	02/26/2025	07:39	-126.449	48.002	0	449.40	0	5.2370	0	34.0836	0	26.926	0	445.145	0	30.2	4	9.8	4	-1E+10	1	0.0724	4	0.000189	0	-1E+10	1	-1E+10	1	-1E+10	1
4902624	25	C	02/26/2025	07:39	-126.449	48.002	0	455.00	0	5.1890	0	34.0870	0	26.934	0	450.686	0	-1e10	1	-1e10	1	-1E+10	1	-1e10	1	-1e10	1	-1E+10	1	-1E+10	1	-1E+10	1
4902624	25	C	02/26/2025	07:39	-126.449	48.002	0	462.20	0	5.1465	0	34.0920	0	26.943	0	457.810	0	27.9	4	9.0	4	-1E+10	1	0.0587	4	0.000156	0	-1E+10	1	-1E+10	1	-1E+10	1
4902624	25	C	02/26/2025	07:39	-126.449	48.002	0	465.00	0	5.1300	0	34.0940	0	26.946	0	460.580	0	-1e10	1	-1e10	1	-1E+10	1	-1e10	1	-1e10	1	-1E+10	1	-1E+10	1	-1E+10	1
4902624	25	C	02/26/2025	07:39	-126.449	48.002	0	475.00	0	5.1210	0	34.1090	0	26.959	0	470.474	0	24.9	4	8.1	4	-1E+10	1	0.0657	4	0.000189	0	-1E+10	1	-1E+10	1	-1E+10	1
4902624	25	C	02/26/2025	07:39	-126.449	48.002	0	485.00	0	5.1060	0	34.1190	0	26.969	0	480.367	0	-1e10	1	-1e10	1	-1E+10	1	-1e10	1	-1e10	1	-1E+10	1	-1E+10	1	-1E+10	1
4902624	25	C	02/26/2025	07:39	-126.449	48.002	0	487.70	0	5.0977	0	34.1223	0	26.973	0	483.038	0	23.0	4	7.5	4	-1E+10	1	0.0654	4	0.000155	0	-1E+10	1	-1E+10	1	-1E+10	1
4902624	25	C	02/26/2025	07:39	-126.449	48.002	0	494.80	0	5.0760	0	34.1310	0	26.982	0	490.062	0	-1e10	1	-1e10	1	-1E+10	1	-1e10	1	-1e10	1	-1E+10	1	-1E+10	1	-1E+10	1
4902624	25	C	02/26/2025	07:39	-126.449	48.002	0	500.30	0	5.0413	0	34.1354	0	26.990	0	495.502	0	21.4	4	6.9	4	-1E+10	1	0.0584	4	0.000166	0	-1E+10	1	-1E+10	1	-1E+10	1
4902624	25	C	02/26/2025	07:39	-126.449	48.002	0	504.80	0	5.0130	0	34.1390	0	26.996	0	499.954	0	-1e10	1	-1e10	1	-1E+10	1	-1e10	1	-1e10	1	-1E+10	1	-1E+10	1	-1E+10	1
4902624	25	C	02/26/2025	07:39	-126.449	48.002	0	512.70	0	4.9911	0	34.1429	0	27.002	0	507.768	0	20.3	4	6.6	4	-1E+10	1	0.0584	4	0.000155	0	-1E+10	1	-1E+10	1	-1E+10	1
4902624	25	C	02/26/2025	07:39	-126.449	48.002	0	514.90	0	4.9850	0	34.1440	0	27.003	0	509.945	0	-1e10	1	-1e10	1	-1E+10	1	-1e10	1	-1e10	1	-1E+10	1	-1E+10	1	-1E+10	1
4902624	25	C	02/26/2025	07:39	-126.449	48.002	0	524.90	0	4.9240	0	34.1490	0	27.014	0	519.836	0	-1e10	1	-1e10	1	-1E+10	1	-1e10	1	-1e10	1	-1E+10	1	-1E+10	1	-1E+10	1
4902624	25	C	02/26/2025	07:39	-126.449	48.002	0	525.00	0	4.9234	0	34.1490	0	27.014	0	519.935	0	19.2	4	6.2	4	-1E+10	1	0.0581	4	0.000181	0	-1E+10	1	-1E+10	1	-1E+10	1
4902624	25	C	02/26/2025	07:39	-126.449	48.002	0	534.00	0	4.8692	0	34.1525	0	27.023	0	528.836	0	18.4	4	5.9	4	-1E+10	1	0.0508	4	0.000258	0	-1E+10	1	-1E+10	1	-1E+10	1
4902624	25	C	02/26/2025	07:39	-126.449	48.002	0	535.20	0	4.8620	0	34.1530	0	27.024	0	530.023	0	-1e10	1	-1e10	1	-1E+10	1	-1e10	1	-1e10	1	-1E+10	1	-1E+10	1	-1E+10	1
4902624	25	C	02/26/2025	07:39	-126.449	48.002	0	542.10	0	4.8317	0	34.1593	0	27.033	0	536.848	0	17.5	4	5.6	4	-1E+10	1	0.0441	4	0.000200	0	-1E+10	1	-1E+10	1	-1E+10	1
4902624	25	C	02/26/2025	07:39	-126.449	48.002	0	545.00	0	4.8190	0	34.1620	0	27.036	0	539.716	0	-1e10	1	-1e10	1	-1E+10	1	-1e10	1	-1e10	1	-1E+10	1	-1E+10	1	-1E+10	1
4902624	25	C	02/26/2025	07:39	-126.449	48.002	0	550.40	0	4.7890	0	34.1636	0	27.041	0	545.056	0	16.8	4	5.4	4	-1E+10	1	0.0508	4	0.000168	0	-1E+10	1	-1E+10	1	-1E+10	1
4902624	25	C	02/26/2025	07:39	-126.449	48.002	0	554.90	0	4.7640	0	34.1650	0	27.045	0	549.507	0	-1e10	1	-1e10	1	-1E+10	1	-1e10	1	-1e10	1	-1E+10	1	-1E+10	1	-1E+10	1
4902624	25	C	02/26/2025	07:39	-126.449	48.002	0	558.70	0	4.7338	0	34.1665	0	27.049	0	553.265	0	16.2	4	5.2	4	-1E+10	1	0.0443	4	0.000222	0	-1E+10	1	-1E+10	1	-1E+10	1
4902624	25	C	02/26/2025	07:39	-126.449	48.002	0	565.10	0	4.6830	0	34.1690	0	27.057	0	559.594	0	-1e10	1	-1e10	1	-1E+10	1	-1e10	1	-1e10	1	-1E+10	1	-1E+10	1	-1E+10	1
4902624	25	C	02/26/2025	07:39	-126.449	48.002	0	567.40	0	4.6740	0	34.1702	0	27.059	0	561.868	0	15.5	4	5.0	4	-1E+10	1	0.0577	4	0.000166	0	-1E+10	1	-1E+10	1	-1E+10	1
4902624	25	C	02/26/2025	07:39	-126.449	48.002	0	575.10	0	4.6440	0	34.1740	0	27.065	0	569.483	0	-1e10	1	-1e10	1	-1E+10	1	-1e10	1	-1e10	1	-1E+10	1	-1E+10	1	-1E+10	1
4902624	25	C	02/26/2025	07:39	-126.449	48.002	0	576.10	0	4.6398	0	34.1748	0	27.067	0	570.472	0	14.9	4	4.8	4	-1E+10	1	0.0438	4	0.000178	0	-1E+10	1	-1E+10	1	-1E+10	1
4902624	25	C	02/26/2025	07:39	-126.449	48.002	0	585.10	0	4.6020	0	34.1820	0	27.076	0	579.371	0	-1e10	1	-1e10	1	-1E+10	1	-1e10	1	-1e10	1	-1E+10	1	-1E+10	1	-1E+10	1
4902624	25	C	02/26/2025	07:39	-126.449	48.002	0	585.20	0	4.6016	0	34.1821	0	27.077	0	579.470	0	14.1	4	4.5	4	-1E+10	1	0.0443	4	0.000191	0	-1E+10	1	-1E+10	1	-1E+10	1
4902624	25	C	02/26/2025	07:39	-126.449	48.002	0	594.60	0	4.5675	0	34.1906	0	27.087	0	588.765	0	13.4	4	4.3	4	-1E+10	1	0.0581	4	0.000234	0	-1E+10	1	-1E+10	1	-1E+10	1
4902624	25	C	02/26/2025	07:39	-126.449	48.002	0	595.00	0	4.5660	0	34.1910	0	27.088	0	589.160	0	-1e10	1	-1e10	1	-1E+10	1	-1e10	1	-1e10	1	-1E+10	1	-1E+10	1	-1E+10	1
4902624	25	C	02/26/2025	07:39	-126.449	48.002	0	604.50	0	4.5498	0	34.1967	0	27.094	0	598.553	0	12.6	4	4.0	4	-1E+10	1	0.0517	4	0.000187	0	-1E+10	1	-1E+10	1	-1E+10	1
4902624	25	C	02/26/2025	07:39	-126.449	48.002	0	605.00	0	4.5490	0	34.1970	0	27.094	0	599.048	0	-1e10	1	-1e10	1	-1E+10	1	-1e10	1	-1e10	1	-1E+10	1	-1E+10	1	-1E+10	1
4902624	25	C	02/26/2025	07:39	-126.449	48.002	0	614.70	0	4.5206	0	34.2048	0	27.104	0	608.638	0	12.2	4	3.9	4	-1E+10	1	0.0649	4	0.000143	0	-1E+10	1	-1E+10	1	-1E+10	1
4902624	25	C	02/26/2025	07:39	-126.449	48.002	0	614.90	0	4.5200	0	34.2050	0	27.104	0	608.836	0	-1e10	1	-1e10	1	-1E+10	1	-1e10	1	-1e10	1	-1E+10	1	-1E+10	1	-1E+10	1
4902624	25	C	02/26/2025	07:39	-126.449	48.002	0	625.00	0	4.4780	0	34.2120	0	27.114	0	618.821	0	-1e10	1	-1e10	1	-1E+10	1	-1e10	1	-1e10	1	-1E+10	1	-1E+10	1	-1E+10	1
4902624	25	C	02/26/2025	07:39	-126.449	48.002	0	625.30	0	4.4774	0	34.2122	0	27.114	0	619.118	0	11.7	4	3.8	4	-1E+10	1	0.0443	4	0.000177	0	-1E+10	1	-1E+10	1	-1E+10	1
4902624	25	C	02/26/2025	07:39	-126.449	48.002	0	635.00	0	4.4580	0	34.2170	0	27.120	0	628.707	0	-1e10	1	-1e10	1	-1E+10	1	-1e10	1	-1e10	1	-1E+10	1	-1E+10	1	-1E+10	1
4902624	25	C	02/26/2025	07:39	-126.449	48.002	0	636.10	0	4.4552	0	34.2177	0	27.121	0	629.795	0	11.2	4	3.6	4	-1E+10	1	0.0581	4	0.000177	0	-1E+10	1	-1E+10	1	-1E+10	1
4902624	25	C	02/26/2025	07:39	-126.449	48.002	0	644.90	0	4.4330	0	34.2230	0	27.128	0	638.494	0	-1e10	1	-1e10	1	-1E+10	1	-1e10	1	-1e10	1	-1E+10	1	-1E+10	1	-1E+10	1
4902624	25	C	02/26/2025	07:39	-126.449	48.002	0	647.30	0	4.4294	0	34.2240	0	27.129	0	640.867	0	10.8	4	3.4	4	-1E+10	1	0.0514	4	0.000188	0	-1E+10	1	-1E+10	1	-1E+10	1
4902624	25	C	02/26/2025	07:39	-126.449	48.002	0	654.90	0	4.4180	0	34.2270	0	27.133	0	648.379	0	-1e10	1	-1e10	1	-1E+10	1	-1e10	1	-1e10	1	-1E+10	1	-1E+10	1	-1E+10	1
4902624	25	C	02/26/2025	07:39	-126.449	48.002	0	658.80	0	4.4115	0	34.2320	0	27.137	0	652.234	0	10.2	4	3.2	4	-1E+10	1	0.0584	4	0.000166	0	-1E+10	1	-1E+10	1	-1E+10	1
4902624	25	C	02/26/2025	07:39	-126.449	48.002	0	665.10	0	4.4010	0	34.2400	0	27.145	0	658.461	0	-1e10	1	-1e10	1	-1E+10	1	-1e10	1	-1e10	1	-1E+10	1	-1E+10	1	-1E+10	1
4902624	25	C	02/26/2025	07:39	-126.449	48.002	0	670.80	0	4.3857	0	34.2435	0	27.149	0	664.096	0	9.7	4	3.1	4	-1E+10	1	0.0581	4	0.000187	0	-1E+10	1	-1E+10	1	-1E+10	1
4902624	25	C	02/26/2025	07:39	-126.449	48.002	0	674.80	0	4.3750	0	34.2460	0	27.152	0	668.049	0	-1e10	1	-1e10	1	-1E+10	1	-1e10	1	-1e10	1	-1E+10	1	-1E+10	1	-1E+10	1
4902624	25	C	02/26/2025	07:39	-126.449	48.002	0	683.00	0	4.3490	0	34.2525	0	27.160	0	676.154	0	9.3	4	3.0	4	-1E+10	1	0.0514	4	0.000165	0	-1E+10	1	-1E+10	1	-1E+10	1
4902624	25	C	02/26/2025	07:39	-126.449	48.002	0	684.90	0	4.3430	0	34.2540	0	27.162	0	678.032	0	-1e10	1	-1e10	1	-1E+10	1	-1e10	1	-1e10	1	-1E+10	1	-1E+10	1	-1E+10	1
4902624	25	C	02/26/2025	07:39	-126.449	48.002	0	695.00	0	4.3090	0	34.2580	0	27.169	0	688.014	0	-1e10	1	-1e10	1	-1E+10	1	-1e10	1	-1e10	1	-1E+10	1	-1E+10	1	-1E+10	1
4902624	25	C	02/26/2025	07:39	-126.449	48.002	0	695.40	0	4.3069	0	34.2583	0	27.170	0	688.409	0	9.1	4	2.9	4	-1E+10	1	0.0588	4	0.000165	0	-1E+10	1	-1E+10	1	-1E+10	1
4902624	25	C	02/26/2025	07:39	-126.449	48.002	0	703.70	0	4.2638	0	34.2640	0	27.179	0	696.612	0	8.9	4	2.8	4	-1E+10	1	0.0653	4	0.000164	0	-1E+10	1	-1E+10	1	-1E+10	1
4902624	25	C	02/26/2025	07:39	-126.449	48.002	0	705.20	0	4.2560	0	34.2650	0	27.180	0	698.094	0	-1e10	1	-1e10	1	-1E+10	1	-1e10	1	-1e10	1	-1E+10	1	-1E+10	1	-1E+10	1
4902624	25	C	02/26/2025	07:39	-126.449	48.002	0	711.90	0	4.2341	0	34.2677	0	27.185	0	704.715	0	8.8	4	2.8	4	-1E+10	1	0.0587	4	0.000154	0	-1E+10	1	-1E+10	1	-1E+10	1
4902624	25	C	02/26/2025	07:39	-126.449	48.002	0	715.00	0	4.2240	0	34.2690	0	27.187	0	707.779	0	-1e10	1	-1e10	1	-1E+10	1	-1e10	1	-1e10	1	-1E+10	1	-1E+10	1	-1E+10	1
4902624	25	C	02/26/2025	07:39	-126.449	48.002	0	720.20	0	4.2137	0	34.2721	0	27.191	0	712.917	0	8.6	4	2.7	4	-1E+10	1	0.0657	4	0.000187	0	-1E+10	1	-1E+10	1	-1E+10	1
4902624	25	C	02/26/2025	07:39	-126.449	48.002	0	725.10	0	4.2040	0	34.2750	0	27.194	0	717.759	0	-1e10	1	-1e10	1	-1E+10	1	-1e10	1	-1e10	1	-1E+10	1	-1E+10	1	-1E+10	1
4902624	25	C	02/26/2025	07:39	-126.449	48.002	0	728.80	0	4.1985	0	34.2772	0	27.196	0	721.416	0	8.3	4	2.6	4	-1E+10	1	0.0654	4	0.000164	0	-1E+10	1	-1E+10	1	-1E+10	1
4902624	25	C	02/26/2025	07:39	-126.449	48.002	0	735.20	0	4.1890	0	34.2810	0	27.200	0	727.740	0	-1e10	1	-1e10	1	-1E+10	1	-1e10	1	-1e10	1	-1E+10	1	-1E+10	1	-1E+10	1
4902624	25	C	02/26/2025	07:39	-126.449	48.002	0	737.30	0	4.1845	0	34.2831	0	27.203	0	729.815	0	8.2	4	2.6	4	-1E+10	1	0.0587	4	0.000165	0	-1E+10	1	-1E+10	1	-1E+10	1
4902624	25	C	02/26/2025	07:39	-126.449	48.002	0	745.10	0	4.1680	0	34.2910	0	27.211	0	737.522	0	-1e10	1	-1e10	1	-1E+10	1	-1e10	1	-1e10	1	-1E+10	1	-1E+10	1	-1E+10	1
4902624	25	C	02/26/2025	07:39	-126.449	48.002	0	745.90	0	4.1667	0	34.2915	0	27.211	0	738.312	0	8.1	4	2.6	4	-1E+10	1	0.0649	4	0.000187	0	-1E+10	1	-1E+10	1	-1E+10	1
4902624	25	C	02/26/2025	07:39	-126.449	48.002	0	754.60	0	4.1525	0	34.2968	0	27.217	0	746.908	0	8.0	4	2.5	4	-1E+10	1	0.0441	4	0.000175	0	-1E+10	1	-1E+10	1	-1E+10	1
4902624	25	C	02/26/2025	07:39	-126.449	48.002	0	754.90	0	4.1520	0	34.2970	0	27.217	0	747.204	0	-1e10	1	-1e10	1	-1E+10	1	-1e10	1	-1e10	1	-1E+10	1	-1E+10	1	-1E+10	1
4902624	25	C	02/26/2025	07:39	-126.449	48.002	0	763.30	0	4.1327	0	34.3004	0	27.222	0	755.504	0	7.9	4	2.5	4	-1E+10	1	0.0518	4	0.000153	0	-1E+10	1	-1E+10	1	-1E+10	1
4902624	25	C	02/26/2025	07:39	-126.449	48.002	0	764.90	0	4.1290	0	34.3010	0	27.223	0	757.084	0	-1e10	1	-1e10	1	-1E+10	1	-1e10	1	-1e10	1	-1E+10	1	-1E+10	1	-1E+10	1
4902624	25	C	02/26/2025	07:39	-126.449	48.002	0	772.20	0	4.1088	0	34.3046	0	27.228	0	764.296	0	7.9	4	2.5	4	-1E+10	1	0.0720	4	0.000176	0	-1E+10	1	-1E+10	1	-1E+10	1
4902624	25	C	02/26/2025	07:39	-126.449	48.002	0	775.00	0	4.1010	0	34.3060	0	27.230	0	767.063	0	-1e10	1	-1e10	1	-1E+10	1	-1e10	1	-1e10	1	-1E+10	1	-1E+10	1	-1E+10	1
4902624	25	C	02/26/2025	07:39	-126.449	48.002	0	781.10	0	4.0793	0	34.3102	0	27.235	0	773.089	0	7.8	4	2.5	4	-1E+10	1	0.0513	4	0.000179	0	-1E+10	1	-1E+10	1	-1E+10	1
4902624	25	C	02/26/2025	07:39	-126.449	48.002	0	785.10	0	4.0650	0	34.3130	0	27.239	0	777.040	0	-1e10	1	-1e10	1	-1E+10	1	-1e10	1	-1e10	1	-1E+10	1	-1E+10	1	-1E+10	1
4902624	25	C	02/26/2025	07:39	-126.449	48.002	0	790.40	0	4.0515	0	34.3184	0	27.245	0	782.276	0	7.9	4	2.5	4	-1E+10	1	0.0581	4	0.000277	0	-1E+10	1	-1E+10	1	-1E+10	1
4902624	25	C	02/26/2025	07:39	-126.449	48.002	0	794.90	0	4.0400	0	34.3230	0	27.250	0	786.721	0	-1e10	1	-1e10	1	-1E+10	1	-1e10	1	-1e10	1	-1E+10	1	-1E+10	1	-1E+10	1
4902624	25	C	02/26/2025	07:39	-126.449	48.002	0	799.90	0	4.0370	0	34.3265	0	27.253	0	791.660	0	7.9	4	2.5	4	-1E+10	1	0.0517	4	0.000189	0	-1E+10	1	-1E+10	1	-1E+10	1
4902624	25	C	02/26/2025	07:39	-126.449	48.002	0	805.00	0	4.0340	0	34.3300	0	27.256	0	796.698	0	-1e10	1	-1e10	1	-1E+10	1	-1e10	1	-1e10	1	-1E+10	1	-1E+10	1	-1E+10	1
4902624	25	C	02/26/2025	07:39	-126.449	48.002	0	809.50	0	4.0270	0	34.3326	0	27.259	0	801.143	0	8.0	4	2.5	4	-1E+10	1	0.0653	4	0.000222	0	-1E+10	1	-1E+10	1	-1E+10	1
4902624	25	C	02/26/2025	07:39	-126.449	48.002	0	815.30	0	4.0180	0	34.3360	0	27.262	0	806.872	0	-1e10	1	-1e10	1	-1E+10	1	-1e10	1	-1e10	1	-1E+10	1	-1E+10	1	-1E+10	1
4902624	25	C	02/26/2025	07:39	-126.449	48.002	0	819.40	0	4.0143	0	34.3372	0	27.264	0	810.922	0	8.0	4	2.5	4	-1E+10	1	0.0508	4	0.000221	0	-1E+10	1	-1E+10	1	-1E+10	1
4902624	25	C	02/26/2025	07:39	-126.449	48.002	0	825.20	0	4.0090	0	34.3390	0	27.266	0	816.650	0	-1e10	1	-1e10	1	-1E+10	1	-1e10	1	-1e10	1	-1E+10	1	-1E+10	1	-1E+10	1
4902624	25	C	02/26/2025	07:39	-126.449	48.002	0	829.40	0	3.9946	0	34.3394	0	27.268	0	820.799	0	7.7	4	2.4	4	-1E+10	1	0.0446	4	0.000198	0	-1E+10	1	-1E+10	1	-1E+10	1
4902624	25	C	02/26/2025	07:39	-126.449	48.002	0	835.10	0	3.9750	0	34.3400	0	27.270	0	826.428	0	-1e10	1	-1e10	1	-1E+10	1	-1e10	1	-1e10	1	-1E+10	1	-1E+10	1	-1E+10	1
4902624	25	C	02/26/2025	07:39	-126.449	48.002	0	839.80	0	3.9603	0	34.3428	0	27.274	0	831.070	0	7.8	4	2.5	4	-1E+10	1	0.0657	4	0.000175	0	-1E+10	1	-1E+10	1	-1E+10	1
4902624	25	C	02/26/2025	07:39	-126.449	48.002	0	845.30	0	3.9430	0	34.3460	0	27.278	0	836.502	0	-1e10	1	-1e10	1	-1E+10	1	-1e10	1	-1e10	1	-1E+10	1	-1E+10	1	-1E+10	1
4902624	25	C	02/26/2025	07:39	-126.449	48.002	0	850.70	0	3.9344	0	34.3476	0	27.280	0	841.835	0	7.8	4	2.5	4	-1E+10	1	0.0654	4	0.000164	0	-1E+10	1	-1E+10	1	-1E+10	1
4902624	25	C	02/26/2025	07:39	-126.449	48.002	0	855.30	0	3.9270	0	34.3490	0	27.282	0	846.378	0	-1e10	1	-1e10	1	-1E+10	1	-1e10	1	-1e10	1	-1E+10	1	-1E+10	1	-1E+10	1
4902624	25	C	02/26/2025	07:39	-126.449	48.002	0	861.70	0	3.9237	0	34.3503	0	27.284	0	852.698	0	7.9	4	2.5	4	-1E+10	1	0.0587	4	0.000178	0	-1E+10	1	-1E+10	1	-1E+10	1
4902624	25	C	02/26/2025	07:39	-126.449	48.002	0	865.00	0	3.9220	0	34.3510	0	27.284	0	855.957	0	-1e10	1	-1e10	1	-1E+10	1	-1e10	1	-1e10	1	-1E+10	1	-1E+10	1	-1E+10	1
4902624	25	C	02/26/2025	07:39	-126.449	48.002	0	873.00	0	3.9002	0	34.3567	0	27.291	0	863.856	0	8.1	4	2.6	4	-1E+10	1	0.0651	4	0.000232	0	-1E+10	1	-1E+10	1	-1E+10	1
4902624	25	C	02/26/2025	07:39	-126.449	48.002	0	874.90	0	3.8950	0	34.3580	0	27.293	0	865.733	0	-1e10	1	-1e10	1	-1E+10	1	-1e10	1	-1e10	1	-1E+10	1	-1E+10	1	-1E+10	1
4902624	25	C	02/26/2025	07:39	-126.449	48.002	0	884.70	0	3.8814	0	34.3609	0	27.297	0	875.409	0	8.1	4	2.6	4	-1E+10	1	0.0514	4	0.000198	0	-1E+10	1	-1E+10	1	-1E+10	1
4902624	25	C	02/26/2025	07:39	-126.449	48.002	0	885.00	0	3.8810	0	34.3610	0	27.297	0	875.706	0	-1e10	1	-1e10	1	-1E+10	1	-1e10	1	-1e10	1	-1E+10	1	-1E+10	1	-1E+10	1
4902624	25	C	02/26/2025	07:39	-126.449	48.002	0	894.80	0	3.8620	0	34.3630	0	27.300	0	885.382	0	-1e10	1	-1e10	1	-1E+10	1	-1e10	1	-1e10	1	-1E+10	1	-1E+10	1	-1E+10	1
4902624	25	C	02/26/2025	07:39	-126.449	48.002	0	896.80	0	3.8570	0	34.3638	0	27.301	0	887.357	0	53.5	8	16.9	8	-1E+10	1	0.0584	4	0.000198	0	-1E+10	1	-1E+10	1	-1E+10	1
4902624	25	C	02/26/2025	07:39	-126.449	48.002	0	904.80	0	3.8370	0	34.3670	0	27.306	0	895.255	0	-1e10	1	-1e10	1	-1E+10	1	-1e10	1	-1e10	1	-1E+10	1	-1E+10	1	-1E+10	1
4902624	25	C	02/26/2025	07:39	-126.449	48.002	0	909.00	0	3.8279	0	34.3687	0	27.308	0	899.402	0	9.3	8	2.9	8	-1E+10	1	0.0584	4	0.000204	0	-1E+10	1	-1E+10	1	-1E+10	1
4902624	25	C	02/26/2025	07:39	-126.449	48.002	0	914.90	0	3.8150	0	34.3710	0	27.312	0	905.227	0	-1e10	1	-1e10	1	-1E+10	1	-1e10	1	-1e10	1	-1E+10	1	-1E+10	1	-1E+10	1
4902624	25	C	02/26/2025	07:39	-126.449	48.002	0	921.00	0	3.7905	0	34.3728	0	27.315	0	911.249	0	45.9	4	14.4	4	-1E+10	1	0.0581	4	0.000331	0	-1E+10	1	-1E+10	1	-1E+10	1
4902624	25	C	02/26/2025	07:39	-126.449	48.002	0	925.10	0	3.7740	0	34.3740	0	27.318	0	915.297	0	-1e10	1	-1e10	1	-1E+10	1	-1e10	1	-1e10	1	-1E+10	1	-1E+10	1	-1E+10	1
4902624	25	C	02/26/2025	07:39	-126.449	48.002	0	933.00	0	3.7450	0	34.3748	0	27.322	0	923.096	0	46.5	4	14.6	4	-1E+10	1	0.0513	4	0.000150	0	-1E+10	1	-1E+10	1	-1E+10	1
4902624	25	C	02/26/2025	07:39	-126.449	48.002	0	934.90	0	3.7380	0	34.3750	0	27.322	0	924.971	0	-1e10	1	-1e10	1	-1E+10	1	-1e10	1	-1e10	1	-1E+10	1	-1E+10	1	-1E+10	1
4902624	25	C	02/26/2025	07:39	-126.449	48.002	0	944.90	0	3.7160	0	34.3790	0	27.328	0	934.843	0	-1e10	1	-1e10	1	-1E+10	1	-1e10	1	-1e10	1	-1E+10	1	-1E+10	1	-1E+10	1
4902624	25	C	02/26/2025	07:39	-126.449	48.002	0	945.10	0	3.7156	0	34.3791	0	27.328	0	935.040	0	49.1	4	15.4	4	-1E+10	1	0.0584	4	0.000141	0	-1E+10	1	-1E+10	1	-1E+10	1
4902624	25	C	02/26/2025	07:39	-126.449	48.002	0	954.00	0	3.6980	0	34.3835	0	27.333	0	943.825	0	48.8	4	15.3	4	-1E+10	1	0.0581	4	0.000174	0	-1E+10	1	-1E+10	1	-1E+10	1
4902624	25	C	02/26/2025	07:39	-126.449	48.002	0	955.00	0	3.6960	0	34.3840	0	27.334	0	944.812	0	-1e10	1	-1e10	1	-1E+10	1	-1e10	1	-1e10	1	-1E+10	1	-1E+10	1	-1E+10	1
4902624	25	C	02/26/2025	07:39	-126.449	48.002	0	962.10	0	3.6781	0	34.3876	0	27.339	0	951.821	0	50.1	4	15.7	4	-1E+10	1	0.0522	4	0.000162	0	-1E+10	1	-1E+10	1	-1E+10	1
4902624	25	C	02/26/2025	07:39	-126.449	48.002	0	964.90	0	3.6710	0	34.3890	0	27.340	0	954.584	0	-1e10	1	-1e10	1	-1E+10	1	-1e10	1	-1e10	1	-1E+10	1	-1E+10	1	-1E+10	1
4902624	25	C	02/26/2025	07:39	-126.449	48.002	0	970.20	0	3.6609	0	34.3911	0	27.343	0	959.816	0	51.3	4	16.1	4	-1E+10	1	0.0719	4	0.000163	0	-1E+10	1	-1E+10	1	-1E+10	1
4902624	25	C	02/26/2025	07:39	-126.449	48.002	0	974.90	0	3.6520	0	34.3930	0	27.346	0	964.454	0	-1e10	1	-1e10	1	-1E+10	1	-1e10	1	-1e10	1	-1E+10	1	-1E+10	1	-1E+10	1
4902624	25	C	02/26/2025	07:39	-126.449	48.002	0	978.40	0	3.6434	0	34.3947	0	27.348	0	967.909	0	51.0	4	16.0	4	-1E+10	1	0.0435	4	0.000185	0	-1E+10	1	-1E+10	1	-1E+10	1
4902624	25	C	02/26/2025	07:39	-126.449	48.002	0	985.10	0	3.6270	0	34.3980	0	27.352	0	974.521	0	-1e10	1	-1e10	1	-1E+10	1	-1e10	1	-1e10	1	-1E+10	1	-1E+10	1	-1E+10	1
4902624	25	C	02/26/2025	07:39	-126.449	48.002	0	986.60	0	3.6231	0	34.3985	0	27.353	0	976.002	0	51.0	4	16.0	4	-1E+10	1	0.0375	4	0.000174	0	-1E+10	1	-1E+10	1	-1E+10	1
4902624	25	C	02/26/2025	07:39	-126.449	48.002	0	995.00	0	3.6010	0	34.4010	0	27.357	0	984.292	0	50.4	4	15.8	4	-1E+10	1	0.0656	4	0.000187	0	-1E+10	1	-1E+10	1	-1E+10	1
4902624	25	C	02/26/2025	07:39	-126.449	48.002	0	1012.10	0	3.5644	0	34.4073	0	27.366	0	1001.167	0	51.6	4	16.1	4	-1E+10	1	0.0585	4	0.000243	0	-1E+10	1	-1E+10	1	-1E+10	1
4902624	25	C	02/26/2025	07:39	-126.449	48.002	0	1024.90	0	3.5370	0	34.4120	0	27.372	0	1013.798	0	-1e10	1	-1e10	1	-1E+10	1	-1e10	1	-1e10	1	-1E+10	1	-1E+10	1	-1E+10	1
4902624	25	C	02/26/2025	07:39	-126.449	48.002	0	1029.40	0	3.5225	0	34.4143	0	27.375	0	1018.238	0	51.6	4	16.1	4	-1E+10	1	0.0654	4	0.000185	0	-1E+10	1	-1E+10	1	-1E+10	1
4902624	25	C	02/26/2025	07:39	-126.449	48.002	0	1046.40	0	3.4679	0	34.4229	0	27.388	0	1035.012	0	51.9	4	16.2	4	-1E+10	1	0.0513	4	0.000197	0	-1E+10	1	-1E+10	1	-1E+10	1
4902624	25	C	02/26/2025	07:39	-126.449	48.002	0	1064.30	0	3.4104	0	34.4319	0	27.400	0	1052.672	0	54.6	4	17.0	4	-1E+10	1	0.0655	4	0.000185	0	-1E+10	1	-1E+10	1	-1E+10	1
4902624	25	C	02/26/2025	07:39	-126.449	48.002	0	1074.40	0	3.3780	0	34.4370	0	27.408	0	1062.636	0	-1e10	1	-1e10	1	-1E+10	1	-1e10	1	-1e10	1	-1E+10	1	-1E+10	1	-1E+10	1
4902624	25	C	02/26/2025	07:39	-126.449	48.002	0	1083.90	0	3.3584	0	34.4389	0	27.411	0	1072.008	0	53.7	4	16.7	4	-1E+10	1	0.0512	4	0.000174	0	-1E+10	1	-1E+10	1	-1E+10	1
4902624	25	C	02/26/2025	07:39	-126.449	48.002	0	1104.30	0	3.3162	0	34.4429	0	27.418	0	1092.131	0	54.5	4	17.0	4	-1E+10	1	0.0582	4	0.000207	0	-1E+10	1	-1E+10	1	-1E+10	1
4902624	25	C	02/26/2025	07:39	-126.449	48.002	0	1125.20	0	3.2730	0	34.4470	0	27.426	0	1112.745	0	-1e10	1	-1e10	1	-1E+10	1	-1e10	1	-1e10	1	-1E+10	1	-1E+10	1	-1E+10	1
4902624	25	C	02/26/2025	07:39	-126.449	48.002	0	1125.80	0	3.2713	0	34.4472	0	27.426	0	1113.337	0	55.5	4	17.2	4	-1E+10	1	0.0511	4	0.000161	0	-1E+10	1	-1E+10	1	-1E+10	1
4902624	25	C	02/26/2025	07:39	-126.449	48.002	0	1147.60	0	3.2100	0	34.4528	0	27.436	0	1134.837	0	55.7	4	17.3	4	-1E+10	1	0.0509	4	0.000189	0	-1E+10	1	-1E+10	1	-1E+10	1
4902624	25	C	02/26/2025	07:39	-126.449	48.002	0	1170.10	0	3.1468	0	34.4587	0	27.447	0	1157.025	0	55.3	4	17.1	4	-1E+10	1	0.0443	4	0.000380	0	-1E+10	1	-1E+10	1	-1E+10	1
4902624	25	C	02/26/2025	07:39	-126.449	48.002	0	1175.00	0	3.1330	0	34.4600	0	27.449	0	1161.857	0	-1e10	1	-1e10	1	-1E+10	1	-1e10	1	-1e10	1	-1E+10	1	-1E+10	1	-1E+10	1
4902624	25	C	02/26/2025	07:39	-126.449	48.002	0	1193.00	0	3.0932	0	34.4646	0	27.457	0	1179.605	0	55.6	4	17.2	4	-1E+10	1	0.0654	4	0.000206	0	-1E+10	1	-1E+10	1	-1E+10	1
4902624	25	C	02/26/2025	07:39	-126.449	48.002	0	1215.20	0	3.0442	0	34.4703	0	27.466	0	1201.492	0	54.2	4	16.8	4	-1E+10	1	0.0511	4	0.000163	0	-1E+10	1	-1E+10	1	-1E+10	1
4902624	25	C	02/26/2025	07:39	-126.449	48.002	0	1225.70	0	3.0210	0	34.4730	0	27.470	0	1211.843	0	-1e10	1	-1e10	1	-1E+10	1	-1e10	1	-1e10	1	-1E+10	1	-1E+10	1	-1E+10	1
4902624	25	C	02/26/2025	07:39	-126.449	48.002	0	1231.20	0	3.0047	0	34.4749	0	27.473	0	1217.265	0	55.5	4	17.1	4	-1E+10	1	0.0510	4	0.000324	0	-1E+10	1	-1E+10	1	-1E+10	1
4902624	25	C	02/26/2025	07:39	-126.449	48.002	0	1247.90	0	2.9553	0	34.4807	0	27.482	0	1233.727	0	61.4	4	18.9	4	-1E+10	1	0.0442	4	0.000299	0	-1E+10	1	-1E+10	1	-1E+10	1
4902624	25	C	02/26/2025	07:39	-126.449	48.002	0	1265.50	0	2.9032	0	34.4868	0	27.492	0	1251.075	0	70.9	4	21.8	4	-1E+10	1	0.0655	4	0.000240	0	-1E+10	1	-1E+10	1	-1E+10	1
4902624	25	C	02/26/2025	07:39	-126.449	48.002	0	1274.70	0	2.8760	0	34.4900	0	27.497	0	1260.143	0	-1e10	1	-1e10	1	-1E+10	1	-1e10	1	-1e10	1	-1E+10	1	-1E+10	1	-1E+10	1
4902624	25	C	02/26/2025	07:39	-126.449	48.002	0	1283.50	0	2.8560	0	34.4925	0	27.501	0	1268.816	0	71.0	4	21.9	4	-1E+10	1	0.0584	4	0.000161	0	-1E+10	1	-1E+10	1	-1E+10	1
4902624	25	C	02/26/2025	07:39	-126.449	48.002	0	1302.10	0	2.8138	0	34.4977	0	27.509	0	1287.146	0	77.4	4	23.8	4	-1E+10	1	0.0584	4	0.000218	0	-1E+10	1	-1E+10	1	-1E+10	1
4902624	25	C	02/26/2025	07:39	-126.449	48.002	0	1321.20	0	2.7705	0	34.5031	0	27.517	0	1305.968	0	80.0	4	24.6	4	-1E+10	1	0.0584	4	0.000218	0	-1E+10	1	-1E+10	1	-1E+10	1
4902624	25	C	02/26/2025	07:39	-126.449	48.002	0	1324.50	0	2.7630	0	34.5040	0	27.518	0	1309.219	0	-1e10	1	-1e10	1	-1E+10	1	-1e10	1	-1e10	1	-1E+10	1	-1E+10	1	-1E+10	1
4902624	25	C	02/26/2025	07:39	-126.449	48.002	0	1341.10	0	2.7371	0	34.5073	0	27.523	0	1325.576	0	77.0	4	23.6	4	-1E+10	1	0.0585	4	0.000217	0	-1E+10	1	-1E+10	1	-1E+10	1
4902624	25	C	02/26/2025	07:39	-126.449	48.002	0	1362.40	0	2.7038	0	34.5115	0	27.530	0	1346.561	0	77.3	4	23.7	4	-1E+10	1	0.0656	4	0.000207	0	-1E+10	1	-1E+10	1	-1E+10	1
4902624	25	C	02/26/2025	07:39	-126.449	48.002	0	1375.10	0	2.6840	0	34.5140	0	27.534	0	1359.073	0	-1e10	1	-1e10	1	-1E+10	1	-1e10	1	-1e10	1	-1E+10	1	-1E+10	1	-1E+10	1
4902624	25	C	02/26/2025	07:39	-126.449	48.002	0	1383.90	0	2.6677	0	34.5157	0	27.536	0	1367.742	0	76.0	4	23.3	4	-1E+10	1	0.0584	4	0.000275	0	-1E+10	1	-1E+10	1	-1E+10	1
4902624	25	C	02/26/2025	07:39	-126.449	48.002	0	1406.40	0	2.6260	0	34.5201	0	27.544	0	1389.905	0	87.9	4	26.9	4	-1E+10	1	0.0584	4	0.000265	0	-1E+10	1	-1E+10	1	-1E+10	1
4902624	25	C	02/26/2025	07:39	-126.449	48.002	0	1426.40	0	2.5890	0	34.5240	0	27.550	0	1409.603	0	-1e10	1	-1e10	1	-1E+10	1	-1e10	1	-1e10	1	-1E+10	1	-1E+10	1	-1E+10	1
4902624	25	C	02/26/2025	07:39	-126.449	48.002	0	1427.60	0	2.5880	0	34.5241	0	27.550	0	1410.785	0	91.5	4	28.0	4	-1E+10	1	0.0583	4	0.000322	0	-1E+10	1	-1E+10	1	-1E+10	1
4902624	25	C	02/26/2025	07:39	-126.449	48.002	0	1443.80	0	2.5743	0	34.5258	0	27.553	0	1426.740	0	93.0	4	28.4	4	-1E+10	1	0.0512	4	0.000300	0	-1E+10	1	-1E+10	1	-1E+10	1
4902624	25	C	02/26/2025	07:39	-126.449	48.002	0	1461.20	0	2.5596	0	34.5276	0	27.556	0	1443.875	0	95.6	4	29.2	4	-1E+10	1	0.0582	4	0.000379	0	-1E+10	1	-1E+10	1	-1E+10	1
4902624	25	C	02/26/2025	07:39	-126.449	48.002	0	1474.90	0	2.5480	0	34.5290	0	27.558	0	1457.365	0	-1e10	1	-1e10	1	-1E+10	1	-1e10	1	-1e10	1	-1E+10	1	-1E+10	1	-1E+10	1
4902624	25	C	02/26/2025	07:39	-126.449	48.002	0	1479.30	0	2.5440	0	34.5295	0	27.559	0	1461.698	0	95.8	4	29.3	4	-1E+10	1	0.0440	4	0.000275	0	-1E+10	1	-1E+10	1	-1E+10	1
4902624	25	C	02/26/2025	07:39	-126.449	48.002	0	1497.70	0	2.5271	0	34.5317	0	27.562	0	1479.814	0	95.9	4	29.3	4	-1E+10	1	0.0511	4	0.000276	0	-1E+10	1	-1E+10	1	-1E+10	1
4902624	25	C	02/26/2025	07:39	-126.449	48.002	0	1516.30	0	2.5101	0	34.5339	0	27.565	0	1498.126	0	98.0	4	29.9	4	-1E+10	1	0.0514	4	0.000321	0	-1E+10	1	-1E+10	1	-1E+10	1
4902624	25	C	02/26/2025	07:39	-126.449	48.002	0	1525.10	0	2.5020	0	34.5350	0	27.567	0	1506.789	0	-1e10	1	-1e10	1	-1E+10	1	-1e10	1	-1e10	1	-1E+10	1	-1E+10	1	-1E+10	1
4902624	25	C	02/26/2025	07:39	-126.449	48.002	0	1535.80	0	2.4904	0	34.5363	0	27.569	0	1517.323	0	99.2	4	30.3	4	-1E+10	1	0.0657	4	0.000298	0	-1E+10	1	-1E+10	1	-1E+10	1
4902624	25	C	02/26/2025	07:39	-126.449	48.002	0	1554.90	0	2.4698	0	34.5386	0	27.572	0	1536.123	0	100.2	4	30.6	4	-1E+10	1	0.0657	4	0.000301	0	-1E+10	1	-1E+10	1	-1E+10	1
4902624	25	C	02/26/2025	07:39	-126.449	48.002	0	1574.40	0	2.4488	0	34.5409	0	27.576	0	1555.316	0	104.3	4	31.8	4	-1E+10	1	0.0656	4	0.000459	0	-1E+10	1	-1E+10	1	-1E+10	1
4902624	25	C	02/26/2025	07:39	-126.449	48.002	0	1575.10	0	2.4480	0	34.5410	0	27.576	0	1556.005	0	-1e10	1	-1e10	1	-1E+10	1	-1e10	1	-1e10	1	-1E+10	1	-1E+10	1	-1E+10	1
4902624	25	C	02/26/2025	07:39	-126.449	48.002	0	1594.10	0	2.4151	0	34.5444	0	27.582	0	1574.704	0	106.7	4	32.5	4	-1E+10	1	0.0581	4	0.000298	0	-1E+10	1	-1E+10	1	-1E+10	1
4902624	25	C	02/26/2025	07:39	-126.449	48.002	0	1614.00	0	2.3807	0	34.5480	0	27.588	0	1594.287	0	106.2	4	32.3	4	-1E+10	1	0.0441	4	0.000330	0	-1E+10	1	-1E+10	1	-1E+10	1
4902624	25	C	02/26/2025	07:39	-126.449	48.002	0	1624.80	0	2.3620	0	34.5500	0	27.591	0	1604.914	0	-1e10	1	-1e10	1	-1E+10	1	-1e10	1	-1e10	1	-1E+10	1	-1E+10	1	-1E+10	1
4902624	25	C	02/26/2025	07:39	-126.449	48.002	0	1634.00	0	2.3405	0	34.5520	0	27.594	0	1613.967	0	119.8	4	36.4	4	-1E+10	1	0.0584	4	0.000227	0	-1E+10	1	-1E+10	1	-1E+10	1
4902624	25	C	02/26/2025	07:39	-126.449	48.002	0	1654.00	0	2.2938	0	34.5564	0	27.602	0	1633.645	0	140.6	4	42.7	4	-1E+10	1	0.0581	4	0.000237	0	-1E+10	1	-1E+10	1	-1E+10	1
4902624	25	C	02/26/2025	07:39	-126.449	48.002	0	1675.30	0	2.2440	0	34.5610	0	27.610	0	1654.599	0	-1e10	1	-1e10	1	-1E+10	1	-1e10	1	-1e10	1	-1E+10	1	-1E+10	1	-1E+10	1
4902624	25	C	02/26/2025	07:39	-126.449	48.002	0	1675.60	0	2.2437	0	34.5610	0	27.610	0	1654.894	0	107.5	4	32.6	4	-1E+10	1	0.0440	4	0.000201	0	-1E+10	1	-1E+10	1	-1E+10	1
4902624	25	C	02/26/2025	07:39	-126.449	48.002	0	1694.70	0	2.2216	0	34.5638	0	27.614	0	1673.683	0	106.5	4	32.3	4	-1E+10	1	0.0510	4	0.000144	0	-1E+10	1	-1E+10	1	-1E+10	1
4902624	25	C	02/26/2025	07:39	-126.449	48.002	0	1711.00	0	2.2027	0	34.5661	0	27.617	0	1689.716	0	106.2	4	32.2	4	-1E+10	1	0.0440	4	0.000178	0	-1E+10	1	-1E+10	1	-1E+10	1
4902624	25	C	02/26/2025	07:39	-126.449	48.002	0	1724.60	0	2.1870	0	34.5680	0	27.620	0	1703.092	0	-1e10	1	-1e10	1	-1E+10	1	-1e10	1	-1e10	1	-1E+10	1	-1E+10	1	-1E+10	1
4902624	25	C	02/26/2025	07:39	-126.449	48.002	0	1728.30	0	2.1838	0	34.5685	0	27.621	0	1706.731	0	106.2	4	32.2	4	-1E+10	1	0.0513	4	0.000156	0	-1E+10	1	-1E+10	1	-1E+10	1
4902624	25	C	02/26/2025	07:39	-126.449	48.002	0	1746.10	0	2.1683	0	34.5710	0	27.624	0	1724.237	0	108.9	4	33.0	4	-1E+10	1	0.0581	4	0.000178	0	-1E+10	1	-1E+10	1	-1E+10	1
4902624	25	C	02/26/2025	07:39	-126.449	48.002	0	1765.20	0	2.1516	0	34.5736	0	27.628	0	1743.019	0	110.8	4	33.5	4	-1E+10	1	0.0442	4	0.000182	0	-1E+10	1	-1E+10	1	-1E+10	1
4902624	25	C	02/26/2025	07:39	-126.449	48.002	0	1775.10	0	2.1430	0	34.5750	0	27.629	0	1752.754	0	-1e10	1	-1e10	1	-1E+10	1	-1e10	1	-1e10	1	-1E+10	1	-1E+10	1	-1E+10	1
4902624	25	C	02/26/2025	07:39	-126.449	48.002	0	1785.00	0	2.1311	0	34.5768	0	27.632	0	1762.488	0	114.2	4	34.5	4	-1E+10	1	0.0654	4	0.000362	0	-1E+10	1	-1E+10	1	-1E+10	1
4902624	25	C	02/26/2025	07:39	-126.449	48.002	0	1804.80	0	2.1073	0	34.5804	0	27.637	0	1781.956	0	117.4	4	35.5	4	-1E+10	1	0.0511	4	0.000202	0	-1E+10	1	-1E+10	1	-1E+10	1
4902624	25	C	02/26/2025	07:39	-126.449	48.002	0	1825.00	0	2.0830	0	34.5840	0	27.642	0	1801.814	0	-1e10	1	-1e10	1	-1E+10	1	-1e10	1	-1e10	1	-1E+10	1	-1E+10	1	-1E+10	1
4902624	25	C	02/26/2025	07:39	-126.449	48.002	0	1825.90	0	2.0822	0	34.5841	0	27.642	0	1802.699	0	119.7	4	36.2	4	-1E+10	1	0.0511	4	0.000223	0	-1E+10	1	-1E+10	1	-1E+10	1
4902624	25	C	02/26/2025	07:39	-126.449	48.002	0	1847.50	0	2.0637	0	34.5871	0	27.646	0	1823.932	0	121.3	4	36.6	4	-1E+10	1	0.0511	4	0.000178	0	-1E+10	1	-1E+10	1	-1E+10	1
4902624	25	C	02/26/2025	07:39	-126.449	48.002	0	1869.50	0	2.0448	0	34.5902	0	27.650	0	1845.556	0	121.2	4	36.6	4	-1E+10	1	0.0508	4	0.000226	0	-1E+10	1	-1E+10	1	-1E+10	1
4902624	25	C	02/26/2025	07:39	-126.449	48.002	0	1875.10	0	2.0400	0	34.5910	0	27.651	0	1851.060	0	-1e10	1	-1e10	1	-1E+10	1	-1e10	1	-1e10	1	-1E+10	1	-1E+10	1	-1E+10	1
4902624	25	C	02/26/2025	07:39	-126.449	48.002	0	1890.30	0	2.0286	0	34.5925	0	27.653	0	1865.998	0	120.4	4	36.3	4	-1E+10	1	0.0368	4	0.000926	0	-1E+10	1	-1E+10	1	-1E+10	1
4902624	25	C	02/26/2025	07:39	-126.449	48.002	0	1906.30	0	2.0167	0	34.5942	0	27.655	0	1881.722	0	121.2	4	36.5	4	-1E+10	1	0.0510	4	0.000200	0	-1E+10	1	-1E+10	1	-1E+10	1
4902624	25	C	02/26/2025	07:39	-126.449	48.002	0	1923.10	0	2.0041	0	34.5958	0	27.658	0	1898.230	0	121.5	4	36.6	4	-1E+10	1	0.0438	4	0.000204	0	-1E+10	1	-1E+10	1	-1E+10	1
4902624	25	C	02/26/2025	07:39	-126.449	48.002	0	1924.60	0	2.0030	0	34.5960	0	27.658	0	1899.704	0	-1e10	1	-1e10	1	-1E+10	1	-1e10	1	-1e10	1	-1E+10	1	-1E+10	1	-1E+10	1
4902624	25	C	02/26/2025	07:39	-126.449	48.002	0	1940.00	0	1.9937	0	34.5973	0	27.660	0	1914.836	0	121.5	4	36.6	4	-1E+10	1	0.0438	4	0.000350	0	-1E+10	1	-1E+10	1	-1E+10	1
4902624	25	C	02/26/2025	07:39	-126.449	48.002	0	1957.90	0	1.9829	0	34.5989	0	27.662	0	1932.423	0	121.3	4	36.6	4	-1E+10	1	0.0436	4	0.000270	0	-1E+10	1	-1E+10	1	-1E+10	1
4902624	25	C	02/26/2025	07:39	-126.449	48.002	0	1971.00	0	1.9750	0	34.6000	0	27.664	0	1945.292	0	-1e10	1	-1e10	1	-1E+10	1	-1e10	1	-1e10	1	-1E+10	1	-1E+10	1	-1E+10	1
4902624	25	C	02/26/2025	07:39	-126.449	48.002	0	1976.50	0	-1e10	1	-1e10	1	-1e10	1	1950.695	0	124.1	4	-1e10	4	-1E+10	1	0.0366	4	0.000267	0	-1E+10	1	-1E+10	1	-1E+10	1
4902624	25	C	02/26/2025	07:39	-126.449	48.002	0	1992.00	0	-1e10	1	-1e10	1	-1e10	1	1965.922	0	111.1	4	-1e10	4	-1E+10	1	0.0438	4	0.000393	0	-1E+10	1	-1E+10	1	-1E+10	1
4902624	25	C	02/26/2025	07:39	-126.449	48.002	0																										
4902624	26	C	03/08/2025	02:31	-126.751	48.105	0	0.00	0	8.9393	0	32.2993	0	25.014	0	0.000	0	264.2	4	92.2	4	-1E+10	1	0.8176	4	0.001085	0	-1E+10	1	-1E+10	1	-1E+10	1
4902624	26	C	03/08/2025	02:31	-126.751	48.105	0	0.40	0	8.9440	0	32.2980	0	25.012	0	0.397	0	264.2	4	92.2	4	-1E+10	1	0.8001	4	0.001104	0	-1E+10	1	-1E+10	1	-1E+10	1
4902624	26	C	03/08/2025	02:31	-126.751	48.105	0	0.50	0	8.9440	0	32.2981	0	25.012	0	0.496	0	264.3	4	92.3	4	-1E+10	1	0.7957	4	0.001108	0	-1E+10	1	-1E+10	1	-1E+10	1
4902624	26	C	03/08/2025	02:31	-126.751	48.105	0	1.40	0	8.9440	0	32.2989	0	25.013	0	1.388	0	-1e10	1	-1e10	1	-1E+10	1	0.8030	4	0.000921	0	-1E+10	1	-1E+10	1	-1E+10	1
4902624	26	C	03/08/2025	02:31	-126.751	48.105	0	1.50	0	8.9440	0	32.2990	0	25.013	0	1.487	0	-1e10	1	-1e10	1	-1E+10	1	-1e10	1	-1e10	1	-1E+10	1	-1E+10	1	-1E+10	1
4902624	26	C	03/08/2025	02:31	-126.751	48.105	0	1.70	0	8.9440	0	32.2990	0	25.013	0	1.686	0	262.9	4	91.8	4	-1E+10	1	0.8249	4	0.001003	0	-1E+10	1	-1E+10	1	-1E+10	1
4902624	26	C	03/08/2025	02:31	-126.751	48.105	0	2.00	0	8.9440	0	32.2990	0	25.013	0	1.983	0	-1e10	1	-1e10	1	-1E+10	1	0.7957	4	0.000944	0	-1E+10	1	-1E+10	1	-1E+10	1
4902624	26	C	03/08/2025	02:31	-126.751	48.105	0	2.10	0	8.9440	0	32.2990	0	25.013	0	2.082	0	-1e10	1	-1e10	1	-1E+10	1	0.8249	4	0.001015	0	-1E+10	1	-1E+10	1	-1E+10	1
4902624	26	C	03/08/2025	02:31	-126.751	48.105	0	2.40	0	8.9440	0	32.2990	0	25.013	0	2.380	0	-1e10	1	-1e10	1	-1E+10	1	0.8030	4	0.000968	0	-1E+10	1	-1E+10	1	-1E+10	1
4902624	26	C	03/08/2025	02:31	-126.751	48.105	0	2.50	0	8.9440	0	32.2990	0	25.013	0	2.479	0	-1e10	1	-1e10	1	-1E+10	1	-1e10	1	-1e10	1	-1E+10	1	-1E+10	1	-1E+10	1
4902624	26	C	03/08/2025	02:31	-126.751	48.105	0	2.60	0	8.9441	0	32.2990	0	25.013	0	2.578	0	262.9	4	91.8	4	-1E+10	1	0.8395	4	0.000968	0	-1E+10	1	-1E+10	1	-1E+10	1
4902624	26	C	03/08/2025	02:31	-126.751	48.105	0	2.80	0	8.9443	0	32.2990	0	25.013	0	2.776	0	-1e10	1	-1e10	1	-1E+10	1	0.8395	4	0.000944	0	-1E+10	1	-1E+10	1	-1E+10	1
4902624	26	C	03/08/2025	02:31	-126.751	48.105	0	3.10	0	8.9446	0	32.2990	0	25.013	0	3.074	0	-1e10	1	-1e10	1	-1E+10	1	0.8176	4	0.000968	0	-1E+10	1	-1E+10	1	-1E+10	1
4902624	26	C	03/08/2025	02:31	-126.751	48.105	0	3.40	0	8.9449	0	32.2990	0	25.013	0	3.371	0	-1e10	1	-1e10	1	-1E+10	1	0.9125	4	0.001026	0	-1E+10	1	-1E+10	1	-1E+10	1
4902624	26	C	03/08/2025	02:31	-126.751	48.105	0	3.50	0	8.9450	0	32.2990	0	25.013	0	3.471	0	-1e10	1	-1e10	1	-1E+10	1	-1e10	1	-1e10	1	-1E+10	1	-1E+10	1	-1E+10	1
4902624	26	C	03/08/2025	02:31	-126.751	48.105	0	3.60	0	8.9450	0	32.2990	0	25.013	0	3.570	0	263.0	4	91.8	4	-1E+10	1	0.8614	4	0.000944	0	-1E+10	1	-1E+10	1	-1E+10	1
4902624	26	C	03/08/2025	02:31	-126.751	48.105	0	3.80	0	8.9450	0	32.2990	0	25.013	0	3.768	0	-1e10	1	-1e10	1	-1E+10	1	0.8687	4	0.001038	0	-1E+10	1	-1E+10	1	-1E+10	1
4902624	26	C	03/08/2025	02:31	-126.751	48.105	0	3.90	0	8.9450	0	32.2990	0	25.013	0	3.867	0	-1e10	1	-1e10	1	-1E+10	1	0.8322	4	0.000932	0	-1E+10	1	-1E+10	1	-1E+10	1
4902624	26	C	03/08/2025	02:31	-126.751	48.105	0	4.10	0	8.9450	0	32.2990	0	25.013	0	4.066	0	-1e10	1	-1e10	1	-1E+10	1	0.8541	4	0.001026	0	-1E+10	1	-1E+10	1	-1E+10	1
4902624	26	C	03/08/2025	02:31	-126.751	48.105	0	4.20	0	8.9450	0	32.2990	0	25.013	0	4.165	0	-1e10	1	-1e10	1	-1E+10	1	0.8249	4	0.001073	0	-1E+10	1	-1E+10	1	-1E+10	1
4902624	26	C	03/08/2025	02:31	-126.751	48.105	0	4.30	0	8.9450	0	32.2990	0	25.013	0	4.264	0	262.9	4	91.7	4	-1E+10	1	0.8249	4	0.000968	0	-1E+10	1	-1E+10	1	-1E+10	1
4902624	26	C	03/08/2025	02:31	-126.751	48.105	0	4.40	0	8.9450	0	32.2990	0	25.013	0	4.363	0	-1e10	1	-1e10	1	-1E+10	1	-1e10	1	-1e10	1	-1E+10	1	-1E+10	1	-1E+10	1
4902624	26	C	03/08/2025	02:31	-126.751	48.105	0	4.50	0	8.9450	0	32.2990	0	25.013	0	4.462	0	-1e10	1	-1e10	1	-1E+10	1	0.8614	4	0.001284	0	-1E+10	1	-1E+10	1	-1E+10	1
4902624	26	C	03/08/2025	02:31	-126.751	48.105	0	4.80	0	8.9450	0	32.2990	0	25.013	0	4.760	0	-1e10	1	-1e10	1	-1E+10	1	0.8030	4	0.001050	0	-1E+10	1	-1E+10	1	-1E+10	1
4902624	26	C	03/08/2025	02:31	-126.751	48.105	0	5.00	0	8.9450	0	32.2990	0	25.013	0	4.958	0	-1e10	1	-1e10	1	-1E+10	1	0.8395	4	0.001073	0	-1E+10	1	-1E+10	1	-1E+10	1
4902624	26	C	03/08/2025	02:31	-126.751	48.105	0	5.10	0	8.9450	0	32.2990	0	25.013	0	5.057	0	262.6	4	91.7	4	-1E+10	1	0.8176	4	0.001015	0	-1E+10	1	-1E+10	1	-1E+10	1
4902624	26	C	03/08/2025	02:31	-126.751	48.105	0	5.20	0	8.9450	0	32.2990	0	25.013	0	5.156	0	-1e10	1	-1e10	1	-1E+10	1	0.8395	4	0.000921	0	-1E+10	1	-1E+10	1	-1E+10	1
4902624	26	C	03/08/2025	02:31	-126.751	48.105	0	5.40	0	8.9450	0	32.2990	0	25.013	0	5.355	0	-1e10	1	-1e10	1	-1E+10	1	-1e10	1	-1e10	1	-1E+10	1	-1E+10	1	-1E+10	1
4902624	26	C	03/08/2025	02:31	-126.751	48.105	0	5.50	0	8.9450	0	32.2990	0	25.013	0	5.454	0	-1e10	1	-1e10	1	-1E+10	1	0.8468	4	0.000885	0	-1E+10	1	-1E+10	1	-1E+10	1
4902624	26	C	03/08/2025	02:31	-126.751	48.105	0	5.60	0	8.9450	0	32.2990	0	25.013	0	5.553	0	-1e10	1	-1e10	1	-1E+10	1	0.8322	4	0.000956	0	-1E+10	1	-1E+10	1	-1E+10	1
4902624	26	C	03/08/2025	02:31	-126.751	48.105	0	5.90	0	8.9450	0	32.2990	0	25.013	0	5.850	0	262.6	4	91.6	4	-1E+10	1	0.8663	4	0.000925	0	-1E+10	1	-1E+10	1	-1E+10	1
4902624	26	C	03/08/2025	02:31	-126.751	48.105	0	6.10	0	8.9450	0	32.2990	0	25.013	0	6.049	0	-1e10	1	-1e10	1	-1E+10	1	0.8322	4	0.000932	0	-1E+10	1	-1E+10	1	-1E+10	1
4902624	26	C	03/08/2025	02:31	-126.751	48.105	0	6.30	0	8.9450	0	32.2990	0	25.013	0	6.247	0	-1e10	1	-1e10	1	-1E+10	1	0.8687	4	0.000944	0	-1E+10	1	-1E+10	1	-1E+10	1
4902624	26	C	03/08/2025	02:31	-126.751	48.105	0	6.40	0	8.9450	0	32.2990	0	25.013	0	6.346	0	-1e10	1	-1e10	1	-1E+10	1	0.8322	4	0.000968	0	-1E+10	1	-1E+10	1	-1E+10	1
4902624	26	C	03/08/2025	02:31	-126.751	48.105	0	6.50	0	8.9450	0	32.2990	0	25.013	0	6.445	0	-1e10	1	-1e10	1	-1E+10	1	-1e10	1	-1e10	1	-1E+10	1	-1E+10	1	-1E+10	1
4902624	26	C	03/08/2025	02:31	-126.751	48.105	0	6.60	0	8.9450	0	32.2990	0	25.013	0	6.544	0	-1e10	1	-1e10	1	-1E+10	1	0.8541	4	0.000956	0	-1E+10	1	-1E+10	1	-1E+10	1
4902624	26	C	03/08/2025	02:31	-126.751	48.105	0	6.80	0	8.9450	0	32.2990	0	25.013	0	6.743	0	262.6	4	91.7	4	-1E+10	1	0.8176	4	0.000944	0	-1E+10	1	-1E+10	1	-1E+10	1
4902624	26	C	03/08/2025	02:31	-126.751	48.105	0	7.10	0	8.9450	0	32.2990	0	25.013	0	7.040	0	-1e10	1	-1e10	1	-1E+10	1	0.8541	4	0.000956	0	-1E+10	1	-1E+10	1	-1E+10	1
4902624	26	C	03/08/2025	02:31	-126.751	48.105	0	7.20	0	8.9450	0	32.2990	0	25.013	0	7.139	0	-1e10	1	-1e10	1	-1E+10	1	0.8030	4	0.000979	0	-1E+10	1	-1E+10	1	-1E+10	1
4902624	26	C	03/08/2025	02:31	-126.751	48.105	0	7.50	0	8.9450	0	32.2990	0	25.013	0	7.437	0	-1e10	1	-1e10	1	-1E+10	1	0.8249	4	0.001050	0	-1E+10	1	-1E+10	1	-1E+10	1
4902624	26	C	03/08/2025	02:31	-126.751	48.105	0	7.90	0	8.9450	0	32.2990	0	25.013	0	7.833	0	262.4	4	91.6	4	-1E+10	1	0.8176	4	0.000944	0	-1E+10	1	-1E+10	1	-1E+10	1
4902624	26	C	03/08/2025	02:31	-126.751	48.105	0	8.10	0	8.9450	0	32.2990	0	25.013	0	8.032	0	-1e10	1	-1e10	1	-1E+10	1	0.8395	4	0.000921	0	-1E+10	1	-1E+10	1	-1E+10	1
4902624	26	C	03/08/2025	02:31	-126.751	48.105	0	8.40	0	8.9450	0	32.2990	0	25.013	0	8.329	0	-1e10	1	-1e10	1	-1E+10	1	0.8249	4	0.000932	0	-1E+10	1	-1E+10	1	-1E+10	1
4902624	26	C	03/08/2025	02:31	-126.751	48.105	0	8.50	0	8.9450	0	32.2990	0	25.013	0	8.428	0	-1e10	1	-1e10	1	-1E+10	1	-1e10	1	-1e10	1	-1E+10	1	-1E+10	1	-1E+10	1
4902624	26	C	03/08/2025	02:31	-126.751	48.105	0	8.60	0	8.9450	0	32.2990	0	25.013	0	8.528	0	-1e10	1	-1e10	1	-1E+10	1	0.8322	4	0.000932	0	-1E+10	1	-1E+10	1	-1E+10	1
4902624	26	C	03/08/2025	02:31	-126.751	48.105	0	8.80	0	8.9450	0	32.2990	0	25.013	0	8.726	0	-1e10	1	-1e10	1	-1E+10	1	0.8103	4	0.000944	0	-1E+10	1	-1E+10	1	-1E+10	1
4902624	26	C	03/08/2025	02:31	-126.751	48.105	0	9.10	0	8.9450	0	32.2990	0	25.013	0	9.023	0	262.3	4	91.5	4	-1E+10	1	0.9052	4	0.000909	0	-1E+10	1	-1E+10	1	-1E+10	1
4902624	26	C	03/08/2025	02:31	-126.751	48.105	0	9.30	0	8.9450	0	32.2990	0	25.013	0	9.222	0	-1e10	1	-1e10	1	-1E+10	1	0.8395	4	0.000944	0	-1E+10	1	-1E+10	1	-1E+10	1
4902624	26	C	03/08/2025	02:31	-126.751	48.105	0	9.40	0	8.9450	0	32.2990	0	25.013	0	9.321	0	-1e10	1	-1e10	1	-1E+10	1	-1e10	1	-1e10	1	-1E+10	1	-1E+10	1	-1E+10	1
4902624	26	C	03/08/2025	02:31	-126.751	48.105	0	9.80	0	8.9450	0	32.2990	0	25.013	0	9.717	0	-1e10	1	-1e10	1	-1E+10	1	0.8249	4	0.000944	0	-1E+10	1	-1E+10	1	-1E+10	1
4902624	26	C	03/08/2025	02:31	-126.751	48.105	0	10.20	0	8.9450	0	32.2990	0	25.013	0	10.114	0	262.3	4	91.5	4	-1E+10	1	0.8541	4	0.000979	0	-1E+10	1	-1E+10	1	-1E+10	1
4902624	26	C	03/08/2025	02:31	-126.751	48.105	0	11.00	0	8.9450	0	32.2990	0	25.013	0	10.907	0	-1e10	1	-1e10	1	-1E+10	1	-1e10	1	-1e10	1	-1E+10	1	-1E+10	1	-1E+10	1
4902624	26	C	03/08/2025	02:31	-126.751	48.105	0	11.30	0	8.9450	0	32.2990	0	25.013	0	11.205	0	262.1	4	91.5	4	-1E+10	1	0.8176	4	0.000991	0	-1E+10	1	-1E+10	1	-1E+10	1
4902624	26	C	03/08/2025	02:31	-126.751	48.105	0	12.40	0	8.9450	0	32.2990	0	25.013	0	12.295	0	262.0	4	91.5	4	-1E+10	1	0.8030	4	0.000921	0	-1E+10	1	-1E+10	1	-1E+10	1
4902624	26	C	03/08/2025	02:31	-126.751	48.105	0	13.00	0	8.9450	0	32.2990	0	25.013	0	12.890	0	-1e10	1	-1e10	1	-1E+10	1	-1e10	1	-1e10	1	-1E+10	1	-1E+10	1	-1E+10	1
4902624	26	C	03/08/2025	02:31	-126.751	48.105	0	13.50	0	8.9450	0	32.2990	0	25.013	0	13.386	0	261.9	4	91.4	4	-1E+10	1	0.8030	4	0.000980	0	-1E+10	1	-1E+10	1	-1E+10	1
4902624	26	C	03/08/2025	02:31	-126.751	48.105	0	14.60	0	8.9450	0	32.2990	0	25.013	0	14.477	0	261.8	4	91.4	4	-1E+10	1	0.8627	4	0.000953	0	-1E+10	1	-1E+10	1	-1E+10	1
4902624	26	C	03/08/2025	02:31	-126.751	48.105	0	15.00	0	8.9450	0	32.2990	0	25.013	0	14.873	0	-1e10	1	-1e10	1	-1E+10	1	-1e10	1	-1e10	1	-1E+10	1	-1E+10	1	-1E+10	1
4902624	26	C	03/08/2025	02:31	-126.751	48.105	0	15.70	0	8.9450	0	32.2990	0	25.013	0	15.568	0	261.9	4	91.4	4	-1E+10	1	0.8406	4	0.000952	0	-1E+10	1	-1E+10	1	-1E+10	1
4902624	26	C	03/08/2025	02:31	-126.751	48.105	0	16.70	0	8.9450	0	32.2990	0	25.013	0	16.559	0	261.7	4	91.3	4	-1E+10	1	0.8451	4	0.000918	0	-1E+10	1	-1E+10	1	-1E+10	1
4902624	26	C	03/08/2025	02:31	-126.751	48.105	0	17.10	0	8.9450	0	32.2990	0	25.013	0	16.956	0	-1e10	1	-1e10	1	-1E+10	1	-1e10	1	-1e10	1	-1E+10	1	-1E+10	1	-1E+10	1
4902624	26	C	03/08/2025	02:31	-126.751	48.105	0	17.80	0	8.9454	0	32.2990	0	25.013	0	17.650	0	261.8	4	91.4	4	-1E+10	1	0.8687	4	0.000944	0	-1E+10	1	-1E+10	1	-1E+10	1
4902624	26	C	03/08/2025	02:31	-126.751	48.105	0	18.90	0	8.9459	0	32.2990	0	25.013	0	18.740	0	261.6	4	91.3	4	-1E+10	1	0.8557	4	0.001020	0	-1E+10	1	-1E+10	1	-1E+10	1
4902624	26	C	03/08/2025	02:31	-126.751	48.105	0	19.00	0	8.9460	0	32.2990	0	25.013	0	18.840	0	-1e10	1	-1e10	1	-1E+10	1	-1e10	1	-1e10	1	-1E+10	1	-1E+10	1	-1E+10	1
4902624	26	C	03/08/2025	02:31	-126.751	48.105	0	20.00	0	8.9460	0	32.2990	0	25.013	0	19.831	0	261.5	4	91.3	4	-1E+10	1	0.8332	4	0.000971	0	-1E+10	1	-1E+10	1	-1E+10	1
4902624	26	C	03/08/2025	02:31	-126.751	48.105	0	21.00	0	8.9460	0	32.2990	0	25.013	0	20.823	0	-1e10	1	-1e10	1	-1E+10	1	-1e10	1	-1e10	1	-1E+10	1	-1E+10	1	-1E+10	1
4902624	26	C	03/08/2025	02:31	-126.751	48.105	0	21.20	0	8.9461	0	32.2990	0	25.013	0	21.021	0	261.4	4	91.2	4	-1E+10	1	0.8395	4	0.000991	0	-1E+10	1	-1E+10	1	-1E+10	1
4902624	26	C	03/08/2025	02:31	-126.751	48.105	0	22.30	0	8.9466	0	32.2990	0	25.013	0	22.111	0	261.3	4	91.2	4	-1E+10	1	0.9052	4	0.001050	0	-1E+10	1	-1E+10	1	-1E+10	1
4902624	26	C	03/08/2025	02:31	-126.751	48.105	0	23.10	0	8.9470	0	32.2990	0	25.013	0	22.905	0	-1e10	1	-1e10	1	-1E+10	1	-1e10	1	-1e10	1	-1E+10	1	-1E+10	1	-1E+10	1
4902624	26	C	03/08/2025	02:31	-126.751	48.105	0	23.40	0	8.9468	0	32.2990	0	25.013	0	23.202	0	261.2	4	91.2	4	-1E+10	1	0.8434	4	0.001030	0	-1E+10	1	-1E+10	1	-1E+10	1
4902624	26	C	03/08/2025	02:31	-126.751	48.105	0	24.30	0	8.9463	0	32.2990	0	25.013	0	24.094	0	261.1	4	91.1	4	-1E+10	1	0.8368	4	0.000959	0	-1E+10	1	-1E+10	1	-1E+10	1
4902624	26	C	03/08/2025	02:31	-126.751	48.105	0	24.90	0	8.9460	0	32.2990	0	25.013	0	24.689	0	-1e10	1	-1e10	1	-1E+10	1	-1e10	1	-1e10	1	-1E+10	1	-1E+10	1	-1E+10	1
4902624	26	C	03/08/2025	02:31	-126.751	48.105	0	25.30	0	8.9460	0	32.2990	0	25.013	0	25.086	0	261.0	4	91.1	4	-1E+10	1	0.8882	4	0.000928	0	-1E+10	1	-1E+10	1	-1E+10	1
4902624	26	C	03/08/2025	02:31	-126.751	48.105	0	26.00	0	8.9460	0	32.2990	0	25.013	0	25.780	0	260.8	4	91.0	4	-1E+10	1	0.8768	4	0.000958	0	-1E+10	1	-1E+10	1	-1E+10	1
4902624	26	C	03/08/2025	02:31	-126.751	48.105	0	26.70	0	8.9460	0	32.2990	0	25.013	0	26.474	0	260.6	4	91.0	4	-1E+10	1	0.8340	4	0.001020	0	-1E+10	1	-1E+10	1	-1E+10	1
4902624	26	C	03/08/2025	02:31	-126.751	48.105	0	27.00	0	8.9460	0	32.2990	0	25.013	0	26.771	0	-1e10	1	-1e10	1	-1E+10	1	-1e10	1	-1e10	1	-1E+10	1	-1E+10	1	-1E+10	1
4902624	26	C	03/08/2025	02:31	-126.751	48.105	0	27.40	0	8.9460	0	32.2990	0	25.013	0	27.168	0	260.4	4	90.9	4	-1E+10	1	0.8483	4	0.001068	0	-1E+10	1	-1E+10	1	-1E+10	1
4902624	26	C	03/08/2025	02:31	-126.751	48.105	0	28.00	0	8.9460	0	32.2990	0	25.013	0	27.763	0	260.3	4	90.9	4	-1E+10	1	0.8896	4	0.000915	0	-1E+10	1	-1E+10	1	-1E+10	1
4902624	26	C	03/08/2025	02:31	-126.751	48.105	0	28.50	0	8.9460	0	32.2990	0	25.013	0	28.259	0	260.2	4	90.8	4	-1E+10	1	0.9052	4	0.000932	0	-1E+10	1	-1E+10	1	-1E+10	1
4902624	26	C	03/08/2025	02:31	-126.751	48.105	0	28.90	0	8.9460	0	32.2990	0	25.013	0	28.655	0	-1e10	1	-1e10	1	-1E+10	1	-1e10	1	-1e10	1	-1E+10	1	-1E+10	1	-1E+10	1
4902624	26	C	03/08/2025	02:31	-126.751	48.105	0	29.20	0	8.9460	0	32.2990	0	25.013	0	28.953	0	260.1	4	90.8	4	-1E+10	1	0.8988	4	0.000953	0	-1E+10	1	-1E+10	1	-1E+10	1
4902624	26	C	03/08/2025	02:31	-126.751	48.105	0	29.80	0	8.9460	0	32.2990	0	25.013	0	29.548	0	260.1	4	90.8	4	-1E+10	1	0.8614	4	0.000936	0	-1E+10	1	-1E+10	1	-1E+10	1
4902624	26	C	03/08/2025	02:31	-126.751	48.105	0	30.50	0	8.9460	0	32.2990	0	25.013	0	30.242	0	259.9	4	90.7	4	-1E+10	1	0.8346	4	0.000924	0	-1E+10	1	-1E+10	1	-1E+10	1
4902624	26	C	03/08/2025	02:31	-126.751	48.105	0	30.90	0	8.9460	0	32.2990	0	25.013	0	30.638	0	-1e10	1	-1e10	1	-1E+10	1	-1e10	1	-1e10	1	-1E+10	1	-1E+10	1	-1E+10	1
4902624	26	C	03/08/2025	02:31	-126.751	48.105	0	31.20	0	8.9456	0	32.2990	0	25.013	0	30.936	0	259.7	4	90.6	4	-1E+10	1	0.8541	4	0.000936	0	-1E+10	1	-1E+10	1	-1E+10	1
4902624	26	C	03/08/2025	02:31	-126.751	48.105	0	32.10	0	8.9443	0	32.2990	0	25.013	0	31.828	0	259.7	4	90.6	4	-1E+10	1	0.8744	4	0.000935	0	-1E+10	1	-1E+10	1	-1E+10	1
4902624	26	C	03/08/2025	02:31	-126.751	48.105	0	32.90	0	8.9431	0	32.2990	0	25.013	0	32.621	0	259.5	4	90.6	4	-1E+10	1	0.9019	4	0.000915	0	-1E+10	1	-1E+10	1	-1E+10	1
4902624	26	C	03/08/2025	02:31	-126.751	48.105	0	33.00	0	8.9430	0	32.2990	0	25.013	0	32.720	0	-1e10	1	-1e10	1	-1E+10	1	-1e10	1	-1e10	1	-1E+10	1	-1E+10	1	-1E+10	1
4902624	26	C	03/08/2025	02:31	-126.751	48.105	0	33.90	0	8.9416	0	32.2990	0	25.014	0	33.612	0	259.2	4	90.5	4	-1E+10	1	1.0041	4	0.000962	0	-1E+10	1	-1E+10	1	-1E+10	1
4902624	26	C	03/08/2025	02:31	-126.751	48.105	0	34.80	0	8.9402	0	32.2990	0	25.014	0	34.505	0	259.1	4	90.4	4	-1E+10	1	0.8906	4	0.001096	0	-1E+10	1	-1E+10	1	-1E+10	1
4902624	26	C	03/08/2025	02:31	-126.751	48.105	0	34.90	0	8.9400	0	32.2990	0	25.014	0	34.604	0	-1e10	1	-1e10	1	-1E+10	1	-1e10	1	-1e10	1	-1E+10	1	-1E+10	1	-1E+10	1
4902624	26	C	03/08/2025	02:31	-126.751	48.105	0	35.70	0	8.9400	0	32.2990	0	25.014	0	35.397	0	258.9	4	90.3	4	-1E+10	1	0.8760	4	0.000897	0	-1E+10	1	-1E+10	1	-1E+10	1
4902624	26	C	03/08/2025	02:31	-126.751	48.105	0	36.60	0	8.9400	0	32.2990	0	25.014	0	36.289	0	258.6	4	90.2	4	-1E+10	1	0.8760	4	0.000859	0	-1E+10	1	-1E+10	1	-1E+10	1
4902624	26	C	03/08/2025	02:31	-126.751	48.105	0	36.90	0	8.9400	0	32.2990	0	25.014	0	36.587	0	-1e10	1	-1e10	1	-1E+10	1	-1e10	1	-1e10	1	-1E+10	1	-1E+10	1	-1E+10	1
4902624	26	C	03/08/2025	02:31	-126.751	48.105	0	37.60	0	8.9403	0	32.2990	0	25.014	0	37.281	0	258.4	4	90.2	4	-1E+10	1	0.8663	4	0.000874	0	-1E+10	1	-1E+10	1	-1E+10	1
4902624	26	C	03/08/2025	02:31	-126.751	48.105	0	38.60	0	8.9409	0	32.2990	0	25.014	0	38.272	0	258.1	4	90.1	4	-1E+10	1	0.8614	4	0.000864	0	-1E+10	1	-1E+10	1	-1E+10	1
4902624	26	C	03/08/2025	02:31	-126.751	48.105	0	38.90	0	8.9410	0	32.2990	0	25.014	0	38.570	0	-1e10	1	-1e10	1	-1E+10	1	-1e10	1	-1e10	1	-1E+10	1	-1E+10	1	-1E+10	1
4902624	26	C	03/08/2025	02:31	-126.751	48.105	0	39.70	0	8.9414	0	32.2986	0	25.013	0	39.363	0	257.9	4	90.0	4	-1E+10	1	0.8928	4	0.000875	0	-1E+10	1	-1E+10	1	-1E+10	1
4902624	26	C	03/08/2025	02:31	-126.751	48.105	0	40.70	0	8.9419	0	32.2981	0	25.013	0	40.354	0	257.6	4	89.9	4	-1E+10	1	0.9153	4	0.000897	0	-1E+10	1	-1E+10	1	-1E+10	1
4902624	26	C	03/08/2025	02:31	-126.751	48.105	0	41.00	0	8.9420	0	32.2980	0	25.013	0	40.652	0	-1e10	1	-1e10	1	-1E+10	1	-1e10	1	-1e10	1	-1E+10	1	-1E+10	1	-1E+10	1
4902624	26	C	03/08/2025	02:31	-126.751	48.105	0	41.80	0	8.9428	0	32.2980	0	25.013	0	41.445	0	257.1	4	89.7	4	-1E+10	1	0.9067	4	0.000899	0	-1E+10	1	-1E+10	1	-1E+10	1
4902624	26	C	03/08/2025	02:31	-126.751	48.105	0	42.80	0	8.9437	0	32.2980	0	25.013	0	42.436	0	256.8	4	89.6	4	-1E+10	1	0.9019	4	0.000911	0	-1E+10	1	-1E+10	1	-1E+10	1
4902624	26	C	03/08/2025	02:31	-126.751	48.105	0	43.10	0	8.9440	0	32.2980	0	25.013	0	42.733	0	-1e10	1	-1e10	1	-1E+10	1	-1e10	1	-1e10	1	-1E+10	1	-1E+10	1	-1E+10	1
4902624	26	C	03/08/2025	02:31	-126.751	48.105	0	43.90	0	8.9432	0	32.2984	0	25.013	0	43.527	0	256.3	4	89.4	4	-1E+10	1	0.8687	4	0.000918	0	-1E+10	1	-1E+10	1	-1E+10	1
4902624	26	C	03/08/2025	02:31	-126.751	48.105	0	44.90	0	8.9422	0	32.2989	0	25.014	0	44.518	0	255.8	4	89.3	4	-1E+10	1	0.9417	4	0.000909	0	-1E+10	1	-1E+10	1	-1E+10	1
4902624	26	C	03/08/2025	02:31	-126.751	48.105	0	45.10	0	8.9420	0	32.2990	0	25.014	0	44.716	0	-1e10	1	-1e10	1	-1E+10	1	-1e10	1	-1e10	1	-1E+10	1	-1E+10	1	-1E+10	1
4902624	26	C	03/08/2025	02:31	-126.751	48.105	0	45.90	0	8.9424	0	32.2986	0	25.013	0	45.509	0	255.1	4	89.0	4	-1E+10	1	0.8614	4	0.000920	0	-1E+10	1	-1E+10	1	-1E+10	1
4902624	26	C	03/08/2025	02:31	-126.751	48.105	0	47.00	0	8.9430	0	32.2980	0	25.013	0	46.600	0	254.5	4	88.8	4	-1E+10	1	0.8861	4	0.000881	0	-1E+10	1	-1E+10	1	-1E+10	1
4902624	26	C	03/08/2025	02:31	-126.751	48.105	0	47.10	0	8.9430	0	32.2980	0	25.013	0	46.699	0	-1e10	1	-1e10	1	-1E+10	1	-1e10	1	-1e10	1	-1E+10	1	-1E+10	1	-1E+10	1
4902624	26	C	03/08/2025	02:31	-126.751	48.105	0	48.00	0	8.9349	0	32.2976	0	25.014	0	47.591	0	253.7	4	88.5	4	-1E+10	1	0.8760	4	0.000858	0	-1E+10	1	-1E+10	1	-1E+10	1
4902624	26	C	03/08/2025	02:31	-126.751	48.105	0	49.00	0	8.9259	0	32.2971	0	25.015	0	48.583	0	252.9	4	88.2	4	-1E+10	1	0.8492	4	0.000873	0	-1E+10	1	-1E+10	1	-1E+10	1
4902624	26	C	03/08/2025	02:31	-126.751	48.105	0	49.10	0	8.9250	0	32.2970	0	25.015	0	48.682	0	-1e10	1	-1e10	1	-1E+10	1	-1e10	1	-1e10	1	-1E+10	1	-1E+10	1	-1E+10	1
4902624	26	C	03/08/2025	02:31	-126.751	48.105	0	49.90	0	8.9204	0	32.2970	0	25.016	0	49.475	0	252.1	4	87.9	4	-1E+10	1	0.8285	4	0.000868	0	-1E+10	1	-1E+10	1	-1E+10	1
4902624	26	C	03/08/2025	02:31	-126.751	48.105	0	50.90	0	8.9146	0	32.2970	0	25.016	0	50.466	0	251.1	4	87.6	4	-1E+10	1	0.8176	4	0.000870	0	-1E+10	1	-1E+10	1	-1E+10	1
4902624	26	C	03/08/2025	02:31	-126.751	48.105	0	51.00	0	8.9140	0	32.2970	0	25.017	0	50.565	0	-1e10	1	-1e10	1	-1E+10	1	-1e10	1	-1e10	1	-1E+10	1	-1E+10	1	-1E+10	1
4902624	26	C	03/08/2025	02:31	-126.751	48.105	0	51.80	0	8.9128	0	32.2966	0	25.016	0	51.358	0	250.1	4	87.2	4	-1E+10	1	0.8184	4	0.000902	0	-1E+10	1	-1E+10	1	-1E+10	1
4902624	26	C	03/08/2025	02:31	-126.751	48.105	0	52.80	0	8.9113	0	32.2961	0	25.016	0	52.350	0	249.0	4	86.9	4	-1E+10	1	0.8222	4	0.000844	0	-1E+10	1	-1E+10	1	-1E+10	1
4902624	26	C	03/08/2025	02:31	-126.751	48.105	0	53.00	0	8.9110	0	32.2960	0	25.016	0	52.548	0	-1e10	1	-1e10	1	-1E+10	1	-1e10	1	-1e10	1	-1E+10	1	-1E+10	1	-1E+10	1
4902624	26	C	03/08/2025	02:31	-126.751	48.105	0	53.70	0	8.9096	0	32.2957	0	25.016	0	53.242	0	247.6	4	86.4	4	-1E+10	1	0.8103	4	0.000815	0	-1E+10	1	-1E+10	1	-1E+10	1
4902624	26	C	03/08/2025	02:31	-126.751	48.105	0	54.70	0	8.9076	0	32.2951	0	25.016	0	54.233	0	246.2	4	85.9	4	-1E+10	1	0.8225	4	0.000864	0	-1E+10	1	-1E+10	1	-1E+10	1
4902624	26	C	03/08/2025	02:31	-126.751	48.105	0	55.00	0	8.9070	0	32.2950	0	25.016	0	54.531	0	-1e10	1	-1e10	1	-1E+10	1	-1e10	1	-1e10	1	-1E+10	1	-1E+10	1	-1E+10	1
4902624	26	C	03/08/2025	02:31	-126.751	48.105	0	55.70	0	8.9056	0	32.2950	0	25.016	0	55.225	0	244.6	4	85.3	4	-1E+10	1	0.8074	4	0.000873	0	-1E+10	1	-1E+10	1	-1E+10	1
4902624	26	C	03/08/2025	02:31	-126.751	48.105	0	56.60	0	8.9038	0	32.2950	0	25.017	0	56.117	0	242.8	4	84.6	4	-1E+10	1	0.7751	4	0.000836	0	-1E+10	1	-1E+10	1	-1E+10	1
4902624	26	C	03/08/2025	02:31	-126.751	48.105	0	57.00	0	8.9030	0	32.2950	0	25.017	0	56.513	0	-1e10	1	-1e10	1	-1E+10	1	-1e10	1	-1e10	1	-1E+10	1	-1E+10	1	-1E+10	1
4902624	26	C	03/08/2025	02:31	-126.751	48.105	0	57.60	0	8.9003	0	32.2950	0	25.017	0	57.108	0	240.7	4	83.9	4	-1E+10	1	0.7483	4	0.000809	0	-1E+10	1	-1E+10	1	-1E+10	1
4902624	26	C	03/08/2025	02:31	-126.751	48.105	0	58.60	0	8.8958	0	32.2950	0	25.018	0	58.099	0	238.2	4	83.1	4	-1E+10	1	0.7341	4	0.000798	0	-1E+10	1	-1E+10	1	-1E+10	1
4902624	26	C	03/08/2025	02:31	-126.751	48.105	0	59.00	0	8.8940	0	32.2950	0	25.018	0	58.496	0	-1e10	1	-1e10	1	-1E+10	1	-1e10	1	-1e10	1	-1E+10	1	-1E+10	1	-1E+10	1
4902624	26	C	03/08/2025	02:31	-126.751	48.105	0	59.50	0	8.8914	0	32.2948	0	25.018	0	58.992	0	235.5	4	82.1	4	-1E+10	1	0.7276	4	0.000791	0	-1E+10	1	-1E+10	1	-1E+10	1
4902624	26	C	03/08/2025	02:31	-126.751	48.105	0	60.50	0	8.8861	0	32.2943	0	25.019	0	59.983	0	232.2	4	80.9	4	-1E+10	1	0.7068	4	0.000778	0	-1E+10	1	-1E+10	1	-1E+10	1
4902624	26	C	03/08/2025	02:31	-126.751	48.105	0	61.10	0	8.8830	0	32.2940	0	25.019	0	60.578	0	-1e10	1	-1e10	1	-1E+10	1	-1e10	1	-1e10	1	-1E+10	1	-1E+10	1	-1E+10	1
4902624	26	C	03/08/2025	02:31	-126.751	48.105	0	61.40	0	8.8788	0	32.2941	0	25.020	0	60.875	0	228.5	4	79.6	4	-1E+10	1	0.6351	4	0.000721	0	-1E+10	1	-1E+10	1	-1E+10	1
4902624	26	C	03/08/2025	02:31	-126.751	48.105	0	62.40	0	8.8648	0	32.2946	0	25.022	0	61.866	0	224.6	4	78.3	4	-1E+10	1	0.5621	4	0.000709	0	-1E+10	1	-1E+10	1	-1E+10	1
4902624	26	C	03/08/2025	02:31	-126.751	48.105	0	63.10	0	8.8550	0	32.2950	0	25.024	0	62.560	0	-1e10	1	-1e10	1	-1E+10	1	-1e10	1	-1e10	1	-1E+10	1	-1E+10	1	-1E+10	1
4902624	26	C	03/08/2025	02:31	-126.751	48.105	0	63.30	0	8.8505	0	32.2972	0	25.027	0	62.759	0	220.5	4	76.8	4	-1E+10	1	0.5263	4	0.000661	0	-1E+10	1	-1E+10	1	-1E+10	1
4902624	26	C	03/08/2025	02:31	-126.751	48.105	0	64.10	0	8.8325	0	32.3060	0	25.036	0	63.552	0	215.6	4	75.1	4	-1E+10	1	0.4263	4	0.000615	0	-1E+10	1	-1E+10	1	-1E+10	1
4902624	26	C	03/08/2025	02:31	-126.751	48.105	0	65.00	0	8.8123	0	32.3159	0	25.047	0	64.444	0	210.0	4	73.1	4	-1E+10	1	0.3528	4	0.000572	0	-1E+10	1	-1E+10	1	-1E+10	1
4902624	26	C	03/08/2025	02:31	-126.751	48.105	0	65.10	0	8.8100	0	32.3170	0	25.048	0	64.543	0	-1e10	1	-1e10	1	-1E+10	1	-1e10	1	-1e10	1	-1E+10	1	-1E+10	1	-1E+10	1
4902624	26	C	03/08/2025	02:31	-126.751	48.105	0	65.90	0	8.7868	0	32.3530	0	25.080	0	65.336	0	204.3	4	71.1	4	-1E+10	1	0.3099	4	0.000541	0	-1E+10	1	-1E+10	1	-1E+10	1
4902624	26	C	03/08/2025	02:31	-126.751	48.105	0	66.90	0	8.7578	0	32.3980	0	25.120	0	66.327	0	198.5	4	69.0	4	-1E+10	1	0.2621	4	0.000517	0	-1E+10	1	-1E+10	1	-1E+10	1
4902624	26	C	03/08/2025	02:31	-126.751	48.105	0	67.10	0	8.7520	0	32.4070	0	25.128	0	66.525	0	-1e10	1	-1e10	1	-1E+10	1	-1e10	1	-1e10	1	-1E+10	1	-1E+10	1	-1E+10	1
4902624	26	C	03/08/2025	02:31	-126.751	48.105	0	67.80	0	8.7118	0	32.4895	0	25.198	0	67.219	0	192.4	4	66.9	4	-1E+10	1	0.2380	4	0.000496	0	-1E+10	1	-1E+10	1	-1E+10	1
4902624	26	C	03/08/2025	02:31	-126.751	48.105	0	68.80	0	8.6545	0	32.6074	0	25.300	0	68.211	0	188.7	4	65.6	4	-1E+10	1	0.1986	4	0.000442	0	-1E+10	1	-1E+10	1	-1E+10	1
4902624	26	C	03/08/2025	02:31	-126.751	48.105	0	69.00	0	8.6430	0	32.6310	0	25.320	0	68.409	0	-1e10	1	-1e10	1	-1E+10	1	-1e10	1	-1e10	1	-1E+10	1	-1E+10	1	-1E+10	1
4902624	26	C	03/08/2025	02:31	-126.751	48.105	0	69.60	0	8.6214	0	32.6700	0	25.354	0	69.004	0	185.3	4	64.4	4	-1E+10	1	0.2044	4	0.000451	0	-1E+10	1	-1E+10	1	-1E+10	1
4902624	26	C	03/08/2025	02:31	-126.751	48.105	0	70.30	0	8.5962	0	32.7155	0	25.393	0	69.698	0	181.1	4	62.9	4	-1E+10	1	0.2044	4	0.000451	0	-1E+10	1	-1E+10	1	-1E+10	1
4902624	26	C	03/08/2025	02:31	-126.751	48.105	0	70.80	0	8.5782	0	32.7480	0	25.421	0	70.193	0	178.3	4	61.9	4	-1E+10	1	0.1922	4	0.000470	0	-1E+10	1	-1E+10	1	-1E+10	1
4902624	26	C	03/08/2025	02:31	-126.751	48.105	0	71.00	0	8.5710	0	32.7610	0	25.433	0	70.391	0	-1e10	1	-1e10	1	-1E+10	1	-1e10	1	-1e10	1	-1E+10	1	-1E+10	1	-1E+10	1
4902624	26	C	03/08/2025	02:31	-126.751	48.105	0	71.30	0	8.5576	0	32.7820	0	25.451	0	70.689	0	174.9	4	60.7	4	-1E+10	1	0.1849	4	0.000467	0	-1E+10	1	-1E+10	1	-1E+10	1
4902624	26	C	03/08/2025	02:31	-126.751	48.105	0	71.90	0	8.5307	0	32.8240	0	25.488	0	71.284	0	171.6	4	59.6	4	-1E+10	1	0.1861	4	0.000469	0	-1E+10	1	-1E+10	1	-1E+10	1
4902624	26	C	03/08/2025	02:31	-126.751	48.105	0	72.60	0	8.4994	0	32.8730	0	25.531	0	71.977	0	168.7	4	58.5	4	-1E+10	1	0.2117	4	0.000444	0	-1E+10	1	-1E+10	1	-1E+10	1
4902624	26	C	03/08/2025	02:31	-126.751	48.105	0	72.90	0	8.4860	0	32.8940	0	25.550	0	72.275	0	-1e10	1	-1e10	1	-1E+10	1	-1e10	1	-1e10	1	-1E+10	1	-1E+10	1	-1E+10	1
4902624	26	C	03/08/2025	02:31	-126.751	48.105	0	73.30	0	8.4487	0	32.9323	0	25.585	0	72.671	0	166.2	4	57.7	4	-1E+10	1	0.2068	4	0.000392	0	-1E+10	1	-1E+10	1	-1E+10	1
4902624	26	C	03/08/2025	02:31	-126.751	48.105	0	74.10	0	8.3740	0	33.0089	0	25.656	0	73.464	0	164.8	4	57.1	4	-1E+10	1	0.1387	4	0.000371	0	-1E+10	1	-1E+10	1	-1E+10	1
4902624	26	C	03/08/2025	02:31	-126.751	48.105	0	74.90	0	8.2993	0	33.0854	0	25.728	0	74.257	0	163.2	4	56.5	4	-1E+10	1	0.1387	4	0.000381	0	-1E+10	1	-1E+10	1	-1E+10	1
4902624	26	C	03/08/2025	02:31	-126.751	48.105	0	75.00	0	8.2900	0	33.0950	0	25.737	0	74.356	0	-1e10	1	-1e10	1	-1E+10	1	-1e10	1	-1e10	1	-1E+10	1	-1E+10	1	-1E+10	1
4902624	26	C	03/08/2025	02:31	-126.751	48.105	0	75.80	0	8.2690	0	33.1137	0	25.754	0	75.149	0	162.1	4	56.0	4	-1E+10	1	0.1241	4	0.000404	0	-1E+10	1	-1E+10	1	-1E+10	1
4902624	26	C	03/08/2025	02:31	-126.751	48.105	0	76.60	0	8.2481	0	33.1323	0	25.772	0	75.942	0	161.1	4	55.7	4	-1E+10	1	0.1475	4	0.000385	0	-1E+10	1	-1E+10	1	-1E+10	1
4902624	26	C	03/08/2025	02:31	-126.751	48.105	0	77.10	0	8.2350	0	33.1440	0	25.783	0	76.438	0	-1e10	1	-1e10	1	-1E+10	1	-1e10	1	-1e10	1	-1E+10	1	-1E+10	1	-1E+10	1
4902624	26	C	03/08/2025	02:31	-126.751	48.105	0	77.50	0	8.2312	0	33.1469	0	25.786	0	76.834	0	160.1	4	55.3	4	-1E+10	1	0.1329	4	0.000422	0	-1E+10	1	-1E+10	1	-1E+10	1
4902624	26	C	03/08/2025	02:31	-126.751	48.105	0	78.30	0	8.2236	0	33.1528	0	25.792	0	77.627	0	158.9	4	54.9	4	-1E+10	1	0.1332	4	0.000395	0	-1E+10	1	-1E+10	1	-1E+10	1
4902624	26	C	03/08/2025	02:31	-126.751	48.105	0	79.00	0	8.2170	0	33.1580	0	25.797	0	78.321	0	-1e10	1	-1e10	1	-1E+10	1	-1e10	1	-1e10	1	-1E+10	1	-1E+10	1	-1E+10	1
4902624	26	C	03/08/2025	02:31	-126.751	48.105	0	79.20	0	8.2112	0	33.1618	0	25.801	0	78.520	0	157.4	4	54.4	4	-1E+10	1	0.1387	4	0.000382	0	-1E+10	1	-1E+10	1	-1E+10	1
4902624	26	C	03/08/2025	02:31	-126.751	48.105	0	80.10	0	8.1851	0	33.1789	0	25.818	0	79.412	0	156.0	4	53.9	4	-1E+10	1	0.1281	4	0.000388	0	-1E+10	1	-1E+10	1	-1E+10	1
4902624	26	C	03/08/2025	02:31	-126.751	48.105	0	80.90	0	8.1619	0	33.1941	0	25.833	0	80.205	0	154.5	4	53.3	4	-1E+10	1	0.1087	4	0.000378	0	-1E+10	1	-1E+10	1	-1E+10	1
4902624	26	C	03/08/2025	02:31	-126.751	48.105	0	81.00	0	8.1590	0	33.1960	0	25.835	0	80.304	0	-1e10	1	-1e10	1	-1E+10	1	-1e10	1	-1e10	1	-1E+10	1	-1E+10	1	-1E+10	1
4902624	26	C	03/08/2025	02:31	-126.751	48.105	0	81.90	0	8.1077	0	33.2333	0	25.872	0	81.196	0	153.4	4	52.9	4	-1E+10	1	0.0995	4	0.000357	0	-1E+10	1	-1E+10	1	-1E+10	1
4902624	26	C	03/08/2025	02:31	-126.751	48.105	0	82.80	0	8.0564	0	33.2707	0	25.909	0	82.088	0	152.8	4	52.6	4	-1E+10	1	0.0876	4	0.000357	0	-1E+10	1	-1E+10	1	-1E+10	1
4902624	26	C	03/08/2025	02:31	-126.751	48.105	0	83.00	0	8.0450	0	33.2790	0	25.917	0	82.286	0	-1e10	1	-1e10	1	-1E+10	1	-1e10	1	-1e10	1	-1E+10	1	-1E+10	1	-1E+10	1
4902624	26	C	03/08/2025	02:31	-126.751	48.105	0	83.70	0	8.0313	0	33.2877	0	25.926	0	82.980	0	151.8	4	52.3	4	-1E+10	1	0.0876	4	0.000367	0	-1E+10	1	-1E+10	1	-1E+10	1
4902624	26	C	03/08/2025	02:31	-126.751	48.105	0	84.70	0	8.0118	0	33.3000	0	25.939	0	83.971	0	151.0	4	52.0	4	-1E+10	1	0.0934	4	0.000341	0	-1E+10	1	-1E+10	1	-1E+10	1
4902624	26	C	03/08/2025	02:31	-126.751	48.105	0	85.10	0	8.0040	0	33.3050	0	25.944	0	84.368	0	-1e10	1	-1e10	1	-1E+10	1	-1e10	1	-1e10	1	-1E+10	1	-1E+10	1	-1E+10	1
4902624	26	C	03/08/2025	02:31	-126.751	48.105	0	85.60	0	7.9929	0	33.3125	0	25.951	0	84.863	0	150.3	4	51.7	4	-1E+10	1	0.0892	4	0.000370	0	-1E+10	1	-1E+10	1	-1E+10	1
4902624	26	C	03/08/2025	02:31	-126.751	48.105	0	86.60	0	7.9707	0	33.3275	0	25.966	0	85.854	0	149.3	4	51.4	4	-1E+10	1	0.0876	4	0.000341	0	-1E+10	1	-1E+10	1	-1E+10	1
4902624	26	C	03/08/2025	02:31	-126.751	48.105	0	86.90	0	7.9640	0	33.3320	0	25.971	0	86.152	0	-1e10	1	-1e10	1	-1E+10	1	-1e10	1	-1e10	1	-1E+10	1	-1E+10	1	-1E+10	1
4902624	26	C	03/08/2025	02:31	-126.751	48.105	0	87.60	0	7.9477	0	33.3450	0	25.983	0	86.846	0	148.1	4	50.9	4	-1E+10	1	0.0788	4	0.000357	0	-1E+10	1	-1E+10	1	-1E+10	1
4902624	26	C	03/08/2025	02:31	-126.751	48.105	0	88.60	0	7.9243	0	33.3636	0	26.001	0	87.837	0	146.9	4	50.5	4	-1E+10	1	0.0694	4	0.000363	0	-1E+10	1	-1E+10	1	-1E+10	1
4902624	26	C	03/08/2025	02:31	-126.751	48.105	0	89.00	0	7.9150	0	33.3710	0	26.009	0	88.233	0	-1e10	1	-1e10	1	-1E+10	1	-1e10	1	-1e10	1	-1E+10	1	-1E+10	1	-1E+10	1
4902624	26	C	03/08/2025	02:31	-126.751	48.105	0	89.70	0	7.8895	0	33.3909	0	26.028	0	88.927	0	145.8	4	50.1	4	-1E+10	1	0.0601	4	0.000350	0	-1E+10	1	-1E+10	1	-1E+10	1
4902624	26	C	03/08/2025	02:31	-126.751	48.105	0	90.70	0	7.8530	0	33.4195	0	26.056	0	89.918	0	144.7	4	49.7	4	-1E+10	1	0.0555	4	0.000350	0	-1E+10	1	-1E+10	1	-1E+10	1
4902624	26	C	03/08/2025	02:31	-126.751	48.105	0	91.00	0	7.8420	0	33.4280	0	26.064	0	90.216	0	-1e10	1	-1e10	1	-1E+10	1	-1e10	1	-1e10	1	-1E+10	1	-1E+10	1	-1E+10	1
4902624	26	C	03/08/2025	02:31	-126.751	48.105	0	91.80	0	7.8348	0	33.4328	0	26.069	0	91.009	0	143.4	4	49.2	4	-1E+10	1	0.0696	4	0.000327	0	-1E+10	1	-1E+10	1	-1E+10	1
4902624	26	C	03/08/2025	02:31	-126.751	48.105	0	92.80	0	7.8258	0	33.4388	0	26.075	0	92.000	0	142.0	4	48.8	4	-1E+10	1	0.0584	4	0.000345	0	-1E+10	1	-1E+10	1	-1E+10	1
4902624	26	C	03/08/2025	02:31	-126.751	48.105	0	93.00	0	7.8240	0	33.4400	0	26.076	0	92.198	0	-1e10	1	-1e10	1	-1E+10	1	-1e10	1	-1e10	1	-1E+10	1	-1E+10	1	-1E+10	1
4902624	26	C	03/08/2025	02:31	-126.751	48.105	0	93.90	0	7.7997	0	33.4571	0	26.093	0	93.090	0	140.5	4	48.2	4	-1E+10	1	0.0646	4	0.000782	0	-1E+10	1	-1E+10	1	-1E+10	1
4902624	26	C	03/08/2025	02:31	-126.751	48.105	0	95.00	0	7.7700	0	33.4780	0	26.114	0	94.180	0	138.0	4	47.3	4	-1E+10	1	0.0657	4	0.000506	0	-1E+10	1	-1E+10	1	-1E+10	1
4902624	26	C	03/08/2025	02:31	-126.751	48.105	0	96.00	0	7.7563	0	33.4864	0	26.122	0	95.171	0	138.1	4	47.4	4	-1E+10	1	0.0477	4	0.000435	0	-1E+10	1	-1E+10	1	-1E+10	1
4902624	26	C	03/08/2025	02:31	-126.751	48.105	0	96.90	0	7.7440	0	33.4940	0	26.130	0	96.063	0	-1e10	1	-1e10	1	-1E+10	1	-1e10	1	-1e10	1	-1E+10	1	-1E+10	1	-1E+10	1
4902624	26	C	03/08/2025	02:31	-126.751	48.105	0	97.10	0	7.7387	0	33.4976	0	26.134	0	96.262	0	136.7	4	46.8	4	-1E+10	1	0.0432	4	0.000444	0	-1E+10	1	-1E+10	1	-1E+10	1
4902624	26	C	03/08/2025	02:31	-126.751	48.105	0	98.20	0	7.7095	0	33.5174	0	26.153	0	97.352	0	135.3	4	46.4	4	-1E+10	1	0.0538	4	0.000402	0	-1E+10	1	-1E+10	1	-1E+10	1
4902624	26	C	03/08/2025	02:31	-126.751	48.105	0	98.90	0	7.6910	0	33.5300	0	26.166	0	98.046	0	-1e10	1	-1e10	1	-1E+10	1	-1e10	1	-1e10	1	-1E+10	1	-1E+10	1	-1E+10	1
4902624	26	C	03/08/2025	02:31	-126.751	48.105	0	99.40	0	7.6855	0	33.5331	0	26.169	0	98.541	0	134.0	4	45.9	4	-1E+10	1	0.0584	4	0.000319	0	-1E+10	1	-1E+10	1	-1E+10	1
4902624	26	C	03/08/2025	02:31	-126.751	48.105	0	100.50	0	7.6735	0	33.5399	0	26.176	0	99.631	0	132.6	4	45.4	4	-1E+10	1	0.0596	4	0.000329	0	-1E+10	1	-1E+10	1	-1E+10	1
4902624	26	C	03/08/2025	02:31	-126.751	48.105	0	101.00	0	7.6680	0	33.5430	0	26.179	0	100.127	0	-1e10	1	-1e10	1	-1E+10	1	-1e10	1	-1e10	1	-1E+10	1	-1E+10	1	-1E+10	1
4902624	26	C	03/08/2025	02:31	-126.751	48.105	0	101.50	0	7.6603	0	33.5490	0	26.185	0	100.623	0	131.4	4	45.0	4	-1E+10	1	0.0657	4	0.000369	0	-1E+10	1	-1E+10	1	-1E+10	1
4902624	26	C	03/08/2025	02:31	-126.751	48.105	0	102.50	0	7.6448	0	33.5610	0	26.197	0	101.614	0	130.7	4	44.7	4	-1E+10	1	0.0438	4	0.000310	0	-1E+10	1	-1E+10	1	-1E+10	1
4902624	26	C	03/08/2025	02:31	-126.751	48.105	0	103.00	0	7.6370	0	33.5670	0	26.203	0	102.109	0	-1e10	1	-1e10	1	-1E+10	1	-1e10	1	-1e10	1	-1E+10	1	-1E+10	1	-1E+10	1
4902624	26	C	03/08/2025	02:31	-126.751	48.105	0	103.30	0	7.6364	0	33.5718	0	26.207	0	102.407	0	130.1	4	44.5	4	-1E+10	1	0.0380	4	0.000319	0	-1E+10	1	-1E+10	1	-1E+10	1
4902624	26	C	03/08/2025	02:31	-126.751	48.105	0	104.00	0	7.6350	0	33.5830	0	26.216	0	103.100	0	129.6	4	44.3	4	-1E+10	1	0.0456	4	0.000329	0	-1E+10	1	-1E+10	1	-1E+10	1
4902624	26	C	03/08/2025	02:31	-126.751	48.105	0	104.70	0	7.6336	0	33.5942	0	26.225	0	103.794	0	129.3	4	44.2	4	-1E+10	1	0.0511	4	0.000318	0	-1E+10	1	-1E+10	1	-1E+10	1
4902624	26	C	03/08/2025	02:31	-126.751	48.105	0	105.00	0	7.6330	0	33.5990	0	26.229	0	104.091	0	-1e10	1	-1e10	1	-1E+10	1	-1e10	1	-1e10	1	-1E+10	1	-1E+10	1	-1E+10	1
4902624	26	C	03/08/2025	02:31	-126.751	48.105	0	105.40	0	7.6344	0	33.6008	0	26.230	0	104.488	0	129.0	4	44.1	4	-1E+10	1	0.0479	4	0.000318	0	-1E+10	1	-1E+10	1	-1E+10	1
4902624	26	C	03/08/2025	02:31	-126.751	48.105	0	106.20	0	7.6372	0	33.6044	0	26.232	0	105.281	0	128.7	4	44.0	4	-1E+10	1	0.0493	4	0.000360	0	-1E+10	1	-1E+10	1	-1E+10	1
4902624	26	C	03/08/2025	02:31	-126.751	48.105	0	106.80	0	7.6393	0	33.6071	0	26.234	0	105.875	0	128.4	4	43.9	4	-1E+10	1	0.0574	4	0.000402	0	-1E+10	1	-1E+10	1	-1E+10	1
4902624	26	C	03/08/2025	02:31	-126.751	48.105	0	107.00	0	7.6400	0	33.6080	0	26.235	0	106.074	0	-1e10	1	-1e10	1	-1E+10	1	-1e10	1	-1e10	1	-1E+10	1	-1E+10	1	-1E+10	1
4902624	26	C	03/08/2025	02:31	-126.751	48.105	0	107.50	0	7.6343	0	33.6100	0	26.237	0	106.569	0	128.0	4	43.8	4	-1E+10	1	0.0511	4	0.000387	0	-1E+10	1	-1E+10	1	-1E+10	1
4902624	26	C	03/08/2025	02:31	-126.751	48.105	0	108.30	0	7.6252	0	33.6133	0	26.241	0	107.362	0	127.5	4	43.6	4	-1E+10	1	0.0511	4	0.000345	0	-1E+10	1	-1E+10	1	-1E+10	1
4902624	26	C	03/08/2025	02:31	-126.751	48.105	0	109.00	0	7.6173	0	33.6162	0	26.244	0	108.056	0	126.9	4	43.4	4	-1E+10	1	0.0454	4	0.000342	0	-1E+10	1	-1E+10	1	-1E+10	1
4902624	26	C	03/08/2025	02:31	-126.751	48.105	0	109.20	0	7.6150	0	33.6170	0	26.245	0	108.254	0	-1e10	1	-1e10	1	-1E+10	1	-1e10	1	-1e10	1	-1E+10	1	-1E+10	1	-1E+10	1
4902624	26	C	03/08/2025	02:31	-126.751	48.105	0	109.80	0	7.6010	0	33.6233	0	26.252	0	108.849	0	126.3	4	43.2	4	-1E+10	1	0.0438	4	0.000335	0	-1E+10	1	-1E+10	1	-1E+10	1
4902624	26	C	03/08/2025	02:31	-126.751	48.105	0	110.60	0	7.5823	0	33.6318	0	26.262	0	109.641	0	125.6	4	42.9	4	-1E+10	1	0.0438	4	0.000318	0	-1E+10	1	-1E+10	1	-1E+10	1
4902624	26	C	03/08/2025	02:31	-126.751	48.105	0	111.00	0	7.5730	0	33.6360	0	26.266	0	110.038	0	-1e10	1	-1e10	1	-1E+10	1	-1e10	1	-1e10	1	-1E+10	1	-1E+10	1	-1E+10	1
4902624	26	C	03/08/2025	02:31	-126.751	48.105	0	111.40	0	7.5692	0	33.6423	0	26.272	0	110.434	0	125.1	4	42.8	4	-1E+10	1	0.0474	4	0.000310	0	-1E+10	1	-1E+10	1	-1E+10	1
4902624	26	C	03/08/2025	02:31	-126.751	48.105	0	112.20	0	7.5616	0	33.6549	0	26.283	0	111.227	0	124.8	4	42.7	4	-1E+10	1	0.0511	4	0.000305	0	-1E+10	1	-1E+10	1	-1E+10	1
4902624	26	C	03/08/2025	02:31	-126.751	48.105	0	112.90	0	7.5550	0	33.6660	0	26.292	0	111.921	0	-1e10	1	-1e10	1	-1E+10	1	-1e10	1	-1e10	1	-1E+10	1	-1E+10	1	-1E+10	1
4902624	26	C	03/08/2025	02:31	-126.751	48.105	0	113.10	0	7.5527	0	33.6669	0	26.293	0	112.119	0	124.5	4	42.5	4	-1E+10	1	0.0511	4	0.000345	0	-1E+10	1	-1E+10	1	-1E+10	1
4902624	26	C	03/08/2025	02:31	-126.751	48.105	0	113.90	0	7.5436	0	33.6703	0	26.297	0	112.912	0	124.1	4	42.4	4	-1E+10	1	0.0498	4	0.000398	0	-1E+10	1	-1E+10	1	-1E+10	1
4902624	26	C	03/08/2025	02:31	-126.751	48.105	0	114.80	0	7.5333	0	33.6741	0	26.302	0	113.804	0	123.7	4	42.2	4	-1E+10	1	0.0438	4	0.000322	0	-1E+10	1	-1E+10	1	-1E+10	1
4902624	26	C	03/08/2025	02:31	-126.751	48.105	0	115.00	0	7.5310	0	33.6750	0	26.303	0	114.002	0	-1e10	1	-1e10	1	-1E+10	1	-1e10	1	-1e10	1	-1E+10	1	-1E+10	1	-1E+10	1
4902624	26	C	03/08/2025	02:31	-126.751	48.105	0	115.60	0	7.5277	0	33.6765	0	26.305	0	114.597	0	123.2	4	42.1	4	-1E+10	1	0.0365	4	0.000368	0	-1E+10	1	-1E+10	1	-1E+10	1
4902624	26	C	03/08/2025	02:31	-126.751	48.105	0	116.50	0	7.5227	0	33.6787	0	26.307	0	115.489	0	122.7	4	41.9	4	-1E+10	1	0.0425	4	0.000340	0	-1E+10	1	-1E+10	1	-1E+10	1
4902624	26	C	03/08/2025	02:31	-126.751	48.105	0	117.00	0	7.5200	0	33.6800	0	26.308	0	115.984	0	-1e10	1	-1e10	1	-1E+10	1	-1e10	1	-1e10	1	-1E+10	1	-1E+10	1	-1E+10	1
4902624	26	C	03/08/2025	02:31	-126.751	48.105	0	117.40	0	7.5168	0	33.6825	0	26.311	0	116.381	0	122.1	4	41.7	4	-1E+10	1	0.0392	4	0.000318	0	-1E+10	1	-1E+10	1	-1E+10	1
4902624	26	C	03/08/2025	02:31	-126.751	48.105	0	118.30	0	7.5095	0	33.6880	0	26.316	0	117.273	0	121.6	4	41.5	4	-1E+10	1	0.0456	4	0.000324	0	-1E+10	1	-1E+10	1	-1E+10	1
4902624	26	C	03/08/2025	02:31	-126.751	48.105	0	119.10	0	7.5030	0	33.6930	0	26.321	0	118.065	0	-1e10	1	-1e10	1	-1E+10	1	-1e10	1	-1e10	1	-1E+10	1	-1E+10	1	-1E+10	1
4902624	26	C	03/08/2025	02:31	-126.751	48.105	0	119.20	0	7.5020	0	33.6940	0	26.322	0	118.164	0	121.1	4	41.3	4	-1E+10	1	0.0471	4	0.000340	0	-1E+10	1	-1E+10	1	-1E+10	1
4902624	26	C	03/08/2025	02:31	-126.751	48.105	0	120.10	0	7.4930	0	33.7025	0	26.330	0	119.056	0	120.6	4	41.2	4	-1E+10	1	0.0438	4	0.000336	0	-1E+10	1	-1E+10	1	-1E+10	1
4902624	26	C	03/08/2025	02:31	-126.751	48.105	0	121.00	0	7.4840	0	33.7111	0	26.338	0	119.948	0	120.1	4	41.0	4	-1E+10	1	0.0438	4	0.000327	0	-1E+10	1	-1E+10	1	-1E+10	1
4902624	26	C	03/08/2025	02:31	-126.751	48.105	0	121.10	0	7.4830	0	33.7120	0	26.339	0	120.047	0	-1e10	1	-1e10	1	-1E+10	1	-1e10	1	-1e10	1	-1E+10	1	-1E+10	1	-1E+10	1
4902624	26	C	03/08/2025	02:31	-126.751	48.105	0	121.90	0	7.4758	0	33.7175	0	26.344	0	120.840	0	119.6	4	40.8	4	-1E+10	1	0.0425	4	0.000334	0	-1E+10	1	-1E+10	1	-1E+10	1
4902624	26	C	03/08/2025	02:31	-126.751	48.105	0	122.80	0	7.4678	0	33.7236	0	26.350	0	121.732	0	119.2	4	40.7	4	-1E+10	1	0.0365	4	0.000286	0	-1E+10	1	-1E+10	1	-1E+10	1
4902624	26	C	03/08/2025	02:31	-126.751	48.105	0	123.00	0	7.4660	0	33.7250	0	26.352	0	121.930	0	-1e10	1	-1e10	1	-1E+10	1	-1e10	1	-1e10	1	-1E+10	1	-1E+10	1	-1E+10	1
4902624	26	C	03/08/2025	02:31	-126.751	48.105	0	123.70	0	7.4587	0	33.7292	0	26.356	0	122.624	0	118.9	4	40.6	4	-1E+10	1	0.0544	4	0.000305	0	-1E+10	1	-1E+10	1	-1E+10	1
4902624	26	C	03/08/2025	02:31	-126.751	48.105	0	124.60	0	7.4492	0	33.7346	0	26.362	0	123.516	0	118.6	4	40.4	4	-1E+10	1	0.0414	4	0.000319	0	-1E+10	1	-1E+10	1	-1E+10	1
4902624	26	C	03/08/2025	02:31	-126.751	48.105	0	125.00	0	7.4450	0	33.7370	0	26.364	0	123.912	0	-1e10	1	-1e10	1	-1E+10	1	-1e10	1	-1e10	1	-1E+10	1	-1E+10	1	-1E+10	1
4902624	26	C	03/08/2025	02:31	-126.751	48.105	0	125.60	0	7.4408	0	33.7391	0	26.366	0	124.507	0	118.2	4	40.3	4	-1E+10	1	0.0471	4	0.000330	0	-1E+10	1	-1E+10	1	-1E+10	1
4902624	26	C	03/08/2025	02:31	-126.751	48.105	0	126.50	0	7.4345	0	33.7422	0	26.370	0	125.399	0	117.8	4	40.2	4	-1E+10	1	0.0471	4	0.000337	0	-1E+10	1	-1E+10	1	-1E+10	1
4902624	26	C	03/08/2025	02:31	-126.751	48.105	0	127.00	0	7.4310	0	33.7440	0	26.372	0	125.894	0	-1e10	1	-1e10	1	-1E+10	1	-1e10	1	-1e10	1	-1E+10	1	-1E+10	1	-1E+10	1
4902624	26	C	03/08/2025	02:31	-126.751	48.105	0	127.40	0	7.4274	0	33.7461	0	26.374	0	126.291	0	117.4	4	40.0	4	-1E+10	1	0.0467	4	0.000323	0	-1E+10	1	-1E+10	1	-1E+10	1
4902624	26	C	03/08/2025	02:31	-126.751	48.105	0	128.30	0	7.4192	0	33.7508	0	26.379	0	127.183	0	117.1	4	39.9	4	-1E+10	1	0.0511	4	0.000297	0	-1E+10	1	-1E+10	1	-1E+10	1
4902624	26	C	03/08/2025	02:31	-126.751	48.105	0	129.10	0	7.4120	0	33.7550	0	26.383	0	127.975	0	-1e10	1	-1e10	1	-1E+10	1	-1e10	1	-1e10	1	-1E+10	1	-1E+10	1	-1E+10	1
4902624	26	C	03/08/2025	02:31	-126.751	48.105	0	129.30	0	7.4080	0	33.7565	0	26.385	0	128.174	0	116.7	4	39.8	4	-1E+10	1	0.0498	4	0.000301	0	-1E+10	1	-1E+10	1	-1E+10	1
4902624	26	C	03/08/2025	02:31	-126.751	48.105	0	130.20	0	7.3900	0	33.7633	0	26.392	0	129.065	0	116.4	4	39.6	4	-1E+10	1	0.0438	4	0.000333	0	-1E+10	1	-1E+10	1	-1E+10	1
4902624	26	C	03/08/2025	02:31	-126.751	48.105	0	131.10	0	7.3720	0	33.7700	0	26.400	0	129.957	0	114.6	4	39.0	4	-1E+10	1	0.0511	4	0.000457	0	-1E+10	1	-1E+10	1	-1E+10	1
4902624	26	C	03/08/2025	02:31	-126.751	48.105	0	132.10	0	7.3478	0	33.7774	0	26.410	0	130.948	0	115.7	4	39.4	4	-1E+10	1	0.0511	4	0.000393	0	-1E+10	1	-1E+10	1	-1E+10	1
4902624	26	C	03/08/2025	02:31	-126.751	48.105	0	133.00	0	7.3260	0	33.7840	0	26.418	0	131.840	0	-1e10	1	-1e10	1	-1E+10	1	-1e10	1	-1e10	1	-1E+10	1	-1E+10	1	-1E+10	1
4902624	26	C	03/08/2025	02:31	-126.751	48.105	0	133.10	0	7.3250	0	33.7843	0	26.418	0	131.939	0	115.4	4	39.3	4	-1E+10	1	0.0511	4	0.000357	0	-1E+10	1	-1E+10	1	-1E+10	1
4902624	26	C	03/08/2025	02:31	-126.751	48.105	0	134.00	0	7.3160	0	33.7872	0	26.422	0	132.831	0	115.1	4	39.1	4	-1E+10	1	0.0470	4	0.000332	0	-1E+10	1	-1E+10	1	-1E+10	1
4902624	26	C	03/08/2025	02:31	-126.751	48.105	0	134.90	0	7.3070	0	33.7900	0	26.425	0	133.723	0	-1e10	1	-1e10	1	-1E+10	1	-1e10	1	-1e10	1	-1E+10	1	-1E+10	1	-1E+10	1
4902624	26	C	03/08/2025	02:31	-126.751	48.105	0	135.00	0	7.3056	0	33.7905	0	26.426	0	133.822	0	114.6	4	39.0	4	-1E+10	1	0.0365	4	0.000316	0	-1E+10	1	-1E+10	1	-1E+10	1
4902624	26	C	03/08/2025	02:31	-126.751	48.105	0	136.00	0	7.2910	0	33.7955	0	26.432	0	134.813	0	114.3	4	38.9	4	-1E+10	1	0.0372	4	0.000331	0	-1E+10	1	-1E+10	1	-1E+10	1
4902624	26	C	03/08/2025	02:31	-126.751	48.105	0	136.90	0	7.2780	0	33.8000	0	26.437	0	135.705	0	112.6	4	38.3	4	-1E+10	1	0.0496	4	0.000368	0	-1E+10	1	-1E+10	1	-1E+10	1
4902624	26	C	03/08/2025	02:31	-126.751	48.105	0	137.90	0	7.2728	0	33.8014	0	26.439	0	136.696	0	113.6	4	38.6	4	-1E+10	1	0.0450	4	0.000360	0	-1E+10	1	-1E+10	1	-1E+10	1
4902624	26	C	03/08/2025	02:31	-126.751	48.105	0	138.90	0	7.2675	0	33.8029	0	26.441	0	137.687	0	113.3	4	38.5	4	-1E+10	1	0.0511	4	0.000321	0	-1E+10	1	-1E+10	1	-1E+10	1
4902624	26	C	03/08/2025	02:31	-126.751	48.105	0	139.00	0	7.2670	0	33.8030	0	26.441	0	137.786	0	-1e10	1	-1e10	1	-1E+10	1	-1e10	1	-1e10	1	-1E+10	1	-1E+10	1	-1E+10	1
4902624	26	C	03/08/2025	02:31	-126.751	48.105	0	139.90	0	7.2562	0	33.8057	0	26.445	0	138.678	0	112.9	4	38.4	4	-1E+10	1	0.0268	4	0.000458	0	-1E+10	1	-1E+10	1	-1E+10	1
4902624	26	C	03/08/2025	02:31	-126.751	48.105	0	140.90	0	7.2442	0	33.8087	0	26.449	0	139.669	0	112.5	4	38.2	4	-1E+10	1	0.0453	4	0.000373	0	-1E+10	1	-1E+10	1	-1E+10	1
4902624	26	C	03/08/2025	02:31	-126.751	48.105	0	141.00	0	7.2430	0	33.8090	0	26.449	0	139.768	0	-1e10	1	-1e10	1	-1E+10	1	-1e10	1	-1e10	1	-1E+10	1	-1E+10	1	-1E+10	1
4902624	26	C	03/08/2025	02:31	-126.751	48.105	0	141.90	0	7.2232	0	33.8121	0	26.454	0	140.660	0	112.1	4	38.1	4	-1E+10	1	0.0365	4	0.000314	0	-1E+10	1	-1E+10	1	-1E+10	1
4902624	26	C	03/08/2025	02:31	-126.751	48.105	0	142.90	0	7.2012	0	33.8157	0	26.460	0	141.650	0	111.7	4	37.9	4	-1E+10	1	0.0365	4	0.000310	0	-1E+10	1	-1E+10	1	-1E+10	1
4902624	26	C	03/08/2025	02:31	-126.751	48.105	0	143.00	0	7.1990	0	33.8160	0	26.461	0	141.750	0	-1e10	1	-1e10	1	-1E+10	1	-1e10	1	-1e10	1	-1E+10	1	-1E+10	1	-1E+10	1
4902624	26	C	03/08/2025	02:31	-126.751	48.105	0	143.90	0	7.1945	0	33.8174	0	26.462	0	142.641	0	111.3	4	37.8	4	-1E+10	1	0.0438	4	0.000317	0	-1E+10	1	-1E+10	1	-1E+10	1
4902624	26	C	03/08/2025	02:31	-126.751	48.105	0	144.90	0	7.1895	0	33.8189	0	26.464	0	143.632	0	111.0	4	37.7	4	-1E+10	1	0.0462	4	0.000314	0	-1E+10	1	-1E+10	1	-1E+10	1
4902624	26	C	03/08/2025	02:31	-126.751	48.105	0	145.00	0	7.1890	0	33.8190	0	26.465	0	143.731	0	-1e10	1	-1e10	1	-1E+10	1	-1e10	1	-1e10	1	-1E+10	1	-1E+10	1	-1E+10	1
4902624	26	C	03/08/2025	02:31	-126.751	48.105	0	145.90	0	7.1791	0	33.8228	0	26.469	0	144.623	0	110.7	4	37.5	4	-1E+10	1	0.0511	4	0.000326	0	-1E+10	1	-1E+10	1	-1E+10	1
4902624	26	C	03/08/2025	02:31	-126.751	48.105	0	146.80	0	7.1691	0	33.8266	0	26.473	0	145.515	0	110.3	4	37.4	4	-1E+10	1	0.0511	4	0.000345	0	-1E+10	1	-1E+10	1	-1E+10	1
4902624	26	C	03/08/2025	02:31	-126.751	48.105	0	146.90	0	7.1680	0	33.8270	0	26.474	0	145.614	0	-1e10	1	-1e10	1	-1E+10	1	-1e10	1	-1e10	1	-1E+10	1	-1E+10	1	-1E+10	1
4902624	26	C	03/08/2025	02:31	-126.751	48.105	0	147.80	0	7.1509	0	33.8302	0	26.479	0	146.506	0	110.0	4	37.3	4	-1E+10	1	0.0584	4	0.000333	0	-1E+10	1	-1E+10	1	-1E+10	1
4902624	26	C	03/08/2025	02:31	-126.751	48.105	0	148.80	0	7.1319	0	33.8336	0	26.484	0	147.497	0	109.6	4	37.1	4	-1E+10	1	0.0365	4	0.000345	0	-1E+10	1	-1E+10	1	-1E+10	1
4902624	26	C	03/08/2025	02:31	-126.751	48.105	0	148.90	0	7.1300	0	33.8340	0	26.485	0	147.596	0	-1e10	1	-1e10	1	-1E+10	1	-1e10	1	-1e10	1	-1E+10	1	-1E+10	1	-1E+10	1
4902624	26	C	03/08/2025	02:31	-126.751	48.105	0	149.80	0	7.0989	0	33.8322	0	26.487	0	148.488	0	108.9	4	36.9	4	-1E+10	1	0.0487	4	0.000423	0	-1E+10	1	-1E+10	1	-1E+10	1
4902624	26	C	03/08/2025	02:31	-126.751	48.105	0	150.80	0	7.0644	0	33.8302	0	26.491	0	149.479	0	108.1	4	36.6	4	-1E+10	1	0.0453	4	0.000354	0	-1E+10	1	-1E+10	1	-1E+10	1
4902624	26	C	03/08/2025	02:31	-126.751	48.105	0	150.90	0	7.0610	0	33.8300	0	26.491	0	149.578	0	-1e10	1	-1e10	1	-1E+10	1	-1e10	1	-1e10	1	-1E+10	1	-1E+10	1	-1E+10	1
4902624	26	C	03/08/2025	02:31	-126.751	48.105	0	151.80	0	7.0502	0	33.8341	0	26.496	0	150.469	0	107.2	4	36.3	4	-1E+10	1	0.0487	4	0.000341	0	-1E+10	1	-1E+10	1	-1E+10	1
4902624	26	C	03/08/2025	02:31	-126.751	48.105	0	152.80	0	7.0382	0	33.8386	0	26.501	0	151.460	0	106.7	4	36.1	4	-1E+10	1	0.0438	4	0.000333	0	-1E+10	1	-1E+10	1	-1E+10	1
4902624	26	C	03/08/2025	02:31	-126.751	48.105	0	152.90	0	7.0370	0	33.8390	0	26.501	0	151.559	0	-1e10	1	-1e10	1	-1E+10	1	-1e10	1	-1e10	1	-1E+10	1	-1E+10	1	-1E+10	1
4902624	26	C	03/08/2025	02:31	-126.751	48.105	0	153.80	0	7.0325	0	33.8462	0	26.508	0	152.451	0	106.4	4	36.0	4	-1E+10	1	0.0365	4	0.000317	0	-1E+10	1	-1E+10	1	-1E+10	1
4902624	26	C	03/08/2025	02:31	-126.751	48.105	0	154.90	0	7.0270	0	33.8550	0	26.515	0	153.541	0	104.8	4	35.4	4	-1E+10	1	0.0365	4	0.000317	0	-1E+10	1	-1E+10	1	-1E+10	1
4902624	26	C	03/08/2025	02:31	-126.751	48.105	0	155.90	0	7.0180	0	33.8555	0	26.517	0	154.532	0	105.7	4	35.7	4	-1E+10	1	0.0377	4	0.000331	0	-1E+10	1	-1E+10	1	-1E+10	1
4902624	26	C	03/08/2025	02:31	-126.751	48.105	0	156.90	0	7.0089	0	33.8560	0	26.519	0	155.523	0	105.4	4	35.6	4	-1E+10	1	0.0438	4	0.000321	0	-1E+10	1	-1E+10	1	-1E+10	1
4902624	26	C	03/08/2025	02:31	-126.751	48.105	0	157.00	0	7.0080	0	33.8560	0	26.519	0	155.622	0	-1e10	1	-1e10	1	-1E+10	1	-1e10	1	-1e10	1	-1E+10	1	-1E+10	1	-1E+10	1
4902624	26	C	03/08/2025	02:31	-126.751	48.105	0	158.00	0	7.0050	0	33.8560	0	26.519	0	156.613	0	104.9	4	35.5	4	-1E+10	1	0.0292	4	0.000298	0	-1E+10	1	-1E+10	1	-1E+10	1
4902624	26	C	03/08/2025	02:31	-126.751	48.105	0	159.00	0	7.0020	0	33.8560	0	26.520	0	157.604	0	103.1	4	34.9	4	-1E+10	1	0.0414	4	0.000337	0	-1E+10	1	-1E+10	1	-1E+10	1
4902624	26	C	03/08/2025	02:31	-126.751	48.105	0	160.00	0	6.9795	0	33.8555	0	26.522	0	158.594	0	103.9	4	35.1	4	-1E+10	1	0.0438	4	0.000329	0	-1E+10	1	-1E+10	1	-1E+10	1
4902624	26	C	03/08/2025	02:31	-126.751	48.105	0	161.00	0	6.9570	0	33.8550	0	26.525	0	159.585	0	101.9	4	34.4	4	-1E+10	1	0.0526	4	0.000399	0	-1E+10	1	-1E+10	1	-1E+10	1
4902624	26	C	03/08/2025	02:31	-126.751	48.105	0	162.10	0	6.9411	0	33.8588	0	26.530	0	160.675	0	102.6	4	34.6	4	-1E+10	1	0.0505	4	0.000368	0	-1E+10	1	-1E+10	1	-1E+10	1
4902624	26	C	03/08/2025	02:31	-126.751	48.105	0	163.00	0	6.9280	0	33.8620	0	26.534	0	161.567	0	-1e10	1	-1e10	1	-1E+10	1	-1e10	1	-1e10	1	-1E+10	1	-1E+10	1	-1E+10	1
4902624	26	C	03/08/2025	02:31	-126.751	48.105	0	163.10	0	6.9274	0	33.8621	0	26.535	0	161.666	0	102.0	4	34.4	4	-1E+10	1	0.0438	4	0.000450	0	-1E+10	1	-1E+10	1	-1E+10	1
4902624	26	C	03/08/2025	02:31	-126.751	48.105	0	164.10	0	6.9208	0	33.8631	0	26.536	0	162.657	0	101.3	4	34.2	4	-1E+10	1	0.0425	4	0.000669	0	-1E+10	1	-1E+10	1	-1E+10	1
4902624	26	C	03/08/2025	02:31	-126.751	48.105	0	165.00	0	6.9150	0	33.8640	0	26.538	0	163.548	0	-1e10	1	-1e10	1	-1E+10	1	-1e10	1	-1e10	1	-1E+10	1	-1E+10	1	-1E+10	1
4902624	26	C	03/08/2025	02:31	-126.751	48.105	0	165.20	0	6.9150	0	33.8645	0	26.538	0	163.747	0	100.6	4	33.9	4	-1E+10	1	0.0399	4	0.000285	0	-1E+10	1	-1E+10	1	-1E+10	1
4902624	26	C	03/08/2025	02:31	-126.751	48.105	0	166.30	0	6.9150	0	33.8672	0	26.540	0	164.837	0	99.9	4	33.7	4	-1E+10	1	0.0584	4	0.000309	0	-1E+10	1	-1E+10	1	-1E+10	1
4902624	26	C	03/08/2025	02:31	-126.751	48.105	0	167.00	0	6.9150	0	33.8690	0	26.542	0	165.530	0	-1e10	1	-1e10	1	-1E+10	1	-1e10	1	-1e10	1	-1E+10	1	-1E+10	1	-1E+10	1
4902624	26	C	03/08/2025	02:31	-126.751	48.105	0	167.30	0	6.9127	0	33.8697	0	26.543	0	165.827	0	99.3	4	33.5	4	-1E+10	1	0.0528	4	0.000318	0	-1E+10	1	-1E+10	1	-1E+10	1
4902624	26	C	03/08/2025	02:31	-126.751	48.105	0	168.40	0	6.9043	0	33.8723	0	26.546	0	166.917	0	98.8	4	33.3	4	-1E+10	1	0.0569	4	0.000331	0	-1E+10	1	-1E+10	1	-1E+10	1
4902624	26	C	03/08/2025	02:31	-126.751	48.105	0	169.10	0	6.8990	0	33.8740	0	26.548	0	167.611	0	-1e10	1	-1e10	1	-1E+10	1	-1e10	1	-1e10	1	-1E+10	1	-1E+10	1	-1E+10	1
4902624	26	C	03/08/2025	02:31	-126.751	48.105	0	169.50	0	6.8956	0	33.8751	0	26.549	0	168.007	0	98.2	4	33.1	4	-1E+10	1	0.0533	4	0.000341	0	-1E+10	1	-1E+10	1	-1E+10	1
4902624	26	C	03/08/2025	02:31	-126.751	48.105	0	170.60	0	6.8864	0	33.8779	0	26.553	0	169.097	0	97.8	4	33.0	4	-1E+10	1	0.0548	4	0.000345	0	-1E+10	1	-1E+10	1	-1E+10	1
4902624	26	C	03/08/2025	02:31	-126.751	48.105	0	171.00	0	6.8830	0	33.8790	0	26.554	0	169.493	0	-1e10	1	-1e10	1	-1E+10	1	-1e10	1	-1e10	1	-1E+10	1	-1E+10	1	-1E+10	1
4902624	26	C	03/08/2025	02:31	-126.751	48.105	0	171.70	0	6.8812	0	33.8797	0	26.555	0	170.187	0	97.4	4	32.8	4	-1E+10	1	0.0467	4	0.000326	0	-1E+10	1	-1E+10	1	-1E+10	1
4902624	26	C	03/08/2025	02:31	-126.751	48.105	0	172.80	0	6.8785	0	33.8808	0	26.556	0	171.277	0	96.9	4	32.7	4	-1E+10	1	0.0376	4	0.000307	0	-1E+10	1	-1E+10	1	-1E+10	1
4902624	26	C	03/08/2025	02:31	-126.751	48.105	0	173.00	0	6.8780	0	33.8810	0	26.556	0	171.475	0	-1e10	1	-1e10	1	-1E+10	1	-1e10	1	-1e10	1	-1E+10	1	-1E+10	1	-1E+10	1
4902624	26	C	03/08/2025	02:31	-126.751	48.105	0	173.90	0	6.8714	0	33.8805	0	26.557	0	172.366	0	96.5	4	32.5	4	-1E+10	1	0.0511	4	0.000331	0	-1E+10	1	-1E+10	1	-1E+10	1
4902624	26	C	03/08/2025	02:31	-126.751	48.105	0	174.90	0	6.8640	0	33.8800	0	26.557	0	173.357	0	-1e10	1	-1e10	1	-1E+10	1	-1e10	1	-1e10	1	-1E+10	1	-1E+10	1	-1E+10	1
4902624	26	C	03/08/2025	02:31	-126.751	48.105	0	175.00	0	6.8626	0	33.8801	0	26.558	0	173.456	0	96.0	4	32.4	4	-1E+10	1	0.0511	4	0.000368	0	-1E+10	1	-1E+10	1	-1E+10	1
4902624	26	C	03/08/2025	02:31	-126.751	48.105	0	176.00	0	6.8486	0	33.8811	0	26.560	0	174.447	0	95.6	4	32.2	4	-1E+10	1	0.0584	4	0.000309	0	-1E+10	1	-1E+10	1	-1E+10	1
4902624	26	C	03/08/2025	02:31	-126.751	48.105	0	176.90	0	6.8360	0	33.8820	0	26.563	0	175.339	0	-1e10	1	-1e10	1	-1E+10	1	-1e10	1	-1e10	1	-1E+10	1	-1E+10	1	-1E+10	1
4902624	26	C	03/08/2025	02:31	-126.751	48.105	0	177.10	0	6.8333	0	33.8820	0	26.563	0	175.537	0	95.2	4	32.0	4	-1E+10	1	0.0584	4	0.000369	0	-1E+10	1	-1E+10	1	-1E+10	1
4902624	26	C	03/08/2025	02:31	-126.751	48.105	0	178.20	0	6.8187	0	33.8820	0	26.565	0	176.627	0	94.7	4	31.9	4	-1E+10	1	0.0432	4	0.000526	0	-1E+10	1	-1E+10	1	-1E+10	1
4902624	26	C	03/08/2025	02:31	-126.751	48.105	0	179.00	0	6.8080	0	33.8820	0	26.567	0	177.419	0	-1e10	1	-1e10	1	-1E+10	1	-1e10	1	-1e10	1	-1E+10	1	-1E+10	1	-1E+10	1
4902624	26	C	03/08/2025	02:31	-126.751	48.105	0	179.30	0	6.8054	0	33.8823	0	26.567	0	177.717	0	94.3	4	31.7	4	-1E+10	1	0.0411	4	0.000412	0	-1E+10	1	-1E+10	1	-1E+10	1
4902624	26	C	03/08/2025	02:31	-126.751	48.105	0	180.40	0	6.7961	0	33.8834	0	26.569	0	178.806	0	93.9	4	31.6	4	-1E+10	1	0.0438	4	0.000332	0	-1E+10	1	-1E+10	1	-1E+10	1
4902624	26	C	03/08/2025	02:31	-126.751	48.105	0	181.00	0	6.7910	0	33.8840	0	26.570	0	179.401	0	-1e10	1	-1e10	1	-1E+10	1	-1e10	1	-1e10	1	-1E+10	1	-1E+10	1	-1E+10	1
4902624	26	C	03/08/2025	02:31	-126.751	48.105	0	181.50	0	6.7845	0	33.8855	0	26.572	0	179.896	0	93.5	4	31.4	4	-1E+10	1	0.0438	4	0.000349	0	-1E+10	1	-1E+10	1	-1E+10	1
4902624	26	C	03/08/2025	02:31	-126.751	48.105	0	182.60	0	6.7702	0	33.8888	0	26.577	0	180.986	0	93.2	4	31.3	4	-1E+10	1	0.0438	4	0.000336	0	-1E+10	1	-1E+10	1	-1E+10	1
4902624	26	C	03/08/2025	02:31	-126.751	48.105	0	183.00	0	6.7650	0	33.8900	0	26.579	0	181.382	0	-1e10	1	-1e10	1	-1E+10	1	-1e10	1	-1e10	1	-1E+10	1	-1E+10	1	-1E+10	1
4902624	26	C	03/08/2025	02:31	-126.751	48.105	0	183.70	0	6.7580	0	33.8904	0	26.580	0	182.076	0	92.8	4	31.2	4	-1E+10	1	0.0449	4	0.000308	0	-1E+10	1	-1E+10	1	-1E+10	1
4902624	26	C	03/08/2025	02:31	-126.751	48.105	0	184.80	0	6.7470	0	33.8909	0	26.582	0	183.165	0	92.5	4	31.1	4	-1E+10	1	0.0511	4	0.000368	0	-1E+10	1	-1E+10	1	-1E+10	1
4902624	26	C	03/08/2025	02:31	-126.751	48.105	0	185.00	0	6.7450	0	33.8910	0	26.582	0	183.364	0	-1e10	1	-1e10	1	-1E+10	1	-1e10	1	-1e10	1	-1E+10	1	-1E+10	1	-1E+10	1
4902624	26	C	03/08/2025	02:31	-126.751	48.105	0	185.90	0	6.7396	0	33.8914	0	26.583	0	184.255	0	92.1	4	31.0	4	-1E+10	1	0.0511	4	0.000328	0	-1E+10	1	-1E+10	1	-1E+10	1
4902624	26	C	03/08/2025	02:31	-126.751	48.105	0	187.00	0	6.7330	0	33.8920	0	26.585	0	185.345	0	90.6	4	30.4	4	-1E+10	1	0.0451	4	0.000350	0	-1E+10	1	-1E+10	1	-1E+10	1
4902624	26	C	03/08/2025	02:31	-126.751	48.105	0	188.10	0	6.7308	0	33.8926	0	26.585	0	186.435	0	91.4	4	30.7	4	-1E+10	1	0.0489	4	0.000316	0	-1E+10	1	-1E+10	1	-1E+10	1
4902624	26	C	03/08/2025	02:31	-126.751	48.105	0	189.00	0	6.7290	0	33.8930	0	26.586	0	187.326	0	-1e10	1	-1e10	1	-1E+10	1	-1e10	1	-1e10	1	-1E+10	1	-1E+10	1	-1E+10	1
4902624	26	C	03/08/2025	02:31	-126.751	48.105	0	189.20	0	6.7285	0	33.8929	0	26.586	0	187.525	0	91.0	4	30.6	4	-1E+10	1	0.0550	4	0.000323	0	-1E+10	1	-1E+10	1	-1E+10	1
4902624	26	C	03/08/2025	02:31	-126.751	48.105	0	190.30	0	6.7256	0	33.8923	0	26.586	0	188.614	0	90.5	4	30.4	4	-1E+10	1	0.0493	4	0.000320	0	-1E+10	1	-1E+10	1	-1E+10	1
4902624	26	C	03/08/2025	02:31	-126.751	48.105	0	190.90	0	6.7240	0	33.8920	0	26.586	0	189.209	0	-1e10	1	-1e10	1	-1E+10	1	-1e10	1	-1e10	1	-1E+10	1	-1E+10	1	-1E+10	1
4902624	26	C	03/08/2025	02:31	-126.751	48.105	0	191.40	0	6.7227	0	33.8920	0	26.586	0	189.704	0	90.0	4	30.2	4	-1E+10	1	0.0410	4	0.000372	0	-1E+10	1	-1E+10	1	-1E+10	1
4902624	26	C	03/08/2025	02:31	-126.751	48.105	0	192.50	0	6.7200	0	33.8920	0	26.586	0	190.794	0	89.5	4	30.0	4	-1E+10	1	0.0500	4	0.000531	0	-1E+10	1	-1E+10	1	-1E+10	1
4902624	26	C	03/08/2025	02:31	-126.751	48.105	0	192.90	0	6.7190	0	33.8920	0	26.586	0	191.190	0	-1e10	1	-1e10	1	-1E+10	1	-1e10	1	-1e10	1	-1E+10	1	-1E+10	1	-1E+10	1
4902624	26	C	03/08/2025	02:31	-126.751	48.105	0	193.60	0	6.7008	0	33.8934	0	26.590	0	191.884	0	88.8	4	29.8	4	-1E+10	1	0.0438	4	0.000333	0	-1E+10	1	-1E+10	1	-1E+10	1
4902624	26	C	03/08/2025	02:31	-126.751	48.105	0	194.70	0	6.6722	0	33.8956	0	26.596	0	192.973	0	88.3	4	29.6	4	-1E+10	1	0.0511	4	0.000450	0	-1E+10	1	-1E+10	1	-1E+10	1
4902624	26	C	03/08/2025	02:31	-126.751	48.105	0	194.90	0	6.6670	0	33.8960	0	26.597	0	193.171	0	-1e10	1	-1e10	1	-1E+10	1	-1e10	1	-1e10	1	-1E+10	1	-1E+10	1	-1E+10	1
4902624	26	C	03/08/2025	02:31	-126.751	48.105	0	195.80	0	6.6535	0	33.8969	0	26.599	0	194.063	0	87.7	4	29.4	4	-1E+10	1	0.0511	4	0.000385	0	-1E+10	1	-1E+10	1	-1E+10	1
4902624	26	C	03/08/2025	02:31	-126.751	48.105	0	196.90	0	6.6370	0	33.8980	0	26.602	0	195.153	0	86.0	4	28.8	4	-1E+10	1	0.0466	4	0.000346	0	-1E+10	1	-1E+10	1	-1E+10	1
4902624	26	C	03/08/2025	02:31	-126.751	48.105	0	198.10	0	6.6424	0	33.9010	0	26.604	0	196.342	0	86.6	4	29.0	4	-1E+10	1	0.0438	4	0.000310	0	-1E+10	1	-1E+10	1	-1E+10	1
4902624	26	C	03/08/2025	02:31	-126.751	48.105	0	198.90	0	6.6460	0	33.9030	0	26.605	0	197.134	0	-1e10	1	-1e10	1	-1E+10	1	-1e10	1	-1e10	1	-1E+10	1	-1E+10	1	-1E+10	1
4902624	26	C	03/08/2025	02:31	-126.751	48.105	0	199.20	0	6.6424	0	33.9038	0	26.606	0	197.431	0	86.0	4	28.8	4	-1E+10	1	0.0477	4	0.000291	0	-1E+10	1	-1E+10	1	-1E+10	1
4902624	26	C	03/08/2025	02:31	-126.751	48.105	0	200.30	0	6.6292	0	33.9065	0	26.610	0	198.521	0	85.5	4	28.7	4	-1E+10	1	0.0483	4	0.000313	0	-1E+10	1	-1E+10	1	-1E+10	1
4902624	26	C	03/08/2025	02:31	-126.751	48.105	0	200.90	0	6.6220	0	33.9080	0	26.612	0	199.115	0	-1e10	1	-1e10	1	-1E+10	1	-1e10	1	-1e10	1	-1E+10	1	-1E+10	1	-1E+10	1
4902624	26	C	03/08/2025	02:31	-126.751	48.105	0	201.40	0	6.6108	0	33.9078	0	26.613	0	199.611	0	85.0	4	28.5	4	-1E+10	1	0.0420	4	0.000344	0	-1E+10	1	-1E+10	1	-1E+10	1
4902624	26	C	03/08/2025	02:31	-126.751	48.105	0	202.50	0	6.5860	0	33.9072	0	26.616	0	200.700	0	84.5	4	28.3	4	-1E+10	1	0.0376	4	0.000322	0	-1E+10	1	-1E+10	1	-1E+10	1
4902624	26	C	03/08/2025	02:31	-126.751	48.105	0	202.90	0	6.5770	0	33.9070	0	26.617	0	201.097	0	-1e10	1	-1e10	1	-1E+10	1	-1e10	1	-1e10	1	-1E+10	1	-1E+10	1	-1E+10	1
4902624	26	C	03/08/2025	02:31	-126.751	48.105	0	203.60	0	6.5662	0	33.9081	0	26.619	0	201.790	0	84.1	4	28.1	4	-1E+10	1	0.0438	4	0.000391	0	-1E+10	1	-1E+10	1	-1E+10	1
4902624	26	C	03/08/2025	02:31	-126.751	48.105	0	204.70	0	6.5491	0	33.9097	0	26.623	0	202.880	0	83.7	4	28.0	4	-1E+10	1	0.0438	4	0.000354	0	-1E+10	1	-1E+10	1	-1E+10	1
4902624	26	C	03/08/2025	02:31	-126.751	48.105	0	204.90	0	6.5460	0	33.9100	0	26.624	0	203.078	0	-1e10	1	-1e10	1	-1E+10	1	-1e10	1	-1e10	1	-1E+10	1	-1E+10	1	-1E+10	1
4902624	26	C	03/08/2025	02:31	-126.751	48.105	0	205.80	0	6.5421	0	33.9109	0	26.625	0	203.969	0	83.2	4	27.8	4	-1E+10	1	0.0491	4	0.000327	0	-1E+10	1	-1E+10	1	-1E+10	1
4902624	26	C	03/08/2025	02:31	-126.751	48.105	0	207.00	0	6.5370	0	33.9120	0	26.626	0	205.158	0	81.6	4	27.3	4	-1E+10	1	0.0460	4	0.000305	0	-1E+10	1	-1E+10	1	-1E+10	1
4902624	26	C	03/08/2025	02:31	-126.751	48.105	0	208.10	0	6.5370	0	33.9131	0	26.627	0	206.248	0	82.2	4	27.5	4	-1E+10	1	0.0477	4	0.000304	0	-1E+10	1	-1E+10	1	-1E+10	1
4902624	26	C	03/08/2025	02:31	-126.751	48.105	0	209.00	0	6.5370	0	33.9140	0	26.628	0	207.139	0	-1e10	1	-1e10	1	-1E+10	1	-1e10	1	-1e10	1	-1E+10	1	-1E+10	1	-1E+10	1
4902624	26	C	03/08/2025	02:31	-126.751	48.105	0	209.20	0	6.5360	0	33.9144	0	26.629	0	207.337	0	81.7	4	27.3	4	-1E+10	1	0.0511	4	0.000329	0	-1E+10	1	-1E+10	1	-1E+10	1
4902624	26	C	03/08/2025	02:31	-126.751	48.105	0	210.30	0	6.5305	0	33.9166	0	26.631	0	208.427	0	81.2	4	27.2	4	-1E+10	1	0.0466	4	0.000345	0	-1E+10	1	-1E+10	1	-1E+10	1
4902624	26	C	03/08/2025	02:31	-126.751	48.105	0	211.00	0	6.5270	0	33.9180	0	26.633	0	209.121	0	-1e10	1	-1e10	1	-1E+10	1	-1e10	1	-1e10	1	-1E+10	1	-1E+10	1	-1E+10	1
4902624	26	C	03/08/2025	02:31	-126.751	48.105	0	211.50	0	6.5245	0	33.9185	0	26.633	0	209.616	0	80.8	4	27.0	4	-1E+10	1	0.0396	4	0.000318	0	-1E+10	1	-1E+10	1	-1E+10	1
4902624	26	C	03/08/2025	02:31	-126.751	48.105	0	212.60	0	6.5190	0	33.9196	0	26.635	0	210.705	0	80.3	4	26.9	4	-1E+10	1	0.0511	4	0.000309	0	-1E+10	1	-1E+10	1	-1E+10	1
4902624	26	C	03/08/2025	02:31	-126.751	48.105	0	213.00	0	6.5170	0	33.9200	0	26.635	0	211.102	0	-1e10	1	-1e10	1	-1E+10	1	-1e10	1	-1e10	1	-1E+10	1	-1E+10	1	-1E+10	1
4902624	26	C	03/08/2025	02:31	-126.751	48.105	0	213.70	0	6.5142	0	33.9210	0	26.637	0	211.795	0	79.8	4	26.7	4	-1E+10	1	0.0511	4	0.000333	0	-1E+10	1	-1E+10	1	-1E+10	1
4902624	26	C	03/08/2025	02:31	-126.751	48.105	0	214.80	0	6.5098	0	33.9227	0	26.639	0	212.885	0	79.4	4	26.5	4	-1E+10	1	0.0573	4	0.000278	0	-1E+10	1	-1E+10	1	-1E+10	1
4902624	26	C	03/08/2025	02:31	-126.751	48.105	0	215.00	0	6.5090	0	33.9230	0	26.639	0	213.083	0	-1e10	1	-1e10	1	-1E+10	1	-1e10	1	-1e10	1	-1E+10	1	-1E+10	1	-1E+10	1
4902624	26	C	03/08/2025	02:31	-126.751	48.105	0	215.90	0	6.5094	0	33.9248	0	26.640	0	213.974	0	79.0	4	26.4	4	-1E+10	1	0.0490	4	0.000294	0	-1E+10	1	-1E+10	1	-1E+10	1
4902624	26	C	03/08/2025	02:31	-126.751	48.105	0	217.00	0	6.5100	0	33.9270	0	26.642	0	215.064	0	-1e10	1	-1e10	1	-1E+10	1	-1e10	1	-1e10	1	-1E+10	1	-1E+10	1	-1E+10	1
4902624	26	C	03/08/2025	02:31	-126.751	48.105	0	217.10	0	6.5089	0	33.9272	0	26.642	0	215.163	0	78.6	4	26.3	4	-1E+10	1	0.0577	4	0.000324	0	-1E+10	1	-1E+10	1	-1E+10	1
4902624	26	C	03/08/2025	02:31	-126.751	48.105	0	218.20	0	6.4967	0	33.9289	0	26.645	0	216.253	0	78.3	4	26.2	4	-1E+10	1	0.0529	4	0.000312	0	-1E+10	1	-1E+10	1	-1E+10	1
4902624	26	C	03/08/2025	02:31	-126.751	48.105	0	218.90	0	6.4890	0	33.9300	0	26.647	0	216.946	0	-1e10	1	-1e10	1	-1E+10	1	-1e10	1	-1e10	1	-1E+10	1	-1E+10	1	-1E+10	1
4902624	26	C	03/08/2025	02:31	-126.751	48.105	0	219.40	0	6.4850	0	33.9305	0	26.648	0	217.441	0	78.0	4	26.1	4	-1E+10	1	0.0402	4	0.000327	0	-1E+10	1	-1E+10	1	-1E+10	1
4902624	26	C	03/08/2025	02:31	-126.751	48.105	0	220.50	0	6.4760	0	33.9315	0	26.650	0	218.531	0	77.7	4	25.9	4	-1E+10	1	0.0418	4	0.000339	0	-1E+10	1	-1E+10	1	-1E+10	1
4902624	26	C	03/08/2025	02:31	-126.751	48.105	0	221.00	0	6.4720	0	33.9320	0	26.651	0	219.026	0	-1e10	1	-1e10	1	-1E+10	1	-1e10	1	-1e10	1	-1E+10	1	-1E+10	1	-1E+10	1
4902624	26	C	03/08/2025	02:31	-126.751	48.105	0	221.70	0	6.4667	0	33.9323	0	26.652	0	219.720	0	77.4	4	25.8	4	-1E+10	1	0.0511	4	0.000309	0	-1E+10	1	-1E+10	1	-1E+10	1
4902624	26	C	03/08/2025	02:31	-126.751	48.105	0	222.90	0	6.4575	0	33.9329	0	26.654	0	220.908	0	77.1	4	25.7	4	-1E+10	1	0.0527	4	0.000299	0	-1E+10	1	-1E+10	1	-1E+10	1
4902624	26	C	03/08/2025	02:31	-126.751	48.105	0	223.10	0	6.4560	0	33.9330	0	26.654	0	221.106	0	-1e10	1	-1e10	1	-1E+10	1	-1e10	1	-1e10	1	-1E+10	1	-1E+10	1	-1E+10	1
4902624	26	C	03/08/2025	02:31	-126.751	48.105	0	224.00	0	6.4508	0	33.9335	0	26.655	0	221.998	0	76.8	4	25.6	4	-1E+10	1	0.0584	4	0.000262	0	-1E+10	1	-1E+10	1	-1E+10	1
4902624	26	C	03/08/2025	02:31	-126.751	48.105	0	225.00	0	6.4450	0	33.9340	0	26.656	0	222.988	0	-1e10	1	-1e10	1	-1E+10	1	-1e10	1	-1e10	1	-1E+10	1	-1E+10	1	-1E+10	1
4902624	26	C	03/08/2025	02:31	-126.751	48.105	0	225.20	0	6.4398	0	33.9339	0	26.657	0	223.186	0	76.5	4	25.5	4	-1E+10	1	0.0511	4	0.000309	0	-1E+10	1	-1E+10	1	-1E+10	1
4902624	26	C	03/08/2025	02:31	-126.751	48.105	0	226.30	0	6.4112	0	33.9333	0	26.660	0	224.276	0	76.2	4	25.4	4	-1E+10	1	0.0511	4	0.000319	0	-1E+10	1	-1E+10	1	-1E+10	1
4902624	26	C	03/08/2025	02:31	-126.751	48.105	0	227.00	0	6.3930	0	33.9330	0	26.662	0	224.969	0	-1e10	1	-1e10	1	-1E+10	1	-1e10	1	-1e10	1	-1E+10	1	-1E+10	1	-1E+10	1
4902624	26	C	03/08/2025	02:31	-126.751	48.105	0	227.50	0	6.3885	0	33.9330	0	26.663	0	225.465	0	75.9	4	25.3	4	-1E+10	1	0.0511	4	0.000321	0	-1E+10	1	-1E+10	1	-1E+10	1
4902624	26	C	03/08/2025	02:31	-126.751	48.105	0	228.70	0	6.3777	0	33.9330	0	26.664	0	226.653	0	75.5	4	25.2	4	-1E+10	1	0.0418	4	0.000313	0	-1E+10	1	-1E+10	1	-1E+10	1
4902624	26	C	03/08/2025	02:31	-126.751	48.105	0	229.00	0	6.3750	0	33.9330	0	26.664	0	226.950	0	-1e10	1	-1e10	1	-1E+10	1	-1e10	1	-1e10	1	-1E+10	1	-1E+10	1	-1E+10	1
4902624	26	C	03/08/2025	02:31	-126.751	48.105	0	229.80	0	6.3638	0	33.9334	0	26.666	0	227.743	0	75.2	4	25.1	4	-1E+10	1	0.0474	4	0.000397	0	-1E+10	1	-1E+10	1	-1E+10	1
4902624	26	C	03/08/2025	02:31	-126.751	48.105	0	231.00	0	6.3470	0	33.9340	0	26.669	0	228.931	0	73.8	4	24.6	4	-1E+10	1	0.0584	4	0.000430	0	-1E+10	1	-1E+10	1	-1E+10	1
4902624	26	C	03/08/2025	02:31	-126.751	48.105	0	232.20	0	6.3254	0	33.9358	0	26.673	0	230.120	0	74.5	4	24.8	4	-1E+10	1	0.0572	4	0.000319	0	-1E+10	1	-1E+10	1	-1E+10	1
4902624	26	C	03/08/2025	02:31	-126.751	48.105	0	233.00	0	6.3110	0	33.9370	0	26.676	0	230.912	0	-1e10	1	-1e10	1	-1E+10	1	-1e10	1	-1e10	1	-1E+10	1	-1E+10	1	-1E+10	1
4902624	26	C	03/08/2025	02:31	-126.751	48.105	0	233.40	0	6.3076	0	33.9370	0	26.676	0	231.308	0	74.2	4	24.7	4	-1E+10	1	0.0511	4	0.000312	0	-1E+10	1	-1E+10	1	-1E+10	1
4902624	26	C	03/08/2025	02:31	-126.751	48.105	0	234.60	0	6.2975	0	33.9370	0	26.678	0	232.497	0	73.9	4	24.6	4	-1E+10	1	0.0511	4	0.000332	0	-1E+10	1	-1E+10	1	-1E+10	1
4902624	26	C	03/08/2025	02:31	-126.751	48.105	0	234.90	0	6.2950	0	33.9370	0	26.678	0	232.794	0	-1e10	1	-1e10	1	-1E+10	1	-1e10	1	-1e10	1	-1E+10	1	-1E+10	1	-1E+10	1
4902624	26	C	03/08/2025	02:31	-126.751	48.105	0	235.80	0	6.2864	0	33.9370	0	26.679	0	233.686	0	73.6	4	24.5	4	-1E+10	1	0.0386	4	0.000312	0	-1E+10	1	-1E+10	1	-1E+10	1
4902624	26	C	03/08/2025	02:31	-126.751	48.105	0	237.00	0	6.2750	0	33.9370	0	26.681	0	234.874	0	72.2	4	24.0	4	-1E+10	1	0.0487	4	0.000309	0	-1E+10	1	-1E+10	1	-1E+10	1
4902624	26	C	03/08/2025	02:31	-126.751	48.105	0	238.20	0	6.2510	0	33.9382	0	26.685	0	236.063	0	72.9	4	24.2	4	-1E+10	1	0.0511	4	0.000309	0	-1E+10	1	-1E+10	1	-1E+10	1
4902624	26	C	03/08/2025	02:31	-126.751	48.105	0	239.00	0	6.2350	0	33.9390	0	26.687	0	236.855	0	-1e10	1	-1e10	1	-1E+10	1	-1e10	1	-1e10	1	-1E+10	1	-1E+10	1	-1E+10	1
4902624	26	C	03/08/2025	02:31	-126.751	48.105	0	239.40	0	6.2262	0	33.9388	0	26.688	0	237.251	0	72.6	4	24.1	4	-1E+10	1	0.0511	4	0.000350	0	-1E+10	1	-1E+10	1	-1E+10	1
4902624	26	C	03/08/2025	02:31	-126.751	48.105	0	240.60	0	6.1998	0	33.9382	0	26.691	0	238.440	0	72.2	4	24.0	4	-1E+10	1	0.0572	4	0.000357	0	-1E+10	1	-1E+10	1	-1E+10	1
4902624	26	C	03/08/2025	02:31	-126.751	48.105	0	241.00	0	6.1910	0	33.9380	0	26.692	0	238.836	0	-1e10	1	-1e10	1	-1E+10	1	-1e10	1	-1e10	1	-1E+10	1	-1E+10	1	-1E+10	1
4902624	26	C	03/08/2025	02:31	-126.751	48.105	0	241.80	0	6.1838	0	33.9376	0	26.693	0	239.628	0	71.8	4	23.8	4	-1E+10	1	0.0608	4	0.000301	0	-1E+10	1	-1E+10	1	-1E+10	1
4902624	26	C	03/08/2025	02:31	-126.751	48.105	0	242.90	0	6.1740	0	33.9370	0	26.693	0	240.718	0	-1e10	1	-1e10	1	-1E+10	1	-1e10	1	-1e10	1	-1E+10	1	-1E+10	1	-1E+10	1
4902624	26	C	03/08/2025	02:31	-126.751	48.105	0	243.00	0	6.1733	0	33.9370	0	26.694	0	240.817	0	71.3	4	23.7	4	-1E+10	1	0.0521	4	0.000290	0	-1E+10	1	-1E+10	1	-1E+10	1
4902624	26	C	03/08/2025	02:31	-126.751	48.105	0	244.30	0	6.1647	0	33.9377	0	26.695	0	242.104	0	70.8	4	23.5	4	-1E+10	1	0.0584	4	0.000321	0	-1E+10	1	-1E+10	1	-1E+10	1
4902624	26	C	03/08/2025	02:31	-126.751	48.105	0	245.00	0	6.1600	0	33.9380	0	26.696	0	242.798	0	-1e10	1	-1e10	1	-1E+10	1	-1e10	1	-1e10	1	-1E+10	1	-1E+10	1	-1E+10	1
4902624	26	C	03/08/2025	02:31	-126.751	48.105	0	245.50	0	6.1507	0	33.9392	0	26.698	0	243.293	0	70.5	4	23.4	4	-1E+10	1	0.0584	4	0.000309	0	-1E+10	1	-1E+10	1	-1E+10	1
4902624	26	C	03/08/2025	02:31	-126.751	48.105	0	246.70	0	6.1284	0	33.9420	0	26.703	0	244.481	0	70.2	4	23.3	4	-1E+10	1	0.0642	4	0.000299	0	-1E+10	1	-1E+10	1	-1E+10	1
4902624	26	C	03/08/2025	02:31	-126.751	48.105	0	247.10	0	6.1210	0	33.9430	0	26.705	0	244.878	0	-1e10	1	-1e10	1	-1E+10	1	-1e10	1	-1e10	1	-1E+10	1	-1E+10	1	-1E+10	1
4902624	26	C	03/08/2025	02:31	-126.751	48.105	0	248.00	0	6.1214	0	33.9430	0	26.705	0	245.769	0	69.8	4	23.1	4	-1E+10	1	0.0560	4	0.000289	0	-1E+10	1	-1E+10	1	-1E+10	1
4902624	26	C	03/08/2025	02:31	-126.751	48.105	0	249.10	0	6.1220	0	33.9430	0	26.705	0	246.858	0	-1e10	1	-1e10	1	-1E+10	1	-1e10	1	-1e10	1	-1E+10	1	-1E+10	1	-1E+10	1
4902624	26	C	03/08/2025	02:31	-126.751	48.105	0	249.20	0	6.1221	0	33.9431	0	26.705	0	246.957	0	69.5	4	23.0	4	-1E+10	1	0.0468	4	0.000333	0	-1E+10	1	-1E+10	1	-1E+10	1
4902624	26	C	03/08/2025	02:31	-126.751	48.105	0	250.40	0	6.1227	0	33.9436	0	26.705	0	248.146	0	69.1	4	22.9	4	-1E+10	1	0.0438	4	0.000335	0	-1E+10	1	-1E+10	1	-1E+10	1
4902624	26	C	03/08/2025	02:31	-126.751	48.105	0	251.10	0	6.1230	0	33.9440	0	26.706	0	248.839	0	-1e10	1	-1e10	1	-1E+10	1	-1e10	1	-1e10	1	-1E+10	1	-1E+10	1	-1E+10	1
4902624	26	C	03/08/2025	02:31	-126.751	48.105	0	251.70	0	6.1198	0	33.9446	0	26.706	0	249.433	0	68.8	4	22.8	4	-1E+10	1	0.0511	4	0.000442	0	-1E+10	1	-1E+10	1	-1E+10	1
4902624	26	C	03/08/2025	02:31	-126.751	48.105	0	252.90	0	6.1135	0	33.9459	0	26.708	0	250.622	0	68.5	4	22.7	4	-1E+10	1	0.0621	4	0.000663	0	-1E+10	1	-1E+10	1	-1E+10	1
4902624	26	C	03/08/2025	02:31	-126.751	48.105	0	253.00	0	6.1130	0	33.9460	0	26.708	0	250.721	0	-1e10	1	-1e10	1	-1E+10	1	-1e10	1	-1e10	1	-1E+10	1	-1E+10	1	-1E+10	1
4902624	26	C	03/08/2025	02:31	-126.751	48.105	0	254.20	0	6.0908	0	33.9460	0	26.711	0	251.909	0	68.2	4	22.6	4	-1E+10	1	0.0511	4	0.000318	0	-1E+10	1	-1E+10	1	-1E+10	1
4902624	26	C	03/08/2025	02:31	-126.751	48.105	0	255.00	0	6.0760	0	33.9460	0	26.713	0	252.702	0	-1e10	1	-1e10	1	-1E+10	1	-1e10	1	-1e10	1	-1E+10	1	-1E+10	1	-1E+10	1
4902624	26	C	03/08/2025	02:31	-126.751	48.105	0	255.40	0	6.0700	0	33.9466	0	26.714	0	253.098	0	67.9	4	22.5	4	-1E+10	1	0.0803	4	0.000309	0	-1E+10	1	-1E+10	1	-1E+10	1
4902624	26	C	03/08/2025	02:31	-126.751	48.105	0	256.70	0	6.0505	0	33.9486	0	26.718	0	254.385	0	67.6	4	22.4	4	-1E+10	1	0.0550	4	0.000339	0	-1E+10	1	-1E+10	1	-1E+10	1
4902624	26	C	03/08/2025	02:31	-126.751	48.105	0	257.00	0	6.0460	0	33.9490	0	26.719	0	254.682	0	-1e10	1	-1e10	1	-1E+10	1	-1e10	1	-1e10	1	-1E+10	1	-1E+10	1	-1E+10	1
4902624	26	C	03/08/2025	02:31	-126.751	48.105	0	257.90	0	6.0406	0	33.9504	0	26.721	0	255.574	0	67.5	4	22.3	4	-1E+10	1	0.0567	4	0.000308	0	-1E+10	1	-1E+10	1	-1E+10	1
4902624	26	C	03/08/2025	02:31	-126.751	48.105	0	259.00	0	6.0340	0	33.9520	0	26.723	0	256.663	0	-1e10	1	-1e10	1	-1E+10	1	-1e10	1	-1e10	1	-1E+10	1	-1E+10	1	-1E+10	1
4902624	26	C	03/08/2025	02:31	-126.751	48.105	0	259.20	0	6.0336	0	33.9519	0	26.723	0	256.861	0	67.4	4	22.3	4	-1E+10	1	0.0535	4	0.000320	0	-1E+10	1	-1E+10	1	-1E+10	1
4902624	26	C	03/08/2025	02:31	-126.751	48.105	0	260.40	0	6.0313	0	33.9513	0	26.723	0	258.050	0	67.3	4	22.3	4	-1E+10	1	0.0511	4	0.000332	0	-1E+10	1	-1E+10	1	-1E+10	1
4902624	26	C	03/08/2025	02:31	-126.751	48.105	0	261.10	0	6.0300	0	33.9510	0	26.723	0	258.743	0	-1e10	1	-1e10	1	-1E+10	1	-1e10	1	-1e10	1	-1E+10	1	-1E+10	1	-1E+10	1
4902624	26	C	03/08/2025	02:31	-126.751	48.105	0	261.70	0	6.0219	0	33.9507	0	26.724	0	259.337	0	67.1	4	22.2	4	-1E+10	1	0.0511	4	0.000323	0	-1E+10	1	-1E+10	1	-1E+10	1
4902624	26	C	03/08/2025	02:31	-126.751	48.105	0	263.00	0	6.0043	0	33.9501	0	26.725	0	260.625	0	66.8	4	22.1	4	-1E+10	1	0.0537	4	0.000300	0	-1E+10	1	-1E+10	1	-1E+10	1
4902624	26	C	03/08/2025	02:31	-126.751	48.105	0	263.10	0	6.0030	0	33.9500	0	26.726	0	260.724	0	-1e10	1	-1e10	1	-1E+10	1	-1e10	1	-1e10	1	-1E+10	1	-1E+10	1	-1E+10	1
4902624	26	C	03/08/2025	02:31	-126.751	48.105	0	264.20	0	5.9903	0	33.9500	0	26.727	0	261.813	0	66.5	4	22.0	4	-1E+10	1	0.0584	4	0.000330	0	-1E+10	1	-1E+10	1	-1E+10	1
4902624	26	C	03/08/2025	02:31	-126.751	48.105	0	265.10	0	5.9800	0	33.9500	0	26.728	0	262.704	0	-1e10	1	-1e10	1	-1E+10	1	-1e10	1	-1e10	1	-1E+10	1	-1E+10	1	-1E+10	1
4902624	26	C	03/08/2025	02:31	-126.751	48.105	0	265.30	0	5.9771	0	33.9502	0	26.729	0	262.902	0	66.2	4	21.9	4	-1E+10	1	0.0584	4	0.000496	0	-1E+10	1	-1E+10	1	-1E+10	1
4902624	26	C	03/08/2025	02:31	-126.751	48.105	0	266.40	0	5.9612	0	33.9514	0	26.732	0	263.992	0	66.0	4	21.8	4	-1E+10	1	0.0657	4	0.000250	0	-1E+10	1	-1E+10	1	-1E+10	1
4902624	26	C	03/08/2025	02:31	-126.751	48.105	0	266.90	0	5.9540	0	33.9520	0	26.733	0	264.487	0	-1e10	1	-1e10	1	-1E+10	1	-1e10	1	-1e10	1	-1E+10	1	-1E+10	1	-1E+10	1
4902624	26	C	03/08/2025	02:31	-126.751	48.105	0	267.30	0	5.9470	0	33.9524	0	26.734	0	264.883	0	65.8	4	21.7	4	-1E+10	1	0.0394	4	0.000292	0	-1E+10	1	-1E+10	1	-1E+10	1
4902624	26	C	03/08/2025	02:31	-126.751	48.105	0	268.00	0	5.9348	0	33.9531	0	26.737	0	265.576	0	65.6	4	21.7	4	-1E+10	1	0.0511	4	0.000281	0	-1E+10	1	-1E+10	1	-1E+10	1
4902624	26	C	03/08/2025	02:31	-126.751	48.105	0	268.80	0	5.9208	0	33.9539	0	26.739	0	266.368	0	65.4	4	21.6	4	-1E+10	1	0.0584	4	0.000280	0	-1E+10	1	-1E+10	1	-1E+10	1
4902624	26	C	03/08/2025	02:31	-126.751	48.105	0	268.90	0	5.9190	0	33.9540	0	26.739	0	266.467	0	-1e10	1	-1e10	1	-1E+10	1	-1e10	1	-1e10	1	-1E+10	1	-1E+10	1	-1E+10	1
4902624	26	C	03/08/2025	02:31	-126.751	48.105	0	269.60	0	5.9150	0	33.9540	0	26.740	0	267.161	0	65.3	4	21.5	4	-1E+10	1	0.0616	4	0.000270	0	-1E+10	1	-1E+10	1	-1E+10	1
4902624	26	C	03/08/2025	02:31	-126.751	48.105	0	270.40	0	5.9104	0	33.9540	0	26.740	0	267.953	0	65.1	4	21.5	4	-1E+10	1	0.0613	4	0.000271	0	-1E+10	1	-1E+10	1	-1E+10	1
4902624	26	C	03/08/2025	02:31	-126.751	48.105	0	271.00	0	5.9070	0	33.9540	0	26.741	0	268.547	0	-1e10	1	-1e10	1	-1E+10	1	-1e10	1	-1e10	1	-1E+10	1	-1E+10	1	-1E+10	1
4902624	26	C	03/08/2025	02:31	-126.751	48.105	0	271.20	0	5.9063	0	33.9541	0	26.741	0	268.745	0	64.9	4	21.4	4	-1E+10	1	0.0502	4	0.000312	0	-1E+10	1	-1E+10	1	-1E+10	1
4902624	26	C	03/08/2025	02:31	-126.751	48.105	0	272.00	0	5.9035	0	33.9545	0	26.742	0	269.537	0	64.6	4	21.3	4	-1E+10	1	0.0438	4	0.000251	0	-1E+10	1	-1E+10	1	-1E+10	1
4902624	26	C	03/08/2025	02:31	-126.751	48.105	0	272.80	0	5.9007	0	33.9549	0	26.742	0	270.330	0	64.4	4	21.2	4	-1E+10	1	0.0438	4	0.000262	0	-1E+10	1	-1E+10	1	-1E+10	1
4902624	26	C	03/08/2025	02:31	-126.751	48.105	0	273.00	0	5.9000	0	33.9550	0	26.742	0	270.528	0	-1e10	1	-1e10	1	-1E+10	1	-1e10	1	-1e10	1	-1E+10	1	-1E+10	1	-1E+10	1
4902624	26	C	03/08/2025	02:31	-126.751	48.105	0	273.60	0	5.8946	0	33.9556	0	26.744	0	271.122	0	64.2	4	21.2	4	-1E+10	1	0.0380	4	0.000459	0	-1E+10	1	-1E+10	1	-1E+10	1
4902624	26	C	03/08/2025	02:31	-126.751	48.105	0	274.40	0	5.8874	0	33.9564	0	26.745	0	271.914	0	63.9	4	21.1	4	-1E+10	1	0.0490	4	0.000317	0	-1E+10	1	-1E+10	1	-1E+10	1
4902624	26	C	03/08/2025	02:31	-126.751	48.105	0	275.00	0	5.8820	0	33.9570	0	26.746	0	272.508	0	-1e10	1	-1e10	1	-1E+10	1	-1e10	1	-1e10	1	-1E+10	1	-1E+10	1	-1E+10	1
4902624	26	C	03/08/2025	02:31	-126.751	48.105	0	275.20	0	5.8823	0	33.9573	0	26.746	0	272.706	0	63.7	4	21.0	4	-1E+10	1	0.0562	4	0.000285	0	-1E+10	1	-1E+10	1	-1E+10	1
4902624	26	C	03/08/2025	02:31	-126.751	48.105	0	276.00	0	5.8834	0	33.9584	0	26.747	0	273.499	0	63.5	4	20.9	4	-1E+10	1	0.0511	4	0.000279	0	-1E+10	1	-1E+10	1	-1E+10	1
4902624	26	C	03/08/2025	02:31	-126.751	48.105	0	276.80	0	5.8846	0	33.9596	0	26.748	0	274.291	0	63.3	4	20.9	4	-1E+10	1	0.0493	4	0.000282	0	-1E+10	1	-1E+10	1	-1E+10	1
4902624	26	C	03/08/2025	02:31	-126.751	48.105	0	277.10	0	5.8850	0	33.9600	0	26.748	0	274.588	0	-1e10	1	-1e10	1	-1E+10	1	-1e10	1	-1e10	1	-1E+10	1	-1E+10	1	-1E+10	1
4902624	26	C	03/08/2025	02:31	-126.751	48.105	0	277.60	0	5.8847	0	33.9603	0	26.749	0	275.083	0	63.1	4	20.8	4	-1E+10	1	0.0562	4	0.000304	0	-1E+10	1	-1E+10	1	-1E+10	1
4902624	26	C	03/08/2025	02:31	-126.751	48.105	0	278.40	0	5.8843	0	33.9607	0	26.749	0	275.875	0	63.0	4	20.7	4	-1E+10	1	0.0511	4	0.000316	0	-1E+10	1	-1E+10	1	-1E+10	1
4902624	26	C	03/08/2025	02:31	-126.751	48.105	0	279.00	0	5.8840	0	33.9610	0	26.749	0	276.469	0	-1e10	1	-1e10	1	-1E+10	1	-1e10	1	-1e10	1	-1E+10	1	-1E+10	1	-1E+10	1
4902624	26	C	03/08/2025	02:31	-126.751	48.105	0	279.20	0	5.8808	0	33.9610	0	26.750	0	276.667	0	62.7	4	20.7	4	-1E+10	1	0.0511	4	0.000285	0	-1E+10	1	-1E+10	1	-1E+10	1
4902624	26	C	03/08/2025	02:31	-126.751	48.105	0	280.10	0	5.8664	0	33.9610	0	26.751	0	277.559	0	62.5	4	20.6	4	-1E+10	1	0.0511	4	0.000262	0	-1E+10	1	-1E+10	1	-1E+10	1
4902624	26	C	03/08/2025	02:31	-126.751	48.105	0	280.90	0	5.8536	0	33.9610	0	26.753	0	278.351	0	62.3	4	20.5	4	-1E+10	1	0.0576	4	0.000350	0	-1E+10	1	-1E+10	1	-1E+10	1
4902624	26	C	03/08/2025	02:31	-126.751	48.105	0	281.00	0	5.8520	0	33.9610	0	26.753	0	278.450	0	-1e10	1	-1e10	1	-1E+10	1	-1e10	1	-1e10	1	-1E+10	1	-1E+10	1	-1E+10	1
4902624	26	C	03/08/2025	02:31	-126.751	48.105	0	281.70	0	5.8464	0	33.9606	0	26.754	0	279.143	0	62.1	4	20.4	4	-1E+10	1	0.0482	4	0.000283	0	-1E+10	1	-1E+10	1	-1E+10	1
4902624	26	C	03/08/2025	02:31	-126.751	48.105	0	282.50	0	5.8400	0	33.9603	0	26.754	0	279.935	0	61.8	4	20.4	4	-1E+10	1	0.0438	4	0.000272	0	-1E+10	1	-1E+10	1	-1E+10	1
4902624	26	C	03/08/2025	02:31	-126.751	48.105	0	283.00	0	5.8360	0	33.9600	0	26.754	0	280.430	0	-1e10	1	-1e10	1	-1E+10	1	-1e10	1	-1e10	1	-1E+10	1	-1E+10	1	-1E+10	1
4902624	26	C	03/08/2025	02:31	-126.751	48.105	0	283.30	0	5.8334	0	33.9604	0	26.755	0	280.727	0	61.5	4	20.2	4	-1E+10	1	0.0511	4	0.000291	0	-1E+10	1	-1E+10	1	-1E+10	1
4902624	26	C	03/08/2025	02:31	-126.751	48.105	0	284.20	0	5.8257	0	33.9617	0	26.757	0	281.619	0	61.2	4	20.2	4	-1E+10	1	0.0613	4	0.000766	0	-1E+10	1	-1E+10	1	-1E+10	1
4902624	26	C	03/08/2025	02:31	-126.751	48.105	0	285.00	0	5.8189	0	33.9629	0	26.759	0	282.411	0	60.9	4	20.1	4	-1E+10	1	0.0639	4	0.001177	0	-1E+10	1	-1E+10	1	-1E+10	1
4902624	26	C	03/08/2025	02:31	-126.751	48.105	0	285.10	0	5.8180	0	33.9630	0	26.759	0	282.510	0	-1e10	1	-1e10	1	-1E+10	1	-1e10	1	-1e10	1	-1E+10	1	-1E+10	1	-1E+10	1
4902624	26	C	03/08/2025	02:31	-126.751	48.105	0	285.80	0	5.8136	0	33.9637	0	26.760	0	283.203	0	60.7	4	20.0	4	-1E+10	1	0.0599	4	0.000290	0	-1E+10	1	-1E+10	1	-1E+10	1
4902624	26	C	03/08/2025	02:31	-126.751	48.105	0	286.60	0	5.8085	0	33.9646	0	26.761	0	283.995	0	60.4	4	19.9	4	-1E+10	1	0.0657	4	0.000262	0	-1E+10	1	-1E+10	1	-1E+10	1
4902624	26	C	03/08/2025	02:31	-126.751	48.105	0	287.00	0	5.8060	0	33.9650	0	26.762	0	284.391	0	-1e10	1	-1e10	1	-1E+10	1	-1e10	1	-1e10	1	-1E+10	1	-1E+10	1	-1E+10	1
4902624	26	C	03/08/2025	02:31	-126.751	48.105	0	287.40	0	5.8044	0	33.9652	0	26.762	0	284.787	0	60.1	4	19.8	4	-1E+10	1	0.0482	4	0.000271	0	-1E+10	1	-1E+10	1	-1E+10	1
4902624	26	C	03/08/2025	02:31	-126.751	48.105	0	288.20	0	5.8012	0	33.9656	0	26.763	0	285.580	0	59.7	4	19.7	4	-1E+10	1	0.0438	4	0.000291	0	-1E+10	1	-1E+10	1	-1E+10	1
4902624	26	C	03/08/2025	02:31	-126.751	48.105	0	289.00	0	5.7980	0	33.9660	0	26.764	0	286.372	0	-1e10	1	-1e10	1	-1E+10	1	-1e10	1	-1e10	1	-1E+10	1	-1E+10	1	-1E+10	1
4902624	26	C	03/08/2025	02:31	-126.751	48.105	0	289.10	0	5.7974	0	33.9661	0	26.764	0	286.471	0	59.4	4	19.5	4	-1E+10	1	0.0608	4	0.000251	0	-1E+10	1	-1E+10	1	-1E+10	1
4902624	26	C	03/08/2025	02:31	-126.751	48.105	0	289.90	0	5.7924	0	33.9673	0	26.766	0	287.263	0	59.1	4	19.4	4	-1E+10	1	0.0569	4	0.000238	0	-1E+10	1	-1E+10	1	-1E+10	1
4902624	26	C	03/08/2025	02:31	-126.751	48.105	0	290.80	0	5.7869	0	33.9686	0	26.767	0	288.154	0	58.7	4	19.3	4	-1E+10	1	0.0511	4	0.000234	0	-1E+10	1	-1E+10	1	-1E+10	1
4902624	26	C	03/08/2025	02:31	-126.751	48.105	0	291.10	0	5.7850	0	33.9690	0	26.768	0	288.451	0	-1e10	1	-1e10	1	-1E+10	1	-1e10	1	-1e10	1	-1E+10	1	-1E+10	1	-1E+10	1
4902624	26	C	03/08/2025	02:31	-126.751	48.105	0	291.60	0	5.7815	0	33.9697	0	26.769	0	288.946	0	58.5	4	19.2	4	-1E+10	1	0.0620	4	0.000229	0	-1E+10	1	-1E+10	1	-1E+10	1
4902624	26	C	03/08/2025	02:31	-126.751	48.105	0	292.40	0	5.7759	0	33.9710	0	26.771	0	289.738	0	58.2	4	19.1	4	-1E+10	1	0.0708	4	0.000249	0	-1E+10	1	-1E+10	1	-1E+10	1
4902624	26	C	03/08/2025	02:31	-126.751	48.105	0	293.10	0	5.7710	0	33.9720	0	26.772	0	290.432	0	-1e10	1	-1e10	1	-1E+10	1	-1e10	1	-1e10	1	-1E+10	1	-1E+10	1	-1E+10	1
4902624	26	C	03/08/2025	02:31	-126.751	48.105	0	293.40	0	5.7689	0	33.9723	0	26.772	0	290.729	0	57.9	4	19.0	4	-1E+10	1	0.0649	4	0.000300	0	-1E+10	1	-1E+10	1	-1E+10	1
4902624	26	C	03/08/2025	02:31	-126.751	48.105	0	295.10	0	5.7570	0	33.9740	0	26.775	0	292.412	0	-1e10	1	-1e10	1	-1E+10	1	-1e10	1	-1e10	1	-1E+10	1	-1E+10	1	-1E+10	1
4902624	26	C	03/08/2025	02:31	-126.751	48.105	0	297.10	0	5.7570	0	33.9760	0	26.777	0	294.392	0	-1e10	1	-1e10	1	-1E+10	1	-1e10	1	-1e10	1	-1E+10	1	-1E+10	1	-1E+10	1
4902624	26	C	03/08/2025	02:31	-126.751	48.105	0	299.10	0	5.7800	0	33.9820	0	26.779	0	296.373	0	-1e10	1	-1e10	1	-1E+10	1	-1e10	1	-1e10	1	-1E+10	1	-1E+10	1	-1E+10	1
4902624	26	C	03/08/2025	02:31	-126.751	48.105	0	302.00	0	5.7720	0	33.9845	0	26.782	0	299.244	0	55.5	4	18.3	4	-1E+10	1	0.0448	4	0.000244	0	-1E+10	1	-1E+10	1	-1E+10	1
4902624	26	C	03/08/2025	02:31	-126.751	48.105	0	304.90	0	5.7640	0	33.9870	0	26.785	0	302.116	0	-1e10	1	-1e10	1	-1E+10	1	-1e10	1	-1e10	1	-1E+10	1	-1E+10	1	-1E+10	1
4902624	26	C	03/08/2025	02:31	-126.751	48.105	0	310.90	0	5.7131	0	33.9882	0	26.792	0	308.056	0	54.0	4	17.7	4	-1E+10	1	0.0723	4	0.000409	0	-1E+10	1	-1E+10	1	-1E+10	1
4902624	26	C	03/08/2025	02:31	-126.751	48.105	0	314.80	0	5.6800	0	33.9890	0	26.797	0	311.918	0	-1e10	1	-1e10	1	-1E+10	1	-1e10	1	-1e10	1	-1E+10	1	-1E+10	1	-1E+10	1
4902624	26	C	03/08/2025	02:31	-126.751	48.105	0	320.10	0	5.6720	0	33.9938	0	26.802	0	317.165	0	51.6	4	16.9	4	-1E+10	1	0.0511	4	0.000271	0	-1E+10	1	-1E+10	1	-1E+10	1
4902624	26	C	03/08/2025	02:31	-126.751	48.105	0	324.70	0	5.6650	0	33.9980	0	26.806	0	321.719	0	-1e10	1	-1e10	1	-1E+10	1	-1e10	1	-1e10	1	-1E+10	1	-1E+10	1	-1E+10	1
4902624	26	C	03/08/2025	02:31	-126.751	48.105	0	329.80	0	5.6393	0	34.0005	0	26.811	0	326.769	0	49.9	4	16.4	4	-1E+10	1	0.0514	4	0.000226	0	-1E+10	1	-1E+10	1	-1E+10	1
4902624	26	C	03/08/2025	02:31	-126.751	48.105	0	335.00	0	5.6130	0	34.0030	0	26.816	0	331.917	0	-1e10	1	-1e10	1	-1E+10	1	-1e10	1	-1e10	1	-1E+10	1	-1E+10	1	-1E+10	1
4902624	26	C	03/08/2025	02:31	-126.751	48.105	0	340.10	0	5.5923	0	34.0070	0	26.822	0	336.966	0	47.8	4	15.7	4	-1E+10	1	0.0581	4	0.000226	0	-1E+10	1	-1E+10	1	-1E+10	1
4902624	26	C	03/08/2025	02:31	-126.751	48.105	0	345.10	0	5.5720	0	34.0110	0	26.828	0	341.915	0	-1e10	1	-1e10	1	-1E+10	1	-1e10	1	-1e10	1	-1E+10	1	-1E+10	1	-1E+10	1
4902624	26	C	03/08/2025	02:31	-126.751	48.105	0	350.70	0	5.5491	0	34.0133	0	26.832	0	347.459	0	46.2	4	15.1	4	-1E+10	1	0.0508	4	0.000229	0	-1E+10	1	-1E+10	1	-1E+10	1
4902624	26	C	03/08/2025	02:31	-126.751	48.105	0	354.90	0	5.5320	0	34.0150	0	26.836	0	351.617	0	-1e10	1	-1e10	1	-1E+10	1	-1e10	1	-1e10	1	-1E+10	1	-1E+10	1	-1E+10	1
4902624	26	C	03/08/2025	02:31	-126.751	48.105	0	361.80	0	5.5088	0	34.0198	0	26.842	0	358.447	0	44.4	4	14.5	4	-1E+10	1	0.0441	4	0.000304	0	-1E+10	1	-1E+10	1	-1E+10	1
4902624	26	C	03/08/2025	02:31	-126.751	48.105	0	365.00	0	5.4980	0	34.0220	0	26.845	0	361.614	0	-1e10	1	-1e10	1	-1E+10	1	-1e10	1	-1e10	1	-1E+10	1	-1E+10	1	-1E+10	1
4902624	26	C	03/08/2025	02:31	-126.751	48.105	0	373.20	0	5.4660	0	34.0277	0	26.854	0	369.731	0	42.3	4	13.8	4	-1E+10	1	0.0508	4	0.000225	0	-1E+10	1	-1E+10	1	-1E+10	1
4902624	26	C	03/08/2025	02:31	-126.751	48.105	0	375.00	0	5.4590	0	34.0290	0	26.856	0	371.513	0	-1e10	1	-1e10	1	-1E+10	1	-1e10	1	-1e10	1	-1E+10	1	-1E+10	1	-1E+10	1
4902624	26	C	03/08/2025	02:31	-126.751	48.105	0	384.80	0	5.3956	0	34.0359	0	26.869	0	381.212	0	40.7	4	13.3	4	-1E+10	1	0.0444	4	0.000214	0	-1E+10	1	-1E+10	1	-1E+10	1
4902624	26	C	03/08/2025	02:31	-126.751	48.105	0	384.90	0	5.3950	0	34.0360	0	26.869	0	381.311	0	-1e10	1	-1e10	1	-1E+10	1	-1e10	1	-1e10	1	-1E+10	1	-1E+10	1	-1E+10	1
4902624	26	C	03/08/2025	02:31	-126.751	48.105	0	395.30	0	5.3630	0	34.0390	0	26.875	0	391.605	0	-1e10	1	-1e10	1	-1E+10	1	-1e10	1	-1e10	1	-1E+10	1	-1E+10	1	-1E+10	1
4902624	26	C	03/08/2025	02:31	-126.751	48.105	0	396.60	0	5.3602	0	34.0398	0	26.876	0	392.891	0	39.1	4	12.7	4	-1E+10	1	0.0581	4	0.000224	0	-1E+10	1	-1E+10	1	-1E+10	1
4902624	26	C	03/08/2025	02:31	-126.751	48.105	0	405.00	0	5.3420	0	34.0450	0	26.882	0	401.205	0	-1e10	1	-1e10	1	-1E+10	1	-1e10	1	-1e10	1	-1E+10	1	-1E+10	1	-1E+10	1
4902624	26	C	03/08/2025	02:31	-126.751	48.105	0	408.40	0	5.3165	0	34.0478	0	26.888	0	404.569	0	36.4	4	11.8	4	-1E+10	1	0.0514	4	0.000200	0	-1E+10	1	-1E+10	1	-1E+10	1
4902624	26	C	03/08/2025	02:31	-126.751	48.105	0	414.60	0	5.2700	0	34.0530	0	26.897	0	410.705	0	-1e10	1	-1e10	1	-1E+10	1	-1e10	1	-1e10	1	-1E+10	1	-1E+10	1	-1E+10	1
4902624	26	C	03/08/2025	02:31	-126.751	48.105	0	420.00	0	5.2335	0	34.0576	0	26.905	0	416.049	0	34.0	4	11.0	4	-1E+10	1	0.0579	4	0.000167	0	-1E+10	1	-1E+10	1	-1E+10	1
4902624	26	C	03/08/2025	02:31	-126.751	48.105	0	425.10	0	5.1990	0	34.0620	0	26.913	0	421.096	0	-1e10	1	-1e10	1	-1E+10	1	-1e10	1	-1e10	1	-1E+10	1	-1E+10	1	-1E+10	1
4902624	26	C	03/08/2025	02:31	-126.751	48.105	0	431.90	0	5.1788	0	34.0687	0	26.920	0	427.825	0	31.8	4	10.3	4	-1E+10	1	0.0438	4	0.000179	0	-1E+10	1	-1E+10	1	-1E+10	1
4902624	26	C	03/08/2025	02:31	-126.751	48.105	0	435.20	0	5.1690	0	34.0720	0	26.924	0	431.090	0	-1e10	1	-1e10	1	-1E+10	1	-1e10	1	-1e10	1	-1E+10	1	-1E+10	1	-1E+10	1
4902624	26	C	03/08/2025	02:31	-126.751	48.105	0	443.70	0	5.1261	0	34.0799	0	26.935	0	439.501	0	29.7	4	9.6	4	-1E+10	1	0.0443	4	0.000191	0	-1E+10	1	-1E+10	1	-1E+10	1
4902624	26	C	03/08/2025	02:31	-126.751	48.105	0	444.90	0	5.1200	0	34.0810	0	26.937	0	440.688	0	-1e10	1	-1e10	1	-1E+10	1	-1e10	1	-1e10	1	-1E+10	1	-1E+10	1	-1E+10	1
4902624	26	C	03/08/2025	02:31	-126.751	48.105	0	454.70	0	5.0830	0	34.0870	0	26.946	0	450.385	0	-1e10	1	-1e10	1	-1E+10	1	-1e10	1	-1e10	1	-1E+10	1	-1E+10	1	-1E+10	1
4902624	26	C	03/08/2025	02:31	-126.751	48.105	0	455.70	0	5.0810	0	34.0877	0	26.947	0	451.374	0	28.1	4	9.1	4	-1E+10	1	0.0584	4	0.000211	0	-1E+10	1	-1E+10	1	-1E+10	1
4902624	26	C	03/08/2025	02:31	-126.751	48.105	0	464.70	0	5.0630	0	34.0940	0	26.954	0	460.279	0	-1e10	1	-1e10	1	-1E+10	1	-1e10	1	-1e10	1	-1E+10	1	-1E+10	1	-1E+10	1
4902624	26	C	03/08/2025	02:31	-126.751	48.105	0	467.80	0	5.0529	0	34.0967	0	26.957	0	463.346	0	26.2	4	8.5	4	-1E+10	1	0.0578	4	0.000168	0	-1E+10	1	-1E+10	1	-1E+10	1
4902624	26	C	03/08/2025	02:31	-126.751	48.105	0	475.10	0	5.0290	0	34.1030	0	26.965	0	470.568	0	-1e10	1	-1e10	1	-1E+10	1	-1e10	1	-1e10	1	-1E+10	1	-1E+10	1	-1E+10	1
4902624	26	C	03/08/2025	02:31	-126.751	48.105	0	480.00	0	5.0033	0	34.1069	0	26.971	0	475.416	0	24.4	4	7.9	4	-1E+10	1	0.0438	4	0.000211	0	-1E+10	1	-1E+10	1	-1E+10	1
4902624	26	C	03/08/2025	02:31	-126.751	48.105	0	485.20	0	4.9760	0	34.1110	0	26.978	0	480.560	0	-1e10	1	-1e10	1	-1E+10	1	-1e10	1	-1e10	1	-1E+10	1	-1E+10	1	-1E+10	1
4902624	26	C	03/08/2025	02:31	-126.751	48.105	0	492.40	0	4.9187	0	34.1161	0	26.988	0	487.683	0	22.8	4	7.4	4	-1E+10	1	0.0444	4	0.000166	0	-1E+10	1	-1E+10	1	-1E+10	1
4902624	26	C	03/08/2025	02:31	-126.751	48.105	0	495.00	0	4.8980	0	34.1180	0	26.992	0	490.255	0	-1e10	1	-1e10	1	-1E+10	1	-1e10	1	-1e10	1	-1E+10	1	-1E+10	1	-1E+10	1
4902624	26	C	03/08/2025	02:31	-126.751	48.105	0	504.70	0	4.8699	0	34.1219	0	26.998	0	499.850	0	21.7	4	7.0	4	-1E+10	1	0.0584	4	0.000167	0	-1E+10	1	-1E+10	1	-1E+10	1
4902624	26	C	03/08/2025	02:31	-126.751	48.105	0	505.00	0	4.8690	0	34.1220	0	26.999	0	500.147	0	-1e10	1	-1e10	1	-1E+10	1	-1e10	1	-1e10	1	-1E+10	1	-1E+10	1	-1E+10	1
4902624	26	C	03/08/2025	02:31	-126.751	48.105	0	514.60	0	4.8367	0	34.1287	0	27.008	0	509.643	0	20.4	4	6.6	4	-1E+10	1	0.0577	4	0.000190	0	-1E+10	1	-1E+10	1	-1E+10	1
4902624	26	C	03/08/2025	02:31	-126.751	48.105	0	515.10	0	4.8350	0	34.1290	0	27.008	0	510.138	0	-1e10	1	-1e10	1	-1E+10	1	-1e10	1	-1e10	1	-1E+10	1	-1E+10	1	-1E+10	1
4902624	26	C	03/08/2025	02:31	-126.751	48.105	0	522.70	0	4.7990	0	34.1368	0	27.018	0	517.655	0	19.4	4	6.2	4	-1E+10	1	0.0445	4	0.000202	0	-1E+10	1	-1E+10	1	-1E+10	1
4902624	26	C	03/08/2025	02:31	-126.751	48.105	0	524.80	0	4.7890	0	34.1390	0	27.021	0	519.732	0	-1e10	1	-1e10	1	-1E+10	1	-1e10	1	-1e10	1	-1E+10	1	-1E+10	1	-1E+10	1
4902624	26	C	03/08/2025	02:31	-126.751	48.105	0	531.10	0	4.7550	0	34.1434	0	27.029	0	525.963	0	18.3	4	5.9	4	-1E+10	1	0.0582	4	0.000224	0	-1E+10	1	-1E+10	1	-1E+10	1
4902624	26	C	03/08/2025	02:31	-126.751	48.105	0	534.80	0	4.7350	0	34.1460	0	27.033	0	529.623	0	-1e10	1	-1e10	1	-1E+10	1	-1e10	1	-1e10	1	-1E+10	1	-1E+10	1	-1E+10	1
4902624	26	C	03/08/2025	02:31	-126.751	48.105	0	539.90	0	4.7182	0	34.1506	0	27.038	0	534.667	0	17.3	4	5.6	4	-1E+10	1	0.0511	4	0.000199	0	-1E+10	1	-1E+10	1	-1E+10	1
4902624	26	C	03/08/2025	02:31	-126.751	48.105	0	544.80	0	4.7020	0	34.1550	0	27.044	0	539.513	0	-1e10	1	-1e10	1	-1E+10	1	-1e10	1	-1e10	1	-1E+10	1	-1E+10	1	-1E+10	1
4902624	26	C	03/08/2025	02:31	-126.751	48.105	0	549.20	0	4.6878	0	34.1589	0	27.048	0	543.865	0	16.3	4	5.2	4	-1E+10	1	0.0508	4	0.000155	0	-1E+10	1	-1E+10	1	-1E+10	1
4902624	26	C	03/08/2025	02:31	-126.751	48.105	0	555.00	0	4.6690	0	34.1640	0	27.055	0	549.601	0	-1e10	1	-1e10	1	-1E+10	1	-1e10	1	-1e10	1	-1E+10	1	-1E+10	1	-1E+10	1
4902624	26	C	03/08/2025	02:31	-126.751	48.105	0	558.70	0	4.6542	0	34.1670	0	27.059	0	553.260	0	15.5	4	5.0	4	-1E+10	1	0.0444	4	0.000177	0	-1E+10	1	-1E+10	1	-1E+10	1
4902624	26	C	03/08/2025	02:31	-126.751	48.105	0	565.00	0	4.6290	0	34.1720	0	27.065	0	559.490	0	-1e10	1	-1e10	1	-1E+10	1	-1e10	1	-1e10	1	-1E+10	1	-1E+10	1	-1E+10	1
4902624	26	C	03/08/2025	02:31	-126.751	48.105	0	568.50	0	4.6329	0	34.1752	0	27.068	0	562.951	0	14.8	4	4.7	4	-1E+10	1	0.0584	4	0.000165	0	-1E+10	1	-1E+10	1	-1E+10	1
4902624	26	C	03/08/2025	02:31	-126.751	48.105	0	574.90	0	4.6400	0	34.1810	0	27.071	0	569.280	0	-1e10	1	-1e10	1	-1E+10	1	-1e10	1	-1e10	1	-1E+10	1	-1E+10	1	-1E+10	1
4902624	26	C	03/08/2025	02:31	-126.751	48.105	0	578.60	0	4.6352	0	34.1858	0	27.076	0	572.938	0	13.9	4	4.5	4	-1E+10	1	0.0578	4	0.000165	0	-1E+10	1	-1E+10	1	-1E+10	1
4902624	26	C	03/08/2025	02:31	-126.751	48.105	0	585.00	0	4.6270	0	34.1940	0	27.083	0	579.267	0	-1e10	1	-1e10	1	-1E+10	1	-1e10	1	-1e10	1	-1E+10	1	-1E+10	1	-1E+10	1
4902624	26	C	03/08/2025	02:31	-126.751	48.105	0	588.80	0	4.6147	0	34.1982	0	27.088	0	583.024	0	12.9	4	4.1	4	-1E+10	1	0.0441	4	0.000154	0	-1E+10	1	-1E+10	1	-1E+10	1
4902624	26	C	03/08/2025	02:31	-126.751	48.105	0	594.90	0	4.5950	0	34.2050	0	27.096	0	589.056	0	-1e10	1	-1e10	1	-1E+10	1	-1e10	1	-1e10	1	-1E+10	1	-1E+10	1	-1E+10	1
4902624	26	C	03/08/2025	02:31	-126.751	48.105	0	599.20	0	4.5756	0	34.2071	0	27.099	0	593.308	0	12.4	4	4.0	4	-1E+10	1	0.0511	4	0.000165	0	-1E+10	1	-1E+10	1	-1E+10	1
4902624	26	C	03/08/2025	02:31	-126.751	48.105	0	604.90	0	4.5500	0	34.2100	0	27.105	0	598.943	0	-1e10	1	-1e10	1	-1E+10	1	-1e10	1	-1e10	1	-1E+10	1	-1E+10	1	-1E+10	1
4902624	26	C	03/08/2025	02:31	-126.751	48.105	0	609.80	0	4.5078	0	34.2110	0	27.110	0	603.788	0	11.8	4	3.8	4	-1E+10	1	0.0514	4	0.000164	0	-1E+10	1	-1E+10	1	-1E+10	1
4902624	26	C	03/08/2025	02:31	-126.751	48.105	0	615.00	0	4.4630	0	34.2120	0	27.116	0	608.929	0	-1e10	1	-1e10	1	-1E+10	1	-1e10	1	-1e10	1	-1E+10	1	-1E+10	1	-1E+10	1
4902624	26	C	03/08/2025	02:31	-126.751	48.105	0	620.50	0	4.4557	0	34.2176	0	27.121	0	614.367	0	11.2	4	3.6	4	-1E+10	1	0.0584	4	0.000150	0	-1E+10	1	-1E+10	1	-1E+10	1
4902624	26	C	03/08/2025	02:31	-126.751	48.105	0	624.80	0	4.4500	0	34.2220	0	27.125	0	618.618	0	-1e10	1	-1e10	1	-1E+10	1	-1e10	1	-1e10	1	-1E+10	1	-1E+10	1	-1E+10	1
4902624	26	C	03/08/2025	02:31	-126.751	48.105	0	631.40	0	4.4371	0	34.2278	0	27.131	0	625.143	0	10.6	4	3.4	4	-1E+10	1	0.0584	4	0.000312	0	-1E+10	1	-1E+10	1	-1E+10	1
4902624	26	C	03/08/2025	02:31	-126.751	48.105	0	635.00	0	4.4300	0	34.2310	0	27.134	0	628.701	0	-1e10	1	-1e10	1	-1E+10	1	-1e10	1	-1e10	1	-1E+10	1	-1E+10	1	-1E+10	1
4902624	26	C	03/08/2025	02:31	-126.751	48.105	0	642.70	0	4.4247	0	34.2370	0	27.140	0	636.313	0	10.1	4	3.2	4	-1E+10	1	0.0584	4	0.000200	0	-1E+10	1	-1E+10	1	-1E+10	1
4902624	26	C	03/08/2025	02:31	-126.751	48.105	0	645.20	0	4.4230	0	34.2390	0	27.142	0	638.785	0	-1e10	1	-1e10	1	-1E+10	1	-1e10	1	-1e10	1	-1E+10	1	-1E+10	1	-1E+10	1
4902624	26	C	03/08/2025	02:31	-126.751	48.105	0	654.10	0	4.3978	0	34.2453	0	27.149	0	647.582	0	9.8	4	3.1	4	-1E+10	1	0.0587	4	0.000199	0	-1E+10	1	-1E+10	1	-1E+10	1
4902624	26	C	03/08/2025	02:31	-126.751	48.105	0	655.10	0	4.3950	0	34.2460	0	27.150	0	648.571	0	-1e10	1	-1e10	1	-1E+10	1	-1e10	1	-1e10	1	-1E+10	1	-1E+10	1	-1E+10	1
4902624	26	C	03/08/2025	02:31	-126.751	48.105	0	665.10	0	4.3730	0	34.2530	0	27.158	0	658.455	0	-1e10	1	-1e10	1	-1E+10	1	-1e10	1	-1e10	1	-1E+10	1	-1E+10	1	-1E+10	1
4902624	26	C	03/08/2025	02:31	-126.751	48.105	0	665.70	0	4.3716	0	34.2535	0	27.159	0	659.048	0	9.4	4	3.0	4	-1E+10	1	0.0652	4	0.000176	0	-1E+10	1	-1E+10	1	-1E+10	1
4902624	26	C	03/08/2025	02:31	-126.751	48.105	0	675.20	0	4.3490	0	34.2610	0	27.167	0	668.438	0	-1e10	1	-1e10	1	-1E+10	1	-1e10	1	-1e10	1	-1E+10	1	-1E+10	1	-1E+10	1
4902624	26	C	03/08/2025	02:31	-126.751	48.105	0	677.40	0	4.3434	0	34.2623	0	27.169	0	670.613	0	9.0	4	2.9	4	-1E+10	1	0.0508	4	0.000153	0	-1E+10	1	-1E+10	1	-1E+10	1
4902624	26	C	03/08/2025	02:31	-126.751	48.105	0	685.10	0	4.3240	0	34.2670	0	27.175	0	678.223	0	-1e10	1	-1e10	1	-1E+10	1	-1e10	1	-1e10	1	-1E+10	1	-1E+10	1	-1E+10	1
4902624	26	C	03/08/2025	02:31	-126.751	48.105	0	689.10	0	4.3067	0	34.2682	0	27.177	0	682.176	0	8.8	4	2.8	4	-1E+10	1	0.0444	4	0.000153	0	-1E+10	1	-1E+10	1	-1E+10	1
4902624	26	C	03/08/2025	02:31	-126.751	48.105	0	695.30	0	4.2800	0	34.2700	0	27.182	0	688.304	0	-1e10	1	-1e10	1	-1E+10	1	-1e10	1	-1e10	1	-1E+10	1	-1E+10	1	-1E+10	1
4902624	26	C	03/08/2025	02:31	-126.751	48.105	0	698.20	0	4.2674	0	34.2712	0	27.184	0	691.170	0	8.6	4	2.7	4	-1E+10	1	0.0581	4	0.000165	0	-1E+10	1	-1E+10	1	-1E+10	1
4902624	26	C	03/08/2025	02:31	-126.751	48.105	0	705.20	0	4.2370	0	34.2740	0	27.190	0	698.088	0	-1e10	1	-1e10	1	-1E+10	1	-1e10	1	-1e10	1	-1E+10	1	-1E+10	1	-1E+10	1
4902624	26	C	03/08/2025	02:31	-126.751	48.105	0	705.70	0	4.2361	0	34.2742	0	27.190	0	698.582	0	8.5	4	2.7	4	-1E+10	1	0.0508	4	0.000186	0	-1E+10	1	-1E+10	1	-1E+10	1
4902624	26	C	03/08/2025	02:31	-126.751	48.105	0	713.60	0	4.2219	0	34.2774	0	27.194	0	706.389	0	8.4	4	2.7	4	-1E+10	1	0.0441	4	0.000153	0	-1E+10	1	-1E+10	1	-1E+10	1
4902624	26	C	03/08/2025	02:31	-126.751	48.105	0	715.20	0	4.2190	0	34.2780	0	27.195	0	707.970	0	-1e10	1	-1e10	1	-1E+10	1	-1e10	1	-1e10	1	-1E+10	1	-1E+10	1	-1E+10	1
4902624	26	C	03/08/2025	02:31	-126.751	48.105	0	722.00	0	4.2093	0	34.2808	0	27.198	0	714.689	0	8.2	4	2.6	4	-1E+10	1	0.0511	4	0.000176	0	-1E+10	1	-1E+10	1	-1E+10	1
4902624	26	C	03/08/2025	02:31	-126.751	48.105	0	725.00	0	4.2050	0	34.2820	0	27.199	0	717.654	0	-1e10	1	-1e10	1	-1E+10	1	-1e10	1	-1e10	1	-1E+10	1	-1E+10	1	-1E+10	1
4902624	26	C	03/08/2025	02:31	-126.751	48.105	0	730.50	0	4.1929	0	34.2859	0	27.204	0	723.089	0	8.1	4	2.6	4	-1E+10	1	0.0516	4	0.000175	0	-1E+10	1	-1E+10	1	-1E+10	1
4902624	26	C	03/08/2025	02:31	-126.751	48.105	0	735.00	0	4.1830	0	34.2890	0	27.207	0	727.535	0	-1e10	1	-1e10	1	-1E+10	1	-1e10	1	-1e10	1	-1E+10	1	-1E+10	1	-1E+10	1
4902624	26	C	03/08/2025	02:31	-126.751	48.105	0	739.50	0	4.1716	0	34.2913	0	27.210	0	731.981	0	7.9	4	2.5	4	-1E+10	1	0.0657	4	0.000152	0	-1E+10	1	-1E+10	1	-1E+10	1
4902624	26	C	03/08/2025	02:31	-126.751	48.105	0	744.90	0	4.1580	0	34.2940	0	27.214	0	737.317	0	-1e10	1	-1e10	1	-1E+10	1	-1e10	1	-1e10	1	-1E+10	1	-1E+10	1	-1E+10	1
4902624	26	C	03/08/2025	02:31	-126.751	48.105	0	748.90	0	4.1440	0	34.2968	0	27.218	0	741.269	0	7.8	4	2.5	4	-1E+10	1	0.0651	4	0.000153	0	-1E+10	1	-1E+10	1	-1E+10	1
4902624	26	C	03/08/2025	02:31	-126.751	48.105	0	754.90	0	4.1230	0	34.3010	0	27.223	0	747.197	0	-1e10	1	-1e10	1	-1E+10	1	-1e10	1	-1e10	1	-1E+10	1	-1E+10	1	-1E+10	1
4902624	26	C	03/08/2025	02:31	-126.751	48.105	0	758.70	0	4.1137	0	34.3029	0	27.226	0	750.952	0	7.8	4	2.5	4	-1E+10	1	0.0511	4	0.000164	0	-1E+10	1	-1E+10	1	-1E+10	1
4902624	26	C	03/08/2025	02:31	-126.751	48.105	0	765.10	0	4.0980	0	34.3060	0	27.230	0	757.275	0	-1e10	1	-1e10	1	-1E+10	1	-1e10	1	-1e10	1	-1E+10	1	-1E+10	1	-1E+10	1
4902624	26	C	03/08/2025	02:31	-126.751	48.105	0	768.80	0	4.0916	0	34.3075	0	27.232	0	760.930	0	7.8	4	2.5	4	-1E+10	1	0.0514	4	0.000173	0	-1E+10	1	-1E+10	1	-1E+10	1
4902624	26	C	03/08/2025	02:31	-126.751	48.105	0	775.00	0	4.0810	0	34.3100	0	27.235	0	767.055	0	-1e10	1	-1e10	1	-1E+10	1	-1e10	1	-1e10	1	-1E+10	1	-1E+10	1	-1E+10	1
4902624	26	C	03/08/2025	02:31	-126.751	48.105	0	779.10	0	4.0687	0	34.3125	0	27.238	0	771.106	0	7.8	4	2.5	4	-1E+10	1	0.0580	4	0.000386	0	-1E+10	1	-1E+10	1	-1E+10	1
4902624	26	C	03/08/2025	02:31	-126.751	48.105	0	785.00	0	4.0510	0	34.3160	0	27.243	0	776.934	0	-1e10	1	-1e10	1	-1E+10	1	-1e10	1	-1e10	1	-1E+10	1	-1E+10	1	-1E+10	1
4902624	26	C	03/08/2025	02:31	-126.751	48.105	0	789.60	0	4.0382	0	34.3206	0	27.248	0	781.478	0	7.8	4	2.5	4	-1E+10	1	0.0517	4	0.000368	0	-1E+10	1	-1E+10	1	-1E+10	1
4902624	26	C	03/08/2025	02:31	-126.751	48.105	0	795.10	0	4.0230	0	34.3260	0	27.254	0	786.911	0	-1e10	1	-1e10	1	-1E+10	1	-1e10	1	-1e10	1	-1E+10	1	-1E+10	1	-1E+10	1
4902624	26	C	03/08/2025	02:31	-126.751	48.105	0	799.90	0	4.0130	0	34.3289	0	27.257	0	791.653	0	7.7	4	2.4	4	-1E+10	1	0.0656	4	0.000198	0	-1E+10	1	-1E+10	1	-1E+10	1
4902624	26	C	03/08/2025	02:31	-126.751	48.105	0	805.20	0	4.0020	0	34.3320	0	27.261	0	796.888	0	-1e10	1	-1e10	1	-1E+10	1	-1e10	1	-1e10	1	-1E+10	1	-1E+10	1	-1E+10	1
4902624	26	C	03/08/2025	02:31	-126.751	48.105	0	810.60	0	3.9931	0	34.3353	0	27.264	0	802.222	0	7.8	4	2.5	4	-1E+10	1	0.0584	4	0.000188	0	-1E+10	1	-1E+10	1	-1E+10	1
4902624	26	C	03/08/2025	02:31	-126.751	48.105	0	814.90	0	3.9860	0	34.3380	0	27.267	0	806.469	0	-1e10	1	-1e10	1	-1E+10	1	-1e10	1	-1e10	1	-1E+10	1	-1E+10	1	-1E+10	1
4902624	26	C	03/08/2025	02:31	-126.751	48.105	0	821.30	0	3.9777	0	34.3406	0	27.270	0	812.791	0	7.8	4	2.5	4	-1E+10	1	0.0584	4	0.000210	0	-1E+10	1	-1E+10	1	-1E+10	1
4902624	26	C	03/08/2025	02:31	-126.751	48.105	0	824.90	0	3.9730	0	34.3420	0	27.272	0	816.346	0	-1e10	1	-1e10	1	-1E+10	1	-1e10	1	-1e10	1	-1E+10	1	-1E+10	1	-1E+10	1
4902624	26	C	03/08/2025	02:31	-126.751	48.105	0	831.80	0	3.9549	0	34.3441	0	27.275	0	823.161	0	7.7	4	2.4	4	-1E+10	1	0.0582	4	0.000198	0	-1E+10	1	-1E+10	1	-1E+10	1
4902624	26	C	03/08/2025	02:31	-126.751	48.105	0	834.80	0	3.9470	0	34.3450	0	27.277	0	826.124	0	-1e10	1	-1e10	1	-1E+10	1	-1e10	1	-1e10	1	-1E+10	1	-1E+10	1	-1E+10	1
4902624	26	C	03/08/2025	02:31	-126.751	48.105	0	842.50	0	3.9127	0	34.3473	0	27.282	0	833.729	0	7.6	4	2.4	4	-1E+10	1	0.0511	4	0.000197	0	-1E+10	1	-1E+10	1	-1E+10	1
4902624	26	C	03/08/2025	02:31	-126.751	48.105	0	844.90	0	3.9020	0	34.3480	0	27.284	0	836.099	0	-1e10	1	-1e10	1	-1E+10	1	-1e10	1	-1e10	1	-1E+10	1	-1E+10	1	-1E+10	1
4902624	26	C	03/08/2025	02:31	-126.751	48.105	0	853.20	0	3.8846	0	34.3521	0	27.289	0	844.296	0	7.7	4	2.4	4	-1E+10	1	0.0506	4	0.000151	0	-1E+10	1	-1E+10	1	-1E+10	1
4902624	26	C	03/08/2025	02:31	-126.751	48.105	0	854.90	0	3.8810	0	34.3530	0	27.290	0	845.975	0	-1e10	1	-1e10	1	-1E+10	1	-1e10	1	-1e10	1	-1E+10	1	-1E+10	1	-1E+10	1
4902624	26	C	03/08/2025	02:31	-126.751	48.105	0	864.10	0	3.8488	0	34.3622	0	27.301	0	855.060	0	7.9	4	2.5	4	-1E+10	1	0.0376	4	0.000152	0	-1E+10	1	-1E+10	1	-1E+10	1
4902624	26	C	03/08/2025	02:31	-126.751	48.105	0	864.90	0	3.8460	0	34.3630	0	27.302	0	855.850	0	-1e10	1	-1e10	1	-1E+10	1	-1e10	1	-1e10	1	-1E+10	1	-1E+10	1	-1E+10	1
4902624	26	C	03/08/2025	02:31	-126.751	48.105	0	875.20	0	3.8370	0	34.3660	0	27.305	0	866.021	0	-1e10	1	-1e10	1	-1E+10	1	-1e10	1	-1e10	1	-1E+10	1	-1E+10	1	-1E+10	1
4902624	26	C	03/08/2025	02:31	-126.751	48.105	0	875.30	0	3.8368	0	34.3660	0	27.305	0	866.119	0	8.1	4	2.6	4	-1E+10	1	0.0650	4	0.000187	0	-1E+10	1	-1E+10	1	-1E+10	1
4902624	26	C	03/08/2025	02:31	-126.751	48.105	0	885.10	0	3.8210	0	34.3700	0	27.310	0	875.796	0	-1e10	1	-1e10	1	-1E+10	1	-1e10	1	-1e10	1	-1E+10	1	-1E+10	1	-1E+10	1
4902624	26	C	03/08/2025	02:31	-126.751	48.105	0	886.40	0	3.8177	0	34.3705	0	27.311	0	877.080	0	8.3	4	2.6	4	-1E+10	1	0.0511	4	0.000208	0	-1E+10	1	-1E+10	1	-1E+10	1
4902624	26	C	03/08/2025	02:31	-126.751	48.105	0	895.00	0	3.7960	0	34.3740	0	27.316	0	885.571	0	-1e10	1	-1e10	1	-1E+10	1	-1e10	1	-1e10	1	-1E+10	1	-1E+10	1	-1E+10	1
4902624	26	C	03/08/2025	02:31	-126.751	48.105	0	897.40	0	3.7877	0	34.3750	0	27.317	0	887.941	0	8.4	4	2.7	4	-1E+10	1	0.0514	4	0.000176	0	-1E+10	1	-1E+10	1	-1E+10	1
4902624	26	C	03/08/2025	02:31	-126.751	48.105	0	904.80	0	3.7620	0	34.3780	0	27.322	0	895.247	0	-1e10	1	-1e10	1	-1E+10	1	-1e10	1	-1e10	1	-1E+10	1	-1E+10	1	-1E+10	1
4902624	26	C	03/08/2025	02:31	-126.751	48.105	0	908.70	0	3.7467	0	34.3799	0	27.325	0	899.097	0	8.6	4	2.7	4	-1E+10	1	0.0584	4	0.000231	0	-1E+10	1	-1E+10	1	-1E+10	1
4902624	26	C	03/08/2025	02:31	-126.751	48.105	0	915.00	0	3.7220	0	34.3830	0	27.330	0	905.317	0	-1e10	1	-1e10	1	-1E+10	1	-1e10	1	-1e10	1	-1E+10	1	-1E+10	1	-1E+10	1
4902624	26	C	03/08/2025	02:31	-126.751	48.105	0	920.20	0	3.7006	0	34.3866	0	27.335	0	910.451	0	12.3	4	3.9	4	-1E+10	1	0.0584	4	0.000186	0	-1E+10	1	-1E+10	1	-1E+10	1
4902624	26	C	03/08/2025	02:31	-126.751	48.105	0	925.20	0	3.6800	0	34.3900	0	27.340	0	915.387	0	-1e10	1	-1e10	1	-1E+10	1	-1e10	1	-1e10	1	-1E+10	1	-1E+10	1	-1E+10	1
4902624	26	C	03/08/2025	02:31	-126.751	48.105	0	932.00	0	3.6597	0	34.3949	0	27.346	0	922.100	0	41.6	4	13.1	4	-1E+10	1	0.0584	4	0.000188	0	-1E+10	1	-1E+10	1	-1E+10	1
4902624	26	C	03/08/2025	02:31	-126.751	48.105	0	934.90	0	3.6510	0	34.3970	0	27.349	0	924.963	0	-1e10	1	-1e10	1	-1E+10	1	-1e10	1	-1e10	1	-1E+10	1	-1E+10	1	-1E+10	1
4902624	26	C	03/08/2025	02:31	-126.751	48.105	0	941.40	0	3.6360	0	34.3996	0	27.352	0	931.379	0	44.6	4	14.0	4	-1E+10	1	0.0580	4	0.000221	0	-1E+10	1	-1E+10	1	-1E+10	1
4902624	26	C	03/08/2025	02:31	-126.751	48.105	0	944.90	0	3.6280	0	34.4010	0	27.354	0	934.834	0	-1e10	1	-1e10	1	-1E+10	1	-1e10	1	-1e10	1	-1E+10	1	-1E+10	1	-1E+10	1
4902624	26	C	03/08/2025	02:31	-126.751	48.105	0	949.30	0	3.6210	0	34.4019	0	27.355	0	939.177	0	45.7	4	14.3	4	-1E+10	1	0.0438	4	0.000209	0	-1E+10	1	-1E+10	1	-1E+10	1
4902624	26	C	03/08/2025	02:31	-126.751	48.105	0	955.00	0	3.6120	0	34.4030	0	27.357	0	944.804	0	-1e10	1	-1e10	1	-1E+10	1	-1e10	1	-1e10	1	-1E+10	1	-1E+10	1	-1E+10	1
4902624	26	C	03/08/2025	02:31	-126.751	48.105	0	957.30	0	3.6078	0	34.4032	0	27.358	0	947.074	0	46.0	4	14.4	4	-1E+10	1	0.0443	4	0.000196	0	-1E+10	1	-1E+10	1	-1E+10	1
4902624	26	C	03/08/2025	02:31	-126.751	48.105	0	964.90	0	3.5940	0	34.4040	0	27.360	0	954.575	0	-1e10	1	-1e10	1	-1E+10	1	-1e10	1	-1e10	1	-1E+10	1	-1E+10	1	-1E+10	1
4902624	26	C	03/08/2025	02:31	-126.751	48.105	0	965.80	0	3.5916	0	34.4045	0	27.361	0	955.464	0	47.0	4	14.7	4	-1E+10	1	0.0587	4	0.000175	0	-1E+10	1	-1E+10	1	-1E+10	1
4902624	26	C	03/08/2025	02:31	-126.751	48.105	0	974.50	0	3.5688	0	34.4088	0	27.366	0	964.050	0	46.1	4	14.4	4	-1E+10	1	0.0651	4	0.000197	0	-1E+10	1	-1E+10	1	-1E+10	1
4902624	26	C	03/08/2025	02:31	-126.751	48.105	0	974.80	0	3.5680	0	34.4090	0	27.366	0	964.347	0	-1e10	1	-1e10	1	-1E+10	1	-1e10	1	-1e10	1	-1E+10	1	-1E+10	1	-1E+10	1
4902624	26	C	03/08/2025	02:31	-126.751	48.105	0	983.40	0	3.5499	0	34.4116	0	27.370	0	972.834	0	45.7	4	14.3	4	-1E+10	1	0.0516	4	0.000196	0	-1E+10	1	-1E+10	1	-1E+10	1
4902624	26	C	03/08/2025	02:31	-126.751	48.105	0	984.80	0	3.5470	0	34.4120	0	27.371	0	974.216	0	-1e10	1	-1e10	1	-1E+10	1	-1e10	1	-1e10	1	-1E+10	1	-1E+10	1	-1E+10	1
4902624	26	C	03/08/2025	02:31	-126.751	48.105	0	992.70	0	3.5296	0	34.4144	0	27.375	0	982.013	0	46.2	4	14.5	4	-1E+10	1	0.0655	4	0.000174	0	-1E+10	1	-1E+10	1	-1E+10	1
4902624	26	C	03/08/2025	02:31	-126.751	48.105	0	994.80	0	3.5250	0	34.4150	0	27.376	0	984.085	0	-1e10	1	-1e10	1	-1E+10	1	-1e10	1	-1e10	1	-1E+10	1	-1E+10	1	-1E+10	1
4902624	26	C	03/08/2025	02:31	-126.751	48.105	0	1011.80	0	3.4941	0	34.4184	0	27.381	0	1000.861	0	46.4	4	14.5	4	-1E+10	1	0.0584	4	0.000208	0	-1E+10	1	-1E+10	1	-1E+10	1
4902624	26	C	03/08/2025	02:31	-126.751	48.105	0	1025.10	0	3.4700	0	34.4210	0	27.386	0	1013.986	0	-1e10	1	-1e10	1	-1E+10	1	-1e10	1	-1e10	1	-1E+10	1	-1E+10	1	-1E+10	1
4902624	26	C	03/08/2025	02:31	-126.751	48.105	0	1031.20	0	3.4556	0	34.4226	0	27.389	0	1020.005	0	49.0	4	15.3	4	-1E+10	1	0.0584	4	0.000162	0	-1E+10	1	-1E+10	1	-1E+10	1
4902624	26	C	03/08/2025	02:31	-126.751	48.105	0	1050.70	0	3.4097	0	34.4277	0	27.397	0	1039.245	0	51.1	4	15.9	4	-1E+10	1	0.0581	4	0.000173	0	-1E+10	1	-1E+10	1	-1E+10	1
4902624	26	C	03/08/2025	02:31	-126.751	48.105	0	1070.30	0	3.3636	0	34.4328	0	27.406	0	1058.582	0	53.0	4	16.5	4	-1E+10	1	0.0442	4	0.000161	0	-1E+10	1	-1E+10	1	-1E+10	1
4902624	26	C	03/08/2025	02:31	-126.751	48.105	0	1074.80	0	3.3530	0	34.4340	0	27.408	0	1063.021	0	-1e10	1	-1e10	1	-1E+10	1	-1e10	1	-1e10	1	-1E+10	1	-1E+10	1	-1E+10	1
4902624	26	C	03/08/2025	02:31	-126.751	48.105	0	1090.40	0	3.3123	0	34.4390	0	27.416	0	1078.410	0	56.6	4	17.6	4	-1E+10	1	0.0654	4	0.000161	0	-1E+10	1	-1E+10	1	-1E+10	1
4902624	26	C	03/08/2025	02:31	-126.751	48.105	0	1110.50	0	3.2598	0	34.4454	0	27.426	0	1098.236	0	59.8	4	18.6	4	-1E+10	1	0.0508	4	0.000160	0	-1E+10	1	-1E+10	1	-1E+10	1
4902624	26	C	03/08/2025	02:31	-126.751	48.105	0	1125.00	0	3.2220	0	34.4500	0	27.433	0	1112.538	0	-1e10	1	-1e10	1	-1E+10	1	-1e10	1	-1e10	1	-1E+10	1	-1E+10	1	-1E+10	1
4902624	26	C	03/08/2025	02:31	-126.751	48.105	0	1131.20	0	3.2064	0	34.4517	0	27.436	0	1118.652	0	62.8	4	19.5	4	-1E+10	1	0.0365	4	0.000138	0	-1E+10	1	-1E+10	1	-1E+10	1
4902624	26	C	03/08/2025	02:31	-126.751	48.105	0	1152.60	0	3.1527	0	34.4576	0	27.446	0	1139.757	0	63.4	4	19.7	4	-1E+10	1	0.0368	4	0.000160	0	-1E+10	1	-1E+10	1	-1E+10	1
4902624	26	C	03/08/2025	02:31	-126.751	48.105	0	1172.80	0	3.1020	0	34.4632	0	27.455	0	1159.676	0	65.1	4	20.1	4	-1E+10	1	0.0512	4	0.000160	0	-1E+10	1	-1E+10	1	-1E+10	1
4902624	26	C	03/08/2025	02:31	-126.751	48.105	0	1175.60	0	3.0950	0	34.4640	0	27.456	0	1162.437	0	-1e10	1	-1e10	1	-1E+10	1	-1e10	1	-1e10	1	-1E+10	1	-1E+10	1	-1E+10	1
4902624	26	C	03/08/2025	02:31	-126.751	48.105	0	1188.30	0	3.0727	0	34.4666	0	27.460	0	1174.960	0	66.1	4	20.4	4	-1E+10	1	0.0585	4	0.000172	0	-1E+10	1	-1E+10	1	-1E+10	1
4902624	26	C	03/08/2025	02:31	-126.751	48.105	0	1204.90	0	3.0436	0	34.4700	0	27.466	0	1191.326	0	67.8	4	21.0	4	-1E+10	1	0.0656	4	0.000183	0	-1E+10	1	-1E+10	1	-1E+10	1
4902624	26	C	03/08/2025	02:31	-126.751	48.105	0	1222.50	0	3.0128	0	34.4737	0	27.472	0	1208.677	0	70.0	4	21.6	4	-1E+10	1	0.0583	4	0.000172	0	-1E+10	1	-1E+10	1	-1E+10	1
4902624	26	C	03/08/2025	02:31	-126.751	48.105	0	1224.10	0	3.0100	0	34.4740	0	27.472	0	1210.255	0	-1e10	1	-1e10	1	-1E+10	1	-1e10	1	-1e10	1	-1E+10	1	-1E+10	1	-1E+10	1
4902624	26	C	03/08/2025	02:31	-126.751	48.105	0	1241.70	0	2.9835	0	34.4778	0	27.478	0	1227.604	0	72.0	4	22.2	4	-1E+10	1	0.0512	4	0.000184	0	-1E+10	1	-1E+10	1	-1E+10	1
4902624	26	C	03/08/2025	02:31	-126.751	48.105	0	1262.00	0	2.9529	0	34.4822	0	27.484	0	1247.614	0	73.4	4	22.6	4	-1E+10	1	0.0587	4	0.000230	0	-1E+10	1	-1E+10	1	-1E+10	1
4902624	26	C	03/08/2025	02:31	-126.751	48.105	0	1275.20	0	2.9330	0	34.4850	0	27.488	0	1260.624	0	-1e10	1	-1e10	1	-1E+10	1	-1e10	1	-1e10	1	-1E+10	1	-1E+10	1	-1E+10	1
4902624	26	C	03/08/2025	02:31	-126.751	48.105	0	1282.60	0	2.9216	0	34.4862	0	27.490	0	1267.917	0	76.1	4	23.5	4	-1E+10	1	0.0729	4	0.000218	0	-1E+10	1	-1E+10	1	-1E+10	1
4902624	26	C	03/08/2025	02:31	-126.751	48.105	0	1303.10	0	2.8902	0	34.4895	0	27.496	0	1288.120	0	74.7	4	23.0	4	-1E+10	1	0.0654	4	0.000241	0	-1E+10	1	-1E+10	1	-1E+10	1
4902624	26	C	03/08/2025	02:31	-126.751	48.105	0	1323.90	0	2.8582	0	34.4929	0	27.501	0	1308.616	0	74.9	4	23.1	4	-1E+10	1	0.0512	4	0.000219	0	-1E+10	1	-1E+10	1	-1E+10	1
4902624	26	C	03/08/2025	02:31	-126.751	48.105	0	1324.70	0	2.8570	0	34.4930	0	27.502	0	1309.404	0	-1e10	1	-1e10	1	-1E+10	1	-1e10	1	-1e10	1	-1E+10	1	-1E+10	1	-1E+10	1
4902624	26	C	03/08/2025	02:31	-126.751	48.105	0	1344.90	0	2.8135	0	34.4982	0	27.510	0	1329.307	0	75.5	4	23.2	4	-1E+10	1	0.0584	4	0.000286	0	-1E+10	1	-1E+10	1	-1E+10	1
4902624	26	C	03/08/2025	02:31	-126.751	48.105	0	1366.00	0	2.7680	0	34.5037	0	27.518	0	1350.095	0	76.8	4	23.6	4	-1E+10	1	0.0583	4	0.000216	0	-1E+10	1	-1E+10	1	-1E+10	1
4902624	26	C	03/08/2025	02:31	-126.751	48.105	0	1374.80	0	2.7490	0	34.5060	0	27.522	0	1358.764	0	-1e10	1	-1e10	1	-1E+10	1	-1e10	1	-1e10	1	-1E+10	1	-1E+10	1	-1E+10	1
4902624	26	C	03/08/2025	02:31	-126.751	48.105	0	1387.60	0	2.7307	0	34.5088	0	27.526	0	1371.373	0	78.8	4	24.2	4	-1E+10	1	0.0510	4	0.000147	0	-1E+10	1	-1E+10	1	-1E+10	1
4902624	26	C	03/08/2025	02:31	-126.751	48.105	0	1409.60	0	2.6992	0	34.5136	0	27.532	0	1393.043	0	73.7	4	22.6	4	-1E+10	1	0.0443	4	0.000193	0	-1E+10	1	-1E+10	1	-1E+10	1
4902624	26	C	03/08/2025	02:31	-126.751	48.105	0	1425.10	0	2.6770	0	34.5170	0	27.537	0	1408.310	0	-1e10	1	-1e10	1	-1E+10	1	-1e10	1	-1e10	1	-1E+10	1	-1E+10	1	-1E+10	1
4902624	26	C	03/08/2025	02:31	-126.751	48.105	0	1432.20	0	2.6631	0	34.5180	0	27.539	0	1415.302	0	75.7	4	23.2	4	-1E+10	1	0.0727	4	0.000181	0	-1E+10	1	-1E+10	1	-1E+10	1
4902624	26	C	03/08/2025	02:31	-126.751	48.105	0	1455.10	0	2.6183	0	34.5211	0	27.545	0	1437.854	0	77.3	4	23.7	4	-1E+10	1	0.0586	4	0.000183	0	-1E+10	1	-1E+10	1	-1E+10	1
4902624	26	C	03/08/2025	02:31	-126.751	48.105	0	1476.20	0	2.5770	0	34.5240	0	27.551	0	1458.631	0	76.6	4	23.4	4	-1E+10	1	0.0653	4	0.000261	0	-1E+10	1	-1E+10	1	-1E+10	1
4902624	26	C	03/08/2025	02:31	-126.751	48.105	0	1492.60	0	2.5464	0	34.5274	0	27.557	0	1474.779	0	78.9	4	24.1	4	-1E+10	1	0.0437	4	0.000157	0	-1E+10	1	-1E+10	1	-1E+10	1
4902624	26	C	03/08/2025	02:31	-126.751	48.105	0	1509.50	0	2.5148	0	34.5309	0	27.562	0	1491.418	0	83.0	4	25.3	4	-1E+10	1	0.0366	4	0.000169	0	-1E+10	1	-1E+10	1	-1E+10	1
4902624	26	C	03/08/2025	02:31	-126.751	48.105	0	1524.40	0	2.4870	0	34.5340	0	27.567	0	1506.086	0	-1e10	1	-1e10	1	-1E+10	1	-1e10	1	-1e10	1	-1E+10	1	-1E+10	1	-1E+10	1
4902624	26	C	03/08/2025	02:31	-126.751	48.105	0	1527.70	0	2.4813	0	34.5346	0	27.568	0	1509.335	0	73.0	4	22.3	4	-1E+10	1	0.0440	4	0.000180	0	-1E+10	1	-1E+10	1	-1E+10	1
4902624	26	C	03/08/2025	02:31	-126.751	48.105	0	1546.70	0	2.4483	0	34.5380	0	27.574	0	1528.038	0	109.1	4	33.3	4	-1E+10	1	0.0514	4	0.000157	0	-1E+10	1	-1E+10	1	-1E+10	1
4902624	26	C	03/08/2025	02:31	-126.751	48.105	0	1566.80	0	2.4134	0	34.5415	0	27.580	0	1547.822	0	87.7	4	26.7	4	-1E+10	1	0.0656	4	0.000157	0	-1E+10	1	-1E+10	1	-1E+10	1
4902624	26	C	03/08/2025	02:31	-126.751	48.105	0	1575.10	0	2.3990	0	34.5430	0	27.582	0	1555.991	0	-1e10	1	-1e10	1	-1E+10	1	-1e10	1	-1e10	1	-1E+10	1	-1E+10	1	-1E+10	1
4902624	26	C	03/08/2025	02:31	-126.751	48.105	0	1587.70	0	2.3745	0	34.5460	0	27.586	0	1568.391	0	94.1	4	28.6	4	-1E+10	1	0.0584	4	0.000180	0	-1E+10	1	-1E+10	1	-1E+10	1
4902624	26	C	03/08/2025	02:31	-126.751	48.105	0	1609.10	0	2.3329	0	34.5511	0	27.594	0	1589.450	0	96.2	4	29.2	4	-1E+10	1	0.0581	4	0.000191	0	-1E+10	1	-1E+10	1	-1E+10	1
4902624	26	C	03/08/2025	02:31	-126.751	48.105	0	1625.50	0	2.3010	0	34.5550	0	27.600	0	1605.588	0	-1e10	1	-1e10	1	-1E+10	1	-1e10	1	-1e10	1	-1E+10	1	-1E+10	1	-1E+10	1
4902624	26	C	03/08/2025	02:31	-126.751	48.105	0	1631.10	0	2.2933	0	34.5560	0	27.601	0	1611.098	0	103.4	4	31.4	4	-1E+10	1	0.0438	4	0.000182	0	-1E+10	1	-1E+10	1	-1E+10	1
4902624	26	C	03/08/2025	02:31	-126.751	48.105	0	1653.60	0	2.2625	0	34.5600	0	27.607	0	1633.236	0	110.5	4	33.5	4	-1E+10	1	0.0438	4	0.000318	0	-1E+10	1	-1E+10	1	-1E+10	1
4902624	26	C	03/08/2025	02:31	-126.751	48.105	0	1675.80	0	2.2320	0	34.5640	0	27.613	0	1655.076	0	-1e10	1	-1e10	1	-1E+10	1	-1e10	1	-1e10	1	-1E+10	1	-1E+10	1	-1E+10	1
4902624	26	C	03/08/2025	02:31	-126.751	48.105	0	1676.80	0	2.2307	0	34.5641	0	27.613	0	1656.059	0	85.7	4	26.0	4	-1E+10	1	0.0442	4	0.000235	0	-1E+10	1	-1E+10	1	-1E+10	1
4902624	26	C	03/08/2025	02:31	-126.751	48.105	0	1696.80	0	2.2051	0	34.5670	0	27.618	0	1675.733	0	88.4	4	26.8	4	-1E+10	1	0.0582	4	0.000155	0	-1E+10	1	-1E+10	1	-1E+10	1
4902624	26	C	03/08/2025	02:31	-126.751	48.105	0	1712.90	0	2.1844	0	34.5693	0	27.621	0	1691.569	0	89.2	4	27.0	4	-1E+10	1	0.0511	4	0.000144	0	-1E+10	1	-1E+10	1	-1E+10	1
4902624	26	C	03/08/2025	02:31	-126.751	48.105	0	1724.90	0	2.1690	0	34.5710	0	27.624	0	1703.371	0	-1e10	1	-1e10	1	-1E+10	1	-1e10	1	-1e10	1	-1E+10	1	-1E+10	1	-1E+10	1
4902624	26	C	03/08/2025	02:31	-126.751	48.105	0	1729.80	0	2.1649	0	34.5716	0	27.625	0	1708.190	0	93.2	4	28.2	4	-1E+10	1	0.0510	4	0.000167	0	-1E+10	1	-1E+10	1	-1E+10	1
4902624	26	C	03/08/2025	02:31	-126.751	48.105	0	1747.20	0	2.1505	0	34.5737	0	27.628	0	1725.302	0	97.2	4	29.4	4	-1E+10	1	0.0440	4	0.000167	0	-1E+10	1	-1E+10	1	-1E+10	1
4902624	26	C	03/08/2025	02:31	-126.751	48.105	0	1765.40	0	2.1355	0	34.5759	0	27.631	0	1743.200	0	100.5	4	30.4	4	-1E+10	1	0.0511	4	0.000178	0	-1E+10	1	-1E+10	1	-1E+10	1
4902624	26	C	03/08/2025	02:31	-126.751	48.105	0	1774.40	0	2.1280	0	34.5770	0	27.632	0	1752.049	0	-1e10	1	-1e10	1	-1E+10	1	-1e10	1	-1e10	1	-1E+10	1	-1E+10	1	-1E+10	1
4902624	26	C	03/08/2025	02:31	-126.751	48.105	0	1784.20	0	2.1181	0	34.5786	0	27.634	0	1761.685	0	102.5	4	31.0	4	-1E+10	1	0.0511	4	0.000201	0	-1E+10	1	-1E+10	1	-1E+10	1
4902624	26	C	03/08/2025	02:31	-126.751	48.105	0	1803.90	0	2.0982	0	34.5817	0	27.638	0	1781.054	0	104.0	4	31.4	4	-1E+10	1	0.0511	4	0.000189	0	-1E+10	1	-1E+10	1	-1E+10	1
4902624	26	C	03/08/2025	02:31	-126.751	48.105	0	1823.90	0	2.0780	0	34.5848	0	27.643	0	1800.716	0	104.8	4	31.7	4	-1E+10	1	0.0511	4	0.000177	0	-1E+10	1	-1E+10	1	-1E+10	1
4902624	26	C	03/08/2025	02:31	-126.751	48.105	0	1824.90	0	2.0770	0	34.5850	0	27.643	0	1801.699	0	-1e10	1	-1e10	1	-1E+10	1	-1e10	1	-1e10	1	-1E+10	1	-1E+10	1	-1E+10	1
4902624	26	C	03/08/2025	02:31	-126.751	48.105	0	1844.90	0	2.0513	0	34.5882	0	27.648	0	1821.359	0	118.0	4	35.6	4	-1E+10	1	0.0510	4	0.000177	0	-1E+10	1	-1E+10	1	-1E+10	1
4902624	26	C	03/08/2025	02:31	-126.751	48.105	0	1866.90	0	2.0231	0	34.5917	0	27.653	0	1842.983	0	101.1	4	30.5	4	-1E+10	1	0.0438	4	0.000165	0	-1E+10	1	-1E+10	1	-1E+10	1
4902624	26	C	03/08/2025	02:31	-126.751	48.105	0	1874.80	0	2.0130	0	34.5930	0	27.654	0	1850.748	0	-1e10	1	-1e10	1	-1E+10	1	-1e10	1	-1e10	1	-1E+10	1	-1E+10	1	-1E+10	1
4902624	26	C	03/08/2025	02:31	-126.751	48.105	0	1889.40	0	1.9985	0	34.5950	0	27.657	0	1865.096	0	101.8	4	30.7	4	-1E+10	1	0.0438	4	0.000176	0	-1E+10	1	-1E+10	1	-1E+10	1
4902624	26	C	03/08/2025	02:31	-126.751	48.105	0	1907.50	0	1.9805	0	34.5975	0	27.661	0	1882.883	0	116.5	4	35.1	4	-1E+10	1	0.0439	4	0.000153	0	-1E+10	1	-1E+10	1	-1E+10	1
4902624	26	C	03/08/2025	02:31	-126.751	48.105	0	1923.90	0	1.9642	0	34.5998	0	27.664	0	1898.999	0	120.2	4	36.2	4	-1E+10	1	0.0509	4	0.000153	0	-1E+10	1	-1E+10	1	-1E+10	1
4902624	26	C	03/08/2025	02:31	-126.751	48.105	0	1925.10	0	1.9630	0	34.6000	0	27.664	0	1900.178	0	-1e10	1	-1e10	1	-1E+10	1	-1e10	1	-1e10	1	-1E+10	1	-1E+10	1	-1E+10	1
4902624	26	C	03/08/2025	02:31	-126.751	48.105	0	1940.80	0	1.9490	0	34.6024	0	27.667	0	1915.604	0	122.2	4	36.8	4	-1E+10	1	0.0441	4	0.000176	0	-1E+10	1	-1E+10	1	-1E+10	1
4902624	26	C	03/08/2025	02:31	-126.751	48.105	0	1958.40	0	1.9334	0	34.6051	0	27.671	0	1932.896	0	123.3	4	37.1	4	-1E+10	1	0.0584	4	0.000187	0	-1E+10	1	-1E+10	1	-1E+10	1
4902624	26	C	03/08/2025	02:31	-126.751	48.105	0	1971.20	0	1.9220	0	34.6070	0	27.673	0	1945.470	0	-1e10	1	-1e10	1	-1E+10	1	-1e10	1	-1e10	1	-1E+10	1	-1E+10	1	-1E+10	1
4902624	26	C	03/08/2025	02:31	-126.751	48.105	0	1976.90	0	-1e10	1	-1e10	1	-1e10	1	1951.070	0	126.7	4	-1e10	4	-1E+10	1	0.0578	4	0.000159	0	-1E+10	1	-1E+10	1	-1E+10	1
4902624	26	C	03/08/2025	02:31	-126.751	48.105	0	1992.40	0	-1e10	1	-1e10	1	-1e10	1	1966.296	0	117.4	4	-1e10	4	-1E+10	1	0.0365	4	0.000205	0	-1E+10	1	-1E+10	1	-1E+10	1
4902624	26	C	03/08/2025	02:31	-126.751	48.105	0																										
4902624	27	C	03/18/2025	21:35	-127.137	48.146	0	0.10	0	9.0060	0	32.2470	0	24.962	0	0.099	0	-1e10	1	-1e10	1	-1E+10	1	0.4015	4	0.001631	0	-1E+10	1	-1E+10	1	-1E+10	1
4902624	27	C	03/18/2025	21:35	-127.137	48.146	0	0.50	0	9.0060	0	32.2470	0	24.962	0	0.496	0	-1e10	1	-1e10	1	-1E+10	1	-1e10	1	-1e10	1	-1E+10	1	-1E+10	1	-1E+10	1
4902624	27	C	03/18/2025	21:35	-127.137	48.146	0	0.60	0	9.0041	0	32.2477	0	24.963	0	0.595	0	266.0	4	92.9	4	-1E+10	1	0.2972	4	0.001115	0	-1E+10	1	-1E+10	1	-1E+10	1
4902624	27	C	03/18/2025	21:35	-127.137	48.146	0	0.80	0	9.0003	0	32.2491	0	24.965	0	0.793	0	-1e10	1	-1e10	1	-1E+10	1	0.2555	4	0.000909	0	-1E+10	1	-1E+10	1	-1E+10	1
4902624	27	C	03/18/2025	21:35	-127.137	48.146	0	0.90	0	8.9984	0	32.2498	0	24.966	0	0.892	0	264.8	4	92.5	4	-1E+10	1	0.2117	4	0.001156	0	-1E+10	1	-1E+10	1	-1E+10	1
4902624	27	C	03/18/2025	21:35	-127.137	48.146	0	1.10	0	8.9946	0	32.2512	0	24.967	0	1.091	0	-1e10	1	-1e10	1	-1E+10	1	0.2409	4	0.001144	0	-1E+10	1	-1E+10	1	-1E+10	1
4902624	27	C	03/18/2025	21:35	-127.137	48.146	0	1.20	0	8.9927	0	32.2519	0	24.968	0	1.190	0	-1e10	1	-1e10	1	-1E+10	1	0.2117	4	0.001144	0	-1E+10	1	-1E+10	1	-1E+10	1
4902624	27	C	03/18/2025	21:35	-127.137	48.146	0	1.30	0	8.9908	0	32.2526	0	24.969	0	1.289	0	-1e10	1	-1e10	1	-1E+10	1	0.2482	4	0.001050	0	-1E+10	1	-1E+10	1	-1E+10	1
4902624	27	C	03/18/2025	21:35	-127.137	48.146	0	1.50	0	8.9870	0	32.2540	0	24.971	0	1.487	0	-1e10	1	-1e10	1	-1E+10	1	0.2190	4	0.001109	0	-1E+10	1	-1E+10	1	-1E+10	1
4902624	27	C	03/18/2025	21:35	-127.137	48.146	0	1.80	0	8.9858	0	32.2543	0	24.971	0	1.785	0	-1e10	1	-1e10	1	-1E+10	1	0.2482	4	0.001015	0	-1E+10	1	-1E+10	1	-1E+10	1
4902624	27	C	03/18/2025	21:35	-127.137	48.146	0	1.90	0	8.9854	0	32.2544	0	24.971	0	1.884	0	-1e10	1	-1e10	1	-1E+10	1	0.2555	4	0.001038	0	-1E+10	1	-1E+10	1	-1E+10	1
4902624	27	C	03/18/2025	21:35	-127.137	48.146	0	2.00	0	8.9850	0	32.2545	0	24.972	0	1.983	0	-1e10	1	-1e10	1	-1E+10	1	0.2190	4	0.001167	0	-1E+10	1	-1E+10	1	-1E+10	1
4902624	27	C	03/18/2025	21:35	-127.137	48.146	0	2.20	0	8.9842	0	32.2547	0	24.972	0	2.181	0	264.2	4	92.3	4	-1E+10	1	0.2263	4	0.001191	0	-1E+10	1	-1E+10	1	-1E+10	1
4902624	27	C	03/18/2025	21:35	-127.137	48.146	0	2.30	0	8.9838	0	32.2548	0	24.972	0	2.281	0	-1e10	1	-1e10	1	-1E+10	1	0.2628	4	0.001449	0	-1E+10	1	-1E+10	1	-1E+10	1
4902624	27	C	03/18/2025	21:35	-127.137	48.146	0	2.40	0	8.9834	0	32.2549	0	24.972	0	2.380	0	-1e10	1	-1e10	1	-1E+10	1	0.2482	4	0.001202	0	-1E+10	1	-1E+10	1	-1E+10	1
4902624	27	C	03/18/2025	21:35	-127.137	48.146	0	2.50	0	8.9830	0	32.2550	0	24.972	0	2.479	0	-1e10	1	-1e10	1	-1E+10	1	0.2555	4	0.001132	0	-1E+10	1	-1E+10	1	-1E+10	1
4902624	27	C	03/18/2025	21:35	-127.137	48.146	0	2.70	0	8.9826	0	32.2548	0	24.972	0	2.677	0	264.2	4	92.2	4	-1E+10	1	0.2555	4	0.001261	0	-1E+10	1	-1E+10	1	-1E+10	1
4902624	27	C	03/18/2025	21:35	-127.137	48.146	0	3.00	0	8.9820	0	32.2545	0	24.972	0	2.975	0	-1e10	1	-1e10	1	-1E+10	1	0.2555	4	0.001156	0	-1E+10	1	-1E+10	1	-1E+10	1
4902624	27	C	03/18/2025	21:35	-127.137	48.146	0	3.10	0	8.9818	0	32.2544	0	24.972	0	3.074	0	-1e10	1	-1e10	1	-1E+10	1	0.2409	4	0.001144	0	-1E+10	1	-1E+10	1	-1E+10	1
4902624	27	C	03/18/2025	21:35	-127.137	48.146	0	3.20	0	8.9816	0	32.2543	0	24.972	0	3.173	0	-1e10	1	-1e10	1	-1E+10	1	0.2482	4	0.001167	0	-1E+10	1	-1E+10	1	-1E+10	1
4902624	27	C	03/18/2025	21:35	-127.137	48.146	0	3.40	0	8.9812	0	32.2541	0	24.972	0	3.371	0	264.0	4	92.2	4	-1E+10	1	0.2409	4	0.001050	0	-1E+10	1	-1E+10	1	-1E+10	1
4902624	27	C	03/18/2025	21:35	-127.137	48.146	0	3.50	0	8.9810	0	32.2540	0	24.972	0	3.471	0	-1e10	1	-1e10	1	-1E+10	1	0.2628	4	0.001249	0	-1E+10	1	-1E+10	1	-1E+10	1
4902624	27	C	03/18/2025	21:35	-127.137	48.146	0	3.70	0	8.9806	0	32.2542	0	24.972	0	3.669	0	-1e10	1	-1e10	1	-1E+10	1	0.2409	4	0.001062	0	-1E+10	1	-1E+10	1	-1E+10	1
4902624	27	C	03/18/2025	21:35	-127.137	48.146	0	3.90	0	8.9803	0	32.2544	0	24.972	0	3.867	0	-1e10	1	-1e10	1	-1E+10	1	0.2628	4	0.001097	0	-1E+10	1	-1E+10	1	-1E+10	1
4902624	27	C	03/18/2025	21:35	-127.137	48.146	0	4.10	0	8.9799	0	32.2545	0	24.972	0	4.066	0	264.0	4	92.2	4	-1E+10	1	0.2409	4	0.001097	0	-1E+10	1	-1E+10	1	-1E+10	1
4902624	27	C	03/18/2025	21:35	-127.137	48.146	0	4.20	0	8.9797	0	32.2546	0	24.973	0	4.165	0	-1e10	1	-1e10	1	-1E+10	1	0.2774	4	0.001179	0	-1E+10	1	-1E+10	1	-1E+10	1
4902624	27	C	03/18/2025	21:35	-127.137	48.146	0	4.40	0	8.9794	0	32.2548	0	24.973	0	4.363	0	-1e10	1	-1e10	1	-1E+10	1	0.2555	4	0.001109	0	-1E+10	1	-1E+10	1	-1E+10	1
4902624	27	C	03/18/2025	21:35	-127.137	48.146	0	4.50	0	8.9792	0	32.2549	0	24.973	0	4.462	0	-1e10	1	-1e10	1	-1E+10	1	0.2628	4	0.001132	0	-1E+10	1	-1E+10	1	-1E+10	1
4902624	27	C	03/18/2025	21:35	-127.137	48.146	0	4.60	0	8.9790	0	32.2550	0	24.973	0	4.561	0	-1e10	1	-1e10	1	-1E+10	1	-1e10	1	-1e10	1	-1E+10	1	-1E+10	1	-1E+10	1
4902624	27	C	03/18/2025	21:35	-127.137	48.146	0	4.70	0	8.9791	0	32.2549	0	24.973	0	4.660	0	-1e10	1	-1e10	1	-1E+10	1	0.2701	4	0.001109	0	-1E+10	1	-1E+10	1	-1E+10	1
4902624	27	C	03/18/2025	21:35	-127.137	48.146	0	4.90	0	8.9793	0	32.2547	0	24.973	0	4.859	0	263.8	4	92.1	4	-1E+10	1	0.2628	4	0.001073	0	-1E+10	1	-1E+10	1	-1E+10	1
4902624	27	C	03/18/2025	21:35	-127.137	48.146	0	5.00	0	8.9794	0	32.2546	0	24.973	0	4.958	0	-1e10	1	-1e10	1	-1E+10	1	0.2628	4	0.001202	0	-1E+10	1	-1E+10	1	-1E+10	1
4902624	27	C	03/18/2025	21:35	-127.137	48.146	0	5.10	0	8.9795	0	32.2545	0	24.972	0	5.057	0	-1e10	1	-1e10	1	-1E+10	1	0.2628	4	0.001202	0	-1E+10	1	-1E+10	1	-1E+10	1
4902624	27	C	03/18/2025	21:35	-127.137	48.146	0	5.50	0	8.9799	0	32.2541	0	24.972	0	5.454	0	-1e10	1	-1e10	1	-1E+10	1	0.2628	4	0.001566	0	-1E+10	1	-1E+10	1	-1E+10	1
4902624	27	C	03/18/2025	21:35	-127.137	48.146	0	5.60	0	8.9800	0	32.2540	0	24.972	0	5.553	0	263.5	4	92.0	4	-1E+10	1	0.2628	4	0.001214	0	-1E+10	1	-1E+10	1	-1E+10	1
4902624	27	C	03/18/2025	21:35	-127.137	48.146	0	5.80	0	8.9798	0	32.2538	0	24.972	0	5.751	0	-1e10	1	-1e10	1	-1E+10	1	0.2701	4	0.001285	0	-1E+10	1	-1E+10	1	-1E+10	1
4902624	27	C	03/18/2025	21:35	-127.137	48.146	0	6.00	0	8.9796	0	32.2536	0	24.972	0	5.949	0	-1e10	1	-1e10	1	-1E+10	1	0.2628	4	0.001308	0	-1E+10	1	-1E+10	1	-1E+10	1
4902624	27	C	03/18/2025	21:35	-127.137	48.146	0	6.10	0	8.9794	0	32.2534	0	24.972	0	6.049	0	-1e10	1	-1e10	1	-1E+10	1	0.2774	4	0.001156	0	-1E+10	1	-1E+10	1	-1E+10	1
4902624	27	C	03/18/2025	21:35	-127.137	48.146	0	6.40	0	8.9791	0	32.2531	0	24.971	0	6.346	0	-1e10	1	-1e10	1	-1E+10	1	0.2701	4	0.002200	0	-1E+10	1	-1E+10	1	-1E+10	1
4902624	27	C	03/18/2025	21:35	-127.137	48.146	0	6.50	0	8.9790	0	32.2530	0	24.971	0	6.445	0	263.3	4	91.9	4	-1E+10	1	0.2774	4	0.002716	0	-1E+10	1	-1E+10	1	-1E+10	1
4902624	27	C	03/18/2025	21:35	-127.137	48.146	0	6.80	0	8.9790	0	32.2530	0	24.971	0	6.743	0	-1e10	1	-1e10	1	-1E+10	1	0.2847	4	0.001437	0	-1E+10	1	-1E+10	1	-1E+10	1
4902624	27	C	03/18/2025	21:35	-127.137	48.146	0	7.10	0	8.9790	0	32.2530	0	24.971	0	7.040	0	-1e10	1	-1e10	1	-1E+10	1	0.2920	4	0.001156	0	-1E+10	1	-1E+10	1	-1E+10	1
4902624	27	C	03/18/2025	21:35	-127.137	48.146	0	7.20	0	8.9790	0	32.2530	0	24.971	0	7.139	0	-1e10	1	-1e10	1	-1E+10	1	0.2993	4	0.001261	0	-1E+10	1	-1E+10	1	-1E+10	1
4902624	27	C	03/18/2025	21:35	-127.137	48.146	0	7.40	0	8.9790	0	32.2530	0	24.971	0	7.338	0	262.9	4	91.8	4	-1E+10	1	0.3212	4	0.001402	0	-1E+10	1	-1E+10	1	-1E+10	1
4902624	27	C	03/18/2025	21:35	-127.137	48.146	0	7.60	0	8.9755	0	32.2532	0	24.972	0	7.536	0	-1e10	1	-1e10	1	-1E+10	1	0.3285	4	0.001073	0	-1E+10	1	-1E+10	1	-1E+10	1
4902624	27	C	03/18/2025	21:35	-127.137	48.146	0	7.80	0	8.9721	0	32.2534	0	24.973	0	7.734	0	-1e10	1	-1e10	1	-1E+10	1	0.3358	4	0.001109	0	-1E+10	1	-1E+10	1	-1E+10	1
4902624	27	C	03/18/2025	21:35	-127.137	48.146	0	8.00	0	8.9686	0	32.2535	0	24.973	0	7.933	0	-1e10	1	-1e10	1	-1E+10	1	0.3504	4	0.001144	0	-1E+10	1	-1E+10	1	-1E+10	1
4902624	27	C	03/18/2025	21:35	-127.137	48.146	0	8.50	0	8.9600	0	32.2540	0	24.975	0	8.428	0	262.9	4	91.8	4	-1E+10	1	0.3606	4	0.001102	0	-1E+10	1	-1E+10	1	-1E+10	1
4902624	27	C	03/18/2025	21:35	-127.137	48.146	0	8.70	0	8.9600	0	32.2538	0	24.975	0	8.627	0	-1e10	1	-1e10	1	-1E+10	1	0.3577	4	0.001120	0	-1E+10	1	-1E+10	1	-1E+10	1
4902624	27	C	03/18/2025	21:35	-127.137	48.146	0	8.90	0	8.9600	0	32.2536	0	24.975	0	8.825	0	-1e10	1	-1e10	1	-1E+10	1	0.3577	4	0.001120	0	-1E+10	1	-1E+10	1	-1E+10	1
4902624	27	C	03/18/2025	21:35	-127.137	48.146	0	9.10	0	8.9600	0	32.2534	0	24.975	0	9.023	0	-1e10	1	-1e10	1	-1E+10	1	0.3358	4	0.001132	0	-1E+10	1	-1E+10	1	-1E+10	1
4902624	27	C	03/18/2025	21:35	-127.137	48.146	0	9.40	0	8.9600	0	32.2531	0	24.974	0	9.321	0	-1e10	1	-1e10	1	-1E+10	1	0.3504	4	0.001132	0	-1E+10	1	-1E+10	1	-1E+10	1
4902624	27	C	03/18/2025	21:35	-127.137	48.146	0	9.50	0	8.9600	0	32.2530	0	24.974	0	9.420	0	-1e10	1	-1e10	1	-1E+10	1	-1e10	1	-1e10	1	-1E+10	1	-1E+10	1	-1E+10	1
4902624	27	C	03/18/2025	21:35	-127.137	48.146	0	9.60	0	8.9589	0	32.2531	0	24.975	0	9.519	0	262.7	4	91.7	4	-1E+10	1	0.3650	4	0.001214	0	-1E+10	1	-1E+10	1	-1E+10	1
4902624	27	C	03/18/2025	21:35	-127.137	48.146	0	9.80	0	8.9566	0	32.2534	0	24.975	0	9.717	0	-1e10	1	-1e10	1	-1E+10	1	0.3577	4	0.001085	0	-1E+10	1	-1E+10	1	-1E+10	1
4902624	27	C	03/18/2025	21:35	-127.137	48.146	0	10.70	0	8.9464	0	32.2546	0	24.978	0	10.610	0	262.6	4	91.6	4	-1E+10	1	0.3796	4	0.001097	0	-1E+10	1	-1E+10	1	-1E+10	1
4902624	27	C	03/18/2025	21:35	-127.137	48.146	0	11.00	0	8.9430	0	32.2550	0	24.979	0	10.907	0	-1e10	1	-1e10	1	-1E+10	1	-1e10	1	-1e10	1	-1E+10	1	-1E+10	1	-1E+10	1
4902624	27	C	03/18/2025	21:35	-127.137	48.146	0	11.70	0	8.9360	0	32.2554	0	24.980	0	11.601	0	262.5	4	91.6	4	-1E+10	1	0.4161	4	0.001167	0	-1E+10	1	-1E+10	1	-1E+10	1
4902624	27	C	03/18/2025	21:35	-127.137	48.146	0	12.90	0	8.9240	0	32.2560	0	24.982	0	12.791	0	262.4	4	91.5	4	-1E+10	1	0.4599	4	0.001109	0	-1E+10	1	-1E+10	1	-1E+10	1
4902624	27	C	03/18/2025	21:35	-127.137	48.146	0	13.00	0	8.9230	0	32.2560	0	24.982	0	12.890	0	-1e10	1	-1e10	1	-1E+10	1	-1e10	1	-1e10	1	-1E+10	1	-1E+10	1	-1E+10	1
4902624	27	C	03/18/2025	21:35	-127.137	48.146	0	13.70	0	8.9202	0	32.2560	0	24.983	0	13.584	0	262.4	4	91.5	4	-1E+10	1	0.4758	4	0.001109	0	-1E+10	1	-1E+10	1	-1E+10	1
4902624	27	C	03/18/2025	21:35	-127.137	48.146	0	14.50	0	8.9170	0	32.2560	0	24.983	0	14.378	0	262.3	4	91.4	4	-1E+10	1	0.5224	4	0.001063	0	-1E+10	1	-1E+10	1	-1E+10	1
4902624	27	C	03/18/2025	21:35	-127.137	48.146	0	15.00	0	8.9150	0	32.2560	0	24.984	0	14.873	0	-1e10	1	-1e10	1	-1E+10	1	-1e10	1	-1e10	1	-1E+10	1	-1E+10	1	-1E+10	1
4902624	27	C	03/18/2025	21:35	-127.137	48.146	0	15.40	0	8.9168	0	32.2554	0	24.983	0	15.270	0	261.9	4	91.3	4	-1E+10	1	0.5349	4	0.001309	0	-1E+10	1	-1E+10	1	-1E+10	1
4902624	27	C	03/18/2025	21:35	-127.137	48.146	0	16.40	0	8.9213	0	32.2539	0	24.981	0	16.262	0	261.8	4	91.3	4	-1E+10	1	0.5296	4	0.001452	0	-1E+10	1	-1E+10	1	-1E+10	1
4902624	27	C	03/18/2025	21:35	-127.137	48.146	0	17.00	0	8.9240	0	32.2530	0	24.980	0	16.856	0	-1e10	1	-1e10	1	-1E+10	1	-1e10	1	-1e10	1	-1E+10	1	-1E+10	1	-1E+10	1
4902624	27	C	03/18/2025	21:35	-127.137	48.146	0	17.30	0	8.9191	0	32.2536	0	24.981	0	17.154	0	261.6	4	91.2	4	-1E+10	1	0.5783	4	0.001106	0	-1E+10	1	-1E+10	1	-1E+10	1
4902624	27	C	03/18/2025	21:35	-127.137	48.146	0	18.20	0	8.9046	0	32.2553	0	24.985	0	18.046	0	261.4	4	91.1	4	-1E+10	1	0.6444	4	0.001097	0	-1E+10	1	-1E+10	1	-1E+10	1
4902624	27	C	03/18/2025	21:35	-127.137	48.146	0	19.10	0	8.8900	0	32.2570	0	24.988	0	18.939	0	261.1	4	91.0	4	-1E+10	1	0.6862	4	0.001097	0	-1E+10	1	-1E+10	1	-1E+10	1
4902624	27	C	03/18/2025	21:35	-127.137	48.146	0	20.00	0	8.8881	0	32.2561	0	24.988	0	19.831	0	260.9	4	90.9	4	-1E+10	1	0.7322	4	0.001340	0	-1E+10	1	-1E+10	1	-1E+10	1
4902624	27	C	03/18/2025	21:35	-127.137	48.146	0	20.80	0	8.8864	0	32.2552	0	24.988	0	20.624	0	260.7	4	90.8	4	-1E+10	1	0.7714	4	0.001211	0	-1E+10	1	-1E+10	1	-1E+10	1
4902624	27	C	03/18/2025	21:35	-127.137	48.146	0	21.00	0	8.8860	0	32.2550	0	24.988	0	20.822	0	-1e10	1	-1e10	1	-1E+10	1	-1e10	1	-1e10	1	-1E+10	1	-1E+10	1	-1E+10	1
4902624	27	C	03/18/2025	21:35	-127.137	48.146	0	21.70	0	8.8853	0	32.2550	0	24.988	0	21.516	0	260.4	4	90.7	4	-1E+10	1	0.7997	4	0.001219	0	-1E+10	1	-1E+10	1	-1E+10	1
4902624	27	C	03/18/2025	21:35	-127.137	48.146	0	22.60	0	8.8844	0	32.2550	0	24.988	0	22.409	0	260.1	4	90.6	4	-1E+10	1	0.8368	4	0.001175	0	-1E+10	1	-1E+10	1	-1E+10	1
4902624	27	C	03/18/2025	21:35	-127.137	48.146	0	23.00	0	8.8840	0	32.2550	0	24.988	0	22.805	0	-1e10	1	-1e10	1	-1E+10	1	-1e10	1	-1e10	1	-1E+10	1	-1E+10	1	-1E+10	1
4902624	27	C	03/18/2025	21:35	-127.137	48.146	0	23.50	0	8.8835	0	32.2552	0	24.988	0	23.301	0	259.7	4	90.5	4	-1E+10	1	0.8833	4	0.001097	0	-1E+10	1	-1E+10	1	-1E+10	1
4902624	27	C	03/18/2025	21:35	-127.137	48.146	0	24.40	0	8.8826	0	32.2557	0	24.989	0	24.193	0	259.4	4	90.4	4	-1E+10	1	0.9145	4	0.001162	0	-1E+10	1	-1E+10	1	-1E+10	1
4902624	27	C	03/18/2025	21:35	-127.137	48.146	0	25.00	0	8.8820	0	32.2560	0	24.989	0	24.788	0	-1e10	1	-1e10	1	-1E+10	1	-1e10	1	-1e10	1	-1E+10	1	-1E+10	1	-1E+10	1
4902624	27	C	03/18/2025	21:35	-127.137	48.146	0	25.30	0	8.8819	0	32.2560	0	24.989	0	25.086	0	258.9	4	90.2	4	-1E+10	1	0.9198	4	0.001260	0	-1E+10	1	-1E+10	1	-1E+10	1
4902624	27	C	03/18/2025	21:35	-127.137	48.146	0	26.30	0	8.8813	0	32.2560	0	24.989	0	26.077	0	258.6	4	90.1	4	-1E+10	1	0.9198	4	0.001132	0	-1E+10	1	-1E+10	1	-1E+10	1
4902624	27	C	03/18/2025	21:35	-127.137	48.146	0	27.00	0	8.8810	0	32.2560	0	24.989	0	26.771	0	-1e10	1	-1e10	1	-1E+10	1	-1e10	1	-1e10	1	-1E+10	1	-1E+10	1	-1E+10	1
4902624	27	C	03/18/2025	21:35	-127.137	48.146	0	27.20	0	8.8808	0	32.2560	0	24.989	0	26.970	0	258.2	4	90.0	4	-1E+10	1	0.9344	4	0.001085	0	-1E+10	1	-1E+10	1	-1E+10	1
4902624	27	C	03/18/2025	21:35	-127.137	48.146	0	28.10	0	8.8799	0	32.2560	0	24.989	0	27.862	0	257.8	4	89.8	4	-1E+10	1	0.8986	4	0.002026	0	-1E+10	1	-1E+10	1	-1E+10	1
4902624	27	C	03/18/2025	21:35	-127.137	48.146	0	29.00	0	8.8790	0	32.2560	0	24.989	0	28.754	0	257.3	4	89.6	4	-1E+10	1	0.8720	4	0.001802	0	-1E+10	1	-1E+10	1	-1E+10	1
4902624	27	C	03/18/2025	21:35	-127.137	48.146	0	30.00	0	8.8780	0	32.2565	0	24.990	0	29.746	0	256.9	4	89.5	4	-1E+10	1	0.8614	4	0.001194	0	-1E+10	1	-1E+10	1	-1E+10	1
4902624	27	C	03/18/2025	21:35	-127.137	48.146	0	31.00	0	8.8770	0	32.2570	0	24.991	0	30.737	0	256.3	4	89.3	4	-1E+10	1	0.8486	4	0.001083	0	-1E+10	1	-1E+10	1	-1E+10	1
4902624	27	C	03/18/2025	21:35	-127.137	48.146	0	31.90	0	8.8765	0	32.2570	0	24.991	0	31.629	0	255.8	4	89.1	4	-1E+10	1	0.8209	4	0.001085	0	-1E+10	1	-1E+10	1	-1E+10	1
4902624	27	C	03/18/2025	21:35	-127.137	48.146	0	32.80	0	8.8761	0	32.2570	0	24.991	0	32.522	0	255.1	4	88.9	4	-1E+10	1	0.7840	4	0.001003	0	-1E+10	1	-1E+10	1	-1E+10	1
4902624	27	C	03/18/2025	21:35	-127.137	48.146	0	32.90	0	8.8760	0	32.2570	0	24.991	0	32.621	0	-1e10	1	-1e10	1	-1E+10	1	-1e10	1	-1e10	1	-1E+10	1	-1E+10	1	-1E+10	1
4902624	27	C	03/18/2025	21:35	-127.137	48.146	0	33.80	0	8.8760	0	32.2570	0	24.991	0	33.513	0	254.4	4	88.6	4	-1E+10	1	0.7641	4	0.001007	0	-1E+10	1	-1E+10	1	-1E+10	1
4902624	27	C	03/18/2025	21:35	-127.137	48.146	0	34.80	0	8.8760	0	32.2570	0	24.991	0	34.505	0	253.6	4	88.3	4	-1E+10	1	0.7519	4	0.001026	0	-1E+10	1	-1E+10	1	-1E+10	1
4902624	27	C	03/18/2025	21:35	-127.137	48.146	0	35.10	0	8.8760	0	32.2570	0	24.991	0	34.802	0	-1e10	1	-1e10	1	-1E+10	1	-1e10	1	-1e10	1	-1E+10	1	-1E+10	1	-1E+10	1
4902624	27	C	03/18/2025	21:35	-127.137	48.146	0	35.70	0	8.8757	0	32.2573	0	24.991	0	35.397	0	252.7	4	88.1	4	-1E+10	1	0.7877	4	0.000997	0	-1E+10	1	-1E+10	1	-1E+10	1
4902624	27	C	03/18/2025	21:35	-127.137	48.146	0	36.70	0	8.8752	0	32.2578	0	24.992	0	36.388	0	251.7	4	87.7	4	-1E+10	1	0.7548	4	0.000991	0	-1E+10	1	-1E+10	1	-1E+10	1
4902624	27	C	03/18/2025	21:35	-127.137	48.146	0	37.00	0	8.8750	0	32.2580	0	24.992	0	36.686	0	-1e10	1	-1e10	1	-1E+10	1	-1e10	1	-1e10	1	-1E+10	1	-1E+10	1	-1E+10	1
4902624	27	C	03/18/2025	21:35	-127.137	48.146	0	37.70	0	8.8747	0	32.2584	0	24.992	0	37.380	0	250.6	4	87.3	4	-1E+10	1	0.7397	4	0.000975	0	-1E+10	1	-1E+10	1	-1E+10	1
4902624	27	C	03/18/2025	21:35	-127.137	48.146	0	38.60	0	8.8742	0	32.2588	0	24.993	0	38.272	0	249.5	4	86.9	4	-1E+10	1	0.7207	4	0.000946	0	-1E+10	1	-1E+10	1	-1E+10	1
4902624	27	C	03/18/2025	21:35	-127.137	48.146	0	39.00	0	8.8740	0	32.2590	0	24.993	0	38.669	0	-1e10	1	-1e10	1	-1E+10	1	-1e10	1	-1e10	1	-1E+10	1	-1E+10	1	-1E+10	1
4902624	27	C	03/18/2025	21:35	-127.137	48.146	0	39.60	0	8.8734	0	32.2593	0	24.993	0	39.263	0	248.0	4	86.4	4	-1E+10	1	0.6833	4	0.000921	0	-1E+10	1	-1E+10	1	-1E+10	1
4902624	27	C	03/18/2025	21:35	-127.137	48.146	0	40.50	0	8.8726	0	32.2597	0	24.994	0	40.156	0	246.5	4	85.9	4	-1E+10	1	0.6351	4	0.000917	0	-1E+10	1	-1E+10	1	-1E+10	1
4902624	27	C	03/18/2025	21:35	-127.137	48.146	0	41.10	0	8.8720	0	32.2600	0	24.994	0	40.751	0	-1e10	1	-1e10	1	-1E+10	1	-1e10	1	-1e10	1	-1E+10	1	-1E+10	1	-1E+10	1
4902624	27	C	03/18/2025	21:35	-127.137	48.146	0	41.50	0	8.8720	0	32.2602	0	24.994	0	41.147	0	244.6	4	85.2	4	-1E+10	1	0.5966	4	0.000892	0	-1E+10	1	-1E+10	1	-1E+10	1
4902624	27	C	03/18/2025	21:35	-127.137	48.146	0	42.40	0	8.8720	0	32.2607	0	24.994	0	42.039	0	242.8	4	84.6	4	-1E+10	1	0.5942	4	0.000846	0	-1E+10	1	-1E+10	1	-1E+10	1
4902624	27	C	03/18/2025	21:35	-127.137	48.146	0	43.00	0	8.8720	0	32.2610	0	24.995	0	42.634	0	-1e10	1	-1e10	1	-1E+10	1	-1e10	1	-1e10	1	-1E+10	1	-1E+10	1	-1E+10	1
4902624	27	C	03/18/2025	21:35	-127.137	48.146	0	43.40	0	8.8720	0	32.2620	0	24.995	0	43.031	0	240.8	4	83.9	4	-1E+10	1	0.5395	4	0.000780	0	-1E+10	1	-1E+10	1	-1E+10	1
4902624	27	C	03/18/2025	21:35	-127.137	48.146	0	44.30	0	8.8720	0	32.2641	0	24.997	0	43.923	0	238.5	4	83.1	4	-1E+10	1	0.5037	4	0.000780	0	-1E+10	1	-1E+10	1	-1E+10	1
4902624	27	C	03/18/2025	21:35	-127.137	48.146	0	45.10	0	8.8720	0	32.2660	0	24.999	0	44.716	0	-1e10	1	-1e10	1	-1E+10	1	-1e10	1	-1e10	1	-1E+10	1	-1E+10	1	-1E+10	1
4902624	27	C	03/18/2025	21:35	-127.137	48.146	0	45.20	0	8.8721	0	32.2667	0	24.999	0	44.815	0	236.2	4	82.3	4	-1E+10	1	0.4679	4	0.000751	0	-1E+10	1	-1E+10	1	-1E+10	1
4902624	27	C	03/18/2025	21:35	-127.137	48.146	0	46.10	0	8.8726	0	32.2732	0	25.004	0	45.707	0	233.5	4	81.3	4	-1E+10	1	0.3960	4	0.000714	0	-1E+10	1	-1E+10	1	-1E+10	1
4902624	27	C	03/18/2025	21:35	-127.137	48.146	0	46.90	0	8.8730	0	32.2790	0	25.009	0	46.501	0	230.7	4	80.4	4	-1E+10	1	0.3730	4	0.000694	0	-1E+10	1	-1E+10	1	-1E+10	1
4902624	27	C	03/18/2025	21:35	-127.137	48.146	0	47.90	0	8.8595	0	32.3060	0	25.032	0	47.492	0	227.2	4	79.1	4	-1E+10	1	0.3531	4	0.000814	0	-1E+10	1	-1E+10	1	-1E+10	1
4902624	27	C	03/18/2025	21:35	-127.137	48.146	0	48.80	0	8.8474	0	32.3303	0	25.053	0	48.384	0	223.7	4	77.9	4	-1E+10	1	0.3334	4	0.000775	0	-1E+10	1	-1E+10	1	-1E+10	1
4902624	27	C	03/18/2025	21:35	-127.137	48.146	0	48.90	0	8.8460	0	32.3330	0	25.055	0	48.483	0	-1e10	1	-1e10	1	-1E+10	1	-1e10	1	-1e10	1	-1E+10	1	-1E+10	1	-1E+10	1
4902624	27	C	03/18/2025	21:35	-127.137	48.146	0	49.70	0	8.8350	0	32.3540	0	25.073	0	49.276	0	220.1	4	76.7	4	-1E+10	1	0.3188	4	0.000600	0	-1E+10	1	-1E+10	1	-1E+10	1
4902624	27	C	03/18/2025	21:35	-127.137	48.146	0	50.60	0	8.8225	0	32.3775	0	25.094	0	50.169	0	216.7	4	75.5	4	-1E+10	1	0.3132	4	0.000616	0	-1E+10	1	-1E+10	1	-1E+10	1
4902624	27	C	03/18/2025	21:35	-127.137	48.146	0	51.00	0	8.8170	0	32.3880	0	25.103	0	50.565	0	-1e10	1	-1e10	1	-1E+10	1	-1e10	1	-1e10	1	-1E+10	1	-1E+10	1	-1E+10	1
4902624	27	C	03/18/2025	21:35	-127.137	48.146	0	51.50	0	8.8125	0	32.3978	0	25.111	0	51.061	0	212.9	4	74.1	4	-1E+10	1	0.3066	4	0.000616	0	-1E+10	1	-1E+10	1	-1E+10	1
4902624	27	C	03/18/2025	21:35	-127.137	48.146	0	52.40	0	8.8043	0	32.4154	0	25.126	0	51.953	0	209.3	4	72.9	4	-1E+10	1	0.2920	4	0.000569	0	-1E+10	1	-1E+10	1	-1E+10	1
4902624	27	C	03/18/2025	21:35	-127.137	48.146	0	53.10	0	8.7979	0	32.4290	0	25.138	0	52.647	0	206.3	4	71.8	4	-1E+10	1	0.3112	4	0.000599	0	-1E+10	1	-1E+10	1	-1E+10	1
4902624	27	C	03/18/2025	21:35	-127.137	48.146	0	53.20	0	8.7970	0	32.4310	0	25.139	0	52.746	0	-1e10	1	-1e10	1	-1E+10	1	-1e10	1	-1e10	1	-1E+10	1	-1E+10	1	-1E+10	1
4902624	27	C	03/18/2025	21:35	-127.137	48.146	0	53.60	0	8.7879	0	32.4569	0	25.161	0	53.143	0	203.3	4	70.8	4	-1E+10	1	0.2896	4	0.000565	0	-1E+10	1	-1E+10	1	-1E+10	1
4902624	27	C	03/18/2025	21:35	-127.137	48.146	0	54.10	0	8.7766	0	32.4893	0	25.188	0	53.638	0	200.6	4	69.9	4	-1E+10	1	0.2643	4	0.000531	0	-1E+10	1	-1E+10	1	-1E+10	1
4902624	27	C	03/18/2025	21:35	-127.137	48.146	0	54.60	0	8.7653	0	32.5216	0	25.215	0	54.134	0	198.3	4	69.0	4	-1E+10	1	0.2686	4	0.000515	0	-1E+10	1	-1E+10	1	-1E+10	1
4902624	27	C	03/18/2025	21:35	-127.137	48.146	0	55.00	0	8.7563	0	32.5475	0	25.237	0	54.530	0	195.8	4	68.2	4	-1E+10	1	0.2628	4	0.000537	0	-1E+10	1	-1E+10	1	-1E+10	1
4902624	27	C	03/18/2025	21:35	-127.137	48.146	0	55.10	0	8.7540	0	32.5540	0	25.242	0	54.630	0	-1e10	1	-1e10	1	-1E+10	1	-1e10	1	-1e10	1	-1E+10	1	-1E+10	1	-1E+10	1
4902624	27	C	03/18/2025	21:35	-127.137	48.146	0	55.50	0	8.7433	0	32.5755	0	25.261	0	55.026	0	193.2	4	67.3	4	-1E+10	1	0.2307	4	0.000601	0	-1E+10	1	-1E+10	1	-1E+10	1
4902624	27	C	03/18/2025	21:35	-127.137	48.146	0	56.00	0	8.7298	0	32.6023	0	25.284	0	55.522	0	190.6	4	66.4	4	-1E+10	1	0.2239	4	0.000623	0	-1E+10	1	-1E+10	1	-1E+10	1
4902624	27	C	03/18/2025	21:35	-127.137	48.146	0	56.50	0	8.7164	0	32.6292	0	25.307	0	56.017	0	188.2	4	65.5	4	-1E+10	1	0.2482	4	0.000545	0	-1E+10	1	-1E+10	1	-1E+10	1
4902624	27	C	03/18/2025	21:35	-127.137	48.146	0	57.00	0	8.7030	0	32.6560	0	25.330	0	56.513	0	185.1	4	64.4	4	-1E+10	1	0.2221	4	0.000478	0	-1E+10	1	-1E+10	1	-1E+10	1
4902624	27	C	03/18/2025	21:35	-127.137	48.146	0	57.60	0	8.6841	0	32.6857	0	25.356	0	57.108	0	183.1	4	63.7	4	-1E+10	1	0.2020	4	0.000467	0	-1E+10	1	-1E+10	1	-1E+10	1
4902624	27	C	03/18/2025	21:35	-127.137	48.146	0	58.30	0	8.6621	0	32.7203	0	25.387	0	57.802	0	180.9	4	62.9	4	-1E+10	1	0.2023	4	0.000466	0	-1E+10	1	-1E+10	1	-1E+10	1
4902624	27	C	03/18/2025	21:35	-127.137	48.146	0	59.00	0	8.6400	0	32.7550	0	25.417	0	58.496	0	177.6	4	61.8	4	-1E+10	1	0.1963	4	0.000469	0	-1E+10	1	-1E+10	1	-1E+10	1
4902624	27	C	03/18/2025	21:35	-127.137	48.146	0	59.60	0	8.6292	0	32.7766	0	25.436	0	59.091	0	175.8	4	61.2	4	-1E+10	1	0.1919	4	0.000488	0	-1E+10	1	-1E+10	1	-1E+10	1
4902624	27	C	03/18/2025	21:35	-127.137	48.146	0	60.40	0	8.6148	0	32.8054	0	25.461	0	59.884	0	173.3	4	60.3	4	-1E+10	1	0.1874	4	0.000502	0	-1E+10	1	-1E+10	1	-1E+10	1
4902624	27	C	03/18/2025	21:35	-127.137	48.146	0	61.00	0	8.6040	0	32.8270	0	25.479	0	60.478	0	-1e10	1	-1e10	1	-1E+10	1	-1e10	1	-1e10	1	-1E+10	1	-1E+10	1	-1E+10	1
4902624	27	C	03/18/2025	21:35	-127.137	48.146	0	61.10	0	8.6021	0	32.8321	0	25.483	0	60.577	0	171.0	4	59.4	4	-1E+10	1	0.1687	4	0.000464	0	-1E+10	1	-1E+10	1	-1E+10	1
4902624	27	C	03/18/2025	21:35	-127.137	48.146	0	61.90	0	8.5869	0	32.8733	0	25.518	0	61.371	0	168.4	4	58.5	4	-1E+10	1	0.1752	4	0.000486	0	-1E+10	1	-1E+10	1	-1E+10	1
4902624	27	C	03/18/2025	21:35	-127.137	48.146	0	62.80	0	8.5698	0	32.9197	0	25.557	0	62.263	0	166.2	4	57.8	4	-1E+10	1	0.1606	4	0.000569	0	-1E+10	1	-1E+10	1	-1E+10	1
4902624	27	C	03/18/2025	21:35	-127.137	48.146	0	63.00	0	8.5660	0	32.9300	0	25.566	0	62.461	0	-1e10	1	-1e10	1	-1E+10	1	-1e10	1	-1e10	1	-1E+10	1	-1E+10	1	-1E+10	1
4902624	27	C	03/18/2025	21:35	-127.137	48.146	0	63.70	0	8.5513	0	32.9486	0	25.582	0	63.155	0	164.0	4	57.0	4	-1E+10	1	0.1540	4	0.000484	0	-1E+10	1	-1E+10	1	-1E+10	1
4902624	27	C	03/18/2025	21:35	-127.137	48.146	0	64.50	0	8.5345	0	32.9697	0	25.602	0	63.948	0	161.9	4	56.3	4	-1E+10	1	0.1440	4	0.000460	0	-1E+10	1	-1E+10	1	-1E+10	1
4902624	27	C	03/18/2025	21:35	-127.137	48.146	0	65.00	0	8.5240	0	32.9830	0	25.614	0	64.444	0	-1e10	1	-1e10	1	-1E+10	1	-1e10	1	-1e10	1	-1E+10	1	-1E+10	1	-1E+10	1
4902624	27	C	03/18/2025	21:35	-127.137	48.146	0	65.40	0	8.5152	0	32.9998	0	25.628	0	64.840	0	160.0	4	55.6	4	-1E+10	1	0.1433	4	0.000437	0	-1E+10	1	-1E+10	1	-1E+10	1
4902624	27	C	03/18/2025	21:35	-127.137	48.146	0	66.20	0	8.4976	0	33.0334	0	25.657	0	65.633	0	158.3	4	55.0	4	-1E+10	1	0.1460	4	0.000417	0	-1E+10	1	-1E+10	1	-1E+10	1
4902624	27	C	03/18/2025	21:35	-127.137	48.146	0	67.00	0	8.4800	0	33.0670	0	25.686	0	66.426	0	-1e10	1	-1e10	1	-1E+10	1	-1e10	1	-1e10	1	-1E+10	1	-1E+10	1	-1E+10	1
4902624	27	C	03/18/2025	21:35	-127.137	48.146	0	67.10	0	8.4794	0	33.0698	0	25.688	0	66.525	0	156.5	4	54.4	4	-1E+10	1	0.1394	4	0.000411	0	-1E+10	1	-1E+10	1	-1E+10	1
4902624	27	C	03/18/2025	21:35	-127.137	48.146	0	68.00	0	8.4745	0	33.0945	0	25.708	0	67.417	0	154.5	4	53.7	4	-1E+10	1	0.1241	4	0.000514	0	-1E+10	1	-1E+10	1	-1E+10	1
4902624	27	C	03/18/2025	21:35	-127.137	48.146	0	68.90	0	8.4696	0	33.1193	0	25.729	0	68.310	0	152.8	4	53.1	4	-1E+10	1	0.1204	4	0.000754	0	-1E+10	1	-1E+10	1	-1E+10	1
4902624	27	C	03/18/2025	21:35	-127.137	48.146	0	69.00	0	8.4690	0	33.1220	0	25.731	0	68.409	0	-1e10	1	-1e10	1	-1E+10	1	-1e10	1	-1e10	1	-1E+10	1	-1E+10	1	-1E+10	1
4902624	27	C	03/18/2025	21:35	-127.137	48.146	0	69.90	0	8.4456	0	33.1576	0	25.762	0	69.301	0	151.3	4	52.5	4	-1E+10	1	0.1022	4	0.000451	0	-1E+10	1	-1E+10	1	-1E+10	1
4902624	27	C	03/18/2025	21:35	-127.137	48.146	0	70.90	0	8.4196	0	33.1971	0	25.797	0	70.292	0	150.1	4	52.1	4	-1E+10	1	0.1022	4	0.000422	0	-1E+10	1	-1E+10	1	-1E+10	1
4902624	27	C	03/18/2025	21:35	-127.137	48.146	0	71.00	0	8.4170	0	33.2010	0	25.801	0	70.391	0	-1e10	1	-1e10	1	-1E+10	1	-1e10	1	-1e10	1	-1E+10	1	-1E+10	1	-1E+10	1
4902624	27	C	03/18/2025	21:35	-127.137	48.146	0	71.90	0	8.4012	0	33.2150	0	25.814	0	71.283	0	149.0	4	51.7	4	-1E+10	1	0.1139	4	0.000444	0	-1E+10	1	-1E+10	1	-1E+10	1
4902624	27	C	03/18/2025	21:35	-127.137	48.146	0	72.90	0	8.3837	0	33.2304	0	25.829	0	72.275	0	147.7	4	51.3	4	-1E+10	1	0.1168	4	0.000451	0	-1E+10	1	-1E+10	1	-1E+10	1
4902624	27	C	03/18/2025	21:35	-127.137	48.146	0	73.00	0	8.3820	0	33.2320	0	25.830	0	72.374	0	-1e10	1	-1e10	1	-1E+10	1	-1e10	1	-1e10	1	-1E+10	1	-1E+10	1	-1E+10	1
4902624	27	C	03/18/2025	21:35	-127.137	48.146	0	73.90	0	8.3487	0	33.2545	0	25.853	0	73.266	0	146.8	4	50.9	4	-1E+10	1	0.1067	4	0.000429	0	-1E+10	1	-1E+10	1	-1E+10	1
4902624	27	C	03/18/2025	21:35	-127.137	48.146	0	75.00	0	8.3080	0	33.2820	0	25.881	0	74.356	0	144.8	4	50.2	4	-1E+10	1	0.0978	4	0.000484	0	-1E+10	1	-1E+10	1	-1E+10	1
4902624	27	C	03/18/2025	21:35	-127.137	48.146	0	76.10	0	8.2640	0	33.3013	0	25.902	0	75.446	0	145.0	4	50.2	4	-1E+10	1	0.0910	4	0.000522	0	-1E+10	1	-1E+10	1	-1E+10	1
4902624	27	C	03/18/2025	21:35	-127.137	48.146	0	77.00	0	8.2280	0	33.3170	0	25.920	0	76.339	0	-1e10	1	-1e10	1	-1E+10	1	-1e10	1	-1e10	1	-1E+10	1	-1E+10	1	-1E+10	1
4902624	27	C	03/18/2025	21:35	-127.137	48.146	0	77.10	0	8.2253	0	33.3184	0	25.921	0	76.438	0	143.9	4	49.8	4	-1E+10	1	0.0730	4	0.000398	0	-1E+10	1	-1E+10	1	-1E+10	1
4902624	27	C	03/18/2025	21:35	-127.137	48.146	0	78.20	0	8.1960	0	33.3341	0	25.938	0	77.528	0	142.9	4	49.4	4	-1E+10	1	0.0730	4	0.000428	0	-1E+10	1	-1E+10	1	-1E+10	1
4902624	27	C	03/18/2025	21:35	-127.137	48.146	0	79.10	0	8.1720	0	33.3470	0	25.952	0	78.420	0	-1e10	1	-1e10	1	-1E+10	1	-1e10	1	-1e10	1	-1E+10	1	-1E+10	1	-1E+10	1
4902624	27	C	03/18/2025	21:35	-127.137	48.146	0	79.20	0	8.1709	0	33.3478	0	25.953	0	78.519	0	141.9	4	49.0	4	-1E+10	1	0.1022	4	0.000404	0	-1E+10	1	-1E+10	1	-1E+10	1
4902624	27	C	03/18/2025	21:35	-127.137	48.146	0	80.30	0	8.1593	0	33.3570	0	25.962	0	79.610	0	140.7	4	48.6	4	-1E+10	1	0.0730	4	0.000369	0	-1E+10	1	-1E+10	1	-1E+10	1
4902624	27	C	03/18/2025	21:35	-127.137	48.146	0	80.90	0	8.1530	0	33.3620	0	25.966	0	80.204	0	-1e10	1	-1e10	1	-1E+10	1	-1e10	1	-1e10	1	-1E+10	1	-1E+10	1	-1E+10	1
4902624	27	C	03/18/2025	21:35	-127.137	48.146	0	81.10	0	8.1512	0	33.3648	0	25.969	0	80.403	0	140.0	4	48.4	4	-1E+10	1	0.0836	4	0.000403	0	-1E+10	1	-1E+10	1	-1E+10	1
4902624	27	C	03/18/2025	21:35	-127.137	48.146	0	81.90	0	8.1439	0	33.3761	0	25.979	0	81.196	0	139.3	4	48.1	4	-1E+10	1	0.0720	4	0.000407	0	-1E+10	1	-1E+10	1	-1E+10	1
4902624	27	C	03/18/2025	21:35	-127.137	48.146	0	82.50	0	8.1385	0	33.3845	0	25.986	0	81.790	0	138.5	4	47.9	4	-1E+10	1	0.0824	4	0.000397	0	-1E+10	1	-1E+10	1	-1E+10	1
4902624	27	C	03/18/2025	21:35	-127.137	48.146	0	83.00	0	8.1339	0	33.3916	0	25.993	0	82.286	0	137.6	4	47.5	4	-1E+10	1	0.0925	4	0.000412	0	-1E+10	1	-1E+10	1	-1E+10	1
4902624	27	C	03/18/2025	21:35	-127.137	48.146	0	83.10	0	8.1330	0	33.3930	0	25.994	0	82.385	0	-1e10	1	-1e10	1	-1E+10	1	-1e10	1	-1e10	1	-1E+10	1	-1E+10	1	-1E+10	1
4902624	27	C	03/18/2025	21:35	-127.137	48.146	0	83.50	0	8.1237	0	33.4006	0	26.001	0	82.781	0	136.7	4	47.2	4	-1E+10	1	0.0864	4	0.000451	0	-1E+10	1	-1E+10	1	-1E+10	1
4902624	27	C	03/18/2025	21:35	-127.137	48.146	0	84.10	0	8.1097	0	33.4120	0	26.012	0	83.376	0	135.6	4	46.8	4	-1E+10	1	0.0761	4	0.000458	0	-1E+10	1	-1E+10	1	-1E+10	1
4902624	27	C	03/18/2025	21:35	-127.137	48.146	0	84.70	0	8.0957	0	33.4235	0	26.023	0	83.971	0	134.7	4	46.5	4	-1E+10	1	0.0511	4	0.000498	0	-1E+10	1	-1E+10	1	-1E+10	1
4902624	27	C	03/18/2025	21:35	-127.137	48.146	0	85.20	0	8.0840	0	33.4330	0	26.032	0	84.466	0	-1e10	1	-1e10	1	-1E+10	1	-1e10	1	-1e10	1	-1E+10	1	-1E+10	1	-1E+10	1
4902624	27	C	03/18/2025	21:35	-127.137	48.146	0	85.50	0	8.0747	0	33.4392	0	26.039	0	84.764	0	133.5	4	46.1	4	-1E+10	1	0.1095	4	0.000463	0	-1E+10	1	-1E+10	1	-1E+10	1
4902624	27	C	03/18/2025	21:35	-127.137	48.146	0	86.10	0	8.0560	0	33.4515	0	26.051	0	85.359	0	132.6	4	45.7	4	-1E+10	1	0.0657	4	0.000439	0	-1E+10	1	-1E+10	1	-1E+10	1
4902624	27	C	03/18/2025	21:35	-127.137	48.146	0	86.80	0	8.0342	0	33.4659	0	26.066	0	86.052	0	131.6	4	45.4	4	-1E+10	1	0.0584	4	0.000428	0	-1E+10	1	-1E+10	1	-1E+10	1
4902624	27	C	03/18/2025	21:35	-127.137	48.146	0	87.00	0	8.0280	0	33.4700	0	26.070	0	86.251	0	-1e10	1	-1e10	1	-1E+10	1	-1e10	1	-1e10	1	-1E+10	1	-1E+10	1	-1E+10	1
4902624	27	C	03/18/2025	21:35	-127.137	48.146	0	87.40	0	8.0179	0	33.4769	0	26.077	0	86.647	0	130.6	4	45.0	4	-1E+10	1	0.0584	4	0.000419	0	-1E+10	1	-1E+10	1	-1E+10	1
4902624	27	C	03/18/2025	21:35	-127.137	48.146	0	88.00	0	8.0028	0	33.4871	0	26.087	0	87.242	0	129.3	4	44.6	4	-1E+10	1	0.0626	4	0.000436	0	-1E+10	1	-1E+10	1	-1E+10	1
4902624	27	C	03/18/2025	21:35	-127.137	48.146	0	88.80	0	7.9826	0	33.5009	0	26.101	0	88.035	0	128.1	4	44.2	4	-1E+10	1	0.0535	4	0.000438	0	-1E+10	1	-1E+10	1	-1E+10	1
4902624	27	C	03/18/2025	21:35	-127.137	48.146	0	89.10	0	7.9750	0	33.5060	0	26.106	0	88.332	0	-1e10	1	-1e10	1	-1E+10	1	-1e10	1	-1e10	1	-1E+10	1	-1E+10	1	-1E+10	1
4902624	27	C	03/18/2025	21:35	-127.137	48.146	0	89.50	0	7.9592	0	33.5148	0	26.115	0	88.729	0	127.0	4	43.8	4	-1E+10	1	0.0414	4	0.000431	0	-1E+10	1	-1E+10	1	-1E+10	1
4902624	27	C	03/18/2025	21:35	-127.137	48.146	0	90.30	0	7.9276	0	33.5325	0	26.134	0	89.521	0	125.7	4	43.3	4	-1E+10	1	0.0383	4	0.000436	0	-1E+10	1	-1E+10	1	-1E+10	1
4902624	27	C	03/18/2025	21:35	-127.137	48.146	0	91.00	0	7.9000	0	33.5480	0	26.150	0	90.215	0	-1e10	1	-1e10	1	-1E+10	1	-1e10	1	-1e10	1	-1E+10	1	-1E+10	1	-1E+10	1
4902624	27	C	03/18/2025	21:35	-127.137	48.146	0	91.10	0	7.8984	0	33.5499	0	26.152	0	90.314	0	124.5	4	42.8	4	-1E+10	1	0.0453	4	0.000435	0	-1E+10	1	-1E+10	1	-1E+10	1
4902624	27	C	03/18/2025	21:35	-127.137	48.146	0	91.90	0	7.8851	0	33.5656	0	26.166	0	91.107	0	123.5	4	42.5	4	-1E+10	1	0.0511	4	0.000463	0	-1E+10	1	-1E+10	1	-1E+10	1
4902624	27	C	03/18/2025	21:35	-127.137	48.146	0	92.70	0	7.8720	0	33.5812	0	26.180	0	91.900	0	122.4	4	42.1	4	-1E+10	1	0.0511	4	0.000406	0	-1E+10	1	-1E+10	1	-1E+10	1
4902624	27	C	03/18/2025	21:35	-127.137	48.146	0	93.00	0	7.8670	0	33.5870	0	26.185	0	92.198	0	-1e10	1	-1e10	1	-1E+10	1	-1e10	1	-1e10	1	-1E+10	1	-1E+10	1	-1E+10	1
4902624	27	C	03/18/2025	21:35	-127.137	48.146	0	93.60	0	7.8835	0	33.5969	0	26.191	0	92.792	0	121.4	4	41.8	4	-1E+10	1	0.0511	4	0.000403	0	-1E+10	1	-1E+10	1	-1E+10	1
4902624	27	C	03/18/2025	21:35	-127.137	48.146	0	94.40	0	7.9055	0	33.6101	0	26.198	0	93.585	0	120.9	4	41.6	4	-1E+10	1	0.0460	4	0.000445	0	-1E+10	1	-1E+10	1	-1E+10	1
4902624	27	C	03/18/2025	21:35	-127.137	48.146	0	95.00	0	7.9220	0	33.6200	0	26.203	0	94.180	0	-1e10	1	-1e10	1	-1E+10	1	-1e10	1	-1e10	1	-1E+10	1	-1E+10	1	-1E+10	1
4902624	27	C	03/18/2025	21:35	-127.137	48.146	0	95.20	0	7.9193	0	33.6225	0	26.206	0	94.378	0	120.6	4	41.5	4	-1E+10	1	0.0548	4	0.000433	0	-1E+10	1	-1E+10	1	-1E+10	1
4902624	27	C	03/18/2025	21:35	-127.137	48.146	0	96.00	0	7.9085	0	33.6325	0	26.215	0	95.171	0	120.3	4	41.4	4	-1E+10	1	0.0535	4	0.000420	0	-1E+10	1	-1E+10	1	-1E+10	1
4902624	27	C	03/18/2025	21:35	-127.137	48.146	0	96.90	0	7.8963	0	33.6437	0	26.226	0	96.063	0	119.9	4	41.3	4	-1E+10	1	0.0336	4	0.000440	0	-1E+10	1	-1E+10	1	-1E+10	1
4902624	27	C	03/18/2025	21:35	-127.137	48.146	0	97.00	0	7.8950	0	33.6450	0	26.227	0	96.162	0	-1e10	1	-1e10	1	-1E+10	1	-1e10	1	-1e10	1	-1E+10	1	-1E+10	1	-1E+10	1
4902624	27	C	03/18/2025	21:35	-127.137	48.146	0	97.80	0	7.8874	0	33.6510	0	26.233	0	96.955	0	119.5	4	41.1	4	-1E+10	1	0.0438	4	0.000426	0	-1E+10	1	-1E+10	1	-1E+10	1
4902624	27	C	03/18/2025	21:35	-127.137	48.146	0	98.70	0	7.8788	0	33.6577	0	26.239	0	97.847	0	119.2	4	41.0	4	-1E+10	1	0.0438	4	0.000474	0	-1E+10	1	-1E+10	1	-1E+10	1
4902624	27	C	03/18/2025	21:35	-127.137	48.146	0	99.00	0	7.8760	0	33.6600	0	26.241	0	98.144	0	-1e10	1	-1e10	1	-1E+10	1	-1e10	1	-1e10	1	-1E+10	1	-1E+10	1	-1E+10	1
4902624	27	C	03/18/2025	21:35	-127.137	48.146	0	99.60	0	7.8769	0	33.6630	0	26.244	0	98.739	0	118.9	4	40.9	4	-1E+10	1	0.0730	4	0.000345	0	-1E+10	1	-1E+10	1	-1E+10	1
4902624	27	C	03/18/2025	21:35	-127.137	48.146	0	100.60	0	7.8784	0	33.6680	0	26.247	0	99.730	0	118.8	4	40.9	4	-1E+10	1	0.0608	4	0.000394	0	-1E+10	1	-1E+10	1	-1E+10	1
4902624	27	C	03/18/2025	21:35	-127.137	48.146	0	101.00	0	7.8790	0	33.6700	0	26.249	0	100.127	0	-1e10	1	-1e10	1	-1E+10	1	-1e10	1	-1e10	1	-1E+10	1	-1E+10	1	-1E+10	1
4902624	27	C	03/18/2025	21:35	-127.137	48.146	0	101.50	0	7.8787	0	33.6712	0	26.250	0	100.622	0	118.5	4	40.8	4	-1E+10	1	0.0584	4	0.000404	0	-1E+10	1	-1E+10	1	-1E+10	1
4902624	27	C	03/18/2025	21:35	-127.137	48.146	0	102.40	0	7.8783	0	33.6735	0	26.252	0	101.514	0	118.3	4	40.7	4	-1E+10	1	0.0584	4	0.000425	0	-1E+10	1	-1E+10	1	-1E+10	1
4902624	27	C	03/18/2025	21:35	-127.137	48.146	0	103.00	0	7.8780	0	33.6750	0	26.253	0	102.109	0	-1e10	1	-1e10	1	-1E+10	1	-1e10	1	-1e10	1	-1E+10	1	-1E+10	1	-1E+10	1
4902624	27	C	03/18/2025	21:35	-127.137	48.146	0	103.40	0	7.8765	0	33.6750	0	26.253	0	102.505	0	118.1	4	40.7	4	-1E+10	1	0.0544	4	0.000490	0	-1E+10	1	-1E+10	1	-1E+10	1
4902624	27	C	03/18/2025	21:35	-127.137	48.146	0	104.30	0	7.8732	0	33.6750	0	26.254	0	103.397	0	117.8	4	40.6	4	-1E+10	1	0.0462	4	0.000510	0	-1E+10	1	-1E+10	1	-1E+10	1
4902624	27	C	03/18/2025	21:35	-127.137	48.146	0	104.90	0	7.8710	0	33.6750	0	26.254	0	103.992	0	-1e10	1	-1e10	1	-1E+10	1	-1e10	1	-1e10	1	-1E+10	1	-1E+10	1	-1E+10	1
4902624	27	C	03/18/2025	21:35	-127.137	48.146	0	105.30	0	7.8639	0	33.6769	0	26.256	0	104.388	0	117.6	4	40.5	4	-1E+10	1	0.0380	4	0.000460	0	-1E+10	1	-1E+10	1	-1E+10	1
4902624	27	C	03/18/2025	21:35	-127.137	48.146	0	106.30	0	7.8460	0	33.6817	0	26.263	0	105.379	0	117.2	4	40.3	4	-1E+10	1	0.0438	4	0.000447	0	-1E+10	1	-1E+10	1	-1E+10	1
4902624	27	C	03/18/2025	21:35	-127.137	48.146	0	107.20	0	7.8300	0	33.6860	0	26.269	0	106.271	0	-1e10	1	-1e10	1	-1E+10	1	-1e10	1	-1e10	1	-1E+10	1	-1E+10	1	-1E+10	1
4902624	27	C	03/18/2025	21:35	-127.137	48.146	0	107.30	0	7.8298	0	33.6870	0	26.269	0	106.371	0	116.7	4	40.1	4	-1E+10	1	0.0438	4	0.000427	0	-1E+10	1	-1E+10	1	-1E+10	1
4902624	27	C	03/18/2025	21:35	-127.137	48.146	0	108.30	0	7.8283	0	33.6970	0	26.277	0	107.362	0	116.4	4	40.0	4	-1E+10	1	0.0377	4	0.000515	0	-1E+10	1	-1E+10	1	-1E+10	1
4902624	27	C	03/18/2025	21:35	-127.137	48.146	0	109.10	0	7.8270	0	33.7050	0	26.284	0	108.154	0	-1e10	1	-1e10	1	-1E+10	1	-1e10	1	-1e10	1	-1E+10	1	-1E+10	1	-1E+10	1
4902624	27	C	03/18/2025	21:35	-127.137	48.146	0	109.30	0	7.8249	0	33.7053	0	26.285	0	108.353	0	116.2	4	40.0	4	-1E+10	1	0.0423	4	0.000486	0	-1E+10	1	-1E+10	1	-1E+10	1
4902624	27	C	03/18/2025	21:35	-127.137	48.146	0	110.30	0	7.8144	0	33.7069	0	26.287	0	109.344	0	115.9	4	39.9	4	-1E+10	1	0.0438	4	0.000435	0	-1E+10	1	-1E+10	1	-1E+10	1
4902624	27	C	03/18/2025	21:35	-127.137	48.146	0	111.00	0	7.8070	0	33.7080	0	26.289	0	110.037	0	-1e10	1	-1e10	1	-1E+10	1	-1e10	1	-1e10	1	-1E+10	1	-1E+10	1	-1E+10	1
4902624	27	C	03/18/2025	21:35	-127.137	48.146	0	111.30	0	7.8016	0	33.7077	0	26.290	0	110.335	0	115.5	4	39.7	4	-1E+10	1	0.0438	4	0.000582	0	-1E+10	1	-1E+10	1	-1E+10	1
4902624	27	C	03/18/2025	21:35	-127.137	48.146	0	112.20	0	7.7855	0	33.7067	0	26.291	0	111.227	0	114.9	4	39.5	4	-1E+10	1	0.0467	4	0.000646	0	-1E+10	1	-1E+10	1	-1E+10	1
4902624	27	C	03/18/2025	21:35	-127.137	48.146	0	112.90	0	7.7730	0	33.7060	0	26.293	0	111.920	0	-1e10	1	-1e10	1	-1E+10	1	-1e10	1	-1e10	1	-1E+10	1	-1E+10	1	-1E+10	1
4902624	27	C	03/18/2025	21:35	-127.137	48.146	0	113.20	0	7.7752	0	33.7085	0	26.294	0	112.218	0	114.0	4	39.2	4	-1E+10	1	0.0535	4	0.000513	0	-1E+10	1	-1E+10	1	-1E+10	1
4902624	27	C	03/18/2025	21:35	-127.137	48.146	0	114.20	0	7.7828	0	33.7170	0	26.300	0	113.209	0	113.4	4	39.0	4	-1E+10	1	0.0548	4	0.000480	0	-1E+10	1	-1E+10	1	-1E+10	1
4902624	27	C	03/18/2025	21:35	-127.137	48.146	0	114.90	0	7.7880	0	33.7230	0	26.304	0	113.903	0	-1e10	1	-1e10	1	-1E+10	1	-1e10	1	-1e10	1	-1E+10	1	-1E+10	1	-1E+10	1
4902624	27	C	03/18/2025	21:35	-127.137	48.146	0	115.20	0	7.7836	0	33.7256	0	26.307	0	114.200	0	113.1	4	38.9	4	-1E+10	1	0.0365	4	0.000509	0	-1E+10	1	-1E+10	1	-1E+10	1
4902624	27	C	03/18/2025	21:35	-127.137	48.146	0	116.20	0	7.7688	0	33.7341	0	26.315	0	115.191	0	112.7	4	38.7	4	-1E+10	1	0.0511	4	0.000416	0	-1E+10	1	-1E+10	1	-1E+10	1
4902624	27	C	03/18/2025	21:35	-127.137	48.146	0	117.00	0	7.7570	0	33.7410	0	26.322	0	115.984	0	-1e10	1	-1e10	1	-1E+10	1	-1e10	1	-1e10	1	-1E+10	1	-1E+10	1	-1E+10	1
4902624	27	C	03/18/2025	21:35	-127.137	48.146	0	117.30	0	7.7528	0	33.7421	0	26.324	0	116.281	0	112.2	4	38.5	4	-1E+10	1	0.0573	4	0.000455	0	-1E+10	1	-1E+10	1	-1E+10	1
4902624	27	C	03/18/2025	21:35	-127.137	48.146	0	118.20	0	7.7402	0	33.7452	0	26.328	0	117.173	0	111.6	4	38.3	4	-1E+10	1	0.0414	4	0.000531	0	-1E+10	1	-1E+10	1	-1E+10	1
4902624	27	C	03/18/2025	21:35	-127.137	48.146	0	119.00	0	7.7290	0	33.7480	0	26.332	0	117.966	0	-1e10	1	-1e10	1	-1E+10	1	-1e10	1	-1e10	1	-1E+10	1	-1E+10	1	-1E+10	1
4902624	27	C	03/18/2025	21:35	-127.137	48.146	0	119.30	0	7.7281	0	33.7507	0	26.334	0	118.263	0	111.0	4	38.1	4	-1E+10	1	0.0380	4	0.000509	0	-1E+10	1	-1E+10	1	-1E+10	1
4902624	27	C	03/18/2025	21:35	-127.137	48.146	0	120.30	0	7.7249	0	33.7596	0	26.342	0	119.254	0	110.4	4	37.9	4	-1E+10	1	0.0438	4	0.000443	0	-1E+10	1	-1E+10	1	-1E+10	1
4902624	27	C	03/18/2025	21:35	-127.137	48.146	0	120.90	0	7.7230	0	33.7650	0	26.346	0	119.849	0	-1e10	1	-1e10	1	-1E+10	1	-1e10	1	-1e10	1	-1E+10	1	-1E+10	1	-1E+10	1
4902624	27	C	03/18/2025	21:35	-127.137	48.146	0	121.30	0	7.7158	0	33.7690	0	26.351	0	120.245	0	109.9	4	37.7	4	-1E+10	1	0.0414	4	0.000436	0	-1E+10	1	-1E+10	1	-1E+10	1
4902624	27	C	03/18/2025	21:35	-127.137	48.146	0	122.30	0	7.6977	0	33.7790	0	26.361	0	121.236	0	109.7	4	37.6	4	-1E+10	1	0.0394	4	0.000460	0	-1E+10	1	-1E+10	1	-1E+10	1
4902624	27	C	03/18/2025	21:35	-127.137	48.146	0	123.00	0	7.6850	0	33.7860	0	26.368	0	121.930	0	-1e10	1	-1e10	1	-1E+10	1	-1e10	1	-1e10	1	-1E+10	1	-1E+10	1	-1E+10	1
4902624	27	C	03/18/2025	21:35	-127.137	48.146	0	123.40	0	7.6800	0	33.7882	0	26.371	0	122.326	0	109.5	4	37.6	4	-1E+10	1	0.0477	4	0.000459	0	-1E+10	1	-1E+10	1	-1E+10	1
4902624	27	C	03/18/2025	21:35	-127.137	48.146	0	124.40	0	7.6675	0	33.7937	0	26.377	0	123.317	0	109.3	4	37.5	4	-1E+10	1	0.0365	4	0.000486	0	-1E+10	1	-1E+10	1	-1E+10	1
4902624	27	C	03/18/2025	21:35	-127.137	48.146	0	125.00	0	7.6600	0	33.7970	0	26.381	0	123.912	0	-1e10	1	-1e10	1	-1E+10	1	-1e10	1	-1e10	1	-1E+10	1	-1E+10	1	-1E+10	1
4902624	27	C	03/18/2025	21:35	-127.137	48.146	0	125.40	0	7.6544	0	33.7976	0	26.382	0	124.308	0	109.2	4	37.5	4	-1E+10	1	0.0365	4	0.000496	0	-1E+10	1	-1E+10	1	-1E+10	1
4902624	27	C	03/18/2025	21:35	-127.137	48.146	0	126.50	0	7.6390	0	33.7992	0	26.385	0	125.398	0	109.1	4	37.4	4	-1E+10	1	0.0425	4	0.000440	0	-1E+10	1	-1E+10	1	-1E+10	1
4902624	27	C	03/18/2025	21:35	-127.137	48.146	0	127.00	0	7.6320	0	33.8000	0	26.387	0	125.894	0	-1e10	1	-1e10	1	-1E+10	1	-1e10	1	-1e10	1	-1E+10	1	-1E+10	1	-1E+10	1
4902624	27	C	03/18/2025	21:35	-127.137	48.146	0	127.50	0	7.6252	0	33.8013	0	26.389	0	126.389	0	108.9	4	37.3	4	-1E+10	1	0.0438	4	0.000451	0	-1E+10	1	-1E+10	1	-1E+10	1
4902624	27	C	03/18/2025	21:35	-127.137	48.146	0	128.60	0	7.6104	0	33.8040	0	26.393	0	127.479	0	108.7	4	37.2	4	-1E+10	1	0.0438	4	0.000469	0	-1E+10	1	-1E+10	1	-1E+10	1
4902624	27	C	03/18/2025	21:35	-127.137	48.146	0	129.00	0	7.6050	0	33.8050	0	26.395	0	127.876	0	-1e10	1	-1e10	1	-1E+10	1	-1e10	1	-1e10	1	-1E+10	1	-1E+10	1	-1E+10	1
4902624	27	C	03/18/2025	21:35	-127.137	48.146	0	129.60	0	7.5978	0	33.8074	0	26.398	0	128.470	0	108.7	4	37.2	4	-1E+10	1	0.0491	4	0.000453	0	-1E+10	1	-1E+10	1	-1E+10	1
4902624	27	C	03/18/2025	21:35	-127.137	48.146	0	130.70	0	7.5846	0	33.8118	0	26.403	0	129.560	0	108.7	4	37.2	4	-1E+10	1	0.0535	4	0.000427	0	-1E+10	1	-1E+10	1	-1E+10	1
4902624	27	C	03/18/2025	21:35	-127.137	48.146	0	131.00	0	7.5810	0	33.8130	0	26.405	0	129.858	0	-1e10	1	-1e10	1	-1E+10	1	-1e10	1	-1e10	1	-1E+10	1	-1E+10	1	-1E+10	1
4902624	27	C	03/18/2025	21:35	-127.137	48.146	0	131.80	0	7.5754	0	33.8146	0	26.407	0	130.651	0	108.8	4	37.2	4	-1E+10	1	0.0455	4	0.000443	0	-1E+10	1	-1E+10	1	-1E+10	1
4902624	27	C	03/18/2025	21:35	-127.137	48.146	0	132.80	0	7.5684	0	33.8166	0	26.409	0	131.641	0	108.9	4	37.3	4	-1E+10	1	0.0511	4	0.000415	0	-1E+10	1	-1E+10	1	-1E+10	1
4902624	27	C	03/18/2025	21:35	-127.137	48.146	0	133.00	0	7.5670	0	33.8170	0	26.410	0	131.840	0	-1e10	1	-1e10	1	-1E+10	1	-1e10	1	-1e10	1	-1E+10	1	-1E+10	1	-1E+10	1
4902624	27	C	03/18/2025	21:35	-127.137	48.146	0	133.90	0	7.5625	0	33.8179	0	26.411	0	132.732	0	109.0	4	37.3	4	-1E+10	1	0.0511	4	0.000392	0	-1E+10	1	-1E+10	1	-1E+10	1
4902624	27	C	03/18/2025	21:35	-127.137	48.146	0	134.90	0	7.5575	0	33.8189	0	26.413	0	133.722	0	109.1	4	37.3	4	-1E+10	1	0.0511	4	0.000392	0	-1E+10	1	-1E+10	1	-1E+10	1
4902624	27	C	03/18/2025	21:35	-127.137	48.146	0	135.00	0	7.5570	0	33.8190	0	26.413	0	133.822	0	-1e10	1	-1e10	1	-1E+10	1	-1e10	1	-1e10	1	-1E+10	1	-1E+10	1	-1E+10	1
4902624	27	C	03/18/2025	21:35	-127.137	48.146	0	136.00	0	7.5365	0	33.8220	0	26.418	0	134.813	0	109.3	4	37.4	4	-1E+10	1	0.0460	4	0.000449	0	-1E+10	1	-1E+10	1	-1E+10	1
4902624	27	C	03/18/2025	21:35	-127.137	48.146	0	137.00	0	7.5160	0	33.8250	0	26.423	0	135.803	0	108.1	4	37.0	4	-1E+10	1	0.0438	4	0.000418	0	-1E+10	1	-1E+10	1	-1E+10	1
4902624	27	C	03/18/2025	21:35	-127.137	48.146	0	138.10	0	7.5028	0	33.8250	0	26.425	0	136.894	0	109.6	4	37.5	4	-1E+10	1	0.0399	4	0.000412	0	-1E+10	1	-1E+10	1	-1E+10	1
4902624	27	C	03/18/2025	21:35	-127.137	48.146	0	139.00	0	7.4920	0	33.8250	0	26.427	0	137.785	0	-1e10	1	-1e10	1	-1E+10	1	-1e10	1	-1e10	1	-1E+10	1	-1E+10	1	-1E+10	1
4902624	27	C	03/18/2025	21:35	-127.137	48.146	0	139.20	0	7.4898	0	33.8250	0	26.427	0	137.984	0	109.8	4	37.5	4	-1E+10	1	0.0393	4	0.000421	0	-1E+10	1	-1E+10	1	-1E+10	1
4902624	27	C	03/18/2025	21:35	-127.137	48.146	0	140.20	0	7.4789	0	33.8250	0	26.429	0	138.974	0	110.0	4	37.6	4	-1E+10	1	0.0425	4	0.000387	0	-1E+10	1	-1E+10	1	-1E+10	1
4902624	27	C	03/18/2025	21:35	-127.137	48.146	0	141.10	0	7.4690	0	33.8250	0	26.430	0	139.866	0	-1e10	1	-1e10	1	-1E+10	1	-1e10	1	-1e10	1	-1E+10	1	-1E+10	1	-1E+10	1
4902624	27	C	03/18/2025	21:35	-127.137	48.146	0	141.30	0	7.4604	0	33.8250	0	26.431	0	140.064	0	110.3	4	37.6	4	-1E+10	1	0.0365	4	0.000359	0	-1E+10	1	-1E+10	1	-1E+10	1
4902624	27	C	03/18/2025	21:35	-127.137	48.146	0	142.40	0	7.4129	0	33.8250	0	26.438	0	141.154	0	110.5	4	37.7	4	-1E+10	1	0.0365	4	0.000333	0	-1E+10	1	-1E+10	1	-1E+10	1
4902624	27	C	03/18/2025	21:35	-127.137	48.146	0	143.00	0	7.3870	0	33.8250	0	26.442	0	141.749	0	-1e10	1	-1e10	1	-1E+10	1	-1e10	1	-1e10	1	-1E+10	1	-1E+10	1	-1E+10	1
4902624	27	C	03/18/2025	21:35	-127.137	48.146	0	143.40	0	7.3786	0	33.8234	0	26.442	0	142.145	0	110.3	4	37.6	4	-1E+10	1	0.0548	4	0.000363	0	-1E+10	1	-1E+10	1	-1E+10	1
4902624	27	C	03/18/2025	21:35	-127.137	48.146	0	144.50	0	7.3555	0	33.8190	0	26.441	0	143.235	0	110.1	4	37.5	4	-1E+10	1	0.0465	4	0.000397	0	-1E+10	1	-1E+10	1	-1E+10	1
4902624	27	C	03/18/2025	21:35	-127.137	48.146	0	145.00	0	7.3450	0	33.8170	0	26.441	0	143.731	0	-1e10	1	-1e10	1	-1E+10	1	-1e10	1	-1e10	1	-1E+10	1	-1E+10	1	-1E+10	1
4902624	27	C	03/18/2025	21:35	-127.137	48.146	0	145.50	0	7.3383	0	33.8163	0	26.442	0	144.226	0	109.9	4	37.4	4	-1E+10	1	0.0389	4	0.000443	0	-1E+10	1	-1E+10	1	-1E+10	1
4902624	27	C	03/18/2025	21:35	-127.137	48.146	0	146.60	0	7.3237	0	33.8147	0	26.442	0	145.316	0	109.5	4	37.3	4	-1E+10	1	0.0444	4	0.000399	0	-1E+10	1	-1E+10	1	-1E+10	1
4902624	27	C	03/18/2025	21:35	-127.137	48.146	0	147.10	0	7.3170	0	33.8140	0	26.443	0	145.812	0	-1e10	1	-1e10	1	-1E+10	1	-1e10	1	-1e10	1	-1E+10	1	-1E+10	1	-1E+10	1
4902624	27	C	03/18/2025	21:35	-127.137	48.146	0	147.60	0	7.3032	0	33.8167	0	26.447	0	146.307	0	109.1	4	37.1	4	-1E+10	1	0.0511	4	0.000340	0	-1E+10	1	-1E+10	1	-1E+10	1
4902624	27	C	03/18/2025	21:35	-127.137	48.146	0	148.60	0	7.2758	0	33.8223	0	26.455	0	147.298	0	108.9	4	37.0	4	-1E+10	1	0.0444	4	0.000326	0	-1E+10	1	-1E+10	1	-1E+10	1
4902624	27	C	03/18/2025	21:35	-127.137	48.146	0	149.10	0	7.2620	0	33.8250	0	26.459	0	147.793	0	-1e10	1	-1e10	1	-1E+10	1	-1e10	1	-1e10	1	-1E+10	1	-1E+10	1	-1E+10	1
4902624	27	C	03/18/2025	21:35	-127.137	48.146	0	149.70	0	7.2437	0	33.8272	0	26.463	0	148.388	0	108.6	4	36.9	4	-1E+10	1	0.0337	4	0.000313	0	-1E+10	1	-1E+10	1	-1E+10	1
4902624	27	C	03/18/2025	21:35	-127.137	48.146	0	150.80	0	7.2101	0	33.8313	0	26.471	0	149.478	0	108.4	4	36.8	4	-1E+10	1	0.0584	4	0.000333	0	-1E+10	1	-1E+10	1	-1E+10	1
4902624	27	C	03/18/2025	21:35	-127.137	48.146	0	151.00	0	7.2040	0	33.8320	0	26.473	0	149.676	0	-1e10	1	-1e10	1	-1E+10	1	-1e10	1	-1e10	1	-1E+10	1	-1E+10	1	-1E+10	1
4902624	27	C	03/18/2025	21:35	-127.137	48.146	0	151.90	0	7.2031	0	33.8329	0	26.474	0	150.568	0	108.2	4	36.7	4	-1E+10	1	0.0511	4	0.000321	0	-1E+10	1	-1E+10	1	-1E+10	1
4902624	27	C	03/18/2025	21:35	-127.137	48.146	0	153.10	0	7.2020	0	33.8340	0	26.475	0	151.757	0	106.6	4	36.2	4	-1E+10	1	0.0657	4	0.000492	0	-1E+10	1	-1E+10	1	-1E+10	1
4902624	27	C	03/18/2025	21:35	-127.137	48.146	0	154.20	0	7.1993	0	33.8345	0	26.475	0	152.847	0	107.8	4	36.6	4	-1E+10	1	0.0533	4	0.000397	0	-1E+10	1	-1E+10	1	-1E+10	1
4902624	27	C	03/18/2025	21:35	-127.137	48.146	0	155.10	0	7.1970	0	33.8350	0	26.476	0	153.739	0	-1e10	1	-1e10	1	-1E+10	1	-1e10	1	-1e10	1	-1E+10	1	-1E+10	1	-1E+10	1
4902624	27	C	03/18/2025	21:35	-127.137	48.146	0	155.30	0	7.1931	0	33.8353	0	26.477	0	153.937	0	107.6	4	36.5	4	-1E+10	1	0.0511	4	0.000399	0	-1E+10	1	-1E+10	1	-1E+10	1
4902624	27	C	03/18/2025	21:35	-127.137	48.146	0	156.40	0	7.1716	0	33.8370	0	26.481	0	155.027	0	107.6	4	36.5	4	-1E+10	1	0.0464	4	0.000396	0	-1E+10	1	-1E+10	1	-1E+10	1
4902624	27	C	03/18/2025	21:35	-127.137	48.146	0	157.10	0	7.1580	0	33.8380	0	26.484	0	155.720	0	-1e10	1	-1e10	1	-1E+10	1	-1e10	1	-1e10	1	-1E+10	1	-1E+10	1	-1E+10	1
4902624	27	C	03/18/2025	21:35	-127.137	48.146	0	157.50	0	7.1536	0	33.8380	0	26.485	0	156.117	0	107.3	4	36.4	4	-1E+10	1	0.0472	4	0.000365	0	-1E+10	1	-1E+10	1	-1E+10	1
4902624	27	C	03/18/2025	21:35	-127.137	48.146	0	158.60	0	7.1415	0	33.8380	0	26.486	0	157.207	0	107.0	4	36.3	4	-1E+10	1	0.0538	4	0.000337	0	-1E+10	1	-1E+10	1	-1E+10	1
4902624	27	C	03/18/2025	21:35	-127.137	48.146	0	159.10	0	7.1360	0	33.8380	0	26.487	0	157.702	0	-1e10	1	-1e10	1	-1E+10	1	-1e10	1	-1e10	1	-1E+10	1	-1E+10	1	-1E+10	1
4902624	27	C	03/18/2025	21:35	-127.137	48.146	0	159.70	0	7.1330	0	33.8386	0	26.488	0	158.297	0	106.6	4	36.1	4	-1E+10	1	0.0494	4	0.000363	0	-1E+10	1	-1E+10	1	-1E+10	1
4902624	27	C	03/18/2025	21:35	-127.137	48.146	0	160.90	0	7.1270	0	33.8398	0	26.490	0	159.486	0	106.2	4	36.0	4	-1E+10	1	0.0339	4	0.000383	0	-1E+10	1	-1E+10	1	-1E+10	1
4902624	27	C	03/18/2025	21:35	-127.137	48.146	0	161.10	0	7.1260	0	33.8400	0	26.490	0	159.684	0	-1e10	1	-1e10	1	-1E+10	1	-1e10	1	-1e10	1	-1E+10	1	-1E+10	1	-1E+10	1
4902624	27	C	03/18/2025	21:35	-127.137	48.146	0	162.00	0	7.1242	0	33.8409	0	26.491	0	160.575	0	105.8	4	35.9	4	-1E+10	1	0.0511	4	0.000310	0	-1E+10	1	-1E+10	1	-1E+10	1
4902624	27	C	03/18/2025	21:35	-127.137	48.146	0	163.10	0	7.1220	0	33.8420	0	26.492	0	161.665	0	104.1	4	35.3	4	-1E+10	1	0.0657	4	0.000985	0	-1E+10	1	-1E+10	1	-1E+10	1
4902624	27	C	03/18/2025	21:35	-127.137	48.146	0	164.20	0	7.1058	0	33.8461	0	26.498	0	162.755	0	105.1	4	35.6	4	-1E+10	1	0.0600	4	0.000583	0	-1E+10	1	-1E+10	1	-1E+10	1
4902624	27	C	03/18/2025	21:35	-127.137	48.146	0	165.00	0	7.0940	0	33.8490	0	26.502	0	163.548	0	-1e10	1	-1e10	1	-1E+10	1	-1e10	1	-1e10	1	-1E+10	1	-1E+10	1	-1E+10	1
4902624	27	C	03/18/2025	21:35	-127.137	48.146	0	165.30	0	7.0877	0	33.8499	0	26.503	0	163.845	0	104.8	4	35.5	4	-1E+10	1	0.0584	4	0.000387	0	-1E+10	1	-1E+10	1	-1E+10	1
4902624	27	C	03/18/2025	21:35	-127.137	48.146	0	166.50	0	7.0625	0	33.8535	0	26.509	0	165.034	0	104.5	4	35.3	4	-1E+10	1	0.0584	4	0.000330	0	-1E+10	1	-1E+10	1	-1E+10	1
4902624	27	C	03/18/2025	21:35	-127.137	48.146	0	167.00	0	7.0520	0	33.8550	0	26.512	0	165.529	0	-1e10	1	-1e10	1	-1E+10	1	-1e10	1	-1e10	1	-1E+10	1	-1E+10	1	-1E+10	1
4902624	27	C	03/18/2025	21:35	-127.137	48.146	0	167.70	0	7.0531	0	33.8578	0	26.514	0	166.223	0	104.0	4	35.2	4	-1E+10	1	0.0511	4	0.000366	0	-1E+10	1	-1E+10	1	-1E+10	1
4902624	27	C	03/18/2025	21:35	-127.137	48.146	0	168.80	0	7.0547	0	33.8622	0	26.517	0	167.313	0	103.7	4	35.1	4	-1E+10	1	0.0460	4	0.000378	0	-1E+10	1	-1E+10	1	-1E+10	1
4902624	27	C	03/18/2025	21:35	-127.137	48.146	0	169.00	0	7.0550	0	33.8630	0	26.518	0	167.511	0	-1e10	1	-1e10	1	-1E+10	1	-1e10	1	-1e10	1	-1E+10	1	-1E+10	1	-1E+10	1
4902624	27	C	03/18/2025	21:35	-127.137	48.146	0	170.00	0	7.0275	0	33.8620	0	26.521	0	168.502	0	103.4	4	35.0	4	-1E+10	1	0.0529	4	0.000321	0	-1E+10	1	-1E+10	1	-1E+10	1
4902624	27	C	03/18/2025	21:35	-127.137	48.146	0	171.00	0	7.0000	0	33.8610	0	26.524	0	169.493	0	-1e10	1	-1e10	1	-1E+10	1	-1e10	1	-1e10	1	-1E+10	1	-1E+10	1	-1E+10	1
4902624	27	C	03/18/2025	21:35	-127.137	48.146	0	171.10	0	6.9991	0	33.8610	0	26.524	0	169.592	0	103.0	4	34.8	4	-1E+10	1	0.0562	4	0.000334	0	-1E+10	1	-1E+10	1	-1E+10	1
4902624	27	C	03/18/2025	21:35	-127.137	48.146	0	172.20	0	6.9892	0	33.8616	0	26.526	0	170.682	0	102.6	4	34.7	4	-1E+10	1	0.0438	4	0.000403	0	-1E+10	1	-1E+10	1	-1E+10	1
4902624	27	C	03/18/2025	21:35	-127.137	48.146	0	173.00	0	6.9820	0	33.8620	0	26.527	0	171.474	0	-1e10	1	-1e10	1	-1E+10	1	-1e10	1	-1e10	1	-1E+10	1	-1E+10	1	-1E+10	1
4902624	27	C	03/18/2025	21:35	-127.137	48.146	0	173.40	0	6.9776	0	33.8624	0	26.528	0	171.870	0	102.1	4	34.5	4	-1E+10	1	0.0501	4	0.000323	0	-1E+10	1	-1E+10	1	-1E+10	1
4902624	27	C	03/18/2025	21:35	-127.137	48.146	0	174.50	0	6.9655	0	33.8635	0	26.531	0	172.960	0	101.7	4	34.3	4	-1E+10	1	0.0511	4	0.000336	0	-1E+10	1	-1E+10	1	-1E+10	1
4902624	27	C	03/18/2025	21:35	-127.137	48.146	0	175.00	0	6.9600	0	33.8640	0	26.532	0	173.456	0	-1e10	1	-1e10	1	-1E+10	1	-1e10	1	-1e10	1	-1E+10	1	-1E+10	1	-1E+10	1
4902624	27	C	03/18/2025	21:35	-127.137	48.146	0	175.70	0	6.9537	0	33.8650	0	26.533	0	174.149	0	101.2	4	34.2	4	-1E+10	1	0.0511	4	0.000377	0	-1E+10	1	-1E+10	1	-1E+10	1
4902624	27	C	03/18/2025	21:35	-127.137	48.146	0	176.80	0	6.9438	0	33.8667	0	26.536	0	175.239	0	100.7	4	34.0	4	-1E+10	1	0.0474	4	0.000345	0	-1E+10	1	-1E+10	1	-1E+10	1
4902624	27	C	03/18/2025	21:35	-127.137	48.146	0	177.00	0	6.9420	0	33.8670	0	26.537	0	175.437	0	-1e10	1	-1e10	1	-1E+10	1	-1e10	1	-1e10	1	-1E+10	1	-1E+10	1	-1E+10	1
4902624	27	C	03/18/2025	21:35	-127.137	48.146	0	177.90	0	6.9334	0	33.8688	0	26.539	0	176.329	0	100.0	4	33.8	4	-1E+10	1	0.0438	4	0.000332	0	-1E+10	1	-1E+10	1	-1E+10	1
4902624	27	C	03/18/2025	21:35	-127.137	48.146	0	179.00	0	6.9230	0	33.8710	0	26.542	0	177.419	0	-1e10	1	-1e10	1	-1E+10	1	-1e10	1	-1e10	1	-1E+10	1	-1E+10	1	-1E+10	1
4902624	27	C	03/18/2025	21:35	-127.137	48.146	0	179.10	0	6.9219	0	33.8712	0	26.543	0	177.518	0	99.5	4	33.6	4	-1E+10	1	0.0464	4	0.000387	0	-1E+10	1	-1E+10	1	-1E+10	1
4902624	27	C	03/18/2025	21:35	-127.137	48.146	0	180.20	0	6.9104	0	33.8735	0	26.546	0	178.607	0	98.9	4	33.3	4	-1E+10	1	0.0501	4	0.000370	0	-1E+10	1	-1E+10	1	-1E+10	1
4902624	27	C	03/18/2025	21:35	-127.137	48.146	0	180.90	0	6.9030	0	33.8750	0	26.548	0	179.301	0	-1e10	1	-1e10	1	-1E+10	1	-1e10	1	-1e10	1	-1E+10	1	-1E+10	1	-1E+10	1
4902624	27	C	03/18/2025	21:35	-127.137	48.146	0	181.40	0	6.8987	0	33.8757	0	26.549	0	179.796	0	98.2	4	33.1	4	-1E+10	1	0.0438	4	0.000310	0	-1E+10	1	-1E+10	1	-1E+10	1
4902624	27	C	03/18/2025	21:35	-127.137	48.146	0	182.50	0	6.8894	0	33.8774	0	26.552	0	180.886	0	97.6	4	32.9	4	-1E+10	1	0.0511	4	0.000298	0	-1E+10	1	-1E+10	1	-1E+10	1
4902624	27	C	03/18/2025	21:35	-127.137	48.146	0	182.90	0	6.8860	0	33.8780	0	26.553	0	181.282	0	-1e10	1	-1e10	1	-1E+10	1	-1e10	1	-1e10	1	-1E+10	1	-1E+10	1	-1E+10	1
4902624	27	C	03/18/2025	21:35	-127.137	48.146	0	183.60	0	6.8820	0	33.8787	0	26.554	0	181.976	0	97.1	4	32.7	4	-1E+10	1	0.0511	4	0.000328	0	-1E+10	1	-1E+10	1	-1E+10	1
4902624	27	C	03/18/2025	21:35	-127.137	48.146	0	184.80	0	6.8751	0	33.8798	0	26.556	0	183.165	0	96.5	4	32.5	4	-1E+10	1	0.0511	4	0.000341	0	-1E+10	1	-1E+10	1	-1E+10	1
4902624	27	C	03/18/2025	21:35	-127.137	48.146	0	185.00	0	6.8740	0	33.8800	0	26.556	0	183.363	0	-1e10	1	-1e10	1	-1E+10	1	-1e10	1	-1e10	1	-1E+10	1	-1E+10	1	-1E+10	1
4902624	27	C	03/18/2025	21:35	-127.137	48.146	0	185.90	0	6.8677	0	33.8809	0	26.558	0	184.255	0	96.0	4	32.4	4	-1E+10	1	0.0511	4	0.000330	0	-1E+10	1	-1E+10	1	-1E+10	1
4902624	27	C	03/18/2025	21:35	-127.137	48.146	0	187.00	0	6.8600	0	33.8820	0	26.560	0	185.344	0	94.3	4	31.8	4	-1E+10	1	0.0438	4	0.000327	0	-1E+10	1	-1E+10	1	-1E+10	1
4902624	27	C	03/18/2025	21:35	-127.137	48.146	0	188.10	0	6.8501	0	33.8831	0	26.562	0	186.434	0	95.0	4	32.0	4	-1E+10	1	0.0365	4	0.000356	0	-1E+10	1	-1E+10	1	-1E+10	1
4902624	27	C	03/18/2025	21:35	-127.137	48.146	0	189.00	0	6.8420	0	33.8840	0	26.564	0	187.326	0	-1e10	1	-1e10	1	-1E+10	1	-1e10	1	-1e10	1	-1E+10	1	-1E+10	1	-1E+10	1
4902624	27	C	03/18/2025	21:35	-127.137	48.146	0	189.30	0	6.8406	0	33.8842	0	26.564	0	187.623	0	94.4	4	31.8	4	-1E+10	1	0.0405	4	0.000409	0	-1E+10	1	-1E+10	1	-1E+10	1
4902624	27	C	03/18/2025	21:35	-127.137	48.146	0	190.40	0	6.8354	0	33.8847	0	26.565	0	188.713	0	93.7	4	31.5	4	-1E+10	1	0.0594	4	0.000375	0	-1E+10	1	-1E+10	1	-1E+10	1
4902624	27	C	03/18/2025	21:35	-127.137	48.146	0	190.90	0	6.8330	0	33.8850	0	26.566	0	189.208	0	-1e10	1	-1e10	1	-1E+10	1	-1e10	1	-1e10	1	-1E+10	1	-1E+10	1	-1E+10	1
4902624	27	C	03/18/2025	21:35	-127.137	48.146	0	191.60	0	6.8200	0	33.8863	0	26.568	0	189.902	0	93.0	4	31.3	4	-1E+10	1	0.0657	4	0.000345	0	-1E+10	1	-1E+10	1	-1E+10	1
4902624	27	C	03/18/2025	21:35	-127.137	48.146	0	192.70	0	6.7996	0	33.8884	0	26.573	0	190.991	0	92.3	4	31.1	4	-1E+10	1	0.0657	4	0.000368	0	-1E+10	1	-1E+10	1	-1E+10	1
4902624	27	C	03/18/2025	21:35	-127.137	48.146	0	193.00	0	6.7940	0	33.8890	0	26.574	0	191.288	0	-1e10	1	-1e10	1	-1E+10	1	-1e10	1	-1e10	1	-1E+10	1	-1E+10	1	-1E+10	1
4902624	27	C	03/18/2025	21:35	-127.137	48.146	0	193.90	0	6.7836	0	33.8890	0	26.575	0	192.180	0	91.7	4	30.9	4	-1E+10	1	0.0597	4	0.000350	0	-1E+10	1	-1E+10	1	-1E+10	1
4902624	27	C	03/18/2025	21:35	-127.137	48.146	0	195.00	0	6.7710	0	33.8890	0	26.577	0	193.270	0	90.0	4	30.3	4	-1E+10	1	0.0631	4	0.000367	0	-1E+10	1	-1E+10	1	-1E+10	1
4902624	27	C	03/18/2025	21:35	-127.137	48.146	0	196.10	0	6.7671	0	33.8923	0	26.580	0	194.360	0	90.6	4	30.5	4	-1E+10	1	0.0590	4	0.000380	0	-1E+10	1	-1E+10	1	-1E+10	1
4902624	27	C	03/18/2025	21:35	-127.137	48.146	0	197.00	0	6.7640	0	33.8950	0	26.583	0	195.251	0	-1e10	1	-1e10	1	-1E+10	1	-1e10	1	-1e10	1	-1E+10	1	-1E+10	1	-1E+10	1
4902624	27	C	03/18/2025	21:35	-127.137	48.146	0	197.20	0	6.7637	0	33.8953	0	26.583	0	195.449	0	90.0	4	30.3	4	-1E+10	1	0.0511	4	0.000384	0	-1E+10	1	-1E+10	1	-1E+10	1
4902624	27	C	03/18/2025	21:35	-127.137	48.146	0	198.40	0	6.7619	0	33.8971	0	26.585	0	196.638	0	89.4	4	30.1	4	-1E+10	1	0.0485	4	0.000362	0	-1E+10	1	-1E+10	1	-1E+10	1
4902624	27	C	03/18/2025	21:35	-127.137	48.146	0	199.00	0	6.7610	0	33.8980	0	26.586	0	197.232	0	-1e10	1	-1e10	1	-1E+10	1	-1e10	1	-1e10	1	-1E+10	1	-1E+10	1	-1E+10	1
4902624	27	C	03/18/2025	21:35	-127.137	48.146	0	199.50	0	6.7589	0	33.8988	0	26.587	0	197.728	0	88.7	4	29.8	4	-1E+10	1	0.0448	4	0.000313	0	-1E+10	1	-1E+10	1	-1E+10	1
4902624	27	C	03/18/2025	21:35	-127.137	48.146	0	200.70	0	6.7538	0	33.9007	0	26.589	0	198.916	0	88.0	4	29.6	4	-1E+10	1	0.0511	4	0.000333	0	-1E+10	1	-1E+10	1	-1E+10	1
4902624	27	C	03/18/2025	21:35	-127.137	48.146	0	200.90	0	6.7530	0	33.9010	0	26.589	0	199.115	0	-1e10	1	-1e10	1	-1E+10	1	-1e10	1	-1e10	1	-1E+10	1	-1E+10	1	-1E+10	1
4902624	27	C	03/18/2025	21:35	-127.137	48.146	0	201.90	0	6.7368	0	33.9020	0	26.592	0	200.105	0	87.3	4	29.3	4	-1E+10	1	0.0584	4	0.000298	0	-1E+10	1	-1E+10	1	-1E+10	1
4902624	27	C	03/18/2025	21:35	-127.137	48.146	0	203.00	0	6.7190	0	33.9030	0	26.595	0	201.195	0	85.4	4	28.7	4	-1E+10	1	0.0646	4	0.000317	0	-1E+10	1	-1E+10	1	-1E+10	1
4902624	27	C	03/18/2025	21:35	-127.137	48.146	0	204.10	0	6.7130	0	33.9046	0	26.597	0	202.285	0	85.9	4	28.8	4	-1E+10	1	0.0516	4	0.000321	0	-1E+10	1	-1E+10	1	-1E+10	1
4902624	27	C	03/18/2025	21:35	-127.137	48.146	0	205.00	0	6.7080	0	33.9060	0	26.599	0	203.176	0	-1e10	1	-1e10	1	-1E+10	1	-1e10	1	-1e10	1	-1E+10	1	-1E+10	1	-1E+10	1
4902624	27	C	03/18/2025	21:35	-127.137	48.146	0	205.30	0	6.7075	0	33.9065	0	26.600	0	203.473	0	85.2	4	28.6	4	-1E+10	1	0.0481	4	0.000355	0	-1E+10	1	-1E+10	1	-1E+10	1
4902624	27	C	03/18/2025	21:35	-127.137	48.146	0	206.50	0	6.7056	0	33.9084	0	26.601	0	204.662	0	84.4	4	28.3	4	-1E+10	1	0.0548	4	0.000333	0	-1E+10	1	-1E+10	1	-1E+10	1
4902624	27	C	03/18/2025	21:35	-127.137	48.146	0	206.90	0	6.7050	0	33.9090	0	26.602	0	205.058	0	-1e10	1	-1e10	1	-1E+10	1	-1e10	1	-1e10	1	-1E+10	1	-1E+10	1	-1E+10	1
4902624	27	C	03/18/2025	21:35	-127.137	48.146	0	207.60	0	6.6803	0	33.9097	0	26.606	0	205.752	0	83.7	4	28.1	4	-1E+10	1	0.0584	4	0.000279	0	-1E+10	1	-1E+10	1	-1E+10	1
4902624	27	C	03/18/2025	21:35	-127.137	48.146	0	208.80	0	6.6380	0	33.9108	0	26.612	0	206.940	0	83.1	4	27.9	4	-1E+10	1	0.0571	4	0.000273	0	-1E+10	1	-1E+10	1	-1E+10	1
4902624	27	C	03/18/2025	21:35	-127.137	48.146	0	209.00	0	6.6310	0	33.9110	0	26.613	0	207.139	0	-1e10	1	-1e10	1	-1E+10	1	-1e10	1	-1e10	1	-1E+10	1	-1E+10	1	-1E+10	1
4902624	27	C	03/18/2025	21:35	-127.137	48.146	0	210.00	0	6.6177	0	33.9105	0	26.615	0	208.129	0	82.6	4	27.7	4	-1E+10	1	0.0511	4	0.000319	0	-1E+10	1	-1E+10	1	-1E+10	1
4902624	27	C	03/18/2025	21:35	-127.137	48.146	0	211.10	0	6.6030	0	33.9100	0	26.616	0	209.219	0	-1e10	1	-1e10	1	-1E+10	1	-1e10	1	-1e10	1	-1E+10	1	-1E+10	1	-1E+10	1
4902624	27	C	03/18/2025	21:35	-127.137	48.146	0	211.20	0	6.6036	0	33.9102	0	26.616	0	209.318	0	82.1	4	27.5	4	-1E+10	1	0.0511	4	0.000309	0	-1E+10	1	-1E+10	1	-1E+10	1
4902624	27	C	03/18/2025	21:35	-127.137	48.146	0	212.40	0	6.6105	0	33.9121	0	26.617	0	210.507	0	81.5	4	27.3	4	-1E+10	1	0.0511	4	0.000339	0	-1E+10	1	-1E+10	1	-1E+10	1
4902624	27	C	03/18/2025	21:35	-127.137	48.146	0	213.00	0	6.6140	0	33.9130	0	26.617	0	211.101	0	-1e10	1	-1e10	1	-1E+10	1	-1e10	1	-1e10	1	-1E+10	1	-1E+10	1	-1E+10	1
4902624	27	C	03/18/2025	21:35	-127.137	48.146	0	213.60	0	6.6236	0	33.9160	0	26.618	0	211.695	0	80.7	4	27.0	4	-1E+10	1	0.0389	4	0.000305	0	-1E+10	1	-1E+10	1	-1E+10	1
4902624	27	C	03/18/2025	21:35	-127.137	48.146	0	214.70	0	6.6412	0	33.9215	0	26.620	0	212.785	0	80.0	4	26.8	4	-1E+10	1	0.0553	4	0.000313	0	-1E+10	1	-1E+10	1	-1E+10	1
4902624	27	C	03/18/2025	21:35	-127.137	48.146	0	215.00	0	6.6460	0	33.9230	0	26.621	0	213.082	0	-1e10	1	-1e10	1	-1E+10	1	-1e10	1	-1e10	1	-1E+10	1	-1E+10	1	-1E+10	1
4902624	27	C	03/18/2025	21:35	-127.137	48.146	0	215.90	0	6.6127	0	33.9239	0	26.626	0	213.974	0	79.3	4	26.6	4	-1E+10	1	0.0548	4	0.000327	0	-1E+10	1	-1E+10	1	-1E+10	1
4902624	27	C	03/18/2025	21:35	-127.137	48.146	0	217.00	0	6.5720	0	33.9250	0	26.632	0	215.063	0	-1e10	1	-1e10	1	-1E+10	1	-1e10	1	-1e10	1	-1E+10	1	-1E+10	1	-1E+10	1
4902624	27	C	03/18/2025	21:35	-127.137	48.146	0	217.10	0	6.5693	0	33.9248	0	26.632	0	215.162	0	78.9	4	26.4	4	-1E+10	1	0.0468	4	0.000362	0	-1E+10	1	-1E+10	1	-1E+10	1
4902624	27	C	03/18/2025	21:35	-127.137	48.146	0	218.30	0	6.5369	0	33.9224	0	26.635	0	216.351	0	78.5	4	26.3	4	-1E+10	1	0.0511	4	0.000364	0	-1E+10	1	-1E+10	1	-1E+10	1
4902624	27	C	03/18/2025	21:35	-127.137	48.146	0	219.00	0	6.5180	0	33.9210	0	26.636	0	217.044	0	-1e10	1	-1e10	1	-1E+10	1	-1e10	1	-1e10	1	-1E+10	1	-1E+10	1	-1E+10	1
4902624	27	C	03/18/2025	21:35	-127.137	48.146	0	219.50	0	6.5165	0	33.9218	0	26.637	0	217.540	0	78.1	4	26.1	4	-1E+10	1	0.0521	4	0.000291	0	-1E+10	1	-1E+10	1	-1E+10	1
4902624	27	C	03/18/2025	21:35	-127.137	48.146	0	220.70	0	6.5129	0	33.9235	0	26.639	0	218.728	0	77.7	4	26.0	4	-1E+10	1	0.0584	4	0.000321	0	-1E+10	1	-1E+10	1	-1E+10	1
4902624	27	C	03/18/2025	21:35	-127.137	48.146	0	221.00	0	6.5120	0	33.9240	0	26.639	0	219.025	0	-1e10	1	-1e10	1	-1E+10	1	-1e10	1	-1e10	1	-1E+10	1	-1E+10	1	-1E+10	1
4902624	27	C	03/18/2025	21:35	-127.137	48.146	0	221.80	0	6.5080	0	33.9248	0	26.641	0	219.818	0	77.1	4	25.8	4	-1E+10	1	0.0511	4	0.000309	0	-1E+10	1	-1E+10	1	-1E+10	1
4902624	27	C	03/18/2025	21:35	-127.137	48.146	0	223.00	0	6.5020	0	33.9260	0	26.642	0	221.006	0	75.4	4	25.2	4	-1E+10	1	0.0448	4	0.000339	0	-1E+10	1	-1E+10	1	-1E+10	1
4902624	27	C	03/18/2025	21:35	-127.137	48.146	0	224.20	0	6.4912	0	33.9284	0	26.646	0	222.195	0	75.9	4	25.4	4	-1E+10	1	0.0341	4	0.000313	0	-1E+10	1	-1E+10	1	-1E+10	1
4902624	27	C	03/18/2025	21:35	-127.137	48.146	0	225.00	0	6.4840	0	33.9300	0	26.648	0	222.987	0	-1e10	1	-1e10	1	-1E+10	1	-1e10	1	-1e10	1	-1E+10	1	-1E+10	1	-1E+10	1
4902624	27	C	03/18/2025	21:35	-127.137	48.146	0	225.40	0	6.4806	0	33.9308	0	26.649	0	223.384	0	75.4	4	25.2	4	-1E+10	1	0.0462	4	0.000291	0	-1E+10	1	-1E+10	1	-1E+10	1
4902624	27	C	03/18/2025	21:35	-127.137	48.146	0	226.60	0	6.4704	0	33.9332	0	26.652	0	224.572	0	74.9	4	25.0	4	-1E+10	1	0.0548	4	0.000280	0	-1E+10	1	-1E+10	1	-1E+10	1
4902624	27	C	03/18/2025	21:35	-127.137	48.146	0	227.00	0	6.4670	0	33.9340	0	26.653	0	224.968	0	-1e10	1	-1e10	1	-1E+10	1	-1e10	1	-1e10	1	-1E+10	1	-1E+10	1	-1E+10	1
4902624	27	C	03/18/2025	21:35	-127.137	48.146	0	227.70	0	6.4569	0	33.9371	0	26.657	0	225.662	0	74.6	4	24.9	4	-1E+10	1	0.0490	4	0.000284	0	-1E+10	1	-1E+10	1	-1E+10	1
4902624	27	C	03/18/2025	21:35	-127.137	48.146	0	228.90	0	6.4395	0	33.9426	0	26.664	0	226.850	0	74.4	4	24.8	4	-1E+10	1	0.0465	4	0.000307	0	-1E+10	1	-1E+10	1	-1E+10	1
4902624	27	C	03/18/2025	21:35	-127.137	48.146	0	229.00	0	6.4380	0	33.9430	0	26.664	0	226.949	0	-1e10	1	-1e10	1	-1E+10	1	-1e10	1	-1e10	1	-1E+10	1	-1E+10	1	-1E+10	1
4902624	27	C	03/18/2025	21:35	-127.137	48.146	0	230.10	0	6.4264	0	33.9436	0	26.666	0	228.039	0	74.3	4	24.8	4	-1E+10	1	0.0584	4	0.000297	0	-1E+10	1	-1E+10	1	-1E+10	1
4902624	27	C	03/18/2025	21:35	-127.137	48.146	0	231.00	0	6.4170	0	33.9440	0	26.668	0	228.930	0	-1e10	1	-1e10	1	-1E+10	1	-1e10	1	-1e10	1	-1E+10	1	-1E+10	1	-1E+10	1
4902624	27	C	03/18/2025	21:35	-127.137	48.146	0	231.10	0	6.4144	0	33.9439	0	26.668	0	229.030	0	74.1	4	24.7	4	-1E+10	1	0.0584	4	0.000302	0	-1E+10	1	-1E+10	1	-1E+10	1
4902624	27	C	03/18/2025	21:35	-127.137	48.146	0	232.00	0	6.3913	0	33.9430	0	26.670	0	229.921	0	74.0	4	24.7	4	-1E+10	1	0.0584	4	0.000321	0	-1E+10	1	-1E+10	1	-1E+10	1
4902624	27	C	03/18/2025	21:35	-127.137	48.146	0	232.70	0	6.3733	0	33.9424	0	26.672	0	230.614	0	73.9	4	24.6	4	-1E+10	1	0.0438	4	0.000274	0	-1E+10	1	-1E+10	1	-1E+10	1
4902624	27	C	03/18/2025	21:35	-127.137	48.146	0	233.10	0	6.3630	0	33.9420	0	26.673	0	231.010	0	-1e10	1	-1e10	1	-1E+10	1	-1e10	1	-1e10	1	-1E+10	1	-1E+10	1	-1E+10	1
4902624	27	C	03/18/2025	21:35	-127.137	48.146	0	233.50	0	6.3579	0	33.9420	0	26.674	0	231.407	0	73.7	4	24.6	4	-1E+10	1	0.0438	4	0.000295	0	-1E+10	1	-1E+10	1	-1E+10	1
4902624	27	C	03/18/2025	21:35	-127.137	48.146	0	234.20	0	6.3491	0	33.9420	0	26.675	0	232.100	0	73.6	4	24.5	4	-1E+10	1	0.0438	4	0.000297	0	-1E+10	1	-1E+10	1	-1E+10	1
4902624	27	C	03/18/2025	21:35	-127.137	48.146	0	235.00	0	6.3390	0	33.9420	0	26.676	0	232.892	0	72.4	4	24.1	4	-1E+10	1	0.0529	4	0.000312	0	-1E+10	1	-1E+10	1	-1E+10	1
4902624	27	C	03/18/2025	21:35	-127.137	48.146	0	235.70	0	6.3313	0	33.9420	0	26.677	0	233.586	0	73.3	4	24.4	4	-1E+10	1	0.0519	4	0.000310	0	-1E+10	1	-1E+10	1	-1E+10	1
4902624	27	C	03/18/2025	21:35	-127.137	48.146	0	236.50	0	6.3224	0	33.9420	0	26.678	0	234.378	0	73.2	4	24.4	4	-1E+10	1	0.0438	4	0.000297	0	-1E+10	1	-1E+10	1	-1E+10	1
4902624	27	C	03/18/2025	21:35	-127.137	48.146	0	236.90	0	6.3180	0	33.9420	0	26.679	0	234.774	0	-1e10	1	-1e10	1	-1E+10	1	-1e10	1	-1e10	1	-1E+10	1	-1E+10	1	-1E+10	1
4902624	27	C	03/18/2025	21:35	-127.137	48.146	0	237.30	0	6.3108	0	33.9414	0	26.679	0	235.170	0	73.0	4	24.3	4	-1E+10	1	0.0493	4	0.000294	0	-1E+10	1	-1E+10	1	-1E+10	1
4902624	27	C	03/18/2025	21:35	-127.137	48.146	0	238.10	0	6.2963	0	33.9403	0	26.680	0	235.963	0	72.8	4	24.2	4	-1E+10	1	0.0608	4	0.000296	0	-1E+10	1	-1E+10	1	-1E+10	1
4902624	27	C	03/18/2025	21:35	-127.137	48.146	0	238.80	0	6.2836	0	33.9393	0	26.681	0	236.656	0	72.6	4	24.2	4	-1E+10	1	0.0438	4	0.000333	0	-1E+10	1	-1E+10	1	-1E+10	1
4902624	27	C	03/18/2025	21:35	-127.137	48.146	0	239.00	0	6.2800	0	33.9390	0	26.681	0	236.854	0	-1e10	1	-1e10	1	-1E+10	1	-1e10	1	-1e10	1	-1E+10	1	-1E+10	1	-1E+10	1
4902624	27	C	03/18/2025	21:35	-127.137	48.146	0	239.80	0	6.2592	0	33.9378	0	26.683	0	237.647	0	72.4	4	24.1	4	-1E+10	1	0.0511	4	0.000356	0	-1E+10	1	-1E+10	1	-1E+10	1
4902624	27	C	03/18/2025	21:35	-127.137	48.146	0	240.50	0	6.2410	0	33.9368	0	26.685	0	238.340	0	72.1	4	24.0	4	-1E+10	1	0.0511	4	0.000294	0	-1E+10	1	-1E+10	1	-1E+10	1
4902624	27	C	03/18/2025	21:35	-127.137	48.146	0	241.00	0	6.2280	0	33.9360	0	26.686	0	238.835	0	-1e10	1	-1e10	1	-1E+10	1	-1e10	1	-1e10	1	-1E+10	1	-1E+10	1	-1E+10	1
4902624	27	C	03/18/2025	21:35	-127.137	48.146	0	241.20	0	6.2244	0	33.9363	0	26.686	0	239.033	0	71.7	4	23.8	4	-1E+10	1	0.0555	4	0.000300	0	-1E+10	1	-1E+10	1	-1E+10	1
4902624	27	C	03/18/2025	21:35	-127.137	48.146	0	242.10	0	6.2082	0	33.9376	0	26.690	0	239.925	0	71.4	4	23.7	4	-1E+10	1	0.0543	4	0.000303	0	-1E+10	1	-1E+10	1	-1E+10	1
4902624	27	C	03/18/2025	21:35	-127.137	48.146	0	242.90	0	6.1938	0	33.9389	0	26.692	0	240.717	0	71.1	4	23.6	4	-1E+10	1	0.0511	4	0.000292	0	-1E+10	1	-1E+10	1	-1E+10	1
4902624	27	C	03/18/2025	21:35	-127.137	48.146	0	243.00	0	6.1920	0	33.9390	0	26.693	0	240.816	0	-1e10	1	-1e10	1	-1E+10	1	-1e10	1	-1e10	1	-1E+10	1	-1E+10	1	-1E+10	1
4902624	27	C	03/18/2025	21:35	-127.137	48.146	0	243.70	0	6.1832	0	33.9386	0	26.694	0	241.509	0	70.6	4	23.4	4	-1E+10	1	0.0533	4	0.000300	0	-1E+10	1	-1E+10	1	-1E+10	1
4902624	27	C	03/18/2025	21:35	-127.137	48.146	0	244.50	0	6.1732	0	33.9382	0	26.695	0	242.302	0	70.2	4	23.3	4	-1E+10	1	0.0584	4	0.000343	0	-1E+10	1	-1E+10	1	-1E+10	1
4902624	27	C	03/18/2025	21:35	-127.137	48.146	0	245.00	0	6.1670	0	33.9380	0	26.695	0	242.797	0	-1e10	1	-1e10	1	-1E+10	1	-1e10	1	-1e10	1	-1E+10	1	-1E+10	1	-1E+10	1
4902624	27	C	03/18/2025	21:35	-127.137	48.146	0	245.40	0	6.1586	0	33.9384	0	26.697	0	243.193	0	69.8	4	23.1	4	-1E+10	1	0.0584	4	0.000438	0	-1E+10	1	-1E+10	1	-1E+10	1
4902624	27	C	03/18/2025	21:35	-127.137	48.146	0	246.20	0	6.1418	0	33.9392	0	26.699	0	243.985	0	69.3	4	23.0	4	-1E+10	1	0.0511	4	0.000356	0	-1E+10	1	-1E+10	1	-1E+10	1
4902624	27	C	03/18/2025	21:35	-127.137	48.146	0	247.00	0	6.1250	0	33.9400	0	26.702	0	244.778	0	-1e10	1	-1e10	1	-1E+10	1	-1e10	1	-1e10	1	-1E+10	1	-1E+10	1	-1E+10	1
4902624	27	C	03/18/2025	21:35	-127.137	48.146	0	247.10	0	6.1253	0	33.9403	0	26.702	0	244.877	0	68.7	4	22.8	4	-1E+10	1	0.0445	4	0.000293	0	-1E+10	1	-1E+10	1	-1E+10	1
4902624	27	C	03/18/2025	21:35	-127.137	48.146	0	247.90	0	6.1277	0	33.9431	0	26.704	0	245.669	0	68.2	4	22.6	4	-1E+10	1	0.0577	4	0.000390	0	-1E+10	1	-1E+10	1	-1E+10	1
4902624	27	C	03/18/2025	21:35	-127.137	48.146	0	248.80	0	6.1304	0	33.9463	0	26.706	0	246.560	0	68.0	4	22.5	4	-1E+10	1	0.0611	4	0.000362	0	-1E+10	1	-1E+10	1	-1E+10	1
4902624	27	C	03/18/2025	21:35	-127.137	48.146	0	249.00	0	6.1310	0	33.9470	0	26.707	0	246.758	0	-1e10	1	-1e10	1	-1E+10	1	-1e10	1	-1e10	1	-1E+10	1	-1E+10	1	-1E+10	1
4902624	27	C	03/18/2025	21:35	-127.137	48.146	0	249.70	0	6.1321	0	33.9480	0	26.708	0	247.452	0	67.7	4	22.4	4	-1E+10	1	0.0544	4	0.000303	0	-1E+10	1	-1E+10	1	-1E+10	1
4902624	27	C	03/18/2025	21:35	-127.137	48.146	0	250.60	0	6.1334	0	33.9494	0	26.709	0	248.343	0	67.3	4	22.3	4	-1E+10	1	0.0538	4	0.000289	0	-1E+10	1	-1E+10	1	-1E+10	1
4902624	27	C	03/18/2025	21:35	-127.137	48.146	0	251.00	0	6.1340	0	33.9500	0	26.709	0	248.739	0	-1e10	1	-1e10	1	-1E+10	1	-1e10	1	-1e10	1	-1E+10	1	-1E+10	1	-1E+10	1
4902624	27	C	03/18/2025	21:35	-127.137	48.146	0	251.50	0	6.1307	0	33.9507	0	26.710	0	249.234	0	66.9	4	22.2	4	-1E+10	1	0.0602	4	0.000297	0	-1E+10	1	-1E+10	1	-1E+10	1
4902624	27	C	03/18/2025	21:35	-127.137	48.146	0	252.30	0	6.1253	0	33.9519	0	26.711	0	250.027	0	66.6	4	22.1	4	-1E+10	1	0.0617	4	0.000357	0	-1E+10	1	-1E+10	1	-1E+10	1
4902624	27	C	03/18/2025	21:35	-127.137	48.146	0	253.10	0	6.1200	0	33.9530	0	26.713	0	250.819	0	-1e10	1	-1e10	1	-1E+10	1	-1e10	1	-1e10	1	-1E+10	1	-1E+10	1	-1E+10	1
4902624	27	C	03/18/2025	21:35	-127.137	48.146	0	253.20	0	6.1193	0	33.9533	0	26.713	0	250.918	0	66.2	4	21.9	4	-1E+10	1	0.0438	4	0.000309	0	-1E+10	1	-1E+10	1	-1E+10	1
4902624	27	C	03/18/2025	21:35	-127.137	48.146	0	254.10	0	6.1135	0	33.9560	0	26.716	0	251.809	0	65.9	4	21.8	4	-1E+10	1	0.0378	4	0.000309	0	-1E+10	1	-1E+10	1	-1E+10	1
4902624	27	C	03/18/2025	21:35	-127.137	48.146	0	255.00	0	6.1076	0	33.9587	0	26.719	0	252.701	0	65.7	4	21.8	4	-1E+10	1	0.0422	4	0.000318	0	-1E+10	1	-1E+10	1	-1E+10	1
4902624	27	C	03/18/2025	21:35	-127.137	48.146	0	255.10	0	6.1070	0	33.9590	0	26.719	0	252.800	0	-1e10	1	-1e10	1	-1E+10	1	-1e10	1	-1e10	1	-1E+10	1	-1E+10	1	-1E+10	1
4902624	27	C	03/18/2025	21:35	-127.137	48.146	0	256.00	0	6.1136	0	33.9614	0	26.721	0	253.691	0	65.5	4	21.7	4	-1E+10	1	0.0491	4	0.000295	0	-1E+10	1	-1E+10	1	-1E+10	1
4902624	27	C	03/18/2025	21:35	-127.137	48.146	0	256.90	0	6.1203	0	33.9637	0	26.722	0	254.582	0	65.3	4	21.7	4	-1E+10	1	0.0511	4	0.000292	0	-1E+10	1	-1E+10	1	-1E+10	1
4902624	27	C	03/18/2025	21:35	-127.137	48.146	0	257.00	0	6.1210	0	33.9640	0	26.722	0	254.682	0	-1e10	1	-1e10	1	-1E+10	1	-1e10	1	-1e10	1	-1E+10	1	-1E+10	1	-1E+10	1
4902624	27	C	03/18/2025	21:35	-127.137	48.146	0	257.80	0	6.1306	0	33.9644	0	26.721	0	255.474	0	65.2	4	21.6	4	-1E+10	1	0.0482	4	0.000302	0	-1E+10	1	-1E+10	1	-1E+10	1
4902624	27	C	03/18/2025	21:35	-127.137	48.146	0	258.80	0	6.1426	0	33.9649	0	26.720	0	256.464	0	65.0	4	21.6	4	-1E+10	1	0.0491	4	0.000292	0	-1E+10	1	-1E+10	1	-1E+10	1
4902624	27	C	03/18/2025	21:35	-127.137	48.146	0	259.00	0	6.1450	0	33.9650	0	26.719	0	256.662	0	-1e10	1	-1e10	1	-1E+10	1	-1e10	1	-1e10	1	-1E+10	1	-1E+10	1	-1E+10	1
4902624	27	C	03/18/2025	21:35	-127.137	48.146	0	259.70	0	6.1405	0	33.9657	0	26.721	0	257.355	0	64.9	4	21.5	4	-1E+10	1	0.0548	4	0.000266	0	-1E+10	1	-1E+10	1	-1E+10	1
4902624	27	C	03/18/2025	21:35	-127.137	48.146	0	260.70	0	6.1339	0	33.9667	0	26.722	0	258.346	0	64.7	4	21.5	4	-1E+10	1	0.0365	4	0.000285	0	-1E+10	1	-1E+10	1	-1E+10	1
4902624	27	C	03/18/2025	21:35	-127.137	48.146	0	261.00	0	6.1320	0	33.9670	0	26.723	0	258.643	0	-1e10	1	-1e10	1	-1E+10	1	-1e10	1	-1e10	1	-1E+10	1	-1E+10	1	-1E+10	1
4902624	27	C	03/18/2025	21:35	-127.137	48.146	0	261.60	0	6.1275	0	33.9667	0	26.723	0	259.237	0	64.5	4	21.4	4	-1E+10	1	0.0511	4	0.000297	0	-1E+10	1	-1E+10	1	-1E+10	1
4902624	27	C	03/18/2025	21:35	-127.137	48.146	0	262.60	0	6.1200	0	33.9662	0	26.724	0	260.227	0	64.3	4	21.3	4	-1E+10	1	0.0511	4	0.000254	0	-1E+10	1	-1E+10	1	-1E+10	1
4902624	27	C	03/18/2025	21:35	-127.137	48.146	0	263.00	0	6.1170	0	33.9660	0	26.724	0	260.624	0	-1e10	1	-1e10	1	-1E+10	1	-1e10	1	-1e10	1	-1E+10	1	-1E+10	1	-1E+10	1
4902624	27	C	03/18/2025	21:35	-127.137	48.146	0	263.50	0	6.1130	0	33.9662	0	26.725	0	261.119	0	64.1	4	21.2	4	-1E+10	1	0.0405	4	0.000293	0	-1E+10	1	-1E+10	1	-1E+10	1
4902624	27	C	03/18/2025	21:35	-127.137	48.146	0	264.40	0	6.1058	0	33.9667	0	26.726	0	262.010	0	63.9	4	21.2	4	-1E+10	1	0.0496	4	0.000295	0	-1E+10	1	-1E+10	1	-1E+10	1
4902624	27	C	03/18/2025	21:35	-127.137	48.146	0	265.00	0	6.1010	0	33.9670	0	26.727	0	262.604	0	-1e10	1	-1e10	1	-1E+10	1	-1e10	1	-1e10	1	-1E+10	1	-1E+10	1	-1E+10	1
4902624	27	C	03/18/2025	21:35	-127.137	48.146	0	265.40	0	6.0999	0	33.9674	0	26.727	0	263.000	0	63.7	4	21.1	4	-1E+10	1	0.0548	4	0.000280	0	-1E+10	1	-1E+10	1	-1E+10	1
4902624	27	C	03/18/2025	21:35	-127.137	48.146	0	266.30	0	6.0976	0	33.9684	0	26.728	0	263.892	0	63.5	4	21.0	4	-1E+10	1	0.0531	4	0.000264	0	-1E+10	1	-1E+10	1	-1E+10	1
4902624	27	C	03/18/2025	21:35	-127.137	48.146	0	266.90	0	6.0960	0	33.9690	0	26.729	0	264.486	0	-1e10	1	-1e10	1	-1E+10	1	-1e10	1	-1e10	1	-1E+10	1	-1E+10	1	-1E+10	1
4902624	27	C	03/18/2025	21:35	-127.137	48.146	0	267.30	0	6.0968	0	33.9692	0	26.729	0	264.882	0	63.3	4	21.0	4	-1E+10	1	0.0555	4	0.000245	0	-1E+10	1	-1E+10	1	-1E+10	1
4902624	27	C	03/18/2025	21:35	-127.137	48.146	0	268.30	0	6.0987	0	33.9697	0	26.729	0	265.872	0	63.1	4	20.9	4	-1E+10	1	0.0478	4	0.000269	0	-1E+10	1	-1E+10	1	-1E+10	1
4902624	27	C	03/18/2025	21:35	-127.137	48.146	0	269.00	0	6.1000	0	33.9700	0	26.729	0	266.566	0	-1e10	1	-1e10	1	-1E+10	1	-1e10	1	-1e10	1	-1E+10	1	-1E+10	1	-1E+10	1
4902624	27	C	03/18/2025	21:35	-127.137	48.146	0	269.20	0	6.1008	0	33.9702	0	26.729	0	266.764	0	62.9	4	20.8	4	-1E+10	1	0.0657	4	0.000250	0	-1E+10	1	-1E+10	1	-1E+10	1
4902624	27	C	03/18/2025	21:35	-127.137	48.146	0	270.20	0	6.1051	0	33.9713	0	26.730	0	267.754	0	62.7	4	20.8	4	-1E+10	1	0.0535	4	0.000299	0	-1E+10	1	-1E+10	1	-1E+10	1
4902624	27	C	03/18/2025	21:35	-127.137	48.146	0	270.90	0	6.1080	0	33.9720	0	26.730	0	268.447	0	-1e10	1	-1e10	1	-1E+10	1	-1e10	1	-1e10	1	-1E+10	1	-1E+10	1	-1E+10	1
4902624	27	C	03/18/2025	21:35	-127.137	48.146	0	271.20	0	6.1066	0	33.9721	0	26.730	0	268.744	0	62.5	4	20.7	4	-1E+10	1	0.0511	4	0.000309	0	-1E+10	1	-1E+10	1	-1E+10	1
4902624	27	C	03/18/2025	21:35	-127.137	48.146	0	272.20	0	6.1021	0	33.9726	0	26.731	0	269.735	0	62.2	4	20.6	4	-1E+10	1	0.0608	4	0.000293	0	-1E+10	1	-1E+10	1	-1E+10	1
4902624	27	C	03/18/2025	21:35	-127.137	48.146	0	273.10	0	6.0980	0	33.9730	0	26.732	0	270.626	0	-1e10	1	-1e10	1	-1E+10	1	-1e10	1	-1e10	1	-1E+10	1	-1E+10	1	-1E+10	1
4902624	27	C	03/18/2025	21:35	-127.137	48.146	0	273.20	0	6.0970	0	33.9730	0	26.732	0	270.725	0	62.0	4	20.5	4	-1E+10	1	0.0548	4	0.000256	0	-1E+10	1	-1E+10	1	-1E+10	1
4902624	27	C	03/18/2025	21:35	-127.137	48.146	0	274.20	0	6.0865	0	33.9735	0	26.734	0	271.715	0	61.8	4	20.5	4	-1E+10	1	0.0467	4	0.000292	0	-1E+10	1	-1E+10	1	-1E+10	1
4902624	27	C	03/18/2025	21:35	-127.137	48.146	0	275.10	0	6.0770	0	33.9740	0	26.735	0	272.606	0	-1e10	1	-1e10	1	-1E+10	1	-1e10	1	-1e10	1	-1E+10	1	-1E+10	1	-1E+10	1
4902624	27	C	03/18/2025	21:35	-127.137	48.146	0	275.20	0	6.0767	0	33.9742	0	26.736	0	272.705	0	61.7	4	20.4	4	-1E+10	1	0.0487	4	0.000348	0	-1E+10	1	-1E+10	1	-1E+10	1
4902624	27	C	03/18/2025	21:35	-127.137	48.146	0	276.20	0	6.0733	0	33.9761	0	26.737	0	273.696	0	61.6	4	20.4	4	-1E+10	1	0.0474	4	0.000265	0	-1E+10	1	-1E+10	1	-1E+10	1
4902624	27	C	03/18/2025	21:35	-127.137	48.146	0	277.20	0	6.0700	0	33.9780	0	26.739	0	274.686	0	60.6	4	20.1	4	-1E+10	1	0.0657	4	0.000279	0	-1E+10	1	-1E+10	1	-1E+10	1
4902624	27	C	03/18/2025	21:35	-127.137	48.146	0	278.20	0	6.0653	0	33.9774	0	26.740	0	275.676	0	61.4	4	20.3	4	-1E+10	1	0.0657	4	0.000309	0	-1E+10	1	-1E+10	1	-1E+10	1
4902624	27	C	03/18/2025	21:35	-127.137	48.146	0	278.90	0	6.0620	0	33.9770	0	26.740	0	276.369	0	-1e10	1	-1e10	1	-1E+10	1	-1e10	1	-1e10	1	-1E+10	1	-1E+10	1	-1E+10	1
4902624	27	C	03/18/2025	21:35	-127.137	48.146	0	279.20	0	6.0597	0	33.9770	0	26.740	0	276.666	0	61.2	4	20.3	4	-1E+10	1	0.0414	4	0.000299	0	-1E+10	1	-1E+10	1	-1E+10	1
4902624	27	C	03/18/2025	21:35	-127.137	48.146	0	280.20	0	6.0522	0	33.9770	0	26.741	0	277.657	0	61.1	4	20.2	4	-1E+10	1	0.0462	4	0.000313	0	-1E+10	1	-1E+10	1	-1E+10	1
4902624	27	C	03/18/2025	21:35	-127.137	48.146	0	280.90	0	6.0470	0	33.9770	0	26.742	0	278.350	0	-1e10	1	-1e10	1	-1E+10	1	-1e10	1	-1e10	1	-1E+10	1	-1E+10	1	-1E+10	1
4902624	27	C	03/18/2025	21:35	-127.137	48.146	0	281.20	0	6.0389	0	33.9767	0	26.742	0	278.647	0	60.9	4	20.1	4	-1E+10	1	0.0423	4	0.000278	0	-1E+10	1	-1E+10	1	-1E+10	1
4902624	27	C	03/18/2025	21:35	-127.137	48.146	0	282.30	0	6.0090	0	33.9757	0	26.745	0	279.736	0	60.7	4	20.1	4	-1E+10	1	0.0562	4	0.000288	0	-1E+10	1	-1E+10	1	-1E+10	1
4902624	27	C	03/18/2025	21:35	-127.137	48.146	0	283.00	0	5.9900	0	33.9750	0	26.747	0	280.429	0	-1e10	1	-1e10	1	-1E+10	1	-1e10	1	-1e10	1	-1E+10	1	-1E+10	1	-1E+10	1
4902624	27	C	03/18/2025	21:35	-127.137	48.146	0	283.30	0	5.9880	0	33.9750	0	26.747	0	280.726	0	60.5	4	20.0	4	-1E+10	1	0.0633	4	0.000309	0	-1E+10	1	-1E+10	1	-1E+10	1
4902624	27	C	03/18/2025	21:35	-127.137	48.146	0	284.30	0	5.9813	0	33.9750	0	26.748	0	281.717	0	60.2	4	19.9	4	-1E+10	1	0.0465	4	0.000283	0	-1E+10	1	-1E+10	1	-1E+10	1
4902624	27	C	03/18/2025	21:35	-127.137	48.146	0	285.10	0	5.9760	0	33.9750	0	26.749	0	282.509	0	-1e10	1	-1e10	1	-1E+10	1	-1e10	1	-1e10	1	-1E+10	1	-1E+10	1	-1E+10	1
4902624	27	C	03/18/2025	21:35	-127.137	48.146	0	285.40	0	5.9766	0	33.9752	0	26.749	0	282.806	0	60.0	4	19.8	4	-1E+10	1	0.0572	4	0.000270	0	-1E+10	1	-1E+10	1	-1E+10	1
4902624	27	C	03/18/2025	21:35	-127.137	48.146	0	286.40	0	5.9787	0	33.9757	0	26.749	0	283.796	0	59.8	4	19.8	4	-1E+10	1	0.0511	4	0.000250	0	-1E+10	1	-1E+10	1	-1E+10	1
4902624	27	C	03/18/2025	21:35	-127.137	48.146	0	287.00	0	5.9800	0	33.9760	0	26.749	0	284.390	0	-1e10	1	-1e10	1	-1E+10	1	-1e10	1	-1e10	1	-1E+10	1	-1E+10	1	-1E+10	1
4902624	27	C	03/18/2025	21:35	-127.137	48.146	0	287.40	0	5.9798	0	33.9760	0	26.749	0	284.786	0	59.5	4	19.7	4	-1E+10	1	0.0511	4	0.000289	0	-1E+10	1	-1E+10	1	-1E+10	1
4902624	27	C	03/18/2025	21:35	-127.137	48.146	0	288.50	0	5.9792	0	33.9760	0	26.749	0	285.876	0	59.3	4	19.6	4	-1E+10	1	0.0511	4	0.000307	0	-1E+10	1	-1E+10	1	-1E+10	1
4902624	27	C	03/18/2025	21:35	-127.137	48.146	0	289.00	0	5.9790	0	33.9760	0	26.749	0	286.371	0	-1e10	1	-1e10	1	-1E+10	1	-1e10	1	-1e10	1	-1E+10	1	-1E+10	1	-1E+10	1
4902624	27	C	03/18/2025	21:35	-127.137	48.146	0	289.50	0	5.9790	0	33.9765	0	26.750	0	286.866	0	59.0	4	19.5	4	-1E+10	1	0.0511	4	0.000270	0	-1E+10	1	-1E+10	1	-1E+10	1
4902624	27	C	03/18/2025	21:35	-127.137	48.146	0	290.60	0	5.9790	0	33.9777	0	26.751	0	287.955	0	58.7	4	19.4	4	-1E+10	1	0.0550	4	0.000294	0	-1E+10	1	-1E+10	1	-1E+10	1
4902624	27	C	03/18/2025	21:35	-127.137	48.146	0	290.90	0	5.9790	0	33.9780	0	26.751	0	288.252	0	-1e10	1	-1e10	1	-1E+10	1	-1e10	1	-1e10	1	-1E+10	1	-1E+10	1	-1E+10	1
4902624	27	C	03/18/2025	21:35	-127.137	48.146	0	291.60	0	5.9766	0	33.9794	0	26.752	0	288.945	0	58.5	4	19.3	4	-1E+10	1	0.0555	4	0.000309	0	-1E+10	1	-1E+10	1	-1E+10	1
4902624	27	C	03/18/2025	21:35	-127.137	48.146	0	292.60	0	5.9731	0	33.9814	0	26.754	0	289.935	0	58.3	4	19.3	4	-1E+10	1	0.0458	4	0.000278	0	-1E+10	1	-1E+10	1	-1E+10	1
4902624	27	C	03/18/2025	21:35	-127.137	48.146	0	292.90	0	5.9720	0	33.9820	0	26.755	0	290.232	0	-1e10	1	-1e10	1	-1E+10	1	-1e10	1	-1e10	1	-1E+10	1	-1E+10	1	-1E+10	1
4902624	27	C	03/18/2025	21:35	-127.137	48.146	0	293.70	0	5.9659	0	33.9831	0	26.757	0	291.025	0	58.2	4	19.2	4	-1E+10	1	0.0438	4	0.000285	0	-1E+10	1	-1E+10	1	-1E+10	1
4902624	27	C	03/18/2025	21:35	-127.137	48.146	0	294.90	0	5.9568	0	33.9849	0	26.759	0	292.213	0	58.0	4	19.2	4	-1E+10	1	0.0584	4	0.000284	0	-1E+10	1	-1E+10	1	-1E+10	1
4902624	27	C	03/18/2025	21:35	-127.137	48.146	0	295.00	0	5.9560	0	33.9850	0	26.759	0	292.312	0	-1e10	1	-1e10	1	-1E+10	1	-1e10	1	-1e10	1	-1E+10	1	-1E+10	1	-1E+10	1
4902624	27	C	03/18/2025	21:35	-127.137	48.146	0	297.00	0	5.9480	0	33.9850	0	26.760	0	294.292	0	-1e10	1	-1e10	1	-1E+10	1	-1e10	1	-1e10	1	-1E+10	1	-1E+10	1	-1E+10	1
4902624	27	C	03/18/2025	21:35	-127.137	48.146	0	299.00	0	5.9480	0	33.9860	0	26.761	0	296.273	0	-1e10	1	-1e10	1	-1E+10	1	-1e10	1	-1e10	1	-1E+10	1	-1E+10	1	-1E+10	1
4902624	27	C	03/18/2025	21:35	-127.137	48.146	0	305.00	0	5.8710	0	33.9830	0	26.768	0	302.213	0	-1e10	1	-1e10	1	-1E+10	1	-1e10	1	-1e10	1	-1E+10	1	-1E+10	1	-1E+10	1
4902624	27	C	03/18/2025	21:35	-127.137	48.146	0	305.40	0	5.8698	0	33.9835	0	26.769	0	302.610	0	56.1	4	18.5	4	-1E+10	1	0.0581	4	0.000267	0	-1E+10	1	-1E+10	1	-1E+10	1
4902624	27	C	03/18/2025	21:35	-127.137	48.146	0	314.80	0	5.8420	0	33.9940	0	26.781	0	311.917	0	-1e10	1	-1e10	1	-1E+10	1	-1e10	1	-1e10	1	-1E+10	1	-1E+10	1	-1E+10	1
4902624	27	C	03/18/2025	21:35	-127.137	48.146	0	315.70	0	5.8359	0	33.9946	0	26.782	0	312.808	0	53.1	4	17.5	4	-1E+10	1	0.0508	4	0.000260	0	-1E+10	1	-1E+10	1	-1E+10	1
4902624	27	C	03/18/2025	21:35	-127.137	48.146	0	324.90	0	5.7740	0	34.0010	0	26.795	0	321.916	0	-1e10	1	-1e10	1	-1E+10	1	-1e10	1	-1e10	1	-1E+10	1	-1E+10	1	-1E+10	1
4902624	27	C	03/18/2025	21:35	-127.137	48.146	0	326.00	0	5.7644	0	34.0012	0	26.796	0	323.005	0	51.5	4	16.9	4	-1E+10	1	0.0438	4	0.000227	0	-1E+10	1	-1E+10	1	-1E+10	1
4902624	27	C	03/18/2025	21:35	-127.137	48.146	0	334.80	0	5.6880	0	34.0030	0	26.807	0	331.717	0	-1e10	1	-1e10	1	-1E+10	1	-1e10	1	-1e10	1	-1E+10	1	-1E+10	1	-1E+10	1
4902624	27	C	03/18/2025	21:35	-127.137	48.146	0	336.30	0	5.6883	0	34.0052	0	26.809	0	333.202	0	48.9	4	16.1	4	-1E+10	1	0.0447	4	0.000250	0	-1E+10	1	-1E+10	1	-1E+10	1
4902624	27	C	03/18/2025	21:35	-127.137	48.146	0	344.80	0	5.6900	0	34.0180	0	26.819	0	341.617	0	-1e10	1	-1e10	1	-1E+10	1	-1e10	1	-1e10	1	-1E+10	1	-1E+10	1	-1E+10	1
4902624	27	C	03/18/2025	21:35	-127.137	48.146	0	346.50	0	5.6814	0	34.0193	0	26.821	0	343.300	0	46.1	4	15.1	4	-1E+10	1	0.0651	4	0.000259	0	-1E+10	1	-1E+10	1	-1E+10	1
4902624	27	C	03/18/2025	21:35	-127.137	48.146	0	354.90	0	5.6390	0	34.0260	0	26.831	0	351.615	0	-1e10	1	-1e10	1	-1E+10	1	-1e10	1	-1e10	1	-1E+10	1	-1E+10	1	-1E+10	1
4902624	27	C	03/18/2025	21:35	-127.137	48.146	0	356.50	0	5.6310	0	34.0265	0	26.833	0	353.199	0	44.7	4	14.7	4	-1E+10	1	0.0515	4	0.000215	0	-1E+10	1	-1E+10	1	-1E+10	1
4902624	27	C	03/18/2025	21:35	-127.137	48.146	0	364.90	0	5.5890	0	34.0290	0	26.840	0	361.514	0	-1e10	1	-1e10	1	-1E+10	1	-1e10	1	-1e10	1	-1E+10	1	-1E+10	1	-1E+10	1
4902624	27	C	03/18/2025	21:35	-127.137	48.146	0	366.80	0	5.5777	0	34.0302	0	26.842	0	363.395	0	43.0	4	14.1	4	-1E+10	1	0.0651	4	0.000226	0	-1E+10	1	-1E+10	1	-1E+10	1
4902624	27	C	03/18/2025	21:35	-127.137	48.146	0	374.80	0	5.5300	0	34.0350	0	26.852	0	371.313	0	-1e10	1	-1e10	1	-1E+10	1	-1e10	1	-1e10	1	-1E+10	1	-1E+10	1	-1E+10	1
4902624	27	C	03/18/2025	21:35	-127.137	48.146	0	377.30	0	5.5164	0	34.0360	0	26.854	0	373.788	0	41.6	4	13.6	4	-1E+10	1	0.0511	4	0.000238	0	-1E+10	1	-1E+10	1	-1E+10	1
4902624	27	C	03/18/2025	21:35	-127.137	48.146	0	384.90	0	5.4750	0	34.0390	0	26.862	0	381.310	0	-1e10	1	-1e10	1	-1E+10	1	-1e10	1	-1e10	1	-1E+10	1	-1E+10	1	-1E+10	1
4902624	27	C	03/18/2025	21:35	-127.137	48.146	0	387.90	0	5.4500	0	34.0405	0	26.866	0	384.279	0	39.7	4	13.0	4	-1E+10	1	0.0504	4	0.000258	0	-1E+10	1	-1E+10	1	-1E+10	1
4902624	27	C	03/18/2025	21:35	-127.137	48.146	0	395.10	0	5.3900	0	34.0440	0	26.876	0	391.405	0	-1e10	1	-1e10	1	-1E+10	1	-1e10	1	-1e10	1	-1E+10	1	-1E+10	1	-1E+10	1
4902624	27	C	03/18/2025	21:35	-127.137	48.146	0	398.40	0	5.3664	0	34.0466	0	26.881	0	394.671	0	37.8	4	12.3	4	-1E+10	1	0.0370	4	0.000192	0	-1E+10	1	-1E+10	1	-1E+10	1
4902624	27	C	03/18/2025	21:35	-127.137	48.146	0	405.30	0	5.3170	0	34.0520	0	26.891	0	401.500	0	-1e10	1	-1e10	1	-1E+10	1	-1e10	1	-1e10	1	-1E+10	1	-1E+10	1	-1E+10	1
4902624	27	C	03/18/2025	21:35	-127.137	48.146	0	409.20	0	5.2991	0	34.0540	0	26.895	0	405.360	0	36.3	4	11.8	4	-1E+10	1	0.0511	4	0.000224	0	-1E+10	1	-1E+10	1	-1E+10	1
4902624	27	C	03/18/2025	21:35	-127.137	48.146	0	414.90	0	5.2730	0	34.0570	0	26.900	0	411.000	0	-1e10	1	-1e10	1	-1E+10	1	-1e10	1	-1e10	1	-1E+10	1	-1E+10	1	-1E+10	1
4902624	27	C	03/18/2025	21:35	-127.137	48.146	0	420.60	0	5.2517	0	34.0587	0	26.904	0	416.641	0	35.1	4	11.4	4	-1E+10	1	0.0511	4	0.000190	0	-1E+10	1	-1E+10	1	-1E+10	1
4902624	27	C	03/18/2025	21:35	-127.137	48.146	0	424.80	0	5.2360	0	34.0600	0	26.907	0	420.797	0	-1e10	1	-1e10	1	-1E+10	1	-1e10	1	-1e10	1	-1E+10	1	-1E+10	1	-1E+10	1
4902624	27	C	03/18/2025	21:35	-127.137	48.146	0	432.00	0	5.1929	0	34.0642	0	26.915	0	427.922	0	33.7	4	10.9	4	-1E+10	1	0.0514	4	0.000193	0	-1E+10	1	-1E+10	1	-1E+10	1
4902624	27	C	03/18/2025	21:35	-127.137	48.146	0	435.00	0	5.1750	0	34.0660	0	26.919	0	430.891	0	-1e10	1	-1e10	1	-1E+10	1	-1e10	1	-1e10	1	-1E+10	1	-1E+10	1	-1E+10	1
4902624	27	C	03/18/2025	21:35	-127.137	48.146	0	443.60	0	5.1355	0	34.0704	0	26.927	0	439.400	0	31.9	4	10.3	4	-1E+10	1	0.0578	4	0.000257	0	-1E+10	1	-1E+10	1	-1E+10	1
4902624	27	C	03/18/2025	21:35	-127.137	48.146	0	444.80	0	5.1300	0	34.0710	0	26.928	0	440.588	0	-1e10	1	-1e10	1	-1E+10	1	-1e10	1	-1e10	1	-1E+10	1	-1E+10	1	-1E+10	1
4902624	27	C	03/18/2025	21:35	-127.137	48.146	0	455.10	0	5.0670	0	34.0790	0	26.942	0	450.779	0	-1e10	1	-1e10	1	-1E+10	1	-1e10	1	-1e10	1	-1E+10	1	-1E+10	1	-1E+10	1
4902624	27	C	03/18/2025	21:35	-127.137	48.146	0	455.40	0	5.0655	0	34.0792	0	26.942	0	451.076	0	30.1	4	9.8	4	-1E+10	1	0.0444	4	0.000191	0	-1E+10	1	-1E+10	1	-1E+10	1
4902624	27	C	03/18/2025	21:35	-127.137	48.146	0	465.10	0	5.0160	0	34.0860	0	26.953	0	460.673	0	-1e10	1	-1e10	1	-1E+10	1	-1e10	1	-1e10	1	-1E+10	1	-1E+10	1	-1E+10	1
4902624	27	C	03/18/2025	21:35	-127.137	48.146	0	466.60	0	5.0094	0	34.0868	0	26.954	0	462.157	0	28.6	4	9.2	4	-1E+10	1	0.0580	4	0.000200	0	-1E+10	1	-1E+10	1	-1E+10	1
4902624	27	C	03/18/2025	21:35	-127.137	48.146	0	474.30	0	4.9755	0	34.0906	0	26.961	0	469.775	0	27.6	4	8.9	4	-1E+10	1	0.0507	4	0.000166	0	-1E+10	1	-1E+10	1	-1E+10	1
4902624	27	C	03/18/2025	21:35	-127.137	48.146	0	475.10	0	4.9720	0	34.0910	0	26.962	0	470.566	0	-1e10	1	-1e10	1	-1E+10	1	-1e10	1	-1e10	1	-1E+10	1	-1E+10	1	-1E+10	1
4902624	27	C	03/18/2025	21:35	-127.137	48.146	0	482.20	0	4.8967	0	34.0953	0	26.974	0	477.591	0	26.7	4	8.6	4	-1E+10	1	0.0438	4	0.000165	0	-1E+10	1	-1E+10	1	-1E+10	1
4902624	27	C	03/18/2025	21:35	-127.137	48.146	0	484.90	0	4.8680	0	34.0970	0	26.979	0	480.262	0	-1e10	1	-1e10	1	-1E+10	1	-1e10	1	-1e10	1	-1E+10	1	-1E+10	1	-1E+10	1
4902624	27	C	03/18/2025	21:35	-127.137	48.146	0	490.50	0	4.8294	0	34.0976	0	26.984	0	485.802	0	25.8	4	8.3	4	-1E+10	1	0.0440	4	0.000145	0	-1E+10	1	-1E+10	1	-1E+10	1
4902624	27	C	03/18/2025	21:35	-127.137	48.146	0	494.90	0	4.7990	0	34.0980	0	26.987	0	490.154	0	-1e10	1	-1e10	1	-1E+10	1	-1e10	1	-1e10	1	-1E+10	1	-1E+10	1	-1E+10	1
4902624	27	C	03/18/2025	21:35	-127.137	48.146	0	499.30	0	4.8003	0	34.1024	0	26.991	0	494.507	0	24.3	4	7.8	4	-1E+10	1	0.0516	4	0.000213	0	-1E+10	1	-1E+10	1	-1E+10	1
4902624	27	C	03/18/2025	21:35	-127.137	48.146	0	504.80	0	4.8020	0	34.1080	0	26.995	0	499.947	0	-1e10	1	-1e10	1	-1E+10	1	-1e10	1	-1e10	1	-1E+10	1	-1E+10	1	-1E+10	1
4902624	27	C	03/18/2025	21:35	-127.137	48.146	0	508.40	0	4.8088	0	34.1130	0	26.998	0	503.508	0	22.6	4	7.3	4	-1E+10	1	0.0651	4	0.000200	0	-1E+10	1	-1E+10	1	-1E+10	1
4902624	27	C	03/18/2025	21:35	-127.137	48.146	0	514.80	0	4.8210	0	34.1220	0	27.004	0	509.839	0	-1e10	1	-1e10	1	-1E+10	1	-1e10	1	-1e10	1	-1E+10	1	-1E+10	1	-1E+10	1
4902624	27	C	03/18/2025	21:35	-127.137	48.146	0	517.70	0	4.8332	0	34.1284	0	27.008	0	512.707	0	19.9	4	6.4	4	-1E+10	1	0.0516	4	0.000167	0	-1E+10	1	-1E+10	1	-1E+10	1
4902624	27	C	03/18/2025	21:35	-127.137	48.146	0	524.80	0	4.8630	0	34.1440	0	27.017	0	519.730	0	-1e10	1	-1e10	1	-1E+10	1	-1e10	1	-1e10	1	-1E+10	1	-1E+10	1	-1E+10	1
4902624	27	C	03/18/2025	21:35	-127.137	48.146	0	527.40	0	4.8483	0	34.1451	0	27.019	0	522.302	0	19.1	4	6.1	4	-1E+10	1	0.0654	4	0.000188	0	-1E+10	1	-1E+10	1	-1E+10	1
4902624	27	C	03/18/2025	21:35	-127.137	48.146	0	534.70	0	4.8070	0	34.1480	0	27.026	0	529.522	0	-1e10	1	-1e10	1	-1E+10	1	-1e10	1	-1e10	1	-1E+10	1	-1E+10	1	-1E+10	1
4902624	27	C	03/18/2025	21:35	-127.137	48.146	0	537.20	0	4.7990	0	34.1502	0	27.029	0	531.994	0	18.0	4	5.8	4	-1E+10	1	0.0581	4	0.000167	0	-1E+10	1	-1E+10	1	-1E+10	1
4902624	27	C	03/18/2025	21:35	-127.137	48.146	0	544.70	0	4.7750	0	34.1570	0	27.037	0	539.412	0	-1e10	1	-1e10	1	-1E+10	1	-1e10	1	-1e10	1	-1E+10	1	-1E+10	1	-1E+10	1
4902624	27	C	03/18/2025	21:35	-127.137	48.146	0	547.20	0	4.7642	0	34.1595	0	27.040	0	541.885	0	16.8	4	5.4	4	-1E+10	1	0.0514	4	0.000188	0	-1E+10	1	-1E+10	1	-1E+10	1
4902624	27	C	03/18/2025	21:35	-127.137	48.146	0	554.90	0	4.7310	0	34.1670	0	27.050	0	549.500	0	-1e10	1	-1e10	1	-1E+10	1	-1e10	1	-1e10	1	-1E+10	1	-1E+10	1	-1E+10	1
4902624	27	C	03/18/2025	21:35	-127.137	48.146	0	557.50	0	4.7262	0	34.1688	0	27.052	0	552.071	0	15.9	4	5.1	4	-1E+10	1	0.0584	4	0.000166	0	-1E+10	1	-1E+10	1	-1E+10	1
4902624	27	C	03/18/2025	21:35	-127.137	48.146	0	565.10	0	4.7120	0	34.1740	0	27.058	0	559.587	0	-1e10	1	-1e10	1	-1E+10	1	-1e10	1	-1e10	1	-1E+10	1	-1E+10	1	-1E+10	1
4902624	27	C	03/18/2025	21:35	-127.137	48.146	0	568.00	0	4.7051	0	34.1754	0	27.060	0	562.454	0	15.2	4	4.9	4	-1E+10	1	0.0587	4	0.000167	0	-1E+10	1	-1E+10	1	-1E+10	1
4902624	27	C	03/18/2025	21:35	-127.137	48.146	0	575.20	0	4.6880	0	34.1790	0	27.065	0	569.574	0	-1e10	1	-1e10	1	-1E+10	1	-1e10	1	-1e10	1	-1E+10	1	-1E+10	1	-1E+10	1
4902624	27	C	03/18/2025	21:35	-127.137	48.146	0	578.40	0	4.6755	0	34.1819	0	27.068	0	572.739	0	14.4	4	4.6	4	-1E+10	1	0.0651	4	0.000211	0	-1E+10	1	-1E+10	1	-1E+10	1
4902624	27	C	03/18/2025	21:35	-127.137	48.146	0	585.20	0	4.6490	0	34.1880	0	27.076	0	579.463	0	-1e10	1	-1e10	1	-1E+10	1	-1e10	1	-1e10	1	-1E+10	1	-1E+10	1	-1E+10	1
4902624	27	C	03/18/2025	21:35	-127.137	48.146	0	588.60	0	4.6365	0	34.1915	0	27.080	0	582.824	0	13.5	4	4.3	4	-1E+10	1	0.0517	4	0.000166	0	-1E+10	1	-1E+10	1	-1E+10	1
4902624	27	C	03/18/2025	21:35	-127.137	48.146	0	595.00	0	4.6130	0	34.1980	0	27.088	0	589.153	0	-1e10	1	-1e10	1	-1E+10	1	-1e10	1	-1e10	1	-1E+10	1	-1E+10	1	-1E+10	1
4902624	27	C	03/18/2025	21:35	-127.137	48.146	0	598.80	0	4.5982	0	34.2010	0	27.092	0	592.910	0	12.8	4	4.1	4	-1E+10	1	0.0654	4	0.000177	0	-1E+10	1	-1E+10	1	-1E+10	1
4902624	27	C	03/18/2025	21:35	-127.137	48.146	0	605.00	0	4.5740	0	34.2060	0	27.099	0	599.040	0	-1e10	1	-1e10	1	-1E+10	1	-1e10	1	-1e10	1	-1E+10	1	-1E+10	1	-1E+10	1
4902624	27	C	03/18/2025	21:35	-127.137	48.146	0	609.10	0	4.5605	0	34.2093	0	27.103	0	603.094	0	12.1	4	3.9	4	-1E+10	1	0.0581	4	0.000165	0	-1E+10	1	-1E+10	1	-1E+10	1
4902624	27	C	03/18/2025	21:35	-127.137	48.146	0	615.00	0	4.5410	0	34.2140	0	27.109	0	608.927	0	-1e10	1	-1e10	1	-1E+10	1	-1e10	1	-1e10	1	-1E+10	1	-1E+10	1	-1E+10	1
4902624	27	C	03/18/2025	21:35	-127.137	48.146	0	619.40	0	4.5307	0	34.2158	0	27.111	0	613.277	0	11.7	4	3.7	4	-1E+10	1	0.0514	4	0.000165	0	-1E+10	1	-1E+10	1	-1E+10	1
4902624	27	C	03/18/2025	21:35	-127.137	48.146	0	624.80	0	4.5180	0	34.2180	0	27.115	0	618.615	0	-1e10	1	-1e10	1	-1E+10	1	-1e10	1	-1e10	1	-1E+10	1	-1E+10	1	-1E+10	1
4902624	27	C	03/18/2025	21:35	-127.137	48.146	0	630.00	0	4.4986	0	34.2211	0	27.119	0	623.756	0	11.2	4	3.6	4	-1E+10	1	0.0584	4	0.000165	0	-1E+10	1	-1E+10	1	-1E+10	1
4902624	27	C	03/18/2025	21:35	-127.137	48.146	0	635.00	0	4.4800	0	34.2240	0	27.123	0	628.699	0	-1e10	1	-1e10	1	-1E+10	1	-1e10	1	-1e10	1	-1E+10	1	-1E+10	1	-1E+10	1
4902624	27	C	03/18/2025	21:35	-127.137	48.146	0	640.50	0	4.4685	0	34.2278	0	27.128	0	634.136	0	10.7	4	3.4	4	-1E+10	1	0.0584	4	0.000165	0	-1E+10	1	-1E+10	1	-1E+10	1
4902624	27	C	03/18/2025	21:35	-127.137	48.146	0	645.00	0	4.4590	0	34.2310	0	27.131	0	638.585	0	-1e10	1	-1e10	1	-1E+10	1	-1e10	1	-1e10	1	-1E+10	1	-1E+10	1	-1E+10	1
4902624	27	C	03/18/2025	21:35	-127.137	48.146	0	651.00	0	4.4380	0	34.2376	0	27.139	0	644.516	0	10.1	4	3.2	4	-1E+10	1	0.0581	4	0.000165	0	-1E+10	1	-1E+10	1	-1E+10	1
4902624	27	C	03/18/2025	21:35	-127.137	48.146	0	655.00	0	4.4240	0	34.2420	0	27.144	0	648.470	0	-1e10	1	-1e10	1	-1E+10	1	-1e10	1	-1e10	1	-1E+10	1	-1E+10	1	-1E+10	1
4902624	27	C	03/18/2025	21:35	-127.137	48.146	0	661.80	0	4.3953	0	34.2480	0	27.152	0	655.191	0	9.5	4	3.0	4	-1E+10	1	0.0511	4	0.000176	0	-1E+10	1	-1E+10	1	-1E+10	1
4902624	27	C	03/18/2025	21:35	-127.137	48.146	0	665.20	0	4.3810	0	34.2510	0	27.156	0	658.552	0	-1e10	1	-1e10	1	-1E+10	1	-1e10	1	-1e10	1	-1E+10	1	-1E+10	1	-1E+10	1
4902624	27	C	03/18/2025	21:35	-127.137	48.146	0	672.90	0	4.3488	0	34.2565	0	27.164	0	666.162	0	9.2	4	2.9	4	-1E+10	1	0.0514	4	0.000166	0	-1E+10	1	-1E+10	1	-1E+10	1
4902624	27	C	03/18/2025	21:35	-127.137	48.146	0	675.00	0	4.3400	0	34.2580	0	27.166	0	668.238	0	-1e10	1	-1e10	1	-1E+10	1	-1e10	1	-1e10	1	-1E+10	1	-1E+10	1	-1E+10	1
4902624	27	C	03/18/2025	21:35	-127.137	48.146	0	684.50	0	4.3165	0	34.2619	0	27.171	0	677.627	0	9.0	4	2.9	4	-1E+10	1	0.0584	4	0.000188	0	-1E+10	1	-1E+10	1	-1E+10	1
4902624	27	C	03/18/2025	21:35	-127.137	48.146	0	684.70	0	4.3160	0	34.2620	0	27.172	0	677.825	0	-1e10	1	-1e10	1	-1E+10	1	-1e10	1	-1e10	1	-1E+10	1	-1E+10	1	-1E+10	1
4902624	27	C	03/18/2025	21:35	-127.137	48.146	0	695.00	0	4.2920	0	34.2680	0	27.179	0	688.005	0	-1e10	1	-1e10	1	-1E+10	1	-1e10	1	-1e10	1	-1E+10	1	-1E+10	1	-1E+10	1
4902624	27	C	03/18/2025	21:35	-127.137	48.146	0	696.10	0	4.2895	0	34.2683	0	27.179	0	689.092	0	8.8	4	2.8	4	-1E+10	1	0.0581	4	0.000187	0	-1E+10	1	-1E+10	1	-1E+10	1
4902624	27	C	03/18/2025	21:35	-127.137	48.146	0	704.80	0	4.2700	0	34.2710	0	27.184	0	697.690	0	-1e10	1	-1e10	1	-1E+10	1	-1e10	1	-1e10	1	-1E+10	1	-1E+10	1	-1E+10	1
4902624	27	C	03/18/2025	21:35	-127.137	48.146	0	707.20	0	4.2607	0	34.2729	0	27.186	0	700.061	0	8.5	4	2.7	4	-1E+10	1	0.0508	4	0.000176	0	-1E+10	1	-1E+10	1	-1E+10	1
4902624	27	C	03/18/2025	21:35	-127.137	48.146	0	714.90	0	4.2310	0	34.2790	0	27.194	0	707.671	0	-1e10	1	-1e10	1	-1E+10	1	-1e10	1	-1e10	1	-1E+10	1	-1E+10	1	-1E+10	1
4902624	27	C	03/18/2025	21:35	-127.137	48.146	0	715.20	0	4.2298	0	34.2793	0	27.195	0	707.967	0	8.2	4	2.6	4	-1E+10	1	0.0445	4	0.000164	0	-1E+10	1	-1E+10	1	-1E+10	1
4902624	27	C	03/18/2025	21:35	-127.137	48.146	0	723.20	0	4.1968	0	34.2871	0	27.204	0	715.872	0	8.1	4	2.6	4	-1E+10	1	0.0584	4	0.000164	0	-1E+10	1	-1E+10	1	-1E+10	1
4902624	27	C	03/18/2025	21:35	-127.137	48.146	0	725.10	0	4.1890	0	34.2890	0	27.207	0	717.750	0	-1e10	1	-1e10	1	-1E+10	1	-1e10	1	-1e10	1	-1E+10	1	-1E+10	1	-1E+10	1
4902624	27	C	03/18/2025	21:35	-127.137	48.146	0	731.50	0	4.1683	0	34.2929	0	27.212	0	724.074	0	7.9	4	2.5	4	-1E+10	1	0.0584	4	0.000153	0	-1E+10	1	-1E+10	1	-1E+10	1
4902624	27	C	03/18/2025	21:35	-127.137	48.146	0	735.00	0	4.1570	0	34.2950	0	27.215	0	727.532	0	-1e10	1	-1e10	1	-1E+10	1	-1e10	1	-1e10	1	-1E+10	1	-1E+10	1	-1E+10	1
4902624	27	C	03/18/2025	21:35	-127.137	48.146	0	739.90	0	4.1366	0	34.2969	0	27.219	0	732.374	0	7.8	4	2.5	4	-1E+10	1	0.0584	4	0.000176	0	-1E+10	1	-1E+10	1	-1E+10	1
4902624	27	C	03/18/2025	21:35	-127.137	48.146	0	745.10	0	4.1150	0	34.2990	0	27.222	0	737.512	0	-1e10	1	-1e10	1	-1E+10	1	-1e10	1	-1e10	1	-1E+10	1	-1E+10	1	-1E+10	1
4902624	27	C	03/18/2025	21:35	-127.137	48.146	0	748.50	0	4.1037	0	34.3017	0	27.226	0	740.871	0	7.7	4	2.5	4	-1E+10	1	0.0587	4	0.000175	0	-1E+10	1	-1E+10	1	-1E+10	1
4902624	27	C	03/18/2025	21:35	-127.137	48.146	0	755.00	0	4.0820	0	34.3070	0	27.232	0	747.293	0	-1e10	1	-1e10	1	-1E+10	1	-1e10	1	-1e10	1	-1E+10	1	-1E+10	1	-1E+10	1
4902624	27	C	03/18/2025	21:35	-127.137	48.146	0	757.10	0	4.0746	0	34.3083	0	27.234	0	749.368	0	7.7	4	2.4	4	-1E+10	1	0.0652	4	0.000165	0	-1E+10	1	-1E+10	1	-1E+10	1
4902624	27	C	03/18/2025	21:35	-127.137	48.146	0	764.90	0	4.0470	0	34.3130	0	27.241	0	757.074	0	-1e10	1	-1e10	1	-1E+10	1	-1e10	1	-1e10	1	-1E+10	1	-1E+10	1	-1E+10	1
4902624	27	C	03/18/2025	21:35	-127.137	48.146	0	766.10	0	4.0420	0	34.3134	0	27.242	0	758.260	0	7.6	4	2.4	4	-1E+10	1	0.0514	4	0.000187	0	-1E+10	1	-1E+10	1	-1E+10	1
4902624	27	C	03/18/2025	21:35	-127.137	48.146	0	774.90	0	4.0050	0	34.3160	0	27.247	0	766.954	0	-1e10	1	-1e10	1	-1E+10	1	-1e10	1	-1e10	1	-1E+10	1	-1E+10	1	-1E+10	1
4902624	27	C	03/18/2025	21:35	-127.137	48.146	0	775.30	0	4.0040	0	34.3162	0	27.248	0	767.349	0	7.6	4	2.4	4	-1E+10	1	0.0581	4	0.000179	0	-1E+10	1	-1E+10	1	-1E+10	1
4902624	27	C	03/18/2025	21:35	-127.137	48.146	0	784.60	0	3.9817	0	34.3199	0	27.253	0	776.536	0	7.5	4	2.4	4	-1E+10	1	0.0513	4	0.000152	0	-1E+10	1	-1E+10	1	-1E+10	1
4902624	27	C	03/18/2025	21:35	-127.137	48.146	0	784.90	0	3.9810	0	34.3200	0	27.253	0	776.833	0	-1e10	1	-1e10	1	-1E+10	1	-1e10	1	-1e10	1	-1E+10	1	-1E+10	1	-1E+10	1
4902624	27	C	03/18/2025	21:35	-127.137	48.146	0	794.10	0	3.9566	0	34.3236	0	27.259	0	785.921	0	7.6	4	2.4	4	-1E+10	1	0.0581	4	0.000164	0	-1E+10	1	-1E+10	1	-1E+10	1
4902624	27	C	03/18/2025	21:35	-127.137	48.146	0	795.10	0	3.9540	0	34.3240	0	27.259	0	786.908	0	-1e10	1	-1e10	1	-1E+10	1	-1e10	1	-1e10	1	-1E+10	1	-1E+10	1	-1E+10	1
4902624	27	C	03/18/2025	21:35	-127.137	48.146	0	803.50	0	3.9311	0	34.3299	0	27.266	0	795.206	0	7.6	4	2.4	4	-1E+10	1	0.0511	4	0.000163	0	-1E+10	1	-1E+10	1	-1E+10	1
4902624	27	C	03/18/2025	21:35	-127.137	48.146	0	805.00	0	3.9270	0	34.3310	0	27.268	0	796.688	0	-1e10	1	-1e10	1	-1E+10	1	-1e10	1	-1e10	1	-1E+10	1	-1E+10	1	-1E+10	1
4902624	27	C	03/18/2025	21:35	-127.137	48.146	0	813.00	0	3.9174	0	34.3342	0	27.271	0	804.590	0	7.6	4	2.4	4	-1E+10	1	0.0517	4	0.000140	0	-1E+10	1	-1E+10	1	-1E+10	1
4902624	27	C	03/18/2025	21:35	-127.137	48.146	0	815.00	0	3.9150	0	34.3350	0	27.272	0	806.565	0	-1e10	1	-1e10	1	-1E+10	1	-1e10	1	-1e10	1	-1E+10	1	-1E+10	1	-1E+10	1
4902624	27	C	03/18/2025	21:35	-127.137	48.146	0	822.60	0	3.8995	0	34.3404	0	27.278	0	814.072	0	7.6	4	2.4	4	-1E+10	1	0.0651	4	0.000145	0	-1E+10	1	-1E+10	1	-1E+10	1
4902624	27	C	03/18/2025	21:35	-127.137	48.146	0	824.80	0	3.8950	0	34.3420	0	27.280	0	816.245	0	-1e10	1	-1e10	1	-1E+10	1	-1e10	1	-1e10	1	-1E+10	1	-1E+10	1	-1E+10	1
4902624	27	C	03/18/2025	21:35	-127.137	48.146	0	832.60	0	3.8755	0	34.3467	0	27.285	0	823.948	0	7.5	4	2.4	4	-1E+10	1	0.0511	4	0.000264	0	-1E+10	1	-1E+10	1	-1E+10	1
4902624	27	C	03/18/2025	21:35	-127.137	48.146	0	834.80	0	3.8700	0	34.3480	0	27.287	0	826.121	0	-1e10	1	-1e10	1	-1E+10	1	-1e10	1	-1e10	1	-1E+10	1	-1E+10	1	-1E+10	1
4902624	27	C	03/18/2025	21:35	-127.137	48.146	0	842.70	0	3.8530	0	34.3526	0	27.293	0	833.923	0	7.6	4	2.4	4	-1E+10	1	0.0514	4	0.000151	0	-1E+10	1	-1E+10	1	-1E+10	1
4902624	27	C	03/18/2025	21:35	-127.137	48.146	0	845.00	0	3.8480	0	34.3540	0	27.294	0	836.195	0	-1e10	1	-1e10	1	-1E+10	1	-1e10	1	-1e10	1	-1E+10	1	-1E+10	1	-1E+10	1
4902624	27	C	03/18/2025	21:35	-127.137	48.146	0	853.10	0	3.8340	0	34.3602	0	27.301	0	844.194	0	7.8	4	2.5	4	-1E+10	1	0.0584	4	0.000141	0	-1E+10	1	-1E+10	1	-1E+10	1
4902624	27	C	03/18/2025	21:35	-127.137	48.146	0	855.40	0	3.8300	0	34.3620	0	27.302	0	846.465	0	-1e10	1	-1e10	1	-1E+10	1	-1e10	1	-1e10	1	-1E+10	1	-1E+10	1	-1E+10	1
4902624	27	C	03/18/2025	21:35	-127.137	48.146	0	863.70	0	3.8084	0	34.3681	0	27.309	0	854.662	0	8.0	4	2.5	4	-1E+10	1	0.0589	4	0.000174	0	-1E+10	1	-1E+10	1	-1E+10	1
4902624	27	C	03/18/2025	21:35	-127.137	48.146	0	865.00	0	3.8050	0	34.3690	0	27.311	0	855.945	0	-1e10	1	-1e10	1	-1E+10	1	-1e10	1	-1e10	1	-1E+10	1	-1E+10	1	-1E+10	1
4902624	27	C	03/18/2025	21:35	-127.137	48.146	0	874.50	0	3.7850	0	34.3737	0	27.316	0	865.326	0	8.3	4	2.6	4	-1E+10	1	0.0722	4	0.000154	0	-1E+10	1	-1E+10	1	-1E+10	1
4902624	27	C	03/18/2025	21:35	-127.137	48.146	0	875.00	0	3.7840	0	34.3740	0	27.317	0	865.820	0	-1e10	1	-1e10	1	-1E+10	1	-1e10	1	-1e10	1	-1E+10	1	-1E+10	1	-1E+10	1
4902624	27	C	03/18/2025	21:35	-127.137	48.146	0	885.30	0	3.7540	0	34.3790	0	27.324	0	875.990	0	-1e10	1	-1e10	1	-1E+10	1	-1e10	1	-1e10	1	-1E+10	1	-1E+10	1	-1E+10	1
4902624	27	C	03/18/2025	21:35	-127.137	48.146	0	885.50	0	3.7533	0	34.3791	0	27.324	0	876.188	0	8.6	4	2.7	4	-1E+10	1	0.0511	4	0.000220	0	-1E+10	1	-1E+10	1	-1E+10	1
4902624	27	C	03/18/2025	21:35	-127.137	48.146	0	895.00	0	3.7190	0	34.3850	0	27.332	0	885.568	0	-1e10	1	-1e10	1	-1E+10	1	-1e10	1	-1e10	1	-1E+10	1	-1E+10	1	-1E+10	1
4902624	27	C	03/18/2025	21:35	-127.137	48.146	0	896.30	0	3.7162	0	34.3854	0	27.333	0	886.851	0	8.7	4	2.7	4	-1E+10	1	0.0511	4	0.000186	0	-1E+10	1	-1E+10	1	-1E+10	1
4902624	27	C	03/18/2025	21:35	-127.137	48.146	0	905.20	0	3.6970	0	34.3880	0	27.337	0	895.638	0	-1e10	1	-1e10	1	-1E+10	1	-1e10	1	-1e10	1	-1E+10	1	-1E+10	1	-1E+10	1
4902624	27	C	03/18/2025	21:35	-127.137	48.146	0	907.50	0	3.6925	0	34.3887	0	27.338	0	897.909	0	9.0	4	2.8	4	-1E+10	1	0.0514	4	0.000186	0	-1E+10	1	-1E+10	1	-1E+10	1
4902624	27	C	03/18/2025	21:35	-127.137	48.146	0	914.90	0	3.6780	0	34.3910	0	27.341	0	905.215	0	-1e10	1	-1e10	1	-1E+10	1	-1e10	1	-1e10	1	-1E+10	1	-1E+10	1	-1E+10	1
4902624	27	C	03/18/2025	21:35	-127.137	48.146	0	918.90	0	3.6666	0	34.3926	0	27.343	0	909.164	0	11.7	4	3.7	4	-1E+10	1	0.0588	4	0.000187	0	-1E+10	1	-1E+10	1	-1E+10	1
4902624	27	C	03/18/2025	21:35	-127.137	48.146	0	924.70	0	3.6500	0	34.3950	0	27.347	0	914.890	0	-1e10	1	-1e10	1	-1E+10	1	-1e10	1	-1e10	1	-1E+10	1	-1E+10	1	-1E+10	1
4902624	27	C	03/18/2025	21:35	-127.137	48.146	0	929.10	0	3.6310	0	34.3975	0	27.351	0	919.233	0	11.3	4	3.5	4	-1E+10	1	0.0651	4	0.000197	0	-1E+10	1	-1E+10	1	-1E+10	1
4902624	27	C	03/18/2025	21:35	-127.137	48.146	0	935.10	0	3.6050	0	34.4010	0	27.356	0	925.156	0	-1e10	1	-1e10	1	-1E+10	1	-1e10	1	-1e10	1	-1E+10	1	-1E+10	1	-1E+10	1
4902624	27	C	03/18/2025	21:35	-127.137	48.146	0	936.90	0	3.6000	0	34.4017	0	27.357	0	926.933	0	9.2	4	2.9	4	-1E+10	1	0.0511	4	0.000175	0	-1E+10	1	-1E+10	1	-1E+10	1
4902624	27	C	03/18/2025	21:35	-127.137	48.146	0	944.90	0	3.5780	0	34.4050	0	27.362	0	934.830	0	-1e10	1	-1e10	1	-1E+10	1	-1e10	1	-1e10	1	-1E+10	1	-1E+10	1	-1E+10	1
4902624	27	C	03/18/2025	21:35	-127.137	48.146	0	945.10	0	3.5777	0	34.4051	0	27.362	0	935.028	0	62.1	4	19.4	4	-1E+10	1	0.0508	4	0.000199	0	-1E+10	1	-1E+10	1	-1E+10	1
4902624	27	C	03/18/2025	21:35	-127.137	48.146	0	953.50	0	3.5634	0	34.4076	0	27.366	0	943.319	0	76.7	4	24.0	4	-1E+10	1	0.0438	4	0.000230	0	-1E+10	1	-1E+10	1	-1E+10	1
4902624	27	C	03/18/2025	21:35	-127.137	48.146	0	954.90	0	3.5610	0	34.4080	0	27.366	0	944.701	0	-1e10	1	-1e10	1	-1E+10	1	-1e10	1	-1e10	1	-1E+10	1	-1E+10	1	-1E+10	1
4902624	27	C	03/18/2025	21:35	-127.137	48.146	0	962.10	0	3.5372	0	34.4116	0	27.371	0	951.808	0	71.0	4	22.2	4	-1E+10	1	0.0448	4	0.000175	0	-1E+10	1	-1E+10	1	-1E+10	1
4902624	27	C	03/18/2025	21:35	-127.137	48.146	0	964.90	0	3.5280	0	34.4130	0	27.373	0	954.572	0	-1e10	1	-1e10	1	-1E+10	1	-1e10	1	-1e10	1	-1E+10	1	-1E+10	1	-1E+10	1
4902624	27	C	03/18/2025	21:35	-127.137	48.146	0	971.10	0	3.5192	0	34.4161	0	27.377	0	960.691	0	76.1	4	23.8	4	-1E+10	1	0.0652	4	0.000208	0	-1E+10	1	-1E+10	1	-1E+10	1
4902624	27	C	03/18/2025	21:35	-127.137	48.146	0	974.80	0	3.5140	0	34.4180	0	27.379	0	964.343	0	-1e10	1	-1e10	1	-1E+10	1	-1e10	1	-1e10	1	-1E+10	1	-1E+10	1	-1E+10	1
4902624	27	C	03/18/2025	21:35	-127.137	48.146	0	980.60	0	3.5065	0	34.4192	0	27.381	0	970.067	0	79.0	4	24.7	4	-1E+10	1	0.0520	4	0.000185	0	-1E+10	1	-1E+10	1	-1E+10	1
4902624	27	C	03/18/2025	21:35	-127.137	48.146	0	984.80	0	3.5010	0	34.4200	0	27.382	0	974.212	0	-1e10	1	-1e10	1	-1E+10	1	-1e10	1	-1e10	1	-1E+10	1	-1E+10	1	-1E+10	1
4902624	27	C	03/18/2025	21:35	-127.137	48.146	0	990.30	0	3.4850	0	34.4222	0	27.385	0	979.640	0	80.5	4	25.1	4	-1E+10	1	0.0727	4	0.000174	0	-1E+10	1	-1E+10	1	-1E+10	1
4902624	27	C	03/18/2025	21:35	-127.137	48.146	0	994.80	0	3.4720	0	34.4240	0	27.388	0	984.081	0	-1e10	1	-1e10	1	-1E+10	1	-1e10	1	-1e10	1	-1E+10	1	-1E+10	1	-1E+10	1
4902624	27	C	03/18/2025	21:35	-127.137	48.146	0	1010.50	0	3.4387	0	34.4276	0	27.394	0	999.575	0	84.7	4	26.4	4	-1E+10	1	0.0585	4	0.000248	0	-1E+10	1	-1E+10	1	-1E+10	1
4902624	27	C	03/18/2025	21:35	-127.137	48.146	0	1025.00	0	3.4080	0	34.4310	0	27.400	0	1013.883	0	-1e10	1	-1e10	1	-1E+10	1	-1e10	1	-1e10	1	-1E+10	1	-1E+10	1	-1E+10	1
4902624	27	C	03/18/2025	21:35	-127.137	48.146	0	1031.80	0	3.3907	0	34.4322	0	27.402	0	1020.593	0	85.5	4	26.6	4	-1E+10	1	0.0657	4	0.002858	0	-1E+10	1	-1E+10	1	-1E+10	1
4902624	27	C	03/18/2025	21:35	-127.137	48.146	0	1054.20	0	3.3335	0	34.4363	0	27.411	0	1042.694	0	85.2	4	26.5	4	-1E+10	1	0.0654	4	0.000174	0	-1E+10	1	-1E+10	1	-1E+10	1
4902624	27	C	03/18/2025	21:35	-127.137	48.146	0	1074.80	0	3.2810	0	34.4400	0	27.419	0	1063.017	0	-1e10	1	-1e10	1	-1E+10	1	-1e10	1	-1e10	1	-1E+10	1	-1E+10	1	-1E+10	1
4902624	27	C	03/18/2025	21:35	-127.137	48.146	0	1077.30	0	3.2763	0	34.4406	0	27.420	0	1065.483	0	72.8	4	22.6	4	-1E+10	1	0.0516	4	0.000196	0	-1E+10	1	-1E+10	1	-1E+10	1
4902624	27	C	03/18/2025	21:35	-127.137	48.146	0	1100.90	0	3.2315	0	34.4463	0	27.429	0	1088.763	0	77.0	4	23.9	4	-1E+10	1	0.0725	4	0.000161	0	-1E+10	1	-1E+10	1	-1E+10	1
4902624	27	C	03/18/2025	21:35	-127.137	48.146	0	1124.60	0	3.1866	0	34.4519	0	27.438	0	1112.139	0	82.5	4	25.6	4	-1E+10	1	0.0513	4	0.000150	0	-1E+10	1	-1E+10	1	-1E+10	1
4902624	27	C	03/18/2025	21:35	-127.137	48.146	0	1124.90	0	3.1860	0	34.4520	0	27.438	0	1112.435	0	-1e10	1	-1e10	1	-1E+10	1	-1e10	1	-1e10	1	-1E+10	1	-1E+10	1	-1E+10	1
4902624	27	C	03/18/2025	21:35	-127.137	48.146	0	1148.10	0	3.1452	0	34.4576	0	27.446	0	1135.315	0	69.4	4	21.5	4	-1E+10	1	0.0584	4	0.000218	0	-1E+10	1	-1E+10	1	-1E+10	1
4902624	27	C	03/18/2025	21:35	-127.137	48.146	0	1172.00	0	3.1031	0	34.4633	0	27.455	0	1158.883	0	88.6	4	27.4	4	-1E+10	1	0.0584	4	0.000150	0	-1E+10	1	-1E+10	1	-1E+10	1
4902624	27	C	03/18/2025	21:35	-127.137	48.146	0	1174.90	0	3.0980	0	34.4640	0	27.456	0	1161.743	0	-1e10	1	-1e10	1	-1E+10	1	-1e10	1	-1e10	1	-1E+10	1	-1E+10	1	-1E+10	1
4902624	27	C	03/18/2025	21:35	-127.137	48.146	0	1195.40	0	3.0537	0	34.4689	0	27.464	0	1181.956	0	79.8	4	24.7	4	-1E+10	1	0.0585	4	0.000206	0	-1E+10	1	-1E+10	1	-1E+10	1
4902624	27	C	03/18/2025	21:35	-127.137	48.146	0	1215.50	0	3.0103	0	34.4737	0	27.472	0	1201.772	0	51.3	4	15.8	4	-1E+10	1	0.0654	4	0.000171	0	-1E+10	1	-1E+10	1	-1E+10	1
4902624	27	C	03/18/2025	21:35	-127.137	48.146	0	1224.90	0	2.9900	0	34.4760	0	27.475	0	1211.039	0	-1e10	1	-1e10	1	-1E+10	1	-1e10	1	-1e10	1	-1E+10	1	-1E+10	1	-1E+10	1
4902624	27	C	03/18/2025	21:35	-127.137	48.146	0	1232.20	0	2.9739	0	34.4779	0	27.478	0	1218.235	0	53.3	4	16.5	4	-1E+10	1	0.0510	4	0.000161	0	-1E+10	1	-1E+10	1	-1E+10	1
4902624	27	C	03/18/2025	21:35	-127.137	48.146	0	1249.70	0	2.9354	0	34.4824	0	27.486	0	1235.485	0	62.5	4	19.3	4	-1E+10	1	0.0441	4	0.000206	0	-1E+10	1	-1E+10	1	-1E+10	1
4902624	27	C	03/18/2025	21:35	-127.137	48.146	0	1268.70	0	2.8936	0	34.4874	0	27.493	0	1254.213	0	64.8	4	20.0	4	-1E+10	1	0.0584	4	0.000206	0	-1E+10	1	-1E+10	1	-1E+10	1
4902624	27	C	03/18/2025	21:35	-127.137	48.146	0	1274.90	0	2.8800	0	34.4890	0	27.496	0	1260.323	0	-1e10	1	-1e10	1	-1E+10	1	-1e10	1	-1e10	1	-1E+10	1	-1E+10	1	-1E+10	1
4902624	27	C	03/18/2025	21:35	-127.137	48.146	0	1289.00	0	2.8601	0	34.4918	0	27.500	0	1274.220	0	66.3	4	20.4	4	-1E+10	1	0.0583	4	0.000202	0	-1E+10	1	-1E+10	1	-1E+10	1
4902624	27	C	03/18/2025	21:35	-127.137	48.146	0	1310.70	0	2.8295	0	34.4961	0	27.506	0	1295.604	0	69.3	4	21.3	4	-1E+10	1	0.0512	4	0.000579	0	-1E+10	1	-1E+10	1	-1E+10	1
4902624	27	C	03/18/2025	21:35	-127.137	48.146	0	1325.20	0	2.8090	0	34.4990	0	27.511	0	1309.892	0	-1e10	1	-1e10	1	-1E+10	1	-1e10	1	-1e10	1	-1E+10	1	-1E+10	1	-1E+10	1
4902624	27	C	03/18/2025	21:35	-127.137	48.146	0	1333.70	0	2.7954	0	34.5004	0	27.513	0	1318.267	0	65.8	4	20.2	4	-1E+10	1	0.0584	4	0.000449	0	-1E+10	1	-1E+10	1	-1E+10	1
4902624	27	C	03/18/2025	21:35	-127.137	48.146	0	1349.80	0	2.7697	0	34.5030	0	27.517	0	1334.130	0	70.2	4	21.6	4	-1E+10	1	0.0585	4	0.000346	0	-1E+10	1	-1E+10	1	-1E+10	1
4902624	27	C	03/18/2025	21:35	-127.137	48.146	0	1366.30	0	2.7433	0	34.5057	0	27.522	0	1350.386	0	79.2	4	24.3	4	-1E+10	1	0.0655	4	0.000310	0	-1E+10	1	-1E+10	1	-1E+10	1
4902624	27	C	03/18/2025	21:35	-127.137	48.146	0	1374.60	0	2.7300	0	34.5070	0	27.524	0	1358.562	0	-1e10	1	-1e10	1	-1E+10	1	-1e10	1	-1e10	1	-1E+10	1	-1E+10	1	-1E+10	1
4902624	27	C	03/18/2025	21:35	-127.137	48.146	0	1383.60	0	2.7146	0	34.5088	0	27.527	0	1367.428	0	83.5	4	25.6	4	-1E+10	1	0.0584	4	0.000263	0	-1E+10	1	-1E+10	1	-1E+10	1
4902624	27	C	03/18/2025	21:35	-127.137	48.146	0	1401.40	0	2.6840	0	34.5123	0	27.532	0	1384.962	0	87.9	4	26.9	4	-1E+10	1	0.0583	4	0.000194	0	-1E+10	1	-1E+10	1	-1E+10	1
4902624	27	C	03/18/2025	21:35	-127.137	48.146	0	1419.40	0	2.6531	0	34.5159	0	27.538	0	1402.691	0	91.2	4	27.9	4	-1E+10	1	0.0510	4	0.000251	0	-1E+10	1	-1E+10	1	-1E+10	1
4902624	27	C	03/18/2025	21:35	-127.137	48.146	0	1424.70	0	2.6440	0	34.5170	0	27.540	0	1407.911	0	-1e10	1	-1e10	1	-1E+10	1	-1e10	1	-1e10	1	-1E+10	1	-1E+10	1	-1E+10	1
4902624	27	C	03/18/2025	21:35	-127.137	48.146	0	1437.70	0	2.6163	0	34.5201	0	27.545	0	1420.714	0	95.5	4	29.2	4	-1E+10	1	0.0436	4	0.000205	0	-1E+10	1	-1E+10	1	-1E+10	1
4902624	27	C	03/18/2025	21:35	-127.137	48.146	0	1456.00	0	2.5773	0	34.5245	0	27.552	0	1438.735	0	98.4	4	30.1	4	-1E+10	1	0.0368	4	0.000227	0	-1E+10	1	-1E+10	1	-1E+10	1
4902624	27	C	03/18/2025	21:35	-127.137	48.146	0	1474.40	0	2.5381	0	34.5289	0	27.559	0	1456.854	0	99.0	4	30.2	4	-1E+10	1	0.0509	4	0.000204	0	-1E+10	1	-1E+10	1	-1E+10	1
4902624	27	C	03/18/2025	21:35	-127.137	48.146	0	1474.90	0	2.5370	0	34.5290	0	27.559	0	1457.346	0	-1e10	1	-1e10	1	-1E+10	1	-1e10	1	-1e10	1	-1E+10	1	-1E+10	1	-1E+10	1
4902624	27	C	03/18/2025	21:35	-127.137	48.146	0	1492.90	0	2.5071	0	34.5322	0	27.564	0	1475.069	0	101.5	4	31.0	4	-1E+10	1	0.0441	4	0.000195	0	-1E+10	1	-1E+10	1	-1E+10	1
4902624	27	C	03/18/2025	21:35	-127.137	48.146	0	1511.50	0	2.4762	0	34.5356	0	27.569	0	1493.381	0	105.5	4	32.2	4	-1E+10	1	0.0585	4	0.000308	0	-1E+10	1	-1E+10	1	-1E+10	1
4902624	27	C	03/18/2025	21:35	-127.137	48.146	0	1524.90	0	2.4540	0	34.5380	0	27.573	0	1506.573	0	-1e10	1	-1e10	1	-1E+10	1	-1e10	1	-1e10	1	-1E+10	1	-1E+10	1	-1E+10	1
4902624	27	C	03/18/2025	21:35	-127.137	48.146	0	1530.50	0	2.4473	0	34.5388	0	27.574	0	1512.085	0	104.6	4	31.9	4	-1E+10	1	0.0651	4	0.000180	0	-1E+10	1	-1E+10	1	-1E+10	1
4902624	27	C	03/18/2025	21:35	-127.137	48.146	0	1550.30	0	2.4236	0	34.5415	0	27.579	0	1531.575	0	105.1	4	32.0	4	-1E+10	1	0.0368	4	0.000181	0	-1E+10	1	-1E+10	1	-1E+10	1
4902624	27	C	03/18/2025	21:35	-127.137	48.146	0	1571.00	0	2.3989	0	34.5444	0	27.583	0	1551.950	0	104.9	4	31.9	4	-1E+10	1	0.0511	4	0.000238	0	-1E+10	1	-1E+10	1	-1E+10	1
4902624	27	C	03/18/2025	21:35	-127.137	48.146	0	1575.10	0	2.3940	0	34.5450	0	27.584	0	1555.985	0	-1e10	1	-1e10	1	-1E+10	1	-1e10	1	-1e10	1	-1E+10	1	-1E+10	1	-1E+10	1
4902624	27	C	03/18/2025	21:35	-127.137	48.146	0	1593.10	0	2.3672	0	34.5479	0	27.589	0	1573.699	0	109.2	4	33.2	4	-1E+10	1	0.0515	4	0.000203	0	-1E+10	1	-1E+10	1	-1E+10	1
4902624	27	C	03/18/2025	21:35	-127.137	48.146	0	1612.60	0	2.3382	0	34.5510	0	27.594	0	1592.889	0	111.9	4	34.0	4	-1E+10	1	0.0656	4	0.000191	0	-1E+10	1	-1E+10	1	-1E+10	1
4902624	27	C	03/18/2025	21:35	-127.137	48.146	0	1625.50	0	2.3190	0	34.5530	0	27.597	0	1605.582	0	-1e10	1	-1e10	1	-1E+10	1	-1e10	1	-1e10	1	-1E+10	1	-1E+10	1	-1E+10	1
4902624	27	C	03/18/2025	21:35	-127.137	48.146	0	1628.70	0	2.3149	0	34.5534	0	27.597	0	1608.731	0	114.3	4	34.7	4	-1E+10	1	0.0583	4	0.000180	0	-1E+10	1	-1E+10	1	-1E+10	1
4902624	27	C	03/18/2025	21:35	-127.137	48.146	0	1645.80	0	2.2930	0	34.5555	0	27.601	0	1625.556	0	117.8	4	35.8	4	-1E+10	1	0.0516	4	0.000190	0	-1E+10	1	-1E+10	1	-1E+10	1
4902624	27	C	03/18/2025	21:35	-127.137	48.146	0	1663.40	0	2.2704	0	34.5576	0	27.605	0	1642.871	0	119.9	4	36.4	4	-1E+10	1	0.0723	4	0.000156	0	-1E+10	1	-1E+10	1	-1E+10	1
4902624	27	C	03/18/2025	21:35	-127.137	48.146	0	1674.60	0	2.2560	0	34.5590	0	27.607	0	1653.889	0	-1e10	1	-1e10	1	-1E+10	1	-1e10	1	-1e10	1	-1E+10	1	-1E+10	1	-1E+10	1
4902624	27	C	03/18/2025	21:35	-127.137	48.146	0	1681.70	0	2.2463	0	34.5601	0	27.609	0	1660.873	0	119.8	4	36.3	4	-1E+10	1	0.0297	4	0.000155	0	-1E+10	1	-1E+10	1	-1E+10	1
4902624	27	C	03/18/2025	21:35	-127.137	48.146	0	1700.30	0	2.2210	0	34.5631	0	27.613	0	1679.169	0	119.4	4	36.2	4	-1E+10	1	0.0511	4	0.000145	0	-1E+10	1	-1E+10	1	-1E+10	1
4902624	27	C	03/18/2025	21:35	-127.137	48.146	0	1719.50	0	2.1948	0	34.5661	0	27.618	0	1698.054	0	98.9	4	30.0	4	-1E+10	1	0.0510	4	0.000213	0	-1E+10	1	-1E+10	1	-1E+10	1
4902624	27	C	03/18/2025	21:35	-127.137	48.146	0	1725.20	0	2.1870	0	34.5670	0	27.619	0	1703.660	0	-1e10	1	-1e10	1	-1E+10	1	-1e10	1	-1e10	1	-1E+10	1	-1E+10	1	-1E+10	1
4902624	27	C	03/18/2025	21:35	-127.137	48.146	0	1739.20	0	2.1719	0	34.5690	0	27.622	0	1717.428	0	96.6	4	29.3	4	-1E+10	1	0.0439	4	0.000166	0	-1E+10	1	-1E+10	1	-1E+10	1
4902624	27	C	03/18/2025	21:35	-127.137	48.146	0	1759.20	0	2.1504	0	34.5718	0	27.626	0	1737.096	0	100.5	4	30.4	4	-1E+10	1	0.0512	4	0.000157	0	-1E+10	1	-1E+10	1	-1E+10	1
4902624	27	C	03/18/2025	21:35	-127.137	48.146	0	1775.30	0	2.1330	0	34.5740	0	27.629	0	1752.928	0	-1e10	1	-1e10	1	-1E+10	1	-1e10	1	-1e10	1	-1E+10	1	-1E+10	1	-1E+10	1
4902624	27	C	03/18/2025	21:35	-127.137	48.146	0	1780.10	0	2.1271	0	34.5748	0	27.630	0	1757.647	0	104.1	4	31.5	4	-1E+10	1	0.0581	4	0.000257	0	-1E+10	1	-1E+10	1	-1E+10	1
4902624	27	C	03/18/2025	21:35	-127.137	48.146	0	1801.30	0	2.1013	0	34.5782	0	27.635	0	1778.491	0	111.7	4	33.8	4	-1E+10	1	0.0438	4	0.000154	0	-1E+10	1	-1E+10	1	-1E+10	1
4902624	27	C	03/18/2025	21:35	-127.137	48.146	0	1822.90	0	2.0749	0	34.5816	0	27.640	0	1799.726	0	115.1	4	34.8	4	-1E+10	1	0.0440	4	0.000165	0	-1E+10	1	-1E+10	1	-1E+10	1
4902624	27	C	03/18/2025	21:35	-127.137	48.146	0	1825.30	0	2.0720	0	34.5820	0	27.641	0	1802.086	0	-1e10	1	-1e10	1	-1E+10	1	-1e10	1	-1e10	1	-1E+10	1	-1E+10	1	-1E+10	1
4902624	27	C	03/18/2025	21:35	-127.137	48.146	0	1845.00	0	2.0541	0	34.5855	0	27.645	0	1821.451	0	119.0	4	35.9	4	-1E+10	1	0.0511	4	0.000256	0	-1E+10	1	-1E+10	1	-1E+10	1
4902624	27	C	03/18/2025	21:35	-127.137	48.146	0	1867.80	0	2.0334	0	34.5896	0	27.650	0	1843.861	0	122.6	4	37.0	4	-1E+10	1	0.0507	4	0.005801	0	-1E+10	1	-1E+10	1	-1E+10	1
4902624	27	C	03/18/2025	21:35	-127.137	48.146	0	1875.90	0	2.0260	0	34.5910	0	27.652	0	1851.822	0	-1e10	1	-1e10	1	-1E+10	1	-1e10	1	-1e10	1	-1E+10	1	-1E+10	1	-1E+10	1
4902624	27	C	03/18/2025	21:35	-127.137	48.146	0	1885.80	0	2.0173	0	34.5922	0	27.654	0	1861.551	0	123.9	4	37.4	4	-1E+10	1	0.0368	4	0.000142	0	-1E+10	1	-1E+10	1	-1E+10	1
4902624	27	C	03/18/2025	21:35	-127.137	48.146	0	1902.20	0	2.0028	0	34.5942	0	27.656	0	1877.668	0	123.6	4	37.3	4	-1E+10	1	0.0510	4	0.000176	0	-1E+10	1	-1E+10	1	-1E+10	1
4902624	27	C	03/18/2025	21:35	-127.137	48.146	0	1919.30	0	1.9878	0	34.5963	0	27.659	0	1894.472	0	123.6	4	37.3	4	-1E+10	1	0.0439	4	0.000153	0	-1E+10	1	-1E+10	1	-1E+10	1
4902624	27	C	03/18/2025	21:35	-127.137	48.146	0	1924.70	0	1.9830	0	34.5970	0	27.660	0	1899.778	0	-1e10	1	-1e10	1	-1E+10	1	-1e10	1	-1e10	1	-1E+10	1	-1E+10	1	-1E+10	1
4902624	27	C	03/18/2025	21:35	-127.137	48.146	0	1937.00	0	1.9727	0	34.5984	0	27.662	0	1911.863	0	124.1	4	37.4	4	-1E+10	1	0.0508	4	0.000176	0	-1E+10	1	-1E+10	1	-1E+10	1
4902624	27	C	03/18/2025	21:35	-127.137	48.146	0	1955.20	0	1.9574	0	34.6004	0	27.665	0	1929.745	0	127.5	4	38.4	4	-1E+10	1	0.0369	4	0.000177	0	-1E+10	1	-1E+10	1	-1E+10	1
4902624	27	C	03/18/2025	21:35	-127.137	48.146	0	1960.50	0	1.9530	0	34.6010	0	27.666	0	1934.952	0	-1e10	1	-1e10	1	-1E+10	1	-1e10	1	-1e10	1	-1E+10	1	-1E+10	1	-1E+10	1
4902624	27	C	03/18/2025	21:35	-127.137	48.146	0	1970.70	0	-1e10	1	-1e10	1	-1e10	1	1944.972	0	129.7	4	-1e10	4	-1E+10	1	0.0511	4	0.000205	0	-1E+10	1	-1E+10	1	-1E+10	1
4902624	27	C	03/18/2025	21:35	-127.137	48.146	0																										
4902624	28	C	03/28/2025	16:36	-127.308	48.111	0	0.00	0	8.9421	0	32.2400	0	24.967	0	0.000	0	-1e10	1	-1e10	1	-1E+10	1	0.2701	4	0.000780	0	-1E+10	1	-1E+10	1	-1E+10	1
4902624	28	C	03/28/2025	16:36	-127.308	48.111	0	0.20	0	8.9413	0	32.2400	0	24.967	0	0.198	0	-1e10	1	-1e10	1	-1E+10	1	0.2993	4	0.000780	0	-1E+10	1	-1E+10	1	-1E+10	1
4902624	28	C	03/28/2025	16:36	-127.308	48.111	0	0.30	0	8.9409	0	32.2400	0	24.967	0	0.297	0	262.9	4	91.7	4	-1E+10	1	-1e10	1	-1e10	1	-1E+10	1	-1E+10	1	-1E+10	1
4902624	28	C	03/28/2025	16:36	-127.308	48.111	0	0.40	0	8.9404	0	32.2400	0	24.967	0	0.397	0	262.7	4	91.7	4	-1E+10	1	-1e10	1	-1e10	1	-1E+10	1	-1E+10	1	-1E+10	1
4902624	28	C	03/28/2025	16:36	-127.308	48.111	0	0.50	0	8.9400	0	32.2400	0	24.967	0	0.496	0	-1e10	1	-1e10	1	-1E+10	1	-1e10	1	-1e10	1	-1E+10	1	-1E+10	1	-1E+10	1
4902624	28	C	03/28/2025	16:36	-127.308	48.111	0	0.70	0	8.9398	0	32.2402	0	24.967	0	0.694	0	263.3	4	91.8	4	-1E+10	1	0.3212	4	0.000757	0	-1E+10	1	-1E+10	1	-1E+10	1
4902624	28	C	03/28/2025	16:36	-127.308	48.111	0	0.80	0	8.9397	0	32.2403	0	24.967	0	0.793	0	-1e10	1	-1e10	1	-1E+10	1	0.3139	4	0.000839	0	-1E+10	1	-1E+10	1	-1E+10	1
4902624	28	C	03/28/2025	16:36	-127.308	48.111	0	1.10	0	8.9394	0	32.2406	0	24.968	0	1.091	0	262.3	4	91.5	4	-1E+10	1	0.3194	4	0.000760	0	-1E+10	1	-1E+10	1	-1E+10	1
4902624	28	C	03/28/2025	16:36	-127.308	48.111	0	1.20	0	8.9393	0	32.2407	0	24.968	0	1.190	0	-1e10	1	-1e10	1	-1E+10	1	0.3212	4	0.000733	0	-1E+10	1	-1E+10	1	-1E+10	1
4902624	28	C	03/28/2025	16:36	-127.308	48.111	0	1.30	0	8.9392	0	32.2408	0	24.968	0	1.289	0	263.3	4	91.9	4	-1E+10	1	0.3431	4	0.000710	0	-1E+10	1	-1E+10	1	-1E+10	1
4902624	28	C	03/28/2025	16:36	-127.308	48.111	0	1.40	0	8.9391	0	32.2409	0	24.968	0	1.388	0	-1e10	1	-1e10	1	-1E+10	1	0.3285	4	0.000780	0	-1E+10	1	-1E+10	1	-1E+10	1
4902624	28	C	03/28/2025	16:36	-127.308	48.111	0	1.50	0	8.9390	0	32.2410	0	24.968	0	1.487	0	-1e10	1	-1e10	1	-1E+10	1	-1e10	1	-1e10	1	-1E+10	1	-1E+10	1	-1E+10	1
4902624	28	C	03/28/2025	16:36	-127.308	48.111	0	1.70	0	8.9390	0	32.2410	0	24.968	0	1.686	0	-1e10	1	-1e10	1	-1E+10	1	0.3431	4	0.000886	0	-1E+10	1	-1E+10	1	-1E+10	1
4902624	28	C	03/28/2025	16:36	-127.308	48.111	0	2.10	0	8.9390	0	32.2410	0	24.968	0	2.082	0	262.1	4	91.4	4	-1E+10	1	0.3504	4	0.000768	0	-1E+10	1	-1E+10	1	-1E+10	1
4902624	28	C	03/28/2025	16:36	-127.308	48.111	0	2.30	0	8.9390	0	32.2410	0	24.968	0	2.281	0	-1e10	1	-1e10	1	-1E+10	1	0.3504	4	0.000698	0	-1E+10	1	-1E+10	1	-1E+10	1
4902624	28	C	03/28/2025	16:36	-127.308	48.111	0	2.40	0	8.9390	0	32.2410	0	24.968	0	2.380	0	-1e10	1	-1e10	1	-1E+10	1	0.3577	4	0.000780	0	-1E+10	1	-1E+10	1	-1E+10	1
4902624	28	C	03/28/2025	16:36	-127.308	48.111	0	2.50	0	8.9390	0	32.2410	0	24.968	0	2.479	0	-1e10	1	-1e10	1	-1E+10	1	0.3431	4	0.000686	0	-1E+10	1	-1E+10	1	-1E+10	1
4902624	28	C	03/28/2025	16:36	-127.308	48.111	0	2.70	0	8.9390	0	32.2410	0	24.968	0	2.677	0	262.1	4	91.4	4	-1E+10	1	0.3723	4	0.000780	0	-1E+10	1	-1E+10	1	-1E+10	1
4902624	28	C	03/28/2025	16:36	-127.308	48.111	0	2.80	0	8.9390	0	32.2410	0	24.968	0	2.776	0	-1e10	1	-1e10	1	-1E+10	1	0.3650	4	0.000792	0	-1E+10	1	-1E+10	1	-1E+10	1
4902624	28	C	03/28/2025	16:36	-127.308	48.111	0	3.00	0	8.9390	0	32.2410	0	24.968	0	2.975	0	-1e10	1	-1e10	1	-1E+10	1	0.3723	4	0.000768	0	-1E+10	1	-1E+10	1	-1E+10	1
4902624	28	C	03/28/2025	16:36	-127.308	48.111	0	3.20	0	8.9390	0	32.2410	0	24.968	0	3.173	0	-1e10	1	-1e10	1	-1E+10	1	0.3431	4	0.000686	0	-1E+10	1	-1E+10	1	-1E+10	1
4902624	28	C	03/28/2025	16:36	-127.308	48.111	0	3.30	0	8.9390	0	32.2410	0	24.968	0	3.272	0	262.0	4	91.4	4	-1E+10	1	0.4453	4	0.000933	0	-1E+10	1	-1E+10	1	-1E+10	1
4902624	28	C	03/28/2025	16:36	-127.308	48.111	0	3.40	0	8.9390	0	32.2410	0	24.968	0	3.371	0	-1e10	1	-1e10	1	-1E+10	1	0.3723	4	0.000698	0	-1E+10	1	-1E+10	1	-1E+10	1
4902624	28	C	03/28/2025	16:36	-127.308	48.111	0	3.50	0	8.9390	0	32.2410	0	24.968	0	3.471	0	-1e10	1	-1e10	1	-1E+10	1	0.3650	4	0.000686	0	-1E+10	1	-1E+10	1	-1E+10	1
4902624	28	C	03/28/2025	16:36	-127.308	48.111	0	3.60	0	8.9390	0	32.2410	0	24.968	0	3.570	0	-1e10	1	-1e10	1	-1E+10	1	0.3942	4	0.000815	0	-1E+10	1	-1E+10	1	-1E+10	1
4902624	28	C	03/28/2025	16:36	-127.308	48.111	0	3.90	0	8.9390	0	32.2410	0	24.968	0	3.867	0	261.9	4	91.4	4	-1E+10	1	0.3723	4	0.000768	0	-1E+10	1	-1E+10	1	-1E+10	1
4902624	28	C	03/28/2025	16:36	-127.308	48.111	0	4.00	0	8.9390	0	32.2410	0	24.968	0	3.966	0	-1e10	1	-1e10	1	-1E+10	1	0.4015	4	0.000745	0	-1E+10	1	-1E+10	1	-1E+10	1
4902624	28	C	03/28/2025	16:36	-127.308	48.111	0	4.20	0	8.9390	0	32.2410	0	24.968	0	4.165	0	-1e10	1	-1e10	1	-1E+10	1	0.3942	4	0.000745	0	-1E+10	1	-1E+10	1	-1E+10	1
4902624	28	C	03/28/2025	16:36	-127.308	48.111	0	4.30	0	8.9390	0	32.2410	0	24.968	0	4.264	0	-1e10	1	-1e10	1	-1E+10	1	0.4015	4	0.000757	0	-1E+10	1	-1E+10	1	-1E+10	1
4902624	28	C	03/28/2025	16:36	-127.308	48.111	0	4.40	0	8.9390	0	32.2410	0	24.968	0	4.363	0	-1e10	1	-1e10	1	-1E+10	1	0.4015	4	0.000886	0	-1E+10	1	-1E+10	1	-1E+10	1
4902624	28	C	03/28/2025	16:36	-127.308	48.111	0	4.50	0	8.9390	0	32.2410	0	24.968	0	4.462	0	261.9	4	91.4	4	-1E+10	1	0.3796	4	0.000933	0	-1E+10	1	-1E+10	1	-1E+10	1
4902624	28	C	03/28/2025	16:36	-127.308	48.111	0	4.60	0	8.9390	0	32.2410	0	24.968	0	4.561	0	-1e10	1	-1e10	1	-1E+10	1	0.4015	4	0.000768	0	-1E+10	1	-1E+10	1	-1E+10	1
4902624	28	C	03/28/2025	16:36	-127.308	48.111	0	4.80	0	8.9390	0	32.2410	0	24.968	0	4.760	0	-1e10	1	-1e10	1	-1E+10	1	0.3869	4	0.000721	0	-1E+10	1	-1E+10	1	-1E+10	1
4902624	28	C	03/28/2025	16:36	-127.308	48.111	0	4.90	0	8.9390	0	32.2410	0	24.968	0	4.859	0	-1e10	1	-1e10	1	-1E+10	1	0.4161	4	0.000862	0	-1E+10	1	-1E+10	1	-1E+10	1
4902624	28	C	03/28/2025	16:36	-127.308	48.111	0	5.10	0	8.9390	0	32.2410	0	24.968	0	5.057	0	261.8	4	91.3	4	-1E+10	1	0.3796	4	0.000733	0	-1E+10	1	-1E+10	1	-1E+10	1
4902624	28	C	03/28/2025	16:36	-127.308	48.111	0	5.50	0	8.9390	0	32.2410	0	24.968	0	5.454	0	-1e10	1	-1e10	1	-1E+10	1	0.3869	4	0.000850	0	-1E+10	1	-1E+10	1	-1E+10	1
4902624	28	C	03/28/2025	16:36	-127.308	48.111	0	5.60	0	8.9390	0	32.2410	0	24.968	0	5.553	0	-1e10	1	-1e10	1	-1E+10	1	0.4088	4	0.000757	0	-1E+10	1	-1E+10	1	-1E+10	1
4902624	28	C	03/28/2025	16:36	-127.308	48.111	0	5.70	0	8.9390	0	32.2410	0	24.968	0	5.652	0	261.6	4	91.2	4	-1E+10	1	0.4088	4	0.000674	0	-1E+10	1	-1E+10	1	-1E+10	1
4902624	28	C	03/28/2025	16:36	-127.308	48.111	0	6.00	0	8.9390	0	32.2410	0	24.968	0	5.950	0	-1e10	1	-1e10	1	-1E+10	1	0.4161	4	0.000745	0	-1E+10	1	-1E+10	1	-1E+10	1
4902624	28	C	03/28/2025	16:36	-127.308	48.111	0	6.10	0	8.9390	0	32.2410	0	24.968	0	6.049	0	-1e10	1	-1e10	1	-1E+10	1	0.4307	4	0.000792	0	-1E+10	1	-1E+10	1	-1E+10	1
4902624	28	C	03/28/2025	16:36	-127.308	48.111	0	6.30	0	8.9390	0	32.2410	0	24.968	0	6.247	0	-1e10	1	-1e10	1	-1E+10	1	0.4161	4	0.000663	0	-1E+10	1	-1E+10	1	-1E+10	1
4902624	28	C	03/28/2025	16:36	-127.308	48.111	0	6.40	0	8.9390	0	32.2410	0	24.968	0	6.346	0	261.4	4	91.2	4	-1E+10	1	0.4307	4	0.000757	0	-1E+10	1	-1E+10	1	-1E+10	1
4902624	28	C	03/28/2025	16:36	-127.308	48.111	0	6.50	0	8.9390	0	32.2410	0	24.968	0	6.445	0	-1e10	1	-1e10	1	-1E+10	1	0.4161	4	0.000733	0	-1E+10	1	-1E+10	1	-1E+10	1
4902624	28	C	03/28/2025	16:36	-127.308	48.111	0	6.60	0	8.9391	0	32.2410	0	24.968	0	6.544	0	-1e10	1	-1e10	1	-1E+10	1	0.4234	4	0.000733	0	-1E+10	1	-1E+10	1	-1E+10	1
4902624	28	C	03/28/2025	16:36	-127.308	48.111	0	6.70	0	8.9392	0	32.2410	0	24.968	0	6.644	0	-1e10	1	-1e10	1	-1E+10	1	0.4307	4	0.000874	0	-1E+10	1	-1E+10	1	-1E+10	1
4902624	28	C	03/28/2025	16:36	-127.308	48.111	0	7.00	0	8.9395	0	32.2410	0	24.968	0	6.941	0	261.5	4	91.2	4	-1E+10	1	0.4307	4	0.000780	0	-1E+10	1	-1E+10	1	-1E+10	1
4902624	28	C	03/28/2025	16:36	-127.308	48.111	0	7.40	0	8.9399	0	32.2410	0	24.968	0	7.338	0	-1e10	1	-1e10	1	-1E+10	1	0.4380	4	0.000909	0	-1E+10	1	-1E+10	1	-1E+10	1
4902624	28	C	03/28/2025	16:36	-127.308	48.111	0	7.50	0	8.9400	0	32.2410	0	24.968	0	7.437	0	-1e10	1	-1e10	1	-1E+10	1	0.4234	4	0.000675	0	-1E+10	1	-1E+10	1	-1E+10	1
4902624	28	C	03/28/2025	16:36	-127.308	48.111	0	7.60	0	8.9400	0	32.2410	0	24.968	0	7.536	0	261.4	4	91.2	4	-1E+10	1	0.4818	4	0.000780	0	-1E+10	1	-1E+10	1	-1E+10	1
4902624	28	C	03/28/2025	16:36	-127.308	48.111	0	7.80	0	8.9400	0	32.2410	0	24.968	0	7.734	0	-1e10	1	-1e10	1	-1E+10	1	0.4307	4	0.000733	0	-1E+10	1	-1E+10	1	-1E+10	1
4902624	28	C	03/28/2025	16:36	-127.308	48.111	0	7.90	0	8.9400	0	32.2410	0	24.968	0	7.833	0	-1e10	1	-1e10	1	-1E+10	1	0.4380	4	0.000721	0	-1E+10	1	-1E+10	1	-1E+10	1
4902624	28	C	03/28/2025	16:36	-127.308	48.111	0	8.20	0	8.9400	0	32.2410	0	24.968	0	8.131	0	-1e10	1	-1e10	1	-1E+10	1	0.4599	4	0.000733	0	-1E+10	1	-1E+10	1	-1E+10	1
4902624	28	C	03/28/2025	16:36	-127.308	48.111	0	8.40	0	8.9400	0	32.2410	0	24.968	0	8.329	0	261.3	4	91.2	4	-1E+10	1	0.4380	4	0.000710	0	-1E+10	1	-1E+10	1	-1E+10	1
4902624	28	C	03/28/2025	16:36	-127.308	48.111	0	8.50	0	8.9400	0	32.2410	0	24.968	0	8.428	0	-1e10	1	-1e10	1	-1E+10	1	0.4526	4	0.000909	0	-1E+10	1	-1E+10	1	-1E+10	1
4902624	28	C	03/28/2025	16:36	-127.308	48.111	0	8.60	0	8.9400	0	32.2410	0	24.968	0	8.528	0	-1e10	1	-1e10	1	-1E+10	1	0.4745	4	0.000768	0	-1E+10	1	-1E+10	1	-1E+10	1
4902624	28	C	03/28/2025	16:36	-127.308	48.111	0	8.70	0	8.9400	0	32.2410	0	24.968	0	8.627	0	-1e10	1	-1e10	1	-1E+10	1	0.4672	4	0.000710	0	-1E+10	1	-1E+10	1	-1E+10	1
4902624	28	C	03/28/2025	16:36	-127.308	48.111	0	8.80	0	8.9400	0	32.2410	0	24.968	0	8.726	0	-1e10	1	-1e10	1	-1E+10	1	0.4599	4	0.000733	0	-1E+10	1	-1E+10	1	-1E+10	1
4902624	28	C	03/28/2025	16:36	-127.308	48.111	0	8.90	0	8.9400	0	32.2410	0	24.968	0	8.825	0	261.4	4	91.2	4	-1E+10	1	0.4672	4	0.000792	0	-1E+10	1	-1E+10	1	-1E+10	1
4902624	28	C	03/28/2025	16:36	-127.308	48.111	0	9.20	0	8.9400	0	32.2410	0	24.968	0	9.123	0	-1e10	1	-1e10	1	-1E+10	1	0.4745	4	0.000956	0	-1E+10	1	-1E+10	1	-1E+10	1
4902624	28	C	03/28/2025	16:36	-127.308	48.111	0	9.30	0	8.9400	0	32.2410	0	24.968	0	9.222	0	-1e10	1	-1e10	1	-1E+10	1	0.4526	4	0.000745	0	-1E+10	1	-1E+10	1	-1E+10	1
4902624	28	C	03/28/2025	16:36	-127.308	48.111	0	9.50	0	8.9400	0	32.2410	0	24.968	0	9.420	0	261.3	4	91.2	4	-1E+10	1	0.4672	4	0.000768	0	-1E+10	1	-1E+10	1	-1E+10	1
4902624	28	C	03/28/2025	16:36	-127.308	48.111	0	9.90	0	8.9400	0	32.2410	0	24.968	0	9.817	0	261.2	4	91.1	4	-1E+10	1	0.4745	4	0.000733	0	-1E+10	1	-1E+10	1	-1E+10	1
4902624	28	C	03/28/2025	16:36	-127.308	48.111	0	10.30	0	8.9400	0	32.2410	0	24.968	0	10.213	0	261.0	4	91.1	4	-1E+10	1	0.4687	4	0.000744	0	-1E+10	1	-1E+10	1	-1E+10	1
4902624	28	C	03/28/2025	16:36	-127.308	48.111	0	11.10	0	8.9400	0	32.2410	0	24.968	0	11.006	0	-1e10	1	-1e10	1	-1E+10	1	-1e10	1	-1e10	1	-1E+10	1	-1E+10	1	-1E+10	1
4902624	28	C	03/28/2025	16:36	-127.308	48.111	0	11.20	0	8.9400	0	32.2410	0	24.968	0	11.106	0	261.0	4	91.0	4	-1E+10	1	0.4818	4	0.000733	0	-1E+10	1	-1E+10	1	-1E+10	1
4902624	28	C	03/28/2025	16:36	-127.308	48.111	0	12.10	0	8.9400	0	32.2410	0	24.968	0	11.998	0	260.8	4	91.0	4	-1E+10	1	0.4818	4	0.000752	0	-1E+10	1	-1E+10	1	-1E+10	1
4902624	28	C	03/28/2025	16:36	-127.308	48.111	0	13.00	0	8.9400	0	32.2410	0	24.968	0	12.890	0	-1e10	1	-1e10	1	-1E+10	1	-1e10	1	-1e10	1	-1E+10	1	-1E+10	1	-1E+10	1
4902624	28	C	03/28/2025	16:36	-127.308	48.111	0	13.10	0	8.9399	0	32.2410	0	24.968	0	12.990	0	260.8	4	91.0	4	-1E+10	1	0.4993	4	0.000719	0	-1E+10	1	-1E+10	1	-1E+10	1
4902624	28	C	03/28/2025	16:36	-127.308	48.111	0	14.10	0	8.9388	0	32.2410	0	24.968	0	13.981	0	260.8	4	91.0	4	-1E+10	1	0.5134	4	0.000780	0	-1E+10	1	-1E+10	1	-1E+10	1
4902624	28	C	03/28/2025	16:36	-127.308	48.111	0	14.90	0	8.9380	0	32.2410	0	24.968	0	14.774	0	-1e10	1	-1e10	1	-1E+10	1	-1e10	1	-1e10	1	-1E+10	1	-1E+10	1	-1E+10	1
4902624	28	C	03/28/2025	16:36	-127.308	48.111	0	15.10	0	8.9380	0	32.2410	0	24.968	0	14.973	0	260.6	4	90.9	4	-1E+10	1	0.5110	4	0.000897	0	-1E+10	1	-1E+10	1	-1E+10	1
4902624	28	C	03/28/2025	16:36	-127.308	48.111	0	16.10	0	8.9380	0	32.2410	0	24.968	0	15.964	0	260.5	4	90.9	4	-1E+10	1	0.5387	4	0.000970	0	-1E+10	1	-1E+10	1	-1E+10	1
4902624	28	C	03/28/2025	16:36	-127.308	48.111	0	17.00	0	8.9380	0	32.2410	0	24.969	0	16.856	0	-1e10	1	-1e10	1	-1E+10	1	-1e10	1	-1e10	1	-1E+10	1	-1E+10	1	-1E+10	1
4902624	28	C	03/28/2025	16:36	-127.308	48.111	0	17.10	0	8.9380	0	32.2410	0	24.969	0	16.956	0	260.4	4	90.8	4	-1E+10	1	0.5504	4	0.000843	0	-1E+10	1	-1E+10	1	-1E+10	1
4902624	28	C	03/28/2025	16:36	-127.308	48.111	0	18.10	0	8.9380	0	32.2410	0	24.969	0	17.947	0	260.4	4	90.8	4	-1E+10	1	0.4915	4	0.000674	0	-1E+10	1	-1E+10	1	-1E+10	1
4902624	28	C	03/28/2025	16:36	-127.308	48.111	0	19.00	0	8.9380	0	32.2410	0	24.969	0	18.840	0	-1e10	1	-1e10	1	-1E+10	1	-1e10	1	-1e10	1	-1E+10	1	-1E+10	1	-1E+10	1
4902624	28	C	03/28/2025	16:36	-127.308	48.111	0	19.10	0	8.9380	0	32.2410	0	24.969	0	18.939	0	260.3	4	90.8	4	-1E+10	1	0.4993	4	0.000684	0	-1E+10	1	-1E+10	1	-1E+10	1
4902624	28	C	03/28/2025	16:36	-127.308	48.111	0	20.10	0	8.9380	0	32.2410	0	24.969	0	19.930	0	260.1	4	90.7	4	-1E+10	1	0.5110	4	0.000721	0	-1E+10	1	-1E+10	1	-1E+10	1
4902624	28	C	03/28/2025	16:36	-127.308	48.111	0	21.00	0	8.9380	0	32.2410	0	24.969	0	20.823	0	-1e10	1	-1e10	1	-1E+10	1	-1e10	1	-1e10	1	-1E+10	1	-1E+10	1	-1E+10	1
4902624	28	C	03/28/2025	16:36	-127.308	48.111	0	21.10	0	8.9380	0	32.2410	0	24.969	0	20.922	0	260.0	4	90.7	4	-1E+10	1	0.5110	4	0.000721	0	-1E+10	1	-1E+10	1	-1E+10	1
4902624	28	C	03/28/2025	16:36	-127.308	48.111	0	22.10	0	8.9385	0	32.2410	0	24.968	0	21.913	0	259.9	4	90.7	4	-1E+10	1	0.4988	4	0.000760	0	-1E+10	1	-1E+10	1	-1E+10	1
4902624	28	C	03/28/2025	16:36	-127.308	48.111	0	23.00	0	8.9390	0	32.2410	0	24.968	0	22.805	0	-1e10	1	-1e10	1	-1E+10	1	-1e10	1	-1e10	1	-1E+10	1	-1E+10	1	-1E+10	1
4902624	28	C	03/28/2025	16:36	-127.308	48.111	0	23.10	0	8.9390	0	32.2410	0	24.968	0	22.905	0	260.0	4	90.7	4	-1E+10	1	0.4834	4	0.000799	0	-1E+10	1	-1E+10	1	-1E+10	1
4902624	28	C	03/28/2025	16:36	-127.308	48.111	0	24.00	0	8.9390	0	32.2410	0	24.968	0	23.797	0	259.9	4	90.6	4	-1E+10	1	0.4964	4	0.000741	0	-1E+10	1	-1E+10	1	-1E+10	1
4902624	28	C	03/28/2025	16:36	-127.308	48.111	0	24.90	0	8.9390	0	32.2410	0	24.968	0	24.689	0	-1e10	1	-1e10	1	-1E+10	1	-1e10	1	-1e10	1	-1E+10	1	-1E+10	1	-1E+10	1
4902624	28	C	03/28/2025	16:36	-127.308	48.111	0	25.00	0	8.9390	0	32.2410	0	24.968	0	24.788	0	259.8	4	90.6	4	-1E+10	1	0.5110	4	0.000745	0	-1E+10	1	-1E+10	1	-1E+10	1
4902624	28	C	03/28/2025	16:36	-127.308	48.111	0	26.00	0	8.9390	0	32.2410	0	24.968	0	25.780	0	259.8	4	90.6	4	-1E+10	1	0.5066	4	0.000724	0	-1E+10	1	-1E+10	1	-1E+10	1
4902624	28	C	03/28/2025	16:36	-127.308	48.111	0	27.00	0	8.9390	0	32.2410	0	24.969	0	26.771	0	259.7	4	90.6	4	-1E+10	1	0.4915	4	0.000655	0	-1E+10	1	-1E+10	1	-1E+10	1
4902624	28	C	03/28/2025	16:36	-127.308	48.111	0	28.00	0	8.9390	0	32.2410	0	24.969	0	27.763	0	259.5	4	90.5	4	-1E+10	1	0.5004	4	0.000682	0	-1E+10	1	-1E+10	1	-1E+10	1
4902624	28	C	03/28/2025	16:36	-127.308	48.111	0	28.90	0	8.9390	0	32.2410	0	24.969	0	28.655	0	259.4	4	90.5	4	-1E+10	1	0.5183	4	0.000663	0	-1E+10	1	-1E+10	1	-1E+10	1
4902624	28	C	03/28/2025	16:36	-127.308	48.111	0	29.00	0	8.9390	0	32.2410	0	24.969	0	28.754	0	-1e10	1	-1e10	1	-1E+10	1	-1e10	1	-1e10	1	-1E+10	1	-1E+10	1	-1E+10	1
4902624	28	C	03/28/2025	16:36	-127.308	48.111	0	29.90	0	8.9390	0	32.2410	0	24.969	0	29.647	0	259.3	4	90.4	4	-1E+10	1	0.4891	4	0.000721	0	-1E+10	1	-1E+10	1	-1E+10	1
4902624	28	C	03/28/2025	16:36	-127.308	48.111	0	30.90	0	8.9390	0	32.2410	0	24.969	0	30.638	0	259.1	4	90.4	4	-1E+10	1	0.4830	4	0.000653	0	-1E+10	1	-1E+10	1	-1E+10	1
4902624	28	C	03/28/2025	16:36	-127.308	48.111	0	31.00	0	8.9390	0	32.2410	0	24.969	0	30.737	0	-1e10	1	-1e10	1	-1E+10	1	-1e10	1	-1e10	1	-1E+10	1	-1E+10	1	-1E+10	1
4902624	28	C	03/28/2025	16:36	-127.308	48.111	0	31.90	0	8.9385	0	32.2410	0	24.969	0	31.630	0	258.9	4	90.3	4	-1E+10	1	0.5061	4	0.000670	0	-1E+10	1	-1E+10	1	-1E+10	1
4902624	28	C	03/28/2025	16:36	-127.308	48.111	0	32.90	0	8.9380	0	32.2410	0	24.969	0	32.621	0	258.7	4	90.3	4	-1E+10	1	0.5183	4	0.000841	0	-1E+10	1	-1E+10	1	-1E+10	1
4902624	28	C	03/28/2025	16:36	-127.308	48.111	0	33.00	0	8.9380	0	32.2410	0	24.969	0	32.720	0	-1e10	1	-1e10	1	-1E+10	1	-1e10	1	-1e10	1	-1E+10	1	-1E+10	1	-1E+10	1
4902624	28	C	03/28/2025	16:36	-127.308	48.111	0	33.90	0	8.9380	0	32.2415	0	24.969	0	33.612	0	258.6	4	90.2	4	-1E+10	1	0.5110	4	0.000827	0	-1E+10	1	-1E+10	1	-1E+10	1
4902624	28	C	03/28/2025	16:36	-127.308	48.111	0	34.90	0	8.9380	0	32.2420	0	24.970	0	34.604	0	258.5	4	90.2	4	-1E+10	1	0.5037	4	0.000698	0	-1E+10	1	-1E+10	1	-1E+10	1
4902624	28	C	03/28/2025	16:36	-127.308	48.111	0	35.00	0	8.9380	0	32.2420	0	24.970	0	34.703	0	-1e10	1	-1e10	1	-1E+10	1	-1e10	1	-1e10	1	-1E+10	1	-1E+10	1	-1E+10	1
4902624	28	C	03/28/2025	16:36	-127.308	48.111	0	35.90	0	8.9375	0	32.2420	0	24.970	0	35.595	0	258.2	4	90.1	4	-1E+10	1	0.5024	4	0.000676	0	-1E+10	1	-1E+10	1	-1E+10	1
4902624	28	C	03/28/2025	16:36	-127.308	48.111	0	37.00	0	8.9370	0	32.2420	0	24.970	0	36.686	0	258.1	4	90.0	4	-1E+10	1	0.5037	4	0.000682	0	-1E+10	1	-1E+10	1	-1E+10	1
4902624	28	C	03/28/2025	16:36	-127.308	48.111	0	38.00	0	8.9370	0	32.2420	0	24.970	0	37.677	0	257.8	4	89.9	4	-1E+10	1	0.5402	4	0.000662	0	-1E+10	1	-1E+10	1	-1E+10	1
4902624	28	C	03/28/2025	16:36	-127.308	48.111	0	39.00	0	8.9370	0	32.2420	0	24.970	0	38.669	0	257.7	4	89.9	4	-1E+10	1	0.5037	4	0.000633	0	-1E+10	1	-1E+10	1	-1E+10	1
4902624	28	C	03/28/2025	16:36	-127.308	48.111	0	40.00	0	8.9365	0	32.2420	0	24.970	0	39.660	0	257.4	4	89.8	4	-1E+10	1	0.5665	4	0.000759	0	-1E+10	1	-1E+10	1	-1E+10	1
4902624	28	C	03/28/2025	16:36	-127.308	48.111	0	40.90	0	8.9360	0	32.2420	0	24.970	0	40.552	0	-1e10	1	-1e10	1	-1E+10	1	-1e10	1	-1e10	1	-1E+10	1	-1E+10	1	-1E+10	1
4902624	28	C	03/28/2025	16:36	-127.308	48.111	0	41.00	0	8.9360	0	32.2420	0	24.970	0	40.651	0	256.9	4	89.6	4	-1E+10	1	0.5481	4	0.000864	0	-1E+10	1	-1E+10	1	-1E+10	1
4902624	28	C	03/28/2025	16:36	-127.308	48.111	0	42.10	0	8.9354	0	32.2420	0	24.970	0	41.742	0	256.6	4	89.5	4	-1E+10	1	0.5110	4	0.000792	0	-1E+10	1	-1E+10	1	-1E+10	1
4902624	28	C	03/28/2025	16:36	-127.308	48.111	0	43.00	0	8.9350	0	32.2420	0	24.970	0	42.634	0	-1e10	1	-1e10	1	-1E+10	1	-1e10	1	-1e10	1	-1E+10	1	-1E+10	1	-1E+10	1
4902624	28	C	03/28/2025	16:36	-127.308	48.111	0	43.10	0	8.9348	0	32.2420	0	24.970	0	42.733	0	256.3	4	89.4	4	-1E+10	1	0.4993	4	0.000679	0	-1E+10	1	-1E+10	1	-1E+10	1
4902624	28	C	03/28/2025	16:36	-127.308	48.111	0	44.20	0	8.9321	0	32.2426	0	24.971	0	43.824	0	255.9	4	89.3	4	-1E+10	1	0.5065	4	0.000731	0	-1E+10	1	-1E+10	1	-1E+10	1
4902624	28	C	03/28/2025	16:36	-127.308	48.111	0	45.10	0	8.9300	0	32.2430	0	24.972	0	44.716	0	-1e10	1	-1e10	1	-1E+10	1	-1e10	1	-1e10	1	-1E+10	1	-1E+10	1	-1E+10	1
4902624	28	C	03/28/2025	16:36	-127.308	48.111	0	45.20	0	8.9299	0	32.2430	0	24.972	0	44.815	0	255.5	4	89.1	4	-1E+10	1	0.5098	4	0.000786	0	-1E+10	1	-1E+10	1	-1E+10	1
4902624	28	C	03/28/2025	16:36	-127.308	48.111	0	46.20	0	8.9284	0	32.2435	0	24.972	0	45.807	0	254.9	4	88.9	4	-1E+10	1	0.5037	4	0.000698	0	-1E+10	1	-1E+10	1	-1E+10	1
4902624	28	C	03/28/2025	16:36	-127.308	48.111	0	47.10	0	8.9270	0	32.2440	0	24.973	0	46.699	0	-1e10	1	-1e10	1	-1E+10	1	-1e10	1	-1e10	1	-1E+10	1	-1E+10	1	-1E+10	1
4902624	28	C	03/28/2025	16:36	-127.308	48.111	0	47.20	0	8.9269	0	32.2440	0	24.973	0	46.798	0	254.5	4	88.8	4	-1E+10	1	0.5110	4	0.001014	0	-1E+10	1	-1E+10	1	-1E+10	1
4902624	28	C	03/28/2025	16:36	-127.308	48.111	0	48.20	0	8.9258	0	32.2440	0	24.973	0	47.789	0	253.8	4	88.5	4	-1E+10	1	0.5232	4	0.000809	0	-1E+10	1	-1E+10	1	-1E+10	1
4902624	28	C	03/28/2025	16:36	-127.308	48.111	0	49.00	0	8.9250	0	32.2440	0	24.973	0	48.583	0	-1e10	1	-1e10	1	-1E+10	1	-1e10	1	-1e10	1	-1E+10	1	-1E+10	1	-1E+10	1
4902624	28	C	03/28/2025	16:36	-127.308	48.111	0	49.20	0	8.9249	0	32.2440	0	24.973	0	48.781	0	253.2	4	88.3	4	-1E+10	1	0.5451	4	0.000737	0	-1E+10	1	-1E+10	1	-1E+10	1
4902624	28	C	03/28/2025	16:36	-127.308	48.111	0	50.10	0	8.9244	0	32.2440	0	24.973	0	49.673	0	252.5	4	88.1	4	-1E+10	1	0.5305	4	0.000695	0	-1E+10	1	-1E+10	1	-1E+10	1
4902624	28	C	03/28/2025	16:36	-127.308	48.111	0	51.00	0	8.9240	0	32.2440	0	24.974	0	50.565	0	-1e10	1	-1e10	1	-1E+10	1	-1e10	1	-1e10	1	-1E+10	1	-1E+10	1	-1E+10	1
4902624	28	C	03/28/2025	16:36	-127.308	48.111	0	51.10	0	8.9238	0	32.2440	0	24.974	0	50.664	0	251.7	4	87.8	4	-1E+10	1	0.4964	4	0.000658	0	-1E+10	1	-1E+10	1	-1E+10	1
4902624	28	C	03/28/2025	16:36	-127.308	48.111	0	52.00	0	8.9220	0	32.2445	0	24.974	0	51.557	0	250.8	4	87.5	4	-1E+10	1	0.5170	4	0.000708	0	-1E+10	1	-1E+10	1	-1E+10	1
4902624	28	C	03/28/2025	16:36	-127.308	48.111	0	52.90	0	8.9202	0	32.2449	0	24.975	0	52.449	0	249.9	4	87.2	4	-1E+10	1	0.5402	4	0.000756	0	-1E+10	1	-1E+10	1	-1E+10	1
4902624	28	C	03/28/2025	16:36	-127.308	48.111	0	53.00	0	8.9200	0	32.2450	0	24.975	0	52.548	0	-1e10	1	-1e10	1	-1E+10	1	-1e10	1	-1e10	1	-1E+10	1	-1E+10	1	-1E+10	1
4902624	28	C	03/28/2025	16:36	-127.308	48.111	0	53.80	0	8.9116	0	32.2466	0	24.978	0	53.341	0	248.9	4	86.8	4	-1E+10	1	0.5293	4	0.000742	0	-1E+10	1	-1E+10	1	-1E+10	1
4902624	28	C	03/28/2025	16:36	-127.308	48.111	0	54.70	0	8.9022	0	32.2484	0	24.980	0	54.233	0	247.9	4	86.4	4	-1E+10	1	0.5001	4	0.000707	0	-1E+10	1	-1E+10	1	-1E+10	1
4902624	28	C	03/28/2025	16:36	-127.308	48.111	0	55.00	0	8.8990	0	32.2490	0	24.981	0	54.531	0	-1e10	1	-1e10	1	-1E+10	1	-1e10	1	-1e10	1	-1E+10	1	-1E+10	1	-1E+10	1
4902624	28	C	03/28/2025	16:36	-127.308	48.111	0	55.70	0	8.8920	0	32.2500	0	24.983	0	55.225	0	246.7	4	86.0	4	-1E+10	1	0.4818	4	0.000698	0	-1E+10	1	-1E+10	1	-1E+10	1
4902624	28	C	03/28/2025	16:36	-127.308	48.111	0	56.60	0	8.8830	0	32.2514	0	24.986	0	56.117	0	245.4	4	85.5	4	-1E+10	1	0.5110	4	0.000791	0	-1E+10	1	-1E+10	1	-1E+10	1
4902624	28	C	03/28/2025	16:36	-127.308	48.111	0	57.00	0	8.8790	0	32.2520	0	24.987	0	56.513	0	-1e10	1	-1e10	1	-1E+10	1	-1e10	1	-1e10	1	-1E+10	1	-1E+10	1	-1E+10	1
4902624	28	C	03/28/2025	16:36	-127.308	48.111	0	57.60	0	8.8700	0	32.2538	0	24.990	0	57.108	0	244.1	4	85.0	4	-1E+10	1	0.4645	4	0.000919	0	-1E+10	1	-1E+10	1	-1E+10	1
4902624	28	C	03/28/2025	16:36	-127.308	48.111	0	58.50	0	8.8565	0	32.2565	0	24.994	0	58.000	0	242.6	4	84.5	4	-1E+10	1	0.4745	4	0.001886	0	-1E+10	1	-1E+10	1	-1E+10	1
4902624	28	C	03/28/2025	16:36	-127.308	48.111	0	59.00	0	8.8490	0	32.2580	0	24.996	0	58.496	0	-1e10	1	-1e10	1	-1E+10	1	-1e10	1	-1e10	1	-1E+10	1	-1E+10	1	-1E+10	1
4902624	28	C	03/28/2025	16:36	-127.308	48.111	0	59.50	0	8.8440	0	32.2595	0	24.998	0	58.992	0	240.7	4	83.8	4	-1E+10	1	0.4511	4	0.001378	0	-1E+10	1	-1E+10	1	-1E+10	1
4902624	28	C	03/28/2025	16:36	-127.308	48.111	0	60.40	0	8.8350	0	32.2622	0	25.002	0	59.884	0	238.5	4	83.0	4	-1E+10	1	0.4373	4	0.000758	0	-1E+10	1	-1E+10	1	-1E+10	1
4902624	28	C	03/28/2025	16:36	-127.308	48.111	0	61.00	0	8.8290	0	32.2640	0	25.004	0	60.479	0	-1e10	1	-1e10	1	-1E+10	1	-1e10	1	-1e10	1	-1E+10	1	-1E+10	1	-1E+10	1
4902624	28	C	03/28/2025	16:36	-127.308	48.111	0	61.30	0	8.8266	0	32.2654	0	25.005	0	60.776	0	235.8	4	82.1	4	-1E+10	1	0.4393	4	0.000797	0	-1E+10	1	-1E+10	1	-1E+10	1
4902624	28	C	03/28/2025	16:36	-127.308	48.111	0	62.30	0	8.8186	0	32.2698	0	25.010	0	61.767	0	232.8	4	81.0	4	-1E+10	1	0.4234	4	0.000939	0	-1E+10	1	-1E+10	1	-1E+10	1
4902624	28	C	03/28/2025	16:36	-127.308	48.111	0	63.00	0	8.8130	0	32.2730	0	25.013	0	62.461	0	-1e10	1	-1e10	1	-1E+10	1	-1e10	1	-1e10	1	-1E+10	1	-1E+10	1	-1E+10	1
4902624	28	C	03/28/2025	16:36	-127.308	48.111	0	63.20	0	8.8119	0	32.2746	0	25.015	0	62.659	0	229.6	4	79.9	4	-1E+10	1	0.4176	4	0.001348	0	-1E+10	1	-1E+10	1	-1E+10	1
4902624	28	C	03/28/2025	16:36	-127.308	48.111	0	64.00	0	8.8075	0	32.2810	0	25.021	0	63.452	0	226.5	4	78.8	4	-1E+10	1	0.3942	4	0.000756	0	-1E+10	1	-1E+10	1	-1E+10	1
4902624	28	C	03/28/2025	16:36	-127.308	48.111	0	64.90	0	8.8026	0	32.2882	0	25.027	0	64.345	0	222.0	4	77.2	4	-1E+10	1	0.5037	4	0.001906	0	-1E+10	1	-1E+10	1	-1E+10	1
4902624	28	C	03/28/2025	16:36	-127.308	48.111	0	65.00	0	8.8020	0	32.2890	0	25.028	0	64.444	0	-1e10	1	-1e10	1	-1E+10	1	-1e10	1	-1e10	1	-1E+10	1	-1E+10	1	-1E+10	1
4902624	28	C	03/28/2025	16:36	-127.308	48.111	0	65.50	0	8.7882	0	32.3248	0	25.058	0	64.939	0	218.3	4	75.9	4	-1E+10	1	0.3660	4	0.000920	0	-1E+10	1	-1E+10	1	-1E+10	1
4902624	28	C	03/28/2025	16:36	-127.308	48.111	0	66.00	0	8.7745	0	32.3605	0	25.088	0	65.435	0	214.2	4	74.5	4	-1E+10	1	0.3188	4	0.000662	0	-1E+10	1	-1E+10	1	-1E+10	1
4902624	28	C	03/28/2025	16:36	-127.308	48.111	0	66.50	0	8.7607	0	32.3962	0	25.118	0	65.931	0	210.2	4	73.1	4	-1E+10	1	0.2935	4	0.000608	0	-1E+10	1	-1E+10	1	-1E+10	1
4902624	28	C	03/28/2025	16:36	-127.308	48.111	0	66.90	0	8.7498	0	32.4249	0	25.142	0	66.327	0	207.5	4	72.2	4	-1E+10	1	0.2701	4	0.000608	0	-1E+10	1	-1E+10	1	-1E+10	1
4902624	28	C	03/28/2025	16:36	-127.308	48.111	0	67.00	0	8.7470	0	32.4320	0	25.148	0	66.426	0	-1e10	1	-1e10	1	-1E+10	1	-1e10	1	-1e10	1	-1E+10	1	-1E+10	1	-1E+10	1
4902624	28	C	03/28/2025	16:36	-127.308	48.111	0	67.40	0	8.7394	0	32.4526	0	25.165	0	66.823	0	205.4	4	71.4	4	-1E+10	1	0.2453	4	0.000601	0	-1E+10	1	-1E+10	1	-1E+10	1
4902624	28	C	03/28/2025	16:36	-127.308	48.111	0	67.80	0	8.7318	0	32.4732	0	25.183	0	67.219	0	203.5	4	70.8	4	-1E+10	1	0.2409	4	0.000587	0	-1E+10	1	-1E+10	1	-1E+10	1
4902624	28	C	03/28/2025	16:36	-127.308	48.111	0	68.20	0	8.7242	0	32.4938	0	25.200	0	67.616	0	201.5	4	70.1	4	-1E+10	1	0.2409	4	0.000615	0	-1E+10	1	-1E+10	1	-1E+10	1
4902624	28	C	03/28/2025	16:36	-127.308	48.111	0	68.70	0	8.7147	0	32.5196	0	25.222	0	68.111	0	198.6	4	69.1	4	-1E+10	1	0.2336	4	0.000557	0	-1E+10	1	-1E+10	1	-1E+10	1
4902624	28	C	03/28/2025	16:36	-127.308	48.111	0	69.00	0	8.7090	0	32.5350	0	25.235	0	68.409	0	-1e10	1	-1e10	1	-1E+10	1	-1e10	1	-1e10	1	-1E+10	1	-1E+10	1	-1E+10	1
4902624	28	C	03/28/2025	16:36	-127.308	48.111	0	69.20	0	8.7062	0	32.5452	0	25.243	0	68.607	0	194.7	4	67.7	4	-1E+10	1	0.2214	4	0.000596	0	-1E+10	1	-1E+10	1	-1E+10	1
4902624	28	C	03/28/2025	16:36	-127.308	48.111	0	69.70	0	8.6992	0	32.5707	0	25.264	0	69.103	0	190.6	4	66.3	4	-1E+10	1	0.2141	4	0.000533	0	-1E+10	1	-1E+10	1	-1E+10	1
4902624	28	C	03/28/2025	16:36	-127.308	48.111	0	70.30	0	8.6908	0	32.6013	0	25.289	0	69.697	0	187.0	4	65.0	4	-1E+10	1	0.1971	4	0.000568	0	-1E+10	1	-1E+10	1	-1E+10	1
4902624	28	C	03/28/2025	16:36	-127.308	48.111	0	70.90	0	8.6824	0	32.6319	0	25.314	0	70.292	0	183.7	4	63.9	4	-1E+10	1	0.1971	4	0.000563	0	-1E+10	1	-1E+10	1	-1E+10	1
4902624	28	C	03/28/2025	16:36	-127.308	48.111	0	71.00	0	8.6810	0	32.6370	0	25.319	0	70.391	0	-1e10	1	-1e10	1	-1E+10	1	-1e10	1	-1e10	1	-1E+10	1	-1E+10	1	-1E+10	1
4902624	28	C	03/28/2025	16:36	-127.308	48.111	0	71.60	0	8.6561	0	32.6871	0	25.362	0	70.986	0	180.8	4	62.9	4	-1E+10	1	0.1947	4	0.000510	0	-1E+10	1	-1E+10	1	-1E+10	1
4902624	28	C	03/28/2025	16:36	-127.308	48.111	0	72.30	0	8.6270	0	32.7456	0	25.412	0	71.680	0	178.7	4	62.1	4	-1E+10	1	0.1773	4	0.000493	0	-1E+10	1	-1E+10	1	-1E+10	1
4902624	28	C	03/28/2025	16:36	-127.308	48.111	0	73.00	0	8.5980	0	32.8040	0	25.462	0	72.374	0	176.1	4	61.2	4	-1E+10	1	0.1861	4	0.000539	0	-1E+10	1	-1E+10	1	-1E+10	1
4902624	28	C	03/28/2025	16:36	-127.308	48.111	0	73.70	0	8.5870	0	32.8203	0	25.477	0	73.068	0	174.4	4	60.6	4	-1E+10	1	0.1606	4	0.000580	0	-1E+10	1	-1E+10	1	-1E+10	1
4902624	28	C	03/28/2025	16:36	-127.308	48.111	0	74.50	0	8.5744	0	32.8390	0	25.493	0	73.861	0	171.6	4	59.6	4	-1E+10	1	0.1476	4	0.000549	0	-1E+10	1	-1E+10	1	-1E+10	1
4902624	28	C	03/28/2025	16:36	-127.308	48.111	0	75.10	0	8.5650	0	32.8530	0	25.506	0	74.455	0	-1e10	1	-1e10	1	-1E+10	1	-1e10	1	-1e10	1	-1E+10	1	-1E+10	1	-1E+10	1
4902624	28	C	03/28/2025	16:36	-127.308	48.111	0	75.20	0	8.5609	0	32.8582	0	25.510	0	74.555	0	168.6	4	58.6	4	-1E+10	1	0.1624	4	0.000580	0	-1E+10	1	-1E+10	1	-1E+10	1
4902624	28	C	03/28/2025	16:36	-127.308	48.111	0	76.00	0	8.5281	0	32.8994	0	25.548	0	75.348	0	165.9	4	57.6	4	-1E+10	1	0.1582	4	0.000553	0	-1E+10	1	-1E+10	1	-1E+10	1
4902624	28	C	03/28/2025	16:36	-127.308	48.111	0	76.80	0	8.4952	0	32.9407	0	25.585	0	76.141	0	163.5	4	56.8	4	-1E+10	1	0.1569	4	0.000533	0	-1E+10	1	-1E+10	1	-1E+10	1
4902624	28	C	03/28/2025	16:36	-127.308	48.111	0	77.00	0	8.4870	0	32.9510	0	25.594	0	76.339	0	-1e10	1	-1e10	1	-1E+10	1	-1e10	1	-1e10	1	-1E+10	1	-1E+10	1	-1E+10	1
4902624	28	C	03/28/2025	16:36	-127.308	48.111	0	77.60	0	8.4679	0	32.9721	0	25.614	0	76.934	0	161.5	4	56.0	4	-1E+10	1	0.1579	4	0.000529	0	-1E+10	1	-1E+10	1	-1E+10	1
4902624	28	C	03/28/2025	16:36	-127.308	48.111	0	78.50	0	8.4391	0	33.0039	0	25.643	0	77.826	0	159.3	4	55.3	4	-1E+10	1	0.1533	4	0.000530	0	-1E+10	1	-1E+10	1	-1E+10	1
4902624	28	C	03/28/2025	16:36	-127.308	48.111	0	79.10	0	8.4200	0	33.0250	0	25.662	0	78.420	0	-1e10	1	-1e10	1	-1E+10	1	-1e10	1	-1e10	1	-1E+10	1	-1E+10	1	-1E+10	1
4902624	28	C	03/28/2025	16:36	-127.308	48.111	0	79.40	0	8.4086	0	33.0383	0	25.674	0	78.718	0	157.2	4	54.5	4	-1E+10	1	0.1497	4	0.000539	0	-1E+10	1	-1E+10	1	-1E+10	1
4902624	28	C	03/28/2025	16:36	-127.308	48.111	0	80.40	0	8.3707	0	33.0825	0	25.715	0	79.709	0	154.8	4	53.7	4	-1E+10	1	0.1314	4	0.000510	0	-1E+10	1	-1E+10	1	-1E+10	1
4902624	28	C	03/28/2025	16:36	-127.308	48.111	0	81.00	0	8.3480	0	33.1090	0	25.739	0	80.304	0	-1e10	1	-1e10	1	-1E+10	1	-1e10	1	-1e10	1	-1E+10	1	-1E+10	1	-1E+10	1
4902624	28	C	03/28/2025	16:36	-127.308	48.111	0	81.30	0	8.3434	0	33.1152	0	25.745	0	80.601	0	153.1	4	53.1	4	-1E+10	1	0.1168	4	0.000498	0	-1E+10	1	-1E+10	1	-1E+10	1
4902624	28	C	03/28/2025	16:36	-127.308	48.111	0	82.20	0	8.3297	0	33.1336	0	25.761	0	81.493	0	151.4	4	52.5	4	-1E+10	1	0.1347	4	0.001285	0	-1E+10	1	-1E+10	1	-1E+10	1
4902624	28	C	03/28/2025	16:36	-127.308	48.111	0	82.90	0	8.3190	0	33.1480	0	25.774	0	82.187	0	-1e10	1	-1e10	1	-1E+10	1	-1e10	1	-1e10	1	-1E+10	1	-1E+10	1	-1E+10	1
4902624	28	C	03/28/2025	16:36	-127.308	48.111	0	83.20	0	8.3172	0	33.1559	0	25.780	0	82.484	0	149.7	4	51.8	4	-1E+10	1	0.1338	4	0.000803	0	-1E+10	1	-1E+10	1	-1E+10	1
4902624	28	C	03/28/2025	16:36	-127.308	48.111	0	84.20	0	8.3112	0	33.1824	0	25.802	0	83.476	0	148.0	4	51.3	4	-1E+10	1	0.1270	4	0.000460	0	-1E+10	1	-1E+10	1	-1E+10	1
4902624	28	C	03/28/2025	16:36	-127.308	48.111	0	84.90	0	8.3070	0	33.2010	0	25.817	0	84.169	0	-1e10	1	-1e10	1	-1E+10	1	-1e10	1	-1e10	1	-1E+10	1	-1E+10	1	-1E+10	1
4902624	28	C	03/28/2025	16:36	-127.308	48.111	0	85.20	0	8.3069	0	33.2071	0	25.822	0	84.467	0	146.5	4	50.7	4	-1E+10	1	0.1168	4	0.000463	0	-1E+10	1	-1E+10	1	-1E+10	1
4902624	28	C	03/28/2025	16:36	-127.308	48.111	0	86.20	0	8.3064	0	33.2276	0	25.838	0	85.458	0	144.9	4	50.2	4	-1E+10	1	0.1144	4	0.000466	0	-1E+10	1	-1E+10	1	-1E+10	1
4902624	28	C	03/28/2025	16:36	-127.308	48.111	0	87.00	0	8.3060	0	33.2440	0	25.851	0	86.251	0	-1e10	1	-1e10	1	-1E+10	1	-1e10	1	-1e10	1	-1E+10	1	-1E+10	1	-1E+10	1
4902624	28	C	03/28/2025	16:36	-127.308	48.111	0	87.20	0	8.2998	0	33.2501	0	25.857	0	86.449	0	143.3	4	49.6	4	-1E+10	1	0.1212	4	0.000442	0	-1E+10	1	-1E+10	1	-1E+10	1
4902624	28	C	03/28/2025	16:36	-127.308	48.111	0	88.20	0	8.2687	0	33.2806	0	25.886	0	87.440	0	141.5	4	49.0	4	-1E+10	1	0.1061	4	0.000421	0	-1E+10	1	-1E+10	1	-1E+10	1
4902624	28	C	03/28/2025	16:36	-127.308	48.111	0	88.90	0	8.2470	0	33.3020	0	25.906	0	88.134	0	-1e10	1	-1e10	1	-1E+10	1	-1e10	1	-1e10	1	-1E+10	1	-1E+10	1	-1E+10	1
4902624	28	C	03/28/2025	16:36	-127.308	48.111	0	89.30	0	8.2238	0	33.3129	0	25.918	0	88.531	0	140.2	4	48.5	4	-1E+10	1	0.0876	4	0.000451	0	-1E+10	1	-1E+10	1	-1E+10	1
4902624	28	C	03/28/2025	16:36	-127.308	48.111	0	90.50	0	8.1540	0	33.3454	0	25.953	0	89.720	0	139.1	4	48.1	4	-1E+10	1	0.0813	4	0.000431	0	-1E+10	1	-1E+10	1	-1E+10	1
4902624	28	C	03/28/2025	16:36	-127.308	48.111	0	91.00	0	8.1250	0	33.3590	0	25.968	0	90.216	0	-1e10	1	-1e10	1	-1E+10	1	-1e10	1	-1e10	1	-1E+10	1	-1E+10	1	-1E+10	1
4902624	28	C	03/28/2025	16:36	-127.308	48.111	0	91.70	0	8.1124	0	33.3688	0	25.978	0	90.909	0	138.3	4	47.8	4	-1E+10	1	0.0803	4	0.000476	0	-1E+10	1	-1E+10	1	-1E+10	1
4902624	28	C	03/28/2025	16:36	-127.308	48.111	0	92.80	0	8.0926	0	33.3842	0	25.993	0	92.000	0	137.5	4	47.5	4	-1E+10	1	0.0803	4	0.000437	0	-1E+10	1	-1E+10	1	-1E+10	1
4902624	28	C	03/28/2025	16:36	-127.308	48.111	0	93.00	0	8.0890	0	33.3870	0	25.996	0	92.198	0	-1e10	1	-1e10	1	-1E+10	1	-1e10	1	-1e10	1	-1E+10	1	-1E+10	1	-1E+10	1
4902624	28	C	03/28/2025	16:36	-127.308	48.111	0	93.80	0	8.0870	0	33.3942	0	26.002	0	92.991	0	136.8	4	47.2	4	-1E+10	1	0.0803	4	0.000486	0	-1E+10	1	-1E+10	1	-1E+10	1
4902624	28	C	03/28/2025	16:36	-127.308	48.111	0	94.70	0	8.0847	0	33.4023	0	26.008	0	93.883	0	136.1	4	47.0	4	-1E+10	1	0.0748	4	0.000499	0	-1E+10	1	-1E+10	1	-1E+10	1
4902624	28	C	03/28/2025	16:36	-127.308	48.111	0	95.00	0	8.0840	0	33.4050	0	26.011	0	94.180	0	-1e10	1	-1e10	1	-1E+10	1	-1e10	1	-1e10	1	-1E+10	1	-1E+10	1	-1E+10	1
4902624	28	C	03/28/2025	16:36	-127.308	48.111	0	95.50	0	8.0805	0	33.4120	0	26.017	0	94.676	0	135.4	4	46.7	4	-1E+10	1	0.0657	4	0.000399	0	-1E+10	1	-1E+10	1	-1E+10	1
4902624	28	C	03/28/2025	16:36	-127.308	48.111	0	96.20	0	8.0756	0	33.4218	0	26.025	0	95.370	0	134.8	4	46.5	4	-1E+10	1	0.0684	4	0.000471	0	-1E+10	1	-1E+10	1	-1E+10	1
4902624	28	C	03/28/2025	16:36	-127.308	48.111	0	96.90	0	8.0707	0	33.4316	0	26.033	0	96.063	0	134.2	4	46.3	4	-1E+10	1	0.0712	4	0.000556	0	-1E+10	1	-1E+10	1	-1E+10	1
4902624	28	C	03/28/2025	16:36	-127.308	48.111	0	97.00	0	8.0700	0	33.4330	0	26.035	0	96.162	0	-1e10	1	-1e10	1	-1E+10	1	-1e10	1	-1e10	1	-1E+10	1	-1E+10	1	-1E+10	1
4902624	28	C	03/28/2025	16:36	-127.308	48.111	0	97.60	0	8.0640	0	33.4414	0	26.042	0	96.757	0	133.8	4	46.2	4	-1E+10	1	0.0648	4	0.000422	0	-1E+10	1	-1E+10	1	-1E+10	1
4902624	28	C	03/28/2025	16:36	-127.308	48.111	0	98.30	0	8.0570	0	33.4512	0	26.051	0	97.451	0	133.4	4	46.0	4	-1E+10	1	0.0584	4	0.000463	0	-1E+10	1	-1E+10	1	-1E+10	1
4902624	28	C	03/28/2025	16:36	-127.308	48.111	0	99.00	0	8.0500	0	33.4610	0	26.060	0	98.145	0	-1e10	1	-1e10	1	-1E+10	1	-1e10	1	-1e10	1	-1E+10	1	-1E+10	1	-1E+10	1
4902624	28	C	03/28/2025	16:36	-127.308	48.111	0	99.10	0	8.0490	0	33.4613	0	26.060	0	98.244	0	133.0	4	45.9	4	-1E+10	1	0.0642	4	0.000425	0	-1E+10	1	-1E+10	1	-1E+10	1
4902624	28	C	03/28/2025	16:36	-127.308	48.111	0	99.90	0	8.0410	0	33.4641	0	26.063	0	99.037	0	132.5	4	45.7	4	-1E+10	1	0.0845	4	0.000456	0	-1E+10	1	-1E+10	1	-1E+10	1
4902624	28	C	03/28/2025	16:36	-127.308	48.111	0	100.60	0	8.0340	0	33.4666	0	26.066	0	99.730	0	131.9	4	45.5	4	-1E+10	1	0.0730	4	0.000439	0	-1E+10	1	-1E+10	1	-1E+10	1
4902624	28	C	03/28/2025	16:36	-127.308	48.111	0	101.00	0	8.0300	0	33.4680	0	26.068	0	100.127	0	-1e10	1	-1e10	1	-1E+10	1	-1e10	1	-1e10	1	-1E+10	1	-1E+10	1	-1E+10	1
4902624	28	C	03/28/2025	16:36	-127.308	48.111	0	101.40	0	8.0108	0	33.4750	0	26.076	0	100.523	0	131.2	4	45.2	4	-1E+10	1	0.0694	4	0.000674	0	-1E+10	1	-1E+10	1	-1E+10	1
4902624	28	C	03/28/2025	16:36	-127.308	48.111	0	102.20	0	7.9724	0	33.4890	0	26.093	0	101.316	0	130.5	4	44.9	4	-1E+10	1	0.0675	4	0.000731	0	-1E+10	1	-1E+10	1	-1E+10	1
4902624	28	C	03/28/2025	16:36	-127.308	48.111	0	103.00	0	7.9340	0	33.5030	0	26.110	0	102.109	0	128.7	4	44.3	4	-1E+10	1	0.0584	4	0.000427	0	-1E+10	1	-1E+10	1	-1E+10	1
4902624	28	C	03/28/2025	16:36	-127.308	48.111	0	103.80	0	7.9100	0	33.5156	0	26.123	0	102.902	0	129.2	4	44.5	4	-1E+10	1	0.0584	4	0.000465	0	-1E+10	1	-1E+10	1	-1E+10	1
4902624	28	C	03/28/2025	16:36	-127.308	48.111	0	104.60	0	7.8860	0	33.5281	0	26.136	0	103.695	0	128.5	4	44.2	4	-1E+10	1	0.0584	4	0.000521	0	-1E+10	1	-1E+10	1	-1E+10	1
4902624	28	C	03/28/2025	16:36	-127.308	48.111	0	105.10	0	7.8710	0	33.5360	0	26.145	0	104.190	0	-1e10	1	-1e10	1	-1E+10	1	-1e10	1	-1e10	1	-1E+10	1	-1E+10	1	-1E+10	1
4902624	28	C	03/28/2025	16:36	-127.308	48.111	0	105.50	0	7.8573	0	33.5415	0	26.151	0	104.587	0	128.0	4	44.0	4	-1E+10	1	0.0584	4	0.000498	0	-1E+10	1	-1E+10	1	-1E+10	1
4902624	28	C	03/28/2025	16:36	-127.308	48.111	0	106.30	0	7.8299	0	33.5524	0	26.164	0	105.380	0	127.7	4	43.9	4	-1E+10	1	0.0584	4	0.000425	0	-1E+10	1	-1E+10	1	-1E+10	1
4902624	28	C	03/28/2025	16:36	-127.308	48.111	0	107.00	0	7.8060	0	33.5620	0	26.175	0	106.074	0	-1e10	1	-1e10	1	-1E+10	1	-1e10	1	-1e10	1	-1E+10	1	-1E+10	1	-1E+10	1
4902624	28	C	03/28/2025	16:36	-127.308	48.111	0	107.10	0	7.8052	0	33.5624	0	26.175	0	106.173	0	127.3	4	43.7	4	-1E+10	1	0.0584	4	0.000424	0	-1E+10	1	-1E+10	1	-1E+10	1
4902624	28	C	03/28/2025	16:36	-127.308	48.111	0	107.90	0	7.7989	0	33.5653	0	26.178	0	106.965	0	126.9	4	43.6	4	-1E+10	1	0.0630	4	0.000413	0	-1E+10	1	-1E+10	1	-1E+10	1
4902624	28	C	03/28/2025	16:36	-127.308	48.111	0	108.70	0	7.7926	0	33.5683	0	26.182	0	107.758	0	126.4	4	43.4	4	-1E+10	1	0.0584	4	0.000421	0	-1E+10	1	-1E+10	1	-1E+10	1
4902624	28	C	03/28/2025	16:36	-127.308	48.111	0	108.90	0	7.7910	0	33.5690	0	26.182	0	107.957	0	-1e10	1	-1e10	1	-1E+10	1	-1e10	1	-1e10	1	-1E+10	1	-1E+10	1	-1E+10	1
4902624	28	C	03/28/2025	16:36	-127.308	48.111	0	109.50	0	7.7856	0	33.5721	0	26.186	0	108.551	0	126.0	4	43.2	4	-1E+10	1	0.0511	4	0.000488	0	-1E+10	1	-1E+10	1	-1E+10	1
4902624	28	C	03/28/2025	16:36	-127.308	48.111	0	110.40	0	7.7774	0	33.5769	0	26.190	0	109.443	0	125.4	4	43.1	4	-1E+10	1	0.0511	4	0.000564	0	-1E+10	1	-1E+10	1	-1E+10	1
4902624	28	C	03/28/2025	16:36	-127.308	48.111	0	111.00	0	7.7720	0	33.5800	0	26.194	0	110.038	0	-1e10	1	-1e10	1	-1E+10	1	-1e10	1	-1e10	1	-1E+10	1	-1E+10	1	-1E+10	1
4902624	28	C	03/28/2025	16:36	-127.308	48.111	0	111.20	0	7.7671	0	33.5826	0	26.196	0	110.236	0	125.0	4	42.9	4	-1E+10	1	0.0518	4	0.000424	0	-1E+10	1	-1E+10	1	-1E+10	1
4902624	28	C	03/28/2025	16:36	-127.308	48.111	0	112.10	0	7.7450	0	33.5943	0	26.209	0	111.128	0	124.6	4	42.7	4	-1E+10	1	0.0584	4	0.000392	0	-1E+10	1	-1E+10	1	-1E+10	1
4902624	28	C	03/28/2025	16:36	-127.308	48.111	0	113.00	0	7.7230	0	33.6060	0	26.221	0	112.020	0	122.8	4	42.1	4	-1E+10	1	0.0524	4	0.000373	0	-1E+10	1	-1E+10	1	-1E+10	1
4902624	28	C	03/28/2025	16:36	-127.308	48.111	0	113.90	0	7.6955	0	33.6101	0	26.228	0	112.912	0	123.6	4	42.3	4	-1E+10	1	0.0568	4	0.000360	0	-1E+10	1	-1E+10	1	-1E+10	1
4902624	28	C	03/28/2025	16:36	-127.308	48.111	0	114.70	0	7.6712	0	33.6137	0	26.235	0	113.705	0	122.9	4	42.1	4	-1E+10	1	0.0584	4	0.000371	0	-1E+10	1	-1E+10	1	-1E+10	1
4902624	28	C	03/28/2025	16:36	-127.308	48.111	0	115.00	0	7.6620	0	33.6150	0	26.237	0	114.002	0	-1e10	1	-1e10	1	-1E+10	1	-1e10	1	-1e10	1	-1E+10	1	-1E+10	1	-1E+10	1
4902624	28	C	03/28/2025	16:36	-127.308	48.111	0	115.70	0	7.6606	0	33.6199	0	26.241	0	114.696	0	122.3	4	41.9	4	-1E+10	1	0.0504	4	0.000387	0	-1E+10	1	-1E+10	1	-1E+10	1
4902624	28	C	03/28/2025	16:36	-127.308	48.111	0	116.60	0	7.6588	0	33.6262	0	26.246	0	115.588	0	121.6	4	41.6	4	-1E+10	1	0.0438	4	0.000418	0	-1E+10	1	-1E+10	1	-1E+10	1
4902624	28	C	03/28/2025	16:36	-127.308	48.111	0	117.00	0	7.6580	0	33.6290	0	26.249	0	115.984	0	-1e10	1	-1e10	1	-1E+10	1	-1e10	1	-1e10	1	-1E+10	1	-1E+10	1	-1E+10	1
4902624	28	C	03/28/2025	16:36	-127.308	48.111	0	117.50	0	7.6559	0	33.6348	0	26.254	0	116.480	0	121.1	4	41.5	4	-1E+10	1	0.0465	4	0.000434	0	-1E+10	1	-1E+10	1	-1E+10	1
4902624	28	C	03/28/2025	16:36	-127.308	48.111	0	118.40	0	7.6521	0	33.6452	0	26.262	0	117.372	0	120.6	4	41.3	4	-1E+10	1	0.0498	4	0.000402	0	-1E+10	1	-1E+10	1	-1E+10	1
4902624	28	C	03/28/2025	16:36	-127.308	48.111	0	118.90	0	7.6500	0	33.6510	0	26.267	0	117.867	0	-1e10	1	-1e10	1	-1E+10	1	-1e10	1	-1e10	1	-1E+10	1	-1E+10	1	-1E+10	1
4902624	28	C	03/28/2025	16:36	-127.308	48.111	0	119.30	0	7.6411	0	33.6537	0	26.271	0	118.264	0	120.0	4	41.1	4	-1E+10	1	0.0438	4	0.000392	0	-1E+10	1	-1E+10	1	-1E+10	1
4902624	28	C	03/28/2025	16:36	-127.308	48.111	0	120.30	0	7.6188	0	33.6605	0	26.279	0	119.255	0	119.4	4	40.9	4	-1E+10	1	0.0584	4	0.000380	0	-1E+10	1	-1E+10	1	-1E+10	1
4902624	28	C	03/28/2025	16:36	-127.308	48.111	0	121.10	0	7.6010	0	33.6660	0	26.286	0	120.047	0	-1e10	1	-1e10	1	-1E+10	1	-1e10	1	-1e10	1	-1E+10	1	-1E+10	1	-1E+10	1
4902624	28	C	03/28/2025	16:36	-127.308	48.111	0	121.20	0	7.5981	0	33.6671	0	26.287	0	120.146	0	118.8	4	40.6	4	-1E+10	1	0.0524	4	0.000390	0	-1E+10	1	-1E+10	1	-1E+10	1
4902624	28	C	03/28/2025	16:36	-127.308	48.111	0	122.10	0	7.5720	0	33.6770	0	26.299	0	121.038	0	118.2	4	40.4	4	-1E+10	1	0.0650	4	0.000414	0	-1E+10	1	-1E+10	1	-1E+10	1
4902624	28	C	03/28/2025	16:36	-127.308	48.111	0	123.00	0	7.5459	0	33.6869	0	26.310	0	121.930	0	117.7	4	40.2	4	-1E+10	1	0.0649	4	0.000382	0	-1E+10	1	-1E+10	1	-1E+10	1
4902624	28	C	03/28/2025	16:36	-127.308	48.111	0	123.10	0	7.5430	0	33.6880	0	26.312	0	122.029	0	-1e10	1	-1e10	1	-1E+10	1	-1e10	1	-1e10	1	-1E+10	1	-1E+10	1	-1E+10	1
4902624	28	C	03/28/2025	16:36	-127.308	48.111	0	123.90	0	7.5266	0	33.7000	0	26.323	0	122.822	0	117.0	4	40.0	4	-1E+10	1	0.0584	4	0.000366	0	-1E+10	1	-1E+10	1	-1E+10	1
4902624	28	C	03/28/2025	16:36	-127.308	48.111	0	124.90	0	7.5060	0	33.7150	0	26.338	0	123.813	0	115.1	4	39.3	4	-1E+10	1	0.0584	4	0.000396	0	-1E+10	1	-1E+10	1	-1E+10	1
4902624	28	C	03/28/2025	16:36	-127.308	48.111	0	125.90	0	7.4931	0	33.7240	0	26.347	0	124.804	0	115.8	4	39.5	4	-1E+10	1	0.0569	4	0.000397	0	-1E+10	1	-1E+10	1	-1E+10	1
4902624	28	C	03/28/2025	16:36	-127.308	48.111	0	126.90	0	7.4803	0	33.7331	0	26.356	0	125.795	0	115.1	4	39.3	4	-1E+10	1	0.0498	4	0.000383	0	-1E+10	1	-1E+10	1	-1E+10	1
4902624	28	C	03/28/2025	16:36	-127.308	48.111	0	127.00	0	7.4790	0	33.7340	0	26.357	0	125.894	0	-1e10	1	-1e10	1	-1E+10	1	-1e10	1	-1e10	1	-1E+10	1	-1E+10	1	-1E+10	1
4902624	28	C	03/28/2025	16:36	-127.308	48.111	0	127.80	0	7.4718	0	33.7378	0	26.361	0	126.687	0	114.4	4	39.0	4	-1E+10	1	0.0438	4	0.000451	0	-1E+10	1	-1E+10	1	-1E+10	1
4902624	28	C	03/28/2025	16:36	-127.308	48.111	0	128.80	0	7.4629	0	33.7425	0	26.366	0	127.678	0	113.8	4	38.8	4	-1E+10	1	0.0560	4	0.000627	0	-1E+10	1	-1E+10	1	-1E+10	1
4902624	28	C	03/28/2025	16:36	-127.308	48.111	0	128.90	0	7.4620	0	33.7430	0	26.366	0	127.777	0	-1e10	1	-1e10	1	-1E+10	1	-1e10	1	-1e10	1	-1E+10	1	-1E+10	1	-1E+10	1
4902624	28	C	03/28/2025	16:36	-127.308	48.111	0	129.80	0	7.4620	0	33.7484	0	26.371	0	128.669	0	113.3	4	38.7	4	-1E+10	1	0.0467	4	0.000446	0	-1E+10	1	-1E+10	1	-1E+10	1
4902624	28	C	03/28/2025	16:36	-127.308	48.111	0	130.80	0	7.4620	0	33.7544	0	26.375	0	129.660	0	112.8	4	38.5	4	-1E+10	1	0.0535	4	0.000376	0	-1E+10	1	-1E+10	1	-1E+10	1
4902624	28	C	03/28/2025	16:36	-127.308	48.111	0	130.90	0	7.4620	0	33.7550	0	26.376	0	129.759	0	-1e10	1	-1e10	1	-1E+10	1	-1e10	1	-1e10	1	-1E+10	1	-1E+10	1	-1E+10	1
4902624	28	C	03/28/2025	16:36	-127.308	48.111	0	131.80	0	7.4608	0	33.7587	0	26.379	0	130.651	0	112.4	4	38.4	4	-1E+10	1	0.0511	4	0.000392	0	-1E+10	1	-1E+10	1	-1E+10	1
4902624	28	C	03/28/2025	16:36	-127.308	48.111	0	132.80	0	7.4594	0	33.7628	0	26.382	0	131.642	0	112.1	4	38.3	4	-1E+10	1	0.0438	4	0.000389	0	-1E+10	1	-1E+10	1	-1E+10	1
4902624	28	C	03/28/2025	16:36	-127.308	48.111	0	133.10	0	7.4590	0	33.7640	0	26.383	0	131.939	0	-1e10	1	-1e10	1	-1E+10	1	-1e10	1	-1e10	1	-1E+10	1	-1E+10	1	-1E+10	1
4902624	28	C	03/28/2025	16:36	-127.308	48.111	0	133.80	0	7.4563	0	33.7679	0	26.387	0	132.633	0	111.8	4	38.2	4	-1E+10	1	0.0468	4	0.000367	0	-1E+10	1	-1E+10	1	-1E+10	1
4902624	28	C	03/28/2025	16:36	-127.308	48.111	0	134.70	0	7.4528	0	33.7729	0	26.391	0	133.525	0	111.5	4	38.1	4	-1E+10	1	0.0511	4	0.000392	0	-1E+10	1	-1E+10	1	-1E+10	1
4902624	28	C	03/28/2025	16:36	-127.308	48.111	0	134.90	0	7.4520	0	33.7740	0	26.392	0	133.723	0	-1e10	1	-1e10	1	-1E+10	1	-1e10	1	-1e10	1	-1E+10	1	-1E+10	1	-1E+10	1
4902624	28	C	03/28/2025	16:36	-127.308	48.111	0	135.70	0	7.4470	0	33.7759	0	26.394	0	134.516	0	111.2	4	37.9	4	-1E+10	1	0.0511	4	0.000451	0	-1E+10	1	-1E+10	1	-1E+10	1
4902624	28	C	03/28/2025	16:36	-127.308	48.111	0	136.60	0	7.4415	0	33.7780	0	26.397	0	135.408	0	110.7	4	37.8	4	-1E+10	1	0.0657	4	0.000427	0	-1E+10	1	-1E+10	1	-1E+10	1
4902624	28	C	03/28/2025	16:36	-127.308	48.111	0	137.00	0	7.4390	0	33.7790	0	26.398	0	135.804	0	-1e10	1	-1e10	1	-1E+10	1	-1e10	1	-1e10	1	-1E+10	1	-1E+10	1	-1E+10	1
4902624	28	C	03/28/2025	16:36	-127.308	48.111	0	137.60	0	7.4370	0	33.7796	0	26.399	0	136.398	0	110.2	4	37.6	4	-1E+10	1	0.0535	4	0.000398	0	-1E+10	1	-1E+10	1	-1E+10	1
4902624	28	C	03/28/2025	16:36	-127.308	48.111	0	138.60	0	7.4337	0	33.7805	0	26.400	0	137.389	0	109.6	4	37.4	4	-1E+10	1	0.0560	4	0.000408	0	-1E+10	1	-1E+10	1	-1E+10	1
4902624	28	C	03/28/2025	16:36	-127.308	48.111	0	139.10	0	7.4320	0	33.7810	0	26.401	0	137.885	0	-1e10	1	-1e10	1	-1E+10	1	-1e10	1	-1e10	1	-1E+10	1	-1E+10	1	-1E+10	1
4902624	28	C	03/28/2025	16:36	-127.308	48.111	0	139.50	0	7.4320	0	33.7816	0	26.401	0	138.281	0	109.0	4	37.2	4	-1E+10	1	0.0548	4	0.000392	0	-1E+10	1	-1E+10	1	-1E+10	1
4902624	28	C	03/28/2025	16:36	-127.308	48.111	0	140.50	0	7.4320	0	33.7832	0	26.402	0	139.272	0	108.2	4	36.9	4	-1E+10	1	0.0511	4	0.000384	0	-1E+10	1	-1E+10	1	-1E+10	1
4902624	28	C	03/28/2025	16:36	-127.308	48.111	0	141.00	0	7.4320	0	33.7840	0	26.403	0	139.768	0	-1e10	1	-1e10	1	-1E+10	1	-1e10	1	-1e10	1	-1E+10	1	-1E+10	1	-1E+10	1
4902624	28	C	03/28/2025	16:36	-127.308	48.111	0	141.50	0	7.4299	0	33.7874	0	26.406	0	140.263	0	107.3	4	36.6	4	-1E+10	1	0.0511	4	0.000404	0	-1E+10	1	-1E+10	1	-1E+10	1
4902624	28	C	03/28/2025	16:36	-127.308	48.111	0	142.40	0	7.4261	0	33.7936	0	26.411	0	141.155	0	106.4	4	36.3	4	-1E+10	1	0.0511	4	0.000406	0	-1E+10	1	-1E+10	1	-1E+10	1
4902624	28	C	03/28/2025	16:36	-127.308	48.111	0	142.90	0	7.4240	0	33.7970	0	26.414	0	141.650	0	-1e10	1	-1e10	1	-1E+10	1	-1e10	1	-1e10	1	-1E+10	1	-1E+10	1	-1E+10	1
4902624	28	C	03/28/2025	16:36	-127.308	48.111	0	143.40	0	7.4170	0	33.8018	0	26.419	0	142.146	0	105.8	4	36.1	4	-1E+10	1	0.0511	4	0.000417	0	-1E+10	1	-1E+10	1	-1E+10	1
4902624	28	C	03/28/2025	16:36	-127.308	48.111	0	144.40	0	7.4029	0	33.8113	0	26.429	0	143.137	0	105.2	4	35.9	4	-1E+10	1	0.0511	4	0.000427	0	-1E+10	1	-1E+10	1	-1E+10	1
4902624	28	C	03/28/2025	16:36	-127.308	48.111	0	145.10	0	7.3930	0	33.8180	0	26.435	0	143.830	0	-1e10	1	-1e10	1	-1E+10	1	-1e10	1	-1e10	1	-1E+10	1	-1E+10	1	-1E+10	1
4902624	28	C	03/28/2025	16:36	-127.308	48.111	0	145.30	0	7.3926	0	33.8184	0	26.436	0	144.029	0	104.6	4	35.6	4	-1E+10	1	0.0511	4	0.000398	0	-1E+10	1	-1E+10	1	-1E+10	1
4902624	28	C	03/28/2025	16:36	-127.308	48.111	0	146.30	0	7.3905	0	33.8205	0	26.438	0	145.019	0	103.9	4	35.4	4	-1E+10	1	0.0511	4	0.000382	0	-1E+10	1	-1E+10	1	-1E+10	1
4902624	28	C	03/28/2025	16:36	-127.308	48.111	0	147.00	0	7.3890	0	33.8220	0	26.439	0	145.713	0	-1e10	1	-1e10	1	-1E+10	1	-1e10	1	-1e10	1	-1E+10	1	-1E+10	1	-1E+10	1
4902624	28	C	03/28/2025	16:36	-127.308	48.111	0	147.30	0	7.3847	0	33.8240	0	26.441	0	146.010	0	103.3	4	35.2	4	-1E+10	1	0.0511	4	0.000372	0	-1E+10	1	-1E+10	1	-1E+10	1
4902624	28	C	03/28/2025	16:36	-127.308	48.111	0	148.30	0	7.3704	0	33.8307	0	26.448	0	147.001	0	102.7	4	35.0	4	-1E+10	1	0.0548	4	0.000386	0	-1E+10	1	-1E+10	1	-1E+10	1
4902624	28	C	03/28/2025	16:36	-127.308	48.111	0	149.10	0	7.3590	0	33.8360	0	26.454	0	147.794	0	-1e10	1	-1e10	1	-1E+10	1	-1e10	1	-1e10	1	-1E+10	1	-1E+10	1	-1E+10	1
4902624	28	C	03/28/2025	16:36	-127.308	48.111	0	149.30	0	7.3561	0	33.8366	0	26.455	0	147.992	0	102.3	4	34.8	4	-1E+10	1	0.0584	4	0.000389	0	-1E+10	1	-1E+10	1	-1E+10	1
4902624	28	C	03/28/2025	16:36	-127.308	48.111	0	150.30	0	7.3413	0	33.8398	0	26.460	0	148.983	0	101.9	4	34.7	4	-1E+10	1	0.0560	4	0.000384	0	-1E+10	1	-1E+10	1	-1E+10	1
4902624	28	C	03/28/2025	16:36	-127.308	48.111	0	151.00	0	7.3310	0	33.8420	0	26.463	0	149.677	0	-1e10	1	-1e10	1	-1E+10	1	-1e10	1	-1e10	1	-1E+10	1	-1E+10	1	-1E+10	1
4902624	28	C	03/28/2025	16:36	-127.308	48.111	0	151.30	0	7.3289	0	33.8430	0	26.464	0	149.974	0	101.6	4	34.6	4	-1E+10	1	0.0511	4	0.000427	0	-1E+10	1	-1E+10	1	-1E+10	1
4902624	28	C	03/28/2025	16:36	-127.308	48.111	0	152.30	0	7.3219	0	33.8465	0	26.468	0	150.965	0	101.3	4	34.5	4	-1E+10	1	0.0511	4	0.000486	0	-1E+10	1	-1E+10	1	-1E+10	1
4902624	28	C	03/28/2025	16:36	-127.308	48.111	0	153.00	0	7.3170	0	33.8490	0	26.470	0	151.658	0	-1e10	1	-1e10	1	-1E+10	1	-1e10	1	-1e10	1	-1E+10	1	-1E+10	1	-1E+10	1
4902624	28	C	03/28/2025	16:36	-127.308	48.111	0	153.30	0	7.3131	0	33.8496	0	26.471	0	151.956	0	100.9	4	34.3	4	-1E+10	1	0.0657	4	0.000978	0	-1E+10	1	-1E+10	1	-1E+10	1
4902624	28	C	03/28/2025	16:36	-127.308	48.111	0	154.40	0	7.2988	0	33.8518	0	26.475	0	153.046	0	100.7	4	34.3	4	-1E+10	1	0.0365	4	0.001788	0	-1E+10	1	-1E+10	1	-1E+10	1
4902624	28	C	03/28/2025	16:36	-127.308	48.111	0	155.00	0	7.2910	0	33.8530	0	26.477	0	153.640	0	-1e10	1	-1e10	1	-1E+10	1	-1e10	1	-1e10	1	-1E+10	1	-1E+10	1	-1E+10	1
4902624	28	C	03/28/2025	16:36	-127.308	48.111	0	155.40	0	7.2864	0	33.8532	0	26.478	0	154.036	0	100.4	4	34.2	4	-1E+10	1	0.0426	4	0.000654	0	-1E+10	1	-1E+10	1	-1E+10	1
4902624	28	C	03/28/2025	16:36	-127.308	48.111	0	156.40	0	7.2749	0	33.8537	0	26.480	0	155.027	0	100.0	4	34.0	4	-1E+10	1	0.0491	4	0.000495	0	-1E+10	1	-1E+10	1	-1E+10	1
4902624	28	C	03/28/2025	16:36	-127.308	48.111	0	157.00	0	7.2680	0	33.8540	0	26.481	0	155.622	0	-1e10	1	-1e10	1	-1E+10	1	-1e10	1	-1e10	1	-1E+10	1	-1E+10	1	-1E+10	1
4902624	28	C	03/28/2025	16:36	-127.308	48.111	0	157.50	0	7.2638	0	33.8560	0	26.483	0	156.117	0	99.7	4	33.9	4	-1E+10	1	0.0414	4	0.000427	0	-1E+10	1	-1E+10	1	-1E+10	1
4902624	28	C	03/28/2025	16:36	-127.308	48.111	0	158.50	0	7.2552	0	33.8600	0	26.488	0	157.108	0	99.6	4	33.9	4	-1E+10	1	0.0365	4	0.000398	0	-1E+10	1	-1E+10	1	-1E+10	1
4902624	28	C	03/28/2025	16:36	-127.308	48.111	0	159.00	0	7.2510	0	33.8620	0	26.490	0	157.603	0	-1e10	1	-1e10	1	-1E+10	1	-1e10	1	-1e10	1	-1E+10	1	-1E+10	1	-1E+10	1
4902624	28	C	03/28/2025	16:36	-127.308	48.111	0	159.50	0	7.2355	0	33.8638	0	26.494	0	158.099	0	99.6	4	33.8	4	-1E+10	1	0.0418	4	0.000437	0	-1E+10	1	-1E+10	1	-1E+10	1
4902624	28	C	03/28/2025	16:36	-127.308	48.111	0	160.60	0	7.2014	0	33.8676	0	26.501	0	159.189	0	99.7	4	33.8	4	-1E+10	1	0.0533	4	0.000445	0	-1E+10	1	-1E+10	1	-1E+10	1
4902624	28	C	03/28/2025	16:36	-127.308	48.111	0	161.00	0	7.1890	0	33.8690	0	26.504	0	159.585	0	-1e10	1	-1e10	1	-1E+10	1	-1e10	1	-1e10	1	-1E+10	1	-1E+10	1	-1E+10	1
4902624	28	C	03/28/2025	16:36	-127.308	48.111	0	161.70	0	7.1558	0	33.8676	0	26.508	0	160.279	0	99.5	4	33.8	4	-1E+10	1	0.0562	4	0.000384	0	-1E+10	1	-1E+10	1	-1E+10	1
4902624	28	C	03/28/2025	16:36	-127.308	48.111	0	162.80	0	7.1035	0	33.8654	0	26.513	0	161.369	0	99.2	4	33.6	4	-1E+10	1	0.0438	4	0.000403	0	-1E+10	1	-1E+10	1	-1E+10	1
4902624	28	C	03/28/2025	16:36	-127.308	48.111	0	163.00	0	7.0940	0	33.8650	0	26.514	0	161.567	0	-1e10	1	-1e10	1	-1E+10	1	-1e10	1	-1e10	1	-1E+10	1	-1E+10	1	-1E+10	1
4902624	28	C	03/28/2025	16:36	-127.308	48.111	0	163.80	0	7.0692	0	33.8658	0	26.518	0	162.359	0	98.9	4	33.5	4	-1E+10	1	0.0584	4	0.000333	0	-1E+10	1	-1E+10	1	-1E+10	1
4902624	28	C	03/28/2025	16:36	-127.308	48.111	0	164.90	0	7.0350	0	33.8670	0	26.524	0	163.449	0	97.2	4	32.9	4	-1E+10	1	0.0584	4	0.000403	0	-1E+10	1	-1E+10	1	-1E+10	1
4902624	28	C	03/28/2025	16:36	-127.308	48.111	0	166.00	0	7.0114	0	33.8670	0	26.527	0	164.539	0	98.0	4	33.1	4	-1E+10	1	0.0584	4	0.000370	0	-1E+10	1	-1E+10	1	-1E+10	1
4902624	28	C	03/28/2025	16:36	-127.308	48.111	0	166.90	0	6.9920	0	33.8670	0	26.530	0	165.431	0	-1e10	1	-1e10	1	-1E+10	1	-1e10	1	-1e10	1	-1E+10	1	-1E+10	1	-1E+10	1
4902624	28	C	03/28/2025	16:36	-127.308	48.111	0	167.10	0	6.9886	0	33.8677	0	26.531	0	165.629	0	97.6	4	33.0	4	-1E+10	1	0.0465	4	0.000383	0	-1E+10	1	-1E+10	1	-1E+10	1
4902624	28	C	03/28/2025	16:36	-127.308	48.111	0	168.20	0	6.9697	0	33.8713	0	26.536	0	166.719	0	97.3	4	32.9	4	-1E+10	1	0.0365	4	0.000399	0	-1E+10	1	-1E+10	1	-1E+10	1
4902624	28	C	03/28/2025	16:36	-127.308	48.111	0	169.00	0	6.9560	0	33.8740	0	26.540	0	167.512	0	-1e10	1	-1e10	1	-1E+10	1	-1e10	1	-1e10	1	-1E+10	1	-1E+10	1	-1E+10	1
4902624	28	C	03/28/2025	16:36	-127.308	48.111	0	169.30	0	6.9486	0	33.8740	0	26.541	0	167.809	0	96.9	4	32.7	4	-1E+10	1	0.0365	4	0.000373	0	-1E+10	1	-1E+10	1	-1E+10	1
4902624	28	C	03/28/2025	16:36	-127.308	48.111	0	170.50	0	6.9193	0	33.8740	0	26.545	0	168.998	0	96.4	4	32.5	4	-1E+10	1	0.0445	4	0.000356	0	-1E+10	1	-1E+10	1	-1E+10	1
4902624	28	C	03/28/2025	16:36	-127.308	48.111	0	171.00	0	6.9070	0	33.8740	0	26.547	0	169.493	0	-1e10	1	-1e10	1	-1E+10	1	-1e10	1	-1e10	1	-1E+10	1	-1E+10	1	-1E+10	1
4902624	28	C	03/28/2025	16:36	-127.308	48.111	0	171.60	0	6.9025	0	33.8761	0	26.549	0	170.088	0	96.0	4	32.4	4	-1E+10	1	0.0626	4	0.000346	0	-1E+10	1	-1E+10	1	-1E+10	1
4902624	28	C	03/28/2025	16:36	-127.308	48.111	0	172.70	0	6.8943	0	33.8800	0	26.553	0	171.177	0	95.7	4	32.3	4	-1E+10	1	0.0511	4	0.000310	0	-1E+10	1	-1E+10	1	-1E+10	1
4902624	28	C	03/28/2025	16:36	-127.308	48.111	0	173.00	0	6.8920	0	33.8810	0	26.554	0	171.475	0	-1e10	1	-1e10	1	-1E+10	1	-1e10	1	-1e10	1	-1E+10	1	-1E+10	1	-1E+10	1
4902624	28	C	03/28/2025	16:36	-127.308	48.111	0	173.80	0	6.8840	0	33.8814	0	26.556	0	172.267	0	95.5	4	32.2	4	-1E+10	1	0.0758	4	0.000389	0	-1E+10	1	-1E+10	1	-1E+10	1
4902624	28	C	03/28/2025	16:36	-127.308	48.111	0	174.90	0	6.8730	0	33.8819	0	26.558	0	173.357	0	95.2	4	32.1	4	-1E+10	1	0.0564	4	0.000332	0	-1E+10	1	-1E+10	1	-1E+10	1
4902624	28	C	03/28/2025	16:36	-127.308	48.111	0	175.10	0	6.8710	0	33.8820	0	26.558	0	173.555	0	-1e10	1	-1e10	1	-1E+10	1	-1e10	1	-1e10	1	-1E+10	1	-1E+10	1	-1E+10	1
4902624	28	C	03/28/2025	16:36	-127.308	48.111	0	176.00	0	6.8701	0	33.8852	0	26.561	0	174.447	0	95.2	4	32.1	4	-1E+10	1	0.0511	4	0.000344	0	-1E+10	1	-1E+10	1	-1E+10	1
4902624	28	C	03/28/2025	16:36	-127.308	48.111	0	177.10	0	6.8690	0	33.8890	0	26.564	0	175.537	0	93.9	4	31.7	4	-1E+10	1	0.0472	4	0.000375	0	-1E+10	1	-1E+10	1	-1E+10	1
4902624	28	C	03/28/2025	16:36	-127.308	48.111	0	178.20	0	6.8551	0	33.8890	0	26.566	0	176.627	0	95.2	4	32.1	4	-1E+10	1	0.0468	4	0.000372	0	-1E+10	1	-1E+10	1	-1E+10	1
4902624	28	C	03/28/2025	16:36	-127.308	48.111	0	179.00	0	6.8450	0	33.8890	0	26.567	0	177.419	0	-1e10	1	-1e10	1	-1E+10	1	-1e10	1	-1e10	1	-1E+10	1	-1E+10	1	-1E+10	1
4902624	28	C	03/28/2025	16:36	-127.308	48.111	0	179.30	0	6.8369	0	33.8884	0	26.568	0	177.716	0	95.1	4	32.0	4	-1E+10	1	0.0489	4	0.000345	0	-1E+10	1	-1E+10	1	-1E+10	1
4902624	28	C	03/28/2025	16:36	-127.308	48.111	0	180.50	0	6.8047	0	33.8858	0	26.570	0	178.905	0	94.7	4	31.9	4	-1E+10	1	0.0422	4	0.000345	0	-1E+10	1	-1E+10	1	-1E+10	1
4902624	28	C	03/28/2025	16:36	-127.308	48.111	0	180.90	0	6.7940	0	33.8850	0	26.571	0	179.302	0	-1e10	1	-1e10	1	-1E+10	1	-1e10	1	-1e10	1	-1E+10	1	-1E+10	1	-1E+10	1
4902624	28	C	03/28/2025	16:36	-127.308	48.111	0	181.60	0	6.7917	0	33.8867	0	26.572	0	179.995	0	94.4	4	31.8	4	-1E+10	1	0.0365	4	0.000345	0	-1E+10	1	-1E+10	1	-1E+10	1
4902624	28	C	03/28/2025	16:36	-127.308	48.111	0	182.80	0	6.7877	0	33.8895	0	26.575	0	181.184	0	94.3	4	31.7	4	-1E+10	1	0.0511	4	0.000321	0	-1E+10	1	-1E+10	1	-1E+10	1
4902624	28	C	03/28/2025	16:36	-127.308	48.111	0	183.00	0	6.7870	0	33.8900	0	26.576	0	181.382	0	-1e10	1	-1e10	1	-1E+10	1	-1e10	1	-1e10	1	-1E+10	1	-1E+10	1	-1E+10	1
4902624	28	C	03/28/2025	16:36	-127.308	48.111	0	183.90	0	6.7766	0	33.8904	0	26.577	0	182.274	0	94.1	4	31.6	4	-1E+10	1	0.0573	4	0.000331	0	-1E+10	1	-1E+10	1	-1E+10	1
4902624	28	C	03/28/2025	16:36	-127.308	48.111	0	185.00	0	6.7640	0	33.8910	0	26.580	0	183.364	0	92.8	4	31.2	4	-1E+10	1	0.0537	4	0.000363	0	-1E+10	1	-1E+10	1	-1E+10	1
4902624	28	C	03/28/2025	16:36	-127.308	48.111	0	186.20	0	6.7509	0	33.8910	0	26.581	0	184.552	0	93.9	4	31.6	4	-1E+10	1	0.0557	4	0.000335	0	-1E+10	1	-1E+10	1	-1E+10	1
4902624	28	C	03/28/2025	16:36	-127.308	48.111	0	187.10	0	6.7410	0	33.8910	0	26.583	0	185.444	0	-1e10	1	-1e10	1	-1E+10	1	-1e10	1	-1e10	1	-1E+10	1	-1E+10	1	-1E+10	1
4902624	28	C	03/28/2025	16:36	-127.308	48.111	0	187.30	0	6.7384	0	33.8910	0	26.583	0	185.642	0	93.8	4	31.5	4	-1E+10	1	0.0584	4	0.000339	0	-1E+10	1	-1E+10	1	-1E+10	1
4902624	28	C	03/28/2025	16:36	-127.308	48.111	0	188.40	0	6.7239	0	33.8910	0	26.585	0	186.732	0	93.6	4	31.4	4	-1E+10	1	0.0542	4	0.000355	0	-1E+10	1	-1E+10	1	-1E+10	1
4902624	28	C	03/28/2025	16:36	-127.308	48.111	0	189.00	0	6.7160	0	33.8910	0	26.586	0	187.326	0	-1e10	1	-1e10	1	-1E+10	1	-1e10	1	-1e10	1	-1E+10	1	-1E+10	1	-1E+10	1
4902624	28	C	03/28/2025	16:36	-127.308	48.111	0	189.60	0	6.7125	0	33.8907	0	26.586	0	187.921	0	93.3	4	31.3	4	-1E+10	1	0.0465	4	0.000355	0	-1E+10	1	-1E+10	1	-1E+10	1
4902624	28	C	03/28/2025	16:36	-127.308	48.111	0	190.70	0	6.7062	0	33.8901	0	26.587	0	189.011	0	93.0	4	31.2	4	-1E+10	1	0.0573	4	0.000482	0	-1E+10	1	-1E+10	1	-1E+10	1
4902624	28	C	03/28/2025	16:36	-127.308	48.111	0	190.90	0	6.7050	0	33.8900	0	26.587	0	189.209	0	-1e10	1	-1e10	1	-1E+10	1	-1e10	1	-1e10	1	-1E+10	1	-1E+10	1	-1E+10	1
4902624	28	C	03/28/2025	16:36	-127.308	48.111	0	191.80	0	6.6987	0	33.8900	0	26.588	0	190.100	0	92.7	4	31.1	4	-1E+10	1	0.0511	4	0.000333	0	-1E+10	1	-1E+10	1	-1E+10	1
4902624	28	C	03/28/2025	16:36	-127.308	48.111	0	192.90	0	6.6910	0	33.8900	0	26.589	0	191.190	0	91.1	4	30.6	4	-1E+10	1	0.0511	4	0.000392	0	-1E+10	1	-1E+10	1	-1E+10	1
4902624	28	C	03/28/2025	16:36	-127.308	48.111	0	194.00	0	6.6860	0	33.8905	0	26.590	0	192.280	0	91.9	4	30.8	4	-1E+10	1	0.0456	4	0.000359	0	-1E+10	1	-1E+10	1	-1E+10	1
4902624	28	C	03/28/2025	16:36	-127.308	48.111	0	194.90	0	6.6820	0	33.8910	0	26.591	0	193.171	0	-1e10	1	-1e10	1	-1E+10	1	-1e10	1	-1e10	1	-1E+10	1	-1E+10	1	-1E+10	1
4902624	28	C	03/28/2025	16:36	-127.308	48.111	0	195.10	0	6.6788	0	33.8912	0	26.591	0	193.369	0	91.4	4	30.7	4	-1E+10	1	0.0438	4	0.000345	0	-1E+10	1	-1E+10	1	-1E+10	1
4902624	28	C	03/28/2025	16:36	-127.308	48.111	0	196.20	0	6.6612	0	33.8923	0	26.594	0	194.459	0	90.9	4	30.5	4	-1E+10	1	0.0371	4	0.000526	0	-1E+10	1	-1E+10	1	-1E+10	1
4902624	28	C	03/28/2025	16:36	-127.308	48.111	0	196.90	0	6.6500	0	33.8930	0	26.596	0	195.153	0	-1e10	1	-1e10	1	-1E+10	1	-1e10	1	-1e10	1	-1E+10	1	-1E+10	1	-1E+10	1
4902624	28	C	03/28/2025	16:36	-127.308	48.111	0	197.30	0	6.6432	0	33.8934	0	26.598	0	195.549	0	90.3	4	30.3	4	-1E+10	1	0.0345	4	0.000607	0	-1E+10	1	-1E+10	1	-1E+10	1
4902624	28	C	03/28/2025	16:36	-127.308	48.111	0	198.50	0	6.6228	0	33.8946	0	26.601	0	196.738	0	89.5	4	30.0	4	-1E+10	1	0.0438	4	0.000357	0	-1E+10	1	-1E+10	1	-1E+10	1
4902624	28	C	03/28/2025	16:36	-127.308	48.111	0	198.90	0	6.6160	0	33.8950	0	26.603	0	197.134	0	-1e10	1	-1e10	1	-1E+10	1	-1e10	1	-1e10	1	-1E+10	1	-1E+10	1	-1E+10	1
4902624	28	C	03/28/2025	16:36	-127.308	48.111	0	199.60	0	6.6059	0	33.8957	0	26.604	0	197.827	0	88.7	4	29.7	4	-1E+10	1	0.0438	4	0.000313	0	-1E+10	1	-1E+10	1	-1E+10	1
4902624	28	C	03/28/2025	16:36	-127.308	48.111	0	200.70	0	6.5899	0	33.8968	0	26.607	0	198.917	0	87.8	4	29.4	4	-1E+10	1	0.0438	4	0.000286	0	-1E+10	1	-1E+10	1	-1E+10	1
4902624	28	C	03/28/2025	16:36	-127.308	48.111	0	200.90	0	6.5870	0	33.8970	0	26.608	0	199.115	0	-1e10	1	-1e10	1	-1E+10	1	-1e10	1	-1e10	1	-1E+10	1	-1E+10	1	-1E+10	1
4902624	28	C	03/28/2025	16:36	-127.308	48.111	0	201.80	0	6.5767	0	33.8983	0	26.610	0	200.007	0	87.0	4	29.1	4	-1E+10	1	0.0365	4	0.000344	0	-1E+10	1	-1E+10	1	-1E+10	1
4902624	28	C	03/28/2025	16:36	-127.308	48.111	0	202.90	0	6.5640	0	33.9000	0	26.613	0	201.096	0	85.1	4	28.5	4	-1E+10	1	0.0489	4	0.000315	0	-1E+10	1	-1E+10	1	-1E+10	1
4902624	28	C	03/28/2025	16:36	-127.308	48.111	0	204.00	0	6.5679	0	33.9022	0	26.615	0	202.186	0	85.6	4	28.6	4	-1E+10	1	0.0511	4	0.000326	0	-1E+10	1	-1E+10	1	-1E+10	1
4902624	28	C	03/28/2025	16:36	-127.308	48.111	0	204.90	0	6.5710	0	33.9040	0	26.616	0	203.078	0	-1e10	1	-1e10	1	-1E+10	1	-1e10	1	-1e10	1	-1E+10	1	-1E+10	1	-1E+10	1
4902624	28	C	03/28/2025	16:36	-127.308	48.111	0	205.10	0	6.5710	0	33.9045	0	26.616	0	203.276	0	85.2	4	28.5	4	-1E+10	1	0.0557	4	0.001146	0	-1E+10	1	-1E+10	1	-1E+10	1
4902624	28	C	03/28/2025	16:36	-127.308	48.111	0	206.20	0	6.5710	0	33.9071	0	26.618	0	204.366	0	84.7	4	28.4	4	-1E+10	1	0.0584	4	0.000984	0	-1E+10	1	-1E+10	1	-1E+10	1
4902624	28	C	03/28/2025	16:36	-127.308	48.111	0	207.00	0	6.5710	0	33.9090	0	26.620	0	205.158	0	-1e10	1	-1e10	1	-1E+10	1	-1e10	1	-1e10	1	-1E+10	1	-1E+10	1	-1E+10	1
4902624	28	C	03/28/2025	16:36	-127.308	48.111	0	207.30	0	6.5690	0	33.9090	0	26.620	0	205.455	0	84.3	4	28.2	4	-1E+10	1	0.0539	4	0.000349	0	-1E+10	1	-1E+10	1	-1E+10	1
4902624	28	C	03/28/2025	16:36	-127.308	48.111	0	208.50	0	6.5610	0	33.9090	0	26.621	0	206.644	0	83.8	4	28.0	4	-1E+10	1	0.0438	4	0.000323	0	-1E+10	1	-1E+10	1	-1E+10	1
4902624	28	C	03/28/2025	16:36	-127.308	48.111	0	209.10	0	6.5570	0	33.9090	0	26.622	0	207.238	0	-1e10	1	-1e10	1	-1E+10	1	-1e10	1	-1e10	1	-1E+10	1	-1E+10	1	-1E+10	1
4902624	28	C	03/28/2025	16:36	-127.308	48.111	0	209.50	0	6.5548	0	33.9102	0	26.623	0	207.635	0	83.5	4	27.9	4	-1E+10	1	0.0427	4	0.000307	0	-1E+10	1	-1E+10	1	-1E+10	1
4902624	28	C	03/28/2025	16:36	-127.308	48.111	0	210.60	0	6.5487	0	33.9135	0	26.626	0	208.724	0	83.2	4	27.8	4	-1E+10	1	0.0365	4	0.000356	0	-1E+10	1	-1E+10	1	-1E+10	1
4902624	28	C	03/28/2025	16:36	-127.308	48.111	0	211.10	0	6.5460	0	33.9150	0	26.628	0	209.219	0	-1e10	1	-1e10	1	-1E+10	1	-1e10	1	-1e10	1	-1E+10	1	-1E+10	1	-1E+10	1
4902624	28	C	03/28/2025	16:36	-127.308	48.111	0	211.80	0	6.5239	0	33.9146	0	26.630	0	209.913	0	82.7	4	27.7	4	-1E+10	1	0.0490	4	0.000306	0	-1E+10	1	-1E+10	1	-1E+10	1
4902624	28	C	03/28/2025	16:36	-127.308	48.111	0	212.90	0	6.4892	0	33.9141	0	26.634	0	211.003	0	82.1	4	27.4	4	-1E+10	1	0.0451	4	0.000297	0	-1E+10	1	-1E+10	1	-1E+10	1
4902624	28	C	03/28/2025	16:36	-127.308	48.111	0	213.00	0	6.4860	0	33.9140	0	26.635	0	211.102	0	-1e10	1	-1e10	1	-1E+10	1	-1e10	1	-1e10	1	-1E+10	1	-1E+10	1	-1E+10	1
4902624	28	C	03/28/2025	16:36	-127.308	48.111	0	214.00	0	6.4840	0	33.9165	0	26.637	0	212.092	0	81.7	4	27.3	4	-1E+10	1	0.0532	4	0.000305	0	-1E+10	1	-1E+10	1	-1E+10	1
4902624	28	C	03/28/2025	16:36	-127.308	48.111	0	215.00	0	6.4820	0	33.9190	0	26.639	0	213.083	0	-1e10	1	-1e10	1	-1E+10	1	-1e10	1	-1e10	1	-1E+10	1	-1E+10	1	-1E+10	1
4902624	28	C	03/28/2025	16:36	-127.308	48.111	0	215.20	0	6.4822	0	33.9191	0	26.639	0	213.281	0	81.4	4	27.2	4	-1E+10	1	0.0548	4	0.000309	0	-1E+10	1	-1E+10	1	-1E+10	1
4902624	28	C	03/28/2025	16:36	-127.308	48.111	0	216.30	0	6.4833	0	33.9196	0	26.640	0	214.370	0	81.0	4	27.1	4	-1E+10	1	0.0538	4	0.000307	0	-1E+10	1	-1E+10	1	-1E+10	1
4902624	28	C	03/28/2025	16:36	-127.308	48.111	0	217.00	0	6.4840	0	33.9200	0	26.640	0	215.064	0	-1e10	1	-1e10	1	-1E+10	1	-1e10	1	-1e10	1	-1E+10	1	-1E+10	1	-1E+10	1
4902624	28	C	03/28/2025	16:36	-127.308	48.111	0	217.40	0	6.4816	0	33.9210	0	26.641	0	215.460	0	80.7	4	26.9	4	-1E+10	1	0.0606	4	0.000323	0	-1E+10	1	-1E+10	1	-1E+10	1
4902624	28	C	03/28/2025	16:36	-127.308	48.111	0	218.60	0	6.4744	0	33.9240	0	26.644	0	216.649	0	80.4	4	26.9	4	-1E+10	1	0.0610	4	0.000360	0	-1E+10	1	-1E+10	1	-1E+10	1
4902624	28	C	03/28/2025	16:36	-127.308	48.111	0	219.00	0	6.4720	0	33.9250	0	26.645	0	217.045	0	-1e10	1	-1e10	1	-1E+10	1	-1e10	1	-1e10	1	-1E+10	1	-1E+10	1	-1E+10	1
4902624	28	C	03/28/2025	16:36	-127.308	48.111	0	219.70	0	6.4663	0	33.9247	0	26.646	0	217.738	0	79.9	4	26.7	4	-1E+10	1	0.0438	4	0.000333	0	-1E+10	1	-1E+10	1	-1E+10	1
4902624	28	C	03/28/2025	16:36	-127.308	48.111	0	220.80	0	6.4574	0	33.9241	0	26.647	0	218.828	0	79.7	4	26.6	4	-1E+10	1	0.0584	4	0.000297	0	-1E+10	1	-1E+10	1	-1E+10	1
4902624	28	C	03/28/2025	16:36	-127.308	48.111	0	221.10	0	6.4550	0	33.9240	0	26.647	0	219.125	0	-1e10	1	-1e10	1	-1E+10	1	-1e10	1	-1e10	1	-1E+10	1	-1E+10	1	-1E+10	1
4902624	28	C	03/28/2025	16:36	-127.308	48.111	0	222.00	0	6.4583	0	33.9259	0	26.648	0	220.017	0	79.5	4	26.5	4	-1E+10	1	0.0521	4	0.000368	0	-1E+10	1	-1E+10	1	-1E+10	1
4902624	28	C	03/28/2025	16:36	-127.308	48.111	0	223.00	0	6.4620	0	33.9280	0	26.649	0	221.007	0	-1e10	1	-1e10	1	-1E+10	1	-1e10	1	-1e10	1	-1E+10	1	-1E+10	1	-1E+10	1
4902624	28	C	03/28/2025	16:36	-127.308	48.111	0	223.10	0	6.4619	0	33.9281	0	26.649	0	221.106	0	79.3	4	26.5	4	-1E+10	1	0.0464	4	0.000410	0	-1E+10	1	-1E+10	1	-1E+10	1
4902624	28	C	03/28/2025	16:36	-127.308	48.111	0	224.30	0	6.4607	0	33.9293	0	26.650	0	222.295	0	79.2	4	26.4	4	-1E+10	1	0.0345	4	0.000374	0	-1E+10	1	-1E+10	1	-1E+10	1
4902624	28	C	03/28/2025	16:36	-127.308	48.111	0	225.00	0	6.4600	0	33.9300	0	26.651	0	222.988	0	-1e10	1	-1e10	1	-1E+10	1	-1e10	1	-1e10	1	-1E+10	1	-1E+10	1	-1E+10	1
4902624	28	C	03/28/2025	16:36	-127.308	48.111	0	225.40	0	6.4507	0	33.9298	0	26.652	0	223.384	0	79.2	4	26.4	4	-1E+10	1	0.0402	4	0.000327	0	-1E+10	1	-1E+10	1	-1E+10	1
4902624	28	C	03/28/2025	16:36	-127.308	48.111	0	226.60	0	6.4227	0	33.9292	0	26.655	0	224.573	0	79.0	4	26.4	4	-1E+10	1	0.0537	4	0.000317	0	-1E+10	1	-1E+10	1	-1E+10	1
4902624	28	C	03/28/2025	16:36	-127.308	48.111	0	227.10	0	6.4110	0	33.9290	0	26.657	0	225.068	0	-1e10	1	-1e10	1	-1E+10	1	-1e10	1	-1e10	1	-1E+10	1	-1E+10	1	-1E+10	1
4902624	28	C	03/28/2025	16:36	-127.308	48.111	0	227.80	0	6.4015	0	33.9286	0	26.658	0	225.762	0	78.7	4	26.2	4	-1E+10	1	0.0566	4	0.000338	0	-1E+10	1	-1E+10	1	-1E+10	1
4902624	28	C	03/28/2025	16:36	-127.308	48.111	0	228.90	0	6.3867	0	33.9281	0	26.659	0	226.851	0	78.2	4	26.1	4	-1E+10	1	0.0487	4	0.000350	0	-1E+10	1	-1E+10	1	-1E+10	1
4902624	28	C	03/28/2025	16:36	-127.308	48.111	0	229.10	0	6.3840	0	33.9280	0	26.659	0	227.049	0	-1e10	1	-1e10	1	-1E+10	1	-1e10	1	-1e10	1	-1E+10	1	-1E+10	1	-1E+10	1
4902624	28	C	03/28/2025	16:36	-127.308	48.111	0	230.10	0	6.3693	0	33.9280	0	26.661	0	228.040	0	77.6	4	25.9	4	-1E+10	1	0.0407	4	0.000317	0	-1E+10	1	-1E+10	1	-1E+10	1
4902624	28	C	03/28/2025	16:36	-127.308	48.111	0	231.00	0	6.3560	0	33.9280	0	26.663	0	228.931	0	-1e10	1	-1e10	1	-1E+10	1	-1e10	1	-1e10	1	-1E+10	1	-1E+10	1	-1E+10	1
4902624	28	C	03/28/2025	16:36	-127.308	48.111	0	231.30	0	6.3547	0	33.9283	0	26.663	0	229.228	0	76.9	4	25.6	4	-1E+10	1	0.0657	4	0.000297	0	-1E+10	1	-1E+10	1	-1E+10	1
4902624	28	C	03/28/2025	16:36	-127.308	48.111	0	232.50	0	6.3492	0	33.9295	0	26.665	0	230.417	0	76.2	4	25.4	4	-1E+10	1	0.0438	4	0.000309	0	-1E+10	1	-1E+10	1	-1E+10	1
4902624	28	C	03/28/2025	16:36	-127.308	48.111	0	233.00	0	6.3470	0	33.9300	0	26.666	0	230.912	0	-1e10	1	-1e10	1	-1E+10	1	-1e10	1	-1e10	1	-1E+10	1	-1E+10	1	-1E+10	1
4902624	28	C	03/28/2025	16:36	-127.308	48.111	0	233.70	0	6.3456	0	33.9310	0	26.667	0	231.605	0	75.3	4	25.1	4	-1E+10	1	0.0501	4	0.000319	0	-1E+10	1	-1E+10	1	-1E+10	1
4902624	28	C	03/28/2025	16:36	-127.308	48.111	0	234.90	0	6.3432	0	33.9328	0	26.668	0	232.794	0	74.6	4	24.8	4	-1E+10	1	0.0511	4	0.000321	0	-1E+10	1	-1E+10	1	-1E+10	1
4902624	28	C	03/28/2025	16:36	-127.308	48.111	0	235.00	0	6.3430	0	33.9330	0	26.669	0	232.893	0	-1e10	1	-1e10	1	-1E+10	1	-1e10	1	-1e10	1	-1E+10	1	-1E+10	1	-1E+10	1
4902624	28	C	03/28/2025	16:36	-127.308	48.111	0	236.10	0	6.3435	0	33.9368	0	26.672	0	233.983	0	74.0	4	24.6	4	-1E+10	1	0.0554	4	0.000287	0	-1E+10	1	-1E+10	1	-1E+10	1
4902624	28	C	03/28/2025	16:36	-127.308	48.111	0	237.00	0	6.3440	0	33.9400	0	26.674	0	234.874	0	-1e10	1	-1e10	1	-1E+10	1	-1e10	1	-1e10	1	-1E+10	1	-1E+10	1	-1E+10	1
4902624	28	C	03/28/2025	16:36	-127.308	48.111	0	237.30	0	6.3425	0	33.9409	0	26.675	0	235.171	0	73.5	4	24.5	4	-1E+10	1	0.0584	4	0.000291	0	-1E+10	1	-1E+10	1	-1E+10	1
4902624	28	C	03/28/2025	16:36	-127.308	48.111	0	238.40	0	6.3370	0	33.9442	0	26.678	0	236.261	0	73.0	4	24.3	4	-1E+10	1	0.0584	4	0.000334	0	-1E+10	1	-1E+10	1	-1E+10	1
4902624	28	C	03/28/2025	16:36	-127.308	48.111	0	239.00	0	6.3340	0	33.9460	0	26.680	0	236.855	0	-1e10	1	-1e10	1	-1E+10	1	-1e10	1	-1e10	1	-1E+10	1	-1E+10	1	-1E+10	1
4902624	28	C	03/28/2025	16:36	-127.308	48.111	0	239.60	0	6.3259	0	33.9460	0	26.681	0	237.449	0	72.5	4	24.1	4	-1E+10	1	0.0597	4	0.000357	0	-1E+10	1	-1E+10	1	-1E+10	1
4902624	28	C	03/28/2025	16:36	-127.308	48.111	0	240.70	0	6.3110	0	33.9460	0	26.683	0	238.539	0	72.0	4	24.0	4	-1E+10	1	0.0630	4	0.000300	0	-1E+10	1	-1E+10	1	-1E+10	1
4902624	28	C	03/28/2025	16:36	-127.308	48.111	0	241.00	0	6.3070	0	33.9460	0	26.684	0	238.836	0	-1e10	1	-1e10	1	-1E+10	1	-1e10	1	-1e10	1	-1E+10	1	-1E+10	1	-1E+10	1
4902624	28	C	03/28/2025	16:36	-127.308	48.111	0	241.60	0	6.3007	0	33.9469	0	26.685	0	239.430	0	71.8	4	23.9	4	-1E+10	1	0.0511	4	0.000262	0	-1E+10	1	-1E+10	1	-1E+10	1
4902624	28	C	03/28/2025	16:36	-127.308	48.111	0	242.60	0	6.2902	0	33.9484	0	26.688	0	240.421	0	71.5	4	23.8	4	-1E+10	1	0.0438	4	0.000450	0	-1E+10	1	-1E+10	1	-1E+10	1
4902624	28	C	03/28/2025	16:36	-127.308	48.111	0	243.00	0	6.2860	0	33.9490	0	26.689	0	240.817	0	-1e10	1	-1e10	1	-1E+10	1	-1e10	1	-1e10	1	-1E+10	1	-1E+10	1	-1E+10	1
4902624	28	C	03/28/2025	16:36	-127.308	48.111	0	243.30	0	6.2851	0	33.9493	0	26.689	0	241.114	0	71.2	4	23.7	4	-1E+10	1	0.0584	4	0.000602	0	-1E+10	1	-1E+10	1	-1E+10	1
4902624	28	C	03/28/2025	16:36	-127.308	48.111	0	244.00	0	6.2831	0	33.9500	0	26.690	0	241.807	0	70.9	4	23.6	4	-1E+10	1	0.0380	4	0.000438	0	-1E+10	1	-1E+10	1	-1E+10	1
4902624	28	C	03/28/2025	16:36	-127.308	48.111	0	244.70	0	6.2811	0	33.9506	0	26.691	0	242.500	0	70.5	4	23.5	4	-1E+10	1	0.0389	4	0.000336	0	-1E+10	1	-1E+10	1	-1E+10	1
4902624	28	C	03/28/2025	16:36	-127.308	48.111	0	245.10	0	6.2800	0	33.9510	0	26.691	0	242.897	0	-1e10	1	-1e10	1	-1E+10	1	-1e10	1	-1e10	1	-1E+10	1	-1E+10	1	-1E+10	1
4902624	28	C	03/28/2025	16:36	-127.308	48.111	0	245.50	0	6.2718	0	33.9510	0	26.692	0	243.293	0	70.2	4	23.3	4	-1E+10	1	0.0511	4	0.000280	0	-1E+10	1	-1E+10	1	-1E+10	1
4902624	28	C	03/28/2025	16:36	-127.308	48.111	0	246.30	0	6.2554	0	33.9510	0	26.694	0	244.085	0	69.7	4	23.2	4	-1E+10	1	0.0511	4	0.000262	0	-1E+10	1	-1E+10	1	-1E+10	1
4902624	28	C	03/28/2025	16:36	-127.308	48.111	0	247.00	0	6.2410	0	33.9510	0	26.696	0	244.778	0	-1e10	1	-1e10	1	-1E+10	1	-1e10	1	-1e10	1	-1E+10	1	-1E+10	1	-1E+10	1
4902624	28	C	03/28/2025	16:36	-127.308	48.111	0	247.10	0	6.2400	0	33.9510	0	26.696	0	244.877	0	69.2	4	23.0	4	-1E+10	1	0.0526	4	0.000276	0	-1E+10	1	-1E+10	1	-1E+10	1
4902624	28	C	03/28/2025	16:36	-127.308	48.111	0	247.90	0	6.2320	0	33.9510	0	26.697	0	245.670	0	68.6	4	22.8	4	-1E+10	1	0.0584	4	0.000239	0	-1E+10	1	-1E+10	1	-1E+10	1
4902624	28	C	03/28/2025	16:36	-127.308	48.111	0	248.70	0	6.2240	0	33.9510	0	26.698	0	246.462	0	68.1	4	22.6	4	-1E+10	1	0.0511	4	0.000297	0	-1E+10	1	-1E+10	1	-1E+10	1
4902624	28	C	03/28/2025	16:36	-127.308	48.111	0	249.00	0	6.2210	0	33.9510	0	26.699	0	246.759	0	-1e10	1	-1e10	1	-1E+10	1	-1e10	1	-1e10	1	-1E+10	1	-1E+10	1	-1E+10	1
4902624	28	C	03/28/2025	16:36	-127.308	48.111	0	249.50	0	6.2218	0	33.9528	0	26.700	0	247.254	0	67.6	4	22.4	4	-1E+10	1	0.0381	4	0.000266	0	-1E+10	1	-1E+10	1	-1E+10	1
4902624	28	C	03/28/2025	16:36	-127.308	48.111	0	250.30	0	6.2229	0	33.9556	0	26.702	0	248.047	0	67.1	4	22.3	4	-1E+10	1	0.0518	4	0.000278	0	-1E+10	1	-1E+10	1	-1E+10	1
4902624	28	C	03/28/2025	16:36	-127.308	48.111	0	251.00	0	6.2240	0	33.9580	0	26.704	0	248.740	0	-1e10	1	-1e10	1	-1E+10	1	-1e10	1	-1e10	1	-1E+10	1	-1E+10	1	-1E+10	1
4902624	28	C	03/28/2025	16:36	-127.308	48.111	0	251.10	0	6.2234	0	33.9582	0	26.704	0	248.839	0	66.6	4	22.1	4	-1E+10	1	0.0630	4	0.000307	0	-1E+10	1	-1E+10	1	-1E+10	1
4902624	28	C	03/28/2025	16:36	-127.308	48.111	0	251.90	0	6.2186	0	33.9598	0	26.706	0	249.631	0	66.1	4	21.9	4	-1E+10	1	0.0495	4	0.000321	0	-1E+10	1	-1E+10	1	-1E+10	1
4902624	28	C	03/28/2025	16:36	-127.308	48.111	0	252.70	0	6.2138	0	33.9614	0	26.708	0	250.424	0	65.4	4	21.7	4	-1E+10	1	0.0423	4	0.000325	0	-1E+10	1	-1E+10	1	-1E+10	1
4902624	28	C	03/28/2025	16:36	-127.308	48.111	0	253.00	0	6.2120	0	33.9620	0	26.709	0	250.721	0	-1e10	1	-1e10	1	-1E+10	1	-1e10	1	-1e10	1	-1E+10	1	-1E+10	1	-1E+10	1
4902624	28	C	03/28/2025	16:36	-127.308	48.111	0	253.50	0	6.2187	0	33.9646	0	26.710	0	251.216	0	65.0	4	21.6	4	-1E+10	1	0.0529	4	0.000332	0	-1E+10	1	-1E+10	1	-1E+10	1
4902624	28	C	03/28/2025	16:36	-127.308	48.111	0	254.30	0	6.2293	0	33.9688	0	26.712	0	252.008	0	64.7	4	21.5	4	-1E+10	1	0.0584	4	0.000345	0	-1E+10	1	-1E+10	1	-1E+10	1
4902624	28	C	03/28/2025	16:36	-127.308	48.111	0	255.10	0	6.2400	0	33.9730	0	26.714	0	252.801	0	63.5	4	21.1	4	-1E+10	1	0.0584	4	0.000397	0	-1E+10	1	-1E+10	1	-1E+10	1
4902624	28	C	03/28/2025	16:36	-127.308	48.111	0	255.90	0	6.2392	0	33.9742	0	26.715	0	253.593	0	64.2	4	21.3	4	-1E+10	1	0.0642	4	0.000345	0	-1E+10	1	-1E+10	1	-1E+10	1
4902624	28	C	03/28/2025	16:36	-127.308	48.111	0	256.80	0	6.2383	0	33.9756	0	26.716	0	254.484	0	63.9	4	21.3	4	-1E+10	1	0.0657	4	0.000332	0	-1E+10	1	-1E+10	1	-1E+10	1
4902624	28	C	03/28/2025	16:36	-127.308	48.111	0	257.10	0	6.2380	0	33.9760	0	26.716	0	254.781	0	-1e10	1	-1e10	1	-1E+10	1	-1e10	1	-1e10	1	-1E+10	1	-1E+10	1	-1E+10	1
4902624	28	C	03/28/2025	16:36	-127.308	48.111	0	257.60	0	6.2337	0	33.9765	0	26.717	0	255.277	0	63.8	4	21.2	4	-1E+10	1	0.0555	4	0.000390	0	-1E+10	1	-1E+10	1	-1E+10	1
4902624	28	C	03/28/2025	16:36	-127.308	48.111	0	258.40	0	6.2270	0	33.9773	0	26.719	0	256.069	0	63.6	4	21.1	4	-1E+10	1	0.0511	4	0.000391	0	-1E+10	1	-1E+10	1	-1E+10	1
4902624	28	C	03/28/2025	16:36	-127.308	48.111	0	259.10	0	6.2210	0	33.9780	0	26.720	0	256.762	0	-1e10	1	-1e10	1	-1E+10	1	-1e10	1	-1e10	1	-1E+10	1	-1E+10	1	-1E+10	1
4902624	28	C	03/28/2025	16:36	-127.308	48.111	0	259.30	0	6.2185	0	33.9781	0	26.720	0	256.960	0	63.6	4	21.1	4	-1E+10	1	0.0608	4	0.000357	0	-1E+10	1	-1E+10	1	-1E+10	1
4902624	28	C	03/28/2025	16:36	-127.308	48.111	0	260.10	0	6.2085	0	33.9785	0	26.722	0	257.752	0	63.5	4	21.1	4	-1E+10	1	0.0664	4	0.000351	0	-1E+10	1	-1E+10	1	-1E+10	1
4902624	28	C	03/28/2025	16:36	-127.308	48.111	0	261.00	0	6.1972	0	33.9790	0	26.724	0	258.644	0	63.4	4	21.1	4	-1E+10	1	0.0511	4	0.000367	0	-1E+10	1	-1E+10	1	-1E+10	1
4902624	28	C	03/28/2025	16:36	-127.308	48.111	0	261.10	0	6.1960	0	33.9790	0	26.724	0	258.743	0	-1e10	1	-1e10	1	-1E+10	1	-1e10	1	-1e10	1	-1E+10	1	-1E+10	1	-1E+10	1
4902624	28	C	03/28/2025	16:36	-127.308	48.111	0	261.80	0	6.1838	0	33.9786	0	26.725	0	259.436	0	63.4	4	21.0	4	-1E+10	1	0.0511	4	0.000367	0	-1E+10	1	-1E+10	1	-1E+10	1
4902624	28	C	03/28/2025	16:36	-127.308	48.111	0	262.70	0	6.1682	0	33.9782	0	26.727	0	260.327	0	63.2	4	21.0	4	-1E+10	1	0.0438	4	0.000403	0	-1E+10	1	-1E+10	1	-1E+10	1
4902624	28	C	03/28/2025	16:36	-127.308	48.111	0	263.00	0	6.1630	0	33.9780	0	26.727	0	260.624	0	-1e10	1	-1e10	1	-1E+10	1	-1e10	1	-1e10	1	-1E+10	1	-1E+10	1	-1E+10	1
4902624	28	C	03/28/2025	16:36	-127.308	48.111	0	263.50	0	6.1572	0	33.9775	0	26.728	0	261.120	0	63.0	4	20.9	4	-1E+10	1	0.0555	4	0.000337	0	-1E+10	1	-1E+10	1	-1E+10	1
4902624	28	C	03/28/2025	16:36	-127.308	48.111	0	264.40	0	6.1469	0	33.9766	0	26.728	0	262.011	0	62.8	4	20.8	4	-1E+10	1	0.0533	4	0.000312	0	-1E+10	1	-1E+10	1	-1E+10	1
4902624	28	C	03/28/2025	16:36	-127.308	48.111	0	265.00	0	6.1400	0	33.9760	0	26.729	0	262.605	0	-1e10	1	-1e10	1	-1E+10	1	-1e10	1	-1e10	1	-1E+10	1	-1E+10	1	-1E+10	1
4902624	28	C	03/28/2025	16:36	-127.308	48.111	0	265.20	0	6.1400	0	33.9766	0	26.729	0	262.803	0	62.6	4	20.8	4	-1E+10	1	0.0552	4	0.000322	0	-1E+10	1	-1E+10	1	-1E+10	1
4902624	28	C	03/28/2025	16:36	-127.308	48.111	0	266.10	0	6.1400	0	33.9791	0	26.731	0	263.694	0	62.6	4	20.8	4	-1E+10	1	0.0584	4	0.000344	0	-1E+10	1	-1E+10	1	-1E+10	1
4902624	28	C	03/28/2025	16:36	-127.308	48.111	0	267.00	0	6.1400	0	33.9817	0	26.733	0	264.586	0	62.6	4	20.8	4	-1E+10	1	0.0611	4	0.000360	0	-1E+10	1	-1E+10	1	-1E+10	1
4902624	28	C	03/28/2025	16:36	-127.308	48.111	0	267.10	0	6.1400	0	33.9820	0	26.734	0	264.685	0	-1e10	1	-1e10	1	-1E+10	1	-1e10	1	-1e10	1	-1E+10	1	-1E+10	1	-1E+10	1
4902624	28	C	03/28/2025	16:36	-127.308	48.111	0	267.80	0	6.1337	0	33.9816	0	26.734	0	265.378	0	62.6	4	20.8	4	-1E+10	1	0.0648	4	0.000360	0	-1E+10	1	-1E+10	1	-1E+10	1
4902624	28	C	03/28/2025	16:36	-127.308	48.111	0	268.70	0	6.1257	0	33.9812	0	26.735	0	266.269	0	62.5	4	20.7	4	-1E+10	1	0.0571	4	0.000319	0	-1E+10	1	-1E+10	1	-1E+10	1
4902624	28	C	03/28/2025	16:36	-127.308	48.111	0	269.00	0	6.1230	0	33.9810	0	26.735	0	266.566	0	-1e10	1	-1e10	1	-1E+10	1	-1e10	1	-1e10	1	-1E+10	1	-1E+10	1	-1E+10	1
4902624	28	C	03/28/2025	16:36	-127.308	48.111	0	269.60	0	6.1123	0	33.9804	0	26.736	0	267.161	0	62.5	4	20.7	4	-1E+10	1	0.0511	4	0.000367	0	-1E+10	1	-1E+10	1	-1E+10	1
4902624	28	C	03/28/2025	16:36	-127.308	48.111	0	270.50	0	6.0962	0	33.9794	0	26.737	0	268.052	0	62.4	4	20.7	4	-1E+10	1	0.0380	4	0.000325	0	-1E+10	1	-1E+10	1	-1E+10	1
4902624	28	C	03/28/2025	16:36	-127.308	48.111	0	270.90	0	6.0890	0	33.9790	0	26.738	0	268.448	0	-1e10	1	-1e10	1	-1E+10	1	-1e10	1	-1e10	1	-1E+10	1	-1E+10	1	-1E+10	1
4902624	28	C	03/28/2025	16:36	-127.308	48.111	0	271.30	0	6.0865	0	33.9792	0	26.738	0	268.844	0	62.3	4	20.6	4	-1E+10	1	0.0479	4	0.000320	0	-1E+10	1	-1E+10	1	-1E+10	1
4902624	28	C	03/28/2025	16:36	-127.308	48.111	0	272.20	0	6.0810	0	33.9796	0	26.739	0	269.735	0	62.3	4	20.6	4	-1E+10	1	0.0604	4	0.000358	0	-1E+10	1	-1E+10	1	-1E+10	1
4902624	28	C	03/28/2025	16:36	-127.308	48.111	0	273.00	0	6.0760	0	33.9800	0	26.740	0	270.528	0	-1e10	1	-1e10	1	-1E+10	1	-1e10	1	-1e10	1	-1E+10	1	-1E+10	1	-1E+10	1
4902624	28	C	03/28/2025	16:36	-127.308	48.111	0	273.10	0	6.0744	0	33.9799	0	26.740	0	270.627	0	62.3	4	20.6	4	-1E+10	1	0.0584	4	0.000373	0	-1E+10	1	-1E+10	1	-1E+10	1
4902624	28	C	03/28/2025	16:36	-127.308	48.111	0	274.00	0	6.0600	0	33.9795	0	26.742	0	271.518	0	62.1	4	20.6	4	-1E+10	1	0.0511	4	0.000326	0	-1E+10	1	-1E+10	1	-1E+10	1
4902624	28	C	03/28/2025	16:36	-127.308	48.111	0	274.80	0	6.0472	0	33.9791	0	26.743	0	272.310	0	62.0	4	20.5	4	-1E+10	1	0.0511	4	0.000280	0	-1E+10	1	-1E+10	1	-1E+10	1
4902624	28	C	03/28/2025	16:36	-127.308	48.111	0	275.00	0	6.0440	0	33.9790	0	26.743	0	272.508	0	-1e10	1	-1e10	1	-1E+10	1	-1e10	1	-1e10	1	-1E+10	1	-1E+10	1	-1E+10	1
4902624	28	C	03/28/2025	16:36	-127.308	48.111	0	275.70	0	6.0412	0	33.9786	0	26.744	0	273.201	0	61.9	4	20.5	4	-1E+10	1	0.0518	4	0.000303	0	-1E+10	1	-1E+10	1	-1E+10	1
4902624	28	C	03/28/2025	16:36	-127.308	48.111	0	276.60	0	6.0376	0	33.9782	0	26.744	0	274.093	0	61.7	4	20.4	4	-1E+10	1	0.0584	4	0.000356	0	-1E+10	1	-1E+10	1	-1E+10	1
4902624	28	C	03/28/2025	16:36	-127.308	48.111	0	277.00	0	6.0360	0	33.9780	0	26.744	0	274.489	0	-1e10	1	-1e10	1	-1E+10	1	-1e10	1	-1e10	1	-1E+10	1	-1E+10	1	-1E+10	1
4902624	28	C	03/28/2025	16:36	-127.308	48.111	0	277.50	0	6.0365	0	33.9788	0	26.744	0	274.984	0	61.6	4	20.4	4	-1E+10	1	0.0584	4	0.000391	0	-1E+10	1	-1E+10	1	-1E+10	1
4902624	28	C	03/28/2025	16:36	-127.308	48.111	0	278.40	0	6.0374	0	33.9801	0	26.745	0	275.875	0	61.6	4	20.4	4	-1E+10	1	0.0465	4	0.000343	0	-1E+10	1	-1E+10	1	-1E+10	1
4902624	28	C	03/28/2025	16:36	-127.308	48.111	0	279.00	0	6.0380	0	33.9810	0	26.746	0	276.469	0	-1e10	1	-1e10	1	-1E+10	1	-1e10	1	-1e10	1	-1E+10	1	-1E+10	1	-1E+10	1
4902624	28	C	03/28/2025	16:36	-127.308	48.111	0	279.30	0	6.0365	0	33.9810	0	26.746	0	276.766	0	61.6	4	20.4	4	-1E+10	1	0.0387	4	0.000324	0	-1E+10	1	-1E+10	1	-1E+10	1
4902624	28	C	03/28/2025	16:36	-127.308	48.111	0	280.20	0	6.0320	0	33.9810	0	26.747	0	277.658	0	61.5	4	20.4	4	-1E+10	1	0.0365	4	0.000327	0	-1E+10	1	-1E+10	1	-1E+10	1
4902624	28	C	03/28/2025	16:36	-127.308	48.111	0	281.00	0	6.0280	0	33.9810	0	26.747	0	278.450	0	-1e10	1	-1e10	1	-1E+10	1	-1e10	1	-1e10	1	-1E+10	1	-1E+10	1	-1E+10	1
4902624	28	C	03/28/2025	16:36	-127.308	48.111	0	281.10	0	6.0276	0	33.9810	0	26.747	0	278.549	0	61.5	4	20.4	4	-1E+10	1	0.0438	4	0.000361	0	-1E+10	1	-1E+10	1	-1E+10	1
4902624	28	C	03/28/2025	16:36	-127.308	48.111	0	282.00	0	6.0245	0	33.9815	0	26.748	0	279.440	0	61.6	4	20.4	4	-1E+10	1	0.0538	4	0.000378	0	-1E+10	1	-1E+10	1	-1E+10	1
4902624	28	C	03/28/2025	16:36	-127.308	48.111	0	282.90	0	6.0213	0	33.9819	0	26.749	0	280.331	0	61.6	4	20.4	4	-1E+10	1	0.0552	4	0.000340	0	-1E+10	1	-1E+10	1	-1E+10	1
4902624	28	C	03/28/2025	16:36	-127.308	48.111	0	283.00	0	6.0210	0	33.9820	0	26.749	0	280.430	0	-1e10	1	-1e10	1	-1E+10	1	-1e10	1	-1e10	1	-1E+10	1	-1E+10	1	-1E+10	1
4902624	28	C	03/28/2025	16:36	-127.308	48.111	0	283.80	0	5.9901	0	33.9797	0	26.751	0	281.222	0	61.6	4	20.3	4	-1E+10	1	0.0478	4	0.000300	0	-1E+10	1	-1E+10	1	-1E+10	1
4902624	28	C	03/28/2025	16:36	-127.308	48.111	0	284.70	0	5.9554	0	33.9771	0	26.753	0	282.114	0	61.4	4	20.3	4	-1E+10	1	0.0657	4	0.000367	0	-1E+10	1	-1E+10	1	-1E+10	1
4902624	28	C	03/28/2025	16:36	-127.308	48.111	0	285.10	0	5.9400	0	33.9760	0	26.754	0	282.510	0	-1e10	1	-1e10	1	-1E+10	1	-1e10	1	-1e10	1	-1E+10	1	-1E+10	1	-1E+10	1
4902624	28	C	03/28/2025	16:36	-127.308	48.111	0	285.60	0	5.9371	0	33.9763	0	26.755	0	283.005	0	61.1	4	20.2	4	-1E+10	1	0.0717	4	0.000300	0	-1E+10	1	-1E+10	1	-1E+10	1
4902624	28	C	03/28/2025	16:36	-127.308	48.111	0	286.50	0	5.9319	0	33.9767	0	26.756	0	283.896	0	60.9	4	20.1	4	-1E+10	1	0.0560	4	0.000303	0	-1E+10	1	-1E+10	1	-1E+10	1
4902624	28	C	03/28/2025	16:36	-127.308	48.111	0	287.00	0	5.9290	0	33.9770	0	26.756	0	284.391	0	-1e10	1	-1e10	1	-1E+10	1	-1e10	1	-1e10	1	-1E+10	1	-1E+10	1	-1E+10	1
4902624	28	C	03/28/2025	16:36	-127.308	48.111	0	287.40	0	5.9268	0	33.9774	0	26.757	0	284.787	0	60.8	4	20.1	4	-1E+10	1	0.0511	4	0.000309	0	-1E+10	1	-1E+10	1	-1E+10	1
4902624	28	C	03/28/2025	16:36	-127.308	48.111	0	288.40	0	5.9213	0	33.9784	0	26.758	0	285.777	0	60.8	4	20.0	4	-1E+10	1	0.0511	4	0.000283	0	-1E+10	1	-1E+10	1	-1E+10	1
4902624	28	C	03/28/2025	16:36	-127.308	48.111	0	289.00	0	5.9180	0	33.9790	0	26.759	0	286.372	0	-1e10	1	-1e10	1	-1E+10	1	-1e10	1	-1e10	1	-1E+10	1	-1E+10	1	-1E+10	1
4902624	28	C	03/28/2025	16:36	-127.308	48.111	0	289.30	0	5.9077	0	33.9782	0	26.760	0	286.669	0	60.6	4	20.0	4	-1E+10	1	0.0511	4	0.000272	0	-1E+10	1	-1E+10	1	-1E+10	1
4902624	28	C	03/28/2025	16:36	-127.308	48.111	0	290.20	0	5.8769	0	33.9758	0	26.762	0	287.560	0	60.4	4	19.9	4	-1E+10	1	0.0569	4	0.000266	0	-1E+10	1	-1E+10	1	-1E+10	1
4902624	28	C	03/28/2025	16:36	-127.308	48.111	0	290.90	0	5.8530	0	33.9740	0	26.763	0	288.253	0	-1e10	1	-1e10	1	-1E+10	1	-1e10	1	-1e10	1	-1E+10	1	-1E+10	1	-1E+10	1
4902624	28	C	03/28/2025	16:36	-127.308	48.111	0	291.20	0	5.8534	0	33.9746	0	26.764	0	288.550	0	60.2	4	19.8	4	-1E+10	1	0.0604	4	0.000242	0	-1E+10	1	-1E+10	1	-1E+10	1
4902624	28	C	03/28/2025	16:36	-127.308	48.111	0	292.30	0	5.8550	0	33.9767	0	26.765	0	289.639	0	60.0	4	19.8	4	-1E+10	1	0.0511	4	0.000259	0	-1E+10	1	-1E+10	1	-1E+10	1
4902624	28	C	03/28/2025	16:36	-127.308	48.111	0	293.00	0	5.8560	0	33.9780	0	26.766	0	290.332	0	-1e10	1	-1e10	1	-1E+10	1	-1e10	1	-1e10	1	-1E+10	1	-1E+10	1	-1E+10	1
4902624	28	C	03/28/2025	16:36	-127.308	48.111	0	295.00	0	5.8330	0	33.9800	0	26.771	0	292.313	0	-1e10	1	-1e10	1	-1E+10	1	-1e10	1	-1e10	1	-1E+10	1	-1E+10	1	-1E+10	1
4902624	28	C	03/28/2025	16:36	-127.308	48.111	0	297.00	0	5.8080	0	33.9790	0	26.773	0	294.293	0	-1e10	1	-1e10	1	-1E+10	1	-1e10	1	-1e10	1	-1E+10	1	-1E+10	1	-1E+10	1
4902624	28	C	03/28/2025	16:36	-127.308	48.111	0	299.00	0	5.7690	0	33.9770	0	26.776	0	296.274	0	-1e10	1	-1e10	1	-1E+10	1	-1e10	1	-1e10	1	-1E+10	1	-1E+10	1	-1E+10	1
4902624	28	C	03/28/2025	16:36	-127.308	48.111	0	301.80	0	5.7581	0	33.9789	0	26.779	0	299.046	0	58.0	4	19.1	4	-1E+10	1	0.0508	4	0.000463	0	-1E+10	1	-1E+10	1	-1E+10	1
4902624	28	C	03/28/2025	16:36	-127.308	48.111	0	304.90	0	5.7460	0	33.9810	0	26.782	0	302.115	0	-1e10	1	-1e10	1	-1E+10	1	-1e10	1	-1e10	1	-1E+10	1	-1E+10	1	-1E+10	1
4902624	28	C	03/28/2025	16:36	-127.308	48.111	0	311.60	0	5.7168	0	33.9863	0	26.790	0	308.749	0	55.2	4	18.1	4	-1E+10	1	0.0444	4	0.000236	0	-1E+10	1	-1E+10	1	-1E+10	1
4902624	28	C	03/28/2025	16:36	-127.308	48.111	0	315.00	0	5.7020	0	33.9890	0	26.794	0	312.116	0	-1e10	1	-1e10	1	-1E+10	1	-1e10	1	-1e10	1	-1E+10	1	-1E+10	1	-1E+10	1
4902624	28	C	03/28/2025	16:36	-127.308	48.111	0	321.80	0	5.6932	0	33.9957	0	26.801	0	318.848	0	51.9	4	17.0	4	-1E+10	1	0.0578	4	0.000193	0	-1E+10	1	-1E+10	1	-1E+10	1
4902624	28	C	03/28/2025	16:36	-127.308	48.111	0	325.10	0	5.6890	0	33.9990	0	26.804	0	322.115	0	-1e10	1	-1e10	1	-1E+10	1	-1e10	1	-1e10	1	-1E+10	1	-1E+10	1	-1E+10	1
4902624	28	C	03/28/2025	16:36	-127.308	48.111	0	332.20	0	5.6517	0	34.0046	0	26.813	0	329.144	0	49.2	4	16.1	4	-1E+10	1	0.0441	4	0.000238	0	-1E+10	1	-1E+10	1	-1E+10	1
4902624	28	C	03/28/2025	16:36	-127.308	48.111	0	335.20	0	5.6360	0	34.0070	0	26.817	0	332.114	0	-1e10	1	-1e10	1	-1E+10	1	-1e10	1	-1e10	1	-1E+10	1	-1E+10	1	-1E+10	1
4902624	28	C	03/28/2025	16:36	-127.308	48.111	0	342.90	0	5.5786	0	34.0109	0	26.827	0	339.737	0	46.8	4	15.3	4	-1E+10	1	0.0511	4	0.000238	0	-1E+10	1	-1E+10	1	-1E+10	1
4902624	28	C	03/28/2025	16:36	-127.308	48.111	0	345.00	0	5.5630	0	34.0120	0	26.829	0	341.816	0	-1e10	1	-1e10	1	-1E+10	1	-1e10	1	-1e10	1	-1E+10	1	-1E+10	1	-1E+10	1
4902624	28	C	03/28/2025	16:36	-127.308	48.111	0	353.80	0	5.5452	0	34.0244	0	26.841	0	350.527	0	44.6	4	14.6	4	-1E+10	1	0.0508	4	0.000237	0	-1E+10	1	-1E+10	1	-1E+10	1
4902624	28	C	03/28/2025	16:36	-127.308	48.111	0	354.90	0	5.5430	0	34.0260	0	26.843	0	351.616	0	-1e10	1	-1e10	1	-1E+10	1	-1e10	1	-1e10	1	-1E+10	1	-1E+10	1	-1E+10	1
4902624	28	C	03/28/2025	16:36	-127.308	48.111	0	364.90	0	5.4518	0	34.0240	0	26.852	0	361.515	0	42.5	4	13.9	4	-1E+10	1	0.0441	4	0.000226	0	-1E+10	1	-1E+10	1	-1E+10	1
4902624	28	C	03/28/2025	16:36	-127.308	48.111	0	365.10	0	5.4500	0	34.0240	0	26.853	0	361.713	0	-1e10	1	-1e10	1	-1E+10	1	-1e10	1	-1e10	1	-1E+10	1	-1E+10	1	-1E+10	1
4902624	28	C	03/28/2025	16:36	-127.308	48.111	0	374.90	0	5.4450	0	34.0410	0	26.867	0	371.413	0	-1e10	1	-1e10	1	-1E+10	1	-1e10	1	-1e10	1	-1E+10	1	-1E+10	1	-1E+10	1
4902624	28	C	03/28/2025	16:36	-127.308	48.111	0	376.20	0	5.4361	0	34.0424	0	26.869	0	372.700	0	39.3	4	12.8	4	-1E+10	1	0.0516	4	0.000239	0	-1E+10	1	-1E+10	1	-1E+10	1
4902624	28	C	03/28/2025	16:36	-127.308	48.111	0	385.00	0	5.3760	0	34.0520	0	26.884	0	381.410	0	-1e10	1	-1e10	1	-1E+10	1	-1e10	1	-1e10	1	-1E+10	1	-1E+10	1	-1E+10	1
4902624	28	C	03/28/2025	16:36	-127.308	48.111	0	387.50	0	5.3636	0	34.0530	0	26.886	0	383.885	0	37.8	4	12.3	4	-1E+10	1	0.0652	4	0.000284	0	-1E+10	1	-1E+10	1	-1E+10	1
4902624	28	C	03/28/2025	16:36	-127.308	48.111	0	394.90	0	5.3270	0	34.0560	0	26.893	0	391.209	0	-1e10	1	-1e10	1	-1E+10	1	-1e10	1	-1e10	1	-1E+10	1	-1E+10	1	-1E+10	1
4902624	28	C	03/28/2025	16:36	-127.308	48.111	0	398.90	0	5.3104	0	34.0592	0	26.897	0	395.167	0	35.8	4	11.6	4	-1E+10	1	0.0508	4	0.000284	0	-1E+10	1	-1E+10	1	-1E+10	1
4902624	28	C	03/28/2025	16:36	-127.308	48.111	0	404.80	0	5.2860	0	34.0640	0	26.904	0	401.006	0	-1e10	1	-1e10	1	-1E+10	1	-1e10	1	-1e10	1	-1E+10	1	-1E+10	1	-1E+10	1
4902624	28	C	03/28/2025	16:36	-127.308	48.111	0	410.40	0	5.2599	0	34.0678	0	26.910	0	406.548	0	33.8	4	11.0	4	-1E+10	1	0.0438	4	0.000285	0	-1E+10	1	-1E+10	1	-1E+10	1
4902624	28	C	03/28/2025	16:36	-127.308	48.111	0	415.10	0	5.2380	0	34.0710	0	26.915	0	411.200	0	-1e10	1	-1e10	1	-1E+10	1	-1e10	1	-1e10	1	-1E+10	1	-1E+10	1	-1E+10	1
4902624	28	C	03/28/2025	16:36	-127.308	48.111	0	422.10	0	5.2071	0	34.0762	0	26.923	0	418.127	0	32.0	4	10.4	4	-1E+10	1	0.0444	4	0.000307	0	-1E+10	1	-1E+10	1	-1E+10	1
4902624	28	C	03/28/2025	16:36	-127.308	48.111	0	424.60	0	5.1960	0	34.0780	0	26.926	0	420.601	0	-1e10	1	-1e10	1	-1E+10	1	-1e10	1	-1e10	1	-1E+10	1	-1E+10	1	-1E+10	1
4902624	28	C	03/28/2025	16:36	-127.308	48.111	0	433.80	0	5.1558	0	34.0843	0	26.935	0	429.705	0	29.9	4	9.7	4	-1E+10	1	0.0584	4	0.000282	0	-1E+10	1	-1E+10	1	-1E+10	1
4902624	28	C	03/28/2025	16:36	-127.308	48.111	0	434.90	0	5.1510	0	34.0850	0	26.937	0	430.793	0	-1e10	1	-1e10	1	-1E+10	1	-1e10	1	-1e10	1	-1E+10	1	-1E+10	1	-1E+10	1
4902624	28	C	03/28/2025	16:36	-127.308	48.111	0	445.10	0	5.0990	0	34.0940	0	26.950	0	440.886	0	-1e10	1	-1e10	1	-1E+10	1	-1e10	1	-1e10	1	-1E+10	1	-1E+10	1	-1E+10	1
4902624	28	C	03/28/2025	16:36	-127.308	48.111	0	445.50	0	5.0969	0	34.0945	0	26.950	0	441.282	0	27.4	4	8.9	4	-1E+10	1	0.0587	4	0.000213	0	-1E+10	1	-1E+10	1	-1E+10	1
4902624	28	C	03/28/2025	16:36	-127.308	48.111	0	454.90	0	5.0470	0	34.1060	0	26.965	0	450.583	0	-1e10	1	-1e10	1	-1E+10	1	-1e10	1	-1e10	1	-1E+10	1	-1E+10	1	-1E+10	1
4902624	28	C	03/28/2025	16:36	-127.308	48.111	0	457.20	0	5.0361	0	34.1083	0	26.968	0	452.858	0	25.2	4	8.2	4	-1E+10	1	0.0657	4	0.000212	0	-1E+10	1	-1E+10	1	-1E+10	1
4902624	28	C	03/28/2025	16:36	-127.308	48.111	0	464.80	0	5.0000	0	34.1160	0	26.979	0	460.378	0	-1e10	1	-1e10	1	-1E+10	1	-1e10	1	-1e10	1	-1E+10	1	-1E+10	1	-1E+10	1
4902624	28	C	03/28/2025	16:36	-127.308	48.111	0	467.40	0	4.9881	0	34.1170	0	26.981	0	462.950	0	24.0	4	7.8	4	-1E+10	1	0.0651	4	0.000187	0	-1E+10	1	-1E+10	1	-1E+10	1
4902624	28	C	03/28/2025	16:36	-127.308	48.111	0	475.00	0	4.9535	0	34.1200	0	26.987	0	470.469	0	23.2	4	7.5	4	-1E+10	1	0.0511	4	0.000392	0	-1E+10	1	-1E+10	1	-1E+10	1
4902624	28	C	03/28/2025	16:36	-127.308	48.111	0	475.10	0	4.9530	0	34.1200	0	26.987	0	470.568	0	-1e10	1	-1e10	1	-1E+10	1	-1e10	1	-1e10	1	-1E+10	1	-1E+10	1	-1E+10	1
4902624	28	C	03/28/2025	16:36	-127.308	48.111	0	483.10	0	4.8920	0	34.1248	0	26.998	0	478.482	0	21.9	4	7.1	4	-1E+10	1	0.0514	4	0.000168	0	-1E+10	1	-1E+10	1	-1E+10	1
4902624	28	C	03/28/2025	16:36	-127.308	48.111	0	485.20	0	4.8760	0	34.1260	0	27.001	0	480.560	0	-1e10	1	-1e10	1	-1E+10	1	-1e10	1	-1e10	1	-1E+10	1	-1E+10	1	-1E+10	1
4902624	28	C	03/28/2025	16:36	-127.308	48.111	0	491.50	0	4.8647	0	34.1323	0	27.007	0	486.792	0	20.8	4	6.7	4	-1E+10	1	0.0591	4	0.000201	0	-1E+10	1	-1E+10	1	-1E+10	1
4902624	28	C	03/28/2025	16:36	-127.308	48.111	0	495.20	0	4.8580	0	34.1360	0	27.011	0	490.453	0	-1e10	1	-1e10	1	-1E+10	1	-1e10	1	-1e10	1	-1E+10	1	-1E+10	1	-1E+10	1
4902624	28	C	03/28/2025	16:36	-127.308	48.111	0	500.10	0	4.8144	0	34.1380	0	27.017	0	495.300	0	19.6	4	6.3	4	-1E+10	1	0.0725	4	0.000190	0	-1E+10	1	-1E+10	1	-1E+10	1
4902624	28	C	03/28/2025	16:36	-127.308	48.111	0	505.10	0	4.7700	0	34.1400	0	27.024	0	500.246	0	-1e10	1	-1e10	1	-1E+10	1	-1e10	1	-1e10	1	-1E+10	1	-1E+10	1	-1E+10	1
4902624	28	C	03/28/2025	16:36	-127.308	48.111	0	509.20	0	4.7537	0	34.1438	0	27.029	0	504.301	0	18.5	4	5.9	4	-1E+10	1	0.0578	4	0.000201	0	-1E+10	1	-1E+10	1	-1E+10	1
4902624	28	C	03/28/2025	16:36	-127.308	48.111	0	514.90	0	4.7310	0	34.1490	0	27.035	0	509.940	0	-1e10	1	-1e10	1	-1E+10	1	-1e10	1	-1e10	1	-1E+10	1	-1E+10	1	-1E+10	1
4902624	28	C	03/28/2025	16:36	-127.308	48.111	0	518.30	0	4.7210	0	34.1524	0	27.039	0	513.303	0	17.4	4	5.6	4	-1E+10	1	0.0440	4	0.000188	0	-1E+10	1	-1E+10	1	-1E+10	1
4902624	28	C	03/28/2025	16:36	-127.308	48.111	0	524.80	0	4.7020	0	34.1590	0	27.047	0	519.732	0	-1e10	1	-1e10	1	-1E+10	1	-1e10	1	-1e10	1	-1E+10	1	-1E+10	1	-1E+10	1
4902624	28	C	03/28/2025	16:36	-127.308	48.111	0	527.90	0	4.6963	0	34.1629	0	27.050	0	522.798	0	16.1	4	5.2	4	-1E+10	1	0.0514	4	0.000143	0	-1E+10	1	-1E+10	1	-1E+10	1
4902624	28	C	03/28/2025	16:36	-127.308	48.111	0	535.10	0	4.6830	0	34.1720	0	27.059	0	529.919	0	-1e10	1	-1e10	1	-1E+10	1	-1e10	1	-1e10	1	-1E+10	1	-1E+10	1	-1E+10	1
4902624	28	C	03/28/2025	16:36	-127.308	48.111	0	537.80	0	4.6676	0	34.1731	0	27.062	0	532.590	0	15.4	4	4.9	4	-1E+10	1	0.0587	4	0.000154	0	-1E+10	1	-1E+10	1	-1E+10	1
4902624	28	C	03/28/2025	16:36	-127.308	48.111	0	544.90	0	4.6270	0	34.1760	0	27.069	0	539.612	0	-1e10	1	-1e10	1	-1E+10	1	-1e10	1	-1e10	1	-1E+10	1	-1E+10	1	-1E+10	1
4902624	28	C	03/28/2025	16:36	-127.308	48.111	0	548.00	0	4.6059	0	34.1779	0	27.072	0	542.677	0	14.7	4	4.7	4	-1E+10	1	0.0654	4	0.000143	0	-1E+10	1	-1E+10	1	-1E+10	1
4902624	28	C	03/28/2025	16:36	-127.308	48.111	0	554.90	0	4.5590	0	34.1820	0	27.081	0	549.501	0	-1e10	1	-1e10	1	-1E+10	1	-1e10	1	-1e10	1	-1E+10	1	-1E+10	1	-1E+10	1
4902624	28	C	03/28/2025	16:36	-127.308	48.111	0	558.60	0	4.5495	0	34.1838	0	27.083	0	553.160	0	14.2	4	4.5	4	-1E+10	1	0.0584	4	0.000166	0	-1E+10	1	-1E+10	1	-1E+10	1
4902624	28	C	03/28/2025	16:36	-127.308	48.111	0	565.00	0	4.5330	0	34.1870	0	27.088	0	559.489	0	-1e10	1	-1e10	1	-1E+10	1	-1e10	1	-1e10	1	-1E+10	1	-1E+10	1	-1E+10	1
4902624	28	C	03/28/2025	16:36	-127.308	48.111	0	569.40	0	4.5143	0	34.1892	0	27.092	0	563.841	0	13.6	4	4.3	4	-1E+10	1	0.0581	4	0.000177	0	-1E+10	1	-1E+10	1	-1E+10	1
4902624	28	C	03/28/2025	16:36	-127.308	48.111	0	574.90	0	4.4910	0	34.1920	0	27.096	0	569.279	0	-1e10	1	-1e10	1	-1E+10	1	-1e10	1	-1e10	1	-1E+10	1	-1E+10	1	-1E+10	1
4902624	28	C	03/28/2025	16:36	-127.308	48.111	0	580.60	0	4.4938	0	34.1971	0	27.100	0	574.916	0	12.8	4	4.1	4	-1E+10	1	0.0514	4	0.000179	0	-1E+10	1	-1E+10	1	-1E+10	1
4902624	28	C	03/28/2025	16:36	-127.308	48.111	0	584.90	0	4.4960	0	34.2010	0	27.103	0	579.168	0	-1e10	1	-1e10	1	-1E+10	1	-1e10	1	-1e10	1	-1E+10	1	-1E+10	1	-1E+10	1
4902624	28	C	03/28/2025	16:36	-127.308	48.111	0	592.00	0	4.4580	0	34.2045	0	27.110	0	586.188	0	12.5	4	4.0	4	-1E+10	1	0.0590	4	0.000535	0	-1E+10	1	-1E+10	1	-1E+10	1
4902624	28	C	03/28/2025	16:36	-127.308	48.111	0	595.00	0	4.4420	0	34.2060	0	27.113	0	589.154	0	-1e10	1	-1e10	1	-1E+10	1	-1e10	1	-1e10	1	-1E+10	1	-1E+10	1	-1E+10	1
4902624	28	C	03/28/2025	16:36	-127.308	48.111	0	603.50	0	4.3941	0	34.2052	0	27.117	0	597.559	0	12.1	4	3.9	4	-1E+10	1	0.0725	4	0.000154	0	-1E+10	1	-1E+10	1	-1E+10	1
4902624	28	C	03/28/2025	16:36	-127.308	48.111	0	605.30	0	4.3840	0	34.2050	0	27.118	0	599.338	0	-1e10	1	-1e10	1	-1E+10	1	-1e10	1	-1e10	1	-1E+10	1	-1E+10	1	-1E+10	1
4902624	28	C	03/28/2025	16:36	-127.308	48.111	0	615.10	0	4.3656	0	34.2137	0	27.127	0	609.028	0	11.4	4	3.6	4	-1E+10	1	0.0584	4	0.000165	0	-1E+10	1	-1E+10	1	-1E+10	1
4902624	28	C	03/28/2025	16:36	-127.308	48.111	0	615.40	0	4.3650	0	34.2140	0	27.128	0	609.324	0	-1e10	1	-1e10	1	-1E+10	1	-1e10	1	-1e10	1	-1E+10	1	-1E+10	1	-1E+10	1
4902624	28	C	03/28/2025	16:36	-127.308	48.111	0	625.30	0	4.3630	0	34.2240	0	27.136	0	619.112	0	-1e10	1	-1e10	1	-1E+10	1	-1e10	1	-1e10	1	-1E+10	1	-1E+10	1	-1E+10	1
4902624	28	C	03/28/2025	16:36	-127.308	48.111	0	626.90	0	4.3604	0	34.2252	0	27.137	0	620.694	0	10.7	4	3.4	4	-1E+10	1	0.0581	4	0.000165	0	-1E+10	1	-1E+10	1	-1E+10	1
4902624	28	C	03/28/2025	16:36	-127.308	48.111	0	635.00	0	4.3470	0	34.2310	0	27.143	0	628.701	0	-1e10	1	-1e10	1	-1E+10	1	-1e10	1	-1e10	1	-1E+10	1	-1E+10	1	-1E+10	1
4902624	28	C	03/28/2025	16:36	-127.308	48.111	0	638.70	0	4.3366	0	34.2339	0	27.147	0	632.359	0	10.1	4	3.2	4	-1E+10	1	0.0515	4	0.000165	0	-1E+10	1	-1E+10	1	-1E+10	1
4902624	28	C	03/28/2025	16:36	-127.308	48.111	0	645.30	0	4.3180	0	34.2390	0	27.153	0	638.883	0	-1e10	1	-1e10	1	-1E+10	1	-1e10	1	-1e10	1	-1E+10	1	-1E+10	1	-1E+10	1
4902624	28	C	03/28/2025	16:36	-127.308	48.111	0	650.50	0	4.3148	0	34.2416	0	27.155	0	644.023	0	9.8	4	3.1	4	-1E+10	1	0.0584	4	0.000164	0	-1E+10	1	-1E+10	1	-1E+10	1
4902624	28	C	03/28/2025	16:36	-127.308	48.111	0	655.20	0	4.3120	0	34.2440	0	27.157	0	648.669	0	-1e10	1	-1e10	1	-1E+10	1	-1e10	1	-1e10	1	-1E+10	1	-1E+10	1	-1E+10	1
4902624	28	C	03/28/2025	16:36	-127.308	48.111	0	662.30	0	4.2971	0	34.2468	0	27.161	0	655.687	0	9.6	4	3.0	4	-1E+10	1	0.0581	4	0.000153	0	-1E+10	1	-1E+10	1	-1E+10	1
4902624	28	C	03/28/2025	16:36	-127.308	48.111	0	665.20	0	4.2910	0	34.2480	0	27.163	0	658.554	0	-1e10	1	-1e10	1	-1E+10	1	-1e10	1	-1e10	1	-1E+10	1	-1E+10	1	-1E+10	1
4902624	28	C	03/28/2025	16:36	-127.308	48.111	0	674.20	0	4.2483	0	34.2526	0	27.171	0	667.449	0	9.3	4	3.0	4	-1E+10	1	0.0517	4	0.000165	0	-1E+10	1	-1E+10	1	-1E+10	1
4902624	28	C	03/28/2025	16:36	-127.308	48.111	0	674.90	0	4.2450	0	34.2530	0	27.172	0	668.141	0	-1e10	1	-1e10	1	-1E+10	1	-1e10	1	-1e10	1	-1E+10	1	-1E+10	1	-1E+10	1
4902624	28	C	03/28/2025	16:36	-127.308	48.111	0	685.00	0	4.2160	0	34.2610	0	27.181	0	678.124	0	-1e10	1	-1e10	1	-1E+10	1	-1e10	1	-1e10	1	-1E+10	1	-1E+10	1	-1E+10	1
4902624	28	C	03/28/2025	16:36	-127.308	48.111	0	686.20	0	4.2143	0	34.2618	0	27.182	0	679.310	0	8.9	4	2.8	4	-1E+10	1	0.0654	4	0.000176	0	-1E+10	1	-1E+10	1	-1E+10	1
4902624	28	C	03/28/2025	16:36	-127.308	48.111	0	695.00	0	4.2020	0	34.2680	0	27.188	0	688.007	0	-1e10	1	-1e10	1	-1E+10	1	-1e10	1	-1e10	1	-1E+10	1	-1E+10	1	-1E+10	1
4902624	28	C	03/28/2025	16:36	-127.308	48.111	0	698.40	0	4.1912	0	34.2697	0	27.191	0	691.367	0	8.7	4	2.8	4	-1E+10	1	0.0580	4	0.000164	0	-1E+10	1	-1E+10	1	-1E+10	1
4902624	28	C	03/28/2025	16:36	-127.308	48.111	0	705.10	0	4.1700	0	34.2730	0	27.196	0	697.988	0	-1e10	1	-1e10	1	-1E+10	1	-1e10	1	-1e10	1	-1E+10	1	-1E+10	1	-1E+10	1
4902624	28	C	03/28/2025	16:36	-127.308	48.111	0	708.00	0	4.1759	0	34.2771	0	27.198	0	700.854	0	8.2	4	2.6	4	-1E+10	1	0.0508	4	0.000156	0	-1E+10	1	-1E+10	1	-1E+10	1
4902624	28	C	03/28/2025	16:36	-127.308	48.111	0	715.00	0	4.1900	0	34.2870	0	27.205	0	707.772	0	-1e10	1	-1e10	1	-1E+10	1	-1e10	1	-1e10	1	-1E+10	1	-1E+10	1	-1E+10	1
4902624	28	C	03/28/2025	16:36	-127.308	48.111	0	715.90	0	4.1880	0	34.2875	0	27.206	0	708.661	0	8.0	4	2.6	4	-1E+10	1	0.0443	4	0.000233	0	-1E+10	1	-1E+10	1	-1E+10	1
4902624	28	C	03/28/2025	16:36	-127.308	48.111	0	723.90	0	4.1706	0	34.2923	0	27.211	0	716.566	0	8.0	4	2.5	4	-1E+10	1	0.0584	4	0.000197	0	-1E+10	1	-1E+10	1	-1E+10	1
4902624	28	C	03/28/2025	16:36	-127.308	48.111	0	725.10	0	4.1680	0	34.2930	0	27.212	0	717.752	0	-1e10	1	-1e10	1	-1E+10	1	-1e10	1	-1e10	1	-1E+10	1	-1E+10	1	-1E+10	1
4902624	28	C	03/28/2025	16:36	-127.308	48.111	0	732.10	0	4.1517	0	34.2958	0	27.216	0	724.669	0	7.9	4	2.5	4	-1E+10	1	0.0581	4	0.000143	0	-1E+10	1	-1E+10	1	-1E+10	1
4902624	28	C	03/28/2025	16:36	-127.308	48.111	0	735.00	0	4.1450	0	34.2970	0	27.218	0	727.535	0	-1e10	1	-1e10	1	-1E+10	1	-1e10	1	-1e10	1	-1E+10	1	-1E+10	1	-1E+10	1
4902624	28	C	03/28/2025	16:36	-127.308	48.111	0	740.30	0	4.1316	0	34.2991	0	27.221	0	732.772	0	7.9	4	2.5	4	-1E+10	1	0.0516	4	0.000198	0	-1E+10	1	-1E+10	1	-1E+10	1
4902624	28	C	03/28/2025	16:36	-127.308	48.111	0	744.90	0	4.1200	0	34.3010	0	27.224	0	737.317	0	-1e10	1	-1e10	1	-1E+10	1	-1e10	1	-1e10	1	-1E+10	1	-1E+10	1	-1E+10	1
4902624	28	C	03/28/2025	16:36	-127.308	48.111	0	748.60	0	4.1119	0	34.3025	0	27.226	0	740.972	0	7.8	4	2.5	4	-1E+10	1	0.0652	4	0.000153	0	-1E+10	1	-1E+10	1	-1E+10	1
4902624	28	C	03/28/2025	16:36	-127.308	48.111	0	755.00	0	4.0980	0	34.3050	0	27.229	0	747.296	0	-1e10	1	-1e10	1	-1E+10	1	-1e10	1	-1e10	1	-1E+10	1	-1E+10	1	-1E+10	1
4902624	28	C	03/28/2025	16:36	-127.308	48.111	0	757.00	0	4.0927	0	34.3062	0	27.231	0	749.272	0	7.7	4	2.5	4	-1E+10	1	0.0514	4	0.000176	0	-1E+10	1	-1E+10	1	-1E+10	1
4902624	28	C	03/28/2025	16:36	-127.308	48.111	0	765.10	0	4.0710	0	34.3110	0	27.237	0	757.274	0	-1e10	1	-1e10	1	-1E+10	1	-1e10	1	-1e10	1	-1E+10	1	-1E+10	1	-1E+10	1
4902624	28	C	03/28/2025	16:36	-127.308	48.111	0	765.60	0	4.0691	0	34.3112	0	27.237	0	757.768	0	7.7	4	2.4	4	-1E+10	1	0.0584	4	0.000174	0	-1E+10	1	-1E+10	1	-1E+10	1
4902624	28	C	03/28/2025	16:36	-127.308	48.111	0	774.50	0	4.0359	0	34.3148	0	27.243	0	766.561	0	7.6	4	2.4	4	-1E+10	1	0.0590	4	0.000145	0	-1E+10	1	-1E+10	1	-1E+10	1
4902624	28	C	03/28/2025	16:36	-127.308	48.111	0	775.00	0	4.0340	0	34.3150	0	27.244	0	767.055	0	-1e10	1	-1e10	1	-1E+10	1	-1e10	1	-1e10	1	-1E+10	1	-1E+10	1	-1E+10	1
4902624	28	C	03/28/2025	16:36	-127.308	48.111	0	783.80	0	3.9997	0	34.3185	0	27.250	0	775.748	0	7.6	4	2.4	4	-1E+10	1	0.0721	4	0.000241	0	-1E+10	1	-1E+10	1	-1E+10	1
4902624	28	C	03/28/2025	16:36	-127.308	48.111	0	785.00	0	3.9950	0	34.3190	0	27.251	0	776.934	0	-1e10	1	-1e10	1	-1E+10	1	-1e10	1	-1e10	1	-1E+10	1	-1E+10	1	-1E+10	1
4902624	28	C	03/28/2025	16:36	-127.308	48.111	0	793.30	0	3.9802	0	34.3256	0	27.258	0	785.133	0	7.5	4	2.4	4	-1E+10	1	0.0515	4	0.000129	0	-1E+10	1	-1E+10	1	-1E+10	1
4902624	28	C	03/28/2025	16:36	-127.308	48.111	0	795.10	0	3.9770	0	34.3270	0	27.259	0	786.911	0	-1e10	1	-1e10	1	-1E+10	1	-1e10	1	-1e10	1	-1E+10	1	-1E+10	1	-1E+10	1
4902624	28	C	03/28/2025	16:36	-127.308	48.111	0	803.30	0	3.9458	0	34.3303	0	27.265	0	795.011	0	7.5	4	2.4	4	-1E+10	1	0.0648	4	0.000152	0	-1E+10	1	-1E+10	1	-1E+10	1
4902624	28	C	03/28/2025	16:36	-127.308	48.111	0	805.10	0	3.9390	0	34.3310	0	27.266	0	796.789	0	-1e10	1	-1e10	1	-1E+10	1	-1e10	1	-1e10	1	-1E+10	1	-1E+10	1	-1E+10	1
4902624	28	C	03/28/2025	16:36	-127.308	48.111	0	813.40	0	3.9226	0	34.3343	0	27.271	0	804.987	0	7.6	4	2.4	4	-1E+10	1	0.0441	4	0.000162	0	-1E+10	1	-1E+10	1	-1E+10	1
4902624	28	C	03/28/2025	16:36	-127.308	48.111	0	815.20	0	3.9190	0	34.3350	0	27.272	0	806.765	0	-1e10	1	-1e10	1	-1E+10	1	-1e10	1	-1e10	1	-1E+10	1	-1E+10	1	-1E+10	1
4902624	28	C	03/28/2025	16:36	-127.308	48.111	0	823.80	0	3.9123	0	34.3401	0	27.276	0	815.259	0	7.6	4	2.4	4	-1E+10	1	0.0511	4	0.000130	0	-1E+10	1	-1E+10	1	-1E+10	1
4902624	28	C	03/28/2025	16:36	-127.308	48.111	0	825.40	0	3.9110	0	34.3410	0	27.277	0	816.840	0	-1e10	1	-1e10	1	-1E+10	1	-1e10	1	-1e10	1	-1E+10	1	-1E+10	1	-1E+10	1
4902624	28	C	03/28/2025	16:36	-127.308	48.111	0	834.50	0	3.9044	0	34.3485	0	27.284	0	825.827	0	7.7	4	2.4	4	-1E+10	1	0.0511	4	0.000186	0	-1E+10	1	-1E+10	1	-1E+10	1
4902624	28	C	03/28/2025	16:36	-127.308	48.111	0	835.10	0	3.9040	0	34.3490	0	27.284	0	826.420	0	-1e10	1	-1e10	1	-1E+10	1	-1e10	1	-1e10	1	-1E+10	1	-1E+10	1	-1E+10	1
4902624	28	C	03/28/2025	16:36	-127.308	48.111	0	845.00	0	3.8710	0	34.3560	0	27.293	0	836.197	0	-1e10	1	-1e10	1	-1E+10	1	-1e10	1	-1e10	1	-1E+10	1	-1E+10	1	-1E+10	1
4902624	28	C	03/28/2025	16:36	-127.308	48.111	0	845.50	0	3.8696	0	34.3563	0	27.294	0	836.691	0	7.8	4	2.5	4	-1E+10	1	0.0516	4	0.000174	0	-1E+10	1	-1E+10	1	-1E+10	1
4902624	28	C	03/28/2025	16:36	-127.308	48.111	0	855.30	0	3.8430	0	34.3620	0	27.301	0	846.369	0	-1e10	1	-1e10	1	-1E+10	1	-1e10	1	-1e10	1	-1E+10	1	-1E+10	1	-1E+10	1
4902624	28	C	03/28/2025	16:36	-127.308	48.111	0	856.70	0	3.8399	0	34.3627	0	27.302	0	847.752	0	8.0	4	2.5	4	-1E+10	1	0.0652	4	0.000166	0	-1E+10	1	-1E+10	1	-1E+10	1
4902624	28	C	03/28/2025	16:36	-127.308	48.111	0	865.10	0	3.8210	0	34.3670	0	27.307	0	856.047	0	-1e10	1	-1e10	1	-1E+10	1	-1e10	1	-1e10	1	-1E+10	1	-1E+10	1	-1E+10	1
4902624	28	C	03/28/2025	16:36	-127.308	48.111	0	868.20	0	3.8151	0	34.3683	0	27.309	0	859.108	0	8.2	4	2.6	4	-1E+10	1	0.0521	4	0.000233	0	-1E+10	1	-1E+10	1	-1E+10	1
4902624	28	C	03/28/2025	16:36	-127.308	48.111	0	875.00	0	3.8020	0	34.3710	0	27.313	0	865.823	0	-1e10	1	-1e10	1	-1E+10	1	-1e10	1	-1e10	1	-1E+10	1	-1E+10	1	-1E+10	1
4902624	28	C	03/28/2025	16:36	-127.308	48.111	0	879.70	0	3.7926	0	34.3723	0	27.315	0	870.464	0	14.6	4	4.6	4	-1E+10	1	0.0724	4	0.000219	0	-1E+10	1	-1E+10	1	-1E+10	1
4902624	28	C	03/28/2025	16:36	-127.308	48.111	0	885.50	0	3.7810	0	34.3740	0	27.317	0	876.191	0	-1e10	1	-1e10	1	-1E+10	1	-1e10	1	-1e10	1	-1E+10	1	-1E+10	1	-1E+10	1
4902624	28	C	03/28/2025	16:36	-127.308	48.111	0	891.30	0	3.7641	0	34.3776	0	27.322	0	881.917	0	45.4	8	14.3	8	-1E+10	1	0.0584	4	0.000174	0	-1E+10	1	-1E+10	1	-1E+10	1
4902624	28	C	03/28/2025	16:36	-127.308	48.111	0	895.10	0	3.7530	0	34.3800	0	27.325	0	885.669	0	-1e10	1	-1e10	1	-1E+10	1	-1e10	1	-1e10	1	-1E+10	1	-1E+10	1	-1E+10	1
4902624	28	C	03/28/2025	16:36	-127.308	48.111	0	903.00	0	3.7304	0	34.3824	0	27.329	0	893.469	0	8.6	4	2.7	4	-1E+10	1	0.0582	4	0.000163	0	-1E+10	1	-1E+10	1	-1E+10	1
4902624	28	C	03/28/2025	16:36	-127.308	48.111	0	904.90	0	3.7250	0	34.3830	0	27.330	0	895.345	0	-1e10	1	-1e10	1	-1E+10	1	-1e10	1	-1e10	1	-1E+10	1	-1E+10	1	-1E+10	1
4902624	28	C	03/28/2025	16:36	-127.308	48.111	0	914.90	0	3.6913	0	34.3880	0	27.337	0	905.218	0	8.8	4	2.8	4	-1E+10	1	0.0514	4	0.000186	0	-1E+10	1	-1E+10	1	-1E+10	1
4902624	28	C	03/28/2025	16:36	-127.308	48.111	0	915.00	0	3.6910	0	34.3880	0	27.337	0	905.317	0	-1e10	1	-1e10	1	-1E+10	1	-1e10	1	-1e10	1	-1E+10	1	-1E+10	1	-1E+10	1
4902624	28	C	03/28/2025	16:36	-127.308	48.111	0	924.90	0	3.6590	0	34.3920	0	27.344	0	915.090	0	-1e10	1	-1e10	1	-1E+10	1	-1e10	1	-1e10	1	-1E+10	1	-1E+10	1	-1E+10	1
4902624	28	C	03/28/2025	16:36	-127.308	48.111	0	926.70	0	3.6552	0	34.3925	0	27.345	0	916.867	0	28.3	4	8.9	4	-1E+10	1	0.0581	4	0.000200	0	-1E+10	1	-1E+10	1	-1E+10	1
4902624	28	C	03/28/2025	16:36	-127.308	48.111	0	934.90	0	3.6380	0	34.3950	0	27.348	0	924.962	0	-1e10	1	-1e10	1	-1E+10	1	-1e10	1	-1e10	1	-1E+10	1	-1E+10	1	-1E+10	1
4902624	28	C	03/28/2025	16:36	-127.308	48.111	0	938.40	0	3.6328	0	34.3960	0	27.350	0	928.417	0	9.1	4	2.9	4	-1E+10	1	0.0508	4	0.000244	0	-1E+10	1	-1E+10	1	-1E+10	1
4902624	28	C	03/28/2025	16:36	-127.308	48.111	0	945.00	0	3.6230	0	34.3980	0	27.352	0	934.932	0	-1e10	1	-1e10	1	-1E+10	1	-1e10	1	-1e10	1	-1E+10	1	-1E+10	1	-1E+10	1
4902624	28	C	03/28/2025	16:36	-127.308	48.111	0	948.00	0	3.6153	0	34.3989	0	27.354	0	937.893	0	32.6	4	10.2	4	-1E+10	1	0.0452	4	0.000232	0	-1E+10	1	-1E+10	1	-1E+10	1
4902624	28	C	03/28/2025	16:36	-127.308	48.111	0	954.80	0	3.5980	0	34.4010	0	27.357	0	944.606	0	-1e10	1	-1e10	1	-1E+10	1	-1e10	1	-1e10	1	-1E+10	1	-1E+10	1	-1E+10	1
4902624	28	C	03/28/2025	16:36	-127.308	48.111	0	956.00	0	3.5949	0	34.4015	0	27.358	0	945.790	0	45.0	4	14.1	4	-1E+10	1	0.0725	4	0.000220	0	-1E+10	1	-1E+10	1	-1E+10	1
4902624	28	C	03/28/2025	16:36	-127.308	48.111	0	964.20	0	3.5736	0	34.4048	0	27.362	0	953.884	0	53.2	4	16.6	4	-1E+10	1	0.0591	4	0.000198	0	-1E+10	1	-1E+10	1	-1E+10	1
4902624	28	C	03/28/2025	16:36	-127.308	48.111	0	964.80	0	3.5720	0	34.4050	0	27.363	0	954.476	0	-1e10	1	-1e10	1	-1E+10	1	-1e10	1	-1e10	1	-1E+10	1	-1E+10	1	-1E+10	1
4902624	28	C	03/28/2025	16:36	-127.308	48.111	0	972.60	0	3.5553	0	34.4088	0	27.368	0	962.175	0	63.2	4	19.8	4	-1E+10	1	0.0723	4	0.000431	0	-1E+10	1	-1E+10	1	-1E+10	1
4902624	28	C	03/28/2025	16:36	-127.308	48.111	0	975.10	0	3.5500	0	34.4100	0	27.369	0	964.642	0	-1e10	1	-1e10	1	-1E+10	1	-1e10	1	-1e10	1	-1E+10	1	-1E+10	1	-1E+10	1
4902624	28	C	03/28/2025	16:36	-127.308	48.111	0	981.20	0	3.5299	0	34.4131	0	27.373	0	970.663	0	67.3	4	21.1	4	-1E+10	1	0.0587	4	0.000175	0	-1E+10	1	-1E+10	1	-1E+10	1
4902624	28	C	03/28/2025	16:36	-127.308	48.111	0	985.10	0	3.5170	0	34.4150	0	27.376	0	974.512	0	-1e10	1	-1e10	1	-1E+10	1	-1e10	1	-1e10	1	-1E+10	1	-1E+10	1	-1E+10	1
4902624	28	C	03/28/2025	16:36	-127.308	48.111	0	990.30	0	3.5035	0	34.4166	0	27.379	0	979.644	0	69.5	4	21.7	4	-1E+10	1	0.0654	4	0.000197	0	-1E+10	1	-1E+10	1	-1E+10	1
4902624	28	C	03/28/2025	16:36	-127.308	48.111	0	995.10	0	3.4910	0	34.4180	0	27.381	0	984.381	0	-1e10	1	-1e10	1	-1E+10	1	-1e10	1	-1e10	1	-1E+10	1	-1E+10	1	-1E+10	1
4902624	28	C	03/28/2025	16:36	-127.308	48.111	0	1007.00	0	3.4618	0	34.4208	0	27.386	0	996.124	0	72.2	4	22.5	4	-1E+10	1	0.0511	4	0.000197	0	-1E+10	1	-1E+10	1	-1E+10	1
4902624	28	C	03/28/2025	16:36	-127.308	48.111	0	1024.90	0	3.4180	0	34.4250	0	27.394	0	1013.788	0	-1e10	1	-1e10	1	-1E+10	1	-1e10	1	-1e10	1	-1E+10	1	-1E+10	1	-1E+10	1
4902624	28	C	03/28/2025	16:36	-127.308	48.111	0	1026.60	0	3.4137	0	34.4254	0	27.395	0	1015.465	0	75.1	4	23.4	4	-1E+10	1	0.0511	4	0.000197	0	-1E+10	1	-1E+10	1	-1E+10	1
4902624	28	C	03/28/2025	16:36	-127.308	48.111	0	1047.30	0	3.3618	0	34.4308	0	27.404	0	1035.890	0	76.8	4	23.9	4	-1E+10	1	0.0511	4	0.000207	0	-1E+10	1	-1E+10	1	-1E+10	1
4902624	28	C	03/28/2025	16:36	-127.308	48.111	0	1068.60	0	3.3083	0	34.4363	0	27.414	0	1056.904	0	85.7	4	26.6	4	-1E+10	1	0.0514	4	0.000173	0	-1E+10	1	-1E+10	1	-1E+10	1
4902624	28	C	03/28/2025	16:36	-127.308	48.111	0	1075.10	0	3.2920	0	34.4380	0	27.417	0	1063.316	0	-1e10	1	-1e10	1	-1E+10	1	-1e10	1	-1e10	1	-1E+10	1	-1E+10	1	-1E+10	1
4902624	28	C	03/28/2025	16:36	-127.308	48.111	0	1090.80	0	3.2611	0	34.4421	0	27.423	0	1078.804	0	62.1	4	19.3	4	-1E+10	1	0.0656	4	0.000196	0	-1E+10	1	-1E+10	1	-1E+10	1
4902624	28	C	03/28/2025	16:36	-127.308	48.111	0	1113.70	0	3.2160	0	34.4480	0	27.432	0	1101.392	0	62.7	4	19.5	4	-1E+10	1	0.0582	4	0.000173	0	-1E+10	1	-1E+10	1	-1E+10	1
4902624	28	C	03/28/2025	16:36	-127.308	48.111	0	1125.40	0	3.1930	0	34.4510	0	27.436	0	1112.932	0	-1e10	1	-1e10	1	-1E+10	1	-1e10	1	-1e10	1	-1E+10	1	-1E+10	1	-1E+10	1
4902624	28	C	03/28/2025	16:36	-127.308	48.111	0	1137.50	0	3.1669	0	34.4544	0	27.442	0	1124.865	0	65.1	4	20.2	4	-1E+10	1	0.0515	4	0.000207	0	-1E+10	1	-1E+10	1	-1E+10	1
4902624	28	C	03/28/2025	16:36	-127.308	48.111	0	1157.80	0	3.1232	0	34.4601	0	27.450	0	1144.884	0	68.0	4	21.1	4	-1E+10	1	0.0654	4	0.000172	0	-1E+10	1	-1E+10	1	-1E+10	1
4902624	28	C	03/28/2025	16:36	-127.308	48.111	0	1174.00	0	3.0884	0	34.4647	0	27.457	0	1160.859	0	65.5	4	20.3	4	-1E+10	1	0.0515	4	0.000183	0	-1E+10	1	-1E+10	1	-1E+10	1
4902624	28	C	03/28/2025	16:36	-127.308	48.111	0	1175.10	0	3.0860	0	34.4650	0	27.458	0	1161.944	0	-1e10	1	-1e10	1	-1E+10	1	-1e10	1	-1e10	1	-1E+10	1	-1E+10	1	-1E+10	1
4902624	28	C	03/28/2025	16:36	-127.308	48.111	0	1190.30	0	3.0550	0	34.4687	0	27.464	0	1176.931	0	59.9	4	18.5	4	-1E+10	1	0.0655	4	0.000160	0	-1E+10	1	-1E+10	1	-1E+10	1
4902624	28	C	03/28/2025	16:36	-127.308	48.111	0	1206.70	0	3.0215	0	34.4727	0	27.470	0	1193.100	0	62.2	4	19.2	4	-1E+10	1	0.0585	4	0.000172	0	-1E+10	1	-1E+10	1	-1E+10	1
4902624	28	C	03/28/2025	16:36	-127.308	48.111	0	1223.50	0	2.9872	0	34.4767	0	27.476	0	1209.663	0	66.7	4	20.6	4	-1E+10	1	0.0654	4	0.000195	0	-1E+10	1	-1E+10	1	-1E+10	1
4902624	28	C	03/28/2025	16:36	-127.308	48.111	0	1224.60	0	2.9850	0	34.4770	0	27.477	0	1210.747	0	-1e10	1	-1e10	1	-1E+10	1	-1e10	1	-1e10	1	-1E+10	1	-1E+10	1	-1E+10	1
4902624	28	C	03/28/2025	16:36	-127.308	48.111	0	1240.80	0	2.9489	0	34.4812	0	27.483	0	1226.716	0	67.4	4	20.8	4	-1E+10	1	0.0513	4	0.000195	0	-1E+10	1	-1E+10	1	-1E+10	1
4902624	28	C	03/28/2025	16:36	-127.308	48.111	0	1258.90	0	2.9085	0	34.4859	0	27.491	0	1244.558	0	69.8	4	21.5	4	-1E+10	1	0.0582	4	0.000195	0	-1E+10	1	-1E+10	1	-1E+10	1
4902624	28	C	03/28/2025	16:36	-127.308	48.111	0	1274.80	0	2.8730	0	34.4900	0	27.497	0	1260.229	0	-1e10	1	-1e10	1	-1E+10	1	-1e10	1	-1e10	1	-1E+10	1	-1E+10	1	-1E+10	1
4902624	28	C	03/28/2025	16:36	-127.308	48.111	0	1278.10	0	2.8667	0	34.4908	0	27.499	0	1263.481	0	71.8	4	22.1	4	-1E+10	1	0.0511	4	0.000206	0	-1E+10	1	-1E+10	1	-1E+10	1
4902624	28	C	03/28/2025	16:36	-127.308	48.111	0	1298.00	0	2.8289	0	34.4955	0	27.506	0	1283.093	0	70.7	4	21.7	4	-1E+10	1	0.0514	4	0.000206	0	-1E+10	1	-1E+10	1	-1E+10	1
4902624	28	C	03/28/2025	16:36	-127.308	48.111	0	1318.80	0	2.7894	0	34.5005	0	27.513	0	1303.590	0	73.2	4	22.5	4	-1E+10	1	0.0653	4	0.000194	0	-1E+10	1	-1E+10	1	-1E+10	1
4902624	28	C	03/28/2025	16:36	-127.308	48.111	0	1325.30	0	2.7770	0	34.5020	0	27.516	0	1309.995	0	-1e10	1	-1e10	1	-1E+10	1	-1e10	1	-1e10	1	-1E+10	1	-1E+10	1	-1E+10	1
4902624	28	C	03/28/2025	16:36	-127.308	48.111	0	1340.60	0	2.7484	0	34.5050	0	27.521	0	1325.070	0	76.2	4	23.4	4	-1E+10	1	0.0441	4	0.000194	0	-1E+10	1	-1E+10	1	-1E+10	1
4902624	28	C	03/28/2025	16:36	-127.308	48.111	0	1363.60	0	2.7055	0	34.5095	0	27.528	0	1347.730	0	79.8	4	24.5	4	-1E+10	1	0.0584	4	0.000216	0	-1E+10	1	-1E+10	1	-1E+10	1
4902624	28	C	03/28/2025	16:36	-127.308	48.111	0	1376.20	0	2.6820	0	34.5120	0	27.532	0	1360.143	0	-1e10	1	-1e10	1	-1E+10	1	-1e10	1	-1e10	1	-1E+10	1	-1E+10	1	-1E+10	1
4902624	28	C	03/28/2025	16:36	-127.308	48.111	0	1383.60	0	2.6707	0	34.5131	0	27.534	0	1367.432	0	83.9	4	25.7	4	-1E+10	1	0.0581	4	0.000158	0	-1E+10	1	-1E+10	1	-1E+10	1
4902624	28	C	03/28/2025	16:36	-127.308	48.111	0	1400.00	0	2.6458	0	34.5154	0	27.538	0	1383.587	0	82.8	4	25.3	4	-1E+10	1	0.0438	4	0.000169	0	-1E+10	1	-1E+10	1	-1E+10	1
4902624	28	C	03/28/2025	16:36	-127.308	48.111	0	1417.00	0	2.6199	0	34.5179	0	27.542	0	1400.331	0	85.1	4	26.1	4	-1E+10	1	0.0441	4	0.000148	0	-1E+10	1	-1E+10	1	-1E+10	1
4902624	28	C	03/28/2025	16:36	-127.308	48.111	0	1424.80	0	2.6080	0	34.5190	0	27.544	0	1408.014	0	-1e10	1	-1e10	1	-1E+10	1	-1e10	1	-1e10	1	-1E+10	1	-1E+10	1	-1E+10	1
4902624	28	C	03/28/2025	16:36	-127.308	48.111	0	1434.10	0	2.5958	0	34.5207	0	27.547	0	1417.173	0	83.2	4	25.5	4	-1E+10	1	0.0584	4	0.000216	0	-1E+10	1	-1E+10	1	-1E+10	1
4902624	28	C	03/28/2025	16:36	-127.308	48.111	0	1451.90	0	2.5724	0	34.5239	0	27.551	0	1434.702	0	84.1	4	25.7	4	-1E+10	1	0.0584	4	0.000215	0	-1E+10	1	-1E+10	1	-1E+10	1
4902624	28	C	03/28/2025	16:36	-127.308	48.111	0	1470.10	0	2.5484	0	34.5271	0	27.556	0	1452.624	0	87.6	4	26.8	4	-1E+10	1	0.0584	4	0.000173	0	-1E+10	1	-1E+10	1	-1E+10	1
4902624	28	C	03/28/2025	16:36	-127.308	48.111	0	1475.00	0	2.5420	0	34.5280	0	27.557	0	1457.449	0	-1e10	1	-1e10	1	-1E+10	1	-1e10	1	-1e10	1	-1E+10	1	-1E+10	1	-1E+10	1
4902624	28	C	03/28/2025	16:36	-127.308	48.111	0	1488.40	0	2.5195	0	34.5304	0	27.561	0	1470.643	0	88.6	4	27.0	4	-1E+10	1	0.0584	4	0.000342	0	-1E+10	1	-1E+10	1	-1E+10	1
4902624	28	C	03/28/2025	16:36	-127.308	48.111	0	1507.10	0	2.4881	0	34.5338	0	27.567	0	1489.054	0	90.4	4	27.6	4	-1E+10	1	0.0581	4	0.000215	0	-1E+10	1	-1E+10	1	-1E+10	1
4902624	28	C	03/28/2025	16:36	-127.308	48.111	0	1525.00	0	2.4580	0	34.5370	0	27.572	0	1506.676	0	-1e10	1	-1e10	1	-1E+10	1	-1e10	1	-1e10	1	-1E+10	1	-1E+10	1	-1E+10	1
4902624	28	C	03/28/2025	16:36	-127.308	48.111	0	1526.20	0	2.4560	0	34.5372	0	27.572	0	1507.857	0	90.2	4	27.5	4	-1E+10	1	0.0441	4	0.000181	0	-1E+10	1	-1E+10	1	-1E+10	1
4902624	28	C	03/28/2025	16:36	-127.308	48.111	0	1545.70	0	2.4229	0	34.5407	0	27.578	0	1527.052	0	89.4	4	27.2	4	-1E+10	1	0.0587	4	0.000192	0	-1E+10	1	-1E+10	1	-1E+10	1
4902624	28	C	03/28/2025	16:36	-127.308	48.111	0	1565.70	0	2.3889	0	34.5443	0	27.584	0	1546.738	0	89.7	4	27.3	4	-1E+10	1	0.0723	4	0.000180	0	-1E+10	1	-1E+10	1	-1E+10	1
4902624	28	C	03/28/2025	16:36	-127.308	48.111	0	1575.10	0	2.3730	0	34.5460	0	27.586	0	1555.990	0	-1e10	1	-1e10	1	-1E+10	1	-1e10	1	-1e10	1	-1E+10	1	-1E+10	1	-1E+10	1
4902624	28	C	03/28/2025	16:36	-127.308	48.111	0	1586.50	0	2.3566	0	34.5478	0	27.589	0	1567.209	0	83.6	4	25.4	4	-1E+10	1	0.0441	4	0.000193	0	-1E+10	1	-1E+10	1	-1E+10	1
4902624	28	C	03/28/2025	16:36	-127.308	48.111	0	1608.40	0	2.3252	0	34.5513	0	27.595	0	1588.761	0	87.9	4	26.7	4	-1E+10	1	0.0585	4	0.000260	0	-1E+10	1	-1E+10	1	-1E+10	1
4902624	28	C	03/28/2025	16:36	-127.308	48.111	0	1625.30	0	2.3010	0	34.5540	0	27.599	0	1605.390	0	-1e10	1	-1e10	1	-1E+10	1	-1e10	1	-1e10	1	-1E+10	1	-1E+10	1	-1E+10	1
4902624	28	C	03/28/2025	16:36	-127.308	48.111	0	1630.90	0	2.2949	0	34.5548	0	27.600	0	1610.901	0	94.9	4	28.8	4	-1E+10	1	0.0652	4	0.000180	0	-1E+10	1	-1E+10	1	-1E+10	1
4902624	28	C	03/28/2025	16:36	-127.308	48.111	0	1648.80	0	2.2756	0	34.5573	0	27.604	0	1628.512	0	93.4	4	28.3	4	-1E+10	1	0.0440	4	0.000193	0	-1E+10	1	-1E+10	1	-1E+10	1
4902624	28	C	03/28/2025	16:36	-127.308	48.111	0	1664.90	0	2.2581	0	34.5596	0	27.607	0	1644.352	0	100.3	4	30.4	4	-1E+10	1	0.0510	4	0.000271	0	-1E+10	1	-1E+10	1	-1E+10	1
4902624	28	C	03/28/2025	16:36	-127.308	48.111	0	1675.20	0	2.2470	0	34.5610	0	27.609	0	1654.484	0	-1e10	1	-1e10	1	-1E+10	1	-1e10	1	-1e10	1	-1E+10	1	-1E+10	1	-1E+10	1
4902624	28	C	03/28/2025	16:36	-127.308	48.111	0	1681.70	0	2.2403	0	34.5618	0	27.611	0	1660.879	0	104.0	4	31.5	4	-1E+10	1	0.0440	4	0.000155	0	-1E+10	1	-1E+10	1	-1E+10	1
4902624	28	C	03/28/2025	16:36	-127.308	48.111	0	1699.10	0	2.2223	0	34.5639	0	27.614	0	1677.994	0	106.3	4	32.2	4	-1E+10	1	0.0509	4	0.000156	0	-1E+10	1	-1E+10	1	-1E+10	1
4902624	28	C	03/28/2025	16:36	-127.308	48.111	0	1717.00	0	2.2038	0	34.5661	0	27.617	0	1695.600	0	107.8	4	32.7	4	-1E+10	1	0.0442	4	0.000178	0	-1E+10	1	-1E+10	1	-1E+10	1
4902624	28	C	03/28/2025	16:36	-127.308	48.111	0	1724.60	0	2.1960	0	34.5670	0	27.618	0	1703.075	0	-1e10	1	-1e10	1	-1E+10	1	-1e10	1	-1e10	1	-1E+10	1	-1E+10	1	-1E+10	1
4902624	28	C	03/28/2025	16:36	-127.308	48.111	0	1735.60	0	2.1834	0	34.5687	0	27.621	0	1713.894	0	109.0	4	33.0	4	-1E+10	1	0.0653	4	0.000178	0	-1E+10	1	-1E+10	1	-1E+10	1
4902624	28	C	03/28/2025	16:36	-127.308	48.111	0	1755.30	0	2.1607	0	34.5719	0	27.625	0	1733.267	0	110.7	4	33.5	4	-1E+10	1	0.0439	4	0.000144	0	-1E+10	1	-1E+10	1	-1E+10	1
4902624	28	C	03/28/2025	16:36	-127.308	48.111	0	1775.10	0	2.1380	0	34.5750	0	27.630	0	1752.737	0	-1e10	1	-1e10	1	-1E+10	1	-1e10	1	-1e10	1	-1E+10	1	-1E+10	1	-1E+10	1
4902624	28	C	03/28/2025	16:36	-127.308	48.111	0	1775.90	0	2.1371	0	34.5751	0	27.630	0	1753.523	0	112.8	4	34.1	4	-1E+10	1	0.0512	4	0.000189	0	-1E+10	1	-1E+10	1	-1E+10	1
4902624	28	C	03/28/2025	16:36	-127.308	48.111	0	1797.30	0	2.1117	0	34.5790	0	27.635	0	1774.564	0	114.5	4	34.6	4	-1E+10	1	0.0584	4	0.000166	0	-1E+10	1	-1E+10	1	-1E+10	1
4902624	28	C	03/28/2025	16:36	-127.308	48.111	0	1819.20	0	2.0858	0	34.5830	0	27.640	0	1796.095	0	116.3	4	35.1	4	-1E+10	1	0.0584	4	0.000154	0	-1E+10	1	-1E+10	1	-1E+10	1
4902624	28	C	03/28/2025	16:36	-127.308	48.111	0	1824.90	0	2.0790	0	34.5840	0	27.642	0	1801.698	0	-1e10	1	-1e10	1	-1E+10	1	-1e10	1	-1e10	1	-1E+10	1	-1E+10	1	-1E+10	1
4902624	28	C	03/28/2025	16:36	-127.308	48.111	0	1842.10	0	2.0593	0	34.5864	0	27.645	0	1818.606	0	118.0	4	35.6	4	-1E+10	1	0.0581	4	0.000143	0	-1E+10	1	-1E+10	1	-1E+10	1
4902624	28	C	03/28/2025	16:36	-127.308	48.111	0	1863.30	0	2.0351	0	34.5893	0	27.650	0	1839.444	0	119.2	4	36.0	4	-1E+10	1	0.0437	4	0.000176	0	-1E+10	1	-1E+10	1	-1E+10	1
4902624	28	C	03/28/2025	16:36	-127.308	48.111	0	1875.60	0	2.0210	0	34.5910	0	27.652	0	1851.533	0	-1e10	1	-1e10	1	-1E+10	1	-1e10	1	-1e10	1	-1E+10	1	-1E+10	1	-1E+10	1
4902624	28	C	03/28/2025	16:36	-127.308	48.111	0	1879.20	0	2.0173	0	34.5915	0	27.653	0	1855.071	0	120.5	4	36.4	4	-1E+10	1	0.0368	4	0.000142	0	-1E+10	1	-1E+10	1	-1E+10	1
4902624	28	C	03/28/2025	16:36	-127.308	48.111	0	1896.00	0	1.9998	0	34.5939	0	27.656	0	1871.581	0	121.0	4	36.5	4	-1E+10	1	0.0510	4	0.000153	0	-1E+10	1	-1E+10	1	-1E+10	1
4902624	28	C	03/28/2025	16:36	-127.308	48.111	0	1913.70	0	1.9813	0	34.5964	0	27.660	0	1888.975	0	121.6	4	36.7	4	-1E+10	1	0.0439	4	0.000118	0	-1E+10	1	-1E+10	1	-1E+10	1
4902624	28	C	03/28/2025	16:36	-127.308	48.111	0	1924.60	0	1.9700	0	34.5980	0	27.662	0	1899.685	0	-1e10	1	-1e10	1	-1E+10	1	-1e10	1	-1e10	1	-1E+10	1	-1E+10	1	-1E+10	1
4902624	28	C	03/28/2025	16:36	-127.308	48.111	0	1932.20	0	1.9647	0	34.5989	0	27.663	0	1907.153	0	122.2	4	36.8	4	-1E+10	1	0.0511	4	0.000129	0	-1E+10	1	-1E+10	1	-1E+10	1
4902624	28	C	03/28/2025	16:36	-127.308	48.111	0	1951.40	0	1.9513	0	34.6011	0	27.666	0	1926.017	0	122.1	4	36.8	4	-1E+10	1	0.0509	4	0.000129	0	-1E+10	1	-1E+10	1	-1E+10	1
4902624	28	C	03/28/2025	16:36	-127.308	48.111	0	1959.00	0	1.9460	0	34.6020	0	27.667	0	1933.484	0	-1e10	1	-1e10	1	-1E+10	1	-1e10	1	-1e10	1	-1E+10	1	-1E+10	1	-1E+10	1
4902624	28	C	03/28/2025	16:36	-127.308	48.111	0	1967.70	0	-1e10	1	-1e10	1	-1e10	1	1942.031	0	122.2	4	-1e10	4	-1E+10	1	0.0438	4	0.000135	0	-1E+10	1	-1E+10	1	-1E+10	1
4902624	28	C	03/28/2025	16:36	-127.308	48.111	0																										
4902624	29	C	04/07/2025	11:41	-127.554	48.087	0	0.10	0	9.2810	0	32.2080	0	24.889	0	0.099	0	254.7	4	89.5	4	-1E+10	1	0.8176	4	0.000551	0	-1E+10	1	-1E+10	1	-1E+10	1
4902624	29	C	04/07/2025	11:41	-127.554	48.087	0	0.30	0	9.2810	0	32.2080	0	24.889	0	0.297	0	258.9	4	91.0	4	-1E+10	1	0.8176	4	0.000551	0	-1E+10	1	-1E+10	1	-1E+10	1
4902624	29	C	04/07/2025	11:41	-127.554	48.087	0	0.50	0	9.2810	0	32.2080	0	24.889	0	0.496	0	-1e10	1	-1e10	1	-1E+10	1	-1e10	1	-1e10	1	-1E+10	1	-1E+10	1	-1E+10	1
4902624	29	C	04/07/2025	11:41	-127.554	48.087	0	0.60	0	9.2808	0	32.2079	0	24.889	0	0.595	0	265.1	4	93.2	4	-1E+10	1	0.8249	4	0.000611	0	-1E+10	1	-1E+10	1	-1E+10	1
4902624	29	C	04/07/2025	11:41	-127.554	48.087	0	0.80	0	9.2804	0	32.2077	0	24.889	0	0.793	0	264.8	4	93.1	4	-1E+10	1	0.8504	4	0.000596	0	-1E+10	1	-1E+10	1	-1E+10	1
4902624	29	C	04/07/2025	11:41	-127.554	48.087	0	1.10	0	9.2798	0	32.2074	0	24.889	0	1.091	0	-1e10	1	-1e10	1	-1E+10	1	0.8395	4	0.000605	0	-1E+10	1	-1E+10	1	-1E+10	1
4902624	29	C	04/07/2025	11:41	-127.554	48.087	0	1.20	0	9.2796	0	32.2073	0	24.889	0	1.190	0	-1e10	1	-1e10	1	-1E+10	1	0.8322	4	0.001086	0	-1E+10	1	-1E+10	1	-1E+10	1
4902624	29	C	04/07/2025	11:41	-127.554	48.087	0	1.40	0	9.2792	0	32.2071	0	24.889	0	1.388	0	-1e10	1	-1e10	1	-1E+10	1	0.8249	4	0.000628	0	-1E+10	1	-1E+10	1	-1E+10	1
4902624	29	C	04/07/2025	11:41	-127.554	48.087	0	1.50	0	9.2790	0	32.2070	0	24.889	0	1.487	0	-1e10	1	-1e10	1	-1E+10	1	0.8322	4	0.000569	0	-1E+10	1	-1E+10	1	-1E+10	1
4902624	29	C	04/07/2025	11:41	-127.554	48.087	0	1.60	0	9.2790	0	32.2071	0	24.889	0	1.587	0	264.6	4	93.0	4	-1E+10	1	0.8468	4	0.000546	0	-1E+10	1	-1E+10	1	-1E+10	1
4902624	29	C	04/07/2025	11:41	-127.554	48.087	0	1.80	0	9.2790	0	32.2073	0	24.889	0	1.785	0	-1e10	1	-1e10	1	-1E+10	1	0.8103	4	0.000652	0	-1E+10	1	-1E+10	1	-1E+10	1
4902624	29	C	04/07/2025	11:41	-127.554	48.087	0	1.90	0	9.2790	0	32.2074	0	24.889	0	1.884	0	-1e10	1	-1e10	1	-1E+10	1	0.8468	4	0.000675	0	-1E+10	1	-1E+10	1	-1E+10	1
4902624	29	C	04/07/2025	11:41	-127.554	48.087	0	2.00	0	9.2790	0	32.2075	0	24.889	0	1.983	0	-1e10	1	-1e10	1	-1E+10	1	0.8322	4	0.000640	0	-1E+10	1	-1E+10	1	-1E+10	1
4902624	29	C	04/07/2025	11:41	-127.554	48.087	0	2.40	0	9.2790	0	32.2079	0	24.889	0	2.380	0	-1e10	1	-1e10	1	-1E+10	1	0.8979	4	0.000569	0	-1E+10	1	-1E+10	1	-1E+10	1
4902624	29	C	04/07/2025	11:41	-127.554	48.087	0	2.50	0	9.2790	0	32.2080	0	24.889	0	2.479	0	-1e10	1	-1e10	1	-1E+10	1	-1e10	1	-1e10	1	-1E+10	1	-1E+10	1	-1E+10	1
4902624	29	C	04/07/2025	11:41	-127.554	48.087	0	2.70	0	9.2803	0	32.2087	0	24.890	0	2.677	0	264.5	4	92.9	4	-1E+10	1	0.8687	4	0.000581	0	-1E+10	1	-1E+10	1	-1E+10	1
4902624	29	C	04/07/2025	11:41	-127.554	48.087	0	2.80	0	9.2810	0	32.2090	0	24.890	0	2.776	0	-1e10	1	-1e10	1	-1E+10	1	0.8614	4	0.000698	0	-1E+10	1	-1E+10	1	-1E+10	1
4902624	29	C	04/07/2025	11:41	-127.554	48.087	0	2.90	0	9.2817	0	32.2093	0	24.890	0	2.876	0	-1e10	1	-1e10	1	-1E+10	1	0.8687	4	0.000593	0	-1E+10	1	-1E+10	1	-1E+10	1
4902624	29	C	04/07/2025	11:41	-127.554	48.087	0	3.00	0	9.2823	0	32.2097	0	24.890	0	2.975	0	264.6	4	93.0	4	-1E+10	1	0.8760	4	0.000546	0	-1E+10	1	-1E+10	1	-1E+10	1
4902624	29	C	04/07/2025	11:41	-127.554	48.087	0	3.10	0	9.2830	0	32.2100	0	24.890	0	3.074	0	-1e10	1	-1e10	1	-1E+10	1	0.8176	4	0.000921	0	-1E+10	1	-1E+10	1	-1E+10	1
4902624	29	C	04/07/2025	11:41	-127.554	48.087	0	3.40	0	9.2850	0	32.2110	0	24.891	0	3.371	0	-1e10	1	-1e10	1	-1E+10	1	-1e10	1	-1e10	1	-1E+10	1	-1E+10	1	-1E+10	1
4902624	29	C	04/07/2025	11:41	-127.554	48.087	0	3.60	0	9.2870	0	32.2123	0	24.891	0	3.570	0	264.5	4	92.9	4	-1E+10	1	0.8760	4	0.000616	0	-1E+10	1	-1E+10	1	-1E+10	1
4902624	29	C	04/07/2025	11:41	-127.554	48.087	0	3.70	0	9.2880	0	32.2129	0	24.892	0	3.669	0	-1e10	1	-1e10	1	-1E+10	1	0.8468	4	0.000593	0	-1E+10	1	-1E+10	1	-1E+10	1
4902624	29	C	04/07/2025	11:41	-127.554	48.087	0	3.80	0	9.2890	0	32.2135	0	24.892	0	3.768	0	-1e10	1	-1e10	1	-1E+10	1	0.8468	4	0.000581	0	-1E+10	1	-1E+10	1	-1E+10	1
4902624	29	C	04/07/2025	11:41	-127.554	48.087	0	4.00	0	9.2910	0	32.2148	0	24.893	0	3.966	0	-1e10	1	-1e10	1	-1E+10	1	0.8395	4	0.000616	0	-1E+10	1	-1E+10	1	-1E+10	1
4902624	29	C	04/07/2025	11:41	-127.554	48.087	0	4.10	0	9.2920	0	32.2155	0	24.893	0	4.066	0	-1e10	1	-1e10	1	-1E+10	1	0.8395	4	0.000628	0	-1E+10	1	-1E+10	1	-1E+10	1
4902624	29	C	04/07/2025	11:41	-127.554	48.087	0	4.20	0	9.2930	0	32.2161	0	24.893	0	4.165	0	264.2	4	92.9	4	-1E+10	1	0.8176	4	0.000722	0	-1E+10	1	-1E+10	1	-1E+10	1
4902624	29	C	04/07/2025	11:41	-127.554	48.087	0	4.30	0	9.2940	0	32.2167	0	24.894	0	4.264	0	-1e10	1	-1e10	1	-1E+10	1	0.8030	4	0.000616	0	-1E+10	1	-1E+10	1	-1E+10	1
4902624	29	C	04/07/2025	11:41	-127.554	48.087	0	4.50	0	9.2960	0	32.2180	0	24.895	0	4.462	0	-1e10	1	-1e10	1	-1E+10	1	-1e10	1	-1e10	1	-1E+10	1	-1E+10	1	-1E+10	1
4902624	29	C	04/07/2025	11:41	-127.554	48.087	0	4.60	0	9.2961	0	32.2180	0	24.894	0	4.561	0	-1e10	1	-1e10	1	-1E+10	1	0.8687	4	0.000523	0	-1E+10	1	-1E+10	1	-1E+10	1
4902624	29	C	04/07/2025	11:41	-127.554	48.087	0	4.70	0	9.2962	0	32.2180	0	24.894	0	4.660	0	-1e10	1	-1e10	1	-1E+10	1	0.8249	4	0.000593	0	-1E+10	1	-1E+10	1	-1E+10	1
4902624	29	C	04/07/2025	11:41	-127.554	48.087	0	4.90	0	9.2964	0	32.2180	0	24.894	0	4.859	0	264.2	4	92.9	4	-1E+10	1	0.8176	4	0.000581	0	-1E+10	1	-1E+10	1	-1E+10	1
4902624	29	C	04/07/2025	11:41	-127.554	48.087	0	5.00	0	9.2965	0	32.2180	0	24.894	0	4.958	0	-1e10	1	-1e10	1	-1E+10	1	0.8395	4	0.000593	0	-1E+10	1	-1E+10	1	-1E+10	1
4902624	29	C	04/07/2025	11:41	-127.554	48.087	0	5.10	0	9.2966	0	32.2180	0	24.894	0	5.057	0	-1e10	1	-1e10	1	-1E+10	1	0.8103	4	0.000687	0	-1E+10	1	-1E+10	1	-1E+10	1
4902624	29	C	04/07/2025	11:41	-127.554	48.087	0	5.20	0	9.2967	0	32.2180	0	24.894	0	5.156	0	-1e10	1	-1e10	1	-1E+10	1	0.8030	4	0.000605	0	-1E+10	1	-1E+10	1	-1E+10	1
4902624	29	C	04/07/2025	11:41	-127.554	48.087	0	5.30	0	9.2968	0	32.2180	0	24.894	0	5.255	0	-1e10	1	-1e10	1	-1E+10	1	0.8395	4	0.000593	0	-1E+10	1	-1E+10	1	-1E+10	1
4902624	29	C	04/07/2025	11:41	-127.554	48.087	0	5.50	0	9.2970	0	32.2180	0	24.894	0	5.454	0	264.1	4	92.8	4	-1E+10	1	0.8614	4	0.000781	0	-1E+10	1	-1E+10	1	-1E+10	1
4902624	29	C	04/07/2025	11:41	-127.554	48.087	0	5.80	0	9.2979	0	32.2183	0	24.894	0	5.751	0	-1e10	1	-1e10	1	-1E+10	1	0.8395	4	0.000569	0	-1E+10	1	-1E+10	1	-1E+10	1
4902624	29	C	04/07/2025	11:41	-127.554	48.087	0	5.90	0	9.2982	0	32.2184	0	24.894	0	5.850	0	-1e10	1	-1e10	1	-1E+10	1	0.8614	4	0.000546	0	-1E+10	1	-1E+10	1	-1E+10	1
4902624	29	C	04/07/2025	11:41	-127.554	48.087	0	6.00	0	9.2985	0	32.2185	0	24.895	0	5.950	0	-1e10	1	-1e10	1	-1E+10	1	0.8395	4	0.000558	0	-1E+10	1	-1E+10	1	-1E+10	1
4902624	29	C	04/07/2025	11:41	-127.554	48.087	0	6.10	0	9.2988	0	32.2186	0	24.895	0	6.049	0	264.0	4	92.8	4	-1E+10	1	0.8395	4	0.000569	0	-1E+10	1	-1E+10	1	-1E+10	1
4902624	29	C	04/07/2025	11:41	-127.554	48.087	0	6.30	0	9.2994	0	32.2188	0	24.895	0	6.247	0	-1e10	1	-1e10	1	-1E+10	1	0.8249	4	0.000616	0	-1E+10	1	-1E+10	1	-1E+10	1
4902624	29	C	04/07/2025	11:41	-127.554	48.087	0	6.40	0	9.2997	0	32.2189	0	24.895	0	6.346	0	-1e10	1	-1e10	1	-1E+10	1	0.8103	4	0.000652	0	-1E+10	1	-1E+10	1	-1E+10	1
4902624	29	C	04/07/2025	11:41	-127.554	48.087	0	6.50	0	9.3000	0	32.2190	0	24.895	0	6.445	0	-1e10	1	-1e10	1	-1E+10	1	0.8322	4	0.000616	0	-1E+10	1	-1E+10	1	-1E+10	1
4902624	29	C	04/07/2025	11:41	-127.554	48.087	0	6.80	0	9.3009	0	32.2208	0	24.896	0	6.743	0	264.0	4	92.8	4	-1E+10	1	0.8030	4	0.000698	0	-1E+10	1	-1E+10	1	-1E+10	1
4902624	29	C	04/07/2025	11:41	-127.554	48.087	0	7.00	0	9.3015	0	32.2220	0	24.897	0	6.941	0	-1e10	1	-1e10	1	-1E+10	1	0.8103	4	0.000581	0	-1E+10	1	-1E+10	1	-1E+10	1
4902624	29	C	04/07/2025	11:41	-127.554	48.087	0	7.10	0	9.3018	0	32.2226	0	24.897	0	7.040	0	-1e10	1	-1e10	1	-1E+10	1	0.8322	4	0.000581	0	-1E+10	1	-1E+10	1	-1E+10	1
4902624	29	C	04/07/2025	11:41	-127.554	48.087	0	7.20	0	9.3021	0	32.2232	0	24.898	0	7.139	0	-1e10	1	-1e10	1	-1E+10	1	0.8322	4	0.000616	0	-1E+10	1	-1E+10	1	-1E+10	1
4902624	29	C	04/07/2025	11:41	-127.554	48.087	0	7.40	0	9.3027	0	32.2244	0	24.898	0	7.338	0	-1e10	1	-1e10	1	-1E+10	1	0.8322	4	0.000569	0	-1E+10	1	-1E+10	1	-1E+10	1
4902624	29	C	04/07/2025	11:41	-127.554	48.087	0	7.50	0	9.3030	0	32.2250	0	24.899	0	7.437	0	263.9	4	92.8	4	-1E+10	1	0.8176	4	0.000558	0	-1E+10	1	-1E+10	1	-1E+10	1
4902624	29	C	04/07/2025	11:41	-127.554	48.087	0	7.60	0	9.3036	0	32.2254	0	24.899	0	7.536	0	-1e10	1	-1e10	1	-1E+10	1	0.8322	4	0.000558	0	-1E+10	1	-1E+10	1	-1E+10	1
4902624	29	C	04/07/2025	11:41	-127.554	48.087	0	7.80	0	9.3048	0	32.2262	0	24.900	0	7.734	0	-1e10	1	-1e10	1	-1E+10	1	0.8176	4	0.000628	0	-1E+10	1	-1E+10	1	-1E+10	1
4902624	29	C	04/07/2025	11:41	-127.554	48.087	0	8.10	0	9.3066	0	32.2274	0	24.900	0	8.032	0	-1e10	1	-1e10	1	-1E+10	1	0.8176	4	0.000663	0	-1E+10	1	-1E+10	1	-1E+10	1
4902624	29	C	04/07/2025	11:41	-127.554	48.087	0	8.20	0	9.3072	0	32.2278	0	24.900	0	8.131	0	263.8	4	92.8	4	-1E+10	1	0.7957	4	0.000581	0	-1E+10	1	-1E+10	1	-1E+10	1
4902624	29	C	04/07/2025	11:41	-127.554	48.087	0	8.40	0	9.3084	0	32.2286	0	24.901	0	8.329	0	-1e10	1	-1e10	1	-1E+10	1	0.8395	4	0.000698	0	-1E+10	1	-1E+10	1	-1E+10	1
4902624	29	C	04/07/2025	11:41	-127.554	48.087	0	8.50	0	9.3090	0	32.2290	0	24.901	0	8.428	0	-1e10	1	-1e10	1	-1E+10	1	0.8030	4	0.003760	0	-1E+10	1	-1E+10	1	-1E+10	1
4902624	29	C	04/07/2025	11:41	-127.554	48.087	0	8.70	0	9.3098	0	32.2296	0	24.901	0	8.627	0	-1e10	1	-1e10	1	-1E+10	1	0.8103	4	0.000569	0	-1E+10	1	-1E+10	1	-1E+10	1
4902624	29	C	04/07/2025	11:41	-127.554	48.087	0	8.80	0	9.3102	0	32.2299	0	24.902	0	8.726	0	-1e10	1	-1e10	1	-1E+10	1	0.9271	4	0.000874	0	-1E+10	1	-1E+10	1	-1E+10	1
4902624	29	C	04/07/2025	11:41	-127.554	48.087	0	9.00	0	9.3110	0	32.2305	0	24.902	0	8.924	0	263.6	4	92.7	4	-1E+10	1	0.7811	4	0.000569	0	-1E+10	1	-1E+10	1	-1E+10	1
4902624	29	C	04/07/2025	11:41	-127.554	48.087	0	9.30	0	9.3122	0	32.2314	0	24.903	0	9.222	0	-1e10	1	-1e10	1	-1E+10	1	0.7811	4	0.000652	0	-1E+10	1	-1E+10	1	-1E+10	1
4902624	29	C	04/07/2025	11:41	-127.554	48.087	0	9.40	0	9.3126	0	32.2317	0	24.903	0	9.321	0	-1e10	1	-1e10	1	-1E+10	1	0.8030	4	0.000628	0	-1E+10	1	-1E+10	1	-1E+10	1
4902624	29	C	04/07/2025	11:41	-127.554	48.087	0	9.50	0	9.3130	0	32.2320	0	24.903	0	9.420	0	-1e10	1	-1e10	1	-1E+10	1	-1e10	1	-1e10	1	-1E+10	1	-1E+10	1	-1E+10	1
4902624	29	C	04/07/2025	11:41	-127.554	48.087	0	9.60	0	9.3131	0	32.2322	0	24.903	0	9.519	0	-1e10	1	-1e10	1	-1E+10	1	0.7738	4	0.000593	0	-1E+10	1	-1E+10	1	-1E+10	1
4902624	29	C	04/07/2025	11:41	-127.554	48.087	0	9.70	0	9.3133	0	32.2324	0	24.903	0	9.618	0	263.4	4	92.6	4	-1E+10	1	0.8030	4	0.000675	0	-1E+10	1	-1E+10	1	-1E+10	1
4902624	29	C	04/07/2025	11:41	-127.554	48.087	0	9.90	0	9.3135	0	32.2328	0	24.903	0	9.817	0	-1e10	1	-1e10	1	-1E+10	1	0.7811	4	0.000675	0	-1E+10	1	-1E+10	1	-1E+10	1
4902624	29	C	04/07/2025	11:41	-127.554	48.087	0	10.60	0	9.3145	0	32.2342	0	24.904	0	10.511	0	263.4	4	92.6	4	-1E+10	1	0.8103	4	0.000693	0	-1E+10	1	-1E+10	1	-1E+10	1
4902624	29	C	04/07/2025	11:41	-127.554	48.087	0	11.00	0	9.3150	0	32.2350	0	24.905	0	10.907	0	-1e10	1	-1e10	1	-1E+10	1	-1e10	1	-1e10	1	-1E+10	1	-1E+10	1	-1E+10	1
4902624	29	C	04/07/2025	11:41	-127.554	48.087	0	11.40	0	9.3150	0	32.2352	0	24.905	0	11.304	0	263.2	4	92.6	4	-1E+10	1	0.8191	4	0.000596	0	-1E+10	1	-1E+10	1	-1E+10	1
4902624	29	C	04/07/2025	11:41	-127.554	48.087	0	12.30	0	9.3150	0	32.2356	0	24.905	0	12.196	0	263.3	4	92.6	4	-1E+10	1	0.8304	4	0.000657	0	-1E+10	1	-1E+10	1	-1E+10	1
4902624	29	C	04/07/2025	11:41	-127.554	48.087	0	13.00	0	9.3150	0	32.2360	0	24.906	0	12.890	0	263.2	4	92.6	4	-1E+10	1	0.8023	4	0.000567	0	-1E+10	1	-1E+10	1	-1E+10	1
4902624	29	C	04/07/2025	11:41	-127.554	48.087	0	13.90	0	9.3150	0	32.2360	0	24.906	0	13.783	0	263.0	4	92.5	4	-1E+10	1	0.7957	4	0.000546	0	-1E+10	1	-1E+10	1	-1E+10	1
4902624	29	C	04/07/2025	11:41	-127.554	48.087	0	14.70	0	9.3150	0	32.2360	0	24.906	0	14.576	0	262.9	4	92.5	4	-1E+10	1	0.8281	4	0.000556	0	-1E+10	1	-1E+10	1	-1E+10	1
4902624	29	C	04/07/2025	11:41	-127.554	48.087	0	15.00	0	9.3150	0	32.2360	0	24.906	0	14.873	0	-1e10	1	-1e10	1	-1E+10	1	-1e10	1	-1e10	1	-1E+10	1	-1E+10	1	-1E+10	1
4902624	29	C	04/07/2025	11:41	-127.554	48.087	0	15.50	0	9.3150	0	32.2360	0	24.906	0	15.369	0	262.8	4	92.4	4	-1E+10	1	0.8038	4	0.000530	0	-1E+10	1	-1E+10	1	-1E+10	1
4902624	29	C	04/07/2025	11:41	-127.554	48.087	0	16.30	0	9.3150	0	32.2360	0	24.906	0	16.162	0	262.8	4	92.4	4	-1E+10	1	0.8444	4	0.000585	0	-1E+10	1	-1E+10	1	-1E+10	1
4902624	29	C	04/07/2025	11:41	-127.554	48.087	0	17.00	0	9.3150	0	32.2360	0	24.906	0	16.857	0	-1e10	1	-1e10	1	-1E+10	1	-1e10	1	-1e10	1	-1E+10	1	-1E+10	1	-1E+10	1
4902624	29	C	04/07/2025	11:41	-127.554	48.087	0	17.10	0	9.3150	0	32.2360	0	24.906	0	16.956	0	262.6	4	92.4	4	-1E+10	1	0.8554	4	0.000590	0	-1E+10	1	-1E+10	1	-1E+10	1
4902624	29	C	04/07/2025	11:41	-127.554	48.087	0	18.00	0	9.3150	0	32.2360	0	24.906	0	17.848	0	262.6	4	92.4	4	-1E+10	1	0.8395	4	0.000549	0	-1E+10	1	-1E+10	1	-1E+10	1
4902624	29	C	04/07/2025	11:41	-127.554	48.087	0	18.80	0	9.3150	0	32.2360	0	24.906	0	18.641	0	262.5	4	92.3	4	-1E+10	1	0.8461	4	0.000531	0	-1E+10	1	-1E+10	1	-1E+10	1
4902624	29	C	04/07/2025	11:41	-127.554	48.087	0	19.10	0	9.3150	0	32.2360	0	24.906	0	18.939	0	-1e10	1	-1e10	1	-1E+10	1	-1e10	1	-1e10	1	-1E+10	1	-1E+10	1	-1E+10	1
4902624	29	C	04/07/2025	11:41	-127.554	48.087	0	19.60	0	9.3137	0	32.2365	0	24.906	0	19.434	0	262.5	4	92.3	4	-1E+10	1	0.8709	4	0.000526	0	-1E+10	1	-1E+10	1	-1E+10	1
4902624	29	C	04/07/2025	11:41	-127.554	48.087	0	20.50	0	9.3113	0	32.2375	0	24.908	0	20.327	0	262.4	4	92.3	4	-1E+10	1	0.9563	4	0.000558	0	-1E+10	1	-1E+10	1	-1E+10	1
4902624	29	C	04/07/2025	11:41	-127.554	48.087	0	21.00	0	9.3100	0	32.2380	0	24.908	0	20.823	0	-1e10	1	-1e10	1	-1E+10	1	-1e10	1	-1e10	1	-1E+10	1	-1E+10	1	-1E+10	1
4902624	29	C	04/07/2025	11:41	-127.554	48.087	0	21.30	0	9.3099	0	32.2380	0	24.908	0	21.120	0	262.4	4	92.3	4	-1E+10	1	0.9709	4	0.000569	0	-1E+10	1	-1E+10	1	-1E+10	1
4902624	29	C	04/07/2025	11:41	-127.554	48.087	0	22.20	0	9.3094	0	32.2380	0	24.908	0	22.012	0	262.2	4	92.2	4	-1E+10	1	0.9291	4	0.000569	0	-1E+10	1	-1E+10	1	-1E+10	1
4902624	29	C	04/07/2025	11:41	-127.554	48.087	0	23.00	0	9.3090	0	32.2380	0	24.908	0	22.806	0	-1e10	1	-1e10	1	-1E+10	1	-1e10	1	-1e10	1	-1E+10	1	-1E+10	1	-1E+10	1
4902624	29	C	04/07/2025	11:41	-127.554	48.087	0	23.10	0	9.3086	0	32.2381	0	24.909	0	22.905	0	261.9	4	92.1	4	-1E+10	1	0.9760	4	0.000635	0	-1E+10	1	-1E+10	1	-1E+10	1
4902624	29	C	04/07/2025	11:41	-127.554	48.087	0	24.00	0	9.3052	0	32.2390	0	24.910	0	23.797	0	261.9	4	92.1	4	-1E+10	1	1.3846	4	0.000640	0	-1E+10	1	-1E+10	1	-1E+10	1
4902624	29	C	04/07/2025	11:41	-127.554	48.087	0	24.80	0	9.3021	0	32.2397	0	24.911	0	24.590	0	261.8	4	92.1	4	-1E+10	1	1.3346	4	0.000601	0	-1E+10	1	-1E+10	1	-1E+10	1
4902624	29	C	04/07/2025	11:41	-127.554	48.087	0	25.10	0	9.3010	0	32.2400	0	24.911	0	24.888	0	-1e10	1	-1e10	1	-1E+10	1	-1e10	1	-1e10	1	-1E+10	1	-1E+10	1	-1E+10	1
4902624	29	C	04/07/2025	11:41	-127.554	48.087	0	25.70	0	9.2997	0	32.2397	0	24.911	0	25.483	0	261.6	4	92.0	4	-1E+10	1	1.0479	4	0.000566	0	-1E+10	1	-1E+10	1	-1E+10	1
4902624	29	C	04/07/2025	11:41	-127.554	48.087	0	26.60	0	9.2978	0	32.2392	0	24.911	0	26.375	0	261.4	4	91.9	4	-1E+10	1	1.0569	4	0.000559	0	-1E+10	1	-1E+10	1	-1E+10	1
4902624	29	C	04/07/2025	11:41	-127.554	48.087	0	27.00	0	9.2970	0	32.2390	0	24.911	0	26.771	0	-1e10	1	-1e10	1	-1E+10	1	-1e10	1	-1e10	1	-1E+10	1	-1E+10	1	-1E+10	1
4902624	29	C	04/07/2025	11:41	-127.554	48.087	0	27.50	0	9.2960	0	32.2393	0	24.912	0	27.267	0	261.4	4	91.9	4	-1E+10	1	1.0468	4	0.000572	0	-1E+10	1	-1E+10	1	-1E+10	1
4902624	29	C	04/07/2025	11:41	-127.554	48.087	0	28.40	0	9.2942	0	32.2397	0	24.912	0	28.160	0	261.1	4	91.8	4	-1E+10	1	1.0731	4	0.000593	0	-1E+10	1	-1E+10	1	-1E+10	1
4902624	29	C	04/07/2025	11:41	-127.554	48.087	0	29.00	0	9.2930	0	32.2400	0	24.913	0	28.754	0	-1e10	1	-1e10	1	-1E+10	1	-1e10	1	-1e10	1	-1E+10	1	-1E+10	1	-1E+10	1
4902624	29	C	04/07/2025	11:41	-127.554	48.087	0	29.30	0	9.2920	0	32.2400	0	24.913	0	29.052	0	260.9	4	91.7	4	-1E+10	1	1.0970	4	0.000574	0	-1E+10	1	-1E+10	1	-1E+10	1
4902624	29	C	04/07/2025	11:41	-127.554	48.087	0	30.20	0	9.2888	0	32.2400	0	24.913	0	29.944	0	260.7	4	91.7	4	-1E+10	1	1.1307	4	0.000825	0	-1E+10	1	-1E+10	1	-1E+10	1
4902624	29	C	04/07/2025	11:41	-127.554	48.087	0	31.00	0	9.2860	0	32.2400	0	24.914	0	30.737	0	-1e10	1	-1e10	1	-1E+10	1	-1e10	1	-1e10	1	-1E+10	1	-1E+10	1	-1E+10	1
4902624	29	C	04/07/2025	11:41	-127.554	48.087	0	31.10	0	9.2855	0	32.2400	0	24.914	0	30.836	0	260.6	4	91.6	4	-1E+10	1	1.1644	4	0.000717	0	-1E+10	1	-1E+10	1	-1E+10	1
4902624	29	C	04/07/2025	11:41	-127.554	48.087	0	32.00	0	9.2810	0	32.2400	0	24.915	0	31.729	0	260.3	4	91.5	4	-1E+10	1	1.1992	4	0.000614	0	-1E+10	1	-1E+10	1	-1E+10	1
4902624	29	C	04/07/2025	11:41	-127.554	48.087	0	32.90	0	9.2765	0	32.2400	0	24.915	0	32.621	0	260.2	4	91.4	4	-1E+10	1	1.2386	4	0.000598	0	-1E+10	1	-1E+10	1	-1E+10	1
4902624	29	C	04/07/2025	11:41	-127.554	48.087	0	33.00	0	9.2760	0	32.2400	0	24.915	0	32.720	0	-1e10	1	-1e10	1	-1E+10	1	-1e10	1	-1e10	1	-1E+10	1	-1E+10	1	-1E+10	1
4902624	29	C	04/07/2025	11:41	-127.554	48.087	0	33.80	0	9.2676	0	32.2400	0	24.917	0	33.513	0	259.9	4	91.3	4	-1E+10	1	1.2841	4	0.000698	0	-1E+10	1	-1E+10	1	-1E+10	1
4902624	29	C	04/07/2025	11:41	-127.554	48.087	0	34.70	0	9.2582	0	32.2400	0	24.918	0	34.406	0	259.8	4	91.3	4	-1E+10	1	1.2974	4	0.000824	0	-1E+10	1	-1E+10	1	-1E+10	1
4902624	29	C	04/07/2025	11:41	-127.554	48.087	0	35.00	0	9.2550	0	32.2400	0	24.919	0	34.703	0	-1e10	1	-1e10	1	-1E+10	1	-1e10	1	-1e10	1	-1E+10	1	-1E+10	1	-1E+10	1
4902624	29	C	04/07/2025	11:41	-127.554	48.087	0	35.60	0	9.2487	0	32.2403	0	24.920	0	35.298	0	259.5	4	91.2	4	-1E+10	1	1.1899	4	0.000651	0	-1E+10	1	-1E+10	1	-1E+10	1
4902624	29	C	04/07/2025	11:41	-127.554	48.087	0	36.50	0	9.2393	0	32.2407	0	24.922	0	36.190	0	259.3	4	91.0	4	-1E+10	1	1.2264	4	0.000640	0	-1E+10	1	-1E+10	1	-1E+10	1
4902624	29	C	04/07/2025	11:41	-127.554	48.087	0	37.10	0	9.2330	0	32.2410	0	24.923	0	36.785	0	-1e10	1	-1e10	1	-1E+10	1	-1e10	1	-1e10	1	-1E+10	1	-1E+10	1	-1E+10	1
4902624	29	C	04/07/2025	11:41	-127.554	48.087	0	37.40	0	9.2291	0	32.2411	0	24.924	0	37.083	0	259.0	4	90.9	4	-1E+10	1	1.2264	4	0.000601	0	-1E+10	1	-1E+10	1	-1E+10	1
4902624	29	C	04/07/2025	11:41	-127.554	48.087	0	38.30	0	9.2174	0	32.2416	0	24.926	0	37.975	0	258.8	4	90.8	4	-1E+10	1	1.3172	4	0.000684	0	-1E+10	1	-1E+10	1	-1E+10	1
4902624	29	C	04/07/2025	11:41	-127.554	48.087	0	39.10	0	9.2070	0	32.2420	0	24.928	0	38.768	0	-1e10	1	-1e10	1	-1E+10	1	-1e10	1	-1e10	1	-1E+10	1	-1E+10	1	-1E+10	1
4902624	29	C	04/07/2025	11:41	-127.554	48.087	0	39.20	0	9.2059	0	32.2419	0	24.928	0	38.867	0	258.4	4	90.7	4	-1E+10	1	1.3148	4	0.000664	0	-1E+10	1	-1E+10	1	-1E+10	1
4902624	29	C	04/07/2025	11:41	-127.554	48.087	0	40.10	0	9.1965	0	32.2415	0	24.929	0	39.759	0	258.1	4	90.5	4	-1E+10	1	1.2602	4	0.000606	0	-1E+10	1	-1E+10	1	-1E+10	1
4902624	29	C	04/07/2025	11:41	-127.554	48.087	0	41.00	0	9.1870	0	32.2410	0	24.930	0	40.652	0	-1e10	1	-1e10	1	-1E+10	1	-1e10	1	-1e10	1	-1E+10	1	-1E+10	1	-1E+10	1
4902624	29	C	04/07/2025	11:41	-127.554	48.087	0	41.10	0	9.1861	0	32.2410	0	24.930	0	40.751	0	257.8	4	90.4	4	-1E+10	1	1.2178	4	0.000606	0	-1E+10	1	-1E+10	1	-1E+10	1
4902624	29	C	04/07/2025	11:41	-127.554	48.087	0	42.00	0	9.1775	0	32.2410	0	24.932	0	41.643	0	257.3	4	90.2	4	-1E+10	1	1.2103	4	0.000623	0	-1E+10	1	-1E+10	1	-1E+10	1
4902624	29	C	04/07/2025	11:41	-127.554	48.087	0	42.90	0	9.1690	0	32.2410	0	24.933	0	42.535	0	256.9	4	90.1	4	-1E+10	1	1.2322	4	0.000606	0	-1E+10	1	-1E+10	1	-1E+10	1
4902624	29	C	04/07/2025	11:41	-127.554	48.087	0	43.00	0	9.1680	0	32.2410	0	24.933	0	42.634	0	-1e10	1	-1e10	1	-1E+10	1	-1e10	1	-1e10	1	-1E+10	1	-1E+10	1	-1E+10	1
4902624	29	C	04/07/2025	11:41	-127.554	48.087	0	43.80	0	9.1568	0	32.2414	0	24.935	0	43.427	0	256.3	4	89.8	4	-1E+10	1	1.2532	4	0.000606	0	-1E+10	1	-1E+10	1	-1E+10	1
4902624	29	C	04/07/2025	11:41	-127.554	48.087	0	44.80	0	9.1428	0	32.2419	0	24.938	0	44.419	0	255.7	4	89.6	4	-1E+10	1	1.2045	4	0.000733	0	-1E+10	1	-1E+10	1	-1E+10	1
4902624	29	C	04/07/2025	11:41	-127.554	48.087	0	45.00	0	9.1400	0	32.2420	0	24.938	0	44.617	0	-1e10	1	-1e10	1	-1E+10	1	-1e10	1	-1e10	1	-1E+10	1	-1E+10	1	-1E+10	1
4902624	29	C	04/07/2025	11:41	-127.554	48.087	0	45.70	0	9.1306	0	32.2420	0	24.940	0	45.311	0	255.0	4	89.3	4	-1E+10	1	1.1972	4	0.000593	0	-1E+10	1	-1E+10	1	-1E+10	1
4902624	29	C	04/07/2025	11:41	-127.554	48.087	0	46.60	0	9.1184	0	32.2420	0	24.942	0	46.203	0	254.2	4	89.0	4	-1E+10	1	1.2151	4	0.000583	0	-1E+10	1	-1E+10	1	-1E+10	1
4902624	29	C	04/07/2025	11:41	-127.554	48.087	0	47.00	0	9.1130	0	32.2420	0	24.943	0	46.600	0	-1e10	1	-1e10	1	-1E+10	1	-1e10	1	-1e10	1	-1E+10	1	-1E+10	1	-1E+10	1
4902624	29	C	04/07/2025	11:41	-127.554	48.087	0	47.50	0	9.1025	0	32.2422	0	24.944	0	47.096	0	253.5	4	88.8	4	-1E+10	1	1.1634	4	0.000581	0	-1E+10	1	-1E+10	1	-1E+10	1
4902624	29	C	04/07/2025	11:41	-127.554	48.087	0	48.50	0	9.0816	0	32.2427	0	24.948	0	48.087	0	252.8	4	88.5	4	-1E+10	1	1.0926	4	0.000557	0	-1E+10	1	-1E+10	1	-1E+10	1
4902624	29	C	04/07/2025	11:41	-127.554	48.087	0	49.10	0	9.0690	0	32.2430	0	24.950	0	48.682	0	-1e10	1	-1e10	1	-1E+10	1	-1e10	1	-1e10	1	-1E+10	1	-1E+10	1	-1E+10	1
4902624	29	C	04/07/2025	11:41	-127.554	48.087	0	49.40	0	9.0679	0	32.2428	0	24.950	0	48.979	0	251.8	4	88.1	4	-1E+10	1	1.0220	4	0.000540	0	-1E+10	1	-1E+10	1	-1E+10	1
4902624	29	C	04/07/2025	11:41	-127.554	48.087	0	50.30	0	9.0646	0	32.2424	0	24.951	0	49.871	0	250.8	4	87.7	4	-1E+10	1	0.9590	4	0.000540	0	-1E+10	1	-1E+10	1	-1E+10	1
4902624	29	C	04/07/2025	11:41	-127.554	48.087	0	51.00	0	9.0620	0	32.2420	0	24.951	0	50.565	0	-1e10	1	-1e10	1	-1E+10	1	-1e10	1	-1e10	1	-1E+10	1	-1E+10	1	-1E+10	1
4902624	29	C	04/07/2025	11:41	-127.554	48.087	0	51.30	0	9.0614	0	32.2421	0	24.951	0	50.863	0	249.8	4	87.4	4	-1E+10	1	0.9336	4	0.000552	0	-1E+10	1	-1E+10	1	-1E+10	1
4902624	29	C	04/07/2025	11:41	-127.554	48.087	0	52.20	0	9.0596	0	32.2426	0	24.952	0	51.755	0	248.6	4	86.9	4	-1E+10	1	0.9523	4	0.000534	0	-1E+10	1	-1E+10	1	-1E+10	1
4902624	29	C	04/07/2025	11:41	-127.554	48.087	0	53.00	0	9.0580	0	32.2430	0	24.952	0	52.548	0	-1e10	1	-1e10	1	-1E+10	1	-1e10	1	-1e10	1	-1E+10	1	-1E+10	1	-1E+10	1
4902624	29	C	04/07/2025	11:41	-127.554	48.087	0	53.10	0	9.0580	0	32.2430	0	24.952	0	52.647	0	247.2	4	86.4	4	-1E+10	1	0.9344	4	0.000534	0	-1E+10	1	-1E+10	1	-1E+10	1
4902624	29	C	04/07/2025	11:41	-127.554	48.087	0	54.00	0	9.0585	0	32.2430	0	24.952	0	53.539	0	245.5	4	85.9	4	-1E+10	1	0.9045	4	0.000534	0	-1E+10	1	-1E+10	1	-1E+10	1
4902624	29	C	04/07/2025	11:41	-127.554	48.087	0	54.90	0	9.0590	0	32.2430	0	24.952	0	54.432	0	243.9	4	85.3	4	-1E+10	1	0.8525	4	0.000506	0	-1E+10	1	-1E+10	1	-1E+10	1
4902624	29	C	04/07/2025	11:41	-127.554	48.087	0	55.00	0	9.0590	0	32.2430	0	24.952	0	54.531	0	-1e10	1	-1e10	1	-1E+10	1	-1e10	1	-1e10	1	-1E+10	1	-1E+10	1	-1E+10	1
4902624	29	C	04/07/2025	11:41	-127.554	48.087	0	55.80	0	9.0478	0	32.2458	0	24.956	0	55.324	0	241.9	4	84.6	4	-1E+10	1	0.7884	4	0.000506	0	-1E+10	1	-1E+10	1	-1E+10	1
4902624	29	C	04/07/2025	11:41	-127.554	48.087	0	56.70	0	9.0352	0	32.2490	0	24.960	0	56.216	0	239.8	4	83.8	4	-1E+10	1	0.7190	4	0.000546	0	-1E+10	1	-1E+10	1	-1E+10	1
4902624	29	C	04/07/2025	11:41	-127.554	48.087	0	57.00	0	9.0310	0	32.2500	0	24.962	0	56.513	0	-1e10	1	-1e10	1	-1E+10	1	-1e10	1	-1e10	1	-1E+10	1	-1E+10	1	-1E+10	1
4902624	29	C	04/07/2025	11:41	-127.554	48.087	0	57.60	0	9.0169	0	32.2521	0	24.966	0	57.108	0	237.4	4	83.0	4	-1E+10	1	0.6659	4	0.000549	0	-1E+10	1	-1E+10	1	-1E+10	1
4902624	29	C	04/07/2025	11:41	-127.554	48.087	0	58.50	0	8.9958	0	32.2552	0	24.971	0	58.000	0	234.7	4	82.0	4	-1E+10	1	0.6497	4	0.000502	0	-1E+10	1	-1E+10	1	-1E+10	1
4902624	29	C	04/07/2025	11:41	-127.554	48.087	0	59.00	0	8.9840	0	32.2570	0	24.975	0	58.496	0	-1e10	1	-1e10	1	-1E+10	1	-1e10	1	-1e10	1	-1E+10	1	-1E+10	1	-1E+10	1
4902624	29	C	04/07/2025	11:41	-127.554	48.087	0	59.40	0	8.9668	0	32.2640	0	24.983	0	58.893	0	232.0	4	81.0	4	-1E+10	1	0.6391	4	0.000476	0	-1E+10	1	-1E+10	1	-1E+10	1
4902624	29	C	04/07/2025	11:41	-127.554	48.087	0	60.30	0	8.9281	0	32.2798	0	25.001	0	59.785	0	229.4	4	80.0	4	-1E+10	1	0.5913	4	0.000428	0	-1E+10	1	-1E+10	1	-1E+10	1
4902624	29	C	04/07/2025	11:41	-127.554	48.087	0	61.00	0	8.8980	0	32.2920	0	25.015	0	60.479	0	-1e10	1	-1e10	1	-1E+10	1	-1e10	1	-1e10	1	-1E+10	1	-1E+10	1	-1E+10	1
4902624	29	C	04/07/2025	11:41	-127.554	48.087	0	61.20	0	8.8964	0	32.2961	0	25.019	0	60.677	0	226.0	4	78.8	4	-1E+10	1	0.5402	4	0.000428	0	-1E+10	1	-1E+10	1	-1E+10	1
4902624	29	C	04/07/2025	11:41	-127.554	48.087	0	62.20	0	8.8883	0	32.3166	0	25.036	0	61.668	0	221.4	4	77.2	4	-1E+10	1	0.4964	4	0.000416	0	-1E+10	1	-1E+10	1	-1E+10	1
4902624	29	C	04/07/2025	11:41	-127.554	48.087	0	63.10	0	8.8810	0	32.3350	0	25.052	0	62.560	0	-1e10	1	-1e10	1	-1E+10	1	-1e10	1	-1e10	1	-1E+10	1	-1E+10	1	-1E+10	1
4902624	29	C	04/07/2025	11:41	-127.554	48.087	0	63.20	0	8.8807	0	32.3375	0	25.054	0	62.660	0	216.2	4	75.4	4	-1E+10	1	0.4234	4	0.000393	0	-1E+10	1	-1E+10	1	-1E+10	1
4902624	29	C	04/07/2025	11:41	-127.554	48.087	0	63.90	0	8.8786	0	32.3554	0	25.068	0	63.353	0	212.3	4	74.0	4	-1E+10	1	0.4161	4	0.000733	0	-1E+10	1	-1E+10	1	-1E+10	1
4902624	29	C	04/07/2025	11:41	-127.554	48.087	0	64.20	0	8.8777	0	32.3631	0	25.074	0	63.651	0	210.6	4	73.4	4	-1E+10	1	0.4292	4	0.000614	0	-1E+10	1	-1E+10	1	-1E+10	1
4902624	29	C	04/07/2025	11:41	-127.554	48.087	0	64.50	0	8.8768	0	32.3707	0	25.080	0	63.948	0	208.0	4	72.5	4	-1E+10	1	0.4398	4	0.000546	0	-1E+10	1	-1E+10	1	-1E+10	1
4902624	29	C	04/07/2025	11:41	-127.554	48.087	0	64.80	0	8.8759	0	32.3783	0	25.086	0	64.246	0	205.7	4	71.7	4	-1E+10	1	0.4453	4	0.000581	0	-1E+10	1	-1E+10	1	-1E+10	1
4902624	29	C	04/07/2025	11:41	-127.554	48.087	0	65.10	0	8.8750	0	32.3860	0	25.092	0	64.543	0	203.0	4	70.8	4	-1E+10	1	0.4550	4	0.000409	0	-1E+10	1	-1E+10	1	-1E+10	1
4902624	29	C	04/07/2025	11:41	-127.554	48.087	0	65.30	0	8.8737	0	32.3969	0	25.101	0	64.741	0	200.5	4	69.9	4	-1E+10	1	0.4307	4	0.000393	0	-1E+10	1	-1E+10	1	-1E+10	1
4902624	29	C	04/07/2025	11:41	-127.554	48.087	0	65.60	0	8.8718	0	32.4134	0	25.114	0	65.039	0	197.6	4	68.9	4	-1E+10	1	0.4599	4	0.000381	0	-1E+10	1	-1E+10	1	-1E+10	1
4902624	29	C	04/07/2025	11:41	-127.554	48.087	0	65.90	0	8.8699	0	32.4298	0	25.128	0	65.336	0	194.4	4	67.8	4	-1E+10	1	0.4380	4	0.000370	0	-1E+10	1	-1E+10	1	-1E+10	1
4902624	29	C	04/07/2025	11:41	-127.554	48.087	0	66.20	0	8.8681	0	32.4462	0	25.141	0	65.633	0	190.4	4	66.4	4	-1E+10	1	0.4380	4	0.000396	0	-1E+10	1	-1E+10	1	-1E+10	1
4902624	29	C	04/07/2025	11:41	-127.554	48.087	0	66.60	0	8.8655	0	32.4681	0	25.158	0	66.030	0	185.0	4	64.5	4	-1E+10	1	0.3679	4	0.000370	0	-1E+10	1	-1E+10	1	-1E+10	1
4902624	29	C	04/07/2025	11:41	-127.554	48.087	0	67.00	0	8.8630	0	32.4900	0	25.176	0	66.426	0	-1e10	1	-1e10	1	-1E+10	1	-1e10	1	-1e10	1	-1E+10	1	-1E+10	1	-1E+10	1
4902624	29	C	04/07/2025	11:41	-127.554	48.087	0	67.10	0	8.8623	0	32.5000	0	25.184	0	66.526	0	182.0	4	63.5	4	-1E+10	1	0.3037	4	0.000318	0	-1E+10	1	-1E+10	1	-1E+10	1
4902624	29	C	04/07/2025	11:41	-127.554	48.087	0	67.60	0	8.8585	0	32.5497	0	25.223	0	67.021	0	178.5	4	62.3	4	-1E+10	1	0.2738	4	0.000305	0	-1E+10	1	-1E+10	1	-1E+10	1
4902624	29	C	04/07/2025	11:41	-127.554	48.087	0	68.20	0	8.8540	0	32.6094	0	25.271	0	67.616	0	174.3	4	60.8	4	-1E+10	1	0.2445	4	0.000372	0	-1E+10	1	-1E+10	1	-1E+10	1
4902624	29	C	04/07/2025	11:41	-127.554	48.087	0	68.80	0	8.8495	0	32.6691	0	25.318	0	68.211	0	170.4	4	59.5	4	-1E+10	1	0.2239	4	0.000444	0	-1E+10	1	-1E+10	1	-1E+10	1
4902624	29	C	04/07/2025	11:41	-127.554	48.087	0	69.00	0	8.8480	0	32.6890	0	25.334	0	68.409	0	-1e10	1	-1e10	1	-1E+10	1	-1e10	1	-1e10	1	-1E+10	1	-1E+10	1	-1E+10	1
4902624	29	C	04/07/2025	11:41	-127.554	48.087	0	69.40	0	8.8423	0	32.7237	0	25.362	0	68.806	0	166.8	4	58.3	4	-1E+10	1	0.2117	4	0.000287	0	-1E+10	1	-1E+10	1	-1E+10	1
4902624	29	C	04/07/2025	11:41	-127.554	48.087	0	70.10	0	8.8323	0	32.7843	0	25.411	0	69.499	0	163.0	4	56.9	4	-1E+10	1	0.2117	4	0.000287	0	-1E+10	1	-1E+10	1	-1E+10	1
4902624	29	C	04/07/2025	11:41	-127.554	48.087	0	70.90	0	8.8209	0	32.8537	0	25.467	0	70.292	0	159.6	4	55.8	4	-1E+10	1	0.1533	4	0.000246	0	-1E+10	1	-1E+10	1	-1E+10	1
4902624	29	C	04/07/2025	11:41	-127.554	48.087	0	71.10	0	8.8180	0	32.8710	0	25.481	0	70.491	0	-1e10	1	-1e10	1	-1E+10	1	-1e10	1	-1e10	1	-1E+10	1	-1E+10	1	-1E+10	1
4902624	29	C	04/07/2025	11:41	-127.554	48.087	0	71.70	0	8.7665	0	32.9152	0	25.524	0	71.085	0	156.5	4	54.7	4	-1E+10	1	0.1396	4	0.000240	0	-1E+10	1	-1E+10	1	-1E+10	1
4902624	29	C	04/07/2025	11:41	-127.554	48.087	0	72.50	0	8.6979	0	32.9742	0	25.580	0	71.878	0	153.8	4	53.6	4	-1E+10	1	0.1285	4	0.000232	0	-1E+10	1	-1E+10	1	-1E+10	1
4902624	29	C	04/07/2025	11:41	-127.554	48.087	0	73.00	0	8.6550	0	33.0110	0	25.616	0	72.374	0	-1e10	1	-1e10	1	-1E+10	1	-1e10	1	-1e10	1	-1E+10	1	-1E+10	1	-1E+10	1
4902624	29	C	04/07/2025	11:41	-127.554	48.087	0	73.30	0	8.6256	0	33.0279	0	25.633	0	72.671	0	150.8	4	52.5	4	-1E+10	1	0.1108	4	0.000218	0	-1E+10	1	-1E+10	1	-1E+10	1
4902624	29	C	04/07/2025	11:41	-127.554	48.087	0	74.20	0	8.5375	0	33.0786	0	25.687	0	73.564	0	147.9	4	51.5	4	-1E+10	1	0.0976	4	0.000227	0	-1E+10	1	-1E+10	1	-1E+10	1
4902624	29	C	04/07/2025	11:41	-127.554	48.087	0	74.90	0	8.4690	0	33.1180	0	25.728	0	74.257	0	-1e10	1	-1e10	1	-1E+10	1	-1e10	1	-1e10	1	-1E+10	1	-1E+10	1	-1E+10	1
4902624	29	C	04/07/2025	11:41	-127.554	48.087	0	75.10	0	8.4537	0	33.1315	0	25.741	0	74.456	0	145.4	4	50.5	4	-1E+10	1	0.0942	4	0.000247	0	-1E+10	1	-1E+10	1	-1E+10	1
4902624	29	C	04/07/2025	11:41	-127.554	48.087	0	76.00	0	8.3848	0	33.1922	0	25.799	0	75.348	0	143.3	4	49.7	4	-1E+10	1	0.0803	4	0.000217	0	-1E+10	1	-1E+10	1	-1E+10	1
4902624	29	C	04/07/2025	11:41	-127.554	48.087	0	76.90	0	8.3160	0	33.2530	0	25.857	0	76.240	0	-1e10	1	-1e10	1	-1E+10	1	-1e10	1	-1e10	1	-1E+10	1	-1E+10	1	-1E+10	1
4902624	29	C	04/07/2025	11:41	-127.554	48.087	0	77.00	0	8.3109	0	33.2562	0	25.860	0	76.339	0	141.7	4	49.1	4	-1E+10	1	0.0803	4	0.000217	0	-1E+10	1	-1E+10	1	-1E+10	1
4902624	29	C	04/07/2025	11:41	-127.554	48.087	0	78.00	0	8.2593	0	33.2887	0	25.893	0	77.330	0	140.4	4	48.6	4	-1E+10	1	0.0803	4	0.000205	0	-1E+10	1	-1E+10	1	-1E+10	1
4902624	29	C	04/07/2025	11:41	-127.554	48.087	0	78.90	0	8.2130	0	33.3180	0	25.923	0	78.222	0	-1e10	1	-1e10	1	-1E+10	1	-1e10	1	-1e10	1	-1E+10	1	-1E+10	1	-1E+10	1
4902624	29	C	04/07/2025	11:41	-127.554	48.087	0	79.00	0	8.2082	0	33.3204	0	25.926	0	78.321	0	139.1	4	48.1	4	-1E+10	1	0.0803	4	0.000244	0	-1E+10	1	-1E+10	1	-1E+10	1
4902624	29	C	04/07/2025	11:41	-127.554	48.087	0	80.10	0	8.1559	0	33.3466	0	25.954	0	79.412	0	138.0	4	47.7	4	-1E+10	1	0.0651	4	0.000228	0	-1E+10	1	-1E+10	1	-1E+10	1
4902624	29	C	04/07/2025	11:41	-127.554	48.087	0	81.00	0	8.1130	0	33.3680	0	25.977	0	80.304	0	-1e10	1	-1e10	1	-1E+10	1	-1e10	1	-1e10	1	-1E+10	1	-1E+10	1	-1E+10	1
4902624	29	C	04/07/2025	11:41	-127.554	48.087	0	81.10	0	8.1085	0	33.3699	0	25.979	0	80.403	0	136.9	4	47.3	4	-1E+10	1	0.0672	4	0.000238	0	-1E+10	1	-1E+10	1	-1E+10	1
4902624	29	C	04/07/2025	11:41	-127.554	48.087	0	82.20	0	8.0590	0	33.3908	0	26.003	0	81.493	0	135.9	4	46.9	4	-1E+10	1	0.0730	4	0.000220	0	-1E+10	1	-1E+10	1	-1E+10	1
4902624	29	C	04/07/2025	11:41	-127.554	48.087	0	83.00	0	8.0230	0	33.4060	0	26.020	0	82.286	0	-1e10	1	-1e10	1	-1E+10	1	-1e10	1	-1e10	1	-1E+10	1	-1E+10	1	-1E+10	1
4902624	29	C	04/07/2025	11:41	-127.554	48.087	0	83.20	0	8.0153	0	33.4092	0	26.024	0	82.485	0	135.1	4	46.5	4	-1E+10	1	0.0657	4	0.000197	0	-1E+10	1	-1E+10	1	-1E+10	1
4902624	29	C	04/07/2025	11:41	-127.554	48.087	0	84.20	0	7.9768	0	33.4252	0	26.042	0	83.476	0	134.2	4	46.2	4	-1E+10	1	0.0538	4	0.000205	0	-1E+10	1	-1E+10	1	-1E+10	1
4902624	29	C	04/07/2025	11:41	-127.554	48.087	0	85.00	0	7.9460	0	33.4380	0	26.057	0	84.269	0	-1e10	1	-1e10	1	-1E+10	1	-1e10	1	-1e10	1	-1E+10	1	-1E+10	1	-1E+10	1
4902624	29	C	04/07/2025	11:41	-127.554	48.087	0	85.30	0	7.9372	0	33.4423	0	26.061	0	84.566	0	133.4	4	45.9	4	-1E+10	1	0.0657	4	0.000201	0	-1E+10	1	-1E+10	1	-1E+10	1
4902624	29	C	04/07/2025	11:41	-127.554	48.087	0	86.30	0	7.9076	0	33.4568	0	26.077	0	85.557	0	132.7	4	45.6	4	-1E+10	1	0.0657	4	0.000182	0	-1E+10	1	-1E+10	1	-1E+10	1
4902624	29	C	04/07/2025	11:41	-127.554	48.087	0	87.00	0	7.8870	0	33.4670	0	26.088	0	86.251	0	-1e10	1	-1e10	1	-1E+10	1	-1e10	1	-1e10	1	-1E+10	1	-1E+10	1	-1E+10	1
4902624	29	C	04/07/2025	11:41	-127.554	48.087	0	87.40	0	7.8731	0	33.4744	0	26.096	0	86.648	0	132.0	4	45.4	4	-1E+10	1	0.0595	4	0.000192	0	-1E+10	1	-1E+10	1	-1E+10	1
4902624	29	C	04/07/2025	11:41	-127.554	48.087	0	88.50	0	7.8349	0	33.4946	0	26.117	0	87.738	0	131.3	4	45.1	4	-1E+10	1	0.0584	4	0.000174	0	-1E+10	1	-1E+10	1	-1E+10	1
4902624	29	C	04/07/2025	11:41	-127.554	48.087	0	88.90	0	7.8210	0	33.5020	0	26.125	0	88.134	0	-1e10	1	-1e10	1	-1E+10	1	-1e10	1	-1e10	1	-1E+10	1	-1E+10	1	-1E+10	1
4902624	29	C	04/07/2025	11:41	-127.554	48.087	0	89.60	0	7.7972	0	33.5149	0	26.139	0	88.828	0	130.8	4	44.9	4	-1E+10	1	0.0635	4	0.000186	0	-1E+10	1	-1E+10	1	-1E+10	1
4902624	29	C	04/07/2025	11:41	-127.554	48.087	0	90.70	0	7.7598	0	33.5353	0	26.160	0	89.918	0	130.4	4	44.7	4	-1E+10	1	0.0578	4	0.000193	0	-1E+10	1	-1E+10	1	-1E+10	1
4902624	29	C	04/07/2025	11:41	-127.554	48.087	0	90.90	0	7.7530	0	33.5390	0	26.164	0	90.117	0	-1e10	1	-1e10	1	-1E+10	1	-1e10	1	-1e10	1	-1E+10	1	-1E+10	1	-1E+10	1
4902624	29	C	04/07/2025	11:41	-127.554	48.087	0	91.60	0	7.7505	0	33.5401	0	26.165	0	90.810	0	129.9	4	44.6	4	-1E+10	1	0.0511	4	0.000281	0	-1E+10	1	-1E+10	1	-1E+10	1
4902624	29	C	04/07/2025	11:41	-127.554	48.087	0	92.40	0	7.7477	0	33.5413	0	26.167	0	91.603	0	129.4	4	44.4	4	-1E+10	1	0.0484	4	0.000343	0	-1E+10	1	-1E+10	1	-1E+10	1
4902624	29	C	04/07/2025	11:41	-127.554	48.087	0	92.90	0	7.7460	0	33.5420	0	26.167	0	92.099	0	-1e10	1	-1e10	1	-1E+10	1	-1e10	1	-1e10	1	-1E+10	1	-1E+10	1	-1E+10	1
4902624	29	C	04/07/2025	11:41	-127.554	48.087	0	93.10	0	7.7439	0	33.5428	0	26.168	0	92.297	0	128.9	4	44.2	4	-1E+10	1	0.0422	4	0.000196	0	-1E+10	1	-1E+10	1	-1E+10	1
4902624	29	C	04/07/2025	11:41	-127.554	48.087	0	93.80	0	7.7365	0	33.5456	0	26.172	0	92.991	0	128.4	4	44.0	4	-1E+10	1	0.0365	4	0.000182	0	-1E+10	1	-1E+10	1	-1E+10	1
4902624	29	C	04/07/2025	11:41	-127.554	48.087	0	94.50	0	7.7292	0	33.5484	0	26.175	0	93.685	0	127.8	4	43.8	4	-1E+10	1	0.0511	4	0.000182	0	-1E+10	1	-1E+10	1	-1E+10	1
4902624	29	C	04/07/2025	11:41	-127.554	48.087	0	94.90	0	7.7250	0	33.5500	0	26.177	0	94.081	0	-1e10	1	-1e10	1	-1E+10	1	-1e10	1	-1e10	1	-1E+10	1	-1E+10	1	-1E+10	1
4902624	29	C	04/07/2025	11:41	-127.554	48.087	0	95.20	0	7.7116	0	33.5576	0	26.185	0	94.379	0	127.1	4	43.6	4	-1E+10	1	0.0511	4	0.000209	0	-1E+10	1	-1E+10	1	-1E+10	1
4902624	29	C	04/07/2025	11:41	-127.554	48.087	0	96.00	0	7.6758	0	33.5778	0	26.206	0	95.172	0	126.6	4	43.3	4	-1E+10	1	0.0511	4	0.000217	0	-1E+10	1	-1E+10	1	-1E+10	1
4902624	29	C	04/07/2025	11:41	-127.554	48.087	0	96.80	0	7.6400	0	33.5980	0	26.227	0	95.964	0	126.1	4	43.2	4	-1E+10	1	0.0469	4	0.000217	0	-1E+10	1	-1E+10	1	-1E+10	1
4902624	29	C	04/07/2025	11:41	-127.554	48.087	0	97.00	0	7.6310	0	33.6030	0	26.232	0	96.163	0	-1e10	1	-1e10	1	-1E+10	1	-1e10	1	-1e10	1	-1E+10	1	-1E+10	1	-1E+10	1
4902624	29	C	04/07/2025	11:41	-127.554	48.087	0	97.70	0	7.6135	0	33.6142	0	26.243	0	96.856	0	125.7	4	43.0	4	-1E+10	1	0.0518	4	0.000230	0	-1E+10	1	-1E+10	1	-1E+10	1
4902624	29	C	04/07/2025	11:41	-127.554	48.087	0	98.50	0	7.5935	0	33.6270	0	26.256	0	97.649	0	125.3	4	42.8	4	-1E+10	1	0.0560	4	0.000244	0	-1E+10	1	-1E+10	1	-1E+10	1
4902624	29	C	04/07/2025	11:41	-127.554	48.087	0	99.00	0	7.5810	0	33.6350	0	26.264	0	98.145	0	-1e10	1	-1e10	1	-1E+10	1	-1e10	1	-1e10	1	-1E+10	1	-1E+10	1	-1E+10	1
4902624	29	C	04/07/2025	11:41	-127.554	48.087	0	99.30	0	7.5762	0	33.6380	0	26.267	0	98.442	0	124.8	4	42.7	4	-1E+10	1	0.0479	4	0.000242	0	-1E+10	1	-1E+10	1	-1E+10	1
4902624	29	C	04/07/2025	11:41	-127.554	48.087	0	100.10	0	7.5634	0	33.6460	0	26.275	0	99.235	0	124.3	4	42.5	4	-1E+10	1	0.0387	4	0.000210	0	-1E+10	1	-1E+10	1	-1E+10	1
4902624	29	C	04/07/2025	11:41	-127.554	48.087	0	101.00	0	7.5490	0	33.6550	0	26.284	0	100.127	0	122.3	4	41.8	4	-1E+10	1	0.0584	4	0.000259	0	-1E+10	1	-1E+10	1	-1E+10	1
4902624	29	C	04/07/2025	11:41	-127.554	48.087	0	102.10	0	7.5331	0	33.6632	0	26.293	0	101.217	0	123.5	4	42.2	4	-1E+10	1	0.0511	4	0.000264	0	-1E+10	1	-1E+10	1	-1E+10	1
4902624	29	C	04/07/2025	11:41	-127.554	48.087	0	102.90	0	7.5215	0	33.6692	0	26.300	0	102.010	0	123.2	4	42.1	4	-1E+10	1	0.0438	4	0.000240	0	-1E+10	1	-1E+10	1	-1E+10	1
4902624	29	C	04/07/2025	11:41	-127.554	48.087	0	103.00	0	7.5200	0	33.6700	0	26.300	0	102.109	0	-1e10	1	-1e10	1	-1E+10	1	-1e10	1	-1e10	1	-1E+10	1	-1E+10	1	-1E+10	1
4902624	29	C	04/07/2025	11:41	-127.554	48.087	0	103.70	0	7.5165	0	33.6721	0	26.303	0	102.803	0	122.9	4	42.0	4	-1E+10	1	0.0491	4	0.000223	0	-1E+10	1	-1E+10	1	-1E+10	1
4902624	29	C	04/07/2025	11:41	-127.554	48.087	0	104.50	0	7.5125	0	33.6745	0	26.305	0	103.596	0	122.5	4	41.8	4	-1E+10	1	0.0438	4	0.000226	0	-1E+10	1	-1E+10	1	-1E+10	1
4902624	29	C	04/07/2025	11:41	-127.554	48.087	0	105.00	0	7.5100	0	33.6760	0	26.307	0	104.092	0	-1e10	1	-1e10	1	-1E+10	1	-1e10	1	-1e10	1	-1E+10	1	-1E+10	1	-1E+10	1
4902624	29	C	04/07/2025	11:41	-127.554	48.087	0	105.40	0	7.5073	0	33.6779	0	26.308	0	104.488	0	122.1	4	41.7	4	-1E+10	1	0.0430	4	0.000237	0	-1E+10	1	-1E+10	1	-1E+10	1
4902624	29	C	04/07/2025	11:41	-127.554	48.087	0	106.30	0	7.5013	0	33.6822	0	26.313	0	105.380	0	121.6	4	41.5	4	-1E+10	1	0.0484	4	0.000236	0	-1E+10	1	-1E+10	1	-1E+10	1
4902624	29	C	04/07/2025	11:41	-127.554	48.087	0	107.10	0	7.4960	0	33.6860	0	26.316	0	106.173	0	-1e10	1	-1e10	1	-1E+10	1	-1e10	1	-1e10	1	-1E+10	1	-1E+10	1	-1E+10	1
4902624	29	C	04/07/2025	11:41	-127.554	48.087	0	107.20	0	7.4950	0	33.6866	0	26.317	0	106.272	0	121.2	4	41.4	4	-1E+10	1	0.0451	4	0.000228	0	-1E+10	1	-1E+10	1	-1E+10	1
4902624	29	C	04/07/2025	11:41	-127.554	48.087	0	108.10	0	7.4865	0	33.6925	0	26.323	0	107.164	0	120.7	4	41.2	4	-1E+10	1	0.0511	4	0.000228	0	-1E+10	1	-1E+10	1	-1E+10	1
4902624	29	C	04/07/2025	11:41	-127.554	48.087	0	109.00	0	7.4780	0	33.6984	0	26.329	0	108.056	0	120.3	4	41.0	4	-1E+10	1	0.0438	4	0.000252	0	-1E+10	1	-1E+10	1	-1E+10	1
4902624	29	C	04/07/2025	11:41	-127.554	48.087	0	109.10	0	7.4770	0	33.6990	0	26.329	0	108.155	0	-1e10	1	-1e10	1	-1E+10	1	-1e10	1	-1e10	1	-1E+10	1	-1E+10	1	-1E+10	1
4902624	29	C	04/07/2025	11:41	-127.554	48.087	0	109.90	0	7.4654	0	33.7066	0	26.337	0	108.948	0	119.8	4	40.9	4	-1E+10	1	0.0498	4	0.000463	0	-1E+10	1	-1E+10	1	-1E+10	1
4902624	29	C	04/07/2025	11:41	-127.554	48.087	0	110.90	0	7.4509	0	33.7161	0	26.347	0	109.939	0	119.4	4	40.7	4	-1E+10	1	0.0511	4	0.000314	0	-1E+10	1	-1E+10	1	-1E+10	1
4902624	29	C	04/07/2025	11:41	-127.554	48.087	0	111.10	0	7.4480	0	33.7180	0	26.348	0	110.137	0	-1e10	1	-1e10	1	-1E+10	1	-1e10	1	-1e10	1	-1E+10	1	-1E+10	1	-1E+10	1
4902624	29	C	04/07/2025	11:41	-127.554	48.087	0	111.80	0	7.4459	0	33.7194	0	26.350	0	110.831	0	118.9	4	40.6	4	-1E+10	1	0.0414	4	0.000248	0	-1E+10	1	-1E+10	1	-1E+10	1
4902624	29	C	04/07/2025	11:41	-127.554	48.087	0	112.70	0	7.4432	0	33.7212	0	26.352	0	111.723	0	118.4	4	40.4	4	-1E+10	1	0.0365	4	0.000265	0	-1E+10	1	-1E+10	1	-1E+10	1
4902624	29	C	04/07/2025	11:41	-127.554	48.087	0	113.10	0	7.4420	0	33.7220	0	26.352	0	112.119	0	-1e10	1	-1e10	1	-1E+10	1	-1e10	1	-1e10	1	-1E+10	1	-1E+10	1	-1E+10	1
4902624	29	C	04/07/2025	11:41	-127.554	48.087	0	113.60	0	7.4383	0	33.7249	0	26.355	0	112.615	0	117.9	4	40.2	4	-1E+10	1	0.0389	4	0.000267	0	-1E+10	1	-1E+10	1	-1E+10	1
4902624	29	C	04/07/2025	11:41	-127.554	48.087	0	114.50	0	7.4317	0	33.7301	0	26.360	0	113.507	0	117.4	4	40.0	4	-1E+10	1	0.0446	4	0.000252	0	-1E+10	1	-1E+10	1	-1E+10	1
4902624	29	C	04/07/2025	11:41	-127.554	48.087	0	115.00	0	7.4280	0	33.7330	0	26.363	0	114.002	0	-1e10	1	-1e10	1	-1E+10	1	-1e10	1	-1e10	1	-1E+10	1	-1E+10	1	-1E+10	1
4902624	29	C	04/07/2025	11:41	-127.554	48.087	0	115.40	0	7.4246	0	33.7347	0	26.365	0	114.399	0	116.8	4	39.8	4	-1E+10	1	0.0511	4	0.000253	0	-1E+10	1	-1E+10	1	-1E+10	1
4902624	29	C	04/07/2025	11:41	-127.554	48.087	0	116.40	0	7.4160	0	33.7390	0	26.370	0	115.390	0	116.2	4	39.6	4	-1E+10	1	0.0511	4	0.000264	0	-1E+10	1	-1E+10	1	-1E+10	1
4902624	29	C	04/07/2025	11:41	-127.554	48.087	0	117.10	0	7.4100	0	33.7420	0	26.373	0	116.083	0	-1e10	1	-1e10	1	-1E+10	1	-1e10	1	-1e10	1	-1E+10	1	-1E+10	1	-1E+10	1
4902624	29	C	04/07/2025	11:41	-127.554	48.087	0	117.40	0	7.4054	0	33.7450	0	26.376	0	116.381	0	115.6	4	39.4	4	-1E+10	1	0.0445	4	0.000317	0	-1E+10	1	-1E+10	1	-1E+10	1
4902624	29	C	04/07/2025	11:41	-127.554	48.087	0	118.30	0	7.3917	0	33.7540	0	26.385	0	117.273	0	115.1	4	39.2	4	-1E+10	1	0.0496	4	0.000266	0	-1E+10	1	-1E+10	1	-1E+10	1
4902624	29	C	04/07/2025	11:41	-127.554	48.087	0	119.00	0	7.3810	0	33.7610	0	26.392	0	117.966	0	-1e10	1	-1e10	1	-1E+10	1	-1e10	1	-1e10	1	-1E+10	1	-1E+10	1	-1E+10	1
4902624	29	C	04/07/2025	11:41	-127.554	48.087	0	119.20	0	7.3797	0	33.7618	0	26.393	0	118.165	0	114.6	4	39.0	4	-1E+10	1	0.0465	4	0.000267	0	-1E+10	1	-1E+10	1	-1E+10	1
4902624	29	C	04/07/2025	11:41	-127.554	48.087	0	120.20	0	7.3732	0	33.7658	0	26.397	0	119.156	0	114.0	4	38.8	4	-1E+10	1	0.0478	4	0.000288	0	-1E+10	1	-1E+10	1	-1E+10	1
4902624	29	C	04/07/2025	11:41	-127.554	48.087	0	121.00	0	7.3680	0	33.7690	0	26.400	0	119.949	0	-1e10	1	-1e10	1	-1E+10	1	-1e10	1	-1e10	1	-1E+10	1	-1E+10	1	-1E+10	1
4902624	29	C	04/07/2025	11:41	-127.554	48.087	0	121.10	0	7.3672	0	33.7694	0	26.400	0	120.048	0	113.4	4	38.6	4	-1E+10	1	0.0453	4	0.000313	0	-1E+10	1	-1E+10	1	-1E+10	1
4902624	29	C	04/07/2025	11:41	-127.554	48.087	0	122.10	0	7.3596	0	33.7732	0	26.404	0	121.039	0	112.7	4	38.4	4	-1E+10	1	0.0389	4	0.000310	0	-1E+10	1	-1E+10	1	-1E+10	1
4902624	29	C	04/07/2025	11:41	-127.554	48.087	0	123.10	0	7.3520	0	33.7770	0	26.409	0	122.030	0	110.6	4	37.7	4	-1E+10	1	0.0438	4	0.000275	0	-1E+10	1	-1E+10	1	-1E+10	1
4902624	29	C	04/07/2025	11:41	-127.554	48.087	0	124.10	0	7.3355	0	33.7850	0	26.417	0	123.021	0	111.4	4	37.9	4	-1E+10	1	0.0438	4	0.000334	0	-1E+10	1	-1E+10	1	-1E+10	1
4902624	29	C	04/07/2025	11:41	-127.554	48.087	0	125.10	0	7.3190	0	33.7930	0	26.426	0	124.012	0	109.3	4	37.2	4	-1E+10	1	0.0584	4	0.000293	0	-1E+10	1	-1E+10	1	-1E+10	1
4902624	29	C	04/07/2025	11:41	-127.554	48.087	0	126.10	0	7.3037	0	33.7983	0	26.432	0	125.003	0	110.2	4	37.5	4	-1E+10	1	0.0584	4	0.000317	0	-1E+10	1	-1E+10	1	-1E+10	1
4902624	29	C	04/07/2025	11:41	-127.554	48.087	0	127.00	0	7.2900	0	33.8030	0	26.438	0	125.895	0	-1e10	1	-1e10	1	-1E+10	1	-1e10	1	-1e10	1	-1E+10	1	-1E+10	1	-1E+10	1
4902624	29	C	04/07/2025	11:41	-127.554	48.087	0	127.10	0	7.2888	0	33.8035	0	26.438	0	125.994	0	109.6	4	37.3	4	-1E+10	1	0.0535	4	0.000361	0	-1E+10	1	-1E+10	1	-1E+10	1
4902624	29	C	04/07/2025	11:41	-127.554	48.087	0	128.10	0	7.2762	0	33.8079	0	26.444	0	126.985	0	109.0	4	37.0	4	-1E+10	1	0.0467	4	0.000353	0	-1E+10	1	-1E+10	1	-1E+10	1
4902624	29	C	04/07/2025	11:41	-127.554	48.087	0	129.00	0	7.2650	0	33.8120	0	26.448	0	127.877	0	-1e10	1	-1e10	1	-1E+10	1	-1e10	1	-1e10	1	-1E+10	1	-1E+10	1	-1E+10	1
4902624	29	C	04/07/2025	11:41	-127.554	48.087	0	129.10	0	7.2635	0	33.8125	0	26.449	0	127.976	0	108.4	4	36.8	4	-1E+10	1	0.0472	4	0.000318	0	-1E+10	1	-1E+10	1	-1E+10	1
4902624	29	C	04/07/2025	11:41	-127.554	48.087	0	130.20	0	7.2476	0	33.8174	0	26.455	0	129.066	0	107.9	4	36.6	4	-1E+10	1	0.0535	4	0.000305	0	-1E+10	1	-1E+10	1	-1E+10	1
4902624	29	C	04/07/2025	11:41	-127.554	48.087	0	131.00	0	7.2360	0	33.8210	0	26.459	0	129.858	0	-1e10	1	-1e10	1	-1E+10	1	-1e10	1	-1e10	1	-1E+10	1	-1E+10	1	-1E+10	1
4902624	29	C	04/07/2025	11:41	-127.554	48.087	0	131.20	0	7.2325	0	33.8221	0	26.461	0	130.057	0	107.3	4	36.4	4	-1E+10	1	0.0571	4	0.000317	0	-1E+10	1	-1E+10	1	-1E+10	1
4902624	29	C	04/07/2025	11:41	-127.554	48.087	0	132.30	0	7.2133	0	33.8282	0	26.468	0	131.147	0	106.7	4	36.2	4	-1E+10	1	0.0499	4	0.000316	0	-1E+10	1	-1E+10	1	-1E+10	1
4902624	29	C	04/07/2025	11:41	-127.554	48.087	0	133.00	0	7.2010	0	33.8320	0	26.473	0	131.840	0	-1e10	1	-1e10	1	-1E+10	1	-1e10	1	-1e10	1	-1E+10	1	-1E+10	1	-1E+10	1
4902624	29	C	04/07/2025	11:41	-127.554	48.087	0	133.30	0	7.2004	0	33.8328	0	26.474	0	132.138	0	106.2	4	36.1	4	-1E+10	1	0.0438	4	0.000287	0	-1E+10	1	-1E+10	1	-1E+10	1
4902624	29	C	04/07/2025	11:41	-127.554	48.087	0	134.40	0	7.1982	0	33.8355	0	26.476	0	133.228	0	105.7	4	35.9	4	-1E+10	1	0.0500	4	0.000327	0	-1E+10	1	-1E+10	1	-1E+10	1
4902624	29	C	04/07/2025	11:41	-127.554	48.087	0	135.00	0	7.1970	0	33.8370	0	26.477	0	133.822	0	-1e10	1	-1e10	1	-1E+10	1	-1e10	1	-1e10	1	-1E+10	1	-1E+10	1	-1E+10	1
4902624	29	C	04/07/2025	11:41	-127.554	48.087	0	135.50	0	7.1988	0	33.8388	0	26.479	0	134.318	0	105.3	4	35.7	4	-1E+10	1	0.0511	4	0.000315	0	-1E+10	1	-1E+10	1	-1E+10	1
4902624	29	C	04/07/2025	11:41	-127.554	48.087	0	136.50	0	7.2023	0	33.8423	0	26.481	0	135.309	0	105.0	4	35.7	4	-1E+10	1	0.0511	4	0.000336	0	-1E+10	1	-1E+10	1	-1E+10	1
4902624	29	C	04/07/2025	11:41	-127.554	48.087	0	137.00	0	7.2040	0	33.8440	0	26.482	0	135.804	0	-1e10	1	-1e10	1	-1E+10	1	-1e10	1	-1e10	1	-1E+10	1	-1E+10	1	-1E+10	1
4902624	29	C	04/07/2025	11:41	-127.554	48.087	0	137.60	0	7.2053	0	33.8449	0	26.483	0	136.399	0	104.9	4	35.6	4	-1E+10	1	0.0545	4	0.000365	0	-1E+10	1	-1E+10	1	-1E+10	1
4902624	29	C	04/07/2025	11:41	-127.554	48.087	0	138.70	0	7.2076	0	33.8467	0	26.484	0	137.489	0	104.9	4	35.6	4	-1E+10	1	0.0557	4	0.000355	0	-1E+10	1	-1E+10	1	-1E+10	1
4902624	29	C	04/07/2025	11:41	-127.554	48.087	0	138.90	0	7.2080	0	33.8470	0	26.484	0	137.687	0	-1e10	1	-1e10	1	-1E+10	1	-1e10	1	-1e10	1	-1E+10	1	-1E+10	1	-1E+10	1
4902624	29	C	04/07/2025	11:41	-127.554	48.087	0	139.80	0	7.1917	0	33.8479	0	26.487	0	138.579	0	104.8	4	35.6	4	-1E+10	1	0.0489	4	0.000318	0	-1E+10	1	-1E+10	1	-1E+10	1
4902624	29	C	04/07/2025	11:41	-127.554	48.087	0	140.90	0	7.1718	0	33.8489	0	26.490	0	139.669	0	104.7	4	35.5	4	-1E+10	1	0.0460	4	0.000339	0	-1E+10	1	-1E+10	1	-1E+10	1
4902624	29	C	04/07/2025	11:41	-127.554	48.087	0	141.00	0	7.1700	0	33.8490	0	26.491	0	139.768	0	-1e10	1	-1e10	1	-1E+10	1	-1e10	1	-1e10	1	-1E+10	1	-1E+10	1	-1E+10	1
4902624	29	C	04/07/2025	11:41	-127.554	48.087	0	142.00	0	7.1486	0	33.8495	0	26.494	0	140.759	0	104.6	4	35.5	4	-1E+10	1	0.0584	4	0.000369	0	-1E+10	1	-1E+10	1	-1E+10	1
4902624	29	C	04/07/2025	11:41	-127.554	48.087	0	143.10	0	7.1250	0	33.8500	0	26.498	0	141.849	0	102.9	4	34.9	4	-1E+10	1	0.0511	4	0.000351	0	-1E+10	1	-1E+10	1	-1E+10	1
4902624	29	C	04/07/2025	11:41	-127.554	48.087	0	144.10	0	7.1139	0	33.8505	0	26.500	0	142.840	0	104.2	4	35.3	4	-1E+10	1	0.0511	4	0.000347	0	-1E+10	1	-1E+10	1	-1E+10	1
4902624	29	C	04/07/2025	11:41	-127.554	48.087	0	145.00	0	7.1040	0	33.8510	0	26.501	0	143.732	0	-1e10	1	-1e10	1	-1E+10	1	-1e10	1	-1e10	1	-1E+10	1	-1E+10	1	-1E+10	1
4902624	29	C	04/07/2025	11:41	-127.554	48.087	0	145.20	0	7.1029	0	33.8516	0	26.502	0	143.930	0	104.0	4	35.2	4	-1E+10	1	0.0601	4	0.000338	0	-1E+10	1	-1E+10	1	-1E+10	1
4902624	29	C	04/07/2025	11:41	-127.554	48.087	0	146.40	0	7.0963	0	33.8552	0	26.506	0	145.119	0	103.8	4	35.2	4	-1E+10	1	0.0657	4	0.000334	0	-1E+10	1	-1E+10	1	-1E+10	1
4902624	29	C	04/07/2025	11:41	-127.554	48.087	0	147.00	0	7.0930	0	33.8570	0	26.508	0	145.713	0	-1e10	1	-1e10	1	-1E+10	1	-1e10	1	-1e10	1	-1E+10	1	-1E+10	1	-1E+10	1
4902624	29	C	04/07/2025	11:41	-127.554	48.087	0	147.50	0	7.0870	0	33.8575	0	26.509	0	146.209	0	103.8	4	35.1	4	-1E+10	1	0.0584	4	0.000328	0	-1E+10	1	-1E+10	1	-1E+10	1
4902624	29	C	04/07/2025	11:41	-127.554	48.087	0	148.60	0	7.0740	0	33.8585	0	26.512	0	147.299	0	103.7	4	35.1	4	-1E+10	1	0.0511	4	0.000326	0	-1E+10	1	-1E+10	1	-1E+10	1
4902624	29	C	04/07/2025	11:41	-127.554	48.087	0	149.10	0	7.0680	0	33.8590	0	26.513	0	147.794	0	-1e10	1	-1e10	1	-1E+10	1	-1e10	1	-1e10	1	-1E+10	1	-1E+10	1	-1E+10	1
4902624	29	C	04/07/2025	11:41	-127.554	48.087	0	149.70	0	7.0607	0	33.8590	0	26.514	0	148.389	0	103.3	4	35.0	4	-1E+10	1	0.0511	4	0.000336	0	-1E+10	1	-1E+10	1	-1E+10	1
4902624	29	C	04/07/2025	11:41	-127.554	48.087	0	150.90	0	7.0462	0	33.8590	0	26.516	0	149.578	0	103.1	4	34.9	4	-1E+10	1	0.0511	4	0.000344	0	-1E+10	1	-1E+10	1	-1E+10	1
4902624	29	C	04/07/2025	11:41	-127.554	48.087	0	151.00	0	7.0450	0	33.8590	0	26.516	0	149.677	0	-1e10	1	-1e10	1	-1E+10	1	-1e10	1	-1e10	1	-1E+10	1	-1E+10	1	-1E+10	1
4902624	29	C	04/07/2025	11:41	-127.554	48.087	0	152.00	0	7.0329	0	33.8601	0	26.518	0	150.668	0	102.7	4	34.7	4	-1E+10	1	0.0511	4	0.000334	0	-1E+10	1	-1E+10	1	-1E+10	1
4902624	29	C	04/07/2025	11:41	-127.554	48.087	0	152.90	0	7.0220	0	33.8610	0	26.521	0	151.560	0	-1e10	1	-1e10	1	-1E+10	1	-1e10	1	-1e10	1	-1E+10	1	-1E+10	1	-1E+10	1
4902624	29	C	04/07/2025	11:41	-127.554	48.087	0	153.20	0	7.0201	0	33.8613	0	26.521	0	151.857	0	102.4	4	34.6	4	-1E+10	1	0.0511	4	0.000545	0	-1E+10	1	-1E+10	1	-1E+10	1
4902624	29	C	04/07/2025	11:41	-127.554	48.087	0	154.30	0	7.0133	0	33.8623	0	26.523	0	152.947	0	102.0	4	34.5	4	-1E+10	1	0.0511	4	0.000359	0	-1E+10	1	-1E+10	1	-1E+10	1
4902624	29	C	04/07/2025	11:41	-127.554	48.087	0	155.00	0	7.0090	0	33.8630	0	26.524	0	153.640	0	-1e10	1	-1e10	1	-1E+10	1	-1e10	1	-1e10	1	-1E+10	1	-1E+10	1	-1E+10	1
4902624	29	C	04/07/2025	11:41	-127.554	48.087	0	155.50	0	7.0070	0	33.8638	0	26.525	0	154.136	0	101.7	4	34.4	4	-1E+10	1	0.0459	4	0.000319	0	-1E+10	1	-1E+10	1	-1E+10	1
4902624	29	C	04/07/2025	11:41	-127.554	48.087	0	156.60	0	7.0026	0	33.8654	0	26.527	0	155.226	0	101.4	4	34.3	4	-1E+10	1	0.0481	4	0.000377	0	-1E+10	1	-1E+10	1	-1E+10	1
4902624	29	C	04/07/2025	11:41	-127.554	48.087	0	157.00	0	7.0010	0	33.8660	0	26.528	0	155.622	0	-1e10	1	-1e10	1	-1E+10	1	-1e10	1	-1e10	1	-1E+10	1	-1E+10	1	-1E+10	1
4902624	29	C	04/07/2025	11:41	-127.554	48.087	0	157.80	0	6.9968	0	33.8668	0	26.529	0	156.415	0	101.1	4	34.2	4	-1E+10	1	0.0604	4	0.000356	0	-1E+10	1	-1E+10	1	-1E+10	1
4902624	29	C	04/07/2025	11:41	-127.554	48.087	0	158.90	0	6.9910	0	33.8680	0	26.530	0	157.505	0	99.3	4	33.6	4	-1E+10	1	0.0584	4	0.000316	0	-1E+10	1	-1E+10	1	-1E+10	1
4902624	29	C	04/07/2025	11:41	-127.554	48.087	0	160.10	0	6.9830	0	33.8686	0	26.532	0	158.694	0	100.4	4	33.9	4	-1E+10	1	0.0537	4	0.000342	0	-1E+10	1	-1E+10	1	-1E+10	1
4902624	29	C	04/07/2025	11:41	-127.554	48.087	0	161.00	0	6.9770	0	33.8690	0	26.533	0	159.585	0	-1e10	1	-1e10	1	-1E+10	1	-1e10	1	-1e10	1	-1E+10	1	-1E+10	1	-1E+10	1
4902624	29	C	04/07/2025	11:41	-127.554	48.087	0	161.20	0	6.9762	0	33.8691	0	26.533	0	159.784	0	100.0	4	33.8	4	-1E+10	1	0.0560	4	0.000385	0	-1E+10	1	-1E+10	1	-1E+10	1
4902624	29	C	04/07/2025	11:41	-127.554	48.087	0	162.40	0	6.9717	0	33.8697	0	26.534	0	160.973	0	99.6	4	33.7	4	-1E+10	1	0.0449	4	0.000325	0	-1E+10	1	-1E+10	1	-1E+10	1
4902624	29	C	04/07/2025	11:41	-127.554	48.087	0	163.10	0	6.9690	0	33.8700	0	26.535	0	161.666	0	-1e10	1	-1e10	1	-1E+10	1	-1e10	1	-1e10	1	-1E+10	1	-1E+10	1	-1E+10	1
4902624	29	C	04/07/2025	11:41	-127.554	48.087	0	163.50	0	6.9633	0	33.8708	0	26.537	0	162.063	0	99.1	4	33.5	4	-1E+10	1	0.0511	4	0.000345	0	-1E+10	1	-1E+10	1	-1E+10	1
4902624	29	C	04/07/2025	11:41	-127.554	48.087	0	164.70	0	6.9463	0	33.8734	0	26.541	0	163.251	0	98.8	4	33.4	4	-1E+10	1	0.0448	4	0.000325	0	-1E+10	1	-1E+10	1	-1E+10	1
4902624	29	C	04/07/2025	11:41	-127.554	48.087	0	165.00	0	6.9420	0	33.8740	0	26.542	0	163.549	0	-1e10	1	-1e10	1	-1E+10	1	-1e10	1	-1e10	1	-1E+10	1	-1E+10	1	-1E+10	1
4902624	29	C	04/07/2025	11:41	-127.554	48.087	0	165.80	0	6.9324	0	33.8748	0	26.544	0	164.341	0	98.5	4	33.2	4	-1E+10	1	0.0438	4	0.000331	0	-1E+10	1	-1E+10	1	-1E+10	1
4902624	29	C	04/07/2025	11:41	-127.554	48.087	0	167.00	0	6.9180	0	33.8760	0	26.547	0	165.530	0	96.8	4	32.6	4	-1E+10	1	0.0438	4	0.000334	0	-1E+10	1	-1E+10	1	-1E+10	1
4902624	29	C	04/07/2025	11:41	-127.554	48.087	0	168.10	0	6.9059	0	33.8771	0	26.549	0	166.620	0	97.9	4	33.0	4	-1E+10	1	0.0474	4	0.000310	0	-1E+10	1	-1E+10	1	-1E+10	1
4902624	29	C	04/07/2025	11:41	-127.554	48.087	0	169.00	0	6.8960	0	33.8780	0	26.551	0	167.512	0	-1e10	1	-1e10	1	-1E+10	1	-1e10	1	-1e10	1	-1E+10	1	-1E+10	1	-1E+10	1
4902624	29	C	04/07/2025	11:41	-127.554	48.087	0	169.30	0	6.8939	0	33.8780	0	26.552	0	167.809	0	97.5	4	32.9	4	-1E+10	1	0.0511	4	0.000292	0	-1E+10	1	-1E+10	1	-1E+10	1
4902624	29	C	04/07/2025	11:41	-127.554	48.087	0	170.40	0	6.8862	0	33.8780	0	26.553	0	168.899	0	97.1	4	32.7	4	-1E+10	1	0.0485	4	0.000315	0	-1E+10	1	-1E+10	1	-1E+10	1
4902624	29	C	04/07/2025	11:41	-127.554	48.087	0	171.00	0	6.8820	0	33.8780	0	26.553	0	169.493	0	-1e10	1	-1e10	1	-1E+10	1	-1e10	1	-1e10	1	-1E+10	1	-1E+10	1	-1E+10	1
4902624	29	C	04/07/2025	11:41	-127.554	48.087	0	171.50	0	6.8754	0	33.8791	0	26.555	0	169.989	0	96.8	4	32.6	4	-1E+10	1	0.0428	4	0.000349	0	-1E+10	1	-1E+10	1	-1E+10	1
4902624	29	C	04/07/2025	11:41	-127.554	48.087	0	172.70	0	6.8596	0	33.8816	0	26.559	0	171.178	0	96.4	4	32.5	4	-1E+10	1	0.0365	4	0.000369	0	-1E+10	1	-1E+10	1	-1E+10	1
4902624	29	C	04/07/2025	11:41	-127.554	48.087	0	172.90	0	6.8570	0	33.8820	0	26.560	0	171.376	0	-1e10	1	-1e10	1	-1E+10	1	-1e10	1	-1e10	1	-1E+10	1	-1E+10	1	-1E+10	1
4902624	29	C	04/07/2025	11:41	-127.554	48.087	0	173.90	0	6.8389	0	33.8834	0	26.563	0	172.367	0	96.1	4	32.4	4	-1E+10	1	0.0584	4	0.000287	0	-1E+10	1	-1E+10	1	-1E+10	1
4902624	29	C	04/07/2025	11:41	-127.554	48.087	0	175.00	0	6.8190	0	33.8850	0	26.567	0	173.457	0	94.4	4	31.8	4	-1E+10	1	0.0584	4	0.000306	0	-1E+10	1	-1E+10	1	-1E+10	1
4902624	29	C	04/07/2025	11:41	-127.554	48.087	0	176.20	0	6.8094	0	33.8850	0	26.569	0	174.645	0	95.5	4	32.2	4	-1E+10	1	0.0584	4	0.000310	0	-1E+10	1	-1E+10	1	-1E+10	1
4902624	29	C	04/07/2025	11:41	-127.554	48.087	0	177.00	0	6.8030	0	33.8850	0	26.570	0	175.438	0	-1e10	1	-1e10	1	-1E+10	1	-1e10	1	-1e10	1	-1E+10	1	-1E+10	1	-1E+10	1
4902624	29	C	04/07/2025	11:41	-127.554	48.087	0	177.40	0	6.7984	0	33.8854	0	26.570	0	175.834	0	95.3	4	32.1	4	-1E+10	1	0.0538	4	0.000317	0	-1E+10	1	-1E+10	1	-1E+10	1
4902624	29	C	04/07/2025	11:41	-127.554	48.087	0	178.50	0	6.7858	0	33.8865	0	26.573	0	176.924	0	95.0	4	32.0	4	-1E+10	1	0.0511	4	0.000304	0	-1E+10	1	-1E+10	1	-1E+10	1
4902624	29	C	04/07/2025	11:41	-127.554	48.087	0	179.00	0	6.7800	0	33.8870	0	26.574	0	177.420	0	-1e10	1	-1e10	1	-1E+10	1	-1e10	1	-1e10	1	-1E+10	1	-1E+10	1	-1E+10	1
4902624	29	C	04/07/2025	11:41	-127.554	48.087	0	179.70	0	6.7755	0	33.8874	0	26.575	0	178.113	0	94.7	4	31.9	4	-1E+10	1	0.0511	4	0.000320	0	-1E+10	1	-1E+10	1	-1E+10	1
4902624	29	C	04/07/2025	11:41	-127.554	48.087	0	180.90	0	6.7677	0	33.8880	0	26.577	0	179.302	0	94.4	4	31.7	4	-1E+10	1	0.0511	4	0.000380	0	-1E+10	1	-1E+10	1	-1E+10	1
4902624	29	C	04/07/2025	11:41	-127.554	48.087	0	181.00	0	6.7670	0	33.8880	0	26.577	0	179.401	0	-1e10	1	-1e10	1	-1E+10	1	-1e10	1	-1e10	1	-1E+10	1	-1E+10	1	-1E+10	1
4902624	29	C	04/07/2025	11:41	-127.554	48.087	0	182.10	0	6.7439	0	33.8896	0	26.581	0	180.491	0	94.2	4	31.6	4	-1E+10	1	0.0482	4	0.000376	0	-1E+10	1	-1E+10	1	-1E+10	1
4902624	29	C	04/07/2025	11:41	-127.554	48.087	0	183.00	0	6.7250	0	33.8910	0	26.585	0	181.383	0	-1e10	1	-1e10	1	-1E+10	1	-1e10	1	-1e10	1	-1E+10	1	-1E+10	1	-1E+10	1
4902624	29	C	04/07/2025	11:41	-127.554	48.087	0	183.30	0	6.7221	0	33.8911	0	26.585	0	181.680	0	94.0	4	31.6	4	-1E+10	1	0.0365	4	0.000357	0	-1E+10	1	-1E+10	1	-1E+10	1
4902624	29	C	04/07/2025	11:41	-127.554	48.087	0	184.50	0	6.7107	0	33.8917	0	26.587	0	182.869	0	93.7	4	31.5	4	-1E+10	1	0.0490	4	0.000337	0	-1E+10	1	-1E+10	1	-1E+10	1
4902624	29	C	04/07/2025	11:41	-127.554	48.087	0	185.00	0	6.7060	0	33.8920	0	26.588	0	183.364	0	-1e10	1	-1e10	1	-1E+10	1	-1e10	1	-1e10	1	-1E+10	1	-1E+10	1	-1E+10	1
4902624	29	C	04/07/2025	11:41	-127.554	48.087	0	185.60	0	6.6972	0	33.8926	0	26.590	0	183.958	0	93.4	4	31.4	4	-1E+10	1	0.0566	4	0.000351	0	-1E+10	1	-1E+10	1	-1E+10	1
4902624	29	C	04/07/2025	11:41	-127.554	48.087	0	186.80	0	6.6795	0	33.8939	0	26.593	0	185.147	0	93.2	4	31.3	4	-1E+10	1	0.0490	4	0.000334	0	-1E+10	1	-1E+10	1	-1E+10	1
4902624	29	C	04/07/2025	11:41	-127.554	48.087	0	186.90	0	6.6780	0	33.8940	0	26.593	0	185.246	0	-1e10	1	-1e10	1	-1E+10	1	-1e10	1	-1e10	1	-1E+10	1	-1E+10	1	-1E+10	1
4902624	29	C	04/07/2025	11:41	-127.554	48.087	0	188.00	0	6.6736	0	33.8940	0	26.594	0	186.336	0	93.0	4	31.2	4	-1E+10	1	0.0474	4	0.000480	0	-1E+10	1	-1E+10	1	-1E+10	1
4902624	29	C	04/07/2025	11:41	-127.554	48.087	0	188.90	0	6.6700	0	33.8940	0	26.595	0	187.228	0	-1e10	1	-1e10	1	-1E+10	1	-1e10	1	-1e10	1	-1E+10	1	-1E+10	1	-1E+10	1
4902624	29	C	04/07/2025	11:41	-127.554	48.087	0	189.20	0	6.6670	0	33.8941	0	26.595	0	187.525	0	92.8	4	31.1	4	-1E+10	1	0.0541	4	0.000492	0	-1E+10	1	-1E+10	1	-1E+10	1
4902624	29	C	04/07/2025	11:41	-127.554	48.087	0	190.40	0	6.6550	0	33.8947	0	26.597	0	188.714	0	92.5	4	31.0	4	-1E+10	1	0.0558	4	0.000341	0	-1E+10	1	-1E+10	1	-1E+10	1
4902624	29	C	04/07/2025	11:41	-127.554	48.087	0	191.10	0	6.6480	0	33.8950	0	26.598	0	189.407	0	-1e10	1	-1e10	1	-1E+10	1	-1e10	1	-1e10	1	-1E+10	1	-1E+10	1	-1E+10	1
4902624	29	C	04/07/2025	11:41	-127.554	48.087	0	191.50	0	6.6462	0	33.8950	0	26.598	0	189.803	0	92.3	4	31.0	4	-1E+10	1	0.0511	4	0.000419	0	-1E+10	1	-1E+10	1	-1E+10	1
4902624	29	C	04/07/2025	11:41	-127.554	48.087	0	192.70	0	6.6408	0	33.8950	0	26.599	0	190.992	0	92.1	4	30.9	4	-1E+10	1	0.0511	4	0.000298	0	-1E+10	1	-1E+10	1	-1E+10	1
4902624	29	C	04/07/2025	11:41	-127.554	48.087	0	193.10	0	6.6390	0	33.8950	0	26.599	0	191.389	0	-1e10	1	-1e10	1	-1E+10	1	-1e10	1	-1e10	1	-1E+10	1	-1E+10	1	-1E+10	1
4902624	29	C	04/07/2025	11:41	-127.554	48.087	0	193.90	0	6.6344	0	33.8950	0	26.600	0	192.181	0	91.8	4	30.8	4	-1E+10	1	0.0584	4	0.000369	0	-1E+10	1	-1E+10	1	-1E+10	1
4902624	29	C	04/07/2025	11:41	-127.554	48.087	0	195.00	0	6.6280	0	33.8950	0	26.601	0	193.271	0	-1e10	1	-1e10	1	-1E+10	1	-1e10	1	-1e10	1	-1E+10	1	-1E+10	1	-1E+10	1
4902624	29	C	04/07/2025	11:41	-127.554	48.087	0	195.10	0	6.6271	0	33.8951	0	26.601	0	193.370	0	91.5	4	30.7	4	-1E+10	1	0.0521	4	0.000318	0	-1E+10	1	-1E+10	1	-1E+10	1
4902624	29	C	04/07/2025	11:41	-127.554	48.087	0	196.30	0	6.6164	0	33.8957	0	26.603	0	194.559	0	91.1	4	30.5	4	-1E+10	1	0.0462	4	0.000318	0	-1E+10	1	-1E+10	1	-1E+10	1
4902624	29	C	04/07/2025	11:41	-127.554	48.087	0	196.90	0	6.6110	0	33.8960	0	26.604	0	195.153	0	-1e10	1	-1e10	1	-1E+10	1	-1e10	1	-1e10	1	-1E+10	1	-1E+10	1	-1E+10	1
4902624	29	C	04/07/2025	11:41	-127.554	48.087	0	197.50	0	6.6076	0	33.8960	0	26.604	0	195.747	0	90.8	4	30.4	4	-1E+10	1	0.0523	4	0.000356	0	-1E+10	1	-1E+10	1	-1E+10	1
4902624	29	C	04/07/2025	11:41	-127.554	48.087	0	198.70	0	6.6007	0	33.8960	0	26.605	0	196.936	0	90.4	4	30.3	4	-1E+10	1	0.0550	4	0.000347	0	-1E+10	1	-1E+10	1	-1E+10	1
4902624	29	C	04/07/2025	11:41	-127.554	48.087	0	199.00	0	6.5990	0	33.8960	0	26.606	0	197.233	0	-1e10	1	-1e10	1	-1E+10	1	-1e10	1	-1e10	1	-1E+10	1	-1E+10	1	-1E+10	1
4902624	29	C	04/07/2025	11:41	-127.554	48.087	0	199.90	0	6.5900	0	33.8969	0	26.608	0	198.125	0	90.0	4	30.1	4	-1E+10	1	0.0469	4	0.000477	0	-1E+10	1	-1E+10	1	-1E+10	1
4902624	29	C	04/07/2025	11:41	-127.554	48.087	0	201.00	0	6.5790	0	33.8980	0	26.610	0	199.215	0	-1e10	1	-1e10	1	-1E+10	1	-1e10	1	-1e10	1	-1E+10	1	-1E+10	1	-1E+10	1
4902624	29	C	04/07/2025	11:41	-127.554	48.087	0	201.20	0	6.5770	0	33.8982	0	26.610	0	199.413	0	89.6	4	30.0	4	-1E+10	1	0.0402	4	0.000741	0	-1E+10	1	-1E+10	1	-1E+10	1
4902624	29	C	04/07/2025	11:41	-127.554	48.087	0	202.40	0	6.5650	0	33.8994	0	26.613	0	200.602	0	89.1	4	29.8	4	-1E+10	1	0.0526	4	0.000286	0	-1E+10	1	-1E+10	1	-1E+10	1
4902624	29	C	04/07/2025	11:41	-127.554	48.087	0	203.00	0	6.5590	0	33.9000	0	26.614	0	201.196	0	-1e10	1	-1e10	1	-1E+10	1	-1e10	1	-1e10	1	-1E+10	1	-1E+10	1	-1E+10	1
4902624	29	C	04/07/2025	11:41	-127.554	48.087	0	203.60	0	6.5574	0	33.9019	0	26.616	0	201.790	0	88.7	4	29.7	4	-1E+10	1	0.0584	4	0.000333	0	-1E+10	1	-1E+10	1	-1E+10	1
4902624	29	C	04/07/2025	11:41	-127.554	48.087	0	204.80	0	6.5543	0	33.9057	0	26.619	0	202.979	0	88.4	4	29.6	4	-1E+10	1	0.0526	4	0.000305	0	-1E+10	1	-1E+10	1	-1E+10	1
4902624	29	C	04/07/2025	11:41	-127.554	48.087	0	204.90	0	6.5540	0	33.9060	0	26.619	0	203.078	0	-1e10	1	-1e10	1	-1E+10	1	-1e10	1	-1e10	1	-1E+10	1	-1E+10	1	-1E+10	1
4902624	29	C	04/07/2025	11:41	-127.554	48.087	0	206.00	0	6.5545	0	33.9082	0	26.621	0	204.168	0	88.1	4	29.5	4	-1E+10	1	0.0566	4	0.000289	0	-1E+10	1	-1E+10	1	-1E+10	1
4902624	29	C	04/07/2025	11:41	-127.554	48.087	0	206.90	0	6.5550	0	33.9100	0	26.623	0	205.059	0	-1e10	1	-1e10	1	-1E+10	1	-1e10	1	-1e10	1	-1E+10	1	-1E+10	1	-1E+10	1
4902624	29	C	04/07/2025	11:41	-127.554	48.087	0	207.30	0	6.5539	0	33.9104	0	26.623	0	205.456	0	87.7	4	29.4	4	-1E+10	1	0.0535	4	0.000286	0	-1E+10	1	-1E+10	1	-1E+10	1
4902624	29	C	04/07/2025	11:41	-127.554	48.087	0	208.50	0	6.5504	0	33.9115	0	26.624	0	206.644	0	87.4	4	29.2	4	-1E+10	1	0.0511	4	0.000280	0	-1E+10	1	-1E+10	1	-1E+10	1
4902624	29	C	04/07/2025	11:41	-127.554	48.087	0	209.00	0	6.5490	0	33.9120	0	26.625	0	207.140	0	-1e10	1	-1e10	1	-1E+10	1	-1e10	1	-1e10	1	-1E+10	1	-1E+10	1	-1E+10	1
4902624	29	C	04/07/2025	11:41	-127.554	48.087	0	209.70	0	6.5460	0	33.9123	0	26.626	0	207.833	0	87.1	4	29.1	4	-1E+10	1	0.0483	4	0.000279	0	-1E+10	1	-1E+10	1	-1E+10	1
4902624	29	C	04/07/2025	11:41	-127.554	48.087	0	210.90	0	6.5409	0	33.9129	0	26.627	0	209.022	0	86.7	4	29.0	4	-1E+10	1	0.0438	4	0.000280	0	-1E+10	1	-1E+10	1	-1E+10	1
4902624	29	C	04/07/2025	11:41	-127.554	48.087	0	211.10	0	6.5400	0	33.9130	0	26.627	0	209.220	0	-1e10	1	-1e10	1	-1E+10	1	-1e10	1	-1e10	1	-1E+10	1	-1E+10	1	-1E+10	1
4902624	29	C	04/07/2025	11:41	-127.554	48.087	0	212.20	0	6.5290	0	33.9142	0	26.629	0	210.310	0	86.5	4	28.9	4	-1E+10	1	0.0467	4	0.000270	0	-1E+10	1	-1E+10	1	-1E+10	1
4902624	29	C	04/07/2025	11:41	-127.554	48.087	0	213.00	0	6.5210	0	33.9150	0	26.631	0	211.102	0	-1e10	1	-1e10	1	-1E+10	1	-1e10	1	-1e10	1	-1E+10	1	-1E+10	1	-1E+10	1
4902624	29	C	04/07/2025	11:41	-127.554	48.087	0	213.40	0	6.5184	0	33.9150	0	26.631	0	211.498	0	86.2	4	28.8	4	-1E+10	1	0.0584	4	0.000298	0	-1E+10	1	-1E+10	1	-1E+10	1
4902624	29	C	04/07/2025	11:41	-127.554	48.087	0	214.60	0	6.5106	0	33.9150	0	26.632	0	212.687	0	85.8	4	28.7	4	-1E+10	1	0.0584	4	0.000263	0	-1E+10	1	-1E+10	1	-1E+10	1
4902624	29	C	04/07/2025	11:41	-127.554	48.087	0	215.00	0	6.5080	0	33.9150	0	26.633	0	213.083	0	-1e10	1	-1e10	1	-1E+10	1	-1e10	1	-1e10	1	-1E+10	1	-1E+10	1	-1E+10	1
4902624	29	C	04/07/2025	11:41	-127.554	48.087	0	215.80	0	6.5021	0	33.9158	0	26.634	0	213.876	0	85.5	4	28.6	4	-1E+10	1	0.0584	4	0.000282	0	-1E+10	1	-1E+10	1	-1E+10	1
4902624	29	C	04/07/2025	11:41	-127.554	48.087	0	216.90	0	6.4940	0	33.9170	0	26.636	0	214.965	0	-1e10	1	-1e10	1	-1E+10	1	-1e10	1	-1e10	1	-1E+10	1	-1E+10	1	-1E+10	1
4902624	29	C	04/07/2025	11:41	-127.554	48.087	0	217.10	0	6.4930	0	33.9171	0	26.636	0	215.163	0	85.3	4	28.5	4	-1E+10	1	0.0532	4	0.000286	0	-1E+10	1	-1E+10	1	-1E+10	1
4902624	29	C	04/07/2025	11:41	-127.554	48.087	0	218.30	0	6.4867	0	33.9177	0	26.638	0	216.352	0	85.0	4	28.4	4	-1E+10	1	0.0511	4	0.000308	0	-1E+10	1	-1E+10	1	-1E+10	1
4902624	29	C	04/07/2025	11:41	-127.554	48.087	0	219.00	0	6.4830	0	33.9180	0	26.638	0	217.045	0	-1e10	1	-1e10	1	-1E+10	1	-1e10	1	-1e10	1	-1E+10	1	-1E+10	1	-1E+10	1
4902624	29	C	04/07/2025	11:41	-127.554	48.087	0	219.50	0	6.4797	0	33.9180	0	26.639	0	217.541	0	84.7	4	28.3	4	-1E+10	1	0.0548	4	0.000327	0	-1E+10	1	-1E+10	1	-1E+10	1
4902624	29	C	04/07/2025	11:41	-127.554	48.087	0	220.70	0	6.4717	0	33.9180	0	26.640	0	218.729	0	84.5	4	28.2	4	-1E+10	1	0.0584	4	0.000314	0	-1E+10	1	-1E+10	1	-1E+10	1
4902624	29	C	04/07/2025	11:41	-127.554	48.087	0	221.10	0	6.4690	0	33.9180	0	26.640	0	219.126	0	-1e10	1	-1e10	1	-1E+10	1	-1e10	1	-1e10	1	-1E+10	1	-1E+10	1	-1E+10	1
4902624	29	C	04/07/2025	11:41	-127.554	48.087	0	221.90	0	6.4656	0	33.9180	0	26.641	0	219.918	0	84.2	4	28.1	4	-1E+10	1	0.0572	4	0.000271	0	-1E+10	1	-1E+10	1	-1E+10	1
4902624	29	C	04/07/2025	11:41	-127.554	48.087	0	223.00	0	6.4610	0	33.9180	0	26.641	0	221.008	0	-1e10	1	-1e10	1	-1E+10	1	-1e10	1	-1e10	1	-1E+10	1	-1E+10	1	-1E+10	1
4902624	29	C	04/07/2025	11:41	-127.554	48.087	0	223.10	0	6.4605	0	33.9180	0	26.641	0	221.107	0	83.8	4	28.0	4	-1E+10	1	0.0511	4	0.000254	0	-1E+10	1	-1E+10	1	-1E+10	1
4902624	29	C	04/07/2025	11:41	-127.554	48.087	0	224.30	0	6.4538	0	33.9186	0	26.643	0	222.295	0	83.5	4	27.9	4	-1E+10	1	0.0511	4	0.000274	0	-1E+10	1	-1E+10	1	-1E+10	1
4902624	29	C	04/07/2025	11:41	-127.554	48.087	0	225.00	0	6.4500	0	33.9190	0	26.644	0	222.989	0	-1e10	1	-1e10	1	-1E+10	1	-1e10	1	-1e10	1	-1E+10	1	-1E+10	1	-1E+10	1
4902624	29	C	04/07/2025	11:41	-127.554	48.087	0	225.50	0	6.4433	0	33.9190	0	26.644	0	223.484	0	83.1	4	27.7	4	-1E+10	1	0.0636	4	0.000274	0	-1E+10	1	-1E+10	1	-1E+10	1
4902624	29	C	04/07/2025	11:41	-127.554	48.087	0	226.70	0	6.4273	0	33.9190	0	26.647	0	224.673	0	82.7	4	27.6	4	-1E+10	1	0.0596	4	0.000274	0	-1E+10	1	-1E+10	1	-1E+10	1
4902624	29	C	04/07/2025	11:41	-127.554	48.087	0	227.10	0	6.4220	0	33.9190	0	26.647	0	225.069	0	-1e10	1	-1e10	1	-1E+10	1	-1e10	1	-1e10	1	-1E+10	1	-1E+10	1	-1E+10	1
4902624	29	C	04/07/2025	11:41	-127.554	48.087	0	227.90	0	6.4165	0	33.9186	0	26.648	0	225.861	0	82.1	4	27.4	4	-1E+10	1	0.0438	4	0.000337	0	-1E+10	1	-1E+10	1	-1E+10	1
4902624	29	C	04/07/2025	11:41	-127.554	48.087	0	229.00	0	6.4090	0	33.9180	0	26.648	0	226.951	0	-1e10	1	-1e10	1	-1E+10	1	-1e10	1	-1e10	1	-1E+10	1	-1E+10	1	-1E+10	1
4902624	29	C	04/07/2025	11:41	-127.554	48.087	0	229.10	0	6.4075	0	33.9181	0	26.648	0	227.050	0	81.6	4	27.2	4	-1E+10	1	0.0399	4	0.000357	0	-1E+10	1	-1E+10	1	-1E+10	1
4902624	29	C	04/07/2025	11:41	-127.554	48.087	0	230.40	0	6.3887	0	33.9194	0	26.652	0	228.337	0	81.0	4	27.0	4	-1E+10	1	0.0468	4	0.000311	0	-1E+10	1	-1E+10	1	-1E+10	1
4902624	29	C	04/07/2025	11:41	-127.554	48.087	0	231.00	0	6.3800	0	33.9200	0	26.654	0	228.932	0	-1e10	1	-1e10	1	-1E+10	1	-1e10	1	-1e10	1	-1E+10	1	-1E+10	1	-1E+10	1
4902624	29	C	04/07/2025	11:41	-127.554	48.087	0	231.60	0	6.3728	0	33.9206	0	26.655	0	229.526	0	80.5	4	26.8	4	-1E+10	1	0.0537	4	0.000275	0	-1E+10	1	-1E+10	1	-1E+10	1
4902624	29	C	04/07/2025	11:41	-127.554	48.087	0	232.80	0	6.3584	0	33.9218	0	26.658	0	230.715	0	80.0	4	26.7	4	-1E+10	1	0.0584	4	0.000290	0	-1E+10	1	-1E+10	1	-1E+10	1
4902624	29	C	04/07/2025	11:41	-127.554	48.087	0	233.00	0	6.3560	0	33.9220	0	26.658	0	230.913	0	-1e10	1	-1e10	1	-1E+10	1	-1e10	1	-1e10	1	-1E+10	1	-1E+10	1	-1E+10	1
4902624	29	C	04/07/2025	11:41	-127.554	48.087	0	234.00	0	6.3498	0	33.9225	0	26.659	0	231.903	0	79.5	4	26.5	4	-1E+10	1	0.0584	4	0.000263	0	-1E+10	1	-1E+10	1	-1E+10	1
4902624	29	C	04/07/2025	11:41	-127.554	48.087	0	235.10	0	6.3430	0	33.9230	0	26.661	0	232.993	0	-1e10	1	-1e10	1	-1E+10	1	-1e10	1	-1e10	1	-1E+10	1	-1E+10	1	-1E+10	1
4902624	29	C	04/07/2025	11:41	-127.554	48.087	0	235.20	0	6.3416	0	33.9232	0	26.661	0	233.092	0	78.9	4	26.3	4	-1E+10	1	0.0569	4	0.000270	0	-1E+10	1	-1E+10	1	-1E+10	1
4902624	29	C	04/07/2025	11:41	-127.554	48.087	0	236.40	0	6.3245	0	33.9251	0	26.665	0	234.280	0	78.3	4	26.1	4	-1E+10	1	0.0511	4	0.000298	0	-1E+10	1	-1E+10	1	-1E+10	1
4902624	29	C	04/07/2025	11:41	-127.554	48.087	0	237.00	0	6.3160	0	33.9260	0	26.667	0	234.875	0	-1e10	1	-1e10	1	-1E+10	1	-1e10	1	-1e10	1	-1E+10	1	-1E+10	1	-1E+10	1
4902624	29	C	04/07/2025	11:41	-127.554	48.087	0	237.60	0	6.3106	0	33.9266	0	26.668	0	235.469	0	77.8	4	25.9	4	-1E+10	1	0.0574	4	0.000298	0	-1E+10	1	-1E+10	1	-1E+10	1
4902624	29	C	04/07/2025	11:41	-127.554	48.087	0	238.80	0	6.2999	0	33.9279	0	26.670	0	236.657	0	77.2	4	25.7	4	-1E+10	1	0.0462	4	0.000308	0	-1E+10	1	-1E+10	1	-1E+10	1
4902624	29	C	04/07/2025	11:41	-127.554	48.087	0	238.90	0	6.2990	0	33.9280	0	26.670	0	236.756	0	-1e10	1	-1e10	1	-1E+10	1	-1e10	1	-1e10	1	-1E+10	1	-1E+10	1	-1E+10	1
4902624	29	C	04/07/2025	11:41	-127.554	48.087	0	240.00	0	6.2896	0	33.9306	0	26.674	0	237.846	0	76.5	4	25.5	4	-1E+10	1	0.0438	4	0.000302	0	-1E+10	1	-1E+10	1	-1E+10	1
4902624	29	C	04/07/2025	11:41	-127.554	48.087	0	241.00	0	6.2810	0	33.9330	0	26.677	0	238.836	0	-1e10	1	-1e10	1	-1E+10	1	-1e10	1	-1e10	1	-1E+10	1	-1E+10	1	-1E+10	1
4902624	29	C	04/07/2025	11:41	-127.554	48.087	0	241.20	0	6.2800	0	33.9335	0	26.677	0	239.034	0	76.0	4	25.3	4	-1E+10	1	0.0472	4	0.000298	0	-1E+10	1	-1E+10	1	-1E+10	1
4902624	29	C	04/07/2025	11:41	-127.554	48.087	0	242.50	0	6.2739	0	33.9366	0	26.680	0	240.322	0	75.7	4	25.2	4	-1E+10	1	0.0450	4	0.000283	0	-1E+10	1	-1E+10	1	-1E+10	1
4902624	29	C	04/07/2025	11:41	-127.554	48.087	0	243.10	0	6.2710	0	33.9380	0	26.682	0	240.916	0	-1e10	1	-1e10	1	-1E+10	1	-1e10	1	-1e10	1	-1E+10	1	-1E+10	1	-1E+10	1
4902624	29	C	04/07/2025	11:41	-127.554	48.087	0	243.70	0	6.2713	0	33.9380	0	26.682	0	241.511	0	75.3	4	25.0	4	-1E+10	1	0.0414	4	0.000266	0	-1E+10	1	-1E+10	1	-1E+10	1
4902624	29	C	04/07/2025	11:41	-127.554	48.087	0	245.00	0	6.2719	0	33.9380	0	26.682	0	242.798	0	74.9	4	24.9	4	-1E+10	1	0.0511	4	0.000281	0	-1E+10	1	-1E+10	1	-1E+10	1
4902624	29	C	04/07/2025	11:41	-127.554	48.087	0	245.10	0	6.2720	0	33.9380	0	26.682	0	242.897	0	-1e10	1	-1e10	1	-1E+10	1	-1e10	1	-1e10	1	-1E+10	1	-1E+10	1	-1E+10	1
4902624	29	C	04/07/2025	11:41	-127.554	48.087	0	246.20	0	6.2703	0	33.9391	0	26.683	0	243.987	0	74.5	4	24.8	4	-1E+10	1	0.0511	4	0.000309	0	-1E+10	1	-1E+10	1	-1E+10	1
4902624	29	C	04/07/2025	11:41	-127.554	48.087	0	247.10	0	6.2690	0	33.9400	0	26.684	0	244.878	0	-1e10	1	-1e10	1	-1E+10	1	-1e10	1	-1e10	1	-1E+10	1	-1E+10	1	-1E+10	1
4902624	29	C	04/07/2025	11:41	-127.554	48.087	0	247.30	0	6.2683	0	33.9401	0	26.684	0	245.076	0	74.1	4	24.6	4	-1E+10	1	0.0511	4	0.000298	0	-1E+10	1	-1E+10	1	-1E+10	1
4902624	29	C	04/07/2025	11:41	-127.554	48.087	0	248.30	0	6.2646	0	33.9406	0	26.685	0	246.067	0	73.7	4	24.5	4	-1E+10	1	0.0572	4	0.000405	0	-1E+10	1	-1E+10	1	-1E+10	1
4902624	29	C	04/07/2025	11:41	-127.554	48.087	0	249.00	0	6.2620	0	33.9410	0	26.685	0	246.760	0	-1e10	1	-1e10	1	-1E+10	1	-1e10	1	-1e10	1	-1E+10	1	-1E+10	1	-1E+10	1
4902624	29	C	04/07/2025	11:41	-127.554	48.087	0	249.20	0	6.2600	0	33.9416	0	26.686	0	246.958	0	73.3	4	24.4	4	-1E+10	1	0.0533	4	0.000517	0	-1E+10	1	-1E+10	1	-1E+10	1
4902624	29	C	04/07/2025	11:41	-127.554	48.087	0	250.00	0	6.2520	0	33.9440	0	26.689	0	247.750	0	73.1	4	24.3	4	-1E+10	1	0.0557	4	0.000409	0	-1E+10	1	-1E+10	1	-1E+10	1
4902624	29	C	04/07/2025	11:41	-127.554	48.087	0	250.70	0	6.2450	0	33.9461	0	26.692	0	248.443	0	72.9	4	24.2	4	-1E+10	1	0.0552	4	0.000316	0	-1E+10	1	-1E+10	1	-1E+10	1
4902624	29	C	04/07/2025	11:41	-127.554	48.087	0	251.00	0	6.2420	0	33.9470	0	26.693	0	248.741	0	-1e10	1	-1e10	1	-1E+10	1	-1e10	1	-1e10	1	-1E+10	1	-1E+10	1	-1E+10	1
4902624	29	C	04/07/2025	11:41	-127.554	48.087	0	251.50	0	6.2387	0	33.9473	0	26.693	0	249.236	0	72.8	4	24.2	4	-1E+10	1	0.0487	4	0.000302	0	-1E+10	1	-1E+10	1	-1E+10	1
4902624	29	C	04/07/2025	11:41	-127.554	48.087	0	252.30	0	6.2336	0	33.9477	0	26.694	0	250.028	0	72.6	4	24.1	4	-1E+10	1	0.0456	4	0.000286	0	-1E+10	1	-1E+10	1	-1E+10	1
4902624	29	C	04/07/2025	11:41	-127.554	48.087	0	253.00	0	6.2290	0	33.9480	0	26.695	0	250.721	0	-1e10	1	-1e10	1	-1E+10	1	-1e10	1	-1e10	1	-1E+10	1	-1E+10	1	-1E+10	1
4902624	29	C	04/07/2025	11:41	-127.554	48.087	0	253.10	0	6.2280	0	33.9480	0	26.695	0	250.820	0	72.5	4	24.1	4	-1E+10	1	0.0526	4	0.000295	0	-1E+10	1	-1E+10	1	-1E+10	1
4902624	29	C	04/07/2025	11:41	-127.554	48.087	0	253.90	0	6.2196	0	33.9480	0	26.697	0	251.613	0	72.3	4	24.0	4	-1E+10	1	0.0584	4	0.000333	0	-1E+10	1	-1E+10	1	-1E+10	1
4902624	29	C	04/07/2025	11:41	-127.554	48.087	0	254.60	0	6.2122	0	33.9480	0	26.697	0	252.306	0	72.1	4	24.0	4	-1E+10	1	0.0641	4	0.000360	0	-1E+10	1	-1E+10	1	-1E+10	1
4902624	29	C	04/07/2025	11:41	-127.554	48.087	0	255.00	0	6.2080	0	33.9480	0	26.698	0	252.702	0	-1e10	1	-1e10	1	-1E+10	1	-1e10	1	-1e10	1	-1E+10	1	-1E+10	1	-1E+10	1
4902624	29	C	04/07/2025	11:41	-127.554	48.087	0	255.40	0	6.2068	0	33.9482	0	26.698	0	253.098	0	71.9	4	23.9	4	-1E+10	1	0.0712	4	0.000333	0	-1E+10	1	-1E+10	1	-1E+10	1
4902624	29	C	04/07/2025	11:41	-127.554	48.087	0	256.20	0	6.2044	0	33.9486	0	26.699	0	253.891	0	71.7	4	23.8	4	-1E+10	1	0.0584	4	0.000438	0	-1E+10	1	-1E+10	1	-1E+10	1
4902624	29	C	04/07/2025	11:41	-127.554	48.087	0	257.00	0	6.2020	0	33.9490	0	26.700	0	254.683	0	70.5	4	23.4	4	-1E+10	1	0.0474	4	0.000391	0	-1E+10	1	-1E+10	1	-1E+10	1
4902624	29	C	04/07/2025	11:41	-127.554	48.087	0	257.80	0	6.2005	0	33.9490	0	26.700	0	255.475	0	71.3	4	23.7	4	-1E+10	1	0.0438	4	0.000303	0	-1E+10	1	-1E+10	1	-1E+10	1
4902624	29	C	04/07/2025	11:41	-127.554	48.087	0	258.60	0	6.1990	0	33.9490	0	26.700	0	256.267	0	71.1	4	23.6	4	-1E+10	1	0.0438	4	0.000356	0	-1E+10	1	-1E+10	1	-1E+10	1
4902624	29	C	04/07/2025	11:41	-127.554	48.087	0	259.10	0	6.1980	0	33.9490	0	26.700	0	256.763	0	-1e10	1	-1e10	1	-1E+10	1	-1e10	1	-1e10	1	-1E+10	1	-1E+10	1	-1E+10	1
4902624	29	C	04/07/2025	11:41	-127.554	48.087	0	259.40	0	6.1947	0	33.9492	0	26.701	0	257.060	0	70.8	4	23.5	4	-1E+10	1	0.0438	4	0.000391	0	-1E+10	1	-1E+10	1	-1E+10	1
4902624	29	C	04/07/2025	11:41	-127.554	48.087	0	260.20	0	6.1858	0	33.9496	0	26.702	0	257.852	0	70.5	4	23.4	4	-1E+10	1	0.0438	4	0.000345	0	-1E+10	1	-1E+10	1	-1E+10	1
4902624	29	C	04/07/2025	11:41	-127.554	48.087	0	261.00	0	6.1770	0	33.9500	0	26.704	0	258.644	0	69.2	4	23.0	4	-1E+10	1	0.0438	4	0.000303	0	-1E+10	1	-1E+10	1	-1E+10	1
4902624	29	C	04/07/2025	11:41	-127.554	48.087	0	261.80	0	6.1738	0	33.9504	0	26.704	0	259.437	0	70.0	4	23.2	4	-1E+10	1	0.0633	4	0.000350	0	-1E+10	1	-1E+10	1	-1E+10	1
4902624	29	C	04/07/2025	11:41	-127.554	48.087	0	262.60	0	6.1706	0	33.9508	0	26.705	0	260.229	0	69.6	4	23.1	4	-1E+10	1	0.0504	4	0.000315	0	-1E+10	1	-1E+10	1	-1E+10	1
4902624	29	C	04/07/2025	11:41	-127.554	48.087	0	263.00	0	6.1690	0	33.9510	0	26.705	0	260.625	0	-1e10	1	-1e10	1	-1E+10	1	-1e10	1	-1e10	1	-1E+10	1	-1E+10	1	-1E+10	1
4902624	29	C	04/07/2025	11:41	-127.554	48.087	0	263.40	0	6.1686	0	33.9518	0	26.706	0	261.021	0	69.3	4	23.0	4	-1E+10	1	0.0484	4	0.000290	0	-1E+10	1	-1E+10	1	-1E+10	1
4902624	29	C	04/07/2025	11:41	-127.554	48.087	0	264.20	0	6.1678	0	33.9534	0	26.707	0	261.813	0	69.0	4	22.9	4	-1E+10	1	0.0511	4	0.000298	0	-1E+10	1	-1E+10	1	-1E+10	1
4902624	29	C	04/07/2025	11:41	-127.554	48.087	0	265.00	0	6.1670	0	33.9550	0	26.709	0	262.606	0	-1e10	1	-1e10	1	-1E+10	1	-1e10	1	-1e10	1	-1E+10	1	-1E+10	1	-1E+10	1
4902624	29	C	04/07/2025	11:41	-127.554	48.087	0	265.10	0	6.1665	0	33.9551	0	26.709	0	262.705	0	68.7	4	22.8	4	-1E+10	1	0.0599	4	0.000328	0	-1E+10	1	-1E+10	1	-1E+10	1
4902624	29	C	04/07/2025	11:41	-127.554	48.087	0	265.90	0	6.1630	0	33.9559	0	26.710	0	263.497	0	68.5	4	22.7	4	-1E+10	1	0.0693	4	0.000347	0	-1E+10	1	-1E+10	1	-1E+10	1
4902624	29	C	04/07/2025	11:41	-127.554	48.087	0	266.70	0	6.1593	0	33.9567	0	26.711	0	264.289	0	68.2	4	22.6	4	-1E+10	1	0.0555	4	0.000316	0	-1E+10	1	-1E+10	1	-1E+10	1
4902624	29	C	04/07/2025	11:41	-127.554	48.087	0	267.00	0	6.1580	0	33.9570	0	26.712	0	264.586	0	-1e10	1	-1e10	1	-1E+10	1	-1e10	1	-1e10	1	-1E+10	1	-1E+10	1	-1E+10	1
4902624	29	C	04/07/2025	11:41	-127.554	48.087	0	267.50	0	6.1570	0	33.9573	0	26.712	0	265.082	0	68.0	4	22.5	4	-1E+10	1	0.0438	4	0.000298	0	-1E+10	1	-1E+10	1	-1E+10	1
4902624	29	C	04/07/2025	11:41	-127.554	48.087	0	268.40	0	6.1552	0	33.9577	0	26.713	0	265.973	0	67.7	4	22.5	4	-1E+10	1	0.0569	4	0.000287	0	-1E+10	1	-1E+10	1	-1E+10	1
4902624	29	C	04/07/2025	11:41	-127.554	48.087	0	269.00	0	6.1540	0	33.9580	0	26.713	0	266.567	0	-1e10	1	-1e10	1	-1E+10	1	-1e10	1	-1e10	1	-1E+10	1	-1E+10	1	-1E+10	1
4902624	29	C	04/07/2025	11:41	-127.554	48.087	0	269.20	0	6.1531	0	33.9582	0	26.713	0	266.765	0	67.4	4	22.4	4	-1E+10	1	0.0584	4	0.000295	0	-1E+10	1	-1E+10	1	-1E+10	1
4902624	29	C	04/07/2025	11:41	-127.554	48.087	0	270.00	0	6.1495	0	33.9590	0	26.714	0	267.557	0	67.2	4	22.3	4	-1E+10	1	0.0535	4	0.000321	0	-1E+10	1	-1E+10	1	-1E+10	1
4902624	29	C	04/07/2025	11:41	-127.554	48.087	0	270.80	0	6.1459	0	33.9598	0	26.715	0	268.350	0	66.9	4	22.2	4	-1E+10	1	0.0511	4	0.000339	0	-1E+10	1	-1E+10	1	-1E+10	1
4902624	29	C	04/07/2025	11:41	-127.554	48.087	0	271.00	0	6.1450	0	33.9600	0	26.716	0	268.548	0	-1e10	1	-1e10	1	-1E+10	1	-1e10	1	-1e10	1	-1E+10	1	-1E+10	1	-1E+10	1
4902624	29	C	04/07/2025	11:41	-127.554	48.087	0	271.70	0	6.1394	0	33.9610	0	26.717	0	269.241	0	66.6	4	22.1	4	-1E+10	1	0.0511	4	0.000308	0	-1E+10	1	-1E+10	1	-1E+10	1
4902624	29	C	04/07/2025	11:41	-127.554	48.087	0	272.50	0	6.1330	0	33.9622	0	26.719	0	270.033	0	66.4	4	22.0	4	-1E+10	1	0.0511	4	0.000269	0	-1E+10	1	-1E+10	1	-1E+10	1
4902624	29	C	04/07/2025	11:41	-127.554	48.087	0	273.00	0	6.1290	0	33.9630	0	26.720	0	270.528	0	-1e10	1	-1e10	1	-1E+10	1	-1e10	1	-1e10	1	-1E+10	1	-1E+10	1	-1E+10	1
4902624	29	C	04/07/2025	11:41	-127.554	48.087	0	273.40	0	6.1320	0	33.9638	0	26.720	0	270.924	0	66.1	4	21.9	4	-1E+10	1	0.0526	4	0.000302	0	-1E+10	1	-1E+10	1	-1E+10	1
4902624	29	C	04/07/2025	11:41	-127.554	48.087	0	274.20	0	6.1380	0	33.9654	0	26.721	0	271.717	0	65.8	4	21.8	4	-1E+10	1	0.0584	4	0.000368	0	-1E+10	1	-1E+10	1	-1E+10	1
4902624	29	C	04/07/2025	11:41	-127.554	48.087	0	275.00	0	6.1440	0	33.9670	0	26.721	0	272.509	0	64.6	4	21.4	4	-1E+10	1	0.0584	4	0.000385	0	-1E+10	1	-1E+10	1	-1E+10	1
4902624	29	C	04/07/2025	11:41	-127.554	48.087	0	275.90	0	6.1472	0	33.9683	0	26.722	0	273.400	0	65.4	4	21.7	4	-1E+10	1	0.0650	4	0.000327	0	-1E+10	1	-1E+10	1	-1E+10	1
4902624	29	C	04/07/2025	11:41	-127.554	48.087	0	276.70	0	6.1500	0	33.9696	0	26.723	0	274.192	0	65.3	4	21.6	4	-1E+10	1	0.0555	4	0.000349	0	-1E+10	1	-1E+10	1	-1E+10	1
4902624	29	C	04/07/2025	11:41	-127.554	48.087	0	277.00	0	6.1510	0	33.9700	0	26.723	0	274.489	0	-1e10	1	-1e10	1	-1E+10	1	-1e10	1	-1e10	1	-1E+10	1	-1E+10	1	-1E+10	1
4902624	29	C	04/07/2025	11:41	-127.554	48.087	0	277.50	0	6.1478	0	33.9700	0	26.723	0	274.984	0	65.1	4	21.6	4	-1E+10	1	0.0552	4	0.000306	0	-1E+10	1	-1E+10	1	-1E+10	1
4902624	29	C	04/07/2025	11:41	-127.554	48.087	0	278.40	0	6.1422	0	33.9700	0	26.724	0	275.876	0	65.0	4	21.6	4	-1E+10	1	0.0620	4	0.000312	0	-1E+10	1	-1E+10	1	-1E+10	1
4902624	29	C	04/07/2025	11:41	-127.554	48.087	0	278.90	0	6.1390	0	33.9700	0	26.724	0	276.371	0	-1e10	1	-1e10	1	-1E+10	1	-1e10	1	-1e10	1	-1E+10	1	-1E+10	1	-1E+10	1
4902624	29	C	04/07/2025	11:41	-127.554	48.087	0	279.20	0	6.1372	0	33.9700	0	26.725	0	276.668	0	64.9	4	21.5	4	-1E+10	1	0.0635	4	0.000398	0	-1E+10	1	-1E+10	1	-1E+10	1
4902624	29	C	04/07/2025	11:41	-127.554	48.087	0	280.00	0	6.1324	0	33.9700	0	26.725	0	277.460	0	64.7	4	21.4	4	-1E+10	1	0.0575	4	0.000473	0	-1E+10	1	-1E+10	1	-1E+10	1
4902624	29	C	04/07/2025	11:41	-127.554	48.087	0	280.90	0	6.1270	0	33.9700	0	26.726	0	278.351	0	63.5	4	21.1	4	-1E+10	1	0.0526	4	0.000382	0	-1E+10	1	-1E+10	1	-1E+10	1
4902624	29	C	04/07/2025	11:41	-127.554	48.087	0	281.70	0	6.1156	0	33.9704	0	26.728	0	279.144	0	64.3	4	21.3	4	-1E+10	1	0.0584	4	0.000344	0	-1E+10	1	-1E+10	1	-1E+10	1
4902624	29	C	04/07/2025	11:41	-127.554	48.087	0	282.60	0	6.1027	0	33.9708	0	26.730	0	280.035	0	64.0	4	21.2	4	-1E+10	1	0.0584	4	0.000344	0	-1E+10	1	-1E+10	1	-1E+10	1
4902624	29	C	04/07/2025	11:41	-127.554	48.087	0	283.00	0	6.0970	0	33.9710	0	26.731	0	280.431	0	-1e10	1	-1e10	1	-1E+10	1	-1e10	1	-1e10	1	-1E+10	1	-1E+10	1	-1E+10	1
4902624	29	C	04/07/2025	11:41	-127.554	48.087	0	283.40	0	6.0948	0	33.9710	0	26.731	0	280.827	0	63.8	4	21.1	4	-1E+10	1	0.0584	4	0.000335	0	-1E+10	1	-1E+10	1	-1E+10	1
4902624	29	C	04/07/2025	11:41	-127.554	48.087	0	284.30	0	6.0898	0	33.9710	0	26.731	0	281.718	0	63.6	4	21.1	4	-1E+10	1	0.0635	4	0.000308	0	-1E+10	1	-1E+10	1	-1E+10	1
4902624	29	C	04/07/2025	11:41	-127.554	48.087	0	285.00	0	6.0860	0	33.9710	0	26.732	0	282.411	0	-1e10	1	-1e10	1	-1E+10	1	-1e10	1	-1e10	1	-1E+10	1	-1E+10	1	-1E+10	1
4902624	29	C	04/07/2025	11:41	-127.554	48.087	0	285.10	0	6.0862	0	33.9711	0	26.732	0	282.510	0	63.3	4	21.0	4	-1E+10	1	0.0624	4	0.000308	0	-1E+10	1	-1E+10	1	-1E+10	1
4902624	29	C	04/07/2025	11:41	-127.554	48.087	0	286.00	0	6.0880	0	33.9715	0	26.732	0	283.402	0	63.0	4	20.9	4	-1E+10	1	0.0584	4	0.000325	0	-1E+10	1	-1E+10	1	-1E+10	1
4902624	29	C	04/07/2025	11:41	-127.554	48.087	0	286.90	0	6.0898	0	33.9720	0	26.732	0	284.293	0	62.7	4	20.8	4	-1E+10	1	0.0504	4	0.000320	0	-1E+10	1	-1E+10	1	-1E+10	1
4902624	29	C	04/07/2025	11:41	-127.554	48.087	0	287.00	0	6.0900	0	33.9720	0	26.732	0	284.392	0	-1e10	1	-1e10	1	-1E+10	1	-1e10	1	-1e10	1	-1E+10	1	-1E+10	1	-1E+10	1
4902624	29	C	04/07/2025	11:41	-127.554	48.087	0	287.70	0	6.0897	0	33.9734	0	26.733	0	285.085	0	62.5	4	20.7	4	-1E+10	1	0.0380	4	0.000300	0	-1E+10	1	-1E+10	1	-1E+10	1
4902624	29	C	04/07/2025	11:41	-127.554	48.087	0	288.60	0	6.0892	0	33.9752	0	26.735	0	285.976	0	62.3	4	20.6	4	-1E+10	1	0.0511	4	0.000321	0	-1E+10	1	-1E+10	1	-1E+10	1
4902624	29	C	04/07/2025	11:41	-127.554	48.087	0	289.00	0	6.0890	0	33.9760	0	26.736	0	286.372	0	-1e10	1	-1e10	1	-1E+10	1	-1e10	1	-1e10	1	-1E+10	1	-1E+10	1	-1E+10	1
4902624	29	C	04/07/2025	11:41	-127.554	48.087	0	289.50	0	6.0828	0	33.9765	0	26.737	0	286.867	0	62.1	4	20.6	4	-1E+10	1	0.0365	4	0.000321	0	-1E+10	1	-1E+10	1	-1E+10	1
4902624	29	C	04/07/2025	11:41	-127.554	48.087	0	290.40	0	6.0717	0	33.9773	0	26.739	0	287.759	0	61.9	4	20.5	4	-1E+10	1	0.0628	4	0.000310	0	-1E+10	1	-1E+10	1	-1E+10	1
4902624	29	C	04/07/2025	11:41	-127.554	48.087	0	291.10	0	6.0630	0	33.9780	0	26.740	0	288.452	0	-1e10	1	-1e10	1	-1E+10	1	-1e10	1	-1e10	1	-1E+10	1	-1E+10	1	-1E+10	1
4902624	29	C	04/07/2025	11:41	-127.554	48.087	0	291.20	0	6.0621	0	33.9780	0	26.741	0	288.551	0	61.8	4	20.5	4	-1E+10	1	0.0518	4	0.000309	0	-1E+10	1	-1E+10	1	-1E+10	1
4902624	29	C	04/07/2025	11:41	-127.554	48.087	0	292.10	0	6.0535	0	33.9780	0	26.742	0	289.442	0	61.6	4	20.4	4	-1E+10	1	0.0479	4	0.000303	0	-1E+10	1	-1E+10	1	-1E+10	1
4902624	29	C	04/07/2025	11:41	-127.554	48.087	0	293.00	0	6.0450	0	33.9780	0	26.743	0	290.333	0	60.6	4	20.0	4	-1E+10	1	0.0511	4	0.000309	0	-1E+10	1	-1E+10	1	-1E+10	1
4902624	29	C	04/07/2025	11:41	-127.554	48.087	0	293.90	0	6.0387	0	33.9785	0	26.744	0	291.224	0	61.3	4	20.3	4	-1E+10	1	0.0479	4	0.000326	0	-1E+10	1	-1E+10	1	-1E+10	1
4902624	29	C	04/07/2025	11:41	-127.554	48.087	0	294.70	0	6.0331	0	33.9789	0	26.745	0	292.016	0	61.1	4	20.2	4	-1E+10	1	0.0487	4	0.000321	0	-1E+10	1	-1E+10	1	-1E+10	1
4902624	29	C	04/07/2025	11:41	-127.554	48.087	0	295.00	0	6.0310	0	33.9790	0	26.745	0	292.313	0	-1e10	1	-1e10	1	-1E+10	1	-1e10	1	-1e10	1	-1E+10	1	-1E+10	1	-1E+10	1
4902624	29	C	04/07/2025	11:41	-127.554	48.087	0	295.60	0	6.0277	0	33.9793	0	26.746	0	292.908	0	61.0	4	20.2	4	-1E+10	1	0.0582	4	0.000297	0	-1E+10	1	-1E+10	1	-1E+10	1
4902624	29	C	04/07/2025	11:41	-127.554	48.087	0	297.00	0	6.0200	0	33.9800	0	26.747	0	294.294	0	-1e10	1	-1e10	1	-1E+10	1	-1e10	1	-1e10	1	-1E+10	1	-1E+10	1	-1E+10	1
4902624	29	C	04/07/2025	11:41	-127.554	48.087	0	299.10	0	5.9970	0	33.9800	0	26.750	0	296.373	0	-1e10	1	-1e10	1	-1E+10	1	-1e10	1	-1e10	1	-1E+10	1	-1E+10	1	-1E+10	1
4902624	29	C	04/07/2025	11:41	-127.554	48.087	0	304.70	0	5.9646	0	33.9820	0	26.756	0	301.918	0	59.5	4	19.6	4	-1E+10	1	0.0514	4	0.000285	0	-1E+10	1	-1E+10	1	-1E+10	1
4902624	29	C	04/07/2025	11:41	-127.554	48.087	0	304.80	0	5.9640	0	33.9820	0	26.756	0	302.017	0	-1e10	1	-1e10	1	-1E+10	1	-1e10	1	-1e10	1	-1E+10	1	-1E+10	1	-1E+10	1
4902624	29	C	04/07/2025	11:41	-127.554	48.087	0	314.00	0	5.9066	0	33.9847	0	26.766	0	311.126	0	57.5	4	19.0	4	-1E+10	1	0.0584	4	0.000278	0	-1E+10	1	-1E+10	1	-1E+10	1
4902624	29	C	04/07/2025	11:41	-127.554	48.087	0	314.90	0	5.9010	0	33.9850	0	26.766	0	312.017	0	-1e10	1	-1e10	1	-1E+10	1	-1e10	1	-1e10	1	-1E+10	1	-1E+10	1	-1E+10	1
4902624	29	C	04/07/2025	11:41	-127.554	48.087	0	323.70	0	5.8522	0	33.9911	0	26.777	0	320.730	0	54.9	4	18.1	4	-1E+10	1	0.0588	4	0.000374	0	-1E+10	1	-1E+10	1	-1E+10	1
4902624	29	C	04/07/2025	11:41	-127.554	48.087	0	325.00	0	5.8450	0	33.9920	0	26.779	0	322.017	0	-1e10	1	-1e10	1	-1E+10	1	-1e10	1	-1e10	1	-1E+10	1	-1E+10	1	-1E+10	1
4902624	29	C	04/07/2025	11:41	-127.554	48.087	0	333.60	0	5.8054	0	34.0006	0	26.791	0	330.531	0	51.6	4	17.0	4	-1E+10	1	0.0651	4	0.000286	0	-1E+10	1	-1E+10	1	-1E+10	1
4902624	29	C	04/07/2025	11:41	-127.554	48.087	0	335.00	0	5.7990	0	34.0020	0	26.793	0	331.917	0	-1e10	1	-1e10	1	-1E+10	1	-1e10	1	-1e10	1	-1E+10	1	-1E+10	1	-1E+10	1
4902624	29	C	04/07/2025	11:41	-127.554	48.087	0	343.70	0	5.7451	0	34.0124	0	26.808	0	340.530	0	48.5	4	15.9	4	-1E+10	1	0.0511	4	0.000310	0	-1E+10	1	-1E+10	1	-1E+10	1
4902624	29	C	04/07/2025	11:41	-127.554	48.087	0	345.00	0	5.7370	0	34.0140	0	26.810	0	341.817	0	-1e10	1	-1e10	1	-1E+10	1	-1e10	1	-1e10	1	-1E+10	1	-1E+10	1	-1E+10	1
4902624	29	C	04/07/2025	11:41	-127.554	48.087	0	354.10	0	5.6820	0	34.0212	0	26.822	0	350.825	0	46.1	4	15.1	4	-1E+10	1	0.0511	4	0.000332	0	-1E+10	1	-1E+10	1	-1E+10	1
4902624	29	C	04/07/2025	11:41	-127.554	48.087	0	355.10	0	5.6760	0	34.0220	0	26.824	0	351.815	0	-1e10	1	-1e10	1	-1E+10	1	-1e10	1	-1e10	1	-1E+10	1	-1E+10	1	-1E+10	1
4902624	29	C	04/07/2025	11:41	-127.554	48.087	0	364.40	0	5.6016	0	34.0322	0	26.841	0	361.021	0	43.6	4	14.3	4	-1E+10	1	0.0519	4	0.000335	0	-1E+10	1	-1E+10	1	-1E+10	1
4902624	29	C	04/07/2025	11:41	-127.554	48.087	0	365.10	0	5.5960	0	34.0330	0	26.842	0	361.714	0	-1e10	1	-1e10	1	-1E+10	1	-1e10	1	-1e10	1	-1E+10	1	-1E+10	1	-1E+10	1
4902624	29	C	04/07/2025	11:41	-127.554	48.087	0	374.80	0	5.5310	0	34.0398	0	26.856	0	371.315	0	41.7	4	13.6	4	-1E+10	1	0.0716	4	0.000413	0	-1E+10	1	-1E+10	1	-1E+10	1
4902624	29	C	04/07/2025	11:41	-127.554	48.087	0	375.10	0	5.5290	0	34.0400	0	26.856	0	371.612	0	-1e10	1	-1e10	1	-1E+10	1	-1e10	1	-1e10	1	-1E+10	1	-1E+10	1	-1E+10	1
4902624	29	C	04/07/2025	11:41	-127.554	48.087	0	384.90	0	5.4637	0	34.0459	0	26.869	0	381.312	0	39.5	4	12.9	4	-1E+10	1	0.0372	4	0.000391	0	-1E+10	1	-1E+10	1	-1E+10	1
4902624	29	C	04/07/2025	11:41	-127.554	48.087	0	385.00	0	5.4630	0	34.0460	0	26.869	0	381.411	0	-1e10	1	-1e10	1	-1E+10	1	-1e10	1	-1e10	1	-1E+10	1	-1E+10	1	-1E+10	1
4902624	29	C	04/07/2025	11:41	-127.554	48.087	0	394.90	0	5.3800	0	34.0540	0	26.885	0	391.209	0	-1e10	1	-1e10	1	-1E+10	1	-1e10	1	-1e10	1	-1E+10	1	-1E+10	1	-1E+10	1
4902624	29	C	04/07/2025	11:41	-127.554	48.087	0	395.00	0	5.3791	0	34.0541	0	26.885	0	391.308	0	36.9	4	12.0	4	-1E+10	1	0.0577	4	0.000411	0	-1E+10	1	-1E+10	1	-1E+10	1
4902624	29	C	04/07/2025	11:41	-127.554	48.087	0	404.90	0	5.2920	0	34.0650	0	26.904	0	401.106	0	-1e10	1	-1e10	1	-1E+10	1	-1e10	1	-1e10	1	-1E+10	1	-1E+10	1	-1E+10	1
4902624	29	C	04/07/2025	11:41	-127.554	48.087	0	405.00	0	5.2910	0	34.0651	0	26.904	0	401.205	0	34.4	4	11.2	4	-1E+10	1	0.0438	4	0.000354	0	-1E+10	1	-1E+10	1	-1E+10	1
4902624	29	C	04/07/2025	11:41	-127.554	48.087	0	414.80	0	5.1950	0	34.0750	0	26.923	0	410.904	0	-1e10	1	-1e10	1	-1E+10	1	-1e10	1	-1e10	1	-1E+10	1	-1E+10	1	-1E+10	1
4902624	29	C	04/07/2025	11:41	-127.554	48.087	0	415.20	0	5.1920	0	34.0754	0	26.924	0	411.300	0	32.1	4	10.4	4	-1E+10	1	0.0434	4	0.000320	0	-1E+10	1	-1E+10	1	-1E+10	1
4902624	29	C	04/07/2025	11:41	-127.554	48.087	0	425.10	0	5.1180	0	34.0840	0	26.939	0	421.097	0	-1e10	1	-1e10	1	-1E+10	1	-1e10	1	-1e10	1	-1E+10	1	-1E+10	1	-1E+10	1
4902624	29	C	04/07/2025	11:41	-127.554	48.087	0	425.40	0	5.1160	0	34.0844	0	26.940	0	421.393	0	29.7	4	9.6	4	-1E+10	1	0.0365	4	0.000321	0	-1E+10	1	-1E+10	1	-1E+10	1
4902624	29	C	04/07/2025	11:41	-127.554	48.087	0	435.20	0	5.0520	0	34.0960	0	26.957	0	431.091	0	-1e10	1	-1e10	1	-1E+10	1	-1e10	1	-1e10	1	-1E+10	1	-1E+10	1	-1E+10	1
4902624	29	C	04/07/2025	11:41	-127.554	48.087	0	436.00	0	5.0471	0	34.0970	0	26.958	0	431.883	0	27.4	4	8.9	4	-1E+10	1	0.0365	4	0.000341	0	-1E+10	1	-1E+10	1	-1E+10	1
4902624	29	C	04/07/2025	11:41	-127.554	48.087	0	444.90	0	4.9920	0	34.1080	0	26.973	0	440.689	0	-1e10	1	-1e10	1	-1E+10	1	-1e10	1	-1e10	1	-1E+10	1	-1E+10	1	-1E+10	1
4902624	29	C	04/07/2025	11:41	-127.554	48.087	0	446.90	0	4.9824	0	34.1096	0	26.975	0	442.668	0	25.7	4	8.3	4	-1E+10	1	0.0368	4	0.000285	0	-1E+10	1	-1E+10	1	-1E+10	1
4902624	29	C	04/07/2025	11:41	-127.554	48.087	0	455.10	0	4.9430	0	34.1160	0	26.985	0	450.781	0	-1e10	1	-1e10	1	-1E+10	1	-1e10	1	-1e10	1	-1E+10	1	-1E+10	1	-1E+10	1
4902624	29	C	04/07/2025	11:41	-127.554	48.087	0	457.40	0	4.9315	0	34.1183	0	26.988	0	453.057	0	24.0	4	7.7	4	-1E+10	1	0.0444	4	0.000294	0	-1E+10	1	-1E+10	1	-1E+10	1
4902624	29	C	04/07/2025	11:41	-127.554	48.087	0	464.50	0	4.8960	0	34.1254	0	26.998	0	460.082	0	23.0	4	7.4	4	-1E+10	1	0.0581	4	0.000262	0	-1E+10	1	-1E+10	1	-1E+10	1
4902624	29	C	04/07/2025	11:41	-127.554	48.087	0	465.10	0	4.8930	0	34.1260	0	26.999	0	460.675	0	-1e10	1	-1e10	1	-1E+10	1	-1e10	1	-1e10	1	-1E+10	1	-1E+10	1	-1E+10	1
4902624	29	C	04/07/2025	11:41	-127.554	48.087	0	472.10	0	4.8556	0	34.1336	0	27.009	0	467.601	0	21.7	4	7.0	4	-1E+10	1	0.0516	4	0.000300	0	-1E+10	1	-1E+10	1	-1E+10	1
4902624	29	C	04/07/2025	11:41	-127.554	48.087	0	475.20	0	4.8390	0	34.1370	0	27.014	0	470.668	0	-1e10	1	-1e10	1	-1E+10	1	-1e10	1	-1e10	1	-1E+10	1	-1E+10	1	-1E+10	1
4902624	29	C	04/07/2025	11:41	-127.554	48.087	0	480.10	0	4.8178	0	34.1415	0	27.020	0	475.516	0	20.6	4	6.6	4	-1E+10	1	0.0654	4	0.000400	0	-1E+10	1	-1E+10	1	-1E+10	1
4902624	29	C	04/07/2025	11:41	-127.554	48.087	0	484.90	0	4.7970	0	34.1460	0	27.026	0	480.264	0	-1e10	1	-1e10	1	-1E+10	1	-1e10	1	-1e10	1	-1E+10	1	-1E+10	1	-1E+10	1
4902624	29	C	04/07/2025	11:41	-127.554	48.087	0	488.50	0	4.7845	0	34.1482	0	27.029	0	483.826	0	19.7	4	6.3	4	-1E+10	1	0.0587	4	0.000363	0	-1E+10	1	-1E+10	1	-1E+10	1
4902624	29	C	04/07/2025	11:41	-127.554	48.087	0	494.70	0	4.7630	0	34.1520	0	27.034	0	489.959	0	-1e10	1	-1e10	1	-1E+10	1	-1e10	1	-1e10	1	-1E+10	1	-1E+10	1	-1E+10	1
4902624	29	C	04/07/2025	11:41	-127.554	48.087	0	497.20	0	4.7539	0	34.1537	0	27.037	0	492.432	0	18.7	4	6.0	4	-1E+10	1	0.0654	4	0.000283	0	-1E+10	1	-1E+10	1	-1E+10	1
4902624	29	C	04/07/2025	11:41	-127.554	48.087	0	504.90	0	4.7260	0	34.1590	0	27.044	0	500.049	0	-1e10	1	-1e10	1	-1E+10	1	-1e10	1	-1e10	1	-1E+10	1	-1E+10	1	-1E+10	1
4902624	29	C	04/07/2025	11:41	-127.554	48.087	0	506.20	0	4.7215	0	34.1600	0	27.045	0	501.335	0	17.8	4	5.7	4	-1E+10	1	0.0587	4	0.000272	0	-1E+10	1	-1E+10	1	-1E+10	1
4902624	29	C	04/07/2025	11:41	-127.554	48.087	0	515.20	0	4.6900	0	34.1670	0	27.054	0	510.237	0	-1e10	1	-1e10	1	-1E+10	1	-1e10	1	-1e10	1	-1E+10	1	-1E+10	1	-1E+10	1
4902624	29	C	04/07/2025	11:41	-127.554	48.087	0	515.40	0	4.6893	0	34.1671	0	27.054	0	510.435	0	17.0	4	5.5	4	-1E+10	1	0.0650	4	0.000260	0	-1E+10	1	-1E+10	1	-1E+10	1
4902624	29	C	04/07/2025	11:41	-127.554	48.087	0	524.80	0	4.6547	0	34.1739	0	27.064	0	519.733	0	16.2	4	5.2	4	-1E+10	1	0.0441	4	0.000266	0	-1E+10	1	-1E+10	1	-1E+10	1
4902624	29	C	04/07/2025	11:41	-127.554	48.087	0	525.00	0	4.6540	0	34.1740	0	27.064	0	519.931	0	-1e10	1	-1e10	1	-1E+10	1	-1e10	1	-1e10	1	-1E+10	1	-1E+10	1	-1E+10	1
4902624	29	C	04/07/2025	11:41	-127.554	48.087	0	534.40	0	4.6108	0	34.1815	0	27.075	0	529.228	0	15.4	4	4.9	4	-1E+10	1	0.0511	4	0.000398	0	-1E+10	1	-1E+10	1	-1E+10	1
4902624	29	C	04/07/2025	11:41	-127.554	48.087	0	535.00	0	4.6080	0	34.1820	0	27.075	0	529.821	0	-1e10	1	-1e10	1	-1E+10	1	-1e10	1	-1e10	1	-1E+10	1	-1E+10	1	-1E+10	1
4902624	29	C	04/07/2025	11:41	-127.554	48.087	0	544.00	0	4.5798	0	34.1873	0	27.083	0	538.723	0	14.6	4	4.7	4	-1E+10	1	0.0511	4	0.000345	0	-1E+10	1	-1E+10	1	-1E+10	1
4902624	29	C	04/07/2025	11:41	-127.554	48.087	0	545.20	0	4.5760	0	34.1880	0	27.084	0	539.909	0	-1e10	1	-1e10	1	-1E+10	1	-1e10	1	-1e10	1	-1E+10	1	-1E+10	1	-1E+10	1
4902624	29	C	04/07/2025	11:41	-127.554	48.087	0	554.00	0	4.5419	0	34.1934	0	27.092	0	548.612	0	13.8	4	4.4	4	-1E+10	1	0.0518	4	0.000430	0	-1E+10	1	-1E+10	1	-1E+10	1
4902624	29	C	04/07/2025	11:41	-127.554	48.087	0	555.00	0	4.5380	0	34.1940	0	27.093	0	549.601	0	-1e10	1	-1e10	1	-1E+10	1	-1e10	1	-1e10	1	-1E+10	1	-1E+10	1	-1E+10	1
4902624	29	C	04/07/2025	11:41	-127.554	48.087	0	564.20	0	4.5027	0	34.1996	0	27.101	0	558.700	0	12.9	4	4.1	4	-1E+10	1	0.0724	4	0.000236	0	-1E+10	1	-1E+10	1	-1E+10	1
4902624	29	C	04/07/2025	11:41	-127.554	48.087	0	564.90	0	4.5000	0	34.2000	0	27.102	0	559.392	0	-1e10	1	-1e10	1	-1E+10	1	-1e10	1	-1e10	1	-1E+10	1	-1E+10	1	-1E+10	1
4902624	29	C	04/07/2025	11:41	-127.554	48.087	0	574.50	0	4.4829	0	34.2076	0	27.110	0	568.885	0	12.0	4	3.8	4	-1E+10	1	0.0581	4	0.000224	0	-1E+10	1	-1E+10	1	-1E+10	1
4902624	29	C	04/07/2025	11:41	-127.554	48.087	0	575.00	0	4.4820	0	34.2080	0	27.110	0	569.380	0	-1e10	1	-1e10	1	-1E+10	1	-1e10	1	-1e10	1	-1E+10	1	-1E+10	1	-1E+10	1
4902624	29	C	04/07/2025	11:41	-127.554	48.087	0	585.00	0	4.4384	0	34.2110	0	27.117	0	579.268	0	11.7	4	3.7	4	-1E+10	1	0.0511	4	0.000201	0	-1E+10	1	-1E+10	1	-1E+10	1
4902624	29	C	04/07/2025	11:41	-127.554	48.087	0	585.10	0	4.4380	0	34.2110	0	27.117	0	579.367	0	-1e10	1	-1e10	1	-1E+10	1	-1e10	1	-1e10	1	-1E+10	1	-1E+10	1	-1E+10	1
4902624	29	C	04/07/2025	11:41	-127.554	48.087	0	595.30	0	4.4270	0	34.2200	0	27.126	0	589.452	0	-1e10	1	-1e10	1	-1E+10	1	-1e10	1	-1e10	1	-1E+10	1	-1E+10	1	-1E+10	1
4902624	29	C	04/07/2025	11:41	-127.554	48.087	0	595.90	0	4.4250	0	34.2204	0	27.126	0	590.046	0	11.1	4	3.6	4	-1E+10	1	0.0511	4	0.000189	0	-1E+10	1	-1E+10	1	-1E+10	1
4902624	29	C	04/07/2025	11:41	-127.554	48.087	0	605.20	0	4.3940	0	34.2270	0	27.135	0	599.241	0	-1e10	1	-1e10	1	-1E+10	1	-1e10	1	-1e10	1	-1E+10	1	-1E+10	1	-1E+10	1
4902624	29	C	04/07/2025	11:41	-127.554	48.087	0	606.60	0	4.3893	0	34.2277	0	27.136	0	600.625	0	10.7	4	3.4	4	-1E+10	1	0.0511	4	0.000189	0	-1E+10	1	-1E+10	1	-1E+10	1
4902624	29	C	04/07/2025	11:41	-127.554	48.087	0	615.10	0	4.3610	0	34.2320	0	27.142	0	609.029	0	-1e10	1	-1e10	1	-1E+10	1	-1e10	1	-1e10	1	-1E+10	1	-1E+10	1	-1E+10	1
4902624	29	C	04/07/2025	11:41	-127.554	48.087	0	617.40	0	4.3576	0	34.2334	0	27.144	0	611.303	0	10.3	4	3.3	4	-1E+10	1	0.0508	4	0.000195	0	-1E+10	1	-1E+10	1	-1E+10	1
4902624	29	C	04/07/2025	11:41	-127.554	48.087	0	625.20	0	4.3460	0	34.2380	0	27.149	0	619.014	0	-1e10	1	-1e10	1	-1E+10	1	-1e10	1	-1e10	1	-1E+10	1	-1E+10	1	-1E+10	1
4902624	29	C	04/07/2025	11:41	-127.554	48.087	0	628.40	0	4.3401	0	34.2396	0	27.151	0	622.178	0	10.0	4	3.2	4	-1E+10	1	0.0441	4	0.000335	0	-1E+10	1	-1E+10	1	-1E+10	1
4902624	29	C	04/07/2025	11:41	-127.554	48.087	0	635.00	0	4.3280	0	34.2430	0	27.155	0	628.702	0	-1e10	1	-1e10	1	-1E+10	1	-1e10	1	-1e10	1	-1E+10	1	-1E+10	1	-1E+10	1
4902624	29	C	04/07/2025	11:41	-127.554	48.087	0	639.40	0	4.3136	0	34.2448	0	27.158	0	633.052	0	9.7	4	3.1	4	-1E+10	1	0.0516	4	0.000188	0	-1E+10	1	-1E+10	1	-1E+10	1
4902624	29	C	04/07/2025	11:41	-127.554	48.087	0	644.80	0	4.2960	0	34.2470	0	27.161	0	638.390	0	-1e10	1	-1e10	1	-1E+10	1	-1e10	1	-1e10	1	-1E+10	1	-1E+10	1	-1E+10	1
4902624	29	C	04/07/2025	11:41	-127.554	48.087	0	650.50	0	4.2812	0	34.2516	0	27.167	0	644.025	0	9.3	4	3.0	4	-1E+10	1	0.0657	4	0.000154	0	-1E+10	1	-1E+10	1	-1E+10	1
4902624	29	C	04/07/2025	11:41	-127.554	48.087	0	654.80	0	4.2700	0	34.2550	0	27.171	0	648.275	0	-1e10	1	-1e10	1	-1E+10	1	-1e10	1	-1e10	1	-1E+10	1	-1E+10	1	-1E+10	1
4902624	29	C	04/07/2025	11:41	-127.554	48.087	0	661.80	0	4.2632	0	34.2598	0	27.175	0	655.195	0	9.0	4	2.9	4	-1E+10	1	0.0657	4	0.000154	0	-1E+10	1	-1E+10	1	-1E+10	1
4902624	29	C	04/07/2025	11:41	-127.554	48.087	0	665.10	0	4.2600	0	34.2620	0	27.177	0	658.456	0	-1e10	1	-1e10	1	-1E+10	1	-1e10	1	-1e10	1	-1E+10	1	-1E+10	1	-1E+10	1
4902624	29	C	04/07/2025	11:41	-127.554	48.087	0	673.00	0	4.2375	0	34.2682	0	27.185	0	666.265	0	8.8	4	2.8	4	-1E+10	1	0.0651	4	0.000165	0	-1E+10	1	-1E+10	1	-1E+10	1
4902624	29	C	04/07/2025	11:41	-127.554	48.087	0	675.30	0	4.2310	0	34.2700	0	27.187	0	668.538	0	-1e10	1	-1e10	1	-1E+10	1	-1e10	1	-1e10	1	-1E+10	1	-1E+10	1	-1E+10	1
4902624	29	C	04/07/2025	11:41	-127.554	48.087	0	684.40	0	4.2050	0	34.2728	0	27.192	0	677.532	0	8.6	4	2.7	4	-1E+10	1	0.0511	4	0.000165	0	-1E+10	1	-1E+10	1	-1E+10	1
4902624	29	C	04/07/2025	11:41	-127.554	48.087	0	685.10	0	4.2030	0	34.2730	0	27.192	0	678.224	0	-1e10	1	-1e10	1	-1E+10	1	-1e10	1	-1e10	1	-1E+10	1	-1E+10	1	-1E+10	1
4902624	29	C	04/07/2025	11:41	-127.554	48.087	0	695.00	0	4.1530	0	34.2770	0	27.201	0	688.008	0	-1e10	1	-1e10	1	-1E+10	1	-1e10	1	-1e10	1	-1E+10	1	-1E+10	1	-1E+10	1
4902624	29	C	04/07/2025	11:41	-127.554	48.087	0	695.80	0	4.1512	0	34.2774	0	27.201	0	688.799	0	8.5	4	2.7	4	-1E+10	1	0.0517	4	0.000166	0	-1E+10	1	-1E+10	1	-1E+10	1
4902624	29	C	04/07/2025	11:41	-127.554	48.087	0	705.20	0	4.1300	0	34.2820	0	27.207	0	698.089	0	-1e10	1	-1e10	1	-1E+10	1	-1e10	1	-1e10	1	-1E+10	1	-1E+10	1	-1E+10	1
4902624	29	C	04/07/2025	11:41	-127.554	48.087	0	707.40	0	4.1251	0	34.2838	0	27.209	0	700.263	0	8.2	4	2.6	4	-1E+10	1	0.0654	4	0.000198	0	-1E+10	1	-1E+10	1	-1E+10	1
4902624	29	C	04/07/2025	11:41	-127.554	48.087	0	715.00	0	4.1080	0	34.2900	0	27.216	0	707.773	0	-1e10	1	-1e10	1	-1E+10	1	-1e10	1	-1e10	1	-1E+10	1	-1E+10	1	-1E+10	1
4902624	29	C	04/07/2025	11:41	-127.554	48.087	0	718.90	0	4.1035	0	34.2916	0	27.218	0	711.627	0	8.0	4	2.5	4	-1E+10	1	0.0584	4	0.000165	0	-1E+10	1	-1E+10	1	-1E+10	1
4902624	29	C	04/07/2025	11:41	-127.554	48.087	0	724.60	0	4.0970	0	34.2940	0	27.220	0	717.260	0	-1e10	1	-1e10	1	-1E+10	1	-1e10	1	-1e10	1	-1E+10	1	-1E+10	1	-1E+10	1
4902624	29	C	04/07/2025	11:41	-127.554	48.087	0	730.50	0	4.0987	0	34.2997	0	27.225	0	723.090	0	7.8	4	2.5	4	-1E+10	1	0.0584	4	0.000165	0	-1E+10	1	-1E+10	1	-1E+10	1
4902624	29	C	04/07/2025	11:41	-127.554	48.087	0	735.00	0	4.1000	0	34.3040	0	27.228	0	727.536	0	-1e10	1	-1e10	1	-1E+10	1	-1e10	1	-1e10	1	-1E+10	1	-1E+10	1	-1E+10	1
4902624	29	C	04/07/2025	11:41	-127.554	48.087	0	740.30	0	4.0852	0	34.3072	0	27.232	0	732.773	0	7.7	4	2.4	4	-1E+10	1	0.0584	4	0.000165	0	-1E+10	1	-1E+10	1	-1E+10	1
4902624	29	C	04/07/2025	11:41	-127.554	48.087	0	745.00	0	4.0720	0	34.3100	0	27.236	0	737.417	0	-1e10	1	-1e10	1	-1E+10	1	-1e10	1	-1e10	1	-1E+10	1	-1E+10	1	-1E+10	1
4902624	29	C	04/07/2025	11:41	-127.554	48.087	0	748.30	0	4.0608	0	34.3116	0	27.238	0	740.678	0	7.6	4	2.4	4	-1E+10	1	0.0584	4	0.000176	0	-1E+10	1	-1E+10	1	-1E+10	1
4902624	29	C	04/07/2025	11:41	-127.554	48.087	0	755.00	0	4.0380	0	34.3150	0	27.243	0	747.297	0	-1e10	1	-1e10	1	-1E+10	1	-1e10	1	-1e10	1	-1E+10	1	-1E+10	1	-1E+10	1
4902624	29	C	04/07/2025	11:41	-127.554	48.087	0	756.60	0	4.0329	0	34.3158	0	27.244	0	748.878	0	7.6	4	2.4	4	-1E+10	1	0.0581	4	0.000165	0	-1E+10	1	-1E+10	1	-1E+10	1
4902624	29	C	04/07/2025	11:41	-127.554	48.087	0	765.00	0	4.0060	0	34.3200	0	27.250	0	757.177	0	7.4	4	2.3	4	-1E+10	1	0.0518	4	0.000186	0	-1E+10	1	-1E+10	1	-1E+10	1
4902624	29	C	04/07/2025	11:41	-127.554	48.087	0	773.40	0	3.9856	0	34.3242	0	27.256	0	765.476	0	7.4	4	2.3	4	-1E+10	1	0.0654	4	0.000155	0	-1E+10	1	-1E+10	1	-1E+10	1
4902624	29	C	04/07/2025	11:41	-127.554	48.087	0	774.90	0	3.9820	0	34.3250	0	27.257	0	766.958	0	-1e10	1	-1e10	1	-1E+10	1	-1e10	1	-1e10	1	-1E+10	1	-1E+10	1	-1E+10	1
4902624	29	C	04/07/2025	11:41	-127.554	48.087	0	782.00	0	3.9669	0	34.3286	0	27.261	0	773.972	0	7.4	4	2.3	4	-1E+10	1	0.0589	4	0.000198	0	-1E+10	1	-1E+10	1	-1E+10	1
4902624	29	C	04/07/2025	11:41	-127.554	48.087	0	784.80	0	3.9610	0	34.3300	0	27.263	0	776.738	0	-1e10	1	-1e10	1	-1E+10	1	-1e10	1	-1e10	1	-1E+10	1	-1E+10	1	-1E+10	1
4902624	29	C	04/07/2025	11:41	-127.554	48.087	0	790.80	0	3.9450	0	34.3336	0	27.268	0	782.665	0	7.5	4	2.4	4	-1E+10	1	0.0720	4	0.000153	0	-1E+10	1	-1E+10	1	-1E+10	1
4902624	29	C	04/07/2025	11:41	-127.554	48.087	0	794.90	0	3.9340	0	34.3360	0	27.271	0	786.715	0	-1e10	1	-1e10	1	-1E+10	1	-1e10	1	-1e10	1	-1E+10	1	-1E+10	1	-1E+10	1
4902624	29	C	04/07/2025	11:41	-127.554	48.087	0	799.80	0	3.9205	0	34.3384	0	27.274	0	791.555	0	7.5	4	2.4	4	-1E+10	1	0.0511	4	0.000203	0	-1E+10	1	-1E+10	1	-1E+10	1
4902624	29	C	04/07/2025	11:41	-127.554	48.087	0	805.10	0	3.9060	0	34.3410	0	27.278	0	796.791	0	-1e10	1	-1e10	1	-1E+10	1	-1e10	1	-1e10	1	-1E+10	1	-1E+10	1	-1E+10	1
4902624	29	C	04/07/2025	11:41	-127.554	48.087	0	809.10	0	3.8908	0	34.3438	0	27.281	0	800.742	0	9.0	4	2.9	4	-1E+10	1	0.0514	4	0.001040	0	-1E+10	1	-1E+10	1	-1E+10	1
4902624	29	C	04/07/2025	11:41	-127.554	48.087	0	815.10	0	3.8680	0	34.3480	0	27.287	0	806.668	0	-1e10	1	-1e10	1	-1E+10	1	-1e10	1	-1e10	1	-1E+10	1	-1E+10	1	-1E+10	1
4902624	29	C	04/07/2025	11:41	-127.554	48.087	0	818.80	0	3.8582	0	34.3495	0	27.289	0	810.323	0	7.5	4	2.4	4	-1E+10	1	0.0581	4	0.000141	0	-1E+10	1	-1E+10	1	-1E+10	1
4902624	29	C	04/07/2025	11:41	-127.554	48.087	0	824.90	0	3.8420	0	34.3520	0	27.293	0	816.348	0	-1e10	1	-1e10	1	-1E+10	1	-1e10	1	-1e10	1	-1E+10	1	-1E+10	1	-1E+10	1
4902624	29	C	04/07/2025	11:41	-127.554	48.087	0	828.60	0	3.8347	0	34.3538	0	27.295	0	820.002	0	7.6	4	2.4	4	-1E+10	1	0.0508	4	0.000156	0	-1E+10	1	-1E+10	1	-1E+10	1
4902624	29	C	04/07/2025	11:41	-127.554	48.087	0	835.00	0	3.8220	0	34.3570	0	27.299	0	826.323	0	-1e10	1	-1e10	1	-1E+10	1	-1e10	1	-1e10	1	-1E+10	1	-1E+10	1	-1E+10	1
4902624	29	C	04/07/2025	11:41	-127.554	48.087	0	838.70	0	3.8147	0	34.3585	0	27.301	0	829.977	0	7.6	4	2.4	4	-1E+10	1	0.0446	4	0.000243	0	-1E+10	1	-1E+10	1	-1E+10	1
4902624	29	C	04/07/2025	11:41	-127.554	48.087	0	845.20	0	3.8020	0	34.3610	0	27.304	0	836.397	0	-1e10	1	-1e10	1	-1E+10	1	-1e10	1	-1e10	1	-1E+10	1	-1E+10	1	-1E+10	1
4902624	29	C	04/07/2025	11:41	-127.554	48.087	0	849.10	0	3.7944	0	34.3626	0	27.306	0	840.248	0	7.8	4	2.5	4	-1E+10	1	0.0657	4	0.000187	0	-1E+10	1	-1E+10	1	-1E+10	1
4902624	29	C	04/07/2025	11:41	-127.554	48.087	0	855.00	0	3.7830	0	34.3650	0	27.309	0	846.075	0	-1e10	1	-1e10	1	-1E+10	1	-1e10	1	-1e10	1	-1E+10	1	-1E+10	1	-1E+10	1
4902624	29	C	04/07/2025	11:41	-127.554	48.087	0	859.90	0	3.7719	0	34.3670	0	27.312	0	850.914	0	7.9	4	2.5	4	-1E+10	1	0.0660	4	0.000174	0	-1E+10	1	-1E+10	1	-1E+10	1
4902624	29	C	04/07/2025	11:41	-127.554	48.087	0	864.70	0	3.7610	0	34.3690	0	27.315	0	855.654	0	-1e10	1	-1e10	1	-1E+10	1	-1e10	1	-1e10	1	-1E+10	1	-1E+10	1	-1E+10	1
4902624	29	C	04/07/2025	11:41	-127.554	48.087	0	870.80	0	3.7441	0	34.3720	0	27.319	0	861.677	0	7.9	4	2.5	4	-1E+10	1	0.0727	4	0.000151	0	-1E+10	1	-1E+10	1	-1E+10	1
4902624	29	C	04/07/2025	11:41	-127.554	48.087	0	874.80	0	3.7330	0	34.3740	0	27.322	0	865.627	0	-1e10	1	-1e10	1	-1E+10	1	-1e10	1	-1e10	1	-1E+10	1	-1E+10	1	-1E+10	1
4902624	29	C	04/07/2025	11:41	-127.554	48.087	0	882.00	0	3.7121	0	34.3769	0	27.326	0	872.737	0	8.0	4	2.5	4	-1E+10	1	0.0652	4	0.000140	0	-1E+10	1	-1E+10	1	-1E+10	1
4902624	29	C	04/07/2025	11:41	-127.554	48.087	0	884.80	0	3.7040	0	34.3780	0	27.328	0	875.501	0	-1e10	1	-1e10	1	-1E+10	1	-1e10	1	-1e10	1	-1E+10	1	-1E+10	1	-1E+10	1
4902624	29	C	04/07/2025	11:41	-127.554	48.087	0	893.40	0	3.6827	0	34.3814	0	27.333	0	883.993	0	8.2	4	2.6	4	-1E+10	1	0.0516	4	0.000140	0	-1E+10	1	-1E+10	1	-1E+10	1
4902624	29	C	04/07/2025	11:41	-127.554	48.087	0	894.90	0	3.6790	0	34.3820	0	27.334	0	885.474	0	-1e10	1	-1e10	1	-1E+10	1	-1e10	1	-1e10	1	-1E+10	1	-1E+10	1	-1E+10	1
4902624	29	C	04/07/2025	11:41	-127.554	48.087	0	904.80	0	3.6580	0	34.3840	0	27.337	0	895.248	0	-1e10	1	-1e10	1	-1E+10	1	-1e10	1	-1e10	1	-1E+10	1	-1E+10	1	-1E+10	1
4902624	29	C	04/07/2025	11:41	-127.554	48.087	0	905.20	0	3.6571	0	34.3842	0	27.337	0	895.643	0	8.3	4	2.6	4	-1E+10	1	0.0649	4	0.000162	0	-1E+10	1	-1E+10	1	-1E+10	1
4902624	29	C	04/07/2025	11:41	-127.554	48.087	0	914.80	0	3.6345	0	34.3879	0	27.343	0	905.121	0	10.4	4	3.3	4	-1E+10	1	0.0511	4	0.000140	0	-1E+10	1	-1E+10	1	-1E+10	1
4902624	29	C	04/07/2025	11:41	-127.554	48.087	0	915.00	0	3.6340	0	34.3880	0	27.343	0	905.319	0	-1e10	1	-1e10	1	-1E+10	1	-1e10	1	-1e10	1	-1E+10	1	-1E+10	1	-1E+10	1
4902624	29	C	04/07/2025	11:41	-127.554	48.087	0	922.60	0	3.6318	0	34.3917	0	27.346	0	912.822	0	15.4	4	4.8	4	-1E+10	1	0.0514	4	0.000152	0	-1E+10	1	-1E+10	1	-1E+10	1
4902624	29	C	04/07/2025	11:41	-127.554	48.087	0	925.20	0	3.6310	0	34.3930	0	27.347	0	915.388	0	-1e10	1	-1e10	1	-1E+10	1	-1e10	1	-1e10	1	-1E+10	1	-1E+10	1	-1E+10	1
4902624	29	C	04/07/2025	11:41	-127.554	48.087	0	930.70	0	3.6200	0	34.3963	0	27.351	0	920.818	0	21.4	4	6.7	4	-1E+10	1	0.0584	4	0.000189	0	-1E+10	1	-1E+10	1	-1E+10	1
4902624	29	C	04/07/2025	11:41	-127.554	48.087	0	935.20	0	3.6110	0	34.3990	0	27.354	0	925.260	0	-1e10	1	-1e10	1	-1E+10	1	-1e10	1	-1e10	1	-1E+10	1	-1E+10	1	-1E+10	1
4902624	29	C	04/07/2025	11:41	-127.554	48.087	0	938.90	0	3.6019	0	34.4005	0	27.356	0	928.913	0	9.3	4	2.9	4	-1E+10	1	0.0579	4	0.000231	0	-1E+10	1	-1E+10	1	-1E+10	1
4902624	29	C	04/07/2025	11:41	-127.554	48.087	0	945.00	0	3.5870	0	34.4030	0	27.360	0	934.934	0	-1e10	1	-1e10	1	-1E+10	1	-1e10	1	-1e10	1	-1E+10	1	-1E+10	1	-1E+10	1
4902624	29	C	04/07/2025	11:41	-127.554	48.087	0	947.40	0	3.5807	0	34.4037	0	27.361	0	937.303	0	28.3	4	8.9	4	-1E+10	1	0.0443	4	0.000186	0	-1E+10	1	-1E+10	1	-1E+10	1
4902624	29	C	04/07/2025	11:41	-127.554	48.087	0	954.90	0	3.5610	0	34.4060	0	27.365	0	944.706	0	-1e10	1	-1e10	1	-1E+10	1	-1e10	1	-1e10	1	-1E+10	1	-1E+10	1	-1E+10	1
4902624	29	C	04/07/2025	11:41	-127.554	48.087	0	956.10	0	3.5590	0	34.4064	0	27.365	0	945.891	0	57.0	4	17.8	4	-1E+10	1	0.0587	4	0.000186	0	-1E+10	1	-1E+10	1	-1E+10	1
4902624	29	C	04/07/2025	11:41	-127.554	48.087	0	964.70	0	3.5445	0	34.4089	0	27.369	0	954.380	0	70.2	4	22.0	4	-1E+10	1	0.0657	4	0.000186	0	-1E+10	1	-1E+10	1	-1E+10	1
4902624	29	C	04/07/2025	11:41	-127.554	48.087	0	965.00	0	3.5440	0	34.4090	0	27.369	0	954.676	0	-1e10	1	-1e10	1	-1E+10	1	-1e10	1	-1e10	1	-1E+10	1	-1E+10	1	-1E+10	1
4902624	29	C	04/07/2025	11:41	-127.554	48.087	0	973.40	0	3.5082	0	34.4098	0	27.373	0	962.966	0	74.6	4	23.3	4	-1E+10	1	0.0650	4	0.000173	0	-1E+10	1	-1E+10	1	-1E+10	1
4902624	29	C	04/07/2025	11:41	-127.554	48.087	0	975.10	0	3.5010	0	34.4100	0	27.374	0	964.644	0	-1e10	1	-1e10	1	-1E+10	1	-1e10	1	-1e10	1	-1E+10	1	-1E+10	1	-1E+10	1
4902624	29	C	04/07/2025	11:41	-127.554	48.087	0	982.00	0	3.4801	0	34.4121	0	27.377	0	971.454	0	82.5	4	25.8	4	-1E+10	1	0.0511	4	0.000140	0	-1E+10	1	-1E+10	1	-1E+10	1
4902624	29	C	04/07/2025	11:41	-127.554	48.087	0	985.00	0	3.4710	0	34.4130	0	27.379	0	974.415	0	-1e10	1	-1e10	1	-1E+10	1	-1e10	1	-1e10	1	-1E+10	1	-1E+10	1	-1E+10	1
4902624	29	C	04/07/2025	11:41	-127.554	48.087	0	991.00	0	3.4602	0	34.4148	0	27.382	0	980.337	0	81.6	4	25.5	4	-1E+10	1	0.0513	4	0.000163	0	-1E+10	1	-1E+10	1	-1E+10	1
4902624	29	C	04/07/2025	11:41	-127.554	48.087	0	995.00	0	3.4530	0	34.4160	0	27.383	0	984.284	0	-1e10	1	-1e10	1	-1E+10	1	-1e10	1	-1e10	1	-1E+10	1	-1E+10	1	-1E+10	1
4902624	29	C	04/07/2025	11:41	-127.554	48.087	0	1007.50	0	3.4345	0	34.4202	0	27.388	0	996.620	0	82.6	4	25.8	4	-1E+10	1	0.0586	4	0.000209	0	-1E+10	1	-1E+10	1	-1E+10	1
4902624	29	C	04/07/2025	11:41	-127.554	48.087	0	1024.80	0	3.4090	0	34.4260	0	27.396	0	1013.691	0	-1e10	1	-1e10	1	-1E+10	1	-1e10	1	-1e10	1	-1E+10	1	-1E+10	1	-1E+10	1
4902624	29	C	04/07/2025	11:41	-127.554	48.087	0	1026.80	0	3.4045	0	34.4265	0	27.396	0	1015.665	0	85.0	4	26.5	4	-1E+10	1	0.0653	4	0.000185	0	-1E+10	1	-1E+10	1	-1E+10	1
4902624	29	C	04/07/2025	11:41	-127.554	48.087	0	1046.70	0	3.3593	0	34.4317	0	27.405	0	1035.300	0	81.9	4	25.5	4	-1E+10	1	0.0441	4	0.000185	0	-1E+10	1	-1E+10	1	-1E+10	1
4902624	29	C	04/07/2025	11:41	-127.554	48.087	0	1067.40	0	3.3123	0	34.4370	0	27.414	0	1055.722	0	83.9	4	26.1	4	-1E+10	1	0.0582	4	0.000174	0	-1E+10	1	-1E+10	1	-1E+10	1
4902624	29	C	04/07/2025	11:41	-127.554	48.087	0	1075.00	0	3.2950	0	34.4390	0	27.417	0	1063.220	0	-1e10	1	-1e10	1	-1E+10	1	-1e10	1	-1e10	1	-1E+10	1	-1E+10	1	-1E+10	1
4902624	29	C	04/07/2025	11:41	-127.554	48.087	0	1088.80	0	3.2674	0	34.4423	0	27.422	0	1076.833	0	92.5	4	28.8	4	-1E+10	1	0.0511	4	0.000196	0	-1E+10	1	-1E+10	1	-1E+10	1
4902624	29	C	04/07/2025	11:41	-127.554	48.087	0	1111.40	0	3.2222	0	34.4478	0	27.431	0	1099.126	0	93.5	4	29.0	4	-1E+10	1	0.0514	4	0.000174	0	-1E+10	1	-1E+10	1	-1E+10	1
4902624	29	C	04/07/2025	11:41	-127.554	48.087	0	1124.50	0	3.1960	0	34.4510	0	27.436	0	1112.046	0	-1e10	1	-1e10	1	-1E+10	1	-1e10	1	-1e10	1	-1E+10	1	-1E+10	1	-1E+10	1
4902624	29	C	04/07/2025	11:41	-127.554	48.087	0	1134.70	0	3.1728	0	34.4538	0	27.441	0	1122.106	0	106.1	4	32.9	4	-1E+10	1	0.0652	4	0.000207	0	-1E+10	1	-1E+10	1	-1E+10	1
4902624	29	C	04/07/2025	11:41	-127.554	48.087	0	1158.40	0	3.1188	0	34.4602	0	27.451	0	1145.479	0	100.5	4	31.1	4	-1E+10	1	0.0440	4	0.000173	0	-1E+10	1	-1E+10	1	-1E+10	1
4902624	29	C	04/07/2025	11:41	-127.554	48.087	0	1175.90	0	3.0790	0	34.4650	0	27.458	0	1162.735	0	-1e10	1	-1e10	1	-1E+10	1	-1e10	1	-1e10	1	-1E+10	1	-1E+10	1	-1E+10	1
4902624	29	C	04/07/2025	11:41	-127.554	48.087	0	1182.50	0	3.0668	0	34.4665	0	27.461	0	1169.243	0	91.5	4	28.3	4	-1E+10	1	0.0584	4	0.000184	0	-1E+10	1	-1E+10	1	-1E+10	1
4902624	29	C	04/07/2025	11:41	-127.554	48.087	0	1199.40	0	3.0354	0	34.4703	0	27.467	0	1185.906	0	84.1	4	26.0	4	-1E+10	1	0.0583	4	0.000183	0	-1E+10	1	-1E+10	1	-1E+10	1
4902624	29	C	04/07/2025	11:41	-127.554	48.087	0	1215.70	0	3.0052	0	34.4739	0	27.472	0	1201.976	0	85.4	4	26.4	4	-1E+10	1	0.0510	4	0.000137	0	-1E+10	1	-1E+10	1	-1E+10	1
4902624	29	C	04/07/2025	11:41	-127.554	48.087	0	1225.00	0	2.9880	0	34.4760	0	27.476	0	1211.144	0	-1e10	1	-1e10	1	-1E+10	1	-1e10	1	-1e10	1	-1E+10	1	-1E+10	1	-1E+10	1
4902624	29	C	04/07/2025	11:41	-127.554	48.087	0	1232.10	0	2.9727	0	34.4777	0	27.478	0	1218.143	0	72.9	4	22.5	4	-1E+10	1	0.0441	4	0.000160	0	-1E+10	1	-1E+10	1	-1E+10	1
4902624	29	C	04/07/2025	11:41	-127.554	48.087	0	1248.50	0	2.9373	0	34.4817	0	27.485	0	1234.309	0	73.7	4	22.7	4	-1E+10	1	0.0584	4	0.000160	0	-1E+10	1	-1E+10	1	-1E+10	1
4902624	29	C	04/07/2025	11:41	-127.554	48.087	0	1265.50	0	2.9006	0	34.4858	0	27.492	0	1251.066	0	76.9	4	23.7	4	-1E+10	1	0.0586	4	0.000182	0	-1E+10	1	-1E+10	1	-1E+10	1
4902624	29	C	04/07/2025	11:41	-127.554	48.087	0	1274.60	0	2.8810	0	34.4880	0	27.495	0	1260.034	0	-1e10	1	-1e10	1	-1E+10	1	-1e10	1	-1e10	1	-1E+10	1	-1E+10	1	-1E+10	1
4902624	29	C	04/07/2025	11:41	-127.554	48.087	0	1282.80	0	2.8647	0	34.4896	0	27.498	0	1268.116	0	89.2	4	27.5	4	-1E+10	1	0.0657	4	0.000136	0	-1E+10	1	-1E+10	1	-1E+10	1
4902624	29	C	04/07/2025	11:41	-127.554	48.087	0	1300.80	0	2.8290	0	34.4932	0	27.504	0	1285.855	0	97.2	4	29.9	4	-1E+10	1	0.0656	4	0.000159	0	-1E+10	1	-1E+10	1	-1E+10	1
4902624	29	C	04/07/2025	11:41	-127.554	48.087	0	1319.60	0	2.7917	0	34.4969	0	27.510	0	1304.381	0	98.4	4	30.3	4	-1E+10	1	0.0584	4	0.000136	0	-1E+10	1	-1E+10	1	-1E+10	1
4902624	29	C	04/07/2025	11:41	-127.554	48.087	0	1325.00	0	2.7810	0	34.4980	0	27.512	0	1309.702	0	-1e10	1	-1e10	1	-1E+10	1	-1e10	1	-1e10	1	-1E+10	1	-1E+10	1	-1E+10	1
4902624	29	C	04/07/2025	11:41	-127.554	48.087	0	1338.80	0	2.7541	0	34.5013	0	27.517	0	1323.299	0	97.6	4	30.0	4	-1E+10	1	0.0583	4	0.000136	0	-1E+10	1	-1E+10	1	-1E+10	1
4902624	29	C	04/07/2025	11:41	-127.554	48.087	0	1358.50	0	2.7157	0	34.5060	0	27.524	0	1342.709	0	99.4	4	30.5	4	-1E+10	1	0.0511	4	0.000182	0	-1E+10	1	-1E+10	1	-1E+10	1
4902624	29	C	04/07/2025	11:41	-127.554	48.087	0	1375.30	0	2.6830	0	34.5100	0	27.531	0	1359.259	0	-1e10	1	-1e10	1	-1E+10	1	-1e10	1	-1e10	1	-1E+10	1	-1E+10	1	-1E+10	1
4902624	29	C	04/07/2025	11:41	-127.554	48.087	0	1379.20	0	2.6756	0	34.5109	0	27.532	0	1363.101	0	103.4	4	31.7	4	-1E+10	1	0.0512	4	0.000170	0	-1E+10	1	-1E+10	1	-1E+10	1
4902624	29	C	04/07/2025	11:41	-127.554	48.087	0	1400.60	0	2.6352	0	34.5161	0	27.540	0	1384.181	0	114.9	4	35.2	4	-1E+10	1	0.0584	4	0.000171	0	-1E+10	1	-1E+10	1	-1E+10	1
4902624	29	C	04/07/2025	11:41	-127.554	48.087	0	1423.00	0	2.5930	0	34.5215	0	27.548	0	1406.244	0	86.3	4	26.4	4	-1E+10	1	0.0584	4	0.000193	0	-1E+10	1	-1E+10	1	-1E+10	1
4902624	29	C	04/07/2025	11:41	-127.554	48.087	0	1425.10	0	2.5890	0	34.5220	0	27.548	0	1408.312	0	-1e10	1	-1e10	1	-1E+10	1	-1e10	1	-1e10	1	-1E+10	1	-1E+10	1	-1E+10	1
4902624	29	C	04/07/2025	11:41	-127.554	48.087	0	1440.80	0	2.5641	0	34.5249	0	27.553	0	1423.774	0	104.9	4	32.1	4	-1E+10	1	0.0585	4	0.000170	0	-1E+10	1	-1E+10	1	-1E+10	1
4902624	29	C	04/07/2025	11:41	-127.554	48.087	0	1457.30	0	2.5380	0	34.5279	0	27.558	0	1440.023	0	107.0	4	32.7	4	-1E+10	1	0.0655	4	0.000170	0	-1E+10	1	-1E+10	1	-1E+10	1
4902624	29	C	04/07/2025	11:41	-127.554	48.087	0	1474.30	0	2.5110	0	34.5310	0	27.562	0	1456.763	0	-1e10	1	-1e10	1	-1E+10	1	-1e10	1	-1e10	1	-1E+10	1	-1E+10	1	-1E+10	1
4902624	29	C	04/07/2025	11:41	-127.554	48.087	0	1475.10	0	2.5099	0	34.5311	0	27.563	0	1457.551	0	91.6	4	28.0	4	-1E+10	1	0.0582	4	0.000181	0	-1E+10	1	-1E+10	1	-1E+10	1
4902624	29	C	04/07/2025	11:41	-127.554	48.087	0	1494.20	0	2.4839	0	34.5341	0	27.567	0	1476.357	0	93.9	4	28.7	4	-1E+10	1	0.0514	4	0.000192	0	-1E+10	1	-1E+10	1	-1E+10	1
4902624	29	C	04/07/2025	11:41	-127.554	48.087	0	1514.80	0	2.4559	0	34.5374	0	27.572	0	1496.638	0	94.2	4	28.7	4	-1E+10	1	0.0657	4	0.000181	0	-1E+10	1	-1E+10	1	-1E+10	1
4902624	29	C	04/07/2025	11:41	-127.554	48.087	0	1525.00	0	2.4420	0	34.5390	0	27.575	0	1506.679	0	-1e10	1	-1e10	1	-1E+10	1	-1e10	1	-1e10	1	-1E+10	1	-1E+10	1	-1E+10	1
4902624	29	C	04/07/2025	11:41	-127.554	48.087	0	1536.50	0	2.4256	0	34.5408	0	27.578	0	1518.000	0	95.1	4	29.0	4	-1E+10	1	0.0656	4	0.000183	0	-1E+10	1	-1E+10	1	-1E+10	1
4902624	29	C	04/07/2025	11:41	-127.554	48.087	0	1559.30	0	2.3930	0	34.5444	0	27.584	0	1540.442	0	96.9	4	29.5	4	-1E+10	1	0.0582	4	0.000343	0	-1E+10	1	-1E+10	1	-1E+10	1
4902624	29	C	04/07/2025	11:41	-127.554	48.087	0	1575.40	0	2.3700	0	34.5470	0	27.588	0	1556.288	0	-1e10	1	-1e10	1	-1E+10	1	-1e10	1	-1e10	1	-1E+10	1	-1E+10	1	-1E+10	1
4902624	29	C	04/07/2025	11:41	-127.554	48.087	0	1582.90	0	2.3604	0	34.5479	0	27.589	0	1563.670	0	96.6	4	29.4	4	-1E+10	1	0.0514	4	0.000249	0	-1E+10	1	-1E+10	1	-1E+10	1
4902624	29	C	04/07/2025	11:41	-127.554	48.087	0	1604.60	0	2.3325	0	34.5505	0	27.594	0	1585.025	0	94.1	4	28.6	4	-1E+10	1	0.0654	4	0.000180	0	-1E+10	1	-1E+10	1	-1E+10	1
4902624	29	C	04/07/2025	11:41	-127.554	48.087	0	1620.50	0	2.3122	0	34.5524	0	27.597	0	1600.671	0	94.7	4	28.8	4	-1E+10	1	0.0511	4	0.000179	0	-1E+10	1	-1E+10	1	-1E+10	1
4902624	29	C	04/07/2025	11:41	-127.554	48.087	0	1625.30	0	2.3060	0	34.5530	0	27.598	0	1605.394	0	-1e10	1	-1e10	1	-1E+10	1	-1e10	1	-1e10	1	-1E+10	1	-1E+10	1	-1E+10	1
4902624	29	C	04/07/2025	11:41	-127.554	48.087	0	1636.90	0	2.2936	0	34.5544	0	27.600	0	1616.808	0	97.6	4	29.6	4	-1E+10	1	0.0511	4	0.000157	0	-1E+10	1	-1E+10	1	-1E+10	1
4902624	29	C	04/07/2025	11:41	-127.554	48.087	0	1653.80	0	2.2754	0	34.5565	0	27.603	0	1633.435	0	104.5	4	31.7	4	-1E+10	1	0.0510	4	0.000202	0	-1E+10	1	-1E+10	1	-1E+10	1
4902624	29	C	04/07/2025	11:41	-127.554	48.087	0	1670.80	0	2.2572	0	34.5585	0	27.606	0	1650.160	0	114.2	4	34.6	4	-1E+10	1	0.0440	4	0.000167	0	-1E+10	1	-1E+10	1	-1E+10	1
4902624	29	C	04/07/2025	11:41	-127.554	48.087	0	1674.70	0	2.2530	0	34.5590	0	27.607	0	1653.996	0	-1e10	1	-1e10	1	-1E+10	1	-1e10	1	-1e10	1	-1E+10	1	-1E+10	1	-1E+10	1
4902624	29	C	04/07/2025	11:41	-127.554	48.087	0	1687.80	0	2.2372	0	34.5611	0	27.610	0	1666.883	0	123.2	4	37.3	4	-1E+10	1	0.0509	4	0.000145	0	-1E+10	1	-1E+10	1	-1E+10	1
4902624	29	C	04/07/2025	11:41	-127.554	48.087	0	1705.20	0	2.2163	0	34.5639	0	27.614	0	1683.998	0	126.0	4	38.2	4	-1E+10	1	0.0439	4	0.000178	0	-1E+10	1	-1E+10	1	-1E+10	1
4902624	29	C	04/07/2025	11:41	-127.554	48.087	0	1723.20	0	2.1947	0	34.5668	0	27.618	0	1701.702	0	126.8	4	38.4	4	-1E+10	1	0.0511	4	0.000156	0	-1E+10	1	-1E+10	1	-1E+10	1
4902624	29	C	04/07/2025	11:41	-127.554	48.087	0	1724.60	0	2.1930	0	34.5670	0	27.619	0	1703.079	0	-1e10	1	-1e10	1	-1E+10	1	-1e10	1	-1e10	1	-1E+10	1	-1E+10	1	-1E+10	1
4902624	29	C	04/07/2025	11:41	-127.554	48.087	0	1742.00	0	2.1767	0	34.5698	0	27.622	0	1720.191	0	128.8	4	39.0	4	-1E+10	1	0.0510	4	0.000203	0	-1E+10	1	-1E+10	1	-1E+10	1
4902624	29	C	04/07/2025	11:41	-127.554	48.087	0	1761.60	0	2.1583	0	34.5729	0	27.626	0	1739.466	0	130.3	4	39.4	4	-1E+10	1	0.0441	4	0.000258	0	-1E+10	1	-1E+10	1	-1E+10	1
4902624	29	C	04/07/2025	11:41	-127.554	48.087	0	1774.70	0	2.1460	0	34.5750	0	27.629	0	1752.347	0	-1e10	1	-1e10	1	-1E+10	1	-1e10	1	-1e10	1	-1E+10	1	-1E+10	1	-1E+10	1
4902624	29	C	04/07/2025	11:41	-127.554	48.087	0	1782.00	0	2.1377	0	34.5759	0	27.631	0	1759.525	0	131.6	4	39.8	4	-1E+10	1	0.0581	4	0.000143	0	-1E+10	1	-1E+10	1	-1E+10	1
4902624	29	C	04/07/2025	11:41	-127.554	48.087	0	1802.90	0	2.1141	0	34.5784	0	27.634	0	1780.074	0	133.1	4	40.3	4	-1E+10	1	0.0436	4	0.000177	0	-1E+10	1	-1E+10	1	-1E+10	1
4902624	29	C	04/07/2025	11:41	-127.554	48.087	0	1823.90	0	2.0904	0	34.5809	0	27.638	0	1800.719	0	134.0	4	40.5	4	-1E+10	1	0.0366	4	0.000142	0	-1E+10	1	-1E+10	1	-1E+10	1
4902624	29	C	04/07/2025	11:41	-127.554	48.087	0	1825.10	0	2.0890	0	34.5810	0	27.639	0	1801.899	0	-1e10	1	-1e10	1	-1E+10	1	-1e10	1	-1e10	1	-1E+10	1	-1E+10	1	-1E+10	1
4902624	29	C	04/07/2025	11:41	-127.554	48.087	0	1845.40	0	2.0687	0	34.5830	0	27.642	0	1821.854	0	135.5	4	40.9	4	-1E+10	1	0.0438	4	0.000142	0	-1E+10	1	-1E+10	1	-1E+10	1
4902624	29	C	04/07/2025	11:41	-127.554	48.087	0	1867.10	0	2.0471	0	34.5852	0	27.646	0	1843.183	0	136.2	4	41.1	4	-1E+10	1	0.0439	4	0.000155	0	-1E+10	1	-1E+10	1	-1E+10	1
4902624	29	C	04/07/2025	11:41	-127.554	48.087	0	1875.20	0	2.0390	0	34.5860	0	27.647	0	1851.144	0	-1e10	1	-1e10	1	-1E+10	1	-1e10	1	-1e10	1	-1E+10	1	-1E+10	1	-1E+10	1
4902624	29	C	04/07/2025	11:41	-127.554	48.087	0	1889.40	0	2.0263	0	34.5880	0	27.650	0	1865.099	0	137.3	4	41.4	4	-1E+10	1	0.0508	4	0.000245	0	-1E+10	1	-1E+10	1	-1E+10	1
4902624	29	C	04/07/2025	11:41	-127.554	48.087	0	1911.80	0	2.0064	0	34.5911	0	27.654	0	1887.112	0	138.0	4	41.6	4	-1E+10	1	0.0368	4	0.000141	0	-1E+10	1	-1E+10	1	-1E+10	1
4902624	29	C	04/07/2025	11:41	-127.554	48.087	0	1925.70	0	1.9940	0	34.5930	0	27.656	0	1900.770	0	-1e10	1	-1e10	1	-1E+10	1	-1e10	1	-1e10	1	-1E+10	1	-1E+10	1	-1E+10	1
4902624	29	C	04/07/2025	11:41	-127.554	48.087	0	1927.50	0	1.9925	0	34.5932	0	27.657	0	1902.539	0	137.4	4	41.4	4	-1E+10	1	0.0511	4	0.000118	0	-1E+10	1	-1E+10	1	-1E+10	1
4902624	29	C	04/07/2025	11:41	-127.554	48.087	0	1943.60	0	1.9794	0	34.5950	0	27.659	0	1918.358	0	134.6	4	40.6	4	-1E+10	1	0.0511	4	0.000141	0	-1E+10	1	-1E+10	1	-1E+10	1
4902624	29	C	04/07/2025	11:41	-127.554	48.087	0	1960.50	0	1.9657	0	34.5968	0	27.662	0	1934.962	0	128.0	4	38.6	4	-1E+10	1	0.0509	4	0.000119	0	-1E+10	1	-1E+10	1	-1E+10	1
4902624	29	C	04/07/2025	11:41	-127.554	48.087	0	1971.20	0	1.9570	0	34.5980	0	27.663	0	1945.474	0	-1e10	1	-1e10	1	-1E+10	1	-1e10	1	-1e10	1	-1E+10	1	-1E+10	1	-1E+10	1
4902624	29	C	04/07/2025	11:41	-127.554	48.087	0	1978.00	0	-1e10	1	-1e10	1	-1e10	1	1952.154	0	124.3	4	-1e10	4	-1E+10	1	0.0438	4	0.000170	0	-1E+10	1	-1E+10	1	-1E+10	1
4902624	29	C	04/07/2025	11:41	-127.554	48.087	0	1992.80	0	-1e10	1	-1e10	1	-1e10	1	1966.692	0	119.0	4	-1e10	4	-1E+10	1	0.0438	4	0.000135	0	-1E+10	1	-1E+10	1	-1E+10	1
4902624	29	C	04/07/2025	11:41	-127.554	48.087	0																										
4902624	30	C	04/17/2025	06:33	-127.650	48.305	0	0.40	0	9.4780	0	32.2700	0	24.906	0	0.397	0	257.2	4	90.8	4	-1E+10	1	0.6789	4	0.000880	0	-1E+10	1	-1E+10	1	-1E+10	1
4902624	30	C	04/17/2025	06:33	-127.650	48.305	0	0.50	0	9.4780	0	32.2700	0	24.906	0	0.496	0	-1e10	1	-1e10	1	-1E+10	1	-1e10	1	-1e10	1	-1E+10	1	-1E+10	1	-1E+10	1
4902624	30	C	04/17/2025	06:33	-127.650	48.305	0	0.60	0	9.4782	0	32.2701	0	24.906	0	0.595	0	263.5	4	93.0	4	-1E+10	1	0.7008	4	0.000933	0	-1E+10	1	-1E+10	1	-1E+10	1
4902624	30	C	04/17/2025	06:33	-127.650	48.305	0	0.80	0	9.4785	0	32.2703	0	24.906	0	0.793	0	262.9	4	92.8	4	-1E+10	1	0.7008	4	0.000910	0	-1E+10	1	-1E+10	1	-1E+10	1
4902624	30	C	04/17/2025	06:33	-127.650	48.305	0	1.00	0	9.4789	0	32.2705	0	24.906	0	0.992	0	-1e10	1	-1e10	1	-1E+10	1	0.7154	4	0.000898	0	-1E+10	1	-1E+10	1	-1E+10	1
4902624	30	C	04/17/2025	06:33	-127.650	48.305	0	1.10	0	9.4791	0	32.2705	0	24.906	0	1.091	0	-1e10	1	-1e10	1	-1E+10	1	0.6862	4	0.000898	0	-1E+10	1	-1E+10	1	-1E+10	1
4902624	30	C	04/17/2025	06:33	-127.650	48.305	0	1.50	0	9.4798	0	32.2709	0	24.907	0	1.487	0	-1e10	1	-1e10	1	-1E+10	1	0.6935	4	0.000898	0	-1E+10	1	-1E+10	1	-1E+10	1
4902624	30	C	04/17/2025	06:33	-127.650	48.305	0	1.60	0	9.4800	0	32.2710	0	24.907	0	1.587	0	-1e10	1	-1e10	1	-1E+10	1	-1e10	1	-1e10	1	-1E+10	1	-1E+10	1	-1E+10	1
4902624	30	C	04/17/2025	06:33	-127.650	48.305	0	1.90	0	9.4800	0	32.2710	0	24.907	0	1.884	0	-1e10	1	-1e10	1	-1E+10	1	0.7154	4	0.000921	0	-1E+10	1	-1E+10	1	-1E+10	1
4902624	30	C	04/17/2025	06:33	-127.650	48.305	0	2.10	0	9.4800	0	32.2710	0	24.907	0	2.082	0	262.7	4	92.7	4	-1E+10	1	0.7519	4	0.000886	0	-1E+10	1	-1E+10	1	-1E+10	1
4902624	30	C	04/17/2025	06:33	-127.650	48.305	0	2.30	0	9.4800	0	32.2710	0	24.907	0	2.281	0	-1e10	1	-1e10	1	-1E+10	1	0.6862	4	0.001051	0	-1E+10	1	-1E+10	1	-1E+10	1
4902624	30	C	04/17/2025	06:33	-127.650	48.305	0	2.40	0	9.4800	0	32.2710	0	24.907	0	2.380	0	-1e10	1	-1e10	1	-1E+10	1	-1e10	1	-1e10	1	-1E+10	1	-1E+10	1	-1E+10	1
4902624	30	C	04/17/2025	06:33	-127.650	48.305	0	2.70	0	9.4833	0	32.2710	0	24.906	0	2.677	0	262.6	4	92.7	4	-1E+10	1	0.7118	4	0.001039	0	-1E+10	1	-1E+10	1	-1E+10	1
4902624	30	C	04/17/2025	06:33	-127.650	48.305	0	2.90	0	9.4855	0	32.2710	0	24.906	0	2.876	0	-1e10	1	-1e10	1	-1E+10	1	0.7373	4	0.001062	0	-1E+10	1	-1E+10	1	-1E+10	1
4902624	30	C	04/17/2025	06:33	-127.650	48.305	0	3.10	0	9.4876	0	32.2710	0	24.905	0	3.074	0	-1e10	1	-1e10	1	-1E+10	1	0.7227	4	0.001367	0	-1E+10	1	-1E+10	1	-1E+10	1
4902624	30	C	04/17/2025	06:33	-127.650	48.305	0	3.20	0	9.4887	0	32.2710	0	24.905	0	3.173	0	-1e10	1	-1e10	1	-1E+10	1	0.7008	4	0.000945	0	-1E+10	1	-1E+10	1	-1E+10	1
4902624	30	C	04/17/2025	06:33	-127.650	48.305	0	3.40	0	9.4909	0	32.2710	0	24.905	0	3.371	0	262.4	4	92.7	4	-1E+10	1	0.6935	4	0.001062	0	-1E+10	1	-1E+10	1	-1E+10	1
4902624	30	C	04/17/2025	06:33	-127.650	48.305	0	3.50	0	9.4920	0	32.2710	0	24.905	0	3.471	0	-1e10	1	-1e10	1	-1E+10	1	-1e10	1	-1e10	1	-1E+10	1	-1E+10	1	-1E+10	1
4902624	30	C	04/17/2025	06:33	-127.650	48.305	0	3.80	0	9.4929	0	32.2710	0	24.905	0	3.768	0	-1e10	1	-1e10	1	-1E+10	1	0.7227	4	0.001086	0	-1E+10	1	-1E+10	1	-1E+10	1
4902624	30	C	04/17/2025	06:33	-127.650	48.305	0	4.00	0	9.4935	0	32.2710	0	24.905	0	3.966	0	-1e10	1	-1e10	1	-1E+10	1	0.6862	4	0.001039	0	-1E+10	1	-1E+10	1	-1E+10	1
4902624	30	C	04/17/2025	06:33	-127.650	48.305	0	4.20	0	9.4941	0	32.2710	0	24.904	0	4.165	0	-1e10	1	-1e10	1	-1E+10	1	0.7081	4	0.000945	0	-1E+10	1	-1E+10	1	-1E+10	1
4902624	30	C	04/17/2025	06:33	-127.650	48.305	0	4.40	0	9.4947	0	32.2710	0	24.904	0	4.363	0	262.2	4	92.6	4	-1E+10	1	0.7081	4	0.001203	0	-1E+10	1	-1E+10	1	-1E+10	1
4902624	30	C	04/17/2025	06:33	-127.650	48.305	0	4.50	0	9.4950	0	32.2710	0	24.904	0	4.462	0	-1e10	1	-1e10	1	-1E+10	1	-1e10	1	-1e10	1	-1E+10	1	-1E+10	1	-1E+10	1
4902624	30	C	04/17/2025	06:33	-127.650	48.305	0	4.60	0	9.4951	0	32.2709	0	24.904	0	4.561	0	-1e10	1	-1e10	1	-1E+10	1	0.6935	4	0.000910	0	-1E+10	1	-1E+10	1	-1E+10	1
4902624	30	C	04/17/2025	06:33	-127.650	48.305	0	4.90	0	9.4954	0	32.2706	0	24.904	0	4.859	0	-1e10	1	-1e10	1	-1E+10	1	0.7300	4	0.000957	0	-1E+10	1	-1E+10	1	-1E+10	1
4902624	30	C	04/17/2025	06:33	-127.650	48.305	0	5.10	0	9.4956	0	32.2704	0	24.904	0	5.057	0	-1e10	1	-1e10	1	-1E+10	1	0.7227	4	0.000957	0	-1E+10	1	-1E+10	1	-1E+10	1
4902624	30	C	04/17/2025	06:33	-127.650	48.305	0	5.50	0	9.4960	0	32.2700	0	24.903	0	5.454	0	-1e10	1	-1e10	1	-1E+10	1	-1e10	1	-1e10	1	-1E+10	1	-1E+10	1	-1E+10	1
4902624	30	C	04/17/2025	06:33	-127.650	48.305	0	5.60	0	9.4963	0	32.2700	0	24.903	0	5.553	0	262.0	4	92.6	4	-1E+10	1	0.7154	4	0.001027	0	-1E+10	1	-1E+10	1	-1E+10	1
4902624	30	C	04/17/2025	06:33	-127.650	48.305	0	5.80	0	9.4970	0	32.2700	0	24.903	0	5.751	0	-1e10	1	-1e10	1	-1E+10	1	0.7373	4	0.001414	0	-1E+10	1	-1E+10	1	-1E+10	1
4902624	30	C	04/17/2025	06:33	-127.650	48.305	0	6.10	0	9.4980	0	32.2700	0	24.903	0	6.049	0	-1e10	1	-1e10	1	-1E+10	1	0.7008	4	0.000980	0	-1E+10	1	-1E+10	1	-1E+10	1
4902624	30	C	04/17/2025	06:33	-127.650	48.305	0	6.30	0	9.4987	0	32.2700	0	24.903	0	6.247	0	-1e10	1	-1e10	1	-1E+10	1	0.7154	4	0.001133	0	-1E+10	1	-1E+10	1	-1E+10	1
4902624	30	C	04/17/2025	06:33	-127.650	48.305	0	6.40	0	9.4990	0	32.2700	0	24.903	0	6.346	0	-1e10	1	-1e10	1	-1E+10	1	-1e10	1	-1e10	1	-1E+10	1	-1E+10	1	-1E+10	1
4902624	30	C	04/17/2025	06:33	-127.650	48.305	0	6.50	0	9.4991	0	32.2700	0	24.903	0	6.445	0	-1e10	1	-1e10	1	-1E+10	1	0.7227	4	0.001086	0	-1E+10	1	-1E+10	1	-1E+10	1
4902624	30	C	04/17/2025	06:33	-127.650	48.305	0	6.80	0	9.4994	0	32.2700	0	24.903	0	6.743	0	261.8	4	92.5	4	-1E+10	1	0.7008	4	0.000968	0	-1E+10	1	-1E+10	1	-1E+10	1
4902624	30	C	04/17/2025	06:33	-127.650	48.305	0	7.10	0	9.4997	0	32.2700	0	24.903	0	7.040	0	-1e10	1	-1e10	1	-1E+10	1	0.7081	4	0.000910	0	-1E+10	1	-1E+10	1	-1E+10	1
4902624	30	C	04/17/2025	06:33	-127.650	48.305	0	7.40	0	9.5000	0	32.2700	0	24.903	0	7.338	0	-1e10	1	-1e10	1	-1E+10	1	-1e10	1	-1e10	1	-1E+10	1	-1E+10	1	-1E+10	1
4902624	30	C	04/17/2025	06:33	-127.650	48.305	0	7.60	0	9.4998	0	32.2700	0	24.903	0	7.536	0	-1e10	1	-1e10	1	-1E+10	1	0.7008	4	0.001109	0	-1E+10	1	-1E+10	1	-1E+10	1
4902624	30	C	04/17/2025	06:33	-127.650	48.305	0	7.80	0	9.4996	0	32.2700	0	24.903	0	7.734	0	-1e10	1	-1e10	1	-1E+10	1	0.7227	4	0.000968	0	-1E+10	1	-1E+10	1	-1E+10	1
4902624	30	C	04/17/2025	06:33	-127.650	48.305	0	8.10	0	9.4993	0	32.2700	0	24.903	0	8.032	0	261.7	4	92.4	4	-1E+10	1	0.7665	4	0.001062	0	-1E+10	1	-1E+10	1	-1E+10	1
4902624	30	C	04/17/2025	06:33	-127.650	48.305	0	8.30	0	9.4991	0	32.2700	0	24.903	0	8.230	0	-1e10	1	-1e10	1	-1E+10	1	0.7081	4	0.001015	0	-1E+10	1	-1E+10	1	-1E+10	1
4902624	30	C	04/17/2025	06:33	-127.650	48.305	0	8.40	0	9.4990	0	32.2700	0	24.903	0	8.329	0	-1e10	1	-1e10	1	-1E+10	1	-1e10	1	-1e10	1	-1E+10	1	-1E+10	1	-1E+10	1
4902624	30	C	04/17/2025	06:33	-127.650	48.305	0	8.50	0	9.4989	0	32.2701	0	24.903	0	8.428	0	-1e10	1	-1e10	1	-1E+10	1	0.7154	4	0.001531	0	-1E+10	1	-1E+10	1	-1E+10	1
4902624	30	C	04/17/2025	06:33	-127.650	48.305	0	8.80	0	9.4986	0	32.2704	0	24.903	0	8.726	0	-1e10	1	-1e10	1	-1E+10	1	0.7081	4	0.000886	0	-1E+10	1	-1E+10	1	-1E+10	1
4902624	30	C	04/17/2025	06:33	-127.650	48.305	0	9.00	0	9.4985	0	32.2705	0	24.903	0	8.924	0	-1e10	1	-1e10	1	-1E+10	1	0.7154	4	0.000957	0	-1E+10	1	-1E+10	1	-1E+10	1
4902624	30	C	04/17/2025	06:33	-127.650	48.305	0	9.40	0	9.4981	0	32.2709	0	24.904	0	9.321	0	261.6	4	92.4	4	-1E+10	1	0.7300	4	0.000898	0	-1E+10	1	-1E+10	1	-1E+10	1
4902624	30	C	04/17/2025	06:33	-127.650	48.305	0	9.50	0	9.4980	0	32.2710	0	24.904	0	9.420	0	-1e10	1	-1e10	1	-1E+10	1	-1e10	1	-1e10	1	-1E+10	1	-1E+10	1	-1E+10	1
4902624	30	C	04/17/2025	06:33	-127.650	48.305	0	9.80	0	9.4982	0	32.2708	0	24.904	0	9.717	0	-1e10	1	-1e10	1	-1E+10	1	0.7373	4	0.000980	0	-1E+10	1	-1E+10	1	-1E+10	1
4902624	30	C	04/17/2025	06:33	-127.650	48.305	0	10.60	0	9.4987	0	32.2703	0	24.903	0	10.510	0	261.5	4	92.4	4	-1E+10	1	0.7373	4	0.003573	0	-1E+10	1	-1E+10	1	-1E+10	1
4902624	30	C	04/17/2025	06:33	-127.650	48.305	0	11.00	0	9.4990	0	32.2700	0	24.903	0	10.907	0	-1e10	1	-1e10	1	-1E+10	1	-1e10	1	-1e10	1	-1E+10	1	-1E+10	1	-1E+10	1
4902624	30	C	04/17/2025	06:33	-127.650	48.305	0	12.00	0	9.4995	0	32.2705	0	24.903	0	11.899	0	261.3	4	92.3	4	-1E+10	1	0.7373	4	0.001212	0	-1E+10	1	-1E+10	1	-1E+10	1
4902624	30	C	04/17/2025	06:33	-127.650	48.305	0	13.00	0	9.5000	0	32.2710	0	24.904	0	12.890	0	-1e10	1	-1e10	1	-1E+10	1	-1e10	1	-1e10	1	-1E+10	1	-1E+10	1	-1E+10	1
4902624	30	C	04/17/2025	06:33	-127.650	48.305	0	13.30	0	9.5001	0	32.2710	0	24.904	0	13.188	0	261.2	4	92.3	4	-1E+10	1	0.7558	4	0.001063	0	-1E+10	1	-1E+10	1	-1E+10	1
4902624	30	C	04/17/2025	06:33	-127.650	48.305	0	14.60	0	9.5008	0	32.2710	0	24.904	0	14.477	0	261.1	4	92.2	4	-1E+10	1	0.7542	4	0.001170	0	-1E+10	1	-1E+10	1	-1E+10	1
4902624	30	C	04/17/2025	06:33	-127.650	48.305	0	15.00	0	9.5010	0	32.2710	0	24.904	0	14.873	0	-1e10	1	-1e10	1	-1E+10	1	-1e10	1	-1e10	1	-1E+10	1	-1E+10	1	-1E+10	1
4902624	30	C	04/17/2025	06:33	-127.650	48.305	0	15.90	0	9.5010	0	32.2705	0	24.903	0	15.766	0	261.1	4	92.2	4	-1E+10	1	0.7422	4	0.001000	0	-1E+10	1	-1E+10	1	-1E+10	1
4902624	30	C	04/17/2025	06:33	-127.650	48.305	0	17.00	0	9.5010	0	32.2700	0	24.903	0	16.856	0	-1e10	1	-1e10	1	-1E+10	1	-1e10	1	-1e10	1	-1E+10	1	-1E+10	1	-1E+10	1
4902624	30	C	04/17/2025	06:33	-127.650	48.305	0	17.10	0	9.5009	0	32.2700	0	24.903	0	16.955	0	260.9	4	92.2	4	-1E+10	1	0.7227	4	0.001047	0	-1E+10	1	-1E+10	1	-1E+10	1
4902624	30	C	04/17/2025	06:33	-127.650	48.305	0	18.20	0	9.4999	0	32.2706	0	24.903	0	18.046	0	260.7	4	92.1	4	-1E+10	1	0.7120	4	0.000995	0	-1E+10	1	-1E+10	1	-1E+10	1
4902624	30	C	04/17/2025	06:33	-127.650	48.305	0	19.10	0	9.4990	0	32.2710	0	24.904	0	18.938	0	-1e10	1	-1e10	1	-1E+10	1	-1e10	1	-1e10	1	-1E+10	1	-1E+10	1	-1E+10	1
4902624	30	C	04/17/2025	06:33	-127.650	48.305	0	19.40	0	9.4988	0	32.2710	0	24.904	0	19.236	0	260.5	4	92.0	4	-1E+10	1	0.7256	4	0.000851	0	-1E+10	1	-1E+10	1	-1E+10	1
4902624	30	C	04/17/2025	06:33	-127.650	48.305	0	20.70	0	9.4982	0	32.2710	0	24.904	0	20.525	0	260.4	4	92.0	4	-1E+10	1	0.7698	4	0.000866	0	-1E+10	1	-1E+10	1	-1E+10	1
4902624	30	C	04/17/2025	06:33	-127.650	48.305	0	21.10	0	9.4980	0	32.2710	0	24.904	0	20.921	0	-1e10	1	-1e10	1	-1E+10	1	-1e10	1	-1e10	1	-1E+10	1	-1E+10	1	-1E+10	1
4902624	30	C	04/17/2025	06:33	-127.650	48.305	0	21.90	0	9.4984	0	32.2706	0	24.904	0	21.714	0	260.2	4	91.9	4	-1E+10	1	0.7644	4	0.000923	0	-1E+10	1	-1E+10	1	-1E+10	1
4902624	30	C	04/17/2025	06:33	-127.650	48.305	0	23.00	0	9.4990	0	32.2700	0	24.903	0	22.805	0	260.2	4	91.9	4	-1E+10	1	0.8103	4	0.000886	0	-1E+10	1	-1E+10	1	-1E+10	1
4902624	30	C	04/17/2025	06:33	-127.650	48.305	0	24.10	0	9.4995	0	32.2705	0	24.904	0	23.896	0	259.9	4	91.8	4	-1E+10	1	0.7671	4	0.003269	0	-1E+10	1	-1E+10	1	-1E+10	1
4902624	30	C	04/17/2025	06:33	-127.650	48.305	0	25.00	0	9.5000	0	32.2710	0	24.904	0	24.788	0	-1e10	1	-1e10	1	-1E+10	1	-1e10	1	-1e10	1	-1E+10	1	-1E+10	1	-1E+10	1
4902624	30	C	04/17/2025	06:33	-127.650	48.305	0	25.20	0	9.5004	0	32.2710	0	24.904	0	24.986	0	259.9	4	91.8	4	-1E+10	1	0.7592	4	0.001523	0	-1E+10	1	-1E+10	1	-1E+10	1
4902624	30	C	04/17/2025	06:33	-127.650	48.305	0	26.30	0	9.5026	0	32.2710	0	24.903	0	26.077	0	259.7	4	91.7	4	-1E+10	1	0.7794	4	0.000909	0	-1E+10	1	-1E+10	1	-1E+10	1
4902624	30	C	04/17/2025	06:33	-127.650	48.305	0	27.00	0	9.5040	0	32.2710	0	24.903	0	26.771	0	-1e10	1	-1e10	1	-1E+10	1	-1e10	1	-1e10	1	-1E+10	1	-1E+10	1	-1E+10	1
4902624	30	C	04/17/2025	06:33	-127.650	48.305	0	27.50	0	9.5040	0	32.2710	0	24.903	0	27.267	0	259.5	4	91.7	4	-1E+10	1	0.7884	4	0.000878	0	-1E+10	1	-1E+10	1	-1E+10	1
4902624	30	C	04/17/2025	06:33	-127.650	48.305	0	28.60	0	9.5040	0	32.2710	0	24.903	0	28.357	0	259.2	4	91.6	4	-1E+10	1	0.7823	4	0.000893	0	-1E+10	1	-1E+10	1	-1E+10	1
4902624	30	C	04/17/2025	06:33	-127.650	48.305	0	29.00	0	9.5040	0	32.2710	0	24.903	0	28.754	0	-1e10	1	-1e10	1	-1E+10	1	-1e10	1	-1e10	1	-1E+10	1	-1E+10	1	-1E+10	1
4902624	30	C	04/17/2025	06:33	-127.650	48.305	0	29.80	0	9.5036	0	32.2710	0	24.903	0	29.547	0	259.1	4	91.5	4	-1E+10	1	0.7714	4	0.000874	0	-1E+10	1	-1E+10	1	-1E+10	1
4902624	30	C	04/17/2025	06:33	-127.650	48.305	0	31.00	0	9.5030	0	32.2710	0	24.903	0	30.737	0	258.9	4	91.5	4	-1E+10	1	0.7655	4	0.000853	0	-1E+10	1	-1E+10	1	-1E+10	1
4902624	30	C	04/17/2025	06:33	-127.650	48.305	0	32.20	0	9.4976	0	32.2698	0	24.903	0	31.926	0	258.5	4	91.3	4	-1E+10	1	0.7592	4	0.000863	0	-1E+10	1	-1E+10	1	-1E+10	1
4902624	30	C	04/17/2025	06:33	-127.650	48.305	0	33.00	0	9.4940	0	32.2690	0	24.903	0	32.720	0	-1e10	1	-1e10	1	-1E+10	1	-1e10	1	-1e10	1	-1E+10	1	-1E+10	1	-1E+10	1
4902624	30	C	04/17/2025	06:33	-127.650	48.305	0	33.50	0	9.4932	0	32.2690	0	24.904	0	33.215	0	258.0	4	91.1	4	-1E+10	1	0.7811	4	0.000851	0	-1E+10	1	-1E+10	1	-1E+10	1
4902624	30	C	04/17/2025	06:33	-127.650	48.305	0	34.80	0	9.4912	0	32.2690	0	24.904	0	34.504	0	257.8	4	91.0	4	-1E+10	1	0.7621	4	0.000892	0	-1E+10	1	-1E+10	1	-1E+10	1
4902624	30	C	04/17/2025	06:33	-127.650	48.305	0	34.90	0	9.4910	0	32.2690	0	24.904	0	34.603	0	-1e10	1	-1e10	1	-1E+10	1	-1e10	1	-1e10	1	-1E+10	1	-1E+10	1	-1E+10	1
4902624	30	C	04/17/2025	06:33	-127.650	48.305	0	36.00	0	9.4927	0	32.2690	0	24.904	0	35.694	0	257.5	4	91.0	4	-1E+10	1	0.7641	4	0.000945	0	-1E+10	1	-1E+10	1	-1E+10	1
4902624	30	C	04/17/2025	06:33	-127.650	48.305	0	36.90	0	9.4940	0	32.2690	0	24.903	0	36.586	0	-1e10	1	-1e10	1	-1E+10	1	-1e10	1	-1e10	1	-1E+10	1	-1E+10	1	-1E+10	1
4902624	30	C	04/17/2025	06:33	-127.650	48.305	0	37.30	0	9.4951	0	32.2692	0	24.903	0	36.983	0	257.0	4	90.8	4	-1E+10	1	0.7710	4	0.000983	0	-1E+10	1	-1E+10	1	-1E+10	1
4902624	30	C	04/17/2025	06:33	-127.650	48.305	0	38.60	0	9.4989	0	32.2698	0	24.903	0	38.271	0	256.4	4	90.6	4	-1E+10	1	0.7774	4	0.000951	0	-1E+10	1	-1E+10	1	-1E+10	1
4902624	30	C	04/17/2025	06:33	-127.650	48.305	0	39.00	0	9.5000	0	32.2700	0	24.903	0	38.668	0	-1e10	1	-1e10	1	-1E+10	1	-1e10	1	-1e10	1	-1E+10	1	-1E+10	1	-1E+10	1
4902624	30	C	04/17/2025	06:33	-127.650	48.305	0	39.90	0	9.4957	0	32.2691	0	24.903	0	39.560	0	255.8	4	90.4	4	-1E+10	1	0.7835	4	0.000890	0	-1E+10	1	-1E+10	1	-1E+10	1
4902624	30	C	04/17/2025	06:33	-127.650	48.305	0	41.10	0	9.4900	0	32.2680	0	24.903	0	40.750	0	-1e10	1	-1e10	1	-1E+10	1	-1e10	1	-1e10	1	-1E+10	1	-1E+10	1	-1E+10	1
4902624	30	C	04/17/2025	06:33	-127.650	48.305	0	41.20	0	9.4901	0	32.2681	0	24.903	0	40.849	0	255.3	4	90.2	4	-1E+10	1	0.7901	4	0.000859	0	-1E+10	1	-1E+10	1	-1E+10	1
4902624	30	C	04/17/2025	06:33	-127.650	48.305	0	42.50	0	9.4915	0	32.2687	0	24.904	0	42.138	0	254.5	4	89.9	4	-1E+10	1	0.7916	4	0.000884	0	-1E+10	1	-1E+10	1	-1E+10	1
4902624	30	C	04/17/2025	06:33	-127.650	48.305	0	43.00	0	9.4920	0	32.2690	0	24.904	0	42.634	0	-1e10	1	-1e10	1	-1E+10	1	-1e10	1	-1e10	1	-1E+10	1	-1E+10	1	-1E+10	1
4902624	30	C	04/17/2025	06:33	-127.650	48.305	0	43.80	0	9.4880	0	32.2678	0	24.904	0	43.427	0	253.9	4	89.6	4	-1E+10	1	0.7738	4	0.000874	0	-1E+10	1	-1E+10	1	-1E+10	1
4902624	30	C	04/17/2025	06:33	-127.650	48.305	0	45.00	0	9.4820	0	32.2660	0	24.903	0	44.616	0	-1e10	1	-1e10	1	-1E+10	1	-1e10	1	-1e10	1	-1E+10	1	-1E+10	1	-1E+10	1
4902624	30	C	04/17/2025	06:33	-127.650	48.305	0	45.10	0	9.4820	0	32.2661	0	24.903	0	44.715	0	253.0	4	89.3	4	-1E+10	1	0.7738	4	0.000855	0	-1E+10	1	-1E+10	1	-1E+10	1
4902624	30	C	04/17/2025	06:33	-127.650	48.305	0	46.40	0	9.4827	0	32.2673	0	24.904	0	46.004	0	252.1	4	89.0	4	-1E+10	1	0.7963	4	0.000869	0	-1E+10	1	-1E+10	1	-1E+10	1
4902624	30	C	04/17/2025	06:33	-127.650	48.305	0	47.10	0	9.4830	0	32.2680	0	24.905	0	46.698	0	-1e10	1	-1e10	1	-1E+10	1	-1e10	1	-1e10	1	-1E+10	1	-1E+10	1	-1E+10	1
4902624	30	C	04/17/2025	06:33	-127.650	48.305	0	47.70	0	9.4839	0	32.2677	0	24.904	0	47.293	0	250.9	4	88.6	4	-1E+10	1	0.8030	4	0.000874	0	-1E+10	1	-1E+10	1	-1E+10	1
4902624	30	C	04/17/2025	06:33	-127.650	48.305	0	48.90	0	9.4858	0	32.2671	0	24.903	0	48.483	0	249.6	4	88.1	4	-1E+10	1	0.7847	4	0.000921	0	-1E+10	1	-1E+10	1	-1E+10	1
4902624	30	C	04/17/2025	06:33	-127.650	48.305	0	49.00	0	9.4860	0	32.2670	0	24.903	0	48.582	0	-1e10	1	-1e10	1	-1E+10	1	-1e10	1	-1e10	1	-1E+10	1	-1E+10	1	-1E+10	1
4902624	30	C	04/17/2025	06:33	-127.650	48.305	0	50.10	0	9.4832	0	32.2670	0	24.904	0	49.672	0	248.2	4	87.6	4	-1E+10	1	0.7556	4	0.000980	0	-1E+10	1	-1E+10	1	-1E+10	1
4902624	30	C	04/17/2025	06:33	-127.650	48.305	0	51.00	0	9.4810	0	32.2670	0	24.904	0	50.564	0	246.7	4	87.1	4	-1E+10	1	0.7563	4	0.000954	0	-1E+10	1	-1E+10	1	-1E+10	1
4902624	30	C	04/17/2025	06:33	-127.650	48.305	0	51.80	0	9.4726	0	32.2645	0	24.904	0	51.357	0	244.9	4	86.4	4	-1E+10	1	0.7803	4	0.000885	0	-1E+10	1	-1E+10	1	-1E+10	1
4902624	30	C	04/17/2025	06:33	-127.650	48.305	0	52.50	0	9.4653	0	32.2622	0	24.903	0	52.051	0	243.0	4	85.8	4	-1E+10	1	0.8030	4	0.000839	0	-1E+10	1	-1E+10	1	-1E+10	1
4902624	30	C	04/17/2025	06:33	-127.650	48.305	0	53.20	0	9.4580	0	32.2600	0	24.902	0	52.745	0	-1e10	1	-1e10	1	-1E+10	1	-1e10	1	-1e10	1	-1E+10	1	-1E+10	1	-1E+10	1
4902624	30	C	04/17/2025	06:33	-127.650	48.305	0	53.30	0	9.4530	0	32.2605	0	24.904	0	52.844	0	241.2	4	85.1	4	-1E+10	1	0.7519	4	0.000874	0	-1E+10	1	-1E+10	1	-1E+10	1
4902624	30	C	04/17/2025	06:33	-127.650	48.305	0	54.00	0	9.4180	0	32.2638	0	24.912	0	53.538	0	238.8	4	84.2	4	-1E+10	1	0.7711	4	0.000823	0	-1E+10	1	-1E+10	1	-1E+10	1
4902624	30	C	04/17/2025	06:33	-127.650	48.305	0	54.70	0	9.3830	0	32.2671	0	24.920	0	54.232	0	236.1	4	83.2	4	-1E+10	1	0.7488	4	0.000765	0	-1E+10	1	-1E+10	1	-1E+10	1
4902624	30	C	04/17/2025	06:33	-127.650	48.305	0	54.90	0	9.3730	0	32.2680	0	24.922	0	54.431	0	-1e10	1	-1e10	1	-1E+10	1	-1e10	1	-1e10	1	-1E+10	1	-1E+10	1	-1E+10	1
4902624	30	C	04/17/2025	06:33	-127.650	48.305	0	55.40	0	9.3330	0	32.2805	0	24.938	0	54.926	0	233.7	4	82.3	4	-1E+10	1	0.6953	4	0.000827	0	-1E+10	1	-1E+10	1	-1E+10	1
4902624	30	C	04/17/2025	06:33	-127.650	48.305	0	56.20	0	9.2690	0	32.3005	0	24.964	0	55.719	0	231.7	4	81.4	4	-1E+10	1	0.6789	4	0.000796	0	-1E+10	1	-1E+10	1	-1E+10	1
4902624	30	C	04/17/2025	06:33	-127.650	48.305	0	56.90	0	9.2130	0	32.3180	0	24.987	0	56.413	0	229.4	4	80.6	4	-1E+10	1	0.6752	4	0.000798	0	-1E+10	1	-1E+10	1	-1E+10	1
4902624	30	C	04/17/2025	06:33	-127.650	48.305	0	57.10	0	9.1970	0	32.3230	0	24.993	0	56.611	0	-1e10	1	-1e10	1	-1E+10	1	-1e10	1	-1e10	1	-1E+10	1	-1E+10	1	-1E+10	1
4902624	30	C	04/17/2025	06:33	-127.650	48.305	0	57.50	0	9.1626	0	32.3382	0	25.010	0	57.008	0	226.7	4	79.5	4	-1E+10	1	0.6716	4	0.001066	0	-1E+10	1	-1E+10	1	-1E+10	1
4902624	30	C	04/17/2025	06:33	-127.650	48.305	0	58.10	0	9.1110	0	32.3610	0	25.036	0	57.603	0	224.3	4	78.6	4	-1E+10	1	0.7045	4	0.001144	0	-1E+10	1	-1E+10	1	-1E+10	1
4902624	30	C	04/17/2025	06:33	-127.650	48.305	0	58.40	0	9.0852	0	32.3724	0	25.049	0	57.900	0	222.2	4	77.8	4	-1E+10	1	0.7417	4	0.000879	0	-1E+10	1	-1E+10	1	-1E+10	1
4902624	30	C	04/17/2025	06:33	-127.650	48.305	0	58.70	0	9.0594	0	32.3838	0	25.062	0	58.198	0	205.2	4	71.9	4	-1E+10	1	0.7548	4	0.001280	0	-1E+10	1	-1E+10	1	-1E+10	1
4902624	30	C	04/17/2025	06:33	-127.650	48.305	0	58.80	0	9.0508	0	32.3876	0	25.066	0	58.297	0	200.6	4	70.2	4	-1E+10	1	0.7592	4	0.001414	0	-1E+10	1	-1E+10	1	-1E+10	1
4902624	30	C	04/17/2025	06:33	-127.650	48.305	0	59.00	0	9.0336	0	32.3952	0	25.075	0	58.495	0	196.3	4	68.7	4	-1E+10	1	0.7592	4	0.000651	0	-1E+10	1	-1E+10	1	-1E+10	1
4902624	30	C	04/17/2025	06:33	-127.650	48.305	0	59.10	0	9.0250	0	32.3990	0	25.079	0	58.594	0	-1e10	1	-1e10	1	-1E+10	1	-1e10	1	-1e10	1	-1E+10	1	-1E+10	1	-1E+10	1
4902624	30	C	04/17/2025	06:33	-127.650	48.305	0	59.30	0	8.9943	0	32.4178	0	25.099	0	58.792	0	192.0	4	67.2	4	-1E+10	1	0.7045	4	0.000604	0	-1E+10	1	-1E+10	1	-1E+10	1
4902624	30	C	04/17/2025	06:33	-127.650	48.305	0	59.60	0	8.9482	0	32.4461	0	25.128	0	59.090	0	186.0	4	65.0	4	-1E+10	1	0.7154	4	0.000639	0	-1E+10	1	-1E+10	1	-1E+10	1
4902624	30	C	04/17/2025	06:33	-127.650	48.305	0	60.00	0	8.8867	0	32.4838	0	25.167	0	59.486	0	179.7	4	62.7	4	-1E+10	1	0.6687	4	0.000564	0	-1E+10	1	-1E+10	1	-1E+10	1
4902624	30	C	04/17/2025	06:33	-127.650	48.305	0	60.40	0	8.8252	0	32.5215	0	25.206	0	59.883	0	173.7	4	60.6	4	-1E+10	1	0.6132	4	0.000581	0	-1E+10	1	-1E+10	1	-1E+10	1
4902624	30	C	04/17/2025	06:33	-127.650	48.305	0	61.00	0	8.7330	0	32.5780	0	25.264	0	60.477	0	166.1	4	57.8	4	-1E+10	1	0.5517	4	0.000517	0	-1E+10	1	-1E+10	1	-1E+10	1
4902624	30	C	04/17/2025	06:33	-127.650	48.305	0	61.70	0	8.6217	0	32.7247	0	25.396	0	61.171	0	159.7	4	55.5	4	-1E+10	1	0.4782	4	0.000417	0	-1E+10	1	-1E+10	1	-1E+10	1
4902624	30	C	04/17/2025	06:33	-127.650	48.305	0	62.50	0	8.4945	0	32.8923	0	25.547	0	61.964	0	156.7	4	54.4	4	-1E+10	1	0.4125	4	0.000336	0	-1E+10	1	-1E+10	1	-1E+10	1
4902624	30	C	04/17/2025	06:33	-127.650	48.305	0	63.00	0	8.4150	0	32.9970	0	25.641	0	62.460	0	-1e10	1	-1e10	1	-1E+10	1	-1e10	1	-1e10	1	-1E+10	1	-1E+10	1	-1E+10	1
4902624	30	C	04/17/2025	06:33	-127.650	48.305	0	63.30	0	8.3935	0	33.0180	0	25.661	0	62.757	0	154.4	4	53.5	4	-1E+10	1	0.3876	4	0.000331	0	-1E+10	1	-1E+10	1	-1E+10	1
4902624	30	C	04/17/2025	06:33	-127.650	48.305	0	64.20	0	8.3292	0	33.0810	0	25.720	0	63.650	0	152.3	4	52.7	4	-1E+10	1	0.3683	4	0.000345	0	-1E+10	1	-1E+10	1	-1E+10	1
4902624	30	C	04/17/2025	06:33	-127.650	48.305	0	65.00	0	8.2720	0	33.1370	0	25.772	0	64.443	0	-1e10	1	-1e10	1	-1E+10	1	-1e10	1	-1e10	1	-1E+10	1	-1E+10	1	-1E+10	1
4902624	30	C	04/17/2025	06:33	-127.650	48.305	0	65.10	0	8.2692	0	33.1405	0	25.775	0	64.542	0	150.4	4	52.0	4	-1E+10	1	0.3504	4	0.000288	0	-1E+10	1	-1E+10	1	-1E+10	1
4902624	30	C	04/17/2025	06:33	-127.650	48.305	0	66.10	0	8.2412	0	33.1755	0	25.807	0	65.533	0	148.8	4	51.5	4	-1E+10	1	0.2993	4	0.000311	0	-1E+10	1	-1E+10	1	-1E+10	1
4902624	30	C	04/17/2025	06:33	-127.650	48.305	0	67.00	0	8.2160	0	33.2070	0	25.835	0	66.425	0	-1e10	1	-1e10	1	-1E+10	1	-1e10	1	-1e10	1	-1E+10	1	-1E+10	1	-1E+10	1
4902624	30	C	04/17/2025	06:33	-127.650	48.305	0	67.10	0	8.2148	0	33.2099	0	25.838	0	66.524	0	147.3	4	50.9	4	-1E+10	1	0.2689	4	0.000311	0	-1E+10	1	-1E+10	1	-1E+10	1
4902624	30	C	04/17/2025	06:33	-127.650	48.305	0	68.10	0	8.2028	0	33.2389	0	25.862	0	67.516	0	145.8	4	50.4	4	-1E+10	1	0.2433	4	0.000311	0	-1E+10	1	-1E+10	1	-1E+10	1
4902624	30	C	04/17/2025	06:33	-127.650	48.305	0	69.00	0	8.1920	0	33.2650	0	25.884	0	68.408	0	-1e10	1	-1e10	1	-1E+10	1	-1e10	1	-1e10	1	-1E+10	1	-1E+10	1	-1E+10	1
4902624	30	C	04/17/2025	06:33	-127.650	48.305	0	69.10	0	8.1906	0	33.2666	0	25.886	0	68.507	0	144.6	4	50.0	4	-1E+10	1	0.2296	4	0.000317	0	-1E+10	1	-1E+10	1	-1E+10	1
4902624	30	C	04/17/2025	06:33	-127.650	48.305	0	70.20	0	8.1746	0	33.2842	0	25.902	0	69.597	0	143.6	4	49.6	4	-1E+10	1	0.2226	4	0.000305	0	-1E+10	1	-1E+10	1	-1E+10	1
4902624	30	C	04/17/2025	06:33	-127.650	48.305	0	71.00	0	8.1630	0	33.2970	0	25.914	0	70.390	0	-1e10	1	-1e10	1	-1E+10	1	-1e10	1	-1e10	1	-1E+10	1	-1E+10	1	-1E+10	1
4902624	30	C	04/17/2025	06:33	-127.650	48.305	0	71.30	0	8.1537	0	33.3020	0	25.919	0	70.687	0	142.4	4	49.2	4	-1E+10	1	0.2078	4	0.000292	0	-1E+10	1	-1E+10	1	-1E+10	1
4902624	30	C	04/17/2025	06:33	-127.650	48.305	0	72.30	0	8.1228	0	33.3187	0	25.937	0	71.679	0	141.4	4	48.8	4	-1E+10	1	0.1837	4	0.000297	0	-1E+10	1	-1E+10	1	-1E+10	1
4902624	30	C	04/17/2025	06:33	-127.650	48.305	0	73.10	0	8.0980	0	33.3320	0	25.951	0	72.472	0	-1e10	1	-1e10	1	-1E+10	1	-1e10	1	-1e10	1	-1E+10	1	-1E+10	1	-1E+10	1
4902624	30	C	04/17/2025	06:33	-127.650	48.305	0	73.50	0	8.0757	0	33.3396	0	25.960	0	72.868	0	140.3	4	48.4	4	-1E+10	1	0.1523	4	0.000289	0	-1E+10	1	-1E+10	1	-1E+10	1
4902624	30	C	04/17/2025	06:33	-127.650	48.305	0	74.70	0	8.0087	0	33.3623	0	25.988	0	74.058	0	139.1	4	47.9	4	-1E+10	1	0.1460	4	0.000299	0	-1E+10	1	-1E+10	1	-1E+10	1
4902624	30	C	04/17/2025	06:33	-127.650	48.305	0	75.00	0	7.9920	0	33.3680	0	25.995	0	74.355	0	-1e10	1	-1e10	1	-1E+10	1	-1e10	1	-1e10	1	-1E+10	1	-1E+10	1	-1E+10	1
4902624	30	C	04/17/2025	06:33	-127.650	48.305	0	75.90	0	7.9394	0	33.3905	0	26.020	0	75.247	0	138.2	4	47.5	4	-1E+10	1	0.1147	4	0.000279	0	-1E+10	1	-1E+10	1	-1E+10	1
4902624	30	C	04/17/2025	06:33	-127.650	48.305	0	77.00	0	7.8750	0	33.4180	0	26.051	0	76.337	0	-1e10	1	-1e10	1	-1E+10	1	-1e10	1	-1e10	1	-1E+10	1	-1E+10	1	-1E+10	1
4902624	30	C	04/17/2025	06:33	-127.650	48.305	0	77.10	0	7.8725	0	33.4205	0	26.053	0	76.437	0	137.3	4	47.2	4	-1E+10	1	0.1095	4	0.000276	0	-1E+10	1	-1E+10	1	-1E+10	1
4902624	30	C	04/17/2025	06:33	-127.650	48.305	0	78.30	0	7.8428	0	33.4508	0	26.082	0	77.626	0	136.6	4	46.9	4	-1E+10	1	0.0900	4	0.000291	0	-1E+10	1	-1E+10	1	-1E+10	1
4902624	30	C	04/17/2025	06:33	-127.650	48.305	0	78.90	0	7.8280	0	33.4660	0	26.096	0	78.221	0	-1e10	1	-1e10	1	-1E+10	1	-1e10	1	-1e10	1	-1E+10	1	-1E+10	1	-1E+10	1
4902624	30	C	04/17/2025	06:33	-127.650	48.305	0	79.60	0	7.8230	0	33.4703	0	26.100	0	78.915	0	135.9	4	46.7	4	-1E+10	1	0.0842	4	0.000274	0	-1E+10	1	-1E+10	1	-1E+10	1
4902624	30	C	04/17/2025	06:33	-127.650	48.305	0	80.80	0	7.8144	0	33.4778	0	26.107	0	80.104	0	135.3	4	46.5	4	-1E+10	1	0.0785	4	0.000291	0	-1E+10	1	-1E+10	1	-1E+10	1
4902624	30	C	04/17/2025	06:33	-127.650	48.305	0	81.00	0	7.8130	0	33.4790	0	26.108	0	80.302	0	-1e10	1	-1e10	1	-1E+10	1	-1e10	1	-1e10	1	-1E+10	1	-1E+10	1	-1E+10	1
4902624	30	C	04/17/2025	06:33	-127.650	48.305	0	82.00	0	7.8040	0	33.4871	0	26.116	0	81.293	0	134.7	4	46.2	4	-1E+10	1	0.0730	4	0.000315	0	-1E+10	1	-1E+10	1	-1E+10	1
4902624	30	C	04/17/2025	06:33	-127.650	48.305	0	83.10	0	7.7940	0	33.4960	0	26.124	0	82.384	0	-1e10	1	-1e10	1	-1E+10	1	-1e10	1	-1e10	1	-1E+10	1	-1E+10	1	-1E+10	1
4902624	30	C	04/17/2025	06:33	-127.650	48.305	0	83.20	0	7.7929	0	33.4968	0	26.125	0	82.483	0	134.0	4	46.0	4	-1E+10	1	0.0855	4	0.000257	0	-1E+10	1	-1E+10	1	-1E+10	1
4902624	30	C	04/17/2025	06:33	-127.650	48.305	0	84.40	0	7.7796	0	33.5069	0	26.135	0	83.672	0	133.3	4	45.7	4	-1E+10	1	0.0730	4	0.000287	0	-1E+10	1	-1E+10	1	-1E+10	1
4902624	30	C	04/17/2025	06:33	-127.650	48.305	0	85.00	0	7.7730	0	33.5120	0	26.140	0	84.267	0	-1e10	1	-1e10	1	-1E+10	1	-1e10	1	-1e10	1	-1E+10	1	-1E+10	1	-1E+10	1
4902624	30	C	04/17/2025	06:33	-127.650	48.305	0	85.60	0	7.7616	0	33.5195	0	26.147	0	84.862	0	132.5	4	45.5	4	-1E+10	1	0.0657	4	0.000323	0	-1E+10	1	-1E+10	1	-1E+10	1
4902624	30	C	04/17/2025	06:33	-127.650	48.305	0	86.80	0	7.7388	0	33.5345	0	26.162	0	86.051	0	131.9	4	45.2	4	-1E+10	1	0.0782	4	0.000268	0	-1E+10	1	-1E+10	1	-1E+10	1
4902624	30	C	04/17/2025	06:33	-127.650	48.305	0	87.00	0	7.7350	0	33.5370	0	26.165	0	86.249	0	-1e10	1	-1e10	1	-1E+10	1	-1e10	1	-1e10	1	-1E+10	1	-1E+10	1	-1E+10	1
4902624	30	C	04/17/2025	06:33	-127.650	48.305	0	88.00	0	7.7145	0	33.5499	0	26.178	0	87.240	0	131.4	4	45.0	4	-1E+10	1	0.0691	4	0.000254	0	-1E+10	1	-1E+10	1	-1E+10	1
4902624	30	C	04/17/2025	06:33	-127.650	48.305	0	89.10	0	7.6920	0	33.5640	0	26.192	0	88.331	0	-1e10	1	-1e10	1	-1E+10	1	-1e10	1	-1e10	1	-1E+10	1	-1E+10	1	-1E+10	1
4902624	30	C	04/17/2025	06:33	-127.650	48.305	0	89.20	0	7.6913	0	33.5646	0	26.193	0	88.430	0	131.0	4	44.9	4	-1E+10	1	0.0657	4	0.000252	0	-1E+10	1	-1E+10	1	-1E+10	1
4902624	30	C	04/17/2025	06:33	-127.650	48.305	0	90.40	0	7.6831	0	33.5722	0	26.200	0	89.619	0	130.3	4	44.6	4	-1E+10	1	0.0560	4	0.000268	0	-1E+10	1	-1E+10	1	-1E+10	1
4902624	30	C	04/17/2025	06:33	-127.650	48.305	0	91.00	0	7.6790	0	33.5760	0	26.204	0	90.214	0	-1e10	1	-1e10	1	-1E+10	1	-1e10	1	-1e10	1	-1E+10	1	-1E+10	1	-1E+10	1
4902624	30	C	04/17/2025	06:33	-127.650	48.305	0	91.70	0	7.6699	0	33.5834	0	26.211	0	90.908	0	129.6	4	44.4	4	-1E+10	1	0.0550	4	0.000282	0	-1E+10	1	-1E+10	1	-1E+10	1
4902624	30	C	04/17/2025	06:33	-127.650	48.305	0	92.90	0	7.6543	0	33.5960	0	26.223	0	92.097	0	129.1	4	44.2	4	-1E+10	1	0.0493	4	0.000278	0	-1E+10	1	-1E+10	1	-1E+10	1
4902624	30	C	04/17/2025	06:33	-127.650	48.305	0	93.00	0	7.6530	0	33.5970	0	26.224	0	92.196	0	-1e10	1	-1e10	1	-1E+10	1	-1e10	1	-1e10	1	-1E+10	1	-1E+10	1	-1E+10	1
4902624	30	C	04/17/2025	06:33	-127.650	48.305	0	94.10	0	7.6403	0	33.6091	0	26.235	0	93.286	0	128.6	4	44.0	4	-1E+10	1	0.0438	4	0.000268	0	-1E+10	1	-1E+10	1	-1E+10	1
4902624	30	C	04/17/2025	06:33	-127.650	48.305	0	95.00	0	7.6300	0	33.6190	0	26.245	0	94.178	0	-1e10	1	-1e10	1	-1E+10	1	-1e10	1	-1e10	1	-1E+10	1	-1E+10	1	-1E+10	1
4902624	30	C	04/17/2025	06:33	-127.650	48.305	0	95.40	0	7.6289	0	33.6207	0	26.246	0	94.575	0	128.1	4	43.8	4	-1E+10	1	0.0584	4	0.000280	0	-1E+10	1	-1E+10	1	-1E+10	1
4902624	30	C	04/17/2025	06:33	-127.650	48.305	0	96.60	0	7.6258	0	33.6257	0	26.250	0	95.764	0	127.6	4	43.7	4	-1E+10	1	0.0584	4	0.000299	0	-1E+10	1	-1E+10	1	-1E+10	1
4902624	30	C	04/17/2025	06:33	-127.650	48.305	0	96.90	0	7.6250	0	33.6270	0	26.252	0	96.062	0	-1e10	1	-1e10	1	-1E+10	1	-1e10	1	-1e10	1	-1E+10	1	-1E+10	1	-1E+10	1
4902624	30	C	04/17/2025	06:33	-127.650	48.305	0	97.80	0	7.6207	0	33.6321	0	26.256	0	96.954	0	127.1	4	43.5	4	-1E+10	1	0.0584	4	0.000276	0	-1E+10	1	-1E+10	1	-1E+10	1
4902624	30	C	04/17/2025	06:33	-127.650	48.305	0	98.90	0	7.6155	0	33.6384	0	26.262	0	98.044	0	126.6	4	43.3	4	-1E+10	1	0.0584	4	0.000248	0	-1E+10	1	-1E+10	1	-1E+10	1
4902624	30	C	04/17/2025	06:33	-127.650	48.305	0	99.00	0	7.6150	0	33.6390	0	26.262	0	98.143	0	-1e10	1	-1e10	1	-1E+10	1	-1e10	1	-1e10	1	-1E+10	1	-1E+10	1	-1E+10	1
4902624	30	C	04/17/2025	06:33	-127.650	48.305	0	100.00	0	7.6085	0	33.6435	0	26.267	0	99.134	0	126.1	4	43.1	4	-1E+10	1	0.0487	4	0.000240	0	-1E+10	1	-1E+10	1	-1E+10	1
4902624	30	C	04/17/2025	06:33	-127.650	48.305	0	100.90	0	7.6027	0	33.6475	0	26.271	0	100.026	0	125.6	4	43.0	4	-1E+10	1	0.0529	4	0.000262	0	-1E+10	1	-1E+10	1	-1E+10	1
4902624	30	C	04/17/2025	06:33	-127.650	48.305	0	101.00	0	7.6020	0	33.6480	0	26.271	0	100.125	0	-1e10	1	-1e10	1	-1E+10	1	-1e10	1	-1e10	1	-1E+10	1	-1E+10	1	-1E+10	1
4902624	30	C	04/17/2025	06:33	-127.650	48.305	0	101.70	0	7.5987	0	33.6513	0	26.275	0	100.819	0	125.2	4	42.8	4	-1E+10	1	0.0620	4	0.000287	0	-1E+10	1	-1E+10	1	-1E+10	1
4902624	30	C	04/17/2025	06:33	-127.650	48.305	0	102.50	0	7.5949	0	33.6551	0	26.278	0	101.612	0	124.6	4	42.6	4	-1E+10	1	0.0608	4	0.000291	0	-1E+10	1	-1E+10	1	-1E+10	1
4902624	30	C	04/17/2025	06:33	-127.650	48.305	0	102.90	0	7.5930	0	33.6570	0	26.280	0	102.008	0	-1e10	1	-1e10	1	-1E+10	1	-1e10	1	-1e10	1	-1E+10	1	-1E+10	1	-1E+10	1
4902624	30	C	04/17/2025	06:33	-127.650	48.305	0	103.30	0	7.5890	0	33.6604	0	26.283	0	102.405	0	124.0	4	42.4	4	-1E+10	1	0.0529	4	0.000275	0	-1E+10	1	-1E+10	1	-1E+10	1
4902624	30	C	04/17/2025	06:33	-127.650	48.305	0	104.10	0	7.5810	0	33.6673	0	26.290	0	103.198	0	123.3	4	42.2	4	-1E+10	1	0.0599	4	0.000280	0	-1E+10	1	-1E+10	1	-1E+10	1
4902624	30	C	04/17/2025	06:33	-127.650	48.305	0	104.90	0	7.5730	0	33.6741	0	26.296	0	103.990	0	122.6	4	41.9	4	-1E+10	1	0.0657	4	0.000299	0	-1E+10	1	-1E+10	1	-1E+10	1
4902624	30	C	04/17/2025	06:33	-127.650	48.305	0	105.00	0	7.5720	0	33.6750	0	26.297	0	104.089	0	-1e10	1	-1e10	1	-1E+10	1	-1e10	1	-1e10	1	-1E+10	1	-1E+10	1	-1E+10	1
4902624	30	C	04/17/2025	06:33	-127.650	48.305	0	105.80	0	7.5556	0	33.6834	0	26.306	0	104.882	0	121.9	4	41.7	4	-1E+10	1	0.0438	4	0.000287	0	-1E+10	1	-1E+10	1	-1E+10	1
4902624	30	C	04/17/2025	06:33	-127.650	48.305	0	106.50	0	7.5413	0	33.6908	0	26.314	0	105.576	0	121.4	4	41.5	4	-1E+10	1	0.0693	4	0.000410	0	-1E+10	1	-1E+10	1	-1E+10	1
4902624	30	C	04/17/2025	06:33	-127.650	48.305	0	107.00	0	7.5310	0	33.6960	0	26.319	0	106.072	0	-1e10	1	-1e10	1	-1E+10	1	-1e10	1	-1e10	1	-1E+10	1	-1E+10	1	-1E+10	1
4902624	30	C	04/17/2025	06:33	-127.650	48.305	0	107.20	0	7.5270	0	33.6981	0	26.322	0	106.270	0	120.8	4	41.3	4	-1E+10	1	0.0511	4	0.000365	0	-1E+10	1	-1E+10	1	-1E+10	1
4902624	30	C	04/17/2025	06:33	-127.650	48.305	0	108.00	0	7.5110	0	33.7065	0	26.330	0	107.063	0	120.3	4	41.1	4	-1E+10	1	0.0430	4	0.000296	0	-1E+10	1	-1E+10	1	-1E+10	1
4902624	30	C	04/17/2025	06:33	-127.650	48.305	0	108.90	0	7.4930	0	33.7160	0	26.340	0	107.955	0	118.2	4	40.3	4	-1E+10	1	0.0479	4	0.000279	0	-1E+10	1	-1E+10	1	-1E+10	1
4902624	30	C	04/17/2025	06:33	-127.650	48.305	0	109.70	0	7.4747	0	33.7278	0	26.352	0	108.747	0	119.1	4	40.6	4	-1E+10	1	0.0482	4	0.000309	0	-1E+10	1	-1E+10	1	-1E+10	1
4902624	30	C	04/17/2025	06:33	-127.650	48.305	0	110.60	0	7.4541	0	33.7411	0	26.366	0	109.639	0	118.5	4	40.4	4	-1E+10	1	0.0557	4	0.000328	0	-1E+10	1	-1E+10	1	-1E+10	1
4902624	30	C	04/17/2025	06:33	-127.650	48.305	0	111.00	0	7.4450	0	33.7470	0	26.372	0	110.036	0	-1e10	1	-1e10	1	-1E+10	1	-1e10	1	-1e10	1	-1E+10	1	-1E+10	1	-1E+10	1
4902624	30	C	04/17/2025	06:33	-127.650	48.305	0	111.50	0	7.4392	0	33.7498	0	26.375	0	110.531	0	117.9	4	40.2	4	-1E+10	1	0.0438	4	0.000299	0	-1E+10	1	-1E+10	1	-1E+10	1
4902624	30	C	04/17/2025	06:33	-127.650	48.305	0	112.30	0	7.4300	0	33.7542	0	26.379	0	111.324	0	117.4	4	40.0	4	-1E+10	1	0.0511	4	0.000299	0	-1E+10	1	-1E+10	1	-1E+10	1
4902624	30	C	04/17/2025	06:33	-127.650	48.305	0	113.00	0	7.4220	0	33.7580	0	26.384	0	112.018	0	-1e10	1	-1e10	1	-1E+10	1	-1e10	1	-1e10	1	-1E+10	1	-1E+10	1	-1E+10	1
4902624	30	C	04/17/2025	06:33	-127.650	48.305	0	113.20	0	7.4195	0	33.7589	0	26.385	0	112.216	0	116.8	4	39.8	4	-1E+10	1	0.0511	4	0.000289	0	-1E+10	1	-1E+10	1	-1E+10	1
4902624	30	C	04/17/2025	06:33	-127.650	48.305	0	114.10	0	7.4082	0	33.7629	0	26.389	0	113.108	0	116.3	4	39.6	4	-1E+10	1	0.0511	4	0.000384	0	-1E+10	1	-1E+10	1	-1E+10	1
4902624	30	C	04/17/2025	06:33	-127.650	48.305	0	115.00	0	7.3970	0	33.7670	0	26.394	0	114.000	0	114.3	4	38.9	4	-1E+10	1	0.0511	4	0.000366	0	-1E+10	1	-1E+10	1	-1E+10	1
4902624	30	C	04/17/2025	06:33	-127.650	48.305	0	115.90	0	7.3911	0	33.7683	0	26.396	0	114.892	0	115.3	4	39.3	4	-1E+10	1	0.0511	4	0.000342	0	-1E+10	1	-1E+10	1	-1E+10	1
4902624	30	C	04/17/2025	06:33	-127.650	48.305	0	116.70	0	7.3859	0	33.7696	0	26.398	0	115.685	0	114.8	4	39.1	4	-1E+10	1	0.0511	4	0.000338	0	-1E+10	1	-1E+10	1	-1E+10	1
4902624	30	C	04/17/2025	06:33	-127.650	48.305	0	117.00	0	7.3840	0	33.7700	0	26.398	0	115.982	0	-1e10	1	-1e10	1	-1E+10	1	-1e10	1	-1e10	1	-1E+10	1	-1E+10	1	-1E+10	1
4902624	30	C	04/17/2025	06:33	-127.650	48.305	0	117.60	0	7.3794	0	33.7726	0	26.401	0	116.577	0	114.3	4	38.9	4	-1E+10	1	0.0502	4	0.000292	0	-1E+10	1	-1E+10	1	-1E+10	1
4902624	30	C	04/17/2025	06:33	-127.650	48.305	0	118.50	0	7.3726	0	33.7764	0	26.405	0	117.469	0	113.8	4	38.7	4	-1E+10	1	0.0438	4	0.000329	0	-1E+10	1	-1E+10	1	-1E+10	1
4902624	30	C	04/17/2025	06:33	-127.650	48.305	0	119.10	0	7.3680	0	33.7790	0	26.408	0	118.063	0	-1e10	1	-1e10	1	-1E+10	1	-1e10	1	-1e10	1	-1E+10	1	-1E+10	1	-1E+10	1
4902624	30	C	04/17/2025	06:33	-127.650	48.305	0	119.40	0	7.3593	0	33.7812	0	26.411	0	118.360	0	113.1	4	38.5	4	-1E+10	1	0.0438	4	0.000357	0	-1E+10	1	-1E+10	1	-1E+10	1
4902624	30	C	04/17/2025	06:33	-127.650	48.305	0	120.30	0	7.3333	0	33.7878	0	26.420	0	119.252	0	112.5	4	38.3	4	-1E+10	1	0.0498	4	0.000357	0	-1E+10	1	-1E+10	1	-1E+10	1
4902624	30	C	04/17/2025	06:33	-127.650	48.305	0	121.00	0	7.3130	0	33.7930	0	26.427	0	119.946	0	-1e10	1	-1e10	1	-1E+10	1	-1e10	1	-1e10	1	-1E+10	1	-1E+10	1	-1E+10	1
4902624	30	C	04/17/2025	06:33	-127.650	48.305	0	121.30	0	7.3079	0	33.7947	0	26.429	0	120.243	0	111.9	4	38.1	4	-1E+10	1	0.0511	4	0.000348	0	-1E+10	1	-1E+10	1	-1E+10	1
4902624	30	C	04/17/2025	06:33	-127.650	48.305	0	122.20	0	7.2928	0	33.7999	0	26.435	0	121.135	0	111.2	4	37.8	4	-1E+10	1	0.0604	4	0.000622	0	-1E+10	1	-1E+10	1	-1E+10	1
4902624	30	C	04/17/2025	06:33	-127.650	48.305	0	122.90	0	7.2810	0	33.8040	0	26.440	0	121.829	0	-1e10	1	-1e10	1	-1E+10	1	-1e10	1	-1e10	1	-1E+10	1	-1E+10	1	-1E+10	1
4902624	30	C	04/17/2025	06:33	-127.650	48.305	0	123.20	0	7.2792	0	33.8052	0	26.441	0	122.126	0	110.4	4	37.5	4	-1E+10	1	0.0548	4	0.000557	0	-1E+10	1	-1E+10	1	-1E+10	1
4902624	30	C	04/17/2025	06:33	-127.650	48.305	0	124.20	0	7.2733	0	33.8093	0	26.445	0	123.117	0	109.7	4	37.3	4	-1E+10	1	0.0496	4	0.000334	0	-1E+10	1	-1E+10	1	-1E+10	1
4902624	30	C	04/17/2025	06:33	-127.650	48.305	0	125.10	0	7.2680	0	33.8130	0	26.449	0	124.009	0	-1e10	1	-1e10	1	-1E+10	1	-1e10	1	-1e10	1	-1E+10	1	-1E+10	1	-1E+10	1
4902624	30	C	04/17/2025	06:33	-127.650	48.305	0	125.20	0	7.2674	0	33.8134	0	26.449	0	124.108	0	109.2	4	37.1	4	-1E+10	1	0.0584	4	0.000334	0	-1E+10	1	-1E+10	1	-1E+10	1
4902624	30	C	04/17/2025	06:33	-127.650	48.305	0	126.20	0	7.2614	0	33.8174	0	26.453	0	125.099	0	108.9	4	37.0	4	-1E+10	1	0.0572	4	0.000334	0	-1E+10	1	-1E+10	1	-1E+10	1
4902624	30	C	04/17/2025	06:33	-127.650	48.305	0	127.10	0	7.2560	0	33.8210	0	26.457	0	125.991	0	-1e10	1	-1e10	1	-1E+10	1	-1e10	1	-1e10	1	-1E+10	1	-1E+10	1	-1E+10	1
4902624	30	C	04/17/2025	06:33	-127.650	48.305	0	127.20	0	7.2547	0	33.8212	0	26.457	0	126.090	0	108.6	4	36.9	4	-1E+10	1	0.0511	4	0.000334	0	-1E+10	1	-1E+10	1	-1E+10	1
4902624	30	C	04/17/2025	06:33	-127.650	48.305	0	128.20	0	7.2411	0	33.8232	0	26.460	0	127.081	0	108.3	4	36.8	4	-1E+10	1	0.0511	4	0.000357	0	-1E+10	1	-1E+10	1	-1E+10	1
4902624	30	C	04/17/2025	06:33	-127.650	48.305	0	129.10	0	7.2290	0	33.8250	0	26.464	0	127.973	0	106.4	4	36.1	4	-1E+10	1	0.0511	4	0.000386	0	-1E+10	1	-1E+10	1	-1E+10	1
4902624	30	C	04/17/2025	06:33	-127.650	48.305	0	130.20	0	7.2153	0	33.8283	0	26.468	0	129.063	0	107.2	4	36.4	4	-1E+10	1	0.0511	4	0.000366	0	-1E+10	1	-1E+10	1	-1E+10	1
4902624	30	C	04/17/2025	06:33	-127.650	48.305	0	131.10	0	7.2040	0	33.8310	0	26.472	0	129.955	0	-1e10	1	-1e10	1	-1E+10	1	-1e10	1	-1e10	1	-1E+10	1	-1E+10	1	-1E+10	1
4902624	30	C	04/17/2025	06:33	-127.650	48.305	0	131.20	0	7.2039	0	33.8315	0	26.472	0	130.054	0	106.8	4	36.2	4	-1E+10	1	0.0557	4	0.000350	0	-1E+10	1	-1E+10	1	-1E+10	1
4902624	30	C	04/17/2025	06:33	-127.650	48.305	0	132.20	0	7.2028	0	33.8362	0	26.476	0	131.045	0	106.5	4	36.1	4	-1E+10	1	0.0584	4	0.000352	0	-1E+10	1	-1E+10	1	-1E+10	1
4902624	30	C	04/17/2025	06:33	-127.650	48.305	0	133.00	0	7.2020	0	33.8400	0	26.479	0	131.838	0	-1e10	1	-1e10	1	-1E+10	1	-1e10	1	-1e10	1	-1E+10	1	-1E+10	1	-1E+10	1
4902624	30	C	04/17/2025	06:33	-127.650	48.305	0	133.20	0	7.1986	0	33.8409	0	26.480	0	132.036	0	106.3	4	36.1	4	-1E+10	1	0.0535	4	0.000357	0	-1E+10	1	-1E+10	1	-1E+10	1
4902624	30	C	04/17/2025	06:33	-127.650	48.305	0	134.20	0	7.1816	0	33.8454	0	26.486	0	133.027	0	106.2	4	36.1	4	-1E+10	1	0.0438	4	0.000359	0	-1E+10	1	-1E+10	1	-1E+10	1
4902624	30	C	04/17/2025	06:33	-127.650	48.305	0	135.00	0	7.1680	0	33.8490	0	26.491	0	133.820	0	-1e10	1	-1e10	1	-1E+10	1	-1e10	1	-1e10	1	-1E+10	1	-1E+10	1	-1E+10	1
4902624	30	C	04/17/2025	06:33	-127.650	48.305	0	135.30	0	7.1629	0	33.8487	0	26.491	0	134.117	0	106.2	4	36.0	4	-1E+10	1	0.0427	4	0.000396	0	-1E+10	1	-1E+10	1	-1E+10	1
4902624	30	C	04/17/2025	06:33	-127.650	48.305	0	136.40	0	7.1442	0	33.8476	0	26.493	0	135.207	0	106.0	4	35.9	4	-1E+10	1	0.0365	4	0.000545	0	-1E+10	1	-1E+10	1	-1E+10	1
4902624	30	C	04/17/2025	06:33	-127.650	48.305	0	137.00	0	7.1340	0	33.8470	0	26.494	0	135.801	0	-1e10	1	-1e10	1	-1E+10	1	-1e10	1	-1e10	1	-1E+10	1	-1E+10	1	-1E+10	1
4902624	30	C	04/17/2025	06:33	-127.650	48.305	0	137.40	0	7.1266	0	33.8466	0	26.495	0	136.198	0	105.6	4	35.8	4	-1E+10	1	0.0487	4	0.000408	0	-1E+10	1	-1E+10	1	-1E+10	1
4902624	30	C	04/17/2025	06:33	-127.650	48.305	0	138.50	0	7.1064	0	33.8454	0	26.497	0	137.288	0	104.9	4	35.5	4	-1E+10	1	0.0511	4	0.000362	0	-1E+10	1	-1E+10	1	-1E+10	1
4902624	30	C	04/17/2025	06:33	-127.650	48.305	0	138.90	0	7.0990	0	33.8450	0	26.497	0	137.684	0	-1e10	1	-1e10	1	-1E+10	1	-1e10	1	-1e10	1	-1E+10	1	-1E+10	1	-1E+10	1
4902624	30	C	04/17/2025	06:33	-127.650	48.305	0	139.60	0	7.0923	0	33.8463	0	26.499	0	138.378	0	104.2	4	35.3	4	-1E+10	1	0.0562	4	0.000341	0	-1E+10	1	-1E+10	1	-1E+10	1
4902624	30	C	04/17/2025	06:33	-127.650	48.305	0	140.70	0	7.0819	0	33.8484	0	26.502	0	139.468	0	103.6	4	35.1	4	-1E+10	1	0.0505	4	0.000328	0	-1E+10	1	-1E+10	1	-1E+10	1
4902624	30	C	04/17/2025	06:33	-127.650	48.305	0	141.00	0	7.0790	0	33.8490	0	26.503	0	139.765	0	-1e10	1	-1e10	1	-1E+10	1	-1e10	1	-1e10	1	-1E+10	1	-1E+10	1	-1E+10	1
4902624	30	C	04/17/2025	06:33	-127.650	48.305	0	141.80	0	7.0725	0	33.8505	0	26.505	0	140.558	0	102.9	4	34.8	4	-1E+10	1	0.0438	4	0.000327	0	-1E+10	1	-1E+10	1	-1E+10	1
4902624	30	C	04/17/2025	06:33	-127.650	48.305	0	142.90	0	7.0636	0	33.8526	0	26.508	0	141.648	0	102.2	4	34.6	4	-1E+10	1	0.0516	4	0.000334	0	-1E+10	1	-1E+10	1	-1E+10	1
4902624	30	C	04/17/2025	06:33	-127.650	48.305	0	143.10	0	7.0620	0	33.8530	0	26.509	0	141.846	0	-1e10	1	-1e10	1	-1E+10	1	-1e10	1	-1e10	1	-1E+10	1	-1E+10	1	-1E+10	1
4902624	30	C	04/17/2025	06:33	-127.650	48.305	0	144.00	0	7.0638	0	33.8575	0	26.512	0	142.738	0	101.8	4	34.5	4	-1E+10	1	0.0646	4	0.000335	0	-1E+10	1	-1E+10	1	-1E+10	1
4902624	30	C	04/17/2025	06:33	-127.650	48.305	0	145.10	0	7.0660	0	33.8630	0	26.516	0	143.828	0	100.0	4	33.9	4	-1E+10	1	0.0584	4	0.000339	0	-1E+10	1	-1E+10	1	-1E+10	1
4902624	30	C	04/17/2025	06:33	-127.650	48.305	0	146.20	0	7.0665	0	33.8635	0	26.517	0	144.918	0	101.1	4	34.2	4	-1E+10	1	0.0876	4	0.000369	0	-1E+10	1	-1E+10	1	-1E+10	1
4902624	30	C	04/17/2025	06:33	-127.650	48.305	0	147.10	0	7.0670	0	33.8640	0	26.517	0	145.810	0	-1e10	1	-1e10	1	-1E+10	1	-1e10	1	-1e10	1	-1E+10	1	-1E+10	1	-1E+10	1
4902624	30	C	04/17/2025	06:33	-127.650	48.305	0	147.30	0	7.0664	0	33.8641	0	26.517	0	146.008	0	100.6	4	34.0	4	-1E+10	1	0.0567	4	0.000359	0	-1E+10	1	-1E+10	1	-1E+10	1
4902624	30	C	04/17/2025	06:33	-127.650	48.305	0	148.40	0	7.0629	0	33.8647	0	26.518	0	147.098	0	100.0	4	33.9	4	-1E+10	1	0.0464	4	0.000365	0	-1E+10	1	-1E+10	1	-1E+10	1
4902624	30	C	04/17/2025	06:33	-127.650	48.305	0	149.00	0	7.0610	0	33.8650	0	26.518	0	147.692	0	-1e10	1	-1e10	1	-1E+10	1	-1e10	1	-1e10	1	-1E+10	1	-1E+10	1	-1E+10	1
4902624	30	C	04/17/2025	06:33	-127.650	48.305	0	149.60	0	7.0601	0	33.8650	0	26.519	0	148.287	0	99.4	4	33.6	4	-1E+10	1	0.0484	4	0.000369	0	-1E+10	1	-1E+10	1	-1E+10	1
4902624	30	C	04/17/2025	06:33	-127.650	48.305	0	150.70	0	7.0583	0	33.8650	0	26.519	0	149.377	0	98.7	4	33.4	4	-1E+10	1	0.0474	4	0.000375	0	-1E+10	1	-1E+10	1	-1E+10	1
4902624	30	C	04/17/2025	06:33	-127.650	48.305	0	150.90	0	7.0580	0	33.8650	0	26.519	0	149.575	0	-1e10	1	-1e10	1	-1E+10	1	-1e10	1	-1e10	1	-1E+10	1	-1E+10	1	-1E+10	1
4902624	30	C	04/17/2025	06:33	-127.650	48.305	0	151.90	0	7.0590	0	33.8669	0	26.520	0	150.566	0	98.0	4	33.2	4	-1E+10	1	0.0464	4	0.000360	0	-1E+10	1	-1E+10	1	-1E+10	1
4902624	30	C	04/17/2025	06:33	-127.650	48.305	0	153.00	0	7.0600	0	33.8690	0	26.522	0	151.656	0	95.9	4	32.5	4	-1E+10	1	0.0498	4	0.000326	0	-1E+10	1	-1E+10	1	-1E+10	1
4902624	30	C	04/17/2025	06:33	-127.650	48.305	0	154.20	0	7.0651	0	33.8736	0	26.525	0	152.845	0	96.7	4	32.7	4	-1E+10	1	0.0485	4	0.000350	0	-1E+10	1	-1E+10	1	-1E+10	1
4902624	30	C	04/17/2025	06:33	-127.650	48.305	0	155.10	0	7.0690	0	33.8770	0	26.527	0	153.736	0	-1e10	1	-1e10	1	-1E+10	1	-1e10	1	-1e10	1	-1E+10	1	-1E+10	1	-1E+10	1
4902624	30	C	04/17/2025	06:33	-127.650	48.305	0	155.30	0	7.0692	0	33.8775	0	26.527	0	153.935	0	96.3	4	32.6	4	-1E+10	1	0.0657	4	0.000369	0	-1E+10	1	-1E+10	1	-1E+10	1
4902624	30	C	04/17/2025	06:33	-127.650	48.305	0	156.50	0	7.0704	0	33.8805	0	26.529	0	155.124	0	95.9	4	32.5	4	-1E+10	1	0.0438	4	0.000357	0	-1E+10	1	-1E+10	1	-1E+10	1
4902624	30	C	04/17/2025	06:33	-127.650	48.305	0	157.10	0	7.0710	0	33.8820	0	26.531	0	155.718	0	-1e10	1	-1e10	1	-1E+10	1	-1e10	1	-1e10	1	-1E+10	1	-1E+10	1	-1E+10	1
4902624	30	C	04/17/2025	06:33	-127.650	48.305	0	157.70	0	7.0716	0	33.8835	0	26.532	0	156.313	0	95.7	4	32.4	4	-1E+10	1	0.0584	4	0.000392	0	-1E+10	1	-1E+10	1	-1E+10	1
4902624	30	C	04/17/2025	06:33	-127.650	48.305	0	158.80	0	7.0727	0	33.8862	0	26.534	0	157.402	0	95.5	4	32.3	4	-1E+10	1	0.0527	4	0.000369	0	-1E+10	1	-1E+10	1	-1E+10	1
4902624	30	C	04/17/2025	06:33	-127.650	48.305	0	159.10	0	7.0730	0	33.8870	0	26.534	0	157.700	0	-1e10	1	-1e10	1	-1E+10	1	-1e10	1	-1e10	1	-1E+10	1	-1E+10	1	-1E+10	1
4902624	30	C	04/17/2025	06:33	-127.650	48.305	0	160.00	0	7.0739	0	33.8865	0	26.534	0	158.591	0	95.3	4	32.3	4	-1E+10	1	0.0562	4	0.000383	0	-1E+10	1	-1E+10	1	-1E+10	1
4902624	30	C	04/17/2025	06:33	-127.650	48.305	0	161.00	0	7.0750	0	33.8860	0	26.533	0	159.582	0	-1e10	1	-1e10	1	-1E+10	1	-1e10	1	-1e10	1	-1E+10	1	-1E+10	1	-1E+10	1
4902624	30	C	04/17/2025	06:33	-127.650	48.305	0	161.10	0	7.0738	0	33.8861	0	26.533	0	159.681	0	95.2	4	32.2	4	-1E+10	1	0.0584	4	0.000365	0	-1E+10	1	-1E+10	1	-1E+10	1
4902624	30	C	04/17/2025	06:33	-127.650	48.305	0	162.30	0	7.0601	0	33.8873	0	26.536	0	160.870	0	95.1	4	32.2	4	-1E+10	1	0.0623	4	0.000345	0	-1E+10	1	-1E+10	1	-1E+10	1
4902624	30	C	04/17/2025	06:33	-127.650	48.305	0	163.00	0	7.0520	0	33.8880	0	26.538	0	161.564	0	-1e10	1	-1e10	1	-1E+10	1	-1e10	1	-1e10	1	-1E+10	1	-1E+10	1	-1E+10	1
4902624	30	C	04/17/2025	06:33	-127.650	48.305	0	163.40	0	7.0452	0	33.8872	0	26.538	0	161.960	0	94.8	4	32.1	4	-1E+10	1	0.0631	4	0.000350	0	-1E+10	1	-1E+10	1	-1E+10	1
4902624	30	C	04/17/2025	06:33	-127.650	48.305	0	164.50	0	7.0265	0	33.8850	0	26.539	0	163.050	0	94.5	4	32.0	4	-1E+10	1	0.0572	4	0.000357	0	-1E+10	1	-1E+10	1	-1E+10	1
4902624	30	C	04/17/2025	06:33	-127.650	48.305	0	165.00	0	7.0180	0	33.8840	0	26.539	0	163.545	0	-1e10	1	-1e10	1	-1E+10	1	-1e10	1	-1e10	1	-1E+10	1	-1E+10	1	-1E+10	1
4902624	30	C	04/17/2025	06:33	-127.650	48.305	0	165.70	0	7.0107	0	33.8843	0	26.541	0	164.239	0	94.1	4	31.8	4	-1E+10	1	0.0522	4	0.000364	0	-1E+10	1	-1E+10	1	-1E+10	1
4902624	30	C	04/17/2025	06:33	-127.650	48.305	0	166.80	0	6.9991	0	33.8849	0	26.543	0	165.329	0	93.7	4	31.7	4	-1E+10	1	0.0584	4	0.000404	0	-1E+10	1	-1E+10	1	-1E+10	1
4902624	30	C	04/17/2025	06:33	-127.650	48.305	0	167.00	0	6.9970	0	33.8850	0	26.543	0	165.527	0	-1e10	1	-1e10	1	-1E+10	1	-1e10	1	-1e10	1	-1E+10	1	-1E+10	1	-1E+10	1
4902624	30	C	04/17/2025	06:33	-127.650	48.305	0	167.90	0	6.9859	0	33.8871	0	26.546	0	166.419	0	93.5	4	31.6	4	-1E+10	1	0.0641	4	0.000395	0	-1E+10	1	-1E+10	1	-1E+10	1
4902624	30	C	04/17/2025	06:33	-127.650	48.305	0	169.10	0	6.9710	0	33.8900	0	26.551	0	167.608	0	91.9	4	31.0	4	-1E+10	1	0.0597	4	0.000354	0	-1E+10	1	-1E+10	1	-1E+10	1
4902624	30	C	04/17/2025	06:33	-127.650	48.305	0	170.20	0	6.9467	0	33.8900	0	26.554	0	168.697	0	92.8	4	31.3	4	-1E+10	1	0.0584	4	0.000315	0	-1E+10	1	-1E+10	1	-1E+10	1
4902624	30	C	04/17/2025	06:33	-127.650	48.305	0	171.00	0	6.9290	0	33.8900	0	26.556	0	169.490	0	-1e10	1	-1e10	1	-1E+10	1	-1e10	1	-1e10	1	-1E+10	1	-1E+10	1	-1E+10	1
4902624	30	C	04/17/2025	06:33	-127.650	48.305	0	171.30	0	6.9217	0	33.8905	0	26.558	0	169.787	0	92.4	4	31.2	4	-1E+10	1	0.0550	4	0.000325	0	-1E+10	1	-1E+10	1	-1E+10	1
4902624	30	C	04/17/2025	06:33	-127.650	48.305	0	172.50	0	6.8927	0	33.8924	0	26.563	0	170.976	0	91.9	4	31.0	4	-1E+10	1	0.0541	4	0.000342	0	-1E+10	1	-1E+10	1	-1E+10	1
4902624	30	C	04/17/2025	06:33	-127.650	48.305	0	172.90	0	6.8830	0	33.8930	0	26.565	0	171.373	0	-1e10	1	-1e10	1	-1E+10	1	-1e10	1	-1e10	1	-1E+10	1	-1E+10	1	-1E+10	1
4902624	30	C	04/17/2025	06:33	-127.650	48.305	0	173.60	0	6.8847	0	33.8943	0	26.566	0	172.066	0	91.5	4	30.8	4	-1E+10	1	0.0517	4	0.000336	0	-1E+10	1	-1E+10	1	-1E+10	1
4902624	30	C	04/17/2025	06:33	-127.650	48.305	0	174.80	0	6.8875	0	33.8966	0	26.567	0	173.255	0	91.3	4	30.8	4	-1E+10	1	0.0396	4	0.000369	0	-1E+10	1	-1E+10	1	-1E+10	1
4902624	30	C	04/17/2025	06:33	-127.650	48.305	0	175.00	0	6.8880	0	33.8970	0	26.568	0	173.453	0	-1e10	1	-1e10	1	-1E+10	1	-1e10	1	-1e10	1	-1E+10	1	-1E+10	1	-1E+10	1
4902624	30	C	04/17/2025	06:33	-127.650	48.305	0	175.90	0	6.8907	0	33.9020	0	26.571	0	174.345	0	91.5	4	30.9	4	-1E+10	1	0.0511	4	0.000369	0	-1E+10	1	-1E+10	1	-1E+10	1
4902624	30	C	04/17/2025	06:33	-127.650	48.305	0	177.00	0	6.8940	0	33.9080	0	26.575	0	175.435	0	90.4	4	30.5	4	-1E+10	1	0.0584	4	0.000327	0	-1E+10	1	-1E+10	1	-1E+10	1
4902624	30	C	04/17/2025	06:33	-127.650	48.305	0	178.20	0	6.8394	0	33.9008	0	26.577	0	176.623	0	91.6	4	30.8	4	-1E+10	1	0.0584	4	0.000363	0	-1E+10	1	-1E+10	1	-1E+10	1
4902624	30	C	04/17/2025	06:33	-127.650	48.305	0	179.00	0	6.8030	0	33.8960	0	26.578	0	177.416	0	-1e10	1	-1e10	1	-1E+10	1	-1e10	1	-1e10	1	-1E+10	1	-1E+10	1	-1E+10	1
4902624	30	C	04/17/2025	06:33	-127.650	48.305	0	179.30	0	6.7973	0	33.8955	0	26.579	0	177.713	0	91.2	4	30.7	4	-1E+10	1	0.0584	4	0.000346	0	-1E+10	1	-1E+10	1	-1E+10	1
4902624	30	C	04/17/2025	06:33	-127.650	48.305	0	180.40	0	6.7765	0	33.8938	0	26.580	0	178.803	0	90.7	4	30.5	4	-1E+10	1	0.0584	4	0.000343	0	-1E+10	1	-1E+10	1	-1E+10	1
4902624	30	C	04/17/2025	06:33	-127.650	48.305	0	180.90	0	6.7670	0	33.8930	0	26.581	0	179.298	0	-1e10	1	-1e10	1	-1E+10	1	-1e10	1	-1e10	1	-1E+10	1	-1E+10	1	-1E+10	1
4902624	30	C	04/17/2025	06:33	-127.650	48.305	0	181.60	0	6.7570	0	33.8947	0	26.583	0	179.992	0	90.3	4	30.3	4	-1E+10	1	0.0474	4	0.000342	0	-1E+10	1	-1E+10	1	-1E+10	1
4902624	30	C	04/17/2025	06:33	-127.650	48.305	0	182.80	0	6.7399	0	33.8975	0	26.588	0	181.181	0	89.9	4	30.2	4	-1E+10	1	0.0417	4	0.000329	0	-1E+10	1	-1E+10	1	-1E+10	1
4902624	30	C	04/17/2025	06:33	-127.650	48.305	0	183.00	0	6.7370	0	33.8980	0	26.589	0	181.379	0	-1e10	1	-1e10	1	-1E+10	1	-1e10	1	-1e10	1	-1E+10	1	-1E+10	1	-1E+10	1
4902624	30	C	04/17/2025	06:33	-127.650	48.305	0	183.90	0	6.7284	0	33.8993	0	26.591	0	182.271	0	89.7	4	30.1	4	-1E+10	1	0.0484	4	0.000326	0	-1E+10	1	-1E+10	1	-1E+10	1
4902624	30	C	04/17/2025	06:33	-127.650	48.305	0	185.00	0	6.7180	0	33.9009	0	26.594	0	183.360	0	89.4	4	30.0	4	-1E+10	1	0.0386	4	0.000349	0	-1E+10	1	-1E+10	1	-1E+10	1
4902624	30	C	04/17/2025	06:33	-127.650	48.305	0	185.10	0	6.7170	0	33.9010	0	26.594	0	183.459	0	-1e10	1	-1e10	1	-1E+10	1	-1e10	1	-1e10	1	-1E+10	1	-1E+10	1	-1E+10	1
4902624	30	C	04/17/2025	06:33	-127.650	48.305	0	186.20	0	6.7112	0	33.9010	0	26.595	0	184.549	0	89.1	4	29.9	4	-1E+10	1	0.0511	4	0.000369	0	-1E+10	1	-1E+10	1	-1E+10	1
4902624	30	C	04/17/2025	06:33	-127.650	48.305	0	187.00	0	6.7070	0	33.9010	0	26.595	0	185.342	0	-1e10	1	-1e10	1	-1E+10	1	-1e10	1	-1e10	1	-1E+10	1	-1E+10	1	-1E+10	1
4902624	30	C	04/17/2025	06:33	-127.650	48.305	0	187.40	0	6.7026	0	33.9014	0	26.596	0	185.738	0	88.8	4	29.8	4	-1E+10	1	0.0511	4	0.000318	0	-1E+10	1	-1E+10	1	-1E+10	1
4902624	30	C	04/17/2025	06:33	-127.650	48.305	0	188.50	0	6.6905	0	33.9025	0	26.598	0	186.828	0	88.5	4	29.7	4	-1E+10	1	0.0675	4	0.000354	0	-1E+10	1	-1E+10	1	-1E+10	1
4902624	30	C	04/17/2025	06:33	-127.650	48.305	0	189.00	0	6.6850	0	33.9030	0	26.600	0	187.323	0	-1e10	1	-1e10	1	-1E+10	1	-1e10	1	-1e10	1	-1E+10	1	-1E+10	1	-1E+10	1
4902624	30	C	04/17/2025	06:33	-127.650	48.305	0	189.70	0	6.6794	0	33.9030	0	26.600	0	188.016	0	88.2	4	29.6	4	-1E+10	1	0.0542	4	0.000346	0	-1E+10	1	-1E+10	1	-1E+10	1
4902624	30	C	04/17/2025	06:33	-127.650	48.305	0	190.90	0	6.6698	0	33.9030	0	26.602	0	189.205	0	87.8	4	29.5	4	-1E+10	1	0.0438	4	0.000322	0	-1E+10	1	-1E+10	1	-1E+10	1
4902624	30	C	04/17/2025	06:33	-127.650	48.305	0	191.00	0	6.6690	0	33.9030	0	26.602	0	189.304	0	-1e10	1	-1e10	1	-1E+10	1	-1e10	1	-1e10	1	-1E+10	1	-1E+10	1	-1E+10	1
4902624	30	C	04/17/2025	06:33	-127.650	48.305	0	192.10	0	6.6668	0	33.9035	0	26.603	0	190.394	0	87.5	4	29.3	4	-1E+10	1	0.0438	4	0.000305	0	-1E+10	1	-1E+10	1	-1E+10	1
4902624	30	C	04/17/2025	06:33	-127.650	48.305	0	193.00	0	6.6650	0	33.9040	0	26.603	0	191.286	0	-1e10	1	-1e10	1	-1E+10	1	-1e10	1	-1e10	1	-1E+10	1	-1E+10	1	-1E+10	1
4902624	30	C	04/17/2025	06:33	-127.650	48.305	0	193.20	0	6.6641	0	33.9041	0	26.603	0	191.484	0	87.1	4	29.2	4	-1E+10	1	0.0438	4	0.000308	0	-1E+10	1	-1E+10	1	-1E+10	1
4902624	30	C	04/17/2025	06:33	-127.650	48.305	0	194.40	0	6.6587	0	33.9047	0	26.605	0	192.673	0	86.7	4	29.1	4	-1E+10	1	0.0438	4	0.000335	0	-1E+10	1	-1E+10	1	-1E+10	1
4902624	30	C	04/17/2025	06:33	-127.650	48.305	0	195.00	0	6.6560	0	33.9050	0	26.605	0	193.267	0	-1e10	1	-1e10	1	-1E+10	1	-1e10	1	-1e10	1	-1E+10	1	-1E+10	1	-1E+10	1
4902624	30	C	04/17/2025	06:33	-127.650	48.305	0	195.60	0	6.6515	0	33.9056	0	26.606	0	193.861	0	86.2	4	28.9	4	-1E+10	1	0.0438	4	0.000345	0	-1E+10	1	-1E+10	1	-1E+10	1
4902624	30	C	04/17/2025	06:33	-127.650	48.305	0	196.80	0	6.6425	0	33.9068	0	26.608	0	195.050	0	85.8	4	28.8	4	-1E+10	1	0.0511	4	0.000322	0	-1E+10	1	-1E+10	1	-1E+10	1
4902624	30	C	04/17/2025	06:33	-127.650	48.305	0	197.00	0	6.6410	0	33.9070	0	26.609	0	195.248	0	-1e10	1	-1e10	1	-1E+10	1	-1e10	1	-1e10	1	-1E+10	1	-1E+10	1	-1E+10	1
4902624	30	C	04/17/2025	06:33	-127.650	48.305	0	198.00	0	6.6300	0	33.9075	0	26.611	0	196.239	0	85.4	4	28.6	4	-1E+10	1	0.0448	4	0.000332	0	-1E+10	1	-1E+10	1	-1E+10	1
4902624	30	C	04/17/2025	06:33	-127.650	48.305	0	199.00	0	6.6190	0	33.9080	0	26.612	0	197.230	0	-1e10	1	-1e10	1	-1E+10	1	-1e10	1	-1e10	1	-1E+10	1	-1E+10	1	-1E+10	1
4902624	30	C	04/17/2025	06:33	-127.650	48.305	0	199.10	0	6.6180	0	33.9081	0	26.613	0	197.329	0	85.0	4	28.5	4	-1E+10	1	0.0485	4	0.000311	0	-1E+10	1	-1E+10	1	-1E+10	1
4902624	30	C	04/17/2025	06:33	-127.650	48.305	0	200.30	0	6.6060	0	33.9093	0	26.615	0	198.517	0	84.5	4	28.3	4	-1E+10	1	0.0511	4	0.000298	0	-1E+10	1	-1E+10	1	-1E+10	1
4902624	30	C	04/17/2025	06:33	-127.650	48.305	0	201.00	0	6.5990	0	33.9100	0	26.617	0	199.211	0	-1e10	1	-1e10	1	-1E+10	1	-1e10	1	-1e10	1	-1E+10	1	-1E+10	1	-1E+10	1
4902624	30	C	04/17/2025	06:33	-127.650	48.305	0	201.50	0	6.5935	0	33.9102	0	26.618	0	199.706	0	84.2	4	28.2	4	-1E+10	1	0.0474	4	0.000316	0	-1E+10	1	-1E+10	1	-1E+10	1
4902624	30	C	04/17/2025	06:33	-127.650	48.305	0	202.70	0	6.5804	0	33.9108	0	26.620	0	200.895	0	83.7	4	28.0	4	-1E+10	1	0.0487	4	0.000322	0	-1E+10	1	-1E+10	1	-1E+10	1
4902624	30	C	04/17/2025	06:33	-127.650	48.305	0	203.10	0	6.5760	0	33.9110	0	26.621	0	201.291	0	-1e10	1	-1e10	1	-1E+10	1	-1e10	1	-1e10	1	-1E+10	1	-1E+10	1	-1E+10	1
4902624	30	C	04/17/2025	06:33	-127.650	48.305	0	203.90	0	6.5680	0	33.9106	0	26.621	0	202.084	0	83.3	4	27.9	4	-1E+10	1	0.0544	4	0.000309	0	-1E+10	1	-1E+10	1	-1E+10	1
4902624	30	C	04/17/2025	06:33	-127.650	48.305	0	205.00	0	6.5570	0	33.9100	0	26.622	0	203.173	0	-1e10	1	-1e10	1	-1E+10	1	-1e10	1	-1e10	1	-1E+10	1	-1E+10	1	-1E+10	1
4902624	30	C	04/17/2025	06:33	-127.650	48.305	0	205.10	0	6.5559	0	33.9101	0	26.623	0	203.272	0	82.8	4	27.7	4	-1E+10	1	0.0412	4	0.000352	0	-1E+10	1	-1E+10	1	-1E+10	1
4902624	30	C	04/17/2025	06:33	-127.650	48.305	0	206.20	0	6.5438	0	33.9118	0	26.625	0	204.362	0	82.3	4	27.5	4	-1E+10	1	0.0584	4	0.000333	0	-1E+10	1	-1E+10	1	-1E+10	1
4902624	30	C	04/17/2025	06:33	-127.650	48.305	0	207.00	0	6.5350	0	33.9130	0	26.628	0	205.154	0	-1e10	1	-1e10	1	-1E+10	1	-1e10	1	-1e10	1	-1E+10	1	-1E+10	1	-1E+10	1
4902624	30	C	04/17/2025	06:33	-127.650	48.305	0	207.50	0	6.5295	0	33.9135	0	26.629	0	205.650	0	81.8	4	27.4	4	-1E+10	1	0.0584	4	0.000313	0	-1E+10	1	-1E+10	1	-1E+10	1
4902624	30	C	04/17/2025	06:33	-127.650	48.305	0	208.70	0	6.5163	0	33.9147	0	26.631	0	206.838	0	81.2	4	27.2	4	-1E+10	1	0.0584	4	0.000320	0	-1E+10	1	-1E+10	1	-1E+10	1
4902624	30	C	04/17/2025	06:33	-127.650	48.305	0	209.00	0	6.5130	0	33.9150	0	26.632	0	207.136	0	-1e10	1	-1e10	1	-1E+10	1	-1e10	1	-1e10	1	-1E+10	1	-1E+10	1	-1E+10	1
4902624	30	C	04/17/2025	06:33	-127.650	48.305	0	209.90	0	6.5080	0	33.9155	0	26.633	0	208.027	0	80.7	4	27.0	4	-1E+10	1	0.0633	4	0.000314	0	-1E+10	1	-1E+10	1	-1E+10	1
4902624	30	C	04/17/2025	06:33	-127.650	48.305	0	211.00	0	6.5020	0	33.9160	0	26.634	0	209.117	0	-1e10	1	-1e10	1	-1E+10	1	-1e10	1	-1e10	1	-1E+10	1	-1E+10	1	-1E+10	1
4902624	30	C	04/17/2025	06:33	-127.650	48.305	0	211.10	0	6.5011	0	33.9162	0	26.635	0	209.216	0	80.1	4	26.8	4	-1E+10	1	0.0584	4	0.000322	0	-1E+10	1	-1E+10	1	-1E+10	1
4902624	30	C	04/17/2025	06:33	-127.650	48.305	0	212.30	0	6.4897	0	33.9181	0	26.638	0	210.404	0	79.5	4	26.6	4	-1E+10	1	0.0483	4	0.000329	0	-1E+10	1	-1E+10	1	-1E+10	1
4902624	30	C	04/17/2025	06:33	-127.650	48.305	0	212.90	0	6.4840	0	33.9190	0	26.639	0	210.999	0	-1e10	1	-1e10	1	-1E+10	1	-1e10	1	-1e10	1	-1E+10	1	-1E+10	1	-1E+10	1
4902624	30	C	04/17/2025	06:33	-127.650	48.305	0	213.50	0	6.4751	0	33.9207	0	26.642	0	211.593	0	79.1	4	26.4	4	-1E+10	1	0.0480	4	0.000322	0	-1E+10	1	-1E+10	1	-1E+10	1
4902624	30	C	04/17/2025	06:33	-127.650	48.305	0	214.80	0	6.4560	0	33.9244	0	26.647	0	212.881	0	78.8	4	26.3	4	-1E+10	1	0.0584	4	0.000317	0	-1E+10	1	-1E+10	1	-1E+10	1
4902624	30	C	04/17/2025	06:33	-127.650	48.305	0	215.00	0	6.4530	0	33.9250	0	26.648	0	213.079	0	-1e10	1	-1e10	1	-1E+10	1	-1e10	1	-1e10	1	-1E+10	1	-1E+10	1	-1E+10	1
4902624	30	C	04/17/2025	06:33	-127.650	48.305	0	216.00	0	6.4359	0	33.9255	0	26.650	0	214.069	0	78.5	4	26.2	4	-1E+10	1	0.0584	4	0.000298	0	-1E+10	1	-1E+10	1	-1E+10	1
4902624	30	C	04/17/2025	06:33	-127.650	48.305	0	217.10	0	6.4170	0	33.9260	0	26.653	0	215.159	0	-1e10	1	-1e10	1	-1E+10	1	-1e10	1	-1e10	1	-1E+10	1	-1E+10	1	-1E+10	1
4902624	30	C	04/17/2025	06:33	-127.650	48.305	0	217.20	0	6.4163	0	33.9260	0	26.653	0	215.258	0	78.2	4	26.1	4	-1E+10	1	0.0657	4	0.000462	0	-1E+10	1	-1E+10	1	-1E+10	1
4902624	30	C	04/17/2025	06:33	-127.650	48.305	0	218.50	0	6.4079	0	33.9260	0	26.654	0	216.546	0	77.9	4	26.0	4	-1E+10	1	0.0530	4	0.000330	0	-1E+10	1	-1E+10	1	-1E+10	1
4902624	30	C	04/17/2025	06:33	-127.650	48.305	0	219.10	0	6.4040	0	33.9260	0	26.655	0	217.140	0	-1e10	1	-1e10	1	-1E+10	1	-1e10	1	-1e10	1	-1E+10	1	-1E+10	1	-1E+10	1
4902624	30	C	04/17/2025	06:33	-127.650	48.305	0	219.70	0	6.3974	0	33.9266	0	26.656	0	217.734	0	77.5	4	25.9	4	-1E+10	1	0.0560	4	0.000310	0	-1E+10	1	-1E+10	1	-1E+10	1
4902624	30	C	04/17/2025	06:33	-127.650	48.305	0	220.90	0	6.3841	0	33.9279	0	26.659	0	218.923	0	77.3	4	25.8	4	-1E+10	1	0.0499	4	0.000385	0	-1E+10	1	-1E+10	1	-1E+10	1
4902624	30	C	04/17/2025	06:33	-127.650	48.305	0	221.00	0	6.3830	0	33.9280	0	26.659	0	219.022	0	-1e10	1	-1e10	1	-1E+10	1	-1e10	1	-1e10	1	-1E+10	1	-1E+10	1	-1E+10	1
4902624	30	C	04/17/2025	06:33	-127.650	48.305	0	222.10	0	6.3637	0	33.9296	0	26.663	0	220.112	0	77.0	4	25.7	4	-1E+10	1	0.0438	4	0.000380	0	-1E+10	1	-1E+10	1	-1E+10	1
4902624	30	C	04/17/2025	06:33	-127.650	48.305	0	223.00	0	6.3480	0	33.9310	0	26.666	0	221.003	0	-1e10	1	-1e10	1	-1E+10	1	-1e10	1	-1e10	1	-1E+10	1	-1E+10	1	-1E+10	1
4902624	30	C	04/17/2025	06:33	-127.650	48.305	0	223.30	0	6.3465	0	33.9310	0	26.666	0	221.300	0	76.8	4	25.6	4	-1E+10	1	0.0487	4	0.000353	0	-1E+10	1	-1E+10	1	-1E+10	1
4902624	30	C	04/17/2025	06:33	-127.650	48.305	0	224.50	0	6.3405	0	33.9310	0	26.667	0	222.489	0	76.6	4	25.5	4	-1E+10	1	0.0572	4	0.000396	0	-1E+10	1	-1E+10	1	-1E+10	1
4902624	30	C	04/17/2025	06:33	-127.650	48.305	0	225.00	0	6.3380	0	33.9310	0	26.668	0	222.984	0	-1e10	1	-1e10	1	-1E+10	1	-1e10	1	-1e10	1	-1E+10	1	-1E+10	1	-1E+10	1
4902624	30	C	04/17/2025	06:33	-127.650	48.305	0	225.80	0	6.3338	0	33.9314	0	26.668	0	223.777	0	76.4	4	25.4	4	-1E+10	1	0.0540	4	0.000303	0	-1E+10	1	-1E+10	1	-1E+10	1
4902624	30	C	04/17/2025	06:33	-127.650	48.305	0	227.00	0	6.3275	0	33.9320	0	26.670	0	224.965	0	76.1	4	25.3	4	-1E+10	1	0.0657	4	0.000321	0	-1E+10	1	-1E+10	1	-1E+10	1
4902624	30	C	04/17/2025	06:33	-127.650	48.305	0	227.10	0	6.3270	0	33.9320	0	26.670	0	225.064	0	-1e10	1	-1e10	1	-1E+10	1	-1e10	1	-1e10	1	-1E+10	1	-1E+10	1	-1E+10	1
4902624	30	C	04/17/2025	06:33	-127.650	48.305	0	228.40	0	6.3154	0	33.9320	0	26.671	0	226.352	0	75.8	4	25.2	4	-1E+10	1	0.0511	4	0.000298	0	-1E+10	1	-1E+10	1	-1E+10	1
4902624	30	C	04/17/2025	06:33	-127.650	48.305	0	229.00	0	6.3100	0	33.9320	0	26.672	0	226.946	0	-1e10	1	-1e10	1	-1E+10	1	-1e10	1	-1e10	1	-1E+10	1	-1E+10	1	-1E+10	1
4902624	30	C	04/17/2025	06:33	-127.650	48.305	0	229.20	0	6.3088	0	33.9321	0	26.672	0	227.144	0	75.7	4	25.2	4	-1E+10	1	0.0446	4	0.000329	0	-1E+10	1	-1E+10	1	-1E+10	1
4902624	30	C	04/17/2025	06:33	-127.650	48.305	0	230.00	0	6.3042	0	33.9325	0	26.673	0	227.937	0	75.5	4	25.1	4	-1E+10	1	0.0577	4	0.000281	0	-1E+10	1	-1E+10	1	-1E+10	1
4902624	30	C	04/17/2025	06:33	-127.650	48.305	0	230.80	0	6.2996	0	33.9329	0	26.674	0	228.729	0	75.3	4	25.0	4	-1E+10	1	0.0560	4	0.000282	0	-1E+10	1	-1E+10	1	-1E+10	1
4902624	30	C	04/17/2025	06:33	-127.650	48.305	0	230.90	0	6.2990	0	33.9330	0	26.674	0	228.828	0	-1e10	1	-1e10	1	-1E+10	1	-1e10	1	-1e10	1	-1E+10	1	-1E+10	1	-1E+10	1
4902624	30	C	04/17/2025	06:33	-127.650	48.305	0	231.50	0	6.2933	0	33.9333	0	26.675	0	229.422	0	75.1	4	25.0	4	-1E+10	1	0.0438	4	0.000318	0	-1E+10	1	-1E+10	1	-1E+10	1
4902624	30	C	04/17/2025	06:33	-127.650	48.305	0	232.30	0	6.2857	0	33.9337	0	26.676	0	230.215	0	75.0	4	24.9	4	-1E+10	1	0.0438	4	0.000306	0	-1E+10	1	-1E+10	1	-1E+10	1
4902624	30	C	04/17/2025	06:33	-127.650	48.305	0	233.00	0	6.2790	0	33.9340	0	26.678	0	230.908	0	-1e10	1	-1e10	1	-1E+10	1	-1e10	1	-1e10	1	-1E+10	1	-1E+10	1	-1E+10	1
4902624	30	C	04/17/2025	06:33	-127.650	48.305	0	233.10	0	6.2785	0	33.9340	0	26.678	0	231.007	0	74.8	4	24.9	4	-1E+10	1	0.0438	4	0.000298	0	-1E+10	1	-1E+10	1	-1E+10	1
4902624	30	C	04/17/2025	06:33	-127.650	48.305	0	233.90	0	6.2750	0	33.9344	0	26.678	0	231.799	0	74.6	4	24.8	4	-1E+10	1	0.0456	4	0.000304	0	-1E+10	1	-1E+10	1	-1E+10	1
4902624	30	C	04/17/2025	06:33	-127.650	48.305	0	234.60	0	6.2718	0	33.9348	0	26.679	0	232.493	0	74.4	4	24.7	4	-1E+10	1	0.0519	4	0.000317	0	-1E+10	1	-1E+10	1	-1E+10	1
4902624	30	C	04/17/2025	06:33	-127.650	48.305	0	235.00	0	6.2700	0	33.9350	0	26.680	0	232.889	0	-1e10	1	-1e10	1	-1E+10	1	-1e10	1	-1e10	1	-1E+10	1	-1E+10	1	-1E+10	1
4902624	30	C	04/17/2025	06:33	-127.650	48.305	0	235.40	0	6.2668	0	33.9352	0	26.680	0	233.285	0	74.2	4	24.7	4	-1E+10	1	0.0584	4	0.000286	0	-1E+10	1	-1E+10	1	-1E+10	1
4902624	30	C	04/17/2025	06:33	-127.650	48.305	0	236.20	0	6.2605	0	33.9356	0	26.681	0	234.077	0	74.0	4	24.6	4	-1E+10	1	0.0584	4	0.000286	0	-1E+10	1	-1E+10	1	-1E+10	1
4902624	30	C	04/17/2025	06:33	-127.650	48.305	0	236.90	0	6.2550	0	33.9360	0	26.682	0	234.771	0	-1e10	1	-1e10	1	-1E+10	1	-1e10	1	-1e10	1	-1E+10	1	-1E+10	1	-1E+10	1
4902624	30	C	04/17/2025	06:33	-127.650	48.305	0	237.00	0	6.2544	0	33.9360	0	26.682	0	234.870	0	73.9	4	24.5	4	-1E+10	1	0.0584	4	0.000316	0	-1E+10	1	-1E+10	1	-1E+10	1
4902624	30	C	04/17/2025	06:33	-127.650	48.305	0	237.70	0	6.2500	0	33.9360	0	26.683	0	235.563	0	73.6	4	24.5	4	-1E+10	1	0.0584	4	0.000307	0	-1E+10	1	-1E+10	1	-1E+10	1
4902624	30	C	04/17/2025	06:33	-127.650	48.305	0	238.60	0	6.2445	0	33.9360	0	26.684	0	236.455	0	73.4	4	24.4	4	-1E+10	1	0.0543	4	0.000320	0	-1E+10	1	-1E+10	1	-1E+10	1
4902624	30	C	04/17/2025	06:33	-127.650	48.305	0	239.00	0	6.2420	0	33.9360	0	26.684	0	236.851	0	-1e10	1	-1e10	1	-1E+10	1	-1e10	1	-1e10	1	-1E+10	1	-1E+10	1	-1E+10	1
4902624	30	C	04/17/2025	06:33	-127.650	48.305	0	239.40	0	6.2384	0	33.9362	0	26.685	0	237.247	0	73.2	4	24.3	4	-1E+10	1	0.0474	4	0.000324	0	-1E+10	1	-1E+10	1	-1E+10	1
4902624	30	C	04/17/2025	06:33	-127.650	48.305	0	240.20	0	6.2311	0	33.9366	0	26.686	0	238.039	0	72.9	4	24.2	4	-1E+10	1	0.0467	4	0.000305	0	-1E+10	1	-1E+10	1	-1E+10	1
4902624	30	C	04/17/2025	06:33	-127.650	48.305	0	241.00	0	6.2239	0	33.9370	0	26.687	0	238.832	0	72.7	4	24.1	4	-1E+10	1	0.0511	4	0.000291	0	-1E+10	1	-1E+10	1	-1E+10	1
4902624	30	C	04/17/2025	06:33	-127.650	48.305	0	241.10	0	6.2230	0	33.9370	0	26.687	0	238.931	0	-1e10	1	-1e10	1	-1E+10	1	-1e10	1	-1e10	1	-1E+10	1	-1E+10	1	-1E+10	1
4902624	30	C	04/17/2025	06:33	-127.650	48.305	0	241.80	0	6.2123	0	33.9377	0	26.689	0	239.624	0	72.5	4	24.1	4	-1E+10	1	0.0511	4	0.000263	0	-1E+10	1	-1E+10	1	-1E+10	1
4902624	30	C	04/17/2025	06:33	-127.650	48.305	0	242.60	0	6.2001	0	33.9386	0	26.691	0	240.416	0	72.2	4	24.0	4	-1E+10	1	0.0511	4	0.000274	0	-1E+10	1	-1E+10	1	-1E+10	1
4902624	30	C	04/17/2025	06:33	-127.650	48.305	0	243.00	0	6.1940	0	33.9390	0	26.693	0	240.812	0	-1e10	1	-1e10	1	-1E+10	1	-1e10	1	-1e10	1	-1E+10	1	-1E+10	1	-1E+10	1
4902624	30	C	04/17/2025	06:33	-127.650	48.305	0	243.40	0	6.1911	0	33.9392	0	26.693	0	241.209	0	72.0	4	23.9	4	-1E+10	1	0.0453	4	0.000293	0	-1E+10	1	-1E+10	1	-1E+10	1
4902624	30	C	04/17/2025	06:33	-127.650	48.305	0	244.20	0	6.1852	0	33.9396	0	26.694	0	242.001	0	71.8	4	23.8	4	-1E+10	1	0.0526	4	0.000333	0	-1E+10	1	-1E+10	1	-1E+10	1
4902624	30	C	04/17/2025	06:33	-127.650	48.305	0	244.90	0	6.1800	0	33.9400	0	26.695	0	242.694	0	-1e10	1	-1e10	1	-1E+10	1	-1e10	1	-1e10	1	-1E+10	1	-1E+10	1	-1E+10	1
4902624	30	C	04/17/2025	06:33	-127.650	48.305	0	245.10	0	6.1775	0	33.9402	0	26.696	0	242.892	0	71.7	4	23.8	4	-1E+10	1	0.0584	4	0.000320	0	-1E+10	1	-1E+10	1	-1E+10	1
4902624	30	C	04/17/2025	06:33	-127.650	48.305	0	245.90	0	6.1676	0	33.9410	0	26.697	0	243.685	0	71.5	4	23.7	4	-1E+10	1	0.0474	4	0.000292	0	-1E+10	1	-1E+10	1	-1E+10	1
4902624	30	C	04/17/2025	06:33	-127.650	48.305	0	246.80	0	6.1565	0	33.9418	0	26.700	0	244.576	0	71.3	4	23.7	4	-1E+10	1	0.0423	4	0.000291	0	-1E+10	1	-1E+10	1	-1E+10	1
4902624	30	C	04/17/2025	06:33	-127.650	48.305	0	247.00	0	6.1540	0	33.9420	0	26.700	0	244.774	0	-1e10	1	-1e10	1	-1E+10	1	-1e10	1	-1e10	1	-1E+10	1	-1E+10	1	-1E+10	1
4902624	30	C	04/17/2025	06:33	-127.650	48.305	0	247.60	0	6.1519	0	33.9420	0	26.700	0	245.368	0	71.2	4	23.6	4	-1E+10	1	0.0543	4	0.000290	0	-1E+10	1	-1E+10	1	-1E+10	1
4902624	30	C	04/17/2025	06:33	-127.650	48.305	0	248.50	0	6.1487	0	33.9420	0	26.701	0	246.260	0	71.0	4	23.5	4	-1E+10	1	0.0599	4	0.000270	0	-1E+10	1	-1E+10	1	-1E+10	1
4902624	30	C	04/17/2025	06:33	-127.650	48.305	0	249.00	0	6.1470	0	33.9420	0	26.701	0	246.755	0	-1e10	1	-1e10	1	-1E+10	1	-1e10	1	-1e10	1	-1E+10	1	-1E+10	1	-1E+10	1
4902624	30	C	04/17/2025	06:33	-127.650	48.305	0	249.30	0	6.1459	0	33.9422	0	26.701	0	247.052	0	70.8	4	23.5	4	-1E+10	1	0.0365	4	0.000298	0	-1E+10	1	-1E+10	1	-1E+10	1
4902624	30	C	04/17/2025	06:33	-127.650	48.305	0	250.20	0	6.1428	0	33.9426	0	26.702	0	247.943	0	70.5	4	23.4	4	-1E+10	1	0.0425	4	0.000288	0	-1E+10	1	-1E+10	1	-1E+10	1
4902624	30	C	04/17/2025	06:33	-127.650	48.305	0	251.00	0	6.1400	0	33.9430	0	26.703	0	248.736	0	-1e10	1	-1e10	1	-1E+10	1	-1e10	1	-1e10	1	-1E+10	1	-1E+10	1	-1E+10	1
4902624	30	C	04/17/2025	06:33	-127.650	48.305	0	251.10	0	6.1394	0	33.9430	0	26.703	0	248.835	0	70.3	4	23.3	4	-1E+10	1	0.0502	4	0.000409	0	-1E+10	1	-1E+10	1	-1E+10	1
4902624	30	C	04/17/2025	06:33	-127.650	48.305	0	251.90	0	6.1344	0	33.9434	0	26.704	0	249.627	0	70.1	4	23.2	4	-1E+10	1	0.0511	4	0.000360	0	-1E+10	1	-1E+10	1	-1E+10	1
4902624	30	C	04/17/2025	06:33	-127.650	48.305	0	252.80	0	6.1289	0	33.9439	0	26.705	0	250.518	0	69.9	4	23.2	4	-1E+10	1	0.0474	4	0.000304	0	-1E+10	1	-1E+10	1	-1E+10	1
4902624	30	C	04/17/2025	06:33	-127.650	48.305	0	253.10	0	6.1270	0	33.9440	0	26.705	0	250.815	0	-1e10	1	-1e10	1	-1E+10	1	-1e10	1	-1e10	1	-1E+10	1	-1E+10	1	-1E+10	1
4902624	30	C	04/17/2025	06:33	-127.650	48.305	0	253.70	0	6.1219	0	33.9440	0	26.706	0	251.410	0	69.7	4	23.1	4	-1E+10	1	0.0470	4	0.000291	0	-1E+10	1	-1E+10	1	-1E+10	1
4902624	30	C	04/17/2025	06:33	-127.650	48.305	0	254.50	0	6.1152	0	33.9440	0	26.707	0	252.202	0	69.4	4	23.0	4	-1E+10	1	0.0533	4	0.000294	0	-1E+10	1	-1E+10	1	-1E+10	1
4902624	30	C	04/17/2025	06:33	-127.650	48.305	0	255.00	0	6.1110	0	33.9440	0	26.707	0	252.697	0	-1e10	1	-1e10	1	-1E+10	1	-1e10	1	-1e10	1	-1E+10	1	-1E+10	1	-1E+10	1
4902624	30	C	04/17/2025	06:33	-127.650	48.305	0	255.40	0	6.1106	0	33.9444	0	26.707	0	253.093	0	69.2	4	22.9	4	-1E+10	1	0.0571	4	0.000288	0	-1E+10	1	-1E+10	1	-1E+10	1
4902624	30	C	04/17/2025	06:33	-127.650	48.305	0	256.30	0	6.1098	0	33.9452	0	26.708	0	253.985	0	69.0	4	22.9	4	-1E+10	1	0.0511	4	0.000298	0	-1E+10	1	-1E+10	1	-1E+10	1
4902624	30	C	04/17/2025	06:33	-127.650	48.305	0	257.10	0	6.1090	0	33.9460	0	26.709	0	254.777	0	67.7	4	22.4	4	-1E+10	1	0.0438	4	0.000303	0	-1E+10	1	-1E+10	1	-1E+10	1
4902624	30	C	04/17/2025	06:33	-127.650	48.305	0	258.00	0	6.1038	0	33.9469	0	26.710	0	255.668	0	68.5	4	22.7	4	-1E+10	1	0.0498	4	0.000279	0	-1E+10	1	-1E+10	1	-1E+10	1
4902624	30	C	04/17/2025	06:33	-127.650	48.305	0	258.90	0	6.0986	0	33.9479	0	26.712	0	256.559	0	68.3	4	22.6	4	-1E+10	1	0.0460	4	0.000282	0	-1E+10	1	-1E+10	1	-1E+10	1
4902624	30	C	04/17/2025	06:33	-127.650	48.305	0	259.00	0	6.0980	0	33.9480	0	26.712	0	256.658	0	-1e10	1	-1e10	1	-1E+10	1	-1e10	1	-1e10	1	-1E+10	1	-1E+10	1	-1E+10	1
4902624	30	C	04/17/2025	06:33	-127.650	48.305	0	259.80	0	6.0946	0	33.9476	0	26.712	0	257.451	0	68.0	4	22.5	4	-1E+10	1	0.0389	4	0.000294	0	-1E+10	1	-1E+10	1	-1E+10	1
4902624	30	C	04/17/2025	06:33	-127.650	48.305	0	260.70	0	6.0907	0	33.9472	0	26.712	0	258.342	0	67.7	4	22.4	4	-1E+10	1	0.0405	4	0.000285	0	-1E+10	1	-1E+10	1	-1E+10	1
4902624	30	C	04/17/2025	06:33	-127.650	48.305	0	261.10	0	6.0890	0	33.9470	0	26.712	0	258.738	0	-1e10	1	-1e10	1	-1E+10	1	-1e10	1	-1e10	1	-1E+10	1	-1E+10	1	-1E+10	1
4902624	30	C	04/17/2025	06:33	-127.650	48.305	0	261.50	0	6.0850	0	33.9476	0	26.713	0	259.134	0	67.5	4	22.3	4	-1E+10	1	0.0438	4	0.000287	0	-1E+10	1	-1E+10	1	-1E+10	1
4902624	30	C	04/17/2025	06:33	-127.650	48.305	0	262.50	0	6.0750	0	33.9491	0	26.716	0	260.125	0	67.2	4	22.3	4	-1E+10	1	0.0470	4	0.000311	0	-1E+10	1	-1E+10	1	-1E+10	1
4902624	30	C	04/17/2025	06:33	-127.650	48.305	0	263.10	0	6.0690	0	33.9500	0	26.717	0	260.719	0	-1e10	1	-1e10	1	-1E+10	1	-1e10	1	-1e10	1	-1E+10	1	-1E+10	1	-1E+10	1
4902624	30	C	04/17/2025	06:33	-127.650	48.305	0	263.30	0	6.0679	0	33.9502	0	26.718	0	260.917	0	67.0	4	22.2	4	-1E+10	1	0.0577	4	0.000280	0	-1E+10	1	-1E+10	1	-1E+10	1
4902624	30	C	04/17/2025	06:33	-127.650	48.305	0	264.20	0	6.0629	0	33.9512	0	26.719	0	261.808	0	66.8	4	22.1	4	-1E+10	1	0.0511	4	0.000333	0	-1E+10	1	-1E+10	1	-1E+10	1
4902624	30	C	04/17/2025	06:33	-127.650	48.305	0	264.90	0	6.0590	0	33.9520	0	26.720	0	262.501	0	-1e10	1	-1e10	1	-1E+10	1	-1e10	1	-1e10	1	-1E+10	1	-1E+10	1	-1E+10	1
4902624	30	C	04/17/2025	06:33	-127.650	48.305	0	265.10	0	6.0571	0	33.9521	0	26.720	0	262.699	0	66.6	4	22.0	4	-1E+10	1	0.0451	4	0.000304	0	-1E+10	1	-1E+10	1	-1E+10	1
4902624	30	C	04/17/2025	06:33	-127.650	48.305	0	266.00	0	6.0485	0	33.9525	0	26.722	0	263.591	0	66.4	4	22.0	4	-1E+10	1	0.0608	4	0.000289	0	-1E+10	1	-1E+10	1	-1E+10	1
4902624	30	C	04/17/2025	06:33	-127.650	48.305	0	266.90	0	6.0400	0	33.9530	0	26.723	0	264.482	0	66.2	4	21.9	4	-1E+10	1	0.0564	4	0.000271	0	-1E+10	1	-1E+10	1	-1E+10	1
4902624	30	C	04/17/2025	06:33	-127.650	48.305	0	267.00	0	6.0390	0	33.9530	0	26.723	0	264.581	0	-1e10	1	-1e10	1	-1E+10	1	-1e10	1	-1e10	1	-1E+10	1	-1E+10	1	-1E+10	1
4902624	30	C	04/17/2025	06:33	-127.650	48.305	0	267.80	0	6.0270	0	33.9526	0	26.725	0	265.373	0	66.0	4	21.8	4	-1E+10	1	0.0478	4	0.000262	0	-1E+10	1	-1E+10	1	-1E+10	1
4902624	30	C	04/17/2025	06:33	-127.650	48.305	0	268.70	0	6.0135	0	33.9521	0	26.726	0	266.265	0	65.7	4	21.7	4	-1E+10	1	0.0414	4	0.000274	0	-1E+10	1	-1E+10	1	-1E+10	1
4902624	30	C	04/17/2025	06:33	-127.650	48.305	0	269.00	0	6.0090	0	33.9520	0	26.726	0	266.562	0	-1e10	1	-1e10	1	-1E+10	1	-1e10	1	-1e10	1	-1E+10	1	-1E+10	1	-1E+10	1
4902624	30	C	04/17/2025	06:33	-127.650	48.305	0	269.60	0	6.0061	0	33.9526	0	26.727	0	267.156	0	65.4	4	21.6	4	-1E+10	1	0.0409	4	0.000315	0	-1E+10	1	-1E+10	1	-1E+10	1
4902624	30	C	04/17/2025	06:33	-127.650	48.305	0	270.50	0	6.0019	0	33.9534	0	26.728	0	268.047	0	65.1	4	21.5	4	-1E+10	1	0.0511	4	0.000346	0	-1E+10	1	-1E+10	1	-1E+10	1
4902624	30	C	04/17/2025	06:33	-127.650	48.305	0	271.10	0	5.9990	0	33.9540	0	26.729	0	268.641	0	-1e10	1	-1e10	1	-1E+10	1	-1e10	1	-1e10	1	-1E+10	1	-1E+10	1	-1E+10	1
4902624	30	C	04/17/2025	06:33	-127.650	48.305	0	271.40	0	5.9959	0	33.9543	0	26.730	0	268.938	0	64.9	4	21.4	4	-1E+10	1	0.0511	4	0.000298	0	-1E+10	1	-1E+10	1	-1E+10	1
4902624	30	C	04/17/2025	06:33	-127.650	48.305	0	272.30	0	5.9864	0	33.9552	0	26.732	0	269.830	0	64.6	4	21.3	4	-1E+10	1	0.0730	4	0.000274	0	-1E+10	1	-1E+10	1	-1E+10	1
4902624	30	C	04/17/2025	06:33	-127.650	48.305	0	273.10	0	5.9780	0	33.9560	0	26.734	0	270.622	0	-1e10	1	-1e10	1	-1E+10	1	-1e10	1	-1e10	1	-1E+10	1	-1E+10	1	-1E+10	1
4902624	30	C	04/17/2025	06:33	-127.650	48.305	0	273.20	0	5.9778	0	33.9561	0	26.734	0	270.721	0	64.4	4	21.3	4	-1E+10	1	0.0491	4	0.000313	0	-1E+10	1	-1E+10	1	-1E+10	1
4902624	30	C	04/17/2025	06:33	-127.650	48.305	0	274.10	0	5.9755	0	33.9565	0	26.734	0	271.612	0	64.2	4	21.2	4	-1E+10	1	0.0484	4	0.000321	0	-1E+10	1	-1E+10	1	-1E+10	1
4902624	30	C	04/17/2025	06:33	-127.650	48.305	0	275.00	0	5.9732	0	33.9570	0	26.735	0	272.503	0	64.0	4	21.1	4	-1E+10	1	0.0430	4	0.000301	0	-1E+10	1	-1E+10	1	-1E+10	1
4902624	30	C	04/17/2025	06:33	-127.650	48.305	0	275.10	0	5.9730	0	33.9570	0	26.735	0	272.602	0	-1e10	1	-1e10	1	-1E+10	1	-1e10	1	-1e10	1	-1E+10	1	-1E+10	1	-1E+10	1
4902624	30	C	04/17/2025	06:33	-127.650	48.305	0	275.90	0	5.9694	0	33.9574	0	26.736	0	273.395	0	63.7	4	21.0	4	-1E+10	1	0.0365	4	0.000302	0	-1E+10	1	-1E+10	1	-1E+10	1
4902624	30	C	04/17/2025	06:33	-127.650	48.305	0	276.90	0	5.9649	0	33.9579	0	26.737	0	274.385	0	63.5	4	21.0	4	-1E+10	1	0.0418	4	0.000317	0	-1E+10	1	-1E+10	1	-1E+10	1
4902624	30	C	04/17/2025	06:33	-127.650	48.305	0	277.10	0	5.9640	0	33.9580	0	26.737	0	274.583	0	-1e10	1	-1e10	1	-1E+10	1	-1e10	1	-1e10	1	-1E+10	1	-1E+10	1	-1E+10	1
4902624	30	C	04/17/2025	06:33	-127.650	48.305	0	277.80	0	5.9566	0	33.9584	0	26.738	0	275.276	0	63.2	4	20.9	4	-1E+10	1	0.0511	4	0.000307	0	-1E+10	1	-1E+10	1	-1E+10	1
4902624	30	C	04/17/2025	06:33	-127.650	48.305	0	278.70	0	5.9472	0	33.9588	0	26.740	0	276.167	0	63.0	4	20.8	4	-1E+10	1	0.0511	4	0.000293	0	-1E+10	1	-1E+10	1	-1E+10	1
4902624	30	C	04/17/2025	06:33	-127.650	48.305	0	279.00	0	5.9440	0	33.9590	0	26.740	0	276.464	0	-1e10	1	-1e10	1	-1E+10	1	-1e10	1	-1e10	1	-1E+10	1	-1E+10	1	-1E+10	1
4902624	30	C	04/17/2025	06:33	-127.650	48.305	0	279.60	0	5.9393	0	33.9596	0	26.741	0	277.058	0	62.7	4	20.7	4	-1E+10	1	0.0511	4	0.000274	0	-1E+10	1	-1E+10	1	-1E+10	1
4902624	30	C	04/17/2025	06:33	-127.650	48.305	0	280.50	0	5.9322	0	33.9606	0	26.743	0	277.950	0	62.5	4	20.6	4	-1E+10	1	0.0511	4	0.000274	0	-1E+10	1	-1E+10	1	-1E+10	1
4902624	30	C	04/17/2025	06:33	-127.650	48.305	0	280.90	0	5.9290	0	33.9610	0	26.744	0	278.346	0	-1e10	1	-1e10	1	-1E+10	1	-1e10	1	-1e10	1	-1E+10	1	-1E+10	1	-1E+10	1
4902624	30	C	04/17/2025	06:33	-127.650	48.305	0	281.50	0	5.9245	0	33.9613	0	26.744	0	278.940	0	62.3	4	20.5	4	-1E+10	1	0.0569	4	0.000302	0	-1E+10	1	-1E+10	1	-1E+10	1
4902624	30	C	04/17/2025	06:33	-127.650	48.305	0	282.40	0	5.9177	0	33.9618	0	26.746	0	279.831	0	62.0	4	20.5	4	-1E+10	1	0.0584	4	0.000302	0	-1E+10	1	-1E+10	1	-1E+10	1
4902624	30	C	04/17/2025	06:33	-127.650	48.305	0	282.90	0	5.9140	0	33.9620	0	26.746	0	280.326	0	-1e10	1	-1e10	1	-1E+10	1	-1e10	1	-1e10	1	-1E+10	1	-1E+10	1	-1E+10	1
4902624	30	C	04/17/2025	06:33	-127.650	48.305	0	283.30	0	5.9096	0	33.9624	0	26.747	0	280.722	0	61.9	4	20.4	4	-1E+10	1	0.0551	4	0.000282	0	-1E+10	1	-1E+10	1	-1E+10	1
4902624	30	C	04/17/2025	06:33	-127.650	48.305	0	284.30	0	5.8987	0	33.9633	0	26.749	0	281.713	0	61.7	4	20.3	4	-1E+10	1	0.0511	4	0.000288	0	-1E+10	1	-1E+10	1	-1E+10	1
4902624	30	C	04/17/2025	06:33	-127.650	48.305	0	285.00	0	5.8910	0	33.9640	0	26.751	0	282.406	0	-1e10	1	-1e10	1	-1E+10	1	-1e10	1	-1e10	1	-1E+10	1	-1E+10	1	-1E+10	1
4902624	30	C	04/17/2025	06:33	-127.650	48.305	0	285.20	0	5.8902	0	33.9640	0	26.751	0	282.604	0	61.4	4	20.2	4	-1E+10	1	0.0535	4	0.000317	0	-1E+10	1	-1E+10	1	-1E+10	1
4902624	30	C	04/17/2025	06:33	-127.650	48.305	0	286.20	0	5.8862	0	33.9640	0	26.751	0	283.594	0	61.2	4	20.2	4	-1E+10	1	0.0571	4	0.000305	0	-1E+10	1	-1E+10	1	-1E+10	1
4902624	30	C	04/17/2025	06:33	-127.650	48.305	0	287.00	0	5.8830	0	33.9640	0	26.752	0	284.386	0	-1e10	1	-1e10	1	-1E+10	1	-1e10	1	-1e10	1	-1E+10	1	-1E+10	1	-1E+10	1
4902624	30	C	04/17/2025	06:33	-127.650	48.305	0	287.10	0	5.8824	0	33.9641	0	26.752	0	284.485	0	61.0	4	20.1	4	-1E+10	1	0.0511	4	0.000286	0	-1E+10	1	-1E+10	1	-1E+10	1
4902624	30	C	04/17/2025	06:33	-127.650	48.305	0	288.00	0	5.8770	0	33.9650	0	26.753	0	285.376	0	60.8	4	20.0	4	-1E+10	1	0.0511	4	0.000239	0	-1E+10	1	-1E+10	1	-1E+10	1
4902624	30	C	04/17/2025	06:33	-127.650	48.305	0	289.00	0	5.8710	0	33.9660	0	26.755	0	286.367	0	59.6	4	19.6	4	-1E+10	1	0.0511	4	0.000268	0	-1E+10	1	-1E+10	1	-1E+10	1
4902624	30	C	04/17/2025	06:33	-127.650	48.305	0	289.90	0	5.8670	0	33.9664	0	26.756	0	287.258	0	60.3	4	19.9	4	-1E+10	1	0.0557	4	0.000267	0	-1E+10	1	-1E+10	1	-1E+10	1
4902624	30	C	04/17/2025	06:33	-127.650	48.305	0	290.90	0	5.8625	0	33.9669	0	26.757	0	288.248	0	60.1	4	19.8	4	-1E+10	1	0.0496	4	0.000262	0	-1E+10	1	-1E+10	1	-1E+10	1
4902624	30	C	04/17/2025	06:33	-127.650	48.305	0	291.00	0	5.8620	0	33.9670	0	26.757	0	288.347	0	-1e10	1	-1e10	1	-1E+10	1	-1e10	1	-1e10	1	-1E+10	1	-1E+10	1	-1E+10	1
4902624	30	C	04/17/2025	06:33	-127.650	48.305	0	291.90	0	5.8557	0	33.9679	0	26.758	0	289.238	0	59.9	4	19.7	4	-1E+10	1	0.0518	4	0.000269	0	-1E+10	1	-1E+10	1	-1E+10	1
4902624	30	C	04/17/2025	06:33	-127.650	48.305	0	292.80	0	5.8494	0	33.9688	0	26.760	0	290.129	0	59.7	4	19.7	4	-1E+10	1	0.0584	4	0.000269	0	-1E+10	1	-1E+10	1	-1E+10	1
4902624	30	C	04/17/2025	06:33	-127.650	48.305	0	293.00	0	5.8480	0	33.9690	0	26.760	0	290.327	0	-1e10	1	-1e10	1	-1E+10	1	-1e10	1	-1e10	1	-1E+10	1	-1E+10	1	-1E+10	1
4902624	30	C	04/17/2025	06:33	-127.650	48.305	0	293.80	0	5.8455	0	33.9690	0	26.760	0	291.119	0	59.4	4	19.6	4	-1E+10	1	0.0584	4	0.000262	0	-1E+10	1	-1E+10	1	-1E+10	1
4902624	30	C	04/17/2025	06:33	-127.650	48.305	0	294.70	0	5.8426	0	33.9690	0	26.761	0	292.011	0	59.2	4	19.5	4	-1E+10	1	0.0581	4	0.000262	0	-1E+10	1	-1E+10	1	-1E+10	1
4902624	30	C	04/17/2025	06:33	-127.650	48.305	0	294.90	0	5.8420	0	33.9690	0	26.761	0	292.209	0	-1e10	1	-1e10	1	-1E+10	1	-1e10	1	-1e10	1	-1E+10	1	-1E+10	1	-1E+10	1
4902624	30	C	04/17/2025	06:33	-127.650	48.305	0	297.00	0	5.8340	0	33.9700	0	26.763	0	294.288	0	-1e10	1	-1e10	1	-1E+10	1	-1e10	1	-1e10	1	-1E+10	1	-1E+10	1	-1E+10	1
4902624	30	C	04/17/2025	06:33	-127.650	48.305	0	299.00	0	5.8260	0	33.9720	0	26.765	0	296.268	0	-1e10	1	-1e10	1	-1E+10	1	-1e10	1	-1e10	1	-1E+10	1	-1E+10	1	-1E+10	1
4902624	30	C	04/17/2025	06:33	-127.650	48.305	0	304.30	0	5.7986	0	33.9782	0	26.774	0	301.516	0	56.5	4	18.6	4	-1E+10	1	0.0514	4	0.000261	0	-1E+10	1	-1E+10	1	-1E+10	1
4902624	30	C	04/17/2025	06:33	-127.650	48.305	0	305.00	0	5.7950	0	33.9790	0	26.775	0	302.209	0	-1e10	1	-1e10	1	-1E+10	1	-1e10	1	-1e10	1	-1E+10	1	-1E+10	1	-1E+10	1
4902624	30	C	04/17/2025	06:33	-127.650	48.305	0	314.00	0	5.7421	0	33.9861	0	26.787	0	311.120	0	53.9	4	17.7	4	-1E+10	1	0.0584	4	0.000226	0	-1E+10	1	-1E+10	1	-1E+10	1
4902624	30	C	04/17/2025	06:33	-127.650	48.305	0	315.20	0	5.7350	0	33.9870	0	26.788	0	312.308	0	-1e10	1	-1e10	1	-1E+10	1	-1e10	1	-1e10	1	-1E+10	1	-1E+10	1	-1E+10	1
4902624	30	C	04/17/2025	06:33	-127.650	48.305	0	323.80	0	5.6747	0	33.9941	0	26.802	0	320.822	0	51.9	4	17.0	4	-1E+10	1	0.0584	4	0.000216	0	-1E+10	1	-1E+10	1	-1E+10	1
4902624	30	C	04/17/2025	06:33	-127.650	48.305	0	324.90	0	5.6670	0	33.9950	0	26.803	0	321.911	0	-1e10	1	-1e10	1	-1E+10	1	-1e10	1	-1e10	1	-1E+10	1	-1E+10	1	-1E+10	1
4902624	30	C	04/17/2025	06:33	-127.650	48.305	0	333.80	0	5.6341	0	34.0003	0	26.811	0	330.723	0	49.8	4	16.3	4	-1E+10	1	0.0584	4	0.000238	0	-1E+10	1	-1E+10	1	-1E+10	1
4902624	30	C	04/17/2025	06:33	-127.650	48.305	0	334.90	0	5.6300	0	34.0010	0	26.812	0	331.812	0	-1e10	1	-1e10	1	-1E+10	1	-1e10	1	-1e10	1	-1E+10	1	-1E+10	1	-1E+10	1
4902624	30	C	04/17/2025	06:33	-127.650	48.305	0	343.60	0	5.6021	0	34.0086	0	26.822	0	340.424	0	48.0	4	15.7	4	-1E+10	1	0.0584	4	0.000227	0	-1E+10	1	-1E+10	1	-1E+10	1
4902624	30	C	04/17/2025	06:33	-127.650	48.305	0	345.20	0	5.5970	0	34.0100	0	26.824	0	342.008	0	-1e10	1	-1e10	1	-1E+10	1	-1e10	1	-1e10	1	-1E+10	1	-1E+10	1	-1E+10	1
4902624	30	C	04/17/2025	06:33	-127.650	48.305	0	353.50	0	5.5696	0	34.0134	0	26.830	0	350.224	0	46.5	4	15.2	4	-1E+10	1	0.0584	4	0.000238	0	-1E+10	1	-1E+10	1	-1E+10	1
4902624	30	C	04/17/2025	06:33	-127.650	48.305	0	354.90	0	5.5650	0	34.0140	0	26.831	0	351.610	0	-1e10	1	-1e10	1	-1E+10	1	-1e10	1	-1e10	1	-1E+10	1	-1E+10	1	-1E+10	1
4902624	30	C	04/17/2025	06:33	-127.650	48.305	0	363.40	0	5.5301	0	34.0191	0	26.839	0	360.024	0	43.6	4	14.2	4	-1E+10	1	0.0584	4	0.000226	0	-1E+10	1	-1E+10	1	-1E+10	1
4902624	30	C	04/17/2025	06:33	-127.650	48.305	0	364.90	0	5.5240	0	34.0200	0	26.841	0	361.509	0	-1e10	1	-1e10	1	-1E+10	1	-1e10	1	-1e10	1	-1E+10	1	-1E+10	1	-1E+10	1
4902624	30	C	04/17/2025	06:33	-127.650	48.305	0	373.60	0	5.4851	0	34.0360	0	26.858	0	370.120	0	40.5	4	13.2	4	-1E+10	1	0.0584	4	0.000203	0	-1E+10	1	-1E+10	1	-1E+10	1
4902624	30	C	04/17/2025	06:33	-127.650	48.305	0	375.20	0	5.4780	0	34.0390	0	26.861	0	371.704	0	-1e10	1	-1e10	1	-1E+10	1	-1e10	1	-1e10	1	-1E+10	1	-1E+10	1	-1E+10	1
4902624	30	C	04/17/2025	06:33	-127.650	48.305	0	384.00	0	5.4380	0	34.0452	0	26.871	0	380.414	0	38.9	4	12.7	4	-1E+10	1	0.0581	4	0.000207	0	-1E+10	1	-1E+10	1	-1E+10	1
4902624	30	C	04/17/2025	06:33	-127.650	48.305	0	385.10	0	5.4330	0	34.0460	0	26.872	0	381.502	0	-1e10	1	-1e10	1	-1E+10	1	-1e10	1	-1e10	1	-1E+10	1	-1E+10	1	-1E+10	1
4902624	30	C	04/17/2025	06:33	-127.650	48.305	0	394.40	0	5.3761	0	34.0507	0	26.883	0	390.707	0	37.2	4	12.1	4	-1E+10	1	0.0511	4	0.000293	0	-1E+10	1	-1E+10	1	-1E+10	1
4902624	30	C	04/17/2025	06:33	-127.650	48.305	0	394.90	0	5.3730	0	34.0510	0	26.883	0	391.202	0	-1e10	1	-1e10	1	-1E+10	1	-1e10	1	-1e10	1	-1E+10	1	-1E+10	1	-1E+10	1
4902624	30	C	04/17/2025	06:33	-127.650	48.305	0	404.80	0	5.3060	0	34.0560	0	26.895	0	400.999	0	-1e10	1	-1e10	1	-1E+10	1	-1e10	1	-1e10	1	-1E+10	1	-1E+10	1	-1E+10	1
4902624	30	C	04/17/2025	06:33	-127.650	48.305	0	404.90	0	5.3054	0	34.0561	0	26.895	0	401.098	0	35.2	4	11.5	4	-1E+10	1	0.0514	4	0.000213	0	-1E+10	1	-1E+10	1	-1E+10	1
4902624	30	C	04/17/2025	06:33	-127.650	48.305	0	415.00	0	5.2430	0	34.0650	0	26.910	0	411.093	0	-1e10	1	-1e10	1	-1E+10	1	-1e10	1	-1e10	1	-1E+10	1	-1E+10	1	-1E+10	1
4902624	30	C	04/17/2025	06:33	-127.650	48.305	0	415.40	0	5.2406	0	34.0655	0	26.911	0	411.489	0	32.5	4	10.6	4	-1E+10	1	0.0584	4	0.000194	0	-1E+10	1	-1E+10	1	-1E+10	1
4902624	30	C	04/17/2025	06:33	-127.650	48.305	0	425.00	0	5.1840	0	34.0770	0	26.926	0	420.989	0	-1e10	1	-1e10	1	-1E+10	1	-1e10	1	-1e10	1	-1E+10	1	-1E+10	1	-1E+10	1
4902624	30	C	04/17/2025	06:33	-127.650	48.305	0	426.30	0	5.1759	0	34.0780	0	26.928	0	422.276	0	30.2	4	9.8	4	-1E+10	1	0.0584	4	0.000171	0	-1E+10	1	-1E+10	1	-1E+10	1
4902624	30	C	04/17/2025	06:33	-127.650	48.305	0	434.90	0	5.1220	0	34.0850	0	26.940	0	430.785	0	-1e10	1	-1e10	1	-1E+10	1	-1e10	1	-1e10	1	-1E+10	1	-1E+10	1	-1E+10	1
4902624	30	C	04/17/2025	06:33	-127.650	48.305	0	437.60	0	5.0994	0	34.0885	0	26.945	0	433.457	0	27.4	4	8.9	4	-1E+10	1	0.0589	4	0.000259	0	-1E+10	1	-1E+10	1	-1E+10	1
4902624	30	C	04/17/2025	06:33	-127.650	48.305	0	444.80	0	5.0390	0	34.0980	0	26.960	0	440.581	0	-1e10	1	-1e10	1	-1E+10	1	-1e10	1	-1e10	1	-1E+10	1	-1E+10	1	-1E+10	1
4902624	30	C	04/17/2025	06:33	-127.650	48.305	0	449.40	0	5.0082	0	34.1017	0	26.966	0	445.133	0	25.3	4	8.2	4	-1E+10	1	0.0724	4	0.000190	0	-1E+10	1	-1E+10	1	-1E+10	1
4902624	30	C	04/17/2025	06:33	-127.650	48.305	0	454.80	0	4.9720	0	34.1060	0	26.974	0	450.476	0	-1e10	1	-1e10	1	-1E+10	1	-1e10	1	-1e10	1	-1E+10	1	-1E+10	1	-1E+10	1
4902624	30	C	04/17/2025	06:33	-127.650	48.305	0	461.40	0	4.9487	0	34.1105	0	26.980	0	457.006	0	24.0	4	7.7	4	-1E+10	1	0.0578	4	0.000178	0	-1E+10	1	-1E+10	1	-1E+10	1
4902624	30	C	04/17/2025	06:33	-127.650	48.305	0	465.00	0	4.9360	0	34.1130	0	26.984	0	460.567	0	-1e10	1	-1e10	1	-1E+10	1	-1e10	1	-1e10	1	-1E+10	1	-1E+10	1	-1E+10	1
4902624	30	C	04/17/2025	06:33	-127.650	48.305	0	473.70	0	4.9044	0	34.1174	0	26.991	0	469.175	0	22.9	4	7.4	4	-1E+10	1	0.0445	4	0.000167	0	-1E+10	1	-1E+10	1	-1E+10	1
4902624	30	C	04/17/2025	06:33	-127.650	48.305	0	474.90	0	4.9000	0	34.1180	0	26.992	0	470.362	0	-1e10	1	-1e10	1	-1E+10	1	-1e10	1	-1e10	1	-1E+10	1	-1E+10	1	-1E+10	1
4902624	30	C	04/17/2025	06:33	-127.650	48.305	0	484.70	0	4.8654	0	34.1220	0	26.999	0	480.057	0	21.9	4	7.0	4	-1E+10	1	0.0587	4	0.000166	0	-1E+10	1	-1E+10	1	-1E+10	1
4902624	30	C	04/17/2025	06:33	-127.650	48.305	0	484.80	0	4.8650	0	34.1220	0	26.999	0	480.156	0	-1e10	1	-1e10	1	-1E+10	1	-1e10	1	-1e10	1	-1E+10	1	-1E+10	1	-1E+10	1
4902624	30	C	04/17/2025	06:33	-127.650	48.305	0	492.80	0	4.8170	0	34.1276	0	27.009	0	488.070	0	20.8	4	6.7	4	-1E+10	1	0.0657	4	0.000156	0	-1E+10	1	-1E+10	1	-1E+10	1
4902624	30	C	04/17/2025	06:33	-127.650	48.305	0	494.80	0	4.8050	0	34.1290	0	27.011	0	490.048	0	-1e10	1	-1e10	1	-1E+10	1	-1e10	1	-1e10	1	-1E+10	1	-1E+10	1	-1E+10	1
4902624	30	C	04/17/2025	06:33	-127.650	48.305	0	501.20	0	4.7799	0	34.1346	0	27.019	0	496.379	0	19.7	4	6.3	4	-1E+10	1	0.0654	4	0.000190	0	-1E+10	1	-1E+10	1	-1E+10	1
4902624	30	C	04/17/2025	06:33	-127.650	48.305	0	505.00	0	4.7650	0	34.1380	0	27.023	0	500.138	0	-1e10	1	-1e10	1	-1E+10	1	-1e10	1	-1e10	1	-1E+10	1	-1E+10	1	-1E+10	1
4902624	30	C	04/17/2025	06:33	-127.650	48.305	0	509.80	0	4.7403	0	34.1409	0	27.028	0	504.886	0	18.8	4	6.0	4	-1E+10	1	0.0584	4	0.000179	0	-1E+10	1	-1E+10	1	-1E+10	1
4902624	30	C	04/17/2025	06:33	-127.650	48.305	0	514.90	0	4.7140	0	34.1440	0	27.033	0	509.930	0	-1e10	1	-1e10	1	-1E+10	1	-1e10	1	-1e10	1	-1E+10	1	-1E+10	1	-1E+10	1
4902624	30	C	04/17/2025	06:33	-127.650	48.305	0	518.60	0	4.7011	0	34.1466	0	27.037	0	513.590	0	18.0	4	5.8	4	-1E+10	1	0.0582	4	0.000189	0	-1E+10	1	-1E+10	1	-1E+10	1
4902624	30	C	04/17/2025	06:33	-127.650	48.305	0	524.90	0	4.6790	0	34.1510	0	27.043	0	519.821	0	-1e10	1	-1e10	1	-1E+10	1	-1e10	1	-1e10	1	-1E+10	1	-1E+10	1	-1E+10	1
4902624	30	C	04/17/2025	06:33	-127.650	48.305	0	527.70	0	4.6709	0	34.1530	0	27.045	0	522.591	0	17.2	4	5.5	4	-1E+10	1	0.0511	4	0.000156	0	-1E+10	1	-1E+10	1	-1E+10	1
4902624	30	C	04/17/2025	06:33	-127.650	48.305	0	534.90	0	4.6500	0	34.1580	0	27.052	0	529.712	0	-1e10	1	-1e10	1	-1E+10	1	-1e10	1	-1e10	1	-1E+10	1	-1E+10	1	-1E+10	1
4902624	30	C	04/17/2025	06:33	-127.650	48.305	0	537.00	0	4.6427	0	34.1593	0	27.054	0	531.789	0	16.4	4	5.3	4	-1E+10	1	0.0514	4	0.000188	0	-1E+10	1	-1E+10	1	-1E+10	1
4902624	30	C	04/17/2025	06:33	-127.650	48.305	0	544.90	0	4.6150	0	34.1640	0	27.060	0	539.602	0	-1e10	1	-1e10	1	-1E+10	1	-1e10	1	-1e10	1	-1E+10	1	-1E+10	1	-1E+10	1
4902624	30	C	04/17/2025	06:33	-127.650	48.305	0	546.60	0	4.6110	0	34.1652	0	27.062	0	541.283	0	15.7	4	5.0	4	-1E+10	1	0.0581	4	0.000157	0	-1E+10	1	-1E+10	1	-1E+10	1
4902624	30	C	04/17/2025	06:33	-127.650	48.305	0	554.70	0	4.5920	0	34.1710	0	27.069	0	549.294	0	-1e10	1	-1e10	1	-1E+10	1	-1e10	1	-1e10	1	-1E+10	1	-1E+10	1	-1E+10	1
4902624	30	C	04/17/2025	06:33	-127.650	48.305	0	556.30	0	4.5890	0	34.1724	0	27.070	0	550.876	0	14.9	4	4.8	4	-1E+10	1	0.0514	4	0.000210	0	-1E+10	1	-1E+10	1	-1E+10	1
4902624	30	C	04/17/2025	06:33	-127.650	48.305	0	564.90	0	4.5730	0	34.1800	0	27.078	0	559.381	0	-1e10	1	-1e10	1	-1E+10	1	-1e10	1	-1e10	1	-1E+10	1	-1E+10	1	-1E+10	1
4902624	30	C	04/17/2025	06:33	-127.650	48.305	0	566.10	0	4.5696	0	34.1813	0	27.079	0	560.567	0	14.2	4	4.5	4	-1E+10	1	0.0584	4	0.000144	0	-1E+10	1	-1E+10	1	-1E+10	1
4902624	30	C	04/17/2025	06:33	-127.650	48.305	0	575.20	0	4.5440	0	34.1910	0	27.090	0	569.566	0	-1e10	1	-1e10	1	-1E+10	1	-1e10	1	-1e10	1	-1E+10	1	-1E+10	1	-1E+10	1
4902624	30	C	04/17/2025	06:33	-127.650	48.305	0	575.90	0	4.5417	0	34.1915	0	27.090	0	570.258	0	13.4	4	4.3	4	-1E+10	1	0.0584	4	0.000177	0	-1E+10	1	-1E+10	1	-1E+10	1
4902624	30	C	04/17/2025	06:33	-127.650	48.305	0	585.30	0	4.5110	0	34.1980	0	27.099	0	579.553	0	-1e10	1	-1e10	1	-1E+10	1	-1e10	1	-1e10	1	-1E+10	1	-1E+10	1	-1E+10	1
4902624	30	C	04/17/2025	06:33	-127.650	48.305	0	585.90	0	4.5097	0	34.1985	0	27.100	0	580.146	0	12.9	4	4.1	4	-1E+10	1	0.0584	4	0.000157	0	-1E+10	1	-1E+10	1	-1E+10	1
4902624	30	C	04/17/2025	06:33	-127.650	48.305	0	595.10	0	4.4900	0	34.2060	0	27.108	0	589.243	0	-1e10	1	-1e10	1	-1E+10	1	-1e10	1	-1e10	1	-1E+10	1	-1E+10	1	-1E+10	1
4902624	30	C	04/17/2025	06:33	-127.650	48.305	0	596.00	0	4.4880	0	34.2067	0	27.109	0	590.133	0	12.5	4	4.0	4	-1E+10	1	0.0581	4	0.000225	0	-1E+10	1	-1E+10	1	-1E+10	1
4902624	30	C	04/17/2025	06:33	-127.650	48.305	0	604.80	0	4.4680	0	34.2140	0	27.117	0	598.833	0	-1e10	1	-1e10	1	-1E+10	1	-1e10	1	-1e10	1	-1E+10	1	-1E+10	1	-1E+10	1
4902624	30	C	04/17/2025	06:33	-127.650	48.305	0	606.40	0	4.4650	0	34.2154	0	27.118	0	600.415	0	11.8	4	3.8	4	-1E+10	1	0.0511	4	0.000235	0	-1E+10	1	-1E+10	1	-1E+10	1
4902624	30	C	04/17/2025	06:33	-127.650	48.305	0	615.10	0	4.4490	0	34.2230	0	27.126	0	609.017	0	-1e10	1	-1e10	1	-1E+10	1	-1e10	1	-1e10	1	-1E+10	1	-1E+10	1	-1E+10	1
4902624	30	C	04/17/2025	06:33	-127.650	48.305	0	617.00	0	4.4420	0	34.2243	0	27.128	0	610.895	0	11.3	4	3.6	4	-1E+10	1	0.0518	4	0.000200	0	-1E+10	1	-1E+10	1	-1E+10	1
4902624	30	C	04/17/2025	06:33	-127.650	48.305	0	625.20	0	4.4120	0	34.2300	0	27.135	0	619.002	0	-1e10	1	-1e10	1	-1E+10	1	-1e10	1	-1e10	1	-1E+10	1	-1E+10	1	-1E+10	1
4902624	30	C	04/17/2025	06:33	-127.650	48.305	0	627.70	0	4.4062	0	34.2320	0	27.138	0	621.473	0	10.8	4	3.4	4	-1E+10	1	0.0652	4	0.000190	0	-1E+10	1	-1E+10	1	-1E+10	1
4902624	30	C	04/17/2025	06:33	-127.650	48.305	0	635.10	0	4.3890	0	34.2380	0	27.144	0	628.789	0	-1e10	1	-1e10	1	-1E+10	1	-1e10	1	-1e10	1	-1E+10	1	-1E+10	1	-1E+10	1
4902624	30	C	04/17/2025	06:33	-127.650	48.305	0	638.80	0	4.3769	0	34.2391	0	27.147	0	632.446	0	10.5	4	3.3	4	-1E+10	1	0.0516	4	0.000212	0	-1E+10	1	-1E+10	1	-1E+10	1
4902624	30	C	04/17/2025	06:33	-127.650	48.305	0	644.90	0	4.3570	0	34.2410	0	27.150	0	638.476	0	-1e10	1	-1e10	1	-1E+10	1	-1e10	1	-1e10	1	-1E+10	1	-1E+10	1	-1E+10	1
4902624	30	C	04/17/2025	06:33	-127.650	48.305	0	650.20	0	4.3439	0	34.2457	0	27.155	0	643.715	0	10.0	4	3.2	4	-1E+10	1	0.0654	4	0.000214	0	-1E+10	1	-1E+10	1	-1E+10	1
4902624	30	C	04/17/2025	06:33	-127.650	48.305	0	655.00	0	4.3320	0	34.2500	0	27.160	0	648.460	0	-1e10	1	-1e10	1	-1E+10	1	-1e10	1	-1e10	1	-1E+10	1	-1E+10	1	-1E+10	1
4902624	30	C	04/17/2025	06:33	-127.650	48.305	0	662.00	0	4.3121	0	34.2541	0	27.165	0	655.379	0	9.7	4	3.1	4	-1E+10	1	0.0578	4	0.000246	0	-1E+10	1	-1E+10	1	-1E+10	1
4902624	30	C	04/17/2025	06:33	-127.650	48.305	0	665.20	0	4.3030	0	34.2560	0	27.168	0	658.542	0	-1e10	1	-1e10	1	-1E+10	1	-1e10	1	-1e10	1	-1E+10	1	-1E+10	1	-1E+10	1
4902624	30	C	04/17/2025	06:33	-127.650	48.305	0	674.10	0	4.2870	0	34.2605	0	27.173	0	667.339	0	9.3	4	3.0	4	-1E+10	1	0.0444	4	0.000211	0	-1E+10	1	-1E+10	1	-1E+10	1
4902624	30	C	04/17/2025	06:33	-127.650	48.305	0	675.20	0	4.2850	0	34.2610	0	27.174	0	668.426	0	-1e10	1	-1e10	1	-1E+10	1	-1e10	1	-1e10	1	-1E+10	1	-1E+10	1	-1E+10	1
4902624	30	C	04/17/2025	06:33	-127.650	48.305	0	685.30	0	4.2680	0	34.2660	0	27.180	0	678.408	0	-1e10	1	-1e10	1	-1E+10	1	-1e10	1	-1e10	1	-1E+10	1	-1E+10	1	-1E+10	1
4902624	30	C	04/17/2025	06:33	-127.650	48.305	0	686.10	0	4.2661	0	34.2665	0	27.180	0	679.199	0	9.1	4	2.9	4	-1E+10	1	0.0581	4	0.000189	0	-1E+10	1	-1E+10	1	-1E+10	1
4902624	30	C	04/17/2025	06:33	-127.650	48.305	0	694.90	0	4.2450	0	34.2720	0	27.187	0	687.896	0	-1e10	1	-1e10	1	-1E+10	1	-1e10	1	-1e10	1	-1E+10	1	-1E+10	1	-1E+10	1
4902624	30	C	04/17/2025	06:33	-127.650	48.305	0	698.10	0	4.2346	0	34.2739	0	27.190	0	691.058	0	8.7	4	2.8	4	-1E+10	1	0.0511	4	0.000201	0	-1E+10	1	-1E+10	1	-1E+10	1
4902624	30	C	04/17/2025	06:33	-127.650	48.305	0	705.10	0	4.2120	0	34.2780	0	27.195	0	697.976	0	-1e10	1	-1e10	1	-1E+10	1	-1e10	1	-1e10	1	-1E+10	1	-1E+10	1	-1E+10	1
4902624	30	C	04/17/2025	06:33	-127.650	48.305	0	710.20	0	4.1940	0	34.2810	0	27.200	0	703.016	0	8.3	4	2.6	4	-1E+10	1	0.0515	4	0.000223	0	-1E+10	1	-1E+10	1	-1E+10	1
4902624	30	C	04/17/2025	06:33	-127.650	48.305	0	715.30	0	4.1760	0	34.2840	0	27.204	0	708.056	0	-1e10	1	-1e10	1	-1E+10	1	-1e10	1	-1e10	1	-1E+10	1	-1E+10	1	-1E+10	1
4902624	30	C	04/17/2025	06:33	-127.650	48.305	0	720.10	0	4.1608	0	34.2855	0	27.207	0	712.799	0	8.2	4	2.6	4	-1E+10	1	0.0584	4	0.000210	0	-1E+10	1	-1E+10	1	-1E+10	1
4902624	30	C	04/17/2025	06:33	-127.650	48.305	0	725.10	0	4.1450	0	34.2870	0	27.210	0	717.739	0	-1e10	1	-1e10	1	-1E+10	1	-1e10	1	-1e10	1	-1E+10	1	-1E+10	1	-1E+10	1
4902624	30	C	04/17/2025	06:33	-127.650	48.305	0	728.10	0	4.1383	0	34.2885	0	27.212	0	720.704	0	8.0	4	2.5	4	-1E+10	1	0.0578	4	0.000166	0	-1E+10	1	-1E+10	1	-1E+10	1
4902624	30	C	04/17/2025	06:33	-127.650	48.305	0	735.00	0	4.1230	0	34.2920	0	27.216	0	727.522	0	-1e10	1	-1e10	1	-1E+10	1	-1e10	1	-1e10	1	-1E+10	1	-1E+10	1	-1E+10	1
4902624	30	C	04/17/2025	06:33	-127.650	48.305	0	736.00	0	4.1203	0	34.2926	0	27.217	0	728.510	0	7.9	4	2.5	4	-1E+10	1	0.0446	4	0.000198	0	-1E+10	1	-1E+10	1	-1E+10	1
4902624	30	C	04/17/2025	06:33	-127.650	48.305	0	744.20	0	4.0982	0	34.2975	0	27.223	0	736.612	0	7.9	4	2.5	4	-1E+10	1	0.0649	4	0.000143	0	-1E+10	1	-1E+10	1	-1E+10	1
4902624	30	C	04/17/2025	06:33	-127.650	48.305	0	745.00	0	4.0960	0	34.2980	0	27.224	0	737.402	0	-1e10	1	-1e10	1	-1E+10	1	-1e10	1	-1e10	1	-1E+10	1	-1E+10	1	-1E+10	1
4902624	30	C	04/17/2025	06:33	-127.650	48.305	0	752.50	0	4.0841	0	34.3032	0	27.229	0	744.812	0	7.7	4	2.4	4	-1E+10	1	0.0441	4	0.000187	0	-1E+10	1	-1E+10	1	-1E+10	1
4902624	30	C	04/17/2025	06:33	-127.650	48.305	0	755.10	0	4.0800	0	34.3050	0	27.231	0	747.381	0	-1e10	1	-1e10	1	-1E+10	1	-1e10	1	-1e10	1	-1E+10	1	-1E+10	1	-1E+10	1
4902624	30	C	04/17/2025	06:33	-127.650	48.305	0	760.90	0	4.0642	0	34.3085	0	27.235	0	753.112	0	7.6	4	2.4	4	-1E+10	1	0.0519	4	0.000164	0	-1E+10	1	-1E+10	1	-1E+10	1
4902624	30	C	04/17/2025	06:33	-127.650	48.305	0	765.00	0	4.0530	0	34.3110	0	27.239	0	757.162	0	-1e10	1	-1e10	1	-1E+10	1	-1e10	1	-1e10	1	-1E+10	1	-1E+10	1	-1E+10	1
4902624	30	C	04/17/2025	06:33	-127.650	48.305	0	769.50	0	4.0432	0	34.3132	0	27.241	0	761.608	0	7.6	4	2.4	4	-1E+10	1	0.0725	4	0.000164	0	-1E+10	1	-1E+10	1	-1E+10	1
4902624	30	C	04/17/2025	06:33	-127.650	48.305	0	775.10	0	4.0310	0	34.3160	0	27.245	0	767.140	0	-1e10	1	-1e10	1	-1E+10	1	-1e10	1	-1e10	1	-1E+10	1	-1E+10	1	-1E+10	1
4902624	30	C	04/17/2025	06:33	-127.650	48.305	0	778.50	0	4.0237	0	34.3177	0	27.247	0	770.499	0	7.5	4	2.4	4	-1E+10	1	0.0587	4	0.000165	0	-1E+10	1	-1E+10	1	-1E+10	1
4902624	30	C	04/17/2025	06:33	-127.650	48.305	0	785.30	0	4.0090	0	34.3210	0	27.251	0	777.216	0	-1e10	1	-1e10	1	-1E+10	1	-1e10	1	-1e10	1	-1E+10	1	-1E+10	1	-1E+10	1
4902624	30	C	04/17/2025	06:33	-127.650	48.305	0	787.80	0	4.0031	0	34.3220	0	27.253	0	779.686	0	7.4	4	2.3	4	-1E+10	1	0.0657	4	0.000176	0	-1E+10	1	-1E+10	1	-1E+10	1
4902624	30	C	04/17/2025	06:33	-127.650	48.305	0	795.10	0	3.9860	0	34.3250	0	27.257	0	786.897	0	-1e10	1	-1e10	1	-1E+10	1	-1e10	1	-1e10	1	-1E+10	1	-1E+10	1	-1E+10	1
4902624	30	C	04/17/2025	06:33	-127.650	48.305	0	797.20	0	3.9813	0	34.3258	0	27.258	0	788.971	0	7.5	4	2.4	4	-1E+10	1	0.0654	4	0.000176	0	-1E+10	1	-1E+10	1	-1E+10	1
4902624	30	C	04/17/2025	06:33	-127.650	48.305	0	805.00	0	3.9640	0	34.3290	0	27.262	0	796.676	0	-1e10	1	-1e10	1	-1E+10	1	-1e10	1	-1e10	1	-1E+10	1	-1E+10	1	-1E+10	1
4902624	30	C	04/17/2025	06:33	-127.650	48.305	0	806.90	0	3.9604	0	34.3298	0	27.263	0	798.553	0	7.4	4	2.3	4	-1E+10	1	0.0584	4	0.000175	0	-1E+10	1	-1E+10	1	-1E+10	1
4902624	30	C	04/17/2025	06:33	-127.650	48.305	0	814.90	0	3.9450	0	34.3330	0	27.267	0	806.455	0	-1e10	1	-1e10	1	-1E+10	1	-1e10	1	-1e10	1	-1E+10	1	-1E+10	1	-1E+10	1
4902624	30	C	04/17/2025	06:33	-127.650	48.305	0	816.70	0	3.9393	0	34.3339	0	27.269	0	808.232	0	7.4	4	2.3	4	-1E+10	1	0.0578	4	0.000163	0	-1E+10	1	-1E+10	1	-1E+10	1
4902624	30	C	04/17/2025	06:33	-127.650	48.305	0	825.00	0	3.9130	0	34.3380	0	27.275	0	816.430	0	-1e10	1	-1e10	1	-1E+10	1	-1e10	1	-1e10	1	-1E+10	1	-1E+10	1	-1E+10	1
4902624	30	C	04/17/2025	06:33	-127.650	48.305	0	826.60	0	3.9096	0	34.3390	0	27.276	0	818.010	0	7.5	4	2.4	4	-1E+10	1	0.0444	4	0.000152	0	-1E+10	1	-1E+10	1	-1E+10	1
4902624	30	C	04/17/2025	06:33	-127.650	48.305	0	834.90	0	3.8920	0	34.3440	0	27.282	0	826.208	0	-1e10	1	-1e10	1	-1E+10	1	-1e10	1	-1e10	1	-1E+10	1	-1E+10	1	-1E+10	1
4902624	30	C	04/17/2025	06:33	-127.650	48.305	0	836.60	0	3.8881	0	34.3447	0	27.283	0	827.887	0	7.4	4	2.3	4	-1E+10	1	0.0584	4	0.000152	0	-1E+10	1	-1E+10	1	-1E+10	1
4902624	30	C	04/17/2025	06:33	-127.650	48.305	0	844.80	0	3.8690	0	34.3480	0	27.287	0	835.985	0	-1e10	1	-1e10	1	-1E+10	1	-1e10	1	-1e10	1	-1E+10	1	-1E+10	1	-1E+10	1
4902624	30	C	04/17/2025	06:33	-127.650	48.305	0	846.60	0	3.8648	0	34.3489	0	27.288	0	837.762	0	7.5	4	2.4	4	-1E+10	1	0.0581	4	0.000163	0	-1E+10	1	-1E+10	1	-1E+10	1
4902624	30	C	04/17/2025	06:33	-127.650	48.305	0	855.10	0	3.8450	0	34.3530	0	27.294	0	846.157	0	-1e10	1	-1e10	1	-1E+10	1	-1e10	1	-1e10	1	-1E+10	1	-1E+10	1	-1E+10	1
4902624	30	C	04/17/2025	06:33	-127.650	48.305	0	856.80	0	3.8412	0	34.3533	0	27.294	0	847.835	0	7.6	4	2.4	4	-1E+10	1	0.0511	4	0.000152	0	-1E+10	1	-1E+10	1	-1E+10	1
4902624	30	C	04/17/2025	06:33	-127.650	48.305	0	865.00	0	3.8230	0	34.3550	0	27.298	0	855.933	0	-1e10	1	-1e10	1	-1E+10	1	-1e10	1	-1e10	1	-1E+10	1	-1E+10	1	-1E+10	1
4902624	30	C	04/17/2025	06:33	-127.650	48.305	0	867.30	0	3.8176	0	34.3564	0	27.299	0	858.204	0	7.6	4	2.4	4	-1E+10	1	0.0514	4	0.000152	0	-1E+10	1	-1E+10	1	-1E+10	1
4902624	30	C	04/17/2025	06:33	-127.650	48.305	0	874.80	0	3.8000	0	34.3610	0	27.305	0	865.610	0	-1e10	1	-1e10	1	-1E+10	1	-1e10	1	-1e10	1	-1E+10	1	-1E+10	1	-1E+10	1
4902624	30	C	04/17/2025	06:33	-127.650	48.305	0	878.10	0	3.7918	0	34.3633	0	27.307	0	868.868	0	7.8	4	2.4	4	-1E+10	1	0.0581	4	0.000153	0	-1E+10	1	-1E+10	1	-1E+10	1
4902624	30	C	04/17/2025	06:33	-127.650	48.305	0	884.90	0	3.7750	0	34.3680	0	27.313	0	875.583	0	-1e10	1	-1e10	1	-1E+10	1	-1e10	1	-1e10	1	-1E+10	1	-1E+10	1	-1E+10	1
4902624	30	C	04/17/2025	06:33	-127.650	48.305	0	889.10	0	3.7677	0	34.3696	0	27.315	0	879.729	0	8.1	4	2.6	4	-1E+10	1	0.0514	4	0.000176	0	-1E+10	1	-1E+10	1	-1E+10	1
4902624	30	C	04/17/2025	06:33	-127.650	48.305	0	895.20	0	3.7570	0	34.3720	0	27.318	0	885.752	0	-1e10	1	-1e10	1	-1E+10	1	-1e10	1	-1e10	1	-1E+10	1	-1E+10	1	-1E+10	1
4902624	30	C	04/17/2025	06:33	-127.650	48.305	0	900.50	0	3.7475	0	34.3736	0	27.320	0	890.985	0	8.2	4	2.6	4	-1E+10	1	0.0584	4	0.000186	0	-1E+10	1	-1E+10	1	-1E+10	1
4902624	30	C	04/17/2025	06:33	-127.650	48.305	0	905.20	0	3.7390	0	34.3750	0	27.322	0	895.625	0	-1e10	1	-1e10	1	-1E+10	1	-1e10	1	-1e10	1	-1E+10	1	-1E+10	1	-1E+10	1
4902624	30	C	04/17/2025	06:33	-127.650	48.305	0	912.00	0	3.7107	0	34.3784	0	27.328	0	902.339	0	8.5	4	2.7	4	-1E+10	1	0.0584	4	0.000163	0	-1E+10	1	-1E+10	1	-1E+10	1
4902624	30	C	04/17/2025	06:33	-127.650	48.305	0	915.30	0	3.6970	0	34.3800	0	27.330	0	905.597	0	-1e10	1	-1e10	1	-1E+10	1	-1e10	1	-1e10	1	-1E+10	1	-1E+10	1	-1E+10	1
4902624	30	C	04/17/2025	06:33	-127.650	48.305	0	923.70	0	3.6693	0	34.3834	0	27.336	0	913.889	0	8.2	4	2.6	4	-1E+10	1	0.0577	4	0.000152	0	-1E+10	1	-1E+10	1	-1E+10	1
4902624	30	C	04/17/2025	06:33	-127.650	48.305	0	925.30	0	3.6640	0	34.3840	0	27.337	0	915.469	0	-1e10	1	-1e10	1	-1E+10	1	-1e10	1	-1e10	1	-1E+10	1	-1E+10	1	-1E+10	1
4902624	30	C	04/17/2025	06:33	-127.650	48.305	0	931.60	0	3.6447	0	34.3859	0	27.340	0	921.688	0	8.3	4	2.6	4	-1E+10	1	0.0446	4	0.000174	0	-1E+10	1	-1E+10	1	-1E+10	1
4902624	30	C	04/17/2025	06:33	-127.650	48.305	0	935.10	0	3.6340	0	34.3870	0	27.342	0	925.143	0	-1e10	1	-1e10	1	-1E+10	1	-1e10	1	-1e10	1	-1E+10	1	-1E+10	1	-1E+10	1
4902624	30	C	04/17/2025	06:33	-127.650	48.305	0	939.50	0	3.6238	0	34.3883	0	27.344	0	929.486	0	30.1	4	9.4	4	-1E+10	1	0.0657	4	0.000151	0	-1E+10	1	-1E+10	1	-1E+10	1
4902624	30	C	04/17/2025	06:33	-127.650	48.305	0	945.00	0	3.6110	0	34.3900	0	27.347	0	934.915	0	-1e10	1	-1e10	1	-1E+10	1	-1e10	1	-1e10	1	-1E+10	1	-1E+10	1	-1E+10	1
4902624	30	C	04/17/2025	06:33	-127.650	48.305	0	947.50	0	3.6037	0	34.3913	0	27.349	0	937.383	0	26.4	4	8.3	4	-1E+10	1	0.0652	4	0.000151	0	-1E+10	1	-1E+10	1	-1E+10	1
4902624	30	C	04/17/2025	06:33	-127.650	48.305	0	955.00	0	3.5820	0	34.3950	0	27.354	0	944.786	0	-1e10	1	-1e10	1	-1E+10	1	-1e10	1	-1e10	1	-1E+10	1	-1E+10	1	-1E+10	1
4902624	30	C	04/17/2025	06:33	-127.650	48.305	0	955.80	0	3.5806	0	34.3954	0	27.354	0	945.576	0	34.5	4	10.8	4	-1E+10	1	0.0511	4	0.000140	0	-1E+10	1	-1E+10	1	-1E+10	1
4902624	30	C	04/17/2025	06:33	-127.650	48.305	0	964.20	0	3.5656	0	34.3996	0	27.359	0	953.867	0	28.7	4	9.0	4	-1E+10	1	0.0519	4	0.000151	0	-1E+10	1	-1E+10	1	-1E+10	1
4902624	30	C	04/17/2025	06:33	-127.650	48.305	0	965.10	0	3.5640	0	34.4000	0	27.360	0	954.755	0	-1e10	1	-1e10	1	-1E+10	1	-1e10	1	-1e10	1	-1E+10	1	-1E+10	1	-1E+10	1
4902624	30	C	04/17/2025	06:33	-127.650	48.305	0	972.70	0	3.5437	0	34.4023	0	27.363	0	962.256	0	41.2	4	12.9	4	-1E+10	1	0.0725	4	0.000161	0	-1E+10	1	-1E+10	1	-1E+10	1
4902624	30	C	04/17/2025	06:33	-127.650	48.305	0	975.20	0	3.5370	0	34.4030	0	27.365	0	964.724	0	-1e10	1	-1e10	1	-1E+10	1	-1e10	1	-1e10	1	-1E+10	1	-1E+10	1	-1E+10	1
4902624	30	C	04/17/2025	06:33	-127.650	48.305	0	981.60	0	3.5254	0	34.4056	0	27.368	0	971.040	0	39.9	4	12.5	4	-1E+10	1	0.0581	4	0.000130	0	-1E+10	1	-1E+10	1	-1E+10	1
4902624	30	C	04/17/2025	06:33	-127.650	48.305	0	985.10	0	3.5190	0	34.4070	0	27.370	0	974.494	0	-1e10	1	-1e10	1	-1E+10	1	-1e10	1	-1e10	1	-1E+10	1	-1E+10	1	-1E+10	1
4902624	30	C	04/17/2025	06:33	-127.650	48.305	0	990.60	0	3.5129	0	34.4081	0	27.371	0	979.922	0	28.8	4	9.0	4	-1E+10	1	0.0513	4	0.000185	0	-1E+10	1	-1E+10	1	-1E+10	1
4902624	30	C	04/17/2025	06:33	-127.650	48.305	0	995.00	0	3.5080	0	34.4090	0	27.372	0	984.264	0	-1e10	1	-1e10	1	-1E+10	1	-1e10	1	-1e10	1	-1E+10	1	-1E+10	1	-1E+10	1
4902624	30	C	04/17/2025	06:33	-127.650	48.305	0	1007.50	0	3.4775	0	34.4123	0	27.378	0	996.600	0	23.3	4	7.3	4	-1E+10	1	0.0584	4	0.000162	0	-1E+10	1	-1E+10	1	-1E+10	1
4902624	30	C	04/17/2025	06:33	-127.650	48.305	0	1025.30	0	3.4340	0	34.4170	0	27.386	0	1014.164	0	-1e10	1	-1e10	1	-1E+10	1	-1e10	1	-1e10	1	-1E+10	1	-1E+10	1	-1E+10	1
4902624	30	C	04/17/2025	06:33	-127.650	48.305	0	1026.80	0	3.4310	0	34.4175	0	27.387	0	1015.644	0	52.5	4	16.4	4	-1E+10	1	0.0584	4	0.000140	0	-1E+10	1	-1E+10	1	-1E+10	1
4902624	30	C	04/17/2025	06:33	-127.650	48.305	0	1046.00	0	3.3932	0	34.4237	0	27.395	0	1034.588	0	58.3	4	18.2	4	-1E+10	1	0.0584	4	0.000208	0	-1E+10	1	-1E+10	1	-1E+10	1
4902624	30	C	04/17/2025	06:33	-127.650	48.305	0	1065.60	0	3.3545	0	34.4300	0	27.404	0	1053.925	0	67.4	4	21.0	4	-1E+10	1	0.0584	4	0.000184	0	-1E+10	1	-1E+10	1	-1E+10	1
4902624	30	C	04/17/2025	06:33	-127.650	48.305	0	1075.00	0	3.3360	0	34.4330	0	27.408	0	1063.199	0	-1e10	1	-1e10	1	-1E+10	1	-1e10	1	-1e10	1	-1E+10	1	-1E+10	1	-1E+10	1
4902624	30	C	04/17/2025	06:33	-127.650	48.305	0	1086.00	0	3.3137	0	34.4356	0	27.413	0	1074.050	0	66.5	4	20.7	4	-1E+10	1	0.0583	4	0.000151	0	-1E+10	1	-1E+10	1	-1E+10	1
4902624	30	C	04/17/2025	06:33	-127.650	48.305	0	1107.10	0	3.2709	0	34.4407	0	27.421	0	1094.862	0	69.2	4	21.5	4	-1E+10	1	0.0513	4	0.000207	0	-1E+10	1	-1E+10	1	-1E+10	1
4902624	30	C	04/17/2025	06:33	-127.650	48.305	0	1124.80	0	3.2350	0	34.4450	0	27.428	0	1112.320	0	-1e10	1	-1e10	1	-1E+10	1	-1e10	1	-1e10	1	-1E+10	1	-1E+10	1	-1E+10	1
4902624	30	C	04/17/2025	06:33	-127.650	48.305	0	1129.60	0	3.2254	0	34.4463	0	27.430	0	1117.054	0	67.0	4	20.8	4	-1E+10	1	0.0584	4	0.000162	0	-1E+10	1	-1E+10	1	-1E+10	1
4902624	30	C	04/17/2025	06:33	-127.650	48.305	0	1153.30	0	3.1781	0	34.4528	0	27.439	0	1140.426	0	58.2	4	18.0	4	-1E+10	1	0.0586	4	0.000208	0	-1E+10	1	-1E+10	1	-1E+10	1
4902624	30	C	04/17/2025	06:33	-127.650	48.305	0	1169.90	0	3.1450	0	34.4574	0	27.446	0	1156.796	0	42.0	4	13.0	4	-1E+10	1	0.0655	4	0.000219	0	-1E+10	1	-1E+10	1	-1E+10	1
4902624	30	C	04/17/2025	06:33	-127.650	48.305	0	1175.90	0	3.1330	0	34.4590	0	27.449	0	1162.712	0	-1e10	1	-1e10	1	-1E+10	1	-1e10	1	-1e10	1	-1E+10	1	-1E+10	1	-1E+10	1
4902624	30	C	04/17/2025	06:33	-127.650	48.305	0	1186.40	0	3.1123	0	34.4614	0	27.453	0	1173.065	0	50.8	4	15.7	4	-1E+10	1	0.0584	4	0.000196	0	-1E+10	1	-1E+10	1	-1E+10	1
4902624	30	C	04/17/2025	06:33	-127.650	48.305	0	1203.60	0	3.0783	0	34.4653	0	27.459	0	1190.023	0	53.0	4	16.4	4	-1E+10	1	0.0584	4	0.000219	0	-1E+10	1	-1E+10	1	-1E+10	1
4902624	30	C	04/17/2025	06:33	-127.650	48.305	0	1221.70	0	3.0425	0	34.4694	0	27.465	0	1207.866	0	46.0	4	14.2	4	-1E+10	1	0.0586	4	0.000218	0	-1E+10	1	-1E+10	1	-1E+10	1
4902624	30	C	04/17/2025	06:33	-127.650	48.305	0	1224.50	0	3.0370	0	34.4700	0	27.466	0	1210.627	0	-1e10	1	-1e10	1	-1E+10	1	-1e10	1	-1e10	1	-1E+10	1	-1E+10	1	-1E+10	1
4902624	30	C	04/17/2025	06:33	-127.650	48.305	0	1240.60	0	3.0032	0	34.4741	0	27.473	0	1226.497	0	62.9	4	19.4	4	-1E+10	1	0.0656	4	0.000184	0	-1E+10	1	-1E+10	1	-1E+10	1
4902624	30	C	04/17/2025	06:33	-127.650	48.305	0	1260.40	0	2.9616	0	34.4792	0	27.481	0	1246.014	0	81.4	4	25.1	4	-1E+10	1	0.0584	4	0.000208	0	-1E+10	1	-1E+10	1	-1E+10	1
4902624	30	C	04/17/2025	06:33	-127.650	48.305	0	1275.00	0	2.9310	0	34.4830	0	27.487	0	1260.403	0	-1e10	1	-1e10	1	-1E+10	1	-1e10	1	-1e10	1	-1E+10	1	-1E+10	1	-1E+10	1
4902624	30	C	04/17/2025	06:33	-127.650	48.305	0	1280.90	0	2.9217	0	34.4842	0	27.488	0	1266.218	0	80.6	4	24.8	4	-1E+10	1	0.0585	4	0.000255	0	-1E+10	1	-1E+10	1	-1E+10	1
4902624	30	C	04/17/2025	06:33	-127.650	48.305	0	1302.10	0	2.8883	0	34.4884	0	27.495	0	1287.110	0	81.0	4	24.9	4	-1E+10	1	0.0657	4	0.000310	0	-1E+10	1	-1E+10	1	-1E+10	1
4902624	30	C	04/17/2025	06:33	-127.650	48.305	0	1323.60	0	2.8544	0	34.4927	0	27.502	0	1308.296	0	84.4	4	26.0	4	-1E+10	1	0.0652	4	0.000182	0	-1E+10	1	-1E+10	1	-1E+10	1
4902624	30	C	04/17/2025	06:33	-127.650	48.305	0	1325.10	0	2.8520	0	34.4930	0	27.502	0	1309.774	0	-1e10	1	-1e10	1	-1E+10	1	-1e10	1	-1e10	1	-1E+10	1	-1E+10	1	-1E+10	1
4902624	30	C	04/17/2025	06:33	-127.650	48.305	0	1345.60	0	2.8070	0	34.4971	0	27.509	0	1329.972	0	82.8	4	25.4	4	-1E+10	1	0.0371	4	0.000159	0	-1E+10	1	-1E+10	1	-1E+10	1
4902624	30	C	04/17/2025	06:33	-127.650	48.305	0	1368.10	0	2.7577	0	34.5017	0	27.517	0	1352.139	0	81.2	4	24.9	4	-1E+10	1	0.0657	4	0.000171	0	-1E+10	1	-1E+10	1	-1E+10	1
4902624	30	C	04/17/2025	06:33	-127.650	48.305	0	1374.80	0	2.7430	0	34.5030	0	27.520	0	1358.739	0	-1e10	1	-1e10	1	-1E+10	1	-1e10	1	-1e10	1	-1E+10	1	-1E+10	1	-1E+10	1
4902624	30	C	04/17/2025	06:33	-127.650	48.305	0	1390.60	0	2.7104	0	34.5067	0	27.526	0	1374.303	0	100.6	4	30.8	4	-1E+10	1	0.0656	4	0.000195	0	-1E+10	1	-1E+10	1	-1E+10	1
4902624	30	C	04/17/2025	06:33	-127.650	48.305	0	1414.30	0	2.6614	0	34.5122	0	27.534	0	1397.647	0	106.4	4	32.6	4	-1E+10	1	0.0582	4	0.000901	0	-1E+10	1	-1E+10	1	-1E+10	1
4902624	30	C	04/17/2025	06:33	-127.650	48.305	0	1426.10	0	2.6370	0	34.5150	0	27.539	0	1409.269	0	-1e10	1	-1e10	1	-1E+10	1	-1e10	1	-1e10	1	-1E+10	1	-1E+10	1	-1E+10	1
4902624	30	C	04/17/2025	06:33	-127.650	48.305	0	1432.80	0	2.6248	0	34.5164	0	27.541	0	1415.867	0	80.9	4	24.7	4	-1E+10	1	0.0510	4	0.000181	0	-1E+10	1	-1E+10	1	-1E+10	1
4902624	30	C	04/17/2025	06:33	-127.650	48.305	0	1449.30	0	2.5947	0	34.5198	0	27.546	0	1432.116	0	81.6	4	24.9	4	-1E+10	1	0.0438	4	0.000159	0	-1E+10	1	-1E+10	1	-1E+10	1
4902624	30	C	04/17/2025	06:33	-127.650	48.305	0	1466.30	0	2.5637	0	34.5232	0	27.552	0	1448.857	0	79.4	4	24.3	4	-1E+10	1	0.0439	4	0.000204	0	-1E+10	1	-1E+10	1	-1E+10	1
4902624	30	C	04/17/2025	06:33	-127.650	48.305	0	1474.90	0	2.5480	0	34.5250	0	27.555	0	1457.325	0	-1e10	1	-1e10	1	-1E+10	1	-1e10	1	-1e10	1	-1E+10	1	-1E+10	1	-1E+10	1
4902624	30	C	04/17/2025	06:33	-127.650	48.305	0	1484.00	0	2.5331	0	34.5265	0	27.557	0	1466.285	0	75.1	4	23.0	4	-1E+10	1	0.0511	4	0.000146	0	-1E+10	1	-1E+10	1	-1E+10	1
4902624	30	C	04/17/2025	06:33	-127.650	48.305	0	1502.30	0	2.5032	0	34.5294	0	27.562	0	1484.302	0	73.6	4	22.4	4	-1E+10	1	0.0514	4	0.000169	0	-1E+10	1	-1E+10	1	-1E+10	1
4902624	30	C	04/17/2025	06:33	-127.650	48.305	0	1521.20	0	2.4722	0	34.5324	0	27.567	0	1502.908	0	77.8	4	23.7	4	-1E+10	1	0.0654	4	0.000169	0	-1E+10	1	-1E+10	1	-1E+10	1
4902624	30	C	04/17/2025	06:33	-127.650	48.305	0	1525.00	0	2.4660	0	34.5330	0	27.568	0	1506.649	0	-1e10	1	-1e10	1	-1E+10	1	-1e10	1	-1e10	1	-1E+10	1	-1E+10	1	-1E+10	1
4902624	30	C	04/17/2025	06:33	-127.650	48.305	0	1540.50	0	2.4400	0	34.5355	0	27.572	0	1521.907	0	70.1	4	21.4	4	-1E+10	1	0.0511	4	0.000180	0	-1E+10	1	-1E+10	1	-1E+10	1
4902624	30	C	04/17/2025	06:33	-127.650	48.305	0	1559.90	0	2.4074	0	34.5386	0	27.578	0	1541.002	0	31.9	8	9.7	8	-1E+10	1	0.0510	4	0.000157	0	-1E+10	1	-1E+10	1	-1E+10	1
4902624	30	C	04/17/2025	06:33	-127.650	48.305	0	1575.00	0	2.3820	0	34.5410	0	27.582	0	1555.864	0	-1e10	1	-1e10	1	-1E+10	1	-1e10	1	-1e10	1	-1E+10	1	-1E+10	1	-1E+10	1
4902624	30	C	04/17/2025	06:33	-127.650	48.305	0	1580.20	0	2.3753	0	34.5419	0	27.583	0	1560.981	0	93.8	4	28.5	4	-1E+10	1	0.0439	4	0.000145	0	-1E+10	1	-1E+10	1	-1E+10	1
4902624	30	C	04/17/2025	06:33	-127.650	48.305	0	1601.40	0	2.3477	0	34.5457	0	27.589	0	1581.844	0	93.2	4	28.3	4	-1E+10	1	0.0512	4	0.000145	0	-1E+10	1	-1E+10	1	-1E+10	1
4902624	30	C	04/17/2025	06:33	-127.650	48.305	0	1623.70	0	2.3188	0	34.5497	0	27.594	0	1603.787	0	90.9	4	27.6	4	-1E+10	1	0.0583	4	0.000156	0	-1E+10	1	-1E+10	1	-1E+10	1
4902624	30	C	04/17/2025	06:33	-127.650	48.305	0	1625.10	0	2.3170	0	34.5500	0	27.595	0	1605.165	0	-1e10	1	-1e10	1	-1E+10	1	-1e10	1	-1e10	1	-1E+10	1	-1E+10	1	-1E+10	1
4902624	30	C	04/17/2025	06:33	-127.650	48.305	0	1644.60	0	2.2963	0	34.5523	0	27.598	0	1624.351	0	90.5	4	27.5	4	-1E+10	1	0.0510	4	0.000158	0	-1E+10	1	-1E+10	1	-1E+10	1
4902624	30	C	04/17/2025	06:33	-127.650	48.305	0	1660.30	0	2.2796	0	34.5542	0	27.601	0	1639.797	0	89.8	4	27.3	4	-1E+10	1	0.0441	4	0.000271	0	-1E+10	1	-1E+10	1	-1E+10	1
4902624	30	C	04/17/2025	06:33	-127.650	48.305	0	1675.00	0	2.2640	0	34.5560	0	27.604	0	1654.258	0	-1e10	1	-1e10	1	-1E+10	1	-1e10	1	-1e10	1	-1E+10	1	-1E+10	1	-1E+10	1
4902624	30	C	04/17/2025	06:33	-127.650	48.305	0	1677.10	0	2.2614	0	34.5563	0	27.604	0	1656.324	0	89.8	4	27.2	4	-1E+10	1	0.0583	4	0.000144	0	-1E+10	1	-1E+10	1	-1E+10	1
4902624	30	C	04/17/2025	06:33	-127.650	48.305	0	1694.60	0	2.2397	0	34.5584	0	27.608	0	1673.538	0	93.9	4	28.5	4	-1E+10	1	0.0511	4	0.000144	0	-1E+10	1	-1E+10	1	-1E+10	1
4902624	30	C	04/17/2025	06:33	-127.650	48.305	0	1712.80	0	2.2172	0	34.5606	0	27.612	0	1691.439	0	96.3	4	29.2	4	-1E+10	1	0.0511	4	0.000144	0	-1E+10	1	-1E+10	1	-1E+10	1
4902624	30	C	04/17/2025	06:33	-127.650	48.305	0	1724.30	0	2.2030	0	34.5620	0	27.614	0	1702.750	0	-1e10	1	-1e10	1	-1E+10	1	-1e10	1	-1e10	1	-1E+10	1	-1E+10	1	-1E+10	1
4902624	30	C	04/17/2025	06:33	-127.650	48.305	0	1731.80	0	2.1934	0	34.5635	0	27.616	0	1710.126	0	98.4	4	29.8	4	-1E+10	1	0.0511	4	0.000155	0	-1E+10	1	-1E+10	1	-1E+10	1
4902624	30	C	04/17/2025	06:33	-127.650	48.305	0	1751.80	0	2.1677	0	34.5674	0	27.621	0	1729.794	0	96.7	4	29.3	4	-1E+10	1	0.0511	4	0.000131	0	-1E+10	1	-1E+10	1	-1E+10	1
4902624	30	C	04/17/2025	06:33	-127.650	48.305	0	1772.60	0	2.1410	0	34.5715	0	27.627	0	1750.247	0	99.9	4	30.2	4	-1E+10	1	0.0510	4	0.000132	0	-1E+10	1	-1E+10	1	-1E+10	1
4902624	30	C	04/17/2025	06:33	-127.650	48.305	0	1774.90	0	2.1380	0	34.5720	0	27.627	0	1752.509	0	-1e10	1	-1e10	1	-1E+10	1	-1e10	1	-1e10	1	-1E+10	1	-1E+10	1	-1E+10	1
4902624	30	C	04/17/2025	06:33	-127.650	48.305	0	1793.90	0	2.1175	0	34.5743	0	27.631	0	1771.190	0	106.9	4	32.3	4	-1E+10	1	0.0437	4	0.000154	0	-1E+10	1	-1E+10	1	-1E+10	1
4902624	30	C	04/17/2025	06:33	-127.650	48.305	0	1815.70	0	2.0940	0	34.5769	0	27.635	0	1792.622	0	116.4	4	35.2	4	-1E+10	1	0.0365	4	0.000142	0	-1E+10	1	-1E+10	1	-1E+10	1
4902624	30	C	04/17/2025	06:33	-127.650	48.305	0	1825.00	0	2.0840	0	34.5780	0	27.637	0	1801.764	0	-1e10	1	-1e10	1	-1E+10	1	-1e10	1	-1e10	1	-1E+10	1	-1E+10	1	-1E+10	1
4902624	30	C	04/17/2025	06:33	-127.650	48.305	0	1838.00	0	2.0709	0	34.5798	0	27.639	0	1814.543	0	126.8	4	38.3	4	-1E+10	1	0.0370	4	0.000142	0	-1E+10	1	-1E+10	1	-1E+10	1
4902624	30	C	04/17/2025	06:33	-127.650	48.305	0	1860.60	0	2.0481	0	34.5830	0	27.644	0	1836.757	0	132.6	4	40.0	4	-1E+10	1	0.0581	4	0.000141	0	-1E+10	1	-1E+10	1	-1E+10	1
4902624	30	C	04/17/2025	06:33	-127.650	48.305	0	1874.60	0	2.0340	0	34.5850	0	27.646	0	1850.517	0	-1e10	1	-1e10	1	-1E+10	1	-1e10	1	-1e10	1	-1E+10	1	-1E+10	1	-1E+10	1
4902624	30	C	04/17/2025	06:33	-127.650	48.305	0	1883.80	0	2.0263	0	34.5865	0	27.648	0	1859.559	0	137.7	4	41.6	4	-1E+10	1	0.0441	4	0.000119	0	-1E+10	1	-1E+10	1	-1E+10	1
4902624	30	C	04/17/2025	06:33	-127.650	48.305	0	1907.00	0	2.0069	0	34.5902	0	27.653	0	1882.358	0	140.7	4	42.4	4	-1E+10	1	0.0581	4	0.000154	0	-1E+10	1	-1E+10	1	-1E+10	1
4902624	30	C	04/17/2025	06:33	-127.650	48.305	0	1923.70	0	1.9930	0	34.5928	0	27.656	0	1898.767	0	141.4	4	42.6	4	-1E+10	1	0.0438	4	0.000177	0	-1E+10	1	-1E+10	1	-1E+10	1
4902624	30	C	04/17/2025	06:33	-127.650	48.305	0	1924.90	0	1.9920	0	34.5930	0	27.656	0	1899.946	0	-1e10	1	-1e10	1	-1E+10	1	-1e10	1	-1e10	1	-1E+10	1	-1E+10	1	-1E+10	1
4902624	30	C	04/17/2025	06:33	-127.650	48.305	0	1941.10	0	1.9809	0	34.5947	0	27.659	0	1915.864	0	142.5	4	43.0	4	-1E+10	1	0.0439	4	0.000182	0	-1E+10	1	-1E+10	1	-1E+10	1
4902624	30	C	04/17/2025	06:33	-127.650	48.305	0	1959.50	0	1.9683	0	34.5967	0	27.661	0	1933.941	0	144.3	4	43.5	4	-1E+10	1	0.0511	4	0.000486	0	-1E+10	1	-1E+10	1	-1E+10	1
4902624	30	C	04/17/2025	06:33	-127.650	48.305	0	1971.70	0	1.9600	0	34.5980	0	27.663	0	1945.926	0	-1e10	1	-1e10	1	-1E+10	1	-1e10	1	-1e10	1	-1E+10	1	-1E+10	1	-1E+10	1
4902624	30	C	04/17/2025	06:33	-127.650	48.305	0	1977.90	0	-1e10	1	-1e10	1	-1e10	1	1952.017	0	152.8	4	-1e10	4	-1E+10	1	0.0510	4	0.000194	0	-1E+10	1	-1E+10	1	-1E+10	1
4902624	30	C	04/17/2025	06:33	-127.650	48.305	0	1993.40	0	-1e10	1	-1e10	1	-1e10	1	1967.242	0	150.1	4	-1e10	4	-1E+10	1	0.0438	4	0.000206	0	-1E+10	1	-1E+10	1	-1E+10	1
4902624	30	C	04/17/2025	06:33	-127.650	48.305	0																										
4902624	31	C	04/27/2025	01:38	-127.234	48.555	0	0.40	0	10.5180	0	31.9260	0	24.466	0	0.397	0	267.7	4	96.4	4	-1E+10	1	0.1241	4	0.000689	0	-1E+10	1	-1E+10	1	-1E+10	1
4902624	31	C	04/27/2025	01:38	-127.234	48.555	0	0.80	0	10.5176	0	31.9268	0	24.467	0	0.793	0	268.5	4	96.7	4	-1E+10	1	0.1241	4	0.000689	0	-1E+10	1	-1E+10	1	-1E+10	1
4902624	31	C	04/27/2025	01:38	-127.234	48.555	0	1.10	0	10.5173	0	31.9274	0	24.468	0	1.091	0	268.1	4	96.6	4	-1E+10	1	0.5402	4	0.000044	0	-1E+10	1	-1E+10	1	-1E+10	1
4902624	31	C	04/27/2025	01:38	-127.234	48.555	0	1.40	0	10.5170	0	31.9280	0	24.468	0	1.388	0	268.1	4	96.6	4	-1E+10	1	0.8614	4	0.002073	0	-1E+10	1	-1E+10	1	-1E+10	1
4902624	31	C	04/27/2025	01:38	-127.234	48.555	0	1.50	0	10.5170	0	31.9280	0	24.468	0	1.487	0	267.4	4	96.3	4	-1E+10	1	0.3504	4	-0.000801	8	-1E+10	1	-1E+10	1	-1E+10	1
4902624	31	C	04/27/2025	01:38	-127.234	48.555	0	1.60	0	10.5170	0	31.9280	0	24.468	0	1.586	0	-1e10	1	-1e10	1	-1E+10	1	0.0876	4	0.000067	0	-1E+10	1	-1E+10	1	-1E+10	1
4902624	31	C	04/27/2025	01:38	-127.234	48.555	0	1.70	0	10.5170	0	31.9280	0	24.468	0	1.686	0	-1e10	1	-1e10	1	-1E+10	1	0.0146	4	-0.000332	8	-1E+10	1	-1E+10	1	-1E+10	1
4902624	31	C	04/27/2025	01:38	-127.234	48.555	0	1.80	0	10.5170	0	31.9280	0	24.468	0	1.785	0	-1e10	1	-1e10	1	-1E+10	1	0.0146	4	-0.000332	8	-1E+10	1	-1E+10	1	-1E+10	1
4902624	31	C	04/27/2025	01:38	-127.234	48.555	0	1.90	0	10.5170	0	31.9280	0	24.468	0	1.884	0	-1e10	1	-1e10	1	-1E+10	1	0.9563	4	0.001780	0	-1E+10	1	-1E+10	1	-1E+10	1
4902624	31	C	04/27/2025	01:38	-127.234	48.555	0	2.00	0	10.5170	0	31.9280	0	24.468	0	1.983	0	-1e10	1	-1e10	1	-1E+10	1	-0.2263	8	0.000079	0	-1E+10	1	-1E+10	1	-1E+10	1
4902624	31	C	04/27/2025	01:38	-127.234	48.555	0	2.30	0	10.5170	0	31.9280	0	24.468	0	2.281	0	267.3	4	96.3	4	-1E+10	1	1.8250	4	0.001874	0	-1E+10	1	-1E+10	1	-1E+10	1
4902624	31	C	04/27/2025	01:38	-127.234	48.555	0	2.50	0	10.5170	0	31.9280	0	24.468	0	2.479	0	-1e10	1	-1e10	1	-1E+10	1	1.4892	4	0.002038	0	-1E+10	1	-1E+10	1	-1E+10	1
4902624	31	C	04/27/2025	01:38	-127.234	48.555	0	2.60	0	10.5170	0	31.9280	0	24.468	0	2.578	0	268.4	4	96.7	4	-1E+10	1	0.8906	4	0.001862	0	-1E+10	1	-1E+10	1	-1E+10	1
4902624	31	C	04/27/2025	01:38	-127.234	48.555	0	2.70	0	10.5170	0	31.9280	0	24.468	0	2.677	0	-1e10	1	-1e10	1	-1E+10	1	1.5549	4	0.002061	0	-1E+10	1	-1E+10	1	-1E+10	1
4902624	31	C	04/27/2025	01:38	-127.234	48.555	0	2.80	0	10.5170	0	31.9280	0	24.468	0	2.776	0	268.2	4	96.6	4	-1E+10	1	0.9490	4	0.001721	0	-1E+10	1	-1E+10	1	-1E+10	1
4902624	31	C	04/27/2025	01:38	-127.234	48.555	0	3.00	0	10.5170	0	31.9280	0	24.468	0	2.975	0	-1e10	1	-1e10	1	-1E+10	1	1.4016	4	0.001850	0	-1E+10	1	-1E+10	1	-1E+10	1
4902624	31	C	04/27/2025	01:38	-127.234	48.555	0	3.40	0	10.5170	0	31.9280	0	24.468	0	3.371	0	267.2	4	96.3	4	-1E+10	1	1.7155	4	0.008478	0	-1E+10	1	-1E+10	1	-1E+10	1
4902624	31	C	04/27/2025	01:38	-127.234	48.555	0	3.50	0	10.5170	0	31.9280	0	24.468	0	3.470	0	-1e10	1	-1e10	1	-1E+10	1	-1e10	1	-1e10	1	-1E+10	1	-1E+10	1	-1E+10	1
4902624	31	C	04/27/2025	01:38	-127.234	48.555	0	3.60	0	10.5170	0	31.9280	0	24.468	0	3.570	0	-1e10	1	-1e10	1	-1E+10	1	1.8031	4	0.001897	0	-1E+10	1	-1E+10	1	-1E+10	1
4902624	31	C	04/27/2025	01:38	-127.234	48.555	0	3.80	0	10.5170	0	31.9280	0	24.468	0	3.768	0	-1e10	1	-1e10	1	-1E+10	1	1.5330	4	0.002179	0	-1E+10	1	-1E+10	1	-1E+10	1
4902624	31	C	04/27/2025	01:38	-127.234	48.555	0	4.00	0	10.5170	0	31.9280	0	24.468	0	3.966	0	-1e10	1	-1e10	1	-1E+10	1	1.6717	4	0.001780	0	-1E+10	1	-1E+10	1	-1E+10	1
4902624	31	C	04/27/2025	01:38	-127.234	48.555	0	4.30	0	10.5170	0	31.9280	0	24.468	0	4.264	0	-1e10	1	-1e10	1	-1E+10	1	1.6279	4	0.001803	0	-1E+10	1	-1E+10	1	-1E+10	1
4902624	31	C	04/27/2025	01:38	-127.234	48.555	0	4.40	0	10.5170	0	31.9280	0	24.468	0	4.363	0	267.3	4	96.3	4	-1E+10	1	1.6936	4	0.001733	0	-1E+10	1	-1E+10	1	-1E+10	1
4902624	31	C	04/27/2025	01:38	-127.234	48.555	0	4.60	0	10.5170	0	31.9280	0	24.468	0	4.561	0	-1e10	1	-1e10	1	-1E+10	1	1.4381	4	0.001745	0	-1E+10	1	-1E+10	1	-1E+10	1
4902624	31	C	04/27/2025	01:38	-127.234	48.555	0	5.00	0	10.5170	0	31.9280	0	24.468	0	4.958	0	-1e10	1	-1e10	1	-1E+10	1	1.4965	4	0.002097	0	-1E+10	1	-1E+10	1	-1E+10	1
4902624	31	C	04/27/2025	01:38	-127.234	48.555	0	5.10	0	10.5170	0	31.9280	0	24.468	0	5.057	0	-1e10	1	-1e10	1	-1E+10	1	1.5987	4	0.001827	0	-1E+10	1	-1E+10	1	-1E+10	1
4902624	31	C	04/27/2025	01:38	-127.234	48.555	0	5.20	0	10.5170	0	31.9280	0	24.468	0	5.156	0	267.1	4	96.2	4	-1E+10	1	1.5695	4	0.001968	0	-1E+10	1	-1E+10	1	-1E+10	1
4902624	31	C	04/27/2025	01:38	-127.234	48.555	0	5.40	0	10.5170	0	31.9280	0	24.468	0	5.354	0	-1e10	1	-1e10	1	-1E+10	1	1.4892	4	0.001686	0	-1E+10	1	-1E+10	1	-1E+10	1
4902624	31	C	04/27/2025	01:38	-127.234	48.555	0	5.50	0	10.5170	0	31.9280	0	24.468	0	5.453	0	-1e10	1	-1e10	1	-1E+10	1	1.5914	4	0.001827	0	-1E+10	1	-1E+10	1	-1E+10	1
4902624	31	C	04/27/2025	01:38	-127.234	48.555	0	5.60	0	10.5170	0	31.9280	0	24.468	0	5.553	0	-1e10	1	-1e10	1	-1E+10	1	1.4454	4	0.001909	0	-1E+10	1	-1E+10	1	-1E+10	1
4902624	31	C	04/27/2025	01:38	-127.234	48.555	0	5.80	0	10.5170	0	31.9280	0	24.468	0	5.751	0	-1e10	1	-1e10	1	-1E+10	1	1.5330	4	0.001792	0	-1E+10	1	-1E+10	1	-1E+10	1
4902624	31	C	04/27/2025	01:38	-127.234	48.555	0	5.90	0	10.5170	0	31.9280	0	24.468	0	5.850	0	266.8	4	96.1	4	-1E+10	1	1.5403	4	0.002261	0	-1E+10	1	-1E+10	1	-1E+10	1
4902624	31	C	04/27/2025	01:38	-127.234	48.555	0	6.20	0	10.5170	0	31.9280	0	24.468	0	6.148	0	-1e10	1	-1e10	1	-1E+10	1	1.6936	4	0.002237	0	-1E+10	1	-1E+10	1	-1E+10	1
4902624	31	C	04/27/2025	01:38	-127.234	48.555	0	6.30	0	10.5170	0	31.9280	0	24.468	0	6.247	0	-1e10	1	-1e10	1	-1E+10	1	1.6206	4	0.001815	0	-1E+10	1	-1E+10	1	-1E+10	1
4902624	31	C	04/27/2025	01:38	-127.234	48.555	0	6.40	0	10.5170	0	31.9280	0	24.468	0	6.346	0	-1e10	1	-1e10	1	-1E+10	1	-1e10	1	-1e10	1	-1E+10	1	-1E+10	1	-1E+10	1
4902624	31	C	04/27/2025	01:38	-127.234	48.555	0	6.50	0	10.5170	0	31.9280	0	24.468	0	6.445	0	-1e10	1	-1e10	1	-1E+10	1	1.6352	4	0.002812	0	-1E+10	1	-1E+10	1	-1E+10	1
4902624	31	C	04/27/2025	01:38	-127.234	48.555	0	6.70	0	10.5170	0	31.9280	0	24.468	0	6.643	0	266.8	4	96.1	4	-1E+10	1	1.6133	4	0.001756	0	-1E+10	1	-1E+10	1	-1E+10	1
4902624	31	C	04/27/2025	01:38	-127.234	48.555	0	6.80	0	10.5170	0	31.9280	0	24.468	0	6.742	0	-1e10	1	-1e10	1	-1E+10	1	1.6644	4	0.001839	0	-1E+10	1	-1E+10	1	-1E+10	1
4902624	31	C	04/27/2025	01:38	-127.234	48.555	0	6.90	0	10.5170	0	31.9280	0	24.468	0	6.842	0	-1e10	1	-1e10	1	-1E+10	1	1.7958	4	0.003094	0	-1E+10	1	-1E+10	1	-1E+10	1
4902624	31	C	04/27/2025	01:38	-127.234	48.555	0	7.00	0	10.5170	0	31.9280	0	24.468	0	6.941	0	-1e10	1	-1e10	1	-1E+10	1	1.5622	4	0.001909	0	-1E+10	1	-1E+10	1	-1E+10	1
4902624	31	C	04/27/2025	01:38	-127.234	48.555	0	7.30	0	10.5170	0	31.9280	0	24.468	0	7.238	0	266.8	4	96.1	4	-1E+10	1	1.5330	4	0.001768	0	-1E+10	1	-1E+10	1	-1E+10	1
4902624	31	C	04/27/2025	01:38	-127.234	48.555	0	7.50	0	10.5170	0	31.9280	0	24.468	0	7.437	0	-1e10	1	-1e10	1	-1E+10	1	1.8031	4	0.001792	0	-1E+10	1	-1E+10	1	-1E+10	1
4902624	31	C	04/27/2025	01:38	-127.234	48.555	0	7.60	0	10.5170	0	31.9281	0	24.468	0	7.536	0	-1e10	1	-1e10	1	-1E+10	1	1.5330	4	0.001932	0	-1E+10	1	-1E+10	1	-1E+10	1
4902624	31	C	04/27/2025	01:38	-127.234	48.555	0	7.80	0	10.5170	0	31.9283	0	24.468	0	7.734	0	-1e10	1	-1e10	1	-1E+10	1	1.5695	4	0.002050	0	-1E+10	1	-1E+10	1	-1E+10	1
4902624	31	C	04/27/2025	01:38	-127.234	48.555	0	7.90	0	10.5170	0	31.9284	0	24.468	0	7.833	0	-1e10	1	-1e10	1	-1E+10	1	1.4892	4	0.002097	0	-1E+10	1	-1E+10	1	-1E+10	1
4902624	31	C	04/27/2025	01:38	-127.234	48.555	0	8.10	0	10.5170	0	31.9286	0	24.469	0	8.031	0	266.6	4	96.0	4	-1E+10	1	1.5914	4	0.001921	0	-1E+10	1	-1E+10	1	-1E+10	1
4902624	31	C	04/27/2025	01:38	-127.234	48.555	0	8.30	0	10.5170	0	31.9288	0	24.469	0	8.230	0	-1e10	1	-1e10	1	-1E+10	1	1.6279	4	0.001862	0	-1E+10	1	-1E+10	1	-1E+10	1
4902624	31	C	04/27/2025	01:38	-127.234	48.555	0	8.40	0	10.5170	0	31.9289	0	24.469	0	8.329	0	-1e10	1	-1e10	1	-1E+10	1	1.4819	4	0.001580	0	-1E+10	1	-1E+10	1	-1E+10	1
4902624	31	C	04/27/2025	01:38	-127.234	48.555	0	8.50	0	10.5170	0	31.9290	0	24.469	0	8.428	0	-1e10	1	-1e10	1	-1E+10	1	-1e10	1	-1e10	1	-1E+10	1	-1E+10	1	-1E+10	1
4902624	31	C	04/27/2025	01:38	-127.234	48.555	0	8.70	0	10.5170	0	31.9290	0	24.469	0	8.626	0	-1e10	1	-1e10	1	-1E+10	1	1.4235	4	0.001592	0	-1E+10	1	-1E+10	1	-1E+10	1
4902624	31	C	04/27/2025	01:38	-127.234	48.555	0	8.80	0	10.5170	0	31.9290	0	24.469	0	8.726	0	266.5	4	96.0	4	-1E+10	1	1.5403	4	0.001909	0	-1E+10	1	-1E+10	1	-1E+10	1
4902624	31	C	04/27/2025	01:38	-127.234	48.555	0	8.90	0	10.5170	0	31.9290	0	24.469	0	8.825	0	-1e10	1	-1e10	1	-1E+10	1	1.5914	4	0.001874	0	-1E+10	1	-1E+10	1	-1E+10	1
4902624	31	C	04/27/2025	01:38	-127.234	48.555	0	9.00	0	10.5170	0	31.9290	0	24.469	0	8.924	0	-1e10	1	-1e10	1	-1E+10	1	1.5768	4	0.001463	0	-1E+10	1	-1E+10	1	-1E+10	1
4902624	31	C	04/27/2025	01:38	-127.234	48.555	0	9.20	0	10.5170	0	31.9290	0	24.469	0	9.122	0	-1e10	1	-1e10	1	-1E+10	1	1.6498	4	0.002155	0	-1E+10	1	-1E+10	1	-1E+10	1
4902624	31	C	04/27/2025	01:38	-127.234	48.555	0	9.40	0	10.5170	0	31.9290	0	24.469	0	9.320	0	-1e10	1	-1e10	1	-1E+10	1	1.7301	4	0.001874	0	-1E+10	1	-1E+10	1	-1E+10	1
4902624	31	C	04/27/2025	01:38	-127.234	48.555	0	9.50	0	10.5170	0	31.9290	0	24.469	0	9.420	0	266.6	4	96.0	4	-1E+10	1	1.6571	4	0.002425	0	-1E+10	1	-1E+10	1	-1E+10	1
4902624	31	C	04/27/2025	01:38	-127.234	48.555	0	9.80	0	10.5168	0	31.9290	0	24.469	0	9.717	0	-1e10	1	-1e10	1	-1E+10	1	1.4819	4	0.001651	0	-1E+10	1	-1E+10	1	-1E+10	1
4902624	31	C	04/27/2025	01:38	-127.234	48.555	0	10.10	0	10.5166	0	31.9290	0	24.469	0	10.014	0	266.3	4	95.9	4	-1E+10	1	1.7240	4	0.001870	0	-1E+10	1	-1E+10	1	-1E+10	1
4902624	31	C	04/27/2025	01:38	-127.234	48.555	0	11.00	0	10.5161	0	31.9290	0	24.469	0	10.907	0	266.2	4	95.9	4	-1E+10	1	1.7626	4	0.002265	0	-1E+10	1	-1E+10	1	-1E+10	1
4902624	31	C	04/27/2025	01:38	-127.234	48.555	0	11.10	0	10.5160	0	31.9290	0	24.469	0	11.006	0	-1e10	1	-1e10	1	-1E+10	1	-1e10	1	-1e10	1	-1E+10	1	-1E+10	1	-1E+10	1
4902624	31	C	04/27/2025	01:38	-127.234	48.555	0	11.90	0	10.5160	0	31.9290	0	24.469	0	11.799	0	266.1	4	95.9	4	-1E+10	1	1.6221	4	0.001923	0	-1E+10	1	-1E+10	1	-1E+10	1
4902624	31	C	04/27/2025	01:38	-127.234	48.555	0	12.70	0	10.5160	0	31.9290	0	24.469	0	12.592	0	266.0	4	95.8	4	-1E+10	1	1.5987	4	0.002167	0	-1E+10	1	-1E+10	1	-1E+10	1
4902624	31	C	04/27/2025	01:38	-127.234	48.555	0	13.00	0	10.5160	0	31.9290	0	24.469	0	12.890	0	-1e10	1	-1e10	1	-1E+10	1	-1e10	1	-1e10	1	-1E+10	1	-1E+10	1	-1E+10	1
4902624	31	C	04/27/2025	01:38	-127.234	48.555	0	13.50	0	10.5162	0	31.9288	0	24.469	0	13.386	0	265.9	4	95.8	4	-1E+10	1	1.8396	4	0.002003	0	-1E+10	1	-1E+10	1	-1E+10	1
4902624	31	C	04/27/2025	01:38	-127.234	48.555	0	14.40	0	10.5167	0	31.9283	0	24.469	0	14.278	0	265.8	4	95.7	4	-1E+10	1	1.8754	4	0.001811	0	-1E+10	1	-1E+10	1	-1E+10	1
4902624	31	C	04/27/2025	01:38	-127.234	48.555	0	15.00	0	10.5170	0	31.9280	0	24.468	0	14.873	0	-1e10	1	-1e10	1	-1E+10	1	-1e10	1	-1e10	1	-1E+10	1	-1E+10	1	-1E+10	1
4902624	31	C	04/27/2025	01:38	-127.234	48.555	0	15.40	0	10.5170	0	31.9280	0	24.468	0	15.269	0	265.6	4	95.7	4	-1E+10	1	1.9148	4	0.001739	0	-1E+10	1	-1E+10	1	-1E+10	1
4902624	31	C	04/27/2025	01:38	-127.234	48.555	0	16.50	0	10.5170	0	31.9280	0	24.468	0	16.360	0	265.6	4	95.7	4	-1E+10	1	1.8644	4	0.001932	0	-1E+10	1	-1E+10	1	-1E+10	1
4902624	31	C	04/27/2025	01:38	-127.234	48.555	0	16.90	0	10.5170	0	31.9280	0	24.468	0	16.757	0	-1e10	1	-1e10	1	-1E+10	1	-1e10	1	-1e10	1	-1E+10	1	-1E+10	1	-1E+10	1
4902624	31	C	04/27/2025	01:38	-127.234	48.555	0	17.50	0	10.5173	0	31.9280	0	24.468	0	17.352	0	265.5	4	95.6	4	-1E+10	1	1.8469	4	0.002126	0	-1E+10	1	-1E+10	1	-1E+10	1
4902624	31	C	04/27/2025	01:38	-127.234	48.555	0	18.50	0	10.5178	0	31.9280	0	24.468	0	18.343	0	265.3	4	95.6	4	-1E+10	1	1.9000	4	0.002319	0	-1E+10	1	-1E+10	1	-1E+10	1
4902624	31	C	04/27/2025	01:38	-127.234	48.555	0	19.00	0	10.5180	0	31.9280	0	24.468	0	18.839	0	-1e10	1	-1e10	1	-1E+10	1	-1e10	1	-1e10	1	-1E+10	1	-1E+10	1	-1E+10	1
4902624	31	C	04/27/2025	01:38	-127.234	48.555	0	19.40	0	10.5180	0	31.9280	0	24.468	0	19.235	0	265.3	4	95.5	4	-1E+10	1	1.9256	4	0.002396	0	-1E+10	1	-1E+10	1	-1E+10	1
4902624	31	C	04/27/2025	01:38	-127.234	48.555	0	20.30	0	10.5180	0	31.9280	0	24.468	0	20.128	0	265.1	4	95.5	4	-1E+10	1	1.8878	4	0.001752	0	-1E+10	1	-1E+10	1	-1E+10	1
4902624	31	C	04/27/2025	01:38	-127.234	48.555	0	21.10	0	10.5180	0	31.9280	0	24.468	0	20.921	0	265.1	4	95.5	4	-1E+10	1	1.9637	4	0.001545	0	-1E+10	1	-1E+10	1	-1E+10	1
4902624	31	C	04/27/2025	01:38	-127.234	48.555	0	22.20	0	10.5180	0	31.9286	0	24.469	0	22.011	0	264.7	4	95.4	4	-1E+10	1	1.8834	4	0.001780	0	-1E+10	1	-1E+10	1	-1E+10	1
4902624	31	C	04/27/2025	01:38	-127.234	48.555	0	23.00	0	10.5180	0	31.9290	0	24.469	0	22.805	0	-1e10	1	-1e10	1	-1E+10	1	-1e10	1	-1e10	1	-1E+10	1	-1E+10	1	-1E+10	1
4902624	31	C	04/27/2025	01:38	-127.234	48.555	0	23.10	0	10.5180	0	31.9289	0	24.469	0	22.904	0	264.5	4	95.3	4	-1E+10	1	2.1097	4	0.001921	0	-1E+10	1	-1E+10	1	-1E+10	1
4902624	31	C	04/27/2025	01:38	-127.234	48.555	0	24.00	0	10.5185	0	31.9280	0	24.468	0	23.796	0	264.3	4	95.2	4	-1E+10	1	1.9884	4	0.002343	0	-1E+10	1	-1E+10	1	-1E+10	1
4902624	31	C	04/27/2025	01:38	-127.234	48.555	0	24.90	0	10.5189	0	31.9272	0	24.468	0	24.688	0	264.0	4	95.1	4	-1E+10	1	1.8737	4	0.002174	0	-1E+10	1	-1E+10	1	-1E+10	1
4902624	31	C	04/27/2025	01:38	-127.234	48.555	0	25.10	0	10.5190	0	31.9270	0	24.467	0	24.887	0	-1e10	1	-1e10	1	-1E+10	1	-1e10	1	-1e10	1	-1E+10	1	-1E+10	1	-1E+10	1
4902624	31	C	04/27/2025	01:38	-127.234	48.555	0	26.00	0	10.5176	0	31.9288	0	24.469	0	25.779	0	263.8	4	95.0	4	-1E+10	1	2.0922	4	0.001745	0	-1E+10	1	-1E+10	1	-1E+10	1
4902624	31	C	04/27/2025	01:38	-127.234	48.555	0	27.00	0	10.5161	0	31.9308	0	24.471	0	26.770	0	263.6	4	95.0	4	-1E+10	1	2.2606	4	0.001811	0	-1E+10	1	-1E+10	1	-1E+10	1
4902624	31	C	04/27/2025	01:38	-127.234	48.555	0	27.10	0	10.5160	0	31.9310	0	24.471	0	26.869	0	-1e10	1	-1e10	1	-1E+10	1	-1e10	1	-1e10	1	-1E+10	1	-1E+10	1	-1E+10	1
4902624	31	C	04/27/2025	01:38	-127.234	48.555	0	28.00	0	10.5165	0	31.9315	0	24.471	0	27.762	0	263.4	4	94.9	4	-1E+10	1	1.7398	4	0.001725	0	-1E+10	1	-1E+10	1	-1E+10	1
4902624	31	C	04/27/2025	01:38	-127.234	48.555	0	28.90	0	10.5170	0	31.9320	0	24.472	0	28.654	0	-1e10	1	-1e10	1	-1E+10	1	-1e10	1	-1e10	1	-1E+10	1	-1E+10	1	-1E+10	1
4902624	31	C	04/27/2025	01:38	-127.234	48.555	0	29.00	0	10.5162	0	31.9329	0	24.473	0	28.753	0	263.2	4	94.8	4	-1E+10	1	2.0075	4	0.001686	0	-1E+10	1	-1E+10	1	-1E+10	1
4902624	31	C	04/27/2025	01:38	-127.234	48.555	0	29.90	0	10.5090	0	31.9415	0	24.480	0	29.645	0	263.0	4	94.7	4	-1E+10	1	2.0002	4	0.002049	0	-1E+10	1	-1E+10	1	-1E+10	1
4902624	31	C	04/27/2025	01:38	-127.234	48.555	0	30.90	0	10.5010	0	31.9510	0	24.489	0	30.637	0	262.5	4	94.6	4	-1E+10	1	2.0148	4	0.001956	0	-1E+10	1	-1E+10	1	-1E+10	1
4902624	31	C	04/27/2025	01:38	-127.234	48.555	0	31.50	0	10.4986	0	31.9543	0	24.492	0	31.232	0	262.4	4	94.5	4	-1E+10	1	1.9984	4	0.001815	0	-1E+10	1	-1E+10	1	-1E+10	1
4902624	31	C	04/27/2025	01:38	-127.234	48.555	0	32.00	0	10.4966	0	31.9571	0	24.495	0	31.727	0	262.2	4	94.4	4	-1E+10	1	2.0498	4	0.001993	0	-1E+10	1	-1E+10	1	-1E+10	1
4902624	31	C	04/27/2025	01:38	-127.234	48.555	0	32.50	0	10.4946	0	31.9598	0	24.497	0	32.223	0	262.1	4	94.4	4	-1E+10	1	2.2061	4	0.002376	0	-1E+10	1	-1E+10	1	-1E+10	1
4902624	31	C	04/27/2025	01:38	-127.234	48.555	0	32.90	0	10.4930	0	31.9620	0	24.499	0	32.620	0	262.2	4	94.4	4	-1E+10	1	2.1301	4	0.002282	0	-1E+10	1	-1E+10	1	-1E+10	1
4902624	31	C	04/27/2025	01:38	-127.234	48.555	0	33.40	0	10.4853	0	31.9715	0	24.508	0	33.115	0	262.0	4	94.3	4	-1E+10	1	1.9506	4	0.001951	0	-1E+10	1	-1E+10	1	-1E+10	1
4902624	31	C	04/27/2025	01:38	-127.234	48.555	0	33.80	0	10.4790	0	31.9791	0	24.515	0	33.512	0	261.7	4	94.2	4	-1E+10	1	2.0820	4	0.002026	0	-1E+10	1	-1E+10	1	-1E+10	1
4902624	31	C	04/27/2025	01:38	-127.234	48.555	0	34.30	0	10.4713	0	31.9886	0	24.524	0	34.008	0	261.4	4	94.1	4	-1E+10	1	2.3032	4	0.002135	0	-1E+10	1	-1E+10	1	-1E+10	1
4902624	31	C	04/27/2025	01:38	-127.234	48.555	0	34.80	0	10.4635	0	31.9981	0	24.532	0	34.503	0	261.1	4	94.0	4	-1E+10	1	2.3579	4	0.002448	0	-1E+10	1	-1E+10	1	-1E+10	1
4902624	31	C	04/27/2025	01:38	-127.234	48.555	0	34.90	0	10.4620	0	32.0000	0	24.534	0	34.602	0	-1e10	1	-1e10	1	-1E+10	1	-1e10	1	-1e10	1	-1E+10	1	-1E+10	1	-1E+10	1
4902624	31	C	04/27/2025	01:38	-127.234	48.555	0	35.30	0	10.4487	0	32.0170	0	24.550	0	34.999	0	260.7	4	93.8	4	-1E+10	1	2.3287	4	0.002601	0	-1E+10	1	-1E+10	1	-1E+10	1
4902624	31	C	04/27/2025	01:38	-127.234	48.555	0	35.90	0	10.4287	0	32.0424	0	24.573	0	35.594	0	260.3	4	93.7	4	-1E+10	1	2.1285	4	0.002229	0	-1E+10	1	-1E+10	1	-1E+10	1
4902624	31	C	04/27/2025	01:38	-127.234	48.555	0	36.50	0	10.4087	0	32.0678	0	24.596	0	36.189	0	259.8	4	93.5	4	-1E+10	1	2.4784	4	0.001925	0	-1E+10	1	-1E+10	1	-1E+10	1
4902624	31	C	04/27/2025	01:38	-127.234	48.555	0	37.00	0	10.3920	0	32.0890	0	24.615	0	36.684	0	-1e10	1	-1e10	1	-1E+10	1	-1e10	1	-1e10	1	-1E+10	1	-1E+10	1	-1E+10	1
4902624	31	C	04/27/2025	01:38	-127.234	48.555	0	37.20	0	10.3862	0	32.0956	0	24.621	0	36.883	0	259.4	4	93.3	4	-1E+10	1	2.2244	4	0.001873	0	-1E+10	1	-1E+10	1	-1E+10	1
4902624	31	C	04/27/2025	01:38	-127.234	48.555	0	38.00	0	10.3630	0	32.1220	0	24.646	0	37.676	0	259.0	4	93.1	4	-1E+10	1	1.6871	4	0.001774	0	-1E+10	1	-1E+10	1	-1E+10	1
4902624	31	C	04/27/2025	01:38	-127.234	48.555	0	38.70	0	10.3427	0	32.1451	0	24.667	0	38.370	0	258.5	4	92.9	4	-1E+10	1	1.7958	4	0.002319	0	-1E+10	1	-1E+10	1	-1E+10	1
4902624	31	C	04/27/2025	01:38	-127.234	48.555	0	39.00	0	10.3340	0	32.1550	0	24.677	0	38.667	0	-1e10	1	-1e10	1	-1E+10	1	-1e10	1	-1e10	1	-1E+10	1	-1E+10	1	-1E+10	1
4902624	31	C	04/27/2025	01:38	-127.234	48.555	0	39.50	0	10.3290	0	32.1597	0	24.681	0	39.163	0	258.2	4	92.8	4	-1E+10	1	2.1590	4	0.003170	0	-1E+10	1	-1E+10	1	-1E+10	1
4902624	31	C	04/27/2025	01:38	-127.234	48.555	0	40.20	0	10.3220	0	32.1664	0	24.688	0	39.857	0	257.9	4	92.7	4	-1E+10	1	1.7909	4	0.001692	0	-1E+10	1	-1E+10	1	-1E+10	1
4902624	31	C	04/27/2025	01:38	-127.234	48.555	0	41.00	0	10.3140	0	32.1740	0	24.695	0	40.650	0	257.2	4	92.4	4	-1E+10	1	2.0440	4	0.002119	0	-1E+10	1	-1E+10	1	-1E+10	1
4902624	31	C	04/27/2025	01:38	-127.234	48.555	0	41.80	0	10.2972	0	32.1908	0	24.711	0	41.443	0	257.2	4	92.4	4	-1E+10	1	1.6235	4	0.001528	0	-1E+10	1	-1E+10	1	-1E+10	1
4902624	31	C	04/27/2025	01:38	-127.234	48.555	0	42.60	0	10.2805	0	32.2075	0	24.727	0	42.236	0	257.0	4	92.3	4	-1E+10	1	1.4253	4	0.001601	0	-1E+10	1	-1E+10	1	-1E+10	1
4902624	31	C	04/27/2025	01:38	-127.234	48.555	0	43.10	0	10.2700	0	32.2180	0	24.737	0	42.732	0	-1e10	1	-1e10	1	-1E+10	1	-1e10	1	-1e10	1	-1E+10	1	-1E+10	1	-1E+10	1
4902624	31	C	04/27/2025	01:38	-127.234	48.555	0	43.40	0	10.2648	0	32.2231	0	24.741	0	43.029	0	256.4	4	92.0	4	-1E+10	1	1.3768	4	0.001582	0	-1E+10	1	-1E+10	1	-1E+10	1
4902624	31	C	04/27/2025	01:38	-127.234	48.555	0	44.30	0	10.2492	0	32.2382	0	24.756	0	43.921	0	255.6	4	91.7	4	-1E+10	1	1.2666	4	0.001369	0	-1E+10	1	-1E+10	1	-1E+10	1
4902624	31	C	04/27/2025	01:38	-127.234	48.555	0	45.00	0	10.2370	0	32.2500	0	24.767	0	44.615	0	-1e10	1	-1e10	1	-1E+10	1	-1e10	1	-1e10	1	-1E+10	1	-1E+10	1	-1E+10	1
4902624	31	C	04/27/2025	01:38	-127.234	48.555	0	45.10	0	10.2353	0	32.2514	0	24.768	0	44.714	0	254.8	4	91.4	4	-1E+10	1	1.1315	4	0.001302	0	-1E+10	1	-1E+10	1	-1E+10	1
4902624	31	C	04/27/2025	01:38	-127.234	48.555	0	46.00	0	10.2203	0	32.2643	0	24.781	0	45.607	0	254.1	4	91.2	4	-1E+10	1	1.0585	4	0.001436	0	-1E+10	1	-1E+10	1	-1E+10	1
4902624	31	C	04/27/2025	01:38	-127.234	48.555	0	46.90	0	10.2053	0	32.2771	0	24.794	0	46.499	0	253.2	4	90.8	4	-1E+10	1	1.0280	4	0.001377	0	-1E+10	1	-1E+10	1	-1E+10	1
4902624	31	C	04/27/2025	01:38	-127.234	48.555	0	47.10	0	10.2020	0	32.2800	0	24.796	0	46.697	0	-1e10	1	-1e10	1	-1E+10	1	-1e10	1	-1e10	1	-1E+10	1	-1E+10	1	-1E+10	1
4902624	31	C	04/27/2025	01:38	-127.234	48.555	0	47.80	0	10.1866	0	32.2821	0	24.801	0	47.391	0	252.5	4	90.5	4	-1E+10	1	0.8906	4	0.001521	0	-1E+10	1	-1E+10	1	-1E+10	1
4902624	31	C	04/27/2025	01:38	-127.234	48.555	0	48.60	0	10.1690	0	32.2845	0	24.805	0	48.184	0	251.5	4	90.1	4	-1E+10	1	0.8541	4	0.001099	0	-1E+10	1	-1E+10	1	-1E+10	1
4902624	31	C	04/27/2025	01:38	-127.234	48.555	0	49.10	0	10.1580	0	32.2860	0	24.808	0	48.680	0	-1e10	1	-1e10	1	-1E+10	1	-1e10	1	-1e10	1	-1E+10	1	-1E+10	1	-1E+10	1
4902624	31	C	04/27/2025	01:38	-127.234	48.555	0	49.50	0	10.1403	0	32.2881	0	24.813	0	49.076	0	250.5	4	89.7	4	-1E+10	1	0.6373	4	0.000846	0	-1E+10	1	-1E+10	1	-1E+10	1
4902624	31	C	04/27/2025	01:38	-127.234	48.555	0	50.30	0	10.1049	0	32.2923	0	24.822	0	49.869	0	249.3	4	89.2	4	-1E+10	1	0.6178	4	0.001071	0	-1E+10	1	-1E+10	1	-1E+10	1
4902624	31	C	04/27/2025	01:38	-127.234	48.555	0	51.00	0	10.0740	0	32.2960	0	24.830	0	50.563	0	-1e10	1	-1e10	1	-1E+10	1	-1e10	1	-1e10	1	-1E+10	1	-1E+10	1	-1E+10	1
4902624	31	C	04/27/2025	01:38	-127.234	48.555	0	51.30	0	10.0602	0	32.2974	0	24.834	0	50.861	0	248.2	4	88.7	4	-1E+10	1	0.5378	4	0.001076	0	-1E+10	1	-1E+10	1	-1E+10	1
4902624	31	C	04/27/2025	01:38	-127.234	48.555	0	52.20	0	10.0188	0	32.3014	0	24.844	0	51.753	0	246.9	4	88.2	4	-1E+10	1	0.4725	4	0.001159	0	-1E+10	1	-1E+10	1	-1E+10	1
4902624	31	C	04/27/2025	01:38	-127.234	48.555	0	53.00	0	9.9820	0	32.3050	0	24.853	0	52.546	0	-1e10	1	-1e10	1	-1E+10	1	-1e10	1	-1e10	1	-1E+10	1	-1E+10	1	-1E+10	1
4902624	31	C	04/27/2025	01:38	-127.234	48.555	0	53.10	0	9.9763	0	32.3059	0	24.854	0	52.645	0	245.5	4	87.7	4	-1E+10	1	0.4550	4	0.001154	0	-1E+10	1	-1E+10	1	-1E+10	1
4902624	31	C	04/27/2025	01:38	-127.234	48.555	0	54.00	0	9.9245	0	32.3140	0	24.869	0	53.537	0	244.1	4	87.1	4	-1E+10	1	0.4688	4	0.000859	0	-1E+10	1	-1E+10	1	-1E+10	1
4902624	31	C	04/27/2025	01:38	-127.234	48.555	0	55.00	0	9.8670	0	32.3230	0	24.886	0	54.528	0	241.9	4	86.1	4	-1E+10	1	0.4805	4	0.000643	0	-1E+10	1	-1E+10	1	-1E+10	1
4902624	31	C	04/27/2025	01:38	-127.234	48.555	0	55.90	0	9.8418	0	32.3257	0	24.892	0	55.421	0	241.0	4	85.8	4	-1E+10	1	0.2117	4	0.000700	0	-1E+10	1	-1E+10	1	-1E+10	1
4902624	31	C	04/27/2025	01:38	-127.234	48.555	0	56.90	0	9.8138	0	32.3287	0	24.899	0	56.412	0	239.5	4	85.2	4	-1E+10	1	0.1691	4	0.000534	0	-1E+10	1	-1E+10	1	-1E+10	1
4902624	31	C	04/27/2025	01:38	-127.234	48.555	0	57.00	0	9.8110	0	32.3290	0	24.899	0	56.511	0	-1e10	1	-1e10	1	-1E+10	1	-1e10	1	-1e10	1	-1E+10	1	-1E+10	1	-1E+10	1
4902624	31	C	04/27/2025	01:38	-127.234	48.555	0	57.80	0	9.7664	0	32.3349	0	24.911	0	57.304	0	238.0	4	84.6	4	-1E+10	1	0.2003	4	0.000555	0	-1E+10	1	-1E+10	1	-1E+10	1
4902624	31	C	04/27/2025	01:38	-127.234	48.555	0	58.80	0	9.7106	0	32.3423	0	24.926	0	58.295	0	236.5	4	84.0	4	-1E+10	1	0.1668	4	0.000535	0	-1E+10	1	-1E+10	1	-1E+10	1
4902624	31	C	04/27/2025	01:38	-127.234	48.555	0	58.90	0	9.7050	0	32.3430	0	24.928	0	58.394	0	-1e10	1	-1e10	1	-1E+10	1	-1e10	1	-1e10	1	-1E+10	1	-1E+10	1	-1E+10	1
4902624	31	C	04/27/2025	01:38	-127.234	48.555	0	59.90	0	9.5855	0	32.3655	0	24.965	0	59.386	0	235.2	4	83.3	4	-1E+10	1	0.1497	4	0.000612	0	-1E+10	1	-1E+10	1	-1E+10	1
4902624	31	C	04/27/2025	01:38	-127.234	48.555	0	60.90	0	9.4660	0	32.3880	0	25.001	0	60.377	0	233.2	4	82.4	4	-1E+10	1	0.1686	4	0.001249	0	-1E+10	1	-1E+10	1	-1E+10	1
4902624	31	C	04/27/2025	01:38	-127.234	48.555	0	62.00	0	9.4529	0	32.3953	0	25.009	0	61.467	0	232.9	4	82.3	4	-1E+10	1	0.2037	4	0.001567	0	-1E+10	1	-1E+10	1	-1E+10	1
4902624	31	C	04/27/2025	01:38	-127.234	48.555	0	63.00	0	9.4410	0	32.4020	0	25.016	0	62.459	0	-1e10	1	-1e10	1	-1E+10	1	-1e10	1	-1e10	1	-1E+10	1	-1E+10	1	-1E+10	1
4902624	31	C	04/27/2025	01:38	-127.234	48.555	0	63.10	0	9.4407	0	32.4021	0	25.016	0	62.558	0	231.7	4	81.8	4	-1E+10	1	0.2093	4	0.000606	0	-1E+10	1	-1E+10	1	-1E+10	1
4902624	31	C	04/27/2025	01:38	-127.234	48.555	0	64.20	0	9.4370	0	32.4031	0	25.018	0	63.648	0	230.2	4	81.3	4	-1E+10	1	0.1460	4	0.000820	0	-1E+10	1	-1E+10	1	-1E+10	1
4902624	31	C	04/27/2025	01:38	-127.234	48.555	0	65.10	0	9.4340	0	32.4040	0	25.019	0	64.540	0	-1e10	1	-1e10	1	-1E+10	1	-1e10	1	-1e10	1	-1E+10	1	-1E+10	1	-1E+10	1
4902624	31	C	04/27/2025	01:38	-127.234	48.555	0	65.20	0	9.4335	0	32.4040	0	25.019	0	64.639	0	228.7	4	80.7	4	-1E+10	1	0.1582	4	0.000745	0	-1E+10	1	-1E+10	1	-1E+10	1
4902624	31	C	04/27/2025	01:38	-127.234	48.555	0	66.20	0	9.4285	0	32.4045	0	25.020	0	65.631	0	226.9	4	80.1	4	-1E+10	1	0.2190	4	0.000970	0	-1E+10	1	-1E+10	1	-1E+10	1
4902624	31	C	04/27/2025	01:38	-127.234	48.555	0	67.10	0	9.4240	0	32.4050	0	25.021	0	66.523	0	-1e10	1	-1e10	1	-1E+10	1	-1e10	1	-1e10	1	-1E+10	1	-1E+10	1	-1E+10	1
4902624	31	C	04/27/2025	01:38	-127.234	48.555	0	67.20	0	9.4223	0	32.4054	0	25.022	0	66.622	0	224.7	4	79.3	4	-1E+10	1	0.1460	4	0.000550	0	-1E+10	1	-1E+10	1	-1E+10	1
4902624	31	C	04/27/2025	01:38	-127.234	48.555	0	68.10	0	9.4072	0	32.4087	0	25.027	0	67.514	0	222.4	4	78.5	4	-1E+10	1	0.1655	4	0.000548	0	-1E+10	1	-1E+10	1	-1E+10	1
4902624	31	C	04/27/2025	01:38	-127.234	48.555	0	69.00	0	9.3920	0	32.4120	0	25.032	0	68.406	0	219.0	4	77.3	4	-1E+10	1	0.1706	4	0.000810	0	-1E+10	1	-1E+10	1	-1E+10	1
4902624	31	C	04/27/2025	01:38	-127.234	48.555	0	69.80	0	9.3428	0	32.4380	0	25.060	0	69.199	0	217.6	4	76.7	4	-1E+10	1	0.1533	4	0.000806	0	-1E+10	1	-1E+10	1	-1E+10	1
4902624	31	C	04/27/2025	01:38	-127.234	48.555	0	70.40	0	9.3059	0	32.4575	0	25.081	0	69.794	0	215.0	4	75.7	4	-1E+10	1	0.1358	4	0.000585	0	-1E+10	1	-1E+10	1	-1E+10	1
4902624	31	C	04/27/2025	01:38	-127.234	48.555	0	70.90	0	9.2752	0	32.4738	0	25.099	0	70.289	0	212.5	4	74.8	4	-1E+10	1	0.1241	4	0.000477	0	-1E+10	1	-1E+10	1	-1E+10	1
4902624	31	C	04/27/2025	01:38	-127.234	48.555	0	71.00	0	9.2690	0	32.4770	0	25.102	0	70.389	0	-1e10	1	-1e10	1	-1E+10	1	-1e10	1	-1e10	1	-1E+10	1	-1E+10	1	-1E+10	1
4902624	31	C	04/27/2025	01:38	-127.234	48.555	0	71.20	0	9.2666	0	32.4826	0	25.107	0	70.587	0	210.3	4	74.0	4	-1E+10	1	0.1150	4	0.000492	0	-1E+10	1	-1E+10	1	-1E+10	1
4902624	31	C	04/27/2025	01:38	-127.234	48.555	0	71.50	0	9.2630	0	32.4910	0	25.114	0	70.884	0	208.1	4	73.3	4	-1E+10	1	0.1095	4	0.000501	0	-1E+10	1	-1E+10	1	-1E+10	1
4902624	31	C	04/27/2025	01:38	-127.234	48.555	0	71.80	0	9.2594	0	32.4994	0	25.121	0	71.181	0	205.8	4	72.4	4	-1E+10	1	0.1752	4	0.000677	0	-1E+10	1	-1E+10	1	-1E+10	1
4902624	31	C	04/27/2025	01:38	-127.234	48.555	0	72.20	0	9.2546	0	32.5106	0	25.131	0	71.578	0	203.7	4	71.7	4	-1E+10	1	0.1168	4	0.000512	0	-1E+10	1	-1E+10	1	-1E+10	1
4902624	31	C	04/27/2025	01:38	-127.234	48.555	0	72.60	0	9.2498	0	32.5218	0	25.140	0	71.974	0	201.5	4	70.9	4	-1E+10	1	0.1168	4	0.000484	0	-1E+10	1	-1E+10	1	-1E+10	1
4902624	31	C	04/27/2025	01:38	-127.234	48.555	0	73.00	0	9.2450	0	32.5330	0	25.150	0	72.371	0	198.0	4	69.7	4	-1E+10	1	0.1212	4	0.000498	0	-1E+10	1	-1E+10	1	-1E+10	1
4902624	31	C	04/27/2025	01:38	-127.234	48.555	0	73.40	0	9.2172	0	32.5549	0	25.171	0	72.767	0	196.0	4	68.9	4	-1E+10	1	0.1124	4	0.000475	0	-1E+10	1	-1E+10	1	-1E+10	1
4902624	31	C	04/27/2025	01:38	-127.234	48.555	0	73.90	0	9.1825	0	32.5823	0	25.198	0	73.263	0	193.0	4	67.8	4	-1E+10	1	0.1475	4	0.000536	0	-1E+10	1	-1E+10	1	-1E+10	1
4902624	31	C	04/27/2025	01:38	-127.234	48.555	0	74.40	0	9.1477	0	32.6096	0	25.225	0	73.759	0	190.4	4	66.9	4	-1E+10	1	0.1922	4	0.000610	0	-1E+10	1	-1E+10	1	-1E+10	1
4902624	31	C	04/27/2025	01:38	-127.234	48.555	0	74.80	0	9.1199	0	32.6315	0	25.247	0	74.155	0	187.9	4	66.0	4	-1E+10	1	0.1241	4	0.000407	0	-1E+10	1	-1E+10	1	-1E+10	1
4902624	31	C	04/27/2025	01:38	-127.234	48.555	0	74.90	0	9.1130	0	32.6370	0	25.252	0	74.254	0	-1e10	1	-1e10	1	-1E+10	1	-1e10	1	-1e10	1	-1E+10	1	-1E+10	1	-1E+10	1
4902624	31	C	04/27/2025	01:38	-127.234	48.555	0	75.40	0	9.0690	0	32.6653	0	25.281	0	74.750	0	184.9	4	64.9	4	-1E+10	1	0.1898	4	0.000548	0	-1E+10	1	-1E+10	1	-1E+10	1
4902624	31	C	04/27/2025	01:38	-127.234	48.555	0	76.00	0	9.0162	0	32.6992	0	25.316	0	75.345	0	181.6	4	63.7	4	-1E+10	1	0.1085	4	0.000688	0	-1E+10	1	-1E+10	1	-1E+10	1
4902624	31	C	04/27/2025	01:38	-127.234	48.555	0	76.60	0	8.9634	0	32.7331	0	25.351	0	75.939	0	179.2	4	62.8	4	-1E+10	1	0.1314	4	0.000536	0	-1E+10	1	-1E+10	1	-1E+10	1
4902624	31	C	04/27/2025	01:38	-127.234	48.555	0	76.90	0	8.9370	0	32.7500	0	25.368	0	76.237	0	-1e10	1	-1e10	1	-1E+10	1	-1e10	1	-1e10	1	-1E+10	1	-1E+10	1	-1E+10	1
4902624	31	C	04/27/2025	01:38	-127.234	48.555	0	77.30	0	8.9084	0	32.7690	0	25.387	0	76.633	0	176.7	4	61.8	4	-1E+10	1	0.1232	4	0.000414	0	-1E+10	1	-1E+10	1	-1E+10	1
4902624	31	C	04/27/2025	01:38	-127.234	48.555	0	78.00	0	8.8583	0	32.8022	0	25.421	0	77.327	0	174.0	4	60.9	4	-1E+10	1	0.1022	4	0.000389	0	-1E+10	1	-1E+10	1	-1E+10	1
4902624	31	C	04/27/2025	01:38	-127.234	48.555	0	78.70	0	8.8083	0	32.8355	0	25.455	0	78.021	0	171.3	4	59.8	4	-1E+10	1	0.1004	4	0.000452	0	-1E+10	1	-1E+10	1	-1E+10	1
4902624	31	C	04/27/2025	01:38	-127.234	48.555	0	78.90	0	8.7940	0	32.8450	0	25.464	0	78.219	0	-1e10	1	-1e10	1	-1E+10	1	-1e10	1	-1e10	1	-1E+10	1	-1E+10	1	-1E+10	1
4902624	31	C	04/27/2025	01:38	-127.234	48.555	0	79.50	0	8.7651	0	32.8661	0	25.485	0	78.814	0	168.0	4	58.6	4	-1E+10	1	0.1119	4	0.000508	0	-1E+10	1	-1E+10	1	-1E+10	1
4902624	31	C	04/27/2025	01:38	-127.234	48.555	0	80.20	0	8.7315	0	32.8908	0	25.510	0	79.507	0	164.8	4	57.5	4	-1E+10	1	0.1161	4	0.000430	0	-1E+10	1	-1E+10	1	-1E+10	1
4902624	31	C	04/27/2025	01:38	-127.234	48.555	0	81.00	0	8.6930	0	32.9190	0	25.538	0	80.300	0	-1e10	1	-1e10	1	-1E+10	1	-1e10	1	-1e10	1	-1E+10	1	-1E+10	1	-1E+10	1
4902624	31	C	04/27/2025	01:38	-127.234	48.555	0	81.10	0	8.6867	0	32.9258	0	25.544	0	80.400	0	162.4	4	56.6	4	-1E+10	1	0.1095	4	0.000430	0	-1E+10	1	-1E+10	1	-1E+10	1
4902624	31	C	04/27/2025	01:38	-127.234	48.555	0	81.90	0	8.6368	0	32.9802	0	25.594	0	81.192	0	160.1	4	55.8	4	-1E+10	1	0.1095	4	0.000524	0	-1E+10	1	-1E+10	1	-1E+10	1
4902624	31	C	04/27/2025	01:38	-127.234	48.555	0	82.90	0	8.5743	0	33.0482	0	25.657	0	82.184	0	157.9	4	55.0	4	-1E+10	1	0.0896	4	0.000413	0	-1E+10	1	-1E+10	1	-1E+10	1
4902624	31	C	04/27/2025	01:38	-127.234	48.555	0	83.00	0	8.5680	0	33.0550	0	25.664	0	82.283	0	-1e10	1	-1e10	1	-1E+10	1	-1e10	1	-1e10	1	-1E+10	1	-1E+10	1	-1E+10	1
4902624	31	C	04/27/2025	01:38	-127.234	48.555	0	83.80	0	8.5516	0	33.0818	0	25.687	0	83.076	0	155.6	4	54.2	4	-1E+10	1	0.0823	4	0.000457	0	-1E+10	1	-1E+10	1	-1E+10	1
4902624	31	C	04/27/2025	01:38	-127.234	48.555	0	84.70	0	8.5332	0	33.1119	0	25.713	0	83.968	0	153.7	4	53.5	4	-1E+10	1	0.0759	4	0.000449	0	-1E+10	1	-1E+10	1	-1E+10	1
4902624	31	C	04/27/2025	01:38	-127.234	48.555	0	85.00	0	8.5270	0	33.1220	0	25.722	0	84.265	0	-1e10	1	-1e10	1	-1E+10	1	-1e10	1	-1e10	1	-1E+10	1	-1E+10	1	-1E+10	1
4902624	31	C	04/27/2025	01:38	-127.234	48.555	0	85.70	0	8.5144	0	33.1395	0	25.738	0	84.959	0	151.9	4	52.8	4	-1E+10	1	0.0730	4	0.000371	0	-1E+10	1	-1E+10	1	-1E+10	1
4902624	31	C	04/27/2025	01:38	-127.234	48.555	0	86.60	0	8.4982	0	33.1620	0	25.758	0	85.851	0	150.3	4	52.3	4	-1E+10	1	0.0909	4	0.000364	0	-1E+10	1	-1E+10	1	-1E+10	1
4902624	31	C	04/27/2025	01:38	-127.234	48.555	0	87.00	0	8.4910	0	33.1720	0	25.767	0	86.247	0	-1e10	1	-1e10	1	-1E+10	1	-1e10	1	-1e10	1	-1E+10	1	-1E+10	1	-1E+10	1
4902624	31	C	04/27/2025	01:38	-127.234	48.555	0	87.60	0	8.4759	0	33.1863	0	25.780	0	86.842	0	148.9	4	51.8	4	-1E+10	1	0.1299	4	0.000475	0	-1E+10	1	-1E+10	1	-1E+10	1
4902624	31	C	04/27/2025	01:38	-127.234	48.555	0	88.60	0	8.4506	0	33.2101	0	25.803	0	87.833	0	147.2	4	51.1	4	-1E+10	1	0.0909	4	0.000382	0	-1E+10	1	-1E+10	1	-1E+10	1
4902624	31	C	04/27/2025	01:38	-127.234	48.555	0	89.10	0	8.4380	0	33.2220	0	25.814	0	88.329	0	-1e10	1	-1e10	1	-1E+10	1	-1e10	1	-1e10	1	-1E+10	1	-1E+10	1	-1E+10	1
4902624	31	C	04/27/2025	01:38	-127.234	48.555	0	89.50	0	8.4315	0	33.2281	0	25.820	0	88.725	0	145.1	4	50.4	4	-1E+10	1	0.0730	4	0.000430	0	-1E+10	1	-1E+10	1	-1E+10	1
4902624	31	C	04/27/2025	01:38	-127.234	48.555	0	90.50	0	8.4152	0	33.2434	0	25.834	0	89.716	0	142.9	4	49.6	4	-1E+10	1	0.0973	4	0.000567	0	-1E+10	1	-1E+10	1	-1E+10	1
4902624	31	C	04/27/2025	01:38	-127.234	48.555	0	91.00	0	8.4070	0	33.2510	0	25.842	0	90.212	0	-1e10	1	-1e10	1	-1E+10	1	-1e10	1	-1e10	1	-1E+10	1	-1E+10	1	-1E+10	1
4902624	31	C	04/27/2025	01:38	-127.234	48.555	0	91.50	0	8.3822	0	33.2747	0	25.864	0	90.707	0	140.6	4	48.8	4	-1E+10	1	0.0788	4	0.000454	0	-1E+10	1	-1E+10	1	-1E+10	1
4902624	31	C	04/27/2025	01:38	-127.234	48.555	0	92.60	0	8.3278	0	33.3270	0	25.913	0	91.798	0	138.7	4	48.1	4	-1E+10	1	0.0831	4	0.000463	0	-1E+10	1	-1E+10	1	-1E+10	1
4902624	31	C	04/27/2025	01:38	-127.234	48.555	0	93.00	0	8.3080	0	33.3460	0	25.931	0	92.194	0	-1e10	1	-1e10	1	-1E+10	1	-1e10	1	-1e10	1	-1E+10	1	-1E+10	1	-1E+10	1
4902624	31	C	04/27/2025	01:38	-127.234	48.555	0	93.70	0	8.2917	0	33.3687	0	25.951	0	92.888	0	137.1	4	47.5	4	-1E+10	1	0.0955	4	0.000480	0	-1E+10	1	-1E+10	1	-1E+10	1
4902624	31	C	04/27/2025	01:38	-127.234	48.555	0	94.80	0	8.2660	0	33.4043	0	25.983	0	93.978	0	135.6	4	47.0	4	-1E+10	1	0.1122	4	0.000472	0	-1E+10	1	-1E+10	1	-1E+10	1
4902624	31	C	04/27/2025	01:38	-127.234	48.555	0	95.10	0	8.2590	0	33.4140	0	25.992	0	94.275	0	-1e10	1	-1e10	1	-1E+10	1	-1e10	1	-1e10	1	-1E+10	1	-1E+10	1	-1E+10	1
4902624	31	C	04/27/2025	01:38	-127.234	48.555	0	95.80	0	8.2324	0	33.4298	0	26.008	0	94.969	0	134.0	4	46.4	4	-1E+10	1	0.1135	4	0.000448	0	-1E+10	1	-1E+10	1	-1E+10	1
4902624	31	C	04/27/2025	01:38	-127.234	48.555	0	96.70	0	8.1982	0	33.4500	0	26.029	0	95.861	0	132.9	4	46.0	4	-1E+10	1	0.0917	4	0.000431	0	-1E+10	1	-1E+10	1	-1E+10	1
4902624	31	C	04/27/2025	01:38	-127.234	48.555	0	97.10	0	8.1830	0	33.4590	0	26.038	0	96.258	0	-1e10	1	-1e10	1	-1E+10	1	-1e10	1	-1e10	1	-1E+10	1	-1E+10	1	-1E+10	1
4902624	31	C	04/27/2025	01:38	-127.234	48.555	0	97.40	0	8.1742	0	33.4652	0	26.045	0	96.555	0	132.4	4	45.8	4	-1E+10	1	0.0803	4	0.000477	0	-1E+10	1	-1E+10	1	-1E+10	1
4902624	31	C	04/27/2025	01:38	-127.234	48.555	0	98.00	0	8.1565	0	33.4775	0	26.057	0	97.150	0	131.8	4	45.6	4	-1E+10	1	0.1168	4	0.000430	0	-1E+10	1	-1E+10	1	-1E+10	1
4902624	31	C	04/27/2025	01:38	-127.234	48.555	0	98.60	0	8.1388	0	33.4898	0	26.069	0	97.744	0	130.8	4	45.2	4	-1E+10	1	0.1043	4	0.000420	0	-1E+10	1	-1E+10	1	-1E+10	1
4902624	31	C	04/27/2025	01:38	-127.234	48.555	0	98.90	0	8.1300	0	33.4960	0	26.075	0	98.042	0	-1e10	1	-1e10	1	-1E+10	1	-1e10	1	-1e10	1	-1E+10	1	-1E+10	1	-1E+10	1
4902624	31	C	04/27/2025	01:38	-127.234	48.555	0	99.20	0	8.1198	0	33.5035	0	26.083	0	98.339	0	130.0	4	44.9	4	-1E+10	1	0.1022	4	0.000462	0	-1E+10	1	-1E+10	1	-1E+10	1
4902624	31	C	04/27/2025	01:38	-127.234	48.555	0	99.90	0	8.0960	0	33.5210	0	26.100	0	99.033	0	129.0	4	44.6	4	-1E+10	1	0.0939	4	0.000455	0	-1E+10	1	-1E+10	1	-1E+10	1
4902624	31	C	04/27/2025	01:38	-127.234	48.555	0	100.70	0	8.0688	0	33.5410	0	26.120	0	99.826	0	128.4	4	44.3	4	-1E+10	1	0.0917	4	0.000456	0	-1E+10	1	-1E+10	1	-1E+10	1
4902624	31	C	04/27/2025	01:38	-127.234	48.555	0	100.90	0	8.0620	0	33.5460	0	26.125	0	100.024	0	-1e10	1	-1e10	1	-1E+10	1	-1e10	1	-1e10	1	-1E+10	1	-1E+10	1	-1E+10	1
4902624	31	C	04/27/2025	01:38	-127.234	48.555	0	101.40	0	8.0382	0	33.5572	0	26.137	0	100.519	0	128.2	4	44.2	4	-1E+10	1	0.0905	4	0.000477	0	-1E+10	1	-1E+10	1	-1E+10	1
4902624	31	C	04/27/2025	01:38	-127.234	48.555	0	102.20	0	8.0001	0	33.5751	0	26.157	0	101.312	0	127.8	4	44.1	4	-1E+10	1	0.0803	4	0.000487	0	-1E+10	1	-1E+10	1	-1E+10	1
4902624	31	C	04/27/2025	01:38	-127.234	48.555	0	103.00	0	7.9620	0	33.5930	0	26.176	0	102.105	0	125.5	4	43.3	4	-1E+10	1	0.0908	4	0.001517	0	-1E+10	1	-1E+10	1	-1E+10	1
4902624	31	C	04/27/2025	01:38	-127.234	48.555	0	103.80	0	7.9268	0	33.5942	0	26.182	0	102.898	0	127.0	4	43.7	4	-1E+10	1	0.1752	4	0.009181	0	-1E+10	1	-1E+10	1	-1E+10	1
4902624	31	C	04/27/2025	01:38	-127.234	48.555	0	104.60	0	7.8916	0	33.5954	0	26.188	0	103.691	0	126.5	4	43.5	4	-1E+10	1	0.0876	4	0.002218	0	-1E+10	1	-1E+10	1	-1E+10	1
4902624	31	C	04/27/2025	01:38	-127.234	48.555	0	105.00	0	7.8740	0	33.5960	0	26.191	0	104.087	0	-1e10	1	-1e10	1	-1E+10	1	-1e10	1	-1e10	1	-1E+10	1	-1E+10	1	-1E+10	1
4902624	31	C	04/27/2025	01:38	-127.234	48.555	0	105.40	0	7.8658	0	33.5990	0	26.195	0	104.484	0	126.0	4	43.3	4	-1E+10	1	0.0821	4	0.000512	0	-1E+10	1	-1E+10	1	-1E+10	1
4902624	31	C	04/27/2025	01:38	-127.234	48.555	0	106.20	0	7.8494	0	33.6050	0	26.202	0	105.276	0	125.5	4	43.1	4	-1E+10	1	0.0876	4	0.000516	0	-1E+10	1	-1E+10	1	-1E+10	1
4902624	31	C	04/27/2025	01:38	-127.234	48.555	0	107.00	0	7.8330	0	33.6110	0	26.209	0	106.069	0	123.1	4	42.3	4	-1E+10	1	0.0876	4	0.000530	0	-1E+10	1	-1E+10	1	-1E+10	1
4902624	31	C	04/27/2025	01:38	-127.234	48.555	0	107.80	0	7.8141	0	33.6203	0	26.219	0	106.862	0	124.5	4	42.8	4	-1E+10	1	0.0925	4	0.000559	0	-1E+10	1	-1E+10	1	-1E+10	1
4902624	31	C	04/27/2025	01:38	-127.234	48.555	0	108.70	0	7.7927	0	33.6307	0	26.231	0	107.754	0	124.1	4	42.6	4	-1E+10	1	0.0940	4	0.000543	0	-1E+10	1	-1E+10	1	-1E+10	1
4902624	31	C	04/27/2025	01:38	-127.234	48.555	0	108.90	0	7.7880	0	33.6330	0	26.233	0	107.952	0	-1e10	1	-1e10	1	-1E+10	1	-1e10	1	-1e10	1	-1E+10	1	-1E+10	1	-1E+10	1
4902624	31	C	04/27/2025	01:38	-127.234	48.555	0	109.60	0	7.7859	0	33.6382	0	26.237	0	108.646	0	123.6	4	42.5	4	-1E+10	1	0.0920	4	0.000833	0	-1E+10	1	-1E+10	1	-1E+10	1
4902624	31	C	04/27/2025	01:38	-127.234	48.555	0	110.40	0	7.7835	0	33.6442	0	26.243	0	109.439	0	123.2	4	42.3	4	-1E+10	1	0.1004	4	0.001151	0	-1E+10	1	-1E+10	1	-1E+10	1
4902624	31	C	04/27/2025	01:38	-127.234	48.555	0	110.90	0	7.7820	0	33.6480	0	26.246	0	109.934	0	-1e10	1	-1e10	1	-1E+10	1	-1e10	1	-1e10	1	-1E+10	1	-1E+10	1	-1E+10	1
4902624	31	C	04/27/2025	01:38	-127.234	48.555	0	111.20	0	7.7803	0	33.6510	0	26.248	0	110.232	0	122.7	4	42.1	4	-1E+10	1	0.0757	4	0.000492	0	-1E+10	1	-1E+10	1	-1E+10	1
4902624	31	C	04/27/2025	01:38	-127.234	48.555	0	112.10	0	7.7751	0	33.6600	0	26.256	0	111.123	0	122.2	4	42.0	4	-1E+10	1	0.0876	4	0.000453	0	-1E+10	1	-1E+10	1	-1E+10	1
4902624	31	C	04/27/2025	01:38	-127.234	48.555	0	113.00	0	7.7700	0	33.6690	0	26.264	0	112.015	0	120.0	4	41.2	4	-1E+10	1	0.0810	4	0.000517	0	-1E+10	1	-1E+10	1	-1E+10	1
4902624	31	C	04/27/2025	01:38	-127.234	48.555	0	113.80	0	7.7832	0	33.6782	0	26.269	0	112.808	0	121.6	4	41.8	4	-1E+10	1	0.0746	4	0.000560	0	-1E+10	1	-1E+10	1	-1E+10	1
4902624	31	C	04/27/2025	01:38	-127.234	48.555	0	114.70	0	7.7980	0	33.6886	0	26.275	0	113.700	0	121.4	4	41.7	4	-1E+10	1	0.0730	4	0.000578	0	-1E+10	1	-1E+10	1	-1E+10	1
4902624	31	C	04/27/2025	01:38	-127.234	48.555	0	115.00	0	7.8030	0	33.6920	0	26.277	0	113.997	0	-1e10	1	-1e10	1	-1E+10	1	-1e10	1	-1e10	1	-1E+10	1	-1E+10	1	-1E+10	1
4902624	31	C	04/27/2025	01:38	-127.234	48.555	0	115.60	0	7.7970	0	33.6926	0	26.279	0	114.592	0	121.1	4	41.6	4	-1E+10	1	0.0730	4	0.000606	0	-1E+10	1	-1E+10	1	-1E+10	1
4902624	31	C	04/27/2025	01:38	-127.234	48.555	0	116.50	0	7.7880	0	33.6935	0	26.281	0	115.484	0	120.8	4	41.5	4	-1E+10	1	0.0762	4	0.000814	0	-1E+10	1	-1E+10	1	-1E+10	1
4902624	31	C	04/27/2025	01:38	-127.234	48.555	0	117.00	0	7.7830	0	33.6940	0	26.282	0	115.979	0	-1e10	1	-1e10	1	-1E+10	1	-1e10	1	-1e10	1	-1E+10	1	-1E+10	1	-1E+10	1
4902624	31	C	04/27/2025	01:38	-127.234	48.555	0	117.40	0	7.7788	0	33.6946	0	26.283	0	116.376	0	120.5	4	41.4	4	-1E+10	1	0.0803	4	0.000860	0	-1E+10	1	-1E+10	1	-1E+10	1
4902624	31	C	04/27/2025	01:38	-127.234	48.555	0	118.30	0	7.7693	0	33.6961	0	26.285	0	117.268	0	120.1	4	41.2	4	-1E+10	1	0.0843	4	0.000527	0	-1E+10	1	-1E+10	1	-1E+10	1
4902624	31	C	04/27/2025	01:38	-127.234	48.555	0	118.90	0	7.7630	0	33.6970	0	26.287	0	117.862	0	-1e10	1	-1e10	1	-1E+10	1	-1e10	1	-1e10	1	-1E+10	1	-1E+10	1	-1E+10	1
4902624	31	C	04/27/2025	01:38	-127.234	48.555	0	119.20	0	7.7617	0	33.6980	0	26.288	0	118.160	0	119.7	4	41.1	4	-1E+10	1	0.1022	4	0.000488	0	-1E+10	1	-1E+10	1	-1E+10	1
4902624	31	C	04/27/2025	01:38	-127.234	48.555	0	120.10	0	7.7579	0	33.7010	0	26.291	0	119.051	0	119.2	4	40.9	4	-1E+10	1	0.0803	4	0.000676	0	-1E+10	1	-1E+10	1	-1E+10	1
4902624	31	C	04/27/2025	01:38	-127.234	48.555	0	121.00	0	7.7540	0	33.7040	0	26.294	0	119.943	0	116.9	4	40.1	4	-1E+10	1	0.0863	4	0.000619	0	-1E+10	1	-1E+10	1	-1E+10	1
4902624	31	C	04/27/2025	01:38	-127.234	48.555	0	121.90	0	7.7549	0	33.7067	0	26.296	0	120.835	0	118.3	4	40.6	4	-1E+10	1	0.0830	4	0.000598	0	-1E+10	1	-1E+10	1	-1E+10	1
4902624	31	C	04/27/2025	01:38	-127.234	48.555	0	122.80	0	7.7558	0	33.7094	0	26.298	0	121.727	0	117.8	4	40.4	4	-1E+10	1	0.0884	4	0.000640	0	-1E+10	1	-1E+10	1	-1E+10	1
4902624	31	C	04/27/2025	01:38	-127.234	48.555	0	123.00	0	7.7560	0	33.7100	0	26.298	0	121.925	0	-1e10	1	-1e10	1	-1E+10	1	-1e10	1	-1e10	1	-1E+10	1	-1E+10	1	-1E+10	1
4902624	31	C	04/27/2025	01:38	-127.234	48.555	0	123.70	0	7.7508	0	33.7111	0	26.300	0	122.619	0	117.2	4	40.2	4	-1E+10	1	0.0913	4	0.000600	0	-1E+10	1	-1E+10	1	-1E+10	1
4902624	31	C	04/27/2025	01:38	-127.234	48.555	0	124.60	0	7.7442	0	33.7125	0	26.302	0	123.511	0	116.6	4	40.0	4	-1E+10	1	0.0876	4	0.000596	0	-1E+10	1	-1E+10	1	-1E+10	1
4902624	31	C	04/27/2025	01:38	-127.234	48.555	0	124.90	0	7.7420	0	33.7130	0	26.303	0	123.808	0	-1e10	1	-1e10	1	-1E+10	1	-1e10	1	-1e10	1	-1E+10	1	-1E+10	1	-1E+10	1
4902624	31	C	04/27/2025	01:38	-127.234	48.555	0	125.50	0	7.7377	0	33.7173	0	26.307	0	124.403	0	115.9	4	39.8	4	-1E+10	1	0.0876	4	0.000692	0	-1E+10	1	-1E+10	1	-1E+10	1
4902624	31	C	04/27/2025	01:38	-127.234	48.555	0	126.40	0	7.7313	0	33.7237	0	26.313	0	125.295	0	115.2	4	39.6	4	-1E+10	1	0.0836	4	0.000574	0	-1E+10	1	-1E+10	1	-1E+10	1
4902624	31	C	04/27/2025	01:38	-127.234	48.555	0	127.00	0	7.7270	0	33.7280	0	26.317	0	125.889	0	-1e10	1	-1e10	1	-1E+10	1	-1e10	1	-1e10	1	-1E+10	1	-1E+10	1	-1E+10	1
4902624	31	C	04/27/2025	01:38	-127.234	48.555	0	127.30	0	7.7267	0	33.7304	0	26.319	0	126.186	0	114.7	4	39.4	4	-1E+10	1	0.0657	4	0.000535	0	-1E+10	1	-1E+10	1	-1E+10	1
4902624	31	C	04/27/2025	01:38	-127.234	48.555	0	128.10	0	7.7260	0	33.7369	0	26.324	0	126.979	0	114.2	4	39.2	4	-1E+10	1	0.0715	4	0.000563	0	-1E+10	1	-1E+10	1	-1E+10	1
4902624	31	C	04/27/2025	01:38	-127.234	48.555	0	129.00	0	7.7251	0	33.7442	0	26.330	0	127.871	0	113.5	4	39.0	4	-1E+10	1	0.0844	4	0.000589	0	-1E+10	1	-1E+10	1	-1E+10	1
4902624	31	C	04/27/2025	01:38	-127.234	48.555	0	129.10	0	7.7250	0	33.7450	0	26.330	0	127.970	0	-1e10	1	-1e10	1	-1E+10	1	-1e10	1	-1e10	1	-1E+10	1	-1E+10	1	-1E+10	1
4902624	31	C	04/27/2025	01:38	-127.234	48.555	0	130.00	0	7.7174	0	33.7540	0	26.339	0	128.862	0	112.7	4	38.7	4	-1E+10	1	0.0664	4	0.000645	0	-1E+10	1	-1E+10	1	-1E+10	1
4902624	31	C	04/27/2025	01:38	-127.234	48.555	0	130.90	0	7.7098	0	33.7630	0	26.347	0	129.754	0	111.9	4	38.4	4	-1E+10	1	0.0620	4	0.000670	0	-1E+10	1	-1E+10	1	-1E+10	1
4902624	31	C	04/27/2025	01:38	-127.234	48.555	0	131.00	0	7.7090	0	33.7640	0	26.348	0	129.853	0	-1e10	1	-1e10	1	-1E+10	1	-1e10	1	-1e10	1	-1E+10	1	-1E+10	1	-1E+10	1
4902624	31	C	04/27/2025	01:38	-127.234	48.555	0	131.80	0	7.7322	0	33.7736	0	26.352	0	130.646	0	111.1	4	38.2	4	-1E+10	1	0.0608	4	0.000625	0	-1E+10	1	-1E+10	1	-1E+10	1
4902624	31	C	04/27/2025	01:38	-127.234	48.555	0	132.80	0	7.7612	0	33.7856	0	26.357	0	131.637	0	110.5	4	38.0	4	-1E+10	1	0.2635	4	0.002537	0	-1E+10	1	-1E+10	1	-1E+10	1
4902624	31	C	04/27/2025	01:38	-127.234	48.555	0	133.00	0	7.7670	0	33.7880	0	26.358	0	131.835	0	-1e10	1	-1e10	1	-1E+10	1	-1e10	1	-1e10	1	-1E+10	1	-1E+10	1	-1E+10	1
4902624	31	C	04/27/2025	01:38	-127.234	48.555	0	133.70	0	7.7751	0	33.7946	0	26.362	0	132.528	0	110.0	4	37.8	4	-1E+10	1	0.5329	4	0.005041	0	-1E+10	1	-1E+10	1	-1E+10	1
4902624	31	C	04/27/2025	01:38	-127.234	48.555	0	134.60	0	7.7854	0	33.8032	0	26.368	0	133.420	0	109.5	4	37.7	4	-1E+10	1	0.0730	4	0.000453	0	-1E+10	1	-1E+10	1	-1E+10	1
4902624	31	C	04/27/2025	01:38	-127.234	48.555	0	135.00	0	7.7900	0	33.8070	0	26.370	0	133.817	0	-1e10	1	-1e10	1	-1E+10	1	-1e10	1	-1e10	1	-1E+10	1	-1E+10	1	-1E+10	1
4902624	31	C	04/27/2025	01:38	-127.234	48.555	0	135.60	0	7.7803	0	33.8116	0	26.375	0	134.411	0	109.0	4	37.5	4	-1E+10	1	0.0584	4	0.000488	0	-1E+10	1	-1E+10	1	-1E+10	1
4902624	31	C	04/27/2025	01:38	-127.234	48.555	0	136.50	0	7.7657	0	33.8184	0	26.382	0	135.303	0	108.6	4	37.3	4	-1E+10	1	0.0644	4	0.000508	0	-1E+10	1	-1E+10	1	-1E+10	1
4902624	31	C	04/27/2025	01:38	-127.234	48.555	0	137.10	0	7.7560	0	33.8230	0	26.387	0	135.897	0	-1e10	1	-1e10	1	-1E+10	1	-1e10	1	-1e10	1	-1E+10	1	-1E+10	1	-1E+10	1
4902624	31	C	04/27/2025	01:38	-127.234	48.555	0	137.40	0	7.7455	0	33.8253	0	26.391	0	136.195	0	108.2	4	37.2	4	-1E+10	1	0.0555	4	0.000512	0	-1E+10	1	-1E+10	1	-1E+10	1
4902624	31	C	04/27/2025	01:38	-127.234	48.555	0	138.30	0	7.7140	0	33.8320	0	26.401	0	137.087	0	107.8	4	37.0	4	-1E+10	1	0.0608	4	0.000512	0	-1E+10	1	-1E+10	1	-1E+10	1
4902624	31	C	04/27/2025	01:38	-127.234	48.555	0	139.10	0	7.6860	0	33.8380	0	26.409	0	137.879	0	-1e10	1	-1e10	1	-1E+10	1	-1e10	1	-1e10	1	-1E+10	1	-1E+10	1	-1E+10	1
4902624	31	C	04/27/2025	01:38	-127.234	48.555	0	139.20	0	7.6853	0	33.8384	0	26.410	0	137.978	0	107.5	4	36.9	4	-1E+10	1	0.0617	4	0.000493	0	-1E+10	1	-1E+10	1	-1E+10	1
4902624	31	C	04/27/2025	01:38	-127.234	48.555	0	140.10	0	7.6790	0	33.8415	0	26.413	0	138.870	0	107.2	4	36.8	4	-1E+10	1	0.0584	4	0.000460	0	-1E+10	1	-1E+10	1	-1E+10	1
4902624	31	C	04/27/2025	01:38	-127.234	48.555	0	141.00	0	7.6727	0	33.8447	0	26.416	0	139.762	0	106.9	4	36.7	4	-1E+10	1	0.0599	4	0.000437	0	-1E+10	1	-1E+10	1	-1E+10	1
4902624	31	C	04/27/2025	01:38	-127.234	48.555	0	141.10	0	7.6720	0	33.8450	0	26.417	0	139.861	0	-1e10	1	-1e10	1	-1E+10	1	-1e10	1	-1e10	1	-1E+10	1	-1E+10	1	-1E+10	1
4902624	31	C	04/27/2025	01:38	-127.234	48.555	0	142.00	0	7.6734	0	33.8469	0	26.418	0	140.753	0	106.7	4	36.6	4	-1E+10	1	0.0644	4	0.000461	0	-1E+10	1	-1E+10	1	-1E+10	1
4902624	31	C	04/27/2025	01:38	-127.234	48.555	0	142.90	0	7.6748	0	33.8488	0	26.419	0	141.645	0	106.4	4	36.5	4	-1E+10	1	0.0584	4	0.000441	0	-1E+10	1	-1E+10	1	-1E+10	1
4902624	31	C	04/27/2025	01:38	-127.234	48.555	0	143.00	0	7.6750	0	33.8490	0	26.420	0	141.744	0	-1e10	1	-1e10	1	-1E+10	1	-1e10	1	-1e10	1	-1E+10	1	-1E+10	1	-1E+10	1
4902624	31	C	04/27/2025	01:38	-127.234	48.555	0	143.80	0	7.6718	0	33.8502	0	26.421	0	142.536	0	106.1	4	36.4	4	-1E+10	1	0.0584	4	0.000518	0	-1E+10	1	-1E+10	1	-1E+10	1
4902624	31	C	04/27/2025	01:38	-127.234	48.555	0	144.70	0	7.6682	0	33.8516	0	26.423	0	143.428	0	105.7	4	36.3	4	-1E+10	1	0.0584	4	0.000508	0	-1E+10	1	-1E+10	1	-1E+10	1
4902624	31	C	04/27/2025	01:38	-127.234	48.555	0	145.00	0	7.6670	0	33.8520	0	26.423	0	143.725	0	-1e10	1	-1e10	1	-1E+10	1	-1e10	1	-1e10	1	-1E+10	1	-1E+10	1	-1E+10	1
4902624	31	C	04/27/2025	01:38	-127.234	48.555	0	145.60	0	7.6661	0	33.8523	0	26.423	0	144.320	0	105.4	4	36.2	4	-1E+10	1	0.0630	4	0.000560	0	-1E+10	1	-1E+10	1	-1E+10	1
4902624	31	C	04/27/2025	01:38	-127.234	48.555	0	146.50	0	7.6648	0	33.8528	0	26.424	0	145.212	0	105.0	4	36.0	4	-1E+10	1	0.0657	4	0.000525	0	-1E+10	1	-1E+10	1	-1E+10	1
4902624	31	C	04/27/2025	01:38	-127.234	48.555	0	147.00	0	7.6640	0	33.8530	0	26.424	0	145.707	0	-1e10	1	-1e10	1	-1E+10	1	-1e10	1	-1e10	1	-1E+10	1	-1E+10	1	-1E+10	1
4902624	31	C	04/27/2025	01:38	-127.234	48.555	0	147.40	0	7.6644	0	33.8536	0	26.425	0	146.103	0	104.5	4	35.8	4	-1E+10	1	0.0630	4	0.000463	0	-1E+10	1	-1E+10	1	-1E+10	1
4902624	31	C	04/27/2025	01:38	-127.234	48.555	0	148.30	0	7.6652	0	33.8549	0	26.426	0	146.995	0	104.0	4	35.7	4	-1E+10	1	0.2920	4	0.000790	0	-1E+10	1	-1E+10	1	-1E+10	1
4902624	31	C	04/27/2025	01:38	-127.234	48.555	0	149.10	0	7.6660	0	33.8560	0	26.426	0	147.788	0	-1e10	1	-1e10	1	-1E+10	1	-1e10	1	-1e10	1	-1E+10	1	-1E+10	1	-1E+10	1
4902624	31	C	04/27/2025	01:38	-127.234	48.555	0	149.20	0	7.6652	0	33.8565	0	26.427	0	147.887	0	103.5	4	35.5	4	-1E+10	1	0.5853	4	0.001157	0	-1E+10	1	-1E+10	1	-1E+10	1
4902624	31	C	04/27/2025	01:38	-127.234	48.555	0	150.10	0	7.6585	0	33.8615	0	26.432	0	148.779	0	103.1	4	35.3	4	-1E+10	1	0.0657	4	0.000523	0	-1E+10	1	-1E+10	1	-1E+10	1
4902624	31	C	04/27/2025	01:38	-127.234	48.555	0	151.00	0	7.6518	0	33.8665	0	26.437	0	149.671	0	102.7	4	35.2	4	-1E+10	1	0.0657	4	0.000793	0	-1E+10	1	-1E+10	1	-1E+10	1
4902624	31	C	04/27/2025	01:38	-127.234	48.555	0	151.10	0	7.6510	0	33.8670	0	26.437	0	149.770	0	-1e10	1	-1e10	1	-1E+10	1	-1e10	1	-1e10	1	-1E+10	1	-1E+10	1	-1E+10	1
4902624	31	C	04/27/2025	01:38	-127.234	48.555	0	151.90	0	7.6338	0	33.8706	0	26.443	0	150.562	0	102.3	4	35.1	4	-1E+10	1	0.0657	4	0.000726	0	-1E+10	1	-1E+10	1	-1E+10	1
4902624	31	C	04/27/2025	01:38	-127.234	48.555	0	152.80	0	7.6144	0	33.8746	0	26.449	0	151.454	0	102.0	4	34.9	4	-1E+10	1	0.0750	4	0.000621	0	-1E+10	1	-1E+10	1	-1E+10	1
4902624	31	C	04/27/2025	01:38	-127.234	48.555	0	153.10	0	7.6080	0	33.8760	0	26.451	0	151.751	0	-1e10	1	-1e10	1	-1E+10	1	-1e10	1	-1e10	1	-1E+10	1	-1E+10	1	-1E+10	1
4902624	31	C	04/27/2025	01:38	-127.234	48.555	0	153.70	0	7.6026	0	33.8763	0	26.452	0	152.346	0	101.5	4	34.8	4	-1E+10	1	0.0681	4	0.000525	0	-1E+10	1	-1E+10	1	-1E+10	1
4902624	31	C	04/27/2025	01:38	-127.234	48.555	0	154.70	0	7.5936	0	33.8768	0	26.453	0	153.337	0	101.1	4	34.6	4	-1E+10	1	0.0703	4	0.001365	0	-1E+10	1	-1E+10	1	-1E+10	1
4902624	31	C	04/27/2025	01:38	-127.234	48.555	0	155.10	0	7.5900	0	33.8770	0	26.454	0	153.733	0	-1e10	1	-1e10	1	-1E+10	1	-1e10	1	-1e10	1	-1E+10	1	-1E+10	1	-1E+10	1
4902624	31	C	04/27/2025	01:38	-127.234	48.555	0	155.60	0	7.5865	0	33.8778	0	26.455	0	154.228	0	100.6	4	34.5	4	-1E+10	1	0.0697	4	0.001507	0	-1E+10	1	-1E+10	1	-1E+10	1
4902624	31	C	04/27/2025	01:38	-127.234	48.555	0	156.50	0	7.5802	0	33.8791	0	26.457	0	155.120	0	100.0	4	34.2	4	-1E+10	1	0.0527	4	0.000479	0	-1E+10	1	-1E+10	1	-1E+10	1
4902624	31	C	04/27/2025	01:38	-127.234	48.555	0	157.10	0	7.5760	0	33.8800	0	26.458	0	155.715	0	-1e10	1	-1e10	1	-1E+10	1	-1e10	1	-1e10	1	-1E+10	1	-1E+10	1	-1E+10	1
4902624	31	C	04/27/2025	01:38	-127.234	48.555	0	157.40	0	7.5706	0	33.8815	0	26.460	0	156.012	0	99.5	4	34.1	4	-1E+10	1	0.0571	4	0.000518	0	-1E+10	1	-1E+10	1	-1E+10	1
4902624	31	C	04/27/2025	01:38	-127.234	48.555	0	158.30	0	7.5544	0	33.8860	0	26.466	0	156.903	0	99.0	4	33.9	4	-1E+10	1	0.0511	4	0.000652	0	-1E+10	1	-1E+10	1	-1E+10	1
4902624	31	C	04/27/2025	01:38	-127.234	48.555	0	159.10	0	7.5400	0	33.8900	0	26.471	0	157.696	0	-1e10	1	-1e10	1	-1E+10	1	-1e10	1	-1e10	1	-1E+10	1	-1E+10	1	-1E+10	1
4902624	31	C	04/27/2025	01:38	-127.234	48.555	0	159.20	0	7.5378	0	33.8902	0	26.472	0	157.795	0	98.6	4	33.7	4	-1E+10	1	0.0630	4	0.000528	0	-1E+10	1	-1E+10	1	-1E+10	1
4902624	31	C	04/27/2025	01:38	-127.234	48.555	0	160.10	0	7.5185	0	33.8920	0	26.476	0	158.687	0	98.2	4	33.6	4	-1E+10	1	0.0600	4	0.000518	0	-1E+10	1	-1E+10	1	-1E+10	1
4902624	31	C	04/27/2025	01:38	-127.234	48.555	0	161.00	0	7.4992	0	33.8938	0	26.480	0	159.579	0	97.8	4	33.4	4	-1E+10	1	0.0538	4	0.000523	0	-1E+10	1	-1E+10	1	-1E+10	1
4902624	31	C	04/27/2025	01:38	-127.234	48.555	0	161.10	0	7.4970	0	33.8940	0	26.481	0	159.678	0	-1e10	1	-1e10	1	-1E+10	1	-1e10	1	-1e10	1	-1E+10	1	-1E+10	1	-1E+10	1
4902624	31	C	04/27/2025	01:38	-127.234	48.555	0	162.00	0	7.4754	0	33.8976	0	26.487	0	160.569	0	97.4	4	33.3	4	-1E+10	1	0.0591	4	0.000472	0	-1E+10	1	-1E+10	1	-1E+10	1
4902624	31	C	04/27/2025	01:38	-127.234	48.555	0	162.90	0	7.4538	0	33.9012	0	26.492	0	161.461	0	97.2	4	33.2	4	-1E+10	1	0.0722	4	0.000513	0	-1E+10	1	-1E+10	1	-1E+10	1
4902624	31	C	04/27/2025	01:38	-127.234	48.555	0	163.10	0	7.4490	0	33.9020	0	26.494	0	161.659	0	-1e10	1	-1e10	1	-1E+10	1	-1e10	1	-1e10	1	-1E+10	1	-1E+10	1	-1E+10	1
4902624	31	C	04/27/2025	01:38	-127.234	48.555	0	163.80	0	7.4458	0	33.9024	0	26.494	0	162.353	0	96.8	4	33.1	4	-1E+10	1	0.0657	4	0.000566	0	-1E+10	1	-1E+10	1	-1E+10	1
4902624	31	C	04/27/2025	01:38	-127.234	48.555	0	164.70	0	7.4418	0	33.9028	0	26.495	0	163.244	0	96.5	4	33.0	4	-1E+10	1	0.0498	4	0.000526	0	-1E+10	1	-1E+10	1	-1E+10	1
4902624	31	C	04/27/2025	01:38	-127.234	48.555	0	165.10	0	7.4400	0	33.9030	0	26.496	0	163.641	0	-1e10	1	-1e10	1	-1E+10	1	-1e10	1	-1e10	1	-1E+10	1	-1E+10	1	-1E+10	1
4902624	31	C	04/27/2025	01:38	-127.234	48.555	0	165.70	0	7.4340	0	33.9036	0	26.497	0	164.235	0	96.2	4	32.8	4	-1E+10	1	0.0657	4	0.000598	0	-1E+10	1	-1E+10	1	-1E+10	1
4902624	31	C	04/27/2025	01:38	-127.234	48.555	0	166.60	0	7.4250	0	33.9046	0	26.499	0	165.127	0	95.8	4	32.7	4	-1E+10	1	0.0669	4	0.000517	0	-1E+10	1	-1E+10	1	-1E+10	1
4902624	31	C	04/27/2025	01:38	-127.234	48.555	0	167.00	0	7.4210	0	33.9050	0	26.500	0	165.523	0	-1e10	1	-1e10	1	-1E+10	1	-1e10	1	-1e10	1	-1E+10	1	-1E+10	1	-1E+10	1
4902624	31	C	04/27/2025	01:38	-127.234	48.555	0	167.60	0	7.4090	0	33.9066	0	26.503	0	166.118	0	95.5	4	32.6	4	-1E+10	1	0.0730	4	0.000664	0	-1E+10	1	-1E+10	1	-1E+10	1
4902624	31	C	04/27/2025	01:38	-127.234	48.555	0	168.50	0	7.3910	0	33.9089	0	26.507	0	167.009	0	95.2	4	32.5	4	-1E+10	1	0.0670	4	0.000626	0	-1E+10	1	-1E+10	1	-1E+10	1
4902624	31	C	04/27/2025	01:38	-127.234	48.555	0	168.90	0	7.3830	0	33.9100	0	26.509	0	167.406	0	-1e10	1	-1e10	1	-1E+10	1	-1e10	1	-1e10	1	-1E+10	1	-1E+10	1	-1E+10	1
4902624	31	C	04/27/2025	01:38	-127.234	48.555	0	169.50	0	7.3764	0	33.9111	0	26.511	0	168.000	0	95.0	4	32.4	4	-1E+10	1	0.0657	4	0.000476	0	-1E+10	1	-1E+10	1	-1E+10	1
4902624	31	C	04/27/2025	01:38	-127.234	48.555	0	170.50	0	7.3655	0	33.9130	0	26.514	0	168.991	0	94.8	4	32.3	4	-1E+10	1	0.0608	4	0.000488	0	-1E+10	1	-1E+10	1	-1E+10	1
4902624	31	C	04/27/2025	01:38	-127.234	48.555	0	171.00	0	7.3600	0	33.9140	0	26.516	0	169.486	0	-1e10	1	-1e10	1	-1E+10	1	-1e10	1	-1e10	1	-1E+10	1	-1E+10	1	-1E+10	1
4902624	31	C	04/27/2025	01:38	-127.234	48.555	0	171.40	0	7.3585	0	33.9151	0	26.517	0	169.883	0	94.6	4	32.2	4	-1E+10	1	0.0551	4	0.000517	0	-1E+10	1	-1E+10	1	-1E+10	1
4902624	31	C	04/27/2025	01:38	-127.234	48.555	0	172.40	0	7.3548	0	33.9177	0	26.519	0	170.873	0	94.5	4	32.2	4	-1E+10	1	0.0540	4	0.000495	0	-1E+10	1	-1E+10	1	-1E+10	1
4902624	31	C	04/27/2025	01:38	-127.234	48.555	0	172.90	0	7.3530	0	33.9190	0	26.521	0	171.369	0	-1e10	1	-1e10	1	-1E+10	1	-1e10	1	-1e10	1	-1E+10	1	-1E+10	1	-1E+10	1
4902624	31	C	04/27/2025	01:38	-127.234	48.555	0	173.40	0	7.3359	0	33.9192	0	26.523	0	171.864	0	94.6	4	32.2	4	-1E+10	1	0.0633	4	0.000441	0	-1E+10	1	-1E+10	1	-1E+10	1
4902624	31	C	04/27/2025	01:38	-127.234	48.555	0	174.40	0	7.3016	0	33.9197	0	26.529	0	172.855	0	94.7	4	32.2	4	-1E+10	1	0.0706	4	0.000431	0	-1E+10	1	-1E+10	1	-1E+10	1
4902624	31	C	04/27/2025	01:38	-127.234	48.555	0	175.00	0	7.2810	0	33.9200	0	26.532	0	173.449	0	-1e10	1	-1e10	1	-1E+10	1	-1e10	1	-1e10	1	-1E+10	1	-1E+10	1	-1E+10	1
4902624	31	C	04/27/2025	01:38	-127.234	48.555	0	175.40	0	7.2738	0	33.9190	0	26.532	0	173.845	0	94.8	4	32.3	4	-1E+10	1	0.0584	4	0.000500	0	-1E+10	1	-1E+10	1	-1E+10	1
4902624	31	C	04/27/2025	01:38	-127.234	48.555	0	176.40	0	7.2558	0	33.9165	0	26.532	0	174.836	0	94.8	4	32.2	4	-1E+10	1	0.0511	4	0.000453	0	-1E+10	1	-1E+10	1	-1E+10	1
4902624	31	C	04/27/2025	01:38	-127.234	48.555	0	177.00	0	7.2450	0	33.9150	0	26.533	0	175.431	0	-1e10	1	-1e10	1	-1E+10	1	-1e10	1	-1e10	1	-1E+10	1	-1E+10	1	-1E+10	1
4902624	31	C	04/27/2025	01:38	-127.234	48.555	0	177.40	0	7.2368	0	33.9146	0	26.534	0	175.827	0	94.7	4	32.2	4	-1E+10	1	0.0633	4	0.000443	0	-1E+10	1	-1E+10	1	-1E+10	1
4902624	31	C	04/27/2025	01:38	-127.234	48.555	0	178.50	0	7.2143	0	33.9135	0	26.536	0	176.917	0	94.6	4	32.1	4	-1E+10	1	0.0606	4	0.000547	0	-1E+10	1	-1E+10	1	-1E+10	1
4902624	31	C	04/27/2025	01:38	-127.234	48.555	0	179.00	0	7.2040	0	33.9130	0	26.537	0	177.412	0	-1e10	1	-1e10	1	-1E+10	1	-1e10	1	-1e10	1	-1E+10	1	-1E+10	1	-1E+10	1
4902624	31	C	04/27/2025	01:38	-127.234	48.555	0	179.50	0	7.1956	0	33.9127	0	26.538	0	177.907	0	94.4	4	32.1	4	-1E+10	1	0.0743	4	0.000926	0	-1E+10	1	-1E+10	1	-1E+10	1
4902624	31	C	04/27/2025	01:38	-127.234	48.555	0	180.60	0	7.1771	0	33.9122	0	26.540	0	178.997	0	94.2	4	32.0	4	-1E+10	1	0.0694	4	0.000828	0	-1E+10	1	-1E+10	1	-1E+10	1
4902624	31	C	04/27/2025	01:38	-127.234	48.555	0	180.90	0	7.1720	0	33.9120	0	26.541	0	179.294	0	-1e10	1	-1e10	1	-1E+10	1	-1e10	1	-1e10	1	-1E+10	1	-1E+10	1	-1E+10	1
4902624	31	C	04/27/2025	01:38	-127.234	48.555	0	181.70	0	7.1672	0	33.9116	0	26.541	0	180.087	0	94.0	4	31.9	4	-1E+10	1	0.0539	4	0.000511	0	-1E+10	1	-1E+10	1	-1E+10	1
4902624	31	C	04/27/2025	01:38	-127.234	48.555	0	182.70	0	7.1612	0	33.9111	0	26.541	0	181.078	0	93.6	4	31.8	4	-1E+10	1	0.0597	4	0.000588	0	-1E+10	1	-1E+10	1	-1E+10	1
4902624	31	C	04/27/2025	01:38	-127.234	48.555	0	182.90	0	7.1600	0	33.9110	0	26.541	0	181.276	0	-1e10	1	-1e10	1	-1E+10	1	-1e10	1	-1e10	1	-1E+10	1	-1E+10	1	-1E+10	1
4902624	31	C	04/27/2025	01:38	-127.234	48.555	0	183.80	0	7.1456	0	33.9123	0	26.545	0	182.167	0	93.4	4	31.7	4	-1E+10	1	0.0646	4	0.000516	0	-1E+10	1	-1E+10	1	-1E+10	1
4902624	31	C	04/27/2025	01:38	-127.234	48.555	0	184.90	0	7.1280	0	33.9140	0	26.548	0	183.257	0	91.6	4	31.0	4	-1E+10	1	0.0584	4	0.000539	0	-1E+10	1	-1E+10	1	-1E+10	1
4902624	31	C	04/27/2025	01:38	-127.234	48.555	0	186.00	0	7.1093	0	33.9134	0	26.550	0	184.347	0	92.9	4	31.5	4	-1E+10	1	0.0646	4	0.000496	0	-1E+10	1	-1E+10	1	-1E+10	1
4902624	31	C	04/27/2025	01:38	-127.234	48.555	0	186.90	0	7.0940	0	33.9130	0	26.552	0	185.238	0	-1e10	1	-1e10	1	-1E+10	1	-1e10	1	-1e10	1	-1E+10	1	-1E+10	1	-1E+10	1
4902624	31	C	04/27/2025	01:38	-127.234	48.555	0	187.10	0	7.0918	0	33.9128	0	26.552	0	185.436	0	92.6	4	31.4	4	-1E+10	1	0.0657	4	0.000444	0	-1E+10	1	-1E+10	1	-1E+10	1
4902624	31	C	04/27/2025	01:38	-127.234	48.555	0	188.30	0	7.0787	0	33.9117	0	26.553	0	186.625	0	92.2	4	31.2	4	-1E+10	1	0.0556	4	0.000575	0	-1E+10	1	-1E+10	1	-1E+10	1
4902624	31	C	04/27/2025	01:38	-127.234	48.555	0	189.00	0	7.0710	0	33.9110	0	26.554	0	187.319	0	-1e10	1	-1e10	1	-1E+10	1	-1e10	1	-1e10	1	-1E+10	1	-1E+10	1	-1E+10	1
4902624	31	C	04/27/2025	01:38	-127.234	48.555	0	189.40	0	7.0702	0	33.9110	0	26.554	0	187.715	0	91.7	4	31.0	4	-1E+10	1	0.0620	4	0.000552	0	-1E+10	1	-1E+10	1	-1E+10	1
4902624	31	C	04/27/2025	01:38	-127.234	48.555	0	190.60	0	7.0678	0	33.9110	0	26.554	0	188.904	0	91.1	4	30.8	4	-1E+10	1	0.0730	4	0.000460	0	-1E+10	1	-1E+10	1	-1E+10	1
4902624	31	C	04/27/2025	01:38	-127.234	48.555	0	191.00	0	7.0670	0	33.9110	0	26.554	0	189.300	0	-1e10	1	-1e10	1	-1E+10	1	-1e10	1	-1e10	1	-1E+10	1	-1E+10	1	-1E+10	1
4902624	31	C	04/27/2025	01:38	-127.234	48.555	0	191.70	0	7.0645	0	33.9131	0	26.556	0	189.993	0	90.6	4	30.7	4	-1E+10	1	0.0688	4	0.000463	0	-1E+10	1	-1E+10	1	-1E+10	1
4902624	31	C	04/27/2025	01:38	-127.234	48.555	0	192.90	0	7.0603	0	33.9167	0	26.560	0	191.182	0	90.1	4	30.5	4	-1E+10	1	0.0584	4	0.000484	0	-1E+10	1	-1E+10	1	-1E+10	1
4902624	31	C	04/27/2025	01:38	-127.234	48.555	0	193.00	0	7.0600	0	33.9170	0	26.560	0	191.281	0	-1e10	1	-1e10	1	-1E+10	1	-1e10	1	-1e10	1	-1E+10	1	-1E+10	1	-1E+10	1
4902624	31	C	04/27/2025	01:38	-127.234	48.555	0	194.00	0	7.0590	0	33.9180	0	26.561	0	192.272	0	89.7	4	30.4	4	-1E+10	1	0.0584	4	0.000464	0	-1E+10	1	-1E+10	1	-1E+10	1
4902624	31	C	04/27/2025	01:38	-127.234	48.555	0	195.00	0	7.0580	0	33.9190	0	26.562	0	193.263	0	-1e10	1	-1e10	1	-1E+10	1	-1e10	1	-1e10	1	-1E+10	1	-1E+10	1	-1E+10	1
4902624	31	C	04/27/2025	01:38	-127.234	48.555	0	195.20	0	7.0519	0	33.9190	0	26.563	0	193.461	0	89.3	4	30.2	4	-1E+10	1	0.0584	4	0.001250	0	-1E+10	1	-1E+10	1	-1E+10	1
4902624	31	C	04/27/2025	01:38	-127.234	48.555	0	196.40	0	7.0153	0	33.9190	0	26.568	0	194.649	0	88.9	4	30.1	4	-1E+10	1	0.0584	4	0.000640	0	-1E+10	1	-1E+10	1	-1E+10	1
4902624	31	C	04/27/2025	01:38	-127.234	48.555	0	197.00	0	6.9970	0	33.9190	0	26.570	0	195.244	0	-1e10	1	-1e10	1	-1E+10	1	-1e10	1	-1e10	1	-1E+10	1	-1E+10	1	-1E+10	1
4902624	31	C	04/27/2025	01:38	-127.234	48.555	0	197.60	0	6.9703	0	33.9169	0	26.572	0	195.838	0	88.3	4	29.8	4	-1E+10	1	0.0584	4	0.000473	0	-1E+10	1	-1E+10	1	-1E+10	1
4902624	31	C	04/27/2025	01:38	-127.234	48.555	0	198.80	0	6.9169	0	33.9127	0	26.576	0	197.027	0	87.6	4	29.6	4	-1E+10	1	0.0541	4	0.000560	0	-1E+10	1	-1E+10	1	-1E+10	1
4902624	31	C	04/27/2025	01:38	-127.234	48.555	0	199.00	0	6.9080	0	33.9120	0	26.577	0	197.225	0	-1e10	1	-1e10	1	-1E+10	1	-1e10	1	-1e10	1	-1E+10	1	-1E+10	1	-1E+10	1
4902624	31	C	04/27/2025	01:38	-127.234	48.555	0	200.00	0	6.8799	0	33.9101	0	26.579	0	198.216	0	86.8	4	29.3	4	-1E+10	1	0.0548	4	0.000705	0	-1E+10	1	-1E+10	1	-1E+10	1
4902624	31	C	04/27/2025	01:38	-127.234	48.555	0	201.10	0	6.8490	0	33.9080	0	26.582	0	199.305	0	-1e10	1	-1e10	1	-1E+10	1	-1e10	1	-1e10	1	-1E+10	1	-1E+10	1	-1E+10	1
4902624	31	C	04/27/2025	01:38	-127.234	48.555	0	201.20	0	6.8475	0	33.9082	0	26.582	0	199.404	0	86.1	4	29.0	4	-1E+10	1	0.0636	4	0.000676	0	-1E+10	1	-1E+10	1	-1E+10	1
4902624	31	C	04/27/2025	01:38	-127.234	48.555	0	202.40	0	6.8292	0	33.9107	0	26.587	0	200.593	0	85.5	4	28.8	4	-1E+10	1	0.0675	4	0.000476	0	-1E+10	1	-1E+10	1	-1E+10	1
4902624	31	C	04/27/2025	01:38	-127.234	48.555	0	203.00	0	6.8200	0	33.9120	0	26.589	0	201.187	0	-1e10	1	-1e10	1	-1E+10	1	-1e10	1	-1e10	1	-1E+10	1	-1E+10	1	-1E+10	1
4902624	31	C	04/27/2025	01:38	-127.234	48.555	0	203.60	0	6.8128	0	33.9126	0	26.590	0	201.782	0	84.9	4	28.6	4	-1E+10	1	0.0511	4	0.000448	0	-1E+10	1	-1E+10	1	-1E+10	1
4902624	31	C	04/27/2025	01:38	-127.234	48.555	0	204.80	0	6.7984	0	33.9138	0	26.593	0	202.970	0	84.3	4	28.4	4	-1E+10	1	0.0511	4	0.000476	0	-1E+10	1	-1E+10	1	-1E+10	1
4902624	31	C	04/27/2025	01:38	-127.234	48.555	0	205.00	0	6.7960	0	33.9140	0	26.594	0	203.169	0	-1e10	1	-1e10	1	-1E+10	1	-1e10	1	-1e10	1	-1E+10	1	-1E+10	1	-1E+10	1
4902624	31	C	04/27/2025	01:38	-127.234	48.555	0	206.00	0	6.7860	0	33.9160	0	26.597	0	204.159	0	83.8	4	28.2	4	-1E+10	1	0.0636	4	0.000456	0	-1E+10	1	-1E+10	1	-1E+10	1
4902624	31	C	04/27/2025	01:38	-127.234	48.555	0	207.00	0	6.7760	0	33.9180	0	26.600	0	205.150	0	-1e10	1	-1e10	1	-1E+10	1	-1e10	1	-1e10	1	-1E+10	1	-1E+10	1	-1E+10	1
4902624	31	C	04/27/2025	01:38	-127.234	48.555	0	207.20	0	6.7732	0	33.9181	0	26.600	0	205.348	0	83.4	4	28.1	4	-1E+10	1	0.0657	4	0.001547	0	-1E+10	1	-1E+10	1	-1E+10	1
4902624	31	C	04/27/2025	01:38	-127.234	48.555	0	208.40	0	6.7564	0	33.9187	0	26.603	0	206.536	0	83.0	4	27.9	4	-1E+10	1	0.0608	4	0.000906	0	-1E+10	1	-1E+10	1	-1E+10	1
4902624	31	C	04/27/2025	01:38	-127.234	48.555	0	209.00	0	6.7480	0	33.9190	0	26.604	0	207.131	0	-1e10	1	-1e10	1	-1E+10	1	-1e10	1	-1e10	1	-1E+10	1	-1E+10	1	-1E+10	1
4902624	31	C	04/27/2025	01:38	-127.234	48.555	0	209.60	0	6.7354	0	33.9193	0	26.606	0	207.725	0	82.5	4	27.7	4	-1E+10	1	0.0550	4	0.000503	0	-1E+10	1	-1E+10	1	-1E+10	1
4902624	31	C	04/27/2025	01:38	-127.234	48.555	0	210.80	0	6.7102	0	33.9199	0	26.610	0	208.914	0	82.2	4	27.6	4	-1E+10	1	0.0511	4	0.000507	0	-1E+10	1	-1E+10	1	-1E+10	1
4902624	31	C	04/27/2025	01:38	-127.234	48.555	0	211.00	0	6.7060	0	33.9200	0	26.610	0	209.112	0	-1e10	1	-1e10	1	-1E+10	1	-1e10	1	-1e10	1	-1E+10	1	-1E+10	1	-1E+10	1
4902624	31	C	04/27/2025	01:38	-127.234	48.555	0	212.10	0	6.6923	0	33.9200	0	26.612	0	210.201	0	81.8	4	27.5	4	-1E+10	1	0.0511	4	0.000456	0	-1E+10	1	-1E+10	1	-1E+10	1
4902624	31	C	04/27/2025	01:38	-127.234	48.555	0	213.00	0	6.6810	0	33.9200	0	26.614	0	211.093	0	-1e10	1	-1e10	1	-1E+10	1	-1e10	1	-1e10	1	-1E+10	1	-1E+10	1	-1E+10	1
4902624	31	C	04/27/2025	01:38	-127.234	48.555	0	213.30	0	6.6821	0	33.9202	0	26.614	0	211.390	0	81.4	4	27.3	4	-1E+10	1	0.0521	4	0.000474	0	-1E+10	1	-1E+10	1	-1E+10	1
4902624	31	C	04/27/2025	01:38	-127.234	48.555	0	214.60	0	6.6869	0	33.9208	0	26.614	0	212.678	0	80.9	4	27.2	4	-1E+10	1	0.0584	4	0.000535	0	-1E+10	1	-1E+10	1	-1E+10	1
4902624	31	C	04/27/2025	01:38	-127.234	48.555	0	214.90	0	6.6880	0	33.9210	0	26.614	0	212.975	0	-1e10	1	-1e10	1	-1E+10	1	-1e10	1	-1e10	1	-1E+10	1	-1E+10	1	-1E+10	1
4902624	31	C	04/27/2025	01:38	-127.234	48.555	0	215.80	0	6.6867	0	33.9251	0	26.617	0	213.866	0	80.5	4	27.0	4	-1E+10	1	0.0584	4	0.000452	0	-1E+10	1	-1E+10	1	-1E+10	1
4902624	31	C	04/27/2025	01:38	-127.234	48.555	0	216.90	0	6.6850	0	33.9300	0	26.621	0	214.956	0	-1e10	1	-1e10	1	-1E+10	1	-1e10	1	-1e10	1	-1E+10	1	-1E+10	1	-1E+10	1
4902624	31	C	04/27/2025	01:38	-127.234	48.555	0	217.00	0	6.6832	0	33.9299	0	26.621	0	215.055	0	80.3	4	27.0	4	-1E+10	1	0.0526	4	0.000706	0	-1E+10	1	-1E+10	1	-1E+10	1
4902624	31	C	04/27/2025	01:38	-127.234	48.555	0	218.30	0	6.6597	0	33.9287	0	26.624	0	216.343	0	80.1	4	26.9	4	-1E+10	1	0.0511	4	0.000644	0	-1E+10	1	-1E+10	1	-1E+10	1
4902624	31	C	04/27/2025	01:38	-127.234	48.555	0	219.00	0	6.6470	0	33.9280	0	26.625	0	217.036	0	-1e10	1	-1e10	1	-1E+10	1	-1e10	1	-1e10	1	-1E+10	1	-1E+10	1	-1E+10	1
4902624	31	C	04/27/2025	01:38	-127.234	48.555	0	219.50	0	6.6468	0	33.9285	0	26.625	0	217.531	0	79.8	4	26.8	4	-1E+10	1	0.0511	4	0.000492	0	-1E+10	1	-1E+10	1	-1E+10	1
4902624	31	C	04/27/2025	01:38	-127.234	48.555	0	220.70	0	6.6462	0	33.9296	0	26.626	0	218.720	0	79.6	4	26.7	4	-1E+10	1	0.0511	4	0.000452	0	-1E+10	1	-1E+10	1	-1E+10	1
4902624	31	C	04/27/2025	01:38	-127.234	48.555	0	221.10	0	6.6460	0	33.9300	0	26.626	0	219.116	0	-1e10	1	-1e10	1	-1E+10	1	-1e10	1	-1e10	1	-1E+10	1	-1E+10	1	-1E+10	1
4902624	31	C	04/27/2025	01:38	-127.234	48.555	0	221.90	0	6.6443	0	33.9304	0	26.627	0	219.909	0	79.3	4	26.6	4	-1E+10	1	0.0535	4	0.000495	0	-1E+10	1	-1E+10	1	-1E+10	1
4902624	31	C	04/27/2025	01:38	-127.234	48.555	0	223.00	0	6.6420	0	33.9310	0	26.628	0	220.998	0	-1e10	1	-1e10	1	-1E+10	1	-1e10	1	-1e10	1	-1E+10	1	-1E+10	1	-1E+10	1
4902624	31	C	04/27/2025	01:38	-127.234	48.555	0	223.20	0	6.6422	0	33.9310	0	26.628	0	221.196	0	79.0	4	26.5	4	-1E+10	1	0.0567	4	0.000524	0	-1E+10	1	-1E+10	1	-1E+10	1
4902624	31	C	04/27/2025	01:38	-127.234	48.555	0	224.40	0	6.6434	0	33.9310	0	26.628	0	222.385	0	78.6	4	26.4	4	-1E+10	1	0.0532	4	0.000488	0	-1E+10	1	-1E+10	1	-1E+10	1
4902624	31	C	04/27/2025	01:38	-127.234	48.555	0	225.00	0	6.6440	0	33.9310	0	26.628	0	222.979	0	-1e10	1	-1e10	1	-1E+10	1	-1e10	1	-1e10	1	-1E+10	1	-1E+10	1	-1E+10	1
4902624	31	C	04/27/2025	01:38	-127.234	48.555	0	225.60	0	6.6467	0	33.9325	0	26.628	0	223.573	0	78.2	4	26.2	4	-1E+10	1	0.0657	4	0.000488	0	-1E+10	1	-1E+10	1	-1E+10	1
4902624	31	C	04/27/2025	01:38	-127.234	48.555	0	226.90	0	6.6525	0	33.9357	0	26.630	0	224.861	0	77.8	4	26.1	4	-1E+10	1	0.0720	4	0.000457	0	-1E+10	1	-1E+10	1	-1E+10	1
4902624	31	C	04/27/2025	01:38	-127.234	48.555	0	227.00	0	6.6530	0	33.9360	0	26.630	0	224.960	0	-1e10	1	-1e10	1	-1E+10	1	-1e10	1	-1e10	1	-1E+10	1	-1E+10	1	-1E+10	1
4902624	31	C	04/27/2025	01:38	-127.234	48.555	0	228.10	0	6.6381	0	33.9376	0	26.634	0	226.050	0	77.5	4	26.0	4	-1E+10	1	0.0618	4	0.000443	0	-1E+10	1	-1E+10	1	-1E+10	1
4902624	31	C	04/27/2025	01:38	-127.234	48.555	0	229.00	0	6.6260	0	33.9390	0	26.636	0	226.941	0	-1e10	1	-1e10	1	-1E+10	1	-1e10	1	-1e10	1	-1E+10	1	-1E+10	1	-1E+10	1
4902624	31	C	04/27/2025	01:38	-127.234	48.555	0	229.40	0	6.6126	0	33.9380	0	26.637	0	227.337	0	77.3	4	25.9	4	-1E+10	1	0.0535	4	0.000574	0	-1E+10	1	-1E+10	1	-1E+10	1
4902624	31	C	04/27/2025	01:38	-127.234	48.555	0	230.60	0	6.5724	0	33.9350	0	26.640	0	228.526	0	77.1	4	25.8	4	-1E+10	1	0.0545	4	0.000525	0	-1E+10	1	-1E+10	1	-1E+10	1
4902624	31	C	04/27/2025	01:38	-127.234	48.555	0	231.00	0	6.5590	0	33.9340	0	26.641	0	228.922	0	-1e10	1	-1e10	1	-1E+10	1	-1e10	1	-1e10	1	-1E+10	1	-1E+10	1	-1E+10	1
4902624	31	C	04/27/2025	01:38	-127.234	48.555	0	231.90	0	6.5423	0	33.9340	0	26.643	0	229.813	0	76.8	4	25.7	4	-1E+10	1	0.0614	4	0.000413	0	-1E+10	1	-1E+10	1	-1E+10	1
4902624	31	C	04/27/2025	01:38	-127.234	48.555	0	233.00	0	6.5220	0	33.9340	0	26.646	0	230.903	0	-1e10	1	-1e10	1	-1E+10	1	-1e10	1	-1e10	1	-1E+10	1	-1E+10	1	-1E+10	1
4902624	31	C	04/27/2025	01:38	-127.234	48.555	0	233.10	0	6.5219	0	33.9341	0	26.646	0	231.002	0	76.5	4	25.6	4	-1E+10	1	0.0627	4	0.000455	0	-1E+10	1	-1E+10	1	-1E+10	1
4902624	31	C	04/27/2025	01:38	-127.234	48.555	0	234.30	0	6.5207	0	33.9360	0	26.648	0	232.190	0	76.2	4	25.5	4	-1E+10	1	0.0584	4	0.000456	0	-1E+10	1	-1E+10	1	-1E+10	1
4902624	31	C	04/27/2025	01:38	-127.234	48.555	0	235.00	0	6.5200	0	33.9370	0	26.649	0	232.884	0	-1e10	1	-1e10	1	-1E+10	1	-1e10	1	-1e10	1	-1E+10	1	-1E+10	1	-1E+10	1
4902624	31	C	04/27/2025	01:38	-127.234	48.555	0	235.60	0	6.5221	0	33.9385	0	26.650	0	233.478	0	75.9	4	25.4	4	-1E+10	1	0.0584	4	0.000417	0	-1E+10	1	-1E+10	1	-1E+10	1
4902624	31	C	04/27/2025	01:38	-127.234	48.555	0	236.80	0	6.5263	0	33.9415	0	26.652	0	234.666	0	75.6	4	25.3	4	-1E+10	1	0.0574	4	0.000444	0	-1E+10	1	-1E+10	1	-1E+10	1
4902624	31	C	04/27/2025	01:38	-127.234	48.555	0	237.00	0	6.5270	0	33.9420	0	26.652	0	234.864	0	-1e10	1	-1e10	1	-1E+10	1	-1e10	1	-1e10	1	-1E+10	1	-1E+10	1	-1E+10	1
4902624	31	C	04/27/2025	01:38	-127.234	48.555	0	238.10	0	6.5259	0	33.9431	0	26.653	0	235.954	0	75.3	4	25.2	4	-1E+10	1	0.0511	4	0.000616	0	-1E+10	1	-1E+10	1	-1E+10	1
4902624	31	C	04/27/2025	01:38	-127.234	48.555	0	239.00	0	6.5250	0	33.9440	0	26.654	0	236.845	0	-1e10	1	-1e10	1	-1E+10	1	-1e10	1	-1e10	1	-1E+10	1	-1E+10	1	-1E+10	1
4902624	31	C	04/27/2025	01:38	-127.234	48.555	0	239.30	0	6.5244	0	33.9443	0	26.654	0	237.142	0	75.1	4	25.1	4	-1E+10	1	0.0453	4	0.000504	0	-1E+10	1	-1E+10	1	-1E+10	1
4902624	31	C	04/27/2025	01:38	-127.234	48.555	0	240.60	0	6.5216	0	33.9457	0	26.655	0	238.430	0	74.8	4	25.0	4	-1E+10	1	0.0499	4	0.000427	0	-1E+10	1	-1E+10	1	-1E+10	1
4902624	31	C	04/27/2025	01:38	-127.234	48.555	0	240.90	0	6.5210	0	33.9460	0	26.656	0	238.727	0	-1e10	1	-1e10	1	-1E+10	1	-1e10	1	-1e10	1	-1E+10	1	-1E+10	1	-1E+10	1
4902624	31	C	04/27/2025	01:38	-127.234	48.555	0	241.80	0	6.5124	0	33.9464	0	26.657	0	239.618	0	74.6	4	25.0	4	-1E+10	1	0.0462	4	0.000425	0	-1E+10	1	-1E+10	1	-1E+10	1
4902624	31	C	04/27/2025	01:38	-127.234	48.555	0	242.90	0	6.5020	0	33.9470	0	26.659	0	240.708	0	-1e10	1	-1e10	1	-1E+10	1	-1e10	1	-1e10	1	-1E+10	1	-1E+10	1	-1E+10	1
4902624	31	C	04/27/2025	01:38	-127.234	48.555	0	243.00	0	6.5020	0	33.9470	0	26.659	0	240.807	0	74.4	4	24.9	4	-1E+10	1	0.0506	4	0.000505	0	-1E+10	1	-1E+10	1	-1E+10	1
4902624	31	C	04/27/2025	01:38	-127.234	48.555	0	244.30	0	6.5027	0	33.9470	0	26.659	0	242.094	0	74.2	4	24.8	4	-1E+10	1	0.0523	4	0.000525	0	-1E+10	1	-1E+10	1	-1E+10	1
4902624	31	C	04/27/2025	01:38	-127.234	48.555	0	244.90	0	6.5030	0	33.9470	0	26.659	0	242.689	0	-1e10	1	-1e10	1	-1E+10	1	-1e10	1	-1e10	1	-1E+10	1	-1E+10	1	-1E+10	1
4902624	31	C	04/27/2025	01:38	-127.234	48.555	0	245.50	0	6.5027	0	33.9467	0	26.659	0	243.283	0	74.0	4	24.7	4	-1E+10	1	0.0487	4	0.000429	0	-1E+10	1	-1E+10	1	-1E+10	1
4902624	31	C	04/27/2025	01:38	-127.234	48.555	0	246.80	0	6.5020	0	33.9460	0	26.658	0	244.570	0	73.6	4	24.6	4	-1E+10	1	0.0598	4	0.000424	0	-1E+10	1	-1E+10	1	-1E+10	1
4902624	31	C	04/27/2025	01:38	-127.234	48.555	0	246.90	0	6.5020	0	33.9460	0	26.658	0	244.669	0	-1e10	1	-1e10	1	-1E+10	1	-1e10	1	-1e10	1	-1E+10	1	-1E+10	1	-1E+10	1
4902624	31	C	04/27/2025	01:38	-127.234	48.555	0	248.10	0	6.4900	0	33.9466	0	26.660	0	245.858	0	73.3	4	24.5	4	-1E+10	1	0.0657	4	0.000405	0	-1E+10	1	-1E+10	1	-1E+10	1
4902624	31	C	04/27/2025	01:38	-127.234	48.555	0	249.00	0	6.4810	0	33.9470	0	26.662	0	246.749	0	-1e10	1	-1e10	1	-1E+10	1	-1e10	1	-1e10	1	-1E+10	1	-1E+10	1	-1E+10	1
4902624	31	C	04/27/2025	01:38	-127.234	48.555	0	249.30	0	6.4754	0	33.9469	0	26.663	0	247.046	0	73.0	4	24.4	4	-1E+10	1	0.0511	4	0.000628	0	-1E+10	1	-1E+10	1	-1E+10	1
4902624	31	C	04/27/2025	01:38	-127.234	48.555	0	250.50	0	6.4531	0	33.9463	0	26.665	0	248.235	0	72.8	4	24.3	4	-1E+10	1	0.0636	4	0.001292	0	-1E+10	1	-1E+10	1	-1E+10	1
4902624	31	C	04/27/2025	01:38	-127.234	48.555	0	251.10	0	6.4420	0	33.9460	0	26.666	0	248.829	0	-1e10	1	-1e10	1	-1E+10	1	-1e10	1	-1e10	1	-1E+10	1	-1E+10	1	-1E+10	1
4902624	31	C	04/27/2025	01:38	-127.234	48.555	0	251.70	0	6.4373	0	33.9457	0	26.667	0	249.423	0	72.6	4	24.2	4	-1E+10	1	0.0560	4	0.001402	0	-1E+10	1	-1E+10	1	-1E+10	1
4902624	31	C	04/27/2025	01:38	-127.234	48.555	0	252.90	0	6.4278	0	33.9451	0	26.667	0	250.612	0	72.4	4	24.2	4	-1E+10	1	0.0426	4	0.000828	0	-1E+10	1	-1E+10	1	-1E+10	1
4902624	31	C	04/27/2025	01:38	-127.234	48.555	0	253.00	0	6.4270	0	33.9450	0	26.667	0	250.711	0	-1e10	1	-1e10	1	-1E+10	1	-1e10	1	-1e10	1	-1E+10	1	-1E+10	1	-1E+10	1
4902624	31	C	04/27/2025	01:38	-127.234	48.555	0	254.10	0	6.4119	0	33.9444	0	26.669	0	251.800	0	72.2	4	24.1	4	-1E+10	1	0.0483	4	0.000455	0	-1E+10	1	-1E+10	1	-1E+10	1
4902624	31	C	04/27/2025	01:38	-127.234	48.555	0	254.90	0	6.4010	0	33.9440	0	26.670	0	252.592	0	-1e10	1	-1e10	1	-1E+10	1	-1e10	1	-1e10	1	-1E+10	1	-1E+10	1	-1E+10	1
4902624	31	C	04/27/2025	01:38	-127.234	48.555	0	255.10	0	6.3978	0	33.9438	0	26.670	0	252.790	0	72.0	4	24.0	4	-1E+10	1	0.0608	4	0.000472	0	-1E+10	1	-1E+10	1	-1E+10	1
4902624	31	C	04/27/2025	01:38	-127.234	48.555	0	256.00	0	6.3832	0	33.9430	0	26.672	0	253.682	0	71.7	4	23.9	4	-1E+10	1	0.0657	4	0.000572	0	-1E+10	1	-1E+10	1	-1E+10	1
4902624	31	C	04/27/2025	01:38	-127.234	48.555	0	256.80	0	6.3702	0	33.9422	0	26.673	0	254.474	0	71.5	4	23.8	4	-1E+10	1	0.0657	4	0.001372	0	-1E+10	1	-1E+10	1	-1E+10	1
4902624	31	C	04/27/2025	01:38	-127.234	48.555	0	257.00	0	6.3670	0	33.9420	0	26.673	0	254.672	0	-1e10	1	-1e10	1	-1E+10	1	-1e10	1	-1e10	1	-1E+10	1	-1E+10	1	-1E+10	1
4902624	31	C	04/27/2025	01:38	-127.234	48.555	0	257.60	0	6.3625	0	33.9429	0	26.674	0	255.266	0	71.2	4	23.7	4	-1E+10	1	0.0657	4	0.000382	0	-1E+10	1	-1E+10	1	-1E+10	1
4902624	31	C	04/27/2025	01:38	-127.234	48.555	0	258.40	0	6.3565	0	33.9441	0	26.676	0	256.058	0	71.0	4	23.7	4	-1E+10	1	0.0599	4	0.000410	0	-1E+10	1	-1E+10	1	-1E+10	1
4902624	31	C	04/27/2025	01:38	-127.234	48.555	0	259.00	0	6.3520	0	33.9450	0	26.677	0	256.653	0	-1e10	1	-1e10	1	-1E+10	1	-1e10	1	-1e10	1	-1E+10	1	-1E+10	1	-1E+10	1
4902624	31	C	04/27/2025	01:38	-127.234	48.555	0	259.20	0	6.3486	0	33.9449	0	26.678	0	256.851	0	70.9	4	23.6	4	-1E+10	1	0.0639	4	0.000399	0	-1E+10	1	-1E+10	1	-1E+10	1
4902624	31	C	04/27/2025	01:38	-127.234	48.555	0	260.10	0	6.3333	0	33.9445	0	26.679	0	257.742	0	70.7	4	23.5	4	-1E+10	1	0.0657	4	0.000377	0	-1E+10	1	-1E+10	1	-1E+10	1
4902624	31	C	04/27/2025	01:38	-127.234	48.555	0	260.90	0	6.3197	0	33.9440	0	26.681	0	258.534	0	70.5	4	23.5	4	-1E+10	1	0.0620	4	0.000358	0	-1E+10	1	-1E+10	1	-1E+10	1
4902624	31	C	04/27/2025	01:38	-127.234	48.555	0	261.00	0	6.3180	0	33.9440	0	26.681	0	258.633	0	-1e10	1	-1e10	1	-1E+10	1	-1e10	1	-1e10	1	-1E+10	1	-1E+10	1	-1E+10	1
4902624	31	C	04/27/2025	01:38	-127.234	48.555	0	261.70	0	6.3117	0	33.9440	0	26.682	0	259.326	0	70.2	4	23.4	4	-1E+10	1	0.0611	4	0.000355	0	-1E+10	1	-1E+10	1	-1E+10	1
4902624	31	C	04/27/2025	01:38	-127.234	48.555	0	262.50	0	6.3045	0	33.9440	0	26.683	0	260.119	0	70.0	4	23.3	4	-1E+10	1	0.0657	4	0.000398	0	-1E+10	1	-1E+10	1	-1E+10	1
4902624	31	C	04/27/2025	01:38	-127.234	48.555	0	263.00	0	6.3000	0	33.9440	0	26.683	0	260.614	0	-1e10	1	-1e10	1	-1E+10	1	-1e10	1	-1e10	1	-1E+10	1	-1E+10	1	-1E+10	1
4902624	31	C	04/27/2025	01:38	-127.234	48.555	0	263.30	0	6.2991	0	33.9440	0	26.683	0	260.911	0	69.7	4	23.2	4	-1E+10	1	0.0657	4	0.000453	0	-1E+10	1	-1E+10	1	-1E+10	1
4902624	31	C	04/27/2025	01:38	-127.234	48.555	0	264.20	0	6.2964	0	33.9440	0	26.684	0	261.802	0	69.4	4	23.1	4	-1E+10	1	0.0657	4	0.000358	0	-1E+10	1	-1E+10	1	-1E+10	1
4902624	31	C	04/27/2025	01:38	-127.234	48.555	0	265.00	0	6.2940	0	33.9440	0	26.684	0	262.594	0	67.9	4	22.6	4	-1E+10	1	0.0584	4	0.000385	0	-1E+10	1	-1E+10	1	-1E+10	1
4902624	31	C	04/27/2025	01:38	-127.234	48.555	0	265.80	0	6.2910	0	33.9451	0	26.685	0	263.387	0	68.9	4	22.9	4	-1E+10	1	0.0584	4	0.000570	0	-1E+10	1	-1E+10	1	-1E+10	1
4902624	31	C	04/27/2025	01:38	-127.234	48.555	0	266.60	0	6.2879	0	33.9463	0	26.687	0	264.179	0	68.7	4	22.8	4	-1E+10	1	0.0584	4	0.000468	0	-1E+10	1	-1E+10	1	-1E+10	1
4902624	31	C	04/27/2025	01:38	-127.234	48.555	0	267.10	0	6.2860	0	33.9470	0	26.687	0	264.674	0	-1e10	1	-1e10	1	-1E+10	1	-1e10	1	-1e10	1	-1E+10	1	-1E+10	1	-1E+10	1
4902624	31	C	04/27/2025	01:38	-127.234	48.555	0	267.40	0	6.2827	0	33.9475	0	26.688	0	264.971	0	68.4	4	22.8	4	-1E+10	1	0.0511	4	0.000352	0	-1E+10	1	-1E+10	1	-1E+10	1
4902624	31	C	04/27/2025	01:38	-127.234	48.555	0	268.30	0	6.2727	0	33.9489	0	26.691	0	265.862	0	68.2	4	22.7	4	-1E+10	1	0.0474	4	0.000517	0	-1E+10	1	-1E+10	1	-1E+10	1
4902624	31	C	04/27/2025	01:38	-127.234	48.555	0	269.00	0	6.2650	0	33.9500	0	26.692	0	266.556	0	-1e10	1	-1e10	1	-1E+10	1	-1e10	1	-1e10	1	-1E+10	1	-1E+10	1	-1E+10	1
4902624	31	C	04/27/2025	01:38	-127.234	48.555	0	269.10	0	6.2640	0	33.9500	0	26.693	0	266.655	0	68.0	4	22.6	4	-1E+10	1	0.0533	4	0.000610	0	-1E+10	1	-1E+10	1	-1E+10	1
4902624	31	C	04/27/2025	01:38	-127.234	48.555	0	270.00	0	6.2550	0	33.9500	0	26.694	0	267.546	0	67.7	4	22.5	4	-1E+10	1	0.0600	4	0.000400	0	-1E+10	1	-1E+10	1	-1E+10	1
4902624	31	C	04/27/2025	01:38	-127.234	48.555	0	270.90	0	6.2460	0	33.9500	0	26.695	0	268.437	0	67.4	4	22.4	4	-1E+10	1	0.0628	4	0.000384	0	-1E+10	1	-1E+10	1	-1E+10	1
4902624	31	C	04/27/2025	01:38	-127.234	48.555	0	271.00	0	6.2450	0	33.9500	0	26.695	0	268.536	0	-1e10	1	-1e10	1	-1E+10	1	-1e10	1	-1e10	1	-1E+10	1	-1E+10	1	-1E+10	1
4902624	31	C	04/27/2025	01:38	-127.234	48.555	0	271.70	0	6.2422	0	33.9514	0	26.696	0	269.229	0	67.2	4	22.3	4	-1E+10	1	0.0511	4	0.000393	0	-1E+10	1	-1E+10	1	-1E+10	1
4902624	31	C	04/27/2025	01:38	-127.234	48.555	0	272.60	0	6.2386	0	33.9532	0	26.698	0	270.120	0	66.9	4	22.2	4	-1E+10	1	0.0511	4	0.000364	0	-1E+10	1	-1E+10	1	-1E+10	1
4902624	31	C	04/27/2025	01:38	-127.234	48.555	0	273.00	0	6.2370	0	33.9540	0	26.699	0	270.517	0	-1e10	1	-1e10	1	-1E+10	1	-1e10	1	-1e10	1	-1E+10	1	-1E+10	1	-1E+10	1
4902624	31	C	04/27/2025	01:38	-127.234	48.555	0	273.50	0	6.2335	0	33.9540	0	26.700	0	271.012	0	66.6	4	22.1	4	-1E+10	1	0.0511	4	0.000379	0	-1E+10	1	-1E+10	1	-1E+10	1
4902624	31	C	04/27/2025	01:38	-127.234	48.555	0	274.30	0	6.2279	0	33.9540	0	26.700	0	271.804	0	66.4	4	22.0	4	-1E+10	1	0.0604	4	0.000367	0	-1E+10	1	-1E+10	1	-1E+10	1
4902624	31	C	04/27/2025	01:38	-127.234	48.555	0	275.00	0	6.2230	0	33.9540	0	26.701	0	272.497	0	-1e10	1	-1e10	1	-1E+10	1	-1e10	1	-1e10	1	-1E+10	1	-1E+10	1	-1E+10	1
4902624	31	C	04/27/2025	01:38	-127.234	48.555	0	275.20	0	6.2227	0	33.9546	0	26.702	0	272.695	0	66.0	4	21.9	4	-1E+10	1	0.0584	4	0.000376	0	-1E+10	1	-1E+10	1	-1E+10	1
4902624	31	C	04/27/2025	01:38	-127.234	48.555	0	276.10	0	6.2213	0	33.9573	0	26.704	0	273.586	0	65.8	4	21.9	4	-1E+10	1	0.0576	4	0.000414	0	-1E+10	1	-1E+10	1	-1E+10	1
4902624	31	C	04/27/2025	01:38	-127.234	48.555	0	276.90	0	6.2201	0	33.9597	0	26.706	0	274.378	0	65.5	4	21.8	4	-1E+10	1	0.0657	4	0.000423	0	-1E+10	1	-1E+10	1	-1E+10	1
4902624	31	C	04/27/2025	01:38	-127.234	48.555	0	277.00	0	6.2200	0	33.9600	0	26.706	0	274.478	0	-1e10	1	-1e10	1	-1E+10	1	-1e10	1	-1e10	1	-1E+10	1	-1E+10	1	-1E+10	1
4902624	31	C	04/27/2025	01:38	-127.234	48.555	0	277.80	0	6.2166	0	33.9604	0	26.707	0	275.270	0	65.3	4	21.7	4	-1E+10	1	0.0630	4	0.000409	0	-1E+10	1	-1E+10	1	-1E+10	1
4902624	31	C	04/27/2025	01:38	-127.234	48.555	0	278.70	0	6.2128	0	33.9609	0	26.708	0	276.161	0	65.1	4	21.6	4	-1E+10	1	0.0511	4	0.000534	0	-1E+10	1	-1E+10	1	-1E+10	1
4902624	31	C	04/27/2025	01:38	-127.234	48.555	0	278.90	0	6.2120	0	33.9610	0	26.708	0	276.359	0	-1e10	1	-1e10	1	-1E+10	1	-1e10	1	-1e10	1	-1E+10	1	-1E+10	1	-1E+10	1
4902624	31	C	04/27/2025	01:38	-127.234	48.555	0	279.60	0	6.2100	0	33.9610	0	26.708	0	277.052	0	64.8	4	21.5	4	-1E+10	1	0.0511	4	0.000346	0	-1E+10	1	-1E+10	1	-1E+10	1
4902624	31	C	04/27/2025	01:38	-127.234	48.555	0	280.50	0	6.2074	0	33.9610	0	26.709	0	277.943	0	64.6	4	21.4	4	-1E+10	1	0.0577	4	0.000420	0	-1E+10	1	-1E+10	1	-1E+10	1
4902624	31	C	04/27/2025	01:38	-127.234	48.555	0	281.00	0	6.2060	0	33.9610	0	26.709	0	278.438	0	-1e10	1	-1e10	1	-1E+10	1	-1e10	1	-1e10	1	-1E+10	1	-1E+10	1	-1E+10	1
4902624	31	C	04/27/2025	01:38	-127.234	48.555	0	281.30	0	6.2033	0	33.9610	0	26.709	0	278.735	0	64.2	4	21.3	4	-1E+10	1	0.0630	4	0.000451	0	-1E+10	1	-1E+10	1	-1E+10	1
4902624	31	C	04/27/2025	01:38	-127.234	48.555	0	282.20	0	6.1952	0	33.9610	0	26.710	0	279.627	0	63.9	4	21.2	4	-1E+10	1	0.0657	4	0.000411	0	-1E+10	1	-1E+10	1	-1E+10	1
4902624	31	C	04/27/2025	01:38	-127.234	48.555	0	283.00	0	6.1880	0	33.9610	0	26.711	0	280.419	0	-1e10	1	-1e10	1	-1E+10	1	-1e10	1	-1e10	1	-1E+10	1	-1E+10	1	-1E+10	1
4902624	31	C	04/27/2025	01:38	-127.234	48.555	0	283.10	0	6.1879	0	33.9613	0	26.711	0	280.518	0	63.6	4	21.1	4	-1E+10	1	0.0620	4	0.000393	0	-1E+10	1	-1E+10	1	-1E+10	1
4902624	31	C	04/27/2025	01:38	-127.234	48.555	0	284.00	0	6.1870	0	33.9645	0	26.714	0	281.409	0	63.4	4	21.0	4	-1E+10	1	0.0584	4	0.000442	0	-1E+10	1	-1E+10	1	-1E+10	1
4902624	31	C	04/27/2025	01:38	-127.234	48.555	0	284.90	0	6.1861	0	33.9676	0	26.717	0	282.300	0	63.2	4	21.0	4	-1E+10	1	0.0568	4	0.000461	0	-1E+10	1	-1E+10	1	-1E+10	1
4902624	31	C	04/27/2025	01:38	-127.234	48.555	0	285.00	0	6.1860	0	33.9680	0	26.717	0	282.399	0	-1e10	1	-1e10	1	-1E+10	1	-1e10	1	-1e10	1	-1E+10	1	-1E+10	1	-1E+10	1
4902624	31	C	04/27/2025	01:38	-127.234	48.555	0	285.80	0	6.1761	0	33.9684	0	26.718	0	283.191	0	63.0	4	20.9	4	-1E+10	1	0.0524	4	0.000365	0	-1E+10	1	-1E+10	1	-1E+10	1
4902624	31	C	04/27/2025	01:38	-127.234	48.555	0	286.70	0	6.1650	0	33.9688	0	26.720	0	284.083	0	62.8	4	20.8	4	-1E+10	1	0.0584	4	0.000346	0	-1E+10	1	-1E+10	1	-1E+10	1
4902624	31	C	04/27/2025	01:38	-127.234	48.555	0	287.10	0	6.1600	0	33.9690	0	26.721	0	284.479	0	-1e10	1	-1e10	1	-1E+10	1	-1e10	1	-1e10	1	-1E+10	1	-1E+10	1	-1E+10	1
4902624	31	C	04/27/2025	01:38	-127.234	48.555	0	287.60	0	6.1571	0	33.9701	0	26.722	0	284.974	0	62.6	4	20.8	4	-1E+10	1	0.0453	4	0.000431	0	-1E+10	1	-1E+10	1	-1E+10	1
4902624	31	C	04/27/2025	01:38	-127.234	48.555	0	288.40	0	6.1525	0	33.9717	0	26.724	0	285.766	0	62.5	4	20.7	4	-1E+10	1	0.0552	4	0.000385	0	-1E+10	1	-1E+10	1	-1E+10	1
4902624	31	C	04/27/2025	01:38	-127.234	48.555	0	289.00	0	6.1490	0	33.9730	0	26.726	0	286.360	0	-1e10	1	-1e10	1	-1E+10	1	-1e10	1	-1e10	1	-1E+10	1	-1E+10	1	-1E+10	1
4902624	31	C	04/27/2025	01:38	-127.234	48.555	0	289.30	0	6.1486	0	33.9733	0	26.726	0	286.657	0	62.3	4	20.7	4	-1E+10	1	0.0445	4	0.000407	0	-1E+10	1	-1E+10	1	-1E+10	1
4902624	31	C	04/27/2025	01:38	-127.234	48.555	0	290.20	0	6.1472	0	33.9742	0	26.727	0	287.548	0	62.2	4	20.6	4	-1E+10	1	0.0438	4	0.000698	0	-1E+10	1	-1E+10	1	-1E+10	1
4902624	31	C	04/27/2025	01:38	-127.234	48.555	0	291.00	0	6.1460	0	33.9750	0	26.728	0	288.340	0	-1e10	1	-1e10	1	-1E+10	1	-1e10	1	-1e10	1	-1E+10	1	-1E+10	1	-1E+10	1
4902624	31	C	04/27/2025	01:38	-127.234	48.555	0	291.10	0	6.1470	0	33.9751	0	26.728	0	288.439	0	62.0	4	20.6	4	-1E+10	1	0.0479	4	0.000712	0	-1E+10	1	-1E+10	1	-1E+10	1
4902624	31	C	04/27/2025	01:38	-127.234	48.555	0	292.00	0	6.1560	0	33.9761	0	26.727	0	289.330	0	61.8	4	20.5	4	-1E+10	1	0.0503	4	0.000377	0	-1E+10	1	-1E+10	1	-1E+10	1
4902624	31	C	04/27/2025	01:38	-127.234	48.555	0	292.90	0	6.1650	0	33.9770	0	26.727	0	290.222	0	60.5	4	20.1	4	-1E+10	1	0.0637	4	0.000524	0	-1E+10	1	-1E+10	1	-1E+10	1
4902624	31	C	04/27/2025	01:38	-127.234	48.555	0	293.90	0	6.1786	0	33.9815	0	26.729	0	291.212	0	61.5	4	20.4	4	-1E+10	1	0.0725	4	0.000801	0	-1E+10	1	-1E+10	1	-1E+10	1
4902624	31	C	04/27/2025	01:38	-127.234	48.555	0	295.10	0	6.1950	0	33.9870	0	26.731	0	292.400	0	-1e10	1	-1e10	1	-1E+10	1	-1e10	1	-1e10	1	-1E+10	1	-1E+10	1	-1E+10	1
4902624	31	C	04/27/2025	01:38	-127.234	48.555	0	297.20	0	6.1400	0	33.9830	0	26.735	0	294.479	0	-1e10	1	-1e10	1	-1E+10	1	-1e10	1	-1e10	1	-1E+10	1	-1E+10	1	-1E+10	1
4902624	31	C	04/27/2025	01:38	-127.234	48.555	0	299.00	0	6.1430	0	33.9850	0	26.736	0	296.261	0	-1e10	1	-1e10	1	-1E+10	1	-1e10	1	-1e10	1	-1E+10	1	-1E+10	1	-1E+10	1
4902624	31	C	04/27/2025	01:38	-127.234	48.555	0	302.70	0	6.1179	0	33.9906	0	26.744	0	299.925	0	59.1	4	19.6	4	-1E+10	1	0.0582	4	0.000405	0	-1E+10	1	-1E+10	1	-1E+10	1
4902624	31	C	04/27/2025	01:38	-127.234	48.555	0	304.90	0	6.1030	0	33.9940	0	26.748	0	302.103	0	-1e10	1	-1e10	1	-1E+10	1	-1e10	1	-1e10	1	-1E+10	1	-1E+10	1	-1E+10	1
4902624	31	C	04/27/2025	01:38	-127.234	48.555	0	311.60	0	6.0015	0	33.9940	0	26.761	0	308.737	0	57.2	4	18.9	4	-1E+10	1	0.0513	4	0.000405	0	-1E+10	1	-1E+10	1	-1E+10	1
4902624	31	C	04/27/2025	01:38	-127.234	48.555	0	315.00	0	5.9500	0	33.9940	0	26.767	0	312.103	0	-1e10	1	-1e10	1	-1E+10	1	-1e10	1	-1e10	1	-1E+10	1	-1E+10	1	-1E+10	1
4902624	31	C	04/27/2025	01:38	-127.234	48.555	0	320.50	0	5.8961	0	33.9918	0	26.773	0	317.548	0	56.2	4	18.5	4	-1E+10	1	0.0589	4	0.000424	0	-1E+10	1	-1E+10	1	-1E+10	1
4902624	31	C	04/27/2025	01:38	-127.234	48.555	0	325.00	0	5.8520	0	33.9900	0	26.777	0	322.003	0	-1e10	1	-1e10	1	-1E+10	1	-1e10	1	-1e10	1	-1E+10	1	-1E+10	1	-1E+10	1
4902624	31	C	04/27/2025	01:38	-127.234	48.555	0	329.60	0	5.8144	0	33.9900	0	26.781	0	326.557	0	54.9	4	18.1	4	-1E+10	1	0.0725	4	0.000669	0	-1E+10	1	-1E+10	1	-1E+10	1
4902624	31	C	04/27/2025	01:38	-127.234	48.555	0	334.90	0	5.7710	0	33.9900	0	26.787	0	331.804	0	-1e10	1	-1e10	1	-1E+10	1	-1e10	1	-1e10	1	-1E+10	1	-1E+10	1	-1E+10	1
4902624	31	C	04/27/2025	01:38	-127.234	48.555	0	338.90	0	5.7425	0	33.9924	0	26.792	0	335.764	0	52.6	4	17.3	4	-1E+10	1	0.0582	4	0.000835	0	-1E+10	1	-1E+10	1	-1E+10	1
4902624	31	C	04/27/2025	01:38	-127.234	48.555	0	345.00	0	5.6990	0	33.9960	0	26.800	0	341.802	0	-1e10	1	-1e10	1	-1E+10	1	-1e10	1	-1e10	1	-1E+10	1	-1E+10	1	-1E+10	1
4902624	31	C	04/27/2025	01:38	-127.234	48.555	0	348.30	0	5.6680	0	33.9967	0	26.805	0	345.069	0	50.9	4	16.7	4	-1E+10	1	0.0508	4	0.000364	0	-1E+10	1	-1E+10	1	-1E+10	1
4902624	31	C	04/27/2025	01:38	-127.234	48.555	0	355.00	0	5.6050	0	33.9980	0	26.813	0	351.701	0	-1e10	1	-1e10	1	-1E+10	1	-1e10	1	-1e10	1	-1E+10	1	-1E+10	1	-1E+10	1
4902624	31	C	04/27/2025	01:38	-127.234	48.555	0	357.90	0	5.5882	0	34.0000	0	26.817	0	354.572	0	49.5	4	16.2	4	-1E+10	1	0.0444	4	0.000243	0	-1E+10	1	-1E+10	1	-1E+10	1
4902624	31	C	04/27/2025	01:38	-127.234	48.555	0	365.00	0	5.5470	0	34.0050	0	26.826	0	361.599	0	-1e10	1	-1e10	1	-1E+10	1	-1e10	1	-1e10	1	-1E+10	1	-1E+10	1	-1E+10	1
4902624	31	C	04/27/2025	01:38	-127.234	48.555	0	367.80	0	5.5320	0	34.0070	0	26.829	0	364.371	0	46.9	4	15.3	4	-1E+10	1	0.0584	4	0.000309	0	-1E+10	1	-1E+10	1	-1E+10	1
4902624	31	C	04/27/2025	01:38	-127.234	48.555	0	374.90	0	5.4940	0	34.0120	0	26.838	0	371.398	0	-1e10	1	-1e10	1	-1E+10	1	-1e10	1	-1e10	1	-1E+10	1	-1E+10	1	-1E+10	1
4902624	31	C	04/27/2025	01:38	-127.234	48.555	0	378.10	0	5.4674	0	34.0123	0	26.841	0	374.566	0	46.0	4	15.0	4	-1E+10	1	0.0581	4	0.000274	0	-1E+10	1	-1E+10	1	-1E+10	1
4902624	31	C	04/27/2025	01:38	-127.234	48.555	0	384.90	0	5.4110	0	34.0130	0	26.849	0	381.296	0	-1e10	1	-1e10	1	-1E+10	1	-1e10	1	-1e10	1	-1E+10	1	-1E+10	1	-1E+10	1
4902624	31	C	04/27/2025	01:38	-127.234	48.555	0	388.90	0	5.3914	0	34.0138	0	26.852	0	385.255	0	45.0	4	14.7	4	-1E+10	1	0.0514	4	0.000243	0	-1E+10	1	-1E+10	1	-1E+10	1
4902624	31	C	04/27/2025	01:38	-127.234	48.555	0	394.90	0	5.3620	0	34.0150	0	26.856	0	391.193	0	-1e10	1	-1e10	1	-1E+10	1	-1e10	1	-1e10	1	-1E+10	1	-1E+10	1	-1E+10	1
4902624	31	C	04/27/2025	01:38	-127.234	48.555	0	400.00	0	5.3429	0	34.0181	0	26.861	0	396.240	0	43.1	4	14.0	4	-1E+10	1	0.0584	4	0.000308	0	-1E+10	1	-1E+10	1	-1E+10	1
4902624	31	C	04/27/2025	01:38	-127.234	48.555	0	404.80	0	5.3250	0	34.0210	0	26.865	0	400.990	0	-1e10	1	-1e10	1	-1E+10	1	-1e10	1	-1e10	1	-1E+10	1	-1E+10	1	-1E+10	1
4902624	31	C	04/27/2025	01:38	-127.234	48.555	0	411.50	0	5.3031	0	34.0270	0	26.873	0	407.620	0	40.9	4	13.3	4	-1E+10	1	0.0581	4	0.000273	0	-1E+10	1	-1E+10	1	-1E+10	1
4902624	31	C	04/27/2025	01:38	-127.234	48.555	0	414.90	0	5.2920	0	34.0300	0	26.876	0	410.985	0	-1e10	1	-1e10	1	-1E+10	1	-1e10	1	-1e10	1	-1E+10	1	-1E+10	1	-1E+10	1
4902624	31	C	04/27/2025	01:38	-127.234	48.555	0	423.30	0	5.2534	0	34.0334	0	26.884	0	419.297	0	39.2	4	12.7	4	-1E+10	1	0.0511	4	0.000488	0	-1E+10	1	-1E+10	1	-1E+10	1
4902624	31	C	04/27/2025	01:38	-127.234	48.555	0	424.90	0	5.2460	0	34.0340	0	26.885	0	420.881	0	-1e10	1	-1e10	1	-1E+10	1	-1e10	1	-1e10	1	-1E+10	1	-1E+10	1	-1E+10	1
4902624	31	C	04/27/2025	01:38	-127.234	48.555	0	435.00	0	5.1670	0	34.0390	0	26.898	0	430.875	0	-1e10	1	-1e10	1	-1E+10	1	-1e10	1	-1e10	1	-1E+10	1	-1E+10	1	-1E+10	1
4902624	31	C	04/27/2025	01:38	-127.234	48.555	0	435.50	0	5.1665	0	34.0399	0	26.899	0	431.369	0	36.7	4	11.9	4	-1E+10	1	0.0505	4	0.000252	0	-1E+10	1	-1E+10	1	-1E+10	1
4902624	31	C	04/27/2025	01:38	-127.234	48.555	0	445.00	0	5.1580	0	34.0560	0	26.913	0	440.769	0	-1e10	1	-1e10	1	-1E+10	1	-1e10	1	-1e10	1	-1E+10	1	-1E+10	1	-1E+10	1
4902624	31	C	04/27/2025	01:38	-127.234	48.555	0	448.00	0	5.1430	0	34.0569	0	26.915	0	443.737	0	34.1	4	11.1	4	-1E+10	1	0.0368	4	0.000216	0	-1E+10	1	-1E+10	1	-1E+10	1
4902624	31	C	04/27/2025	01:38	-127.234	48.555	0	455.00	0	5.1080	0	34.0590	0	26.921	0	450.663	0	-1e10	1	-1e10	1	-1E+10	1	-1e10	1	-1e10	1	-1E+10	1	-1E+10	1	-1E+10	1
4902624	31	C	04/27/2025	01:38	-127.234	48.555	0	460.90	0	5.1312	0	34.0703	0	26.927	0	456.500	0	31.4	4	10.2	4	-1E+10	1	0.0452	4	0.000215	0	-1E+10	1	-1E+10	1	-1E+10	1
4902624	31	C	04/27/2025	01:38	-127.234	48.555	0	464.90	0	5.1470	0	34.0780	0	26.932	0	460.458	0	-1e10	1	-1e10	1	-1E+10	1	-1e10	1	-1e10	1	-1E+10	1	-1E+10	1	-1E+10	1
4902624	31	C	04/27/2025	01:38	-127.234	48.555	0	473.60	0	5.0566	0	34.0780	0	26.942	0	469.065	0	30.9	4	10.0	4	-1E+10	1	0.0721	4	0.000211	0	-1E+10	1	-1E+10	1	-1E+10	1
4902624	31	C	04/27/2025	01:38	-127.234	48.555	0	475.00	0	5.0420	0	34.0780	0	26.944	0	470.450	0	-1e10	1	-1e10	1	-1E+10	1	-1e10	1	-1e10	1	-1E+10	1	-1E+10	1	-1E+10	1
4902624	31	C	04/27/2025	01:38	-127.234	48.555	0	484.90	0	5.0340	0	34.0820	0	26.948	0	480.244	0	-1e10	1	-1e10	1	-1E+10	1	-1e10	1	-1e10	1	-1E+10	1	-1E+10	1	-1E+10	1
4902624	31	C	04/27/2025	01:38	-127.234	48.555	0	486.20	0	5.0229	0	34.0819	0	26.949	0	481.530	0	29.6	4	9.6	4	-1E+10	1	0.0514	4	0.000382	0	-1E+10	1	-1E+10	1	-1E+10	1
4902624	31	C	04/27/2025	01:38	-127.234	48.555	0	495.00	0	4.9480	0	34.0810	0	26.957	0	490.235	0	-1e10	1	-1e10	1	-1E+10	1	-1e10	1	-1e10	1	-1E+10	1	-1E+10	1	-1E+10	1
4902624	31	C	04/27/2025	01:38	-127.234	48.555	0	498.70	0	4.9132	0	34.0814	0	26.961	0	493.895	0	28.7	4	9.3	4	-1E+10	1	0.0584	4	0.000157	0	-1E+10	1	-1E+10	1	-1E+10	1
4902624	31	C	04/27/2025	01:38	-127.234	48.555	0	505.10	0	4.8530	0	34.0820	0	26.969	0	500.225	0	-1e10	1	-1e10	1	-1E+10	1	-1e10	1	-1e10	1	-1E+10	1	-1E+10	1	-1E+10	1
4902624	31	C	04/27/2025	01:38	-127.234	48.555	0	511.20	0	4.8337	0	34.0888	0	26.976	0	506.259	0	26.0	4	8.4	4	-1E+10	1	0.0581	4	0.000170	0	-1E+10	1	-1E+10	1	-1E+10	1
4902624	31	C	04/27/2025	01:38	-127.234	48.555	0	514.90	0	4.8220	0	34.0930	0	26.981	0	509.919	0	-1e10	1	-1e10	1	-1E+10	1	-1e10	1	-1e10	1	-1E+10	1	-1E+10	1	-1E+10	1
4902624	31	C	04/27/2025	01:38	-127.234	48.555	0	522.00	0	4.8550	0	34.1092	0	26.990	0	516.941	0	23.2	4	7.5	4	-1E+10	1	0.0507	4	0.000215	0	-1E+10	1	-1E+10	1	-1E+10	1
4902624	31	C	04/27/2025	01:38	-127.234	48.555	0	525.00	0	4.8690	0	34.1160	0	26.994	0	519.908	0	-1e10	1	-1e10	1	-1E+10	1	-1e10	1	-1e10	1	-1E+10	1	-1E+10	1	-1E+10	1
4902624	31	C	04/27/2025	01:38	-127.234	48.555	0	529.80	0	4.8538	0	34.1208	0	27.000	0	524.656	0	22.0	4	7.1	4	-1E+10	1	0.0446	4	0.000213	0	-1E+10	1	-1E+10	1	-1E+10	1
4902624	31	C	04/27/2025	01:38	-127.234	48.555	0	535.10	0	4.8370	0	34.1260	0	27.006	0	529.898	0	-1e10	1	-1e10	1	-1E+10	1	-1e10	1	-1e10	1	-1E+10	1	-1E+10	1	-1E+10	1
4902624	31	C	04/27/2025	01:38	-127.234	48.555	0	537.70	0	4.8162	0	34.1270	0	27.009	0	532.469	0	21.2	4	6.8	4	-1E+10	1	0.0652	4	0.000157	0	-1E+10	1	-1E+10	1	-1E+10	1
4902624	31	C	04/27/2025	01:38	-127.234	48.555	0	545.10	0	4.7570	0	34.1300	0	27.018	0	539.787	0	-1e10	1	-1e10	1	-1E+10	1	-1e10	1	-1e10	1	-1E+10	1	-1E+10	1	-1E+10	1
4902624	31	C	04/27/2025	01:38	-127.234	48.555	0	545.90	0	4.7491	0	34.1300	0	27.019	0	540.579	0	20.8	4	6.7	4	-1E+10	1	0.0518	4	0.000168	0	-1E+10	1	-1E+10	1	-1E+10	1
4902624	31	C	04/27/2025	01:38	-127.234	48.555	0	554.30	0	4.6659	0	34.1300	0	27.028	0	548.886	0	20.3	4	6.5	4	-1E+10	1	0.0654	4	0.000184	0	-1E+10	1	-1E+10	1	-1E+10	1
4902624	31	C	04/27/2025	01:38	-127.234	48.555	0	555.00	0	4.6590	0	34.1300	0	27.029	0	549.578	0	-1e10	1	-1e10	1	-1E+10	1	-1e10	1	-1e10	1	-1E+10	1	-1E+10	1	-1E+10	1
4902624	31	C	04/27/2025	01:38	-127.234	48.555	0	563.00	0	4.6105	0	34.1324	0	27.036	0	557.489	0	19.6	4	6.3	4	-1E+10	1	0.0581	4	0.000269	0	-1E+10	1	-1E+10	1	-1E+10	1
4902624	31	C	04/27/2025	01:38	-127.234	48.555	0	564.90	0	4.5990	0	34.1330	0	27.038	0	559.368	0	-1e10	1	-1e10	1	-1E+10	1	-1e10	1	-1e10	1	-1E+10	1	-1E+10	1	-1E+10	1
4902624	31	C	04/27/2025	01:38	-127.234	48.555	0	571.80	0	4.5831	0	34.1371	0	27.043	0	566.191	0	18.8	4	6.0	4	-1E+10	1	0.0509	4	0.000178	0	-1E+10	1	-1E+10	1	-1E+10	1
4902624	31	C	04/27/2025	01:38	-127.234	48.555	0	574.90	0	4.5760	0	34.1390	0	27.045	0	569.256	0	-1e10	1	-1e10	1	-1E+10	1	-1e10	1	-1e10	1	-1E+10	1	-1E+10	1	-1E+10	1
4902624	31	C	04/27/2025	01:38	-127.234	48.555	0	581.10	0	4.5594	0	34.1427	0	27.050	0	575.387	0	18.0	4	5.8	4	-1E+10	1	0.0444	4	0.000135	0	-1E+10	1	-1E+10	1	-1E+10	1
4902624	31	C	04/27/2025	01:38	-127.234	48.555	0	585.00	0	4.5490	0	34.1450	0	27.053	0	579.243	0	-1e10	1	-1e10	1	-1E+10	1	-1e10	1	-1e10	1	-1E+10	1	-1E+10	1	-1E+10	1
4902624	31	C	04/27/2025	01:38	-127.234	48.555	0	590.70	0	4.5342	0	34.1518	0	27.060	0	584.879	0	16.6	4	5.3	4	-1E+10	1	0.0587	4	0.000200	0	-1E+10	1	-1E+10	1	-1E+10	1
4902624	31	C	04/27/2025	01:38	-127.234	48.555	0	595.00	0	4.5230	0	34.1570	0	27.065	0	589.130	0	-1e10	1	-1e10	1	-1E+10	1	-1e10	1	-1e10	1	-1E+10	1	-1E+10	1	-1E+10	1
4902624	31	C	04/27/2025	01:38	-127.234	48.555	0	600.80	0	4.5160	0	34.1646	0	27.072	0	594.865	0	15.3	4	4.9	4	-1E+10	1	0.0654	4	0.000145	0	-1E+10	1	-1E+10	1	-1E+10	1
4902624	31	C	04/27/2025	01:38	-127.234	48.555	0	604.90	0	4.5110	0	34.1700	0	27.077	0	598.919	0	-1e10	1	-1e10	1	-1E+10	1	-1e10	1	-1e10	1	-1E+10	1	-1E+10	1	-1E+10	1
4902624	31	C	04/27/2025	01:38	-127.234	48.555	0	611.10	0	4.4936	0	34.1731	0	27.081	0	605.048	0	14.7	4	4.7	4	-1E+10	1	0.0586	4	0.000168	0	-1E+10	1	-1E+10	1	-1E+10	1
4902624	31	C	04/27/2025	01:38	-127.234	48.555	0	614.90	0	4.4830	0	34.1750	0	27.084	0	608.805	0	-1e10	1	-1e10	1	-1E+10	1	-1e10	1	-1e10	1	-1E+10	1	-1E+10	1	-1E+10	1
4902624	31	C	04/27/2025	01:38	-127.234	48.555	0	621.90	0	4.5042	0	34.1863	0	27.091	0	615.725	0	13.4	4	4.3	4	-1E+10	1	0.0650	4	0.000179	0	-1E+10	1	-1E+10	1	-1E+10	1
4902624	31	C	04/27/2025	01:38	-127.234	48.555	0	624.80	0	4.5130	0	34.1910	0	27.094	0	618.592	0	-1e10	1	-1e10	1	-1E+10	1	-1e10	1	-1e10	1	-1E+10	1	-1E+10	1	-1E+10	1
4902624	31	C	04/27/2025	01:38	-127.234	48.555	0	632.80	0	4.4816	0	34.1973	0	27.102	0	626.501	0	12.7	4	4.0	4	-1E+10	1	0.0514	4	0.000178	0	-1E+10	1	-1E+10	1	-1E+10	1
4902624	31	C	04/27/2025	01:38	-127.234	48.555	0	635.00	0	4.4730	0	34.1990	0	27.104	0	628.675	0	-1e10	1	-1e10	1	-1E+10	1	-1e10	1	-1e10	1	-1E+10	1	-1E+10	1	-1E+10	1
4902624	31	C	04/27/2025	01:38	-127.234	48.555	0	644.00	0	4.4525	0	34.2043	0	27.111	0	637.572	0	12.1	4	3.9	4	-1E+10	1	0.0579	4	0.000168	0	-1E+10	1	-1E+10	1	-1E+10	1
4902624	31	C	04/27/2025	01:38	-127.234	48.555	0	645.10	0	4.4500	0	34.2050	0	27.112	0	638.659	0	-1e10	1	-1e10	1	-1E+10	1	-1e10	1	-1e10	1	-1E+10	1	-1E+10	1	-1E+10	1
4902624	31	C	04/27/2025	01:38	-127.234	48.555	0	655.00	0	4.4110	0	34.2130	0	27.122	0	648.445	0	-1e10	1	-1e10	1	-1E+10	1	-1e10	1	-1e10	1	-1E+10	1	-1E+10	1	-1E+10	1
4902624	31	C	04/27/2025	01:38	-127.234	48.555	0	655.70	0	4.4087	0	34.2134	0	27.123	0	649.137	0	11.5	4	3.7	4	-1E+10	1	0.0438	4	0.000189	0	-1E+10	1	-1E+10	1	-1E+10	1
4902624	31	C	04/27/2025	01:38	-127.234	48.555	0	664.90	0	4.3780	0	34.2180	0	27.130	0	658.230	0	-1e10	1	-1e10	1	-1E+10	1	-1e10	1	-1e10	1	-1E+10	1	-1E+10	1	-1E+10	1
4902624	31	C	04/27/2025	01:38	-127.234	48.555	0	667.50	0	4.3724	0	34.2190	0	27.131	0	660.800	0	11.2	4	3.6	4	-1E+10	1	0.0438	4	0.000168	0	-1E+10	1	-1E+10	1	-1E+10	1
4902624	31	C	04/27/2025	01:38	-127.234	48.555	0	675.10	0	4.3560	0	34.2220	0	27.135	0	668.312	0	-1e10	1	-1e10	1	-1E+10	1	-1e10	1	-1e10	1	-1E+10	1	-1E+10	1	-1E+10	1
4902624	31	C	04/27/2025	01:38	-127.234	48.555	0	679.50	0	4.3465	0	34.2237	0	27.138	0	672.660	0	10.9	4	3.5	4	-1E+10	1	0.0442	4	0.000189	0	-1E+10	1	-1E+10	1	-1E+10	1
4902624	31	C	04/27/2025	01:38	-127.234	48.555	0	685.30	0	4.3340	0	34.2260	0	27.141	0	678.393	0	-1e10	1	-1e10	1	-1E+10	1	-1e10	1	-1e10	1	-1E+10	1	-1E+10	1	-1E+10	1
4902624	31	C	04/27/2025	01:38	-127.234	48.555	0	688.90	0	4.3267	0	34.2282	0	27.144	0	681.950	0	10.6	4	3.4	4	-1E+10	1	0.0514	4	0.000166	0	-1E+10	1	-1E+10	1	-1E+10	1
4902624	31	C	04/27/2025	01:38	-127.234	48.555	0	695.20	0	4.3140	0	34.2320	0	27.148	0	688.177	0	-1e10	1	-1e10	1	-1E+10	1	-1e10	1	-1e10	1	-1E+10	1	-1E+10	1	-1E+10	1
4902624	31	C	04/27/2025	01:38	-127.234	48.555	0	696.70	0	4.3158	0	34.2341	0	27.150	0	689.659	0	10.2	4	3.2	4	-1E+10	1	0.0581	4	0.000155	0	-1E+10	1	-1E+10	1	-1E+10	1
4902624	31	C	04/27/2025	01:38	-127.234	48.555	0	704.60	0	4.3255	0	34.2454	0	27.158	0	697.466	0	9.7	4	3.1	4	-1E+10	1	0.0511	4	0.000167	0	-1E+10	1	-1E+10	1	-1E+10	1
4902624	31	C	04/27/2025	01:38	-127.234	48.555	0	705.00	0	4.3260	0	34.2460	0	27.158	0	697.861	0	-1e10	1	-1e10	1	-1E+10	1	-1e10	1	-1e10	1	-1E+10	1	-1E+10	1	-1E+10	1
4902624	31	C	04/27/2025	01:38	-127.234	48.555	0	712.60	0	4.2910	0	34.2490	0	27.164	0	705.371	0	9.6	4	3.1	4	-1E+10	1	0.0516	4	0.000189	0	-1E+10	1	-1E+10	1	-1E+10	1
4902624	31	C	04/27/2025	01:38	-127.234	48.555	0	715.00	0	4.2800	0	34.2500	0	27.166	0	707.743	0	-1e10	1	-1e10	1	-1E+10	1	-1e10	1	-1e10	1	-1E+10	1	-1E+10	1	-1E+10	1
4902624	31	C	04/27/2025	01:38	-127.234	48.555	0	720.90	0	4.2605	0	34.2547	0	27.172	0	713.573	0	9.3	4	2.9	4	-1E+10	1	0.0654	4	0.000170	0	-1E+10	1	-1E+10	1	-1E+10	1
4902624	31	C	04/27/2025	01:38	-127.234	48.555	0	725.00	0	4.2470	0	34.2580	0	27.176	0	717.624	0	-1e10	1	-1e10	1	-1E+10	1	-1e10	1	-1e10	1	-1E+10	1	-1E+10	1	-1E+10	1
4902624	31	C	04/27/2025	01:38	-127.234	48.555	0	729.40	0	4.2414	0	34.2602	0	27.178	0	721.972	0	9.1	4	2.9	4	-1E+10	1	0.0581	4	0.000247	0	-1E+10	1	-1E+10	1	-1E+10	1
4902624	31	C	04/27/2025	01:38	-127.234	48.555	0	735.20	0	4.2340	0	34.2630	0	27.181	0	727.703	0	-1e10	1	-1e10	1	-1E+10	1	-1e10	1	-1e10	1	-1E+10	1	-1E+10	1	-1E+10	1
4902624	31	C	04/27/2025	01:38	-127.234	48.555	0	738.20	0	4.2295	0	34.2663	0	27.185	0	730.667	0	9.0	4	2.9	4	-1E+10	1	0.0517	4	0.000203	0	-1E+10	1	-1E+10	1	-1E+10	1
4902624	31	C	04/27/2025	01:38	-127.234	48.555	0	745.10	0	4.2190	0	34.2740	0	27.192	0	737.484	0	-1e10	1	-1e10	1	-1E+10	1	-1e10	1	-1e10	1	-1E+10	1	-1E+10	1	-1E+10	1
4902624	31	C	04/27/2025	01:38	-127.234	48.555	0	747.10	0	4.2138	0	34.2758	0	27.194	0	739.460	0	8.8	4	2.8	4	-1E+10	1	0.0655	4	0.000253	0	-1E+10	1	-1E+10	1	-1E+10	1
4902624	31	C	04/27/2025	01:38	-127.234	48.555	0	755.10	0	4.1930	0	34.2830	0	27.202	0	747.364	0	-1e10	1	-1e10	1	-1E+10	1	-1e10	1	-1e10	1	-1E+10	1	-1E+10	1	-1E+10	1
4902624	31	C	04/27/2025	01:38	-127.234	48.555	0	756.20	0	4.1897	0	34.2838	0	27.203	0	748.451	0	8.6	4	2.7	4	-1E+10	1	0.0587	4	0.000380	0	-1E+10	1	-1E+10	1	-1E+10	1
4902624	31	C	04/27/2025	01:38	-127.234	48.555	0	765.10	0	4.1630	0	34.2900	0	27.210	0	757.243	0	-1e10	1	-1e10	1	-1E+10	1	-1e10	1	-1e10	1	-1E+10	1	-1E+10	1	-1E+10	1
4902624	31	C	04/27/2025	01:38	-127.234	48.555	0	765.20	0	4.1626	0	34.2901	0	27.211	0	757.342	0	8.3	4	2.6	4	-1E+10	1	0.0654	4	0.000190	0	-1E+10	1	-1E+10	1	-1E+10	1
4902624	31	C	04/27/2025	01:38	-127.234	48.555	0	774.40	0	4.1239	0	34.2974	0	27.221	0	766.431	0	8.2	4	2.6	4	-1E+10	1	0.0582	4	0.000201	0	-1E+10	1	-1E+10	1	-1E+10	1
4902624	31	C	04/27/2025	01:38	-127.234	48.555	0	775.10	0	4.1210	0	34.2980	0	27.221	0	767.122	0	-1e10	1	-1e10	1	-1E+10	1	-1e10	1	-1e10	1	-1E+10	1	-1E+10	1	-1E+10	1
4902624	31	C	04/27/2025	01:38	-127.234	48.555	0	783.70	0	4.0978	0	34.3032	0	27.228	0	775.618	0	8.1	4	2.6	4	-1E+10	1	0.0517	4	0.000211	0	-1E+10	1	-1E+10	1	-1E+10	1
4902624	31	C	04/27/2025	01:38	-127.234	48.555	0	785.10	0	4.0940	0	34.3040	0	27.229	0	777.001	0	-1e10	1	-1e10	1	-1E+10	1	-1e10	1	-1e10	1	-1E+10	1	-1E+10	1	-1E+10	1
4902624	31	C	04/27/2025	01:38	-127.234	48.555	0	793.30	0	4.0816	0	34.3090	0	27.234	0	785.101	0	8.0	4	2.5	4	-1E+10	1	0.0657	4	0.000179	0	-1E+10	1	-1E+10	1	-1E+10	1
4902624	31	C	04/27/2025	01:38	-127.234	48.555	0	795.00	0	4.0790	0	34.3100	0	27.235	0	786.780	0	-1e10	1	-1e10	1	-1E+10	1	-1e10	1	-1e10	1	-1E+10	1	-1E+10	1	-1E+10	1
4902624	31	C	04/27/2025	01:38	-127.234	48.555	0	803.00	0	4.0651	0	34.3125	0	27.239	0	794.682	0	7.8	4	2.5	4	-1E+10	1	0.0657	4	0.000223	0	-1E+10	1	-1E+10	1	-1E+10	1
4902624	31	C	04/27/2025	01:38	-127.234	48.555	0	804.80	0	4.0620	0	34.3130	0	27.240	0	796.460	0	-1e10	1	-1e10	1	-1E+10	1	-1e10	1	-1e10	1	-1E+10	1	-1E+10	1	-1E+10	1
4902624	31	C	04/27/2025	01:38	-127.234	48.555	0	812.90	0	4.0428	0	34.3178	0	27.245	0	804.461	0	7.8	4	2.5	4	-1E+10	1	0.0654	4	0.000200	0	-1E+10	1	-1E+10	1	-1E+10	1
4902624	31	C	04/27/2025	01:38	-127.234	48.555	0	814.90	0	4.0380	0	34.3190	0	27.247	0	806.436	0	-1e10	1	-1e10	1	-1E+10	1	-1e10	1	-1e10	1	-1E+10	1	-1E+10	1	-1E+10	1
4902624	31	C	04/27/2025	01:38	-127.234	48.555	0	822.70	0	4.0185	0	34.3229	0	27.252	0	814.140	0	7.7	4	2.4	4	-1E+10	1	0.0584	4	0.000178	0	-1E+10	1	-1E+10	1	-1E+10	1
4902624	31	C	04/27/2025	01:38	-127.234	48.555	0	824.90	0	4.0130	0	34.3240	0	27.253	0	816.313	0	-1e10	1	-1e10	1	-1E+10	1	-1e10	1	-1e10	1	-1E+10	1	-1E+10	1	-1E+10	1
4902624	31	C	04/27/2025	01:38	-127.234	48.555	0	832.60	0	3.9891	0	34.3279	0	27.259	0	823.917	0	7.7	4	2.4	4	-1E+10	1	0.0584	4	0.000212	0	-1E+10	1	-1E+10	1	-1E+10	1
4902624	31	C	04/27/2025	01:38	-127.234	48.555	0	834.90	0	3.9820	0	34.3290	0	27.261	0	826.189	0	-1e10	1	-1e10	1	-1E+10	1	-1e10	1	-1e10	1	-1E+10	1	-1E+10	1	-1E+10	1
4902624	31	C	04/27/2025	01:38	-127.234	48.555	0	842.60	0	3.9591	0	34.3359	0	27.269	0	833.793	0	7.7	4	2.4	4	-1E+10	1	0.0587	4	0.000221	0	-1E+10	1	-1E+10	1	-1E+10	1
4902624	31	C	04/27/2025	01:38	-127.234	48.555	0	845.00	0	3.9520	0	34.3380	0	27.271	0	836.163	0	-1e10	1	-1e10	1	-1E+10	1	-1e10	1	-1e10	1	-1E+10	1	-1E+10	1	-1E+10	1
4902624	31	C	04/27/2025	01:38	-127.234	48.555	0	852.70	0	3.9263	0	34.3418	0	27.277	0	843.767	0	7.7	4	2.4	4	-1E+10	1	0.0657	4	0.000165	0	-1E+10	1	-1E+10	1	-1E+10	1
4902624	31	C	04/27/2025	01:38	-127.234	48.555	0	855.20	0	3.9180	0	34.3430	0	27.278	0	846.236	0	-1e10	1	-1e10	1	-1E+10	1	-1e10	1	-1e10	1	-1E+10	1	-1E+10	1	-1E+10	1
4902624	31	C	04/27/2025	01:38	-127.234	48.555	0	863.10	0	3.8925	0	34.3478	0	27.285	0	854.037	0	7.7	4	2.4	4	-1E+10	1	0.0649	4	0.000171	0	-1E+10	1	-1E+10	1	-1E+10	1
4902624	31	C	04/27/2025	01:38	-127.234	48.555	0	865.10	0	3.8860	0	34.3490	0	27.287	0	856.012	0	-1e10	1	-1e10	1	-1E+10	1	-1e10	1	-1e10	1	-1E+10	1	-1E+10	1	-1E+10	1
4902624	31	C	04/27/2025	01:38	-127.234	48.555	0	873.90	0	3.8612	0	34.3527	0	27.292	0	864.701	0	7.7	4	2.4	4	-1E+10	1	0.0448	4	0.000311	0	-1E+10	1	-1E+10	1	-1E+10	1
4902624	31	C	04/27/2025	01:38	-127.234	48.555	0	874.70	0	3.8590	0	34.3530	0	27.292	0	865.491	0	-1e10	1	-1e10	1	-1E+10	1	-1e10	1	-1e10	1	-1E+10	1	-1E+10	1	-1E+10	1
4902624	31	C	04/27/2025	01:38	-127.234	48.555	0	884.90	0	3.8250	0	34.3590	0	27.301	0	875.562	0	7.7	4	2.4	4	-1E+10	1	0.0657	4	0.000175	0	-1E+10	1	-1E+10	1	-1E+10	1
4902624	31	C	04/27/2025	01:38	-127.234	48.555	0	895.10	0	3.7960	0	34.3650	0	27.308	0	885.633	0	-1e10	1	-1e10	1	-1E+10	1	-1e10	1	-1e10	1	-1E+10	1	-1E+10	1	-1E+10	1
4902624	31	C	04/27/2025	01:38	-127.234	48.555	0	896.10	0	3.7941	0	34.3654	0	27.309	0	886.620	0	7.9	4	2.5	4	-1E+10	1	0.0654	4	0.000144	0	-1E+10	1	-1E+10	1	-1E+10	1
4902624	31	C	04/27/2025	01:38	-127.234	48.555	0	904.70	0	3.7780	0	34.3690	0	27.314	0	895.111	0	-1e10	1	-1e10	1	-1E+10	1	-1e10	1	-1e10	1	-1E+10	1	-1E+10	1	-1E+10	1
4902624	31	C	04/27/2025	01:38	-127.234	48.555	0	907.70	0	3.7725	0	34.3696	0	27.315	0	898.073	0	8.1	4	2.6	4	-1E+10	1	0.0587	4	0.000210	0	-1E+10	1	-1E+10	1	-1E+10	1
4902624	31	C	04/27/2025	01:38	-127.234	48.555	0	915.10	0	3.7590	0	34.3710	0	27.317	0	905.378	0	-1e10	1	-1e10	1	-1E+10	1	-1e10	1	-1e10	1	-1E+10	1	-1E+10	1	-1E+10	1
4902624	31	C	04/27/2025	01:38	-127.234	48.555	0	919.50	0	3.7449	0	34.3728	0	27.320	0	909.722	0	8.3	4	2.6	4	-1E+10	1	0.0654	4	0.000175	0	-1E+10	1	-1E+10	1	-1E+10	1
4902624	31	C	04/27/2025	01:38	-127.234	48.555	0	925.10	0	3.7270	0	34.3750	0	27.324	0	915.250	0	-1e10	1	-1e10	1	-1E+10	1	-1e10	1	-1e10	1	-1E+10	1	-1E+10	1	-1E+10	1
4902624	31	C	04/27/2025	01:38	-127.234	48.555	0	929.90	0	3.7207	0	34.3769	0	27.326	0	919.989	0	8.3	4	2.6	4	-1E+10	1	0.0590	4	0.000164	0	-1E+10	1	-1E+10	1	-1E+10	1
4902624	31	C	04/27/2025	01:38	-127.234	48.555	0	935.00	0	3.7140	0	34.3790	0	27.328	0	925.023	0	-1e10	1	-1e10	1	-1E+10	1	-1e10	1	-1e10	1	-1E+10	1	-1E+10	1	-1E+10	1
4902624	31	C	04/27/2025	01:38	-127.234	48.555	0	937.80	0	3.7090	0	34.3798	0	27.329	0	927.787	0	8.2	4	2.6	4	-1E+10	1	0.0725	4	0.000169	0	-1E+10	1	-1E+10	1	-1E+10	1
4902624	31	C	04/27/2025	01:38	-127.234	48.555	0	945.00	0	3.6960	0	34.3820	0	27.332	0	934.894	0	-1e10	1	-1e10	1	-1E+10	1	-1e10	1	-1e10	1	-1E+10	1	-1E+10	1	-1E+10	1
4902624	31	C	04/27/2025	01:38	-127.234	48.555	0	945.90	0	3.6934	0	34.3823	0	27.333	0	935.782	0	8.4	4	2.6	4	-1E+10	1	0.0576	4	0.000290	0	-1E+10	1	-1E+10	1	-1E+10	1
4902624	31	C	04/27/2025	01:38	-127.234	48.555	0	954.30	0	3.6688	0	34.3848	0	27.337	0	944.074	0	8.4	4	2.6	4	-1E+10	1	0.0375	4	0.000200	0	-1E+10	1	-1E+10	1	-1E+10	1
4902624	31	C	04/27/2025	01:38	-127.234	48.555	0	954.90	0	3.6670	0	34.3850	0	27.338	0	944.666	0	-1e10	1	-1e10	1	-1E+10	1	-1e10	1	-1e10	1	-1E+10	1	-1E+10	1	-1E+10	1
4902624	31	C	04/27/2025	01:38	-127.234	48.555	0	963.30	0	3.6460	0	34.3875	0	27.342	0	952.957	0	33.5	4	10.5	4	-1E+10	1	0.0581	4	0.000220	0	-1E+10	1	-1E+10	1	-1E+10	1
4902624	31	C	04/27/2025	01:38	-127.234	48.555	0	964.90	0	3.6420	0	34.3880	0	27.342	0	954.536	0	-1e10	1	-1e10	1	-1E+10	1	-1e10	1	-1e10	1	-1E+10	1	-1E+10	1	-1E+10	1
4902624	31	C	04/27/2025	01:38	-127.234	48.555	0	972.50	0	3.6270	0	34.3903	0	27.346	0	962.037	0	38.4	4	12.0	4	-1E+10	1	0.0513	4	0.000175	0	-1E+10	1	-1E+10	1	-1E+10	1
4902624	31	C	04/27/2025	01:38	-127.234	48.555	0	975.00	0	3.6220	0	34.3910	0	27.347	0	964.504	0	-1e10	1	-1e10	1	-1E+10	1	-1e10	1	-1e10	1	-1E+10	1	-1E+10	1	-1E+10	1
4902624	31	C	04/27/2025	01:38	-127.234	48.555	0	982.10	0	3.6065	0	34.3938	0	27.351	0	971.511	0	32.1	4	10.1	4	-1E+10	1	0.0587	4	0.000152	0	-1E+10	1	-1E+10	1	-1E+10	1
4902624	31	C	04/27/2025	01:38	-127.234	48.555	0	985.10	0	3.6000	0	34.3950	0	27.352	0	974.472	0	-1e10	1	-1e10	1	-1E+10	1	-1e10	1	-1e10	1	-1E+10	1	-1E+10	1	-1E+10	1
4902624	31	C	04/27/2025	01:38	-127.234	48.555	0	991.90	0	3.5891	0	34.3964	0	27.354	0	981.183	0	34.0	4	10.6	4	-1E+10	1	0.0654	4	0.000153	0	-1E+10	1	-1E+10	1	-1E+10	1
4902624	31	C	04/27/2025	01:38	-127.234	48.555	0	995.10	0	3.5840	0	34.3970	0	27.356	0	984.341	0	-1e10	1	-1e10	1	-1E+10	1	-1e10	1	-1e10	1	-1E+10	1	-1E+10	1	-1E+10	1
4902624	31	C	04/27/2025	01:38	-127.234	48.555	0	1011.50	0	3.5570	0	34.4020	0	27.362	0	1000.524	0	39.8	4	12.5	4	-1E+10	1	0.0514	4	0.000186	0	-1E+10	1	-1E+10	1	-1E+10	1
4902624	31	C	04/27/2025	01:38	-127.234	48.555	0	1024.90	0	3.5350	0	34.4060	0	27.368	0	1013.746	0	-1e10	1	-1e10	1	-1E+10	1	-1e10	1	-1e10	1	-1E+10	1	-1E+10	1	-1E+10	1
4902624	31	C	04/27/2025	01:38	-127.234	48.555	0	1031.80	0	3.5221	0	34.4076	0	27.370	0	1020.555	0	42.1	4	13.2	4	-1E+10	1	0.0656	4	0.000152	0	-1E+10	1	-1E+10	1	-1E+10	1
4902624	31	C	04/27/2025	01:38	-127.234	48.555	0	1052.90	0	3.4825	0	34.4127	0	27.378	0	1041.372	0	46.9	4	14.7	4	-1E+10	1	0.0584	4	0.000175	0	-1E+10	1	-1E+10	1	-1E+10	1
4902624	31	C	04/27/2025	01:38	-127.234	48.555	0	1074.30	0	3.4423	0	34.4178	0	27.386	0	1062.484	0	47.5	4	14.8	4	-1E+10	1	0.0584	4	0.000174	0	-1E+10	1	-1E+10	1	-1E+10	1
4902624	31	C	04/27/2025	01:38	-127.234	48.555	0	1075.00	0	3.4410	0	34.4180	0	27.387	0	1063.174	0	-1e10	1	-1e10	1	-1E+10	1	-1e10	1	-1e10	1	-1E+10	1	-1E+10	1	-1E+10	1
4902624	31	C	04/27/2025	01:38	-127.234	48.555	0	1095.50	0	3.3950	0	34.4246	0	27.396	0	1083.396	0	47.3	4	14.7	4	-1E+10	1	0.0585	4	0.000174	0	-1E+10	1	-1E+10	1	-1E+10	1
4902624	31	C	04/27/2025	01:38	-127.234	48.555	0	1117.00	0	3.3467	0	34.4315	0	27.407	0	1104.602	0	46.9	4	14.6	4	-1E+10	1	0.0657	4	0.000162	0	-1E+10	1	-1E+10	1	-1E+10	1
4902624	31	C	04/27/2025	01:38	-127.234	48.555	0	1124.90	0	3.3290	0	34.4340	0	27.410	0	1112.393	0	-1e10	1	-1e10	1	-1E+10	1	-1e10	1	-1e10	1	-1E+10	1	-1E+10	1	-1E+10	1
4902624	31	C	04/27/2025	01:38	-127.234	48.555	0	1138.70	0	3.2981	0	34.4378	0	27.416	0	1126.003	0	50.1	4	15.6	4	-1E+10	1	0.0656	4	0.000139	0	-1E+10	1	-1E+10	1	-1E+10	1
4902624	31	C	04/27/2025	01:38	-127.234	48.555	0	1161.00	0	3.2482	0	34.4440	0	27.426	0	1147.993	0	49.8	4	15.5	4	-1E+10	1	0.0584	4	0.000185	0	-1E+10	1	-1E+10	1	-1E+10	1
4902624	31	C	04/27/2025	01:38	-127.234	48.555	0	1175.40	0	3.2160	0	34.4480	0	27.432	0	1162.192	0	-1e10	1	-1e10	1	-1E+10	1	-1e10	1	-1e10	1	-1E+10	1	-1E+10	1	-1E+10	1
4902624	31	C	04/27/2025	01:38	-127.234	48.555	0	1183.50	0	3.1976	0	34.4502	0	27.436	0	1170.178	0	47.0	4	14.6	4	-1E+10	1	0.0582	4	0.000173	0	-1E+10	1	-1E+10	1	-1E+10	1
4902624	31	C	04/27/2025	01:38	-127.234	48.555	0	1199.30	0	3.1617	0	34.4544	0	27.443	0	1185.756	0	57.7	4	17.9	4	-1E+10	1	0.0513	4	0.000173	0	-1E+10	1	-1E+10	1	-1E+10	1
4902624	31	C	04/27/2025	01:38	-127.234	48.555	0	1216.00	0	3.1238	0	34.4588	0	27.450	0	1202.220	0	66.5	4	20.6	4	-1E+10	1	0.0583	4	0.000173	0	-1E+10	1	-1E+10	1	-1E+10	1
4902624	31	C	04/27/2025	01:38	-127.234	48.555	0	1224.30	0	3.1050	0	34.4610	0	27.453	0	1210.402	0	-1e10	1	-1e10	1	-1E+10	1	-1e10	1	-1e10	1	-1E+10	1	-1E+10	1	-1E+10	1
4902624	31	C	04/27/2025	01:38	-127.234	48.555	0	1233.80	0	3.0842	0	34.4634	0	27.457	0	1219.767	0	77.6	4	24.0	4	-1E+10	1	0.0516	4	0.000149	0	-1E+10	1	-1E+10	1	-1E+10	1
4902624	31	C	04/27/2025	01:38	-127.234	48.555	0	1252.70	0	3.0429	0	34.4683	0	27.465	0	1238.396	0	80.9	4	25.0	4	-1E+10	1	0.0726	4	0.000149	0	-1E+10	1	-1E+10	1	-1E+10	1
4902624	31	C	04/27/2025	01:38	-127.234	48.555	0	1272.30	0	3.0001	0	34.4733	0	27.473	0	1257.714	0	85.2	4	26.3	4	-1E+10	1	0.0438	4	0.000138	0	-1E+10	1	-1E+10	1	-1E+10	1
4902624	31	C	04/27/2025	01:38	-127.234	48.555	0	1275.10	0	2.9940	0	34.4740	0	27.474	0	1260.473	0	-1e10	1	-1e10	1	-1E+10	1	-1e10	1	-1e10	1	-1E+10	1	-1E+10	1	-1E+10	1
4902624	31	C	04/27/2025	01:38	-127.234	48.555	0	1293.00	0	2.9577	0	34.4776	0	27.480	0	1278.114	0	62.4	4	19.2	4	-1E+10	1	0.0439	4	0.000161	0	-1E+10	1	-1E+10	1	-1E+10	1
4902624	31	C	04/27/2025	01:38	-127.234	48.555	0	1314.50	0	2.9141	0	34.4818	0	27.488	0	1299.300	0	83.5	4	25.7	4	-1E+10	1	0.0511	4	0.000194	0	-1E+10	1	-1E+10	1	-1E+10	1
4902624	31	C	04/27/2025	01:38	-127.234	48.555	0	1325.40	0	2.8920	0	34.4840	0	27.491	0	1310.040	0	-1e10	1	-1e10	1	-1E+10	1	-1e10	1	-1e10	1	-1E+10	1	-1E+10	1	-1E+10	1
4902624	31	C	04/27/2025	01:38	-127.234	48.555	0	1336.30	0	2.8702	0	34.4860	0	27.495	0	1320.779	0	65.7	4	20.2	4	-1E+10	1	0.0512	4	0.000148	0	-1E+10	1	-1E+10	1	-1E+10	1
4902624	31	C	04/27/2025	01:38	-127.234	48.555	0	1358.50	0	2.8257	0	34.4900	0	27.502	0	1342.651	0	71.3	4	21.9	4	-1E+10	1	0.0585	4	0.000125	0	-1E+10	1	-1E+10	1	-1E+10	1
4902624	31	C	04/27/2025	01:38	-127.234	48.555	0	1375.30	0	2.7920	0	34.4930	0	27.508	0	1359.201	0	-1e10	1	-1e10	1	-1E+10	1	-1e10	1	-1e10	1	-1E+10	1	-1E+10	1	-1E+10	1
4902624	31	C	04/27/2025	01:38	-127.234	48.555	0	1380.70	0	2.7818	0	34.4942	0	27.509	0	1364.520	0	72.0	4	22.1	4	-1E+10	1	0.0652	4	0.000137	0	-1E+10	1	-1E+10	1	-1E+10	1
4902624	31	C	04/27/2025	01:38	-127.234	48.555	0	1403.00	0	2.7397	0	34.4991	0	27.517	0	1386.485	0	68.8	4	21.1	4	-1E+10	1	0.0438	4	0.000205	0	-1E+10	1	-1E+10	1	-1E+10	1
4902624	31	C	04/27/2025	01:38	-127.234	48.555	0	1425.60	0	2.6970	0	34.5040	0	27.525	0	1408.744	0	67.7	4	20.7	4	-1E+10	1	0.0440	4	0.000125	0	-1E+10	1	-1E+10	1	-1E+10	1
4902624	31	C	04/27/2025	01:38	-127.234	48.555	0	1444.80	0	2.6648	0	34.5083	0	27.531	0	1427.652	0	67.9	4	20.8	4	-1E+10	1	0.0510	4	0.000171	0	-1E+10	1	-1E+10	1	-1E+10	1
4902624	31	C	04/27/2025	01:38	-127.234	48.555	0	1460.70	0	2.6381	0	34.5118	0	27.536	0	1443.309	0	71.4	4	21.9	4	-1E+10	1	0.0439	4	0.000204	0	-1E+10	1	-1E+10	1	-1E+10	1
4902624	31	C	04/27/2025	01:38	-127.234	48.555	0	1475.10	0	2.6140	0	34.5150	0	27.541	0	1457.488	0	-1e10	1	-1e10	1	-1E+10	1	-1e10	1	-1e10	1	-1E+10	1	-1E+10	1	-1E+10	1
4902624	31	C	04/27/2025	01:38	-127.234	48.555	0	1477.20	0	2.6104	0	34.5154	0	27.542	0	1459.556	0	61.7	4	18.9	4	-1E+10	1	0.0511	4	0.000134	0	-1E+10	1	-1E+10	1	-1E+10	1
4902624	31	C	04/27/2025	01:38	-127.234	48.555	0	1494.50	0	2.5811	0	34.5185	0	27.547	0	1476.589	0	66.6	4	20.4	4	-1E+10	1	0.0512	4	0.000112	0	-1E+10	1	-1E+10	1	-1E+10	1
4902624	31	C	04/27/2025	01:38	-127.234	48.555	0	1512.80	0	2.5502	0	34.5218	0	27.552	0	1494.605	0	61.6	4	18.8	4	-1E+10	1	0.0579	4	0.000146	0	-1E+10	1	-1E+10	1	-1E+10	1
4902624	31	C	04/27/2025	01:38	-127.234	48.555	0	1524.70	0	2.5300	0	34.5240	0	27.556	0	1506.319	0	-1e10	1	-1e10	1	-1E+10	1	-1e10	1	-1e10	1	-1E+10	1	-1E+10	1	-1E+10	1
4902624	31	C	04/27/2025	01:38	-127.234	48.555	0	1532.10	0	2.5178	0	34.5255	0	27.558	0	1513.603	0	66.3	4	20.2	4	-1E+10	1	0.0369	4	0.000123	0	-1E+10	1	-1E+10	1	-1E+10	1
4902624	31	C	04/27/2025	01:38	-127.234	48.555	0	1552.40	0	2.4843	0	34.5295	0	27.564	0	1533.585	0	70.2	4	21.4	4	-1E+10	1	0.0583	4	0.000134	0	-1E+10	1	-1E+10	1	-1E+10	1
4902624	31	C	04/27/2025	01:38	-127.234	48.555	0	1573.70	0	2.4491	0	34.5337	0	27.570	0	1554.548	0	73.8	4	22.5	4	-1E+10	1	0.0510	4	0.000146	0	-1E+10	1	-1E+10	1	-1E+10	1
4902624	31	C	04/27/2025	01:38	-127.234	48.555	0	1575.00	0	2.4470	0	34.5340	0	27.571	0	1555.828	0	-1e10	1	-1e10	1	-1E+10	1	-1e10	1	-1e10	1	-1E+10	1	-1E+10	1	-1E+10	1
4902624	31	C	04/27/2025	01:38	-127.234	48.555	0	1595.70	0	2.4173	0	34.5377	0	27.576	0	1576.199	0	78.1	4	23.8	4	-1E+10	1	0.0439	4	0.000157	0	-1E+10	1	-1E+10	1	-1E+10	1
4902624	31	C	04/27/2025	01:38	-127.234	48.555	0	1618.60	0	2.3843	0	34.5417	0	27.582	0	1598.733	0	82.0	4	25.0	4	-1E+10	1	0.0511	4	0.000145	0	-1E+10	1	-1E+10	1	-1E+10	1
4902624	31	C	04/27/2025	01:38	-127.234	48.555	0	1625.80	0	2.3740	0	34.5430	0	27.584	0	1605.817	0	-1e10	1	-1e10	1	-1E+10	1	-1e10	1	-1e10	1	-1E+10	1	-1E+10	1	-1E+10	1
4902624	31	C	04/27/2025	01:38	-127.234	48.555	0	1639.70	0	2.3531	0	34.5455	0	27.588	0	1619.493	0	84.5	4	25.7	4	-1E+10	1	0.0511	4	0.000147	0	-1E+10	1	-1E+10	1	-1E+10	1
4902624	31	C	04/27/2025	01:38	-127.234	48.555	0	1655.70	0	2.3289	0	34.5485	0	27.593	0	1635.234	0	81.0	4	24.6	4	-1E+10	1	0.0510	4	0.000248	0	-1E+10	1	-1E+10	1	-1E+10	1
4902624	31	C	04/27/2025	01:38	-127.234	48.555	0	1672.20	0	2.3041	0	34.5515	0	27.597	0	1651.466	0	82.1	4	24.9	4	-1E+10	1	0.0439	4	0.000145	0	-1E+10	1	-1E+10	1	-1E+10	1
4902624	31	C	04/27/2025	01:38	-127.234	48.555	0	1674.90	0	2.3000	0	34.5520	0	27.598	0	1654.122	0	-1e10	1	-1e10	1	-1E+10	1	-1e10	1	-1e10	1	-1E+10	1	-1E+10	1	-1E+10	1
4902624	31	C	04/27/2025	01:38	-127.234	48.555	0	1689.60	0	2.2815	0	34.5546	0	27.602	0	1668.582	0	84.4	4	25.6	4	-1E+10	1	0.0514	4	0.000168	0	-1E+10	1	-1E+10	1	-1E+10	1
4902624	31	C	04/27/2025	01:38	-127.234	48.555	0	1707.70	0	2.2587	0	34.5579	0	27.606	0	1686.385	0	85.9	4	26.1	4	-1E+10	1	0.0655	4	0.000179	0	-1E+10	1	-1E+10	1	-1E+10	1
4902624	31	C	04/27/2025	01:38	-127.234	48.555	0	1724.90	0	2.2370	0	34.5610	0	27.610	0	1703.301	0	-1e10	1	-1e10	1	-1E+10	1	-1e10	1	-1e10	1	-1E+10	1	-1E+10	1	-1E+10	1
4902624	31	C	04/27/2025	01:38	-127.234	48.555	0	1726.30	0	2.2350	0	34.5612	0	27.611	0	1704.678	0	87.3	4	26.5	4	-1E+10	1	0.0511	4	0.000155	0	-1E+10	1	-1E+10	1	-1E+10	1
4902624	31	C	04/27/2025	01:38	-127.234	48.555	0	1744.90	0	2.2080	0	34.5642	0	27.615	0	1722.969	0	88.3	4	26.8	4	-1E+10	1	0.0509	4	0.000144	0	-1E+10	1	-1E+10	1	-1E+10	1
4902624	31	C	04/27/2025	01:38	-127.234	48.555	0	1763.50	0	2.1811	0	34.5672	0	27.620	0	1741.259	0	90.3	4	27.3	4	-1E+10	1	0.0437	4	0.000166	0	-1E+10	1	-1E+10	1	-1E+10	1
4902624	31	C	04/27/2025	01:38	-127.234	48.555	0	1774.60	0	2.1650	0	34.5690	0	27.623	0	1752.174	0	-1e10	1	-1e10	1	-1E+10	1	-1e10	1	-1e10	1	-1E+10	1	-1E+10	1	-1E+10	1
4902624	31	C	04/27/2025	01:38	-127.234	48.555	0	1782.90	0	2.1550	0	34.5706	0	27.625	0	1760.334	0	91.5	4	27.7	4	-1E+10	1	0.0366	4	0.000143	0	-1E+10	1	-1E+10	1	-1E+10	1
4902624	31	C	04/27/2025	01:38	-127.234	48.555	0	1802.90	0	2.1309	0	34.5746	0	27.630	0	1779.997	0	93.5	4	28.3	4	-1E+10	1	0.0440	4	0.000146	0	-1E+10	1	-1E+10	1	-1E+10	1
4902624	31	C	04/27/2025	01:38	-127.234	48.555	0	1823.50	0	2.1060	0	34.5787	0	27.635	0	1800.248	0	95.5	4	28.9	4	-1E+10	1	0.0511	4	0.000258	0	-1E+10	1	-1E+10	1	-1E+10	1
4902624	31	C	04/27/2025	01:38	-127.234	48.555	0	1825.20	0	2.1040	0	34.5790	0	27.636	0	1801.920	0	-1e10	1	-1e10	1	-1E+10	1	-1e10	1	-1e10	1	-1E+10	1	-1E+10	1	-1E+10	1
4902624	31	C	04/27/2025	01:38	-127.234	48.555	0	1844.70	0	2.0902	0	34.5818	0	27.639	0	1821.087	0	97.0	4	29.3	4	-1E+10	1	0.0512	4	0.000166	0	-1E+10	1	-1E+10	1	-1E+10	1
4902624	31	C	04/27/2025	01:38	-127.234	48.555	0	1866.90	0	2.0745	0	34.5849	0	27.643	0	1842.907	0	97.7	4	29.5	4	-1E+10	1	0.0582	4	0.000166	0	-1E+10	1	-1E+10	1	-1E+10	1
4902624	31	C	04/27/2025	01:38	-127.234	48.555	0	1874.60	0	2.0690	0	34.5860	0	27.645	0	1850.475	0	-1e10	1	-1e10	1	-1E+10	1	-1e10	1	-1e10	1	-1E+10	1	-1E+10	1	-1E+10	1
4902624	31	C	04/27/2025	01:38	-127.234	48.555	0	1889.50	0	2.0521	0	34.5881	0	27.648	0	1865.118	0	98.5	4	29.8	4	-1E+10	1	0.0512	4	0.000199	0	-1E+10	1	-1E+10	1	-1E+10	1
4902624	31	C	04/27/2025	01:38	-127.234	48.555	0	1909.40	0	2.0296	0	34.5908	0	27.652	0	1884.673	0	99.7	4	30.1	4	-1E+10	1	0.0584	4	0.000141	0	-1E+10	1	-1E+10	1	-1E+10	1
4902624	31	C	04/27/2025	01:38	-127.234	48.555	0	1925.00	0	2.0120	0	34.5930	0	27.655	0	1900.001	0	-1e10	1	-1e10	1	-1E+10	1	-1e10	1	-1e10	1	-1E+10	1	-1E+10	1	-1E+10	1
4902624	31	C	04/27/2025	01:38	-127.234	48.555	0	1925.90	0	2.0111	0	34.5931	0	27.655	0	1900.885	0	100.6	4	30.3	4	-1E+10	1	0.0581	4	0.000118	0	-1E+10	1	-1E+10	1	-1E+10	1
4902624	31	C	04/27/2025	01:38	-127.234	48.555	0	1943.10	0	1.9935	0	34.5954	0	27.658	0	1917.785	0	101.8	4	30.7	4	-1E+10	1	0.0438	4	0.000134	0	-1E+10	1	-1E+10	1	-1E+10	1
4902624	31	C	04/27/2025	01:38	-127.234	48.555	0	1960.90	0	1.9753	0	34.5977	0	27.662	0	1935.272	0	102.4	4	30.8	4	-1E+10	1	0.0442	4	0.000405	0	-1E+10	1	-1E+10	1	-1E+10	1
4902624	31	C	04/27/2025	01:38	-127.234	48.555	0	1963.10	0	1.9730	0	34.5980	0	27.662	0	1937.433	0	-1e10	1	-1e10	1	-1E+10	1	-1e10	1	-1e10	1	-1E+10	1	-1E+10	1	-1E+10	1
4902624	31	C	04/27/2025	01:38	-127.234	48.555	0	1975.80	0	-1e10	1	-1e10	1	-1e10	1	1949.909	0	105.1	4	-1e10	4	-1E+10	1	0.0657	4	0.000126	0	-1E+10	1	-1E+10	1	-1E+10	1
4902624	31	C	04/27/2025	01:38	-127.234	48.555	0																										
4902624	32	C	05/07/2025	20:37	-127.488	48.558	0	0.00	0	11.4188	8	31.7920	8	24.205	0	0.000	0	275.0	4	100.9	4	-1E+10	1	0.1168	4	0.000550	0	-1E+10	1	-1E+10	1	-1E+10	1
4902624	32	C	05/07/2025	20:37	-127.488	48.558	0	0.50	0	11.4880	8	31.7270	8	24.142	0	0.496	0	275.0	4	101.0	4	-1E+10	1	0.1835	4	0.001666	0	-1E+10	1	-1E+10	1	-1E+10	1
4902624	32	C	05/07/2025	20:37	-127.488	48.558	0	0.90	0	11.4831	8	31.7297	8	24.145	0	0.892	0	273.9	4	100.6	4	-1E+10	1	0.1752	4	0.001746	0	-1E+10	1	-1E+10	1	-1E+10	1
4902624	32	C	05/07/2025	20:37	-127.488	48.558	0	1.00	0	11.4819	8	31.7303	8	24.146	0	0.992	0	-1e10	1	-1e10	1	-1E+10	1	0.1752	4	0.001465	0	-1E+10	1	-1E+10	1	-1E+10	1
4902624	32	C	05/07/2025	20:37	-127.488	48.558	0	1.20	0	11.4794	8	31.7317	8	24.147	0	1.190	0	-1e10	1	-1e10	1	-1E+10	1	0.1533	4	0.001371	0	-1E+10	1	-1E+10	1	-1E+10	1
4902624	32	C	05/07/2025	20:37	-127.488	48.558	0	1.30	0	11.4782	8	31.7323	8	24.148	0	1.289	0	-1e10	1	-1e10	1	-1E+10	1	0.1898	4	0.001429	0	-1E+10	1	-1E+10	1	-1E+10	1
4902624	32	C	05/07/2025	20:37	-127.488	48.558	0	1.40	0	11.4770	0	31.7330	0	24.149	0	1.388	0	-1e10	1	-1e10	1	-1E+10	1	-1e10	1	-1e10	1	-1E+10	1	-1E+10	1	-1E+10	1
4902624	32	C	05/07/2025	20:37	-127.488	48.558	0	1.60	0	11.4763	0	31.7332	0	24.149	0	1.586	0	-1e10	1	-1e10	1	-1E+10	1	0.1752	4	0.002767	0	-1E+10	1	-1E+10	1	-1E+10	1
4902624	32	C	05/07/2025	20:37	-127.488	48.558	0	1.80	0	11.4755	0	31.7334	0	24.149	0	1.785	0	-1e10	1	-1e10	1	-1E+10	1	0.1898	4	0.001547	0	-1E+10	1	-1E+10	1	-1E+10	1
4902624	32	C	05/07/2025	20:37	-127.488	48.558	0	1.90	0	11.4752	0	31.7335	0	24.149	0	1.884	0	-1e10	1	-1e10	1	-1E+10	1	0.1971	4	0.001582	0	-1E+10	1	-1E+10	1	-1E+10	1
4902624	32	C	05/07/2025	20:37	-127.488	48.558	0	2.00	0	11.4748	0	31.7335	0	24.149	0	1.983	0	-1e10	1	-1e10	1	-1E+10	1	0.2044	4	0.001500	0	-1E+10	1	-1E+10	1	-1E+10	1
4902624	32	C	05/07/2025	20:37	-127.488	48.558	0	2.20	0	11.4741	0	31.7337	0	24.150	0	2.181	0	-1e10	1	-1e10	1	-1E+10	1	0.1898	4	0.002039	0	-1E+10	1	-1E+10	1	-1E+10	1
4902624	32	C	05/07/2025	20:37	-127.488	48.558	0	2.40	0	11.4734	0	31.7339	0	24.150	0	2.380	0	273.7	4	100.5	4	-1E+10	1	0.2044	4	0.001500	0	-1E+10	1	-1E+10	1	-1E+10	1
4902624	32	C	05/07/2025	20:37	-127.488	48.558	0	2.50	0	11.4730	0	31.7340	0	24.150	0	2.479	0	-1e10	1	-1e10	1	-1E+10	1	0.2190	4	0.001347	0	-1E+10	1	-1E+10	1	-1E+10	1
4902624	32	C	05/07/2025	20:37	-127.488	48.558	0	2.80	0	11.4661	0	31.7352	0	24.152	0	2.776	0	-1e10	1	-1e10	1	-1E+10	1	0.2044	4	0.001371	0	-1E+10	1	-1E+10	1	-1E+10	1
4902624	32	C	05/07/2025	20:37	-127.488	48.558	0	2.90	0	11.4638	0	31.7356	0	24.153	0	2.875	0	273.5	4	100.4	4	-1E+10	1	0.1971	4	0.001629	0	-1E+10	1	-1E+10	1	-1E+10	1
4902624	32	C	05/07/2025	20:37	-127.488	48.558	0	3.10	0	11.4592	0	31.7364	0	24.155	0	3.074	0	-1e10	1	-1e10	1	-1E+10	1	0.2117	4	0.002297	0	-1E+10	1	-1E+10	1	-1E+10	1
4902624	32	C	05/07/2025	20:37	-127.488	48.558	0	3.30	0	11.4546	0	31.7372	0	24.156	0	3.272	0	-1e10	1	-1e10	1	-1E+10	1	0.2263	4	0.001816	0	-1E+10	1	-1E+10	1	-1E+10	1
4902624	32	C	05/07/2025	20:37	-127.488	48.558	0	3.50	0	11.4500	0	31.7380	0	24.157	0	3.470	0	-1e10	1	-1e10	1	-1E+10	1	0.2336	4	0.001805	0	-1E+10	1	-1E+10	1	-1E+10	1
4902624	32	C	05/07/2025	20:37	-127.488	48.558	0	3.60	0	11.4485	0	31.7375	0	24.157	0	3.570	0	-1e10	1	-1e10	1	-1E+10	1	0.2263	4	0.001547	0	-1E+10	1	-1E+10	1	-1E+10	1
4902624	32	C	05/07/2025	20:37	-127.488	48.558	0	3.80	0	11.4455	0	31.7365	0	24.157	0	3.768	0	273.6	4	100.4	4	-1E+10	1	0.2336	4	0.001441	0	-1E+10	1	-1E+10	1	-1E+10	1
4902624	32	C	05/07/2025	20:37	-127.488	48.558	0	4.00	0	11.4425	0	31.7355	0	24.157	0	3.966	0	-1e10	1	-1e10	1	-1E+10	1	0.2044	4	0.001347	0	-1E+10	1	-1E+10	1	-1E+10	1
4902624	32	C	05/07/2025	20:37	-127.488	48.558	0	4.30	0	11.4380	0	31.7340	0	24.156	0	4.264	0	-1e10	1	-1e10	1	-1E+10	1	0.2482	4	0.001312	0	-1E+10	1	-1E+10	1	-1E+10	1
4902624	32	C	05/07/2025	20:37	-127.488	48.558	0	4.40	0	11.4365	0	31.7335	0	24.156	0	4.363	0	-1e10	1	-1e10	1	-1E+10	1	0.2701	4	0.001312	0	-1E+10	1	-1E+10	1	-1E+10	1
4902624	32	C	05/07/2025	20:37	-127.488	48.558	0	4.50	0	11.4350	0	31.7330	0	24.156	0	4.462	0	-1e10	1	-1e10	1	-1E+10	1	-1e10	1	-1e10	1	-1E+10	1	-1E+10	1	-1E+10	1
4902624	32	C	05/07/2025	20:37	-127.488	48.558	0	4.60	0	11.4350	0	31.7331	0	24.156	0	4.561	0	273.2	4	100.2	4	-1E+10	1	0.2263	4	0.001418	0	-1E+10	1	-1E+10	1	-1E+10	1
4902624	32	C	05/07/2025	20:37	-127.488	48.558	0	4.80	0	11.4350	0	31.7333	0	24.156	0	4.759	0	-1e10	1	-1e10	1	-1E+10	1	0.2336	4	0.001347	0	-1E+10	1	-1E+10	1	-1E+10	1
4902624	32	C	05/07/2025	20:37	-127.488	48.558	0	4.90	0	11.4350	0	31.7334	0	24.157	0	4.859	0	-1e10	1	-1e10	1	-1E+10	1	0.1971	4	0.001500	0	-1E+10	1	-1E+10	1	-1E+10	1
4902624	32	C	05/07/2025	20:37	-127.488	48.558	0	5.10	0	11.4350	0	31.7336	0	24.157	0	5.057	0	-1e10	1	-1e10	1	-1E+10	1	0.2409	4	0.001664	0	-1E+10	1	-1E+10	1	-1E+10	1
4902624	32	C	05/07/2025	20:37	-127.488	48.558	0	5.40	0	11.4350	0	31.7339	0	24.157	0	5.354	0	273.2	4	100.2	4	-1E+10	1	0.2300	4	0.001371	0	-1E+10	1	-1E+10	1	-1E+10	1
4902624	32	C	05/07/2025	20:37	-127.488	48.558	0	5.50	0	11.4350	0	31.7340	0	24.157	0	5.453	0	-1e10	1	-1e10	1	-1E+10	1	-1e10	1	-1e10	1	-1E+10	1	-1E+10	1	-1E+10	1
4902624	32	C	05/07/2025	20:37	-127.488	48.558	0	5.60	0	11.4350	0	31.7341	0	24.157	0	5.553	0	-1e10	1	-1e10	1	-1E+10	1	0.2482	4	0.001347	0	-1E+10	1	-1E+10	1	-1E+10	1
4902624	32	C	05/07/2025	20:37	-127.488	48.558	0	5.70	0	11.4350	0	31.7342	0	24.157	0	5.652	0	-1e10	1	-1e10	1	-1E+10	1	0.2263	4	0.001324	0	-1E+10	1	-1E+10	1	-1E+10	1
4902624	32	C	05/07/2025	20:37	-127.488	48.558	0	5.90	0	11.4350	0	31.7344	0	24.157	0	5.850	0	-1e10	1	-1e10	1	-1E+10	1	0.2409	4	0.001289	0	-1E+10	1	-1E+10	1	-1E+10	1
4902624	32	C	05/07/2025	20:37	-127.488	48.558	0	6.10	0	11.4350	0	31.7346	0	24.158	0	6.048	0	-1e10	1	-1e10	1	-1E+10	1	0.2409	4	0.001887	0	-1E+10	1	-1E+10	1	-1E+10	1
4902624	32	C	05/07/2025	20:37	-127.488	48.558	0	6.20	0	11.4350	0	31.7347	0	24.158	0	6.148	0	273.1	4	100.2	4	-1E+10	1	0.2555	4	0.002121	0	-1E+10	1	-1E+10	1	-1E+10	1
4902624	32	C	05/07/2025	20:37	-127.488	48.558	0	6.40	0	11.4350	0	31.7349	0	24.158	0	6.346	0	-1e10	1	-1e10	1	-1E+10	1	0.2482	4	0.001441	0	-1E+10	1	-1E+10	1	-1E+10	1
4902624	32	C	05/07/2025	20:37	-127.488	48.558	0	6.50	0	11.4350	0	31.7350	0	24.158	0	6.445	0	-1e10	1	-1e10	1	-1E+10	1	0.2263	4	0.001347	0	-1E+10	1	-1E+10	1	-1E+10	1
4902624	32	C	05/07/2025	20:37	-127.488	48.558	0	6.90	0	11.4328	0	31.7341	0	24.158	0	6.842	0	-1e10	1	-1e10	1	-1E+10	1	0.2336	4	0.001511	0	-1E+10	1	-1E+10	1	-1E+10	1
4902624	32	C	05/07/2025	20:37	-127.488	48.558	0	7.00	0	11.4322	0	31.7339	0	24.157	0	6.941	0	272.9	4	100.1	4	-1E+10	1	0.2482	4	0.001335	0	-1E+10	1	-1E+10	1	-1E+10	1
4902624	32	C	05/07/2025	20:37	-127.488	48.558	0	7.20	0	11.4311	0	31.7334	0	24.157	0	7.139	0	-1e10	1	-1e10	1	-1E+10	1	0.2920	4	0.001511	0	-1E+10	1	-1E+10	1	-1E+10	1
4902624	32	C	05/07/2025	20:37	-127.488	48.558	0	7.30	0	11.4306	0	31.7332	0	24.157	0	7.238	0	-1e10	1	-1e10	1	-1E+10	1	0.2993	4	0.006298	0	-1E+10	1	-1E+10	1	-1E+10	1
4902624	32	C	05/07/2025	20:37	-127.488	48.558	0	7.40	0	11.4300	0	31.7330	0	24.157	0	7.337	0	-1e10	1	-1e10	1	-1E+10	1	-1e10	1	-1e10	1	-1E+10	1	-1E+10	1	-1E+10	1
4902624	32	C	05/07/2025	20:37	-127.488	48.558	0	7.50	0	11.4273	0	31.7333	0	24.158	0	7.437	0	-1e10	1	-1e10	1	-1E+10	1	0.2847	4	0.001441	0	-1E+10	1	-1E+10	1	-1E+10	1
4902624	32	C	05/07/2025	20:37	-127.488	48.558	0	7.70	0	11.4219	0	31.7339	0	24.159	0	7.635	0	-1e10	1	-1e10	1	-1E+10	1	0.2920	4	0.001523	0	-1E+10	1	-1E+10	1	-1E+10	1
4902624	32	C	05/07/2025	20:37	-127.488	48.558	0	7.80	0	11.4192	0	31.7342	0	24.160	0	7.734	0	272.8	4	100.0	4	-1E+10	1	0.2847	4	0.001371	0	-1E+10	1	-1E+10	1	-1E+10	1
4902624	32	C	05/07/2025	20:37	-127.488	48.558	0	8.00	0	11.4138	0	31.7348	0	24.162	0	7.932	0	-1e10	1	-1e10	1	-1E+10	1	0.2847	4	0.001359	0	-1E+10	1	-1E+10	1	-1E+10	1
4902624	32	C	05/07/2025	20:37	-127.488	48.558	0	8.30	0	11.4057	0	31.7357	0	24.164	0	8.230	0	-1e10	1	-1e10	1	-1E+10	1	0.3139	4	0.001535	0	-1E+10	1	-1E+10	1	-1E+10	1
4902624	32	C	05/07/2025	20:37	-127.488	48.558	0	8.40	0	11.4030	0	31.7360	0	24.164	0	8.329	0	-1e10	1	-1e10	1	-1E+10	1	-1e10	1	-1e10	1	-1E+10	1	-1E+10	1	-1E+10	1
4902624	32	C	05/07/2025	20:37	-127.488	48.558	0	8.50	0	11.4000	0	31.7360	0	24.165	0	8.428	0	-1e10	1	-1e10	1	-1E+10	1	0.3066	4	0.001418	0	-1E+10	1	-1E+10	1	-1E+10	1
4902624	32	C	05/07/2025	20:37	-127.488	48.558	0	8.70	0	11.3940	0	31.7360	0	24.166	0	8.626	0	272.6	4	99.9	4	-1E+10	1	0.3066	4	0.001629	0	-1E+10	1	-1E+10	1	-1E+10	1
4902624	32	C	05/07/2025	20:37	-127.488	48.558	0	8.80	0	11.3910	0	31.7360	0	24.167	0	8.726	0	-1e10	1	-1e10	1	-1E+10	1	0.3431	4	0.001429	0	-1E+10	1	-1E+10	1	-1E+10	1
4902624	32	C	05/07/2025	20:37	-127.488	48.558	0	9.00	0	11.3850	0	31.7360	0	24.168	0	8.924	0	-1e10	1	-1e10	1	-1E+10	1	0.3431	4	0.001429	0	-1E+10	1	-1E+10	1	-1E+10	1
4902624	32	C	05/07/2025	20:37	-127.488	48.558	0	9.20	0	11.3790	0	31.7360	0	24.169	0	9.122	0	-1e10	1	-1e10	1	-1E+10	1	0.3431	4	0.001582	0	-1E+10	1	-1E+10	1	-1E+10	1
4902624	32	C	05/07/2025	20:37	-127.488	48.558	0	9.40	0	11.3730	0	31.7360	0	24.170	0	9.320	0	-1e10	1	-1e10	1	-1E+10	1	-1e10	1	-1e10	1	-1E+10	1	-1E+10	1	-1E+10	1
4902624	32	C	05/07/2025	20:37	-127.488	48.558	0	9.50	0	11.3726	0	31.7361	0	24.170	0	9.420	0	272.5	4	99.8	4	-1E+10	1	0.3686	4	0.001400	0	-1E+10	1	-1E+10	1	-1E+10	1
4902624	32	C	05/07/2025	20:37	-127.488	48.558	0	9.70	0	11.3719	0	31.7362	0	24.170	0	9.618	0	-1e10	1	-1e10	1	-1E+10	1	0.3577	4	0.001394	0	-1E+10	1	-1E+10	1	-1E+10	1
4902624	32	C	05/07/2025	20:37	-127.488	48.558	0	10.30	0	11.3696	0	31.7366	0	24.171	0	10.213	0	272.3	4	99.7	4	-1E+10	1	0.3613	4	0.001394	0	-1E+10	1	-1E+10	1	-1E+10	1
4902624	32	C	05/07/2025	20:37	-127.488	48.558	0	11.00	0	11.3670	0	31.7370	0	24.172	0	10.907	0	-1e10	1	-1e10	1	-1E+10	1	-1e10	1	-1e10	1	-1E+10	1	-1E+10	1	-1E+10	1
4902624	32	C	05/07/2025	20:37	-127.488	48.558	0	11.20	0	11.3623	0	31.7371	0	24.173	0	11.105	0	272.1	4	99.6	4	-1E+10	1	0.4125	4	0.001418	0	-1E+10	1	-1E+10	1	-1E+10	1
4902624	32	C	05/07/2025	20:37	-127.488	48.558	0	12.00	0	11.3435	0	31.7375	0	24.176	0	11.898	0	271.9	4	99.5	4	-1E+10	1	0.4424	4	0.001470	0	-1E+10	1	-1E+10	1	-1E+10	1
4902624	32	C	05/07/2025	20:37	-127.488	48.558	0	12.90	0	11.3223	0	31.7380	0	24.180	0	12.791	0	271.7	4	99.4	4	-1E+10	1	0.4769	4	0.001488	0	-1E+10	1	-1E+10	1	-1E+10	1
4902624	32	C	05/07/2025	20:37	-127.488	48.558	0	13.00	0	11.3200	0	31.7380	0	24.181	0	12.890	0	-1e10	1	-1e10	1	-1E+10	1	-1e10	1	-1e10	1	-1E+10	1	-1E+10	1	-1E+10	1
4902624	32	C	05/07/2025	20:37	-127.488	48.558	0	13.80	0	11.2972	0	31.7400	0	24.186	0	13.683	0	271.3	4	99.2	4	-1E+10	1	0.5621	4	0.001438	0	-1E+10	1	-1E+10	1	-1E+10	1
4902624	32	C	05/07/2025	20:37	-127.488	48.558	0	14.70	0	11.2715	0	31.7423	0	24.193	0	14.575	0	271.0	4	99.1	4	-1E+10	1	0.5621	4	0.001582	0	-1E+10	1	-1E+10	1	-1E+10	1
4902624	32	C	05/07/2025	20:37	-127.488	48.558	0	15.00	0	11.2630	0	31.7430	0	24.195	0	14.873	0	-1e10	1	-1e10	1	-1E+10	1	-1e10	1	-1e10	1	-1E+10	1	-1E+10	1	-1E+10	1
4902624	32	C	05/07/2025	20:37	-127.488	48.558	0	15.60	0	11.2522	0	31.7421	0	24.196	0	15.468	0	270.5	4	98.8	4	-1E+10	1	0.6132	4	0.001781	0	-1E+10	1	-1E+10	1	-1E+10	1
4902624	32	C	05/07/2025	20:37	-127.488	48.558	0	16.40	0	11.2378	0	31.7409	0	24.198	0	16.261	0	269.9	4	98.6	4	-1E+10	1	0.7373	4	0.001640	0	-1E+10	1	-1E+10	1	-1E+10	1
4902624	32	C	05/07/2025	20:37	-127.488	48.558	0	17.00	0	11.2270	0	31.7400	0	24.199	0	16.856	0	-1e10	1	-1e10	1	-1E+10	1	-1e10	1	-1e10	1	-1E+10	1	-1E+10	1	-1E+10	1
4902624	32	C	05/07/2025	20:37	-127.488	48.558	0	17.30	0	11.2240	0	31.7398	0	24.199	0	17.153	0	269.2	4	98.3	4	-1E+10	1	0.7492	4	0.001756	0	-1E+10	1	-1E+10	1	-1E+10	1
4902624	32	C	05/07/2025	20:37	-127.488	48.558	0	18.20	0	11.2150	0	31.7394	0	24.201	0	18.046	0	268.5	4	98.1	4	-1E+10	1	0.7723	4	0.001576	0	-1E+10	1	-1E+10	1	-1E+10	1
4902624	32	C	05/07/2025	20:37	-127.488	48.558	0	19.00	0	11.2070	0	31.7390	0	24.202	0	18.839	0	267.9	4	97.8	4	-1E+10	1	0.7243	4	0.001429	0	-1E+10	1	-1E+10	1	-1E+10	1
4902624	32	C	05/07/2025	20:37	-127.488	48.558	0	19.80	0	11.1969	0	31.7390	0	24.204	0	19.632	0	267.1	4	97.5	4	-1E+10	1	0.7925	4	0.001481	0	-1E+10	1	-1E+10	1	-1E+10	1
4902624	32	C	05/07/2025	20:37	-127.488	48.558	0	20.70	0	11.1855	0	31.7390	0	24.206	0	20.524	0	266.3	4	97.2	4	-1E+10	1	0.8906	4	0.001563	0	-1E+10	1	-1E+10	1	-1E+10	1
4902624	32	C	05/07/2025	20:37	-127.488	48.558	0	20.90	0	11.1830	0	31.7390	0	24.206	0	20.723	0	-1e10	1	-1e10	1	-1E+10	1	-1e10	1	-1e10	1	-1E+10	1	-1E+10	1	-1E+10	1
4902624	32	C	05/07/2025	20:37	-127.488	48.558	0	21.50	0	11.1461	0	31.7530	0	24.223	0	21.317	0	265.6	4	96.8	4	-1E+10	1	0.8038	4	0.001442	0	-1E+10	1	-1E+10	1	-1E+10	1
4902624	32	C	05/07/2025	20:37	-127.488	48.558	0	22.40	0	11.0909	0	31.7740	0	24.249	0	22.210	0	264.7	4	96.4	4	-1E+10	1	0.7422	4	0.001273	0	-1E+10	1	-1E+10	1	-1E+10	1
4902624	32	C	05/07/2025	20:37	-127.488	48.558	0	23.00	0	11.0540	0	31.7880	0	24.267	0	22.805	0	-1e10	1	-1e10	1	-1E+10	1	-1e10	1	-1e10	1	-1E+10	1	-1E+10	1	-1E+10	1
4902624	32	C	05/07/2025	20:37	-127.488	48.558	0	23.40	0	11.0092	0	31.8080	0	24.290	0	23.201	0	263.7	4	95.9	4	-1E+10	1	0.8030	4	0.001429	0	-1E+10	1	-1E+10	1	-1E+10	1
4902624	32	C	05/07/2025	20:37	-127.488	48.558	0	24.40	0	10.8971	0	31.8580	0	24.349	0	24.193	0	262.2	4	95.2	4	-1E+10	1	0.8163	4	0.001088	0	-1E+10	1	-1E+10	1	-1E+10	1
4902624	32	C	05/07/2025	20:37	-127.488	48.558	0	24.90	0	10.8410	0	31.8830	0	24.378	0	24.688	0	-1e10	1	-1e10	1	-1E+10	1	-1e10	1	-1e10	1	-1E+10	1	-1E+10	1	-1E+10	1
4902624	32	C	05/07/2025	20:37	-127.488	48.558	0	25.40	0	10.7965	0	31.9025	0	24.401	0	25.184	0	260.5	4	94.4	4	-1E+10	1	1.3850	4	0.001188	0	-1E+10	1	-1E+10	1	-1E+10	1
4902624	32	C	05/07/2025	20:37	-127.488	48.558	0	26.50	0	10.6985	0	31.9455	0	24.451	0	26.275	0	259.2	4	93.7	4	-1E+10	1	2.5623	4	0.002019	0	-1E+10	1	-1E+10	1	-1E+10	1
4902624	32	C	05/07/2025	20:37	-127.488	48.558	0	27.00	0	10.6540	0	31.9650	0	24.474	0	26.770	0	-1e10	1	-1e10	1	-1E+10	1	-1e10	1	-1e10	1	-1E+10	1	-1E+10	1	-1E+10	1
4902624	32	C	05/07/2025	20:37	-127.488	48.558	0	27.50	0	10.6485	0	31.9767	0	24.484	0	27.266	0	258.0	4	93.2	4	-1E+10	1	2.6791	4	0.001851	0	-1E+10	1	-1E+10	1	-1E+10	1
4902624	32	C	05/07/2025	20:37	-127.488	48.558	0	28.60	0	10.6365	0	32.0023	0	24.506	0	28.357	0	256.5	4	92.7	4	-1E+10	1	2.3632	4	0.001413	0	-1E+10	1	-1E+10	1	-1E+10	1
4902624	32	C	05/07/2025	20:37	-127.488	48.558	0	29.10	0	10.6310	0	32.0140	0	24.516	0	28.852	0	-1e10	1	-1e10	1	-1E+10	1	-1e10	1	-1e10	1	-1E+10	1	-1E+10	1	-1E+10	1
4902624	32	C	05/07/2025	20:37	-127.488	48.558	0	29.80	0	10.6208	0	32.0168	0	24.520	0	29.546	0	254.8	4	92.0	4	-1E+10	1	2.7779	4	0.001293	0	-1E+10	1	-1E+10	1	-1E+10	1
4902624	32	C	05/07/2025	20:37	-127.488	48.558	0	30.90	0	10.6049	0	32.0212	0	24.526	0	30.637	0	252.7	4	91.3	4	-1E+10	1	3.3465	4	0.001200	0	-1E+10	1	-1E+10	1	-1E+10	1
4902624	32	C	05/07/2025	20:37	-127.488	48.558	0	31.10	0	10.6020	0	32.0220	0	24.527	0	30.835	0	-1e10	1	-1e10	1	-1E+10	1	-1e10	1	-1e10	1	-1E+10	1	-1E+10	1	-1E+10	1
4902624	32	C	05/07/2025	20:37	-127.488	48.558	0	32.00	0	10.5546	0	32.0282	0	24.540	0	31.727	0	250.9	4	90.5	4	-1E+10	1	2.1535	4	0.001523	0	-1E+10	1	-1E+10	1	-1E+10	1
4902624	32	C	05/07/2025	20:37	-127.488	48.558	0	33.00	0	10.5020	0	32.0350	0	24.555	0	32.719	0	-1e10	1	-1e10	1	-1E+10	1	-1e10	1	-1e10	1	-1E+10	1	-1E+10	1	-1E+10	1
4902624	32	C	05/07/2025	20:37	-127.488	48.558	0	33.10	0	10.4962	0	32.0365	0	24.557	0	32.818	0	249.0	4	89.7	4	-1E+10	1	2.4309	4	0.001042	0	-1E+10	1	-1E+10	1	-1E+10	1
4902624	32	C	05/07/2025	20:37	-127.488	48.558	0	34.30	0	10.4266	0	32.0552	0	24.583	0	34.008	0	246.7	4	88.8	4	-1E+10	1	2.5373	4	0.001082	0	-1E+10	1	-1E+10	1	-1E+10	1
4902624	32	C	05/07/2025	20:37	-127.488	48.558	0	35.00	0	10.3860	0	32.0660	0	24.598	0	34.702	0	-1e10	1	-1e10	1	-1E+10	1	-1e10	1	-1e10	1	-1E+10	1	-1E+10	1	-1E+10	1
4902624	32	C	05/07/2025	20:37	-127.488	48.558	0	35.30	0	10.3582	0	32.0720	0	24.608	0	34.999	0	244.3	4	87.8	4	-1E+10	1	2.5112	4	0.001245	0	-1E+10	1	-1E+10	1	-1E+10	1
4902624	32	C	05/07/2025	20:37	-127.488	48.558	0	36.30	0	10.2657	0	32.0920	0	24.639	0	35.990	0	242.7	4	87.0	4	-1E+10	1	2.4849	4	0.001408	0	-1E+10	1	-1E+10	1	-1E+10	1
4902624	32	C	05/07/2025	20:37	-127.488	48.558	0	37.00	0	10.2010	0	32.1060	0	24.661	0	36.684	0	-1e10	1	-1e10	1	-1E+10	1	-1e10	1	-1e10	1	-1E+10	1	-1E+10	1	-1E+10	1
4902624	32	C	05/07/2025	20:37	-127.488	48.558	0	37.10	0	10.1942	0	32.1063	0	24.662	0	36.783	0	242.0	4	86.7	4	-1E+10	1	2.7740	4	0.001171	0	-1E+10	1	-1E+10	1	-1E+10	1
4902624	32	C	05/07/2025	20:37	-127.488	48.558	0	37.80	0	10.1466	0	32.1084	0	24.672	0	37.477	0	241.1	4	86.3	4	-1E+10	1	2.8963	4	0.000864	0	-1E+10	1	-1E+10	1	-1E+10	1
4902624	32	C	05/07/2025	20:37	-127.488	48.558	0	38.40	0	10.1058	0	32.1102	0	24.680	0	38.072	0	240.4	4	85.9	4	-1E+10	1	2.8199	4	0.000841	0	-1E+10	1	-1E+10	1	-1E+10	1
4902624	32	C	05/07/2025	20:37	-127.488	48.558	0	39.00	0	10.0650	0	32.1120	0	24.688	0	38.667	0	-1e10	1	-1e10	1	-1E+10	1	-1e10	1	-1e10	1	-1E+10	1	-1E+10	1	-1E+10	1
4902624	32	C	05/07/2025	20:37	-127.488	48.558	0	39.10	0	10.0571	0	32.1147	0	24.691	0	38.766	0	239.6	4	85.6	4	-1E+10	1	3.8170	4	0.000885	0	-1E+10	1	-1E+10	1	-1E+10	1
4902624	32	C	05/07/2025	20:37	-127.488	48.558	0	39.80	0	10.0022	0	32.1340	0	24.716	0	39.460	0	238.9	4	85.2	4	-1E+10	1	2.1243	4	0.001277	0	-1E+10	1	-1E+10	1	-1E+10	1
4902624	32	C	05/07/2025	20:37	-127.488	48.558	0	40.60	0	9.9394	0	32.1560	0	24.743	0	40.253	0	238.4	4	84.9	4	-1E+10	1	2.0951	4	0.000976	0	-1E+10	1	-1E+10	1	-1E+10	1
4902624	32	C	05/07/2025	20:37	-127.488	48.558	0	41.00	0	9.9080	0	32.1670	0	24.757	0	40.650	0	-1e10	1	-1e10	1	-1E+10	1	-1e10	1	-1e10	1	-1E+10	1	-1E+10	1	-1E+10	1
4902624	32	C	05/07/2025	20:37	-127.488	48.558	0	41.40	0	9.9010	0	32.1788	0	24.767	0	41.046	0	237.7	4	84.6	4	-1E+10	1	1.5294	4	0.001024	0	-1E+10	1	-1E+10	1	-1E+10	1
4902624	32	C	05/07/2025	20:37	-127.488	48.558	0	42.30	0	9.8853	0	32.2054	0	24.791	0	41.939	0	236.9	4	84.4	4	-1E+10	1	1.4250	4	0.001000	0	-1E+10	1	-1E+10	1	-1E+10	1
4902624	32	C	05/07/2025	20:37	-127.488	48.558	0	43.00	0	9.8730	0	32.2260	0	24.809	0	42.633	0	-1e10	1	-1e10	1	-1E+10	1	-1e10	1	-1e10	1	-1E+10	1	-1E+10	1	-1E+10	1
4902624	32	C	05/07/2025	20:37	-127.488	48.558	0	43.10	0	9.8681	0	32.2277	0	24.811	0	42.732	0	236.0	4	84.0	4	-1E+10	1	1.7398	4	0.000952	0	-1E+10	1	-1E+10	1	-1E+10	1
4902624	32	C	05/07/2025	20:37	-127.488	48.558	0	44.00	0	9.8235	0	32.2425	0	24.830	0	43.624	0	235.4	4	83.7	4	-1E+10	1	1.8633	4	0.002527	0	-1E+10	1	-1E+10	1	-1E+10	1
4902624	32	C	05/07/2025	20:37	-127.488	48.558	0	44.80	0	9.7839	0	32.2557	0	24.846	0	44.417	0	235.0	4	83.5	4	-1E+10	1	1.4613	4	0.002245	0	-1E+10	1	-1E+10	1	-1E+10	1
4902624	32	C	05/07/2025	20:37	-127.488	48.558	0	45.00	0	9.7740	0	32.2590	0	24.851	0	44.615	0	-1e10	1	-1e10	1	-1E+10	1	-1e10	1	-1e10	1	-1E+10	1	-1E+10	1	-1E+10	1
4902624	32	C	05/07/2025	20:37	-127.488	48.558	0	45.70	0	9.7405	0	32.2664	0	24.862	0	45.309	0	234.1	4	83.1	4	-1E+10	1	1.3600	4	0.000746	0	-1E+10	1	-1E+10	1	-1E+10	1
4902624	32	C	05/07/2025	20:37	-127.488	48.558	0	46.60	0	9.6974	0	32.2758	0	24.876	0	46.201	0	233.6	4	82.9	4	-1E+10	1	1.7398	4	0.000713	0	-1E+10	1	-1E+10	1	-1E+10	1
4902624	32	C	05/07/2025	20:37	-127.488	48.558	0	46.90	0	9.6830	0	32.2790	0	24.881	0	46.499	0	-1e10	1	-1e10	1	-1E+10	1	-1e10	1	-1e10	1	-1E+10	1	-1E+10	1	-1E+10	1
4902624	32	C	05/07/2025	20:37	-127.488	48.558	0	47.50	0	9.6564	0	32.2827	0	24.888	0	47.094	0	233.1	4	82.6	4	-1E+10	1	0.5648	4	0.000690	0	-1E+10	1	-1E+10	1	-1E+10	1
4902624	32	C	05/07/2025	20:37	-127.488	48.558	0	48.40	0	9.6166	0	32.2883	0	24.899	0	47.986	0	232.8	4	82.4	4	-1E+10	1	0.6424	4	0.000584	0	-1E+10	1	-1E+10	1	-1E+10	1
4902624	32	C	05/07/2025	20:37	-127.488	48.558	0	49.00	0	9.5900	0	32.2920	0	24.906	0	48.581	0	-1e10	1	-1e10	1	-1E+10	1	-1e10	1	-1e10	1	-1E+10	1	-1E+10	1	-1E+10	1
4902624	32	C	05/07/2025	20:37	-127.488	48.558	0	49.30	0	9.5960	0	32.2947	0	24.907	0	48.878	0	232.5	4	82.3	4	-1E+10	1	0.4931	4	0.000594	0	-1E+10	1	-1E+10	1	-1E+10	1
4902624	32	C	05/07/2025	20:37	-127.488	48.558	0	50.20	0	9.6140	0	32.3028	0	24.911	0	49.770	0	231.9	4	82.1	4	-1E+10	1	0.4599	4	0.001764	0	-1E+10	1	-1E+10	1	-1E+10	1
4902624	32	C	05/07/2025	20:37	-127.488	48.558	0	51.00	0	9.6300	0	32.3100	0	24.914	0	50.563	0	-1e10	1	-1e10	1	-1E+10	1	-1e10	1	-1e10	1	-1E+10	1	-1E+10	1	-1E+10	1
4902624	32	C	05/07/2025	20:37	-127.488	48.558	0	51.10	0	9.6288	0	32.3108	0	24.915	0	50.662	0	230.5	4	81.7	4	-1E+10	1	0.4878	4	0.001164	0	-1E+10	1	-1E+10	1	-1E+10	1
4902624	32	C	05/07/2025	20:37	-127.488	48.558	0	52.00	0	9.6185	0	32.3175	0	24.922	0	51.555	0	229.0	4	81.1	4	-1E+10	1	0.6364	4	0.000615	0	-1E+10	1	-1E+10	1	-1E+10	1
4902624	32	C	05/07/2025	20:37	-127.488	48.558	0	53.00	0	9.6070	0	32.3250	0	24.929	0	52.546	0	226.0	4	80.0	4	-1E+10	1	0.6335	4	0.000586	0	-1E+10	1	-1E+10	1	-1E+10	1
4902624	32	C	05/07/2025	20:37	-127.488	48.558	0	53.90	0	9.5830	0	32.3289	0	24.936	0	53.438	0	225.8	4	79.9	4	-1E+10	1	0.4174	4	0.000641	0	-1E+10	1	-1E+10	1	-1E+10	1
4902624	32	C	05/07/2025	20:37	-127.488	48.558	0	54.80	0	9.5590	0	32.3327	0	24.943	0	54.330	0	224.2	4	79.3	4	-1E+10	1	0.5959	4	0.000750	0	-1E+10	1	-1E+10	1	-1E+10	1
4902624	32	C	05/07/2025	20:37	-127.488	48.558	0	55.10	0	9.5510	0	32.3340	0	24.945	0	54.628	0	-1e10	1	-1e10	1	-1E+10	1	-1e10	1	-1e10	1	-1E+10	1	-1E+10	1	-1E+10	1
4902624	32	C	05/07/2025	20:37	-127.488	48.558	0	55.70	0	9.5240	0	32.3325	0	24.949	0	55.222	0	222.6	4	78.7	4	-1E+10	1	1.5038	4	0.000702	0	-1E+10	1	-1E+10	1	-1E+10	1
4902624	32	C	05/07/2025	20:37	-127.488	48.558	0	56.70	0	9.4790	0	32.3300	0	24.954	0	56.214	0	221.5	4	78.2	4	-1E+10	1	0.4015	4	0.000655	0	-1E+10	1	-1E+10	1	-1E+10	1
4902624	32	C	05/07/2025	20:37	-127.488	48.558	0	57.10	0	9.4610	0	32.3290	0	24.956	0	56.610	0	-1e10	1	-1e10	1	-1E+10	1	-1e10	1	-1e10	1	-1E+10	1	-1E+10	1	-1E+10	1
4902624	32	C	05/07/2025	20:37	-127.488	48.558	0	57.60	0	9.4520	0	32.3330	0	24.961	0	57.106	0	220.4	4	77.8	4	-1E+10	1	0.3418	4	0.000607	0	-1E+10	1	-1E+10	1	-1E+10	1
4902624	32	C	05/07/2025	20:37	-127.488	48.558	0	58.50	0	9.4358	0	32.3402	0	24.969	0	57.998	0	219.0	4	77.3	4	-1E+10	1	0.3053	4	0.000671	0	-1E+10	1	-1E+10	1	-1E+10	1
4902624	32	C	05/07/2025	20:37	-127.488	48.558	0	59.10	0	9.4250	0	32.3450	0	24.974	0	58.593	0	-1e10	1	-1e10	1	-1E+10	1	-1e10	1	-1e10	1	-1E+10	1	-1E+10	1	-1E+10	1
4902624	32	C	05/07/2025	20:37	-127.488	48.558	0	59.40	0	9.4225	0	32.3524	0	24.980	0	58.890	0	218.0	4	76.9	4	-1E+10	1	0.2717	4	0.000850	0	-1E+10	1	-1E+10	1	-1E+10	1
4902624	32	C	05/07/2025	20:37	-127.488	48.558	0	60.40	0	9.4139	0	32.3769	0	25.001	0	59.881	0	216.5	4	76.4	4	-1E+10	1	0.2628	4	0.000784	0	-1E+10	1	-1E+10	1	-1E+10	1
4902624	32	C	05/07/2025	20:37	-127.488	48.558	0	61.10	0	9.4080	0	32.3940	0	25.015	0	60.575	0	-1e10	1	-1e10	1	-1E+10	1	-1e10	1	-1e10	1	-1E+10	1	-1E+10	1	-1E+10	1
4902624	32	C	05/07/2025	20:37	-127.488	48.558	0	61.40	0	9.3982	0	32.3982	0	25.020	0	60.873	0	214.8	4	75.8	4	-1E+10	1	0.2506	4	0.000588	0	-1E+10	1	-1E+10	1	-1E+10	1
4902624	32	C	05/07/2025	20:37	-127.488	48.558	0	62.40	0	9.3658	0	32.4122	0	25.036	0	61.864	0	213.6	4	75.3	4	-1E+10	1	0.2073	4	0.000554	0	-1E+10	1	-1E+10	1	-1E+10	1
4902624	32	C	05/07/2025	20:37	-127.488	48.558	0	63.10	0	9.3430	0	32.4220	0	25.048	0	62.558	0	-1e10	1	-1e10	1	-1E+10	1	-1e10	1	-1e10	1	-1E+10	1	-1E+10	1	-1E+10	1
4902624	32	C	05/07/2025	20:37	-127.488	48.558	0	63.40	0	9.3450	0	32.4283	0	25.052	0	62.855	0	212.1	4	74.8	4	-1E+10	1	0.3893	4	0.000586	0	-1E+10	1	-1E+10	1	-1E+10	1
4902624	32	C	05/07/2025	20:37	-127.488	48.558	0	64.40	0	9.3514	0	32.4493	0	25.068	0	63.846	0	210.1	4	74.1	4	-1E+10	1	1.3870	4	0.000655	0	-1E+10	1	-1E+10	1	-1E+10	1
4902624	32	C	05/07/2025	20:37	-127.488	48.558	0	65.10	0	9.3560	0	32.4640	0	25.078	0	64.540	0	-1e10	1	-1e10	1	-1E+10	1	-1e10	1	-1e10	1	-1E+10	1	-1E+10	1	-1E+10	1
4902624	32	C	05/07/2025	20:37	-127.488	48.558	0	65.40	0	9.3557	0	32.4714	0	25.084	0	64.838	0	207.9	4	73.3	4	-1E+10	1	0.3711	4	0.000557	0	-1E+10	1	-1E+10	1	-1E+10	1
4902624	32	C	05/07/2025	20:37	-127.488	48.558	0	66.40	0	9.3546	0	32.4962	0	25.104	0	65.829	0	205.7	4	72.5	4	-1E+10	1	0.1737	4	0.000500	0	-1E+10	1	-1E+10	1	-1E+10	1
4902624	32	C	05/07/2025	20:37	-127.488	48.558	0	67.00	0	9.3540	0	32.5110	0	25.115	0	66.424	0	-1e10	1	-1e10	1	-1E+10	1	-1e10	1	-1e10	1	-1E+10	1	-1E+10	1	-1E+10	1
4902624	32	C	05/07/2025	20:37	-127.488	48.558	0	67.30	0	9.3426	0	32.5177	0	25.122	0	66.721	0	203.6	4	71.8	4	-1E+10	1	0.1520	4	0.000520	0	-1E+10	1	-1E+10	1	-1E+10	1
4902624	32	C	05/07/2025	20:37	-127.488	48.558	0	68.10	0	9.3121	0	32.5356	0	25.141	0	67.514	0	201.5	4	71.0	4	-1E+10	1	0.1569	4	0.000561	0	-1E+10	1	-1E+10	1	-1E+10	1
4902624	32	C	05/07/2025	20:37	-127.488	48.558	0	68.80	0	9.2854	0	32.5513	0	25.158	0	68.208	0	199.9	4	70.4	4	-1E+10	1	0.1664	4	0.000549	0	-1E+10	1	-1E+10	1	-1E+10	1
4902624	32	C	05/07/2025	20:37	-127.488	48.558	0	69.10	0	9.2740	0	32.5580	0	25.165	0	68.505	0	-1e10	1	-1e10	1	-1E+10	1	-1e10	1	-1e10	1	-1E+10	1	-1E+10	1	-1E+10	1
4902624	32	C	05/07/2025	20:37	-127.488	48.558	0	69.20	0	9.2706	0	32.5593	0	25.166	0	68.604	0	198.3	4	69.8	4	-1E+10	1	0.1582	4	0.000518	0	-1E+10	1	-1E+10	1	-1E+10	1
4902624	32	C	05/07/2025	20:37	-127.488	48.558	0	69.70	0	9.2539	0	32.5661	0	25.174	0	69.100	0	196.3	4	69.1	4	-1E+10	1	0.1521	4	0.000512	0	-1E+10	1	-1E+10	1	-1E+10	1
4902624	32	C	05/07/2025	20:37	-127.488	48.558	0	70.20	0	9.2372	0	32.5728	0	25.182	0	69.596	0	194.1	4	68.3	4	-1E+10	1	0.1460	4	0.000561	0	-1E+10	1	-1E+10	1	-1E+10	1
4902624	32	C	05/07/2025	20:37	-127.488	48.558	0	70.60	0	9.2238	0	32.5782	0	25.189	0	69.992	0	191.8	4	67.5	4	-1E+10	1	0.1460	4	0.000643	0	-1E+10	1	-1E+10	1	-1E+10	1
4902624	32	C	05/07/2025	20:37	-127.488	48.558	0	71.10	0	9.2070	0	32.5850	0	25.197	0	70.488	0	187.8	4	66.1	4	-1E+10	1	0.6144	4	0.000701	0	-1E+10	1	-1E+10	1	-1E+10	1
4902624	32	C	05/07/2025	20:37	-127.488	48.558	0	71.60	0	9.1786	0	32.5955	0	25.209	0	70.983	0	187.2	4	65.8	4	-1E+10	1	0.3236	4	0.000572	0	-1E+10	1	-1E+10	1	-1E+10	1
4902624	32	C	05/07/2025	20:37	-127.488	48.558	0	72.10	0	9.1502	0	32.6061	0	25.222	0	71.479	0	184.8	4	64.9	4	-1E+10	1	0.1489	4	0.000509	0	-1E+10	1	-1E+10	1	-1E+10	1
4902624	32	C	05/07/2025	20:37	-127.488	48.558	0	72.60	0	9.1217	0	32.6166	0	25.235	0	71.974	0	181.9	4	63.9	4	-1E+10	1	0.1606	4	0.000473	0	-1E+10	1	-1E+10	1	-1E+10	1
4902624	32	C	05/07/2025	20:37	-127.488	48.558	0	73.00	0	9.0990	0	32.6250	0	25.245	0	72.371	0	-1e10	1	-1e10	1	-1E+10	1	-1e10	1	-1e10	1	-1E+10	1	-1E+10	1	-1E+10	1
4902624	32	C	05/07/2025	20:37	-127.488	48.558	0	73.10	0	9.0945	0	32.6311	0	25.250	0	72.470	0	178.6	4	62.7	4	-1E+10	1	0.1606	4	0.000462	0	-1E+10	1	-1E+10	1	-1E+10	1
4902624	32	C	05/07/2025	20:37	-127.488	48.558	0	73.70	0	9.0673	0	32.6674	0	25.283	0	73.065	0	175.4	4	61.6	4	-1E+10	1	0.1569	4	0.000535	0	-1E+10	1	-1E+10	1	-1E+10	1
4902624	32	C	05/07/2025	20:37	-127.488	48.558	0	74.30	0	9.0402	0	32.7037	0	25.316	0	73.659	0	172.5	4	60.5	4	-1E+10	1	0.1335	4	0.000533	0	-1E+10	1	-1E+10	1	-1E+10	1
4902624	32	C	05/07/2025	20:37	-127.488	48.558	0	74.90	0	9.0130	0	32.7400	0	25.348	0	74.254	0	167.9	4	58.9	4	-1E+10	1	0.1022	4	0.000580	0	-1E+10	1	-1E+10	1	-1E+10	1
4902624	32	C	05/07/2025	20:37	-127.488	48.558	0	75.60	0	9.0143	0	32.7680	0	25.370	0	74.948	0	166.8	4	58.5	4	-1E+10	1	0.0958	4	0.000614	0	-1E+10	1	-1E+10	1	-1E+10	1
4902624	32	C	05/07/2025	20:37	-127.488	48.558	0	76.30	0	9.0157	0	32.7960	0	25.392	0	75.642	0	164.7	4	57.8	4	-1E+10	1	0.0886	4	0.000700	0	-1E+10	1	-1E+10	1	-1E+10	1
4902624	32	C	05/07/2025	20:37	-127.488	48.558	0	77.00	0	9.0170	0	32.8240	0	25.413	0	76.336	0	161.4	4	56.6	4	-1E+10	1	0.0876	4	0.000674	0	-1E+10	1	-1E+10	1	-1E+10	1
4902624	32	C	05/07/2025	20:37	-127.488	48.558	0	77.70	0	8.9923	0	32.8363	0	25.427	0	77.030	0	161.5	4	56.6	4	-1E+10	1	0.0908	4	0.000675	0	-1E+10	1	-1E+10	1	-1E+10	1
4902624	32	C	05/07/2025	20:37	-127.488	48.558	0	78.40	0	8.9677	0	32.8487	0	25.440	0	77.723	0	159.9	4	56.1	4	-1E+10	1	0.0928	4	0.000762	0	-1E+10	1	-1E+10	1	-1E+10	1
4902624	32	C	05/07/2025	20:37	-127.488	48.558	0	79.10	0	8.9430	0	32.8610	0	25.454	0	78.417	0	-1e10	1	-1e10	1	-1E+10	1	-1e10	1	-1e10	1	-1E+10	1	-1E+10	1	-1E+10	1
4902624	32	C	05/07/2025	20:37	-127.488	48.558	0	79.20	0	8.9390	0	32.8634	0	25.457	0	78.516	0	158.3	4	55.5	4	-1E+10	1	0.0827	4	0.000854	0	-1E+10	1	-1E+10	1	-1E+10	1
4902624	32	C	05/07/2025	20:37	-127.488	48.558	0	80.00	0	8.9070	0	32.8830	0	25.477	0	79.309	0	156.6	4	54.8	4	-1E+10	1	0.0746	4	0.000765	0	-1E+10	1	-1E+10	1	-1E+10	1
4902624	32	C	05/07/2025	20:37	-127.488	48.558	0	80.70	0	8.8790	0	32.9002	0	25.495	0	80.003	0	155.0	4	54.3	4	-1E+10	1	0.0803	4	0.000866	0	-1E+10	1	-1E+10	1	-1E+10	1
4902624	32	C	05/07/2025	20:37	-127.488	48.558	0	81.10	0	8.8630	0	32.9100	0	25.505	0	80.400	0	-1e10	1	-1e10	1	-1E+10	1	-1e10	1	-1e10	1	-1E+10	1	-1E+10	1	-1E+10	1
4902624	32	C	05/07/2025	20:37	-127.488	48.558	0	81.50	0	8.8522	0	32.9206	0	25.515	0	80.796	0	153.6	4	53.7	4	-1E+10	1	0.1022	4	0.000842	0	-1E+10	1	-1E+10	1	-1E+10	1
4902624	32	C	05/07/2025	20:37	-127.488	48.558	0	82.30	0	8.8306	0	32.9418	0	25.535	0	81.589	0	152.3	4	53.3	4	-1E+10	1	0.0847	4	0.000786	0	-1E+10	1	-1E+10	1	-1E+10	1
4902624	32	C	05/07/2025	20:37	-127.488	48.558	0	83.10	0	8.8090	0	32.9630	0	25.555	0	82.382	0	149.3	4	52.2	4	-1E+10	1	0.0891	4	0.000870	0	-1E+10	1	-1E+10	1	-1E+10	1
4902624	32	C	05/07/2025	20:37	-127.488	48.558	0	84.00	0	8.8038	0	32.9824	0	25.571	0	83.274	0	149.8	4	52.4	4	-1E+10	1	0.0949	4	0.000855	0	-1E+10	1	-1E+10	1	-1E+10	1
4902624	32	C	05/07/2025	20:37	-127.488	48.558	0	84.80	0	8.7992	0	32.9997	0	25.585	0	84.067	0	148.6	4	52.0	4	-1E+10	1	0.0949	4	0.000778	0	-1E+10	1	-1E+10	1	-1E+10	1
4902624	32	C	05/07/2025	20:37	-127.488	48.558	0	85.00	0	8.7980	0	33.0040	0	25.588	0	84.265	0	-1e10	1	-1e10	1	-1E+10	1	-1e10	1	-1e10	1	-1E+10	1	-1E+10	1	-1E+10	1
4902624	32	C	05/07/2025	20:37	-127.488	48.558	0	85.60	0	8.8043	0	33.0153	0	25.596	0	84.860	0	147.0	4	51.4	4	-1E+10	1	0.0922	4	0.000739	0	-1E+10	1	-1E+10	1	-1E+10	1
4902624	32	C	05/07/2025	20:37	-127.488	48.558	0	86.40	0	8.8128	0	33.0304	0	25.607	0	85.653	0	145.4	4	50.9	4	-1E+10	1	0.0845	4	0.000868	0	-1E+10	1	-1E+10	1	-1E+10	1
4902624	32	C	05/07/2025	20:37	-127.488	48.558	0	86.80	0	8.8170	0	33.0380	0	25.612	0	86.049	0	-1e10	1	-1e10	1	-1E+10	1	-1e10	1	-1e10	1	-1E+10	1	-1E+10	1	-1E+10	1
4902624	32	C	05/07/2025	20:37	-127.488	48.558	0	87.10	0	8.8151	0	33.0415	0	25.615	0	86.346	0	143.6	4	50.2	4	-1E+10	1	0.0827	4	0.000940	0	-1E+10	1	-1E+10	1	-1E+10	1
4902624	32	C	05/07/2025	20:37	-127.488	48.558	0	87.90	0	8.8100	0	33.0510	0	25.623	0	87.139	0	141.6	4	49.5	4	-1E+10	1	0.0876	4	0.000711	0	-1E+10	1	-1E+10	1	-1E+10	1
4902624	32	C	05/07/2025	20:37	-127.488	48.558	0	88.70	0	8.8049	0	33.0605	0	25.632	0	87.932	0	139.1	4	48.7	4	-1E+10	1	0.0876	4	0.000748	0	-1E+10	1	-1E+10	1	-1E+10	1
4902624	32	C	05/07/2025	20:37	-127.488	48.558	0	89.00	0	8.8030	0	33.0640	0	25.635	0	88.230	0	-1e10	1	-1e10	1	-1E+10	1	-1e10	1	-1e10	1	-1E+10	1	-1E+10	1	-1E+10	1
4902624	32	C	05/07/2025	20:37	-127.488	48.558	0	89.50	0	8.7750	0	33.0938	0	25.662	0	88.725	0	136.7	4	47.8	4	-1E+10	1	0.0803	4	0.000736	0	-1E+10	1	-1E+10	1	-1E+10	1
4902624	32	C	05/07/2025	20:37	-127.488	48.558	0	90.40	0	8.7246	0	33.1473	0	25.712	0	89.617	0	134.7	4	47.1	4	-1E+10	1	0.0803	4	0.000736	0	-1E+10	1	-1E+10	1	-1E+10	1
4902624	32	C	05/07/2025	20:37	-127.488	48.558	0	91.00	0	8.6910	0	33.1830	0	25.745	0	90.212	0	-1e10	1	-1e10	1	-1E+10	1	-1e10	1	-1e10	1	-1E+10	1	-1E+10	1	-1E+10	1
4902624	32	C	05/07/2025	20:37	-127.488	48.558	0	91.20	0	8.6849	0	33.1874	0	25.750	0	90.410	0	132.7	4	46.4	4	-1E+10	1	0.0803	4	0.000766	0	-1E+10	1	-1E+10	1	-1E+10	1
4902624	32	C	05/07/2025	20:37	-127.488	48.558	0	92.10	0	8.6575	0	33.2071	0	25.769	0	91.302	0	130.5	4	45.6	4	-1E+10	1	0.0681	4	0.000809	0	-1E+10	1	-1E+10	1	-1E+10	1
4902624	32	C	05/07/2025	20:37	-127.488	48.558	0	93.00	0	8.6300	0	33.2268	0	25.789	0	92.194	0	128.4	4	44.8	4	-1E+10	1	0.0650	4	0.000900	0	-1E+10	1	-1E+10	1	-1E+10	1
4902624	32	C	05/07/2025	20:37	-127.488	48.558	0	93.10	0	8.6270	0	33.2290	0	25.791	0	92.293	0	-1e10	1	-1e10	1	-1E+10	1	-1e10	1	-1e10	1	-1E+10	1	-1E+10	1	-1E+10	1
4902624	32	C	05/07/2025	20:37	-127.488	48.558	0	94.00	0	8.5995	0	33.2636	0	25.822	0	93.185	0	126.9	4	44.3	4	-1E+10	1	0.0703	4	0.000987	0	-1E+10	1	-1E+10	1	-1E+10	1
4902624	32	C	05/07/2025	20:37	-127.488	48.558	0	94.90	0	8.5721	0	33.2982	0	25.854	0	94.077	0	125.3	4	43.7	4	-1E+10	1	0.0686	4	0.000962	0	-1E+10	1	-1E+10	1	-1E+10	1
4902624	32	C	05/07/2025	20:37	-127.488	48.558	0	95.00	0	8.5690	0	33.3020	0	25.857	0	94.176	0	-1e10	1	-1e10	1	-1E+10	1	-1e10	1	-1e10	1	-1E+10	1	-1E+10	1	-1E+10	1
4902624	32	C	05/07/2025	20:37	-127.488	48.558	0	95.90	0	8.5623	0	33.3290	0	25.879	0	95.068	0	123.8	4	43.2	4	-1E+10	1	0.0791	4	0.000854	0	-1E+10	1	-1E+10	1	-1E+10	1
4902624	32	C	05/07/2025	20:37	-127.488	48.558	0	96.90	0	8.5547	0	33.3590	0	25.904	0	96.059	0	122.4	4	42.7	4	-1E+10	1	0.0730	4	0.000971	0	-1E+10	1	-1E+10	1	-1E+10	1
4902624	32	C	05/07/2025	20:37	-127.488	48.558	0	97.00	0	8.5540	0	33.3620	0	25.907	0	96.158	0	-1e10	1	-1e10	1	-1E+10	1	-1e10	1	-1e10	1	-1E+10	1	-1E+10	1	-1E+10	1
4902624	32	C	05/07/2025	20:37	-127.488	48.558	0	97.90	0	8.5589	0	33.3953	0	25.932	0	97.050	0	121.2	4	42.3	4	-1E+10	1	0.0730	4	0.000932	0	-1E+10	1	-1E+10	1	-1E+10	1
4902624	32	C	05/07/2025	20:37	-127.488	48.558	0	98.90	0	8.5644	0	33.4323	0	25.960	0	98.042	0	120.2	4	41.9	4	-1E+10	1	0.0613	4	0.000849	0	-1E+10	1	-1E+10	1	-1E+10	1
4902624	32	C	05/07/2025	20:37	-127.488	48.558	0	99.00	0	8.5650	0	33.4360	0	25.963	0	98.141	0	-1e10	1	-1e10	1	-1E+10	1	-1e10	1	-1e10	1	-1E+10	1	-1E+10	1	-1E+10	1
4902624	32	C	05/07/2025	20:37	-127.488	48.558	0	100.00	0	8.5685	0	33.4620	0	25.983	0	99.132	0	119.4	4	41.7	4	-1E+10	1	0.0584	4	0.000871	0	-1E+10	1	-1E+10	1	-1E+10	1
4902624	32	C	05/07/2025	20:37	-127.488	48.558	0	101.00	0	8.5720	0	33.4880	0	26.003	0	100.123	0	116.8	4	40.8	4	-1E+10	1	0.0657	4	0.000860	0	-1E+10	1	-1E+10	1	-1E+10	1
4902624	32	C	05/07/2025	20:37	-127.488	48.558	0	102.10	0	8.5708	0	33.5094	0	26.020	0	101.213	0	118.0	4	41.2	4	-1E+10	1	0.0697	4	0.000798	0	-1E+10	1	-1E+10	1	-1E+10	1
4902624	32	C	05/07/2025	20:37	-127.488	48.558	0	102.90	0	8.5700	0	33.5250	0	26.032	0	102.006	0	-1e10	1	-1e10	1	-1E+10	1	-1e10	1	-1e10	1	-1E+10	1	-1E+10	1	-1E+10	1
4902624	32	C	05/07/2025	20:37	-127.488	48.558	0	103.20	0	8.5704	0	33.5281	0	26.034	0	102.303	0	117.4	4	41.0	4	-1E+10	1	0.0657	4	0.000764	0	-1E+10	1	-1E+10	1	-1E+10	1
4902624	32	C	05/07/2025	20:37	-127.488	48.558	0	104.20	0	8.5719	0	33.5386	0	26.042	0	103.294	0	116.8	4	40.8	4	-1E+10	1	0.0646	4	0.000793	0	-1E+10	1	-1E+10	1	-1E+10	1
4902624	32	C	05/07/2025	20:37	-127.488	48.558	0	105.00	0	8.5730	0	33.5470	0	26.049	0	104.087	0	-1e10	1	-1e10	1	-1E+10	1	-1e10	1	-1e10	1	-1E+10	1	-1E+10	1	-1E+10	1
4902624	32	C	05/07/2025	20:37	-127.488	48.558	0	105.30	0	8.5721	0	33.5480	0	26.050	0	104.384	0	116.2	4	40.6	4	-1E+10	1	0.0584	4	0.000912	0	-1E+10	1	-1E+10	1	-1E+10	1
4902624	32	C	05/07/2025	20:37	-127.488	48.558	0	106.40	0	8.5688	0	33.5519	0	26.053	0	105.475	0	115.5	4	40.4	4	-1E+10	1	0.0511	4	0.000760	0	-1E+10	1	-1E+10	1	-1E+10	1
4902624	32	C	05/07/2025	20:37	-127.488	48.558	0	107.00	0	8.5670	0	33.5540	0	26.055	0	106.069	0	-1e10	1	-1e10	1	-1E+10	1	-1e10	1	-1e10	1	-1E+10	1	-1E+10	1	-1E+10	1
4902624	32	C	05/07/2025	20:37	-127.488	48.558	0	107.50	0	8.5633	0	33.5565	0	26.058	0	106.565	0	114.9	4	40.1	4	-1E+10	1	0.0696	4	0.000899	0	-1E+10	1	-1E+10	1	-1E+10	1
4902624	32	C	05/07/2025	20:37	-127.488	48.558	0	108.50	0	8.5557	0	33.5615	0	26.063	0	107.556	0	114.3	4	39.9	4	-1E+10	1	0.0685	4	0.000783	0	-1E+10	1	-1E+10	1	-1E+10	1
4902624	32	C	05/07/2025	20:37	-127.488	48.558	0	109.00	0	8.5520	0	33.5640	0	26.065	0	108.051	0	-1e10	1	-1e10	1	-1E+10	1	-1e10	1	-1e10	1	-1E+10	1	-1E+10	1	-1E+10	1
4902624	32	C	05/07/2025	20:37	-127.488	48.558	0	109.60	0	8.5460	0	33.5676	0	26.069	0	108.646	0	113.6	4	39.7	4	-1E+10	1	0.0526	4	0.000677	0	-1E+10	1	-1E+10	1	-1E+10	1
4902624	32	C	05/07/2025	20:37	-127.488	48.558	0	110.70	0	8.5350	0	33.5742	0	26.076	0	109.736	0	112.8	4	39.4	4	-1E+10	1	0.0517	4	0.000666	0	-1E+10	1	-1E+10	1	-1E+10	1
4902624	32	C	05/07/2025	20:37	-127.488	48.558	0	111.00	0	8.5320	0	33.5760	0	26.078	0	110.033	0	-1e10	1	-1e10	1	-1E+10	1	-1e10	1	-1e10	1	-1E+10	1	-1E+10	1	-1E+10	1
4902624	32	C	05/07/2025	20:37	-127.488	48.558	0	111.80	0	8.5196	0	33.5812	0	26.084	0	110.826	0	112.0	4	39.1	4	-1E+10	1	0.0556	4	0.000670	0	-1E+10	1	-1E+10	1	-1E+10	1
4902624	32	C	05/07/2025	20:37	-127.488	48.558	0	112.80	0	8.5041	0	33.5877	0	26.091	0	111.817	0	111.2	4	38.8	4	-1E+10	1	0.0737	4	0.000697	0	-1E+10	1	-1E+10	1	-1E+10	1
4902624	32	C	05/07/2025	20:37	-127.488	48.558	0	113.00	0	8.5010	0	33.5890	0	26.093	0	112.015	0	-1e10	1	-1e10	1	-1E+10	1	-1e10	1	-1e10	1	-1E+10	1	-1E+10	1	-1E+10	1
4902624	32	C	05/07/2025	20:37	-127.488	48.558	0	113.90	0	8.4668	0	33.5953	0	26.103	0	112.907	0	110.2	4	38.4	4	-1E+10	1	0.1545	4	0.000793	0	-1E+10	1	-1E+10	1	-1E+10	1
4902624	32	C	05/07/2025	20:37	-127.488	48.558	0	114.90	0	8.4288	0	33.6023	0	26.114	0	113.898	0	109.4	4	38.1	4	-1E+10	1	0.0511	4	0.000842	0	-1E+10	1	-1E+10	1	-1E+10	1
4902624	32	C	05/07/2025	20:37	-127.488	48.558	0	115.00	0	8.4250	0	33.6030	0	26.115	0	113.997	0	-1e10	1	-1e10	1	-1E+10	1	-1e10	1	-1e10	1	-1E+10	1	-1E+10	1	-1E+10	1
4902624	32	C	05/07/2025	20:37	-127.488	48.558	0	116.20	0	8.4050	0	33.6196	0	26.131	0	115.187	0	108.5	4	37.8	4	-1E+10	1	0.0511	4	0.000795	0	-1E+10	1	-1E+10	1	-1E+10	1
4902624	32	C	05/07/2025	20:37	-127.488	48.558	0	117.10	0	8.3900	0	33.6320	0	26.143	0	116.078	0	-1e10	1	-1e10	1	-1E+10	1	-1e10	1	-1e10	1	-1E+10	1	-1E+10	1	-1E+10	1
4902624	32	C	05/07/2025	20:37	-127.488	48.558	0	117.20	0	8.3884	0	33.6334	0	26.145	0	116.178	0	107.9	4	37.5	4	-1E+10	1	0.0584	4	0.000983	0	-1E+10	1	-1E+10	1	-1E+10	1
4902624	32	C	05/07/2025	20:37	-127.488	48.558	0	118.00	0	8.3753	0	33.6448	0	26.156	0	116.970	0	107.5	4	37.4	4	-1E+10	1	0.0637	4	0.001221	0	-1E+10	1	-1E+10	1	-1E+10	1
4902624	32	C	05/07/2025	20:37	-127.488	48.558	0	118.70	0	8.3639	0	33.6547	0	26.165	0	117.664	0	107.0	4	37.2	4	-1E+10	1	0.0657	4	0.001053	0	-1E+10	1	-1E+10	1	-1E+10	1
4902624	32	C	05/07/2025	20:37	-127.488	48.558	0	119.00	0	8.3590	0	33.6590	0	26.169	0	117.961	0	-1e10	1	-1e10	1	-1E+10	1	-1e10	1	-1e10	1	-1E+10	1	-1E+10	1	-1E+10	1
4902624	32	C	05/07/2025	20:37	-127.488	48.558	0	119.40	0	8.3350	0	33.6646	0	26.177	0	118.358	0	106.6	4	37.1	4	-1E+10	1	0.0626	4	0.000810	0	-1E+10	1	-1E+10	1	-1E+10	1
4902624	32	C	05/07/2025	20:37	-127.488	48.558	0	120.10	0	8.2930	0	33.6744	0	26.191	0	119.051	0	106.4	4	37.0	4	-1E+10	1	0.0611	4	0.000918	0	-1E+10	1	-1E+10	1	-1E+10	1
4902624	32	C	05/07/2025	20:37	-127.488	48.558	0	120.70	0	8.2570	0	33.6828	0	26.203	0	119.646	0	106.3	4	36.9	4	-1E+10	1	0.0648	4	0.001043	0	-1E+10	1	-1E+10	1	-1E+10	1
4902624	32	C	05/07/2025	20:37	-127.488	48.558	0	121.00	0	8.2390	0	33.6870	0	26.209	0	119.943	0	-1e10	1	-1e10	1	-1E+10	1	-1e10	1	-1e10	1	-1E+10	1	-1E+10	1	-1E+10	1
4902624	32	C	05/07/2025	20:37	-127.488	48.558	0	121.40	0	8.2162	0	33.6916	0	26.216	0	120.340	0	106.2	4	36.8	4	-1E+10	1	0.0584	4	0.000889	0	-1E+10	1	-1E+10	1	-1E+10	1
4902624	32	C	05/07/2025	20:37	-127.488	48.558	0	122.10	0	8.1763	0	33.6996	0	26.229	0	121.033	0	106.2	4	36.8	4	-1E+10	1	0.0584	4	0.000783	0	-1E+10	1	-1E+10	1	-1E+10	1
4902624	32	C	05/07/2025	20:37	-127.488	48.558	0	122.70	0	8.1421	0	33.7066	0	26.239	0	121.628	0	106.3	4	36.8	4	-1E+10	1	0.0639	4	0.000818	0	-1E+10	1	-1E+10	1	-1E+10	1
4902624	32	C	05/07/2025	20:37	-127.488	48.558	0	123.00	0	8.1250	0	33.7100	0	26.244	0	121.925	0	-1e10	1	-1e10	1	-1E+10	1	-1e10	1	-1e10	1	-1E+10	1	-1E+10	1	-1E+10	1
4902624	32	C	05/07/2025	20:37	-127.488	48.558	0	123.50	0	8.1215	0	33.7170	0	26.250	0	122.421	0	106.4	4	36.8	4	-1E+10	1	0.0608	4	0.000807	0	-1E+10	1	-1E+10	1	-1E+10	1
4902624	32	C	05/07/2025	20:37	-127.488	48.558	0	124.20	0	8.1166	0	33.7268	0	26.259	0	123.114	0	106.7	4	37.0	4	-1E+10	1	0.0620	4	0.001018	0	-1E+10	1	-1E+10	1	-1E+10	1
4902624	32	C	05/07/2025	20:37	-127.488	48.558	0	125.00	0	8.1110	0	33.7380	0	26.268	0	123.907	0	105.3	4	36.5	4	-1E+10	1	0.0657	4	0.001063	0	-1E+10	1	-1E+10	1	-1E+10	1
4902624	32	C	05/07/2025	20:37	-127.488	48.558	0	125.80	0	8.0824	0	33.7384	0	26.273	0	124.700	0	107.8	4	37.3	4	-1E+10	1	0.0681	4	0.000818	0	-1E+10	1	-1E+10	1	-1E+10	1
4902624	32	C	05/07/2025	20:37	-127.488	48.558	0	126.60	0	8.0539	0	33.7388	0	26.278	0	125.493	0	108.4	4	37.5	4	-1E+10	1	0.0675	4	0.000801	0	-1E+10	1	-1E+10	1	-1E+10	1
4902624	32	C	05/07/2025	20:37	-127.488	48.558	0	127.10	0	8.0360	0	33.7390	0	26.280	0	125.988	0	-1e10	1	-1e10	1	-1E+10	1	-1e10	1	-1e10	1	-1E+10	1	-1E+10	1	-1E+10	1
4902624	32	C	05/07/2025	20:37	-127.488	48.558	0	127.30	0	8.0244	0	33.7386	0	26.282	0	126.186	0	109.1	4	37.7	4	-1E+10	1	0.0527	4	0.000883	0	-1E+10	1	-1E+10	1	-1E+10	1
4902624	32	C	05/07/2025	20:37	-127.488	48.558	0	128.10	0	7.9780	0	33.7370	0	26.287	0	126.979	0	109.8	4	37.9	4	-1E+10	1	0.0657	4	0.000842	0	-1E+10	1	-1E+10	1	-1E+10	1
4902624	32	C	05/07/2025	20:37	-127.488	48.558	0	128.90	0	7.9316	0	33.7354	0	26.293	0	127.772	0	110.5	4	38.1	4	-1E+10	1	0.0462	4	0.000842	0	-1E+10	1	-1E+10	1	-1E+10	1
4902624	32	C	05/07/2025	20:37	-127.488	48.558	0	129.10	0	7.9200	0	33.7350	0	26.294	0	127.970	0	-1e10	1	-1e10	1	-1E+10	1	-1e10	1	-1e10	1	-1E+10	1	-1E+10	1	-1E+10	1
4902624	32	C	05/07/2025	20:37	-127.488	48.558	0	129.70	0	7.9045	0	33.7359	0	26.297	0	128.565	0	111.5	4	38.4	4	-1E+10	1	0.0495	4	0.000878	0	-1E+10	1	-1E+10	1	-1E+10	1
4902624	32	C	05/07/2025	20:37	-127.488	48.558	0	130.50	0	7.8839	0	33.7372	0	26.301	0	129.357	0	112.5	4	38.7	4	-1E+10	1	0.0467	4	0.000874	0	-1E+10	1	-1E+10	1	-1E+10	1
4902624	32	C	05/07/2025	20:37	-127.488	48.558	0	131.00	0	7.8710	0	33.7380	0	26.304	0	129.853	0	-1e10	1	-1e10	1	-1E+10	1	-1e10	1	-1e10	1	-1E+10	1	-1E+10	1	-1E+10	1
4902624	32	C	05/07/2025	20:37	-127.488	48.558	0	131.40	0	7.8688	0	33.7392	0	26.305	0	130.249	0	113.4	4	39.0	4	-1E+10	1	0.0548	4	0.000953	0	-1E+10	1	-1E+10	1	-1E+10	1
4902624	32	C	05/07/2025	20:37	-127.488	48.558	0	132.20	0	7.8644	0	33.7416	0	26.308	0	131.042	0	114.3	4	39.4	4	-1E+10	1	0.0657	4	0.000927	0	-1E+10	1	-1E+10	1	-1E+10	1
4902624	32	C	05/07/2025	20:37	-127.488	48.558	0	133.00	0	7.8600	0	33.7440	0	26.310	0	131.835	0	113.1	4	38.9	4	-1E+10	1	0.0635	4	0.000764	0	-1E+10	1	-1E+10	1	-1E+10	1
4902624	32	C	05/07/2025	20:37	-127.488	48.558	0	133.80	0	7.8492	0	33.7424	0	26.310	0	132.627	0	116.2	4	40.0	4	-1E+10	1	0.0606	4	0.000828	0	-1E+10	1	-1E+10	1	-1E+10	1
4902624	32	C	05/07/2025	20:37	-127.488	48.558	0	134.70	0	7.8370	0	33.7406	0	26.311	0	133.519	0	117.2	4	40.3	4	-1E+10	1	0.0803	4	0.000806	0	-1E+10	1	-1E+10	1	-1E+10	1
4902624	32	C	05/07/2025	20:37	-127.488	48.558	0	135.00	0	7.8330	0	33.7400	0	26.311	0	133.817	0	-1e10	1	-1e10	1	-1E+10	1	-1e10	1	-1e10	1	-1E+10	1	-1E+10	1	-1E+10	1
4902624	32	C	05/07/2025	20:37	-127.488	48.558	0	135.50	0	7.7888	0	33.7363	0	26.314	0	134.312	0	118.2	4	40.6	4	-1E+10	1	0.0803	4	0.000560	0	-1E+10	1	-1E+10	1	-1E+10	1
4902624	32	C	05/07/2025	20:37	-127.488	48.558	0	136.40	0	7.7091	0	33.7295	0	26.321	0	135.204	0	118.8	4	40.8	4	-1E+10	1	0.0606	4	0.000623	0	-1E+10	1	-1E+10	1	-1E+10	1
4902624	32	C	05/07/2025	20:37	-127.488	48.558	0	137.00	0	7.6560	0	33.7250	0	26.325	0	135.798	0	-1e10	1	-1e10	1	-1E+10	1	-1e10	1	-1e10	1	-1E+10	1	-1E+10	1	-1E+10	1
4902624	32	C	05/07/2025	20:37	-127.488	48.558	0	137.20	0	7.6436	0	33.7239	0	26.326	0	135.997	0	118.8	4	40.7	4	-1E+10	1	0.0491	4	0.000556	0	-1E+10	1	-1E+10	1	-1E+10	1
4902624	32	C	05/07/2025	20:37	-127.488	48.558	0	138.10	0	7.5879	0	33.7187	0	26.330	0	136.888	0	118.6	4	40.6	4	-1E+10	1	0.0479	4	0.000559	0	-1E+10	1	-1E+10	1	-1E+10	1
4902624	32	C	05/07/2025	20:37	-127.488	48.558	0	139.00	0	7.5322	0	33.7136	0	26.333	0	137.780	0	118.3	4	40.4	4	-1E+10	1	0.0474	4	0.000566	0	-1E+10	1	-1E+10	1	-1E+10	1
4902624	32	C	05/07/2025	20:37	-127.488	48.558	0	139.10	0	7.5260	0	33.7130	0	26.334	0	137.879	0	-1e10	1	-1e10	1	-1E+10	1	-1e10	1	-1e10	1	-1E+10	1	-1E+10	1	-1E+10	1
4902624	32	C	05/07/2025	20:37	-127.488	48.558	0	139.90	0	7.5004	0	33.7198	0	26.343	0	138.672	0	117.6	4	40.2	4	-1E+10	1	0.0487	4	0.000568	0	-1E+10	1	-1E+10	1	-1E+10	1
4902624	32	C	05/07/2025	20:37	-127.488	48.558	0	140.90	0	7.4684	0	33.7283	0	26.354	0	139.663	0	117.3	4	40.0	4	-1E+10	1	0.0584	4	0.000583	0	-1E+10	1	-1E+10	1	-1E+10	1
4902624	32	C	05/07/2025	20:37	-127.488	48.558	0	141.10	0	7.4620	0	33.7300	0	26.356	0	139.861	0	-1e10	1	-1e10	1	-1E+10	1	-1e10	1	-1e10	1	-1E+10	1	-1E+10	1	-1E+10	1
4902624	32	C	05/07/2025	20:37	-127.488	48.558	0	141.80	0	7.4546	0	33.7348	0	26.361	0	140.555	0	116.9	4	39.9	4	-1E+10	1	0.0544	4	0.000470	0	-1E+10	1	-1E+10	1	-1E+10	1
4902624	32	C	05/07/2025	20:37	-127.488	48.558	0	142.70	0	7.4452	0	33.7409	0	26.367	0	141.446	0	116.6	4	39.8	4	-1E+10	1	0.0365	4	0.000701	0	-1E+10	1	-1E+10	1	-1E+10	1
4902624	32	C	05/07/2025	20:37	-127.488	48.558	0	143.00	0	7.4420	0	33.7430	0	26.369	0	141.744	0	-1e10	1	-1e10	1	-1E+10	1	-1e10	1	-1e10	1	-1E+10	1	-1E+10	1	-1E+10	1
4902624	32	C	05/07/2025	20:37	-127.488	48.558	0	143.70	0	7.4392	0	33.7451	0	26.371	0	142.437	0	116.2	4	39.6	4	-1E+10	1	0.0657	4	0.000443	0	-1E+10	1	-1E+10	1	-1E+10	1
4902624	32	C	05/07/2025	20:37	-127.488	48.558	0	144.60	0	7.4356	0	33.7478	0	26.374	0	143.329	0	115.8	4	39.5	4	-1E+10	1	0.0584	4	0.000361	0	-1E+10	1	-1E+10	1	-1E+10	1
4902624	32	C	05/07/2025	20:37	-127.488	48.558	0	145.00	0	7.4340	0	33.7490	0	26.375	0	143.725	0	-1e10	1	-1e10	1	-1E+10	1	-1e10	1	-1e10	1	-1E+10	1	-1E+10	1	-1E+10	1
4902624	32	C	05/07/2025	20:37	-127.488	48.558	0	145.60	0	7.4315	0	33.7509	0	26.377	0	144.320	0	115.4	4	39.3	4	-1E+10	1	0.0462	4	0.000488	0	-1E+10	1	-1E+10	1	-1E+10	1
4902624	32	C	05/07/2025	20:37	-127.488	48.558	0	146.50	0	7.4277	0	33.7537	0	26.380	0	145.212	0	114.9	4	39.2	4	-1E+10	1	0.0484	4	0.000560	0	-1E+10	1	-1E+10	1	-1E+10	1
4902624	32	C	05/07/2025	20:37	-127.488	48.558	0	146.90	0	7.4260	0	33.7550	0	26.381	0	145.608	0	-1e10	1	-1e10	1	-1E+10	1	-1e10	1	-1e10	1	-1E+10	1	-1E+10	1	-1E+10	1
4902624	32	C	05/07/2025	20:37	-127.488	48.558	0	147.50	0	7.4203	0	33.7579	0	26.384	0	146.203	0	114.4	4	39.0	4	-1E+10	1	0.0599	4	0.000458	0	-1E+10	1	-1E+10	1	-1E+10	1
4902624	32	C	05/07/2025	20:37	-127.488	48.558	0	148.50	0	7.4108	0	33.7626	0	26.389	0	147.193	0	113.9	4	38.8	4	-1E+10	1	0.0657	4	0.000378	0	-1E+10	1	-1E+10	1	-1E+10	1
4902624	32	C	05/07/2025	20:37	-127.488	48.558	0	149.00	0	7.4060	0	33.7650	0	26.392	0	147.689	0	-1e10	1	-1e10	1	-1E+10	1	-1e10	1	-1e10	1	-1E+10	1	-1E+10	1	-1E+10	1
4902624	32	C	05/07/2025	20:37	-127.488	48.558	0	149.50	0	7.4002	0	33.7676	0	26.395	0	148.184	0	113.5	4	38.7	4	-1E+10	1	0.0633	4	0.000380	0	-1E+10	1	-1E+10	1	-1E+10	1
4902624	32	C	05/07/2025	20:37	-127.488	48.558	0	150.40	0	7.3898	0	33.7724	0	26.400	0	149.076	0	113.1	4	38.5	4	-1E+10	1	0.0568	4	0.000370	0	-1E+10	1	-1E+10	1	-1E+10	1
4902624	32	C	05/07/2025	20:37	-127.488	48.558	0	150.90	0	7.3840	0	33.7750	0	26.403	0	149.571	0	-1e10	1	-1e10	1	-1E+10	1	-1e10	1	-1e10	1	-1E+10	1	-1E+10	1	-1E+10	1
4902624	32	C	05/07/2025	20:37	-127.488	48.558	0	151.40	0	7.3788	0	33.7775	0	26.406	0	150.067	0	112.6	4	38.3	4	-1E+10	1	0.0450	4	0.000353	0	-1E+10	1	-1E+10	1	-1E+10	1
4902624	32	C	05/07/2025	20:37	-127.488	48.558	0	152.40	0	7.3683	0	33.7825	0	26.411	0	151.058	0	112.1	4	38.2	4	-1E+10	1	0.0511	4	0.000372	0	-1E+10	1	-1E+10	1	-1E+10	1
4902624	32	C	05/07/2025	20:37	-127.488	48.558	0	153.10	0	7.3610	0	33.7860	0	26.415	0	151.751	0	-1e10	1	-1e10	1	-1E+10	1	-1e10	1	-1e10	1	-1E+10	1	-1E+10	1	-1E+10	1
4902624	32	C	05/07/2025	20:37	-127.488	48.558	0	153.40	0	7.3607	0	33.7873	0	26.416	0	152.048	0	111.7	4	38.0	4	-1E+10	1	0.0572	4	0.000411	0	-1E+10	1	-1E+10	1	-1E+10	1
4902624	32	C	05/07/2025	20:37	-127.488	48.558	0	154.30	0	7.3597	0	33.7910	0	26.419	0	152.940	0	111.3	4	37.9	4	-1E+10	1	0.0470	4	0.000364	0	-1E+10	1	-1E+10	1	-1E+10	1
4902624	32	C	05/07/2025	20:37	-127.488	48.558	0	155.00	0	7.3590	0	33.7940	0	26.421	0	153.634	0	-1e10	1	-1e10	1	-1E+10	1	-1e10	1	-1e10	1	-1E+10	1	-1E+10	1	-1E+10	1
4902624	32	C	05/07/2025	20:37	-127.488	48.558	0	155.30	0	7.3578	0	33.7953	0	26.423	0	153.931	0	110.9	4	37.8	4	-1E+10	1	0.0438	4	0.000388	0	-1E+10	1	-1E+10	1	-1E+10	1
4902624	32	C	05/07/2025	20:37	-127.488	48.558	0	156.30	0	7.3538	0	33.7999	0	26.427	0	154.922	0	110.5	4	37.6	4	-1E+10	1	0.0511	4	0.000519	0	-1E+10	1	-1E+10	1	-1E+10	1
4902624	32	C	05/07/2025	20:37	-127.488	48.558	0	157.00	0	7.3510	0	33.8030	0	26.430	0	155.615	0	-1e10	1	-1e10	1	-1E+10	1	-1e10	1	-1e10	1	-1E+10	1	-1E+10	1	-1E+10	1
4902624	32	C	05/07/2025	20:37	-127.488	48.558	0	157.30	0	7.3478	0	33.8042	0	26.431	0	155.913	0	110.2	4	37.5	4	-1E+10	1	0.0584	4	0.000536	0	-1E+10	1	-1E+10	1	-1E+10	1
4902624	32	C	05/07/2025	20:37	-127.488	48.558	0	158.30	0	7.3373	0	33.8082	0	26.436	0	156.903	0	110.0	4	37.4	4	-1E+10	1	0.0584	4	0.000392	0	-1E+10	1	-1E+10	1	-1E+10	1
4902624	32	C	05/07/2025	20:37	-127.488	48.558	0	159.00	0	7.3300	0	33.8110	0	26.439	0	157.597	0	-1e10	1	-1e10	1	-1E+10	1	-1e10	1	-1e10	1	-1E+10	1	-1E+10	1	-1E+10	1
4902624	32	C	05/07/2025	20:37	-127.488	48.558	0	159.30	0	7.3267	0	33.8116	0	26.440	0	157.894	0	109.8	4	37.4	4	-1E+10	1	0.0584	4	0.000382	0	-1E+10	1	-1E+10	1	-1E+10	1
4902624	32	C	05/07/2025	20:37	-127.488	48.558	0	160.30	0	7.3157	0	33.8136	0	26.443	0	158.885	0	109.5	4	37.2	4	-1E+10	1	0.0584	4	0.000372	0	-1E+10	1	-1E+10	1	-1E+10	1
4902624	32	C	05/07/2025	20:37	-127.488	48.558	0	161.00	0	7.3080	0	33.8150	0	26.445	0	159.579	0	-1e10	1	-1e10	1	-1E+10	1	-1e10	1	-1e10	1	-1E+10	1	-1E+10	1	-1E+10	1
4902624	32	C	05/07/2025	20:37	-127.488	48.558	0	161.30	0	7.3061	0	33.8154	0	26.446	0	159.876	0	109.2	4	37.2	4	-1E+10	1	0.0438	4	0.000419	0	-1E+10	1	-1E+10	1	-1E+10	1
4902624	32	C	05/07/2025	20:37	-127.488	48.558	0	162.30	0	7.2996	0	33.8170	0	26.448	0	160.867	0	108.9	4	37.0	4	-1E+10	1	0.0560	4	0.000360	0	-1E+10	1	-1E+10	1	-1E+10	1
4902624	32	C	05/07/2025	20:37	-127.488	48.558	0	163.00	0	7.2950	0	33.8180	0	26.449	0	161.560	0	-1e10	1	-1e10	1	-1E+10	1	-1e10	1	-1e10	1	-1E+10	1	-1E+10	1	-1E+10	1
4902624	32	C	05/07/2025	20:37	-127.488	48.558	0	163.30	0	7.2940	0	33.8184	0	26.450	0	161.857	0	108.5	4	36.9	4	-1E+10	1	0.0539	4	0.000457	0	-1E+10	1	-1E+10	1	-1E+10	1
4902624	32	C	05/07/2025	20:37	-127.488	48.558	0	164.40	0	7.2903	0	33.8200	0	26.452	0	162.947	0	108.2	4	36.8	4	-1E+10	1	0.0599	4	0.000426	0	-1E+10	1	-1E+10	1	-1E+10	1
4902624	32	C	05/07/2025	20:37	-127.488	48.558	0	165.10	0	7.2880	0	33.8210	0	26.453	0	163.641	0	-1e10	1	-1e10	1	-1E+10	1	-1e10	1	-1e10	1	-1E+10	1	-1E+10	1	-1E+10	1
4902624	32	C	05/07/2025	20:37	-127.488	48.558	0	165.40	0	7.2856	0	33.8215	0	26.453	0	163.938	0	107.8	4	36.6	4	-1E+10	1	0.0584	4	0.000390	0	-1E+10	1	-1E+10	1	-1E+10	1
4902624	32	C	05/07/2025	20:37	-127.488	48.558	0	166.40	0	7.2777	0	33.8231	0	26.456	0	164.929	0	107.3	4	36.5	4	-1E+10	1	0.0535	4	0.000435	0	-1E+10	1	-1E+10	1	-1E+10	1
4902624	32	C	05/07/2025	20:37	-127.488	48.558	0	167.00	0	7.2730	0	33.8240	0	26.457	0	165.523	0	-1e10	1	-1e10	1	-1E+10	1	-1e10	1	-1e10	1	-1E+10	1	-1E+10	1	-1E+10	1
4902624	32	C	05/07/2025	20:37	-127.488	48.558	0	167.40	0	7.2722	0	33.8240	0	26.457	0	165.919	0	106.9	4	36.3	4	-1E+10	1	0.0557	4	0.000453	0	-1E+10	1	-1E+10	1	-1E+10	1
4902624	32	C	05/07/2025	20:37	-127.488	48.558	0	168.50	0	7.2700	0	33.8240	0	26.458	0	167.009	0	106.4	4	36.2	4	-1E+10	1	0.0438	4	0.000396	0	-1E+10	1	-1E+10	1	-1E+10	1
4902624	32	C	05/07/2025	20:37	-127.488	48.558	0	169.00	0	7.2690	0	33.8240	0	26.458	0	167.505	0	-1e10	1	-1e10	1	-1E+10	1	-1e10	1	-1e10	1	-1E+10	1	-1E+10	1	-1E+10	1
4902624	32	C	05/07/2025	20:37	-127.488	48.558	0	169.50	0	7.2635	0	33.8263	0	26.460	0	168.000	0	105.8	4	36.0	4	-1E+10	1	0.0438	4	0.000396	0	-1E+10	1	-1E+10	1	-1E+10	1
4902624	32	C	05/07/2025	20:37	-127.488	48.558	0	170.50	0	7.2525	0	33.8307	0	26.465	0	168.991	0	105.3	4	35.8	4	-1E+10	1	0.0499	4	0.000396	0	-1E+10	1	-1E+10	1	-1E+10	1
4902624	32	C	05/07/2025	20:37	-127.488	48.558	0	171.00	0	7.2470	0	33.8330	0	26.468	0	169.486	0	-1e10	1	-1e10	1	-1E+10	1	-1e10	1	-1e10	1	-1E+10	1	-1E+10	1	-1E+10	1
4902624	32	C	05/07/2025	20:37	-127.488	48.558	0	171.60	0	7.2456	0	33.8339	0	26.469	0	170.081	0	104.6	4	35.6	4	-1E+10	1	0.0451	4	0.000616	0	-1E+10	1	-1E+10	1	-1E+10	1
4902624	32	C	05/07/2025	20:37	-127.488	48.558	0	172.60	0	7.2432	0	33.8353	0	26.470	0	171.071	0	104.0	4	35.3	4	-1E+10	1	0.0535	4	0.000493	0	-1E+10	1	-1E+10	1	-1E+10	1
4902624	32	C	05/07/2025	20:37	-127.488	48.558	0	173.10	0	7.2420	0	33.8360	0	26.471	0	171.567	0	-1e10	1	-1e10	1	-1E+10	1	-1e10	1	-1e10	1	-1E+10	1	-1E+10	1	-1E+10	1
4902624	32	C	05/07/2025	20:37	-127.488	48.558	0	173.60	0	7.2436	0	33.8373	0	26.472	0	172.062	0	103.2	4	35.1	4	-1E+10	1	0.0584	4	0.000423	0	-1E+10	1	-1E+10	1	-1E+10	1
4902624	32	C	05/07/2025	20:37	-127.488	48.558	0	174.70	0	7.2471	0	33.8402	0	26.474	0	173.152	0	102.4	4	34.8	4	-1E+10	1	0.0555	4	0.000419	0	-1E+10	1	-1E+10	1	-1E+10	1
4902624	32	C	05/07/2025	20:37	-127.488	48.558	0	175.00	0	7.2480	0	33.8410	0	26.474	0	173.449	0	-1e10	1	-1e10	1	-1E+10	1	-1e10	1	-1e10	1	-1E+10	1	-1E+10	1	-1E+10	1
4902624	32	C	05/07/2025	20:37	-127.488	48.558	0	175.80	0	7.2708	0	33.8474	0	26.476	0	174.242	0	101.7	4	34.6	4	-1E+10	1	0.0539	4	0.000393	0	-1E+10	1	-1E+10	1	-1E+10	1
4902624	32	C	05/07/2025	20:37	-127.488	48.558	0	176.80	0	7.2993	0	33.8554	0	26.478	0	175.232	0	101.0	4	34.4	4	-1E+10	1	0.0560	4	0.000405	0	-1E+10	1	-1E+10	1	-1E+10	1
4902624	32	C	05/07/2025	20:37	-127.488	48.558	0	177.00	0	7.3050	0	33.8570	0	26.479	0	175.431	0	-1e10	1	-1e10	1	-1E+10	1	-1e10	1	-1e10	1	-1E+10	1	-1E+10	1	-1E+10	1
4902624	32	C	05/07/2025	20:37	-127.488	48.558	0	177.80	0	7.3218	0	33.8630	0	26.481	0	176.223	0	100.6	4	34.2	4	-1E+10	1	0.0438	4	0.000395	0	-1E+10	1	-1E+10	1	-1E+10	1
4902624	32	C	05/07/2025	20:37	-127.488	48.558	0	178.90	0	7.3449	0	33.8713	0	26.484	0	177.313	0	100.2	4	34.1	4	-1E+10	1	0.0438	4	0.000372	0	-1E+10	1	-1E+10	1	-1E+10	1
4902624	32	C	05/07/2025	20:37	-127.488	48.558	0	179.00	0	7.3470	0	33.8720	0	26.485	0	177.412	0	-1e10	1	-1e10	1	-1E+10	1	-1e10	1	-1e10	1	-1E+10	1	-1E+10	1	-1E+10	1
4902624	32	C	05/07/2025	20:37	-127.488	48.558	0	179.90	0	7.3421	0	33.8725	0	26.486	0	178.304	0	99.8	4	34.0	4	-1E+10	1	0.0438	4	0.000392	0	-1E+10	1	-1E+10	1	-1E+10	1
4902624	32	C	05/07/2025	20:37	-127.488	48.558	0	180.90	0	7.3365	0	33.8730	0	26.487	0	179.294	0	99.3	4	33.8	4	-1E+10	1	0.0535	4	0.000450	0	-1E+10	1	-1E+10	1	-1E+10	1
4902624	32	C	05/07/2025	20:37	-127.488	48.558	0	181.00	0	7.3360	0	33.8730	0	26.487	0	179.393	0	-1e10	1	-1e10	1	-1E+10	1	-1e10	1	-1e10	1	-1E+10	1	-1E+10	1	-1E+10	1
4902624	32	C	05/07/2025	20:37	-127.488	48.558	0	182.00	0	7.3340	0	33.8750	0	26.489	0	180.384	0	98.6	4	33.6	4	-1E+10	1	0.0491	4	0.000455	0	-1E+10	1	-1E+10	1	-1E+10	1
4902624	32	C	05/07/2025	20:37	-127.488	48.558	0	183.00	0	7.3320	0	33.8770	0	26.491	0	181.375	0	96.3	4	32.8	4	-1E+10	1	0.0402	4	0.000425	0	-1E+10	1	-1E+10	1	-1E+10	1
4902624	32	C	05/07/2025	20:37	-127.488	48.558	0	184.10	0	7.3430	0	33.8830	0	26.494	0	182.464	0	97.8	4	33.3	4	-1E+10	1	0.0449	4	0.000718	0	-1E+10	1	-1E+10	1	-1E+10	1
4902624	32	C	05/07/2025	20:37	-127.488	48.558	0	185.00	0	7.3520	0	33.8880	0	26.497	0	183.356	0	-1e10	1	-1e10	1	-1E+10	1	-1e10	1	-1e10	1	-1E+10	1	-1E+10	1	-1E+10	1
4902624	32	C	05/07/2025	20:37	-127.488	48.558	0	185.10	0	7.3517	0	33.8881	0	26.497	0	183.455	0	97.5	4	33.2	4	-1E+10	1	0.0555	4	0.001064	0	-1E+10	1	-1E+10	1	-1E+10	1
4902624	32	C	05/07/2025	20:37	-127.488	48.558	0	186.10	0	7.3481	0	33.8885	0	26.498	0	184.446	0	97.1	4	33.1	4	-1E+10	1	0.0438	4	0.000454	0	-1E+10	1	-1E+10	1	-1E+10	1
4902624	32	C	05/07/2025	20:37	-127.488	48.558	0	187.00	0	7.3450	0	33.8890	0	26.498	0	185.337	0	-1e10	1	-1e10	1	-1E+10	1	-1e10	1	-1e10	1	-1E+10	1	-1E+10	1	-1E+10	1
4902624	32	C	05/07/2025	20:37	-127.488	48.558	0	187.10	0	7.3446	0	33.8890	0	26.499	0	185.436	0	96.8	4	33.0	4	-1E+10	1	0.0438	4	0.000454	0	-1E+10	1	-1E+10	1	-1E+10	1
4902624	32	C	05/07/2025	20:37	-127.488	48.558	0	188.20	0	7.3408	0	33.8896	0	26.500	0	186.526	0	96.5	4	32.9	4	-1E+10	1	0.0500	4	0.000484	0	-1E+10	1	-1E+10	1	-1E+10	1
4902624	32	C	05/07/2025	20:37	-127.488	48.558	0	189.00	0	7.3380	0	33.8900	0	26.500	0	187.319	0	-1e10	1	-1e10	1	-1E+10	1	-1e10	1	-1e10	1	-1E+10	1	-1E+10	1	-1E+10	1
4902624	32	C	05/07/2025	20:37	-127.488	48.558	0	189.20	0	7.3367	0	33.8901	0	26.501	0	187.517	0	96.1	4	32.7	4	-1E+10	1	0.0394	4	0.000452	0	-1E+10	1	-1E+10	1	-1E+10	1
4902624	32	C	05/07/2025	20:37	-127.488	48.558	0	190.20	0	7.3302	0	33.8906	0	26.502	0	188.507	0	95.7	4	32.6	4	-1E+10	1	0.0462	4	0.000450	0	-1E+10	1	-1E+10	1	-1E+10	1
4902624	32	C	05/07/2025	20:37	-127.488	48.558	0	191.00	0	7.3250	0	33.8910	0	26.503	0	189.300	0	-1e10	1	-1e10	1	-1E+10	1	-1e10	1	-1e10	1	-1E+10	1	-1E+10	1	-1E+10	1
4902624	32	C	05/07/2025	20:37	-127.488	48.558	0	191.30	0	7.3206	0	33.8914	0	26.504	0	189.597	0	95.4	4	32.5	4	-1E+10	1	0.0472	4	0.000448	0	-1E+10	1	-1E+10	1	-1E+10	1
4902624	32	C	05/07/2025	20:37	-127.488	48.558	0	192.30	0	7.3061	0	33.8930	0	26.507	0	190.588	0	95.0	4	32.3	4	-1E+10	1	0.0496	4	0.000442	0	-1E+10	1	-1E+10	1	-1E+10	1
4902624	32	C	05/07/2025	20:37	-127.488	48.558	0	193.00	0	7.2960	0	33.8940	0	26.509	0	191.281	0	-1e10	1	-1e10	1	-1E+10	1	-1e10	1	-1e10	1	-1E+10	1	-1E+10	1	-1E+10	1
4902624	32	C	05/07/2025	20:37	-127.488	48.558	0	193.40	0	7.2867	0	33.8938	0	26.511	0	191.677	0	94.7	4	32.2	4	-1E+10	1	0.0556	4	0.000483	0	-1E+10	1	-1E+10	1	-1E+10	1
4902624	32	C	05/07/2025	20:37	-127.488	48.558	0	194.40	0	7.2633	0	33.8933	0	26.513	0	192.668	0	94.5	4	32.1	4	-1E+10	1	0.0511	4	0.000548	0	-1E+10	1	-1E+10	1	-1E+10	1
4902624	32	C	05/07/2025	20:37	-127.488	48.558	0	195.10	0	7.2470	0	33.8930	0	26.515	0	193.362	0	-1e10	1	-1e10	1	-1E+10	1	-1e10	1	-1e10	1	-1E+10	1	-1E+10	1	-1E+10	1
4902624	32	C	05/07/2025	20:37	-127.488	48.558	0	195.50	0	7.2375	0	33.8936	0	26.517	0	193.758	0	94.2	4	32.0	4	-1E+10	1	0.0511	4	0.000548	0	-1E+10	1	-1E+10	1	-1E+10	1
4902624	32	C	05/07/2025	20:37	-127.488	48.558	0	196.50	0	7.2138	0	33.8952	0	26.522	0	194.748	0	94.0	4	31.9	4	-1E+10	1	0.0438	4	0.000560	0	-1E+10	1	-1E+10	1	-1E+10	1
4902624	32	C	05/07/2025	20:37	-127.488	48.558	0	197.00	0	7.2020	0	33.8960	0	26.524	0	195.244	0	-1e10	1	-1e10	1	-1E+10	1	-1e10	1	-1e10	1	-1E+10	1	-1E+10	1	-1E+10	1
4902624	32	C	05/07/2025	20:37	-127.488	48.558	0	197.60	0	7.1924	0	33.8954	0	26.525	0	195.838	0	93.8	4	31.8	4	-1E+10	1	0.0438	4	0.000480	0	-1E+10	1	-1E+10	1	-1E+10	1
4902624	32	C	05/07/2025	20:37	-127.488	48.558	0	198.70	0	7.1748	0	33.8943	0	26.526	0	196.928	0	93.6	4	31.8	4	-1E+10	1	0.0438	4	0.000458	0	-1E+10	1	-1E+10	1	-1E+10	1
4902624	32	C	05/07/2025	20:37	-127.488	48.558	0	199.00	0	7.1700	0	33.8940	0	26.527	0	197.225	0	-1e10	1	-1e10	1	-1E+10	1	-1e10	1	-1e10	1	-1E+10	1	-1E+10	1	-1E+10	1
4902624	32	C	05/07/2025	20:37	-127.488	48.558	0	199.70	0	7.1420	0	33.8930	0	26.530	0	197.918	0	93.3	4	31.6	4	-1E+10	1	0.0518	4	0.000460	0	-1E+10	1	-1E+10	1	-1E+10	1
4902624	32	C	05/07/2025	20:37	-127.488	48.558	0	200.80	0	7.0980	0	33.8913	0	26.535	0	199.008	0	92.9	4	31.5	4	-1E+10	1	0.0550	4	0.000493	0	-1E+10	1	-1E+10	1	-1E+10	1
4902624	32	C	05/07/2025	20:37	-127.488	48.558	0	201.00	0	7.0900	0	33.8910	0	26.536	0	199.206	0	-1e10	1	-1e10	1	-1E+10	1	-1e10	1	-1e10	1	-1E+10	1	-1E+10	1	-1E+10	1
4902624	32	C	05/07/2025	20:37	-127.488	48.558	0	201.90	0	7.0859	0	33.8910	0	26.536	0	200.098	0	92.4	4	31.3	4	-1E+10	1	0.0511	4	0.000506	0	-1E+10	1	-1E+10	1	-1E+10	1
4902624	32	C	05/07/2025	20:37	-127.488	48.558	0	203.00	0	7.0810	0	33.8910	0	26.537	0	201.187	0	90.2	4	30.5	4	-1E+10	1	0.0511	4	0.000474	0	-1E+10	1	-1E+10	1	-1E+10	1
4902624	32	C	05/07/2025	20:37	-127.488	48.558	0	204.10	0	7.0744	0	33.8921	0	26.539	0	202.277	0	91.4	4	31.0	4	-1E+10	1	0.0500	4	0.000516	0	-1E+10	1	-1E+10	1	-1E+10	1
4902624	32	C	05/07/2025	20:37	-127.488	48.558	0	205.00	0	7.0690	0	33.8930	0	26.540	0	203.168	0	-1e10	1	-1e10	1	-1E+10	1	-1e10	1	-1e10	1	-1E+10	1	-1E+10	1	-1E+10	1
4902624	32	C	05/07/2025	20:37	-127.488	48.558	0	205.20	0	7.0666	0	33.8929	0	26.540	0	203.367	0	90.9	4	30.8	4	-1E+10	1	0.0438	4	0.000536	0	-1E+10	1	-1E+10	1	-1E+10	1
4902624	32	C	05/07/2025	20:37	-127.488	48.558	0	206.30	0	7.0534	0	33.8923	0	26.542	0	204.456	0	90.3	4	30.6	4	-1E+10	1	0.0623	4	0.001499	0	-1E+10	1	-1E+10	1	-1E+10	1
4902624	32	C	05/07/2025	20:37	-127.488	48.558	0	207.00	0	7.0450	0	33.8920	0	26.543	0	205.150	0	-1e10	1	-1e10	1	-1E+10	1	-1e10	1	-1e10	1	-1E+10	1	-1E+10	1	-1E+10	1
4902624	32	C	05/07/2025	20:37	-127.488	48.558	0	207.40	0	7.0466	0	33.8940	0	26.544	0	205.546	0	89.6	4	30.3	4	-1E+10	1	0.0538	4	0.000724	0	-1E+10	1	-1E+10	1	-1E+10	1
4902624	32	C	05/07/2025	20:37	-127.488	48.558	0	208.50	0	7.0510	0	33.8995	0	26.548	0	206.635	0	88.9	4	30.1	4	-1E+10	1	0.0612	4	0.000456	0	-1E+10	1	-1E+10	1	-1E+10	1
4902624	32	C	05/07/2025	20:37	-127.488	48.558	0	209.00	0	7.0530	0	33.9020	0	26.549	0	207.131	0	-1e10	1	-1e10	1	-1E+10	1	-1e10	1	-1e10	1	-1E+10	1	-1E+10	1	-1E+10	1
4902624	32	C	05/07/2025	20:37	-127.488	48.558	0	209.60	0	7.0512	0	33.9044	0	26.552	0	207.725	0	88.4	4	29.9	4	-1E+10	1	0.0548	4	0.000442	0	-1E+10	1	-1E+10	1	-1E+10	1
4902624	32	C	05/07/2025	20:37	-127.488	48.558	0	210.80	0	7.0476	0	33.9092	0	26.556	0	208.914	0	87.9	4	29.8	4	-1E+10	1	0.0504	4	0.000544	0	-1E+10	1	-1E+10	1	-1E+10	1
4902624	32	C	05/07/2025	20:37	-127.488	48.558	0	211.00	0	7.0470	0	33.9100	0	26.557	0	209.112	0	-1e10	1	-1e10	1	-1E+10	1	-1e10	1	-1e10	1	-1E+10	1	-1E+10	1	-1E+10	1
4902624	32	C	05/07/2025	20:37	-127.488	48.558	0	211.90	0	7.0416	0	33.9104	0	26.558	0	210.003	0	87.4	4	29.6	4	-1E+10	1	0.0556	4	0.000599	0	-1E+10	1	-1E+10	1	-1E+10	1
4902624	32	C	05/07/2025	20:37	-127.488	48.558	0	213.00	0	7.0350	0	33.9110	0	26.559	0	211.093	0	85.2	4	28.8	4	-1E+10	1	0.0511	4	0.000496	0	-1E+10	1	-1E+10	1	-1E+10	1
4902624	32	C	05/07/2025	20:37	-127.488	48.558	0	214.10	0	7.0290	0	33.9127	0	26.561	0	212.183	0	86.3	4	29.2	4	-1E+10	1	0.0529	4	0.000454	0	-1E+10	1	-1E+10	1	-1E+10	1
4902624	32	C	05/07/2025	20:37	-127.488	48.558	0	215.00	0	7.0240	0	33.9140	0	26.563	0	213.074	0	-1e10	1	-1e10	1	-1E+10	1	-1e10	1	-1e10	1	-1E+10	1	-1E+10	1	-1E+10	1
4902624	32	C	05/07/2025	20:37	-127.488	48.558	0	215.20	0	7.0197	0	33.9142	0	26.564	0	213.272	0	85.7	4	29.0	4	-1E+10	1	0.0584	4	0.000470	0	-1E+10	1	-1E+10	1	-1E+10	1
4902624	32	C	05/07/2025	20:37	-127.488	48.558	0	216.40	0	6.9940	0	33.9153	0	26.568	0	214.461	0	85.1	4	28.8	4	-1E+10	1	0.0584	4	0.000548	0	-1E+10	1	-1E+10	1	-1E+10	1
4902624	32	C	05/07/2025	20:37	-127.488	48.558	0	217.10	0	6.9790	0	33.9160	0	26.571	0	215.154	0	-1e10	1	-1e10	1	-1E+10	1	-1e10	1	-1e10	1	-1E+10	1	-1E+10	1	-1E+10	1
4902624	32	C	05/07/2025	20:37	-127.488	48.558	0	217.50	0	6.9742	0	33.9168	0	26.572	0	215.550	0	84.4	4	28.5	4	-1E+10	1	0.0641	4	0.000474	0	-1E+10	1	-1E+10	1	-1E+10	1
4902624	32	C	05/07/2025	20:37	-127.488	48.558	0	218.70	0	6.9596	0	33.9194	0	26.576	0	216.739	0	83.8	4	28.3	4	-1E+10	1	0.0418	4	0.000425	0	-1E+10	1	-1E+10	1	-1E+10	1
4902624	32	C	05/07/2025	20:37	-127.488	48.558	0	219.00	0	6.9560	0	33.9200	0	26.577	0	217.036	0	-1e10	1	-1e10	1	-1E+10	1	-1e10	1	-1e10	1	-1E+10	1	-1E+10	1	-1E+10	1
4902624	32	C	05/07/2025	20:37	-127.488	48.558	0	219.90	0	6.9502	0	33.9227	0	26.580	0	217.927	0	83.2	4	28.1	4	-1E+10	1	0.0469	4	0.000519	0	-1E+10	1	-1E+10	1	-1E+10	1
4902624	32	C	05/07/2025	20:37	-127.488	48.558	0	221.00	0	6.9430	0	33.9260	0	26.583	0	219.017	0	-1e10	1	-1e10	1	-1E+10	1	-1e10	1	-1e10	1	-1E+10	1	-1E+10	1	-1E+10	1
4902624	32	C	05/07/2025	20:37	-127.488	48.558	0	221.10	0	6.9420	0	33.9260	0	26.584	0	219.116	0	82.7	4	27.9	4	-1E+10	1	0.0550	4	0.000484	0	-1E+10	1	-1E+10	1	-1E+10	1
4902624	32	C	05/07/2025	20:37	-127.488	48.558	0	222.20	0	6.9316	0	33.9266	0	26.586	0	220.206	0	82.0	4	27.7	4	-1E+10	1	0.0535	4	0.000411	0	-1E+10	1	-1E+10	1	-1E+10	1
4902624	32	C	05/07/2025	20:37	-127.488	48.558	0	223.10	0	6.9230	0	33.9270	0	26.587	0	221.097	0	-1e10	1	-1e10	1	-1E+10	1	-1e10	1	-1e10	1	-1E+10	1	-1E+10	1	-1E+10	1
4902624	32	C	05/07/2025	20:37	-127.488	48.558	0	223.40	0	6.9219	0	33.9273	0	26.587	0	221.394	0	81.4	4	27.5	4	-1E+10	1	0.0459	4	0.000402	0	-1E+10	1	-1E+10	1	-1E+10	1
4902624	32	C	05/07/2025	20:37	-127.488	48.558	0	224.60	0	6.9175	0	33.9286	0	26.589	0	222.583	0	80.8	4	27.3	4	-1E+10	1	0.0480	4	0.000429	0	-1E+10	1	-1E+10	1	-1E+10	1
4902624	32	C	05/07/2025	20:37	-127.488	48.558	0	225.00	0	6.9160	0	33.9290	0	26.590	0	222.979	0	-1e10	1	-1e10	1	-1E+10	1	-1e10	1	-1e10	1	-1E+10	1	-1E+10	1	-1E+10	1
4902624	32	C	05/07/2025	20:37	-127.488	48.558	0	225.80	0	6.9200	0	33.9302	0	26.590	0	223.771	0	80.1	4	27.0	4	-1E+10	1	0.0292	4	0.000489	0	-1E+10	1	-1E+10	1	-1E+10	1
4902624	32	C	05/07/2025	20:37	-127.488	48.558	0	227.00	0	6.9260	0	33.9320	0	26.591	0	224.960	0	78.0	4	26.3	4	-1E+10	1	0.0365	4	0.000515	0	-1E+10	1	-1E+10	1	-1E+10	1
4902624	32	C	05/07/2025	20:37	-127.488	48.558	0	228.20	0	6.9311	0	33.9349	0	26.592	0	226.149	0	79.1	4	26.7	4	-1E+10	1	0.0540	4	0.000494	0	-1E+10	1	-1E+10	1	-1E+10	1
4902624	32	C	05/07/2025	20:37	-127.488	48.558	0	229.10	0	6.9350	0	33.9370	0	26.593	0	227.040	0	-1e10	1	-1e10	1	-1E+10	1	-1e10	1	-1e10	1	-1E+10	1	-1E+10	1	-1E+10	1
4902624	32	C	05/07/2025	20:37	-127.488	48.558	0	229.40	0	6.9372	0	33.9378	0	26.594	0	227.337	0	78.6	4	26.5	4	-1E+10	1	0.0584	4	0.000481	0	-1E+10	1	-1E+10	1	-1E+10	1
4902624	32	C	05/07/2025	20:37	-127.488	48.558	0	230.60	0	6.9461	0	33.9409	0	26.595	0	228.526	0	78.3	4	26.5	4	-1E+10	1	0.0627	4	0.000525	0	-1E+10	1	-1E+10	1	-1E+10	1
4902624	32	C	05/07/2025	20:37	-127.488	48.558	0	231.00	0	6.9490	0	33.9420	0	26.595	0	228.922	0	-1e10	1	-1e10	1	-1E+10	1	-1e10	1	-1e10	1	-1E+10	1	-1E+10	1	-1E+10	1
4902624	32	C	05/07/2025	20:37	-127.488	48.558	0	231.80	0	6.9519	0	33.9433	0	26.596	0	229.714	0	78.2	4	26.4	4	-1E+10	1	0.0623	4	0.000543	0	-1E+10	1	-1E+10	1	-1E+10	1
4902624	32	C	05/07/2025	20:37	-127.488	48.558	0	232.90	0	6.9560	0	33.9450	0	26.597	0	230.804	0	-1e10	1	-1e10	1	-1E+10	1	-1e10	1	-1e10	1	-1E+10	1	-1E+10	1	-1E+10	1
4902624	32	C	05/07/2025	20:37	-127.488	48.558	0	233.10	0	6.9554	0	33.9451	0	26.597	0	231.002	0	78.1	4	26.4	4	-1E+10	1	0.0584	4	0.000507	0	-1E+10	1	-1E+10	1	-1E+10	1
4902624	32	C	05/07/2025	20:37	-127.488	48.558	0	234.30	0	6.9520	0	33.9457	0	26.598	0	232.190	0	77.9	4	26.3	4	-1E+10	1	0.0584	4	0.000499	0	-1E+10	1	-1E+10	1	-1E+10	1
4902624	32	C	05/07/2025	20:37	-127.488	48.558	0	235.00	0	6.9500	0	33.9460	0	26.598	0	232.884	0	-1e10	1	-1e10	1	-1E+10	1	-1e10	1	-1e10	1	-1E+10	1	-1E+10	1	-1E+10	1
4902624	32	C	05/07/2025	20:37	-127.488	48.558	0	235.50	0	6.9464	0	33.9462	0	26.599	0	233.379	0	77.8	4	26.3	4	-1E+10	1	0.0574	4	0.000566	0	-1E+10	1	-1E+10	1	-1E+10	1
4902624	32	C	05/07/2025	20:37	-127.488	48.558	0	236.70	0	6.9379	0	33.9468	0	26.601	0	234.567	0	77.7	4	26.2	4	-1E+10	1	0.0511	4	0.000536	0	-1E+10	1	-1E+10	1	-1E+10	1
4902624	32	C	05/07/2025	20:37	-127.488	48.558	0	237.10	0	6.9350	0	33.9470	0	26.601	0	234.963	0	-1e10	1	-1e10	1	-1E+10	1	-1e10	1	-1e10	1	-1E+10	1	-1E+10	1	-1E+10	1
4902624	32	C	05/07/2025	20:37	-127.488	48.558	0	237.90	0	6.9312	0	33.9470	0	26.602	0	235.756	0	77.6	4	26.2	4	-1E+10	1	0.0574	4	0.000526	0	-1E+10	1	-1E+10	1	-1E+10	1
4902624	32	C	05/07/2025	20:37	-127.488	48.558	0	239.00	0	6.9260	0	33.9470	0	26.603	0	236.845	0	-1e10	1	-1e10	1	-1E+10	1	-1e10	1	-1e10	1	-1E+10	1	-1E+10	1	-1E+10	1
4902624	32	C	05/07/2025	20:37	-127.488	48.558	0	239.10	0	6.9249	0	33.9471	0	26.603	0	236.944	0	77.5	4	26.2	4	-1E+10	1	0.0584	4	0.000551	0	-1E+10	1	-1E+10	1	-1E+10	1
4902624	32	C	05/07/2025	20:37	-127.488	48.558	0	240.40	0	6.9113	0	33.9477	0	26.605	0	238.232	0	77.3	4	26.1	4	-1E+10	1	0.0532	4	0.000559	0	-1E+10	1	-1E+10	1	-1E+10	1
4902624	32	C	05/07/2025	20:37	-127.488	48.558	0	240.90	0	6.9060	0	33.9480	0	26.606	0	238.727	0	-1e10	1	-1e10	1	-1E+10	1	-1e10	1	-1e10	1	-1E+10	1	-1E+10	1	-1E+10	1
4902624	32	C	05/07/2025	20:37	-127.488	48.558	0	241.50	0	6.8988	0	33.9483	0	26.607	0	239.321	0	77.1	4	26.0	4	-1E+10	1	0.0647	4	0.000565	0	-1E+10	1	-1E+10	1	-1E+10	1
4902624	32	C	05/07/2025	20:37	-127.488	48.558	0	242.80	0	6.8832	0	33.9490	0	26.610	0	240.609	0	76.9	4	25.9	4	-1E+10	1	0.0620	4	0.000537	0	-1E+10	1	-1E+10	1	-1E+10	1
4902624	32	C	05/07/2025	20:37	-127.488	48.558	0	242.90	0	6.8820	0	33.9490	0	26.610	0	240.708	0	-1e10	1	-1e10	1	-1E+10	1	-1e10	1	-1e10	1	-1E+10	1	-1E+10	1	-1E+10	1
4902624	32	C	05/07/2025	20:37	-127.488	48.558	0	244.00	0	6.8721	0	33.9506	0	26.613	0	241.797	0	76.8	4	25.9	4	-1E+10	1	0.0438	4	0.000520	0	-1E+10	1	-1E+10	1	-1E+10	1
4902624	32	C	05/07/2025	20:37	-127.488	48.558	0	244.90	0	6.8640	0	33.9520	0	26.615	0	242.689	0	-1e10	1	-1e10	1	-1E+10	1	-1e10	1	-1e10	1	-1E+10	1	-1E+10	1	-1E+10	1
4902624	32	C	05/07/2025	20:37	-127.488	48.558	0	245.30	0	6.8608	0	33.9522	0	26.616	0	243.085	0	76.7	4	25.9	4	-1E+10	1	0.0569	4	0.000561	0	-1E+10	1	-1E+10	1	-1E+10	1
4902624	32	C	05/07/2025	20:37	-127.488	48.558	0	246.50	0	6.8510	0	33.9528	0	26.617	0	244.273	0	76.7	4	25.9	4	-1E+10	1	0.0511	4	0.000477	0	-1E+10	1	-1E+10	1	-1E+10	1
4902624	32	C	05/07/2025	20:37	-127.488	48.558	0	247.00	0	6.8470	0	33.9530	0	26.618	0	244.768	0	-1e10	1	-1e10	1	-1E+10	1	-1e10	1	-1e10	1	-1E+10	1	-1E+10	1	-1E+10	1
4902624	32	C	05/07/2025	20:37	-127.488	48.558	0	247.70	0	6.8357	0	33.9527	0	26.619	0	245.462	0	76.7	4	25.8	4	-1E+10	1	0.0584	4	0.000512	0	-1E+10	1	-1E+10	1	-1E+10	1
4902624	32	C	05/07/2025	20:37	-127.488	48.558	0	248.90	0	6.8162	0	33.9521	0	26.622	0	246.650	0	76.5	4	25.8	4	-1E+10	1	0.0526	4	0.000493	0	-1E+10	1	-1E+10	1	-1E+10	1
4902624	32	C	05/07/2025	20:37	-127.488	48.558	0	249.10	0	6.8130	0	33.9520	0	26.622	0	246.848	0	-1e10	1	-1e10	1	-1E+10	1	-1e10	1	-1e10	1	-1E+10	1	-1E+10	1	-1E+10	1
4902624	32	C	05/07/2025	20:37	-127.488	48.558	0	250.20	0	6.8081	0	33.9515	0	26.622	0	247.938	0	76.1	4	25.6	4	-1E+10	1	0.0511	4	0.000536	0	-1E+10	1	-1E+10	1	-1E+10	1
4902624	32	C	05/07/2025	20:37	-127.488	48.558	0	251.10	0	6.8040	0	33.9510	0	26.622	0	248.829	0	-1e10	1	-1e10	1	-1E+10	1	-1e10	1	-1e10	1	-1E+10	1	-1E+10	1	-1E+10	1
4902624	32	C	05/07/2025	20:37	-127.488	48.558	0	251.40	0	6.8013	0	33.9510	0	26.623	0	249.126	0	75.7	4	25.5	4	-1E+10	1	0.0554	4	0.000511	0	-1E+10	1	-1E+10	1	-1E+10	1
4902624	32	C	05/07/2025	20:37	-127.488	48.558	0	252.70	0	6.7897	0	33.9510	0	26.624	0	250.413	0	75.2	4	25.3	4	-1E+10	1	0.0584	4	0.000477	0	-1E+10	1	-1E+10	1	-1E+10	1
4902624	32	C	05/07/2025	20:37	-127.488	48.558	0	253.00	0	6.7870	0	33.9510	0	26.625	0	250.711	0	-1e10	1	-1e10	1	-1E+10	1	-1e10	1	-1e10	1	-1E+10	1	-1E+10	1	-1E+10	1
4902624	32	C	05/07/2025	20:37	-127.488	48.558	0	253.90	0	6.7816	0	33.9528	0	26.627	0	251.602	0	74.6	4	25.1	4	-1E+10	1	0.0584	4	0.000508	0	-1E+10	1	-1E+10	1	-1E+10	1
4902624	32	C	05/07/2025	20:37	-127.488	48.558	0	255.00	0	6.7750	0	33.9550	0	26.629	0	252.691	0	-1e10	1	-1e10	1	-1E+10	1	-1e10	1	-1e10	1	-1E+10	1	-1E+10	1	-1E+10	1
4902624	32	C	05/07/2025	20:37	-127.488	48.558	0	255.10	0	6.7746	0	33.9551	0	26.630	0	252.790	0	74.2	4	25.0	4	-1E+10	1	0.0596	4	0.000575	0	-1E+10	1	-1E+10	1	-1E+10	1
4902624	32	C	05/07/2025	20:37	-127.488	48.558	0	256.40	0	6.7694	0	33.9564	0	26.631	0	254.078	0	73.8	4	24.8	4	-1E+10	1	0.0657	4	0.000587	0	-1E+10	1	-1E+10	1	-1E+10	1
4902624	32	C	05/07/2025	20:37	-127.488	48.558	0	257.00	0	6.7670	0	33.9570	0	26.632	0	254.672	0	-1e10	1	-1e10	1	-1E+10	1	-1e10	1	-1e10	1	-1E+10	1	-1E+10	1	-1E+10	1
4902624	32	C	05/07/2025	20:37	-127.488	48.558	0	257.60	0	6.7637	0	33.9579	0	26.633	0	255.266	0	73.3	4	24.7	4	-1E+10	1	0.0657	4	0.000559	0	-1E+10	1	-1E+10	1	-1E+10	1
4902624	32	C	05/07/2025	20:37	-127.488	48.558	0	258.90	0	6.7565	0	33.9599	0	26.636	0	256.553	0	72.8	4	24.5	4	-1E+10	1	0.0594	4	0.000447	0	-1E+10	1	-1E+10	1	-1E+10	1
4902624	32	C	05/07/2025	20:37	-127.488	48.558	0	259.00	0	6.7560	0	33.9600	0	26.636	0	256.653	0	-1e10	1	-1e10	1	-1E+10	1	-1e10	1	-1e10	1	-1E+10	1	-1E+10	1	-1E+10	1
4902624	32	C	05/07/2025	20:37	-127.488	48.558	0	260.10	0	6.7593	0	33.9633	0	26.638	0	257.742	0	72.3	4	24.3	4	-1E+10	1	0.0584	4	0.000457	0	-1E+10	1	-1E+10	1	-1E+10	1
4902624	32	C	05/07/2025	20:37	-127.488	48.558	0	261.00	0	6.7620	0	33.9660	0	26.640	0	258.633	0	-1e10	1	-1e10	1	-1E+10	1	-1e10	1	-1e10	1	-1E+10	1	-1E+10	1	-1E+10	1
4902624	32	C	05/07/2025	20:37	-127.488	48.558	0	261.40	0	6.7608	0	33.9664	0	26.640	0	259.029	0	71.9	4	24.2	4	-1E+10	1	0.0487	4	0.000489	0	-1E+10	1	-1E+10	1	-1E+10	1
4902624	32	C	05/07/2025	20:37	-127.488	48.558	0	262.60	0	6.7572	0	33.9676	0	26.642	0	260.218	0	71.5	4	24.1	4	-1E+10	1	0.0540	4	0.000489	0	-1E+10	1	-1E+10	1	-1E+10	1
4902624	32	C	05/07/2025	20:37	-127.488	48.558	0	263.00	0	6.7560	0	33.9680	0	26.642	0	260.614	0	-1e10	1	-1e10	1	-1E+10	1	-1e10	1	-1e10	1	-1E+10	1	-1E+10	1	-1E+10	1
4902624	32	C	05/07/2025	20:37	-127.488	48.558	0	263.90	0	6.7537	0	33.9684	0	26.643	0	261.505	0	71.1	4	23.9	4	-1E+10	1	0.0566	4	0.000677	0	-1E+10	1	-1E+10	1	-1E+10	1
4902624	32	C	05/07/2025	20:37	-127.488	48.558	0	265.00	0	6.7510	0	33.9690	0	26.644	0	262.594	0	-1e10	1	-1e10	1	-1E+10	1	-1e10	1	-1e10	1	-1E+10	1	-1E+10	1	-1E+10	1
4902624	32	C	05/07/2025	20:37	-127.488	48.558	0	265.10	0	6.7497	0	33.9692	0	26.644	0	262.693	0	70.6	4	23.7	4	-1E+10	1	0.0462	4	0.001853	0	-1E+10	1	-1E+10	1	-1E+10	1
4902624	32	C	05/07/2025	20:37	-127.488	48.558	0	266.40	0	6.7328	0	33.9718	0	26.648	0	263.981	0	70.1	4	23.6	4	-1E+10	1	0.0526	4	0.003025	0	-1E+10	1	-1E+10	1	-1E+10	1
4902624	32	C	05/07/2025	20:37	-127.488	48.558	0	267.00	0	6.7250	0	33.9730	0	26.650	0	264.575	0	-1e10	1	-1e10	1	-1E+10	1	-1e10	1	-1e10	1	-1E+10	1	-1E+10	1	-1E+10	1
4902624	32	C	05/07/2025	20:37	-127.488	48.558	0	267.60	0	6.7184	0	33.9736	0	26.652	0	265.169	0	69.8	4	23.4	4	-1E+10	1	0.0584	4	0.000547	0	-1E+10	1	-1E+10	1	-1E+10	1
4902624	32	C	05/07/2025	20:37	-127.488	48.558	0	268.90	0	6.7041	0	33.9749	0	26.655	0	266.456	0	69.4	4	23.3	4	-1E+10	1	0.0803	4	0.000442	0	-1E+10	1	-1E+10	1	-1E+10	1
4902624	32	C	05/07/2025	20:37	-127.488	48.558	0	269.00	0	6.7030	0	33.9750	0	26.655	0	266.555	0	-1e10	1	-1e10	1	-1E+10	1	-1e10	1	-1e10	1	-1E+10	1	-1E+10	1	-1E+10	1
4902624	32	C	05/07/2025	20:37	-127.488	48.558	0	270.10	0	6.6915	0	33.9750	0	26.657	0	267.645	0	69.0	4	23.2	4	-1E+10	1	0.0569	4	0.000423	0	-1E+10	1	-1E+10	1	-1E+10	1
4902624	32	C	05/07/2025	20:37	-127.488	48.558	0	271.00	0	6.6820	0	33.9750	0	26.658	0	268.536	0	-1e10	1	-1e10	1	-1E+10	1	-1e10	1	-1e10	1	-1E+10	1	-1E+10	1	-1E+10	1
4902624	32	C	05/07/2025	20:37	-127.488	48.558	0	271.40	0	6.6786	0	33.9752	0	26.658	0	268.932	0	68.5	4	23.0	4	-1E+10	1	0.0511	4	0.000426	0	-1E+10	1	-1E+10	1	-1E+10	1
4902624	32	C	05/07/2025	20:37	-127.488	48.558	0	272.70	0	6.6676	0	33.9759	0	26.660	0	270.219	0	68.0	4	22.8	4	-1E+10	1	0.0462	4	0.000461	0	-1E+10	1	-1E+10	1	-1E+10	1
4902624	32	C	05/07/2025	20:37	-127.488	48.558	0	273.00	0	6.6650	0	33.9760	0	26.661	0	270.516	0	-1e10	1	-1e10	1	-1E+10	1	-1e10	1	-1e10	1	-1E+10	1	-1E+10	1	-1E+10	1
4902624	32	C	05/07/2025	20:37	-127.488	48.558	0	273.90	0	6.6556	0	33.9778	0	26.664	0	271.408	0	67.6	4	22.7	4	-1E+10	1	0.0516	4	0.000489	0	-1E+10	1	-1E+10	1	-1E+10	1
4902624	32	C	05/07/2025	20:37	-127.488	48.558	0	275.00	0	6.6440	0	33.9800	0	26.667	0	272.497	0	-1e10	1	-1e10	1	-1E+10	1	-1e10	1	-1e10	1	-1E+10	1	-1E+10	1	-1E+10	1
4902624	32	C	05/07/2025	20:37	-127.488	48.558	0	275.10	0	6.6431	0	33.9801	0	26.667	0	272.596	0	67.3	4	22.6	4	-1E+10	1	0.0560	4	0.000504	0	-1E+10	1	-1E+10	1	-1E+10	1
4902624	32	C	05/07/2025	20:37	-127.488	48.558	0	276.30	0	6.6329	0	33.9813	0	26.669	0	273.784	0	67.0	4	22.5	4	-1E+10	1	0.0523	4	0.000506	0	-1E+10	1	-1E+10	1	-1E+10	1
4902624	32	C	05/07/2025	20:37	-127.488	48.558	0	277.00	0	6.6270	0	33.9820	0	26.671	0	274.477	0	-1e10	1	-1e10	1	-1E+10	1	-1e10	1	-1e10	1	-1E+10	1	-1E+10	1	-1E+10	1
4902624	32	C	05/07/2025	20:37	-127.488	48.558	0	277.60	0	6.6210	0	33.9823	0	26.672	0	275.072	0	66.6	4	22.3	4	-1E+10	1	0.0540	4	0.000472	0	-1E+10	1	-1E+10	1	-1E+10	1
4902624	32	C	05/07/2025	20:37	-127.488	48.558	0	278.80	0	6.6090	0	33.9829	0	26.674	0	276.260	0	66.3	4	22.2	4	-1E+10	1	0.0365	4	0.000453	0	-1E+10	1	-1E+10	1	-1E+10	1
4902624	32	C	05/07/2025	20:37	-127.488	48.558	0	279.00	0	6.6070	0	33.9830	0	26.674	0	276.458	0	-1e10	1	-1e10	1	-1E+10	1	-1e10	1	-1e10	1	-1E+10	1	-1E+10	1	-1E+10	1
4902624	32	C	05/07/2025	20:37	-127.488	48.558	0	280.10	0	6.5827	0	33.9824	0	26.677	0	277.547	0	66.0	4	22.1	4	-1E+10	1	0.0555	4	0.000463	0	-1E+10	1	-1E+10	1	-1E+10	1
4902624	32	C	05/07/2025	20:37	-127.488	48.558	0	280.90	0	6.5650	0	33.9820	0	26.679	0	278.339	0	-1e10	1	-1e10	1	-1E+10	1	-1e10	1	-1e10	1	-1E+10	1	-1E+10	1	-1E+10	1
4902624	32	C	05/07/2025	20:37	-127.488	48.558	0	281.30	0	6.5568	0	33.9826	0	26.680	0	278.735	0	65.7	4	22.0	4	-1E+10	1	0.0640	4	0.000763	0	-1E+10	1	-1E+10	1	-1E+10	1
4902624	32	C	05/07/2025	20:37	-127.488	48.558	0	282.50	0	6.5322	0	33.9844	0	26.685	0	279.924	0	65.4	4	21.9	4	-1E+10	1	0.0610	4	0.000618	0	-1E+10	1	-1E+10	1	-1E+10	1
4902624	32	C	05/07/2025	20:37	-127.488	48.558	0	282.90	0	6.5240	0	33.9850	0	26.687	0	280.320	0	-1e10	1	-1e10	1	-1E+10	1	-1e10	1	-1e10	1	-1E+10	1	-1E+10	1	-1E+10	1
4902624	32	C	05/07/2025	20:37	-127.488	48.558	0	283.80	0	6.5150	0	33.9854	0	26.688	0	281.211	0	65.2	4	21.8	4	-1E+10	1	0.0545	4	0.000482	0	-1E+10	1	-1E+10	1	-1E+10	1
4902624	32	C	05/07/2025	20:37	-127.488	48.558	0	285.00	0	6.5030	0	33.9860	0	26.690	0	282.399	0	63.7	4	21.3	4	-1E+10	1	0.0541	4	0.000481	0	-1E+10	1	-1E+10	1	-1E+10	1
4902624	32	C	05/07/2025	20:37	-127.488	48.558	0	286.20	0	6.4973	0	33.9866	0	26.691	0	283.587	0	64.8	4	21.7	4	-1E+10	1	0.0584	4	0.000473	0	-1E+10	1	-1E+10	1	-1E+10	1
4902624	32	C	05/07/2025	20:37	-127.488	48.558	0	287.10	0	6.4930	0	33.9870	0	26.692	0	284.479	0	-1e10	1	-1e10	1	-1E+10	1	-1e10	1	-1e10	1	-1E+10	1	-1E+10	1	-1E+10	1
4902624	32	C	05/07/2025	20:37	-127.488	48.558	0	287.40	0	6.4925	0	33.9872	0	26.693	0	284.776	0	64.6	4	21.6	4	-1E+10	1	0.0565	4	0.000437	0	-1E+10	1	-1E+10	1	-1E+10	1
4902624	32	C	05/07/2025	20:37	-127.488	48.558	0	288.70	0	6.4905	0	33.9878	0	26.693	0	286.063	0	64.3	4	21.5	4	-1E+10	1	0.0438	4	0.000406	0	-1E+10	1	-1E+10	1	-1E+10	1
4902624	32	C	05/07/2025	20:37	-127.488	48.558	0	289.00	0	6.4900	0	33.9880	0	26.694	0	286.360	0	-1e10	1	-1e10	1	-1E+10	1	-1e10	1	-1e10	1	-1E+10	1	-1E+10	1	-1E+10	1
4902624	32	C	05/07/2025	20:37	-127.488	48.558	0	289.90	0	6.4862	0	33.9885	0	26.694	0	287.251	0	64.1	4	21.4	4	-1E+10	1	0.0511	4	0.000441	0	-1E+10	1	-1E+10	1	-1E+10	1
4902624	32	C	05/07/2025	20:37	-127.488	48.558	0	290.90	0	6.4820	0	33.9890	0	26.695	0	288.241	0	-1e10	1	-1e10	1	-1E+10	1	-1e10	1	-1e10	1	-1E+10	1	-1E+10	1	-1E+10	1
4902624	32	C	05/07/2025	20:37	-127.488	48.558	0	291.10	0	6.4790	0	33.9891	0	26.696	0	288.439	0	63.9	4	21.3	4	-1E+10	1	0.0574	4	0.000411	0	-1E+10	1	-1E+10	1	-1E+10	1
4902624	32	C	05/07/2025	20:37	-127.488	48.558	0	292.30	0	6.4607	0	33.9897	0	26.699	0	289.627	0	63.6	4	21.3	4	-1E+10	1	0.0532	4	0.000590	0	-1E+10	1	-1E+10	1	-1E+10	1
4902624	32	C	05/07/2025	20:37	-127.488	48.558	0	293.00	0	6.4500	0	33.9900	0	26.700	0	290.321	0	-1e10	1	-1e10	1	-1E+10	1	-1e10	1	-1e10	1	-1E+10	1	-1E+10	1	-1E+10	1
4902624	32	C	05/07/2025	20:37	-127.488	48.558	0	293.50	0	6.4430	0	33.9900	0	26.701	0	290.816	0	63.4	4	21.2	4	-1E+10	1	0.0556	4	0.000628	0	-1E+10	1	-1E+10	1	-1E+10	1
4902624	32	C	05/07/2025	20:37	-127.488	48.558	0	294.70	0	6.4262	0	33.9900	0	26.704	0	292.004	0	63.2	4	21.1	4	-1E+10	1	0.0620	4	0.000564	0	-1E+10	1	-1E+10	1	-1E+10	1
4902624	32	C	05/07/2025	20:37	-127.488	48.558	0	295.00	0	6.4220	0	33.9900	0	26.704	0	292.301	0	-1e10	1	-1e10	1	-1E+10	1	-1e10	1	-1e10	1	-1E+10	1	-1E+10	1	-1E+10	1
4902624	32	C	05/07/2025	20:37	-127.488	48.558	0	295.90	0	6.4168	0	33.9905	0	26.705	0	293.192	0	63.0	4	21.0	4	-1E+10	1	0.0591	4	0.000491	0	-1E+10	1	-1E+10	1	-1E+10	1
4902624	32	C	05/07/2025	20:37	-127.488	48.558	0	296.90	0	6.4110	0	33.9910	0	26.706	0	294.182	0	61.6	4	20.6	4	-1E+10	1	0.0482	4	0.000420	0	-1E+10	1	-1E+10	1	-1E+10	1
4902624	32	C	05/07/2025	20:37	-127.488	48.558	0	297.90	0	6.4010	0	33.9924	0	26.709	0	295.172	0	62.7	4	20.9	4	-1E+10	1	0.0449	4	0.000373	0	-1E+10	1	-1E+10	1	-1E+10	1
4902624	32	C	05/07/2025	20:37	-127.488	48.558	0	299.00	0	6.3900	0	33.9940	0	26.711	0	296.261	0	-1e10	1	-1e10	1	-1E+10	1	-1e10	1	-1e10	1	-1E+10	1	-1E+10	1	-1E+10	1
4902624	32	C	05/07/2025	20:37	-127.488	48.558	0	305.20	0	6.3500	0	33.9960	0	26.718	0	302.400	0	-1e10	1	-1e10	1	-1E+10	1	-1e10	1	-1e10	1	-1E+10	1	-1E+10	1	-1E+10	1
4902624	32	C	05/07/2025	20:37	-127.488	48.558	0	305.90	0	6.3433	0	33.9960	0	26.719	0	303.093	0	61.4	4	20.5	4	-1E+10	1	0.0649	4	0.000406	0	-1E+10	1	-1E+10	1	-1E+10	1
4902624	32	C	05/07/2025	20:37	-127.488	48.558	0	314.20	0	6.2637	0	33.9960	0	26.729	0	311.311	0	60.1	4	20.0	4	-1E+10	1	0.0445	4	0.000415	0	-1E+10	1	-1E+10	1	-1E+10	1
4902624	32	C	05/07/2025	20:37	-127.488	48.558	0	315.00	0	6.2560	0	33.9960	0	26.730	0	312.103	0	-1e10	1	-1e10	1	-1E+10	1	-1e10	1	-1e10	1	-1E+10	1	-1E+10	1	-1E+10	1
4902624	32	C	05/07/2025	20:37	-127.488	48.558	0	322.70	0	6.1696	0	33.9999	0	26.745	0	319.726	0	57.9	4	19.2	4	-1E+10	1	0.0581	4	0.000371	0	-1E+10	1	-1E+10	1	-1E+10	1
4902624	32	C	05/07/2025	20:37	-127.488	48.558	0	324.80	0	6.1460	0	34.0010	0	26.749	0	321.805	0	-1e10	1	-1e10	1	-1E+10	1	-1e10	1	-1e10	1	-1E+10	1	-1E+10	1	-1E+10	1
4902624	32	C	05/07/2025	20:37	-127.488	48.558	0	331.50	0	6.0980	0	34.0036	0	26.757	0	328.438	0	56.7	4	18.8	4	-1E+10	1	0.0511	4	0.000372	0	-1E+10	1	-1E+10	1	-1E+10	1
4902624	32	C	05/07/2025	20:37	-127.488	48.558	0	335.00	0	6.0730	0	34.0050	0	26.761	0	331.903	0	-1e10	1	-1e10	1	-1E+10	1	-1e10	1	-1e10	1	-1E+10	1	-1E+10	1	-1E+10	1
4902624	32	C	05/07/2025	20:37	-127.488	48.558	0	340.70	0	6.0531	0	34.0061	0	26.764	0	337.545	0	55.7	4	18.4	4	-1E+10	1	0.0508	4	0.000403	0	-1E+10	1	-1E+10	1	-1E+10	1
4902624	32	C	05/07/2025	20:37	-127.488	48.558	0	345.00	0	6.0380	0	34.0070	0	26.767	0	341.802	0	-1e10	1	-1e10	1	-1E+10	1	-1e10	1	-1e10	1	-1E+10	1	-1E+10	1	-1E+10	1
4902624	32	C	05/07/2025	20:37	-127.488	48.558	0	350.10	0	6.0186	0	34.0085	0	26.771	0	346.851	0	54.2	4	17.9	4	-1E+10	1	0.0441	4	0.000337	0	-1E+10	1	-1E+10	1	-1E+10	1
4902624	32	C	05/07/2025	20:37	-127.488	48.558	0	355.00	0	6.0000	0	34.0100	0	26.774	0	351.701	0	-1e10	1	-1e10	1	-1E+10	1	-1e10	1	-1e10	1	-1E+10	1	-1E+10	1	-1E+10	1
4902624	32	C	05/07/2025	20:37	-127.488	48.558	0	359.60	0	5.9605	0	34.0128	0	26.782	0	356.254	0	51.8	4	17.1	4	-1E+10	1	0.0529	4	0.000378	0	-1E+10	1	-1E+10	1	-1E+10	1
4902624	32	C	05/07/2025	20:37	-127.488	48.558	0	364.90	0	5.9150	0	34.0160	0	26.790	0	361.500	0	-1e10	1	-1e10	1	-1E+10	1	-1e10	1	-1e10	1	-1E+10	1	-1E+10	1	-1E+10	1
4902624	32	C	05/07/2025	20:37	-127.488	48.558	0	369.30	0	5.8775	0	34.0186	0	26.797	0	365.855	0	49.3	4	16.2	4	-1E+10	1	0.0931	4	0.000539	0	-1E+10	1	-1E+10	1	-1E+10	1
4902624	32	C	05/07/2025	20:37	-127.488	48.558	0	375.00	0	5.8290	0	34.0220	0	26.805	0	371.497	0	-1e10	1	-1e10	1	-1E+10	1	-1e10	1	-1e10	1	-1E+10	1	-1E+10	1	-1E+10	1
4902624	32	C	05/07/2025	20:37	-127.488	48.558	0	379.20	0	5.7783	0	34.0249	0	26.814	0	375.654	0	46.6	4	15.3	4	-1E+10	1	0.0511	4	0.000357	0	-1E+10	1	-1E+10	1	-1E+10	1
4902624	32	C	05/07/2025	20:37	-127.488	48.558	0	385.10	0	5.7070	0	34.0290	0	26.826	0	381.494	0	-1e10	1	-1e10	1	-1E+10	1	-1e10	1	-1e10	1	-1E+10	1	-1E+10	1	-1E+10	1
4902624	32	C	05/07/2025	20:37	-127.488	48.558	0	389.20	0	5.6850	0	34.0311	0	26.830	0	385.551	0	45.0	4	14.8	4	-1E+10	1	0.0517	4	0.000337	0	-1E+10	1	-1E+10	1	-1E+10	1
4902624	32	C	05/07/2025	20:37	-127.488	48.558	0	394.80	0	5.6550	0	34.0340	0	26.836	0	391.094	0	-1e10	1	-1e10	1	-1E+10	1	-1e10	1	-1e10	1	-1E+10	1	-1E+10	1	-1E+10	1
4902624	32	C	05/07/2025	20:37	-127.488	48.558	0	399.30	0	5.6356	0	34.0371	0	26.841	0	395.547	0	43.2	4	14.2	4	-1E+10	1	0.0651	4	0.000393	0	-1E+10	1	-1E+10	1	-1E+10	1
4902624	32	C	05/07/2025	20:37	-127.488	48.558	0	405.00	0	5.6110	0	34.0410	0	26.847	0	401.188	0	-1e10	1	-1e10	1	-1E+10	1	-1e10	1	-1e10	1	-1E+10	1	-1E+10	1	-1E+10	1
4902624	32	C	05/07/2025	20:37	-127.488	48.558	0	409.80	0	5.5851	0	34.0424	0	26.851	0	405.938	0	41.8	4	13.7	4	-1E+10	1	0.0517	4	0.000393	0	-1E+10	1	-1E+10	1	-1E+10	1
4902624	32	C	05/07/2025	20:37	-127.488	48.558	0	415.00	0	5.5570	0	34.0440	0	26.856	0	411.084	0	-1e10	1	-1e10	1	-1E+10	1	-1e10	1	-1e10	1	-1E+10	1	-1E+10	1	-1E+10	1
4902624	32	C	05/07/2025	20:37	-127.488	48.558	0	420.40	0	5.5228	0	34.0461	0	26.862	0	416.428	0	40.1	4	13.1	4	-1E+10	1	0.0654	4	0.000390	0	-1E+10	1	-1E+10	1	-1E+10	1
4902624	32	C	05/07/2025	20:37	-127.488	48.558	0	425.10	0	5.4930	0	34.0480	0	26.867	0	421.078	0	-1e10	1	-1e10	1	-1E+10	1	-1e10	1	-1e10	1	-1E+10	1	-1E+10	1	-1E+10	1
4902624	32	C	05/07/2025	20:37	-127.488	48.558	0	431.50	0	5.4603	0	34.0520	0	26.874	0	427.411	0	38.4	4	12.5	4	-1E+10	1	0.0578	4	0.000305	0	-1E+10	1	-1E+10	1	-1E+10	1
4902624	32	C	05/07/2025	20:37	-127.488	48.558	0	434.70	0	5.4440	0	34.0540	0	26.878	0	430.578	0	-1e10	1	-1e10	1	-1E+10	1	-1e10	1	-1e10	1	-1E+10	1	-1E+10	1	-1E+10	1
4902624	32	C	05/07/2025	20:37	-127.488	48.558	0	442.80	0	5.4197	0	34.0597	0	26.885	0	438.592	0	36.8	4	12.0	4	-1E+10	1	0.0446	4	0.000436	0	-1E+10	1	-1E+10	1	-1E+10	1
4902624	32	C	05/07/2025	20:37	-127.488	48.558	0	444.70	0	5.4140	0	34.0610	0	26.887	0	440.472	0	-1e10	1	-1e10	1	-1E+10	1	-1e10	1	-1e10	1	-1E+10	1	-1E+10	1	-1E+10	1
4902624	32	C	05/07/2025	20:37	-127.488	48.558	0	454.50	0	5.3803	0	34.0679	0	26.896	0	450.168	0	34.8	4	11.4	4	-1E+10	1	0.0654	4	0.000333	0	-1E+10	1	-1E+10	1	-1E+10	1
4902624	32	C	05/07/2025	20:37	-127.488	48.558	0	454.60	0	5.3800	0	34.0680	0	26.897	0	450.267	0	-1e10	1	-1e10	1	-1E+10	1	-1e10	1	-1e10	1	-1E+10	1	-1E+10	1	-1E+10	1
4902624	32	C	05/07/2025	20:37	-127.488	48.558	0	464.90	0	5.3350	0	34.0740	0	26.907	0	460.458	0	-1e10	1	-1e10	1	-1E+10	1	-1e10	1	-1e10	1	-1E+10	1	-1E+10	1	-1E+10	1
4902624	32	C	05/07/2025	20:37	-127.488	48.558	0	466.20	0	5.3260	0	34.0749	0	26.909	0	461.744	0	32.9	4	10.7	4	-1E+10	1	0.0590	4	0.000297	0	-1E+10	1	-1E+10	1	-1E+10	1
4902624	32	C	05/07/2025	20:37	-127.488	48.558	0	474.90	0	5.2660	0	34.0810	0	26.920	0	470.351	0	-1e10	1	-1e10	1	-1E+10	1	-1e10	1	-1e10	1	-1E+10	1	-1E+10	1	-1E+10	1
4902624	32	C	05/07/2025	20:37	-127.488	48.558	0	478.40	0	5.2416	0	34.0849	0	26.926	0	473.813	0	30.4	4	9.9	4	-1E+10	1	0.0721	4	0.000265	0	-1E+10	1	-1E+10	1	-1E+10	1
4902624	32	C	05/07/2025	20:37	-127.488	48.558	0	484.80	0	5.1970	0	34.0920	0	26.937	0	480.145	0	-1e10	1	-1e10	1	-1E+10	1	-1e10	1	-1e10	1	-1E+10	1	-1E+10	1	-1E+10	1
4902624	32	C	05/07/2025	20:37	-127.488	48.558	0	490.70	0	5.1603	0	34.0954	0	26.944	0	485.981	0	28.8	4	9.4	4	-1E+10	1	0.0515	4	0.000285	0	-1E+10	1	-1E+10	1	-1E+10	1
4902624	32	C	05/07/2025	20:37	-127.488	48.558	0	495.10	0	5.1330	0	34.0980	0	26.950	0	490.334	0	-1e10	1	-1e10	1	-1E+10	1	-1e10	1	-1e10	1	-1E+10	1	-1E+10	1	-1E+10	1
4902624	32	C	05/07/2025	20:37	-127.488	48.558	0	499.30	0	5.1160	0	34.1001	0	26.953	0	494.488	0	27.8	4	9.0	4	-1E+10	1	0.0584	4	0.000252	0	-1E+10	1	-1E+10	1	-1E+10	1
4902624	32	C	05/07/2025	20:37	-127.488	48.558	0	505.00	0	5.0930	0	34.1030	0	26.958	0	500.126	0	-1e10	1	-1e10	1	-1E+10	1	-1e10	1	-1e10	1	-1E+10	1	-1E+10	1	-1E+10	1
4902624	32	C	05/07/2025	20:37	-127.488	48.558	0	507.50	0	5.0838	0	34.1037	0	26.960	0	502.599	0	26.9	4	8.7	4	-1E+10	1	0.0584	4	0.000250	0	-1E+10	1	-1E+10	1	-1E+10	1
4902624	32	C	05/07/2025	20:37	-127.488	48.558	0	515.10	0	5.0560	0	34.1060	0	26.965	0	510.116	0	-1e10	1	-1e10	1	-1E+10	1	-1e10	1	-1e10	1	-1E+10	1	-1E+10	1	-1E+10	1
4902624	32	C	05/07/2025	20:37	-127.488	48.558	0	516.00	0	5.0543	0	34.1071	0	26.966	0	511.007	0	25.5	4	8.3	4	-1E+10	1	0.0581	4	0.000206	0	-1E+10	1	-1E+10	1	-1E+10	1
4902624	32	C	05/07/2025	20:37	-127.488	48.558	0	524.60	0	5.0381	0	34.1173	0	26.976	0	519.513	0	24.7	4	8.0	4	-1E+10	1	0.0513	4	0.000238	0	-1E+10	1	-1E+10	1	-1E+10	1
4902624	32	C	05/07/2025	20:37	-127.488	48.558	0	525.20	0	5.0370	0	34.1180	0	26.977	0	520.106	0	-1e10	1	-1e10	1	-1E+10	1	-1e10	1	-1e10	1	-1E+10	1	-1E+10	1	-1E+10	1
4902624	32	C	05/07/2025	20:37	-127.488	48.558	0	533.50	0	5.0169	0	34.1205	0	26.981	0	528.315	0	23.8	4	7.7	4	-1E+10	1	0.0581	4	0.000205	0	-1E+10	1	-1E+10	1	-1E+10	1
4902624	32	C	05/07/2025	20:37	-127.488	48.558	0	535.10	0	5.0130	0	34.1210	0	26.982	0	529.897	0	-1e10	1	-1e10	1	-1E+10	1	-1e10	1	-1e10	1	-1E+10	1	-1E+10	1	-1E+10	1
4902624	32	C	05/07/2025	20:37	-127.488	48.558	0	542.70	0	4.9666	0	34.1240	0	26.990	0	537.414	0	22.6	4	7.3	4	-1E+10	1	0.0520	4	0.000312	0	-1E+10	1	-1E+10	1	-1E+10	1
4902624	32	C	05/07/2025	20:37	-127.488	48.558	0	545.10	0	4.9520	0	34.1250	0	26.992	0	539.787	0	-1e10	1	-1e10	1	-1E+10	1	-1e10	1	-1e10	1	-1E+10	1	-1E+10	1	-1E+10	1
4902624	32	C	05/07/2025	20:37	-127.488	48.558	0	552.20	0	4.9225	0	34.1292	0	26.999	0	546.809	0	21.4	4	6.9	4	-1E+10	1	0.0727	4	0.002148	0	-1E+10	1	-1E+10	1	-1E+10	1
4902624	32	C	05/07/2025	20:37	-127.488	48.558	0	555.20	0	4.9100	0	34.1310	0	27.002	0	549.775	0	-1e10	1	-1e10	1	-1E+10	1	-1e10	1	-1e10	1	-1E+10	1	-1E+10	1	-1E+10	1
4902624	32	C	05/07/2025	20:37	-127.488	48.558	0	561.70	0	4.8664	0	34.1388	0	27.013	0	556.203	0	19.7	4	6.4	4	-1E+10	1	0.0654	4	0.000192	0	-1E+10	1	-1E+10	1	-1E+10	1
4902624	32	C	05/07/2025	20:37	-127.488	48.558	0	565.20	0	4.8430	0	34.1430	0	27.019	0	559.664	0	-1e10	1	-1e10	1	-1E+10	1	-1e10	1	-1e10	1	-1E+10	1	-1E+10	1	-1E+10	1
4902624	32	C	05/07/2025	20:37	-127.488	48.558	0	571.40	0	4.8261	0	34.1461	0	27.023	0	565.795	0	19.0	4	6.1	4	-1E+10	1	0.0582	4	0.000182	0	-1E+10	1	-1E+10	1	-1E+10	1
4902624	32	C	05/07/2025	20:37	-127.488	48.558	0	575.10	0	4.8160	0	34.1480	0	27.026	0	569.454	0	-1e10	1	-1e10	1	-1E+10	1	-1e10	1	-1e10	1	-1E+10	1	-1E+10	1	-1E+10	1
4902624	32	C	05/07/2025	20:37	-127.488	48.558	0	581.10	0	4.7938	0	34.1516	0	27.031	0	575.387	0	18.1	4	5.8	4	-1E+10	1	0.0514	4	0.000216	0	-1E+10	1	-1E+10	1	-1E+10	1
4902624	32	C	05/07/2025	20:37	-127.488	48.558	0	585.10	0	4.7790	0	34.1540	0	27.035	0	579.342	0	-1e10	1	-1e10	1	-1E+10	1	-1e10	1	-1e10	1	-1E+10	1	-1E+10	1	-1E+10	1
4902624	32	C	05/07/2025	20:37	-127.488	48.558	0	590.70	0	4.7560	0	34.1590	0	27.041	0	584.879	0	17.1	4	5.5	4	-1E+10	1	0.0587	4	0.000226	0	-1E+10	1	-1E+10	1	-1E+10	1
4902624	32	C	05/07/2025	20:37	-127.488	48.558	0	595.10	0	4.7380	0	34.1630	0	27.047	0	589.229	0	-1e10	1	-1e10	1	-1E+10	1	-1e10	1	-1e10	1	-1E+10	1	-1E+10	1	-1E+10	1
4902624	32	C	05/07/2025	20:37	-127.488	48.558	0	600.30	0	4.7263	0	34.1657	0	27.050	0	594.370	0	16.3	4	5.2	4	-1E+10	1	0.0654	4	0.000204	0	-1E+10	1	-1E+10	1	-1E+10	1
4902624	32	C	05/07/2025	20:37	-127.488	48.558	0	604.90	0	4.7160	0	34.1680	0	27.053	0	598.918	0	-1e10	1	-1e10	1	-1E+10	1	-1e10	1	-1e10	1	-1E+10	1	-1E+10	1	-1E+10	1
4902624	32	C	05/07/2025	20:37	-127.488	48.558	0	609.90	0	4.6960	0	34.1735	0	27.060	0	603.862	0	15.3	4	4.9	4	-1E+10	1	0.0584	4	0.000216	0	-1E+10	1	-1E+10	1	-1E+10	1
4902624	32	C	05/07/2025	20:37	-127.488	48.558	0	614.90	0	4.6760	0	34.1790	0	27.066	0	608.805	0	-1e10	1	-1e10	1	-1E+10	1	-1e10	1	-1e10	1	-1E+10	1	-1E+10	1	-1E+10	1
4902624	32	C	05/07/2025	20:37	-127.488	48.558	0	619.40	0	4.6622	0	34.1830	0	27.071	0	613.254	0	14.4	4	4.6	4	-1E+10	1	0.0579	4	0.000227	0	-1E+10	1	-1E+10	1	-1E+10	1
4902624	32	C	05/07/2025	20:37	-127.488	48.558	0	625.00	0	4.6450	0	34.1880	0	27.077	0	618.790	0	-1e10	1	-1e10	1	-1E+10	1	-1e10	1	-1e10	1	-1E+10	1	-1E+10	1	-1E+10	1
4902624	32	C	05/07/2025	20:37	-127.488	48.558	0	629.10	0	4.6249	0	34.1917	0	27.082	0	622.843	0	13.5	4	4.3	4	-1E+10	1	0.0441	4	0.000214	0	-1E+10	1	-1E+10	1	-1E+10	1
4902624	32	C	05/07/2025	20:37	-127.488	48.558	0	635.00	0	4.5960	0	34.1970	0	27.089	0	628.675	0	-1e10	1	-1e10	1	-1E+10	1	-1e10	1	-1e10	1	-1E+10	1	-1E+10	1	-1E+10	1
4902624	32	C	05/07/2025	20:37	-127.488	48.558	0	639.10	0	4.5738	0	34.2020	0	27.096	0	632.728	0	12.6	4	4.0	4	-1E+10	1	0.0520	4	0.000192	0	-1E+10	1	-1E+10	1	-1E+10	1
4902624	32	C	05/07/2025	20:37	-127.488	48.558	0	644.80	0	4.5430	0	34.2090	0	27.105	0	638.363	0	-1e10	1	-1e10	1	-1E+10	1	-1e10	1	-1e10	1	-1E+10	1	-1E+10	1	-1E+10	1
4902624	32	C	05/07/2025	20:37	-127.488	48.558	0	649.10	0	4.5305	0	34.2119	0	27.109	0	642.613	0	12.1	4	3.9	4	-1E+10	1	0.0724	4	0.000192	0	-1E+10	1	-1E+10	1	-1E+10	1
4902624	32	C	05/07/2025	20:37	-127.488	48.558	0	655.10	0	4.5130	0	34.2160	0	27.114	0	648.544	0	-1e10	1	-1e10	1	-1E+10	1	-1e10	1	-1e10	1	-1E+10	1	-1E+10	1	-1E+10	1
4902624	32	C	05/07/2025	20:37	-127.488	48.558	0	659.30	0	4.4952	0	34.2190	0	27.118	0	652.695	0	11.4	4	3.7	4	-1E+10	1	0.0581	4	0.000214	0	-1E+10	1	-1E+10	1	-1E+10	1
4902624	32	C	05/07/2025	20:37	-127.488	48.558	0	665.00	0	4.4710	0	34.2230	0	27.124	0	658.329	0	-1e10	1	-1e10	1	-1E+10	1	-1e10	1	-1e10	1	-1E+10	1	-1E+10	1	-1E+10	1
4902624	32	C	05/07/2025	20:37	-127.488	48.558	0	669.70	0	4.4625	0	34.2254	0	27.127	0	662.975	0	10.9	4	3.5	4	-1E+10	1	0.0514	4	0.000203	0	-1E+10	1	-1E+10	1	-1E+10	1
4902624	32	C	05/07/2025	20:37	-127.488	48.558	0	674.90	0	4.4530	0	34.2280	0	27.130	0	668.114	0	-1e10	1	-1e10	1	-1E+10	1	-1e10	1	-1e10	1	-1E+10	1	-1E+10	1	-1E+10	1
4902624	32	C	05/07/2025	20:37	-127.488	48.558	0	680.30	0	4.4407	0	34.2328	0	27.135	0	673.451	0	10.4	4	3.3	4	-1E+10	1	0.0587	4	0.000204	0	-1E+10	1	-1E+10	1	-1E+10	1
4902624	32	C	05/07/2025	20:37	-127.488	48.558	0	685.00	0	4.4300	0	34.2370	0	27.140	0	678.096	0	-1e10	1	-1e10	1	-1E+10	1	-1e10	1	-1e10	1	-1E+10	1	-1E+10	1	-1E+10	1
4902624	32	C	05/07/2025	20:37	-127.488	48.558	0	691.10	0	4.4161	0	34.2418	0	27.145	0	684.124	0	10.0	4	3.2	4	-1E+10	1	0.0654	4	0.000226	0	-1E+10	1	-1E+10	1	-1E+10	1
4902624	32	C	05/07/2025	20:37	-127.488	48.558	0	695.10	0	4.4070	0	34.2450	0	27.148	0	688.077	0	-1e10	1	-1e10	1	-1E+10	1	-1e10	1	-1e10	1	-1E+10	1	-1E+10	1	-1E+10	1
4902624	32	C	05/07/2025	20:37	-127.488	48.558	0	701.10	0	4.3794	0	34.2499	0	27.155	0	694.007	0	9.6	4	3.1	4	-1E+10	1	0.0580	4	0.000214	0	-1E+10	1	-1E+10	1	-1E+10	1
4902624	32	C	05/07/2025	20:37	-127.488	48.558	0	704.90	0	4.3620	0	34.2530	0	27.160	0	697.762	0	-1e10	1	-1e10	1	-1E+10	1	-1e10	1	-1e10	1	-1E+10	1	-1E+10	1	-1E+10	1
4902624	32	C	05/07/2025	20:37	-127.488	48.558	0	708.60	0	4.3513	0	34.2556	0	27.163	0	701.418	0	9.4	4	3.0	4	-1E+10	1	0.0452	4	0.000192	0	-1E+10	1	-1E+10	1	-1E+10	1
4902624	32	C	05/07/2025	20:37	-127.488	48.558	0	714.90	0	4.3330	0	34.2600	0	27.168	0	707.644	0	-1e10	1	-1e10	1	-1E+10	1	-1e10	1	-1e10	1	-1E+10	1	-1E+10	1	-1E+10	1
4902624	32	C	05/07/2025	20:37	-127.488	48.558	0	716.60	0	4.3298	0	34.2608	0	27.169	0	709.324	0	9.2	4	2.9	4	-1E+10	1	0.0795	4	0.000215	0	-1E+10	1	-1E+10	1	-1E+10	1
4902624	32	C	05/07/2025	20:37	-127.488	48.558	0	725.00	0	4.3140	0	34.2650	0	27.174	0	717.624	0	-1e10	1	-1e10	1	-1E+10	1	-1e10	1	-1e10	1	-1E+10	1	-1E+10	1	-1E+10	1
4902624	32	C	05/07/2025	20:37	-127.488	48.558	0	725.10	0	4.3137	0	34.2650	0	27.175	0	717.723	0	9.1	4	2.9	4	-1E+10	1	0.0587	4	0.000225	0	-1E+10	1	-1E+10	1	-1E+10	1
4902624	32	C	05/07/2025	20:37	-127.488	48.558	0	733.80	0	4.2876	0	34.2676	0	27.179	0	726.319	0	8.9	4	2.8	4	-1E+10	1	0.0660	4	0.000201	0	-1E+10	1	-1E+10	1	-1E+10	1
4902624	32	C	05/07/2025	20:37	-127.488	48.558	0	735.00	0	4.2840	0	34.2680	0	27.180	0	727.505	0	-1e10	1	-1e10	1	-1E+10	1	-1e10	1	-1e10	1	-1E+10	1	-1E+10	1	-1E+10	1
4902624	32	C	05/07/2025	20:37	-127.488	48.558	0	742.90	0	4.2638	0	34.2704	0	27.184	0	735.310	0	8.8	4	2.8	4	-1E+10	1	0.0721	4	0.000168	0	-1E+10	1	-1E+10	1	-1E+10	1
4902624	32	C	05/07/2025	20:37	-127.488	48.558	0	744.80	0	4.2590	0	34.2710	0	27.185	0	737.188	0	-1e10	1	-1e10	1	-1E+10	1	-1e10	1	-1e10	1	-1E+10	1	-1E+10	1	-1E+10	1
4902624	32	C	05/07/2025	20:37	-127.488	48.558	0	752.20	0	4.2409	0	34.2746	0	27.190	0	744.499	0	8.6	4	2.7	4	-1E+10	1	0.0516	4	0.000190	0	-1E+10	1	-1E+10	1	-1E+10	1
4902624	32	C	05/07/2025	20:37	-127.488	48.558	0	755.00	0	4.2340	0	34.2760	0	27.192	0	747.265	0	-1e10	1	-1e10	1	-1E+10	1	-1e10	1	-1e10	1	-1E+10	1	-1E+10	1	-1E+10	1
4902624	32	C	05/07/2025	20:37	-127.488	48.558	0	761.90	0	4.2174	0	34.2815	0	27.198	0	754.082	0	8.3	4	2.6	4	-1E+10	1	0.0657	4	0.000167	0	-1E+10	1	-1E+10	1	-1E+10	1
4902624	32	C	05/07/2025	20:37	-127.488	48.558	0	765.00	0	4.2100	0	34.2840	0	27.201	0	757.145	0	-1e10	1	-1e10	1	-1E+10	1	-1e10	1	-1e10	1	-1E+10	1	-1E+10	1	-1E+10	1
4902624	32	C	05/07/2025	20:37	-127.488	48.558	0	772.00	0	4.1949	0	34.2881	0	27.206	0	764.060	0	8.1	4	2.6	4	-1E+10	1	0.0657	4	0.000179	0	-1E+10	1	-1E+10	1	-1E+10	1
4902624	32	C	05/07/2025	20:37	-127.488	48.558	0	775.20	0	4.1880	0	34.2900	0	27.208	0	767.221	0	-1e10	1	-1e10	1	-1E+10	1	-1e10	1	-1e10	1	-1E+10	1	-1E+10	1	-1E+10	1
4902624	32	C	05/07/2025	20:37	-127.488	48.558	0	782.30	0	4.1701	0	34.2943	0	27.213	0	774.235	0	8.0	4	2.5	4	-1E+10	1	0.0654	4	0.000191	0	-1E+10	1	-1E+10	1	-1E+10	1
4902624	32	C	05/07/2025	20:37	-127.488	48.558	0	785.10	0	4.1630	0	34.2960	0	27.215	0	777.001	0	-1e10	1	-1e10	1	-1E+10	1	-1e10	1	-1e10	1	-1E+10	1	-1E+10	1	-1E+10	1
4902624	32	C	05/07/2025	20:37	-127.488	48.558	0	792.90	0	4.1439	0	34.3014	0	27.222	0	784.706	0	7.9	4	2.5	4	-1E+10	1	0.0587	4	0.000212	0	-1E+10	1	-1E+10	1	-1E+10	1
4902624	32	C	05/07/2025	20:37	-127.488	48.558	0	795.30	0	4.1380	0	34.3030	0	27.224	0	787.076	0	-1e10	1	-1e10	1	-1E+10	1	-1e10	1	-1e10	1	-1E+10	1	-1E+10	1	-1E+10	1
4902624	32	C	05/07/2025	20:37	-127.488	48.558	0	803.80	0	4.1035	0	34.3074	0	27.231	0	795.472	0	7.8	4	2.5	4	-1E+10	1	0.0654	4	0.000182	0	-1E+10	1	-1E+10	1	-1E+10	1
4902624	32	C	05/07/2025	20:37	-127.488	48.558	0	804.90	0	4.0990	0	34.3080	0	27.232	0	796.559	0	-1e10	1	-1e10	1	-1E+10	1	-1e10	1	-1e10	1	-1E+10	1	-1E+10	1	-1E+10	1
4902624	32	C	05/07/2025	20:37	-127.488	48.558	0	814.70	0	4.0692	0	34.3109	0	27.237	0	806.238	0	7.6	4	2.4	4	-1E+10	1	0.0584	4	0.000268	0	-1E+10	1	-1E+10	1	-1E+10	1
4902624	32	C	05/07/2025	20:37	-127.488	48.558	0	815.10	0	4.0680	0	34.3110	0	27.237	0	806.633	0	-1e10	1	-1e10	1	-1E+10	1	-1e10	1	-1e10	1	-1E+10	1	-1E+10	1	-1E+10	1
4902624	32	C	05/07/2025	20:37	-127.488	48.558	0	825.10	0	4.0170	0	34.3150	0	27.246	0	816.510	0	-1e10	1	-1e10	1	-1E+10	1	-1e10	1	-1e10	1	-1E+10	1	-1E+10	1	-1E+10	1
4902624	32	C	05/07/2025	20:37	-127.488	48.558	0	825.60	0	4.0152	0	34.3152	0	27.246	0	817.004	0	7.6	4	2.4	4	-1E+10	1	0.0584	4	0.000155	0	-1E+10	1	-1E+10	1	-1E+10	1
4902624	32	C	05/07/2025	20:37	-127.488	48.558	0	834.80	0	3.9820	0	34.3190	0	27.253	0	826.090	0	-1e10	1	-1e10	1	-1E+10	1	-1e10	1	-1e10	1	-1E+10	1	-1E+10	1	-1E+10	1
4902624	32	C	05/07/2025	20:37	-127.488	48.558	0	836.60	0	3.9799	0	34.3197	0	27.254	0	827.867	0	7.5	4	2.4	4	-1E+10	1	0.0587	4	0.000168	0	-1E+10	1	-1E+10	1	-1E+10	1
4902624	32	C	05/07/2025	20:37	-127.488	48.558	0	844.90	0	3.9700	0	34.3230	0	27.257	0	836.064	0	-1e10	1	-1e10	1	-1E+10	1	-1e10	1	-1e10	1	-1E+10	1	-1E+10	1	-1E+10	1
4902624	32	C	05/07/2025	20:37	-127.488	48.558	0	847.60	0	3.9617	0	34.3247	0	27.259	0	838.731	0	7.5	4	2.4	4	-1E+10	1	0.0649	4	0.000211	0	-1E+10	1	-1E+10	1	-1E+10	1
4902624	32	C	05/07/2025	20:37	-127.488	48.558	0	854.70	0	3.9400	0	34.3290	0	27.265	0	845.742	0	-1e10	1	-1e10	1	-1E+10	1	-1e10	1	-1e10	1	-1E+10	1	-1E+10	1	-1E+10	1
4902624	32	C	05/07/2025	20:37	-127.488	48.558	0	858.60	0	3.9314	0	34.3298	0	27.267	0	849.593	0	7.5	4	2.4	4	-1E+10	1	0.0441	4	0.000166	0	-1E+10	1	-1E+10	1	-1E+10	1
4902624	32	C	05/07/2025	20:37	-127.488	48.558	0	865.10	0	3.9170	0	34.3310	0	27.269	0	856.012	0	-1e10	1	-1e10	1	-1E+10	1	-1e10	1	-1e10	1	-1E+10	1	-1E+10	1	-1E+10	1
4902624	32	C	05/07/2025	20:37	-127.488	48.558	0	869.50	0	3.9058	0	34.3323	0	27.271	0	860.356	0	7.6	4	2.4	4	-1E+10	1	0.0514	4	0.000166	0	-1E+10	1	-1E+10	1	-1E+10	1
4902624	32	C	05/07/2025	20:37	-127.488	48.558	0	874.90	0	3.8920	0	34.3340	0	27.274	0	865.688	0	-1e10	1	-1e10	1	-1E+10	1	-1e10	1	-1e10	1	-1E+10	1	-1E+10	1	-1E+10	1
4902624	32	C	05/07/2025	20:37	-127.488	48.558	0	880.20	0	3.8803	0	34.3382	0	27.279	0	870.922	0	7.6	4	2.4	4	-1E+10	1	0.0584	4	0.000177	0	-1E+10	1	-1E+10	1	-1E+10	1
4902624	32	C	05/07/2025	20:37	-127.488	48.558	0	884.90	0	3.8700	0	34.3420	0	27.283	0	875.562	0	-1e10	1	-1e10	1	-1E+10	1	-1e10	1	-1e10	1	-1E+10	1	-1E+10	1	-1E+10	1
4902624	32	C	05/07/2025	20:37	-127.488	48.558	0	890.80	0	3.8566	0	34.3449	0	27.286	0	881.387	0	7.6	4	2.4	4	-1E+10	1	0.0584	4	0.000154	0	-1E+10	1	-1E+10	1	-1E+10	1
4902624	32	C	05/07/2025	20:37	-127.488	48.558	0	895.00	0	3.8470	0	34.3470	0	27.289	0	885.534	0	-1e10	1	-1e10	1	-1E+10	1	-1e10	1	-1e10	1	-1E+10	1	-1E+10	1	-1E+10	1
4902624	32	C	05/07/2025	20:37	-127.488	48.558	0	901.40	0	3.8238	0	34.3514	0	27.295	0	891.853	0	7.6	4	2.4	4	-1E+10	1	0.0590	4	0.000165	0	-1E+10	1	-1E+10	1	-1E+10	1
4902624	32	C	05/07/2025	20:37	-127.488	48.558	0	905.20	0	3.8100	0	34.3540	0	27.298	0	895.605	0	-1e10	1	-1e10	1	-1E+10	1	-1e10	1	-1e10	1	-1E+10	1	-1E+10	1	-1E+10	1
4902624	32	C	05/07/2025	20:37	-127.488	48.558	0	912.00	0	3.7894	0	34.3568	0	27.303	0	902.318	0	7.8	4	2.4	4	-1E+10	1	0.0722	4	0.000166	0	-1E+10	1	-1E+10	1	-1E+10	1
4902624	32	C	05/07/2025	20:37	-127.488	48.558	0	915.10	0	3.7800	0	34.3580	0	27.305	0	905.378	0	-1e10	1	-1e10	1	-1E+10	1	-1e10	1	-1e10	1	-1E+10	1	-1E+10	1	-1E+10	1
4902624	32	C	05/07/2025	20:37	-127.488	48.558	0	922.80	0	3.7554	0	34.3611	0	27.310	0	912.980	0	7.8	4	2.5	4	-1E+10	1	0.0511	4	0.000176	0	-1E+10	1	-1E+10	1	-1E+10	1
4902624	32	C	05/07/2025	20:37	-127.488	48.558	0	925.10	0	3.7480	0	34.3620	0	27.311	0	915.250	0	-1e10	1	-1e10	1	-1E+10	1	-1e10	1	-1e10	1	-1E+10	1	-1E+10	1	-1E+10	1
4902624	32	C	05/07/2025	20:37	-127.488	48.558	0	933.50	0	3.7272	0	34.3655	0	27.316	0	923.542	0	8.0	4	2.5	4	-1E+10	1	0.0514	4	0.000154	0	-1E+10	1	-1E+10	1	-1E+10	1
4902624	32	C	05/07/2025	20:37	-127.488	48.558	0	934.80	0	3.7240	0	34.3660	0	27.317	0	924.825	0	-1e10	1	-1e10	1	-1E+10	1	-1e10	1	-1e10	1	-1E+10	1	-1E+10	1	-1E+10	1
4902624	32	C	05/07/2025	20:37	-127.488	48.558	0	944.50	0	3.6833	0	34.3728	0	27.326	0	934.400	0	54.0	8	16.9	8	-1E+10	1	0.0584	4	0.000165	0	-1E+10	1	-1E+10	1	-1E+10	1
4902624	32	C	05/07/2025	20:37	-127.488	48.558	0	944.80	0	3.6820	0	34.3730	0	27.326	0	934.696	0	-1e10	1	-1e10	1	-1E+10	1	-1e10	1	-1e10	1	-1E+10	1	-1E+10	1	-1E+10	1
4902624	32	C	05/07/2025	20:37	-127.488	48.558	0	955.00	0	3.6610	0	34.3790	0	27.333	0	944.764	0	-1e10	1	-1e10	1	-1E+10	1	-1e10	1	-1e10	1	-1E+10	1	-1E+10	1	-1E+10	1
4902624	32	C	05/07/2025	20:37	-127.488	48.558	0	955.90	0	3.6583	0	34.3795	0	27.334	0	945.653	0	8.2	8	2.6	8	-1E+10	1	0.0584	4	0.000175	0	-1E+10	1	-1E+10	1	-1E+10	1
4902624	32	C	05/07/2025	20:37	-127.488	48.558	0	965.20	0	3.6300	0	34.3850	0	27.341	0	954.832	0	-1e10	1	-1e10	1	-1E+10	1	-1e10	1	-1e10	1	-1E+10	1	-1E+10	1	-1E+10	1
4902624	32	C	05/07/2025	20:37	-127.488	48.558	0	967.40	0	3.6241	0	34.3865	0	27.343	0	957.003	0	58.7	8	18.4	8	-1E+10	1	0.0584	4	0.000143	0	-1E+10	1	-1E+10	1	-1E+10	1
4902624	32	C	05/07/2025	20:37	-127.488	48.558	0	975.30	0	3.6030	0	34.3920	0	27.350	0	964.800	0	-1e10	1	-1e10	1	-1E+10	1	-1e10	1	-1e10	1	-1E+10	1	-1E+10	1	-1E+10	1
4902624	32	C	05/07/2025	20:37	-127.488	48.558	0	975.40	0	3.6030	0	34.3921	0	27.350	0	964.899	0	10.3	8	3.2	8	-1E+10	1	0.0584	4	0.000176	0	-1E+10	1	-1E+10	1	-1E+10	1
4902624	32	C	05/07/2025	20:37	-127.488	48.558	0	983.20	0	3.6046	0	34.3984	0	27.355	0	972.597	0	40.3	4	12.6	4	-1E+10	1	0.0581	4	0.000176	0	-1E+10	1	-1E+10	1	-1E+10	1
4902624	32	C	05/07/2025	20:37	-127.488	48.558	0	985.20	0	3.6050	0	34.4000	0	27.356	0	974.570	0	-1e10	1	-1e10	1	-1E+10	1	-1e10	1	-1e10	1	-1E+10	1	-1E+10	1	-1E+10	1
4902624	32	C	05/07/2025	20:37	-127.488	48.558	0	991.30	0	3.5968	0	34.4006	0	27.357	0	980.590	0	40.0	4	12.5	4	-1E+10	1	0.0515	4	0.000177	0	-1E+10	1	-1E+10	1	-1E+10	1
4902624	32	C	05/07/2025	20:37	-127.488	48.558	0	994.90	0	3.5920	0	34.4010	0	27.358	0	984.143	0	-1e10	1	-1e10	1	-1E+10	1	-1e10	1	-1e10	1	-1E+10	1	-1E+10	1	-1E+10	1
4902624	32	C	05/07/2025	20:37	-127.488	48.558	0	1001.80	0	3.5750	0	34.4026	0	27.361	0	990.952	0	42.3	4	13.2	4	-1E+10	1	0.0656	4	0.000200	0	-1E+10	1	-1E+10	1	-1E+10	1
4902624	32	C	05/07/2025	20:37	-127.488	48.558	0	1019.80	0	3.5306	0	34.4069	0	27.369	0	1008.714	0	44.8	4	14.0	4	-1E+10	1	0.0584	4	0.000199	0	-1E+10	1	-1E+10	1	-1E+10	1
4902624	32	C	05/07/2025	20:37	-127.488	48.558	0	1024.50	0	3.5190	0	34.4080	0	27.371	0	1013.351	0	-1e10	1	-1e10	1	-1E+10	1	-1e10	1	-1e10	1	-1E+10	1	-1E+10	1	-1E+10	1
4902624	32	C	05/07/2025	20:37	-127.488	48.558	0	1038.80	0	3.4888	0	34.4119	0	27.377	0	1027.461	0	51.5	4	16.1	4	-1E+10	1	0.0583	4	0.000187	0	-1E+10	1	-1E+10	1	-1E+10	1
4902624	32	C	05/07/2025	20:37	-127.488	48.558	0	1058.90	0	3.4464	0	34.4175	0	27.386	0	1047.291	0	56.6	4	17.7	4	-1E+10	1	0.0514	4	0.000187	0	-1E+10	1	-1E+10	1	-1E+10	1
4902624	32	C	05/07/2025	20:37	-127.488	48.558	0	1075.20	0	3.4120	0	34.4220	0	27.393	0	1063.371	0	-1e10	1	-1e10	1	-1E+10	1	-1e10	1	-1e10	1	-1E+10	1	-1E+10	1	-1E+10	1
4902624	32	C	05/07/2025	20:37	-127.488	48.558	0	1079.50	0	3.3996	0	34.4236	0	27.395	0	1067.613	0	43.2	4	13.5	4	-1E+10	1	0.0656	4	0.000198	0	-1E+10	1	-1E+10	1	-1E+10	1
4902624	32	C	05/07/2025	20:37	-127.488	48.558	0	1100.50	0	3.3388	0	34.4317	0	27.407	0	1088.327	0	59.6	4	18.6	4	-1E+10	1	0.0584	4	0.000141	0	-1E+10	1	-1E+10	1	-1E+10	1
4902624	32	C	05/07/2025	20:37	-127.488	48.558	0	1121.60	0	3.2778	0	34.4397	0	27.420	0	1109.138	0	60.9	4	18.9	4	-1E+10	1	0.0583	4	0.000212	0	-1E+10	1	-1E+10	1	-1E+10	1
4902624	32	C	05/07/2025	20:37	-127.488	48.558	0	1125.00	0	3.2680	0	34.4410	0	27.422	0	1112.491	0	-1e10	1	-1e10	1	-1E+10	1	-1e10	1	-1e10	1	-1E+10	1	-1E+10	1	-1E+10	1
4902624	32	C	05/07/2025	20:37	-127.488	48.558	0	1142.60	0	3.2244	0	34.4463	0	27.430	0	1129.848	0	62.1	4	19.3	4	-1E+10	1	0.0512	4	0.000290	0	-1E+10	1	-1E+10	1	-1E+10	1
4902624	32	C	05/07/2025	20:37	-127.488	48.558	0	1163.50	0	3.1725	0	34.4526	0	27.440	0	1150.458	0	64.4	4	20.0	4	-1E+10	1	0.0584	4	0.000220	0	-1E+10	1	-1E+10	1	-1E+10	1
4902624	32	C	05/07/2025	20:37	-127.488	48.558	0	1175.00	0	3.1440	0	34.4560	0	27.445	0	1161.797	0	-1e10	1	-1e10	1	-1E+10	1	-1e10	1	-1e10	1	-1E+10	1	-1E+10	1	-1E+10	1
4902624	32	C	05/07/2025	20:37	-127.488	48.558	0	1184.40	0	3.1259	0	34.4584	0	27.449	0	1171.066	0	66.1	4	20.5	4	-1E+10	1	0.0585	4	0.000139	0	-1E+10	1	-1E+10	1	-1E+10	1
4902624	32	C	05/07/2025	20:37	-127.488	48.558	0	1205.40	0	3.0855	0	34.4638	0	27.457	0	1191.770	0	67.9	4	21.0	4	-1E+10	1	0.0655	4	0.000150	0	-1E+10	1	-1E+10	1	-1E+10	1
4902624	32	C	05/07/2025	20:37	-127.488	48.558	0	1220.20	0	3.0570	0	34.4677	0	27.463	0	1206.360	0	74.8	4	23.1	4	-1E+10	1	0.0581	4	0.000139	0	-1E+10	1	-1E+10	1	-1E+10	1
4902624	32	C	05/07/2025	20:37	-127.488	48.558	0	1225.40	0	3.0470	0	34.4690	0	27.465	0	1211.486	0	-1e10	1	-1e10	1	-1E+10	1	-1e10	1	-1e10	1	-1E+10	1	-1E+10	1	-1E+10	1
4902624	32	C	05/07/2025	20:37	-127.488	48.558	0	1236.80	0	3.0252	0	34.4718	0	27.469	0	1222.723	0	70.9	4	21.9	4	-1E+10	1	0.0442	4	0.000185	0	-1E+10	1	-1E+10	1	-1E+10	1
4902624	32	C	05/07/2025	20:37	-127.488	48.558	0	1254.40	0	2.9916	0	34.4761	0	27.476	0	1240.071	0	71.6	4	22.1	4	-1E+10	1	0.0656	4	0.000162	0	-1E+10	1	-1E+10	1	-1E+10	1
4902624	32	C	05/07/2025	20:37	-127.488	48.558	0	1272.70	0	2.9566	0	34.4805	0	27.482	0	1258.107	0	72.1	4	22.2	4	-1E+10	1	0.0583	4	0.000208	0	-1E+10	1	-1E+10	1	-1E+10	1
4902624	32	C	05/07/2025	20:37	-127.488	48.558	0	1274.60	0	2.9530	0	34.4810	0	27.483	0	1259.980	0	-1e10	1	-1e10	1	-1E+10	1	-1e10	1	-1e10	1	-1E+10	1	-1E+10	1	-1E+10	1
4902624	32	C	05/07/2025	20:37	-127.488	48.558	0	1292.00	0	2.9282	0	34.4838	0	27.488	0	1277.128	0	73.0	4	22.5	4	-1E+10	1	0.0514	4	0.000174	0	-1E+10	1	-1E+10	1	-1E+10	1
4902624	32	C	05/07/2025	20:37	-127.488	48.558	0	1312.10	0	2.8995	0	34.4869	0	27.493	0	1296.934	0	80.1	4	24.7	4	-1E+10	1	0.0653	4	0.000207	0	-1E+10	1	-1E+10	1	-1E+10	1
4902624	32	C	05/07/2025	20:37	-127.488	48.558	0	1325.10	0	2.8810	0	34.4890	0	27.496	0	1309.744	0	-1e10	1	-1e10	1	-1E+10	1	-1e10	1	-1e10	1	-1E+10	1	-1E+10	1	-1E+10	1
4902624	32	C	05/07/2025	20:37	-127.488	48.558	0	1333.00	0	2.8704	0	34.4904	0	27.498	0	1317.528	0	75.7	4	23.3	4	-1E+10	1	0.0439	4	0.000162	0	-1E+10	1	-1E+10	1	-1E+10	1
4902624	32	C	05/07/2025	20:37	-127.488	48.558	0	1354.40	0	2.8415	0	34.4943	0	27.504	0	1338.611	0	75.4	4	23.2	4	-1E+10	1	0.0515	4	0.000253	0	-1E+10	1	-1E+10	1	-1E+10	1
4902624	32	C	05/07/2025	20:37	-127.488	48.558	0	1374.80	0	2.8140	0	34.4980	0	27.510	0	1358.708	0	-1e10	1	-1e10	1	-1E+10	1	-1e10	1	-1e10	1	-1E+10	1	-1E+10	1	-1E+10	1
4902624	32	C	05/07/2025	20:37	-127.488	48.558	0	1376.50	0	2.8105	0	34.4984	0	27.510	0	1360.382	0	75.4	4	23.2	4	-1E+10	1	0.0723	4	0.000183	0	-1E+10	1	-1E+10	1	-1E+10	1
4902624	32	C	05/07/2025	20:37	-127.488	48.558	0	1398.30	0	2.7654	0	34.5031	0	27.518	0	1381.856	0	76.0	4	23.3	4	-1E+10	1	0.0439	4	0.000160	0	-1E+10	1	-1E+10	1	-1E+10	1
4902624	32	C	05/07/2025	20:37	-127.488	48.558	0	1420.80	0	2.7189	0	34.5081	0	27.526	0	1404.016	0	78.9	4	24.2	4	-1E+10	1	0.0511	4	0.000171	0	-1E+10	1	-1E+10	1	-1E+10	1
4902624	32	C	05/07/2025	20:37	-127.488	48.558	0	1425.10	0	2.7100	0	34.5090	0	27.528	0	1408.251	0	-1e10	1	-1e10	1	-1E+10	1	-1e10	1	-1e10	1	-1E+10	1	-1E+10	1	-1E+10	1
4902624	32	C	05/07/2025	20:37	-127.488	48.558	0	1443.30	0	2.6762	0	34.5126	0	27.534	0	1426.175	0	80.1	4	24.5	4	-1E+10	1	0.0511	4	0.000150	0	-1E+10	1	-1E+10	1	-1E+10	1
4902624	32	C	05/07/2025	20:37	-127.488	48.558	0	1459.00	0	2.6471	0	34.5158	0	27.539	0	1441.635	0	79.7	4	24.4	4	-1E+10	1	0.0512	4	0.000286	0	-1E+10	1	-1E+10	1	-1E+10	1
4902624	32	C	05/07/2025	20:37	-127.488	48.558	0	1475.20	0	2.6170	0	34.5190	0	27.544	0	1457.586	0	-1e10	1	-1e10	1	-1E+10	1	-1e10	1	-1e10	1	-1E+10	1	-1E+10	1	-1E+10	1
4902624	32	C	05/07/2025	20:37	-127.488	48.558	0	1475.30	0	2.6168	0	34.5190	0	27.544	0	1457.685	0	77.1	4	23.6	4	-1E+10	1	0.0583	4	0.000194	0	-1E+10	1	-1E+10	1	-1E+10	1
4902624	32	C	05/07/2025	20:37	-127.488	48.558	0	1492.30	0	2.5878	0	34.5217	0	27.549	0	1474.422	0	67.0	4	20.5	4	-1E+10	1	0.0513	4	0.000182	0	-1E+10	1	-1E+10	1	-1E+10	1
4902624	32	C	05/07/2025	20:37	-127.488	48.558	0	1510.00	0	2.5576	0	34.5246	0	27.554	0	1491.848	0	88.3	4	27.0	4	-1E+10	1	0.0654	4	0.000193	0	-1E+10	1	-1E+10	1	-1E+10	1
4902624	32	C	05/07/2025	20:37	-127.488	48.558	0	1525.00	0	2.5320	0	34.5270	0	27.558	0	1506.614	0	-1e10	1	-1e10	1	-1E+10	1	-1e10	1	-1e10	1	-1E+10	1	-1E+10	1	-1E+10	1
4902624	32	C	05/07/2025	20:37	-127.488	48.558	0	1527.80	0	2.5275	0	34.5275	0	27.559	0	1509.370	0	92.2	4	28.2	4	-1E+10	1	0.0513	4	0.000158	0	-1E+10	1	-1E+10	1	-1E+10	1
4902624	32	C	05/07/2025	20:37	-127.488	48.558	0	1545.80	0	2.4987	0	34.5308	0	27.564	0	1527.088	0	93.4	4	28.5	4	-1E+10	1	0.0584	4	0.000160	0	-1E+10	1	-1E+10	1	-1E+10	1
4902624	32	C	05/07/2025	20:37	-127.488	48.558	0	1564.50	0	2.4687	0	34.5341	0	27.569	0	1545.494	0	93.8	4	28.6	4	-1E+10	1	0.0582	4	0.000262	0	-1E+10	1	-1E+10	1	-1E+10	1
4902624	32	C	05/07/2025	20:37	-127.488	48.558	0	1574.90	0	2.4520	0	34.5360	0	27.572	0	1555.729	0	-1e10	1	-1e10	1	-1E+10	1	-1e10	1	-1e10	1	-1E+10	1	-1E+10	1	-1E+10	1
4902624	32	C	05/07/2025	20:37	-127.488	48.558	0	1583.80	0	2.4353	0	34.5376	0	27.575	0	1564.488	0	92.1	4	28.1	4	-1E+10	1	0.0512	4	0.000180	0	-1E+10	1	-1E+10	1	-1E+10	1
4902624	32	C	05/07/2025	20:37	-127.488	48.558	0	1603.20	0	2.3988	0	34.5411	0	27.581	0	1583.579	0	93.3	4	28.4	4	-1E+10	1	0.0583	4	0.000146	0	-1E+10	1	-1E+10	1	-1E+10	1
4902624	32	C	05/07/2025	20:37	-127.488	48.558	0	1623.40	0	2.3608	0	34.5447	0	27.587	0	1603.455	0	106.0	4	32.2	4	-1E+10	1	0.0512	4	0.000156	0	-1E+10	1	-1E+10	1	-1E+10	1
4902624	32	C	05/07/2025	20:37	-127.488	48.558	0	1624.90	0	2.3580	0	34.5450	0	27.587	0	1604.931	0	-1e10	1	-1e10	1	-1E+10	1	-1e10	1	-1e10	1	-1E+10	1	-1E+10	1	-1E+10	1
4902624	32	C	05/07/2025	20:37	-127.488	48.558	0	1644.40	0	2.3341	0	34.5481	0	27.592	0	1624.117	0	96.1	4	29.2	4	-1E+10	1	0.0583	4	0.000112	0	-1E+10	1	-1E+10	1	-1E+10	1
4902624	32	C	05/07/2025	20:37	-127.488	48.558	0	1665.80	0	2.3079	0	34.5516	0	27.597	0	1645.170	0	100.7	4	30.6	4	-1E+10	1	0.0510	4	0.000226	0	-1E+10	1	-1E+10	1	-1E+10	1
4902624	32	C	05/07/2025	20:37	-127.488	48.558	0	1674.70	0	2.2970	0	34.5530	0	27.599	0	1653.925	0	-1e10	1	-1e10	1	-1E+10	1	-1e10	1	-1e10	1	-1E+10	1	-1E+10	1	-1E+10	1
4902624	32	C	05/07/2025	20:37	-127.488	48.558	0	1688.00	0	2.2841	0	34.5548	0	27.601	0	1667.007	0	105.9	4	32.1	4	-1E+10	1	0.0452	4	0.000164	0	-1E+10	1	-1E+10	1	-1E+10	1
4902624	32	C	05/07/2025	20:37	-127.488	48.558	0	1709.40	0	2.2633	0	34.5578	0	27.606	0	1688.056	0	114.4	4	34.7	4	-1E+10	1	0.1008	4	0.000476	0	-1E+10	1	-1E+10	1	-1E+10	1
4902624	32	C	05/07/2025	20:37	-127.488	48.558	0	1725.10	0	2.2480	0	34.5600	0	27.609	0	1703.497	0	-1e10	1	-1e10	1	-1E+10	1	-1e10	1	-1e10	1	-1E+10	1	-1E+10	1	-1E+10	1
4902624	32	C	05/07/2025	20:37	-127.488	48.558	0	1726.10	0	2.2469	0	34.5602	0	27.609	0	1704.481	0	122.4	4	37.1	4	-1E+10	1	0.0439	4	0.000133	0	-1E+10	1	-1E+10	1	-1E+10	1
4902624	32	C	05/07/2025	20:37	-127.488	48.558	0	1743.40	0	2.2270	0	34.5630	0	27.613	0	1721.494	0	126.3	4	38.3	4	-1E+10	1	0.0510	4	0.000145	0	-1E+10	1	-1E+10	1	-1E+10	1
4902624	32	C	05/07/2025	20:37	-127.488	48.558	0	1761.80	0	2.2058	0	34.5659	0	27.617	0	1739.587	0	128.2	4	38.9	4	-1E+10	1	0.0440	4	0.000201	0	-1E+10	1	-1E+10	1	-1E+10	1
4902624	32	C	05/07/2025	20:37	-127.488	48.558	0	1774.70	0	2.1910	0	34.5680	0	27.620	0	1752.271	0	-1e10	1	-1e10	1	-1E+10	1	-1e10	1	-1e10	1	-1E+10	1	-1E+10	1	-1E+10	1
4902624	32	C	05/07/2025	20:37	-127.488	48.558	0	1781.00	0	2.1817	0	34.5690	0	27.622	0	1758.466	0	130.0	4	39.4	4	-1E+10	1	0.0511	4	0.000144	0	-1E+10	1	-1E+10	1	-1E+10	1
4902624	32	C	05/07/2025	20:37	-127.488	48.558	0	1800.70	0	2.1527	0	34.5721	0	27.626	0	1777.834	0	131.8	4	39.9	4	-1E+10	1	0.0512	4	0.000154	0	-1E+10	1	-1E+10	1	-1E+10	1
4902624	32	C	05/07/2025	20:37	-127.488	48.558	0	1821.20	0	2.1226	0	34.5754	0	27.632	0	1797.987	0	133.6	4	40.4	4	-1E+10	1	0.0582	4	0.000131	0	-1E+10	1	-1E+10	1	-1E+10	1
4902624	32	C	05/07/2025	20:37	-127.488	48.558	0	1825.00	0	2.1170	0	34.5760	0	27.633	0	1801.723	0	-1e10	1	-1e10	1	-1E+10	1	-1e10	1	-1e10	1	-1E+10	1	-1E+10	1	-1E+10	1
4902624	32	C	05/07/2025	20:37	-127.488	48.558	0	1842.30	0	2.0984	0	34.5781	0	27.636	0	1818.728	0	135.6	4	41.0	4	-1E+10	1	0.0511	4	0.000131	0	-1E+10	1	-1E+10	1	-1E+10	1
4902624	32	C	05/07/2025	20:37	-127.488	48.558	0	1863.90	0	2.0751	0	34.5807	0	27.640	0	1839.958	0	136.5	4	41.2	4	-1E+10	1	0.0508	4	0.000142	0	-1E+10	1	-1E+10	1	-1E+10	1
4902624	32	C	05/07/2025	20:37	-127.488	48.558	0	1875.10	0	2.0630	0	34.5820	0	27.642	0	1850.966	0	-1e10	1	-1e10	1	-1E+10	1	-1e10	1	-1e10	1	-1E+10	1	-1E+10	1	-1E+10	1
4902624	32	C	05/07/2025	20:37	-127.488	48.558	0	1885.60	0	2.0522	0	34.5837	0	27.644	0	1861.284	0	138.2	4	41.7	4	-1E+10	1	0.0368	4	0.000142	0	-1E+10	1	-1E+10	1	-1E+10	1
4902624	32	C	05/07/2025	20:37	-127.488	48.558	0	1907.60	0	2.0297	0	34.5871	0	27.649	0	1882.903	0	140.0	4	42.3	4	-1E+10	1	0.0513	4	0.000179	0	-1E+10	1	-1E+10	1	-1E+10	1
4902624	32	C	05/07/2025	20:37	-127.488	48.558	0	1925.80	0	2.0110	0	34.5900	0	27.653	0	1900.787	0	-1e10	1	-1e10	1	-1E+10	1	-1e10	1	-1e10	1	-1E+10	1	-1E+10	1	-1E+10	1
4902624	32	C	05/07/2025	20:37	-127.488	48.558	0	1930.20	0	2.0074	0	34.5906	0	27.653	0	1905.110	0	140.9	4	42.5	4	-1E+10	1	0.0582	4	0.000756	0	-1E+10	1	-1E+10	1	-1E+10	1
4902624	32	C	05/07/2025	20:37	-127.488	48.558	0	1947.20	0	1.9937	0	34.5927	0	27.656	0	1921.812	0	140.6	4	42.4	4	-1E+10	1	0.0510	4	0.000129	0	-1E+10	1	-1E+10	1	-1E+10	1
4902624	32	C	05/07/2025	20:37	-127.488	48.558	0	1964.00	0	1.9801	0	34.5949	0	27.659	0	1938.317	0	141.4	4	42.6	4	-1E+10	1	0.0443	4	0.000119	0	-1E+10	1	-1E+10	1	-1E+10	1
4902624	32	C	05/07/2025	20:37	-127.488	48.558	0	1972.80	0	1.9730	0	34.5960	0	27.661	0	1946.962	0	-1e10	1	-1e10	1	-1E+10	1	-1e10	1	-1e10	1	-1E+10	1	-1E+10	1	-1E+10	1
4902624	32	C	05/07/2025	20:37	-127.488	48.558	0	1981.10	0	-1e10	1	-1e10	1	-1e10	1	1955.115	0	147.6	4	-1e10	4	-1E+10	1	0.0652	4	0.000174	0	-1E+10	1	-1E+10	1	-1E+10	1
4902624	32	C	05/07/2025	20:37	-127.488	48.558	0	1995.20	0	-1e10	1	-1e10	1	-1e10	1	1968.965	0	130.3	4	-1e10	4	-1E+10	1	0.0438	4	0.000174	0	-1E+10	1	-1E+10	1	-1E+10	1
4902624	32	C	05/07/2025	20:37	-127.488	48.558	0																										
4902624	33	C	05/17/2025	13:45	-127.241	48.760	0	0.00	0	10.5643	8	31.7230	8	24.300	0	0.000	0	-1e10	1	-1e10	1	-1E+10	1	0.8614	4	0.001100	0	-1E+10	1	-1E+10	1	-1E+10	1
4902624	33	C	05/17/2025	13:45	-127.241	48.760	0	0.20	0	10.6110	8	31.6890	8	24.266	0	0.198	0	-1e10	1	-1e10	1	-1E+10	1	0.7008	4	0.001006	0	-1E+10	1	-1E+10	1	-1E+10	1
4902624	33	C	05/17/2025	13:45	-127.241	48.760	0	0.40	0	10.6577	8	31.6550	8	24.231	0	0.397	0	263.4	4	95.0	4	-1E+10	1	0.6862	4	0.001018	0	-1E+10	1	-1E+10	1	-1E+10	1
4902624	33	C	05/17/2025	13:45	-127.241	48.760	0	0.50	0	10.6810	8	31.6380	8	24.214	0	0.496	0	-1e10	1	-1e10	1	-1E+10	1	0.7519	4	0.001183	0	-1E+10	1	-1E+10	1	-1E+10	1
4902624	33	C	05/17/2025	13:45	-127.241	48.760	0	0.80	0	10.6813	8	31.6383	8	24.214	0	0.793	0	-1e10	1	-1e10	1	-1E+10	1	0.7300	4	0.001065	0	-1E+10	1	-1E+10	1	-1E+10	1
4902624	33	C	05/17/2025	13:45	-127.241	48.760	0	0.90	0	10.6814	8	31.6384	8	24.214	0	0.892	0	-1e10	1	-1e10	1	-1E+10	1	0.7446	4	0.001217	0	-1E+10	1	-1E+10	1	-1E+10	1
4902624	33	C	05/17/2025	13:45	-127.241	48.760	0	1.20	0	10.6816	8	31.6386	8	24.215	0	1.190	0	-1e10	1	-1e10	1	-1E+10	1	1.2775	4	0.001147	0	-1E+10	1	-1E+10	1	-1E+10	1
4902624	33	C	05/17/2025	13:45	-127.241	48.760	0	1.40	0	10.6818	8	31.6388	8	24.215	0	1.388	0	-1e10	1	-1e10	1	-1E+10	1	0.8541	4	0.001206	0	-1E+10	1	-1E+10	1	-1E+10	1
4902624	33	C	05/17/2025	13:45	-127.241	48.760	0	1.60	0	10.6820	0	31.6390	0	24.215	0	1.586	0	-1e10	1	-1e10	1	-1E+10	1	-1e10	1	-1e10	1	-1E+10	1	-1E+10	1	-1E+10	1
4902624	33	C	05/17/2025	13:45	-127.241	48.760	0	1.90	0	10.6820	0	31.6390	0	24.215	0	1.884	0	263.3	4	95.0	4	-1E+10	1	0.7300	4	0.001282	0	-1E+10	1	-1E+10	1	-1E+10	1
4902624	33	C	05/17/2025	13:45	-127.241	48.760	0	2.20	0	10.6820	0	31.6390	0	24.215	0	2.181	0	-1e10	1	-1e10	1	-1E+10	1	0.6935	4	0.001253	0	-1E+10	1	-1E+10	1	-1E+10	1
4902624	33	C	05/17/2025	13:45	-127.241	48.760	0	2.30	0	10.6820	0	31.6390	0	24.215	0	2.281	0	-1e10	1	-1e10	1	-1E+10	1	0.6862	4	0.001123	0	-1E+10	1	-1E+10	1	-1E+10	1
4902624	33	C	05/17/2025	13:45	-127.241	48.760	0	2.50	0	10.6820	0	31.6390	0	24.215	0	2.479	0	263.4	4	95.0	4	-1E+10	1	0.7373	4	0.001159	0	-1E+10	1	-1E+10	1	-1E+10	1
4902624	33	C	05/17/2025	13:45	-127.241	48.760	0	2.90	0	10.6820	0	31.6390	0	24.215	0	2.875	0	-1e10	1	-1e10	1	-1E+10	1	0.6351	4	0.001065	0	-1E+10	1	-1E+10	1	-1E+10	1
4902624	33	C	05/17/2025	13:45	-127.241	48.760	0	3.10	0	10.6820	0	31.6390	0	24.215	0	3.074	0	-1e10	1	-1e10	1	-1E+10	1	0.7373	4	0.001159	0	-1E+10	1	-1E+10	1	-1E+10	1
4902624	33	C	05/17/2025	13:45	-127.241	48.760	0	3.30	0	10.6820	0	31.6390	0	24.215	0	3.272	0	-1e10	1	-1e10	1	-1E+10	1	0.7154	4	0.001159	0	-1E+10	1	-1E+10	1	-1E+10	1
4902624	33	C	05/17/2025	13:45	-127.241	48.760	0	3.50	0	10.6820	0	31.6390	0	24.215	0	3.470	0	263.4	4	95.0	4	-1E+10	1	0.6424	4	0.001265	0	-1E+10	1	-1E+10	1	-1E+10	1
4902624	33	C	05/17/2025	13:45	-127.241	48.760	0	3.70	0	10.6820	0	31.6390	0	24.215	0	3.669	0	-1e10	1	-1e10	1	-1E+10	1	0.8687	4	0.001217	0	-1E+10	1	-1E+10	1	-1E+10	1
4902624	33	C	05/17/2025	13:45	-127.241	48.760	0	3.90	0	10.6820	0	31.6390	0	24.215	0	3.867	0	-1e10	1	-1e10	1	-1E+10	1	0.6935	4	0.001194	0	-1E+10	1	-1E+10	1	-1E+10	1
4902624	33	C	05/17/2025	13:45	-127.241	48.760	0	4.10	0	10.6820	0	31.6390	0	24.215	0	4.065	0	-1e10	1	-1e10	1	-1E+10	1	0.8760	4	0.001229	0	-1E+10	1	-1E+10	1	-1E+10	1
4902624	33	C	05/17/2025	13:45	-127.241	48.760	0	4.50	0	10.6820	0	31.6390	0	24.215	0	4.462	0	-1e10	1	-1e10	1	-1E+10	1	-1e10	1	-1e10	1	-1E+10	1	-1E+10	1	-1E+10	1
4902624	33	C	05/17/2025	13:45	-127.241	48.760	0	4.60	0	10.6821	0	31.6390	0	24.215	0	4.561	0	262.9	4	94.8	4	-1E+10	1	0.7650	4	0.001236	0	-1E+10	1	-1E+10	1	-1E+10	1
4902624	33	C	05/17/2025	13:45	-127.241	48.760	0	4.80	0	10.6823	0	31.6390	0	24.215	0	4.759	0	-1e10	1	-1e10	1	-1E+10	1	0.8322	4	0.001288	0	-1E+10	1	-1E+10	1	-1E+10	1
4902624	33	C	05/17/2025	13:45	-127.241	48.760	0	5.00	0	10.6825	0	31.6390	0	24.215	0	4.958	0	-1e10	1	-1e10	1	-1E+10	1	0.7008	4	0.001053	0	-1E+10	1	-1E+10	1	-1E+10	1
4902624	33	C	05/17/2025	13:45	-127.241	48.760	0	5.20	0	10.6827	0	31.6390	0	24.215	0	5.156	0	-1e10	1	-1e10	1	-1E+10	1	0.6497	4	0.001077	0	-1E+10	1	-1E+10	1	-1E+10	1
4902624	33	C	05/17/2025	13:45	-127.241	48.760	0	5.40	0	10.6829	0	31.6390	0	24.215	0	5.354	0	-1e10	1	-1e10	1	-1E+10	1	0.8906	4	0.001065	0	-1E+10	1	-1E+10	1	-1E+10	1
4902624	33	C	05/17/2025	13:45	-127.241	48.760	0	5.50	0	10.6830	0	31.6390	0	24.215	0	5.453	0	-1e10	1	-1e10	1	-1E+10	1	-1e10	1	-1e10	1	-1E+10	1	-1E+10	1	-1E+10	1
4902624	33	C	05/17/2025	13:45	-127.241	48.760	0	5.70	0	10.6828	0	31.6390	0	24.215	0	5.652	0	262.7	4	94.8	4	-1E+10	1	0.8103	4	0.001088	0	-1E+10	1	-1E+10	1	-1E+10	1
4902624	33	C	05/17/2025	13:45	-127.241	48.760	0	5.90	0	10.6826	0	31.6390	0	24.215	0	5.850	0	-1e10	1	-1e10	1	-1E+10	1	0.6716	4	0.001147	0	-1E+10	1	-1E+10	1	-1E+10	1
4902624	33	C	05/17/2025	13:45	-127.241	48.760	0	6.10	0	10.6823	0	31.6390	0	24.215	0	6.048	0	-1e10	1	-1e10	1	-1E+10	1	0.6570	4	0.001065	0	-1E+10	1	-1E+10	1	-1E+10	1
4902624	33	C	05/17/2025	13:45	-127.241	48.760	0	6.40	0	10.6820	0	31.6390	0	24.215	0	6.346	0	-1e10	1	-1e10	1	-1E+10	1	-1e10	1	-1e10	1	-1E+10	1	-1E+10	1	-1E+10	1
4902624	33	C	05/17/2025	13:45	-127.241	48.760	0	6.50	0	10.6820	0	31.6390	0	24.215	0	6.445	0	-1e10	1	-1e10	1	-1E+10	1	0.8103	4	0.001100	0	-1E+10	1	-1E+10	1	-1E+10	1
4902624	33	C	05/17/2025	13:45	-127.241	48.760	0	6.80	0	10.6820	0	31.6390	0	24.215	0	6.742	0	262.7	4	94.8	4	-1E+10	1	0.7008	4	0.001358	0	-1E+10	1	-1E+10	1	-1E+10	1
4902624	33	C	05/17/2025	13:45	-127.241	48.760	0	7.00	0	10.6820	0	31.6390	0	24.215	0	6.941	0	-1e10	1	-1e10	1	-1E+10	1	0.6497	4	0.001077	0	-1E+10	1	-1E+10	1	-1E+10	1
4902624	33	C	05/17/2025	13:45	-127.241	48.760	0	7.20	0	10.6820	0	31.6390	0	24.215	0	7.139	0	-1e10	1	-1e10	1	-1E+10	1	0.7081	4	0.001170	0	-1E+10	1	-1E+10	1	-1E+10	1
4902624	33	C	05/17/2025	13:45	-127.241	48.760	0	7.40	0	10.6820	0	31.6390	0	24.215	0	7.337	0	-1e10	1	-1e10	1	-1E+10	1	0.7373	4	0.000971	0	-1E+10	1	-1E+10	1	-1E+10	1
4902624	33	C	05/17/2025	13:45	-127.241	48.760	0	7.70	0	10.6820	0	31.6390	0	24.215	0	7.635	0	-1e10	1	-1e10	1	-1E+10	1	0.7811	4	0.001170	0	-1E+10	1	-1E+10	1	-1E+10	1
4902624	33	C	05/17/2025	13:45	-127.241	48.760	0	7.90	0	10.6820	0	31.6390	0	24.215	0	7.833	0	262.5	4	94.7	4	-1E+10	1	0.6570	4	0.001077	0	-1E+10	1	-1E+10	1	-1E+10	1
4902624	33	C	05/17/2025	13:45	-127.241	48.760	0	8.30	0	10.6820	0	31.6390	0	24.215	0	8.230	0	-1e10	1	-1e10	1	-1E+10	1	0.6570	4	0.001065	0	-1E+10	1	-1E+10	1	-1E+10	1
4902624	33	C	05/17/2025	13:45	-127.241	48.760	0	8.50	0	10.6820	0	31.6390	0	24.215	0	8.428	0	-1e10	1	-1e10	1	-1E+10	1	0.7081	4	0.000971	0	-1E+10	1	-1E+10	1	-1E+10	1
4902624	33	C	05/17/2025	13:45	-127.241	48.760	0	8.80	0	10.6820	0	31.6390	0	24.215	0	8.725	0	-1e10	1	-1e10	1	-1E+10	1	0.7519	4	0.000971	0	-1E+10	1	-1E+10	1	-1E+10	1
4902624	33	C	05/17/2025	13:45	-127.241	48.760	0	9.00	0	10.6820	0	31.6390	0	24.215	0	8.924	0	262.5	4	94.7	4	-1E+10	1	0.8541	4	0.001053	0	-1E+10	1	-1E+10	1	-1E+10	1
4902624	33	C	05/17/2025	13:45	-127.241	48.760	0	9.20	0	10.6820	0	31.6390	0	24.215	0	9.122	0	-1e10	1	-1e10	1	-1E+10	1	1.7520	4	0.001135	0	-1E+10	1	-1E+10	1	-1E+10	1
4902624	33	C	05/17/2025	13:45	-127.241	48.760	0	9.40	0	10.6820	0	31.6390	0	24.215	0	9.320	0	-1e10	1	-1e10	1	-1E+10	1	0.6789	4	0.001041	0	-1E+10	1	-1E+10	1	-1E+10	1
4902624	33	C	05/17/2025	13:45	-127.241	48.760	0	9.50	0	10.6820	0	31.6390	0	24.215	0	9.419	0	-1e10	1	-1e10	1	-1E+10	1	-1e10	1	-1e10	1	-1E+10	1	-1E+10	1	-1E+10	1
4902624	33	C	05/17/2025	13:45	-127.241	48.760	0	9.70	0	10.6821	0	31.6390	0	24.215	0	9.618	0	-1e10	1	-1e10	1	-1E+10	1	0.7300	4	0.001206	0	-1E+10	1	-1E+10	1	-1E+10	1
4902624	33	C	05/17/2025	13:45	-127.241	48.760	0	10.00	0	10.6824	0	31.6390	0	24.215	0	9.915	0	262.4	4	94.7	4	-1E+10	1	0.6628	4	0.001269	0	-1E+10	1	-1E+10	1	-1E+10	1
4902624	33	C	05/17/2025	13:45	-127.241	48.760	0	10.90	0	10.6830	0	31.6390	0	24.215	0	10.807	0	-1e10	1	-1e10	1	-1E+10	1	-1e10	1	-1e10	1	-1E+10	1	-1E+10	1	-1E+10	1
4902624	33	C	05/17/2025	13:45	-127.241	48.760	0	11.20	0	10.6833	0	31.6391	0	24.215	0	11.105	0	262.3	4	94.6	4	-1E+10	1	0.7174	4	0.001074	0	-1E+10	1	-1E+10	1	-1E+10	1
4902624	33	C	05/17/2025	13:45	-127.241	48.760	0	12.30	0	10.6843	0	31.6397	0	24.215	0	12.196	0	262.2	4	94.6	4	-1E+10	1	0.7379	4	0.001150	0	-1E+10	1	-1E+10	1	-1E+10	1
4902624	33	C	05/17/2025	13:45	-127.241	48.760	0	13.00	0	10.6850	0	31.6400	0	24.215	0	12.890	0	-1e10	1	-1e10	1	-1E+10	1	-1e10	1	-1e10	1	-1E+10	1	-1E+10	1	-1E+10	1
4902624	33	C	05/17/2025	13:45	-127.241	48.760	0	13.40	0	10.6850	0	31.6400	0	24.215	0	13.286	0	262.0	4	94.5	4	-1E+10	1	0.8541	4	0.001194	0	-1E+10	1	-1E+10	1	-1E+10	1
4902624	33	C	05/17/2025	13:45	-127.241	48.760	0	14.60	0	10.6850	0	31.6400	0	24.215	0	14.476	0	262.0	4	94.5	4	-1E+10	1	0.8906	4	0.001274	0	-1E+10	1	-1E+10	1	-1E+10	1
4902624	33	C	05/17/2025	13:45	-127.241	48.760	0	15.00	0	10.6850	0	31.6400	0	24.215	0	14.873	0	-1e10	1	-1e10	1	-1E+10	1	-1e10	1	-1e10	1	-1E+10	1	-1E+10	1	-1E+10	1
4902624	33	C	05/17/2025	13:45	-127.241	48.760	0	15.80	0	10.6854	0	31.6400	0	24.215	0	15.666	0	261.8	4	94.4	4	-1E+10	1	0.7641	4	0.001397	0	-1E+10	1	-1E+10	1	-1E+10	1
4902624	33	C	05/17/2025	13:45	-127.241	48.760	0	17.00	0	10.6860	0	31.6400	0	24.215	0	16.855	0	262.1	4	94.5	4	-1E+10	1	0.7098	4	0.001396	0	-1E+10	1	-1E+10	1	-1E+10	1
4902624	33	C	05/17/2025	13:45	-127.241	48.760	0	18.10	0	10.6866	0	31.6400	0	24.215	0	17.946	0	261.5	4	94.3	4	-1E+10	1	0.6789	4	0.001088	0	-1E+10	1	-1E+10	1	-1E+10	1
4902624	33	C	05/17/2025	13:45	-127.241	48.760	0	19.00	0	10.6870	0	31.6400	0	24.215	0	18.838	0	-1e10	1	-1e10	1	-1E+10	1	-1e10	1	-1e10	1	-1E+10	1	-1E+10	1	-1E+10	1
4902624	33	C	05/17/2025	13:45	-127.241	48.760	0	19.30	0	10.6874	0	31.6404	0	24.215	0	19.136	0	261.3	4	94.3	4	-1E+10	1	0.7154	4	0.001100	0	-1E+10	1	-1E+10	1	-1E+10	1
4902624	33	C	05/17/2025	13:45	-127.241	48.760	0	20.40	0	10.6890	0	31.6420	0	24.216	0	20.226	0	261.1	4	94.2	4	-1E+10	1	0.7092	4	0.000951	0	-1E+10	1	-1E+10	1	-1E+10	1
4902624	33	C	05/17/2025	13:45	-127.241	48.760	0	21.10	0	10.6900	0	31.6430	0	24.217	0	20.920	0	-1e10	1	-1e10	1	-1E+10	1	-1e10	1	-1e10	1	-1E+10	1	-1E+10	1	-1E+10	1
4902624	33	C	05/17/2025	13:45	-127.241	48.760	0	21.50	0	10.6902	0	31.6432	0	24.217	0	21.317	0	260.8	4	94.1	4	-1E+10	1	0.7132	4	0.001070	0	-1E+10	1	-1E+10	1	-1E+10	1
4902624	33	C	05/17/2025	13:45	-127.241	48.760	0	22.60	0	10.6908	0	31.6438	0	24.218	0	22.408	0	260.6	4	94.0	4	-1E+10	1	0.8125	4	0.001070	0	-1E+10	1	-1E+10	1	-1E+10	1
4902624	33	C	05/17/2025	13:45	-127.241	48.760	0	22.90	0	10.6910	0	31.6440	0	24.218	0	22.705	0	-1e10	1	-1e10	1	-1E+10	1	-1e10	1	-1e10	1	-1E+10	1	-1E+10	1	-1E+10	1
4902624	33	C	05/17/2025	13:45	-127.241	48.760	0	23.50	0	10.6921	0	31.6446	0	24.218	0	23.300	0	260.2	4	93.9	4	-1E+10	1	0.7096	4	0.001070	0	-1E+10	1	-1E+10	1	-1E+10	1
4902624	33	C	05/17/2025	13:45	-127.241	48.760	0	24.20	0	10.6935	0	31.6452	0	24.218	0	23.994	0	259.7	4	93.7	4	-1E+10	1	0.6375	4	0.001115	0	-1E+10	1	-1E+10	1	-1E+10	1
4902624	33	C	05/17/2025	13:45	-127.241	48.760	0	24.90	0	10.6948	0	31.6459	0	24.219	0	24.688	0	259.4	4	93.6	4	-1E+10	1	0.8145	4	0.001180	0	-1E+10	1	-1E+10	1	-1E+10	1
4902624	33	C	05/17/2025	13:45	-127.241	48.760	0	25.00	0	10.6950	0	31.6460	0	24.219	0	24.787	0	-1e10	1	-1e10	1	-1E+10	1	-1e10	1	-1e10	1	-1E+10	1	-1E+10	1	-1E+10	1
4902624	33	C	05/17/2025	13:45	-127.241	48.760	0	25.60	0	10.7025	0	31.6487	0	24.219	0	25.382	0	258.9	4	93.4	4	-1E+10	1	1.4627	4	0.001216	0	-1E+10	1	-1E+10	1	-1E+10	1
4902624	33	C	05/17/2025	13:45	-127.241	48.760	0	26.30	0	10.7113	0	31.6518	0	24.220	0	26.076	0	258.4	4	93.3	4	-1E+10	1	0.6132	4	0.001041	0	-1E+10	1	-1E+10	1	-1E+10	1
4902624	33	C	05/17/2025	13:45	-127.241	48.760	0	27.00	0	10.7200	0	31.6550	0	24.221	0	26.770	0	258.3	4	93.3	4	-1E+10	1	0.6643	4	0.000928	0	-1E+10	1	-1E+10	1	-1E+10	1
4902624	33	C	05/17/2025	13:45	-127.241	48.760	0	27.70	0	10.7015	0	31.6637	0	24.231	0	27.464	0	257.6	4	93.0	4	-1E+10	1	0.5676	4	0.001255	0	-1E+10	1	-1E+10	1	-1E+10	1
4902624	33	C	05/17/2025	13:45	-127.241	48.760	0	28.40	0	10.6829	0	31.6725	0	24.241	0	28.158	0	257.1	4	92.8	4	-1E+10	1	0.5740	4	0.001113	0	-1E+10	1	-1E+10	1	-1E+10	1
4902624	33	C	05/17/2025	13:45	-127.241	48.760	0	29.00	0	10.6670	0	31.6800	0	24.250	0	28.753	0	257.0	4	92.7	4	-1E+10	1	0.5986	4	0.000930	0	-1E+10	1	-1E+10	1	-1E+10	1
4902624	33	C	05/17/2025	13:45	-127.241	48.760	0	29.70	0	10.6407	0	31.6863	0	24.259	0	29.447	0	256.4	4	92.4	4	-1E+10	1	0.6487	4	0.000934	0	-1E+10	1	-1E+10	1	-1E+10	1
4902624	33	C	05/17/2025	13:45	-127.241	48.760	0	30.40	0	10.6145	0	31.6926	0	24.269	0	30.141	0	256.2	4	92.3	4	-1E+10	1	0.6497	4	0.001047	0	-1E+10	1	-1E+10	1	-1E+10	1
4902624	33	C	05/17/2025	13:45	-127.241	48.760	0	31.00	0	10.5920	0	31.6980	0	24.277	0	30.735	0	256.3	4	92.3	4	-1E+10	1	0.6333	4	0.001120	0	-1E+10	1	-1E+10	1	-1E+10	1
4902624	33	C	05/17/2025	13:45	-127.241	48.760	0	31.70	0	10.5322	0	31.7274	0	24.310	0	31.429	0	256.1	4	92.2	4	-1E+10	1	0.6643	4	0.001057	0	-1E+10	1	-1E+10	1	-1E+10	1
4902624	33	C	05/17/2025	13:45	-127.241	48.760	0	32.40	0	10.4723	0	31.7568	0	24.343	0	32.123	0	256.0	4	92.0	4	-1E+10	1	0.5459	4	0.000954	0	-1E+10	1	-1E+10	1	-1E+10	1
4902624	33	C	05/17/2025	13:45	-127.241	48.760	0	33.00	0	10.4210	0	31.7820	0	24.371	0	32.718	0	-1e10	1	-1e10	1	-1E+10	1	-1e10	1	-1e10	1	-1E+10	1	-1E+10	1	-1E+10	1
4902624	33	C	05/17/2025	13:45	-127.241	48.760	0	33.10	0	10.4072	0	31.7868	0	24.377	0	32.817	0	256.0	4	91.9	4	-1E+10	1	0.6424	4	0.000936	0	-1E+10	1	-1E+10	1	-1E+10	1
4902624	33	C	05/17/2025	13:45	-127.241	48.760	0	34.00	0	10.2830	0	31.8305	0	24.432	0	33.710	0	255.8	4	91.6	4	-1E+10	1	0.5183	4	0.000865	0	-1E+10	1	-1E+10	1	-1E+10	1
4902624	33	C	05/17/2025	13:45	-127.241	48.760	0	34.80	0	10.1726	0	31.8693	0	24.481	0	34.503	0	255.4	4	91.3	4	-1E+10	1	0.5507	4	0.000959	0	-1E+10	1	-1E+10	1	-1E+10	1
4902624	33	C	05/17/2025	13:45	-127.241	48.760	0	35.00	0	10.1450	0	31.8790	0	24.493	0	34.701	0	-1e10	1	-1e10	1	-1E+10	1	-1e10	1	-1e10	1	-1E+10	1	-1E+10	1	-1E+10	1
4902624	33	C	05/17/2025	13:45	-127.241	48.760	0	35.60	0	10.0982	0	31.9024	0	24.519	0	35.296	0	254.9	4	91.0	4	-1E+10	1	0.4991	4	0.000933	0	-1E+10	1	-1E+10	1	-1E+10	1
4902624	33	C	05/17/2025	13:45	-127.241	48.760	0	36.50	0	10.0280	0	31.9375	0	24.558	0	36.188	0	254.5	4	90.7	4	-1E+10	1	0.5584	4	0.000947	0	-1E+10	1	-1E+10	1	-1E+10	1
4902624	33	C	05/17/2025	13:45	-127.241	48.760	0	37.00	0	9.9890	0	31.9570	0	24.580	0	36.684	0	-1e10	1	-1e10	1	-1E+10	1	-1e10	1	-1e10	1	-1E+10	1	-1E+10	1	-1E+10	1
4902624	33	C	05/17/2025	13:45	-127.241	48.760	0	37.40	0	10.0025	0	31.9730	0	24.590	0	37.080	0	254.1	4	90.6	4	-1E+10	1	0.6367	4	0.001081	0	-1E+10	1	-1E+10	1	-1E+10	1
4902624	33	C	05/17/2025	13:45	-127.241	48.760	0	38.30	0	10.0328	0	32.0090	0	24.613	0	37.972	0	254.1	4	90.6	4	-1E+10	1	0.6147	4	0.001008	0	-1E+10	1	-1E+10	1	-1E+10	1
4902624	33	C	05/17/2025	13:45	-127.241	48.760	0	38.90	0	10.0530	0	32.0330	0	24.628	0	38.567	0	-1e10	1	-1e10	1	-1E+10	1	-1e10	1	-1e10	1	-1E+10	1	-1E+10	1	-1E+10	1
4902624	33	C	05/17/2025	13:45	-127.241	48.760	0	39.10	0	10.0550	0	32.0420	0	24.635	0	38.766	0	254.1	4	90.7	4	-1E+10	1	0.6083	4	0.000714	0	-1E+10	1	-1E+10	1	-1E+10	1
4902624	33	C	05/17/2025	13:45	-127.241	48.760	0	40.10	0	10.0650	0	32.0867	0	24.668	0	39.757	0	253.9	4	90.7	4	-1E+10	1	0.6205	4	0.000724	0	-1E+10	1	-1E+10	1	-1E+10	1
4902624	33	C	05/17/2025	13:45	-127.241	48.760	0	41.00	0	10.0740	0	32.1270	0	24.698	0	40.649	0	252.8	4	90.3	4	-1E+10	1	0.5475	4	0.000970	0	-1E+10	1	-1E+10	1	-1E+10	1
4902624	33	C	05/17/2025	13:45	-127.241	48.760	0	42.10	0	10.0817	0	32.2018	0	24.755	0	41.740	0	252.7	4	90.4	4	-1E+10	1	0.6587	4	0.000742	0	-1E+10	1	-1E+10	1	-1E+10	1
4902624	33	C	05/17/2025	13:45	-127.241	48.760	0	43.00	0	10.0880	0	32.2630	0	24.802	0	42.632	0	-1e10	1	-1e10	1	-1E+10	1	-1e10	1	-1e10	1	-1E+10	1	-1E+10	1	-1E+10	1
4902624	33	C	05/17/2025	13:45	-127.241	48.760	0	43.20	0	10.0839	0	32.2684	0	24.807	0	42.830	0	251.8	4	90.1	4	-1E+10	1	0.6435	4	0.000701	0	-1E+10	1	-1E+10	1	-1E+10	1
4902624	33	C	05/17/2025	13:45	-127.241	48.760	0	44.30	0	10.0613	0	32.2979	0	24.834	0	43.920	0	251.1	4	89.8	4	-1E+10	1	0.6278	4	0.000716	0	-1E+10	1	-1E+10	1	-1E+10	1
4902624	33	C	05/17/2025	13:45	-127.241	48.760	0	44.90	0	10.0490	0	32.3140	0	24.848	0	44.515	0	-1e10	1	-1e10	1	-1E+10	1	-1e10	1	-1e10	1	-1E+10	1	-1E+10	1	-1E+10	1
4902624	33	C	05/17/2025	13:45	-127.241	48.760	0	45.40	0	10.0390	0	32.3167	0	24.852	0	45.011	0	250.3	4	89.5	4	-1E+10	1	0.6671	4	0.000705	0	-1E+10	1	-1E+10	1	-1E+10	1
4902624	33	C	05/17/2025	13:45	-127.241	48.760	0	46.50	0	10.0170	0	32.3228	0	24.861	0	46.101	0	249.2	4	89.0	4	-1E+10	1	0.6982	4	0.000693	0	-1E+10	1	-1E+10	1	-1E+10	1
4902624	33	C	05/17/2025	13:45	-127.241	48.760	0	46.90	0	10.0090	0	32.3250	0	24.864	0	46.498	0	-1e10	1	-1e10	1	-1E+10	1	-1e10	1	-1e10	1	-1E+10	1	-1E+10	1	-1E+10	1
4902624	33	C	05/17/2025	13:45	-127.241	48.760	0	47.60	0	10.0003	0	32.3250	0	24.865	0	47.192	0	247.7	4	88.5	4	-1E+10	1	0.7187	4	0.000705	0	-1E+10	1	-1E+10	1	-1E+10	1
4902624	33	C	05/17/2025	13:45	-127.241	48.760	0	48.70	0	9.9867	0	32.3250	0	24.867	0	48.282	0	246.4	4	88.0	4	-1E+10	1	0.8008	4	0.000748	0	-1E+10	1	-1E+10	1	-1E+10	1
4902624	33	C	05/17/2025	13:45	-127.241	48.760	0	49.00	0	9.9830	0	32.3250	0	24.868	0	48.580	0	-1e10	1	-1e10	1	-1E+10	1	-1e10	1	-1e10	1	-1E+10	1	-1E+10	1	-1E+10	1
4902624	33	C	05/17/2025	13:45	-127.241	48.760	0	49.80	0	9.9622	0	32.3254	0	24.872	0	49.373	0	244.9	4	87.4	4	-1E+10	1	0.6278	4	0.000877	0	-1E+10	1	-1E+10	1	-1E+10	1
4902624	33	C	05/17/2025	13:45	-127.241	48.760	0	50.90	0	9.9336	0	32.3260	0	24.877	0	50.463	0	243.8	4	87.0	4	-1E+10	1	0.6649	4	0.000758	0	-1E+10	1	-1E+10	1	-1E+10	1
4902624	33	C	05/17/2025	13:45	-127.241	48.760	0	51.00	0	9.9310	0	32.3260	0	24.877	0	50.562	0	-1e10	1	-1e10	1	-1E+10	1	-1e10	1	-1e10	1	-1E+10	1	-1E+10	1	-1E+10	1
4902624	33	C	05/17/2025	13:45	-127.241	48.760	0	52.00	0	9.8955	0	32.3265	0	24.884	0	51.554	0	242.9	4	86.6	4	-1E+10	1	0.6835	4	0.000678	0	-1E+10	1	-1E+10	1	-1E+10	1
4902624	33	C	05/17/2025	13:45	-127.241	48.760	0	53.00	0	9.8600	0	32.3270	0	24.890	0	52.545	0	240.8	4	85.8	4	-1E+10	1	0.6907	4	0.000781	0	-1E+10	1	-1E+10	1	-1E+10	1
4902624	33	C	05/17/2025	13:45	-127.241	48.760	0	54.00	0	9.8205	0	32.3338	0	24.902	0	53.536	0	240.5	4	85.6	4	-1E+10	1	0.6338	4	0.000741	0	-1E+10	1	-1E+10	1	-1E+10	1
4902624	33	C	05/17/2025	13:45	-127.241	48.760	0	54.90	0	9.7850	0	32.3400	0	24.912	0	54.428	0	237.8	4	84.6	4	-1E+10	1	1.0345	4	0.000652	0	-1E+10	1	-1E+10	1	-1E+10	1
4902624	33	C	05/17/2025	13:45	-127.241	48.760	0	55.60	0	9.7467	0	32.3433	0	24.921	0	55.122	0	237.3	4	84.3	4	-1E+10	1	1.2948	4	0.000677	0	-1E+10	1	-1E+10	1	-1E+10	1
4902624	33	C	05/17/2025	13:45	-127.241	48.760	0	56.20	0	9.7138	0	32.3462	0	24.929	0	55.717	0	235.6	4	83.6	4	-1E+10	1	0.7017	4	0.000630	0	-1E+10	1	-1E+10	1	-1E+10	1
4902624	33	C	05/17/2025	13:45	-127.241	48.760	0	56.90	0	9.6755	0	32.3495	0	24.938	0	56.411	0	233.8	4	83.0	4	-1E+10	1	0.8614	4	0.000712	0	-1E+10	1	-1E+10	1	-1E+10	1
4902624	33	C	05/17/2025	13:45	-127.241	48.760	0	57.00	0	9.6700	0	32.3500	0	24.939	0	56.510	0	-1e10	1	-1e10	1	-1E+10	1	-1e10	1	-1e10	1	-1E+10	1	-1E+10	1	-1E+10	1
4902624	33	C	05/17/2025	13:45	-127.241	48.760	0	57.50	0	9.6450	0	32.3542	0	24.946	0	57.006	0	231.7	4	82.2	4	-1E+10	1	0.6424	4	0.009945	0	-1E+10	1	-1E+10	1	-1E+10	1
4902624	33	C	05/17/2025	13:45	-127.241	48.760	0	58.30	0	9.6050	0	32.3610	0	24.958	0	57.799	0	229.3	4	81.2	4	-1E+10	1	0.6570	4	0.000583	0	-1E+10	1	-1E+10	1	-1E+10	1
4902624	33	C	05/17/2025	13:45	-127.241	48.760	0	58.90	0	9.5750	0	32.3661	0	24.967	0	58.393	0	227.3	4	80.5	4	-1E+10	1	0.6382	4	0.000612	0	-1E+10	1	-1E+10	1	-1E+10	1
4902624	33	C	05/17/2025	13:45	-127.241	48.760	0	59.00	0	9.5700	0	32.3670	0	24.968	0	58.492	0	-1e10	1	-1e10	1	-1E+10	1	-1e10	1	-1e10	1	-1E+10	1	-1E+10	1	-1E+10	1
4902624	33	C	05/17/2025	13:45	-127.241	48.760	0	59.50	0	9.5665	0	32.3693	0	24.971	0	58.988	0	224.9	4	79.6	4	-1E+10	1	0.8802	4	0.000651	0	-1E+10	1	-1E+10	1	-1E+10	1
4902624	33	C	05/17/2025	13:45	-127.241	48.760	0	60.20	0	9.5616	0	32.3724	0	24.974	0	59.682	0	222.0	4	78.6	4	-1E+10	1	0.9143	4	0.000753	0	-1E+10	1	-1E+10	1	-1E+10	1
4902624	33	C	05/17/2025	13:45	-127.241	48.760	0	60.90	0	9.5567	0	32.3755	0	24.977	0	60.376	0	219.0	4	77.5	4	-1E+10	1	0.8906	4	0.000748	0	-1E+10	1	-1E+10	1	-1E+10	1
4902624	33	C	05/17/2025	13:45	-127.241	48.760	0	61.00	0	9.5560	0	32.3760	0	24.978	0	60.475	0	-1e10	1	-1e10	1	-1E+10	1	-1e10	1	-1e10	1	-1E+10	1	-1E+10	1	-1E+10	1
4902624	33	C	05/17/2025	13:45	-127.241	48.760	0	61.60	0	9.5112	0	32.3880	0	24.994	0	61.070	0	215.6	4	76.3	4	-1E+10	1	0.8450	4	0.000654	0	-1E+10	1	-1E+10	1	-1E+10	1
4902624	33	C	05/17/2025	13:45	-127.241	48.760	0	62.40	0	9.4514	0	32.4040	0	25.016	0	61.863	0	213.1	4	75.3	4	-1E+10	1	0.7251	4	0.000646	0	-1E+10	1	-1E+10	1	-1E+10	1
4902624	33	C	05/17/2025	13:45	-127.241	48.760	0	62.90	0	9.4140	0	32.4140	0	25.030	0	62.358	0	-1e10	1	-1e10	1	-1E+10	1	-1e10	1	-1e10	1	-1E+10	1	-1E+10	1	-1E+10	1
4902624	33	C	05/17/2025	13:45	-127.241	48.760	0	63.10	0	9.4050	0	32.4162	0	25.033	0	62.557	0	211.0	4	74.5	4	-1E+10	1	0.6773	4	0.000727	0	-1E+10	1	-1E+10	1	-1E+10	1
4902624	33	C	05/17/2025	13:45	-127.241	48.760	0	63.90	0	9.3690	0	32.4250	0	25.046	0	63.350	0	209.1	4	73.7	4	-1E+10	1	0.6059	4	0.000560	0	-1E+10	1	-1E+10	1	-1E+10	1
4902624	33	C	05/17/2025	13:45	-127.241	48.760	0	64.60	0	9.3375	0	32.4327	0	25.057	0	64.043	0	207.1	4	73.0	4	-1E+10	1	0.6862	4	0.000677	0	-1E+10	1	-1E+10	1	-1E+10	1
4902624	33	C	05/17/2025	13:45	-127.241	48.760	0	64.90	0	9.3240	0	32.4360	0	25.062	0	64.341	0	-1e10	1	-1e10	1	-1E+10	1	-1e10	1	-1e10	1	-1E+10	1	-1E+10	1	-1E+10	1
4902624	33	C	05/17/2025	13:45	-127.241	48.760	0	65.40	0	9.3311	0	32.4474	0	25.069	0	64.836	0	205.1	4	72.3	4	-1E+10	1	0.7271	4	0.000602	0	-1E+10	1	-1E+10	1	-1E+10	1
4902624	33	C	05/17/2025	13:45	-127.241	48.760	0	66.20	0	9.3426	0	32.4657	0	25.082	0	65.629	0	203.0	4	71.5	4	-1E+10	1	0.7461	4	0.000604	0	-1E+10	1	-1E+10	1	-1E+10	1
4902624	33	C	05/17/2025	13:45	-127.241	48.760	0	67.00	0	9.3540	0	32.4840	0	25.094	0	66.422	0	199.4	4	70.3	4	-1E+10	1	0.7045	4	0.000566	0	-1E+10	1	-1E+10	1	-1E+10	1
4902624	33	C	05/17/2025	13:45	-127.241	48.760	0	67.90	0	9.2775	0	32.4948	0	25.115	0	67.314	0	198.4	4	69.9	4	-1E+10	1	0.6643	4	0.000513	0	-1E+10	1	-1E+10	1	-1E+10	1
4902624	33	C	05/17/2025	13:45	-127.241	48.760	0	68.70	0	9.2095	0	32.5044	0	25.133	0	68.107	0	195.3	4	68.7	4	-1E+10	1	0.6431	4	0.000548	0	-1E+10	1	-1E+10	1	-1E+10	1
4902624	33	C	05/17/2025	13:45	-127.241	48.760	0	69.00	0	9.1840	0	32.5080	0	25.140	0	68.405	0	-1e10	1	-1e10	1	-1E+10	1	-1e10	1	-1e10	1	-1E+10	1	-1E+10	1	-1E+10	1
4902624	33	C	05/17/2025	13:45	-127.241	48.760	0	69.60	0	9.1220	0	32.5189	0	25.158	0	69.000	0	191.6	4	67.2	4	-1E+10	1	0.5848	4	0.000599	0	-1E+10	1	-1E+10	1	-1E+10	1
4902624	33	C	05/17/2025	13:45	-127.241	48.760	0	70.50	0	9.0290	0	32.5351	0	25.185	0	69.892	0	187.4	4	65.6	4	-1E+10	1	0.5654	4	0.000479	0	-1E+10	1	-1E+10	1	-1E+10	1
4902624	33	C	05/17/2025	13:45	-127.241	48.760	0	71.10	0	8.9670	0	32.5460	0	25.204	0	70.486	0	-1e10	1	-1e10	1	-1E+10	1	-1e10	1	-1e10	1	-1E+10	1	-1E+10	1	-1E+10	1
4902624	33	C	05/17/2025	13:45	-127.241	48.760	0	71.40	0	8.9501	0	32.5552	0	25.213	0	70.784	0	183.7	4	64.2	4	-1E+10	1	0.3504	4	0.000431	0	-1E+10	1	-1E+10	1	-1E+10	1
4902624	33	C	05/17/2025	13:45	-127.241	48.760	0	72.30	0	8.8994	0	32.5826	0	25.243	0	71.676	0	179.6	4	62.8	4	-1E+10	1	0.2847	4	0.000421	0	-1E+10	1	-1E+10	1	-1E+10	1
4902624	33	C	05/17/2025	13:45	-127.241	48.760	0	73.00	0	8.8600	0	32.6040	0	25.266	0	72.370	0	-1e10	1	-1e10	1	-1E+10	1	-1e10	1	-1e10	1	-1E+10	1	-1E+10	1	-1E+10	1
4902624	33	C	05/17/2025	13:45	-127.241	48.760	0	73.30	0	8.8534	0	32.6242	0	25.282	0	72.667	0	175.5	4	61.3	4	-1E+10	1	0.2351	4	0.000419	0	-1E+10	1	-1E+10	1	-1E+10	1
4902624	33	C	05/17/2025	13:45	-127.241	48.760	0	74.30	0	8.8314	0	32.6917	0	25.339	0	73.658	0	172.8	4	60.3	4	-1E+10	1	0.3772	4	0.000528	0	-1E+10	1	-1E+10	1	-1E+10	1
4902624	33	C	05/17/2025	13:45	-127.241	48.760	0	75.00	0	8.8160	0	32.7390	0	25.378	0	74.352	0	-1e10	1	-1e10	1	-1E+10	1	-1e10	1	-1e10	1	-1E+10	1	-1E+10	1	-1E+10	1
4902624	33	C	05/17/2025	13:45	-127.241	48.760	0	75.30	0	8.8127	0	32.7542	0	25.390	0	74.649	0	170.4	4	59.5	4	-1E+10	1	0.4161	4	0.000571	0	-1E+10	1	-1E+10	1	-1E+10	1
4902624	33	C	05/17/2025	13:45	-127.241	48.760	0	76.30	0	8.8017	0	32.8046	0	25.432	0	75.640	0	168.0	4	58.7	4	-1E+10	1	0.3690	4	0.000520	0	-1E+10	1	-1E+10	1	-1E+10	1
4902624	33	C	05/17/2025	13:45	-127.241	48.760	0	77.00	0	8.7940	0	32.8400	0	25.461	0	76.334	0	-1e10	1	-1e10	1	-1E+10	1	-1e10	1	-1e10	1	-1E+10	1	-1E+10	1	-1E+10	1
4902624	33	C	05/17/2025	13:45	-127.241	48.760	0	77.30	0	8.8031	0	32.8505	0	25.467	0	76.632	0	165.7	4	57.9	4	-1E+10	1	0.3960	4	0.000671	0	-1E+10	1	-1E+10	1	-1E+10	1
4902624	33	C	05/17/2025	13:45	-127.241	48.760	0	78.30	0	8.8336	0	32.8855	0	25.490	0	77.623	0	163.4	4	57.1	4	-1E+10	1	0.5311	4	0.001320	0	-1E+10	1	-1E+10	1	-1E+10	1
4902624	33	C	05/17/2025	13:45	-127.241	48.760	0	79.00	0	8.8550	0	32.9100	0	25.506	0	78.317	0	-1e10	1	-1e10	1	-1E+10	1	-1e10	1	-1e10	1	-1E+10	1	-1E+10	1	-1E+10	1
4902624	33	C	05/17/2025	13:45	-127.241	48.760	0	79.40	0	8.8725	0	32.9292	0	25.518	0	78.713	0	160.7	4	56.2	4	-1E+10	1	0.5110	4	0.001170	0	-1E+10	1	-1E+10	1	-1E+10	1
4902624	33	C	05/17/2025	13:45	-127.241	48.760	0	80.50	0	8.9205	0	32.9818	0	25.552	0	79.803	0	158.5	4	55.6	4	-1E+10	1	0.8468	4	0.000607	0	-1E+10	1	-1E+10	1	-1E+10	1
4902624	33	C	05/17/2025	13:45	-127.241	48.760	0	80.90	0	8.9380	0	33.0010	0	25.564	0	80.200	0	-1e10	1	-1e10	1	-1E+10	1	-1e10	1	-1e10	1	-1E+10	1	-1E+10	1	-1E+10	1
4902624	33	C	05/17/2025	13:45	-127.241	48.760	0	81.60	0	8.9453	0	33.0240	0	25.581	0	80.894	0	156.7	4	55.0	4	-1E+10	1	0.4329	4	0.000527	0	-1E+10	1	-1E+10	1	-1E+10	1
4902624	33	C	05/17/2025	13:45	-127.241	48.760	0	82.70	0	8.9569	0	33.0601	0	25.608	0	81.984	0	155.2	4	54.5	4	-1E+10	1	0.3476	4	0.000570	0	-1E+10	1	-1E+10	1	-1E+10	1
4902624	33	C	05/17/2025	13:45	-127.241	48.760	0	83.00	0	8.9600	0	33.0700	0	25.615	0	82.281	0	-1e10	1	-1e10	1	-1E+10	1	-1e10	1	-1e10	1	-1E+10	1	-1E+10	1	-1E+10	1
4902624	33	C	05/17/2025	13:45	-127.241	48.760	0	83.80	0	8.9424	0	33.0816	0	25.627	0	83.074	0	153.8	4	54.0	4	-1E+10	1	0.3756	4	0.000610	0	-1E+10	1	-1E+10	1	-1E+10	1
4902624	33	C	05/17/2025	13:45	-127.241	48.760	0	84.70	0	8.9226	0	33.0947	0	25.640	0	83.966	0	152.5	4	53.5	4	-1E+10	1	0.3842	4	0.000576	0	-1E+10	1	-1E+10	1	-1E+10	1
4902624	33	C	05/17/2025	13:45	-127.241	48.760	0	85.00	0	8.9160	0	33.0990	0	25.645	0	84.263	0	-1e10	1	-1e10	1	-1E+10	1	-1e10	1	-1e10	1	-1E+10	1	-1E+10	1	-1E+10	1
4902624	33	C	05/17/2025	13:45	-127.241	48.760	0	85.60	0	8.9086	0	33.1099	0	25.654	0	84.858	0	151.2	4	53.0	4	-1E+10	1	0.3309	4	0.000544	0	-1E+10	1	-1E+10	1	-1E+10	1
4902624	33	C	05/17/2025	13:45	-127.241	48.760	0	86.30	0	8.8999	0	33.1225	0	25.666	0	85.552	0	150.0	4	52.6	4	-1E+10	1	0.2652	4	0.000581	0	-1E+10	1	-1E+10	1	-1E+10	1
4902624	33	C	05/17/2025	13:45	-127.241	48.760	0	87.00	0	8.8912	0	33.1352	0	25.677	0	86.246	0	148.8	4	52.2	4	-1E+10	1	0.3486	4	0.000583	0	-1E+10	1	-1E+10	1	-1E+10	1
4902624	33	C	05/17/2025	13:45	-127.241	48.760	0	87.10	0	8.8900	0	33.1370	0	25.678	0	86.345	0	-1e10	1	-1e10	1	-1E+10	1	-1e10	1	-1e10	1	-1E+10	1	-1E+10	1	-1E+10	1
4902624	33	C	05/17/2025	13:45	-127.241	48.760	0	87.60	0	8.8815	0	33.1438	0	25.685	0	86.840	0	147.5	4	51.7	4	-1E+10	1	0.3431	4	0.000618	0	-1E+10	1	-1E+10	1	-1E+10	1
4902624	33	C	05/17/2025	13:45	-127.241	48.760	0	88.40	0	8.8679	0	33.1546	0	25.696	0	87.633	0	145.7	4	51.1	4	-1E+10	1	0.3212	4	0.000583	0	-1E+10	1	-1E+10	1	-1E+10	1
4902624	33	C	05/17/2025	13:45	-127.241	48.760	0	89.00	0	8.8577	0	33.1627	0	25.704	0	88.228	0	144.1	4	50.5	4	-1E+10	1	0.2774	4	0.000501	0	-1E+10	1	-1E+10	1	-1E+10	1
4902624	33	C	05/17/2025	13:45	-127.241	48.760	0	89.10	0	8.8560	0	33.1640	0	25.705	0	88.327	0	-1e10	1	-1e10	1	-1E+10	1	-1e10	1	-1e10	1	-1E+10	1	-1E+10	1	-1E+10	1
4902624	33	C	05/17/2025	13:45	-127.241	48.760	0	89.60	0	8.8434	0	33.1714	0	25.713	0	88.823	0	142.9	4	50.1	4	-1E+10	1	0.3376	4	0.000589	0	-1E+10	1	-1E+10	1	-1E+10	1
4902624	33	C	05/17/2025	13:45	-127.241	48.760	0	90.20	0	8.8282	0	33.1802	0	25.722	0	89.417	0	141.6	4	49.6	4	-1E+10	1	0.3321	4	0.000671	0	-1E+10	1	-1E+10	1	-1E+10	1
4902624	33	C	05/17/2025	13:45	-127.241	48.760	0	90.90	0	8.8105	0	33.1905	0	25.733	0	90.111	0	139.9	4	49.0	4	-1E+10	1	0.3097	4	0.000658	0	-1E+10	1	-1E+10	1	-1E+10	1
4902624	33	C	05/17/2025	13:45	-127.241	48.760	0	91.00	0	8.8080	0	33.1920	0	25.734	0	90.210	0	-1e10	1	-1e10	1	-1E+10	1	-1e10	1	-1e10	1	-1E+10	1	-1E+10	1	-1E+10	1
4902624	33	C	05/17/2025	13:45	-127.241	48.760	0	91.60	0	8.7739	0	33.2144	0	25.757	0	90.805	0	137.9	4	48.3	4	-1E+10	1	0.3163	4	0.000638	0	-1E+10	1	-1E+10	1	-1E+10	1
4902624	33	C	05/17/2025	13:45	-127.241	48.760	0	92.30	0	8.7341	0	33.2406	0	25.784	0	91.499	0	135.8	4	47.5	4	-1E+10	1	0.3171	4	0.000874	0	-1E+10	1	-1E+10	1	-1E+10	1
4902624	33	C	05/17/2025	13:45	-127.241	48.760	0	92.90	0	8.7000	0	33.2630	0	25.807	0	92.093	0	-1e10	1	-1e10	1	-1E+10	1	-1e10	1	-1e10	1	-1E+10	1	-1E+10	1	-1E+10	1
4902624	33	C	05/17/2025	13:45	-127.241	48.760	0	93.10	0	8.6909	0	33.2700	0	25.813	0	92.291	0	134.1	4	46.9	4	-1E+10	1	0.2847	4	0.001698	0	-1E+10	1	-1E+10	1	-1E+10	1
4902624	33	C	05/17/2025	13:45	-127.241	48.760	0	93.90	0	8.6545	0	33.2980	0	25.841	0	93.084	0	132.4	4	46.2	4	-1E+10	1	0.1606	4	0.000536	0	-1E+10	1	-1E+10	1	-1E+10	1
4902624	33	C	05/17/2025	13:45	-127.241	48.760	0	94.70	0	8.6181	0	33.3260	0	25.868	0	93.877	0	130.8	4	45.7	4	-1E+10	1	0.0892	4	0.000547	0	-1E+10	1	-1E+10	1	-1E+10	1
4902624	33	C	05/17/2025	13:45	-127.241	48.760	0	94.90	0	8.6090	0	33.3330	0	25.875	0	94.075	0	-1e10	1	-1e10	1	-1E+10	1	-1e10	1	-1e10	1	-1E+10	1	-1E+10	1	-1E+10	1
4902624	33	C	05/17/2025	13:45	-127.241	48.760	0	95.40	0	8.5847	0	33.3459	0	25.889	0	94.571	0	130.0	4	45.3	4	-1E+10	1	0.0891	4	0.000555	0	-1E+10	1	-1E+10	1	-1E+10	1
4902624	33	C	05/17/2025	13:45	-127.241	48.760	0	96.20	0	8.5459	0	33.3664	0	25.911	0	95.364	0	129.5	4	45.2	4	-1E+10	1	0.0824	4	0.000566	0	-1E+10	1	-1E+10	1	-1E+10	1
4902624	33	C	05/17/2025	13:45	-127.241	48.760	0	97.00	0	8.5070	0	33.3870	0	25.933	0	96.157	0	-1e10	1	-1e10	1	-1E+10	1	-1e10	1	-1e10	1	-1E+10	1	-1E+10	1	-1E+10	1
4902624	33	C	05/17/2025	13:45	-127.241	48.760	0	97.10	0	8.5043	0	33.3901	0	25.936	0	96.256	0	129.3	4	45.0	4	-1E+10	1	0.0929	4	0.000578	0	-1E+10	1	-1E+10	1	-1E+10	1
4902624	33	C	05/17/2025	13:45	-127.241	48.760	0	97.90	0	8.4832	0	33.4145	0	25.958	0	97.049	0	129.2	4	45.0	4	-1E+10	1	0.1119	4	0.000743	0	-1E+10	1	-1E+10	1	-1E+10	1
4902624	33	C	05/17/2025	13:45	-127.241	48.760	0	98.80	0	8.4593	0	33.4419	0	25.984	0	97.941	0	129.3	4	45.0	4	-1E+10	1	0.1144	4	0.000896	0	-1E+10	1	-1E+10	1	-1E+10	1
4902624	33	C	05/17/2025	13:45	-127.241	48.760	0	99.00	0	8.4540	0	33.4480	0	25.989	0	98.139	0	-1e10	1	-1e10	1	-1E+10	1	-1e10	1	-1e10	1	-1E+10	1	-1E+10	1	-1E+10	1
4902624	33	C	05/17/2025	13:45	-127.241	48.760	0	99.70	0	8.4435	0	33.4529	0	25.995	0	98.833	0	129.3	4	45.0	4	-1E+10	1	0.1161	4	0.000556	0	-1E+10	1	-1E+10	1	-1E+10	1
4902624	33	C	05/17/2025	13:45	-127.241	48.760	0	100.60	0	8.4300	0	33.4592	0	26.002	0	99.725	0	129.1	4	44.9	4	-1E+10	1	0.1329	4	0.000560	0	-1E+10	1	-1E+10	1	-1E+10	1
4902624	33	C	05/17/2025	13:45	-127.241	48.760	0	101.00	0	8.4240	0	33.4620	0	26.005	0	100.121	0	-1e10	1	-1e10	1	-1E+10	1	-1e10	1	-1e10	1	-1E+10	1	-1E+10	1	-1E+10	1
4902624	33	C	05/17/2025	13:45	-127.241	48.760	0	101.40	0	8.4181	0	33.4637	0	26.007	0	100.517	0	128.7	4	44.8	4	-1E+10	1	0.1387	4	0.000606	0	-1E+10	1	-1E+10	1	-1E+10	1
4902624	33	C	05/17/2025	13:45	-127.241	48.760	0	102.30	0	8.4048	0	33.4676	0	26.012	0	101.409	0	128.2	4	44.6	4	-1E+10	1	0.1314	4	0.000595	0	-1E+10	1	-1E+10	1	-1E+10	1
4902624	33	C	05/17/2025	13:45	-127.241	48.760	0	103.10	0	8.3930	0	33.4710	0	26.016	0	102.202	0	125.8	4	43.7	4	-1E+10	1	0.1080	4	0.000510	0	-1E+10	1	-1E+10	1	-1E+10	1
4902624	33	C	05/17/2025	13:45	-127.241	48.760	0	104.00	0	8.3778	0	33.4786	0	26.025	0	103.094	0	126.9	4	44.1	4	-1E+10	1	0.1124	4	0.000506	0	-1E+10	1	-1E+10	1	-1E+10	1
4902624	33	C	05/17/2025	13:45	-127.241	48.760	0	104.80	0	8.3644	0	33.4853	0	26.032	0	103.887	0	126.2	4	43.9	4	-1E+10	1	0.1127	4	0.000552	0	-1E+10	1	-1E+10	1	-1E+10	1
4902624	33	C	05/17/2025	13:45	-127.241	48.760	0	105.00	0	8.3610	0	33.4870	0	26.034	0	104.085	0	-1e10	1	-1e10	1	-1E+10	1	-1e10	1	-1e10	1	-1E+10	1	-1E+10	1	-1E+10	1
4902624	33	C	05/17/2025	13:45	-127.241	48.760	0	105.70	0	8.3344	0	33.5028	0	26.050	0	104.779	0	125.8	4	43.7	4	-1E+10	1	0.1022	4	0.000548	0	-1E+10	1	-1E+10	1	-1E+10	1
4902624	33	C	05/17/2025	13:45	-127.241	48.760	0	106.60	0	8.3002	0	33.5230	0	26.071	0	105.671	0	125.4	4	43.5	4	-1E+10	1	0.0922	4	0.000542	0	-1E+10	1	-1E+10	1	-1E+10	1
4902624	33	C	05/17/2025	13:45	-127.241	48.760	0	107.00	0	8.2850	0	33.5320	0	26.081	0	106.067	0	-1e10	1	-1e10	1	-1E+10	1	-1e10	1	-1e10	1	-1E+10	1	-1E+10	1	-1E+10	1
4902624	33	C	05/17/2025	13:45	-127.241	48.760	0	107.50	0	8.2595	0	33.5420	0	26.092	0	106.563	0	124.9	4	43.3	4	-1E+10	1	0.0905	4	0.000595	0	-1E+10	1	-1E+10	1	-1E+10	1
4902624	33	C	05/17/2025	13:45	-127.241	48.760	0	108.40	0	8.2136	0	33.5600	0	26.113	0	107.455	0	124.3	4	43.1	4	-1E+10	1	0.1015	4	0.000603	0	-1E+10	1	-1E+10	1	-1E+10	1
4902624	33	C	05/17/2025	13:45	-127.241	48.760	0	109.00	0	8.1830	0	33.5720	0	26.127	0	108.049	0	-1e10	1	-1e10	1	-1E+10	1	-1e10	1	-1e10	1	-1E+10	1	-1E+10	1	-1E+10	1
4902624	33	C	05/17/2025	13:45	-127.241	48.760	0	109.40	0	8.1790	0	33.5766	0	26.131	0	108.446	0	123.6	4	42.8	4	-1E+10	1	0.0949	4	0.000688	0	-1E+10	1	-1E+10	1	-1E+10	1
4902624	33	C	05/17/2025	13:45	-127.241	48.760	0	110.40	0	8.1690	0	33.5881	0	26.142	0	109.437	0	123.2	4	42.7	4	-1E+10	1	0.0949	4	0.000614	0	-1E+10	1	-1E+10	1	-1E+10	1
4902624	33	C	05/17/2025	13:45	-127.241	48.760	0	111.00	0	8.1630	0	33.5950	0	26.148	0	110.031	0	-1e10	1	-1e10	1	-1E+10	1	-1e10	1	-1e10	1	-1E+10	1	-1E+10	1	-1E+10	1
4902624	33	C	05/17/2025	13:45	-127.241	48.760	0	111.30	0	8.1606	0	33.5953	0	26.149	0	110.329	0	122.7	4	42.5	4	-1E+10	1	0.0774	4	0.000653	0	-1E+10	1	-1E+10	1	-1E+10	1
4902624	33	C	05/17/2025	13:45	-127.241	48.760	0	112.20	0	8.1535	0	33.5963	0	26.151	0	111.220	0	122.2	4	42.3	4	-1E+10	1	0.0869	4	0.000635	0	-1E+10	1	-1E+10	1	-1E+10	1
4902624	33	C	05/17/2025	13:45	-127.241	48.760	0	112.90	0	8.1480	0	33.5970	0	26.152	0	111.914	0	-1e10	1	-1e10	1	-1E+10	1	-1e10	1	-1e10	1	-1E+10	1	-1E+10	1	-1E+10	1
4902624	33	C	05/17/2025	13:45	-127.241	48.760	0	113.10	0	8.1441	0	33.5979	0	26.153	0	112.112	0	121.4	4	42.0	4	-1E+10	1	0.0783	4	0.000613	0	-1E+10	1	-1E+10	1	-1E+10	1
4902624	33	C	05/17/2025	13:45	-127.241	48.760	0	114.10	0	8.1246	0	33.6024	0	26.160	0	113.103	0	120.6	4	41.7	4	-1E+10	1	0.0616	4	0.000591	0	-1E+10	1	-1E+10	1	-1E+10	1
4902624	33	C	05/17/2025	13:45	-127.241	48.760	0	114.90	0	8.1090	0	33.6060	0	26.165	0	113.896	0	-1e10	1	-1e10	1	-1E+10	1	-1e10	1	-1e10	1	-1E+10	1	-1E+10	1	-1E+10	1
4902624	33	C	05/17/2025	13:45	-127.241	48.760	0	115.00	0	8.1077	0	33.6072	0	26.166	0	113.995	0	119.9	4	41.5	4	-1E+10	1	0.0710	4	0.000575	0	-1E+10	1	-1E+10	1	-1E+10	1
4902624	33	C	05/17/2025	13:45	-127.241	48.760	0	115.90	0	8.0960	0	33.6180	0	26.176	0	114.887	0	119.1	4	41.2	4	-1E+10	1	0.0790	4	0.000638	0	-1E+10	1	-1E+10	1	-1E+10	1
4902624	33	C	05/17/2025	13:45	-127.241	48.760	0	116.80	0	8.0843	0	33.6288	0	26.187	0	115.779	0	118.4	4	40.9	4	-1E+10	1	0.0730	4	0.000888	0	-1E+10	1	-1E+10	1	-1E+10	1
4902624	33	C	05/17/2025	13:45	-127.241	48.760	0	116.90	0	8.0830	0	33.6300	0	26.188	0	115.878	0	-1e10	1	-1e10	1	-1E+10	1	-1e10	1	-1e10	1	-1E+10	1	-1E+10	1	-1E+10	1
4902624	33	C	05/17/2025	13:45	-127.241	48.760	0	117.70	0	8.0686	0	33.6404	0	26.198	0	116.671	0	117.9	4	40.8	4	-1E+10	1	0.0584	4	0.000548	0	-1E+10	1	-1E+10	1	-1E+10	1
4902624	33	C	05/17/2025	13:45	-127.241	48.760	0	118.60	0	8.0524	0	33.6521	0	26.210	0	117.563	0	117.4	4	40.6	4	-1E+10	1	0.0584	4	0.000605	0	-1E+10	1	-1E+10	1	-1E+10	1
4902624	33	C	05/17/2025	13:45	-127.241	48.760	0	118.90	0	8.0470	0	33.6560	0	26.213	0	117.860	0	-1e10	1	-1e10	1	-1E+10	1	-1e10	1	-1e10	1	-1E+10	1	-1E+10	1	-1E+10	1
4902624	33	C	05/17/2025	13:45	-127.241	48.760	0	119.60	0	8.0344	0	33.6626	0	26.221	0	118.554	0	116.7	4	40.3	4	-1E+10	1	0.0681	4	0.000579	0	-1E+10	1	-1E+10	1	-1E+10	1
4902624	33	C	05/17/2025	13:45	-127.241	48.760	0	120.60	0	8.0164	0	33.6721	0	26.231	0	119.545	0	116.1	4	40.1	4	-1E+10	1	0.0642	4	0.000552	0	-1E+10	1	-1E+10	1	-1E+10	1
4902624	33	C	05/17/2025	13:45	-127.241	48.760	0	120.90	0	8.0110	0	33.6750	0	26.234	0	119.842	0	-1e10	1	-1e10	1	-1E+10	1	-1e10	1	-1e10	1	-1E+10	1	-1E+10	1	-1E+10	1
4902624	33	C	05/17/2025	13:45	-127.241	48.760	0	121.60	0	7.9949	0	33.6834	0	26.243	0	120.536	0	115.4	4	39.8	4	-1E+10	1	0.0584	4	0.000699	0	-1E+10	1	-1E+10	1	-1E+10	1
4902624	33	C	05/17/2025	13:45	-127.241	48.760	0	122.60	0	7.9719	0	33.6954	0	26.255	0	121.527	0	114.7	4	39.6	4	-1E+10	1	0.0620	4	0.000812	0	-1E+10	1	-1E+10	1	-1E+10	1
4902624	33	C	05/17/2025	13:45	-127.241	48.760	0	122.90	0	7.9650	0	33.6990	0	26.259	0	121.824	0	-1e10	1	-1e10	1	-1E+10	1	-1e10	1	-1e10	1	-1E+10	1	-1E+10	1	-1E+10	1
4902624	33	C	05/17/2025	13:45	-127.241	48.760	0	123.60	0	7.9552	0	33.7050	0	26.265	0	122.518	0	114.1	4	39.4	4	-1E+10	1	0.0714	4	0.000615	0	-1E+10	1	-1E+10	1	-1E+10	1
4902624	33	C	05/17/2025	13:45	-127.241	48.760	0	124.60	0	7.9412	0	33.7135	0	26.274	0	123.509	0	113.6	4	39.2	4	-1E+10	1	0.0584	4	0.000604	0	-1E+10	1	-1E+10	1	-1E+10	1
4902624	33	C	05/17/2025	13:45	-127.241	48.760	0	124.90	0	7.9370	0	33.7160	0	26.277	0	123.806	0	-1e10	1	-1e10	1	-1E+10	1	-1e10	1	-1e10	1	-1E+10	1	-1E+10	1	-1E+10	1
4902624	33	C	05/17/2025	13:45	-127.241	48.760	0	125.60	0	7.9263	0	33.7207	0	26.282	0	124.499	0	113.2	4	39.0	4	-1E+10	1	0.0584	4	0.000653	0	-1E+10	1	-1E+10	1	-1E+10	1
4902624	33	C	05/17/2025	13:45	-127.241	48.760	0	126.50	0	7.9126	0	33.7267	0	26.289	0	125.391	0	112.1	4	38.6	4	-1E+10	1	0.0584	4	0.000970	0	-1E+10	1	-1E+10	1	-1E+10	1
4902624	33	C	05/17/2025	13:45	-127.241	48.760	0	127.00	0	7.9050	0	33.7300	0	26.293	0	125.887	0	110.4	4	38.1	4	-1E+10	1	0.0462	4	0.000882	0	-1E+10	1	-1E+10	1	-1E+10	1
4902624	33	C	05/17/2025	13:45	-127.241	48.760	0	127.50	0	7.8970	0	33.7347	0	26.297	0	126.382	0	111.9	4	38.5	4	-1E+10	1	0.0521	4	0.000744	0	-1E+10	1	-1E+10	1	-1E+10	1
4902624	33	C	05/17/2025	13:45	-127.241	48.760	0	128.10	0	7.8874	0	33.7405	0	26.303	0	126.977	0	111.5	4	38.4	4	-1E+10	1	0.0615	4	0.000628	0	-1E+10	1	-1E+10	1	-1E+10	1
4902624	33	C	05/17/2025	13:45	-127.241	48.760	0	128.80	0	7.8762	0	33.7471	0	26.310	0	127.670	0	111.3	4	38.3	4	-1E+10	1	0.0584	4	0.000624	0	-1E+10	1	-1E+10	1	-1E+10	1
4902624	33	C	05/17/2025	13:45	-127.241	48.760	0	129.00	0	7.8730	0	33.7490	0	26.312	0	127.869	0	-1e10	1	-1e10	1	-1E+10	1	-1e10	1	-1e10	1	-1E+10	1	-1E+10	1	-1E+10	1
4902624	33	C	05/17/2025	13:45	-127.241	48.760	0	129.40	0	7.8654	0	33.7524	0	26.316	0	128.265	0	111.1	4	38.3	4	-1E+10	1	0.0484	4	0.000671	0	-1E+10	1	-1E+10	1	-1E+10	1
4902624	33	C	05/17/2025	13:45	-127.241	48.760	0	130.00	0	7.8540	0	33.7576	0	26.322	0	128.860	0	111.1	4	38.2	4	-1E+10	1	0.0438	4	0.000682	0	-1E+10	1	-1E+10	1	-1E+10	1
4902624	33	C	05/17/2025	13:45	-127.241	48.760	0	130.60	0	7.8425	0	33.7627	0	26.327	0	129.454	0	110.9	4	38.2	4	-1E+10	1	0.0438	4	0.000571	0	-1E+10	1	-1E+10	1	-1E+10	1
4902624	33	C	05/17/2025	13:45	-127.241	48.760	0	131.10	0	7.8330	0	33.7670	0	26.332	0	129.950	0	-1e10	1	-1e10	1	-1E+10	1	-1e10	1	-1e10	1	-1E+10	1	-1E+10	1	-1E+10	1
4902624	33	C	05/17/2025	13:45	-127.241	48.760	0	131.30	0	7.8324	0	33.7672	0	26.332	0	130.148	0	110.8	4	38.1	4	-1E+10	1	0.0365	4	0.000548	0	-1E+10	1	-1E+10	1	-1E+10	1
4902624	33	C	05/17/2025	13:45	-127.241	48.760	0	132.00	0	7.8302	0	33.7679	0	26.333	0	130.841	0	110.6	4	38.1	4	-1E+10	1	0.0493	4	0.000558	0	-1E+10	1	-1E+10	1	-1E+10	1
4902624	33	C	05/17/2025	13:45	-127.241	48.760	0	132.60	0	7.8283	0	33.7686	0	26.334	0	131.436	0	110.4	4	38.0	4	-1E+10	1	0.0557	4	0.000545	0	-1E+10	1	-1E+10	1	-1E+10	1
4902624	33	C	05/17/2025	13:45	-127.241	48.760	0	133.00	0	7.8270	0	33.7690	0	26.335	0	131.832	0	-1e10	1	-1e10	1	-1E+10	1	-1e10	1	-1e10	1	-1E+10	1	-1E+10	1	-1E+10	1
4902624	33	C	05/17/2025	13:45	-127.241	48.760	0	133.30	0	7.8235	0	33.7704	0	26.336	0	132.130	0	110.2	4	37.9	4	-1E+10	1	0.0542	4	0.000556	0	-1E+10	1	-1E+10	1	-1E+10	1
4902624	33	C	05/17/2025	13:45	-127.241	48.760	0	134.00	0	7.8154	0	33.7737	0	26.340	0	132.823	0	110.1	4	37.9	4	-1E+10	1	0.0548	4	0.000553	0	-1E+10	1	-1E+10	1	-1E+10	1
4902624	33	C	05/17/2025	13:45	-127.241	48.760	0	134.70	0	7.8073	0	33.7771	0	26.344	0	133.517	0	110.0	4	37.8	4	-1E+10	1	0.0560	4	0.000551	0	-1E+10	1	-1E+10	1	-1E+10	1
4902624	33	C	05/17/2025	13:45	-127.241	48.760	0	134.90	0	7.8050	0	33.7780	0	26.345	0	133.715	0	-1e10	1	-1e10	1	-1E+10	1	-1e10	1	-1e10	1	-1E+10	1	-1E+10	1	-1E+10	1
4902624	33	C	05/17/2025	13:45	-127.241	48.760	0	135.50	0	7.8013	0	33.7791	0	26.346	0	134.310	0	109.8	4	37.8	4	-1E+10	1	0.0529	4	0.000583	0	-1E+10	1	-1E+10	1	-1E+10	1
4902624	33	C	05/17/2025	13:45	-127.241	48.760	0	136.20	0	7.7970	0	33.7805	0	26.348	0	135.003	0	109.6	4	37.7	4	-1E+10	1	0.0560	4	0.000584	0	-1E+10	1	-1E+10	1	-1E+10	1
4902624	33	C	05/17/2025	13:45	-127.241	48.760	0	137.00	0	7.7920	0	33.7820	0	26.350	0	135.796	0	107.5	4	37.0	4	-1E+10	1	0.0365	4	0.000599	0	-1E+10	1	-1E+10	1	-1E+10	1
4902624	33	C	05/17/2025	13:45	-127.241	48.760	0	137.80	0	7.7848	0	33.7840	0	26.353	0	136.589	0	109.2	4	37.6	4	-1E+10	1	0.0495	4	0.000626	0	-1E+10	1	-1E+10	1	-1E+10	1
4902624	33	C	05/17/2025	13:45	-127.241	48.760	0	138.50	0	7.7785	0	33.7858	0	26.355	0	137.282	0	109.1	4	37.5	4	-1E+10	1	0.0511	4	0.000586	0	-1E+10	1	-1E+10	1	-1E+10	1
4902624	33	C	05/17/2025	13:45	-127.241	48.760	0	139.00	0	7.7740	0	33.7870	0	26.356	0	137.778	0	-1e10	1	-1e10	1	-1E+10	1	-1e10	1	-1e10	1	-1E+10	1	-1E+10	1	-1E+10	1
4902624	33	C	05/17/2025	13:45	-127.241	48.760	0	139.40	0	7.7711	0	33.7880	0	26.358	0	138.174	0	108.9	4	37.4	4	-1E+10	1	0.0511	4	0.000899	0	-1E+10	1	-1E+10	1	-1E+10	1
4902624	33	C	05/17/2025	13:45	-127.241	48.760	0	140.20	0	7.7654	0	33.7899	0	26.360	0	138.967	0	108.7	4	37.4	4	-1E+10	1	0.0548	4	0.000847	0	-1E+10	1	-1E+10	1	-1E+10	1
4902624	33	C	05/17/2025	13:45	-127.241	48.760	0	141.00	0	7.7597	0	33.7918	0	26.362	0	139.759	0	108.5	4	37.3	4	-1E+10	1	0.0584	4	0.000640	0	-1E+10	1	-1E+10	1	-1E+10	1
4902624	33	C	05/17/2025	13:45	-127.241	48.760	0	141.10	0	7.7590	0	33.7920	0	26.363	0	139.858	0	-1e10	1	-1e10	1	-1E+10	1	-1e10	1	-1e10	1	-1E+10	1	-1E+10	1	-1E+10	1
4902624	33	C	05/17/2025	13:45	-127.241	48.760	0	141.80	0	7.7568	0	33.7927	0	26.364	0	140.552	0	108.3	4	37.2	4	-1E+10	1	0.0535	4	0.000622	0	-1E+10	1	-1E+10	1	-1E+10	1
4902624	33	C	05/17/2025	13:45	-127.241	48.760	0	142.60	0	7.7543	0	33.7936	0	26.365	0	141.345	0	108.1	4	37.1	4	-1E+10	1	0.0438	4	0.000874	0	-1E+10	1	-1E+10	1	-1E+10	1
4902624	33	C	05/17/2025	13:45	-127.241	48.760	0	143.00	0	7.7530	0	33.7940	0	26.365	0	141.741	0	-1e10	1	-1e10	1	-1E+10	1	-1e10	1	-1e10	1	-1E+10	1	-1E+10	1	-1E+10	1
4902624	33	C	05/17/2025	13:45	-127.241	48.760	0	143.40	0	7.7492	0	33.7957	0	26.367	0	142.137	0	107.9	4	37.1	4	-1E+10	1	0.0438	4	0.001850	0	-1E+10	1	-1E+10	1	-1E+10	1
4902624	33	C	05/17/2025	13:45	-127.241	48.760	0	144.20	0	7.7416	0	33.7990	0	26.371	0	142.930	0	107.7	4	37.0	4	-1E+10	1	0.0511	4	0.000676	0	-1E+10	1	-1E+10	1	-1E+10	1
4902624	33	C	05/17/2025	13:45	-127.241	48.760	0	144.90	0	7.7350	0	33.8020	0	26.374	0	143.624	0	-1e10	1	-1e10	1	-1E+10	1	-1e10	1	-1e10	1	-1E+10	1	-1E+10	1	-1E+10	1
4902624	33	C	05/17/2025	13:45	-127.241	48.760	0	145.10	0	7.7340	0	33.8024	0	26.374	0	143.822	0	107.6	4	36.9	4	-1E+10	1	0.0577	4	0.000571	0	-1E+10	1	-1E+10	1	-1E+10	1
4902624	33	C	05/17/2025	13:45	-127.241	48.760	0	145.90	0	7.7300	0	33.8040	0	26.376	0	144.614	0	107.4	4	36.9	4	-1E+10	1	0.0584	4	0.000551	0	-1E+10	1	-1E+10	1	-1E+10	1
4902624	33	C	05/17/2025	13:45	-127.241	48.760	0	146.70	0	7.7260	0	33.8056	0	26.378	0	145.407	0	107.2	4	36.8	4	-1E+10	1	0.0543	4	0.000580	0	-1E+10	1	-1E+10	1	-1E+10	1
4902624	33	C	05/17/2025	13:45	-127.241	48.760	0	146.90	0	7.7250	0	33.8060	0	26.379	0	145.605	0	-1e10	1	-1e10	1	-1E+10	1	-1e10	1	-1e10	1	-1E+10	1	-1E+10	1	-1E+10	1
4902624	33	C	05/17/2025	13:45	-127.241	48.760	0	147.60	0	7.7193	0	33.8073	0	26.380	0	146.299	0	107.0	4	36.7	4	-1E+10	1	0.0474	4	0.000606	0	-1E+10	1	-1E+10	1	-1E+10	1
4902624	33	C	05/17/2025	13:45	-127.241	48.760	0	148.40	0	7.7129	0	33.8089	0	26.383	0	147.092	0	106.9	4	36.7	4	-1E+10	1	0.0482	4	0.000595	0	-1E+10	1	-1E+10	1	-1E+10	1
4902624	33	C	05/17/2025	13:45	-127.241	48.760	0	149.00	0	7.7080	0	33.8100	0	26.384	0	147.686	0	-1e10	1	-1e10	1	-1E+10	1	-1e10	1	-1e10	1	-1E+10	1	-1E+10	1	-1E+10	1
4902624	33	C	05/17/2025	13:45	-127.241	48.760	0	149.30	0	7.7064	0	33.8105	0	26.385	0	147.983	0	106.6	4	36.6	4	-1E+10	1	0.0552	4	0.000576	0	-1E+10	1	-1E+10	1	-1E+10	1
4902624	33	C	05/17/2025	13:45	-127.241	48.760	0	150.10	0	7.7020	0	33.8116	0	26.386	0	148.776	0	106.4	4	36.5	4	-1E+10	1	0.0445	4	0.000594	0	-1E+10	1	-1E+10	1	-1E+10	1
4902624	33	C	05/17/2025	13:45	-127.241	48.760	0	151.00	0	7.6970	0	33.8130	0	26.388	0	149.668	0	104.3	4	35.8	4	-1E+10	1	0.0511	4	0.000587	0	-1E+10	1	-1E+10	1	-1E+10	1
4902624	33	C	05/17/2025	13:45	-127.241	48.760	0	151.90	0	7.6852	0	33.8163	0	26.393	0	150.559	0	105.9	4	36.3	4	-1E+10	1	0.0584	4	0.000594	0	-1E+10	1	-1E+10	1	-1E+10	1
4902624	33	C	05/17/2025	13:45	-127.241	48.760	0	152.70	0	7.6746	0	33.8193	0	26.396	0	151.352	0	105.6	4	36.2	4	-1E+10	1	0.0584	4	0.000618	0	-1E+10	1	-1E+10	1	-1E+10	1
4902624	33	C	05/17/2025	13:45	-127.241	48.760	0	152.90	0	7.6720	0	33.8200	0	26.397	0	151.550	0	-1e10	1	-1e10	1	-1E+10	1	-1e10	1	-1e10	1	-1E+10	1	-1E+10	1	-1E+10	1
4902624	33	C	05/17/2025	13:45	-127.241	48.760	0	153.60	0	7.6610	0	33.8217	0	26.400	0	152.244	0	105.4	4	36.1	4	-1E+10	1	0.0387	4	0.000554	0	-1E+10	1	-1E+10	1	-1E+10	1
4902624	33	C	05/17/2025	13:45	-127.241	48.760	0	154.40	0	7.6484	0	33.8236	0	26.404	0	153.036	0	105.1	4	36.0	4	-1E+10	1	0.0458	4	0.000629	0	-1E+10	1	-1E+10	1	-1E+10	1
4902624	33	C	05/17/2025	13:45	-127.241	48.760	0	155.00	0	7.6390	0	33.8250	0	26.406	0	153.631	0	-1e10	1	-1e10	1	-1E+10	1	-1e10	1	-1e10	1	-1E+10	1	-1E+10	1	-1E+10	1
4902624	33	C	05/17/2025	13:45	-127.241	48.760	0	155.30	0	7.6363	0	33.8259	0	26.407	0	153.928	0	104.8	4	35.9	4	-1E+10	1	0.0511	4	0.000631	0	-1E+10	1	-1E+10	1	-1E+10	1
4902624	33	C	05/17/2025	13:45	-127.241	48.760	0	156.20	0	7.6281	0	33.8284	0	26.410	0	154.820	0	104.5	4	35.8	4	-1E+10	1	0.0438	4	0.000582	0	-1E+10	1	-1E+10	1	-1E+10	1
4902624	33	C	05/17/2025	13:45	-127.241	48.760	0	157.10	0	7.6200	0	33.8310	0	26.414	0	155.712	0	102.4	4	35.1	4	-1E+10	1	0.0392	4	0.000618	0	-1E+10	1	-1E+10	1	-1E+10	1
4902624	33	C	05/17/2025	13:45	-127.241	48.760	0	157.90	0	7.6148	0	33.8330	0	26.416	0	156.504	0	104.0	4	35.6	4	-1E+10	1	0.0456	4	0.000707	0	-1E+10	1	-1E+10	1	-1E+10	1
4902624	33	C	05/17/2025	13:45	-127.241	48.760	0	158.80	0	7.6089	0	33.8353	0	26.418	0	157.396	0	103.8	4	35.5	4	-1E+10	1	0.0571	4	0.000750	0	-1E+10	1	-1E+10	1	-1E+10	1
4902624	33	C	05/17/2025	13:45	-127.241	48.760	0	159.10	0	7.6070	0	33.8360	0	26.419	0	157.693	0	-1e10	1	-1e10	1	-1E+10	1	-1e10	1	-1e10	1	-1E+10	1	-1E+10	1	-1E+10	1
4902624	33	C	05/17/2025	13:45	-127.241	48.760	0	159.70	0	7.6016	0	33.8376	0	26.421	0	158.288	0	103.5	4	35.5	4	-1E+10	1	0.0511	4	0.000712	0	-1E+10	1	-1E+10	1	-1E+10	1
4902624	33	C	05/17/2025	13:45	-127.241	48.760	0	160.50	0	7.5945	0	33.8397	0	26.424	0	159.080	0	103.3	4	35.4	4	-1E+10	1	0.0569	4	0.000618	0	-1E+10	1	-1E+10	1	-1E+10	1
4902624	33	C	05/17/2025	13:45	-127.241	48.760	0	161.00	0	7.5900	0	33.8410	0	26.426	0	159.576	0	-1e10	1	-1e10	1	-1E+10	1	-1e10	1	-1e10	1	-1E+10	1	-1E+10	1	-1E+10	1
4902624	33	C	05/17/2025	13:45	-127.241	48.760	0	161.40	0	7.5846	0	33.8418	0	26.427	0	159.972	0	103.1	4	35.3	4	-1E+10	1	0.0584	4	0.000612	0	-1E+10	1	-1E+10	1	-1E+10	1
4902624	33	C	05/17/2025	13:45	-127.241	48.760	0	162.30	0	7.5725	0	33.8436	0	26.430	0	160.864	0	102.9	4	35.2	4	-1E+10	1	0.0445	4	0.000618	0	-1E+10	1	-1E+10	1	-1E+10	1
4902624	33	C	05/17/2025	13:45	-127.241	48.760	0	163.00	0	7.5630	0	33.8450	0	26.433	0	161.557	0	-1e10	1	-1e10	1	-1E+10	1	-1e10	1	-1e10	1	-1E+10	1	-1E+10	1	-1E+10	1
4902624	33	C	05/17/2025	13:45	-127.241	48.760	0	163.20	0	7.5618	0	33.8452	0	26.433	0	161.755	0	102.6	4	35.1	4	-1E+10	1	0.0511	4	0.000641	0	-1E+10	1	-1E+10	1	-1E+10	1
4902624	33	C	05/17/2025	13:45	-127.241	48.760	0	164.10	0	7.5564	0	33.8461	0	26.435	0	162.647	0	102.2	4	35.0	4	-1E+10	1	0.0495	4	0.000638	0	-1E+10	1	-1E+10	1	-1E+10	1
4902624	33	C	05/17/2025	13:45	-127.241	48.760	0	164.90	0	7.5516	0	33.8469	0	26.436	0	163.440	0	101.9	4	34.8	4	-1E+10	1	0.0380	4	0.000616	0	-1E+10	1	-1E+10	1	-1E+10	1
4902624	33	C	05/17/2025	13:45	-127.241	48.760	0	165.00	0	7.5510	0	33.8470	0	26.436	0	163.539	0	-1e10	1	-1e10	1	-1E+10	1	-1e10	1	-1e10	1	-1E+10	1	-1E+10	1	-1E+10	1
4902624	33	C	05/17/2025	13:45	-127.241	48.760	0	165.80	0	7.5482	0	33.8470	0	26.436	0	164.331	0	101.5	4	34.7	4	-1E+10	1	0.0557	4	0.000637	0	-1E+10	1	-1E+10	1	-1E+10	1
4902624	33	C	05/17/2025	13:45	-127.241	48.760	0	166.70	0	7.5451	0	33.8470	0	26.437	0	165.223	0	101.0	4	34.5	4	-1E+10	1	0.0438	4	0.000618	0	-1E+10	1	-1E+10	1	-1E+10	1
4902624	33	C	05/17/2025	13:45	-127.241	48.760	0	167.00	0	7.5440	0	33.8470	0	26.437	0	165.520	0	-1e10	1	-1e10	1	-1E+10	1	-1e10	1	-1e10	1	-1E+10	1	-1E+10	1	-1E+10	1
4902624	33	C	05/17/2025	13:45	-127.241	48.760	0	167.50	0	7.5325	0	33.8490	0	26.440	0	166.015	0	100.4	4	34.3	4	-1E+10	1	0.0584	4	0.000559	0	-1E+10	1	-1E+10	1	-1E+10	1
4902624	33	C	05/17/2025	13:45	-127.241	48.760	0	168.50	0	7.5095	0	33.8530	0	26.447	0	167.006	0	99.7	4	34.1	4	-1E+10	1	0.0365	4	0.000594	0	-1E+10	1	-1E+10	1	-1E+10	1
4902624	33	C	05/17/2025	13:45	-127.241	48.760	0	169.00	0	7.4980	0	33.8550	0	26.450	0	167.502	0	-1e10	1	-1e10	1	-1E+10	1	-1e10	1	-1e10	1	-1E+10	1	-1E+10	1	-1E+10	1
4902624	33	C	05/17/2025	13:45	-127.241	48.760	0	169.30	0	7.4943	0	33.8556	0	26.451	0	167.799	0	99.2	4	33.9	4	-1E+10	1	0.0418	4	0.000560	0	-1E+10	1	-1E+10	1	-1E+10	1
4902624	33	C	05/17/2025	13:45	-127.241	48.760	0	170.10	0	7.4843	0	33.8572	0	26.454	0	168.591	0	98.7	4	33.7	4	-1E+10	1	0.0600	4	0.000567	0	-1E+10	1	-1E+10	1	-1E+10	1
4902624	33	C	05/17/2025	13:45	-127.241	48.760	0	171.00	0	7.4730	0	33.8590	0	26.457	0	169.483	0	96.4	4	32.9	4	-1E+10	1	0.0584	4	0.000823	0	-1E+10	1	-1E+10	1	-1E+10	1
4902624	33	C	05/17/2025	13:45	-127.241	48.760	0	171.80	0	7.4630	0	33.8606	0	26.459	0	170.276	0	97.7	4	33.4	4	-1E+10	1	0.0482	4	0.000965	0	-1E+10	1	-1E+10	1	-1E+10	1
4902624	33	C	05/17/2025	13:45	-127.241	48.760	0	172.70	0	7.4517	0	33.8624	0	26.462	0	171.167	0	97.0	4	33.1	4	-1E+10	1	0.0584	4	0.000750	0	-1E+10	1	-1E+10	1	-1E+10	1
4902624	33	C	05/17/2025	13:45	-127.241	48.760	0	173.00	0	7.4480	0	33.8630	0	26.463	0	171.464	0	-1e10	1	-1e10	1	-1E+10	1	-1e10	1	-1e10	1	-1E+10	1	-1E+10	1	-1E+10	1
4902624	33	C	05/17/2025	13:45	-127.241	48.760	0	173.50	0	7.4375	0	33.8645	0	26.466	0	171.960	0	96.4	4	32.9	4	-1E+10	1	0.0584	4	0.000791	0	-1E+10	1	-1E+10	1	-1E+10	1
4902624	33	C	05/17/2025	13:45	-127.241	48.760	0	174.40	0	7.4186	0	33.8672	0	26.471	0	172.851	0	95.7	4	32.7	4	-1E+10	1	0.0584	4	0.000664	0	-1E+10	1	-1E+10	1	-1E+10	1
4902624	33	C	05/17/2025	13:45	-127.241	48.760	0	175.00	0	7.4060	0	33.8690	0	26.474	0	173.446	0	-1e10	1	-1e10	1	-1E+10	1	-1e10	1	-1e10	1	-1E+10	1	-1E+10	1	-1E+10	1
4902624	33	C	05/17/2025	13:45	-127.241	48.760	0	175.30	0	7.4018	0	33.8698	0	26.475	0	173.743	0	95.2	4	32.5	4	-1E+10	1	0.0650	4	0.000643	0	-1E+10	1	-1E+10	1	-1E+10	1
4902624	33	C	05/17/2025	13:45	-127.241	48.760	0	176.10	0	7.3906	0	33.8717	0	26.478	0	174.536	0	94.9	4	32.3	4	-1E+10	1	0.0657	4	0.000687	0	-1E+10	1	-1E+10	1	-1E+10	1
4902624	33	C	05/17/2025	13:45	-127.241	48.760	0	177.00	0	7.3780	0	33.8740	0	26.482	0	175.427	0	92.7	4	31.6	4	-1E+10	1	0.0606	4	0.000815	0	-1E+10	1	-1E+10	1	-1E+10	1
4902624	33	C	05/17/2025	13:45	-127.241	48.760	0	177.80	0	7.3752	0	33.8776	0	26.485	0	176.220	0	94.2	4	32.1	4	-1E+10	1	0.0584	4	0.000789	0	-1E+10	1	-1E+10	1	-1E+10	1
4902624	33	C	05/17/2025	13:45	-127.241	48.760	0	178.70	0	7.3720	0	33.8816	0	26.489	0	177.111	0	94.0	4	32.0	4	-1E+10	1	0.0557	4	0.000779	0	-1E+10	1	-1E+10	1	-1E+10	1
4902624	33	C	05/17/2025	13:45	-127.241	48.760	0	179.00	0	7.3710	0	33.8830	0	26.490	0	177.409	0	-1e10	1	-1e10	1	-1E+10	1	-1e10	1	-1e10	1	-1E+10	1	-1E+10	1	-1E+10	1
4902624	33	C	05/17/2025	13:45	-127.241	48.760	0	179.60	0	7.3590	0	33.8830	0	26.492	0	178.003	0	93.9	4	32.0	4	-1E+10	1	0.0511	4	0.000830	0	-1E+10	1	-1E+10	1	-1E+10	1
4902624	33	C	05/17/2025	13:45	-127.241	48.760	0	180.50	0	7.3410	0	33.8830	0	26.494	0	178.895	0	93.7	4	31.9	4	-1E+10	1	0.0511	4	0.000683	0	-1E+10	1	-1E+10	1	-1E+10	1
4902624	33	C	05/17/2025	13:45	-127.241	48.760	0	181.10	0	7.3290	0	33.8830	0	26.496	0	179.489	0	-1e10	1	-1e10	1	-1E+10	1	-1e10	1	-1e10	1	-1E+10	1	-1E+10	1	-1E+10	1
4902624	33	C	05/17/2025	13:45	-127.241	48.760	0	181.30	0	7.3253	0	33.8832	0	26.497	0	179.687	0	93.4	4	31.8	4	-1E+10	1	0.0511	4	0.000664	0	-1E+10	1	-1E+10	1	-1E+10	1
4902624	33	C	05/17/2025	13:45	-127.241	48.760	0	182.20	0	7.3087	0	33.8841	0	26.500	0	180.579	0	93.1	4	31.7	4	-1E+10	1	0.0584	4	0.000817	0	-1E+10	1	-1E+10	1	-1E+10	1
4902624	33	C	05/17/2025	13:45	-127.241	48.760	0	183.10	0	7.2920	0	33.8850	0	26.503	0	181.470	0	91.1	4	31.0	4	-1E+10	1	0.0453	4	0.000743	0	-1E+10	1	-1E+10	1	-1E+10	1
4902624	33	C	05/17/2025	13:45	-127.241	48.760	0	184.00	0	7.2839	0	33.8872	0	26.506	0	182.362	0	92.6	4	31.5	4	-1E+10	1	0.0438	4	0.000675	0	-1E+10	1	-1E+10	1	-1E+10	1
4902624	33	C	05/17/2025	13:45	-127.241	48.760	0	184.90	0	7.2758	0	33.8895	0	26.509	0	183.254	0	92.3	4	31.4	4	-1E+10	1	0.0487	4	0.000653	0	-1E+10	1	-1E+10	1	-1E+10	1
4902624	33	C	05/17/2025	13:45	-127.241	48.760	0	185.10	0	7.2740	0	33.8900	0	26.509	0	183.452	0	-1e10	1	-1e10	1	-1E+10	1	-1e10	1	-1e10	1	-1E+10	1	-1E+10	1	-1E+10	1
4902624	33	C	05/17/2025	13:45	-127.241	48.760	0	185.70	0	7.2639	0	33.8909	0	26.511	0	184.046	0	92.0	4	31.3	4	-1E+10	1	0.0544	4	0.000647	0	-1E+10	1	-1E+10	1	-1E+10	1
4902624	33	C	05/17/2025	13:45	-127.241	48.760	0	186.60	0	7.2487	0	33.8924	0	26.515	0	184.938	0	91.7	4	31.2	4	-1E+10	1	0.0562	4	0.000637	0	-1E+10	1	-1E+10	1	-1E+10	1
4902624	33	C	05/17/2025	13:45	-127.241	48.760	0	187.00	0	7.2420	0	33.8930	0	26.516	0	185.334	0	-1e10	1	-1e10	1	-1E+10	1	-1e10	1	-1e10	1	-1E+10	1	-1E+10	1	-1E+10	1
4902624	33	C	05/17/2025	13:45	-127.241	48.760	0	187.50	0	7.2330	0	33.8938	0	26.518	0	185.829	0	91.3	4	31.0	4	-1E+10	1	0.0511	4	0.000650	0	-1E+10	1	-1E+10	1	-1E+10	1
4902624	33	C	05/17/2025	13:45	-127.241	48.760	0	188.40	0	7.2168	0	33.8951	0	26.521	0	186.721	0	91.0	4	30.9	4	-1E+10	1	0.0524	4	0.000704	0	-1E+10	1	-1E+10	1	-1E+10	1
4902624	33	C	05/17/2025	13:45	-127.241	48.760	0	189.00	0	7.2060	0	33.8960	0	26.523	0	187.315	0	-1e10	1	-1e10	1	-1E+10	1	-1e10	1	-1e10	1	-1E+10	1	-1E+10	1	-1E+10	1
4902624	33	C	05/17/2025	13:45	-127.241	48.760	0	189.30	0	7.2030	0	33.8963	0	26.524	0	187.612	0	90.7	4	30.8	4	-1E+10	1	0.0584	4	0.000617	0	-1E+10	1	-1E+10	1	-1E+10	1
4902624	33	C	05/17/2025	13:45	-127.241	48.760	0	190.20	0	7.1940	0	33.8972	0	26.526	0	188.504	0	90.5	4	30.7	4	-1E+10	1	0.0644	4	0.000617	0	-1E+10	1	-1E+10	1	-1E+10	1
4902624	33	C	05/17/2025	13:45	-127.241	48.760	0	191.00	0	7.1860	0	33.8980	0	26.528	0	189.296	0	-1e10	1	-1e10	1	-1E+10	1	-1e10	1	-1e10	1	-1E+10	1	-1E+10	1	-1E+10	1
4902624	33	C	05/17/2025	13:45	-127.241	48.760	0	191.10	0	7.1852	0	33.8980	0	26.528	0	189.396	0	90.2	4	30.6	4	-1E+10	1	0.0402	4	0.000576	0	-1E+10	1	-1E+10	1	-1E+10	1
4902624	33	C	05/17/2025	13:45	-127.241	48.760	0	191.90	0	7.1788	0	33.8984	0	26.529	0	190.188	0	90.0	4	30.5	4	-1E+10	1	0.0504	4	0.000585	0	-1E+10	1	-1E+10	1	-1E+10	1
4902624	33	C	05/17/2025	13:45	-127.241	48.760	0	192.80	0	7.1716	0	33.8989	0	26.530	0	191.080	0	89.6	4	30.4	4	-1E+10	1	0.0551	4	0.000615	0	-1E+10	1	-1E+10	1	-1E+10	1
4902624	33	C	05/17/2025	13:45	-127.241	48.760	0	193.00	0	7.1700	0	33.8990	0	26.531	0	191.278	0	-1e10	1	-1e10	1	-1E+10	1	-1e10	1	-1e10	1	-1E+10	1	-1E+10	1	-1E+10	1
4902624	33	C	05/17/2025	13:45	-127.241	48.760	0	193.70	0	7.1623	0	33.8997	0	26.532	0	191.971	0	89.2	4	30.3	4	-1E+10	1	0.0511	4	0.000641	0	-1E+10	1	-1E+10	1	-1E+10	1
4902624	33	C	05/17/2025	13:45	-127.241	48.760	0	194.60	0	7.1523	0	33.9007	0	26.535	0	192.863	0	88.7	4	30.1	4	-1E+10	1	0.0487	4	0.000649	0	-1E+10	1	-1E+10	1	-1E+10	1
4902624	33	C	05/17/2025	13:45	-127.241	48.760	0	194.90	0	7.1490	0	33.9010	0	26.535	0	193.160	0	-1e10	1	-1e10	1	-1E+10	1	-1e10	1	-1e10	1	-1E+10	1	-1E+10	1	-1E+10	1
4902624	33	C	05/17/2025	13:45	-127.241	48.760	0	195.50	0	7.1484	0	33.9022	0	26.536	0	193.754	0	88.1	4	29.9	4	-1E+10	1	0.0453	4	0.000655	0	-1E+10	1	-1E+10	1	-1E+10	1
4902624	33	C	05/17/2025	13:45	-127.241	48.760	0	196.40	0	7.1475	0	33.9040	0	26.538	0	194.646	0	87.4	4	29.6	4	-1E+10	1	0.0584	4	0.000570	0	-1E+10	1	-1E+10	1	-1E+10	1
4902624	33	C	05/17/2025	13:45	-127.241	48.760	0	196.90	0	7.1470	0	33.9050	0	26.539	0	195.141	0	-1e10	1	-1e10	1	-1E+10	1	-1e10	1	-1e10	1	-1E+10	1	-1E+10	1	-1E+10	1
4902624	33	C	05/17/2025	13:45	-127.241	48.760	0	197.30	0	7.1453	0	33.9060	0	26.540	0	195.537	0	86.7	4	29.4	4	-1E+10	1	0.0657	4	0.000594	0	-1E+10	1	-1E+10	1	-1E+10	1
4902624	33	C	05/17/2025	13:45	-127.241	48.760	0	198.20	0	7.1414	0	33.9081	0	26.542	0	196.429	0	86.0	4	29.2	4	-1E+10	1	0.0597	4	0.000555	0	-1E+10	1	-1E+10	1	-1E+10	1
4902624	33	C	05/17/2025	13:45	-127.241	48.760	0	199.00	0	7.1380	0	33.9100	0	26.544	0	197.221	0	-1e10	1	-1e10	1	-1E+10	1	-1e10	1	-1e10	1	-1E+10	1	-1E+10	1	-1E+10	1
4902624	33	C	05/17/2025	13:45	-127.241	48.760	0	199.20	0	7.1348	0	33.9112	0	26.545	0	197.419	0	85.3	4	28.9	4	-1E+10	1	0.0584	4	0.000563	0	-1E+10	1	-1E+10	1	-1E+10	1
4902624	33	C	05/17/2025	13:45	-127.241	48.760	0	200.10	0	7.1204	0	33.9166	0	26.552	0	198.311	0	84.9	4	28.8	4	-1E+10	1	0.0543	4	0.000544	0	-1E+10	1	-1E+10	1	-1E+10	1
4902624	33	C	05/17/2025	13:45	-127.241	48.760	0	201.00	0	7.1060	0	33.9220	0	26.558	0	199.202	0	-1e10	1	-1e10	1	-1E+10	1	-1e10	1	-1e10	1	-1E+10	1	-1E+10	1	-1E+10	1
4902624	33	C	05/17/2025	13:45	-127.241	48.760	0	201.10	0	7.1051	0	33.9220	0	26.558	0	199.302	0	84.5	4	28.6	4	-1E+10	1	0.0548	4	0.000647	0	-1E+10	1	-1E+10	1	-1E+10	1
4902624	33	C	05/17/2025	13:45	-127.241	48.760	0	202.00	0	7.0965	0	33.9220	0	26.559	0	200.193	0	84.0	4	28.5	4	-1E+10	1	0.0604	4	0.000731	0	-1E+10	1	-1E+10	1	-1E+10	1
4902624	33	C	05/17/2025	13:45	-127.241	48.760	0	203.00	0	7.0870	0	33.9220	0	26.560	0	201.184	0	81.9	4	27.7	4	-1E+10	1	0.0642	4	0.000627	0	-1E+10	1	-1E+10	1	-1E+10	1
4902624	33	C	05/17/2025	13:45	-127.241	48.760	0	204.00	0	7.0759	0	33.9246	0	26.564	0	202.174	0	83.0	4	28.1	4	-1E+10	1	0.0584	4	0.000603	0	-1E+10	1	-1E+10	1	-1E+10	1
4902624	33	C	05/17/2025	13:45	-127.241	48.760	0	204.90	0	7.0660	0	33.9270	0	26.567	0	203.066	0	81.0	4	27.4	4	-1E+10	1	0.0584	4	0.000539	0	-1E+10	1	-1E+10	1	-1E+10	1
4902624	33	C	05/17/2025	13:45	-127.241	48.760	0	205.90	0	7.0636	0	33.9284	0	26.569	0	204.056	0	82.2	4	27.8	4	-1E+10	1	0.0645	4	0.000614	0	-1E+10	1	-1E+10	1	-1E+10	1
4902624	33	C	05/17/2025	13:45	-127.241	48.760	0	206.80	0	7.0615	0	33.9297	0	26.570	0	204.948	0	81.8	4	27.7	4	-1E+10	1	0.0543	4	0.000586	0	-1E+10	1	-1E+10	1	-1E+10	1
4902624	33	C	05/17/2025	13:45	-127.241	48.760	0	207.00	0	7.0610	0	33.9300	0	26.570	0	205.146	0	-1e10	1	-1e10	1	-1E+10	1	-1e10	1	-1e10	1	-1E+10	1	-1E+10	1	-1E+10	1
4902624	33	C	05/17/2025	13:45	-127.241	48.760	0	207.80	0	7.0563	0	33.9307	0	26.572	0	205.938	0	81.4	4	27.6	4	-1E+10	1	0.0511	4	0.000572	0	-1E+10	1	-1E+10	1	-1E+10	1
4902624	33	C	05/17/2025	13:45	-127.241	48.760	0	208.80	0	7.0504	0	33.9316	0	26.573	0	206.929	0	81.0	4	27.4	4	-1E+10	1	0.0548	4	0.000570	0	-1E+10	1	-1E+10	1	-1E+10	1
4902624	33	C	05/17/2025	13:45	-127.241	48.760	0	209.20	0	7.0480	0	33.9320	0	26.574	0	207.325	0	-1e10	1	-1e10	1	-1E+10	1	-1e10	1	-1e10	1	-1E+10	1	-1E+10	1	-1E+10	1
4902624	33	C	05/17/2025	13:45	-127.241	48.760	0	209.70	0	7.0436	0	33.9328	0	26.575	0	207.820	0	80.6	4	27.3	4	-1E+10	1	0.0535	4	0.000574	0	-1E+10	1	-1E+10	1	-1E+10	1
4902624	33	C	05/17/2025	13:45	-127.241	48.760	0	210.70	0	7.0347	0	33.9345	0	26.578	0	208.811	0	80.2	4	27.2	4	-1E+10	1	0.0438	4	0.000590	0	-1E+10	1	-1E+10	1	-1E+10	1
4902624	33	C	05/17/2025	13:45	-127.241	48.760	0	211.00	0	7.0320	0	33.9350	0	26.578	0	209.108	0	-1e10	1	-1e10	1	-1E+10	1	-1e10	1	-1e10	1	-1E+10	1	-1E+10	1	-1E+10	1
4902624	33	C	05/17/2025	13:45	-127.241	48.760	0	211.70	0	7.0254	0	33.9364	0	26.580	0	209.801	0	79.9	4	27.0	4	-1E+10	1	0.0453	4	0.000598	0	-1E+10	1	-1E+10	1	-1E+10	1
4902624	33	C	05/17/2025	13:45	-127.241	48.760	0	212.70	0	7.0159	0	33.9384	0	26.583	0	210.792	0	79.6	4	26.9	4	-1E+10	1	0.0526	4	0.000573	0	-1E+10	1	-1E+10	1	-1E+10	1
4902624	33	C	05/17/2025	13:45	-127.241	48.760	0	213.00	0	7.0130	0	33.9390	0	26.584	0	211.089	0	-1e10	1	-1e10	1	-1E+10	1	-1e10	1	-1e10	1	-1E+10	1	-1E+10	1	-1E+10	1
4902624	33	C	05/17/2025	13:45	-127.241	48.760	0	213.70	0	7.0092	0	33.9397	0	26.585	0	211.782	0	79.3	4	26.8	4	-1E+10	1	0.0584	4	0.000570	0	-1E+10	1	-1E+10	1	-1E+10	1
4902624	33	C	05/17/2025	13:45	-127.241	48.760	0	214.70	0	7.0036	0	33.9407	0	26.587	0	212.773	0	79.0	4	26.7	4	-1E+10	1	0.0584	4	0.000512	0	-1E+10	1	-1E+10	1	-1E+10	1
4902624	33	C	05/17/2025	13:45	-127.241	48.760	0	215.00	0	7.0020	0	33.9410	0	26.587	0	213.070	0	-1e10	1	-1e10	1	-1E+10	1	-1e10	1	-1e10	1	-1E+10	1	-1E+10	1	-1E+10	1
4902624	33	C	05/17/2025	13:45	-127.241	48.760	0	215.70	0	6.9960	0	33.9421	0	26.589	0	213.763	0	78.7	4	26.6	4	-1E+10	1	0.0523	4	0.000512	0	-1E+10	1	-1E+10	1	-1E+10	1
4902624	33	C	05/17/2025	13:45	-127.241	48.760	0	216.70	0	6.9876	0	33.9436	0	26.591	0	214.754	0	78.5	4	26.5	4	-1E+10	1	0.0569	4	0.000502	0	-1E+10	1	-1E+10	1	-1E+10	1
4902624	33	C	05/17/2025	13:45	-127.241	48.760	0	217.00	0	6.9850	0	33.9440	0	26.592	0	215.051	0	-1e10	1	-1e10	1	-1E+10	1	-1e10	1	-1e10	1	-1E+10	1	-1E+10	1	-1E+10	1
4902624	33	C	05/17/2025	13:45	-127.241	48.760	0	217.70	0	6.9827	0	33.9443	0	26.593	0	215.744	0	78.3	4	26.5	4	-1E+10	1	0.0681	4	0.001086	0	-1E+10	1	-1E+10	1	-1E+10	1
4902624	33	C	05/17/2025	13:45	-127.241	48.760	0	218.70	0	6.9793	0	33.9448	0	26.593	0	216.735	0	78.0	4	26.4	4	-1E+10	1	0.0663	4	0.001001	0	-1E+10	1	-1E+10	1	-1E+10	1
4902624	33	C	05/17/2025	13:45	-127.241	48.760	0	219.10	0	6.9780	0	33.9450	0	26.594	0	217.131	0	-1e10	1	-1e10	1	-1E+10	1	-1e10	1	-1e10	1	-1E+10	1	-1E+10	1	-1E+10	1
4902624	33	C	05/17/2025	13:45	-127.241	48.760	0	219.80	0	6.9735	0	33.9450	0	26.594	0	217.824	0	77.8	4	26.3	4	-1E+10	1	0.0584	4	0.000540	0	-1E+10	1	-1E+10	1	-1E+10	1
4902624	33	C	05/17/2025	13:45	-127.241	48.760	0	220.80	0	6.9669	0	33.9450	0	26.595	0	218.815	0	77.5	4	26.2	4	-1E+10	1	0.0584	4	0.000515	0	-1E+10	1	-1E+10	1	-1E+10	1
4902624	33	C	05/17/2025	13:45	-127.241	48.760	0	221.10	0	6.9650	0	33.9450	0	26.595	0	219.112	0	-1e10	1	-1e10	1	-1E+10	1	-1e10	1	-1e10	1	-1E+10	1	-1E+10	1	-1E+10	1
4902624	33	C	05/17/2025	13:45	-127.241	48.760	0	221.80	0	6.9525	0	33.9465	0	26.598	0	219.805	0	77.3	4	26.1	4	-1E+10	1	0.0584	4	0.000525	0	-1E+10	1	-1E+10	1	-1E+10	1
4902624	33	C	05/17/2025	13:45	-127.241	48.760	0	222.90	0	6.9328	0	33.9488	0	26.603	0	220.895	0	77.1	4	26.0	4	-1E+10	1	0.0584	4	0.000535	0	-1E+10	1	-1E+10	1	-1E+10	1
4902624	33	C	05/17/2025	13:45	-127.241	48.760	0	223.00	0	6.9310	0	33.9490	0	26.603	0	220.994	0	-1e10	1	-1e10	1	-1E+10	1	-1e10	1	-1e10	1	-1E+10	1	-1E+10	1	-1E+10	1
4902624	33	C	05/17/2025	13:45	-127.241	48.760	0	223.90	0	6.9237	0	33.9494	0	26.605	0	221.885	0	77.0	4	26.0	4	-1E+10	1	0.0657	4	0.000511	0	-1E+10	1	-1E+10	1	-1E+10	1
4902624	33	C	05/17/2025	13:45	-127.241	48.760	0	225.00	0	6.9148	0	33.9500	0	26.606	0	222.975	0	76.8	4	25.9	4	-1E+10	1	0.0590	4	0.000676	0	-1E+10	1	-1E+10	1	-1E+10	1
4902624	33	C	05/17/2025	13:45	-127.241	48.760	0	225.10	0	6.9140	0	33.9500	0	26.606	0	223.074	0	-1e10	1	-1e10	1	-1E+10	1	-1e10	1	-1e10	1	-1E+10	1	-1E+10	1	-1E+10	1
4902624	33	C	05/17/2025	13:45	-127.241	48.760	0	226.00	0	6.9022	0	33.9505	0	26.608	0	223.965	0	76.7	4	25.9	4	-1E+10	1	0.0483	4	0.000559	0	-1E+10	1	-1E+10	1	-1E+10	1
4902624	33	C	05/17/2025	13:45	-127.241	48.760	0	227.00	0	6.8890	0	33.9510	0	26.611	0	224.956	0	75.1	4	25.3	4	-1E+10	1	0.0518	4	0.000538	0	-1E+10	1	-1E+10	1	-1E+10	1
4902624	33	C	05/17/2025	13:45	-127.241	48.760	0	228.10	0	6.8838	0	33.9504	0	26.611	0	226.045	0	76.4	4	25.8	4	-1E+10	1	0.0548	4	0.000529	0	-1E+10	1	-1E+10	1	-1E+10	1
4902624	33	C	05/17/2025	13:45	-127.241	48.760	0	228.90	0	6.8800	0	33.9500	0	26.611	0	226.838	0	-1e10	1	-1e10	1	-1E+10	1	-1e10	1	-1e10	1	-1E+10	1	-1E+10	1	-1E+10	1
4902624	33	C	05/17/2025	13:45	-127.241	48.760	0	229.20	0	6.8777	0	33.9499	0	26.611	0	227.135	0	76.3	4	25.7	4	-1E+10	1	0.0511	4	0.000492	0	-1E+10	1	-1E+10	1	-1E+10	1
4902624	33	C	05/17/2025	13:45	-127.241	48.760	0	230.20	0	6.8701	0	33.9494	0	26.612	0	228.125	0	76.1	4	25.7	4	-1E+10	1	0.0524	4	0.000498	0	-1E+10	1	-1E+10	1	-1E+10	1
4902624	33	C	05/17/2025	13:45	-127.241	48.760	0	231.00	0	6.8640	0	33.9490	0	26.612	0	228.918	0	-1e10	1	-1e10	1	-1E+10	1	-1e10	1	-1e10	1	-1E+10	1	-1E+10	1	-1E+10	1
4902624	33	C	05/17/2025	13:45	-127.241	48.760	0	231.30	0	6.8596	0	33.9489	0	26.613	0	229.215	0	75.9	4	25.6	4	-1E+10	1	0.0573	4	0.000486	0	-1E+10	1	-1E+10	1	-1E+10	1
4902624	33	C	05/17/2025	13:45	-127.241	48.760	0	232.40	0	6.8437	0	33.9483	0	26.615	0	230.304	0	75.7	4	25.5	4	-1E+10	1	0.0511	4	0.000476	0	-1E+10	1	-1E+10	1	-1E+10	1
4902624	33	C	05/17/2025	13:45	-127.241	48.760	0	233.00	0	6.8350	0	33.9480	0	26.616	0	230.898	0	-1e10	1	-1e10	1	-1E+10	1	-1e10	1	-1e10	1	-1E+10	1	-1E+10	1	-1E+10	1
4902624	33	C	05/17/2025	13:45	-127.241	48.760	0	233.50	0	6.8300	0	33.9480	0	26.616	0	231.394	0	75.4	4	25.4	4	-1E+10	1	0.0635	4	0.000685	0	-1E+10	1	-1E+10	1	-1E+10	1
4902624	33	C	05/17/2025	13:45	-127.241	48.760	0	234.50	0	6.8200	0	33.9480	0	26.618	0	232.384	0	75.1	4	25.3	4	-1E+10	1	0.0540	4	0.000591	0	-1E+10	1	-1E+10	1	-1E+10	1
4902624	33	C	05/17/2025	13:45	-127.241	48.760	0	235.00	0	6.8150	0	33.9480	0	26.618	0	232.879	0	-1e10	1	-1e10	1	-1E+10	1	-1e10	1	-1e10	1	-1E+10	1	-1E+10	1	-1E+10	1
4902624	33	C	05/17/2025	13:45	-127.241	48.760	0	235.60	0	6.8131	0	33.9486	0	26.619	0	233.474	0	74.8	4	25.2	4	-1E+10	1	0.0652	4	0.000543	0	-1E+10	1	-1E+10	1	-1E+10	1
4902624	33	C	05/17/2025	13:45	-127.241	48.760	0	236.70	0	6.8096	0	33.9498	0	26.620	0	234.563	0	74.5	4	25.1	4	-1E+10	1	0.0629	4	0.000529	0	-1E+10	1	-1E+10	1	-1E+10	1
4902624	33	C	05/17/2025	13:45	-127.241	48.760	0	236.90	0	6.8090	0	33.9500	0	26.621	0	234.761	0	-1e10	1	-1e10	1	-1E+10	1	-1e10	1	-1e10	1	-1E+10	1	-1E+10	1	-1E+10	1
4902624	33	C	05/17/2025	13:45	-127.241	48.760	0	237.90	0	6.8030	0	33.9515	0	26.623	0	235.751	0	74.3	4	25.0	4	-1E+10	1	0.0544	4	0.000518	0	-1E+10	1	-1E+10	1	-1E+10	1
4902624	33	C	05/17/2025	13:45	-127.241	48.760	0	238.90	0	6.7970	0	33.9530	0	26.625	0	236.742	0	72.6	4	24.4	4	-1E+10	1	0.0539	4	0.000522	0	-1E+10	1	-1E+10	1	-1E+10	1
4902624	33	C	05/17/2025	13:45	-127.241	48.760	0	240.00	0	6.7860	0	33.9541	0	26.627	0	237.831	0	73.8	4	24.8	4	-1E+10	1	0.0449	4	0.000530	0	-1E+10	1	-1E+10	1	-1E+10	1
4902624	33	C	05/17/2025	13:45	-127.241	48.760	0	240.90	0	6.7770	0	33.9550	0	26.629	0	238.723	0	-1e10	1	-1e10	1	-1E+10	1	-1e10	1	-1e10	1	-1E+10	1	-1E+10	1	-1E+10	1
4902624	33	C	05/17/2025	13:45	-127.241	48.760	0	241.10	0	6.7750	0	33.9553	0	26.629	0	238.921	0	73.6	4	24.8	4	-1E+10	1	0.0511	4	0.000441	0	-1E+10	1	-1E+10	1	-1E+10	1
4902624	33	C	05/17/2025	13:45	-127.241	48.760	0	242.20	0	6.7640	0	33.9570	0	26.632	0	240.010	0	73.4	4	24.7	4	-1E+10	1	0.0584	4	0.000476	0	-1E+10	1	-1E+10	1	-1E+10	1
4902624	33	C	05/17/2025	13:45	-127.241	48.760	0	242.90	0	6.7570	0	33.9580	0	26.634	0	240.703	0	-1e10	1	-1e10	1	-1E+10	1	-1e10	1	-1e10	1	-1E+10	1	-1E+10	1	-1E+10	1
4902624	33	C	05/17/2025	13:45	-127.241	48.760	0	243.30	0	6.7520	0	33.9580	0	26.635	0	241.100	0	73.3	4	24.6	4	-1E+10	1	0.0699	4	0.000541	0	-1E+10	1	-1E+10	1	-1E+10	1
4902624	33	C	05/17/2025	13:45	-127.241	48.760	0	244.50	0	6.7370	0	33.9580	0	26.637	0	242.288	0	73.1	4	24.6	4	-1E+10	1	0.0629	4	0.000504	0	-1E+10	1	-1E+10	1	-1E+10	1
4902624	33	C	05/17/2025	13:45	-127.241	48.760	0	244.90	0	6.7320	0	33.9580	0	26.637	0	242.684	0	-1e10	1	-1e10	1	-1E+10	1	-1e10	1	-1e10	1	-1E+10	1	-1E+10	1	-1E+10	1
4902624	33	C	05/17/2025	13:45	-127.241	48.760	0	245.60	0	6.7274	0	33.9580	0	26.638	0	243.377	0	72.9	4	24.5	4	-1E+10	1	0.0491	4	0.000507	0	-1E+10	1	-1E+10	1	-1E+10	1
4902624	33	C	05/17/2025	13:45	-127.241	48.760	0	246.70	0	6.7203	0	33.9580	0	26.639	0	244.467	0	72.7	4	24.4	4	-1E+10	1	0.0402	4	0.000705	0	-1E+10	1	-1E+10	1	-1E+10	1
4902624	33	C	05/17/2025	13:45	-127.241	48.760	0	246.90	0	6.7190	0	33.9580	0	26.639	0	244.665	0	-1e10	1	-1e10	1	-1E+10	1	-1e10	1	-1e10	1	-1E+10	1	-1E+10	1	-1E+10	1
4902624	33	C	05/17/2025	13:45	-127.241	48.760	0	247.80	0	6.7126	0	33.9580	0	26.640	0	245.556	0	72.5	4	24.4	4	-1E+10	1	0.0432	4	0.000760	0	-1E+10	1	-1E+10	1	-1E+10	1
4902624	33	C	05/17/2025	13:45	-127.241	48.760	0	249.00	0	6.7040	0	33.9580	0	26.641	0	246.745	0	70.8	4	23.8	4	-1E+10	1	0.0584	4	0.000485	0	-1E+10	1	-1E+10	1	-1E+10	1
4902624	33	C	05/17/2025	13:45	-127.241	48.760	0	250.10	0	6.6859	0	33.9591	0	26.644	0	247.834	0	72.0	4	24.2	4	-1E+10	1	0.0573	4	0.000509	0	-1E+10	1	-1E+10	1	-1E+10	1
4902624	33	C	05/17/2025	13:45	-127.241	48.760	0	251.00	0	6.6710	0	33.9600	0	26.647	0	248.725	0	-1e10	1	-1e10	1	-1E+10	1	-1e10	1	-1e10	1	-1E+10	1	-1E+10	1	-1E+10	1
4902624	33	C	05/17/2025	13:45	-127.241	48.760	0	251.20	0	6.6656	0	33.9602	0	26.648	0	248.923	0	71.8	4	24.1	4	-1E+10	1	0.0511	4	0.000500	0	-1E+10	1	-1E+10	1	-1E+10	1
4902624	33	C	05/17/2025	13:45	-127.241	48.760	0	252.40	0	6.6332	0	33.9614	0	26.653	0	250.112	0	71.7	4	24.0	4	-1E+10	1	0.0574	4	0.000469	0	-1E+10	1	-1E+10	1	-1E+10	1
4902624	33	C	05/17/2025	13:45	-127.241	48.760	0	253.00	0	6.6170	0	33.9620	0	26.656	0	250.706	0	-1e10	1	-1e10	1	-1E+10	1	-1e10	1	-1e10	1	-1E+10	1	-1E+10	1	-1E+10	1
4902624	33	C	05/17/2025	13:45	-127.241	48.760	0	253.50	0	6.6130	0	33.9620	0	26.656	0	251.201	0	71.5	4	24.0	4	-1E+10	1	0.0524	4	0.000445	0	-1E+10	1	-1E+10	1	-1E+10	1
4902624	33	C	05/17/2025	13:45	-127.241	48.760	0	254.60	0	6.6042	0	33.9620	0	26.658	0	252.290	0	71.3	4	23.9	4	-1E+10	1	0.0511	4	0.000492	0	-1E+10	1	-1E+10	1	-1E+10	1
4902624	33	C	05/17/2025	13:45	-127.241	48.760	0	255.00	0	6.6010	0	33.9620	0	26.658	0	252.687	0	-1e10	1	-1e10	1	-1E+10	1	-1e10	1	-1e10	1	-1E+10	1	-1E+10	1	-1E+10	1
4902624	33	C	05/17/2025	13:45	-127.241	48.760	0	255.70	0	6.5985	0	33.9627	0	26.659	0	253.380	0	71.2	4	23.9	4	-1E+10	1	0.0511	4	0.000501	0	-1E+10	1	-1E+10	1	-1E+10	1
4902624	33	C	05/17/2025	13:45	-127.241	48.760	0	256.80	0	6.5947	0	33.9638	0	26.660	0	254.469	0	71.0	4	23.8	4	-1E+10	1	0.0511	4	0.000483	0	-1E+10	1	-1E+10	1	-1E+10	1
4902624	33	C	05/17/2025	13:45	-127.241	48.760	0	257.00	0	6.5940	0	33.9640	0	26.661	0	254.667	0	-1e10	1	-1e10	1	-1E+10	1	-1e10	1	-1e10	1	-1E+10	1	-1E+10	1	-1E+10	1
4902624	33	C	05/17/2025	13:45	-127.241	48.760	0	257.90	0	6.5944	0	33.9640	0	26.661	0	255.558	0	70.9	4	23.8	4	-1E+10	1	0.0489	4	0.000483	0	-1E+10	1	-1E+10	1	-1E+10	1
4902624	33	C	05/17/2025	13:45	-127.241	48.760	0	259.00	0	6.5950	0	33.9640	0	26.660	0	256.648	0	69.4	4	23.2	4	-1E+10	1	0.0448	4	0.000491	0	-1E+10	1	-1E+10	1	-1E+10	1
4902624	33	C	05/17/2025	13:45	-127.241	48.760	0	260.20	0	6.5956	0	33.9640	0	26.660	0	257.836	0	70.6	4	23.6	4	-1E+10	1	0.0511	4	0.000441	0	-1E+10	1	-1E+10	1	-1E+10	1
4902624	33	C	05/17/2025	13:45	-127.241	48.760	0	261.00	0	6.5960	0	33.9640	0	26.660	0	258.628	0	-1e10	1	-1e10	1	-1E+10	1	-1e10	1	-1e10	1	-1E+10	1	-1E+10	1	-1E+10	1
4902624	33	C	05/17/2025	13:45	-127.241	48.760	0	261.30	0	6.5956	0	33.9640	0	26.660	0	258.925	0	70.4	4	23.6	4	-1E+10	1	0.0438	4	0.000429	0	-1E+10	1	-1E+10	1	-1E+10	1
4902624	33	C	05/17/2025	13:45	-127.241	48.760	0	262.40	0	6.5939	0	33.9640	0	26.661	0	260.015	0	70.2	4	23.5	4	-1E+10	1	0.0376	4	0.000479	0	-1E+10	1	-1E+10	1	-1E+10	1
4902624	33	C	05/17/2025	13:45	-127.241	48.760	0	263.00	0	6.5930	0	33.9640	0	26.661	0	260.609	0	-1e10	1	-1e10	1	-1E+10	1	-1e10	1	-1e10	1	-1E+10	1	-1E+10	1	-1E+10	1
4902624	33	C	05/17/2025	13:45	-127.241	48.760	0	263.50	0	6.5892	0	33.9640	0	26.661	0	261.104	0	69.9	4	23.4	4	-1E+10	1	0.0517	4	0.000512	0	-1E+10	1	-1E+10	1	-1E+10	1
4902624	33	C	05/17/2025	13:45	-127.241	48.760	0	264.60	0	6.5808	0	33.9640	0	26.662	0	262.193	0	69.6	4	23.3	4	-1E+10	1	0.0584	4	0.000470	0	-1E+10	1	-1E+10	1	-1E+10	1
4902624	33	C	05/17/2025	13:45	-127.241	48.760	0	265.10	0	6.5770	0	33.9640	0	26.663	0	262.689	0	-1e10	1	-1e10	1	-1E+10	1	-1e10	1	-1e10	1	-1E+10	1	-1E+10	1	-1E+10	1
4902624	33	C	05/17/2025	13:45	-127.241	48.760	0	265.70	0	6.5647	0	33.9646	0	26.665	0	263.283	0	69.3	4	23.2	4	-1E+10	1	0.0584	4	0.000436	0	-1E+10	1	-1E+10	1	-1E+10	1
4902624	33	C	05/17/2025	13:45	-127.241	48.760	0	266.90	0	6.5401	0	33.9658	0	26.669	0	264.471	0	69.0	4	23.1	4	-1E+10	1	0.0532	4	0.000462	0	-1E+10	1	-1E+10	1	-1E+10	1
4902624	33	C	05/17/2025	13:45	-127.241	48.760	0	267.10	0	6.5360	0	33.9660	0	26.670	0	264.669	0	-1e10	1	-1e10	1	-1E+10	1	-1e10	1	-1e10	1	-1E+10	1	-1E+10	1	-1E+10	1
4902624	33	C	05/17/2025	13:45	-127.241	48.760	0	268.00	0	6.5374	0	33.9669	0	26.670	0	265.560	0	68.8	4	23.0	4	-1E+10	1	0.0451	4	0.000487	0	-1E+10	1	-1E+10	1	-1E+10	1
4902624	33	C	05/17/2025	13:45	-127.241	48.760	0	269.00	0	6.5390	0	33.9680	0	26.671	0	266.551	0	-1e10	1	-1e10	1	-1E+10	1	-1e10	1	-1e10	1	-1E+10	1	-1E+10	1	-1E+10	1
4902624	33	C	05/17/2025	13:45	-127.241	48.760	0	269.20	0	6.5388	0	33.9682	0	26.671	0	266.749	0	68.6	4	23.0	4	-1E+10	1	0.0511	4	0.000431	0	-1E+10	1	-1E+10	1	-1E+10	1
4902624	33	C	05/17/2025	13:45	-127.241	48.760	0	270.30	0	6.5377	0	33.9693	0	26.672	0	267.838	0	68.4	4	22.9	4	-1E+10	1	0.0511	4	0.000441	0	-1E+10	1	-1E+10	1	-1E+10	1
4902624	33	C	05/17/2025	13:45	-127.241	48.760	0	271.00	0	6.5370	0	33.9700	0	26.673	0	268.531	0	-1e10	1	-1e10	1	-1E+10	1	-1e10	1	-1e10	1	-1E+10	1	-1E+10	1	-1E+10	1
4902624	33	C	05/17/2025	13:45	-127.241	48.760	0	271.40	0	6.5322	0	33.9700	0	26.674	0	268.927	0	68.2	4	22.8	4	-1E+10	1	0.0696	4	0.000461	0	-1E+10	1	-1E+10	1	-1E+10	1
4902624	33	C	05/17/2025	13:45	-127.241	48.760	0	272.60	0	6.5178	0	33.9700	0	26.676	0	270.115	0	68.0	4	22.7	4	-1E+10	1	0.0487	4	0.000464	0	-1E+10	1	-1E+10	1	-1E+10	1
4902624	33	C	05/17/2025	13:45	-127.241	48.760	0	273.00	0	6.5130	0	33.9700	0	26.676	0	270.511	0	-1e10	1	-1e10	1	-1E+10	1	-1e10	1	-1e10	1	-1E+10	1	-1E+10	1	-1E+10	1
4902624	33	C	05/17/2025	13:45	-127.241	48.760	0	273.70	0	6.5092	0	33.9693	0	26.676	0	271.205	0	67.7	4	22.6	4	-1E+10	1	0.0539	4	0.000472	0	-1E+10	1	-1E+10	1	-1E+10	1
4902624	33	C	05/17/2025	13:45	-127.241	48.760	0	274.80	0	6.5031	0	33.9682	0	26.676	0	272.294	0	67.3	4	22.5	4	-1E+10	1	0.0511	4	0.000517	0	-1E+10	1	-1E+10	1	-1E+10	1
4902624	33	C	05/17/2025	13:45	-127.241	48.760	0	275.00	0	6.5020	0	33.9680	0	26.676	0	272.492	0	-1e10	1	-1e10	1	-1E+10	1	-1e10	1	-1e10	1	-1E+10	1	-1E+10	1	-1E+10	1
4902624	33	C	05/17/2025	13:45	-127.241	48.760	0	275.90	0	6.4866	0	33.9684	0	26.678	0	273.383	0	66.9	4	22.4	4	-1E+10	1	0.0465	4	0.000507	0	-1E+10	1	-1E+10	1	-1E+10	1
4902624	33	C	05/17/2025	13:45	-127.241	48.760	0	277.10	0	6.4660	0	33.9690	0	26.682	0	274.571	0	65.3	4	21.8	4	-1E+10	1	0.0615	4	0.000417	0	-1E+10	1	-1E+10	1	-1E+10	1
4902624	33	C	05/17/2025	13:45	-127.241	48.760	0	278.20	0	6.4498	0	33.9702	0	26.685	0	275.661	0	66.1	4	22.1	4	-1E+10	1	0.0772	4	0.000426	0	-1E+10	1	-1E+10	1	-1E+10	1
4902624	33	C	05/17/2025	13:45	-127.241	48.760	0	279.00	0	6.4380	0	33.9710	0	26.687	0	276.453	0	-1e10	1	-1e10	1	-1E+10	1	-1e10	1	-1e10	1	-1E+10	1	-1E+10	1	-1E+10	1
4902624	33	C	05/17/2025	13:45	-127.241	48.760	0	279.40	0	6.4372	0	33.9718	0	26.688	0	276.849	0	65.7	4	21.9	4	-1E+10	1	0.0584	4	0.000476	0	-1E+10	1	-1E+10	1	-1E+10	1
4902624	33	C	05/17/2025	13:45	-127.241	48.760	0	280.50	0	6.4350	0	33.9740	0	26.690	0	277.938	0	65.3	4	21.8	4	-1E+10	1	0.0584	4	0.000429	0	-1E+10	1	-1E+10	1	-1E+10	1
4902624	33	C	05/17/2025	13:45	-127.241	48.760	0	281.00	0	6.4340	0	33.9750	0	26.691	0	278.433	0	-1e10	1	-1e10	1	-1E+10	1	-1e10	1	-1e10	1	-1E+10	1	-1E+10	1	-1E+10	1
4902624	33	C	05/17/2025	13:45	-127.241	48.760	0	281.70	0	6.4337	0	33.9763	0	26.692	0	279.126	0	65.1	4	21.7	4	-1E+10	1	0.0521	4	0.000429	0	-1E+10	1	-1E+10	1	-1E+10	1
4902624	33	C	05/17/2025	13:45	-127.241	48.760	0	282.80	0	6.4331	0	33.9784	0	26.693	0	280.216	0	64.8	4	21.6	4	-1E+10	1	0.0605	4	0.000451	0	-1E+10	1	-1E+10	1	-1E+10	1
4902624	33	C	05/17/2025	13:45	-127.241	48.760	0	283.10	0	6.4330	0	33.9790	0	26.694	0	280.513	0	-1e10	1	-1e10	1	-1E+10	1	-1e10	1	-1e10	1	-1E+10	1	-1E+10	1	-1E+10	1
4902624	33	C	05/17/2025	13:45	-127.241	48.760	0	284.00	0	6.4302	0	33.9785	0	26.694	0	281.404	0	64.6	4	21.6	4	-1E+10	1	0.0614	4	0.000457	0	-1E+10	1	-1E+10	1	-1E+10	1
4902624	33	C	05/17/2025	13:45	-127.241	48.760	0	285.00	0	6.4270	0	33.9780	0	26.694	0	282.394	0	-1e10	1	-1e10	1	-1E+10	1	-1e10	1	-1e10	1	-1E+10	1	-1E+10	1	-1E+10	1
4902624	33	C	05/17/2025	13:45	-127.241	48.760	0	285.20	0	6.4212	0	33.9781	0	26.695	0	282.592	0	64.3	4	21.5	4	-1E+10	1	0.0511	4	0.000441	0	-1E+10	1	-1E+10	1	-1E+10	1
4902624	33	C	05/17/2025	13:45	-127.241	48.760	0	286.40	0	6.3864	0	33.9787	0	26.700	0	283.780	0	64.1	4	21.4	4	-1E+10	1	0.0471	4	0.000409	0	-1E+10	1	-1E+10	1	-1E+10	1
4902624	33	C	05/17/2025	13:45	-127.241	48.760	0	287.00	0	6.3690	0	33.9790	0	26.702	0	284.374	0	-1e10	1	-1e10	1	-1E+10	1	-1e10	1	-1e10	1	-1E+10	1	-1E+10	1	-1E+10	1
4902624	33	C	05/17/2025	13:45	-127.241	48.760	0	287.50	0	6.3562	0	33.9785	0	26.703	0	284.869	0	63.8	4	21.3	4	-1E+10	1	0.0602	4	0.000398	0	-1E+10	1	-1E+10	1	-1E+10	1
4902624	33	C	05/17/2025	13:45	-127.241	48.760	0	288.70	0	6.3256	0	33.9773	0	26.706	0	286.058	0	63.5	4	21.1	4	-1E+10	1	0.0721	4	0.000422	0	-1E+10	1	-1E+10	1	-1E+10	1
4902624	33	C	05/17/2025	13:45	-127.241	48.760	0	289.00	0	6.3180	0	33.9770	0	26.707	0	286.355	0	-1e10	1	-1e10	1	-1E+10	1	-1e10	1	-1e10	1	-1E+10	1	-1E+10	1	-1E+10	1
4902624	33	C	05/17/2025	13:45	-127.241	48.760	0	291.00	0	6.2900	0	33.9780	0	26.712	0	288.335	0	-1e10	1	-1e10	1	-1E+10	1	-1e10	1	-1e10	1	-1E+10	1	-1E+10	1	-1E+10	1
4902624	33	C	05/17/2025	13:45	-127.241	48.760	0	293.00	0	6.2560	0	33.9820	0	26.719	0	290.315	0	-1e10	1	-1e10	1	-1E+10	1	-1e10	1	-1e10	1	-1E+10	1	-1E+10	1	-1E+10	1
4902624	33	C	05/17/2025	13:45	-127.241	48.760	0	295.00	0	6.2340	0	33.9830	0	26.723	0	292.295	0	-1e10	1	-1e10	1	-1E+10	1	-1e10	1	-1e10	1	-1E+10	1	-1E+10	1	-1E+10	1
4902624	33	C	05/17/2025	13:45	-127.241	48.760	0	297.00	0	6.2140	0	33.9850	0	26.727	0	294.276	0	-1e10	1	-1e10	1	-1E+10	1	-1e10	1	-1e10	1	-1E+10	1	-1E+10	1	-1E+10	1
4902624	33	C	05/17/2025	13:45	-127.241	48.760	0	298.90	0	6.1950	0	33.9850	0	26.729	0	296.157	0	-1e10	1	-1e10	1	-1E+10	1	-1e10	1	-1e10	1	-1E+10	1	-1E+10	1	-1E+10	1
4902624	33	C	05/17/2025	13:45	-127.241	48.760	0	300.40	0	6.1832	0	33.9853	0	26.731	0	297.642	0	61.2	4	20.3	4	-1E+10	1	0.0520	4	0.000530	0	-1E+10	1	-1E+10	1	-1E+10	1
4902624	33	C	05/17/2025	13:45	-127.241	48.760	0	304.90	0	6.1480	0	33.9860	0	26.736	0	302.097	0	-1e10	1	-1e10	1	-1E+10	1	-1e10	1	-1e10	1	-1E+10	1	-1E+10	1	-1E+10	1
4902624	33	C	05/17/2025	13:45	-127.241	48.760	0	312.20	0	6.0918	0	33.9875	0	26.745	0	309.325	0	59.0	4	19.6	4	-1E+10	1	0.0724	4	0.000436	0	-1E+10	1	-1E+10	1	-1E+10	1
4902624	33	C	05/17/2025	13:45	-127.241	48.760	0	314.90	0	6.0710	0	33.9880	0	26.748	0	311.998	0	-1e10	1	-1e10	1	-1E+10	1	-1e10	1	-1e10	1	-1E+10	1	-1E+10	1	-1E+10	1
4902624	33	C	05/17/2025	13:45	-127.241	48.760	0	323.90	0	5.9828	0	33.9952	0	26.764	0	320.908	0	55.8	4	18.4	4	-1E+10	1	0.0578	4	0.000347	0	-1E+10	1	-1E+10	1	-1E+10	1
4902624	33	C	05/17/2025	13:45	-127.241	48.760	0	324.90	0	5.9730	0	33.9960	0	26.766	0	321.898	0	-1e10	1	-1e10	1	-1E+10	1	-1e10	1	-1e10	1	-1E+10	1	-1E+10	1	-1E+10	1
4902624	33	C	05/17/2025	13:45	-127.241	48.760	0	334.90	0	5.9300	0	34.0020	0	26.777	0	331.798	0	-1e10	1	-1e10	1	-1E+10	1	-1e10	1	-1e10	1	-1E+10	1	-1E+10	1	-1E+10	1
4902624	33	C	05/17/2025	13:45	-127.241	48.760	0	335.80	0	5.9250	0	34.0031	0	26.778	0	332.689	0	53.1	4	17.5	4	-1E+10	1	0.0442	4	0.000367	0	-1E+10	1	-1E+10	1	-1E+10	1
4902624	33	C	05/17/2025	13:45	-127.241	48.760	0	345.00	0	5.8740	0	34.0140	0	26.793	0	341.796	0	-1e10	1	-1e10	1	-1E+10	1	-1e10	1	-1e10	1	-1E+10	1	-1E+10	1	-1E+10	1
4902624	33	C	05/17/2025	13:45	-127.241	48.760	0	347.50	0	5.8460	0	34.0140	0	26.797	0	344.271	0	50.7	4	16.7	4	-1E+10	1	0.0523	4	0.000312	0	-1E+10	1	-1E+10	1	-1E+10	1
4902624	33	C	05/17/2025	13:45	-127.241	48.760	0	355.10	0	5.7610	0	34.0140	0	26.807	0	351.793	0	-1e10	1	-1e10	1	-1E+10	1	-1e10	1	-1e10	1	-1E+10	1	-1E+10	1	-1E+10	1
4902624	33	C	05/17/2025	13:45	-127.241	48.760	0	359.10	0	5.7493	0	34.0156	0	26.810	0	355.753	0	49.2	4	16.2	4	-1E+10	1	0.0798	4	0.000344	0	-1E+10	1	-1E+10	1	-1E+10	1
4902624	33	C	05/17/2025	13:45	-127.241	48.760	0	365.00	0	5.7320	0	34.0180	0	26.814	0	361.593	0	-1e10	1	-1e10	1	-1E+10	1	-1e10	1	-1e10	1	-1E+10	1	-1E+10	1	-1E+10	1
4902624	33	C	05/17/2025	13:45	-127.241	48.760	0	370.70	0	5.6957	0	34.0203	0	26.820	0	367.234	0	46.9	4	15.4	4	-1E+10	1	0.0652	4	0.000288	0	-1E+10	1	-1E+10	1	-1E+10	1
4902624	33	C	05/17/2025	13:45	-127.241	48.760	0	374.90	0	5.6690	0	34.0220	0	26.825	0	371.391	0	-1e10	1	-1e10	1	-1E+10	1	-1e10	1	-1e10	1	-1E+10	1	-1E+10	1	-1E+10	1
4902624	33	C	05/17/2025	13:45	-127.241	48.760	0	382.40	0	5.6406	0	34.0293	0	26.834	0	378.814	0	44.2	4	14.5	4	-1E+10	1	0.0511	4	0.000368	0	-1E+10	1	-1E+10	1	-1E+10	1
4902624	33	C	05/17/2025	13:45	-127.241	48.760	0	385.20	0	5.6300	0	34.0320	0	26.838	0	381.585	0	-1e10	1	-1e10	1	-1E+10	1	-1e10	1	-1e10	1	-1E+10	1	-1E+10	1	-1E+10	1
4902624	33	C	05/17/2025	13:45	-127.241	48.760	0	390.60	0	5.5965	0	34.0374	0	26.846	0	386.930	0	42.3	4	13.9	4	-1E+10	1	0.0507	4	0.001430	0	-1E+10	1	-1E+10	1	-1E+10	1
4902624	33	C	05/17/2025	13:45	-127.241	48.760	0	395.20	0	5.5680	0	34.0420	0	26.853	0	391.482	0	-1e10	1	-1e10	1	-1E+10	1	-1e10	1	-1e10	1	-1E+10	1	-1E+10	1	-1E+10	1
4902624	33	C	05/17/2025	13:45	-127.241	48.760	0	398.80	0	5.5495	0	34.0438	0	26.857	0	395.045	0	41.0	4	13.4	4	-1E+10	1	0.0441	4	0.000380	0	-1E+10	1	-1E+10	1	-1E+10	1
4902624	33	C	05/17/2025	13:45	-127.241	48.760	0	405.10	0	5.5170	0	34.0470	0	26.863	0	401.279	0	-1e10	1	-1e10	1	-1E+10	1	-1e10	1	-1e10	1	-1E+10	1	-1E+10	1	-1E+10	1
4902624	33	C	05/17/2025	13:45	-127.241	48.760	0	407.40	0	5.5010	0	34.0486	0	26.866	0	403.556	0	39.2	4	12.8	4	-1E+10	1	0.0517	4	0.000355	0	-1E+10	1	-1E+10	1	-1E+10	1
4902624	33	C	05/17/2025	13:45	-127.241	48.760	0	415.00	0	5.4480	0	34.0540	0	26.877	0	411.076	0	-1e10	1	-1e10	1	-1E+10	1	-1e10	1	-1e10	1	-1E+10	1	-1E+10	1	-1E+10	1
4902624	33	C	05/17/2025	13:45	-127.241	48.760	0	416.40	0	5.4406	0	34.0553	0	26.879	0	412.462	0	37.6	4	12.3	4	-1E+10	1	0.0654	4	0.000296	0	-1E+10	1	-1E+10	1	-1E+10	1
4902624	33	C	05/17/2025	13:45	-127.241	48.760	0	425.00	0	5.3950	0	34.0630	0	26.891	0	420.972	0	-1e10	1	-1e10	1	-1E+10	1	-1e10	1	-1e10	1	-1E+10	1	-1E+10	1	-1E+10	1
4902624	33	C	05/17/2025	13:45	-127.241	48.760	0	425.90	0	5.3907	0	34.0636	0	26.892	0	421.862	0	35.7	4	11.7	4	-1E+10	1	0.0584	4	0.000243	0	-1E+10	1	-1E+10	1	-1E+10	1
4902624	33	C	05/17/2025	13:45	-127.241	48.760	0	435.20	0	5.3460	0	34.0700	0	26.902	0	431.064	0	-1e10	1	-1e10	1	-1E+10	1	-1e10	1	-1e10	1	-1E+10	1	-1E+10	1	-1E+10	1
4902624	33	C	05/17/2025	13:45	-127.241	48.760	0	436.10	0	5.3418	0	34.0706	0	26.903	0	431.955	0	34.3	4	11.2	4	-1E+10	1	0.0578	4	0.000321	0	-1E+10	1	-1E+10	1	-1E+10	1
4902624	33	C	05/17/2025	13:45	-127.241	48.760	0	444.90	0	5.3010	0	34.0760	0	26.912	0	440.662	0	-1e10	1	-1e10	1	-1E+10	1	-1e10	1	-1e10	1	-1E+10	1	-1E+10	1	-1E+10	1
4902624	33	C	05/17/2025	13:45	-127.241	48.760	0	446.70	0	5.2938	0	34.0773	0	26.914	0	442.443	0	32.7	4	10.6	4	-1E+10	1	0.0441	4	0.000319	0	-1E+10	1	-1E+10	1	-1E+10	1
4902624	33	C	05/17/2025	13:45	-127.241	48.760	0	454.90	0	5.2610	0	34.0830	0	26.922	0	450.556	0	-1e10	1	-1e10	1	-1E+10	1	-1e10	1	-1e10	1	-1E+10	1	-1E+10	1	-1E+10	1
4902624	33	C	05/17/2025	13:45	-127.241	48.760	0	457.30	0	5.2515	0	34.0844	0	26.925	0	452.930	0	31.2	4	10.2	4	-1E+10	1	0.0508	4	0.000488	0	-1E+10	1	-1E+10	1	-1E+10	1
4902624	33	C	05/17/2025	13:45	-127.241	48.760	0	465.00	0	5.2210	0	34.0890	0	26.932	0	460.548	0	-1e10	1	-1e10	1	-1E+10	1	-1e10	1	-1e10	1	-1E+10	1	-1E+10	1	-1E+10	1
4902624	33	C	05/17/2025	13:45	-127.241	48.760	0	468.40	0	5.2038	0	34.0907	0	26.935	0	463.912	0	29.8	4	9.7	4	-1E+10	1	0.0438	4	0.000241	0	-1E+10	1	-1E+10	1	-1E+10	1
4902624	33	C	05/17/2025	13:45	-127.241	48.760	0	474.90	0	5.1710	0	34.0940	0	26.942	0	470.342	0	-1e10	1	-1e10	1	-1E+10	1	-1e10	1	-1e10	1	-1E+10	1	-1E+10	1	-1E+10	1
4902624	33	C	05/17/2025	13:45	-127.241	48.760	0	480.00	0	5.1503	0	34.0965	0	26.946	0	475.387	0	28.5	4	9.2	4	-1E+10	1	0.0444	4	0.000289	0	-1E+10	1	-1E+10	1	-1E+10	1
4902624	33	C	05/17/2025	13:45	-127.241	48.760	0	485.00	0	5.1300	0	34.0990	0	26.951	0	480.334	0	-1e10	1	-1e10	1	-1E+10	1	-1e10	1	-1e10	1	-1E+10	1	-1E+10	1	-1E+10	1
4902624	33	C	05/17/2025	13:45	-127.241	48.760	0	491.80	0	5.1071	0	34.1010	0	26.955	0	487.060	0	27.2	4	8.8	4	-1E+10	1	0.0584	4	0.000355	0	-1E+10	1	-1E+10	1	-1E+10	1
4902624	33	C	05/17/2025	13:45	-127.241	48.760	0	495.10	0	5.0960	0	34.1020	0	26.957	0	490.324	0	-1e10	1	-1e10	1	-1E+10	1	-1e10	1	-1e10	1	-1E+10	1	-1E+10	1	-1E+10	1
4902624	33	C	05/17/2025	13:45	-127.241	48.760	0	503.70	0	5.0564	0	34.1079	0	26.966	0	498.831	0	25.5	4	8.3	4	-1E+10	1	0.0584	4	0.000330	0	-1E+10	1	-1E+10	1	-1E+10	1
4902624	33	C	05/17/2025	13:45	-127.241	48.760	0	505.30	0	5.0490	0	34.1090	0	26.968	0	500.414	0	-1e10	1	-1e10	1	-1E+10	1	-1e10	1	-1e10	1	-1E+10	1	-1E+10	1	-1E+10	1
4902624	33	C	05/17/2025	13:45	-127.241	48.760	0	515.20	0	4.9930	0	34.1160	0	26.980	0	510.206	0	-1e10	1	-1e10	1	-1E+10	1	-1e10	1	-1e10	1	-1E+10	1	-1E+10	1	-1E+10	1
4902624	33	C	05/17/2025	13:45	-127.241	48.760	0	515.80	0	4.9905	0	34.1163	0	26.981	0	510.799	0	23.9	4	7.7	4	-1E+10	1	0.0582	4	0.000250	0	-1E+10	1	-1E+10	1	-1E+10	1
4902624	33	C	05/17/2025	13:45	-127.241	48.760	0	525.10	0	4.9520	0	34.1210	0	26.989	0	519.998	0	-1e10	1	-1e10	1	-1E+10	1	-1e10	1	-1e10	1	-1E+10	1	-1E+10	1	-1E+10	1
4902624	33	C	05/17/2025	13:45	-127.241	48.760	0	528.10	0	4.9402	0	34.1246	0	26.993	0	522.965	0	21.8	4	7.1	4	-1E+10	1	0.0509	4	0.000216	0	-1E+10	1	-1E+10	1	-1E+10	1
4902624	33	C	05/17/2025	13:45	-127.241	48.760	0	535.00	0	4.9130	0	34.1330	0	27.003	0	529.789	0	-1e10	1	-1e10	1	-1E+10	1	-1e10	1	-1e10	1	-1E+10	1	-1E+10	1	-1E+10	1
4902624	33	C	05/17/2025	13:45	-127.241	48.760	0	540.90	0	4.8913	0	34.1354	0	27.007	0	535.624	0	20.7	4	6.7	4	-1E+10	1	0.0438	4	0.000248	0	-1E+10	1	-1E+10	1	-1E+10	1
4902624	33	C	05/17/2025	13:45	-127.241	48.760	0	544.80	0	4.8770	0	34.1370	0	27.010	0	539.481	0	-1e10	1	-1e10	1	-1E+10	1	-1e10	1	-1e10	1	-1E+10	1	-1E+10	1	-1E+10	1
4902624	33	C	05/17/2025	13:45	-127.241	48.760	0	551.90	0	4.8429	0	34.1419	0	27.018	0	546.502	0	19.5	4	6.3	4	-1E+10	1	0.0446	4	0.000206	0	-1E+10	1	-1E+10	1	-1E+10	1
4902624	33	C	05/17/2025	13:45	-127.241	48.760	0	555.00	0	4.8280	0	34.1440	0	27.021	0	549.568	0	-1e10	1	-1e10	1	-1E+10	1	-1e10	1	-1e10	1	-1E+10	1	-1E+10	1	-1E+10	1
4902624	33	C	05/17/2025	13:45	-127.241	48.760	0	560.00	0	4.8110	0	34.1480	0	27.026	0	554.512	0	18.8	4	6.0	4	-1E+10	1	0.0653	4	0.000282	0	-1E+10	1	-1E+10	1	-1E+10	1
4902624	33	C	05/17/2025	13:45	-127.241	48.760	0	565.00	0	4.7940	0	34.1520	0	27.031	0	559.456	0	-1e10	1	-1e10	1	-1E+10	1	-1e10	1	-1e10	1	-1E+10	1	-1E+10	1	-1E+10	1
4902624	33	C	05/17/2025	13:45	-127.241	48.760	0	568.20	0	4.7885	0	34.1539	0	27.034	0	562.621	0	18.2	4	5.9	4	-1E+10	1	0.0579	4	0.000226	0	-1E+10	1	-1E+10	1	-1E+10	1
4902624	33	C	05/17/2025	13:45	-127.241	48.760	0	574.90	0	4.7770	0	34.1580	0	27.038	0	569.246	0	-1e10	1	-1e10	1	-1E+10	1	-1e10	1	-1e10	1	-1E+10	1	-1E+10	1	-1E+10	1
4902624	33	C	05/17/2025	13:45	-127.241	48.760	0	576.50	0	4.7712	0	34.1593	0	27.040	0	570.828	0	17.4	4	5.6	4	-1E+10	1	0.0446	4	0.000522	0	-1E+10	1	-1E+10	1	-1E+10	1
4902624	33	C	05/17/2025	13:45	-127.241	48.760	0	584.90	0	4.7410	0	34.1660	0	27.049	0	579.133	0	16.3	4	5.2	4	-1E+10	1	0.0652	4	0.000251	0	-1E+10	1	-1E+10	1	-1E+10	1
4902624	33	C	05/17/2025	13:45	-127.241	48.760	0	593.50	0	4.7120	0	34.1737	0	27.058	0	587.636	0	16.0	4	5.2	4	-1E+10	1	0.0514	4	0.000273	0	-1E+10	1	-1E+10	1	-1E+10	1
4902624	33	C	05/17/2025	13:45	-127.241	48.760	0	595.00	0	4.7070	0	34.1750	0	27.059	0	589.119	0	-1e10	1	-1e10	1	-1E+10	1	-1e10	1	-1e10	1	-1E+10	1	-1E+10	1	-1E+10	1
4902624	33	C	05/17/2025	13:45	-127.241	48.760	0	602.10	0	4.6814	0	34.1800	0	27.066	0	596.139	0	15.2	4	4.9	4	-1E+10	1	0.0581	4	0.000249	0	-1E+10	1	-1E+10	1	-1E+10	1
4902624	33	C	05/17/2025	13:45	-127.241	48.760	0	605.00	0	4.6710	0	34.1820	0	27.069	0	599.006	0	-1e10	1	-1e10	1	-1E+10	1	-1e10	1	-1e10	1	-1E+10	1	-1E+10	1	-1E+10	1
4902624	33	C	05/17/2025	13:45	-127.241	48.760	0	610.60	0	4.6516	0	34.1860	0	27.074	0	604.543	0	14.6	4	4.7	4	-1E+10	1	0.0506	4	0.000238	0	-1E+10	1	-1E+10	1	-1E+10	1
4902624	33	C	05/17/2025	13:45	-127.241	48.760	0	614.80	0	4.6370	0	34.1890	0	27.078	0	608.695	0	-1e10	1	-1e10	1	-1E+10	1	-1e10	1	-1e10	1	-1E+10	1	-1E+10	1	-1E+10	1
4902624	33	C	05/17/2025	13:45	-127.241	48.760	0	619.30	0	4.6240	0	34.1917	0	27.082	0	613.143	0	14.1	4	4.5	4	-1E+10	1	0.0372	4	0.000239	0	-1E+10	1	-1E+10	1	-1E+10	1
4902624	33	C	05/17/2025	13:45	-127.241	48.760	0	624.80	0	4.6080	0	34.1950	0	27.086	0	618.581	0	-1e10	1	-1e10	1	-1E+10	1	-1e10	1	-1e10	1	-1E+10	1	-1E+10	1	-1E+10	1
4902624	33	C	05/17/2025	13:45	-127.241	48.760	0	628.30	0	4.5950	0	34.1971	0	27.090	0	622.041	0	13.3	4	4.3	4	-1E+10	1	0.0581	4	0.000272	0	-1E+10	1	-1E+10	1	-1E+10	1
4902624	33	C	05/17/2025	13:45	-127.241	48.760	0	635.00	0	4.5700	0	34.2010	0	27.095	0	628.664	0	-1e10	1	-1e10	1	-1E+10	1	-1e10	1	-1e10	1	-1E+10	1	-1E+10	1	-1E+10	1
4902624	33	C	05/17/2025	13:45	-127.241	48.760	0	637.50	0	4.5592	0	34.2032	0	27.098	0	631.135	0	12.5	4	4.0	4	-1E+10	1	0.0514	4	0.000250	0	-1E+10	1	-1E+10	1	-1E+10	1
4902624	33	C	05/17/2025	13:45	-127.241	48.760	0	645.20	0	4.5260	0	34.2100	0	27.107	0	638.746	0	-1e10	1	-1e10	1	-1E+10	1	-1e10	1	-1e10	1	-1E+10	1	-1E+10	1	-1E+10	1
4902624	33	C	05/17/2025	13:45	-127.241	48.760	0	647.10	0	4.5190	0	34.2115	0	27.109	0	640.624	0	11.9	4	3.8	4	-1E+10	1	0.0590	4	0.000257	0	-1E+10	1	-1E+10	1	-1E+10	1
4902624	33	C	05/17/2025	13:45	-127.241	48.760	0	655.20	0	4.4890	0	34.2180	0	27.118	0	648.631	0	-1e10	1	-1e10	1	-1E+10	1	-1e10	1	-1e10	1	-1E+10	1	-1E+10	1	-1E+10	1
4902624	33	C	05/17/2025	13:45	-127.241	48.760	0	657.00	0	4.4847	0	34.2191	0	27.119	0	650.410	0	11.4	4	3.6	4	-1E+10	1	0.0726	4	0.000168	0	-1E+10	1	-1E+10	1	-1E+10	1
4902624	33	C	05/17/2025	13:45	-127.241	48.760	0	665.20	0	4.4650	0	34.2240	0	27.125	0	658.515	0	-1e10	1	-1e10	1	-1E+10	1	-1e10	1	-1e10	1	-1E+10	1	-1E+10	1	-1E+10	1
4902624	33	C	05/17/2025	13:45	-127.241	48.760	0	667.10	0	4.4611	0	34.2256	0	27.127	0	660.393	0	11.0	4	3.5	4	-1E+10	1	0.0654	4	0.000191	0	-1E+10	1	-1E+10	1	-1E+10	1
4902624	33	C	05/17/2025	13:45	-127.241	48.760	0	674.90	0	4.4450	0	34.2320	0	27.134	0	668.102	0	-1e10	1	-1e10	1	-1E+10	1	-1e10	1	-1e10	1	-1E+10	1	-1E+10	1	-1E+10	1
4902624	33	C	05/17/2025	13:45	-127.241	48.760	0	677.60	0	4.4408	0	34.2336	0	27.136	0	670.770	0	10.5	4	3.4	4	-1E+10	1	0.0584	4	0.000214	0	-1E+10	1	-1E+10	1	-1E+10	1
4902624	33	C	05/17/2025	13:45	-127.241	48.760	0	685.10	0	4.4290	0	34.2380	0	27.140	0	678.182	0	-1e10	1	-1e10	1	-1E+10	1	-1e10	1	-1e10	1	-1E+10	1	-1E+10	1	-1E+10	1
4902624	33	C	05/17/2025	13:45	-127.241	48.760	0	688.20	0	4.4192	0	34.2405	0	27.144	0	681.246	0	10.2	4	3.2	4	-1E+10	1	0.0584	4	0.000227	0	-1E+10	1	-1E+10	1	-1E+10	1
4902624	33	C	05/17/2025	13:45	-127.241	48.760	0	694.90	0	4.3980	0	34.2460	0	27.150	0	687.867	0	-1e10	1	-1e10	1	-1E+10	1	-1e10	1	-1e10	1	-1E+10	1	-1E+10	1	-1E+10	1
4902624	33	C	05/17/2025	13:45	-127.241	48.760	0	699.00	0	4.3874	0	34.2480	0	27.153	0	691.919	0	9.8	4	3.1	4	-1E+10	1	0.0581	4	0.000269	0	-1E+10	1	-1E+10	1	-1E+10	1
4902624	33	C	05/17/2025	13:45	-127.241	48.760	0	705.00	0	4.3720	0	34.2510	0	27.157	0	697.848	0	-1e10	1	-1e10	1	-1E+10	1	-1e10	1	-1e10	1	-1E+10	1	-1E+10	1	-1E+10	1
4902624	33	C	05/17/2025	13:45	-127.241	48.760	0	709.90	0	4.3567	0	34.2535	0	27.161	0	702.690	0	9.5	4	3.0	4	-1E+10	1	0.0514	4	0.000204	0	-1E+10	1	-1E+10	1	-1E+10	1
4902624	33	C	05/17/2025	13:45	-127.241	48.760	0	714.90	0	4.3410	0	34.2560	0	27.164	0	707.631	0	-1e10	1	-1e10	1	-1E+10	1	-1e10	1	-1e10	1	-1E+10	1	-1E+10	1	-1E+10	1
4902624	33	C	05/17/2025	13:45	-127.241	48.760	0	721.10	0	4.3197	0	34.2591	0	27.169	0	713.757	0	9.2	4	2.9	4	-1E+10	1	0.0584	4	0.000245	0	-1E+10	1	-1E+10	1	-1E+10	1
4902624	33	C	05/17/2025	13:45	-127.241	48.760	0	724.80	0	4.3070	0	34.2610	0	27.172	0	717.413	0	-1e10	1	-1e10	1	-1E+10	1	-1e10	1	-1e10	1	-1E+10	1	-1E+10	1	-1E+10	1
4902624	33	C	05/17/2025	13:45	-127.241	48.760	0	732.50	0	4.2813	0	34.2670	0	27.180	0	725.021	0	8.8	4	2.8	4	-1E+10	1	0.0584	4	0.000156	0	-1E+10	1	-1E+10	1	-1E+10	1
4902624	33	C	05/17/2025	13:45	-127.241	48.760	0	735.00	0	4.2730	0	34.2690	0	27.182	0	727.491	0	-1e10	1	-1e10	1	-1E+10	1	-1e10	1	-1e10	1	-1E+10	1	-1E+10	1	-1E+10	1
4902624	33	C	05/17/2025	13:45	-127.241	48.760	0	744.00	0	4.2550	0	34.2753	0	27.189	0	736.384	0	8.6	4	2.7	4	-1E+10	1	0.0584	4	0.000190	0	-1E+10	1	-1E+10	1	-1E+10	1
4902624	33	C	05/17/2025	13:45	-127.241	48.760	0	745.00	0	4.2530	0	34.2760	0	27.190	0	737.372	0	-1e10	1	-1e10	1	-1E+10	1	-1e10	1	-1e10	1	-1E+10	1	-1E+10	1	-1E+10	1
4902624	33	C	05/17/2025	13:45	-127.241	48.760	0	755.10	0	4.2260	0	34.2820	0	27.197	0	747.350	0	-1e10	1	-1e10	1	-1E+10	1	-1e10	1	-1e10	1	-1E+10	1	-1E+10	1	-1E+10	1
4902624	33	C	05/17/2025	13:45	-127.241	48.760	0	756.00	0	4.2248	0	34.2823	0	27.198	0	748.239	0	8.4	4	2.7	4	-1E+10	1	0.0584	4	0.000190	0	-1E+10	1	-1E+10	1	-1E+10	1
4902624	33	C	05/17/2025	13:45	-127.241	48.760	0	765.20	0	4.2130	0	34.2850	0	27.201	0	757.328	0	-1e10	1	-1e10	1	-1E+10	1	-1e10	1	-1e10	1	-1E+10	1	-1E+10	1	-1E+10	1
4902624	33	C	05/17/2025	13:45	-127.241	48.760	0	768.10	0	4.2041	0	34.2862	0	27.203	0	760.193	0	8.3	4	2.6	4	-1E+10	1	0.0575	4	0.000196	0	-1E+10	1	-1E+10	1	-1E+10	1
4902624	33	C	05/17/2025	13:45	-127.241	48.760	0	775.00	0	4.1830	0	34.2890	0	27.208	0	767.009	0	-1e10	1	-1e10	1	-1E+10	1	-1e10	1	-1e10	1	-1E+10	1	-1E+10	1	-1E+10	1
4902624	33	C	05/17/2025	13:45	-127.241	48.760	0	777.80	0	4.1656	0	34.2898	0	27.210	0	769.775	0	8.2	4	2.6	4	-1E+10	1	0.0441	4	0.000291	0	-1E+10	1	-1E+10	1	-1E+10	1
4902624	33	C	05/17/2025	13:45	-127.241	48.760	0	785.00	0	4.1210	0	34.2920	0	27.217	0	776.888	0	-1e10	1	-1e10	1	-1E+10	1	-1e10	1	-1e10	1	-1E+10	1	-1E+10	1	-1E+10	1
4902624	33	C	05/17/2025	13:45	-127.241	48.760	0	785.70	0	4.1187	0	34.2923	0	27.217	0	777.579	0	8.1	4	2.6	4	-1E+10	1	0.0511	4	0.000192	0	-1E+10	1	-1E+10	1	-1E+10	1
4902624	33	C	05/17/2025	13:45	-127.241	48.760	0	793.90	0	4.0919	0	34.2964	0	27.223	0	785.679	0	7.9	4	2.5	4	-1E+10	1	0.0518	4	0.000255	0	-1E+10	1	-1E+10	1	-1E+10	1
4902624	33	C	05/17/2025	13:45	-127.241	48.760	0	795.10	0	4.0880	0	34.2970	0	27.224	0	786.864	0	-1e10	1	-1e10	1	-1E+10	1	-1e10	1	-1e10	1	-1E+10	1	-1E+10	1	-1E+10	1
4902624	33	C	05/17/2025	13:45	-127.241	48.760	0	802.10	0	4.0768	0	34.3005	0	27.228	0	793.778	0	7.9	4	2.5	4	-1E+10	1	0.0652	4	0.000166	0	-1E+10	1	-1E+10	1	-1E+10	1
4902624	33	C	05/17/2025	13:45	-127.241	48.760	0	805.10	0	4.0720	0	34.3020	0	27.230	0	796.742	0	-1e10	1	-1e10	1	-1E+10	1	-1e10	1	-1e10	1	-1E+10	1	-1E+10	1	-1E+10	1
4902624	33	C	05/17/2025	13:45	-127.241	48.760	0	810.60	0	4.0581	0	34.3042	0	27.233	0	802.174	0	7.8	4	2.5	4	-1E+10	1	0.0518	4	0.000178	0	-1E+10	1	-1E+10	1	-1E+10	1
4902624	33	C	05/17/2025	13:45	-127.241	48.760	0	815.00	0	4.0470	0	34.3060	0	27.236	0	806.520	0	-1e10	1	-1e10	1	-1E+10	1	-1e10	1	-1e10	1	-1E+10	1	-1E+10	1	-1E+10	1
4902624	33	C	05/17/2025	13:45	-127.241	48.760	0	819.20	0	4.0381	0	34.3081	0	27.238	0	810.668	0	7.6	4	2.4	4	-1E+10	1	0.0654	4	0.000188	0	-1E+10	1	-1E+10	1	-1E+10	1
4902624	33	C	05/17/2025	13:45	-127.241	48.760	0	824.90	0	4.0260	0	34.3110	0	27.242	0	816.297	0	-1e10	1	-1e10	1	-1E+10	1	-1e10	1	-1e10	1	-1E+10	1	-1E+10	1	-1E+10	1
4902624	33	C	05/17/2025	13:45	-127.241	48.760	0	827.70	0	4.0154	0	34.3132	0	27.245	0	819.063	0	7.6	4	2.4	4	-1E+10	1	0.0584	4	0.000176	0	-1E+10	1	-1E+10	1	-1E+10	1
4902624	33	C	05/17/2025	13:45	-127.241	48.760	0	834.90	0	3.9880	0	34.3190	0	27.252	0	826.173	0	-1e10	1	-1e10	1	-1E+10	1	-1e10	1	-1e10	1	-1E+10	1	-1E+10	1	-1E+10	1
4902624	33	C	05/17/2025	13:45	-127.241	48.760	0	836.50	0	3.9840	0	34.3200	0	27.253	0	827.753	0	7.5	4	2.4	4	-1E+10	1	0.0584	4	0.000154	0	-1E+10	1	-1E+10	1	-1E+10	1
4902624	33	C	05/17/2025	13:45	-127.241	48.760	0	845.00	0	3.9630	0	34.3250	0	27.259	0	836.148	0	-1e10	1	-1e10	1	-1E+10	1	-1e10	1	-1e10	1	-1E+10	1	-1E+10	1	-1E+10	1
4902624	33	C	05/17/2025	13:45	-127.241	48.760	0	845.40	0	3.9617	0	34.3252	0	27.260	0	836.543	0	7.5	4	2.4	4	-1E+10	1	0.0584	4	0.000157	0	-1E+10	1	-1E+10	1	-1E+10	1
4902624	33	C	05/17/2025	13:45	-127.241	48.760	0	854.40	0	3.9329	0	34.3297	0	27.266	0	845.430	0	7.4	4	2.3	4	-1E+10	1	0.0581	4	0.000165	0	-1E+10	1	-1E+10	1	-1E+10	1
4902624	33	C	05/17/2025	13:45	-127.241	48.760	0	855.00	0	3.9310	0	34.3300	0	27.267	0	846.023	0	-1e10	1	-1e10	1	-1E+10	1	-1e10	1	-1e10	1	-1E+10	1	-1E+10	1	-1E+10	1
4902624	33	C	05/17/2025	13:45	-127.241	48.760	0	863.40	0	3.9066	0	34.3334	0	27.272	0	854.317	0	7.4	4	2.3	4	-1E+10	1	0.0521	4	0.000166	0	-1E+10	1	-1E+10	1	-1E+10	1
4902624	33	C	05/17/2025	13:45	-127.241	48.760	0	865.00	0	3.9020	0	34.3340	0	27.273	0	855.897	0	-1e10	1	-1e10	1	-1E+10	1	-1e10	1	-1e10	1	-1E+10	1	-1E+10	1	-1E+10	1
4902624	33	C	05/17/2025	13:45	-127.241	48.760	0	872.50	0	3.8847	0	34.3377	0	27.278	0	863.303	0	7.5	4	2.4	4	-1E+10	1	0.0724	4	0.000176	0	-1E+10	1	-1E+10	1	-1E+10	1
4902624	33	C	05/17/2025	13:45	-127.241	48.760	0	875.00	0	3.8790	0	34.3390	0	27.279	0	865.771	0	-1e10	1	-1e10	1	-1E+10	1	-1e10	1	-1e10	1	-1E+10	1	-1E+10	1	-1E+10	1
4902624	33	C	05/17/2025	13:45	-127.241	48.760	0	882.10	0	3.8627	0	34.3418	0	27.283	0	872.781	0	7.5	4	2.4	4	-1E+10	1	0.0584	4	0.000164	0	-1E+10	1	-1E+10	1	-1E+10	1
4902624	33	C	05/17/2025	13:45	-127.241	48.760	0	885.00	0	3.8560	0	34.3430	0	27.285	0	875.645	0	-1e10	1	-1e10	1	-1E+10	1	-1e10	1	-1e10	1	-1E+10	1	-1E+10	1	-1E+10	1
4902624	33	C	05/17/2025	13:45	-127.241	48.760	0	891.70	0	3.8425	0	34.3450	0	27.288	0	882.260	0	7.5	4	2.4	4	-1E+10	1	0.0584	4	0.000144	0	-1E+10	1	-1E+10	1	-1E+10	1
4902624	33	C	05/17/2025	13:45	-127.241	48.760	0	894.90	0	3.8360	0	34.3460	0	27.289	0	885.419	0	-1e10	1	-1e10	1	-1E+10	1	-1e10	1	-1e10	1	-1E+10	1	-1E+10	1	-1E+10	1
4902624	33	C	05/17/2025	13:45	-127.241	48.760	0	901.50	0	3.8153	0	34.3500	0	27.295	0	891.935	0	7.6	4	2.4	4	-1E+10	1	0.0590	4	0.000199	0	-1E+10	1	-1E+10	1	-1E+10	1
4902624	33	C	05/17/2025	13:45	-127.241	48.760	0	904.80	0	3.8050	0	34.3520	0	27.297	0	895.193	0	-1e10	1	-1e10	1	-1E+10	1	-1e10	1	-1e10	1	-1E+10	1	-1E+10	1	-1E+10	1
4902624	33	C	05/17/2025	13:45	-127.241	48.760	0	911.20	0	3.7826	0	34.3558	0	27.303	0	901.511	0	7.7	4	2.4	4	-1E+10	1	0.0718	4	0.000188	0	-1E+10	1	-1E+10	1	-1E+10	1
4902624	33	C	05/17/2025	13:45	-127.241	48.760	0	914.80	0	3.7700	0	34.3580	0	27.306	0	905.065	0	-1e10	1	-1e10	1	-1E+10	1	-1e10	1	-1e10	1	-1E+10	1	-1E+10	1	-1E+10	1
4902624	33	C	05/17/2025	13:45	-127.241	48.760	0	921.20	0	3.7564	0	34.3606	0	27.309	0	911.383	0	7.7	4	2.4	4	-1E+10	1	0.0444	4	0.000176	0	-1E+10	1	-1E+10	1	-1E+10	1
4902624	33	C	05/17/2025	13:45	-127.241	48.760	0	924.70	0	3.7490	0	34.3620	0	27.311	0	914.838	0	-1e10	1	-1e10	1	-1E+10	1	-1e10	1	-1e10	1	-1E+10	1	-1E+10	1	-1E+10	1
4902624	33	C	05/17/2025	13:45	-127.241	48.760	0	931.30	0	3.7340	0	34.3640	0	27.314	0	921.353	0	7.8	4	2.5	4	-1E+10	1	0.0584	4	0.000178	0	-1E+10	1	-1E+10	1	-1E+10	1
4902624	33	C	05/17/2025	13:45	-127.241	48.760	0	934.80	0	3.7260	0	34.3650	0	27.316	0	924.808	0	-1e10	1	-1e10	1	-1E+10	1	-1e10	1	-1e10	1	-1E+10	1	-1E+10	1	-1E+10	1
4902624	33	C	05/17/2025	13:45	-127.241	48.760	0	941.90	0	3.7100	0	34.3671	0	27.319	0	931.817	0	8.0	4	2.5	4	-1E+10	1	0.0584	4	0.000221	0	-1E+10	1	-1E+10	1	-1E+10	1
4902624	33	C	05/17/2025	13:45	-127.241	48.760	0	945.00	0	3.7030	0	34.3680	0	27.320	0	934.877	0	-1e10	1	-1e10	1	-1E+10	1	-1e10	1	-1e10	1	-1E+10	1	-1E+10	1	-1E+10	1
4902624	33	C	05/17/2025	13:45	-127.241	48.760	0	952.80	0	3.6765	0	34.3718	0	27.326	0	942.575	0	8.0	4	2.5	4	-1E+10	1	0.0587	4	0.000175	0	-1E+10	1	-1E+10	1	-1E+10	1
4902624	33	C	05/17/2025	13:45	-127.241	48.760	0	955.30	0	3.6680	0	34.3730	0	27.328	0	945.043	0	-1e10	1	-1e10	1	-1E+10	1	-1e10	1	-1e10	1	-1E+10	1	-1E+10	1	-1E+10	1
4902624	33	C	05/17/2025	13:45	-127.241	48.760	0	964.00	0	3.6517	0	34.3766	0	27.332	0	953.630	0	8.2	4	2.6	4	-1E+10	1	0.0654	4	0.000152	0	-1E+10	1	-1E+10	1	-1E+10	1
4902624	33	C	05/17/2025	13:45	-127.241	48.760	0	964.90	0	3.6500	0	34.3770	0	27.333	0	954.518	0	-1e10	1	-1e10	1	-1E+10	1	-1e10	1	-1e10	1	-1E+10	1	-1E+10	1	-1E+10	1
4902624	33	C	05/17/2025	13:45	-127.241	48.760	0	975.10	0	3.6270	0	34.3800	0	27.338	0	964.585	0	-1e10	1	-1e10	1	-1E+10	1	-1e10	1	-1e10	1	-1E+10	1	-1E+10	1	-1E+10	1
4902624	33	C	05/17/2025	13:45	-127.241	48.760	0	975.60	0	3.6257	0	34.3801	0	27.338	0	965.078	0	32.9	4	10.3	4	-1E+10	1	0.0584	4	0.000154	0	-1E+10	1	-1E+10	1	-1E+10	1
4902624	33	C	05/17/2025	13:45	-127.241	48.760	0	985.10	0	3.6010	0	34.3830	0	27.343	0	974.454	0	-1e10	1	-1e10	1	-1E+10	1	-1e10	1	-1e10	1	-1E+10	1	-1E+10	1	-1E+10	1
4902624	33	C	05/17/2025	13:45	-127.241	48.760	0	987.60	0	3.5965	0	34.3840	0	27.344	0	976.921	0	15.4	4	4.8	4	-1E+10	1	0.0584	4	0.000198	0	-1E+10	1	-1E+10	1	-1E+10	1
4902624	33	C	05/17/2025	13:45	-127.241	48.760	0	995.20	0	3.5830	0	34.3870	0	27.348	0	984.421	0	-1e10	1	-1e10	1	-1E+10	1	-1e10	1	-1e10	1	-1E+10	1	-1E+10	1	-1E+10	1
4902624	33	C	05/17/2025	13:45	-127.241	48.760	0	1011.80	0	3.5544	0	34.3914	0	27.354	0	1000.801	0	70.9	4	22.2	4	-1E+10	1	0.0586	4	0.000175	0	-1E+10	1	-1E+10	1	-1E+10	1
4902624	33	C	05/17/2025	13:45	-127.241	48.760	0	1025.40	0	3.5310	0	34.3950	0	27.359	0	1014.221	0	-1e10	1	-1e10	1	-1E+10	1	-1e10	1	-1e10	1	-1E+10	1	-1E+10	1	-1E+10	1
4902624	33	C	05/17/2025	13:45	-127.241	48.760	0	1035.40	0	3.5111	0	34.3980	0	27.364	0	1024.087	0	76.9	4	24.0	4	-1E+10	1	0.0656	4	0.000164	0	-1E+10	1	-1E+10	1	-1E+10	1
4902624	33	C	05/17/2025	13:45	-127.241	48.760	0	1051.40	0	3.4793	0	34.4028	0	27.371	0	1039.873	0	76.3	4	23.8	4	-1E+10	1	0.0584	4	0.000232	0	-1E+10	1	-1E+10	1	-1E+10	1
4902624	33	C	05/17/2025	13:45	-127.241	48.760	0	1067.80	0	3.4467	0	34.4078	0	27.378	0	1056.052	0	84.2	4	26.3	4	-1E+10	1	0.0584	4	0.000164	0	-1E+10	1	-1E+10	1	-1E+10	1
4902624	33	C	05/17/2025	13:45	-127.241	48.760	0	1075.20	0	3.4320	0	34.4100	0	27.381	0	1063.352	0	-1e10	1	-1e10	1	-1E+10	1	-1e10	1	-1e10	1	-1E+10	1	-1E+10	1	-1E+10	1
4902624	33	C	05/17/2025	13:45	-127.241	48.760	0	1084.60	0	3.4125	0	34.4132	0	27.386	0	1072.624	0	90.3	4	28.1	4	-1E+10	1	0.0584	4	0.000209	0	-1E+10	1	-1E+10	1	-1E+10	1
4902624	33	C	05/17/2025	13:45	-127.241	48.760	0	1101.50	0	3.3775	0	34.4190	0	27.394	0	1089.294	0	96.1	4	29.9	4	-1E+10	1	0.0585	4	0.000162	0	-1E+10	1	-1E+10	1	-1E+10	1
4902624	33	C	05/17/2025	13:45	-127.241	48.760	0	1119.00	0	3.3412	0	34.4250	0	27.402	0	1106.554	0	99.5	4	31.0	4	-1E+10	1	0.0657	4	0.000151	0	-1E+10	1	-1E+10	1	-1E+10	1
4902624	33	C	05/17/2025	13:45	-127.241	48.760	0	1124.90	0	3.3290	0	34.4270	0	27.405	0	1112.372	0	-1e10	1	-1e10	1	-1E+10	1	-1e10	1	-1e10	1	-1E+10	1	-1E+10	1	-1E+10	1
4902624	33	C	05/17/2025	13:45	-127.241	48.760	0	1137.00	0	3.3026	0	34.4304	0	27.410	0	1124.305	0	102.9	4	32.0	4	-1E+10	1	0.0655	4	0.000185	0	-1E+10	1	-1E+10	1	-1E+10	1
4902624	33	C	05/17/2025	13:45	-127.241	48.760	0	1155.20	0	3.2629	0	34.4355	0	27.418	0	1142.252	0	104.7	4	32.5	4	-1E+10	1	0.0582	4	0.000173	0	-1E+10	1	-1E+10	1	-1E+10	1
4902624	33	C	05/17/2025	13:45	-127.241	48.760	0	1174.10	0	3.2217	0	34.4408	0	27.426	0	1160.888	0	105.9	4	32.9	4	-1E+10	1	0.0513	4	0.000161	0	-1E+10	1	-1E+10	1	-1E+10	1
4902624	33	C	05/17/2025	13:45	-127.241	48.760	0	1174.90	0	3.2200	0	34.4410	0	27.426	0	1161.677	0	-1e10	1	-1e10	1	-1E+10	1	-1e10	1	-1e10	1	-1E+10	1	-1E+10	1	-1E+10	1
4902624	33	C	05/17/2025	13:45	-127.241	48.760	0	1194.00	0	3.1834	0	34.4463	0	27.434	0	1180.509	0	107.3	4	33.3	4	-1E+10	1	0.0654	4	0.000138	0	-1E+10	1	-1E+10	1	-1E+10	1
4902624	33	C	05/17/2025	13:45	-127.241	48.760	0	1215.20	0	3.1428	0	34.4523	0	27.443	0	1201.409	0	108.8	4	33.7	4	-1E+10	1	0.0511	4	0.000150	0	-1E+10	1	-1E+10	1	-1E+10	1
4902624	33	C	05/17/2025	13:45	-127.241	48.760	0	1225.00	0	3.1240	0	34.4550	0	27.447	0	1211.069	0	-1e10	1	-1e10	1	-1E+10	1	-1e10	1	-1e10	1	-1E+10	1	-1E+10	1	-1E+10	1
4902624	33	C	05/17/2025	13:45	-127.241	48.760	0	1237.20	0	3.1012	0	34.4589	0	27.452	0	1223.095	0	111.2	4	34.4	4	-1E+10	1	0.0511	4	0.000150	0	-1E+10	1	-1E+10	1	-1E+10	1
4902624	33	C	05/17/2025	13:45	-127.241	48.760	0	1260.30	0	3.0581	0	34.4663	0	27.462	0	1245.863	0	115.4	4	35.7	4	-1E+10	1	0.0511	4	0.000176	0	-1E+10	1	-1E+10	1	-1E+10	1
4902624	33	C	05/17/2025	13:45	-127.241	48.760	0	1274.80	0	3.0310	0	34.4710	0	27.468	0	1260.154	0	-1e10	1	-1e10	1	-1E+10	1	-1e10	1	-1e10	1	-1E+10	1	-1E+10	1	-1E+10	1
4902624	33	C	05/17/2025	13:45	-127.241	48.760	0	1283.90	0	3.0095	0	34.4735	0	27.472	0	1269.122	0	119.2	4	36.8	4	-1E+10	1	0.0513	4	0.000334	0	-1E+10	1	-1E+10	1	-1E+10	1
4902624	33	C	05/17/2025	13:45	-127.241	48.760	0	1307.60	0	2.9533	0	34.4800	0	27.483	0	1292.476	0	121.1	4	37.4	4	-1E+10	1	0.0653	4	0.000172	0	-1E+10	1	-1E+10	1	-1E+10	1
4902624	33	C	05/17/2025	13:45	-127.241	48.760	0	1325.90	0	2.9100	0	34.4850	0	27.490	0	1310.508	0	-1e10	1	-1e10	1	-1E+10	1	-1e10	1	-1e10	1	-1E+10	1	-1E+10	1	-1E+10	1
4902624	33	C	05/17/2025	13:45	-127.241	48.760	0	1326.10	0	2.9095	0	34.4851	0	27.491	0	1310.705	0	122.5	4	37.7	4	-1E+10	1	0.0511	4	0.000172	0	-1E+10	1	-1E+10	1	-1E+10	1
4902624	33	C	05/17/2025	13:45	-127.241	48.760	0	1342.40	0	2.8712	0	34.4898	0	27.498	0	1326.764	0	124.3	4	38.3	4	-1E+10	1	0.0510	4	0.000160	0	-1E+10	1	-1E+10	1	-1E+10	1
4902624	33	C	05/17/2025	13:45	-127.241	48.760	0	1359.10	0	2.8320	0	34.4946	0	27.505	0	1343.217	0	124.8	4	38.4	4	-1E+10	1	0.0441	4	0.000149	0	-1E+10	1	-1E+10	1	-1E+10	1
4902624	33	C	05/17/2025	13:45	-127.241	48.760	0	1374.40	0	2.7960	0	34.4990	0	27.512	0	1358.289	0	-1e10	1	-1e10	1	-1E+10	1	-1e10	1	-1e10	1	-1E+10	1	-1E+10	1	-1E+10	1
4902624	33	C	05/17/2025	13:45	-127.241	48.760	0	1376.70	0	2.7913	0	34.4995	0	27.513	0	1360.554	0	83.3	4	25.6	4	-1E+10	1	0.0582	4	0.000184	0	-1E+10	1	-1E+10	1	-1E+10	1
4902624	33	C	05/17/2025	13:45	-127.241	48.760	0	1395.20	0	2.7532	0	34.5039	0	27.520	0	1378.777	0	87.4	4	26.8	4	-1E+10	1	0.0508	4	0.000228	0	-1E+10	1	-1E+10	1	-1E+10	1
4902624	33	C	05/17/2025	13:45	-127.241	48.760	0	1414.90	0	2.7128	0	34.5086	0	27.527	0	1398.180	0	93.1	4	28.5	4	-1E+10	1	0.0368	4	0.000171	0	-1E+10	1	-1E+10	1	-1E+10	1
4902624	33	C	05/17/2025	13:45	-127.241	48.760	0	1425.00	0	2.6920	0	34.5110	0	27.531	0	1408.127	0	-1e10	1	-1e10	1	-1E+10	1	-1e10	1	-1e10	1	-1E+10	1	-1E+10	1	-1E+10	1
4902624	33	C	05/17/2025	13:45	-127.241	48.760	0	1435.70	0	2.6776	0	34.5123	0	27.533	0	1418.664	0	93.5	4	28.7	4	-1E+10	1	0.0510	4	0.000182	0	-1E+10	1	-1E+10	1	-1E+10	1
4902624	33	C	05/17/2025	13:45	-127.241	48.760	0	1457.50	0	2.6482	0	34.5149	0	27.538	0	1440.131	0	97.8	4	29.9	4	-1E+10	1	0.0441	4	0.000170	0	-1E+10	1	-1E+10	1	-1E+10	1
4902624	33	C	05/17/2025	13:45	-127.241	48.760	0	1474.70	0	2.6250	0	34.5170	0	27.542	0	1457.067	0	-1e10	1	-1e10	1	-1E+10	1	-1e10	1	-1e10	1	-1E+10	1	-1E+10	1	-1E+10	1
4902624	33	C	05/17/2025	13:45	-127.241	48.760	0	1479.70	0	2.6179	0	34.5178	0	27.543	0	1461.990	0	105.0	4	32.1	4	-1E+10	1	0.0583	4	0.000182	0	-1E+10	1	-1E+10	1	-1E+10	1
4902624	33	C	05/17/2025	13:45	-127.241	48.760	0	1501.80	0	2.5867	0	34.5213	0	27.549	0	1483.748	0	109.1	4	33.4	4	-1E+10	1	0.0512	4	0.000181	0	-1E+10	1	-1E+10	1	-1E+10	1
4902624	33	C	05/17/2025	13:45	-127.241	48.760	0	1524.10	0	2.5553	0	34.5249	0	27.554	0	1505.700	0	114.2	4	34.9	4	-1E+10	1	0.0580	4	0.000181	0	-1E+10	1	-1E+10	1	-1E+10	1
4902624	33	C	05/17/2025	13:45	-127.241	48.760	0	1525.00	0	2.5540	0	34.5250	0	27.554	0	1506.586	0	-1e10	1	-1e10	1	-1E+10	1	-1e10	1	-1e10	1	-1E+10	1	-1E+10	1	-1E+10	1
4902624	33	C	05/17/2025	13:45	-127.241	48.760	0	1544.20	0	2.4949	0	34.5316	0	27.565	0	1525.485	0	113.2	4	34.5	4	-1E+10	1	0.0441	4	0.000181	0	-1E+10	1	-1E+10	1	-1E+10	1
4902624	33	C	05/17/2025	13:45	-127.241	48.760	0	1559.20	0	2.4488	0	34.5368	0	27.573	0	1540.249	0	121.5	4	37.0	4	-1E+10	1	0.0579	4	0.000181	0	-1E+10	1	-1E+10	1	-1E+10	1
4902624	33	C	05/17/2025	13:45	-127.241	48.760	0	1574.40	0	2.4020	0	34.5420	0	27.581	0	1555.208	0	-1e10	1	-1e10	1	-1E+10	1	-1e10	1	-1e10	1	-1E+10	1	-1E+10	1	-1E+10	1
4902624	33	C	05/17/2025	13:45	-127.241	48.760	0	1576.40	0	2.3995	0	34.5423	0	27.581	0	1557.177	0	95.3	4	29.0	4	-1E+10	1	0.0297	4	0.000216	0	-1E+10	1	-1E+10	1	-1E+10	1
4902624	33	C	05/17/2025	13:45	-127.241	48.760	0	1595.20	0	2.3762	0	34.5453	0	27.586	0	1575.677	0	97.4	4	29.6	4	-1E+10	1	0.0584	4	0.000204	0	-1E+10	1	-1E+10	1	-1E+10	1
4902624	33	C	05/17/2025	13:45	-127.241	48.760	0	1615.10	0	2.3514	0	34.5484	0	27.590	0	1595.259	0	101.3	4	30.8	4	-1E+10	1	0.0583	4	0.000206	0	-1E+10	1	-1E+10	1	-1E+10	1
4902624	33	C	05/17/2025	13:45	-127.241	48.760	0	1625.10	0	2.3390	0	34.5500	0	27.593	0	1605.098	0	-1e10	1	-1e10	1	-1E+10	1	-1e10	1	-1e10	1	-1E+10	1	-1E+10	1	-1E+10	1
4902624	33	C	05/17/2025	13:45	-127.241	48.760	0	1637.20	0	2.3227	0	34.5519	0	27.596	0	1617.003	0	107.5	4	32.7	4	-1E+10	1	0.0509	4	0.000341	0	-1E+10	1	-1E+10	1	-1E+10	1
4902624	33	C	05/17/2025	13:45	-127.241	48.760	0	1660.80	0	2.2910	0	34.5557	0	27.601	0	1640.221	0	113.5	4	34.5	4	-1E+10	1	0.0441	4	0.000179	0	-1E+10	1	-1E+10	1	-1E+10	1
4902624	33	C	05/17/2025	13:45	-127.241	48.760	0	1674.90	0	2.2720	0	34.5580	0	27.605	0	1654.091	0	-1e10	1	-1e10	1	-1E+10	1	-1e10	1	-1e10	1	-1E+10	1	-1E+10	1	-1E+10	1
4902624	33	C	05/17/2025	13:45	-127.241	48.760	0	1684.40	0	2.2645	0	34.5589	0	27.606	0	1663.436	0	114.9	4	34.9	4	-1E+10	1	0.0582	4	0.000157	0	-1E+10	1	-1E+10	1	-1E+10	1
4902624	33	C	05/17/2025	13:45	-127.241	48.760	0	1708.30	0	2.2455	0	34.5613	0	27.610	0	1686.943	0	115.8	4	35.1	4	-1E+10	1	0.0506	4	0.000191	0	-1E+10	1	-1E+10	1	-1E+10	1
4902624	33	C	05/17/2025	13:45	-127.241	48.760	0	1725.40	0	2.2320	0	34.5630	0	27.612	0	1703.761	0	-1e10	1	-1e10	1	-1E+10	1	-1e10	1	-1e10	1	-1E+10	1	-1E+10	1	-1E+10	1
4902624	33	C	05/17/2025	13:45	-127.241	48.760	0	1731.70	0	2.2246	0	34.5640	0	27.614	0	1709.956	0	117.9	4	35.7	4	-1E+10	1	0.0295	4	0.000202	0	-1E+10	1	-1E+10	1	-1E+10	1
4902624	33	C	05/17/2025	13:45	-127.241	48.760	0	1756.60	0	2.1952	0	34.5681	0	27.620	0	1734.442	0	120.2	4	36.4	4	-1E+10	1	0.0440	4	0.000191	0	-1E+10	1	-1E+10	1	-1E+10	1
4902624	33	C	05/17/2025	13:45	-127.241	48.760	0	1774.60	0	2.1740	0	34.5710	0	27.624	0	1752.141	0	-1e10	1	-1e10	1	-1E+10	1	-1e10	1	-1e10	1	-1E+10	1	-1E+10	1	-1E+10	1
4902624	33	C	05/17/2025	13:45	-127.241	48.760	0	1782.60	0	2.1702	0	34.5715	0	27.624	0	1760.006	0	121.5	4	36.8	4	-1E+10	1	0.0511	4	0.000214	0	-1E+10	1	-1E+10	1	-1E+10	1
4902624	33	C	05/17/2025	13:45	-127.241	48.760	0	1810.30	0	2.1570	0	34.5731	0	27.627	0	1787.239	0	122.1	4	37.0	4	-1E+10	1	0.0508	4	0.000248	0	-1E+10	1	-1E+10	1	-1E+10	1
4902624	33	C	05/17/2025	13:45	-127.241	48.760	0	1824.90	0	2.1500	0	34.5740	0	27.628	0	1801.591	0	-1e10	1	-1e10	1	-1E+10	1	-1e10	1	-1e10	1	-1E+10	1	-1E+10	1	-1E+10	1
4902624	33	C	05/17/2025	13:45	-127.241	48.760	0	1838.90	0	2.1492	0	34.5743	0	27.629	0	1815.352	0	121.9	4	36.9	4	-1E+10	1	0.0369	4	0.000239	0	-1E+10	1	-1E+10	1	-1E+10	1
4902624	33	C	05/17/2025	13:45	-127.241	48.760	0	1868.30	0	2.1474	0	34.5749	0	27.630	0	1844.249	0	122.1	4	37.0	4	-1E+10	1	0.0583	4	0.000363	0	-1E+10	1	-1E+10	1	-1E+10	1
4902624	33	C	05/17/2025	13:45	-127.241	48.760	0	1875.70	0	2.1470	0	34.5750	0	27.630	0	1851.521	0	-1e10	1	-1e10	1	-1E+10	1	-1e10	1	-1e10	1	-1E+10	1	-1E+10	1	-1E+10	1
4902624	33	C	05/17/2025	13:45	-127.241	48.760	0	1895.00	0	2.1322	0	34.5775	0	27.633	0	1870.487	0	122.4	4	37.0	4	-1E+10	1	0.0514	4	0.000247	0	-1E+10	1	-1E+10	1	-1E+10	1
4902624	33	C	05/17/2025	13:45	-127.241	48.760	0	1920.80	0	2.1124	0	34.5808	0	27.637	0	1895.839	0	123.3	4	37.3	4	-1E+10	1	0.0655	4	0.000239	0	-1E+10	1	-1E+10	1	-1E+10	1
4902624	33	C	05/17/2025	13:45	-127.241	48.760	0	1922.60	0	2.1110	0	34.5810	0	27.638	0	1897.607	0	-1e10	1	-1e10	1	-1E+10	1	-1e10	1	-1e10	1	-1E+10	1	-1E+10	1	-1E+10	1
4902624	33	C	05/17/2025	13:45	-127.241	48.760	0	1944.90	0	-1e10	1	-1e10	1	-1e10	1	1919.517	0	135.6	4	-1e10	4	-1E+10	1	0.0584	4	0.000408	0	-1E+10	1	-1E+10	1	-1E+10	1
4902624	33	C	05/17/2025	13:45	-127.241	48.760	0	1945.50	0	-1e10	1	-1e10	1	-1e10	1	1920.107	0	134.8	4	-1e10	4	-1E+10	1	0.0584	4	0.000408	0	-1E+10	1	-1E+10	1	-1E+10	1
4902624	33	C	05/17/2025	13:45	-127.241	48.760	0																										
4902624	34	C	05/27/2025	10:47	-127.192	49.093	0	0.10	0	11.5150	0	31.8640	0	24.244	0	0.099	0	-1e10	1	-1e10	1	-1E+10	1	1.1680	4	0.002301	0	-1E+10	1	-1E+10	1	-1E+10	1
4902624	34	C	05/27/2025	10:47	-127.192	49.093	0	0.20	0	11.5150	0	31.8640	0	24.244	0	0.198	0	-1e10	1	-1e10	1	-1E+10	1	1.1388	4	0.002207	0	-1E+10	1	-1E+10	1	-1E+10	1
4902624	34	C	05/27/2025	10:47	-127.192	49.093	0	0.40	0	11.5150	0	31.8640	0	24.244	0	0.397	0	245.4	4	90.2	4	-1E+10	1	-1e10	1	-1e10	1	-1E+10	1	-1E+10	1	-1E+10	1
4902624	34	C	05/27/2025	10:47	-127.192	49.093	0	0.50	0	11.5150	0	31.8640	0	24.244	0	0.496	0	-1e10	1	-1e10	1	-1E+10	1	-1e10	1	-1e10	1	-1E+10	1	-1E+10	1	-1E+10	1
4902624	34	C	05/27/2025	10:47	-127.192	49.093	0	0.60	0	11.5151	0	31.8651	0	24.244	0	0.595	0	256.5	4	94.3	4	-1E+10	1	-1e10	1	-1e10	1	-1E+10	1	-1E+10	1	-1E+10	1
4902624	34	C	05/27/2025	10:47	-127.192	49.093	0	0.70	0	11.5152	0	31.8662	0	24.245	0	0.694	0	254.3	4	93.5	4	-1E+10	1	-1e10	1	-1e10	1	-1E+10	1	-1E+10	1	-1E+10	1
4902624	34	C	05/27/2025	10:47	-127.192	49.093	0	0.80	0	11.5153	0	31.8673	0	24.246	0	0.793	0	-1e10	1	-1e10	1	-1E+10	1	1.2118	4	0.002321	0	-1E+10	1	-1E+10	1	-1E+10	1
4902624	34	C	05/27/2025	10:47	-127.192	49.093	0	0.90	0	11.5154	0	31.8684	0	24.247	0	0.892	0	-1e10	1	-1e10	1	-1E+10	1	1.2191	4	0.002473	0	-1E+10	1	-1E+10	1	-1E+10	1
4902624	34	C	05/27/2025	10:47	-127.192	49.093	0	1.10	0	11.5156	0	31.8706	0	24.249	0	1.091	0	-1e10	1	-1e10	1	-1E+10	1	1.2264	4	0.002368	0	-1E+10	1	-1E+10	1	-1E+10	1
4902624	34	C	05/27/2025	10:47	-127.192	49.093	0	1.40	0	11.5159	0	31.8739	0	24.251	0	1.388	0	-1e10	1	-1e10	1	-1E+10	1	1.2118	4	0.002239	0	-1E+10	1	-1E+10	1	-1E+10	1
4902624	34	C	05/27/2025	10:47	-127.192	49.093	0	1.50	0	11.5160	0	31.8750	0	24.252	0	1.487	0	-1e10	1	-1e10	1	-1E+10	1	1.2410	4	0.002274	0	-1E+10	1	-1E+10	1	-1E+10	1
4902624	34	C	05/27/2025	10:47	-127.192	49.093	0	1.60	0	11.5161	0	31.8750	0	24.252	0	1.586	0	-1e10	1	-1e10	1	-1E+10	1	1.2337	4	0.002286	0	-1E+10	1	-1E+10	1	-1E+10	1
4902624	34	C	05/27/2025	10:47	-127.192	49.093	0	1.80	0	11.5163	0	31.8750	0	24.252	0	1.785	0	253.5	4	93.2	4	-1E+10	1	1.1899	4	0.002274	0	-1E+10	1	-1E+10	1	-1E+10	1
4902624	34	C	05/27/2025	10:47	-127.192	49.093	0	1.90	0	11.5164	0	31.8750	0	24.252	0	1.884	0	-1e10	1	-1e10	1	-1E+10	1	1.2045	4	0.002344	0	-1E+10	1	-1E+10	1	-1E+10	1
4902624	34	C	05/27/2025	10:47	-127.192	49.093	0	2.50	0	11.5170	0	31.8750	0	24.252	0	2.479	0	-1e10	1	-1e10	1	-1E+10	1	-1e10	1	-1e10	1	-1E+10	1	-1E+10	1	-1E+10	1
4902624	34	C	05/27/2025	10:47	-127.192	49.093	0	2.60	0	11.5170	0	31.8750	0	24.252	0	2.578	0	253.1	4	93.1	4	-1E+10	1	1.2045	4	0.002204	0	-1E+10	1	-1E+10	1	-1E+10	1
4902624	34	C	05/27/2025	10:47	-127.192	49.093	0	2.80	0	11.5170	0	31.8750	0	24.252	0	2.776	0	-1e10	1	-1e10	1	-1E+10	1	1.2118	4	0.002321	0	-1E+10	1	-1E+10	1	-1E+10	1
4902624	34	C	05/27/2025	10:47	-127.192	49.093	0	3.00	0	11.5170	0	31.8750	0	24.252	0	2.975	0	-1e10	1	-1e10	1	-1E+10	1	1.2921	4	0.002286	0	-1E+10	1	-1E+10	1	-1E+10	1
4902624	34	C	05/27/2025	10:47	-127.192	49.093	0	3.10	0	11.5170	0	31.8750	0	24.252	0	3.074	0	-1e10	1	-1e10	1	-1E+10	1	1.2775	4	0.002192	0	-1E+10	1	-1E+10	1	-1E+10	1
4902624	34	C	05/27/2025	10:47	-127.192	49.093	0	3.30	0	11.5170	0	31.8750	0	24.252	0	3.272	0	252.9	4	93.0	4	-1E+10	1	1.2848	4	0.002450	0	-1E+10	1	-1E+10	1	-1E+10	1
4902624	34	C	05/27/2025	10:47	-127.192	49.093	0	3.50	0	11.5170	0	31.8750	0	24.252	0	3.470	0	-1e10	1	-1e10	1	-1E+10	1	1.2410	4	0.002262	0	-1E+10	1	-1E+10	1	-1E+10	1
4902624	34	C	05/27/2025	10:47	-127.192	49.093	0	3.60	0	11.5170	0	31.8750	0	24.252	0	3.569	0	-1e10	1	-1e10	1	-1E+10	1	-1e10	1	-1e10	1	-1E+10	1	-1E+10	1	-1E+10	1
4902624	34	C	05/27/2025	10:47	-127.192	49.093	0	3.70	0	11.5170	0	31.8750	0	24.252	0	3.669	0	-1e10	1	-1e10	1	-1E+10	1	1.2337	4	0.002251	0	-1E+10	1	-1E+10	1	-1E+10	1
4902624	34	C	05/27/2025	10:47	-127.192	49.093	0	3.80	0	11.5170	0	31.8750	0	24.252	0	3.768	0	-1e10	1	-1e10	1	-1E+10	1	1.3286	4	0.002251	0	-1E+10	1	-1E+10	1	-1E+10	1
4902624	34	C	05/27/2025	10:47	-127.192	49.093	0	4.10	0	11.5170	0	31.8750	0	24.252	0	4.065	0	252.4	4	92.8	4	-1E+10	1	1.2337	4	0.002192	0	-1E+10	1	-1E+10	1	-1E+10	1
4902624	34	C	05/27/2025	10:47	-127.192	49.093	0	4.40	0	11.5170	0	31.8750	0	24.252	0	4.363	0	-1e10	1	-1e10	1	-1E+10	1	1.2921	4	0.002204	0	-1E+10	1	-1E+10	1	-1E+10	1
4902624	34	C	05/27/2025	10:47	-127.192	49.093	0	4.50	0	11.5170	0	31.8750	0	24.252	0	4.462	0	-1e10	1	-1e10	1	-1E+10	1	1.3140	4	0.002239	0	-1E+10	1	-1E+10	1	-1E+10	1
4902624	34	C	05/27/2025	10:47	-127.192	49.093	0	4.70	0	11.5170	0	31.8750	0	24.252	0	4.660	0	-1e10	1	-1e10	1	-1E+10	1	1.2556	4	0.002614	0	-1E+10	1	-1E+10	1	-1E+10	1
4902624	34	C	05/27/2025	10:47	-127.192	49.093	0	4.90	0	11.5170	0	31.8750	0	24.252	0	4.858	0	-1e10	1	-1e10	1	-1E+10	1	1.2118	4	0.002274	0	-1E+10	1	-1E+10	1	-1E+10	1
4902624	34	C	05/27/2025	10:47	-127.192	49.093	0	5.00	0	11.5170	0	31.8750	0	24.252	0	4.957	0	252.1	4	92.7	4	-1E+10	1	1.2629	4	0.002814	0	-1E+10	1	-1E+10	1	-1E+10	1
4902624	34	C	05/27/2025	10:47	-127.192	49.093	0	5.30	0	11.5170	0	31.8750	0	24.252	0	5.255	0	-1e10	1	-1e10	1	-1E+10	1	1.2556	4	0.002250	0	-1E+10	1	-1E+10	1	-1E+10	1
4902624	34	C	05/27/2025	10:47	-127.192	49.093	0	5.50	0	11.5170	0	31.8750	0	24.252	0	5.453	0	-1e10	1	-1e10	1	-1E+10	1	1.2556	4	0.002215	0	-1E+10	1	-1E+10	1	-1E+10	1
4902624	34	C	05/27/2025	10:47	-127.192	49.093	0	5.80	0	11.5170	0	31.8750	0	24.252	0	5.751	0	-1e10	1	-1e10	1	-1E+10	1	1.2118	4	0.002286	0	-1E+10	1	-1E+10	1	-1E+10	1
4902624	34	C	05/27/2025	10:47	-127.192	49.093	0	5.90	0	11.5170	0	31.8750	0	24.252	0	5.850	0	251.7	4	92.6	4	-1E+10	1	1.3213	4	0.003858	0	-1E+10	1	-1E+10	1	-1E+10	1
4902624	34	C	05/27/2025	10:47	-127.192	49.093	0	6.10	0	11.5170	0	31.8750	0	24.252	0	6.048	0	-1e10	1	-1e10	1	-1E+10	1	1.2410	4	0.002309	0	-1E+10	1	-1E+10	1	-1E+10	1
4902624	34	C	05/27/2025	10:47	-127.192	49.093	0	6.20	0	11.5170	0	31.8750	0	24.252	0	6.147	0	-1e10	1	-1e10	1	-1E+10	1	1.2775	4	0.002262	0	-1E+10	1	-1E+10	1	-1E+10	1
4902624	34	C	05/27/2025	10:47	-127.192	49.093	0	6.40	0	11.5170	0	31.8750	0	24.252	0	6.346	0	-1e10	1	-1e10	1	-1E+10	1	1.2337	4	0.002297	0	-1E+10	1	-1E+10	1	-1E+10	1
4902624	34	C	05/27/2025	10:47	-127.192	49.093	0	6.50	0	11.5170	0	31.8750	0	24.252	0	6.445	0	-1e10	1	-1e10	1	-1E+10	1	1.3432	4	0.002239	0	-1E+10	1	-1E+10	1	-1E+10	1
4902624	34	C	05/27/2025	10:47	-127.192	49.093	0	6.70	0	11.5170	0	31.8750	0	24.252	0	6.643	0	251.3	4	92.4	4	-1E+10	1	1.2629	4	0.002204	0	-1E+10	1	-1E+10	1	-1E+10	1
4902624	34	C	05/27/2025	10:47	-127.192	49.093	0	7.00	0	11.5170	0	31.8750	0	24.252	0	6.940	0	-1e10	1	-1e10	1	-1E+10	1	1.3651	4	0.002309	0	-1E+10	1	-1E+10	1	-1E+10	1
4902624	34	C	05/27/2025	10:47	-127.192	49.093	0	7.20	0	11.5170	0	31.8750	0	24.252	0	7.139	0	-1e10	1	-1e10	1	-1E+10	1	1.2994	4	0.002215	0	-1E+10	1	-1E+10	1	-1E+10	1
4902624	34	C	05/27/2025	10:47	-127.192	49.093	0	7.40	0	11.5170	0	31.8750	0	24.252	0	7.337	0	-1e10	1	-1e10	1	-1E+10	1	1.2191	4	0.002251	0	-1E+10	1	-1E+10	1	-1E+10	1
4902624	34	C	05/27/2025	10:47	-127.192	49.093	0	7.60	0	11.5172	0	31.8750	0	24.252	0	7.535	0	250.8	4	92.2	4	-1E+10	1	1.2702	4	0.002239	0	-1E+10	1	-1E+10	1	-1E+10	1
4902624	34	C	05/27/2025	10:47	-127.192	49.093	0	7.70	0	11.5173	0	31.8750	0	24.252	0	7.634	0	-1e10	1	-1e10	1	-1E+10	1	1.2337	4	0.002192	0	-1E+10	1	-1E+10	1	-1E+10	1
4902624	34	C	05/27/2025	10:47	-127.192	49.093	0	7.80	0	11.5174	0	31.8750	0	24.252	0	7.734	0	-1e10	1	-1e10	1	-1E+10	1	1.2410	4	0.002297	0	-1E+10	1	-1E+10	1	-1E+10	1
4902624	34	C	05/27/2025	10:47	-127.192	49.093	0	8.00	0	11.5176	0	31.8750	0	24.252	0	7.932	0	-1e10	1	-1e10	1	-1E+10	1	1.2264	4	0.002286	0	-1E+10	1	-1E+10	1	-1E+10	1
4902624	34	C	05/27/2025	10:47	-127.192	49.093	0	8.30	0	11.5179	0	31.8750	0	24.252	0	8.229	0	250.0	4	92.0	4	-1E+10	1	1.2410	4	0.002297	0	-1E+10	1	-1E+10	1	-1E+10	1
4902624	34	C	05/27/2025	10:47	-127.192	49.093	0	8.40	0	11.5180	0	31.8750	0	24.252	0	8.329	0	-1e10	1	-1e10	1	-1E+10	1	-1e10	1	-1e10	1	-1E+10	1	-1E+10	1	-1E+10	1
4902624	34	C	05/27/2025	10:47	-127.192	49.093	0	8.50	0	11.5180	0	31.8750	0	24.252	0	8.428	0	-1e10	1	-1e10	1	-1E+10	1	1.2337	4	0.002215	0	-1E+10	1	-1E+10	1	-1E+10	1
4902624	34	C	05/27/2025	10:47	-127.192	49.093	0	8.70	0	11.5180	0	31.8750	0	24.252	0	8.626	0	-1e10	1	-1e10	1	-1E+10	1	1.2191	4	0.002297	0	-1E+10	1	-1E+10	1	-1E+10	1
4902624	34	C	05/27/2025	10:47	-127.192	49.093	0	8.90	0	11.5180	0	31.8750	0	24.252	0	8.824	0	-1e10	1	-1e10	1	-1E+10	1	1.2994	4	0.002239	0	-1E+10	1	-1E+10	1	-1E+10	1
4902624	34	C	05/27/2025	10:47	-127.192	49.093	0	9.00	0	11.5180	0	31.8750	0	24.252	0	8.923	0	-1e10	1	-1e10	1	-1E+10	1	1.2264	4	0.002250	0	-1E+10	1	-1E+10	1	-1E+10	1
4902624	34	C	05/27/2025	10:47	-127.192	49.093	0	9.20	0	11.5180	0	31.8750	0	24.252	0	9.122	0	249.6	4	91.8	4	-1E+10	1	1.3140	4	0.002250	0	-1E+10	1	-1E+10	1	-1E+10	1
4902624	34	C	05/27/2025	10:47	-127.192	49.093	0	9.40	0	11.5180	0	31.8750	0	24.252	0	9.320	0	-1e10	1	-1e10	1	-1E+10	1	1.2629	4	0.002251	0	-1E+10	1	-1E+10	1	-1E+10	1
4902624	34	C	05/27/2025	10:47	-127.192	49.093	0	9.50	0	11.5180	0	31.8750	0	24.252	0	9.419	0	-1e10	1	-1e10	1	-1E+10	1	1.3651	4	0.002215	0	-1E+10	1	-1E+10	1	-1E+10	1
4902624	34	C	05/27/2025	10:47	-127.192	49.093	0	10.10	0	11.5180	0	31.8750	0	24.252	0	10.014	0	248.8	4	91.5	4	-1E+10	1	1.2468	4	0.002527	0	-1E+10	1	-1E+10	1	-1E+10	1
4902624	34	C	05/27/2025	10:47	-127.192	49.093	0	10.90	0	11.5180	0	31.8750	0	24.252	0	10.807	0	247.7	4	91.1	4	-1E+10	1	1.2381	4	0.002276	0	-1E+10	1	-1E+10	1	-1E+10	1
4902624	34	C	05/27/2025	10:47	-127.192	49.093	0	11.00	0	11.5180	0	31.8750	0	24.252	0	10.906	0	-1e10	1	-1e10	1	-1E+10	1	-1e10	1	-1e10	1	-1E+10	1	-1E+10	1	-1E+10	1
4902624	34	C	05/27/2025	10:47	-127.192	49.093	0	11.70	0	11.5180	0	31.8747	0	24.252	0	11.600	0	246.3	4	90.6	4	-1E+10	1	1.2621	4	0.002293	0	-1E+10	1	-1E+10	1	-1E+10	1
4902624	34	C	05/27/2025	10:47	-127.192	49.093	0	12.50	0	11.5180	0	31.8743	0	24.251	0	12.393	0	245.2	4	90.2	4	-1E+10	1	1.3067	4	0.002277	0	-1E+10	1	-1E+10	1	-1E+10	1
4902624	34	C	05/27/2025	10:47	-127.192	49.093	0	13.00	0	11.5180	0	31.8740	0	24.251	0	12.889	0	-1e10	1	-1e10	1	-1E+10	1	-1e10	1	-1e10	1	-1E+10	1	-1E+10	1	-1E+10	1
4902624	34	C	05/27/2025	10:47	-127.192	49.093	0	13.40	0	11.5180	0	31.8740	0	24.251	0	13.286	0	243.7	4	89.6	4	-1E+10	1	1.3147	4	0.002279	0	-1E+10	1	-1E+10	1	-1E+10	1
4902624	34	C	05/27/2025	10:47	-127.192	49.093	0	14.30	0	11.5180	0	31.8740	0	24.251	0	14.178	0	242.2	4	89.1	4	-1E+10	1	1.3505	4	0.002250	0	-1E+10	1	-1E+10	1	-1E+10	1
4902624	34	C	05/27/2025	10:47	-127.192	49.093	0	15.00	0	11.5180	0	31.8740	0	24.251	0	14.872	0	-1e10	1	-1e10	1	-1E+10	1	-1e10	1	-1e10	1	-1E+10	1	-1E+10	1	-1E+10	1
4902624	34	C	05/27/2025	10:47	-127.192	49.093	0	15.20	0	11.5179	0	31.8738	0	24.251	0	15.070	0	240.2	4	88.4	4	-1E+10	1	1.2191	4	0.002321	0	-1E+10	1	-1E+10	1	-1E+10	1
4902624	34	C	05/27/2025	10:47	-127.192	49.093	0	16.20	0	11.5174	0	31.8727	0	24.250	0	16.062	0	238.0	4	87.5	4	-1E+10	1	1.3319	4	0.002267	0	-1E+10	1	-1E+10	1	-1E+10	1
4902624	34	C	05/27/2025	10:47	-127.192	49.093	0	16.90	0	11.5170	0	31.8720	0	24.250	0	16.756	0	-1e10	1	-1e10	1	-1E+10	1	-1e10	1	-1e10	1	-1E+10	1	-1E+10	1	-1E+10	1
4902624	34	C	05/27/2025	10:47	-127.192	49.093	0	17.00	0	11.5158	0	31.8720	0	24.250	0	16.855	0	235.3	4	86.5	4	-1E+10	1	1.2828	4	0.002329	0	-1E+10	1	-1E+10	1	-1E+10	1
4902624	34	C	05/27/2025	10:47	-127.192	49.093	0	18.00	0	11.5039	0	31.8715	0	24.252	0	17.846	0	232.3	4	85.4	4	-1E+10	1	1.2877	4	0.002347	0	-1E+10	1	-1E+10	1	-1E+10	1
4902624	34	C	05/27/2025	10:47	-127.192	49.093	0	18.90	0	11.4932	0	31.8710	0	24.253	0	18.739	0	229.2	4	84.3	4	-1E+10	1	1.3578	4	0.002280	0	-1E+10	1	-1E+10	1	-1E+10	1
4902624	34	C	05/27/2025	10:47	-127.192	49.093	0	19.00	0	11.4920	0	31.8710	0	24.254	0	18.838	0	-1e10	1	-1e10	1	-1E+10	1	-1e10	1	-1e10	1	-1E+10	1	-1E+10	1	-1E+10	1
4902624	34	C	05/27/2025	10:47	-127.192	49.093	0	19.80	0	11.4300	0	31.8754	0	24.268	0	19.631	0	226.2	4	83.1	4	-1E+10	1	1.3830	4	0.002432	0	-1E+10	1	-1E+10	1	-1E+10	1
4902624	34	C	05/27/2025	10:47	-127.192	49.093	0	20.70	0	11.3602	0	31.8804	0	24.284	0	20.523	0	222.6	4	81.6	4	-1E+10	1	1.3278	4	0.002644	0	-1E+10	1	-1E+10	1	-1E+10	1
4902624	34	C	05/27/2025	10:47	-127.192	49.093	0	21.00	0	11.3370	0	31.8820	0	24.290	0	20.821	0	-1e10	1	-1e10	1	-1E+10	1	-1e10	1	-1e10	1	-1E+10	1	-1E+10	1	-1E+10	1
4902624	34	C	05/27/2025	10:47	-127.192	49.093	0	21.60	0	11.2236	0	31.9095	0	24.331	0	21.415	0	218.4	4	79.8	4	-1E+10	1	1.2300	4	0.002123	0	-1E+10	1	-1E+10	1	-1E+10	1
4902624	34	C	05/27/2025	10:47	-127.192	49.093	0	22.60	0	11.0347	0	31.9553	0	24.400	0	22.407	0	214.5	4	78.1	4	-1E+10	1	1.1388	4	0.002074	0	-1E+10	1	-1E+10	1	-1E+10	1
4902624	34	C	05/27/2025	10:47	-127.192	49.093	0	22.90	0	10.9780	0	31.9690	0	24.421	0	22.704	0	-1e10	1	-1e10	1	-1E+10	1	-1e10	1	-1e10	1	-1E+10	1	-1E+10	1	-1E+10	1
4902624	34	C	05/27/2025	10:47	-127.192	49.093	0	23.80	0	10.7350	0	32.0380	0	24.517	0	23.597	0	209.5	4	75.9	4	-1E+10	1	0.9198	4	0.001746	0	-1E+10	1	-1E+10	1	-1E+10	1
4902624	34	C	05/27/2025	10:47	-127.192	49.093	0	24.50	0	10.5460	0	32.0917	0	24.591	0	24.291	0	206.8	4	74.6	4	-1E+10	1	0.9134	4	0.001571	0	-1E+10	1	-1E+10	1	-1E+10	1
4902624	34	C	05/27/2025	10:47	-127.192	49.093	0	25.00	0	10.4110	0	32.1300	0	24.644	0	24.786	0	-1e10	1	-1e10	1	-1E+10	1	-1e10	1	-1e10	1	-1E+10	1	-1E+10	1	-1E+10	1
4902624	34	C	05/27/2025	10:47	-127.192	49.093	0	25.20	0	10.3766	0	32.1391	0	24.657	0	24.985	0	203.0	4	73.0	4	-1E+10	1	0.9234	4	0.001238	0	-1E+10	1	-1E+10	1	-1E+10	1
4902624	34	C	05/27/2025	10:47	-127.192	49.093	0	25.90	0	10.2562	0	32.1710	0	24.702	0	25.678	0	199.5	4	71.6	4	-1E+10	1	0.8865	4	0.001207	0	-1E+10	1	-1E+10	1	-1E+10	1
4902624	34	C	05/27/2025	10:47	-127.192	49.093	0	26.60	0	10.1358	0	32.2028	0	24.747	0	26.372	0	196.7	4	70.4	4	-1E+10	1	0.8322	4	0.001319	0	-1E+10	1	-1E+10	1	-1E+10	1
4902624	34	C	05/27/2025	10:47	-127.192	49.093	0	27.00	0	10.0670	0	32.2210	0	24.772	0	26.769	0	-1e10	1	-1e10	1	-1E+10	1	-1e10	1	-1e10	1	-1E+10	1	-1E+10	1	-1E+10	1
4902624	34	C	05/27/2025	10:47	-127.192	49.093	0	27.30	0	10.0258	0	32.2302	0	24.786	0	27.066	0	193.2	4	69.0	4	-1E+10	1	0.7986	4	0.001269	0	-1E+10	1	-1E+10	1	-1E+10	1
4902624	34	C	05/27/2025	10:47	-127.192	49.093	0	28.10	0	9.9159	0	32.2546	0	24.824	0	27.860	0	189.5	4	67.5	4	-1E+10	1	0.7774	4	0.000980	0	-1E+10	1	-1E+10	1	-1E+10	1
4902624	34	C	05/27/2025	10:47	-127.192	49.093	0	28.80	0	9.8197	0	32.2759	0	24.856	0	28.553	0	185.8	4	66.1	4	-1E+10	1	0.7008	4	0.000960	0	-1E+10	1	-1E+10	1	-1E+10	1
4902624	34	C	05/27/2025	10:47	-127.192	49.093	0	28.90	0	9.8060	0	32.2790	0	24.861	0	28.653	0	-1e10	1	-1e10	1	-1E+10	1	-1e10	1	-1e10	1	-1E+10	1	-1E+10	1	-1E+10	1
4902624	34	C	05/27/2025	10:47	-127.192	49.093	0	29.60	0	9.6223	0	32.3373	0	24.936	0	29.347	0	182.2	4	64.5	4	-1E+10	1	0.6205	4	0.000983	0	-1E+10	1	-1E+10	1	-1E+10	1
4902624	34	C	05/27/2025	10:47	-127.192	49.093	0	30.60	0	9.3600	0	32.4207	0	25.043	0	30.338	0	178.1	4	62.8	4	-1E+10	1	0.5402	4	0.000913	0	-1E+10	1	-1E+10	1	-1E+10	1
4902624	34	C	05/27/2025	10:47	-127.192	49.093	0	31.00	0	9.2550	0	32.4540	0	25.086	0	30.734	0	-1e10	1	-1e10	1	-1E+10	1	-1e10	1	-1e10	1	-1E+10	1	-1E+10	1	-1E+10	1
4902624	34	C	05/27/2025	10:47	-127.192	49.093	0	31.60	0	9.1444	0	32.4826	0	25.126	0	31.329	0	174.9	4	61.4	4	-1E+10	1	0.5037	4	0.000819	0	-1E+10	1	-1E+10	1	-1E+10	1
4902624	34	C	05/27/2025	10:47	-127.192	49.093	0	32.20	0	9.0339	0	32.5111	0	25.165	0	31.924	0	172.9	4	60.6	4	-1E+10	1	0.4745	4	0.003224	0	-1E+10	1	-1E+10	1	-1E+10	1
4902624	34	C	05/27/2025	10:47	-127.192	49.093	0	32.50	0	8.9786	0	32.5254	0	25.185	0	32.222	0	171.9	4	60.1	4	-1E+10	1	0.4745	4	0.001802	0	-1E+10	1	-1E+10	1	-1E+10	1
4902624	34	C	05/27/2025	10:47	-127.192	49.093	0	32.80	0	8.9233	0	32.5397	0	25.205	0	32.519	0	170.2	4	59.5	4	-1E+10	1	0.4842	4	0.000827	0	-1E+10	1	-1E+10	1	-1E+10	1
4902624	34	C	05/27/2025	10:47	-127.192	49.093	0	33.00	0	8.8864	0	32.5492	0	25.218	0	32.717	0	168.4	4	58.8	4	-1E+10	1	0.5037	4	0.000772	0	-1E+10	1	-1E+10	1	-1E+10	1
4902624	34	C	05/27/2025	10:47	-127.192	49.093	0	33.10	0	8.8680	0	32.5540	0	25.225	0	32.816	0	167.5	4	58.5	4	-1E+10	1	0.4818	4	0.000768	0	-1E+10	1	-1E+10	1	-1E+10	1
4902624	34	C	05/27/2025	10:47	-127.192	49.093	0	33.20	0	8.8548	0	32.5626	0	25.233	0	32.915	0	166.6	4	58.1	4	-1E+10	1	-1e10	1	-1e10	1	-1E+10	1	-1E+10	1	-1E+10	1
4902624	34	C	05/27/2025	10:47	-127.192	49.093	0	33.30	0	8.8416	0	32.5711	0	25.242	0	33.015	0	164.6	4	57.4	4	-1E+10	1	0.4599	4	0.000725	0	-1E+10	1	-1E+10	1	-1E+10	1
4902624	34	C	05/27/2025	10:47	-127.192	49.093	0	33.40	0	8.8283	0	32.5797	0	25.251	0	33.114	0	162.5	4	56.7	4	-1E+10	1	-1e10	1	-1e10	1	-1E+10	1	-1E+10	1	-1E+10	1
4902624	34	C	05/27/2025	10:47	-127.192	49.093	0	33.50	0	8.8151	0	32.5882	0	25.259	0	33.213	0	161.2	4	56.2	4	-1E+10	1	0.4526	4	0.000737	0	-1E+10	1	-1E+10	1	-1E+10	1
4902624	34	C	05/27/2025	10:47	-127.192	49.093	0	33.60	0	8.8019	0	32.5968	0	25.268	0	33.312	0	159.8	4	55.7	4	-1E+10	1	0.4380	4	0.000678	0	-1E+10	1	-1E+10	1	-1E+10	1
4902624	34	C	05/27/2025	10:47	-127.192	49.093	0	33.80	0	8.7754	0	32.6139	0	25.286	0	33.510	0	156.7	4	54.6	4	-1E+10	1	0.4331	4	0.000741	0	-1E+10	1	-1E+10	1	-1E+10	1
4902624	34	C	05/27/2025	10:47	-127.192	49.093	0	34.10	0	8.7358	0	32.6396	0	25.312	0	33.808	0	153.2	4	53.3	4	-1E+10	1	0.4161	4	0.000717	0	-1E+10	1	-1E+10	1	-1E+10	1
4902624	34	C	05/27/2025	10:47	-127.192	49.093	0	34.40	0	8.6961	0	32.6652	0	25.338	0	34.105	0	149.7	4	52.1	4	-1E+10	1	0.3906	4	0.000684	0	-1E+10	1	-1E+10	1	-1E+10	1
4902624	34	C	05/27/2025	10:47	-127.192	49.093	0	34.90	0	8.6300	0	32.7080	0	25.382	0	34.601	0	145.3	4	50.5	4	-1E+10	1	0.3577	4	0.000666	0	-1E+10	1	-1E+10	1	-1E+10	1
4902624	34	C	05/27/2025	10:47	-127.192	49.093	0	35.40	0	8.5388	0	32.7675	0	25.442	0	35.096	0	144.7	4	50.2	4	-1E+10	1	0.3309	4	0.000663	0	-1E+10	1	-1E+10	1	-1E+10	1
4902624	34	C	05/27/2025	10:47	-127.192	49.093	0	36.00	0	8.4294	0	32.8390	0	25.514	0	35.691	0	142.8	4	49.5	4	-1E+10	1	0.3042	4	0.000686	0	-1E+10	1	-1E+10	1	-1E+10	1
4902624	34	C	05/27/2025	10:47	-127.192	49.093	0	36.60	0	8.3200	0	32.9104	0	25.587	0	36.286	0	141.2	4	48.8	4	-1E+10	1	0.2938	4	0.000696	0	-1E+10	1	-1E+10	1	-1E+10	1
4902624	34	C	05/27/2025	10:47	-127.192	49.093	0	37.00	0	8.2470	0	32.9580	0	25.635	0	36.683	0	-1e10	1	-1e10	1	-1E+10	1	-1e10	1	-1e10	1	-1E+10	1	-1E+10	1	-1E+10	1
4902624	34	C	05/27/2025	10:47	-127.192	49.093	0	37.20	0	8.2350	0	32.9647	0	25.642	0	36.881	0	139.7	4	48.2	4	-1E+10	1	0.2774	4	0.000678	0	-1E+10	1	-1E+10	1	-1E+10	1
4902624	34	C	05/27/2025	10:47	-127.192	49.093	0	37.90	0	8.1930	0	32.9882	0	25.667	0	37.575	0	138.1	4	47.6	4	-1E+10	1	0.2902	4	0.000863	0	-1E+10	1	-1E+10	1	-1E+10	1
4902624	34	C	05/27/2025	10:47	-127.192	49.093	0	38.60	0	8.1510	0	33.0116	0	25.691	0	38.269	0	136.6	4	47.1	4	-1E+10	1	0.2607	4	0.000668	0	-1E+10	1	-1E+10	1	-1E+10	1
4902624	34	C	05/27/2025	10:47	-127.192	49.093	0	39.00	0	8.1270	0	33.0250	0	25.705	0	38.665	0	-1e10	1	-1e10	1	-1E+10	1	-1e10	1	-1e10	1	-1E+10	1	-1E+10	1	-1E+10	1
4902624	34	C	05/27/2025	10:47	-127.192	49.093	0	39.30	0	8.1146	0	33.0336	0	25.714	0	38.963	0	135.0	4	46.5	4	-1E+10	1	0.2555	4	0.000631	0	-1E+10	1	-1E+10	1	-1E+10	1
4902624	34	C	05/27/2025	10:47	-127.192	49.093	0	40.10	0	8.0814	0	33.0564	0	25.737	0	39.756	0	133.6	4	46.0	4	-1E+10	1	0.2628	4	0.000649	0	-1E+10	1	-1E+10	1	-1E+10	1
4902624	34	C	05/27/2025	10:47	-127.192	49.093	0	40.90	0	8.0483	0	33.0793	0	25.759	0	40.549	0	132.4	4	45.6	4	-1E+10	1	0.2555	4	0.000662	0	-1E+10	1	-1E+10	1	-1E+10	1
4902624	34	C	05/27/2025	10:47	-127.192	49.093	0	41.10	0	8.0400	0	33.0850	0	25.765	0	40.747	0	-1e10	1	-1e10	1	-1E+10	1	-1e10	1	-1e10	1	-1E+10	1	-1E+10	1	-1E+10	1
4902624	34	C	05/27/2025	10:47	-127.192	49.093	0	41.80	0	8.0040	0	33.1074	0	25.788	0	41.441	0	131.1	4	45.1	4	-1E+10	1	0.2144	4	0.000645	0	-1E+10	1	-1E+10	1	-1E+10	1
4902624	34	C	05/27/2025	10:47	-127.192	49.093	0	42.80	0	7.9524	0	33.1394	0	25.821	0	42.432	0	129.8	4	44.6	4	-1E+10	1	0.1825	4	0.000619	0	-1E+10	1	-1E+10	1	-1E+10	1
4902624	34	C	05/27/2025	10:47	-127.192	49.093	0	43.10	0	7.9370	0	33.1490	0	25.830	0	42.730	0	-1e10	1	-1e10	1	-1E+10	1	-1e10	1	-1e10	1	-1E+10	1	-1E+10	1	-1E+10	1
4902624	34	C	05/27/2025	10:47	-127.192	49.093	0	43.80	0	7.9024	0	33.1763	0	25.857	0	43.423	0	129.0	4	44.3	4	-1E+10	1	0.1825	4	0.000619	0	-1E+10	1	-1E+10	1	-1E+10	1
4902624	34	C	05/27/2025	10:47	-127.192	49.093	0	44.90	0	7.8479	0	33.2191	0	25.898	0	44.514	0	128.3	4	44.0	4	-1E+10	1	0.1241	4	0.000584	0	-1E+10	1	-1E+10	1	-1E+10	1
4902624	34	C	05/27/2025	10:47	-127.192	49.093	0	45.00	0	7.8430	0	33.2230	0	25.902	0	44.613	0	-1e10	1	-1e10	1	-1E+10	1	-1e10	1	-1e10	1	-1E+10	1	-1E+10	1	-1E+10	1
4902624	34	C	05/27/2025	10:47	-127.192	49.093	0	46.00	0	7.7990	0	33.2520	0	25.931	0	45.604	0	127.9	4	43.8	4	-1E+10	1	0.1298	4	0.000621	0	-1E+10	1	-1E+10	1	-1E+10	1
4902624	34	C	05/27/2025	10:47	-127.192	49.093	0	47.00	0	7.7550	0	33.2810	0	25.960	0	46.596	0	-1e10	1	-1e10	1	-1E+10	1	-1e10	1	-1e10	1	-1E+10	1	-1E+10	1	-1E+10	1
4902624	34	C	05/27/2025	10:47	-127.192	49.093	0	47.20	0	7.7522	0	33.2823	0	25.962	0	46.794	0	127.6	4	43.7	4	-1E+10	1	0.1220	4	0.000631	0	-1E+10	1	-1E+10	1	-1E+10	1
4902624	34	C	05/27/2025	10:47	-127.192	49.093	0	48.40	0	7.7357	0	33.2903	0	25.970	0	47.983	0	127.2	4	43.5	4	-1E+10	1	0.1122	4	0.000624	0	-1E+10	1	-1E+10	1	-1E+10	1
4902624	34	C	05/27/2025	10:47	-127.192	49.093	0	49.10	0	7.7260	0	33.2950	0	25.976	0	48.677	0	-1e10	1	-1e10	1	-1E+10	1	-1e10	1	-1e10	1	-1E+10	1	-1E+10	1	-1E+10	1
4902624	34	C	05/27/2025	10:47	-127.192	49.093	0	49.50	0	7.7222	0	33.2962	0	25.977	0	49.074	0	126.8	4	43.4	4	-1E+10	1	0.1027	4	0.000641	0	-1E+10	1	-1E+10	1	-1E+10	1
4902624	34	C	05/27/2025	10:47	-127.192	49.093	0	50.70	0	7.7108	0	33.2998	0	25.982	0	50.263	0	126.2	4	43.2	4	-1E+10	1	0.0991	4	0.000660	0	-1E+10	1	-1E+10	1	-1E+10	1
4902624	34	C	05/27/2025	10:47	-127.192	49.093	0	51.10	0	7.7070	0	33.3010	0	25.983	0	50.660	0	-1e10	1	-1e10	1	-1E+10	1	-1e10	1	-1e10	1	-1E+10	1	-1E+10	1	-1E+10	1
4902624	34	C	05/27/2025	10:47	-127.192	49.093	0	51.90	0	7.6918	0	33.3162	0	25.997	0	51.453	0	125.6	4	42.9	4	-1E+10	1	0.1071	4	0.000643	0	-1E+10	1	-1E+10	1	-1E+10	1
4902624	34	C	05/27/2025	10:47	-127.192	49.093	0	53.00	0	7.6710	0	33.3370	0	26.016	0	52.543	0	-1e10	1	-1e10	1	-1E+10	1	-1e10	1	-1e10	1	-1E+10	1	-1E+10	1	-1E+10	1
4902624	34	C	05/27/2025	10:47	-127.192	49.093	0	53.10	0	7.6698	0	33.3399	0	26.019	0	52.642	0	125.0	4	42.7	4	-1E+10	1	0.0939	4	0.000633	0	-1E+10	1	-1E+10	1	-1E+10	1
4902624	34	C	05/27/2025	10:47	-127.192	49.093	0	54.30	0	7.6560	0	33.3741	0	26.048	0	53.832	0	124.4	4	42.5	4	-1E+10	1	0.0876	4	0.000572	0	-1E+10	1	-1E+10	1	-1E+10	1
4902624	34	C	05/27/2025	10:47	-127.192	49.093	0	55.00	0	7.6480	0	33.3940	0	26.065	0	54.526	0	-1e10	1	-1e10	1	-1E+10	1	-1e10	1	-1e10	1	-1E+10	1	-1E+10	1	-1E+10	1
4902624	34	C	05/27/2025	10:47	-127.192	49.093	0	55.50	0	7.6295	0	33.4023	0	26.074	0	55.021	0	123.8	4	42.3	4	-1E+10	1	0.0813	4	0.000593	0	-1E+10	1	-1E+10	1	-1E+10	1
4902624	34	C	05/27/2025	10:47	-127.192	49.093	0	56.60	0	7.5888	0	33.4204	0	26.094	0	56.112	0	123.0	4	42.0	4	-1E+10	1	0.0858	4	0.000605	0	-1E+10	1	-1E+10	1	-1E+10	1
4902624	34	C	05/27/2025	10:47	-127.192	49.093	0	57.00	0	7.5740	0	33.4270	0	26.101	0	56.508	0	-1e10	1	-1e10	1	-1E+10	1	-1e10	1	-1e10	1	-1E+10	1	-1E+10	1	-1E+10	1
4902624	34	C	05/27/2025	10:47	-127.192	49.093	0	57.80	0	7.5529	0	33.4384	0	26.113	0	57.301	0	122.3	4	41.7	4	-1E+10	1	0.0829	4	0.000615	0	-1E+10	1	-1E+10	1	-1E+10	1
4902624	34	C	05/27/2025	10:47	-127.192	49.093	0	58.90	0	7.5240	0	33.4540	0	26.129	0	58.392	0	119.6	4	40.8	4	-1E+10	1	0.0736	4	0.000603	0	-1E+10	1	-1E+10	1	-1E+10	1
4902624	34	C	05/27/2025	10:47	-127.192	49.093	0	60.10	0	7.4903	0	33.4774	0	26.153	0	59.581	0	121.5	4	41.4	4	-1E+10	1	0.0748	4	0.000609	0	-1E+10	1	-1E+10	1	-1E+10	1
4902624	34	C	05/27/2025	10:47	-127.192	49.093	0	61.00	0	7.4650	0	33.4950	0	26.170	0	60.473	0	-1e10	1	-1e10	1	-1E+10	1	-1e10	1	-1e10	1	-1E+10	1	-1E+10	1	-1E+10	1
4902624	34	C	05/27/2025	10:47	-127.192	49.093	0	61.20	0	7.4576	0	33.4993	0	26.174	0	60.671	0	121.2	4	41.3	4	-1E+10	1	0.0809	4	0.000625	0	-1E+10	1	-1E+10	1	-1E+10	1
4902624	34	C	05/27/2025	10:47	-127.192	49.093	0	62.40	0	7.4130	0	33.5250	0	26.201	0	61.861	0	120.4	4	41.0	4	-1E+10	1	0.0673	4	0.000587	0	-1E+10	1	-1E+10	1	-1E+10	1
4902624	34	C	05/27/2025	10:47	-127.192	49.093	0	63.10	0	7.3870	0	33.5400	0	26.216	0	62.555	0	-1e10	1	-1e10	1	-1E+10	1	-1e10	1	-1e10	1	-1E+10	1	-1E+10	1	-1E+10	1
4902624	34	C	05/27/2025	10:47	-127.192	49.093	0	63.50	0	7.3769	0	33.5482	0	26.224	0	62.951	0	119.8	4	40.7	4	-1E+10	1	0.0730	4	0.000596	0	-1E+10	1	-1E+10	1	-1E+10	1
4902624	34	C	05/27/2025	10:47	-127.192	49.093	0	64.70	0	7.3466	0	33.5728	0	26.248	0	64.141	0	119.0	4	40.5	4	-1E+10	1	0.0657	4	0.000549	0	-1E+10	1	-1E+10	1	-1E+10	1
4902624	34	C	05/27/2025	10:47	-127.192	49.093	0	65.00	0	7.3390	0	33.5790	0	26.254	0	64.438	0	-1e10	1	-1e10	1	-1E+10	1	-1e10	1	-1e10	1	-1E+10	1	-1E+10	1	-1E+10	1
4902624	34	C	05/27/2025	10:47	-127.192	49.093	0	65.80	0	7.3310	0	33.5912	0	26.265	0	65.231	0	118.2	4	40.2	4	-1E+10	1	0.0781	4	0.000559	0	-1E+10	1	-1E+10	1	-1E+10	1
4902624	34	C	05/27/2025	10:47	-127.192	49.093	0	66.90	0	7.3200	0	33.6080	0	26.279	0	66.321	0	115.1	4	39.1	4	-1E+10	1	0.0756	4	0.000561	0	-1E+10	1	-1E+10	1	-1E+10	1
4902624	34	C	05/27/2025	10:47	-127.192	49.093	0	68.10	0	7.3103	0	33.6171	0	26.288	0	67.511	0	116.5	4	39.6	4	-1E+10	1	0.0730	4	0.000643	0	-1E+10	1	-1E+10	1	-1E+10	1
4902624	34	C	05/27/2025	10:47	-127.192	49.093	0	69.00	0	7.3030	0	33.6240	0	26.294	0	68.403	0	-1e10	1	-1e10	1	-1E+10	1	-1e10	1	-1e10	1	-1E+10	1	-1E+10	1	-1E+10	1
4902624	34	C	05/27/2025	10:47	-127.192	49.093	0	69.20	0	7.2997	0	33.6262	0	26.296	0	68.601	0	115.6	4	39.3	4	-1E+10	1	0.0730	4	0.000666	0	-1E+10	1	-1E+10	1	-1E+10	1
4902624	34	C	05/27/2025	10:47	-127.192	49.093	0	70.30	0	7.2815	0	33.6383	0	26.309	0	69.691	0	114.6	4	38.9	4	-1E+10	1	0.0685	4	0.000625	0	-1E+10	1	-1E+10	1	-1E+10	1
4902624	34	C	05/27/2025	10:47	-127.192	49.093	0	71.00	0	7.2700	0	33.6460	0	26.316	0	70.385	0	-1e10	1	-1e10	1	-1E+10	1	-1e10	1	-1e10	1	-1E+10	1	-1E+10	1	-1E+10	1
4902624	34	C	05/27/2025	10:47	-127.192	49.093	0	71.40	0	7.2688	0	33.6526	0	26.322	0	70.782	0	113.7	4	38.6	4	-1E+10	1	0.0584	4	0.000590	0	-1E+10	1	-1E+10	1	-1E+10	1
4902624	34	C	05/27/2025	10:47	-127.192	49.093	0	72.50	0	7.2655	0	33.6707	0	26.336	0	71.872	0	112.9	4	38.3	4	-1E+10	1	0.0572	4	0.000607	0	-1E+10	1	-1E+10	1	-1E+10	1
4902624	34	C	05/27/2025	10:47	-127.192	49.093	0	73.00	0	7.2640	0	33.6790	0	26.343	0	72.367	0	-1e10	1	-1e10	1	-1E+10	1	-1e10	1	-1e10	1	-1E+10	1	-1E+10	1	-1E+10	1
4902624	34	C	05/27/2025	10:47	-127.192	49.093	0	73.50	0	7.2697	0	33.6890	0	26.350	0	72.863	0	112.4	4	38.2	4	-1E+10	1	0.0511	4	0.000549	0	-1E+10	1	-1E+10	1	-1E+10	1
4902624	34	C	05/27/2025	10:47	-127.192	49.093	0	74.30	0	7.2789	0	33.7050	0	26.361	0	73.656	0	112.0	4	38.1	4	-1E+10	1	0.0641	4	0.000549	0	-1E+10	1	-1E+10	1	-1E+10	1
4902624	34	C	05/27/2025	10:47	-127.192	49.093	0	75.00	0	7.2869	0	33.7190	0	26.371	0	74.350	0	111.6	4	37.9	4	-1E+10	1	0.0594	4	0.000551	0	-1E+10	1	-1E+10	1	-1E+10	1
4902624	34	C	05/27/2025	10:47	-127.192	49.093	0	75.10	0	7.2880	0	33.7210	0	26.373	0	74.449	0	-1e10	1	-1e10	1	-1E+10	1	-1e10	1	-1e10	1	-1E+10	1	-1E+10	1	-1E+10	1
4902624	34	C	05/27/2025	10:47	-127.192	49.093	0	75.70	0	7.2852	0	33.7238	0	26.375	0	75.043	0	111.1	4	37.7	4	-1E+10	1	0.0535	4	0.000557	0	-1E+10	1	-1E+10	1	-1E+10	1
4902624	34	C	05/27/2025	10:47	-127.192	49.093	0	76.40	0	7.2818	0	33.7272	0	26.378	0	75.737	0	110.5	4	37.6	4	-1E+10	1	0.0548	4	0.000537	0	-1E+10	1	-1E+10	1	-1E+10	1
4902624	34	C	05/27/2025	10:47	-127.192	49.093	0	77.00	0	7.2790	0	33.7300	0	26.381	0	76.332	0	-1e10	1	-1e10	1	-1E+10	1	-1e10	1	-1e10	1	-1E+10	1	-1E+10	1	-1E+10	1
4902624	34	C	05/27/2025	10:47	-127.192	49.093	0	77.10	0	7.2782	0	33.7311	0	26.382	0	76.431	0	110.0	4	37.4	4	-1E+10	1	0.0529	4	0.000514	0	-1E+10	1	-1E+10	1	-1E+10	1
4902624	34	C	05/27/2025	10:47	-127.192	49.093	0	77.80	0	7.2725	0	33.7388	0	26.389	0	77.125	0	109.6	4	37.2	4	-1E+10	1	0.0487	4	0.000527	0	-1E+10	1	-1E+10	1	-1E+10	1
4902624	34	C	05/27/2025	10:47	-127.192	49.093	0	78.60	0	7.2660	0	33.7475	0	26.397	0	77.918	0	109.2	4	37.1	4	-1E+10	1	0.0649	4	0.000567	0	-1E+10	1	-1E+10	1	-1E+10	1
4902624	34	C	05/27/2025	10:47	-127.192	49.093	0	79.10	0	7.2620	0	33.7530	0	26.402	0	78.413	0	-1e10	1	-1e10	1	-1E+10	1	-1e10	1	-1e10	1	-1E+10	1	-1E+10	1	-1E+10	1
4902624	34	C	05/27/2025	10:47	-127.192	49.093	0	79.40	0	7.2588	0	33.7549	0	26.404	0	78.711	0	108.8	4	37.0	4	-1E+10	1	0.0584	4	0.000525	0	-1E+10	1	-1E+10	1	-1E+10	1
4902624	34	C	05/27/2025	10:47	-127.192	49.093	0	80.10	0	7.2515	0	33.7593	0	26.408	0	79.404	0	108.5	4	36.9	4	-1E+10	1	0.0438	4	0.001675	0	-1E+10	1	-1E+10	1	-1E+10	1
4902624	34	C	05/27/2025	10:47	-127.192	49.093	0	80.90	0	7.2431	0	33.7644	0	26.413	0	80.197	0	108.1	4	36.7	4	-1E+10	1	0.0555	4	0.000765	0	-1E+10	1	-1E+10	1	-1E+10	1
4902624	34	C	05/27/2025	10:47	-127.192	49.093	0	81.00	0	7.2420	0	33.7650	0	26.414	0	80.296	0	-1e10	1	-1e10	1	-1E+10	1	-1e10	1	-1e10	1	-1E+10	1	-1E+10	1	-1E+10	1
4902624	34	C	05/27/2025	10:47	-127.192	49.093	0	81.70	0	7.2259	0	33.7696	0	26.420	0	80.990	0	107.8	4	36.6	4	-1E+10	1	0.0584	4	0.000560	0	-1E+10	1	-1E+10	1	-1E+10	1
4902624	34	C	05/27/2025	10:47	-127.192	49.093	0	82.50	0	7.2075	0	33.7747	0	26.426	0	81.783	0	107.4	4	36.4	4	-1E+10	1	0.0538	4	0.000550	0	-1E+10	1	-1E+10	1	-1E+10	1
4902624	34	C	05/27/2025	10:47	-127.192	49.093	0	83.00	0	7.1960	0	33.7780	0	26.431	0	82.279	0	-1e10	1	-1e10	1	-1E+10	1	-1e10	1	-1e10	1	-1E+10	1	-1E+10	1	-1E+10	1
4902624	34	C	05/27/2025	10:47	-127.192	49.093	0	83.30	0	7.1911	0	33.7787	0	26.432	0	82.576	0	107.1	4	36.3	4	-1E+10	1	0.0474	4	0.000560	0	-1E+10	1	-1E+10	1	-1E+10	1
4902624	34	C	05/27/2025	10:47	-127.192	49.093	0	84.10	0	7.1782	0	33.7806	0	26.435	0	83.369	0	106.6	4	36.2	4	-1E+10	1	0.0482	4	0.000598	0	-1E+10	1	-1E+10	1	-1E+10	1
4902624	34	C	05/27/2025	10:47	-127.192	49.093	0	85.00	0	7.1636	0	33.7828	0	26.439	0	84.261	0	106.1	4	36.0	4	-1E+10	1	0.0584	4	0.000625	0	-1E+10	1	-1E+10	1	-1E+10	1
4902624	34	C	05/27/2025	10:47	-127.192	49.093	0	85.10	0	7.1620	0	33.7830	0	26.439	0	84.360	0	-1e10	1	-1e10	1	-1E+10	1	-1e10	1	-1e10	1	-1E+10	1	-1E+10	1	-1E+10	1
4902624	34	C	05/27/2025	10:47	-127.192	49.093	0	85.80	0	7.1583	0	33.7834	0	26.440	0	85.054	0	105.6	4	35.8	4	-1E+10	1	0.0569	4	0.000600	0	-1E+10	1	-1E+10	1	-1E+10	1
4902624	34	C	05/27/2025	10:47	-127.192	49.093	0	86.60	0	7.1541	0	33.7838	0	26.441	0	85.847	0	105.1	4	35.6	4	-1E+10	1	0.0511	4	0.000572	0	-1E+10	1	-1E+10	1	-1E+10	1
4902624	34	C	05/27/2025	10:47	-127.192	49.093	0	87.00	0	7.1520	0	33.7840	0	26.441	0	86.243	0	-1e10	1	-1e10	1	-1E+10	1	-1e10	1	-1e10	1	-1E+10	1	-1E+10	1	-1E+10	1
4902624	34	C	05/27/2025	10:47	-127.192	49.093	0	87.50	0	7.1430	0	33.7865	0	26.445	0	86.739	0	104.6	4	35.4	4	-1E+10	1	0.0571	4	0.000620	0	-1E+10	1	-1E+10	1	-1E+10	1
4902624	34	C	05/27/2025	10:47	-127.192	49.093	0	88.40	0	7.1268	0	33.7910	0	26.450	0	87.631	0	104.0	4	35.2	4	-1E+10	1	0.0584	4	0.000558	0	-1E+10	1	-1E+10	1	-1E+10	1
4902624	34	C	05/27/2025	10:47	-127.192	49.093	0	89.00	0	7.1160	0	33.7940	0	26.454	0	88.225	0	-1e10	1	-1e10	1	-1E+10	1	-1e10	1	-1e10	1	-1E+10	1	-1E+10	1	-1E+10	1
4902624	34	C	05/27/2025	10:47	-127.192	49.093	0	89.30	0	7.1123	0	33.7953	0	26.456	0	88.523	0	103.5	4	35.1	4	-1E+10	1	0.0584	4	0.000611	0	-1E+10	1	-1E+10	1	-1E+10	1
4902624	34	C	05/27/2025	10:47	-127.192	49.093	0	90.10	0	7.1023	0	33.7990	0	26.460	0	89.315	0	103.0	4	34.9	4	-1E+10	1	0.0551	4	0.000632	0	-1E+10	1	-1E+10	1	-1E+10	1
4902624	34	C	05/27/2025	10:47	-127.192	49.093	0	91.00	0	7.0910	0	33.8030	0	26.465	0	90.207	0	100.4	4	34.0	4	-1E+10	1	0.0535	4	0.000599	0	-1E+10	1	-1E+10	1	-1E+10	1
4902624	34	C	05/27/2025	10:47	-127.192	49.093	0	91.90	0	7.0777	0	33.8058	0	26.469	0	91.099	0	101.9	4	34.5	4	-1E+10	1	0.0557	4	0.000569	0	-1E+10	1	-1E+10	1	-1E+10	1
4902624	34	C	05/27/2025	10:47	-127.192	49.093	0	92.80	0	7.0645	0	33.8087	0	26.473	0	91.991	0	101.4	4	34.3	4	-1E+10	1	0.0538	4	0.000584	0	-1E+10	1	-1E+10	1	-1E+10	1
4902624	34	C	05/27/2025	10:47	-127.192	49.093	0	92.90	0	7.0630	0	33.8090	0	26.473	0	92.090	0	-1e10	1	-1e10	1	-1E+10	1	-1e10	1	-1e10	1	-1E+10	1	-1E+10	1	-1E+10	1
4902624	34	C	05/27/2025	10:47	-127.192	49.093	0	93.70	0	7.0494	0	33.8146	0	26.480	0	92.883	0	100.9	4	34.1	4	-1E+10	1	0.0600	4	0.000607	0	-1E+10	1	-1E+10	1	-1E+10	1
4902624	34	C	05/27/2025	10:47	-127.192	49.093	0	94.60	0	7.0341	0	33.8209	0	26.487	0	93.775	0	100.5	4	34.0	4	-1E+10	1	0.0630	4	0.000672	0	-1E+10	1	-1E+10	1	-1E+10	1
4902624	34	C	05/27/2025	10:47	-127.192	49.093	0	94.90	0	7.0290	0	33.8230	0	26.489	0	94.073	0	-1e10	1	-1e10	1	-1E+10	1	-1e10	1	-1e10	1	-1E+10	1	-1E+10	1	-1E+10	1
4902624	34	C	05/27/2025	10:47	-127.192	49.093	0	95.50	0	7.0215	0	33.8257	0	26.492	0	94.667	0	100.2	4	33.9	4	-1E+10	1	0.0511	4	0.000595	0	-1E+10	1	-1E+10	1	-1E+10	1
4902624	34	C	05/27/2025	10:47	-127.192	49.093	0	96.40	0	7.0103	0	33.8298	0	26.497	0	95.559	0	99.7	4	33.7	4	-1E+10	1	0.0690	4	0.000595	0	-1E+10	1	-1E+10	1	-1E+10	1
4902624	34	C	05/27/2025	10:47	-127.192	49.093	0	96.90	0	7.0040	0	33.8320	0	26.500	0	96.055	0	-1e10	1	-1e10	1	-1E+10	1	-1e10	1	-1e10	1	-1E+10	1	-1E+10	1	-1E+10	1
4902624	34	C	05/27/2025	10:47	-127.192	49.093	0	97.30	0	6.9996	0	33.8322	0	26.500	0	96.451	0	99.4	4	33.6	4	-1E+10	1	0.0560	4	0.000632	0	-1E+10	1	-1E+10	1	-1E+10	1
4902624	34	C	05/27/2025	10:47	-127.192	49.093	0	98.30	0	6.9886	0	33.8327	0	26.502	0	97.442	0	98.9	4	33.4	4	-1E+10	1	0.0511	4	0.000591	0	-1E+10	1	-1E+10	1	-1E+10	1
4902624	34	C	05/27/2025	10:47	-127.192	49.093	0	98.90	0	6.9820	0	33.8330	0	26.503	0	98.037	0	-1e10	1	-1e10	1	-1E+10	1	-1e10	1	-1e10	1	-1E+10	1	-1E+10	1	-1E+10	1
4902624	34	C	05/27/2025	10:47	-127.192	49.093	0	99.20	0	6.9762	0	33.8335	0	26.505	0	98.334	0	98.5	4	33.2	4	-1E+10	1	0.0551	4	0.000566	0	-1E+10	1	-1E+10	1	-1E+10	1
4902624	34	C	05/27/2025	10:47	-127.192	49.093	0	100.10	0	6.9586	0	33.8348	0	26.508	0	99.226	0	97.9	4	33.1	4	-1E+10	1	0.0584	4	0.000565	0	-1E+10	1	-1E+10	1	-1E+10	1
4902624	34	C	05/27/2025	10:47	-127.192	49.093	0	100.90	0	6.9430	0	33.8360	0	26.511	0	100.019	0	-1e10	1	-1e10	1	-1E+10	1	-1e10	1	-1e10	1	-1E+10	1	-1E+10	1	-1E+10	1
4902624	34	C	05/27/2025	10:47	-127.192	49.093	0	101.00	0	6.9408	0	33.8365	0	26.512	0	100.118	0	97.4	4	32.9	4	-1E+10	1	0.0584	4	0.000576	0	-1E+10	1	-1E+10	1	-1E+10	1
4902624	34	C	05/27/2025	10:47	-127.192	49.093	0	101.90	0	6.9206	0	33.8412	0	26.518	0	101.010	0	96.9	4	32.7	4	-1E+10	1	0.0584	4	0.000599	0	-1E+10	1	-1E+10	1	-1E+10	1
4902624	34	C	05/27/2025	10:47	-127.192	49.093	0	102.80	0	6.9005	0	33.8460	0	26.525	0	101.902	0	96.5	4	32.5	4	-1E+10	1	0.0584	4	0.000666	0	-1E+10	1	-1E+10	1	-1E+10	1
4902624	34	C	05/27/2025	10:47	-127.192	49.093	0	103.00	0	6.8960	0	33.8470	0	26.526	0	102.100	0	-1e10	1	-1e10	1	-1E+10	1	-1e10	1	-1e10	1	-1E+10	1	-1E+10	1	-1E+10	1
4902624	34	C	05/27/2025	10:47	-127.192	49.093	0	103.70	0	6.8877	0	33.8497	0	26.529	0	102.794	0	96.0	4	32.4	4	-1E+10	1	0.0584	4	0.000595	0	-1E+10	1	-1E+10	1	-1E+10	1
4902624	34	C	05/27/2025	10:47	-127.192	49.093	0	104.70	0	6.8758	0	33.8535	0	26.534	0	103.785	0	95.5	4	32.2	4	-1E+10	1	0.0451	4	0.000606	0	-1E+10	1	-1E+10	1	-1E+10	1
4902624	34	C	05/27/2025	10:47	-127.192	49.093	0	105.10	0	6.8710	0	33.8550	0	26.536	0	104.181	0	-1e10	1	-1e10	1	-1E+10	1	-1e10	1	-1e10	1	-1E+10	1	-1E+10	1	-1E+10	1
4902624	34	C	05/27/2025	10:47	-127.192	49.093	0	105.60	0	6.8702	0	33.8558	0	26.537	0	104.677	0	95.0	4	32.0	4	-1E+10	1	0.0544	4	0.000590	0	-1E+10	1	-1E+10	1	-1E+10	1
4902624	34	C	05/27/2025	10:47	-127.192	49.093	0	106.50	0	6.8688	0	33.8572	0	26.538	0	105.568	0	94.5	4	31.9	4	-1E+10	1	0.0540	4	0.000612	0	-1E+10	1	-1E+10	1	-1E+10	1
4902624	34	C	05/27/2025	10:47	-127.192	49.093	0	107.00	0	6.8680	0	33.8580	0	26.539	0	106.064	0	-1e10	1	-1e10	1	-1E+10	1	-1e10	1	-1e10	1	-1E+10	1	-1E+10	1	-1E+10	1
4902624	34	C	05/27/2025	10:47	-127.192	49.093	0	107.50	0	6.8675	0	33.8613	0	26.541	0	106.559	0	94.2	4	31.7	4	-1E+10	1	0.0511	4	0.000599	0	-1E+10	1	-1E+10	1	-1E+10	1
4902624	34	C	05/27/2025	10:47	-127.192	49.093	0	108.40	0	6.8666	0	33.8671	0	26.546	0	107.451	0	94.1	4	31.7	4	-1E+10	1	0.0538	4	0.000572	0	-1E+10	1	-1E+10	1	-1E+10	1
4902624	34	C	05/27/2025	10:47	-127.192	49.093	0	109.00	0	6.8660	0	33.8710	0	26.549	0	108.046	0	-1e10	1	-1e10	1	-1E+10	1	-1e10	1	-1e10	1	-1E+10	1	-1E+10	1	-1E+10	1
4902624	34	C	05/27/2025	10:47	-127.192	49.093	0	109.30	0	6.8624	0	33.8709	0	26.550	0	108.343	0	93.8	4	31.6	4	-1E+10	1	0.0599	4	0.000565	0	-1E+10	1	-1E+10	1	-1E+10	1
4902624	34	C	05/27/2025	10:47	-127.192	49.093	0	110.30	0	6.8505	0	33.8704	0	26.551	0	109.334	0	93.4	4	31.5	4	-1E+10	1	0.0633	4	0.000541	0	-1E+10	1	-1E+10	1	-1E+10	1
4902624	34	C	05/27/2025	10:47	-127.192	49.093	0	111.10	0	6.8410	0	33.8700	0	26.552	0	110.127	0	-1e10	1	-1e10	1	-1E+10	1	-1e10	1	-1e10	1	-1E+10	1	-1E+10	1	-1E+10	1
4902624	34	C	05/27/2025	10:47	-127.192	49.093	0	111.30	0	6.8384	0	33.8701	0	26.552	0	110.325	0	93.1	4	31.3	4	-1E+10	1	0.0511	4	0.000560	0	-1E+10	1	-1E+10	1	-1E+10	1
4902624	34	C	05/27/2025	10:47	-127.192	49.093	0	112.20	0	6.8265	0	33.8706	0	26.554	0	111.217	0	92.6	4	31.2	4	-1E+10	1	0.0451	4	0.000503	0	-1E+10	1	-1E+10	1	-1E+10	1
4902624	34	C	05/27/2025	10:47	-127.192	49.093	0	113.00	0	6.8160	0	33.8710	0	26.556	0	112.010	0	-1e10	1	-1e10	1	-1E+10	1	-1e10	1	-1e10	1	-1E+10	1	-1E+10	1	-1E+10	1
4902624	34	C	05/27/2025	10:47	-127.192	49.093	0	113.20	0	6.8133	0	33.8719	0	26.557	0	112.208	0	92.1	4	31.0	4	-1E+10	1	0.0788	4	0.000508	0	-1E+10	1	-1E+10	1	-1E+10	1
4902624	34	C	05/27/2025	10:47	-127.192	49.093	0	114.20	0	6.7996	0	33.8767	0	26.563	0	113.199	0	91.7	4	30.9	4	-1E+10	1	0.0611	4	0.000658	0	-1E+10	1	-1E+10	1	-1E+10	1
4902624	34	C	05/27/2025	10:47	-127.192	49.093	0	114.90	0	6.7900	0	33.8800	0	26.567	0	113.893	0	-1e10	1	-1e10	1	-1E+10	1	-1e10	1	-1e10	1	-1E+10	1	-1E+10	1	-1E+10	1
4902624	34	C	05/27/2025	10:47	-127.192	49.093	0	115.10	0	6.7872	0	33.8800	0	26.567	0	114.091	0	91.5	4	30.8	4	-1E+10	1	0.0511	4	0.000636	0	-1E+10	1	-1E+10	1	-1E+10	1
4902624	34	C	05/27/2025	10:47	-127.192	49.093	0	116.10	0	6.7732	0	33.8800	0	26.569	0	115.082	0	91.3	4	30.7	4	-1E+10	1	0.0543	4	0.000560	0	-1E+10	1	-1E+10	1	-1E+10	1
4902624	34	C	05/27/2025	10:47	-127.192	49.093	0	116.90	0	6.7620	0	33.8800	0	26.570	0	115.875	0	-1e10	1	-1e10	1	-1E+10	1	-1e10	1	-1e10	1	-1E+10	1	-1E+10	1	-1E+10	1
4902624	34	C	05/27/2025	10:47	-127.192	49.093	0	117.00	0	6.7622	0	33.8800	0	26.570	0	115.974	0	90.9	4	30.5	4	-1E+10	1	0.0584	4	0.000576	0	-1E+10	1	-1E+10	1	-1E+10	1
4902624	34	C	05/27/2025	10:47	-127.192	49.093	0	118.00	0	6.7636	0	33.8800	0	26.570	0	116.965	0	90.4	4	30.4	4	-1E+10	1	0.0584	4	0.000585	0	-1E+10	1	-1E+10	1	-1E+10	1
4902624	34	C	05/27/2025	10:47	-127.192	49.093	0	118.90	0	6.7650	0	33.8800	0	26.570	0	117.856	0	-1e10	1	-1e10	1	-1E+10	1	-1e10	1	-1e10	1	-1E+10	1	-1E+10	1	-1E+10	1
4902624	34	C	05/27/2025	10:47	-127.192	49.093	0	119.00	0	6.7641	0	33.8801	0	26.570	0	117.956	0	89.9	4	30.2	4	-1E+10	1	0.0584	4	0.000478	0	-1E+10	1	-1E+10	1	-1E+10	1
4902624	34	C	05/27/2025	10:47	-127.192	49.093	0	120.00	0	6.7557	0	33.8811	0	26.572	0	118.947	0	89.3	4	30.0	4	-1E+10	1	0.0511	4	0.000560	0	-1E+10	1	-1E+10	1	-1E+10	1
4902624	34	C	05/27/2025	10:47	-127.192	49.093	0	120.90	0	6.7480	0	33.8820	0	26.574	0	119.838	0	-1e10	1	-1e10	1	-1E+10	1	-1e10	1	-1e10	1	-1E+10	1	-1E+10	1	-1E+10	1
4902624	34	C	05/27/2025	10:47	-127.192	49.093	0	121.00	0	6.7472	0	33.8821	0	26.574	0	119.937	0	88.8	4	29.8	4	-1E+10	1	0.0450	4	0.000560	0	-1E+10	1	-1E+10	1	-1E+10	1
4902624	34	C	05/27/2025	10:47	-127.192	49.093	0	122.00	0	6.7392	0	33.8831	0	26.576	0	120.928	0	88.2	4	29.6	4	-1E+10	1	0.0438	4	0.000544	0	-1E+10	1	-1E+10	1	-1E+10	1
4902624	34	C	05/27/2025	10:47	-127.192	49.093	0	122.90	0	6.7320	0	33.8840	0	26.578	0	121.820	0	-1e10	1	-1e10	1	-1E+10	1	-1e10	1	-1e10	1	-1E+10	1	-1E+10	1	-1E+10	1
4902624	34	C	05/27/2025	10:47	-127.192	49.093	0	123.00	0	6.7318	0	33.8843	0	26.578	0	121.919	0	87.7	4	29.5	4	-1E+10	1	0.0569	4	0.000642	0	-1E+10	1	-1E+10	1	-1E+10	1
4902624	34	C	05/27/2025	10:47	-127.192	49.093	0	124.00	0	6.7294	0	33.8871	0	26.580	0	122.910	0	87.2	4	29.3	4	-1E+10	1	0.0620	4	0.000642	0	-1E+10	1	-1E+10	1	-1E+10	1
4902624	34	C	05/27/2025	10:47	-127.192	49.093	0	125.00	0	6.7270	0	33.8900	0	26.583	0	123.901	0	84.8	4	28.5	4	-1E+10	1	0.0584	4	0.000591	0	-1E+10	1	-1E+10	1	-1E+10	1
4902624	34	C	05/27/2025	10:47	-127.192	49.093	0	126.00	0	6.7302	0	33.8932	0	26.585	0	124.892	0	86.2	4	29.0	4	-1E+10	1	0.0584	4	0.000619	0	-1E+10	1	-1E+10	1	-1E+10	1
4902624	34	C	05/27/2025	10:47	-127.192	49.093	0	126.90	0	6.7330	0	33.8960	0	26.587	0	125.784	0	-1e10	1	-1e10	1	-1E+10	1	-1e10	1	-1e10	1	-1E+10	1	-1E+10	1	-1E+10	1
4902624	34	C	05/27/2025	10:47	-127.192	49.093	0	127.00	0	6.7330	0	33.8963	0	26.587	0	125.883	0	85.7	4	28.8	4	-1E+10	1	0.0562	4	0.000575	0	-1E+10	1	-1E+10	1	-1E+10	1
4902624	34	C	05/27/2025	10:47	-127.192	49.093	0	128.10	0	6.7330	0	33.8994	0	26.590	0	126.973	0	85.4	4	28.7	4	-1E+10	1	0.0438	4	0.000595	0	-1E+10	1	-1E+10	1	-1E+10	1
4902624	34	C	05/27/2025	10:47	-127.192	49.093	0	129.00	0	6.7330	0	33.9020	0	26.592	0	127.865	0	-1e10	1	-1e10	1	-1E+10	1	-1e10	1	-1e10	1	-1E+10	1	-1E+10	1	-1E+10	1
4902624	34	C	05/27/2025	10:47	-127.192	49.093	0	129.10	0	6.7317	0	33.9021	0	26.592	0	127.964	0	85.1	4	28.6	4	-1E+10	1	0.0560	4	0.000566	0	-1E+10	1	-1E+10	1	-1E+10	1
4902624	34	C	05/27/2025	10:47	-127.192	49.093	0	130.20	0	6.7178	0	33.9026	0	26.594	0	129.054	0	84.9	4	28.5	4	-1E+10	1	0.0518	4	0.000644	0	-1E+10	1	-1E+10	1	-1E+10	1
4902624	34	C	05/27/2025	10:47	-127.192	49.093	0	130.90	0	6.7090	0	33.9030	0	26.596	0	129.747	0	-1e10	1	-1e10	1	-1E+10	1	-1e10	1	-1e10	1	-1E+10	1	-1E+10	1	-1E+10	1
4902624	34	C	05/27/2025	10:47	-127.192	49.093	0	131.20	0	6.7006	0	33.9030	0	26.597	0	130.045	0	84.7	4	28.4	4	-1E+10	1	0.0511	4	0.000597	0	-1E+10	1	-1E+10	1	-1E+10	1
4902624	34	C	05/27/2025	10:47	-127.192	49.093	0	132.20	0	6.6726	0	33.9030	0	26.601	0	131.036	0	84.4	4	28.3	4	-1E+10	1	0.0584	4	0.000589	0	-1E+10	1	-1E+10	1	-1E+10	1
4902624	34	C	05/27/2025	10:47	-127.192	49.093	0	132.90	0	6.6530	0	33.9030	0	26.603	0	131.729	0	-1e10	1	-1e10	1	-1E+10	1	-1e10	1	-1e10	1	-1E+10	1	-1E+10	1	-1E+10	1
4902624	34	C	05/27/2025	10:47	-127.192	49.093	0	133.20	0	6.6444	0	33.9029	0	26.604	0	132.026	0	84.1	4	28.2	4	-1E+10	1	0.0630	4	0.000581	0	-1E+10	1	-1E+10	1	-1E+10	1
4902624	34	C	05/27/2025	10:47	-127.192	49.093	0	134.30	0	6.6130	0	33.9023	0	26.608	0	133.116	0	83.6	4	28.0	4	-1E+10	1	0.0560	4	0.000591	0	-1E+10	1	-1E+10	1	-1E+10	1
4902624	34	C	05/27/2025	10:47	-127.192	49.093	0	135.00	0	6.5930	0	33.9020	0	26.610	0	133.810	0	-1e10	1	-1e10	1	-1E+10	1	-1e10	1	-1e10	1	-1E+10	1	-1E+10	1	-1E+10	1
4902624	34	C	05/27/2025	10:47	-127.192	49.093	0	135.30	0	6.5873	0	33.9025	0	26.611	0	134.107	0	83.0	4	27.8	4	-1E+10	1	0.0511	4	0.000663	0	-1E+10	1	-1E+10	1	-1E+10	1
4902624	34	C	05/27/2025	10:47	-127.192	49.093	0	136.30	0	6.5683	0	33.9039	0	26.615	0	135.098	0	82.4	4	27.6	4	-1E+10	1	0.0511	4	0.000478	0	-1E+10	1	-1E+10	1	-1E+10	1
4902624	34	C	05/27/2025	10:47	-127.192	49.093	0	137.00	0	6.5550	0	33.9050	0	26.618	0	135.792	0	-1e10	1	-1e10	1	-1E+10	1	-1e10	1	-1e10	1	-1E+10	1	-1E+10	1	-1E+10	1
4902624	34	C	05/27/2025	10:47	-127.192	49.093	0	137.30	0	6.5529	0	33.9056	0	26.619	0	136.089	0	81.9	4	27.4	4	-1E+10	1	0.0584	4	0.000489	0	-1E+10	1	-1E+10	1	-1E+10	1
4902624	34	C	05/27/2025	10:47	-127.192	49.093	0	138.30	0	6.5459	0	33.9076	0	26.621	0	137.080	0	81.5	4	27.3	4	-1E+10	1	0.0528	4	0.000526	0	-1E+10	1	-1E+10	1	-1E+10	1
4902624	34	C	05/27/2025	10:47	-127.192	49.093	0	139.00	0	6.5410	0	33.9090	0	26.623	0	137.773	0	-1e10	1	-1e10	1	-1E+10	1	-1e10	1	-1e10	1	-1E+10	1	-1E+10	1	-1E+10	1
4902624	34	C	05/27/2025	10:47	-127.192	49.093	0	139.40	0	6.5404	0	33.9098	0	26.624	0	138.170	0	81.1	4	27.1	4	-1E+10	1	0.0608	4	0.000529	0	-1E+10	1	-1E+10	1	-1E+10	1
4902624	34	C	05/27/2025	10:47	-127.192	49.093	0	140.40	0	6.5388	0	33.9119	0	26.625	0	139.161	0	80.8	4	27.0	4	-1E+10	1	0.0613	4	0.000532	0	-1E+10	1	-1E+10	1	-1E+10	1
4902624	34	C	05/27/2025	10:47	-127.192	49.093	0	140.90	0	6.5380	0	33.9130	0	26.626	0	139.656	0	-1e10	1	-1e10	1	-1E+10	1	-1e10	1	-1e10	1	-1E+10	1	-1E+10	1	-1E+10	1
4902624	34	C	05/27/2025	10:47	-127.192	49.093	0	141.40	0	6.5368	0	33.9135	0	26.627	0	140.151	0	80.5	4	26.9	4	-1E+10	1	0.0584	4	0.000525	0	-1E+10	1	-1E+10	1	-1E+10	1
4902624	34	C	05/27/2025	10:47	-127.192	49.093	0	142.50	0	6.5342	0	33.9145	0	26.628	0	141.241	0	80.1	4	26.8	4	-1E+10	1	0.0511	4	0.000493	0	-1E+10	1	-1E+10	1	-1E+10	1
4902624	34	C	05/27/2025	10:47	-127.192	49.093	0	143.00	0	6.5330	0	33.9150	0	26.629	0	141.737	0	-1e10	1	-1e10	1	-1E+10	1	-1e10	1	-1e10	1	-1E+10	1	-1E+10	1	-1E+10	1
4902624	34	C	05/27/2025	10:47	-127.192	49.093	0	143.60	0	6.5252	0	33.9153	0	26.630	0	142.331	0	79.8	4	26.7	4	-1E+10	1	0.0445	4	0.000496	0	-1E+10	1	-1E+10	1	-1E+10	1
4902624	34	C	05/27/2025	10:47	-127.192	49.093	0	144.60	0	6.5122	0	33.9158	0	26.632	0	143.322	0	79.5	4	26.6	4	-1E+10	1	0.0657	4	0.000590	0	-1E+10	1	-1E+10	1	-1E+10	1
4902624	34	C	05/27/2025	10:47	-127.192	49.093	0	145.00	0	6.5070	0	33.9160	0	26.633	0	143.718	0	-1e10	1	-1e10	1	-1E+10	1	-1e10	1	-1e10	1	-1E+10	1	-1E+10	1	-1E+10	1
4902624	34	C	05/27/2025	10:47	-127.192	49.093	0	145.70	0	6.4901	0	33.9153	0	26.634	0	144.412	0	79.1	4	26.4	4	-1E+10	1	0.0657	4	0.000501	0	-1E+10	1	-1E+10	1	-1E+10	1
4902624	34	C	05/27/2025	10:47	-127.192	49.093	0	146.70	0	6.4658	0	33.9142	0	26.637	0	145.403	0	78.6	4	26.3	4	-1E+10	1	0.0535	4	0.000493	0	-1E+10	1	-1E+10	1	-1E+10	1
4902624	34	C	05/27/2025	10:47	-127.192	49.093	0	146.90	0	6.4610	0	33.9140	0	26.637	0	145.601	0	-1e10	1	-1e10	1	-1E+10	1	-1e10	1	-1e10	1	-1E+10	1	-1E+10	1	-1E+10	1
4902624	34	C	05/27/2025	10:47	-127.192	49.093	0	147.80	0	6.4387	0	33.9136	0	26.640	0	146.493	0	78.0	4	26.0	4	-1E+10	1	0.0571	4	0.000470	0	-1E+10	1	-1E+10	1	-1E+10	1
4902624	34	C	05/27/2025	10:47	-127.192	49.093	0	148.90	0	6.4115	0	33.9130	0	26.643	0	147.582	0	77.3	4	25.8	4	-1E+10	1	0.0584	4	0.000450	0	-1E+10	1	-1E+10	1	-1E+10	1
4902624	34	C	05/27/2025	10:47	-127.192	49.093	0	149.00	0	6.4090	0	33.9130	0	26.643	0	147.682	0	-1e10	1	-1e10	1	-1E+10	1	-1e10	1	-1e10	1	-1E+10	1	-1E+10	1	-1E+10	1
4902624	34	C	05/27/2025	10:47	-127.192	49.093	0	150.00	0	6.4157	0	33.9159	0	26.645	0	148.672	0	76.6	4	25.5	4	-1E+10	1	0.0584	4	0.000474	0	-1E+10	1	-1E+10	1	-1E+10	1
4902624	34	C	05/27/2025	10:47	-127.192	49.093	0	151.00	0	6.4223	0	33.9187	0	26.646	0	149.663	0	76.0	4	25.4	4	-1E+10	1	0.0584	4	0.000492	0	-1E+10	1	-1E+10	1	-1E+10	1
4902624	34	C	05/27/2025	10:47	-127.192	49.093	0	151.10	0	6.4230	0	33.9190	0	26.646	0	149.762	0	-1e10	1	-1e10	1	-1E+10	1	-1e10	1	-1e10	1	-1E+10	1	-1E+10	1	-1E+10	1
4902624	34	C	05/27/2025	10:47	-127.192	49.093	0	152.10	0	6.4351	0	33.9248	0	26.649	0	150.753	0	75.7	4	25.3	4	-1E+10	1	0.0539	4	0.000478	0	-1E+10	1	-1E+10	1	-1E+10	1
4902624	34	C	05/27/2025	10:47	-127.192	49.093	0	153.00	0	6.4460	0	33.9300	0	26.652	0	151.645	0	-1e10	1	-1e10	1	-1E+10	1	-1e10	1	-1e10	1	-1E+10	1	-1E+10	1	-1E+10	1
4902624	34	C	05/27/2025	10:47	-127.192	49.093	0	153.20	0	6.4464	0	33.9303	0	26.652	0	151.843	0	75.3	4	25.2	4	-1E+10	1	0.0450	4	0.000471	0	-1E+10	1	-1E+10	1	-1E+10	1
4902624	34	C	05/27/2025	10:47	-127.192	49.093	0	154.20	0	6.4484	0	33.9318	0	26.653	0	152.834	0	75.0	4	25.0	4	-1E+10	1	0.0511	4	0.000431	0	-1E+10	1	-1E+10	1	-1E+10	1
4902624	34	C	05/27/2025	10:47	-127.192	49.093	0	155.00	0	6.4500	0	33.9330	0	26.654	0	153.626	0	-1e10	1	-1e10	1	-1E+10	1	-1e10	1	-1e10	1	-1E+10	1	-1E+10	1	-1E+10	1
4902624	34	C	05/27/2025	10:47	-127.192	49.093	0	155.30	0	6.4541	0	33.9337	0	26.654	0	153.923	0	74.7	4	24.9	4	-1E+10	1	0.0511	4	0.000478	0	-1E+10	1	-1E+10	1	-1E+10	1
4902624	34	C	05/27/2025	10:47	-127.192	49.093	0	156.40	0	6.4693	0	33.9363	0	26.654	0	155.013	0	74.4	4	24.9	4	-1E+10	1	0.0511	4	0.000557	0	-1E+10	1	-1E+10	1	-1E+10	1
4902624	34	C	05/27/2025	10:47	-127.192	49.093	0	157.10	0	6.4790	0	33.9380	0	26.654	0	155.707	0	-1e10	1	-1e10	1	-1E+10	1	-1e10	1	-1e10	1	-1E+10	1	-1E+10	1	-1E+10	1
4902624	34	C	05/27/2025	10:47	-127.192	49.093	0	157.50	0	6.4798	0	33.9391	0	26.655	0	156.103	0	74.4	4	24.9	4	-1E+10	1	0.0460	4	0.000596	0	-1E+10	1	-1E+10	1	-1E+10	1
4902624	34	C	05/27/2025	10:47	-127.192	49.093	0	158.60	0	6.4822	0	33.9419	0	26.657	0	157.193	0	74.3	4	24.8	4	-1E+10	1	0.0531	4	0.000548	0	-1E+10	1	-1E+10	1	-1E+10	1
4902624	34	C	05/27/2025	10:47	-127.192	49.093	0	159.00	0	6.4830	0	33.9430	0	26.657	0	157.589	0	-1e10	1	-1e10	1	-1E+10	1	-1e10	1	-1e10	1	-1E+10	1	-1E+10	1	-1E+10	1
4902624	34	C	05/27/2025	10:47	-127.192	49.093	0	159.70	0	6.4721	0	33.9434	0	26.659	0	158.283	0	74.3	4	24.8	4	-1E+10	1	0.0630	4	0.000685	0	-1E+10	1	-1E+10	1	-1E+10	1
4902624	34	C	05/27/2025	10:47	-127.192	49.093	0	160.80	0	6.4551	0	33.9439	0	26.662	0	159.373	0	74.3	4	24.8	4	-1E+10	1	0.0578	4	0.000606	0	-1E+10	1	-1E+10	1	-1E+10	1
4902624	34	C	05/27/2025	10:47	-127.192	49.093	0	161.00	0	6.4520	0	33.9440	0	26.662	0	159.571	0	-1e10	1	-1e10	1	-1E+10	1	-1e10	1	-1e10	1	-1E+10	1	-1E+10	1	-1E+10	1
4902624	34	C	05/27/2025	10:47	-127.192	49.093	0	161.90	0	6.4381	0	33.9422	0	26.663	0	160.462	0	74.2	4	24.8	4	-1E+10	1	0.0511	4	0.000459	0	-1E+10	1	-1E+10	1	-1E+10	1
4902624	34	C	05/27/2025	10:47	-127.192	49.093	0	163.00	0	6.4210	0	33.9400	0	26.663	0	161.552	0	72.5	4	24.2	4	-1E+10	1	0.0511	4	0.000461	0	-1E+10	1	-1E+10	1	-1E+10	1
4902624	34	C	05/27/2025	10:47	-127.192	49.093	0	164.10	0	6.4144	0	33.9384	0	26.663	0	162.642	0	73.9	4	24.7	4	-1E+10	1	0.0542	4	0.000454	0	-1E+10	1	-1E+10	1	-1E+10	1
4902624	34	C	05/27/2025	10:47	-127.192	49.093	0	165.00	0	6.4090	0	33.9370	0	26.662	0	163.534	0	-1e10	1	-1e10	1	-1E+10	1	-1e10	1	-1e10	1	-1E+10	1	-1E+10	1	-1E+10	1
4902624	34	C	05/27/2025	10:47	-127.192	49.093	0	165.20	0	6.4083	0	33.9369	0	26.662	0	163.732	0	73.7	4	24.6	4	-1E+10	1	0.0657	4	0.000454	0	-1E+10	1	-1E+10	1	-1E+10	1
4902624	34	C	05/27/2025	10:47	-127.192	49.093	0	166.30	0	6.4044	0	33.9364	0	26.663	0	164.822	0	73.5	4	24.5	4	-1E+10	1	0.0730	4	0.000454	0	-1E+10	1	-1E+10	1	-1E+10	1
4902624	34	C	05/27/2025	10:47	-127.192	49.093	0	167.00	0	6.4020	0	33.9360	0	26.663	0	165.515	0	-1e10	1	-1e10	1	-1E+10	1	-1e10	1	-1e10	1	-1E+10	1	-1E+10	1	-1E+10	1
4902624	34	C	05/27/2025	10:47	-127.192	49.093	0	167.50	0	6.3945	0	33.9358	0	26.663	0	166.010	0	73.2	4	24.4	4	-1E+10	1	0.0480	4	0.000474	0	-1E+10	1	-1E+10	1	-1E+10	1
4902624	34	C	05/27/2025	10:47	-127.192	49.093	0	168.60	0	6.3780	0	33.9352	0	26.665	0	167.100	0	72.9	4	24.3	4	-1E+10	1	0.0532	4	0.000477	0	-1E+10	1	-1E+10	1	-1E+10	1
4902624	34	C	05/27/2025	10:47	-127.192	49.093	0	169.00	0	6.3720	0	33.9350	0	26.666	0	167.496	0	-1e10	1	-1e10	1	-1E+10	1	-1e10	1	-1e10	1	-1E+10	1	-1E+10	1	-1E+10	1
4902624	34	C	05/27/2025	10:47	-127.192	49.093	0	169.70	0	6.3510	0	33.9357	0	26.669	0	168.190	0	72.7	4	24.2	4	-1E+10	1	0.0544	4	0.000458	0	-1E+10	1	-1E+10	1	-1E+10	1
4902624	34	C	05/27/2025	10:47	-127.192	49.093	0	170.80	0	6.3180	0	33.9368	0	26.674	0	169.280	0	72.5	4	24.1	4	-1E+10	1	0.0545	4	0.000962	0	-1E+10	1	-1E+10	1	-1E+10	1
4902624	34	C	05/27/2025	10:47	-127.192	49.093	0	171.00	0	6.3120	0	33.9370	0	26.675	0	169.478	0	-1e10	1	-1e10	1	-1E+10	1	-1e10	1	-1e10	1	-1E+10	1	-1E+10	1	-1E+10	1
4902624	34	C	05/27/2025	10:47	-127.192	49.093	0	171.90	0	6.3057	0	33.9375	0	26.676	0	170.369	0	72.2	4	24.0	4	-1E+10	1	0.0562	4	0.001240	0	-1E+10	1	-1E+10	1	-1E+10	1
4902624	34	C	05/27/2025	10:47	-127.192	49.093	0	173.00	0	6.2980	0	33.9380	0	26.678	0	171.459	0	70.4	4	23.4	4	-1E+10	1	0.0538	4	0.000516	0	-1E+10	1	-1E+10	1	-1E+10	1
4902624	34	C	05/27/2025	10:47	-127.192	49.093	0	174.10	0	6.2914	0	33.9385	0	26.679	0	172.549	0	71.8	4	23.9	4	-1E+10	1	0.0635	4	0.000570	0	-1E+10	1	-1E+10	1	-1E+10	1
4902624	34	C	05/27/2025	10:47	-127.192	49.093	0	175.00	0	6.2860	0	33.9390	0	26.680	0	173.441	0	-1e10	1	-1e10	1	-1E+10	1	-1e10	1	-1e10	1	-1E+10	1	-1E+10	1	-1E+10	1
4902624	34	C	05/27/2025	10:47	-127.192	49.093	0	175.20	0	6.2852	0	33.9391	0	26.680	0	173.639	0	71.6	4	23.8	4	-1E+10	1	0.0511	4	0.000501	0	-1E+10	1	-1E+10	1	-1E+10	1
4902624	34	C	05/27/2025	10:47	-127.192	49.093	0	176.30	0	6.2808	0	33.9396	0	26.681	0	174.728	0	71.3	4	23.7	4	-1E+10	1	0.0511	4	0.000491	0	-1E+10	1	-1E+10	1	-1E+10	1
4902624	34	C	05/27/2025	10:47	-127.192	49.093	0	177.00	0	6.2780	0	33.9400	0	26.682	0	175.422	0	-1e10	1	-1e10	1	-1E+10	1	-1e10	1	-1e10	1	-1E+10	1	-1E+10	1	-1E+10	1
4902624	34	C	05/27/2025	10:47	-127.192	49.093	0	177.40	0	6.2767	0	33.9404	0	26.682	0	175.818	0	71.1	4	23.6	4	-1E+10	1	0.0511	4	0.000479	0	-1E+10	1	-1E+10	1	-1E+10	1
4902624	34	C	05/27/2025	10:47	-127.192	49.093	0	178.50	0	6.2733	0	33.9416	0	26.684	0	176.908	0	70.9	4	23.6	4	-1E+10	1	0.0511	4	0.000462	0	-1E+10	1	-1E+10	1	-1E+10	1
4902624	34	C	05/27/2025	10:47	-127.192	49.093	0	178.90	0	6.2720	0	33.9420	0	26.684	0	177.304	0	-1e10	1	-1e10	1	-1E+10	1	-1e10	1	-1e10	1	-1E+10	1	-1E+10	1	-1E+10	1
4902624	34	C	05/27/2025	10:47	-127.192	49.093	0	179.60	0	6.2713	0	33.9423	0	26.685	0	177.998	0	70.7	4	23.5	4	-1E+10	1	0.0511	4	0.000511	0	-1E+10	1	-1E+10	1	-1E+10	1
4902624	34	C	05/27/2025	10:47	-127.192	49.093	0	180.70	0	6.2703	0	33.9429	0	26.685	0	179.087	0	70.5	4	23.4	4	-1E+10	1	0.0544	4	0.000570	0	-1E+10	1	-1E+10	1	-1E+10	1
4902624	34	C	05/27/2025	10:47	-127.192	49.093	0	181.00	0	6.2700	0	33.9430	0	26.685	0	179.385	0	-1e10	1	-1e10	1	-1E+10	1	-1e10	1	-1e10	1	-1E+10	1	-1E+10	1	-1E+10	1
4902624	34	C	05/27/2025	10:47	-127.192	49.093	0	181.80	0	6.2681	0	33.9430	0	26.686	0	180.177	0	70.3	4	23.4	4	-1E+10	1	0.0584	4	0.000538	0	-1E+10	1	-1E+10	1	-1E+10	1
4902624	34	C	05/27/2025	10:47	-127.192	49.093	0	182.80	0	6.2657	0	33.9430	0	26.686	0	181.168	0	70.1	4	23.3	4	-1E+10	1	0.0573	4	0.000473	0	-1E+10	1	-1E+10	1	-1E+10	1
4902624	34	C	05/27/2025	10:47	-127.192	49.093	0	183.10	0	6.2650	0	33.9430	0	26.686	0	181.465	0	-1e10	1	-1e10	1	-1E+10	1	-1e10	1	-1e10	1	-1E+10	1	-1E+10	1	-1E+10	1
4902624	34	C	05/27/2025	10:47	-127.192	49.093	0	183.90	0	6.2633	0	33.9434	0	26.686	0	182.257	0	70.0	4	23.3	4	-1E+10	1	0.0511	4	0.000512	0	-1E+10	1	-1E+10	1	-1E+10	1
4902624	34	C	05/27/2025	10:47	-127.192	49.093	0	185.00	0	6.2610	0	33.9440	0	26.687	0	183.347	0	68.3	4	22.7	4	-1E+10	1	0.0584	4	0.000491	0	-1E+10	1	-1E+10	1	-1E+10	1
4902624	34	C	05/27/2025	10:47	-127.192	49.093	0	186.10	0	6.2564	0	33.9446	0	26.688	0	184.437	0	69.6	4	23.1	4	-1E+10	1	0.0646	4	0.000469	0	-1E+10	1	-1E+10	1	-1E+10	1
4902624	34	C	05/27/2025	10:47	-127.192	49.093	0	186.90	0	6.2530	0	33.9450	0	26.689	0	185.229	0	-1e10	1	-1e10	1	-1E+10	1	-1e10	1	-1e10	1	-1E+10	1	-1E+10	1	-1E+10	1
4902624	34	C	05/27/2025	10:47	-127.192	49.093	0	187.20	0	6.2491	0	33.9453	0	26.690	0	185.526	0	69.4	4	23.1	4	-1E+10	1	0.0657	4	0.000465	0	-1E+10	1	-1E+10	1	-1E+10	1
4902624	34	C	05/27/2025	10:47	-127.192	49.093	0	188.20	0	6.2363	0	33.9462	0	26.692	0	186.517	0	69.2	4	23.0	4	-1E+10	1	0.0569	4	0.000430	0	-1E+10	1	-1E+10	1	-1E+10	1
4902624	34	C	05/27/2025	10:47	-127.192	49.093	0	189.00	0	6.2260	0	33.9470	0	26.694	0	187.309	0	-1e10	1	-1e10	1	-1E+10	1	-1e10	1	-1e10	1	-1E+10	1	-1E+10	1	-1E+10	1
4902624	34	C	05/27/2025	10:47	-127.192	49.093	0	189.30	0	6.2237	0	33.9470	0	26.694	0	187.607	0	69.0	4	22.9	4	-1E+10	1	0.0511	4	0.000465	0	-1E+10	1	-1E+10	1	-1E+10	1
4902624	34	C	05/27/2025	10:47	-127.192	49.093	0	190.40	0	6.2153	0	33.9470	0	26.696	0	188.696	0	68.8	4	22.8	4	-1E+10	1	0.0511	4	0.000510	0	-1E+10	1	-1E+10	1	-1E+10	1
4902624	34	C	05/27/2025	10:47	-127.192	49.093	0	191.10	0	6.2100	0	33.9470	0	26.696	0	189.390	0	-1e10	1	-1e10	1	-1E+10	1	-1e10	1	-1e10	1	-1E+10	1	-1E+10	1	-1E+10	1
4902624	34	C	05/27/2025	10:47	-127.192	49.093	0	191.50	0	6.2084	0	33.9470	0	26.696	0	189.786	0	68.6	4	22.8	4	-1E+10	1	0.0524	4	0.000471	0	-1E+10	1	-1E+10	1	-1E+10	1
4902624	34	C	05/27/2025	10:47	-127.192	49.093	0	192.60	0	6.2040	0	33.9470	0	26.697	0	190.876	0	68.3	4	22.7	4	-1E+10	1	0.0573	4	0.000447	0	-1E+10	1	-1E+10	1	-1E+10	1
4902624	34	C	05/27/2025	10:47	-127.192	49.093	0	193.10	0	6.2020	0	33.9470	0	26.697	0	191.371	0	-1e10	1	-1e10	1	-1E+10	1	-1e10	1	-1e10	1	-1E+10	1	-1E+10	1	-1E+10	1
4902624	34	C	05/27/2025	10:47	-127.192	49.093	0	193.70	0	6.1990	0	33.9473	0	26.698	0	191.965	0	68.1	4	22.6	4	-1E+10	1	0.0511	4	0.000477	0	-1E+10	1	-1E+10	1	-1E+10	1
4902624	34	C	05/27/2025	10:47	-127.192	49.093	0	194.80	0	6.1935	0	33.9479	0	26.699	0	193.055	0	67.8	4	22.5	4	-1E+10	1	0.0626	4	0.000497	0	-1E+10	1	-1E+10	1	-1E+10	1
4902624	34	C	05/27/2025	10:47	-127.192	49.093	0	195.10	0	6.1920	0	33.9480	0	26.699	0	193.352	0	-1e10	1	-1e10	1	-1E+10	1	-1e10	1	-1e10	1	-1E+10	1	-1E+10	1	-1E+10	1
4902624	34	C	05/27/2025	10:47	-127.192	49.093	0	196.00	0	6.1888	0	33.9485	0	26.700	0	194.244	0	67.5	4	22.4	4	-1E+10	1	0.0597	4	0.000462	0	-1E+10	1	-1E+10	1	-1E+10	1
4902624	34	C	05/27/2025	10:47	-127.192	49.093	0	197.10	0	6.1850	0	33.9490	0	26.701	0	195.333	0	65.8	4	21.8	4	-1E+10	1	0.0584	4	0.000462	0	-1E+10	1	-1E+10	1	-1E+10	1
4902624	34	C	05/27/2025	10:47	-127.192	49.093	0	198.20	0	6.1746	0	33.9496	0	26.703	0	196.423	0	66.9	4	22.2	4	-1E+10	1	0.0474	4	0.000454	0	-1E+10	1	-1E+10	1	-1E+10	1
4902624	34	C	05/27/2025	10:47	-127.192	49.093	0	199.00	0	6.1670	0	33.9500	0	26.704	0	197.215	0	-1e10	1	-1e10	1	-1E+10	1	-1e10	1	-1e10	1	-1E+10	1	-1E+10	1	-1E+10	1
4902624	34	C	05/27/2025	10:47	-127.192	49.093	0	199.30	0	6.1642	0	33.9503	0	26.705	0	197.512	0	66.5	4	22.1	4	-1E+10	1	0.0445	4	0.000459	0	-1E+10	1	-1E+10	1	-1E+10	1
4902624	34	C	05/27/2025	10:47	-127.192	49.093	0	200.50	0	6.1528	0	33.9516	0	26.707	0	198.701	0	66.2	4	22.0	4	-1E+10	1	0.0556	4	0.000453	0	-1E+10	1	-1E+10	1	-1E+10	1
4902624	34	C	05/27/2025	10:47	-127.192	49.093	0	200.90	0	6.1490	0	33.9520	0	26.708	0	199.097	0	-1e10	1	-1e10	1	-1E+10	1	-1e10	1	-1e10	1	-1E+10	1	-1E+10	1	-1E+10	1
4902624	34	C	05/27/2025	10:47	-127.192	49.093	0	201.60	0	6.1455	0	33.9524	0	26.709	0	199.791	0	65.9	4	21.9	4	-1E+10	1	0.0527	4	0.000410	0	-1E+10	1	-1E+10	1	-1E+10	1
4902624	34	C	05/27/2025	10:47	-127.192	49.093	0	202.70	0	6.1400	0	33.9529	0	26.710	0	200.880	0	65.6	4	21.8	4	-1E+10	1	0.0584	4	0.000465	0	-1E+10	1	-1E+10	1	-1E+10	1
4902624	34	C	05/27/2025	10:47	-127.192	49.093	0	202.90	0	6.1390	0	33.9530	0	26.710	0	201.078	0	-1e10	1	-1e10	1	-1E+10	1	-1e10	1	-1e10	1	-1E+10	1	-1E+10	1	-1E+10	1
4902624	34	C	05/27/2025	10:47	-127.192	49.093	0	203.90	0	6.1423	0	33.9544	0	26.711	0	202.069	0	65.3	4	21.6	4	-1E+10	1	0.0584	4	0.000442	0	-1E+10	1	-1E+10	1	-1E+10	1
4902624	34	C	05/27/2025	10:47	-127.192	49.093	0	205.00	0	6.1460	0	33.9560	0	26.712	0	203.159	0	63.6	4	21.1	4	-1E+10	1	0.0584	4	0.000482	0	-1E+10	1	-1E+10	1	-1E+10	1
4902624	34	C	05/27/2025	10:47	-127.192	49.093	0	206.10	0	6.1504	0	33.9604	0	26.715	0	204.248	0	64.8	4	21.5	4	-1E+10	1	0.0490	4	0.000443	0	-1E+10	1	-1E+10	1	-1E+10	1
4902624	34	C	05/27/2025	10:47	-127.192	49.093	0	207.00	0	6.1540	0	33.9640	0	26.717	0	205.140	0	-1e10	1	-1e10	1	-1E+10	1	-1e10	1	-1e10	1	-1E+10	1	-1E+10	1	-1E+10	1
4902624	34	C	05/27/2025	10:47	-127.192	49.093	0	207.30	0	6.1463	0	33.9639	0	26.718	0	205.437	0	64.7	4	21.5	4	-1E+10	1	0.0438	4	0.000411	0	-1E+10	1	-1E+10	1	-1E+10	1
4902624	34	C	05/27/2025	10:47	-127.192	49.093	0	208.40	0	6.1183	0	33.9633	0	26.721	0	206.526	0	64.7	4	21.4	4	-1E+10	1	0.0548	4	0.000418	0	-1E+10	1	-1E+10	1	-1E+10	1
4902624	34	C	05/27/2025	10:47	-127.192	49.093	0	209.00	0	6.1030	0	33.9630	0	26.723	0	207.121	0	-1e10	1	-1e10	1	-1E+10	1	-1e10	1	-1e10	1	-1E+10	1	-1E+10	1	-1E+10	1
4902624	34	C	05/27/2025	10:47	-127.192	49.093	0	209.60	0	6.0828	0	33.9605	0	26.723	0	207.715	0	64.5	4	21.4	4	-1E+10	1	0.0579	4	0.000426	0	-1E+10	1	-1E+10	1	-1E+10	1
4902624	34	C	05/27/2025	10:47	-127.192	49.093	0	210.70	0	6.0457	0	33.9558	0	26.724	0	208.804	0	64.3	4	21.3	4	-1E+10	1	0.0465	4	0.000420	0	-1E+10	1	-1E+10	1	-1E+10	1
4902624	34	C	05/27/2025	10:47	-127.192	49.093	0	210.90	0	6.0390	0	33.9550	0	26.724	0	209.003	0	-1e10	1	-1e10	1	-1E+10	1	-1e10	1	-1e10	1	-1E+10	1	-1E+10	1	-1E+10	1
4902624	34	C	05/27/2025	10:47	-127.192	49.093	0	211.90	0	6.0300	0	33.9555	0	26.726	0	209.993	0	64.0	4	21.2	4	-1E+10	1	0.0568	4	0.000440	0	-1E+10	1	-1E+10	1	-1E+10	1
4902624	34	C	05/27/2025	10:47	-127.192	49.093	0	213.00	0	6.0200	0	33.9560	0	26.728	0	211.083	0	62.3	4	20.6	4	-1E+10	1	0.0511	4	0.000478	0	-1E+10	1	-1E+10	1	-1E+10	1
4902624	34	C	05/27/2025	10:47	-127.192	49.093	0	214.20	0	6.0200	0	33.9566	0	26.728	0	212.271	0	63.4	4	21.0	4	-1E+10	1	0.0574	4	0.000507	0	-1E+10	1	-1E+10	1	-1E+10	1
4902624	34	C	05/27/2025	10:47	-127.192	49.093	0	215.00	0	6.0200	0	33.9570	0	26.728	0	213.064	0	-1e10	1	-1e10	1	-1E+10	1	-1e10	1	-1e10	1	-1E+10	1	-1E+10	1	-1E+10	1
4902624	34	C	05/27/2025	10:47	-127.192	49.093	0	215.30	0	6.0203	0	33.9573	0	26.729	0	213.361	0	63.0	4	20.8	4	-1E+10	1	0.0584	4	0.000468	0	-1E+10	1	-1E+10	1	-1E+10	1
4902624	34	C	05/27/2025	10:47	-127.192	49.093	0	216.50	0	6.0215	0	33.9585	0	26.729	0	214.549	0	62.7	4	20.7	4	-1E+10	1	0.0537	4	0.000424	0	-1E+10	1	-1E+10	1	-1E+10	1
4902624	34	C	05/27/2025	10:47	-127.192	49.093	0	217.00	0	6.0220	0	33.9590	0	26.730	0	215.044	0	-1e10	1	-1e10	1	-1E+10	1	-1e10	1	-1e10	1	-1E+10	1	-1E+10	1	-1E+10	1
4902624	34	C	05/27/2025	10:47	-127.192	49.093	0	217.70	0	6.0216	0	33.9594	0	26.730	0	215.738	0	62.4	4	20.6	4	-1E+10	1	0.0474	4	0.000454	0	-1E+10	1	-1E+10	1	-1E+10	1
4902624	34	C	05/27/2025	10:47	-127.192	49.093	0	218.80	0	6.0211	0	33.9599	0	26.731	0	216.827	0	62.0	4	20.5	4	-1E+10	1	0.0462	4	0.000477	0	-1E+10	1	-1E+10	1	-1E+10	1
4902624	34	C	05/27/2025	10:47	-127.192	49.093	0	219.00	0	6.0210	0	33.9600	0	26.731	0	217.025	0	-1e10	1	-1e10	1	-1E+10	1	-1e10	1	-1e10	1	-1E+10	1	-1E+10	1	-1E+10	1
4902624	34	C	05/27/2025	10:47	-127.192	49.093	0	220.00	0	6.0185	0	33.9610	0	26.732	0	218.016	0	61.6	4	20.4	4	-1E+10	1	0.0532	4	0.000440	0	-1E+10	1	-1E+10	1	-1E+10	1
4902624	34	C	05/27/2025	10:47	-127.192	49.093	0	221.00	0	6.0160	0	33.9620	0	26.733	0	219.006	0	-1e10	1	-1e10	1	-1E+10	1	-1e10	1	-1e10	1	-1E+10	1	-1E+10	1	-1E+10	1
4902624	34	C	05/27/2025	10:47	-127.192	49.093	0	221.20	0	6.0117	0	33.9622	0	26.734	0	219.204	0	61.4	4	20.3	4	-1E+10	1	0.0574	4	0.000465	0	-1E+10	1	-1E+10	1	-1E+10	1
4902624	34	C	05/27/2025	10:47	-127.192	49.093	0	222.40	0	5.9860	0	33.9633	0	26.738	0	220.393	0	61.0	4	20.2	4	-1E+10	1	0.0511	4	0.000453	0	-1E+10	1	-1E+10	1	-1E+10	1
4902624	34	C	05/27/2025	10:47	-127.192	49.093	0	223.10	0	5.9710	0	33.9640	0	26.740	0	221.086	0	-1e10	1	-1e10	1	-1E+10	1	-1e10	1	-1e10	1	-1E+10	1	-1E+10	1	-1E+10	1
4902624	34	C	05/27/2025	10:47	-127.192	49.093	0	223.50	0	5.9641	0	33.9638	0	26.741	0	221.482	0	60.7	4	20.0	4	-1E+10	1	0.0657	4	0.000500	0	-1E+10	1	-1E+10	1	-1E+10	1
4902624	34	C	05/27/2025	10:47	-127.192	49.093	0	224.70	0	5.9432	0	33.9632	0	26.743	0	222.671	0	60.4	4	19.9	4	-1E+10	1	0.0594	4	0.000520	0	-1E+10	1	-1E+10	1	-1E+10	1
4902624	34	C	05/27/2025	10:47	-127.192	49.093	0	225.00	0	5.9380	0	33.9630	0	26.744	0	222.968	0	-1e10	1	-1e10	1	-1E+10	1	-1e10	1	-1e10	1	-1E+10	1	-1E+10	1	-1E+10	1
4902624	34	C	05/27/2025	10:47	-127.192	49.093	0	225.80	0	5.9316	0	33.9638	0	26.745	0	223.760	0	60.0	4	19.8	4	-1E+10	1	0.0537	4	0.000501	0	-1E+10	1	-1E+10	1	-1E+10	1
4902624	34	C	05/27/2025	10:47	-127.192	49.093	0	227.00	0	5.9220	0	33.9650	0	26.747	0	224.949	0	58.3	4	19.2	4	-1E+10	1	0.0468	4	0.000523	0	-1E+10	1	-1E+10	1	-1E+10	1
4902624	34	C	05/27/2025	10:47	-127.192	49.093	0	228.20	0	5.9358	0	33.9686	0	26.748	0	226.137	0	59.3	4	19.6	4	-1E+10	1	0.0438	4	0.000506	0	-1E+10	1	-1E+10	1	-1E+10	1
4902624	34	C	05/27/2025	10:47	-127.192	49.093	0	229.00	0	5.9450	0	33.9710	0	26.749	0	226.930	0	-1e10	1	-1e10	1	-1E+10	1	-1e10	1	-1e10	1	-1E+10	1	-1E+10	1	-1E+10	1
4902624	34	C	05/27/2025	10:47	-127.192	49.093	0	229.30	0	5.9475	0	33.9718	0	26.749	0	227.227	0	59.0	4	19.5	4	-1E+10	1	0.0505	4	0.000519	0	-1E+10	1	-1E+10	1	-1E+10	1
4902624	34	C	05/27/2025	10:47	-127.192	49.093	0	230.50	0	5.9576	0	33.9749	0	26.751	0	228.415	0	58.7	4	19.4	4	-1E+10	1	0.0639	4	0.000588	0	-1E+10	1	-1E+10	1	-1E+10	1
4902624	34	C	05/27/2025	10:47	-127.192	49.093	0	230.90	0	5.9610	0	33.9760	0	26.751	0	228.812	0	-1e10	1	-1e10	1	-1E+10	1	-1e10	1	-1e10	1	-1E+10	1	-1E+10	1	-1E+10	1
4902624	34	C	05/27/2025	10:47	-127.192	49.093	0	231.70	0	5.9610	0	33.9768	0	26.752	0	229.604	0	58.4	4	19.3	4	-1E+10	1	0.0584	4	0.000418	0	-1E+10	1	-1E+10	1	-1E+10	1
4902624	34	C	05/27/2025	10:47	-127.192	49.093	0	232.80	0	5.9610	0	33.9778	0	26.752	0	230.693	0	58.0	4	19.2	4	-1E+10	1	0.0550	4	0.000457	0	-1E+10	1	-1E+10	1	-1E+10	1
4902624	34	C	05/27/2025	10:47	-127.192	49.093	0	233.00	0	5.9610	0	33.9780	0	26.753	0	230.891	0	-1e10	1	-1e10	1	-1E+10	1	-1e10	1	-1e10	1	-1E+10	1	-1E+10	1	-1E+10	1
4902624	34	C	05/27/2025	10:47	-127.192	49.093	0	233.90	0	5.9547	0	33.9789	0	26.754	0	231.783	0	57.6	4	19.0	4	-1E+10	1	0.0365	4	0.000864	0	-1E+10	1	-1E+10	1	-1E+10	1
4902624	34	C	05/27/2025	10:47	-127.192	49.093	0	235.00	0	5.9470	0	33.9800	0	26.756	0	232.872	0	-1e10	1	-1e10	1	-1E+10	1	-1e10	1	-1e10	1	-1E+10	1	-1E+10	1	-1E+10	1
4902624	34	C	05/27/2025	10:47	-127.192	49.093	0	235.10	0	5.9464	0	33.9801	0	26.756	0	232.971	0	57.3	4	18.9	4	-1E+10	1	0.0657	4	0.000371	0	-1E+10	1	-1E+10	1	-1E+10	1
4902624	34	C	05/27/2025	10:47	-127.192	49.093	0	236.30	0	5.9385	0	33.9813	0	26.758	0	234.160	0	57.1	4	18.8	4	-1E+10	1	0.0594	4	0.000401	0	-1E+10	1	-1E+10	1	-1E+10	1
4902624	34	C	05/27/2025	10:47	-127.192	49.093	0	237.00	0	5.9340	0	33.9820	0	26.759	0	234.853	0	-1e10	1	-1e10	1	-1E+10	1	-1e10	1	-1e10	1	-1E+10	1	-1E+10	1	-1E+10	1
4902624	34	C	05/27/2025	10:47	-127.192	49.093	0	237.40	0	5.9252	0	33.9824	0	26.761	0	235.249	0	56.9	4	18.8	4	-1E+10	1	0.0678	4	0.000406	0	-1E+10	1	-1E+10	1	-1E+10	1
4902624	34	C	05/27/2025	10:47	-127.192	49.093	0	238.60	0	5.8988	0	33.9836	0	26.765	0	236.438	0	56.5	4	18.6	4	-1E+10	1	0.0645	4	0.000420	0	-1E+10	1	-1E+10	1	-1E+10	1
4902624	34	C	05/27/2025	10:47	-127.192	49.093	0	239.00	0	5.8900	0	33.9840	0	26.766	0	236.834	0	-1e10	1	-1e10	1	-1E+10	1	-1e10	1	-1e10	1	-1E+10	1	-1E+10	1	-1E+10	1
4902624	34	C	05/27/2025	10:47	-127.192	49.093	0	239.80	0	5.8748	0	33.9832	0	26.767	0	237.626	0	56.1	4	18.5	4	-1E+10	1	0.0548	4	0.000447	0	-1E+10	1	-1E+10	1	-1E+10	1
4902624	34	C	05/27/2025	10:47	-127.192	49.093	0	240.90	0	5.8539	0	33.9821	0	26.769	0	238.715	0	55.8	4	18.4	4	-1E+10	1	0.0574	4	0.000428	0	-1E+10	1	-1E+10	1	-1E+10	1
4902624	34	C	05/27/2025	10:47	-127.192	49.093	0	241.00	0	5.8520	0	33.9820	0	26.769	0	238.814	0	-1e10	1	-1e10	1	-1E+10	1	-1e10	1	-1e10	1	-1E+10	1	-1E+10	1	-1E+10	1
4902624	34	C	05/27/2025	10:47	-127.192	49.093	0	242.10	0	5.8465	0	33.9842	0	26.772	0	239.904	0	55.5	4	18.3	4	-1E+10	1	0.0693	4	0.000369	0	-1E+10	1	-1E+10	1	-1E+10	1
4902624	34	C	05/27/2025	10:47	-127.192	49.093	0	243.00	0	5.8420	0	33.9860	0	26.774	0	240.795	0	-1e10	1	-1e10	1	-1E+10	1	-1e10	1	-1e10	1	-1E+10	1	-1E+10	1	-1E+10	1
4902624	34	C	05/27/2025	10:47	-127.192	49.093	0	243.30	0	5.8429	0	33.9869	0	26.774	0	241.092	0	55.3	4	18.2	4	-1E+10	1	0.0511	4	0.000502	0	-1E+10	1	-1E+10	1	-1E+10	1
4902624	34	C	05/27/2025	10:47	-127.192	49.093	0	244.50	0	5.8467	0	33.9907	0	26.777	0	242.281	0	55.2	4	18.2	4	-1E+10	1	0.0511	4	0.000301	0	-1E+10	1	-1E+10	1	-1E+10	1
4902624	34	C	05/27/2025	10:47	-127.192	49.093	0	244.90	0	5.8480	0	33.9920	0	26.778	0	242.677	0	-1e10	1	-1e10	1	-1E+10	1	-1e10	1	-1e10	1	-1E+10	1	-1E+10	1	-1E+10	1
4902624	34	C	05/27/2025	10:47	-127.192	49.093	0	245.80	0	5.8498	0	33.9925	0	26.778	0	243.568	0	55.0	4	18.1	4	-1E+10	1	0.0511	4	0.000324	0	-1E+10	1	-1E+10	1	-1E+10	1
4902624	34	C	05/27/2025	10:47	-127.192	49.093	0	246.80	0	5.8518	0	33.9930	0	26.778	0	244.558	0	54.9	4	18.1	4	-1E+10	1	0.0584	4	0.000336	0	-1E+10	1	-1E+10	1	-1E+10	1
4902624	34	C	05/27/2025	10:47	-127.192	49.093	0	246.90	0	5.8520	0	33.9930	0	26.778	0	244.657	0	-1e10	1	-1e10	1	-1E+10	1	-1e10	1	-1e10	1	-1E+10	1	-1E+10	1	-1E+10	1
4902624	34	C	05/27/2025	10:47	-127.192	49.093	0	247.50	0	5.8500	0	33.9933	0	26.779	0	245.252	0	54.8	4	18.0	4	-1E+10	1	0.0635	4	0.000443	0	-1E+10	1	-1E+10	1	-1E+10	1
4902624	34	C	05/27/2025	10:47	-127.192	49.093	0	248.20	0	5.8477	0	33.9936	0	26.779	0	245.945	0	54.7	4	18.0	4	-1E+10	1	0.0657	4	0.000394	0	-1E+10	1	-1E+10	1	-1E+10	1
4902624	34	C	05/27/2025	10:47	-127.192	49.093	0	248.90	0	5.8453	0	33.9940	0	26.780	0	246.638	0	54.5	4	18.0	4	-1E+10	1	0.0630	4	0.000309	0	-1E+10	1	-1E+10	1	-1E+10	1
4902624	34	C	05/27/2025	10:47	-127.192	49.093	0	249.00	0	5.8450	0	33.9940	0	26.780	0	246.737	0	-1e10	1	-1e10	1	-1E+10	1	-1e10	1	-1e10	1	-1E+10	1	-1E+10	1	-1E+10	1
4902624	34	C	05/27/2025	10:47	-127.192	49.093	0	249.60	0	5.8368	0	33.9937	0	26.781	0	247.331	0	54.4	4	17.9	4	-1E+10	1	0.0584	4	0.000321	0	-1E+10	1	-1E+10	1	-1E+10	1
4902624	34	C	05/27/2025	10:47	-127.192	49.093	0	250.40	0	5.8258	0	33.9933	0	26.782	0	248.123	0	54.3	4	17.9	4	-1E+10	1	0.0600	4	0.000317	0	-1E+10	1	-1E+10	1	-1E+10	1
4902624	34	C	05/27/2025	10:47	-127.192	49.093	0	250.90	0	5.8190	0	33.9930	0	26.782	0	248.619	0	-1e10	1	-1e10	1	-1E+10	1	-1e10	1	-1e10	1	-1E+10	1	-1E+10	1	-1E+10	1
4902624	34	C	05/27/2025	10:47	-127.192	49.093	0	251.10	0	5.8185	0	33.9931	0	26.782	0	248.817	0	54.1	4	17.8	4	-1E+10	1	0.0657	4	0.000336	0	-1E+10	1	-1E+10	1	-1E+10	1
4902624	34	C	05/27/2025	10:47	-127.192	49.093	0	251.90	0	5.8165	0	33.9935	0	26.783	0	249.609	0	54.0	4	17.8	4	-1E+10	1	0.0438	4	0.000301	0	-1E+10	1	-1E+10	1	-1E+10	1
4902624	34	C	05/27/2025	10:47	-127.192	49.093	0	252.70	0	5.8145	0	33.9939	0	26.784	0	250.401	0	53.9	4	17.7	4	-1E+10	1	0.0503	4	0.000332	0	-1E+10	1	-1E+10	1	-1E+10	1
4902624	34	C	05/27/2025	10:47	-127.192	49.093	0	252.90	0	5.8140	0	33.9940	0	26.784	0	250.599	0	-1e10	1	-1e10	1	-1E+10	1	-1e10	1	-1e10	1	-1E+10	1	-1E+10	1	-1E+10	1
4902624	34	C	05/27/2025	10:47	-127.192	49.093	0	253.40	0	5.8100	0	33.9945	0	26.785	0	251.094	0	53.8	4	17.7	4	-1E+10	1	0.0560	4	0.000336	0	-1E+10	1	-1E+10	1	-1E+10	1
4902624	34	C	05/27/2025	10:47	-127.192	49.093	0	254.20	0	5.8035	0	33.9952	0	26.786	0	251.887	0	53.6	4	17.6	4	-1E+10	1	0.0493	4	0.000284	0	-1E+10	1	-1E+10	1	-1E+10	1
4902624	34	C	05/27/2025	10:47	-127.192	49.093	0	254.90	0	5.7978	0	33.9959	0	26.787	0	252.580	0	53.5	4	17.6	4	-1E+10	1	0.0535	4	0.000295	0	-1E+10	1	-1E+10	1	-1E+10	1
4902624	34	C	05/27/2025	10:47	-127.192	49.093	0	255.00	0	5.7970	0	33.9960	0	26.787	0	252.679	0	-1e10	1	-1e10	1	-1E+10	1	-1e10	1	-1e10	1	-1E+10	1	-1E+10	1	-1E+10	1
4902624	34	C	05/27/2025	10:47	-127.192	49.093	0	255.70	0	5.7992	0	33.9967	0	26.788	0	253.372	0	53.4	4	17.6	4	-1E+10	1	0.0635	4	0.000344	0	-1E+10	1	-1E+10	1	-1E+10	1
4902624	34	C	05/27/2025	10:47	-127.192	49.093	0	256.50	0	5.8017	0	33.9976	0	26.788	0	254.164	0	53.4	4	17.6	4	-1E+10	1	0.0584	4	0.000326	0	-1E+10	1	-1E+10	1	-1E+10	1
4902624	34	C	05/27/2025	10:47	-127.192	49.093	0	256.90	0	5.8030	0	33.9980	0	26.788	0	254.560	0	-1e10	1	-1e10	1	-1E+10	1	-1e10	1	-1e10	1	-1E+10	1	-1E+10	1	-1E+10	1
4902624	34	C	05/27/2025	10:47	-127.192	49.093	0	257.30	0	5.8032	0	33.9984	0	26.789	0	254.956	0	53.3	4	17.6	4	-1E+10	1	0.0584	4	0.000317	0	-1E+10	1	-1E+10	1	-1E+10	1
4902624	34	C	05/27/2025	10:47	-127.192	49.093	0	258.00	0	5.8035	0	33.9990	0	26.789	0	255.650	0	53.3	4	17.5	4	-1E+10	1	0.0584	4	0.000500	0	-1E+10	1	-1E+10	1	-1E+10	1
4902624	34	C	05/27/2025	10:47	-127.192	49.093	0	258.80	0	5.8039	0	33.9998	0	26.790	0	256.442	0	53.3	4	17.5	4	-1E+10	1	0.0701	4	0.000323	0	-1E+10	1	-1E+10	1	-1E+10	1
4902624	34	C	05/27/2025	10:47	-127.192	49.093	0	259.00	0	5.8040	0	34.0000	0	26.790	0	256.640	0	-1e10	1	-1e10	1	-1E+10	1	-1e10	1	-1e10	1	-1E+10	1	-1E+10	1	-1E+10	1
4902624	34	C	05/27/2025	10:47	-127.192	49.093	0	259.60	0	5.8043	0	34.0000	0	26.790	0	257.234	0	53.2	4	17.5	4	-1E+10	1	0.0620	4	0.000269	0	-1E+10	1	-1E+10	1	-1E+10	1
4902624	34	C	05/27/2025	10:47	-127.192	49.093	0	260.40	0	5.8047	0	34.0000	0	26.790	0	258.026	0	53.2	4	17.5	4	-1E+10	1	0.0487	4	0.000445	0	-1E+10	1	-1E+10	1	-1E+10	1
4902624	34	C	05/27/2025	10:47	-127.192	49.093	0	261.10	0	5.8050	0	34.0000	0	26.790	0	258.720	0	-1e10	1	-1e10	1	-1E+10	1	-1e10	1	-1e10	1	-1E+10	1	-1E+10	1	-1E+10	1
4902624	34	C	05/27/2025	10:47	-127.192	49.093	0	261.20	0	5.8048	0	34.0000	0	26.790	0	258.819	0	53.2	4	17.5	4	-1E+10	1	0.0511	4	0.000429	0	-1E+10	1	-1E+10	1	-1E+10	1
4902624	34	C	05/27/2025	10:47	-127.192	49.093	0	262.00	0	5.8036	0	34.0005	0	26.790	0	259.611	0	53.2	4	17.5	4	-1E+10	1	0.0502	4	0.000319	0	-1E+10	1	-1E+10	1	-1E+10	1
4902624	34	C	05/27/2025	10:47	-127.192	49.093	0	262.80	0	5.8025	0	34.0009	0	26.791	0	260.403	0	53.2	4	17.5	4	-1E+10	1	0.0462	4	0.000304	0	-1E+10	1	-1E+10	1	-1E+10	1
4902624	34	C	05/27/2025	10:47	-127.192	49.093	0	263.10	0	5.8020	0	34.0010	0	26.791	0	260.700	0	-1e10	1	-1e10	1	-1E+10	1	-1e10	1	-1e10	1	-1E+10	1	-1E+10	1	-1E+10	1
4902624	34	C	05/27/2025	10:47	-127.192	49.093	0	263.60	0	5.8010	0	34.0007	0	26.791	0	261.195	0	53.1	4	17.5	4	-1E+10	1	0.0642	4	0.000289	0	-1E+10	1	-1E+10	1	-1E+10	1
4902624	34	C	05/27/2025	10:47	-127.192	49.093	0	264.40	0	5.7994	0	34.0004	0	26.791	0	261.987	0	53.1	4	17.5	4	-1E+10	1	0.0584	4	0.000289	0	-1E+10	1	-1E+10	1	-1E+10	1
4902624	34	C	05/27/2025	10:47	-127.192	49.093	0	265.10	0	5.7980	0	34.0000	0	26.791	0	262.681	0	-1e10	1	-1e10	1	-1E+10	1	-1e10	1	-1e10	1	-1E+10	1	-1E+10	1	-1E+10	1
4902624	34	C	05/27/2025	10:47	-127.192	49.093	0	265.20	0	5.7975	0	33.9999	0	26.791	0	262.780	0	53.1	4	17.5	4	-1E+10	1	0.0511	4	0.000359	0	-1E+10	1	-1E+10	1	-1E+10	1
4902624	34	C	05/27/2025	10:47	-127.192	49.093	0	266.00	0	5.7937	0	33.9995	0	26.791	0	263.572	0	53.1	4	17.5	4	-1E+10	1	0.0511	4	0.000275	0	-1E+10	1	-1E+10	1	-1E+10	1
4902624	34	C	05/27/2025	10:47	-127.192	49.093	0	266.80	0	5.7899	0	33.9991	0	26.791	0	264.364	0	53.1	4	17.5	4	-1E+10	1	0.0608	4	0.000293	0	-1E+10	1	-1E+10	1	-1E+10	1
4902624	34	C	05/27/2025	10:47	-127.192	49.093	0	267.00	0	5.7890	0	33.9990	0	26.791	0	264.562	0	-1e10	1	-1e10	1	-1E+10	1	-1e10	1	-1e10	1	-1E+10	1	-1E+10	1	-1E+10	1
4902624	34	C	05/27/2025	10:47	-127.192	49.093	0	267.60	0	5.7773	0	33.9990	0	26.792	0	265.156	0	53.1	4	17.5	4	-1E+10	1	0.0566	4	0.000305	0	-1E+10	1	-1E+10	1	-1E+10	1
4902624	34	C	05/27/2025	10:47	-127.192	49.093	0	268.40	0	5.7617	0	33.9990	0	26.794	0	265.948	0	53.2	4	17.5	4	-1E+10	1	0.0474	4	0.000319	0	-1E+10	1	-1E+10	1	-1E+10	1
4902624	34	C	05/27/2025	10:47	-127.192	49.093	0	268.90	0	5.7520	0	33.9990	0	26.795	0	266.443	0	-1e10	1	-1e10	1	-1E+10	1	-1e10	1	-1e10	1	-1E+10	1	-1E+10	1	-1E+10	1
4902624	34	C	05/27/2025	10:47	-127.192	49.093	0	269.20	0	5.7489	0	33.9989	0	26.796	0	266.740	0	53.2	4	17.5	4	-1E+10	1	0.0482	4	0.000330	0	-1E+10	1	-1E+10	1	-1E+10	1
4902624	34	C	05/27/2025	10:47	-127.192	49.093	0	270.00	0	5.7405	0	33.9985	0	26.796	0	267.533	0	53.2	4	17.5	4	-1E+10	1	0.0566	4	0.000315	0	-1E+10	1	-1E+10	1	-1E+10	1
4902624	34	C	05/27/2025	10:47	-127.192	49.093	0	270.80	0	5.7321	0	33.9981	0	26.797	0	268.325	0	53.3	4	17.5	4	-1E+10	1	0.0438	4	0.000336	0	-1E+10	1	-1E+10	1	-1E+10	1
4902624	34	C	05/27/2025	10:47	-127.192	49.093	0	271.00	0	5.7300	0	33.9980	0	26.797	0	268.523	0	-1e10	1	-1e10	1	-1E+10	1	-1e10	1	-1e10	1	-1E+10	1	-1E+10	1	-1E+10	1
4902624	34	C	05/27/2025	10:47	-127.192	49.093	0	271.70	0	5.7202	0	33.9973	0	26.798	0	269.216	0	53.3	4	17.5	4	-1E+10	1	0.0438	4	0.000336	0	-1E+10	1	-1E+10	1	-1E+10	1
4902624	34	C	05/27/2025	10:47	-127.192	49.093	0	272.50	0	5.7090	0	33.9965	0	26.799	0	270.008	0	53.3	4	17.5	4	-1E+10	1	0.0496	4	0.000335	0	-1E+10	1	-1E+10	1	-1E+10	1
4902624	34	C	05/27/2025	10:47	-127.192	49.093	0	273.00	0	5.7020	0	33.9960	0	26.799	0	270.503	0	-1e10	1	-1e10	1	-1E+10	1	-1e10	1	-1e10	1	-1E+10	1	-1E+10	1	-1E+10	1
4902624	34	C	05/27/2025	10:47	-127.192	49.093	0	273.30	0	5.6968	0	33.9958	0	26.800	0	270.800	0	53.3	4	17.5	4	-1E+10	1	0.0511	4	0.000335	0	-1E+10	1	-1E+10	1	-1E+10	1
4902624	34	C	05/27/2025	10:47	-127.192	49.093	0	274.20	0	5.6810	0	33.9954	0	26.801	0	271.691	0	53.3	4	17.5	4	-1E+10	1	0.0511	4	0.000311	0	-1E+10	1	-1E+10	1	-1E+10	1
4902624	34	C	05/27/2025	10:47	-127.192	49.093	0	275.00	0	5.6670	0	33.9950	0	26.803	0	272.484	0	52.2	4	17.1	4	-1E+10	1	0.0584	4	0.000306	0	-1E+10	1	-1E+10	1	-1E+10	1
4902624	34	C	05/27/2025	10:47	-127.192	49.093	0	275.80	0	5.6646	0	33.9942	0	26.802	0	273.276	0	53.3	4	17.5	4	-1E+10	1	0.0602	4	0.000312	0	-1E+10	1	-1E+10	1	-1E+10	1
4902624	34	C	05/27/2025	10:47	-127.192	49.093	0	276.70	0	5.6619	0	33.9933	0	26.802	0	274.167	0	53.3	4	17.5	4	-1E+10	1	0.0686	4	0.001189	0	-1E+10	1	-1E+10	1	-1E+10	1
4902624	34	C	05/27/2025	10:47	-127.192	49.093	0	277.00	0	5.6610	0	33.9930	0	26.802	0	274.464	0	-1e10	1	-1e10	1	-1E+10	1	-1e10	1	-1e10	1	-1E+10	1	-1E+10	1	-1E+10	1
4902624	34	C	05/27/2025	10:47	-127.192	49.093	0	277.50	0	5.6607	0	33.9930	0	26.802	0	274.959	0	53.2	4	17.5	4	-1E+10	1	0.0847	4	0.002067	0	-1E+10	1	-1E+10	1	-1E+10	1
4902624	34	C	05/27/2025	10:47	-127.192	49.093	0	278.30	0	5.6603	0	33.9930	0	26.802	0	275.751	0	53.2	4	17.5	4	-1E+10	1	0.0438	4	0.000312	0	-1E+10	1	-1E+10	1	-1E+10	1
4902624	34	C	05/27/2025	10:47	-127.192	49.093	0	279.00	0	5.6600	0	33.9930	0	26.802	0	276.444	0	-1e10	1	-1e10	1	-1E+10	1	-1e10	1	-1e10	1	-1E+10	1	-1E+10	1	-1E+10	1
4902624	34	C	05/27/2025	10:47	-127.192	49.093	0	279.20	0	5.6592	0	33.9928	0	26.802	0	276.642	0	53.2	4	17.5	4	-1E+10	1	0.0438	4	0.000289	0	-1E+10	1	-1E+10	1	-1E+10	1
4902624	34	C	05/27/2025	10:47	-127.192	49.093	0	280.00	0	5.6560	0	33.9920	0	26.802	0	277.435	0	53.2	4	17.4	4	-1E+10	1	0.0496	4	0.000298	0	-1E+10	1	-1E+10	1	-1E+10	1
4902624	34	C	05/27/2025	10:47	-127.192	49.093	0	280.80	0	5.6528	0	33.9912	0	26.801	0	278.227	0	53.2	4	17.4	4	-1E+10	1	0.0599	4	0.000300	0	-1E+10	1	-1E+10	1	-1E+10	1
4902624	34	C	05/27/2025	10:47	-127.192	49.093	0	281.00	0	5.6520	0	33.9910	0	26.801	0	278.425	0	-1e10	1	-1e10	1	-1E+10	1	-1e10	1	-1e10	1	-1E+10	1	-1E+10	1	-1E+10	1
4902624	34	C	05/27/2025	10:47	-127.192	49.093	0	281.70	0	5.6423	0	33.9903	0	26.802	0	279.118	0	53.2	4	17.4	4	-1E+10	1	0.0566	4	0.000300	0	-1E+10	1	-1E+10	1	-1E+10	1
4902624	34	C	05/27/2025	10:47	-127.192	49.093	0	282.50	0	5.6313	0	33.9896	0	26.803	0	279.910	0	53.1	4	17.4	4	-1E+10	1	0.0584	4	0.000312	0	-1E+10	1	-1E+10	1	-1E+10	1
4902624	34	C	05/27/2025	10:47	-127.192	49.093	0	283.10	0	5.6230	0	33.9890	0	26.803	0	280.504	0	-1e10	1	-1e10	1	-1E+10	1	-1e10	1	-1e10	1	-1E+10	1	-1E+10	1	-1E+10	1
4902624	34	C	05/27/2025	10:47	-127.192	49.093	0	283.30	0	5.6175	0	33.9888	0	26.804	0	280.702	0	53.1	4	17.4	4	-1E+10	1	0.0591	4	0.000313	0	-1E+10	1	-1E+10	1	-1E+10	1
4902624	34	C	05/27/2025	10:47	-127.192	49.093	0	284.20	0	5.5929	0	33.9878	0	26.806	0	281.593	0	52.9	4	17.3	4	-1E+10	1	0.0438	4	0.000286	0	-1E+10	1	-1E+10	1	-1E+10	1
4902624	34	C	05/27/2025	10:47	-127.192	49.093	0	285.00	0	5.5710	0	33.9870	0	26.808	0	282.385	0	51.8	4	16.9	4	-1E+10	1	0.0438	4	0.000284	0	-1E+10	1	-1E+10	1	-1E+10	1
4902624	34	C	05/27/2025	10:47	-127.192	49.093	0	285.80	0	5.5518	0	33.9862	0	26.810	0	283.177	0	52.8	4	17.3	4	-1E+10	1	0.0438	4	0.000312	0	-1E+10	1	-1E+10	1	-1E+10	1
4902624	34	C	05/27/2025	10:47	-127.192	49.093	0	286.70	0	5.5302	0	33.9853	0	26.812	0	284.069	0	52.7	4	17.2	4	-1E+10	1	0.0557	4	0.000283	0	-1E+10	1	-1E+10	1	-1E+10	1
4902624	34	C	05/27/2025	10:47	-127.192	49.093	0	287.00	0	5.5230	0	33.9850	0	26.812	0	284.366	0	-1e10	1	-1e10	1	-1E+10	1	-1e10	1	-1e10	1	-1E+10	1	-1E+10	1	-1E+10	1
4902624	34	C	05/27/2025	10:47	-127.192	49.093	0	287.60	0	5.5093	0	33.9844	0	26.813	0	284.960	0	52.5	4	17.1	4	-1E+10	1	0.0648	4	0.000297	0	-1E+10	1	-1E+10	1	-1E+10	1
4902624	34	C	05/27/2025	10:47	-127.192	49.093	0	288.40	0	5.4910	0	33.9837	0	26.815	0	285.752	0	52.2	4	17.0	4	-1E+10	1	0.0564	4	0.000308	0	-1E+10	1	-1E+10	1	-1E+10	1
4902624	34	C	05/27/2025	10:47	-127.192	49.093	0	289.10	0	5.4750	0	33.9830	0	26.816	0	286.445	0	-1e10	1	-1e10	1	-1E+10	1	-1e10	1	-1e10	1	-1E+10	1	-1E+10	1	-1E+10	1
4902624	34	C	05/27/2025	10:47	-127.192	49.093	0	289.30	0	5.4744	0	33.9832	0	26.817	0	286.643	0	51.9	4	17.0	4	-1E+10	1	0.0511	4	0.000318	0	-1E+10	1	-1E+10	1	-1E+10	1
4902624	34	C	05/27/2025	10:47	-127.192	49.093	0	290.20	0	5.4715	0	33.9842	0	26.818	0	287.534	0	51.7	4	16.9	4	-1E+10	1	0.0576	4	0.000313	0	-1E+10	1	-1E+10	1	-1E+10	1
4902624	34	C	05/27/2025	10:47	-127.192	49.093	0	291.00	0	5.4690	0	33.9850	0	26.819	0	288.326	0	-1e10	1	-1e10	1	-1E+10	1	-1e10	1	-1e10	1	-1E+10	1	-1E+10	1	-1E+10	1
4902624	34	C	05/27/2025	10:47	-127.192	49.093	0	291.10	0	5.4692	0	33.9853	0	26.819	0	288.425	0	51.5	4	16.8	4	-1E+10	1	0.0625	4	0.000342	0	-1E+10	1	-1E+10	1	-1E+10	1
4902624	34	C	05/27/2025	10:47	-127.192	49.093	0	292.00	0	5.4705	0	33.9875	0	26.821	0	289.316	0	51.4	4	16.8	4	-1E+10	1	0.0584	4	0.000356	0	-1E+10	1	-1E+10	1	-1E+10	1
4902624	34	C	05/27/2025	10:47	-127.192	49.093	0	293.00	0	5.4720	0	33.9900	0	26.822	0	290.306	0	-1e10	1	-1e10	1	-1E+10	1	-1e10	1	-1e10	1	-1E+10	1	-1E+10	1	-1E+10	1
4902624	34	C	05/27/2025	10:47	-127.192	49.093	0	293.10	0	5.4715	0	33.9900	0	26.822	0	290.405	0	51.3	4	16.8	4	-1E+10	1	0.0581	4	0.000289	0	-1E+10	1	-1E+10	1	-1E+10	1
4902624	34	C	05/27/2025	10:47	-127.192	49.093	0	295.00	0	5.4620	0	33.9890	0	26.823	0	292.287	0	-1e10	1	-1e10	1	-1E+10	1	-1e10	1	-1e10	1	-1E+10	1	-1E+10	1	-1E+10	1
4902624	34	C	05/27/2025	10:47	-127.192	49.093	0	297.00	0	5.4580	0	33.9890	0	26.823	0	294.267	0	-1e10	1	-1e10	1	-1E+10	1	-1e10	1	-1e10	1	-1E+10	1	-1E+10	1	-1E+10	1
4902624	34	C	05/27/2025	10:47	-127.192	49.093	0	298.90	0	5.4610	0	33.9910	0	26.824	0	296.148	0	-1e10	1	-1e10	1	-1E+10	1	-1e10	1	-1e10	1	-1E+10	1	-1E+10	1	-1E+10	1
4902624	34	C	05/27/2025	10:47	-127.192	49.093	0	302.20	0	5.4375	0	33.9921	0	26.828	0	299.415	0	49.5	4	16.2	4	-1E+10	1	0.0509	4	0.000301	0	-1E+10	1	-1E+10	1	-1E+10	1
4902624	34	C	05/27/2025	10:47	-127.192	49.093	0	304.80	0	5.4190	0	33.9930	0	26.831	0	301.989	0	-1e10	1	-1e10	1	-1E+10	1	-1e10	1	-1e10	1	-1E+10	1	-1E+10	1	-1E+10	1
4902624	34	C	05/27/2025	10:47	-127.192	49.093	0	311.70	0	5.4210	0	34.0026	0	26.839	0	308.820	0	46.6	4	15.2	4	-1E+10	1	0.0441	4	0.000322	0	-1E+10	1	-1E+10	1	-1E+10	1
4902624	34	C	05/27/2025	10:47	-127.192	49.093	0	314.90	0	5.4220	0	34.0070	0	26.842	0	311.988	0	-1e10	1	-1e10	1	-1E+10	1	-1e10	1	-1e10	1	-1E+10	1	-1E+10	1	-1E+10	1
4902624	34	C	05/27/2025	10:47	-127.192	49.093	0	321.50	0	5.4207	0	34.0123	0	26.846	0	318.522	0	44.7	4	14.6	4	-1E+10	1	0.0514	4	0.000289	0	-1E+10	1	-1E+10	1	-1E+10	1
4902624	34	C	05/27/2025	10:47	-127.192	49.093	0	324.90	0	5.4200	0	34.0150	0	26.849	0	321.888	0	-1e10	1	-1e10	1	-1E+10	1	-1e10	1	-1e10	1	-1E+10	1	-1E+10	1	-1E+10	1
4902624	34	C	05/27/2025	10:47	-127.192	49.093	0	331.40	0	5.4005	0	34.0215	0	26.856	0	328.323	0	41.0	4	13.4	4	-1E+10	1	0.0581	4	0.000323	0	-1E+10	1	-1E+10	1	-1E+10	1
4902624	34	C	05/27/2025	10:47	-127.192	49.093	0	334.90	0	5.3900	0	34.0250	0	26.860	0	331.788	0	-1e10	1	-1e10	1	-1E+10	1	-1e10	1	-1e10	1	-1E+10	1	-1E+10	1	-1E+10	1
4902624	34	C	05/27/2025	10:47	-127.192	49.093	0	341.40	0	5.3475	0	34.0379	0	26.875	0	338.222	0	38.5	4	12.5	4	-1E+10	1	0.0507	4	0.000309	0	-1E+10	1	-1E+10	1	-1E+10	1
4902624	34	C	05/27/2025	10:47	-127.192	49.093	0	345.00	0	5.3240	0	34.0450	0	26.884	0	341.785	0	-1e10	1	-1e10	1	-1E+10	1	-1e10	1	-1e10	1	-1E+10	1	-1E+10	1	-1E+10	1
4902624	34	C	05/27/2025	10:47	-127.192	49.093	0	351.60	0	5.3312	0	34.0574	0	26.893	0	348.318	0	36.0	4	11.7	4	-1E+10	1	0.0444	4	0.000264	0	-1E+10	1	-1E+10	1	-1E+10	1
4902624	34	C	05/27/2025	10:47	-127.192	49.093	0	355.10	0	5.3350	0	34.0640	0	26.898	0	351.783	0	-1e10	1	-1e10	1	-1E+10	1	-1e10	1	-1e10	1	-1E+10	1	-1E+10	1	-1E+10	1
4902624	34	C	05/27/2025	10:47	-127.192	49.093	0	361.90	0	5.3302	0	34.0667	0	26.901	0	358.513	0	34.9	4	11.4	4	-1E+10	1	0.0581	4	0.000255	0	-1E+10	1	-1E+10	1	-1E+10	1
4902624	34	C	05/27/2025	10:47	-127.192	49.093	0	365.00	0	5.3280	0	34.0680	0	26.902	0	361.582	0	-1e10	1	-1e10	1	-1E+10	1	-1e10	1	-1e10	1	-1E+10	1	-1E+10	1	-1E+10	1
4902624	34	C	05/27/2025	10:47	-127.192	49.093	0	372.60	0	5.3181	0	34.0733	0	26.907	0	369.104	0	33.4	4	10.9	4	-1E+10	1	0.0514	4	0.000337	0	-1E+10	1	-1E+10	1	-1E+10	1
4902624	34	C	05/27/2025	10:47	-127.192	49.093	0	375.00	0	5.3150	0	34.0750	0	26.909	0	371.479	0	-1e10	1	-1e10	1	-1E+10	1	-1e10	1	-1e10	1	-1E+10	1	-1E+10	1	-1E+10	1
4902624	34	C	05/27/2025	10:47	-127.192	49.093	0	383.40	0	5.2948	0	34.0792	0	26.915	0	379.792	0	32.2	4	10.5	4	-1E+10	1	0.0581	4	0.000402	0	-1E+10	1	-1E+10	1	-1E+10	1
4902624	34	C	05/27/2025	10:47	-127.192	49.093	0	385.00	0	5.2910	0	34.0800	0	26.916	0	381.376	0	-1e10	1	-1e10	1	-1E+10	1	-1e10	1	-1e10	1	-1E+10	1	-1E+10	1	-1E+10	1
4902624	34	C	05/27/2025	10:47	-127.192	49.093	0	394.40	0	5.2696	0	34.0874	0	26.924	0	390.679	0	30.5	4	9.9	4	-1E+10	1	0.0511	4	0.000336	0	-1E+10	1	-1E+10	1	-1E+10	1
4902624	34	C	05/27/2025	10:47	-127.192	49.093	0	395.10	0	5.2680	0	34.0880	0	26.925	0	391.371	0	-1e10	1	-1e10	1	-1E+10	1	-1e10	1	-1e10	1	-1E+10	1	-1E+10	1	-1E+10	1
4902624	34	C	05/27/2025	10:47	-127.192	49.093	0	405.20	0	5.2280	0	34.0950	0	26.935	0	401.366	0	-1e10	1	-1e10	1	-1E+10	1	-1e10	1	-1e10	1	-1E+10	1	-1E+10	1	-1E+10	1
4902624	34	C	05/27/2025	10:47	-127.192	49.093	0	405.60	0	5.2256	0	34.0951	0	26.936	0	401.762	0	29.4	4	9.5	4	-1E+10	1	0.0511	4	0.000401	0	-1E+10	1	-1E+10	1	-1E+10	1
4902624	34	C	05/27/2025	10:47	-127.192	49.093	0	414.90	0	5.1710	0	34.0970	0	26.944	0	410.965	0	-1e10	1	-1e10	1	-1E+10	1	-1e10	1	-1e10	1	-1E+10	1	-1E+10	1	-1E+10	1
4902624	34	C	05/27/2025	10:47	-127.192	49.093	0	416.90	0	5.1629	0	34.0980	0	26.945	0	412.944	0	28.3	4	9.2	4	-1E+10	1	0.0511	4	0.000578	0	-1E+10	1	-1E+10	1	-1E+10	1
4902624	34	C	05/27/2025	10:47	-127.192	49.093	0	424.80	0	5.1310	0	34.1020	0	26.952	0	420.761	0	-1e10	1	-1e10	1	-1E+10	1	-1e10	1	-1e10	1	-1E+10	1	-1E+10	1	-1E+10	1
4902624	34	C	05/27/2025	10:47	-127.192	49.093	0	428.30	0	5.1230	0	34.1023	0	26.953	0	424.224	0	27.5	4	8.9	4	-1E+10	1	0.0514	4	0.000523	0	-1E+10	1	-1E+10	1	-1E+10	1
4902624	34	C	05/27/2025	10:47	-127.192	49.093	0	434.90	0	5.1080	0	34.1030	0	26.956	0	430.754	0	-1e10	1	-1e10	1	-1E+10	1	-1e10	1	-1e10	1	-1E+10	1	-1E+10	1	-1E+10	1
4902624	34	C	05/27/2025	10:47	-127.192	49.093	0	439.80	0	5.0964	0	34.1050	0	26.959	0	435.603	0	26.5	4	8.6	4	-1E+10	1	0.0584	4	0.000558	0	-1E+10	1	-1E+10	1	-1E+10	1
4902624	34	C	05/27/2025	10:47	-127.192	49.093	0	444.60	0	5.0850	0	34.1070	0	26.962	0	440.352	0	-1e10	1	-1e10	1	-1E+10	1	-1e10	1	-1e10	1	-1E+10	1	-1E+10	1	-1E+10	1
4902624	34	C	05/27/2025	10:47	-127.192	49.093	0	451.40	0	5.0575	0	34.1122	0	26.969	0	447.079	0	24.9	4	8.1	4	-1E+10	1	0.0587	4	0.000589	0	-1E+10	1	-1E+10	1	-1E+10	1
4902624	34	C	05/27/2025	10:47	-127.192	49.093	0	455.00	0	5.0430	0	34.1150	0	26.973	0	450.641	0	-1e10	1	-1e10	1	-1E+10	1	-1e10	1	-1e10	1	-1E+10	1	-1E+10	1	-1E+10	1
4902624	34	C	05/27/2025	10:47	-127.192	49.093	0	463.30	0	5.0110	0	34.1199	0	26.981	0	458.852	0	23.7	4	7.7	4	-1E+10	1	0.0654	4	0.000559	0	-1E+10	1	-1E+10	1	-1E+10	1
4902624	34	C	05/27/2025	10:47	-127.192	49.093	0	465.10	0	5.0040	0	34.1210	0	26.982	0	460.633	0	-1e10	1	-1e10	1	-1E+10	1	-1e10	1	-1e10	1	-1E+10	1	-1E+10	1	-1E+10	1
4902624	34	C	05/27/2025	10:47	-127.192	49.093	0	475.00	0	4.9690	0	34.1270	0	26.991	0	470.427	0	-1e10	1	-1e10	1	-1E+10	1	-1e10	1	-1e10	1	-1E+10	1	-1E+10	1	-1E+10	1
4902624	34	C	05/27/2025	10:47	-127.192	49.093	0	475.40	0	4.9669	0	34.1274	0	26.992	0	470.822	0	22.1	4	7.1	4	-1E+10	1	0.0581	4	0.001401	0	-1E+10	1	-1E+10	1	-1E+10	1
4902624	34	C	05/27/2025	10:47	-127.192	49.093	0	485.20	0	4.9150	0	34.1370	0	27.005	0	480.517	0	-1e10	1	-1e10	1	-1E+10	1	-1e10	1	-1e10	1	-1E+10	1	-1E+10	1	-1E+10	1
4902624	34	C	05/27/2025	10:47	-127.192	49.093	0	487.10	0	4.9014	0	34.1393	0	27.009	0	482.396	0	20.6	4	6.6	4	-1E+10	1	0.0518	4	0.000613	0	-1E+10	1	-1E+10	1	-1E+10	1
4902624	34	C	05/27/2025	10:47	-127.192	49.093	0	495.10	0	4.8440	0	34.1490	0	27.023	0	490.310	0	-1e10	1	-1e10	1	-1E+10	1	-1e10	1	-1e10	1	-1E+10	1	-1E+10	1	-1E+10	1
4902624	34	C	05/27/2025	10:47	-127.192	49.093	0	495.60	0	4.8428	0	34.1492	0	27.023	0	490.804	0	19.8	4	6.4	4	-1E+10	1	0.0654	4	0.000579	0	-1E+10	1	-1E+10	1	-1E+10	1
4902624	34	C	05/27/2025	10:47	-127.192	49.093	0	503.60	0	4.8238	0	34.1532	0	27.028	0	498.717	0	19.6	4	6.3	4	-1E+10	1	0.0584	4	0.000566	0	-1E+10	1	-1E+10	1	-1E+10	1
4902624	34	C	05/27/2025	10:47	-127.192	49.093	0	505.20	0	4.8200	0	34.1540	0	27.029	0	500.300	0	-1e10	1	-1e10	1	-1E+10	1	-1e10	1	-1e10	1	-1E+10	1	-1E+10	1	-1E+10	1
4902624	34	C	05/27/2025	10:47	-127.192	49.093	0	511.90	0	4.8145	0	34.1554	0	27.031	0	506.926	0	19.2	4	6.2	4	-1E+10	1	0.0589	4	0.000522	0	-1E+10	1	-1E+10	1	-1E+10	1
4902624	34	C	05/27/2025	10:47	-127.192	49.093	0	515.00	0	4.8120	0	34.1560	0	27.032	0	509.993	0	-1e10	1	-1e10	1	-1E+10	1	-1e10	1	-1e10	1	-1E+10	1	-1E+10	1	-1E+10	1
4902624	34	C	05/27/2025	10:47	-127.192	49.093	0	520.40	0	4.7989	0	34.1582	0	27.035	0	515.333	0	18.8	4	6.0	4	-1E+10	1	0.0720	4	0.000556	0	-1E+10	1	-1E+10	1	-1E+10	1
4902624	34	C	05/27/2025	10:47	-127.192	49.093	0	524.90	0	4.7880	0	34.1600	0	27.038	0	519.784	0	-1e10	1	-1e10	1	-1E+10	1	-1e10	1	-1e10	1	-1E+10	1	-1E+10	1	-1E+10	1
4902624	34	C	05/27/2025	10:47	-127.192	49.093	0	529.00	0	4.7836	0	34.1608	0	27.039	0	523.839	0	18.5	4	5.9	4	-1E+10	1	0.0445	4	0.000556	0	-1E+10	1	-1E+10	1	-1E+10	1
4902624	34	C	05/27/2025	10:47	-127.192	49.093	0	535.10	0	4.7770	0	34.1620	0	27.041	0	529.871	0	-1e10	1	-1e10	1	-1E+10	1	-1e10	1	-1e10	1	-1E+10	1	-1E+10	1	-1E+10	1
4902624	34	C	05/27/2025	10:47	-127.192	49.093	0	537.70	0	4.7715	0	34.1633	0	27.043	0	532.443	0	18.1	4	5.8	4	-1E+10	1	0.0582	4	0.000556	0	-1E+10	1	-1E+10	1	-1E+10	1
4902624	34	C	05/27/2025	10:47	-127.192	49.093	0	545.10	0	4.7560	0	34.1670	0	27.047	0	539.761	0	-1e10	1	-1e10	1	-1E+10	1	-1e10	1	-1e10	1	-1E+10	1	-1E+10	1	-1E+10	1
4902624	34	C	05/27/2025	10:47	-127.192	49.093	0	546.90	0	4.7516	0	34.1679	0	27.049	0	541.541	0	17.4	4	5.6	4	-1E+10	1	0.0511	4	0.000566	0	-1E+10	1	-1E+10	1	-1E+10	1
4902624	34	C	05/27/2025	10:47	-127.192	49.093	0	554.90	0	4.7320	0	34.1720	0	27.054	0	549.452	0	-1e10	1	-1e10	1	-1E+10	1	-1e10	1	-1e10	1	-1E+10	1	-1E+10	1	-1E+10	1
4902624	34	C	05/27/2025	10:47	-127.192	49.093	0	555.90	0	4.7290	0	34.1726	0	27.055	0	550.441	0	17.0	4	5.5	4	-1E+10	1	0.0514	4	0.000542	0	-1E+10	1	-1E+10	1	-1E+10	1
4902624	34	C	05/27/2025	10:47	-127.192	49.093	0	564.70	0	4.7030	0	34.1780	0	27.062	0	559.143	0	-1e10	1	-1e10	1	-1E+10	1	-1e10	1	-1e10	1	-1E+10	1	-1E+10	1	-1E+10	1
4902624	34	C	05/27/2025	10:47	-127.192	49.093	0	565.30	0	4.7028	0	34.1781	0	27.062	0	559.736	0	16.7	4	5.3	4	-1E+10	1	0.0581	4	0.000511	0	-1E+10	1	-1E+10	1	-1E+10	1
4902624	34	C	05/27/2025	10:47	-127.192	49.093	0	574.80	0	4.7000	0	34.1790	0	27.063	0	569.129	0	-1e10	1	-1e10	1	-1E+10	1	-1e10	1	-1e10	1	-1E+10	1	-1E+10	1	-1E+10	1
4902624	34	C	05/27/2025	10:47	-127.192	49.093	0	575.30	0	4.6990	0	34.1792	0	27.064	0	569.624	0	16.3	4	5.2	4	-1E+10	1	0.0514	4	0.000584	0	-1E+10	1	-1E+10	1	-1E+10	1
4902624	34	C	05/27/2025	10:47	-127.192	49.093	0	584.90	0	4.6790	0	34.1830	0	27.069	0	579.116	0	-1e10	1	-1e10	1	-1E+10	1	-1e10	1	-1e10	1	-1E+10	1	-1E+10	1	-1E+10	1
4902624	34	C	05/27/2025	10:47	-127.192	49.093	0	585.30	0	4.6786	0	34.1831	0	27.069	0	579.511	0	16.0	4	5.1	4	-1E+10	1	0.0584	4	0.000702	0	-1E+10	1	-1E+10	1	-1E+10	1
4902624	34	C	05/27/2025	10:47	-127.192	49.093	0	595.00	0	4.6680	0	34.1850	0	27.072	0	589.101	0	-1e10	1	-1e10	1	-1E+10	1	-1e10	1	-1e10	1	-1E+10	1	-1E+10	1	-1E+10	1
4902624	34	C	05/27/2025	10:47	-127.192	49.093	0	595.50	0	4.6673	0	34.1852	0	27.072	0	589.596	0	15.6	4	5.0	4	-1E+10	1	0.0584	4	0.000520	0	-1E+10	1	-1E+10	1	-1E+10	1
4902624	34	C	05/27/2025	10:47	-127.192	49.093	0	605.20	0	4.6530	0	34.1880	0	27.076	0	599.186	0	-1e10	1	-1e10	1	-1E+10	1	-1e10	1	-1e10	1	-1E+10	1	-1E+10	1	-1E+10	1
4902624	34	C	05/27/2025	10:47	-127.192	49.093	0	605.90	0	4.6505	0	34.1884	0	27.076	0	599.878	0	15.0	4	4.8	4	-1E+10	1	0.0581	4	0.000812	0	-1E+10	1	-1E+10	1	-1E+10	1
4902624	34	C	05/27/2025	10:47	-127.192	49.093	0	615.00	0	4.6180	0	34.1940	0	27.085	0	608.874	0	-1e10	1	-1e10	1	-1E+10	1	-1e10	1	-1e10	1	-1E+10	1	-1E+10	1	-1E+10	1
4902624	34	C	05/27/2025	10:47	-127.192	49.093	0	616.50	0	4.6125	0	34.1952	0	27.086	0	610.357	0	14.3	4	4.6	4	-1E+10	1	0.0511	4	0.000484	0	-1E+10	1	-1E+10	1	-1E+10	1
4902624	34	C	05/27/2025	10:47	-127.192	49.093	0	624.80	0	4.5820	0	34.2020	0	27.095	0	618.562	0	-1e10	1	-1e10	1	-1E+10	1	-1e10	1	-1e10	1	-1E+10	1	-1E+10	1	-1E+10	1
4902624	34	C	05/27/2025	10:47	-127.192	49.093	0	627.60	0	4.5749	0	34.2034	0	27.097	0	621.330	0	13.7	4	4.4	4	-1E+10	1	0.0508	4	0.000476	0	-1E+10	1	-1E+10	1	-1E+10	1
4902624	34	C	05/27/2025	10:47	-127.192	49.093	0	635.00	0	4.5560	0	34.2070	0	27.102	0	628.645	0	-1e10	1	-1e10	1	-1E+10	1	-1e10	1	-1e10	1	-1E+10	1	-1E+10	1	-1E+10	1
4902624	34	C	05/27/2025	10:47	-127.192	49.093	0	639.00	0	4.5505	0	34.2082	0	27.103	0	632.598	0	13.4	4	4.3	4	-1E+10	1	0.0447	4	0.000558	0	-1E+10	1	-1E+10	1	-1E+10	1
4902624	34	C	05/27/2025	10:47	-127.192	49.093	0	645.10	0	4.5420	0	34.2100	0	27.106	0	638.628	0	-1e10	1	-1e10	1	-1E+10	1	-1e10	1	-1e10	1	-1E+10	1	-1E+10	1	-1E+10	1
4902624	34	C	05/27/2025	10:47	-127.192	49.093	0	650.60	0	4.5343	0	34.2117	0	27.108	0	644.064	0	13.0	4	4.2	4	-1E+10	1	0.1147	4	0.002237	0	-1E+10	1	-1E+10	1	-1E+10	1
4902624	34	C	05/27/2025	10:47	-127.192	49.093	0	655.10	0	4.5280	0	34.2130	0	27.110	0	648.512	0	-1e10	1	-1e10	1	-1E+10	1	-1e10	1	-1e10	1	-1E+10	1	-1E+10	1	-1E+10	1
4902624	34	C	05/27/2025	10:47	-127.192	49.093	0	662.50	0	4.5184	0	34.2174	0	27.114	0	655.826	0	12.5	4	4.0	4	-1E+10	1	1.4509	4	0.045564	0	-1E+10	1	-1E+10	1	-1E+10	1
4902624	34	C	05/27/2025	10:47	-127.192	49.093	0	665.10	0	4.5150	0	34.2190	0	27.116	0	658.396	0	-1e10	1	-1e10	1	-1E+10	1	-1e10	1	-1e10	1	-1E+10	1	-1E+10	1	-1E+10	1
4902624	34	C	05/27/2025	10:47	-127.192	49.093	0	674.50	0	4.4853	0	34.2238	0	27.123	0	667.686	0	11.9	4	3.8	4	-1E+10	1	0.0651	4	0.000424	0	-1E+10	1	-1E+10	1	-1E+10	1
4902624	34	C	05/27/2025	10:47	-127.192	49.093	0	674.90	0	4.4840	0	34.2240	0	27.123	0	668.081	0	-1e10	1	-1e10	1	-1E+10	1	-1e10	1	-1e10	1	-1E+10	1	-1E+10	1	-1E+10	1
4902624	34	C	05/27/2025	10:47	-127.192	49.093	0	684.80	0	4.4460	0	34.2300	0	27.132	0	677.865	0	-1e10	1	-1e10	1	-1E+10	1	-1e10	1	-1e10	1	-1E+10	1	-1E+10	1	-1E+10	1
4902624	34	C	05/27/2025	10:47	-127.192	49.093	0	686.60	0	4.4412	0	34.2312	0	27.134	0	679.644	0	11.3	4	3.6	4	-1E+10	1	0.0514	4	0.000404	0	-1E+10	1	-1E+10	1	-1E+10	1
4902624	34	C	05/27/2025	10:47	-127.192	49.093	0	695.00	0	4.4190	0	34.2370	0	27.141	0	687.945	0	-1e10	1	-1e10	1	-1E+10	1	-1e10	1	-1e10	1	-1E+10	1	-1E+10	1	-1E+10	1
4902624	34	C	05/27/2025	10:47	-127.192	49.093	0	698.90	0	4.4044	0	34.2394	0	27.144	0	691.799	0	10.5	4	3.3	4	-1E+10	1	0.0584	4	0.000443	0	-1E+10	1	-1E+10	1	-1E+10	1
4902624	34	C	05/27/2025	10:47	-127.192	49.093	0	704.90	0	4.3820	0	34.2430	0	27.150	0	697.728	0	-1e10	1	-1e10	1	-1E+10	1	-1e10	1	-1e10	1	-1E+10	1	-1E+10	1	-1E+10	1
4902624	34	C	05/27/2025	10:47	-127.192	49.093	0	711.40	0	4.3293	0	34.2417	0	27.154	0	704.151	0	9.8	4	3.1	4	-1E+10	1	0.0587	4	0.000189	0	-1E+10	1	-1E+10	1	-1E+10	1
4902624	34	C	05/27/2025	10:47	-127.192	49.093	0	714.90	0	4.3010	0	34.2410	0	27.157	0	707.609	0	-1e10	1	-1e10	1	-1E+10	1	-1e10	1	-1e10	1	-1E+10	1	-1E+10	1	-1E+10	1
4902624	34	C	05/27/2025	10:47	-127.192	49.093	0	724.00	0	4.2881	0	34.2511	0	27.166	0	716.601	0	9.2	4	2.9	4	-1E+10	1	0.0654	4	0.000179	0	-1E+10	1	-1E+10	1	-1E+10	1
4902624	34	C	05/27/2025	10:47	-127.192	49.093	0	724.80	0	4.2870	0	34.2520	0	27.167	0	717.391	0	-1e10	1	-1e10	1	-1E+10	1	-1e10	1	-1e10	1	-1E+10	1	-1E+10	1	-1E+10	1
4902624	34	C	05/27/2025	10:47	-127.192	49.093	0	734.60	0	4.2700	0	34.2610	0	27.176	0	727.074	0	-1e10	1	-1e10	1	-1E+10	1	-1e10	1	-1e10	1	-1E+10	1	-1E+10	1	-1E+10	1
4902624	34	C	05/27/2025	10:47	-127.192	49.093	0	736.50	0	4.2693	0	34.2628	0	27.178	0	728.951	0	8.9	4	2.8	4	-1E+10	1	0.0587	4	0.000475	0	-1E+10	1	-1E+10	1	-1E+10	1
4902624	34	C	05/27/2025	10:47	-127.192	49.093	0	745.10	0	4.2660	0	34.2710	0	27.184	0	737.448	0	-1e10	1	-1e10	1	-1E+10	1	-1e10	1	-1e10	1	-1E+10	1	-1E+10	1	-1E+10	1
4902624	34	C	05/27/2025	10:47	-127.192	49.093	0	749.10	0	4.2564	0	34.2738	0	27.188	0	741.400	0	8.5	4	2.7	4	-1E+10	1	0.0657	4	0.000624	0	-1E+10	1	-1E+10	1	-1E+10	1
4902624	34	C	05/27/2025	10:47	-127.192	49.093	0	755.10	0	4.2420	0	34.2780	0	27.193	0	747.327	0	-1e10	1	-1e10	1	-1E+10	1	-1e10	1	-1e10	1	-1E+10	1	-1E+10	1	-1E+10	1
4902624	34	C	05/27/2025	10:47	-127.192	49.093	0	761.50	0	4.2171	0	34.2834	0	27.200	0	753.650	0	8.2	4	2.6	4	-1E+10	1	0.0654	4	0.008381	0	-1E+10	1	-1E+10	1	-1E+10	1
4902624	34	C	05/27/2025	10:47	-127.192	49.093	0	764.60	0	4.2050	0	34.2860	0	27.203	0	756.712	0	-1e10	1	-1e10	1	-1E+10	1	-1e10	1	-1e10	1	-1E+10	1	-1E+10	1	-1E+10	1
4902624	34	C	05/27/2025	10:47	-127.192	49.093	0	773.40	0	4.1644	0	34.2911	0	27.211	0	765.405	0	7.9	4	2.5	4	-1E+10	1	0.0584	4	0.000179	0	-1E+10	1	-1E+10	1	-1E+10	1
4902624	34	C	05/27/2025	10:47	-127.192	49.093	0	775.00	0	4.1570	0	34.2920	0	27.213	0	766.986	0	-1e10	1	-1e10	1	-1E+10	1	-1e10	1	-1e10	1	-1E+10	1	-1E+10	1	-1E+10	1
4902624	34	C	05/27/2025	10:47	-127.192	49.093	0	784.50	0	4.1349	0	34.3006	0	27.222	0	776.370	0	7.8	4	2.5	4	-1E+10	1	0.0584	4	0.000224	0	-1E+10	1	-1E+10	1	-1E+10	1
4902624	34	C	05/27/2025	10:47	-127.192	49.093	0	784.90	0	4.1340	0	34.3010	0	27.222	0	776.765	0	-1e10	1	-1e10	1	-1E+10	1	-1e10	1	-1e10	1	-1E+10	1	-1E+10	1	-1E+10	1
4902624	34	C	05/27/2025	10:47	-127.192	49.093	0	792.30	0	4.1146	0	34.3047	0	27.227	0	784.075	0	7.7	4	2.5	4	-1E+10	1	0.0595	4	0.000639	0	-1E+10	1	-1E+10	1	-1E+10	1
4902624	34	C	05/27/2025	10:47	-127.192	49.093	0	794.80	0	4.1080	0	34.3060	0	27.229	0	786.544	0	-1e10	1	-1e10	1	-1E+10	1	-1e10	1	-1e10	1	-1E+10	1	-1E+10	1	-1E+10	1
4902624	34	C	05/27/2025	10:47	-127.192	49.093	0	800.30	0	4.0850	0	34.3092	0	27.234	0	791.976	0	7.7	4	2.4	4	-1E+10	1	0.0865	4	0.011931	0	-1E+10	1	-1E+10	1	-1E+10	1
4902624	34	C	05/27/2025	10:47	-127.192	49.093	0	805.10	0	4.0650	0	34.3120	0	27.238	0	796.717	0	-1e10	1	-1e10	1	-1E+10	1	-1e10	1	-1e10	1	-1E+10	1	-1E+10	1	-1E+10	1
4902624	34	C	05/27/2025	10:47	-127.192	49.093	0	808.40	0	4.0557	0	34.3133	0	27.240	0	799.977	0	7.6	4	2.4	4	-1E+10	1	0.0592	4	0.020628	0	-1E+10	1	-1E+10	1	-1E+10	1
4902624	34	C	05/27/2025	10:47	-127.192	49.093	0	815.00	0	4.0370	0	34.3160	0	27.245	0	806.495	0	-1e10	1	-1e10	1	-1E+10	1	-1e10	1	-1e10	1	-1E+10	1	-1E+10	1	-1E+10	1
4902624	34	C	05/27/2025	10:47	-127.192	49.093	0	816.80	0	4.0336	0	34.3164	0	27.245	0	808.273	0	7.6	4	2.4	4	-1E+10	1	0.0793	4	0.016328	0	-1E+10	1	-1E+10	1	-1E+10	1
4902624	34	C	05/27/2025	10:47	-127.192	49.093	0	825.00	0	4.0180	0	34.3180	0	27.248	0	816.371	0	-1e10	1	-1e10	1	-1E+10	1	-1e10	1	-1e10	1	-1E+10	1	-1E+10	1	-1E+10	1
4902624	34	C	05/27/2025	10:47	-127.192	49.093	0	825.30	0	4.0165	0	34.3182	0	27.248	0	816.667	0	7.5	4	2.4	4	-1E+10	1	0.0516	4	0.000214	0	-1E+10	1	-1E+10	1	-1E+10	1
4902624	34	C	05/27/2025	10:47	-127.192	49.093	0	834.00	0	3.9735	0	34.3235	0	27.257	0	825.259	0	7.4	4	2.3	4	-1E+10	1	0.0652	4	0.000164	0	-1E+10	1	-1E+10	1	-1E+10	1
4902624	34	C	05/27/2025	10:47	-127.192	49.093	0	834.90	0	3.9690	0	34.3240	0	27.258	0	826.148	0	-1e10	1	-1e10	1	-1E+10	1	-1e10	1	-1e10	1	-1E+10	1	-1E+10	1	-1E+10	1
4902624	34	C	05/27/2025	10:47	-127.192	49.093	0	843.10	0	3.9342	0	34.3290	0	27.266	0	834.246	0	7.4	4	2.3	4	-1E+10	1	0.0511	4	0.000153	0	-1E+10	1	-1E+10	1	-1E+10	1
4902624	34	C	05/27/2025	10:47	-127.192	49.093	0	844.80	0	3.9270	0	34.3300	0	27.267	0	835.925	0	-1e10	1	-1e10	1	-1E+10	1	-1e10	1	-1e10	1	-1E+10	1	-1E+10	1	-1E+10	1
4902624	34	C	05/27/2025	10:47	-127.192	49.093	0	852.80	0	3.9074	0	34.3331	0	27.272	0	843.824	0	7.4	4	2.3	4	-1E+10	1	0.0517	4	0.000164	0	-1E+10	1	-1E+10	1	-1E+10	1
4902624	34	C	05/27/2025	10:47	-127.192	49.093	0	855.00	0	3.9020	0	34.3340	0	27.273	0	845.997	0	-1e10	1	-1e10	1	-1E+10	1	-1e10	1	-1e10	1	-1E+10	1	-1E+10	1	-1E+10	1
4902624	34	C	05/27/2025	10:47	-127.192	49.093	0	862.80	0	3.8806	0	34.3386	0	27.279	0	853.699	0	7.4	4	2.3	4	-1E+10	1	0.0657	4	0.000144	0	-1E+10	1	-1E+10	1	-1E+10	1
4902624	34	C	05/27/2025	10:47	-127.192	49.093	0	865.20	0	3.8740	0	34.3400	0	27.281	0	856.068	0	-1e10	1	-1e10	1	-1E+10	1	-1e10	1	-1e10	1	-1E+10	1	-1E+10	1	-1E+10	1
4902624	34	C	05/27/2025	10:47	-127.192	49.093	0	872.80	0	3.8558	0	34.3430	0	27.285	0	863.573	0	7.5	4	2.4	4	-1E+10	1	0.0660	4	0.000210	0	-1E+10	1	-1E+10	1	-1E+10	1
4902624	34	C	05/27/2025	10:47	-127.192	49.093	0	875.20	0	3.8500	0	34.3440	0	27.286	0	865.942	0	-1e10	1	-1e10	1	-1E+10	1	-1e10	1	-1e10	1	-1E+10	1	-1E+10	1	-1E+10	1
4902624	34	C	05/27/2025	10:47	-127.192	49.093	0	883.40	0	3.8348	0	34.3465	0	27.290	0	874.038	0	7.4	4	2.3	4	-1E+10	1	0.0722	4	0.000188	0	-1E+10	1	-1E+10	1	-1E+10	1
4902624	34	C	05/27/2025	10:47	-127.192	49.093	0	884.90	0	3.8320	0	34.3470	0	27.290	0	875.519	0	-1e10	1	-1e10	1	-1E+10	1	-1e10	1	-1e10	1	-1E+10	1	-1E+10	1	-1E+10	1
4902624	34	C	05/27/2025	10:47	-127.192	49.093	0	894.20	0	3.8207	0	34.3489	0	27.293	0	884.701	0	7.5	4	2.4	4	-1E+10	1	0.0519	4	0.000189	0	-1E+10	1	-1E+10	1	-1E+10	1
4902624	34	C	05/27/2025	10:47	-127.192	49.093	0	894.80	0	3.8200	0	34.3490	0	27.293	0	885.293	0	-1e10	1	-1e10	1	-1E+10	1	-1e10	1	-1e10	1	-1E+10	1	-1E+10	1	-1E+10	1
4902624	34	C	05/27/2025	10:47	-127.192	49.093	0	904.80	0	3.8090	0	34.3510	0	27.296	0	895.166	0	-1e10	1	-1e10	1	-1E+10	1	-1e10	1	-1e10	1	-1E+10	1	-1E+10	1	-1E+10	1
4902624	34	C	05/27/2025	10:47	-127.192	49.093	0	905.30	0	3.8080	0	34.3512	0	27.296	0	895.659	0	7.6	4	2.4	4	-1E+10	1	0.0727	4	0.000232	0	-1E+10	1	-1E+10	1	-1E+10	1
4902624	34	C	05/27/2025	10:47	-127.192	49.093	0	915.00	0	3.7880	0	34.3540	0	27.301	0	905.235	0	-1e10	1	-1e10	1	-1E+10	1	-1e10	1	-1e10	1	-1E+10	1	-1E+10	1	-1E+10	1
4902624	34	C	05/27/2025	10:47	-127.192	49.093	0	916.40	0	3.7835	0	34.3548	0	27.302	0	906.617	0	7.6	4	2.4	4	-1E+10	1	0.0654	4	0.000164	0	-1E+10	1	-1E+10	1	-1E+10	1
4902624	34	C	05/27/2025	10:47	-127.192	49.093	0	925.20	0	3.7550	0	34.3600	0	27.309	0	915.304	0	-1e10	1	-1e10	1	-1E+10	1	-1e10	1	-1e10	1	-1E+10	1	-1E+10	1	-1E+10	1
4902624	34	C	05/27/2025	10:47	-127.192	49.093	0	927.60	0	3.7508	0	34.3612	0	27.310	0	917.673	0	7.7	4	2.4	4	-1E+10	1	0.0584	4	0.000164	0	-1E+10	1	-1E+10	1	-1E+10	1
4902624	34	C	05/27/2025	10:47	-127.192	49.093	0	935.00	0	3.7380	0	34.3650	0	27.315	0	924.978	0	-1e10	1	-1e10	1	-1E+10	1	-1e10	1	-1e10	1	-1E+10	1	-1E+10	1	-1E+10	1
4902624	34	C	05/27/2025	10:47	-127.192	49.093	0	939.30	0	3.7246	0	34.3663	0	27.317	0	929.222	0	7.9	4	2.5	4	-1E+10	1	0.0587	4	0.000163	0	-1E+10	1	-1E+10	1	-1E+10	1
4902624	34	C	05/27/2025	10:47	-127.192	49.093	0	945.30	0	3.7060	0	34.3680	0	27.320	0	935.144	0	-1e10	1	-1e10	1	-1E+10	1	-1e10	1	-1e10	1	-1E+10	1	-1E+10	1	-1E+10	1
4902624	34	C	05/27/2025	10:47	-127.192	49.093	0	951.10	0	3.6976	0	34.3698	0	27.322	0	940.869	0	7.9	4	2.5	4	-1E+10	1	0.0648	4	0.000164	0	-1E+10	1	-1E+10	1	-1E+10	1
4902624	34	C	05/27/2025	10:47	-127.192	49.093	0	955.00	0	3.6920	0	34.3710	0	27.324	0	944.718	0	-1e10	1	-1e10	1	-1E+10	1	-1e10	1	-1e10	1	-1E+10	1	-1E+10	1	-1E+10	1
4902624	34	C	05/27/2025	10:47	-127.192	49.093	0	963.10	0	3.6814	0	34.3726	0	27.326	0	952.712	0	8.0	4	2.5	4	-1E+10	1	0.0447	4	0.000175	0	-1E+10	1	-1E+10	1	-1E+10	1
4902624	34	C	05/27/2025	10:47	-127.192	49.093	0	964.90	0	3.6790	0	34.3730	0	27.327	0	954.489	0	-1e10	1	-1e10	1	-1E+10	1	-1e10	1	-1e10	1	-1E+10	1	-1E+10	1	-1E+10	1
4902624	34	C	05/27/2025	10:47	-127.192	49.093	0	975.10	0	3.6572	0	34.3760	0	27.332	0	964.555	0	8.1	4	2.5	4	-1E+10	1	0.0660	4	0.000174	0	-1E+10	1	-1E+10	1	-1E+10	1
4902624	34	C	05/27/2025	10:47	-127.192	49.093	0	975.20	0	3.6570	0	34.3760	0	27.332	0	964.654	0	-1e10	1	-1e10	1	-1E+10	1	-1e10	1	-1e10	1	-1E+10	1	-1E+10	1	-1E+10	1
4902624	34	C	05/27/2025	10:47	-127.192	49.093	0	983.50	0	3.6427	0	34.3785	0	27.335	0	972.845	0	8.2	4	2.6	4	-1E+10	1	0.0725	4	0.000153	0	-1E+10	1	-1E+10	1	-1E+10	1
4902624	34	C	05/27/2025	10:47	-127.192	49.093	0	985.10	0	3.6400	0	34.3790	0	27.336	0	974.424	0	-1e10	1	-1e10	1	-1E+10	1	-1e10	1	-1e10	1	-1E+10	1	-1E+10	1	-1E+10	1
4902624	34	C	05/27/2025	10:47	-127.192	49.093	0	991.70	0	3.6265	0	34.3810	0	27.339	0	980.937	0	8.3	4	2.6	4	-1E+10	1	0.0580	4	0.000197	0	-1E+10	1	-1E+10	1	-1E+10	1
4902624	34	C	05/27/2025	10:47	-127.192	49.093	0	994.90	0	3.6200	0	34.3820	0	27.340	0	984.095	0	-1e10	1	-1e10	1	-1E+10	1	-1e10	1	-1e10	1	-1E+10	1	-1E+10	1	-1E+10	1
4902624	34	C	05/27/2025	10:47	-127.192	49.093	0	1006.70	0	3.5857	0	34.3876	0	27.348	0	995.739	0	8.5	4	2.7	4	-1E+10	1	0.0368	4	0.000163	0	-1E+10	1	-1E+10	1	-1E+10	1
4902624	34	C	05/27/2025	10:47	-127.192	49.093	0	1023.70	0	3.5363	0	34.3956	0	27.359	0	1012.512	0	8.8	4	2.8	4	-1E+10	1	0.0511	4	0.000185	0	-1E+10	1	-1E+10	1	-1E+10	1
4902624	34	C	05/27/2025	10:47	-127.192	49.093	0	1024.50	0	3.5340	0	34.3960	0	27.360	0	1013.302	0	-1e10	1	-1e10	1	-1E+10	1	-1e10	1	-1e10	1	-1E+10	1	-1E+10	1	-1E+10	1
4902624	34	C	05/27/2025	10:47	-127.192	49.093	0	1041.30	0	3.4980	0	34.4033	0	27.369	0	1029.877	0	9.3	4	2.9	4	-1E+10	1	0.0510	4	0.000150	0	-1E+10	1	-1E+10	1	-1E+10	1
4902624	34	C	05/27/2025	10:47	-127.192	49.093	0	1060.20	0	3.4575	0	34.4116	0	27.380	0	1048.522	0	9.7	4	3.0	4	-1E+10	1	0.0442	4	0.000140	0	-1E+10	1	-1E+10	1	-1E+10	1
4902624	34	C	05/27/2025	10:47	-127.192	49.093	0	1074.90	0	3.4260	0	34.4180	0	27.388	0	1063.023	0	-1e10	1	-1e10	1	-1E+10	1	-1e10	1	-1e10	1	-1E+10	1	-1E+10	1	-1E+10	1
4902624	34	C	05/27/2025	10:47	-127.192	49.093	0	1079.90	0	3.4161	0	34.4194	0	27.390	0	1067.955	0	17.3	4	5.4	4	-1E+10	1	0.0660	4	0.000246	0	-1E+10	1	-1E+10	1	-1E+10	1
4902624	34	C	05/27/2025	10:47	-127.192	49.093	0	1100.70	0	3.3747	0	34.4253	0	27.399	0	1088.471	0	36.9	4	11.5	4	-1E+10	1	0.0800	4	0.000379	0	-1E+10	1	-1E+10	1	-1E+10	1
4902624	34	C	05/27/2025	10:47	-127.192	49.093	0	1122.60	0	3.3312	0	34.4314	0	27.408	0	1110.070	0	28.1	4	8.7	4	-1E+10	1	0.0654	4	0.000161	0	-1E+10	1	-1E+10	1	-1E+10	1
4902624	34	C	05/27/2025	10:47	-127.192	49.093	0	1124.70	0	3.3270	0	34.4320	0	27.409	0	1112.141	0	-1e10	1	-1e10	1	-1E+10	1	-1e10	1	-1e10	1	-1E+10	1	-1E+10	1	-1E+10	1
4902624	34	C	05/27/2025	10:47	-127.192	49.093	0	1145.70	0	3.2823	0	34.4386	0	27.418	0	1132.850	0	75.3	4	23.4	4	-1E+10	1	0.0513	4	0.000173	0	-1E+10	1	-1E+10	1	-1E+10	1
4902624	34	C	05/27/2025	10:47	-127.192	49.093	0	1168.90	0	3.2329	0	34.4458	0	27.429	0	1155.726	0	80.3	4	24.9	4	-1E+10	1	0.0586	4	0.000195	0	-1E+10	1	-1E+10	1	-1E+10	1
4902624	34	C	05/27/2025	10:47	-127.192	49.093	0	1175.90	0	3.2180	0	34.4480	0	27.432	0	1162.628	0	-1e10	1	-1e10	1	-1E+10	1	-1e10	1	-1e10	1	-1E+10	1	-1E+10	1	-1E+10	1
4902624	34	C	05/27/2025	10:47	-127.192	49.093	0	1187.10	0	3.1961	0	34.4510	0	27.437	0	1173.670	0	86.3	4	26.8	4	-1E+10	1	0.0654	4	0.000186	0	-1E+10	1	-1E+10	1	-1E+10	1
4902624	34	C	05/27/2025	10:47	-127.192	49.093	0	1204.10	0	3.1629	0	34.4555	0	27.443	0	1190.430	0	45.7	4	14.2	4	-1E+10	1	0.0513	4	0.000303	0	-1E+10	1	-1E+10	1	-1E+10	1
4902624	34	C	05/27/2025	10:47	-127.192	49.093	0	1222.40	0	3.1271	0	34.4604	0	27.451	0	1208.469	0	58.8	4	18.2	4	-1E+10	1	0.0655	4	0.000415	0	-1E+10	1	-1E+10	1	-1E+10	1
4902624	34	C	05/27/2025	10:47	-127.192	49.093	0	1224.50	0	3.1230	0	34.4610	0	27.452	0	1210.539	0	-1e10	1	-1e10	1	-1E+10	1	-1e10	1	-1e10	1	-1E+10	1	-1E+10	1	-1E+10	1
4902624	34	C	05/27/2025	10:47	-127.192	49.093	0	1241.80	0	3.0860	0	34.4655	0	27.459	0	1227.592	0	47.8	4	14.8	4	-1E+10	1	0.0584	4	0.000314	0	-1E+10	1	-1E+10	1	-1E+10	1
4902624	34	C	05/27/2025	10:47	-127.192	49.093	0	1261.10	0	3.0447	0	34.4704	0	27.466	0	1246.614	0	53.4	4	16.5	4	-1E+10	1	0.0584	4	0.000392	0	-1E+10	1	-1E+10	1	-1E+10	1
4902624	34	C	05/27/2025	10:47	-127.192	49.093	0	1275.00	0	3.0150	0	34.4740	0	27.472	0	1260.313	0	-1e10	1	-1e10	1	-1E+10	1	-1e10	1	-1e10	1	-1E+10	1	-1E+10	1	-1E+10	1
4902624	34	C	05/27/2025	10:47	-127.192	49.093	0	1280.10	0	3.0011	0	34.4756	0	27.475	0	1265.338	0	26.7	8	8.2	8	-1E+10	1	0.0584	4	0.000342	0	-1E+10	1	-1E+10	1	-1E+10	1
4902624	34	C	05/27/2025	10:47	-127.192	49.093	0	1299.30	0	2.9490	0	34.4818	0	27.484	0	1284.259	0	78.2	4	24.1	4	-1E+10	1	0.0583	4	0.000805	0	-1E+10	1	-1E+10	1	-1E+10	1
4902624	34	C	05/27/2025	10:47	-127.192	49.093	0	1319.00	0	2.8955	0	34.4882	0	27.494	0	1303.670	0	73.0	4	22.5	4	-1E+10	1	0.0512	4	0.000311	0	-1E+10	1	-1E+10	1	-1E+10	1
4902624	34	C	05/27/2025	10:47	-127.192	49.093	0	1324.70	0	2.8800	0	34.4900	0	27.497	0	1309.286	0	-1e10	1	-1e10	1	-1E+10	1	-1e10	1	-1e10	1	-1E+10	1	-1E+10	1	-1E+10	1
4902624	34	C	05/27/2025	10:47	-127.192	49.093	0	1339.60	0	2.8516	0	34.4933	0	27.502	0	1323.965	0	78.2	4	24.1	4	-1E+10	1	0.0584	4	0.000336	0	-1E+10	1	-1E+10	1	-1E+10	1
4902624	34	C	05/27/2025	10:47	-127.192	49.093	0	1360.20	0	2.8124	0	34.4977	0	27.509	0	1344.259	0	81.2	4	25.0	4	-1E+10	1	0.0585	4	0.000462	0	-1E+10	1	-1E+10	1	-1E+10	1
4902624	34	C	05/27/2025	10:47	-127.192	49.093	0	1375.10	0	2.7840	0	34.5010	0	27.515	0	1358.937	0	-1e10	1	-1e10	1	-1E+10	1	-1e10	1	-1e10	1	-1E+10	1	-1E+10	1	-1E+10	1
4902624	34	C	05/27/2025	10:47	-127.192	49.093	0	1382.20	0	2.7744	0	34.5020	0	27.516	0	1365.930	0	82.6	4	25.4	4	-1E+10	1	0.0657	4	0.000426	0	-1E+10	1	-1E+10	1	-1E+10	1
4902624	34	C	05/27/2025	10:47	-127.192	49.093	0	1406.10	0	2.7420	0	34.5053	0	27.522	0	1389.470	0	84.7	4	26.0	4	-1E+10	1	0.0651	4	0.000366	0	-1E+10	1	-1E+10	1	-1E+10	1
4902624	34	C	05/27/2025	10:47	-127.192	49.093	0	1425.30	0	2.7160	0	34.5080	0	27.526	0	1408.379	0	-1e10	1	-1e10	1	-1E+10	1	-1e10	1	-1e10	1	-1E+10	1	-1E+10	1	-1E+10	1
4902624	34	C	05/27/2025	10:47	-127.192	49.093	0	1430.90	0	2.7092	0	34.5088	0	27.528	0	1413.894	0	87.1	4	26.7	4	-1E+10	1	0.0372	4	0.000275	0	-1E+10	1	-1E+10	1	-1E+10	1
4902624	34	C	05/27/2025	10:47	-127.192	49.093	0	1455.90	0	2.6791	0	34.5123	0	27.533	0	1438.512	0	96.3	4	29.5	4	-1E+10	1	0.0726	4	0.000319	0	-1E+10	1	-1E+10	1	-1E+10	1
4902624	34	C	05/27/2025	10:47	-127.192	49.093	0	1475.00	0	2.6560	0	34.5150	0	27.537	0	1457.318	0	-1e10	1	-1e10	1	-1E+10	1	-1e10	1	-1e10	1	-1E+10	1	-1E+10	1	-1E+10	1
4902624	34	C	05/27/2025	10:47	-127.192	49.093	0	1482.00	0	2.6427	0	34.5164	0	27.540	0	1464.210	0	91.1	4	27.9	4	-1E+10	1	0.0511	4	0.000249	0	-1E+10	1	-1E+10	1	-1E+10	1
4902624	34	C	05/27/2025	10:47	-127.192	49.093	0	1508.60	0	2.5922	0	34.5217	0	27.548	0	1490.397	0	100.3	4	30.7	4	-1E+10	1	0.0514	4	0.000239	0	-1E+10	1	-1E+10	1	-1E+10	1
4902624	34	C	05/27/2025	10:47	-127.192	49.093	0	1525.00	0	2.5610	0	34.5250	0	27.554	0	1506.540	0	-1e10	1	-1e10	1	-1E+10	1	-1e10	1	-1e10	1	-1E+10	1	-1E+10	1	-1E+10	1
4902624	34	C	05/27/2025	10:47	-127.192	49.093	0	1535.10	0	2.5502	0	34.5264	0	27.556	0	1516.482	0	105.1	4	32.1	4	-1E+10	1	0.0656	4	0.000354	0	-1E+10	1	-1E+10	1	-1E+10	1
4902624	34	C	05/27/2025	10:47	-127.192	49.093	0	1561.50	0	2.5219	0	34.5301	0	27.561	0	1542.465	0	106.4	4	32.5	4	-1E+10	1	0.0583	4	0.001518	0	-1E+10	1	-1E+10	1	-1E+10	1
4902624	34	C	05/27/2025	10:47	-127.192	49.093	0	1575.40	0	2.5070	0	34.5320	0	27.564	0	1556.145	0	-1e10	1	-1e10	1	-1E+10	1	-1e10	1	-1e10	1	-1E+10	1	-1E+10	1	-1E+10	1
4902624	34	C	05/27/2025	10:47	-127.192	49.093	0	1584.10	0	2.5011	0	34.5327	0	27.565	0	1564.706	0	106.6	4	32.5	4	-1E+10	1	0.0513	4	0.000353	0	-1E+10	1	-1E+10	1	-1E+10	1
4902624	34	C	05/27/2025	10:47	-127.192	49.093	0	1607.60	0	2.4851	0	34.5347	0	27.568	0	1587.831	0	106.2	4	32.4	4	-1E+10	1	0.0580	4	0.000306	0	-1E+10	1	-1E+10	1	-1E+10	1
4902624	34	C	05/27/2025	10:47	-127.192	49.093	0	1622.50	0	2.4750	0	34.5360	0	27.570	0	1602.491	0	-1e10	1	-1e10	1	-1E+10	1	-1e10	1	-1e10	1	-1E+10	1	-1E+10	1	-1E+10	1
4902624	34	C	05/27/2025	10:47	-127.192	49.093	0	1623.30	0	2.4750	0	34.5360	0	27.570	0	1603.278	0	110.3	4	33.6	4	-1E+10	1	0.0439	4	0.000271	0	-1E+10	1	-1E+10	1	-1E+10	1
4902624	34	C	05/27/2025	10:47	-127.192	49.093	0	1642.40	0	-1e10	1	-1e10	1	-1e10	1	1622.070	0	109.3	4	-1e10	4	-1E+10	1	0.0511	4	0.000457	0	-1E+10	1	-1E+10	1	-1E+10	1
4902624	34	C	05/27/2025	10:47	-127.192	49.093	0	1658.30	0	-1e10	1	-1e10	1	-1e10	1	1637.711	0	111.7	4	-1e10	4	-1E+10	1	0.0511	4	0.000514	0	-1E+10	1	-1E+10	1	-1E+10	1
4902624	34	C	05/27/2025	10:47	-127.192	49.093	0																										
4902624	35	C	06/06/2025	10:42	-127.913	48.990	0	0.00	0	11.4806	0	31.8404	0	24.231	0	0.000	0	-1e10	1	-1e10	1	-1E+10	1	3.4602	4	0.005430	0	-1E+10	1	-1E+10	1	-1E+10	1
4902624	35	C	06/06/2025	10:42	-127.913	48.990	0	0.40	0	11.4990	0	31.8340	0	24.223	0	0.397	0	270.1	4	99.3	4	-1E+10	1	3.4967	4	0.004444	0	-1E+10	1	-1E+10	1	-1E+10	1
4902624	35	C	06/06/2025	10:42	-127.913	48.990	0	0.50	0	11.4990	0	31.8342	0	24.223	0	0.496	0	270.5	4	99.4	4	-1E+10	1	-1e10	1	-1e10	1	-1E+10	1	-1E+10	1	-1E+10	1
4902624	35	C	06/06/2025	10:42	-127.913	48.990	0	0.70	0	11.4990	0	31.8347	0	24.224	0	0.694	0	269.7	4	99.1	4	-1E+10	1	-1e10	1	-1e10	1	-1E+10	1	-1E+10	1	-1E+10	1
4902624	35	C	06/06/2025	10:42	-127.913	48.990	0	0.90	0	11.4990	0	31.8352	0	24.224	0	0.892	0	-1e10	1	-1e10	1	-1E+10	1	3.6135	4	0.004233	0	-1E+10	1	-1E+10	1	-1E+10	1
4902624	35	C	06/06/2025	10:42	-127.913	48.990	0	1.10	0	11.4990	0	31.8358	0	24.225	0	1.091	0	-1e10	1	-1e10	1	-1E+10	1	3.4748	4	0.004386	0	-1E+10	1	-1E+10	1	-1E+10	1
4902624	35	C	06/06/2025	10:42	-127.913	48.990	0	1.30	0	11.4990	0	31.8363	0	24.225	0	1.289	0	-1e10	1	-1e10	1	-1E+10	1	3.5624	4	0.004691	0	-1E+10	1	-1E+10	1	-1E+10	1
4902624	35	C	06/06/2025	10:42	-127.913	48.990	0	1.50	0	11.4990	0	31.8368	0	24.225	0	1.487	0	-1e10	1	-1e10	1	-1E+10	1	3.5040	4	0.004315	0	-1E+10	1	-1E+10	1	-1E+10	1
4902624	35	C	06/06/2025	10:42	-127.913	48.990	0	1.60	0	11.4990	0	31.8370	0	24.226	0	1.586	0	-1e10	1	-1e10	1	-1E+10	1	4.0661	4	0.004961	0	-1E+10	1	-1E+10	1	-1E+10	1
4902624	35	C	06/06/2025	10:42	-127.913	48.990	0	1.70	0	11.4991	0	31.8370	0	24.225	0	1.686	0	-1e10	1	-1e10	1	-1E+10	1	3.1901	4	0.004515	0	-1E+10	1	-1E+10	1	-1E+10	1
4902624	35	C	06/06/2025	10:42	-127.913	48.990	0	1.80	0	11.4992	0	31.8370	0	24.225	0	1.785	0	-1e10	1	-1e10	1	-1E+10	1	3.3507	4	0.004491	0	-1E+10	1	-1E+10	1	-1E+10	1
4902624	35	C	06/06/2025	10:42	-127.913	48.990	0	2.00	0	11.4994	0	31.8370	0	24.225	0	1.983	0	269.5	4	99.1	4	-1E+10	1	3.5186	4	0.004350	0	-1E+10	1	-1E+10	1	-1E+10	1
4902624	35	C	06/06/2025	10:42	-127.913	48.990	0	2.50	0	11.4999	0	31.8370	0	24.225	0	2.479	0	269.3	4	99.0	4	-1E+10	1	3.4480	4	0.004565	0	-1E+10	1	-1E+10	1	-1E+10	1
4902624	35	C	06/06/2025	10:42	-127.913	48.990	0	2.60	0	11.5000	0	31.8370	0	24.225	0	2.578	0	-1e10	1	-1e10	1	-1E+10	1	-1e10	1	-1e10	1	-1E+10	1	-1E+10	1	-1E+10	1
4902624	35	C	06/06/2025	10:42	-127.913	48.990	0	2.70	0	11.5000	0	31.8370	0	24.225	0	2.677	0	-1e10	1	-1e10	1	-1E+10	1	3.5040	4	0.004702	0	-1E+10	1	-1E+10	1	-1E+10	1
4902624	35	C	06/06/2025	10:42	-127.913	48.990	0	2.80	0	11.5000	0	31.8370	0	24.225	0	2.776	0	-1e10	1	-1e10	1	-1E+10	1	3.2558	4	0.005629	0	-1E+10	1	-1E+10	1	-1E+10	1
4902624	35	C	06/06/2025	10:42	-127.913	48.990	0	3.00	0	11.5000	0	31.8370	0	24.225	0	2.975	0	-1e10	1	-1e10	1	-1E+10	1	3.4967	4	0.007318	0	-1E+10	1	-1E+10	1	-1E+10	1
4902624	35	C	06/06/2025	10:42	-127.913	48.990	0	3.10	0	11.5000	0	31.8370	0	24.225	0	3.074	0	-1e10	1	-1e10	1	-1E+10	1	3.3361	4	0.004444	0	-1E+10	1	-1E+10	1	-1E+10	1
4902624	35	C	06/06/2025	10:42	-127.913	48.990	0	3.20	0	11.5000	0	31.8370	0	24.225	0	3.173	0	269.2	4	99.0	4	-1E+10	1	3.5916	4	0.004878	0	-1E+10	1	-1E+10	1	-1E+10	1
4902624	35	C	06/06/2025	10:42	-127.913	48.990	0	3.40	0	11.5000	0	31.8370	0	24.225	0	3.371	0	-1e10	1	-1e10	1	-1E+10	1	3.4967	4	0.004691	0	-1E+10	1	-1E+10	1	-1E+10	1
4902624	35	C	06/06/2025	10:42	-127.913	48.990	0	3.60	0	11.5000	0	31.8370	0	24.225	0	3.569	0	-1e10	1	-1e10	1	-1E+10	1	-1e10	1	-1e10	1	-1E+10	1	-1E+10	1	-1E+10	1
4902624	35	C	06/06/2025	10:42	-127.913	48.990	0	3.70	0	11.5001	0	31.8370	0	24.225	0	3.669	0	-1e10	1	-1e10	1	-1E+10	1	3.6792	4	0.005101	0	-1E+10	1	-1E+10	1	-1E+10	1
4902624	35	C	06/06/2025	10:42	-127.913	48.990	0	3.90	0	11.5003	0	31.8370	0	24.225	0	3.867	0	-1e10	1	-1e10	1	-1E+10	1	3.5624	4	0.004820	0	-1E+10	1	-1E+10	1	-1E+10	1
4902624	35	C	06/06/2025	10:42	-127.913	48.990	0	4.00	0	11.5004	0	31.8370	0	24.225	0	3.966	0	268.9	4	98.9	4	-1E+10	1	3.4675	4	0.005770	0	-1E+10	1	-1E+10	1	-1E+10	1
4902624	35	C	06/06/2025	10:42	-127.913	48.990	0	4.20	0	11.5006	0	31.8370	0	24.225	0	4.164	0	-1e10	1	-1e10	1	-1E+10	1	3.4748	4	0.005183	0	-1E+10	1	-1E+10	1	-1E+10	1
4902624	35	C	06/06/2025	10:42	-127.913	48.990	0	4.30	0	11.5007	0	31.8370	0	24.225	0	4.263	0	-1e10	1	-1e10	1	-1E+10	1	3.5624	4	0.004984	0	-1E+10	1	-1E+10	1	-1E+10	1
4902624	35	C	06/06/2025	10:42	-127.913	48.990	0	4.50	0	11.5009	0	31.8370	0	24.225	0	4.462	0	-1e10	1	-1e10	1	-1E+10	1	3.5770	4	0.004937	0	-1E+10	1	-1E+10	1	-1E+10	1
4902624	35	C	06/06/2025	10:42	-127.913	48.990	0	4.60	0	11.5010	0	31.8370	0	24.225	0	4.561	0	-1e10	1	-1e10	1	-1E+10	1	-1e10	1	-1e10	1	-1E+10	1	-1E+10	1	-1E+10	1
4902624	35	C	06/06/2025	10:42	-127.913	48.990	0	4.70	0	11.5010	0	31.8370	0	24.225	0	4.660	0	-1e10	1	-1e10	1	-1E+10	1	3.7157	4	0.005054	0	-1E+10	1	-1E+10	1	-1E+10	1
4902624	35	C	06/06/2025	10:42	-127.913	48.990	0	5.00	0	11.5010	0	31.8370	0	24.225	0	4.958	0	268.8	4	98.8	4	-1E+10	1	3.7303	4	0.005031	0	-1E+10	1	-1E+10	1	-1E+10	1
4902624	35	C	06/06/2025	10:42	-127.913	48.990	0	5.20	0	11.5010	0	31.8370	0	24.225	0	5.156	0	-1e10	1	-1e10	1	-1E+10	1	3.7011	4	0.005735	0	-1E+10	1	-1E+10	1	-1E+10	1
4902624	35	C	06/06/2025	10:42	-127.913	48.990	0	5.40	0	11.5010	0	31.8370	0	24.225	0	5.354	0	-1e10	1	-1e10	1	-1E+10	1	3.6500	4	0.004761	0	-1E+10	1	-1E+10	1	-1E+10	1
4902624	35	C	06/06/2025	10:42	-127.913	48.990	0	5.60	0	11.5010	0	31.8370	0	24.225	0	5.552	0	-1e10	1	-1e10	1	-1E+10	1	3.4748	4	0.005500	0	-1E+10	1	-1E+10	1	-1E+10	1
4902624	35	C	06/06/2025	10:42	-127.913	48.990	0	5.70	0	11.5009	0	31.8370	0	24.225	0	5.652	0	268.6	4	98.7	4	-1E+10	1	3.6500	4	0.004608	0	-1E+10	1	-1E+10	1	-1E+10	1
4902624	35	C	06/06/2025	10:42	-127.913	48.990	0	5.90	0	11.5007	0	31.8370	0	24.225	0	5.850	0	-1e10	1	-1e10	1	-1E+10	1	3.7595	4	0.005852	0	-1E+10	1	-1E+10	1	-1E+10	1
4902624	35	C	06/06/2025	10:42	-127.913	48.990	0	6.10	0	11.5004	0	31.8370	0	24.225	0	6.048	0	-1e10	1	-1e10	1	-1E+10	1	3.2850	4	0.004479	0	-1E+10	1	-1E+10	1	-1E+10	1
4902624	35	C	06/06/2025	10:42	-127.913	48.990	0	6.30	0	11.5002	0	31.8370	0	24.225	0	6.246	0	-1e10	1	-1e10	1	-1E+10	1	3.9566	4	0.005207	0	-1E+10	1	-1E+10	1	-1E+10	1
4902624	35	C	06/06/2025	10:42	-127.913	48.990	0	6.50	0	11.5000	0	31.8370	0	24.225	0	6.445	0	-1e10	1	-1e10	1	-1E+10	1	-1e10	1	-1e10	1	-1E+10	1	-1E+10	1	-1E+10	1
4902624	35	C	06/06/2025	10:42	-127.913	48.990	0	6.70	0	11.5000	0	31.8370	0	24.225	0	6.643	0	268.3	4	98.6	4	-1E+10	1	3.9420	4	0.005183	0	-1E+10	1	-1E+10	1	-1E+10	1
4902624	35	C	06/06/2025	10:42	-127.913	48.990	0	6.80	0	11.5000	0	31.8370	0	24.225	0	6.742	0	-1e10	1	-1e10	1	-1E+10	1	3.4602	4	0.004374	0	-1E+10	1	-1E+10	1	-1E+10	1
4902624	35	C	06/06/2025	10:42	-127.913	48.990	0	7.00	0	11.5000	0	31.8370	0	24.225	0	6.941	0	-1e10	1	-1e10	1	-1E+10	1	3.4894	4	0.004315	0	-1E+10	1	-1E+10	1	-1E+10	1
4902624	35	C	06/06/2025	10:42	-127.913	48.990	0	7.20	0	11.5000	0	31.8370	0	24.225	0	7.139	0	-1e10	1	-1e10	1	-1E+10	1	3.3142	4	0.004562	0	-1E+10	1	-1E+10	1	-1E+10	1
4902624	35	C	06/06/2025	10:42	-127.913	48.990	0	7.40	0	11.5000	0	31.8370	0	24.225	0	7.337	0	-1e10	1	-1e10	1	-1E+10	1	3.7303	4	0.004784	0	-1E+10	1	-1E+10	1	-1E+10	1
4902624	35	C	06/06/2025	10:42	-127.913	48.990	0	7.50	0	11.5000	0	31.8370	0	24.225	0	7.436	0	-1e10	1	-1e10	1	-1E+10	1	-1e10	1	-1e10	1	-1E+10	1	-1E+10	1	-1E+10	1
4902624	35	C	06/06/2025	10:42	-127.913	48.990	0	7.60	0	11.4999	0	31.8370	0	24.225	0	7.535	0	268.1	4	98.6	4	-1E+10	1	3.7960	4	0.005758	0	-1E+10	1	-1E+10	1	-1E+10	1
4902624	35	C	06/06/2025	10:42	-127.913	48.990	0	7.80	0	11.4997	0	31.8370	0	24.226	0	7.734	0	-1e10	1	-1e10	1	-1E+10	1	3.7157	4	0.005242	0	-1E+10	1	-1E+10	1	-1E+10	1
4902624	35	C	06/06/2025	10:42	-127.913	48.990	0	8.20	0	11.4994	0	31.8370	0	24.226	0	8.130	0	-1e10	1	-1e10	1	-1E+10	1	3.8398	4	0.005019	0	-1E+10	1	-1E+10	1	-1E+10	1
4902624	35	C	06/06/2025	10:42	-127.913	48.990	0	8.40	0	11.4992	0	31.8370	0	24.226	0	8.329	0	-1e10	1	-1e10	1	-1E+10	1	3.4748	4	0.004409	0	-1E+10	1	-1E+10	1	-1E+10	1
4902624	35	C	06/06/2025	10:42	-127.913	48.990	0	8.60	0	11.4990	0	31.8370	0	24.226	0	8.527	0	268.1	4	98.5	4	-1E+10	1	3.4894	4	0.004714	0	-1E+10	1	-1E+10	1	-1E+10	1
4902624	35	C	06/06/2025	10:42	-127.913	48.990	0	8.80	0	11.4990	0	31.8370	0	24.226	0	8.725	0	-1e10	1	-1e10	1	-1E+10	1	4.2486	4	0.004855	0	-1E+10	1	-1E+10	1	-1E+10	1
4902624	35	C	06/06/2025	10:42	-127.913	48.990	0	9.00	0	11.4990	0	31.8370	0	24.226	0	8.923	0	-1e10	1	-1e10	1	-1E+10	1	3.3142	4	0.004127	0	-1E+10	1	-1E+10	1	-1E+10	1
4902624	35	C	06/06/2025	10:42	-127.913	48.990	0	9.20	0	11.4990	0	31.8370	0	24.226	0	9.122	0	-1e10	1	-1e10	1	-1E+10	1	3.7303	4	0.004479	0	-1E+10	1	-1E+10	1	-1E+10	1
4902624	35	C	06/06/2025	10:42	-127.913	48.990	0	9.40	0	11.4990	0	31.8370	0	24.226	0	9.320	0	-1e10	1	-1e10	1	-1E+10	1	3.6865	4	0.004585	0	-1E+10	1	-1E+10	1	-1E+10	1
4902624	35	C	06/06/2025	10:42	-127.913	48.990	0	9.60	0	11.4990	0	31.8370	0	24.226	0	9.518	0	-1e10	1	-1e10	1	-1E+10	1	-1e10	1	-1e10	1	-1E+10	1	-1E+10	1	-1E+10	1
4902624	35	C	06/06/2025	10:42	-127.913	48.990	0	9.70	0	11.4989	0	31.8370	0	24.226	0	9.618	0	267.9	4	98.5	4	-1E+10	1	3.5697	4	0.004444	0	-1E+10	1	-1E+10	1	-1E+10	1
4902624	35	C	06/06/2025	10:42	-127.913	48.990	0	10.50	0	11.4983	0	31.8370	0	24.226	0	10.411	0	267.5	4	98.3	4	-1E+10	1	3.6273	4	0.004653	0	-1E+10	1	-1E+10	1	-1E+10	1
4902624	35	C	06/06/2025	10:42	-127.913	48.990	0	10.90	0	11.4980	0	31.8370	0	24.226	0	10.807	0	-1e10	1	-1e10	1	-1E+10	1	-1e10	1	-1e10	1	-1E+10	1	-1E+10	1	-1E+10	1
4902624	35	C	06/06/2025	10:42	-127.913	48.990	0	11.50	0	11.4977	0	31.8370	0	24.226	0	11.402	0	267.3	4	98.2	4	-1E+10	1	3.4602	4	0.004591	0	-1E+10	1	-1E+10	1	-1E+10	1
4902624	35	C	06/06/2025	10:42	-127.913	48.990	0	12.50	0	11.4972	0	31.8370	0	24.226	0	12.394	0	266.9	4	98.1	4	-1E+10	1	3.5390	4	0.004747	0	-1E+10	1	-1E+10	1	-1E+10	1
4902624	35	C	06/06/2025	10:42	-127.913	48.990	0	13.00	0	11.4970	0	31.8370	0	24.226	0	12.889	0	-1e10	1	-1e10	1	-1E+10	1	-1e10	1	-1e10	1	-1E+10	1	-1E+10	1	-1E+10	1
4902624	35	C	06/06/2025	10:42	-127.913	48.990	0	13.40	0	11.4970	0	31.8370	0	24.226	0	13.286	0	266.6	4	98.0	4	-1E+10	1	3.5064	4	0.004671	0	-1E+10	1	-1E+10	1	-1E+10	1
4902624	35	C	06/06/2025	10:42	-127.913	48.990	0	14.40	0	11.4970	0	31.8370	0	24.226	0	14.277	0	266.1	4	97.8	4	-1E+10	1	3.4772	4	0.004601	0	-1E+10	1	-1E+10	1	-1E+10	1
4902624	35	C	06/06/2025	10:42	-127.913	48.990	0	15.00	0	11.4970	0	31.8370	0	24.226	0	14.872	0	-1e10	1	-1e10	1	-1E+10	1	-1e10	1	-1e10	1	-1E+10	1	-1E+10	1	-1E+10	1
4902624	35	C	06/06/2025	10:42	-127.913	48.990	0	15.40	0	11.4968	0	31.8372	0	24.226	0	15.269	0	265.9	4	97.7	4	-1E+10	1	3.6175	4	0.004739	0	-1E+10	1	-1E+10	1	-1E+10	1
4902624	35	C	06/06/2025	10:42	-127.913	48.990	0	16.30	0	11.4964	0	31.8377	0	24.227	0	16.161	0	265.3	4	97.5	4	-1E+10	1	3.7668	4	0.004374	0	-1E+10	1	-1E+10	1	-1E+10	1
4902624	35	C	06/06/2025	10:42	-127.913	48.990	0	17.00	0	11.4960	0	31.8380	0	24.227	0	16.855	0	-1e10	1	-1e10	1	-1E+10	1	-1e10	1	-1e10	1	-1E+10	1	-1E+10	1	-1E+10	1
4902624	35	C	06/06/2025	10:42	-127.913	48.990	0	17.20	0	11.4958	0	31.8380	0	24.227	0	17.053	0	264.9	4	97.4	4	-1E+10	1	3.9785	4	0.004174	0	-1E+10	1	-1E+10	1	-1E+10	1
4902624	35	C	06/06/2025	10:42	-127.913	48.990	0	18.10	0	11.4949	0	31.8380	0	24.227	0	17.946	0	264.5	4	97.2	4	-1E+10	1	3.7038	4	0.004769	0	-1E+10	1	-1E+10	1	-1E+10	1
4902624	35	C	06/06/2025	10:42	-127.913	48.990	0	19.00	0	11.4940	0	31.8380	0	24.228	0	18.838	0	263.9	4	97.0	4	-1E+10	1	3.6381	4	0.005141	0	-1E+10	1	-1E+10	1	-1E+10	1
4902624	35	C	06/06/2025	10:42	-127.913	48.990	0	19.90	0	11.4922	0	31.8380	0	24.228	0	19.730	0	263.1	4	96.7	4	-1E+10	1	3.8017	4	0.004906	0	-1E+10	1	-1E+10	1	-1E+10	1
4902624	35	C	06/06/2025	10:42	-127.913	48.990	0	20.90	0	11.4902	0	31.8380	0	24.228	0	20.722	0	262.6	4	96.5	4	-1E+10	1	3.8945	4	0.005037	0	-1E+10	1	-1E+10	1	-1E+10	1
4902624	35	C	06/06/2025	10:42	-127.913	48.990	0	21.00	0	11.4900	0	31.8380	0	24.228	0	20.821	0	-1e10	1	-1e10	1	-1E+10	1	-1e10	1	-1e10	1	-1E+10	1	-1E+10	1	-1E+10	1
4902624	35	C	06/06/2025	10:42	-127.913	48.990	0	21.80	0	11.4889	0	31.8380	0	24.229	0	21.614	0	261.8	4	96.2	4	-1E+10	1	3.7787	4	0.005183	0	-1E+10	1	-1E+10	1	-1E+10	1
4902624	35	C	06/06/2025	10:42	-127.913	48.990	0	22.80	0	11.4874	0	31.8380	0	24.229	0	22.605	0	261.3	4	96.0	4	-1E+10	1	3.5814	4	0.004343	0	-1E+10	1	-1E+10	1	-1E+10	1
4902624	35	C	06/06/2025	10:42	-127.913	48.990	0	23.10	0	11.4870	0	31.8380	0	24.229	0	22.903	0	-1e10	1	-1e10	1	-1E+10	1	-1e10	1	-1e10	1	-1E+10	1	-1E+10	1	-1E+10	1
4902624	35	C	06/06/2025	10:42	-127.913	48.990	0	23.70	0	11.4831	0	31.8386	0	24.230	0	23.498	0	260.3	4	95.6	4	-1E+10	1	3.6597	4	0.004335	0	-1E+10	1	-1E+10	1	-1E+10	1
4902624	35	C	06/06/2025	10:42	-127.913	48.990	0	24.80	0	11.4760	0	31.8397	0	24.232	0	24.588	0	259.1	4	95.2	4	-1E+10	1	4.3289	4	0.008163	0	-1E+10	1	-1E+10	1	-1E+10	1
4902624	35	C	06/06/2025	10:42	-127.913	48.990	0	25.10	0	11.4740	0	31.8400	0	24.233	0	24.886	0	-1e10	1	-1e10	1	-1E+10	1	-1e10	1	-1e10	1	-1E+10	1	-1E+10	1	-1E+10	1
4902624	35	C	06/06/2025	10:42	-127.913	48.990	0	25.80	0	11.4655	0	31.8411	0	24.235	0	25.580	0	258.1	4	94.8	4	-1E+10	1	3.7206	4	0.004771	0	-1E+10	1	-1E+10	1	-1E+10	1
4902624	35	C	06/06/2025	10:42	-127.913	48.990	0	26.70	0	11.4546	0	31.8425	0	24.238	0	26.472	0	257.1	4	94.4	4	-1E+10	1	3.4456	4	0.004010	0	-1E+10	1	-1E+10	1	-1E+10	1
4902624	35	C	06/06/2025	10:42	-127.913	48.990	0	27.00	0	11.4510	0	31.8430	0	24.239	0	26.769	0	-1e10	1	-1e10	1	-1E+10	1	-1e10	1	-1e10	1	-1E+10	1	-1E+10	1	-1E+10	1
4902624	35	C	06/06/2025	10:42	-127.913	48.990	0	27.70	0	11.4402	0	31.8437	0	24.242	0	27.463	0	256.0	4	94.0	4	-1E+10	1	2.8324	4	0.003549	0	-1E+10	1	-1E+10	1	-1E+10	1
4902624	35	C	06/06/2025	10:42	-127.913	48.990	0	28.70	0	11.4247	0	31.8447	0	24.245	0	28.455	0	254.9	4	93.5	4	-1E+10	1	3.2157	4	0.004397	0	-1E+10	1	-1E+10	1	-1E+10	1
4902624	35	C	06/06/2025	10:42	-127.913	48.990	0	29.00	0	11.4200	0	31.8450	0	24.246	0	28.752	0	-1e10	1	-1e10	1	-1E+10	1	-1e10	1	-1e10	1	-1E+10	1	-1E+10	1	-1E+10	1
4902624	35	C	06/06/2025	10:42	-127.913	48.990	0	29.70	0	11.4078	0	31.8472	0	24.250	0	29.446	0	253.7	4	93.1	4	-1E+10	1	3.9031	4	0.004870	0	-1E+10	1	-1E+10	1	-1E+10	1
4902624	35	C	06/06/2025	10:42	-127.913	48.990	0	30.60	0	11.3922	0	31.8501	0	24.255	0	30.338	0	252.6	4	92.6	4	-1E+10	1	3.7150	4	0.005006	0	-1E+10	1	-1E+10	1	-1E+10	1
4902624	35	C	06/06/2025	10:42	-127.913	48.990	0	30.90	0	11.3870	0	31.8510	0	24.257	0	30.636	0	-1e10	1	-1e10	1	-1E+10	1	-1e10	1	-1e10	1	-1E+10	1	-1E+10	1	-1E+10	1
4902624	35	C	06/06/2025	10:42	-127.913	48.990	0	31.50	0	11.3796	0	31.8553	0	24.262	0	31.230	0	251.4	4	92.2	4	-1E+10	1	3.3062	4	0.006373	0	-1E+10	1	-1E+10	1	-1E+10	1
4902624	35	C	06/06/2025	10:42	-127.913	48.990	0	32.40	0	11.3684	0	31.8617	0	24.269	0	32.123	0	250.2	4	91.7	4	-1E+10	1	3.1390	4	0.005605	0	-1E+10	1	-1E+10	1	-1E+10	1
4902624	35	C	06/06/2025	10:42	-127.913	48.990	0	33.00	0	11.3610	0	31.8660	0	24.273	0	32.717	0	-1e10	1	-1e10	1	-1E+10	1	-1e10	1	-1e10	1	-1E+10	1	-1E+10	1	-1E+10	1
4902624	35	C	06/06/2025	10:42	-127.913	48.990	0	33.40	0	11.3488	0	31.8872	0	24.292	0	33.114	0	248.8	4	91.2	4	-1E+10	1	2.4017	4	0.003447	0	-1E+10	1	-1E+10	1	-1E+10	1
4902624	35	C	06/06/2025	10:42	-127.913	48.990	0	34.40	0	11.3183	0	31.9402	0	24.339	0	34.105	0	247.3	4	90.6	4	-1E+10	1	1.5561	4	0.002274	0	-1E+10	1	-1E+10	1	-1E+10	1
4902624	35	C	06/06/2025	10:42	-127.913	48.990	0	35.00	0	11.3000	0	31.9720	0	24.367	0	34.700	0	-1e10	1	-1e10	1	-1E+10	1	-1e10	1	-1e10	1	-1E+10	1	-1E+10	1	-1E+10	1
4902624	35	C	06/06/2025	10:42	-127.913	48.990	0	35.40	0	11.2886	0	31.9910	0	24.384	0	35.097	0	246.4	4	90.3	4	-1E+10	1	0.9295	4	0.001460	0	-1E+10	1	-1E+10	1	-1E+10	1
4902624	35	C	06/06/2025	10:42	-127.913	48.990	0	36.40	0	11.2601	0	32.0385	0	24.426	0	36.088	0	245.5	4	89.9	4	-1E+10	1	0.6395	4	0.001094	0	-1E+10	1	-1E+10	1	-1E+10	1
4902624	35	C	06/06/2025	10:42	-127.913	48.990	0	37.00	0	11.2430	0	32.0670	0	24.451	0	36.683	0	-1e10	1	-1e10	1	-1E+10	1	-1e10	1	-1e10	1	-1E+10	1	-1E+10	1	-1E+10	1
4902624	35	C	06/06/2025	10:42	-127.913	48.990	0	37.40	0	11.2366	0	32.0683	0	24.453	0	37.079	0	244.4	4	89.5	4	-1E+10	1	0.5621	4	0.001013	0	-1E+10	1	-1E+10	1	-1E+10	1
4902624	35	C	06/06/2025	10:42	-127.913	48.990	0	38.40	0	11.2207	0	32.0715	0	24.458	0	38.071	0	243.3	4	89.1	4	-1E+10	1	0.5159	4	0.000936	0	-1E+10	1	-1E+10	1	-1E+10	1
4902624	35	C	06/06/2025	10:42	-127.913	48.990	0	39.20	0	11.2080	0	32.0740	0	24.462	0	38.864	0	-1e10	1	-1e10	1	-1E+10	1	-1e10	1	-1e10	1	-1E+10	1	-1E+10	1	-1E+10	1
4902624	35	C	06/06/2025	10:42	-127.913	48.990	0	39.40	0	11.1946	0	32.0750	0	24.466	0	39.062	0	242.0	4	88.5	4	-1E+10	1	0.4980	4	0.000837	0	-1E+10	1	-1E+10	1	-1E+10	1
4902624	35	C	06/06/2025	10:42	-127.913	48.990	0	40.30	0	11.1341	0	32.0795	0	24.480	0	39.954	0	240.7	4	88.0	4	-1E+10	1	0.4957	4	0.000802	0	-1E+10	1	-1E+10	1	-1E+10	1
4902624	35	C	06/06/2025	10:42	-127.913	48.990	0	41.00	0	11.0870	0	32.0830	0	24.491	0	40.648	0	-1e10	1	-1e10	1	-1E+10	1	-1e10	1	-1e10	1	-1E+10	1	-1E+10	1	-1E+10	1
4902624	35	C	06/06/2025	10:42	-127.913	48.990	0	41.20	0	11.0632	0	32.0849	0	24.497	0	40.846	0	239.6	4	87.4	4	-1E+10	1	0.4599	4	0.000725	0	-1E+10	1	-1E+10	1	-1E+10	1
4902624	35	C	06/06/2025	10:42	-127.913	48.990	0	42.20	0	10.9442	0	32.0944	0	24.525	0	41.838	0	238.2	4	86.7	4	-1E+10	1	0.4307	4	0.000749	0	-1E+10	1	-1E+10	1	-1E+10	1
4902624	35	C	06/06/2025	10:42	-127.913	48.990	0	43.00	0	10.8490	0	32.1020	0	24.547	0	42.631	0	236.8	4	86.0	4	-1E+10	1	0.4818	4	0.000701	0	-1E+10	1	-1E+10	1	-1E+10	1
4902624	35	C	06/06/2025	10:42	-127.913	48.990	0	44.00	0	10.6390	0	32.1110	0	24.591	0	43.622	0	235.9	4	85.3	4	-1E+10	1	0.4380	4	0.000983	0	-1E+10	1	-1E+10	1	-1E+10	1
4902624	35	C	06/06/2025	10:42	-127.913	48.990	0	44.50	0	10.5340	0	32.1155	0	24.612	0	44.118	0	235.1	4	84.8	4	-1E+10	1	0.4380	4	0.000883	0	-1E+10	1	-1E+10	1	-1E+10	1
4902624	35	C	06/06/2025	10:42	-127.913	48.990	0	45.00	0	10.4290	0	32.1200	0	24.633	0	44.613	0	233.1	4	83.9	4	-1E+10	1	0.4643	4	0.000864	0	-1E+10	1	-1E+10	1	-1E+10	1
4902624	35	C	06/06/2025	10:42	-127.913	48.990	0	45.60	0	10.2253	0	32.1317	0	24.677	0	45.208	0	232.6	4	83.4	4	-1E+10	1	0.4401	4	0.000744	0	-1E+10	1	-1E+10	1	-1E+10	1
4902624	35	C	06/06/2025	10:42	-127.913	48.990	0	46.10	0	10.0555	0	32.1414	0	24.713	0	45.704	0	231.8	4	82.8	4	-1E+10	1	0.4672	4	0.000630	0	-1E+10	1	-1E+10	1	-1E+10	1
4902624	35	C	06/06/2025	10:42	-127.913	48.990	0	46.80	0	9.8179	0	32.1551	0	24.762	0	46.398	0	231.2	4	82.1	4	-1E+10	1	0.5590	4	0.000589	0	-1E+10	1	-1E+10	1	-1E+10	1
4902624	35	C	06/06/2025	10:42	-127.913	48.990	0	47.00	0	9.7500	0	32.1590	0	24.776	0	46.596	0	-1e10	1	-1e10	1	-1E+10	1	-1e10	1	-1e10	1	-1E+10	1	-1E+10	1	-1E+10	1
4902624	35	C	06/06/2025	10:42	-127.913	48.990	0	47.40	0	9.7222	0	32.1634	0	24.784	0	46.993	0	230.0	4	81.6	4	-1E+10	1	0.4134	4	0.000663	0	-1E+10	1	-1E+10	1	-1E+10	1
4902624	35	C	06/06/2025	10:42	-127.913	48.990	0	48.10	0	9.6735	0	32.1711	0	24.798	0	47.686	0	228.9	4	81.1	4	-1E+10	1	0.3431	4	0.001300	0	-1E+10	1	-1E+10	1	-1E+10	1
4902624	35	C	06/06/2025	10:42	-127.913	48.990	0	48.90	0	9.6180	0	32.1799	0	24.814	0	48.480	0	227.3	4	80.4	4	-1E+10	1	0.3139	4	0.000526	0	-1E+10	1	-1E+10	1	-1E+10	1
4902624	35	C	06/06/2025	10:42	-127.913	48.990	0	49.00	0	9.6110	0	32.1810	0	24.816	0	48.579	0	-1e10	1	-1e10	1	-1E+10	1	-1e10	1	-1e10	1	-1E+10	1	-1E+10	1	-1E+10	1
4902624	35	C	06/06/2025	10:42	-127.913	48.990	0	49.60	0	9.5927	0	32.1908	0	24.827	0	49.173	0	225.7	4	79.8	4	-1E+10	1	0.3650	4	0.000561	0	-1E+10	1	-1E+10	1	-1E+10	1
4902624	35	C	06/06/2025	10:42	-127.913	48.990	0	50.30	0	9.5714	0	32.2023	0	24.839	0	49.867	0	224.0	4	79.2	4	-1E+10	1	0.3190	4	0.000503	0	-1E+10	1	-1E+10	1	-1E+10	1
4902624	35	C	06/06/2025	10:42	-127.913	48.990	0	51.00	0	9.5501	0	32.2137	0	24.852	0	50.561	0	221.9	4	78.4	4	-1E+10	1	0.3090	4	0.000473	0	-1E+10	1	-1E+10	1	-1E+10	1
4902624	35	C	06/06/2025	10:42	-127.913	48.990	0	51.20	0	9.5440	0	32.2170	0	24.855	0	50.759	0	-1e10	1	-1e10	1	-1E+10	1	-1e10	1	-1e10	1	-1E+10	1	-1E+10	1	-1E+10	1
4902624	35	C	06/06/2025	10:42	-127.913	48.990	0	51.80	0	9.4890	0	32.2227	0	24.868	0	51.354	0	220.2	4	77.7	4	-1E+10	1	0.3103	4	0.000467	0	-1E+10	1	-1E+10	1	-1E+10	1
4902624	35	C	06/06/2025	10:42	-127.913	48.990	0	52.60	0	9.4157	0	32.2302	0	24.886	0	52.147	0	218.3	4	77.0	4	-1E+10	1	0.2920	4	0.000456	0	-1E+10	1	-1E+10	1	-1E+10	1
4902624	35	C	06/06/2025	10:42	-127.913	48.990	0	53.00	0	9.3790	0	32.2340	0	24.895	0	52.544	0	-1e10	1	-1e10	1	-1E+10	1	-1e10	1	-1e10	1	-1E+10	1	-1E+10	1	-1E+10	1
4902624	35	C	06/06/2025	10:42	-127.913	48.990	0	53.40	0	9.3744	0	32.2400	0	24.900	0	52.940	0	216.6	4	76.3	4	-1E+10	1	0.2920	4	0.000429	0	-1E+10	1	-1E+10	1	-1E+10	1
4902624	35	C	06/06/2025	10:42	-127.913	48.990	0	54.30	0	9.3640	0	32.2535	0	24.912	0	53.832	0	214.9	4	75.7	4	-1E+10	1	0.2920	4	0.000408	0	-1E+10	1	-1E+10	1	-1E+10	1
4902624	35	C	06/06/2025	10:42	-127.913	48.990	0	55.00	0	9.3560	0	32.2640	0	24.922	0	54.526	0	-1e10	1	-1e10	1	-1E+10	1	-1e10	1	-1e10	1	-1E+10	1	-1E+10	1	-1E+10	1
4902624	35	C	06/06/2025	10:42	-127.913	48.990	0	55.10	0	9.3538	0	32.2669	0	24.924	0	54.625	0	213.1	4	75.0	4	-1E+10	1	0.2628	4	0.000373	0	-1E+10	1	-1E+10	1	-1E+10	1
4902624	35	C	06/06/2025	10:42	-127.913	48.990	0	56.00	0	9.3340	0	32.2930	0	24.948	0	55.518	0	210.7	4	74.2	4	-1E+10	1	0.2449	4	0.000411	0	-1E+10	1	-1E+10	1	-1E+10	1
4902624	35	C	06/06/2025	10:42	-127.913	48.990	0	56.90	0	9.3142	0	32.3191	0	24.972	0	56.410	0	208.3	4	73.3	4	-1E+10	1	0.2223	4	0.000390	0	-1E+10	1	-1E+10	1	-1E+10	1
4902624	35	C	06/06/2025	10:42	-127.913	48.990	0	57.00	0	9.3120	0	32.3220	0	24.974	0	56.509	0	-1e10	1	-1e10	1	-1E+10	1	-1e10	1	-1e10	1	-1E+10	1	-1E+10	1	-1E+10	1
4902624	35	C	06/06/2025	10:42	-127.913	48.990	0	57.90	0	9.2997	0	32.3395	0	24.990	0	57.401	0	205.7	4	72.4	4	-1E+10	1	0.1986	4	0.000380	0	-1E+10	1	-1E+10	1	-1E+10	1
4902624	35	C	06/06/2025	10:42	-127.913	48.990	0	58.90	0	9.2860	0	32.3590	0	25.007	0	58.392	0	201.6	4	70.9	4	-1E+10	1	0.1971	4	0.000426	0	-1E+10	1	-1E+10	1	-1E+10	1
4902624	35	C	06/06/2025	10:42	-127.913	48.990	0	59.90	0	9.2840	0	32.3705	0	25.017	0	59.383	0	199.8	4	70.3	4	-1E+10	1	0.2020	4	0.000443	0	-1E+10	1	-1E+10	1	-1E+10	1
4902624	35	C	06/06/2025	10:42	-127.913	48.990	0	60.90	0	9.2820	0	32.3820	0	25.026	0	60.375	0	195.2	4	68.7	4	-1E+10	1	0.1927	4	0.000415	0	-1E+10	1	-1E+10	1	-1E+10	1
4902624	35	C	06/06/2025	10:42	-127.913	48.990	0	61.90	0	9.2355	0	32.4135	0	25.058	0	61.366	0	193.1	4	67.9	4	-1E+10	1	0.1788	4	0.000466	0	-1E+10	1	-1E+10	1	-1E+10	1
4902624	35	C	06/06/2025	10:42	-127.913	48.990	0	62.90	0	9.1890	0	32.4450	0	25.090	0	62.357	0	187.9	4	66.0	4	-1E+10	1	0.1971	4	0.000346	0	-1E+10	1	-1E+10	1	-1E+10	1
4902624	35	C	06/06/2025	10:42	-127.913	48.990	0	64.00	0	9.1387	0	32.4864	0	25.130	0	63.447	0	185.8	4	65.2	4	-1E+10	1	0.1971	4	0.000386	0	-1E+10	1	-1E+10	1	-1E+10	1
4902624	35	C	06/06/2025	10:42	-127.913	48.990	0	65.00	0	9.0930	0	32.5240	0	25.167	0	64.439	0	-1e10	1	-1e10	1	-1E+10	1	-1e10	1	-1e10	1	-1E+10	1	-1E+10	1	-1E+10	1
4902624	35	C	06/06/2025	10:42	-127.913	48.990	0	65.20	0	9.0871	0	32.5308	0	25.173	0	64.637	0	182.7	4	64.1	4	-1E+10	1	0.2031	4	0.000425	0	-1E+10	1	-1E+10	1	-1E+10	1
4902624	35	C	06/06/2025	10:42	-127.913	48.990	0	66.40	0	9.0517	0	32.5713	0	25.210	0	65.826	0	180.3	4	63.2	4	-1E+10	1	0.2044	4	0.000406	0	-1E+10	1	-1E+10	1	-1E+10	1
4902624	35	C	06/06/2025	10:42	-127.913	48.990	0	67.10	0	9.0310	0	32.5950	0	25.232	0	66.520	0	-1e10	1	-1e10	1	-1E+10	1	-1e10	1	-1e10	1	-1E+10	1	-1E+10	1	-1E+10	1
4902624	35	C	06/06/2025	10:42	-127.913	48.990	0	67.50	0	9.0224	0	32.6068	0	25.242	0	66.917	0	177.9	4	62.3	4	-1E+10	1	0.1971	4	0.000396	0	-1E+10	1	-1E+10	1	-1E+10	1
4902624	35	C	06/06/2025	10:42	-127.913	48.990	0	68.70	0	8.9966	0	32.6422	0	25.274	0	68.106	0	175.2	4	61.4	4	-1E+10	1	0.1807	4	0.000372	0	-1E+10	1	-1E+10	1	-1E+10	1
4902624	35	C	06/06/2025	10:42	-127.913	48.990	0	69.10	0	8.9880	0	32.6540	0	25.285	0	68.502	0	-1e10	1	-1e10	1	-1E+10	1	-1e10	1	-1e10	1	-1E+10	1	-1E+10	1	-1E+10	1
4902624	35	C	06/06/2025	10:42	-127.913	48.990	0	69.90	0	8.9691	0	32.6797	0	25.308	0	69.295	0	172.7	4	60.5	4	-1E+10	1	0.1679	4	0.000342	0	-1E+10	1	-1E+10	1	-1E+10	1
4902624	35	C	06/06/2025	10:42	-127.913	48.990	0	71.00	0	8.9430	0	32.7150	0	25.340	0	70.386	0	-1e10	1	-1e10	1	-1E+10	1	-1e10	1	-1e10	1	-1E+10	1	-1E+10	1	-1E+10	1
4902624	35	C	06/06/2025	10:42	-127.913	48.990	0	71.10	0	8.9412	0	32.7169	0	25.341	0	70.485	0	170.1	4	59.6	4	-1E+10	1	0.1689	4	0.000353	0	-1E+10	1	-1E+10	1	-1E+10	1
4902624	35	C	06/06/2025	10:42	-127.913	48.990	0	72.30	0	8.9196	0	32.7390	0	25.362	0	71.674	0	167.7	4	58.7	4	-1E+10	1	0.1752	4	0.000373	0	-1E+10	1	-1E+10	1	-1E+10	1
4902624	35	C	06/06/2025	10:42	-127.913	48.990	0	73.00	0	8.9070	0	32.7520	0	25.374	0	72.368	0	-1e10	1	-1e10	1	-1E+10	1	-1e10	1	-1e10	1	-1E+10	1	-1E+10	1	-1E+10	1
4902624	35	C	06/06/2025	10:42	-127.913	48.990	0	73.40	0	8.8966	0	32.7642	0	25.385	0	72.765	0	165.4	4	57.9	4	-1E+10	1	0.1679	4	0.000361	0	-1E+10	1	-1E+10	1	-1E+10	1
4902624	35	C	06/06/2025	10:42	-127.913	48.990	0	74.60	0	8.8654	0	32.8008	0	25.419	0	73.954	0	163.2	4	57.1	4	-1E+10	1	0.1554	4	0.000361	0	-1E+10	1	-1E+10	1	-1E+10	1
4902624	35	C	06/06/2025	10:42	-127.913	48.990	0	75.00	0	8.8550	0	32.8130	0	25.430	0	74.350	0	-1e10	1	-1e10	1	-1E+10	1	-1e10	1	-1e10	1	-1E+10	1	-1E+10	1	-1E+10	1
4902624	35	C	06/06/2025	10:42	-127.913	48.990	0	75.70	0	8.8452	0	32.8252	0	25.441	0	75.044	0	160.7	4	56.2	4	-1E+10	1	0.1482	4	0.000345	0	-1E+10	1	-1E+10	1	-1E+10	1
4902624	35	C	06/06/2025	10:42	-127.913	48.990	0	76.70	0	8.8312	0	32.8428	0	25.457	0	76.035	0	158.1	4	55.3	4	-1E+10	1	0.1416	4	0.000345	0	-1E+10	1	-1E+10	1	-1E+10	1
4902624	35	C	06/06/2025	10:42	-127.913	48.990	0	77.00	0	8.8270	0	32.8480	0	25.462	0	76.333	0	-1e10	1	-1e10	1	-1E+10	1	-1e10	1	-1e10	1	-1E+10	1	-1E+10	1	-1E+10	1
4902624	35	C	06/06/2025	10:42	-127.913	48.990	0	77.60	0	8.8069	0	32.8738	0	25.485	0	76.927	0	155.8	4	54.4	4	-1E+10	1	0.1387	4	0.000361	0	-1E+10	1	-1E+10	1	-1E+10	1
4902624	35	C	06/06/2025	10:42	-127.913	48.990	0	78.40	0	8.7801	0	32.9082	0	25.516	0	77.720	0	153.8	4	53.7	4	-1E+10	1	0.1365	4	0.000369	0	-1E+10	1	-1E+10	1	-1E+10	1
4902624	35	C	06/06/2025	10:42	-127.913	48.990	0	79.00	0	8.7600	0	32.9340	0	25.539	0	78.315	0	-1e10	1	-1e10	1	-1E+10	1	-1e10	1	-1e10	1	-1E+10	1	-1E+10	1	-1E+10	1
4902624	35	C	06/06/2025	10:42	-127.913	48.990	0	79.20	0	8.7502	0	32.9459	0	25.550	0	78.513	0	152.0	4	53.1	4	-1E+10	1	0.1278	4	0.000357	0	-1E+10	1	-1E+10	1	-1E+10	1
4902624	35	C	06/06/2025	10:42	-127.913	48.990	0	80.00	0	8.7111	0	32.9935	0	25.593	0	79.306	0	151.1	4	52.7	4	-1E+10	1	0.1022	4	0.000334	0	-1E+10	1	-1E+10	1	-1E+10	1
4902624	35	C	06/06/2025	10:42	-127.913	48.990	0	80.90	0	8.6670	0	33.0470	0	25.642	0	80.198	0	148.5	4	51.8	4	-1E+10	1	0.1022	4	0.000402	0	-1E+10	1	-1E+10	1	-1E+10	1
4902624	35	C	06/06/2025	10:42	-127.913	48.990	0	81.70	0	8.6643	0	33.0527	0	25.647	0	80.991	0	149.6	4	52.2	4	-1E+10	1	0.1022	4	0.000360	0	-1E+10	1	-1E+10	1	-1E+10	1
4902624	35	C	06/06/2025	10:42	-127.913	48.990	0	82.50	0	8.6617	0	33.0584	0	25.652	0	81.784	0	148.8	4	51.9	4	-1E+10	1	0.1022	4	0.000349	0	-1E+10	1	-1E+10	1	-1E+10	1
4902624	35	C	06/06/2025	10:42	-127.913	48.990	0	83.00	0	8.6600	0	33.0620	0	25.655	0	82.279	0	-1e10	1	-1e10	1	-1E+10	1	-1e10	1	-1e10	1	-1E+10	1	-1E+10	1	-1E+10	1
4902624	35	C	06/06/2025	10:42	-127.913	48.990	0	83.30	0	8.6603	0	33.0628	0	25.656	0	82.577	0	148.1	4	51.7	4	-1E+10	1	0.1119	4	0.000326	0	-1E+10	1	-1E+10	1	-1E+10	1
4902624	35	C	06/06/2025	10:42	-127.913	48.990	0	84.10	0	8.6612	0	33.0649	0	25.657	0	83.370	0	147.3	4	51.4	4	-1E+10	1	0.1095	4	0.000326	0	-1E+10	1	-1E+10	1	-1E+10	1
4902624	35	C	06/06/2025	10:42	-127.913	48.990	0	84.90	0	8.6620	0	33.0670	0	25.659	0	84.163	0	144.4	4	50.4	4	-1E+10	1	0.1049	4	0.000368	0	-1E+10	1	-1E+10	1	-1E+10	1
4902624	35	C	06/06/2025	10:42	-127.913	48.990	0	85.70	0	8.6580	0	33.0738	0	25.665	0	84.955	0	145.1	4	50.6	4	-1E+10	1	0.1073	4	0.000395	0	-1E+10	1	-1E+10	1	-1E+10	1
4902624	35	C	06/06/2025	10:42	-127.913	48.990	0	86.50	0	8.6540	0	33.0806	0	25.671	0	85.748	0	143.7	4	50.1	4	-1E+10	1	0.1007	4	0.000340	0	-1E+10	1	-1E+10	1	-1E+10	1
4902624	35	C	06/06/2025	10:42	-127.913	48.990	0	86.90	0	8.6520	0	33.0840	0	25.674	0	86.145	0	-1e10	1	-1e10	1	-1E+10	1	-1e10	1	-1e10	1	-1E+10	1	-1E+10	1	-1E+10	1
4902624	35	C	06/06/2025	10:42	-127.913	48.990	0	87.40	0	8.6357	0	33.1010	0	25.689	0	86.640	0	142.0	4	49.5	4	-1E+10	1	0.0876	4	0.000361	0	-1E+10	1	-1E+10	1	-1E+10	1
4902624	35	C	06/06/2025	10:42	-127.913	48.990	0	88.30	0	8.6065	0	33.1316	0	25.718	0	87.532	0	140.4	4	48.9	4	-1E+10	1	0.0803	4	0.000326	0	-1E+10	1	-1E+10	1	-1E+10	1
4902624	35	C	06/06/2025	10:42	-127.913	48.990	0	88.90	0	8.5870	0	33.1520	0	25.737	0	88.127	0	-1e10	1	-1e10	1	-1E+10	1	-1e10	1	-1e10	1	-1E+10	1	-1E+10	1	-1E+10	1
4902624	35	C	06/06/2025	10:42	-127.913	48.990	0	89.30	0	8.5778	0	33.1614	0	25.746	0	88.523	0	138.6	4	48.3	4	-1E+10	1	0.0803	4	0.000302	0	-1E+10	1	-1E+10	1	-1E+10	1
4902624	35	C	06/06/2025	10:42	-127.913	48.990	0	90.10	0	8.5594	0	33.1802	0	25.763	0	89.316	0	137.5	4	47.9	4	-1E+10	1	0.0909	4	0.000336	0	-1E+10	1	-1E+10	1	-1E+10	1
4902624	35	C	06/06/2025	10:42	-127.913	48.990	0	90.90	0	8.5410	0	33.1990	0	25.781	0	90.109	0	134.5	4	46.8	4	-1E+10	1	0.0868	4	0.000369	0	-1E+10	1	-1E+10	1	-1E+10	1
4902624	35	C	06/06/2025	10:42	-127.913	48.990	0	91.90	0	8.5400	0	33.2138	0	25.792	0	91.100	0	135.2	4	47.1	4	-1E+10	1	0.0883	4	0.000340	0	-1E+10	1	-1E+10	1	-1E+10	1
4902624	35	C	06/06/2025	10:42	-127.913	48.990	0	92.80	0	8.5392	0	33.2270	0	25.803	0	91.992	0	133.9	4	46.6	4	-1E+10	1	0.0861	4	0.000330	0	-1E+10	1	-1E+10	1	-1E+10	1
4902624	35	C	06/06/2025	10:42	-127.913	48.990	0	93.00	0	8.5390	0	33.2300	0	25.805	0	92.190	0	-1e10	1	-1e10	1	-1E+10	1	-1e10	1	-1e10	1	-1E+10	1	-1E+10	1	-1E+10	1
4902624	35	C	06/06/2025	10:42	-127.913	48.990	0	93.70	0	8.5267	0	33.2440	0	25.818	0	92.884	0	132.9	4	46.3	4	-1E+10	1	0.0730	4	0.000490	0	-1E+10	1	-1E+10	1	-1E+10	1
4902624	35	C	06/06/2025	10:42	-127.913	48.990	0	94.70	0	8.5092	0	33.2640	0	25.836	0	93.875	0	131.9	4	45.9	4	-1E+10	1	0.0706	4	0.000592	0	-1E+10	1	-1E+10	1	-1E+10	1
4902624	35	C	06/06/2025	10:42	-127.913	48.990	0	95.00	0	8.5040	0	33.2700	0	25.842	0	94.173	0	-1e10	1	-1e10	1	-1E+10	1	-1e10	1	-1e10	1	-1E+10	1	-1E+10	1	-1E+10	1
4902624	35	C	06/06/2025	10:42	-127.913	48.990	0	95.70	0	8.4840	0	33.2826	0	25.855	0	94.866	0	130.8	4	45.5	4	-1E+10	1	0.0657	4	0.000332	0	-1E+10	1	-1E+10	1	-1E+10	1
4902624	35	C	06/06/2025	10:42	-127.913	48.990	0	96.70	0	8.4555	0	33.3006	0	25.873	0	95.857	0	129.7	4	45.1	4	-1E+10	1	0.0657	4	0.000361	0	-1E+10	1	-1E+10	1	-1E+10	1
4902624	35	C	06/06/2025	10:42	-127.913	48.990	0	97.00	0	8.4470	0	33.3060	0	25.879	0	96.155	0	-1e10	1	-1e10	1	-1E+10	1	-1e10	1	-1e10	1	-1E+10	1	-1E+10	1	-1E+10	1
4902624	35	C	06/06/2025	10:42	-127.913	48.990	0	97.80	0	8.4170	0	33.3240	0	25.897	0	96.948	0	128.3	4	44.6	4	-1E+10	1	0.0657	4	0.000361	0	-1E+10	1	-1E+10	1	-1E+10	1
4902624	35	C	06/06/2025	10:42	-127.913	48.990	0	99.00	0	8.3720	0	33.3510	0	25.925	0	98.137	0	125.2	4	43.5	4	-1E+10	1	0.0657	4	0.000341	0	-1E+10	1	-1E+10	1	-1E+10	1
4902624	35	C	06/06/2025	10:42	-127.913	48.990	0	100.10	0	8.3522	0	33.3653	0	25.940	0	99.227	0	126.0	4	43.7	4	-1E+10	1	0.0657	4	0.000337	0	-1E+10	1	-1E+10	1	-1E+10	1
4902624	35	C	06/06/2025	10:42	-127.913	48.990	0	101.00	0	8.3360	0	33.3770	0	25.951	0	100.119	0	-1e10	1	-1e10	1	-1E+10	1	-1e10	1	-1e10	1	-1E+10	1	-1E+10	1	-1E+10	1
4902624	35	C	06/06/2025	10:42	-127.913	48.990	0	101.40	0	8.3292	0	33.3836	0	25.957	0	100.515	0	125.0	4	43.4	4	-1E+10	1	0.0612	4	0.000345	0	-1E+10	1	-1E+10	1	-1E+10	1
4902624	35	C	06/06/2025	10:42	-127.913	48.990	0	102.60	0	8.3088	0	33.4034	0	25.976	0	101.705	0	123.9	4	43.0	4	-1E+10	1	0.0618	4	0.000601	0	-1E+10	1	-1E+10	1	-1E+10	1
4902624	35	C	06/06/2025	10:42	-127.913	48.990	0	103.00	0	8.3020	0	33.4100	0	25.982	0	102.101	0	-1e10	1	-1e10	1	-1E+10	1	-1e10	1	-1e10	1	-1E+10	1	-1E+10	1	-1E+10	1
4902624	35	C	06/06/2025	10:42	-127.913	48.990	0	103.90	0	8.2917	0	33.4229	0	25.994	0	102.993	0	122.9	4	42.6	4	-1E+10	1	0.0608	4	0.000717	0	-1E+10	1	-1E+10	1	-1E+10	1
4902624	35	C	06/06/2025	10:42	-127.913	48.990	0	105.10	0	8.2780	0	33.4400	0	26.009	0	104.182	0	-1e10	1	-1e10	1	-1E+10	1	-1e10	1	-1e10	1	-1E+10	1	-1E+10	1	-1E+10	1
4902624	35	C	06/06/2025	10:42	-127.913	48.990	0	105.20	0	8.2761	0	33.4412	0	26.011	0	104.281	0	122.1	4	42.3	4	-1E+10	1	0.0527	4	0.000380	0	-1E+10	1	-1E+10	1	-1E+10	1
4902624	35	C	06/06/2025	10:42	-127.913	48.990	0	106.50	0	8.2514	0	33.4568	0	26.027	0	105.569	0	121.3	4	42.0	4	-1E+10	1	0.0593	4	0.000403	0	-1E+10	1	-1E+10	1	-1E+10	1
4902624	35	C	06/06/2025	10:42	-127.913	48.990	0	107.10	0	8.2400	0	33.4640	0	26.034	0	106.164	0	-1e10	1	-1e10	1	-1E+10	1	-1e10	1	-1e10	1	-1E+10	1	-1E+10	1	-1E+10	1
4902624	35	C	06/06/2025	10:42	-127.913	48.990	0	107.90	0	8.2213	0	33.4778	0	26.048	0	106.957	0	120.6	4	41.8	4	-1E+10	1	0.0657	4	0.000373	0	-1E+10	1	-1E+10	1	-1E+10	1
4902624	35	C	06/06/2025	10:42	-127.913	48.990	0	108.90	0	8.1980	0	33.4950	0	26.065	0	107.948	0	-1e10	1	-1e10	1	-1E+10	1	-1e10	1	-1e10	1	-1E+10	1	-1E+10	1	-1E+10	1
4902624	35	C	06/06/2025	10:42	-127.913	48.990	0	109.20	0	8.1950	0	33.4973	0	26.067	0	108.245	0	120.1	4	41.6	4	-1E+10	1	0.0598	4	0.000344	0	-1E+10	1	-1E+10	1	-1E+10	1
4902624	35	C	06/06/2025	10:42	-127.913	48.990	0	110.60	0	8.1810	0	33.5080	0	26.077	0	109.633	0	119.4	4	41.3	4	-1E+10	1	0.0469	4	0.000457	0	-1E+10	1	-1E+10	1	-1E+10	1
4902624	35	C	06/06/2025	10:42	-127.913	48.990	0	111.00	0	8.1770	0	33.5110	0	26.080	0	110.029	0	-1e10	1	-1e10	1	-1E+10	1	-1e10	1	-1e10	1	-1E+10	1	-1E+10	1	-1E+10	1
4902624	35	C	06/06/2025	10:42	-127.913	48.990	0	112.00	0	8.1727	0	33.5148	0	26.084	0	111.020	0	118.6	4	41.0	4	-1E+10	1	0.0589	4	0.000417	0	-1E+10	1	-1E+10	1	-1E+10	1
4902624	35	C	06/06/2025	10:42	-127.913	48.990	0	113.10	0	8.1680	0	33.5190	0	26.088	0	112.110	0	-1e10	1	-1e10	1	-1E+10	1	-1e10	1	-1e10	1	-1E+10	1	-1E+10	1	-1E+10	1
4902624	35	C	06/06/2025	10:42	-127.913	48.990	0	113.40	0	8.1663	0	33.5201	0	26.089	0	112.407	0	117.7	4	40.7	4	-1E+10	1	0.0618	4	0.000403	0	-1E+10	1	-1E+10	1	-1E+10	1
4902624	35	C	06/06/2025	10:42	-127.913	48.990	0	114.70	0	8.1587	0	33.5249	0	26.094	0	113.696	0	116.7	4	40.4	4	-1E+10	1	0.0558	4	0.000419	0	-1E+10	1	-1E+10	1	-1E+10	1
4902624	35	C	06/06/2025	10:42	-127.913	48.990	0	115.00	0	8.1570	0	33.5260	0	26.095	0	113.993	0	-1e10	1	-1e10	1	-1E+10	1	-1e10	1	-1e10	1	-1E+10	1	-1E+10	1	-1E+10	1
4902624	35	C	06/06/2025	10:42	-127.913	48.990	0	116.10	0	8.1372	0	33.5387	0	26.108	0	115.083	0	115.6	4	40.0	4	-1E+10	1	0.0557	4	0.000533	0	-1E+10	1	-1E+10	1	-1E+10	1
4902624	35	C	06/06/2025	10:42	-127.913	48.990	0	117.00	0	8.1210	0	33.5490	0	26.118	0	115.975	0	-1e10	1	-1e10	1	-1E+10	1	-1e10	1	-1e10	1	-1E+10	1	-1E+10	1	-1E+10	1
4902624	35	C	06/06/2025	10:42	-127.913	48.990	0	117.50	0	8.1123	0	33.5550	0	26.124	0	116.470	0	114.7	4	39.7	4	-1E+10	1	0.0621	4	0.000727	0	-1E+10	1	-1E+10	1	-1E+10	1
4902624	35	C	06/06/2025	10:42	-127.913	48.990	0	119.00	0	8.0860	0	33.5730	0	26.143	0	117.957	0	112.1	4	38.7	4	-1E+10	1	0.0438	4	0.000447	0	-1E+10	1	-1E+10	1	-1E+10	1
4902624	35	C	06/06/2025	10:42	-127.913	48.990	0	120.40	0	8.0629	0	33.5940	0	26.162	0	119.344	0	113.4	4	39.2	4	-1E+10	1	0.0511	4	0.000408	0	-1E+10	1	-1E+10	1	-1E+10	1
4902624	35	C	06/06/2025	10:42	-127.913	48.990	0	121.00	0	8.0530	0	33.6030	0	26.171	0	119.939	0	-1e10	1	-1e10	1	-1E+10	1	-1e10	1	-1e10	1	-1E+10	1	-1E+10	1	-1E+10	1
4902624	35	C	06/06/2025	10:42	-127.913	48.990	0	121.80	0	8.0510	0	33.6046	0	26.173	0	120.731	0	112.8	4	39.0	4	-1E+10	1	0.0511	4	0.000417	0	-1E+10	1	-1E+10	1	-1E+10	1
4902624	35	C	06/06/2025	10:42	-127.913	48.990	0	123.00	0	8.0480	0	33.6070	0	26.175	0	121.920	0	-1e10	1	-1e10	1	-1E+10	1	-1e10	1	-1e10	1	-1E+10	1	-1E+10	1	-1E+10	1
4902624	35	C	06/06/2025	10:42	-127.913	48.990	0	123.30	0	8.0471	0	33.6079	0	26.176	0	122.218	0	112.1	4	38.7	4	-1E+10	1	0.0511	4	0.000403	0	-1E+10	1	-1E+10	1	-1E+10	1
4902624	35	C	06/06/2025	10:42	-127.913	48.990	0	124.70	0	8.0429	0	33.6121	0	26.180	0	123.605	0	111.4	4	38.5	4	-1E+10	1	0.0467	4	0.000396	0	-1E+10	1	-1E+10	1	-1E+10	1
4902624	35	C	06/06/2025	10:42	-127.913	48.990	0	125.00	0	8.0420	0	33.6130	0	26.181	0	123.902	0	-1e10	1	-1e10	1	-1E+10	1	-1e10	1	-1e10	1	-1E+10	1	-1E+10	1	-1E+10	1
4902624	35	C	06/06/2025	10:42	-127.913	48.990	0	126.20	0	8.0216	0	33.6286	0	26.196	0	125.091	0	110.7	4	38.2	4	-1E+10	1	0.0477	4	0.000404	0	-1E+10	1	-1E+10	1	-1E+10	1
4902624	35	C	06/06/2025	10:42	-127.913	48.990	0	127.00	0	8.0080	0	33.6390	0	26.206	0	125.884	0	-1e10	1	-1e10	1	-1E+10	1	-1e10	1	-1e10	1	-1E+10	1	-1E+10	1	-1E+10	1
4902624	35	C	06/06/2025	10:42	-127.913	48.990	0	127.60	0	8.0029	0	33.6441	0	26.211	0	126.479	0	110.3	4	38.1	4	-1E+10	1	0.0511	4	0.000419	0	-1E+10	1	-1E+10	1	-1E+10	1
4902624	35	C	06/06/2025	10:42	-127.913	48.990	0	129.00	0	7.9910	0	33.6560	0	26.222	0	127.866	0	108.1	4	37.3	4	-1E+10	1	0.0511	4	0.000429	0	-1E+10	1	-1E+10	1	-1E+10	1
4902624	35	C	06/06/2025	10:42	-127.913	48.990	0	130.40	0	7.9770	0	33.6651	0	26.231	0	129.253	0	109.7	4	37.8	4	-1E+10	1	0.0520	4	0.000419	0	-1E+10	1	-1E+10	1	-1E+10	1
4902624	35	C	06/06/2025	10:42	-127.913	48.990	0	131.00	0	7.9710	0	33.6690	0	26.235	0	129.848	0	-1e10	1	-1e10	1	-1E+10	1	-1e10	1	-1e10	1	-1E+10	1	-1E+10	1	-1E+10	1
4902624	35	C	06/06/2025	10:42	-127.913	48.990	0	131.80	0	7.9606	0	33.6722	0	26.239	0	130.640	0	109.4	4	37.7	4	-1E+10	1	0.0584	4	0.000419	0	-1E+10	1	-1E+10	1	-1E+10	1
4902624	35	C	06/06/2025	10:42	-127.913	48.990	0	133.00	0	7.9450	0	33.6770	0	26.245	0	131.829	0	-1e10	1	-1e10	1	-1E+10	1	-1e10	1	-1e10	1	-1E+10	1	-1E+10	1	-1E+10	1
4902624	35	C	06/06/2025	10:42	-127.913	48.990	0	133.20	0	7.9430	0	33.6774	0	26.246	0	132.028	0	109.2	4	37.6	4	-1E+10	1	0.0464	4	0.000400	0	-1E+10	1	-1E+10	1	-1E+10	1
4902624	35	C	06/06/2025	10:42	-127.913	48.990	0	134.60	0	7.9290	0	33.6802	0	26.250	0	133.415	0	108.8	4	37.5	4	-1E+10	1	0.0495	4	0.000377	0	-1E+10	1	-1E+10	1	-1E+10	1
4902624	35	C	06/06/2025	10:42	-127.913	48.990	0	135.00	0	7.9250	0	33.6810	0	26.251	0	133.811	0	-1e10	1	-1e10	1	-1E+10	1	-1e10	1	-1e10	1	-1E+10	1	-1E+10	1	-1E+10	1
4902624	35	C	06/06/2025	10:42	-127.913	48.990	0	136.00	0	7.9198	0	33.6829	0	26.253	0	134.802	0	108.3	4	37.3	4	-1E+10	1	0.0561	4	0.000477	0	-1E+10	1	-1E+10	1	-1E+10	1
4902624	35	C	06/06/2025	10:42	-127.913	48.990	0	137.10	0	7.9140	0	33.6850	0	26.256	0	135.892	0	-1e10	1	-1e10	1	-1E+10	1	-1e10	1	-1e10	1	-1E+10	1	-1E+10	1	-1E+10	1
4902624	35	C	06/06/2025	10:42	-127.913	48.990	0	137.30	0	7.9143	0	33.6859	0	26.257	0	136.090	0	107.8	4	37.2	4	-1E+10	1	0.0548	4	0.000466	0	-1E+10	1	-1E+10	1	-1E+10	1
4902624	35	C	06/06/2025	10:42	-127.913	48.990	0	138.70	0	7.9165	0	33.6926	0	26.262	0	137.477	0	107.4	4	37.0	4	-1E+10	1	0.0480	4	0.000418	0	-1E+10	1	-1E+10	1	-1E+10	1
4902624	35	C	06/06/2025	10:42	-127.913	48.990	0	139.00	0	7.9170	0	33.6940	0	26.263	0	137.775	0	-1e10	1	-1e10	1	-1E+10	1	-1e10	1	-1e10	1	-1E+10	1	-1E+10	1	-1E+10	1
4902624	35	C	06/06/2025	10:42	-127.913	48.990	0	140.00	0	7.9065	0	33.6985	0	26.268	0	138.766	0	107.0	4	36.9	4	-1E+10	1	0.0487	4	0.000428	0	-1E+10	1	-1E+10	1	-1E+10	1
4902624	35	C	06/06/2025	10:42	-127.913	48.990	0	141.00	0	7.8960	0	33.7030	0	26.273	0	139.756	0	-1e10	1	-1e10	1	-1E+10	1	-1e10	1	-1e10	1	-1E+10	1	-1E+10	1	-1E+10	1
4902624	35	C	06/06/2025	10:42	-127.913	48.990	0	141.30	0	7.8913	0	33.7041	0	26.274	0	140.054	0	106.5	4	36.7	4	-1E+10	1	0.0569	4	0.000413	0	-1E+10	1	-1E+10	1	-1E+10	1
4902624	35	C	06/06/2025	10:42	-127.913	48.990	0	142.50	0	7.8723	0	33.7085	0	26.281	0	141.243	0	105.9	4	36.5	4	-1E+10	1	0.0511	4	0.000372	0	-1E+10	1	-1E+10	1	-1E+10	1
4902624	35	C	06/06/2025	10:42	-127.913	48.990	0	142.90	0	7.8660	0	33.7100	0	26.283	0	141.639	0	-1e10	1	-1e10	1	-1E+10	1	-1e10	1	-1e10	1	-1E+10	1	-1E+10	1	-1E+10	1
4902624	35	C	06/06/2025	10:42	-127.913	48.990	0	143.80	0	7.8604	0	33.7156	0	26.288	0	142.531	0	105.4	4	36.3	4	-1E+10	1	0.0511	4	0.000396	0	-1E+10	1	-1E+10	1	-1E+10	1
4902624	35	C	06/06/2025	10:42	-127.913	48.990	0	145.00	0	7.8530	0	33.7230	0	26.295	0	143.720	0	-1e10	1	-1e10	1	-1E+10	1	-1e10	1	-1e10	1	-1E+10	1	-1E+10	1	-1E+10	1
4902624	35	C	06/06/2025	10:42	-127.913	48.990	0	145.10	0	7.8523	0	33.7238	0	26.296	0	143.819	0	104.8	4	36.1	4	-1E+10	1	0.0392	4	0.000377	0	-1E+10	1	-1E+10	1	-1E+10	1
4902624	35	C	06/06/2025	10:42	-127.913	48.990	0	146.40	0	7.8425	0	33.7335	0	26.305	0	145.107	0	104.5	4	36.0	4	-1E+10	1	0.0462	4	0.000404	0	-1E+10	1	-1E+10	1	-1E+10	1
4902624	35	C	06/06/2025	10:42	-127.913	48.990	0	147.00	0	7.8380	0	33.7380	0	26.309	0	145.701	0	-1e10	1	-1e10	1	-1E+10	1	-1e10	1	-1e10	1	-1E+10	1	-1E+10	1	-1E+10	1
4902624	35	C	06/06/2025	10:42	-127.913	48.990	0	147.70	0	7.8324	0	33.7387	0	26.310	0	146.395	0	104.2	4	35.9	4	-1E+10	1	0.0466	4	0.000419	0	-1E+10	1	-1E+10	1	-1E+10	1
4902624	35	C	06/06/2025	10:42	-127.913	48.990	0	148.90	0	7.8228	0	33.7399	0	26.313	0	147.584	0	103.8	4	35.7	4	-1E+10	1	0.0506	4	0.000403	0	-1E+10	1	-1E+10	1	-1E+10	1
4902624	35	C	06/06/2025	10:42	-127.913	48.990	0	149.00	0	7.8220	0	33.7400	0	26.313	0	147.683	0	-1e10	1	-1e10	1	-1E+10	1	-1e10	1	-1e10	1	-1E+10	1	-1E+10	1	-1E+10	1
4902624	35	C	06/06/2025	10:42	-127.913	48.990	0	150.10	0	7.8187	0	33.7439	0	26.316	0	148.773	0	103.4	4	35.6	4	-1E+10	1	0.0563	4	0.000407	0	-1E+10	1	-1E+10	1	-1E+10	1
4902624	35	C	06/06/2025	10:42	-127.913	48.990	0	151.00	0	7.8160	0	33.7470	0	26.319	0	149.665	0	-1e10	1	-1e10	1	-1E+10	1	-1e10	1	-1e10	1	-1E+10	1	-1E+10	1	-1E+10	1
4902624	35	C	06/06/2025	10:42	-127.913	48.990	0	151.30	0	7.8160	0	33.7477	0	26.320	0	149.962	0	103.1	4	35.5	4	-1E+10	1	0.0511	4	0.000459	0	-1E+10	1	-1E+10	1	-1E+10	1
4902624	35	C	06/06/2025	10:42	-127.913	48.990	0	152.60	0	7.8160	0	33.7510	0	26.322	0	151.250	0	102.9	4	35.4	4	-1E+10	1	0.0501	4	0.000417	0	-1E+10	1	-1E+10	1	-1E+10	1
4902624	35	C	06/06/2025	10:42	-127.913	48.990	0	153.00	0	7.8160	0	33.7520	0	26.323	0	151.646	0	-1e10	1	-1e10	1	-1E+10	1	-1e10	1	-1e10	1	-1E+10	1	-1E+10	1	-1E+10	1
4902624	35	C	06/06/2025	10:42	-127.913	48.990	0	153.80	0	7.8118	0	33.7533	0	26.325	0	152.439	0	102.6	4	35.3	4	-1E+10	1	0.0438	4	0.000407	0	-1E+10	1	-1E+10	1	-1E+10	1
4902624	35	C	06/06/2025	10:42	-127.913	48.990	0	154.90	0	7.8060	0	33.7550	0	26.327	0	153.529	0	-1e10	1	-1e10	1	-1E+10	1	-1e10	1	-1e10	1	-1E+10	1	-1E+10	1	-1E+10	1
4902624	35	C	06/06/2025	10:42	-127.913	48.990	0	155.00	0	7.8049	0	33.7554	0	26.327	0	153.628	0	102.4	4	35.2	4	-1E+10	1	0.0380	4	0.000426	0	-1E+10	1	-1E+10	1	-1E+10	1
4902624	35	C	06/06/2025	10:42	-127.913	48.990	0	156.30	0	7.7907	0	33.7610	0	26.334	0	154.916	0	102.1	4	35.1	4	-1E+10	1	0.0548	4	0.000411	0	-1E+10	1	-1E+10	1	-1E+10	1
4902624	35	C	06/06/2025	10:42	-127.913	48.990	0	157.00	0	7.7830	0	33.7640	0	26.337	0	155.609	0	-1e10	1	-1e10	1	-1E+10	1	-1e10	1	-1e10	1	-1E+10	1	-1E+10	1	-1E+10	1
4902624	35	C	06/06/2025	10:42	-127.913	48.990	0	157.50	0	7.7785	0	33.7657	0	26.339	0	156.105	0	101.8	4	35.0	4	-1E+10	1	0.0535	4	0.000415	0	-1E+10	1	-1E+10	1	-1E+10	1
4902624	35	C	06/06/2025	10:42	-127.913	48.990	0	158.70	0	7.7676	0	33.7697	0	26.344	0	157.294	0	101.6	4	34.9	4	-1E+10	1	0.0511	4	0.000466	0	-1E+10	1	-1E+10	1	-1E+10	1
4902624	35	C	06/06/2025	10:42	-127.913	48.990	0	159.10	0	7.7640	0	33.7710	0	26.346	0	157.690	0	-1e10	1	-1e10	1	-1E+10	1	-1e10	1	-1e10	1	-1E+10	1	-1E+10	1	-1E+10	1
4902624	35	C	06/06/2025	10:42	-127.913	48.990	0	159.90	0	7.7480	0	33.7748	0	26.351	0	158.482	0	101.4	4	34.8	4	-1E+10	1	0.0544	4	0.000470	0	-1E+10	1	-1E+10	1	-1E+10	1
4902624	35	C	06/06/2025	10:42	-127.913	48.990	0	161.00	0	7.7260	0	33.7800	0	26.358	0	159.572	0	99.3	4	34.1	4	-1E+10	1	0.0556	4	0.000424	0	-1E+10	1	-1E+10	1	-1E+10	1
4902624	35	C	06/06/2025	10:42	-127.913	48.990	0	162.00	0	7.7089	0	33.7843	0	26.364	0	160.563	0	100.9	4	34.6	4	-1E+10	1	0.0511	4	0.000426	0	-1E+10	1	-1E+10	1	-1E+10	1
4902624	35	C	06/06/2025	10:42	-127.913	48.990	0	162.80	0	7.6951	0	33.7877	0	26.369	0	161.356	0	100.7	4	34.6	4	-1E+10	1	0.0511	4	0.000407	0	-1E+10	1	-1E+10	1	-1E+10	1
4902624	35	C	06/06/2025	10:42	-127.913	48.990	0	163.10	0	7.6900	0	33.7890	0	26.371	0	161.653	0	-1e10	1	-1e10	1	-1E+10	1	-1e10	1	-1e10	1	-1E+10	1	-1E+10	1	-1E+10	1
4902624	35	C	06/06/2025	10:42	-127.913	48.990	0	163.50	0	7.6870	0	33.7900	0	26.372	0	162.049	0	100.5	4	34.5	4	-1E+10	1	0.0511	4	0.000372	0	-1E+10	1	-1E+10	1	-1E+10	1
4902624	35	C	06/06/2025	10:42	-127.913	48.990	0	164.40	0	7.6803	0	33.7923	0	26.375	0	162.941	0	100.0	4	34.3	4	-1E+10	1	0.0365	4	0.000478	0	-1E+10	1	-1E+10	1	-1E+10	1
4902624	35	C	06/06/2025	10:42	-127.913	48.990	0	165.10	0	7.6750	0	33.7940	0	26.377	0	163.634	0	98.1	4	33.7	4	-1E+10	1	0.0422	4	0.000414	0	-1E+10	1	-1E+10	1	-1E+10	1
4902624	35	C	06/06/2025	10:42	-127.913	48.990	0	165.80	0	7.6698	0	33.7962	0	26.379	0	164.328	0	99.7	4	34.2	4	-1E+10	1	0.0484	4	0.000418	0	-1E+10	1	-1E+10	1	-1E+10	1
4902624	35	C	06/06/2025	10:42	-127.913	48.990	0	166.60	0	7.6639	0	33.7987	0	26.382	0	165.120	0	99.4	4	34.1	4	-1E+10	1	0.0548	4	0.000419	0	-1E+10	1	-1E+10	1	-1E+10	1
4902624	35	C	06/06/2025	10:42	-127.913	48.990	0	167.00	0	7.6610	0	33.8000	0	26.383	0	165.517	0	-1e10	1	-1e10	1	-1E+10	1	-1e10	1	-1e10	1	-1E+10	1	-1E+10	1	-1E+10	1
4902624	35	C	06/06/2025	10:42	-127.913	48.990	0	167.40	0	7.6568	0	33.8012	0	26.385	0	165.913	0	99.2	4	34.0	4	-1E+10	1	0.0560	4	0.000446	0	-1E+10	1	-1E+10	1	-1E+10	1
4902624	35	C	06/06/2025	10:42	-127.913	48.990	0	168.20	0	7.6484	0	33.8036	0	26.388	0	166.705	0	98.9	4	33.9	4	-1E+10	1	0.0493	4	0.000504	0	-1E+10	1	-1E+10	1	-1E+10	1
4902624	35	C	06/06/2025	10:42	-127.913	48.990	0	169.00	0	7.6400	0	33.8060	0	26.391	0	167.498	0	96.8	4	33.2	4	-1E+10	1	0.0423	4	0.000442	0	-1E+10	1	-1E+10	1	-1E+10	1
4902624	35	C	06/06/2025	10:42	-127.913	48.990	0	169.80	0	7.6308	0	33.8092	0	26.395	0	168.291	0	98.3	4	33.7	4	-1E+10	1	0.0365	4	0.000442	0	-1E+10	1	-1E+10	1	-1E+10	1
4902624	35	C	06/06/2025	10:42	-127.913	48.990	0	170.60	0	7.6216	0	33.8124	0	26.399	0	169.083	0	98.1	4	33.6	4	-1E+10	1	0.0423	4	0.000395	0	-1E+10	1	-1E+10	1	-1E+10	1
4902624	35	C	06/06/2025	10:42	-127.913	48.990	0	171.00	0	7.6170	0	33.8140	0	26.401	0	169.479	0	-1e10	1	-1e10	1	-1E+10	1	-1e10	1	-1e10	1	-1E+10	1	-1E+10	1	-1E+10	1
4902624	35	C	06/06/2025	10:42	-127.913	48.990	0	171.40	0	7.6126	0	33.8151	0	26.402	0	169.876	0	97.9	4	33.5	4	-1E+10	1	0.0493	4	0.000419	0	-1E+10	1	-1E+10	1	-1E+10	1
4902624	35	C	06/06/2025	10:42	-127.913	48.990	0	172.20	0	7.6037	0	33.8172	0	26.405	0	170.668	0	97.6	4	33.4	4	-1E+10	1	0.0555	4	0.000417	0	-1E+10	1	-1E+10	1	-1E+10	1
4902624	35	C	06/06/2025	10:42	-127.913	48.990	0	172.90	0	7.5960	0	33.8190	0	26.408	0	171.362	0	-1e10	1	-1e10	1	-1E+10	1	-1e10	1	-1e10	1	-1E+10	1	-1E+10	1	-1E+10	1
4902624	35	C	06/06/2025	10:42	-127.913	48.990	0	173.10	0	7.5940	0	33.8195	0	26.408	0	171.560	0	97.2	4	33.3	4	-1E+10	1	0.0584	4	0.000393	0	-1E+10	1	-1E+10	1	-1E+10	1
4902624	35	C	06/06/2025	10:42	-127.913	48.990	0	173.90	0	7.5860	0	33.8215	0	26.411	0	172.352	0	97.0	4	33.2	4	-1E+10	1	0.0584	4	0.000420	0	-1E+10	1	-1E+10	1	-1E+10	1
4902624	35	C	06/06/2025	10:42	-127.913	48.990	0	174.70	0	7.5780	0	33.8235	0	26.414	0	173.145	0	96.7	4	33.1	4	-1E+10	1	0.0584	4	0.000442	0	-1E+10	1	-1E+10	1	-1E+10	1
4902624	35	C	06/06/2025	10:42	-127.913	48.990	0	174.90	0	7.5760	0	33.8240	0	26.415	0	173.343	0	-1e10	1	-1e10	1	-1E+10	1	-1e10	1	-1e10	1	-1E+10	1	-1E+10	1	-1E+10	1
4902624	35	C	06/06/2025	10:42	-127.913	48.990	0	175.60	0	7.5717	0	33.8253	0	26.416	0	174.037	0	96.4	4	33.0	4	-1E+10	1	0.0526	4	0.000452	0	-1E+10	1	-1E+10	1	-1E+10	1
4902624	35	C	06/06/2025	10:42	-127.913	48.990	0	176.40	0	7.5667	0	33.8269	0	26.418	0	174.829	0	96.0	4	32.9	4	-1E+10	1	0.0470	4	0.000455	0	-1E+10	1	-1E+10	1	-1E+10	1
4902624	35	C	06/06/2025	10:42	-127.913	48.990	0	177.00	0	7.5630	0	33.8280	0	26.420	0	175.424	0	-1e10	1	-1e10	1	-1E+10	1	-1e10	1	-1e10	1	-1E+10	1	-1E+10	1	-1E+10	1
4902624	35	C	06/06/2025	10:42	-127.913	48.990	0	177.30	0	7.5599	0	33.8289	0	26.421	0	175.721	0	95.6	4	32.7	4	-1E+10	1	0.0569	4	0.000421	0	-1E+10	1	-1E+10	1	-1E+10	1
4902624	35	C	06/06/2025	10:42	-127.913	48.990	0	178.10	0	7.5514	0	33.8313	0	26.424	0	176.513	0	95.3	4	32.6	4	-1E+10	1	0.0511	4	0.000431	0	-1E+10	1	-1E+10	1	-1E+10	1
4902624	35	C	06/06/2025	10:42	-127.913	48.990	0	179.00	0	7.5420	0	33.8340	0	26.427	0	177.405	0	93.3	4	31.9	4	-1E+10	1	0.0571	4	0.000392	0	-1E+10	1	-1E+10	1	-1E+10	1
4902624	35	C	06/06/2025	10:42	-127.913	48.990	0	179.90	0	7.5289	0	33.8363	0	26.431	0	178.296	0	94.7	4	32.4	4	-1E+10	1	0.0527	4	0.000393	0	-1E+10	1	-1E+10	1	-1E+10	1
4902624	35	C	06/06/2025	10:42	-127.913	48.990	0	180.80	0	7.5159	0	33.8385	0	26.435	0	179.188	0	94.3	4	32.3	4	-1E+10	1	0.0358	4	0.000395	0	-1E+10	1	-1E+10	1	-1E+10	1
4902624	35	C	06/06/2025	10:42	-127.913	48.990	0	181.00	0	7.5130	0	33.8390	0	26.435	0	179.386	0	-1e10	1	-1e10	1	-1E+10	1	-1e10	1	-1e10	1	-1E+10	1	-1E+10	1	-1E+10	1
4902624	35	C	06/06/2025	10:42	-127.913	48.990	0	181.70	0	7.5004	0	33.8422	0	26.440	0	180.080	0	94.0	4	32.1	4	-1E+10	1	0.0411	4	0.000427	0	-1E+10	1	-1E+10	1	-1E+10	1
4902624	35	C	06/06/2025	10:42	-127.913	48.990	0	182.60	0	7.4842	0	33.8462	0	26.445	0	180.971	0	93.7	4	32.0	4	-1E+10	1	0.0576	4	0.000454	0	-1E+10	1	-1E+10	1	-1E+10	1
4902624	35	C	06/06/2025	10:42	-127.913	48.990	0	183.00	0	7.4770	0	33.8480	0	26.448	0	181.367	0	-1e10	1	-1e10	1	-1E+10	1	-1e10	1	-1e10	1	-1E+10	1	-1E+10	1	-1E+10	1
4902624	35	C	06/06/2025	10:42	-127.913	48.990	0	183.50	0	7.4665	0	33.8493	0	26.450	0	181.863	0	93.5	4	31.9	4	-1E+10	1	0.0577	4	0.000458	0	-1E+10	1	-1E+10	1	-1E+10	1
4902624	35	C	06/06/2025	10:42	-127.913	48.990	0	184.40	0	7.4475	0	33.8517	0	26.455	0	182.754	0	93.3	4	31.8	4	-1E+10	1	0.0451	4	0.000453	0	-1E+10	1	-1E+10	1	-1E+10	1
4902624	35	C	06/06/2025	10:42	-127.913	48.990	0	184.90	0	7.4370	0	33.8530	0	26.457	0	183.250	0	-1e10	1	-1e10	1	-1E+10	1	-1e10	1	-1e10	1	-1E+10	1	-1E+10	1	-1E+10	1
4902624	35	C	06/06/2025	10:42	-127.913	48.990	0	185.30	0	7.4328	0	33.8540	0	26.459	0	183.646	0	93.0	4	31.7	4	-1E+10	1	0.0511	4	0.000395	0	-1E+10	1	-1E+10	1	-1E+10	1
4902624	35	C	06/06/2025	10:42	-127.913	48.990	0	186.20	0	7.4234	0	33.8561	0	26.462	0	184.538	0	92.9	4	31.7	4	-1E+10	1	0.0511	4	0.000560	0	-1E+10	1	-1E+10	1	-1E+10	1
4902624	35	C	06/06/2025	10:42	-127.913	48.990	0	187.00	0	7.4150	0	33.8580	0	26.464	0	185.330	0	-1e10	1	-1e10	1	-1E+10	1	-1e10	1	-1e10	1	-1E+10	1	-1E+10	1	-1E+10	1
4902624	35	C	06/06/2025	10:42	-127.913	48.990	0	187.20	0	7.4120	0	33.8587	0	26.465	0	185.528	0	92.7	4	31.6	4	-1E+10	1	0.0693	4	0.000550	0	-1E+10	1	-1E+10	1	-1E+10	1
4902624	35	C	06/06/2025	10:42	-127.913	48.990	0	188.10	0	7.3982	0	33.8617	0	26.470	0	186.420	0	92.5	4	31.6	4	-1E+10	1	0.0637	4	0.000488	0	-1E+10	1	-1E+10	1	-1E+10	1
4902624	35	C	06/06/2025	10:42	-127.913	48.990	0	189.10	0	7.3830	0	33.8650	0	26.474	0	187.410	0	90.5	4	30.9	4	-1E+10	1	0.0584	4	0.000423	0	-1E+10	1	-1E+10	1	-1E+10	1
4902624	35	C	06/06/2025	10:42	-127.913	48.990	0	190.00	0	7.3670	0	33.8665	0	26.478	0	188.302	0	92.0	4	31.3	4	-1E+10	1	0.0548	4	0.000425	0	-1E+10	1	-1E+10	1	-1E+10	1
4902624	35	C	06/06/2025	10:42	-127.913	48.990	0	190.90	0	7.3510	0	33.8680	0	26.481	0	189.193	0	-1e10	1	-1e10	1	-1E+10	1	-1e10	1	-1e10	1	-1E+10	1	-1E+10	1	-1E+10	1
4902624	35	C	06/06/2025	10:42	-127.913	48.990	0	191.00	0	7.3492	0	33.8682	0	26.482	0	189.292	0	91.6	4	31.2	4	-1E+10	1	0.0487	4	0.000423	0	-1E+10	1	-1E+10	1	-1E+10	1
4902624	35	C	06/06/2025	10:42	-127.913	48.990	0	192.00	0	7.3315	0	33.8705	0	26.486	0	190.283	0	91.4	4	31.1	4	-1E+10	1	0.0467	4	0.000391	0	-1E+10	1	-1E+10	1	-1E+10	1
4902624	35	C	06/06/2025	10:42	-127.913	48.990	0	193.00	0	7.3138	0	33.8728	0	26.490	0	191.274	0	91.0	4	31.0	4	-1E+10	1	0.0584	4	0.000417	0	-1E+10	1	-1E+10	1	-1E+10	1
4902624	35	C	06/06/2025	10:42	-127.913	48.990	0	193.10	0	7.3120	0	33.8730	0	26.491	0	191.373	0	-1e10	1	-1e10	1	-1E+10	1	-1e10	1	-1e10	1	-1E+10	1	-1E+10	1	-1E+10	1
4902624	35	C	06/06/2025	10:42	-127.913	48.990	0	194.00	0	7.2908	0	33.8753	0	26.495	0	192.264	0	90.7	4	30.9	4	-1E+10	1	0.0584	4	0.000407	0	-1E+10	1	-1E+10	1	-1E+10	1
4902624	35	C	06/06/2025	10:42	-127.913	48.990	0	195.00	0	7.2673	0	33.8777	0	26.501	0	193.255	0	90.3	4	30.7	4	-1E+10	1	0.0402	4	0.000436	0	-1E+10	1	-1E+10	1	-1E+10	1
4902624	35	C	06/06/2025	10:42	-127.913	48.990	0	195.10	0	7.2650	0	33.8780	0	26.501	0	193.354	0	-1e10	1	-1e10	1	-1E+10	1	-1e10	1	-1e10	1	-1E+10	1	-1E+10	1	-1E+10	1
4902624	35	C	06/06/2025	10:42	-127.913	48.990	0	196.00	0	7.2530	0	33.8800	0	26.504	0	194.245	0	89.9	4	30.6	4	-1E+10	1	0.0423	4	0.000442	0	-1E+10	1	-1E+10	1	-1E+10	1
4902624	35	C	06/06/2025	10:42	-127.913	48.990	0	196.90	0	7.2410	0	33.8820	0	26.508	0	195.137	0	-1e10	1	-1e10	1	-1E+10	1	-1e10	1	-1e10	1	-1E+10	1	-1E+10	1	-1E+10	1
4902624	35	C	06/06/2025	10:42	-127.913	48.990	0	197.00	0	7.2403	0	33.8821	0	26.508	0	195.236	0	89.4	4	30.4	4	-1E+10	1	0.0535	4	0.000395	0	-1E+10	1	-1E+10	1	-1E+10	1
4902624	35	C	06/06/2025	10:42	-127.913	48.990	0	198.10	0	7.2330	0	33.8831	0	26.510	0	196.326	0	89.0	4	30.3	4	-1E+10	1	0.0505	4	0.000384	0	-1E+10	1	-1E+10	1	-1E+10	1
4902624	35	C	06/06/2025	10:42	-127.913	48.990	0	199.00	0	7.2270	0	33.8840	0	26.511	0	197.217	0	-1e10	1	-1e10	1	-1E+10	1	-1e10	1	-1e10	1	-1E+10	1	-1E+10	1	-1E+10	1
4902624	35	C	06/06/2025	10:42	-127.913	48.990	0	199.10	0	7.2251	0	33.8844	0	26.512	0	197.316	0	88.6	4	30.1	4	-1E+10	1	0.0438	4	0.000423	0	-1E+10	1	-1E+10	1	-1E+10	1
4902624	35	C	06/06/2025	10:42	-127.913	48.990	0	200.10	0	7.2056	0	33.8881	0	26.517	0	198.307	0	88.2	4	29.9	4	-1E+10	1	0.0462	4	0.000451	0	-1E+10	1	-1E+10	1	-1E+10	1
4902624	35	C	06/06/2025	10:42	-127.913	48.990	0	200.90	0	7.1900	0	33.8910	0	26.522	0	199.099	0	-1e10	1	-1e10	1	-1E+10	1	-1e10	1	-1e10	1	-1E+10	1	-1E+10	1	-1E+10	1
4902624	35	C	06/06/2025	10:42	-127.913	48.990	0	201.10	0	7.1860	0	33.8914	0	26.523	0	199.297	0	87.8	4	29.8	4	-1E+10	1	0.0511	4	0.000423	0	-1E+10	1	-1E+10	1	-1E+10	1
4902624	35	C	06/06/2025	10:42	-127.913	48.990	0	202.20	0	7.1640	0	33.8935	0	26.527	0	200.387	0	87.4	4	29.7	4	-1E+10	1	0.0511	4	0.000430	0	-1E+10	1	-1E+10	1	-1E+10	1
4902624	35	C	06/06/2025	10:42	-127.913	48.990	0	203.00	0	7.1480	0	33.8950	0	26.531	0	201.179	0	-1e10	1	-1e10	1	-1E+10	1	-1e10	1	-1e10	1	-1E+10	1	-1E+10	1	-1E+10	1
4902624	35	C	06/06/2025	10:42	-127.913	48.990	0	203.20	0	7.1444	0	33.8954	0	26.532	0	201.377	0	87.0	4	29.5	4	-1E+10	1	0.0511	4	0.000419	0	-1E+10	1	-1E+10	1	-1E+10	1
4902624	35	C	06/06/2025	10:42	-127.913	48.990	0	204.30	0	7.1246	0	33.8976	0	26.536	0	202.467	0	86.6	4	29.4	4	-1E+10	1	0.0511	4	0.000419	0	-1E+10	1	-1E+10	1	-1E+10	1
4902624	35	C	06/06/2025	10:42	-127.913	48.990	0	205.00	0	7.1120	0	33.8990	0	26.539	0	203.160	0	-1e10	1	-1e10	1	-1E+10	1	-1e10	1	-1e10	1	-1E+10	1	-1E+10	1	-1E+10	1
4902624	35	C	06/06/2025	10:42	-127.913	48.990	0	205.40	0	7.1082	0	33.8996	0	26.540	0	203.557	0	86.2	4	29.2	4	-1E+10	1	0.0562	4	0.000459	0	-1E+10	1	-1E+10	1	-1E+10	1
4902624	35	C	06/06/2025	10:42	-127.913	48.990	0	206.40	0	7.0987	0	33.9011	0	26.542	0	204.547	0	85.8	4	29.1	4	-1E+10	1	0.0584	4	0.000420	0	-1E+10	1	-1E+10	1	-1E+10	1
4902624	35	C	06/06/2025	10:42	-127.913	48.990	0	207.00	0	7.0930	0	33.9020	0	26.544	0	205.141	0	-1e10	1	-1e10	1	-1E+10	1	-1e10	1	-1e10	1	-1E+10	1	-1E+10	1	-1E+10	1
4902624	35	C	06/06/2025	10:42	-127.913	48.990	0	207.50	0	7.0923	0	33.9025	0	26.544	0	205.637	0	85.5	4	29.0	4	-1E+10	1	0.0550	4	0.000372	0	-1E+10	1	-1E+10	1	-1E+10	1
4902624	35	C	06/06/2025	10:42	-127.913	48.990	0	208.60	0	7.0907	0	33.9035	0	26.545	0	206.726	0	85.2	4	28.9	4	-1E+10	1	0.0556	4	0.000422	0	-1E+10	1	-1E+10	1	-1E+10	1
4902624	35	C	06/06/2025	10:42	-127.913	48.990	0	209.10	0	7.0900	0	33.9040	0	26.546	0	207.222	0	-1e10	1	-1e10	1	-1E+10	1	-1e10	1	-1e10	1	-1E+10	1	-1E+10	1	-1E+10	1
4902624	35	C	06/06/2025	10:42	-127.913	48.990	0	209.70	0	7.0875	0	33.9043	0	26.547	0	207.816	0	84.9	4	28.8	4	-1E+10	1	0.0617	4	0.000517	0	-1E+10	1	-1E+10	1	-1E+10	1
4902624	35	C	06/06/2025	10:42	-127.913	48.990	0	210.80	0	7.0828	0	33.9049	0	26.548	0	208.905	0	84.6	4	28.6	4	-1E+10	1	0.0449	4	0.000425	0	-1E+10	1	-1E+10	1	-1E+10	1
4902624	35	C	06/06/2025	10:42	-127.913	48.990	0	211.00	0	7.0820	0	33.9050	0	26.548	0	209.104	0	-1e10	1	-1e10	1	-1E+10	1	-1e10	1	-1e10	1	-1E+10	1	-1E+10	1	-1E+10	1
4902624	35	C	06/06/2025	10:42	-127.913	48.990	0	211.90	0	7.0685	0	33.9054	0	26.550	0	209.995	0	84.2	4	28.5	4	-1E+10	1	0.0511	4	0.000395	0	-1E+10	1	-1E+10	1	-1E+10	1
4902624	35	C	06/06/2025	10:42	-127.913	48.990	0	213.00	0	7.0520	0	33.9060	0	26.553	0	211.085	0	82.1	4	27.8	4	-1E+10	1	0.0511	4	0.000375	0	-1E+10	1	-1E+10	1	-1E+10	1
4902624	35	C	06/06/2025	10:42	-127.913	48.990	0	214.10	0	7.0344	0	33.9087	0	26.557	0	212.174	0	83.3	4	28.2	4	-1E+10	1	0.0511	4	0.000650	0	-1E+10	1	-1E+10	1	-1E+10	1
4902624	35	C	06/06/2025	10:42	-127.913	48.990	0	215.00	0	7.0200	0	33.9110	0	26.561	0	213.066	0	-1e10	1	-1e10	1	-1E+10	1	-1e10	1	-1e10	1	-1E+10	1	-1E+10	1	-1E+10	1
4902624	35	C	06/06/2025	10:42	-127.913	48.990	0	215.20	0	7.0187	0	33.9112	0	26.561	0	213.264	0	83.0	4	28.1	4	-1E+10	1	0.0460	4	0.000484	0	-1E+10	1	-1E+10	1	-1E+10	1
4902624	35	C	06/06/2025	10:42	-127.913	48.990	0	216.30	0	7.0115	0	33.9123	0	26.563	0	214.353	0	82.7	4	28.0	4	-1E+10	1	0.0511	4	0.000367	0	-1E+10	1	-1E+10	1	-1E+10	1
4902624	35	C	06/06/2025	10:42	-127.913	48.990	0	217.00	0	7.0070	0	33.9130	0	26.564	0	215.047	0	-1e10	1	-1e10	1	-1E+10	1	-1e10	1	-1e10	1	-1E+10	1	-1E+10	1	-1E+10	1
4902624	35	C	06/06/2025	10:42	-127.913	48.990	0	217.40	0	7.0036	0	33.9134	0	26.565	0	215.443	0	82.4	4	27.9	4	-1E+10	1	0.0611	4	0.000354	0	-1E+10	1	-1E+10	1	-1E+10	1
4902624	35	C	06/06/2025	10:42	-127.913	48.990	0	218.60	0	6.9934	0	33.9146	0	26.568	0	216.631	0	82.1	4	27.8	4	-1E+10	1	0.0601	4	0.000378	0	-1E+10	1	-1E+10	1	-1E+10	1
4902624	35	C	06/06/2025	10:42	-127.913	48.990	0	219.00	0	6.9900	0	33.9150	0	26.568	0	217.027	0	-1e10	1	-1e10	1	-1E+10	1	-1e10	1	-1e10	1	-1E+10	1	-1E+10	1	-1E+10	1
4902624	35	C	06/06/2025	10:42	-127.913	48.990	0	219.70	0	6.9851	0	33.9157	0	26.570	0	217.721	0	81.9	4	27.7	4	-1E+10	1	0.0511	4	0.000404	0	-1E+10	1	-1E+10	1	-1E+10	1
4902624	35	C	06/06/2025	10:42	-127.913	48.990	0	220.80	0	6.9774	0	33.9168	0	26.572	0	218.810	0	81.7	4	27.6	4	-1E+10	1	0.0511	4	0.000395	0	-1E+10	1	-1E+10	1	-1E+10	1
4902624	35	C	06/06/2025	10:42	-127.913	48.990	0	221.00	0	6.9760	0	33.9170	0	26.572	0	219.008	0	-1e10	1	-1e10	1	-1E+10	1	-1e10	1	-1e10	1	-1E+10	1	-1E+10	1	-1E+10	1
4902624	35	C	06/06/2025	10:42	-127.913	48.990	0	221.90	0	6.9670	0	33.9179	0	26.574	0	219.900	0	81.4	4	27.5	4	-1E+10	1	0.0438	4	0.000383	0	-1E+10	1	-1E+10	1	-1E+10	1
4902624	35	C	06/06/2025	10:42	-127.913	48.990	0	223.00	0	6.9560	0	33.9190	0	26.576	0	220.989	0	79.6	4	26.9	4	-1E+10	1	0.0376	4	0.000373	0	-1E+10	1	-1E+10	1	-1E+10	1
4902624	35	C	06/06/2025	10:42	-127.913	48.990	0	224.10	0	6.9455	0	33.9195	0	26.578	0	222.079	0	80.9	4	27.3	4	-1E+10	1	0.0517	4	0.000380	0	-1E+10	1	-1E+10	1	-1E+10	1
4902624	35	C	06/06/2025	10:42	-127.913	48.990	0	225.00	0	6.9370	0	33.9200	0	26.580	0	222.970	0	-1e10	1	-1e10	1	-1E+10	1	-1e10	1	-1e10	1	-1E+10	1	-1E+10	1	-1E+10	1
4902624	35	C	06/06/2025	10:42	-127.913	48.990	0	225.20	0	6.9344	0	33.9202	0	26.580	0	223.168	0	80.6	4	27.2	4	-1E+10	1	0.0584	4	0.000495	0	-1E+10	1	-1E+10	1	-1E+10	1
4902624	35	C	06/06/2025	10:42	-127.913	48.990	0	226.30	0	6.9201	0	33.9213	0	26.583	0	224.258	0	80.3	4	27.1	4	-1E+10	1	0.0657	4	0.000449	0	-1E+10	1	-1E+10	1	-1E+10	1
4902624	35	C	06/06/2025	10:42	-127.913	48.990	0	227.00	0	6.9110	0	33.9220	0	26.585	0	224.951	0	-1e10	1	-1e10	1	-1E+10	1	-1e10	1	-1e10	1	-1E+10	1	-1E+10	1	-1E+10	1
4902624	35	C	06/06/2025	10:42	-127.913	48.990	0	227.40	0	6.9024	0	33.9224	0	26.586	0	225.347	0	80.0	4	27.0	4	-1E+10	1	0.0685	4	0.000356	0	-1E+10	1	-1E+10	1	-1E+10	1
4902624	35	C	06/06/2025	10:42	-127.913	48.990	0	228.50	0	6.8787	0	33.9235	0	26.590	0	226.437	0	79.8	4	26.9	4	-1E+10	1	0.0571	4	0.000393	0	-1E+10	1	-1E+10	1	-1E+10	1
4902624	35	C	06/06/2025	10:42	-127.913	48.990	0	229.00	0	6.8680	0	33.9240	0	26.592	0	226.932	0	-1e10	1	-1e10	1	-1E+10	1	-1e10	1	-1e10	1	-1E+10	1	-1E+10	1	-1E+10	1
4902624	35	C	06/06/2025	10:42	-127.913	48.990	0	229.70	0	6.8554	0	33.9244	0	26.594	0	227.625	0	79.5	4	26.8	4	-1E+10	1	0.0527	4	0.000376	0	-1E+10	1	-1E+10	1	-1E+10	1
4902624	35	C	06/06/2025	10:42	-127.913	48.990	0	230.80	0	6.8356	0	33.9249	0	26.597	0	228.715	0	79.3	4	26.7	4	-1E+10	1	0.0584	4	0.000348	0	-1E+10	1	-1E+10	1	-1E+10	1
4902624	35	C	06/06/2025	10:42	-127.913	48.990	0	231.00	0	6.8320	0	33.9250	0	26.598	0	228.913	0	-1e10	1	-1e10	1	-1E+10	1	-1e10	1	-1e10	1	-1E+10	1	-1E+10	1	-1E+10	1
4902624	35	C	06/06/2025	10:42	-127.913	48.990	0	232.00	0	6.8245	0	33.9250	0	26.599	0	229.903	0	79.1	4	26.6	4	-1E+10	1	0.0521	4	0.000418	0	-1E+10	1	-1E+10	1	-1E+10	1
4902624	35	C	06/06/2025	10:42	-127.913	48.990	0	233.00	0	6.8170	0	33.9250	0	26.600	0	230.894	0	-1e10	1	-1e10	1	-1E+10	1	-1e10	1	-1e10	1	-1E+10	1	-1E+10	1	-1E+10	1
4902624	35	C	06/06/2025	10:42	-127.913	48.990	0	233.10	0	6.8163	0	33.9250	0	26.600	0	230.993	0	78.9	4	26.6	4	-1E+10	1	0.0511	4	0.000401	0	-1E+10	1	-1E+10	1	-1E+10	1
4902624	35	C	06/06/2025	10:42	-127.913	48.990	0	234.30	0	6.8085	0	33.9256	0	26.602	0	232.181	0	78.7	4	26.5	4	-1E+10	1	0.0615	4	0.000361	0	-1E+10	1	-1E+10	1	-1E+10	1
4902624	35	C	06/06/2025	10:42	-127.913	48.990	0	235.00	0	6.8040	0	33.9260	0	26.602	0	232.874	0	-1e10	1	-1e10	1	-1E+10	1	-1e10	1	-1e10	1	-1E+10	1	-1E+10	1	-1E+10	1
4902624	35	C	06/06/2025	10:42	-127.913	48.990	0	235.40	0	6.7994	0	33.9262	0	26.603	0	233.270	0	78.5	4	26.4	4	-1E+10	1	0.0620	4	0.000360	0	-1E+10	1	-1E+10	1	-1E+10	1
4902624	35	C	06/06/2025	10:42	-127.913	48.990	0	236.60	0	6.7856	0	33.9268	0	26.606	0	234.459	0	78.3	4	26.3	4	-1E+10	1	0.0554	4	0.000420	0	-1E+10	1	-1E+10	1	-1E+10	1
4902624	35	C	06/06/2025	10:42	-127.913	48.990	0	237.00	0	6.7810	0	33.9270	0	26.606	0	234.855	0	-1e10	1	-1e10	1	-1E+10	1	-1e10	1	-1e10	1	-1E+10	1	-1E+10	1	-1E+10	1
4902624	35	C	06/06/2025	10:42	-127.913	48.990	0	237.70	0	6.7747	0	33.9280	0	26.608	0	235.548	0	78.1	4	26.3	4	-1E+10	1	0.0532	4	0.000459	0	-1E+10	1	-1E+10	1	-1E+10	1
4902624	35	C	06/06/2025	10:42	-127.913	48.990	0	238.90	0	6.7638	0	33.9297	0	26.611	0	236.737	0	77.9	4	26.2	4	-1E+10	1	0.0584	4	0.000373	0	-1E+10	1	-1E+10	1	-1E+10	1
4902624	35	C	06/06/2025	10:42	-127.913	48.990	0	239.10	0	6.7620	0	33.9300	0	26.611	0	236.935	0	-1e10	1	-1e10	1	-1E+10	1	-1e10	1	-1e10	1	-1E+10	1	-1E+10	1	-1E+10	1
4902624	35	C	06/06/2025	10:42	-127.913	48.990	0	240.10	0	6.7567	0	33.9300	0	26.612	0	237.925	0	77.8	4	26.1	4	-1E+10	1	0.0560	4	0.000323	0	-1E+10	1	-1E+10	1	-1E+10	1
4902624	35	C	06/06/2025	10:42	-127.913	48.990	0	241.00	0	6.7520	0	33.9300	0	26.613	0	238.817	0	-1e10	1	-1e10	1	-1E+10	1	-1e10	1	-1e10	1	-1E+10	1	-1E+10	1	-1E+10	1
4902624	35	C	06/06/2025	10:42	-127.913	48.990	0	241.30	0	6.7512	0	33.9301	0	26.613	0	239.114	0	77.6	4	26.1	4	-1E+10	1	0.0428	4	0.000341	0	-1E+10	1	-1E+10	1	-1E+10	1
4902624	35	C	06/06/2025	10:42	-127.913	48.990	0	242.50	0	6.7483	0	33.9307	0	26.614	0	240.302	0	77.4	4	26.0	4	-1E+10	1	0.0365	4	0.000512	0	-1E+10	1	-1E+10	1	-1E+10	1
4902624	35	C	06/06/2025	10:42	-127.913	48.990	0	243.00	0	6.7470	0	33.9310	0	26.614	0	240.797	0	-1e10	1	-1e10	1	-1E+10	1	-1e10	1	-1e10	1	-1E+10	1	-1E+10	1	-1E+10	1
4902624	35	C	06/06/2025	10:42	-127.913	48.990	0	243.90	0	6.7434	0	33.9310	0	26.615	0	241.689	0	77.1	4	25.9	4	-1E+10	1	0.0584	4	0.000348	0	-1E+10	1	-1E+10	1	-1E+10	1
4902624	35	C	06/06/2025	10:42	-127.913	48.990	0	244.80	0	6.7398	0	33.9310	0	26.615	0	242.580	0	76.9	4	25.9	4	-1E+10	1	0.0524	4	0.000350	0	-1E+10	1	-1E+10	1	-1E+10	1
4902624	35	C	06/06/2025	10:42	-127.913	48.990	0	245.00	0	6.7390	0	33.9310	0	26.615	0	242.778	0	-1e10	1	-1e10	1	-1E+10	1	-1e10	1	-1e10	1	-1E+10	1	-1E+10	1	-1E+10	1
4902624	35	C	06/06/2025	10:42	-127.913	48.990	0	245.70	0	6.7337	0	33.9310	0	26.616	0	243.471	0	76.7	4	25.8	4	-1E+10	1	0.0460	4	0.000349	0	-1E+10	1	-1E+10	1	-1E+10	1
4902624	35	C	06/06/2025	10:42	-127.913	48.990	0	246.50	0	6.7277	0	33.9310	0	26.617	0	244.264	0	76.5	4	25.7	4	-1E+10	1	0.0474	4	0.000361	0	-1E+10	1	-1E+10	1	-1E+10	1
4902624	35	C	06/06/2025	10:42	-127.913	48.990	0	247.00	0	6.7240	0	33.9310	0	26.617	0	244.759	0	-1e10	1	-1e10	1	-1E+10	1	-1e10	1	-1e10	1	-1E+10	1	-1E+10	1	-1E+10	1
4902624	35	C	06/06/2025	10:42	-127.913	48.990	0	247.20	0	6.7219	0	33.9312	0	26.618	0	244.957	0	76.3	4	25.6	4	-1E+10	1	0.0532	4	0.000380	0	-1E+10	1	-1E+10	1	-1E+10	1
4902624	35	C	06/06/2025	10:42	-127.913	48.990	0	248.00	0	6.7135	0	33.9321	0	26.619	0	245.749	0	76.0	4	25.5	4	-1E+10	1	0.0535	4	0.000379	0	-1E+10	1	-1E+10	1	-1E+10	1
4902624	35	C	06/06/2025	10:42	-127.913	48.990	0	248.80	0	6.7051	0	33.9329	0	26.621	0	246.541	0	75.8	4	25.5	4	-1E+10	1	0.0423	4	0.000353	0	-1E+10	1	-1E+10	1	-1E+10	1
4902624	35	C	06/06/2025	10:42	-127.913	48.990	0	248.90	0	6.7040	0	33.9330	0	26.621	0	246.640	0	-1e10	1	-1e10	1	-1E+10	1	-1e10	1	-1e10	1	-1E+10	1	-1E+10	1	-1E+10	1
4902624	35	C	06/06/2025	10:42	-127.913	48.990	0	249.60	0	6.6907	0	33.9340	0	26.624	0	247.334	0	75.6	4	25.4	4	-1E+10	1	0.0365	4	0.000371	0	-1E+10	1	-1E+10	1	-1E+10	1
4902624	35	C	06/06/2025	10:42	-127.913	48.990	0	250.40	0	6.6755	0	33.9352	0	26.627	0	248.126	0	75.4	4	25.3	4	-1E+10	1	0.0511	4	0.001474	0	-1E+10	1	-1E+10	1	-1E+10	1
4902624	35	C	06/06/2025	10:42	-127.913	48.990	0	250.90	0	6.6660	0	33.9360	0	26.629	0	248.621	0	-1e10	1	-1e10	1	-1E+10	1	-1e10	1	-1e10	1	-1E+10	1	-1E+10	1	-1E+10	1
4902624	35	C	06/06/2025	10:42	-127.913	48.990	0	251.10	0	6.6644	0	33.9362	0	26.629	0	248.819	0	75.2	4	25.2	4	-1E+10	1	0.0511	4	0.000616	0	-1E+10	1	-1E+10	1	-1E+10	1
4902624	35	C	06/06/2025	10:42	-127.913	48.990	0	251.90	0	6.6579	0	33.9370	0	26.631	0	249.611	0	75.0	4	25.2	4	-1E+10	1	0.0560	4	0.000395	0	-1E+10	1	-1E+10	1	-1E+10	1
4902624	35	C	06/06/2025	10:42	-127.913	48.990	0	252.70	0	6.6514	0	33.9377	0	26.632	0	250.404	0	74.8	4	25.1	4	-1E+10	1	0.0584	4	0.000379	0	-1E+10	1	-1E+10	1	-1E+10	1
4902624	35	C	06/06/2025	10:42	-127.913	48.990	0	253.00	0	6.6490	0	33.9380	0	26.633	0	250.701	0	-1e10	1	-1e10	1	-1E+10	1	-1e10	1	-1e10	1	-1E+10	1	-1E+10	1	-1E+10	1
4902624	35	C	06/06/2025	10:42	-127.913	48.990	0	253.50	0	6.6438	0	33.9388	0	26.634	0	251.196	0	74.6	4	25.0	4	-1E+10	1	0.0584	4	0.000367	0	-1E+10	1	-1E+10	1	-1E+10	1
4902624	35	C	06/06/2025	10:42	-127.913	48.990	0	254.30	0	6.6353	0	33.9400	0	26.636	0	251.988	0	74.3	4	24.9	4	-1E+10	1	0.0608	4	0.000360	0	-1E+10	1	-1E+10	1	-1E+10	1
4902624	35	C	06/06/2025	10:42	-127.913	48.990	0	255.00	0	6.6280	0	33.9410	0	26.638	0	252.681	0	-1e10	1	-1e10	1	-1E+10	1	-1e10	1	-1e10	1	-1E+10	1	-1E+10	1	-1E+10	1
4902624	35	C	06/06/2025	10:42	-127.913	48.990	0	255.10	0	6.6270	0	33.9411	0	26.638	0	252.780	0	74.2	4	24.9	4	-1E+10	1	0.0639	4	0.000336	0	-1E+10	1	-1E+10	1	-1E+10	1
4902624	35	C	06/06/2025	10:42	-127.913	48.990	0	255.90	0	6.6195	0	33.9415	0	26.639	0	253.572	0	74.1	4	24.8	4	-1E+10	1	0.0599	4	0.000336	0	-1E+10	1	-1E+10	1	-1E+10	1
4902624	35	C	06/06/2025	10:42	-127.913	48.990	0	256.70	0	6.6119	0	33.9419	0	26.641	0	254.365	0	74.0	4	24.8	4	-1E+10	1	0.0657	4	0.000336	0	-1E+10	1	-1E+10	1	-1E+10	1
4902624	35	C	06/06/2025	10:42	-127.913	48.990	0	257.00	0	6.6090	0	33.9420	0	26.641	0	254.662	0	-1e10	1	-1e10	1	-1E+10	1	-1e10	1	-1e10	1	-1E+10	1	-1E+10	1	-1E+10	1
4902624	35	C	06/06/2025	10:42	-127.913	48.990	0	257.50	0	6.6065	0	33.9423	0	26.642	0	255.157	0	73.9	4	24.8	4	-1E+10	1	0.0599	4	0.000336	0	-1E+10	1	-1E+10	1	-1E+10	1
4902624	35	C	06/06/2025	10:42	-127.913	48.990	0	258.30	0	6.6025	0	33.9426	0	26.643	0	255.949	0	73.8	4	24.7	4	-1E+10	1	0.0529	4	0.000371	0	-1E+10	1	-1E+10	1	-1E+10	1
4902624	35	C	06/06/2025	10:42	-127.913	48.990	0	259.00	0	6.5990	0	33.9430	0	26.643	0	256.642	0	-1e10	1	-1e10	1	-1E+10	1	-1e10	1	-1e10	1	-1E+10	1	-1E+10	1	-1E+10	1
4902624	35	C	06/06/2025	10:42	-127.913	48.990	0	259.20	0	6.5981	0	33.9431	0	26.644	0	256.840	0	73.7	4	24.7	4	-1E+10	1	0.0613	4	0.000399	0	-1E+10	1	-1E+10	1	-1E+10	1
4902624	35	C	06/06/2025	10:42	-127.913	48.990	0	260.00	0	6.5945	0	33.9435	0	26.644	0	257.633	0	73.6	4	24.7	4	-1E+10	1	0.0616	4	0.000406	0	-1E+10	1	-1E+10	1	-1E+10	1
4902624	35	C	06/06/2025	10:42	-127.913	48.990	0	260.80	0	6.5909	0	33.9439	0	26.645	0	258.425	0	73.5	4	24.6	4	-1E+10	1	0.0552	4	0.000401	0	-1E+10	1	-1E+10	1	-1E+10	1
4902624	35	C	06/06/2025	10:42	-127.913	48.990	0	261.00	0	6.5900	0	33.9440	0	26.645	0	258.623	0	-1e10	1	-1e10	1	-1E+10	1	-1e10	1	-1e10	1	-1E+10	1	-1E+10	1	-1E+10	1
4902624	35	C	06/06/2025	10:42	-127.913	48.990	0	261.60	0	6.5865	0	33.9443	0	26.646	0	259.217	0	73.3	4	24.6	4	-1E+10	1	0.0555	4	0.000398	0	-1E+10	1	-1E+10	1	-1E+10	1
4902624	35	C	06/06/2025	10:42	-127.913	48.990	0	262.40	0	6.5819	0	33.9447	0	26.647	0	260.009	0	73.2	4	24.5	4	-1E+10	1	0.0641	4	0.000410	0	-1E+10	1	-1E+10	1	-1E+10	1
4902624	35	C	06/06/2025	10:42	-127.913	48.990	0	262.90	0	6.5790	0	33.9450	0	26.648	0	260.504	0	-1e10	1	-1e10	1	-1E+10	1	-1e10	1	-1e10	1	-1E+10	1	-1E+10	1	-1E+10	1
4902624	35	C	06/06/2025	10:42	-127.913	48.990	0	263.20	0	6.5760	0	33.9451	0	26.648	0	260.802	0	73.0	4	24.4	4	-1E+10	1	0.0511	4	0.000442	0	-1E+10	1	-1E+10	1	-1E+10	1
4902624	35	C	06/06/2025	10:42	-127.913	48.990	0	264.10	0	6.5670	0	33.9456	0	26.650	0	261.693	0	72.8	4	24.4	4	-1E+10	1	0.0584	4	0.000371	0	-1E+10	1	-1E+10	1	-1E+10	1
4902624	35	C	06/06/2025	10:42	-127.913	48.990	0	264.90	0	6.5590	0	33.9460	0	26.651	0	262.485	0	71.2	4	23.8	4	-1E+10	1	0.0526	4	0.000362	0	-1E+10	1	-1E+10	1	-1E+10	1
4902624	35	C	06/06/2025	10:42	-127.913	48.990	0	265.70	0	6.5506	0	33.9464	0	26.653	0	263.277	0	72.5	4	24.3	4	-1E+10	1	0.0467	4	0.000352	0	-1E+10	1	-1E+10	1	-1E+10	1
4902624	35	C	06/06/2025	10:42	-127.913	48.990	0	266.50	0	6.5422	0	33.9468	0	26.654	0	264.069	0	72.4	4	24.2	4	-1E+10	1	0.0474	4	0.000355	0	-1E+10	1	-1E+10	1	-1E+10	1
4902624	35	C	06/06/2025	10:42	-127.913	48.990	0	266.90	0	6.5380	0	33.9470	0	26.655	0	264.465	0	-1e10	1	-1e10	1	-1E+10	1	-1e10	1	-1e10	1	-1E+10	1	-1E+10	1	-1E+10	1
4902624	35	C	06/06/2025	10:42	-127.913	48.990	0	267.40	0	6.5330	0	33.9473	0	26.656	0	264.961	0	72.3	4	24.2	4	-1E+10	1	0.0584	4	0.000349	0	-1E+10	1	-1E+10	1	-1E+10	1
4902624	35	C	06/06/2025	10:42	-127.913	48.990	0	268.20	0	6.5250	0	33.9477	0	26.657	0	265.753	0	72.2	4	24.2	4	-1E+10	1	0.0613	4	0.000337	0	-1E+10	1	-1E+10	1	-1E+10	1
4902624	35	C	06/06/2025	10:42	-127.913	48.990	0	268.90	0	6.5180	0	33.9480	0	26.658	0	266.446	0	-1e10	1	-1e10	1	-1E+10	1	-1e10	1	-1e10	1	-1E+10	1	-1E+10	1	-1E+10	1
4902624	35	C	06/06/2025	10:42	-127.913	48.990	0	269.10	0	6.5150	0	33.9481	0	26.659	0	266.644	0	72.1	4	24.1	4	-1E+10	1	0.0511	4	0.000340	0	-1E+10	1	-1E+10	1	-1E+10	1
4902624	35	C	06/06/2025	10:42	-127.913	48.990	0	269.90	0	6.5032	0	33.9485	0	26.660	0	267.436	0	72.0	4	24.1	4	-1E+10	1	0.0504	4	0.000349	0	-1E+10	1	-1E+10	1	-1E+10	1
4902624	35	C	06/06/2025	10:42	-127.913	48.990	0	270.80	0	6.4900	0	33.9489	0	26.663	0	268.327	0	71.9	4	24.0	4	-1E+10	1	0.0438	4	0.000359	0	-1E+10	1	-1E+10	1	-1E+10	1
4902624	35	C	06/06/2025	10:42	-127.913	48.990	0	271.00	0	6.4870	0	33.9490	0	26.663	0	268.525	0	-1e10	1	-1e10	1	-1E+10	1	-1e10	1	-1e10	1	-1E+10	1	-1E+10	1	-1E+10	1
4902624	35	C	06/06/2025	10:42	-127.913	48.990	0	271.60	0	6.4777	0	33.9478	0	26.663	0	269.119	0	71.8	4	24.0	4	-1E+10	1	0.0496	4	0.000331	0	-1E+10	1	-1E+10	1	-1E+10	1
4902624	35	C	06/06/2025	10:42	-127.913	48.990	0	272.50	0	6.4637	0	33.9460	0	26.664	0	270.011	0	71.7	4	23.9	4	-1E+10	1	0.0575	4	0.000314	0	-1E+10	1	-1E+10	1	-1E+10	1
4902624	35	C	06/06/2025	10:42	-127.913	48.990	0	273.00	0	6.4560	0	33.9450	0	26.664	0	270.506	0	-1e10	1	-1e10	1	-1E+10	1	-1e10	1	-1e10	1	-1E+10	1	-1E+10	1	-1E+10	1
4902624	35	C	06/06/2025	10:42	-127.913	48.990	0	273.30	0	6.4537	0	33.9449	0	26.664	0	270.803	0	71.5	4	23.9	4	-1E+10	1	0.0491	4	0.000365	0	-1E+10	1	-1E+10	1	-1E+10	1
4902624	35	C	06/06/2025	10:42	-127.913	48.990	0	274.20	0	6.4470	0	33.9444	0	26.665	0	271.694	0	71.3	4	23.8	4	-1E+10	1	0.0511	4	0.000353	0	-1E+10	1	-1E+10	1	-1E+10	1
4902624	35	C	06/06/2025	10:42	-127.913	48.990	0	275.00	0	6.4410	0	33.9440	0	26.665	0	272.486	0	-1e10	1	-1e10	1	-1E+10	1	-1e10	1	-1e10	1	-1E+10	1	-1E+10	1	-1E+10	1
4902624	35	C	06/06/2025	10:42	-127.913	48.990	0	275.10	0	6.4400	0	33.9441	0	26.665	0	272.585	0	71.1	4	23.7	4	-1E+10	1	0.0584	4	0.000338	0	-1E+10	1	-1E+10	1	-1E+10	1
4902624	35	C	06/06/2025	10:42	-127.913	48.990	0	275.90	0	6.4320	0	33.9449	0	26.667	0	273.377	0	70.9	4	23.7	4	-1E+10	1	0.0562	4	0.000353	0	-1E+10	1	-1E+10	1	-1E+10	1
4902624	35	C	06/06/2025	10:42	-127.913	48.990	0	276.80	0	6.4230	0	33.9458	0	26.669	0	274.269	0	70.7	4	23.6	4	-1E+10	1	0.0496	4	0.000317	0	-1E+10	1	-1E+10	1	-1E+10	1
4902624	35	C	06/06/2025	10:42	-127.913	48.990	0	277.00	0	6.4210	0	33.9460	0	26.669	0	274.467	0	-1e10	1	-1e10	1	-1E+10	1	-1e10	1	-1e10	1	-1E+10	1	-1E+10	1	-1E+10	1
4902624	35	C	06/06/2025	10:42	-127.913	48.990	0	277.60	0	6.4195	0	33.9469	0	26.670	0	275.061	0	70.5	4	23.5	4	-1E+10	1	0.0438	4	0.000336	0	-1E+10	1	-1E+10	1	-1E+10	1
4902624	35	C	06/06/2025	10:42	-127.913	48.990	0	278.50	0	6.4172	0	33.9482	0	26.672	0	275.952	0	70.4	4	23.5	4	-1E+10	1	0.0730	4	0.000406	0	-1E+10	1	-1E+10	1	-1E+10	1
4902624	35	C	06/06/2025	10:42	-127.913	48.990	0	279.00	0	6.4160	0	33.9490	0	26.672	0	276.447	0	-1e10	1	-1e10	1	-1E+10	1	-1e10	1	-1e10	1	-1E+10	1	-1E+10	1	-1E+10	1
4902624	35	C	06/06/2025	10:42	-127.913	48.990	0	279.40	0	6.4149	0	33.9492	0	26.673	0	276.843	0	70.3	4	23.4	4	-1E+10	1	0.0611	4	0.000349	0	-1E+10	1	-1E+10	1	-1E+10	1
4902624	35	C	06/06/2025	10:42	-127.913	48.990	0	280.30	0	6.4123	0	33.9496	0	26.673	0	277.734	0	70.2	4	23.4	4	-1E+10	1	0.0533	4	0.000336	0	-1E+10	1	-1E+10	1	-1E+10	1
4902624	35	C	06/06/2025	10:42	-127.913	48.990	0	281.10	0	6.4100	0	33.9500	0	26.674	0	278.526	0	68.6	4	22.9	4	-1E+10	1	0.0470	4	0.000505	0	-1E+10	1	-1E+10	1	-1E+10	1
4902624	35	C	06/06/2025	10:42	-127.913	48.990	0	282.00	0	6.3972	0	33.9500	0	26.676	0	279.417	0	69.8	4	23.3	4	-1E+10	1	0.0402	4	0.000471	0	-1E+10	1	-1E+10	1	-1E+10	1
4902624	35	C	06/06/2025	10:42	-127.913	48.990	0	282.80	0	6.3858	0	33.9500	0	26.677	0	280.210	0	69.6	4	23.2	4	-1E+10	1	0.0387	4	0.000318	0	-1E+10	1	-1E+10	1	-1E+10	1
4902624	35	C	06/06/2025	10:42	-127.913	48.990	0	283.00	0	6.3830	0	33.9500	0	26.677	0	280.408	0	-1e10	1	-1e10	1	-1E+10	1	-1e10	1	-1e10	1	-1E+10	1	-1E+10	1	-1E+10	1
4902624	35	C	06/06/2025	10:42	-127.913	48.990	0	283.70	0	6.3833	0	33.9504	0	26.678	0	281.101	0	69.4	4	23.1	4	-1E+10	1	0.0456	4	0.000356	0	-1E+10	1	-1E+10	1	-1E+10	1
4902624	35	C	06/06/2025	10:42	-127.913	48.990	0	284.50	0	6.3837	0	33.9508	0	26.678	0	281.893	0	69.2	4	23.1	4	-1E+10	1	0.0496	4	0.000340	0	-1E+10	1	-1E+10	1	-1E+10	1
4902624	35	C	06/06/2025	10:42	-127.913	48.990	0	285.00	0	6.3840	0	33.9510	0	26.678	0	282.388	0	-1e10	1	-1e10	1	-1E+10	1	-1e10	1	-1e10	1	-1E+10	1	-1E+10	1	-1E+10	1
4902624	35	C	06/06/2025	10:42	-127.913	48.990	0	285.30	0	6.3853	0	33.9518	0	26.679	0	282.685	0	69.0	4	23.0	4	-1E+10	1	0.0438	4	0.000312	0	-1E+10	1	-1E+10	1	-1E+10	1
4902624	35	C	06/06/2025	10:42	-127.913	48.990	0	286.20	0	6.3894	0	33.9540	0	26.680	0	283.576	0	68.9	4	23.0	4	-1E+10	1	0.0569	4	0.000376	0	-1E+10	1	-1E+10	1	-1E+10	1
4902624	35	C	06/06/2025	10:42	-127.913	48.990	0	287.00	0	6.3930	0	33.9560	0	26.681	0	284.368	0	67.4	4	22.5	4	-1E+10	1	0.0584	4	0.000447	0	-1E+10	1	-1E+10	1	-1E+10	1
4902624	35	C	06/06/2025	10:42	-127.913	48.990	0	287.80	0	6.3942	0	33.9572	0	26.682	0	285.160	0	68.6	4	22.9	4	-1E+10	1	0.0540	4	0.000394	0	-1E+10	1	-1E+10	1	-1E+10	1
4902624	35	C	06/06/2025	10:42	-127.913	48.990	0	288.60	0	6.3954	0	33.9584	0	26.683	0	285.953	0	68.5	4	22.8	4	-1E+10	1	0.0543	4	0.000332	0	-1E+10	1	-1E+10	1	-1E+10	1
4902624	35	C	06/06/2025	10:42	-127.913	48.990	0	289.00	0	6.3960	0	33.9590	0	26.683	0	286.349	0	-1e10	1	-1e10	1	-1E+10	1	-1e10	1	-1e10	1	-1E+10	1	-1E+10	1	-1E+10	1
4902624	35	C	06/06/2025	10:42	-127.913	48.990	0	289.50	0	6.3947	0	33.9587	0	26.683	0	286.844	0	68.3	4	22.8	4	-1E+10	1	0.0552	4	0.000328	0	-1E+10	1	-1E+10	1	-1E+10	1
4902624	35	C	06/06/2025	10:42	-127.913	48.990	0	290.30	0	6.3927	0	33.9584	0	26.683	0	287.636	0	68.1	4	22.7	4	-1E+10	1	0.0511	4	0.000351	0	-1E+10	1	-1E+10	1	-1E+10	1
4902624	35	C	06/06/2025	10:42	-127.913	48.990	0	291.00	0	6.3910	0	33.9580	0	26.683	0	288.329	0	-1e10	1	-1e10	1	-1E+10	1	-1e10	1	-1e10	1	-1E+10	1	-1E+10	1	-1E+10	1
4902624	35	C	06/06/2025	10:42	-127.913	48.990	0	291.10	0	6.3903	0	33.9580	0	26.683	0	288.428	0	67.9	4	22.7	4	-1E+10	1	0.0511	4	0.000371	0	-1E+10	1	-1E+10	1	-1E+10	1
4902624	35	C	06/06/2025	10:42	-127.913	48.990	0	291.90	0	6.3851	0	33.9585	0	26.684	0	289.220	0	67.8	4	22.6	4	-1E+10	1	0.0511	4	0.000418	0	-1E+10	1	-1E+10	1	-1E+10	1
4902624	35	C	06/06/2025	10:42	-127.913	48.990	0	292.70	0	6.3799	0	33.9589	0	26.685	0	290.012	0	67.6	4	22.5	4	-1E+10	1	0.0511	4	0.000394	0	-1E+10	1	-1E+10	1	-1E+10	1
4902624	35	C	06/06/2025	10:42	-127.913	48.990	0	293.00	0	6.3780	0	33.9590	0	26.685	0	290.309	0	-1e10	1	-1e10	1	-1E+10	1	-1e10	1	-1e10	1	-1E+10	1	-1E+10	1	-1E+10	1
4902624	35	C	06/06/2025	10:42	-127.913	48.990	0	293.50	0	6.3747	0	33.9595	0	26.686	0	290.804	0	67.4	4	22.5	4	-1E+10	1	0.0628	4	0.000347	0	-1E+10	1	-1E+10	1	-1E+10	1
4902624	35	C	06/06/2025	10:42	-127.913	48.990	0	294.40	0	6.3689	0	33.9604	0	26.688	0	291.695	0	67.2	4	22.4	4	-1E+10	1	0.0611	4	0.000388	0	-1E+10	1	-1E+10	1	-1E+10	1
4902624	35	C	06/06/2025	10:42	-127.913	48.990	0	295.00	0	6.3650	0	33.9610	0	26.689	0	292.289	0	-1e10	1	-1e10	1	-1E+10	1	-1e10	1	-1e10	1	-1E+10	1	-1E+10	1	-1E+10	1
4902624	35	C	06/06/2025	10:42	-127.913	48.990	0	295.30	0	6.3645	0	33.9608	0	26.689	0	292.586	0	67.0	4	22.3	4	-1E+10	1	0.0493	4	0.000359	0	-1E+10	1	-1E+10	1	-1E+10	1
4902624	35	C	06/06/2025	10:42	-127.913	48.990	0	296.10	0	6.3633	0	33.9604	0	26.688	0	293.378	0	66.7	4	22.2	4	-1E+10	1	0.0471	4	0.000361	0	-1E+10	1	-1E+10	1	-1E+10	1
4902624	35	C	06/06/2025	10:42	-127.913	48.990	0	297.00	0	6.3620	0	33.9600	0	26.688	0	294.269	0	65.2	4	21.7	4	-1E+10	1	0.0511	4	0.000375	0	-1E+10	1	-1E+10	1	-1E+10	1
4902624	35	C	06/06/2025	10:42	-127.913	48.990	0	297.90	0	6.3584	0	33.9600	0	26.689	0	295.161	0	66.2	4	22.1	4	-1E+10	1	0.0479	4	0.000324	0	-1E+10	1	-1E+10	1	-1E+10	1
4902624	35	C	06/06/2025	10:42	-127.913	48.990	0	298.70	0	6.3552	0	33.9600	0	26.689	0	295.953	0	65.9	4	22.0	4	-1E+10	1	0.0438	4	0.000326	0	-1E+10	1	-1E+10	1	-1E+10	1
4902624	35	C	06/06/2025	10:42	-127.913	48.990	0	299.00	0	6.3540	0	33.9600	0	26.689	0	296.250	0	-1e10	1	-1e10	1	-1E+10	1	-1e10	1	-1e10	1	-1E+10	1	-1E+10	1	-1E+10	1
4902624	35	C	06/06/2025	10:42	-127.913	48.990	0	305.00	0	6.2650	0	33.9660	0	26.705	0	302.190	0	-1e10	1	-1e10	1	-1E+10	1	-1e10	1	-1e10	1	-1E+10	1	-1E+10	1	-1E+10	1
4902624	35	C	06/06/2025	10:42	-127.913	48.990	0	307.50	0	6.2405	0	33.9678	0	26.710	0	304.665	0	63.4	4	21.1	4	-1E+10	1	0.0445	4	0.000369	0	-1E+10	1	-1E+10	1	-1E+10	1
4902624	35	C	06/06/2025	10:42	-127.913	48.990	0	314.90	0	6.1680	0	33.9730	0	26.723	0	311.991	0	-1e10	1	-1e10	1	-1E+10	1	-1e10	1	-1e10	1	-1E+10	1	-1E+10	1	-1E+10	1
4902624	35	C	06/06/2025	10:42	-127.913	48.990	0	316.10	0	6.1499	0	33.9739	0	26.727	0	313.179	0	60.6	4	20.1	4	-1E+10	1	0.0587	4	0.000336	0	-1E+10	1	-1E+10	1	-1E+10	1
4902624	35	C	06/06/2025	10:42	-127.913	48.990	0	324.70	0	6.0205	0	33.9808	0	26.748	0	321.693	0	57.8	4	19.1	4	-1E+10	1	0.0654	4	0.000347	0	-1E+10	1	-1E+10	1	-1E+10	1
4902624	35	C	06/06/2025	10:42	-127.913	48.990	0	325.00	0	6.0160	0	33.9810	0	26.749	0	321.990	0	-1e10	1	-1e10	1	-1E+10	1	-1e10	1	-1e10	1	-1E+10	1	-1E+10	1	-1E+10	1
4902624	35	C	06/06/2025	10:42	-127.913	48.990	0	333.10	0	5.9085	0	33.9874	0	26.768	0	330.009	0	55.3	4	18.2	4	-1E+10	1	0.0584	4	0.000335	0	-1E+10	1	-1E+10	1	-1E+10	1
4902624	35	C	06/06/2025	10:42	-127.913	48.990	0	335.10	0	5.8820	0	33.9890	0	26.772	0	331.989	0	-1e10	1	-1e10	1	-1E+10	1	-1e10	1	-1e10	1	-1E+10	1	-1E+10	1	-1E+10	1
4902624	35	C	06/06/2025	10:42	-127.913	48.990	0	341.30	0	5.8000	0	33.9928	0	26.785	0	338.126	0	53.0	4	17.4	4	-1E+10	1	0.0581	4	0.000324	0	-1E+10	1	-1E+10	1	-1E+10	1
4902624	35	C	06/06/2025	10:42	-127.913	48.990	0	345.00	0	5.7510	0	33.9950	0	26.793	0	341.789	0	-1e10	1	-1e10	1	-1E+10	1	-1e10	1	-1e10	1	-1E+10	1	-1E+10	1	-1E+10	1
4902624	35	C	06/06/2025	10:42	-127.913	48.990	0	349.60	0	5.7078	0	33.9978	0	26.801	0	346.342	0	51.1	4	16.8	4	-1E+10	1	0.0516	4	0.000345	0	-1E+10	1	-1E+10	1	-1E+10	1
4902624	35	C	06/06/2025	10:42	-127.913	48.990	0	354.80	0	5.6590	0	34.0010	0	26.809	0	351.489	0	-1e10	1	-1e10	1	-1E+10	1	-1e10	1	-1e10	1	-1E+10	1	-1E+10	1	-1E+10	1
4902624	35	C	06/06/2025	10:42	-127.913	48.990	0	358.00	0	5.6462	0	34.0023	0	26.812	0	354.656	0	49.5	4	16.2	4	-1E+10	1	0.0654	4	0.000299	0	-1E+10	1	-1E+10	1	-1E+10	1
4902624	35	C	06/06/2025	10:42	-127.913	48.990	0	364.80	0	5.6190	0	34.0050	0	26.817	0	361.387	0	-1e10	1	-1e10	1	-1E+10	1	-1e10	1	-1e10	1	-1E+10	1	-1E+10	1	-1E+10	1
4902624	35	C	06/06/2025	10:42	-127.913	48.990	0	366.80	0	5.6004	0	34.0062	0	26.821	0	363.367	0	47.6	4	15.6	4	-1E+10	1	0.0581	4	0.000264	0	-1E+10	1	-1E+10	1	-1E+10	1
4902624	35	C	06/06/2025	10:42	-127.913	48.990	0	374.80	0	5.5260	0	34.0110	0	26.833	0	371.285	0	-1e10	1	-1e10	1	-1E+10	1	-1e10	1	-1e10	1	-1E+10	1	-1E+10	1	-1E+10	1
4902624	35	C	06/06/2025	10:42	-127.913	48.990	0	375.80	0	5.5170	0	34.0119	0	26.835	0	372.274	0	45.2	4	14.8	4	-1E+10	1	0.0513	4	0.000254	0	-1E+10	1	-1E+10	1	-1E+10	1
4902624	35	C	06/06/2025	10:42	-127.913	48.990	0	384.80	0	5.4360	0	34.0200	0	26.851	0	381.182	0	-1e10	1	-1e10	1	-1E+10	1	-1e10	1	-1e10	1	-1E+10	1	-1E+10	1	-1E+10	1
4902624	35	C	06/06/2025	10:42	-127.913	48.990	0	385.10	0	5.4346	0	34.0205	0	26.852	0	381.478	0	42.5	4	13.9	4	-1E+10	1	0.0587	4	0.000282	0	-1E+10	1	-1E+10	1	-1E+10	1
4902624	35	C	06/06/2025	10:42	-127.913	48.990	0	394.80	0	5.3880	0	34.0360	0	26.870	0	391.078	0	38.8	4	12.6	4	-1E+10	1	0.0648	4	0.000431	0	-1E+10	1	-1E+10	1	-1E+10	1
4902624	35	C	06/06/2025	10:42	-127.913	48.990	0	404.60	0	5.4127	0	34.0489	0	26.877	0	400.776	0	38.2	4	12.5	4	-1E+10	1	0.0438	4	0.000497	0	-1E+10	1	-1E+10	1	-1E+10	1
4902624	35	C	06/06/2025	10:42	-127.913	48.990	0	404.70	0	5.4130	0	34.0490	0	26.877	0	400.875	0	-1e10	1	-1e10	1	-1E+10	1	-1e10	1	-1e10	1	-1E+10	1	-1E+10	1	-1E+10	1
4902624	35	C	06/06/2025	10:42	-127.913	48.990	0	414.80	0	5.3962	0	34.0549	0	26.884	0	410.870	0	36.9	4	12.0	4	-1E+10	1	0.0445	4	0.000450	0	-1E+10	1	-1E+10	1	-1E+10	1
4902624	35	C	06/06/2025	10:42	-127.913	48.990	0	414.90	0	5.3960	0	34.0550	0	26.884	0	410.969	0	-1e10	1	-1e10	1	-1E+10	1	-1e10	1	-1e10	1	-1E+10	1	-1E+10	1	-1E+10	1
4902624	35	C	06/06/2025	10:42	-127.913	48.990	0	425.00	0	5.3440	0	34.0590	0	26.893	0	420.963	0	-1e10	1	-1e10	1	-1E+10	1	-1e10	1	-1e10	1	-1E+10	1	-1E+10	1	-1E+10	1
4902624	35	C	06/06/2025	10:42	-127.913	48.990	0	425.40	0	5.3425	0	34.0592	0	26.894	0	421.359	0	35.7	4	11.6	4	-1E+10	1	0.0587	4	0.000410	0	-1E+10	1	-1E+10	1	-1E+10	1
4902624	35	C	06/06/2025	10:42	-127.913	48.990	0	435.00	0	5.3070	0	34.0630	0	26.901	0	430.857	0	-1e10	1	-1e10	1	-1E+10	1	-1e10	1	-1e10	1	-1E+10	1	-1E+10	1	-1E+10	1
4902624	35	C	06/06/2025	10:42	-127.913	48.990	0	436.40	0	5.2995	0	34.0642	0	26.903	0	432.243	0	34.0	4	11.1	4	-1E+10	1	0.0652	4	0.000508	0	-1E+10	1	-1E+10	1	-1E+10	1
4902624	35	C	06/06/2025	10:42	-127.913	48.990	0	445.30	0	5.2520	0	34.0720	0	26.915	0	441.048	0	-1e10	1	-1e10	1	-1E+10	1	-1e10	1	-1e10	1	-1E+10	1	-1E+10	1	-1E+10	1
4902624	35	C	06/06/2025	10:42	-127.913	48.990	0	447.80	0	5.2426	0	34.0740	0	26.917	0	443.522	0	32.1	4	10.4	4	-1E+10	1	0.0508	4	0.000443	0	-1E+10	1	-1E+10	1	-1E+10	1
4902624	35	C	06/06/2025	10:42	-127.913	48.990	0	455.10	0	5.2150	0	34.0800	0	26.925	0	450.744	0	-1e10	1	-1e10	1	-1E+10	1	-1e10	1	-1e10	1	-1E+10	1	-1E+10	1	-1E+10	1
4902624	35	C	06/06/2025	10:42	-127.913	48.990	0	459.60	0	5.1972	0	34.0836	0	26.930	0	455.196	0	30.4	4	9.9	4	-1E+10	1	0.0445	4	0.000518	0	-1E+10	1	-1E+10	1	-1E+10	1
4902624	35	C	06/06/2025	10:42	-127.913	48.990	0	465.20	0	5.1750	0	34.0880	0	26.936	0	460.736	0	-1e10	1	-1e10	1	-1E+10	1	-1e10	1	-1e10	1	-1E+10	1	-1E+10	1	-1E+10	1
4902624	35	C	06/06/2025	10:42	-127.913	48.990	0	469.60	0	5.1632	0	34.0898	0	26.939	0	465.089	0	29.5	4	9.6	4	-1E+10	1	0.0584	4	0.000446	0	-1E+10	1	-1E+10	1	-1E+10	1
4902624	35	C	06/06/2025	10:42	-127.913	48.990	0	474.90	0	5.1490	0	34.0920	0	26.943	0	470.332	0	-1e10	1	-1e10	1	-1E+10	1	-1e10	1	-1e10	1	-1E+10	1	-1E+10	1	-1E+10	1
4902624	35	C	06/06/2025	10:42	-127.913	48.990	0	477.30	0	5.1426	0	34.0932	0	26.944	0	472.706	0	28.7	4	9.3	4	-1E+10	1	0.0587	4	0.000611	0	-1E+10	1	-1E+10	1	-1E+10	1
4902624	35	C	06/06/2025	10:42	-127.913	48.990	0	485.00	0	5.1220	0	34.0970	0	26.950	0	480.323	0	-1e10	1	-1e10	1	-1E+10	1	-1e10	1	-1e10	1	-1E+10	1	-1E+10	1	-1E+10	1
4902624	35	C	06/06/2025	10:42	-127.913	48.990	0	485.40	0	5.1208	0	34.0976	0	26.950	0	480.719	0	27.1	4	8.8	4	-1E+10	1	0.0657	4	0.000498	0	-1E+10	1	-1E+10	1	-1E+10	1
4902624	35	C	06/06/2025	10:42	-127.913	48.990	0	493.90	0	5.0950	0	34.1096	0	26.963	0	489.127	0	26.0	4	8.4	4	-1E+10	1	0.0647	4	0.000508	0	-1E+10	1	-1E+10	1	-1E+10	1
4902624	35	C	06/06/2025	10:42	-127.913	48.990	0	494.90	0	5.0920	0	34.1110	0	26.965	0	490.116	0	-1e10	1	-1e10	1	-1E+10	1	-1e10	1	-1e10	1	-1E+10	1	-1E+10	1	-1E+10	1
4902624	35	C	06/06/2025	10:42	-127.913	48.990	0	502.40	0	5.0582	0	34.1155	0	26.972	0	497.535	0	24.9	4	8.1	4	-1E+10	1	0.0443	4	0.000712	0	-1E+10	1	-1E+10	1	-1E+10	1
4902624	35	C	06/06/2025	10:42	-127.913	48.990	0	504.90	0	5.0470	0	34.1170	0	26.975	0	500.008	0	-1e10	1	-1e10	1	-1E+10	1	-1e10	1	-1e10	1	-1E+10	1	-1E+10	1	-1E+10	1
4902624	35	C	06/06/2025	10:42	-127.913	48.990	0	511.00	0	4.9957	0	34.1206	0	26.983	0	506.041	0	23.8	4	7.7	4	-1E+10	1	0.0591	4	0.000473	0	-1E+10	1	-1E+10	1	-1E+10	1
4902624	35	C	06/06/2025	10:42	-127.913	48.990	0	515.00	0	4.9620	0	34.1230	0	26.989	0	509.997	0	-1e10	1	-1e10	1	-1E+10	1	-1e10	1	-1e10	1	-1E+10	1	-1E+10	1	-1E+10	1
4902624	35	C	06/06/2025	10:42	-127.913	48.990	0	519.50	0	4.9444	0	34.1253	0	26.993	0	514.448	0	23.2	4	7.5	4	-1E+10	1	0.0727	4	0.000437	0	-1E+10	1	-1E+10	1	-1E+10	1
4902624	35	C	06/06/2025	10:42	-127.913	48.990	0	525.00	0	4.9230	0	34.1280	0	26.998	0	519.888	0	-1e10	1	-1e10	1	-1E+10	1	-1e10	1	-1e10	1	-1E+10	1	-1E+10	1	-1E+10	1
4902624	35	C	06/06/2025	10:42	-127.913	48.990	0	527.80	0	4.9174	0	34.1291	0	26.999	0	522.657	0	22.7	4	7.3	4	-1E+10	1	0.0650	4	0.000394	0	-1E+10	1	-1E+10	1	-1E+10	1
4902624	35	C	06/06/2025	10:42	-127.913	48.990	0	535.00	0	4.9030	0	34.1320	0	27.003	0	529.778	0	-1e10	1	-1e10	1	-1E+10	1	-1e10	1	-1e10	1	-1E+10	1	-1E+10	1	-1E+10	1
4902624	35	C	06/06/2025	10:42	-127.913	48.990	0	536.20	0	4.9007	0	34.1325	0	27.004	0	530.964	0	22.1	4	7.1	4	-1E+10	1	0.0506	4	0.000439	0	-1E+10	1	-1E+10	1	-1E+10	1
4902624	35	C	06/06/2025	10:42	-127.913	48.990	0	544.70	0	4.8844	0	34.1359	0	27.008	0	539.370	0	21.4	4	6.9	4	-1E+10	1	0.0370	4	0.000426	0	-1E+10	1	-1E+10	1	-1E+10	1
4902624	35	C	06/06/2025	10:42	-127.913	48.990	0	544.90	0	4.8840	0	34.1360	0	27.008	0	539.568	0	-1e10	1	-1e10	1	-1E+10	1	-1e10	1	-1e10	1	-1E+10	1	-1E+10	1	-1E+10	1
4902624	35	C	06/06/2025	10:42	-127.913	48.990	0	553.40	0	4.8610	0	34.1411	0	27.015	0	547.974	0	20.7	4	6.7	4	-1E+10	1	0.0516	4	0.000381	0	-1E+10	1	-1E+10	1	-1E+10	1
4902624	35	C	06/06/2025	10:42	-127.913	48.990	0	554.90	0	4.8570	0	34.1420	0	27.016	0	549.457	0	-1e10	1	-1e10	1	-1E+10	1	-1e10	1	-1e10	1	-1E+10	1	-1E+10	1	-1E+10	1
4902624	35	C	06/06/2025	10:42	-127.913	48.990	0	562.30	0	4.8296	0	34.1464	0	27.023	0	556.775	0	19.9	4	6.4	4	-1E+10	1	0.0652	4	0.000391	0	-1E+10	1	-1E+10	1	-1E+10	1
4902624	35	C	06/06/2025	10:42	-127.913	48.990	0	564.90	0	4.8200	0	34.1480	0	27.025	0	559.346	0	-1e10	1	-1e10	1	-1E+10	1	-1e10	1	-1e10	1	-1E+10	1	-1E+10	1	-1E+10	1
4902624	35	C	06/06/2025	10:42	-127.913	48.990	0	571.10	0	4.8042	0	34.1516	0	27.030	0	565.476	0	19.2	4	6.2	4	-1E+10	1	0.0511	4	0.000370	0	-1E+10	1	-1E+10	1	-1E+10	1
4902624	35	C	06/06/2025	10:42	-127.913	48.990	0	575.10	0	4.7940	0	34.1540	0	27.033	0	569.431	0	-1e10	1	-1e10	1	-1E+10	1	-1e10	1	-1e10	1	-1E+10	1	-1E+10	1	-1E+10	1
4902624	35	C	06/06/2025	10:42	-127.913	48.990	0	580.00	0	4.7806	0	34.1570	0	27.037	0	574.276	0	18.5	4	6.0	4	-1E+10	1	0.0513	4	0.000426	0	-1E+10	1	-1E+10	1	-1E+10	1
4902624	35	C	06/06/2025	10:42	-127.913	48.990	0	585.00	0	4.7670	0	34.1600	0	27.041	0	579.220	0	-1e10	1	-1e10	1	-1E+10	1	-1e10	1	-1e10	1	-1E+10	1	-1E+10	1	-1E+10	1
4902624	35	C	06/06/2025	10:42	-127.913	48.990	0	589.10	0	4.7563	0	34.1621	0	27.044	0	583.274	0	17.9	4	5.8	4	-1E+10	1	0.0584	4	0.000415	0	-1E+10	1	-1E+10	1	-1E+10	1
4902624	35	C	06/06/2025	10:42	-127.913	48.990	0	595.00	0	4.7410	0	34.1650	0	27.048	0	589.107	0	-1e10	1	-1e10	1	-1E+10	1	-1e10	1	-1e10	1	-1E+10	1	-1E+10	1	-1E+10	1
4902624	35	C	06/06/2025	10:42	-127.913	48.990	0	598.60	0	4.7349	0	34.1664	0	27.050	0	592.666	0	17.5	4	5.6	4	-1E+10	1	0.0581	4	0.000416	0	-1E+10	1	-1E+10	1	-1E+10	1
4902624	35	C	06/06/2025	10:42	-127.913	48.990	0	605.00	0	4.7240	0	34.1690	0	27.053	0	598.994	0	-1e10	1	-1e10	1	-1E+10	1	-1e10	1	-1e10	1	-1E+10	1	-1E+10	1	-1E+10	1
4902624	35	C	06/06/2025	10:42	-127.913	48.990	0	608.50	0	4.7176	0	34.1701	0	27.055	0	602.454	0	17.2	4	5.5	4	-1E+10	1	0.0511	4	0.000448	0	-1E+10	1	-1E+10	1	-1E+10	1
4902624	35	C	06/06/2025	10:42	-127.913	48.990	0	614.90	0	4.7060	0	34.1720	0	27.057	0	608.781	0	-1e10	1	-1e10	1	-1E+10	1	-1e10	1	-1e10	1	-1E+10	1	-1E+10	1	-1E+10	1
4902624	35	C	06/06/2025	10:42	-127.913	48.990	0	618.40	0	4.7015	0	34.1730	0	27.059	0	612.241	0	16.8	4	5.4	4	-1E+10	1	0.0520	4	0.000397	0	-1E+10	1	-1E+10	1	-1E+10	1
4902624	35	C	06/06/2025	10:42	-127.913	48.990	0	625.00	0	4.6930	0	34.1750	0	27.061	0	618.765	0	-1e10	1	-1e10	1	-1E+10	1	-1e10	1	-1e10	1	-1E+10	1	-1E+10	1	-1E+10	1
4902624	35	C	06/06/2025	10:42	-127.913	48.990	0	628.70	0	4.6893	0	34.1757	0	27.062	0	622.423	0	16.4	4	5.3	4	-1E+10	1	0.0716	4	0.000537	0	-1E+10	1	-1E+10	1	-1E+10	1
4902624	35	C	06/06/2025	10:42	-127.913	48.990	0	635.10	0	4.6830	0	34.1770	0	27.064	0	628.749	0	-1e10	1	-1e10	1	-1E+10	1	-1e10	1	-1e10	1	-1E+10	1	-1E+10	1	-1E+10	1
4902624	35	C	06/06/2025	10:42	-127.913	48.990	0	639.40	0	4.6747	0	34.1788	0	27.066	0	633.000	0	15.9	4	5.1	4	-1E+10	1	0.0443	4	0.000391	0	-1E+10	1	-1E+10	1	-1E+10	1
4902624	35	C	06/06/2025	10:42	-127.913	48.990	0	644.90	0	4.6640	0	34.1810	0	27.069	0	638.436	0	-1e10	1	-1e10	1	-1E+10	1	-1e10	1	-1e10	1	-1E+10	1	-1E+10	1	-1E+10	1
4902624	35	C	06/06/2025	10:42	-127.913	48.990	0	650.70	0	4.6453	0	34.1845	0	27.074	0	644.169	0	15.2	4	4.9	4	-1E+10	1	0.0579	4	0.000394	0	-1E+10	1	-1E+10	1	-1E+10	1
4902624	35	C	06/06/2025	10:42	-127.913	48.990	0	654.80	0	4.6320	0	34.1870	0	27.078	0	648.222	0	-1e10	1	-1e10	1	-1E+10	1	-1e10	1	-1e10	1	-1E+10	1	-1E+10	1	-1E+10	1
4902624	35	C	06/06/2025	10:42	-127.913	48.990	0	662.20	0	4.6142	0	34.1907	0	27.083	0	655.536	0	14.8	4	4.7	4	-1E+10	1	0.0454	4	0.000468	0	-1E+10	1	-1E+10	1	-1E+10	1
4902624	35	C	06/06/2025	10:42	-127.913	48.990	0	664.80	0	4.6080	0	34.1920	0	27.084	0	658.105	0	-1e10	1	-1e10	1	-1E+10	1	-1e10	1	-1e10	1	-1E+10	1	-1E+10	1	-1E+10	1
4902624	35	C	06/06/2025	10:42	-127.913	48.990	0	673.80	0	4.5912	0	34.1955	0	27.089	0	667.000	0	14.2	4	4.5	4	-1E+10	1	0.0800	4	0.000369	0	-1E+10	1	-1E+10	1	-1E+10	1
4902624	35	C	06/06/2025	10:42	-127.913	48.990	0	675.00	0	4.5890	0	34.1960	0	27.090	0	668.186	0	-1e10	1	-1e10	1	-1E+10	1	-1e10	1	-1e10	1	-1E+10	1	-1E+10	1	-1E+10	1
4902624	35	C	06/06/2025	10:42	-127.913	48.990	0	684.80	0	4.5660	0	34.2000	0	27.096	0	677.871	0	-1e10	1	-1e10	1	-1E+10	1	-1e10	1	-1e10	1	-1E+10	1	-1E+10	1	-1E+10	1
4902624	35	C	06/06/2025	10:42	-127.913	48.990	0	685.70	0	4.5663	0	34.2004	0	27.096	0	678.761	0	13.8	4	4.4	4	-1E+10	1	0.0730	4	0.000418	0	-1E+10	1	-1E+10	1	-1E+10	1
4902624	35	C	06/06/2025	10:42	-127.913	48.990	0	694.90	0	4.5690	0	34.2040	0	27.098	0	687.853	0	-1e10	1	-1e10	1	-1E+10	1	-1e10	1	-1e10	1	-1E+10	1	-1E+10	1	-1E+10	1
4902624	35	C	06/06/2025	10:42	-127.913	48.990	0	695.30	0	4.5683	0	34.2044	0	27.099	0	688.248	0	13.1	4	4.2	4	-1E+10	1	0.0730	4	0.000482	0	-1E+10	1	-1E+10	1	-1E+10	1
4902624	35	C	06/06/2025	10:42	-127.913	48.990	0	702.90	0	4.5541	0	34.2118	0	27.106	0	695.758	0	12.8	4	4.1	4	-1E+10	1	0.0717	4	0.000400	0	-1E+10	1	-1E+10	1	-1E+10	1
4902624	35	C	06/06/2025	10:42	-127.913	48.990	0	705.10	0	4.5500	0	34.2140	0	27.109	0	697.932	0	-1e10	1	-1e10	1	-1E+10	1	-1e10	1	-1e10	1	-1E+10	1	-1E+10	1	-1E+10	1
4902624	35	C	06/06/2025	10:42	-127.913	48.990	0	711.10	0	4.5373	0	34.2152	0	27.111	0	703.861	0	12.5	4	4.0	4	-1E+10	1	0.0375	4	0.000358	0	-1E+10	1	-1E+10	1	-1E+10	1
4902624	35	C	06/06/2025	10:42	-127.913	48.990	0	715.00	0	4.5290	0	34.2160	0	27.113	0	707.715	0	-1e10	1	-1e10	1	-1E+10	1	-1e10	1	-1e10	1	-1E+10	1	-1E+10	1	-1E+10	1
4902624	35	C	06/06/2025	10:42	-127.913	48.990	0	719.70	0	4.5201	0	34.2188	0	27.116	0	712.359	0	12.1	4	3.9	4	-1E+10	1	0.0654	4	0.000435	0	-1E+10	1	-1E+10	1	-1E+10	1
4902624	35	C	06/06/2025	10:42	-127.913	48.990	0	725.00	0	4.5100	0	34.2220	0	27.119	0	717.596	0	-1e10	1	-1e10	1	-1E+10	1	-1e10	1	-1e10	1	-1E+10	1	-1E+10	1	-1E+10	1
4902624	35	C	06/06/2025	10:42	-127.913	48.990	0	728.20	0	4.4993	0	34.2246	0	27.123	0	720.757	0	11.6	4	3.7	4	-1E+10	1	0.0584	4	0.000391	0	-1E+10	1	-1E+10	1	-1E+10	1
4902624	35	C	06/06/2025	10:42	-127.913	48.990	0	734.90	0	4.4770	0	34.2300	0	27.129	0	727.377	0	-1e10	1	-1e10	1	-1E+10	1	-1e10	1	-1e10	1	-1E+10	1	-1E+10	1	-1E+10	1
4902624	35	C	06/06/2025	10:42	-127.913	48.990	0	736.70	0	4.4680	0	34.2320	0	27.132	0	729.156	0	11.0	4	3.5	4	-1E+10	1	0.0589	4	0.000399	0	-1E+10	1	-1E+10	1	-1E+10	1
4902624	35	C	06/06/2025	10:42	-127.913	48.990	0	744.90	0	4.4270	0	34.2410	0	27.144	0	737.257	0	-1e10	1	-1e10	1	-1E+10	1	-1e10	1	-1e10	1	-1E+10	1	-1E+10	1	-1E+10	1
4902624	35	C	06/06/2025	10:42	-127.913	48.990	0	745.30	0	4.4256	0	34.2413	0	27.144	0	737.652	0	10.4	4	3.3	4	-1E+10	1	0.0714	4	0.000335	0	-1E+10	1	-1E+10	1	-1E+10	1
4902624	35	C	06/06/2025	10:42	-127.913	48.990	0	754.20	0	4.3951	0	34.2483	0	27.153	0	746.445	0	10.3	4	3.3	4	-1E+10	1	0.0368	4	0.000358	0	-1E+10	1	-1E+10	1	-1E+10	1
4902624	35	C	06/06/2025	10:42	-127.913	48.990	0	755.10	0	4.3920	0	34.2490	0	27.154	0	747.334	0	-1e10	1	-1e10	1	-1E+10	1	-1e10	1	-1e10	1	-1E+10	1	-1E+10	1	-1E+10	1
4902624	35	C	06/06/2025	10:42	-127.913	48.990	0	763.30	0	4.3482	0	34.2547	0	27.163	0	755.435	0	9.9	4	3.2	4	-1E+10	1	0.0441	4	0.000419	0	-1E+10	1	-1E+10	1	-1E+10	1
4902624	35	C	06/06/2025	10:42	-127.913	48.990	0	765.20	0	4.3380	0	34.2560	0	27.165	0	757.312	0	-1e10	1	-1e10	1	-1E+10	1	-1e10	1	-1e10	1	-1E+10	1	-1E+10	1	-1E+10	1
4902624	35	C	06/06/2025	10:42	-127.913	48.990	0	772.30	0	4.3097	0	34.2596	0	27.171	0	764.326	0	9.4	4	3.0	4	-1E+10	1	0.0511	4	0.000296	0	-1E+10	1	-1E+10	1	-1E+10	1
4902624	35	C	06/06/2025	10:42	-127.913	48.990	0	775.00	0	4.2990	0	34.2610	0	27.173	0	766.993	0	-1e10	1	-1e10	1	-1E+10	1	-1e10	1	-1e10	1	-1E+10	1	-1E+10	1	-1E+10	1
4902624	35	C	06/06/2025	10:42	-127.913	48.990	0	781.50	0	4.2723	0	34.2662	0	27.180	0	773.414	0	9.1	4	2.9	4	-1E+10	1	0.0517	4	0.000295	0	-1E+10	1	-1E+10	1	-1E+10	1
4902624	35	C	06/06/2025	10:42	-127.913	48.990	0	785.00	0	4.2580	0	34.2690	0	27.184	0	776.871	0	-1e10	1	-1e10	1	-1E+10	1	-1e10	1	-1e10	1	-1E+10	1	-1E+10	1	-1E+10	1
4902624	35	C	06/06/2025	10:42	-127.913	48.990	0	791.00	0	4.2496	0	34.2726	0	27.188	0	782.798	0	9.1	4	2.9	4	-1E+10	1	0.0654	4	0.000276	0	-1E+10	1	-1E+10	1	-1E+10	1
4902624	35	C	06/06/2025	10:42	-127.913	48.990	0	795.00	0	4.2440	0	34.2750	0	27.190	0	786.749	0	-1e10	1	-1e10	1	-1E+10	1	-1e10	1	-1e10	1	-1E+10	1	-1E+10	1	-1E+10	1
4902624	35	C	06/06/2025	10:42	-127.913	48.990	0	800.50	0	4.2429	0	34.2772	0	27.192	0	792.181	0	9.1	4	2.9	4	-1E+10	1	0.0586	4	0.000354	0	-1E+10	1	-1E+10	1	-1E+10	1
4902624	35	C	06/06/2025	10:42	-127.913	48.990	0	805.00	0	4.2420	0	34.2790	0	27.194	0	796.626	0	-1e10	1	-1e10	1	-1E+10	1	-1e10	1	-1e10	1	-1E+10	1	-1E+10	1	-1E+10	1
4902624	35	C	06/06/2025	10:42	-127.913	48.990	0	810.00	0	4.2316	0	34.2815	0	27.197	0	801.564	0	8.7	4	2.8	4	-1E+10	1	0.0654	4	0.000346	0	-1E+10	1	-1E+10	1	-1E+10	1
4902624	35	C	06/06/2025	10:42	-127.913	48.990	0	815.10	0	4.2210	0	34.2840	0	27.200	0	806.601	0	-1e10	1	-1e10	1	-1E+10	1	-1e10	1	-1e10	1	-1E+10	1	-1E+10	1	-1E+10	1
4902624	35	C	06/06/2025	10:42	-127.913	48.990	0	819.40	0	4.2124	0	34.2866	0	27.203	0	810.848	0	8.2	4	2.6	4	-1E+10	1	0.0581	4	0.000425	0	-1E+10	1	-1E+10	1	-1E+10	1
4902624	35	C	06/06/2025	10:42	-127.913	48.990	0	825.10	0	4.2010	0	34.2900	0	27.207	0	816.478	0	-1e10	1	-1e10	1	-1E+10	1	-1e10	1	-1e10	1	-1E+10	1	-1E+10	1	-1E+10	1
4902624	35	C	06/06/2025	10:42	-127.913	48.990	0	828.80	0	4.1917	0	34.2919	0	27.210	0	820.132	0	8.1	4	2.6	4	-1E+10	1	0.0509	4	0.000168	0	-1E+10	1	-1E+10	1	-1E+10	1
4902624	35	C	06/06/2025	10:42	-127.913	48.990	0	835.00	0	4.1760	0	34.2950	0	27.214	0	826.255	0	-1e10	1	-1e10	1	-1E+10	1	-1e10	1	-1e10	1	-1E+10	1	-1E+10	1	-1E+10	1
4902624	35	C	06/06/2025	10:42	-127.913	48.990	0	838.40	0	4.1665	0	34.2970	0	27.216	0	829.612	0	8.0	4	2.5	4	-1E+10	1	0.0444	4	0.000225	0	-1E+10	1	-1E+10	1	-1E+10	1
4902624	35	C	06/06/2025	10:42	-127.913	48.990	0	845.00	0	4.1480	0	34.3010	0	27.221	0	836.130	0	-1e10	1	-1e10	1	-1E+10	1	-1e10	1	-1e10	1	-1E+10	1	-1E+10	1	-1E+10	1
4902624	35	C	06/06/2025	10:42	-127.913	48.990	0	848.20	0	4.1339	0	34.3032	0	27.225	0	839.290	0	7.8	4	2.5	4	-1E+10	1	0.0584	4	0.000235	0	-1E+10	1	-1E+10	1	-1E+10	1
4902624	35	C	06/06/2025	10:42	-127.913	48.990	0	855.20	0	4.1030	0	34.3080	0	27.232	0	846.202	0	-1e10	1	-1e10	1	-1E+10	1	-1e10	1	-1e10	1	-1E+10	1	-1E+10	1	-1E+10	1
4902624	35	C	06/06/2025	10:42	-127.913	48.990	0	858.30	0	4.0881	0	34.3102	0	27.235	0	849.263	0	7.7	4	2.4	4	-1E+10	1	0.0584	4	0.000211	0	-1E+10	1	-1E+10	1	-1E+10	1
4902624	35	C	06/06/2025	10:42	-127.913	48.990	0	865.20	0	4.0550	0	34.3150	0	27.242	0	856.077	0	-1e10	1	-1e10	1	-1E+10	1	-1e10	1	-1e10	1	-1E+10	1	-1E+10	1	-1E+10	1
4902624	35	C	06/06/2025	10:42	-127.913	48.990	0	868.90	0	4.0461	0	34.3161	0	27.244	0	859.730	0	7.6	4	2.4	4	-1E+10	1	0.0581	4	0.000167	0	-1E+10	1	-1E+10	1	-1E+10	1
4902624	35	C	06/06/2025	10:42	-127.913	48.990	0	875.20	0	4.0310	0	34.3180	0	27.247	0	865.950	0	-1e10	1	-1e10	1	-1E+10	1	-1e10	1	-1e10	1	-1E+10	1	-1E+10	1	-1E+10	1
4902624	35	C	06/06/2025	10:42	-127.913	48.990	0	879.70	0	4.0152	0	34.3208	0	27.251	0	870.393	0	7.5	4	2.4	4	-1E+10	1	0.0514	4	0.000190	0	-1E+10	1	-1E+10	1	-1E+10	1
4902624	35	C	06/06/2025	10:42	-127.913	48.990	0	884.90	0	3.9970	0	34.3240	0	27.256	0	875.528	0	-1e10	1	-1e10	1	-1E+10	1	-1e10	1	-1e10	1	-1E+10	1	-1E+10	1	-1E+10	1
4902624	35	C	06/06/2025	10:42	-127.913	48.990	0	890.80	0	3.9775	0	34.3270	0	27.260	0	881.353	0	7.5	4	2.4	4	-1E+10	1	0.0581	4	0.000212	0	-1E+10	1	-1E+10	1	-1E+10	1
4902624	35	C	06/06/2025	10:42	-127.913	48.990	0	894.90	0	3.9640	0	34.3290	0	27.263	0	885.401	0	-1e10	1	-1e10	1	-1E+10	1	-1e10	1	-1e10	1	-1E+10	1	-1E+10	1	-1E+10	1
4902624	35	C	06/06/2025	10:42	-127.913	48.990	0	902.10	0	3.9438	0	34.3319	0	27.267	0	892.509	0	7.5	4	2.4	4	-1E+10	1	0.0516	4	0.000212	0	-1E+10	1	-1E+10	1	-1E+10	1
4902624	35	C	06/06/2025	10:42	-127.913	48.990	0	904.90	0	3.9360	0	34.3330	0	27.269	0	895.273	0	-1e10	1	-1e10	1	-1E+10	1	-1e10	1	-1e10	1	-1E+10	1	-1E+10	1	-1E+10	1
4902624	35	C	06/06/2025	10:42	-127.913	48.990	0	913.70	0	3.9032	0	34.3373	0	27.276	0	903.960	0	7.4	4	2.3	4	-1E+10	1	0.0652	4	0.000199	0	-1E+10	1	-1E+10	1	-1E+10	1
4902624	35	C	06/06/2025	10:42	-127.913	48.990	0	915.10	0	3.8980	0	34.3380	0	27.277	0	905.342	0	-1e10	1	-1e10	1	-1E+10	1	-1e10	1	-1e10	1	-1E+10	1	-1E+10	1	-1E+10	1
4902624	35	C	06/06/2025	10:42	-127.913	48.990	0	925.20	0	3.8680	0	34.3420	0	27.283	0	915.313	0	-1e10	1	-1e10	1	-1E+10	1	-1e10	1	-1e10	1	-1E+10	1	-1E+10	1	-1E+10	1
4902624	35	C	06/06/2025	10:42	-127.913	48.990	0	925.50	0	3.8676	0	34.3421	0	27.283	0	915.609	0	7.5	4	2.4	4	-1E+10	1	0.0514	4	0.000166	0	-1E+10	1	-1E+10	1	-1E+10	1
4902624	35	C	06/06/2025	10:42	-127.913	48.990	0	935.30	0	3.8530	0	34.3440	0	27.286	0	925.282	0	-1e10	1	-1e10	1	-1E+10	1	-1e10	1	-1e10	1	-1E+10	1	-1E+10	1	-1E+10	1
4902624	35	C	06/06/2025	10:42	-127.913	48.990	0	937.50	0	3.8471	0	34.3451	0	27.288	0	927.454	0	7.5	4	2.4	4	-1E+10	1	0.0581	4	0.000177	0	-1E+10	1	-1E+10	1	-1E+10	1
4902624	35	C	06/06/2025	10:42	-127.913	48.990	0	945.00	0	3.8270	0	34.3490	0	27.293	0	934.857	0	-1e10	1	-1e10	1	-1E+10	1	-1e10	1	-1e10	1	-1E+10	1	-1E+10	1	-1E+10	1
4902624	35	C	06/06/2025	10:42	-127.913	48.990	0	949.30	0	3.8137	0	34.3512	0	27.296	0	939.101	0	7.6	4	2.4	4	-1E+10	1	0.0515	4	0.000187	0	-1E+10	1	-1E+10	1	-1E+10	1
4902624	35	C	06/06/2025	10:42	-127.913	48.990	0	955.00	0	3.7960	0	34.3540	0	27.300	0	944.727	0	-1e10	1	-1e10	1	-1E+10	1	-1e10	1	-1e10	1	-1E+10	1	-1E+10	1	-1E+10	1
4902624	35	C	06/06/2025	10:42	-127.913	48.990	0	957.30	0	3.7905	0	34.3551	0	27.302	0	946.997	0	7.8	4	2.5	4	-1E+10	1	0.0581	4	0.000165	0	-1E+10	1	-1E+10	1	-1E+10	1
4902624	35	C	06/06/2025	10:42	-127.913	48.990	0	965.10	0	3.7720	0	34.3590	0	27.307	0	954.695	0	-1e10	1	-1e10	1	-1E+10	1	-1e10	1	-1e10	1	-1E+10	1	-1E+10	1	-1E+10	1
4902624	35	C	06/06/2025	10:42	-127.913	48.990	0	965.50	0	3.7706	0	34.3592	0	27.307	0	955.090	0	23.6	4	7.4	4	-1E+10	1	0.0514	4	0.000166	0	-1E+10	1	-1E+10	1	-1E+10	1
4902624	35	C	06/06/2025	10:42	-127.913	48.990	0	973.80	0	3.7407	0	34.3633	0	27.313	0	963.281	0	7.9	4	2.5	4	-1E+10	1	0.0587	4	0.000282	0	-1E+10	1	-1E+10	1	-1E+10	1
4902624	35	C	06/06/2025	10:42	-127.913	48.990	0	975.10	0	3.7360	0	34.3640	0	27.314	0	964.564	0	-1e10	1	-1e10	1	-1E+10	1	-1e10	1	-1e10	1	-1E+10	1	-1E+10	1	-1E+10	1
4902624	35	C	06/06/2025	10:42	-127.913	48.990	0	982.40	0	3.7039	0	34.3691	0	27.322	0	971.769	0	8.0	4	2.5	4	-1E+10	1	0.0652	4	0.002781	0	-1E+10	1	-1E+10	1	-1E+10	1
4902624	35	C	06/06/2025	10:42	-127.913	48.990	0	985.10	0	3.6920	0	34.3710	0	27.324	0	974.433	0	-1e10	1	-1e10	1	-1E+10	1	-1e10	1	-1e10	1	-1E+10	1	-1E+10	1	-1E+10	1
4902624	35	C	06/06/2025	10:42	-127.913	48.990	0	991.20	0	3.6754	0	34.3735	0	27.328	0	980.453	0	8.4	4	2.6	4	-1E+10	1	0.0516	4	0.000176	0	-1E+10	1	-1E+10	1	-1E+10	1
4902624	35	C	06/06/2025	10:42	-127.913	48.990	0	995.00	0	3.6650	0	34.3750	0	27.330	0	984.203	0	-1e10	1	-1e10	1	-1E+10	1	-1e10	1	-1e10	1	-1E+10	1	-1E+10	1	-1E+10	1
4902624	35	C	06/06/2025	10:42	-127.913	48.990	0	1007.70	0	3.6382	0	34.3797	0	27.337	0	996.735	0	50.7	4	15.9	4	-1E+10	1	0.0727	4	0.000164	0	-1E+10	1	-1E+10	1	-1E+10	1
4902624	35	C	06/06/2025	10:42	-127.913	48.990	0	1024.80	0	3.6020	0	34.3860	0	27.345	0	1013.607	0	-1e10	1	-1e10	1	-1E+10	1	-1e10	1	-1e10	1	-1E+10	1	-1E+10	1	-1E+10	1
4902624	35	C	06/06/2025	10:42	-127.913	48.990	0	1025.10	0	3.6014	0	34.3861	0	27.345	0	1013.903	0	43.3	4	13.5	4	-1E+10	1	0.0584	4	0.000164	0	-1E+10	1	-1E+10	1	-1E+10	1
4902624	35	C	06/06/2025	10:42	-127.913	48.990	0	1043.00	0	3.5653	0	34.3922	0	27.354	0	1031.564	0	43.7	4	13.7	4	-1E+10	1	0.0585	4	0.000164	0	-1E+10	1	-1E+10	1	-1E+10	1
4902624	35	C	06/06/2025	10:42	-127.913	48.990	0	1062.00	0	3.5270	0	34.3986	0	27.363	0	1050.308	0	46.5	4	14.5	4	-1E+10	1	0.0653	4	0.000176	0	-1E+10	1	-1E+10	1	-1E+10	1
4902624	35	C	06/06/2025	10:42	-127.913	48.990	0	1074.90	0	3.5010	0	34.4030	0	27.369	0	1063.033	0	-1e10	1	-1e10	1	-1E+10	1	-1e10	1	-1e10	1	-1E+10	1	-1E+10	1	-1E+10	1
4902624	35	C	06/06/2025	10:42	-127.913	48.990	0	1082.30	0	3.4836	0	34.4061	0	27.373	0	1070.333	0	51.0	4	15.9	4	-1E+10	1	0.0439	4	0.000187	0	-1E+10	1	-1E+10	1	-1E+10	1
4902624	35	C	06/06/2025	10:42	-127.913	48.990	0	1103.50	0	3.4336	0	34.4150	0	27.385	0	1091.243	0	53.7	4	16.8	4	-1E+10	1	0.0509	4	0.000175	0	-1E+10	1	-1E+10	1	-1E+10	1
4902624	35	C	06/06/2025	10:42	-127.913	48.990	0	1125.00	0	3.3830	0	34.4240	0	27.397	0	1112.447	0	-1e10	1	-1e10	1	-1E+10	1	-1e10	1	-1e10	1	-1E+10	1	-1E+10	1	-1E+10	1
4902624	35	C	06/06/2025	10:42	-127.913	48.990	0	1125.40	0	3.3823	0	34.4241	0	27.397	0	1112.842	0	56.9	4	17.7	4	-1E+10	1	0.0441	4	0.000170	0	-1E+10	1	-1E+10	1	-1E+10	1
4902624	35	C	06/06/2025	10:42	-127.913	48.990	0	1148.50	0	3.3428	0	34.4309	0	27.407	0	1135.622	0	58.1	4	18.1	4	-1E+10	1	0.0584	4	0.000290	0	-1E+10	1	-1E+10	1	-1E+10	1
4902624	35	C	06/06/2025	10:42	-127.913	48.990	0	1172.00	0	3.3027	0	34.4379	0	27.416	0	1158.793	0	59.9	4	18.6	4	-1E+10	1	0.0583	4	0.000163	0	-1E+10	1	-1E+10	1	-1E+10	1
4902624	35	C	06/06/2025	10:42	-127.913	48.990	0	1175.90	0	3.2960	0	34.4390	0	27.418	0	1162.639	0	-1e10	1	-1e10	1	-1E+10	1	-1e10	1	-1e10	1	-1E+10	1	-1E+10	1	-1E+10	1
4902624	35	C	06/06/2025	10:42	-127.913	48.990	0	1188.10	0	3.2706	0	34.4422	0	27.423	0	1174.667	0	62.1	4	19.3	4	-1E+10	1	0.0512	4	0.000174	0	-1E+10	1	-1E+10	1	-1E+10	1
4902624	35	C	06/06/2025	10:42	-127.913	48.990	0	1205.10	0	3.2351	0	34.4468	0	27.430	0	1191.427	0	64.1	4	19.9	4	-1E+10	1	0.0584	4	0.000174	0	-1E+10	1	-1E+10	1	-1E+10	1
4902624	35	C	06/06/2025	10:42	-127.913	48.990	0	1222.90	0	3.1980	0	34.4515	0	27.437	0	1208.974	0	65.8	4	20.4	4	-1E+10	1	0.0582	4	0.000162	0	-1E+10	1	-1E+10	1	-1E+10	1
4902624	35	C	06/06/2025	10:42	-127.913	48.990	0	1224.80	0	3.1940	0	34.4520	0	27.438	0	1210.847	0	-1e10	1	-1e10	1	-1E+10	1	-1e10	1	-1e10	1	-1E+10	1	-1E+10	1	-1E+10	1
4902624	35	C	06/06/2025	10:42	-127.913	48.990	0	1241.50	0	3.1581	0	34.4560	0	27.444	0	1227.308	0	67.1	4	20.8	4	-1E+10	1	0.0441	4	0.000162	0	-1E+10	1	-1E+10	1	-1E+10	1
4902624	35	C	06/06/2025	10:42	-127.913	48.990	0	1260.80	0	3.1167	0	34.4606	0	27.452	0	1246.330	0	69.1	4	21.4	4	-1E+10	1	0.0584	4	0.000186	0	-1E+10	1	-1E+10	1	-1E+10	1
4902624	35	C	06/06/2025	10:42	-127.913	48.990	0	1275.10	0	3.0860	0	34.4640	0	27.458	0	1260.423	0	-1e10	1	-1e10	1	-1E+10	1	-1e10	1	-1e10	1	-1E+10	1	-1E+10	1	-1E+10	1
4902624	35	C	06/06/2025	10:42	-127.913	48.990	0	1280.80	0	3.0757	0	34.4650	0	27.459	0	1266.040	0	71.4	4	22.1	4	-1E+10	1	0.0584	4	0.000231	0	-1E+10	1	-1E+10	1	-1E+10	1
4902624	35	C	06/06/2025	10:42	-127.913	48.990	0	1301.90	0	3.0378	0	34.4688	0	27.466	0	1286.833	0	73.2	4	22.6	4	-1E+10	1	0.0582	4	0.000184	0	-1E+10	1	-1E+10	1	-1E+10	1
4902624	35	C	06/06/2025	10:42	-127.913	48.990	0	1323.70	0	2.9985	0	34.4727	0	27.473	0	1308.313	0	75.9	4	23.4	4	-1E+10	1	0.0511	4	0.000185	0	-1E+10	1	-1E+10	1	-1E+10	1
4902624	35	C	06/06/2025	10:42	-127.913	48.990	0	1325.10	0	2.9960	0	34.4730	0	27.473	0	1309.692	0	-1e10	1	-1e10	1	-1E+10	1	-1e10	1	-1e10	1	-1E+10	1	-1E+10	1	-1E+10	1
4902624	35	C	06/06/2025	10:42	-127.913	48.990	0	1346.60	0	2.9511	0	34.4772	0	27.481	0	1330.874	0	78.4	4	24.2	4	-1E+10	1	0.0513	4	0.000230	0	-1E+10	1	-1E+10	1	-1E+10	1
4902624	35	C	06/06/2025	10:42	-127.913	48.990	0	1369.90	0	2.9025	0	34.4818	0	27.489	0	1353.827	0	77.8	4	24.0	4	-1E+10	1	0.0584	4	0.000196	0	-1E+10	1	-1E+10	1	-1E+10	1
4902624	35	C	06/06/2025	10:42	-127.913	48.990	0	1375.90	0	2.8900	0	34.4830	0	27.491	0	1359.738	0	-1e10	1	-1e10	1	-1E+10	1	-1e10	1	-1e10	1	-1E+10	1	-1E+10	1	-1E+10	1
4902624	35	C	06/06/2025	10:42	-127.913	48.990	0	1391.40	0	2.8649	0	34.4865	0	27.496	0	1375.005	0	79.7	4	24.5	4	-1E+10	1	0.0583	4	0.000206	0	-1E+10	1	-1E+10	1	-1E+10	1
4902624	35	C	06/06/2025	10:42	-127.913	48.990	0	1407.60	0	2.8386	0	34.4902	0	27.501	0	1390.961	0	80.2	4	24.7	4	-1E+10	1	0.0511	4	0.000172	0	-1E+10	1	-1E+10	1	-1E+10	1
4902624	35	C	06/06/2025	10:42	-127.913	48.990	0	1424.60	0	2.8110	0	34.4940	0	27.507	0	1407.703	0	-1e10	1	-1e10	1	-1E+10	1	-1e10	1	-1e10	1	-1E+10	1	-1E+10	1	-1E+10	1
4902624	35	C	06/06/2025	10:42	-127.913	48.990	0	1424.70	0	2.8108	0	34.4940	0	27.507	0	1407.802	0	79.3	4	24.4	4	-1E+10	1	0.0515	4	0.000184	0	-1E+10	1	-1E+10	1	-1E+10	1
4902624	35	C	06/06/2025	10:42	-127.913	48.990	0	1442.60	0	2.7775	0	34.4972	0	27.513	0	1425.429	0	80.6	4	24.8	4	-1E+10	1	0.0726	4	0.000229	0	-1E+10	1	-1E+10	1	-1E+10	1
4902624	35	C	06/06/2025	10:42	-127.913	48.990	0	1461.10	0	2.7431	0	34.5005	0	27.518	0	1443.646	0	78.0	4	23.9	4	-1E+10	1	0.0511	4	0.000218	0	-1E+10	1	-1E+10	1	-1E+10	1
4902624	35	C	06/06/2025	10:42	-127.913	48.990	0	1475.10	0	2.7170	0	34.5030	0	27.523	0	1457.430	0	-1e10	1	-1e10	1	-1E+10	1	-1e10	1	-1e10	1	-1E+10	1	-1E+10	1	-1E+10	1
4902624	35	C	06/06/2025	10:42	-127.913	48.990	0	1479.50	0	2.7096	0	34.5039	0	27.524	0	1461.762	0	80.0	4	24.5	4	-1E+10	1	0.0509	4	0.000228	0	-1E+10	1	-1E+10	1	-1E+10	1
4902624	35	C	06/06/2025	10:42	-127.913	48.990	0	1498.20	0	2.6783	0	34.5077	0	27.530	0	1480.172	0	85.5	4	26.2	4	-1E+10	1	0.0438	4	0.000172	0	-1E+10	1	-1E+10	1	-1E+10	1
4902624	35	C	06/06/2025	10:42	-127.913	48.990	0	1516.50	0	2.6477	0	34.5113	0	27.536	0	1498.187	0	89.1	4	27.3	4	-1E+10	1	0.0441	4	0.000228	0	-1E+10	1	-1E+10	1	-1E+10	1
4902624	35	C	06/06/2025	10:42	-127.913	48.990	0	1524.70	0	2.6340	0	34.5130	0	27.538	0	1506.259	0	-1e10	1	-1e10	1	-1E+10	1	-1e10	1	-1e10	1	-1E+10	1	-1E+10	1	-1E+10	1
4902624	35	C	06/06/2025	10:42	-127.913	48.990	0	1535.00	0	2.6133	0	34.5138	0	27.541	0	1516.398	0	93.4	4	28.6	4	-1E+10	1	0.0585	4	0.000193	0	-1E+10	1	-1E+10	1	-1E+10	1
4902624	35	C	06/06/2025	10:42	-127.913	48.990	0	1554.10	0	2.5750	0	34.5153	0	27.545	0	1535.197	0	124.8	4	38.2	4	-1E+10	1	0.0656	4	0.000181	0	-1E+10	1	-1E+10	1	-1E+10	1
4902624	35	C	06/06/2025	10:42	-127.913	48.990	0	1574.00	0	2.5350	0	34.5169	0	27.550	0	1554.782	0	128.4	4	39.2	4	-1E+10	1	0.0585	4	0.000181	0	-1E+10	1	-1E+10	1	-1E+10	1
4902624	35	C	06/06/2025	10:42	-127.913	48.990	0	1575.00	0	2.5330	0	34.5170	0	27.550	0	1555.766	0	-1e10	1	-1e10	1	-1E+10	1	-1e10	1	-1e10	1	-1E+10	1	-1E+10	1	-1E+10	1
4902624	35	C	06/06/2025	10:42	-127.913	48.990	0	1593.50	0	2.5033	0	34.5214	0	27.556	0	1573.971	0	86.8	4	26.5	4	-1E+10	1	0.0656	4	0.000158	0	-1E+10	1	-1E+10	1	-1E+10	1
4902624	35	C	06/06/2025	10:42	-127.913	48.990	0	1613.20	0	2.4718	0	34.5262	0	27.563	0	1593.356	0	84.4	4	25.8	4	-1E+10	1	0.0584	4	0.000204	0	-1E+10	1	-1E+10	1	-1E+10	1
4902624	35	C	06/06/2025	10:42	-127.913	48.990	0	1624.90	0	2.4530	0	34.5290	0	27.567	0	1604.868	0	-1e10	1	-1e10	1	-1E+10	1	-1e10	1	-1e10	1	-1E+10	1	-1E+10	1	-1E+10	1
4902624	35	C	06/06/2025	10:42	-127.913	48.990	0	1633.70	0	2.4322	0	34.5311	0	27.570	0	1613.526	0	98.9	4	30.1	4	-1E+10	1	0.0583	4	0.000215	0	-1E+10	1	-1E+10	1	-1E+10	1
4902624	35	C	06/06/2025	10:42	-127.913	48.990	0	1654.80	0	2.3824	0	34.5362	0	27.578	0	1634.284	0	115.3	4	35.1	4	-1E+10	1	0.0514	4	0.000203	0	-1E+10	1	-1E+10	1	-1E+10	1
4902624	35	C	06/06/2025	10:42	-127.913	48.990	0	1674.90	0	2.3350	0	34.5410	0	27.586	0	1654.056	0	-1e10	1	-1e10	1	-1E+10	1	-1e10	1	-1e10	1	-1E+10	1	-1E+10	1	-1E+10	1
4902624	35	C	06/06/2025	10:42	-127.913	48.990	0	1676.70	0	2.3323	0	34.5414	0	27.587	0	1655.827	0	104.4	4	31.7	4	-1E+10	1	0.0654	4	0.000181	0	-1E+10	1	-1E+10	1	-1E+10	1
4902624	35	C	06/06/2025	10:42	-127.913	48.990	0	1699.10	0	2.2990	0	34.5468	0	27.594	0	1677.859	0	106.8	4	32.4	4	-1E+10	1	0.0511	4	0.000214	0	-1E+10	1	-1E+10	1	-1E+10	1
4902624	35	C	06/06/2025	10:42	-127.913	48.990	0	1715.70	0	2.2744	0	34.5508	0	27.599	0	1694.185	0	108.9	4	33.1	4	-1E+10	1	0.0511	4	0.000203	0	-1E+10	1	-1E+10	1	-1E+10	1
4902624	35	C	06/06/2025	10:42	-127.913	48.990	0	1724.70	0	2.2610	0	34.5530	0	27.602	0	1703.036	0	-1e10	1	-1e10	1	-1E+10	1	-1e10	1	-1e10	1	-1E+10	1	-1E+10	1	-1E+10	1
4902624	35	C	06/06/2025	10:42	-127.913	48.990	0	1733.30	0	2.2476	0	34.5542	0	27.604	0	1711.494	0	110.7	4	33.6	4	-1E+10	1	0.0509	4	0.000215	0	-1E+10	1	-1E+10	1	-1E+10	1
4902624	35	C	06/06/2025	10:42	-127.913	48.990	0	1751.70	0	2.2190	0	34.5568	0	27.609	0	1729.587	0	111.7	4	33.9	4	-1E+10	1	0.0441	4	0.000265	0	-1E+10	1	-1E+10	1	-1E+10	1
4902624	35	C	06/06/2025	10:42	-127.913	48.990	0	1771.20	0	2.1887	0	34.5595	0	27.613	0	1748.761	0	113.1	4	34.2	4	-1E+10	1	0.0581	4	0.001007	0	-1E+10	1	-1E+10	1	-1E+10	1
4902624	35	C	06/06/2025	10:42	-127.913	48.990	0	1774.90	0	2.1830	0	34.5600	0	27.614	0	1752.399	0	-1e10	1	-1e10	1	-1E+10	1	-1e10	1	-1e10	1	-1E+10	1	-1E+10	1	-1E+10	1
4902624	35	C	06/06/2025	10:42	-127.913	48.990	0	1792.00	0	2.1624	0	34.5624	0	27.618	0	1769.211	0	114.8	4	34.8	4	-1E+10	1	0.0440	4	0.000202	0	-1E+10	1	-1E+10	1	-1E+10	1
4902624	35	C	06/06/2025	10:42	-127.913	48.990	0	1813.40	0	2.1366	0	34.5653	0	27.622	0	1790.249	0	116.5	4	35.2	4	-1E+10	1	0.0511	4	0.000224	0	-1E+10	1	-1E+10	1	-1E+10	1
4902624	35	C	06/06/2025	10:42	-127.913	48.990	0	1825.50	0	2.1220	0	34.5670	0	27.625	0	1802.143	0	-1e10	1	-1e10	1	-1E+10	1	-1e10	1	-1e10	1	-1E+10	1	-1E+10	1	-1E+10	1
4902624	35	C	06/06/2025	10:42	-127.913	48.990	0	1835.10	0	2.1112	0	34.5687	0	27.627	0	1811.579	0	118.3	4	35.8	4	-1E+10	1	0.0508	4	0.000179	0	-1E+10	1	-1E+10	1	-1E+10	1
4902624	35	C	06/06/2025	10:42	-127.913	48.990	0	1857.10	0	2.0866	0	34.5727	0	27.632	0	1833.202	0	120.4	4	36.4	4	-1E+10	1	0.0365	4	0.000226	0	-1E+10	1	-1E+10	1	-1E+10	1
4902624	35	C	06/06/2025	10:42	-127.913	48.990	0	1875.50	0	2.0660	0	34.5760	0	27.637	0	1851.285	0	-1e10	1	-1e10	1	-1E+10	1	-1e10	1	-1e10	1	-1E+10	1	-1E+10	1	-1E+10	1
4902624	35	C	06/06/2025	10:42	-127.913	48.990	0	1880.00	0	2.0613	0	34.5767	0	27.638	0	1855.708	0	122.5	4	37.0	4	-1E+10	1	0.0363	4	0.000292	0	-1E+10	1	-1E+10	1	-1E+10	1
4902624	35	C	06/06/2025	10:42	-127.913	48.990	0	1899.60	0	2.0409	0	34.5799	0	27.642	0	1874.968	0	123.8	4	37.4	4	-1E+10	1	0.0296	4	0.000201	0	-1E+10	1	-1E+10	1	-1E+10	1
4902624	35	C	06/06/2025	10:42	-127.913	48.990	0	1916.50	0	2.0233	0	34.5827	0	27.646	0	1891.574	0	124.7	4	37.6	4	-1E+10	1	0.0511	4	0.000246	0	-1E+10	1	-1E+10	1	-1E+10	1
4902624	35	C	06/06/2025	10:42	-127.913	48.990	0	1924.50	0	2.0150	0	34.5840	0	27.647	0	1899.434	0	-1e10	1	-1e10	1	-1E+10	1	-1e10	1	-1e10	1	-1E+10	1	-1E+10	1	-1E+10	1
4902624	35	C	06/06/2025	10:42	-127.913	48.990	0	1934.40	0	2.0060	0	34.5857	0	27.650	0	1909.161	0	125.1	4	37.7	4	-1E+10	1	0.0510	4	0.000212	0	-1E+10	1	-1E+10	1	-1E+10	1
4902624	35	C	06/06/2025	10:42	-127.913	48.990	0	1953.40	0	1.9888	0	34.5889	0	27.654	0	1927.827	0	124.8	4	37.6	4	-1E+10	1	0.0440	4	0.000234	0	-1E+10	1	-1E+10	1	-1E+10	1
4902624	35	C	06/06/2025	10:42	-127.913	48.990	0	1959.80	0	1.9830	0	34.5900	0	27.655	0	1934.114	0	-1e10	1	-1e10	1	-1E+10	1	-1e10	1	-1e10	1	-1E+10	1	-1E+10	1	-1E+10	1
4902624	35	C	06/06/2025	10:42	-127.913	48.990	0	1969.40	0	-1e10	1	-1e10	1	-1e10	1	1943.545	0	127.4	4	-1e10	4	-1E+10	1	0.0511	4	0.000209	0	-1E+10	1	-1E+10	1	-1E+10	1
4902624	35	C	06/06/2025	10:42	-127.913	48.990	0																										
4902624	36	C	06/16/2025	05:37	-128.275	48.623	0	0.00	0	11.3080	0	32.1218	0	24.481	0	0.000	0	299.9	4	110.0	4	-1E+10	1	4.8691	4	0.005828	0	-1E+10	1	-1E+10	1	-1E+10	1
4902624	36	C	06/16/2025	05:37	-128.275	48.623	0	0.50	0	11.3080	0	32.1310	0	24.488	0	0.496	0	299.9	4	110.0	4	-1E+10	1	5.1307	4	0.006156	0	-1E+10	1	-1E+10	1	-1E+10	1
4902624	36	C	06/16/2025	05:37	-128.275	48.623	0	0.70	0	11.3082	0	32.1330	0	24.490	0	0.694	0	293.4	4	107.6	4	-1E+10	1	5.1283	4	0.006062	0	-1E+10	1	-1E+10	1	-1E+10	1
4902624	36	C	06/16/2025	05:37	-128.275	48.623	0	1.00	0	11.3085	0	32.1360	0	24.492	0	0.992	0	-1e10	1	-1e10	1	-1E+10	1	5.1246	4	0.005922	0	-1E+10	1	-1E+10	1	-1E+10	1
4902624	36	C	06/16/2025	05:37	-128.275	48.623	0	1.10	0	11.3086	0	32.1370	0	24.493	0	1.091	0	-1e10	1	-1e10	1	-1E+10	1	4.9567	4	0.006391	0	-1E+10	1	-1E+10	1	-1E+10	1
4902624	36	C	06/16/2025	05:37	-128.275	48.623	0	1.30	0	11.3088	0	32.1390	0	24.494	0	1.289	0	-1e10	1	-1e10	1	-1E+10	1	5.1319	4	0.006602	0	-1E+10	1	-1E+10	1	-1E+10	1
4902624	36	C	06/16/2025	05:37	-128.275	48.623	0	1.50	0	11.3090	0	32.1410	0	24.496	0	1.487	0	-1e10	1	-1e10	1	-1E+10	1	-1e10	1	-1e10	1	-1E+10	1	-1E+10	1	-1E+10	1
4902624	36	C	06/16/2025	05:37	-128.275	48.623	0	1.60	0	11.3091	0	32.1411	0	24.496	0	1.586	0	-1e10	1	-1e10	1	-1E+10	1	5.4896	4	0.006532	0	-1E+10	1	-1E+10	1	-1E+10	1
4902624	36	C	06/16/2025	05:37	-128.275	48.623	0	1.70	0	11.3092	0	32.1412	0	24.496	0	1.686	0	-1e10	1	-1e10	1	-1E+10	1	5.1757	4	0.006074	0	-1E+10	1	-1E+10	1	-1E+10	1
4902624	36	C	06/16/2025	05:37	-128.275	48.623	0	1.90	0	11.3094	0	32.1414	0	24.496	0	1.884	0	-1e10	1	-1e10	1	-1E+10	1	5.2852	4	0.006532	0	-1E+10	1	-1E+10	1	-1E+10	1
4902624	36	C	06/16/2025	05:37	-128.275	48.623	0	2.00	0	11.3096	0	32.1416	0	24.496	0	1.983	0	-1e10	1	-1e10	1	-1E+10	1	5.1465	4	0.006274	0	-1E+10	1	-1E+10	1	-1E+10	1
4902624	36	C	06/16/2025	05:37	-128.275	48.623	0	2.20	0	11.3098	0	32.1418	0	24.496	0	2.181	0	289.0	4	106.0	4	-1E+10	1	5.4969	4	0.005710	0	-1E+10	1	-1E+10	1	-1E+10	1
4902624	36	C	06/16/2025	05:37	-128.275	48.623	0	2.30	0	11.3099	0	32.1419	0	24.496	0	2.281	0	-1e10	1	-1e10	1	-1E+10	1	4.9932	4	0.006051	0	-1E+10	1	-1E+10	1	-1E+10	1
4902624	36	C	06/16/2025	05:37	-128.275	48.623	0	2.40	0	11.3100	0	32.1420	0	24.496	0	2.380	0	-1e10	1	-1e10	1	-1E+10	1	-1e10	1	-1e10	1	-1E+10	1	-1E+10	1	-1E+10	1
4902624	36	C	06/16/2025	05:37	-128.275	48.623	0	2.50	0	11.3100	0	32.1419	0	24.496	0	2.479	0	-1e10	1	-1e10	1	-1E+10	1	4.8691	4	0.006027	0	-1E+10	1	-1E+10	1	-1E+10	1
4902624	36	C	06/16/2025	05:37	-128.275	48.623	0	2.90	0	11.3100	0	32.1415	0	24.496	0	2.875	0	286.3	4	105.1	4	-1E+10	1	5.1611	4	0.006942	0	-1E+10	1	-1E+10	1	-1E+10	1
4902624	36	C	06/16/2025	05:37	-128.275	48.623	0	3.00	0	11.3100	0	32.1415	0	24.496	0	2.975	0	-1e10	1	-1e10	1	-1E+10	1	5.2341	4	0.005968	0	-1E+10	1	-1E+10	1	-1E+10	1
4902624	36	C	06/16/2025	05:37	-128.275	48.623	0	3.20	0	11.3100	0	32.1413	0	24.496	0	3.173	0	-1e10	1	-1e10	1	-1E+10	1	5.2414	4	0.006274	0	-1E+10	1	-1E+10	1	-1E+10	1
4902624	36	C	06/16/2025	05:37	-128.275	48.623	0	3.40	0	11.3100	0	32.1411	0	24.496	0	3.371	0	-1e10	1	-1e10	1	-1E+10	1	5.7524	4	0.006672	0	-1E+10	1	-1E+10	1	-1E+10	1
4902624	36	C	06/16/2025	05:37	-128.275	48.623	0	3.50	0	11.3100	0	32.1410	0	24.496	0	3.470	0	-1e10	1	-1e10	1	-1E+10	1	-1e10	1	-1e10	1	-1E+10	1	-1E+10	1	-1E+10	1
4902624	36	C	06/16/2025	05:37	-128.275	48.623	0	3.60	0	11.3101	0	32.1408	0	24.495	0	3.570	0	-1e10	1	-1e10	1	-1E+10	1	5.4677	4	0.006696	0	-1E+10	1	-1E+10	1	-1E+10	1
4902624	36	C	06/16/2025	05:37	-128.275	48.623	0	3.70	0	11.3102	0	32.1406	0	24.495	0	3.669	0	283.1	4	103.9	4	-1E+10	1	4.8107	4	0.005886	0	-1E+10	1	-1E+10	1	-1E+10	1
4902624	36	C	06/16/2025	05:37	-128.275	48.623	0	3.90	0	11.3104	0	32.1402	0	24.495	0	3.867	0	-1e10	1	-1e10	1	-1E+10	1	5.4604	4	0.006144	0	-1E+10	1	-1E+10	1	-1E+10	1
4902624	36	C	06/16/2025	05:37	-128.275	48.623	0	4.10	0	11.3106	0	32.1398	0	24.495	0	4.065	0	-1e10	1	-1e10	1	-1E+10	1	5.1757	4	0.005933	0	-1E+10	1	-1E+10	1	-1E+10	1
4902624	36	C	06/16/2025	05:37	-128.275	48.623	0	4.40	0	11.3109	0	32.1392	0	24.494	0	4.363	0	-1e10	1	-1e10	1	-1E+10	1	5.0881	4	0.006086	0	-1E+10	1	-1E+10	1	-1E+10	1
4902624	36	C	06/16/2025	05:37	-128.275	48.623	0	4.50	0	11.3110	0	32.1390	0	24.494	0	4.462	0	-1e10	1	-1e10	1	-1E+10	1	-1e10	1	-1e10	1	-1E+10	1	-1E+10	1	-1E+10	1
4902624	36	C	06/16/2025	05:37	-128.275	48.623	0	4.60	0	11.3109	0	32.1387	0	24.494	0	4.561	0	278.4	4	102.2	4	-1E+10	1	5.4896	4	0.006837	0	-1E+10	1	-1E+10	1	-1E+10	1
4902624	36	C	06/16/2025	05:37	-128.275	48.623	0	4.80	0	11.3107	0	32.1381	0	24.493	0	4.759	0	-1e10	1	-1e10	1	-1E+10	1	5.0881	4	0.005957	0	-1E+10	1	-1E+10	1	-1E+10	1
4902624	36	C	06/16/2025	05:37	-128.275	48.623	0	4.90	0	11.3106	0	32.1378	0	24.493	0	4.859	0	-1e10	1	-1e10	1	-1E+10	1	5.1538	4	0.006602	0	-1E+10	1	-1E+10	1	-1E+10	1
4902624	36	C	06/16/2025	05:37	-128.275	48.623	0	5.10	0	11.3104	0	32.1372	0	24.493	0	5.057	0	-1e10	1	-1e10	1	-1E+10	1	5.1538	4	0.006144	0	-1E+10	1	-1E+10	1	-1E+10	1
4902624	36	C	06/16/2025	05:37	-128.275	48.623	0	5.30	0	11.3102	0	32.1366	0	24.492	0	5.255	0	-1e10	1	-1e10	1	-1E+10	1	5.1392	4	0.005793	0	-1E+10	1	-1E+10	1	-1E+10	1
4902624	36	C	06/16/2025	05:37	-128.275	48.623	0	5.50	0	11.3100	0	32.1360	0	24.492	0	5.453	0	274.2	4	100.6	4	-1E+10	1	5.4604	4	0.006015	0	-1E+10	1	-1E+10	1	-1E+10	1
4902624	36	C	06/16/2025	05:37	-128.275	48.623	0	5.80	0	11.2993	0	32.1353	0	24.493	0	5.751	0	-1e10	1	-1e10	1	-1E+10	1	5.3509	4	0.005652	0	-1E+10	1	-1E+10	1	-1E+10	1
4902624	36	C	06/16/2025	05:37	-128.275	48.623	0	6.00	0	11.2922	0	32.1349	0	24.494	0	5.949	0	-1e10	1	-1e10	1	-1E+10	1	5.3144	4	0.005898	0	-1E+10	1	-1E+10	1	-1E+10	1
4902624	36	C	06/16/2025	05:37	-128.275	48.623	0	6.10	0	11.2887	0	32.1347	0	24.495	0	6.048	0	-1e10	1	-1e10	1	-1E+10	1	5.1903	4	0.006250	0	-1E+10	1	-1E+10	1	-1E+10	1
4902624	36	C	06/16/2025	05:37	-128.275	48.623	0	6.30	0	11.2816	0	32.1342	0	24.496	0	6.247	0	270.4	4	99.1	4	-1E+10	1	5.2925	4	0.006004	0	-1E+10	1	-1E+10	1	-1E+10	1
4902624	36	C	06/16/2025	05:37	-128.275	48.623	0	6.40	0	11.2780	0	32.1340	0	24.496	0	6.346	0	-1e10	1	-1e10	1	-1E+10	1	-1e10	1	-1e10	1	-1E+10	1	-1E+10	1	-1E+10	1
4902624	36	C	06/16/2025	05:37	-128.275	48.623	0	6.50	0	11.2740	0	32.1335	0	24.496	0	6.445	0	-1e10	1	-1e10	1	-1E+10	1	5.0151	4	0.006320	0	-1E+10	1	-1E+10	1	-1E+10	1
4902624	36	C	06/16/2025	05:37	-128.275	48.623	0	6.70	0	11.2660	0	32.1325	0	24.497	0	6.643	0	-1e10	1	-1e10	1	-1E+10	1	5.5772	4	0.006403	0	-1E+10	1	-1E+10	1	-1E+10	1
4902624	36	C	06/16/2025	05:37	-128.275	48.623	0	6.90	0	11.2580	0	32.1315	0	24.498	0	6.842	0	-1e10	1	-1e10	1	-1E+10	1	5.1392	4	0.006250	0	-1E+10	1	-1E+10	1	-1E+10	1
4902624	36	C	06/16/2025	05:37	-128.275	48.623	0	7.20	0	11.2460	0	32.1300	0	24.499	0	7.139	0	266.0	4	97.4	4	-1E+10	1	5.2195	4	0.006150	0	-1E+10	1	-1E+10	1	-1E+10	1
4902624	36	C	06/16/2025	05:37	-128.275	48.623	0	7.40	0	11.2380	0	32.1290	0	24.499	0	7.337	0	-1e10	1	-1e10	1	-1E+10	1	5.0370	4	0.005875	0	-1E+10	1	-1E+10	1	-1E+10	1
4902624	36	C	06/16/2025	05:37	-128.275	48.623	0	7.60	0	11.2096	0	32.1325	0	24.507	0	7.536	0	-1e10	1	-1e10	1	-1E+10	1	4.6647	4	0.005839	0	-1E+10	1	-1E+10	1	-1E+10	1
4902624	36	C	06/16/2025	05:37	-128.275	48.623	0	7.80	0	11.1813	0	32.1359	0	24.515	0	7.734	0	-1e10	1	-1e10	1	-1E+10	1	5.4604	4	0.006121	0	-1E+10	1	-1E+10	1	-1E+10	1
4902624	36	C	06/16/2025	05:37	-128.275	48.623	0	8.00	0	11.1529	0	32.1394	0	24.522	0	7.932	0	-1e10	1	-1e10	1	-1E+10	1	5.0151	4	0.005968	0	-1E+10	1	-1E+10	1	-1E+10	1
4902624	36	C	06/16/2025	05:37	-128.275	48.623	0	8.20	0	11.1245	0	32.1428	0	24.530	0	8.131	0	260.2	4	95.1	4	-1E+10	1	5.0297	4	0.005323	0	-1E+10	1	-1E+10	1	-1E+10	1
4902624	36	C	06/16/2025	05:37	-128.275	48.623	0	8.40	0	11.0962	0	32.1463	0	24.538	0	8.329	0	-1e10	1	-1e10	1	-1E+10	1	4.9348	4	0.005006	0	-1E+10	1	-1E+10	1	-1E+10	1
4902624	36	C	06/16/2025	05:37	-128.275	48.623	0	8.50	0	11.0820	0	32.1480	0	24.542	0	8.428	0	-1e10	1	-1e10	1	-1E+10	1	-1e10	1	-1e10	1	-1E+10	1	-1E+10	1	-1E+10	1
4902624	36	C	06/16/2025	05:37	-128.275	48.623	0	8.70	0	10.9430	0	32.1652	0	24.579	0	8.626	0	-1e10	1	-1e10	1	-1E+10	1	5.9422	4	0.005675	0	-1E+10	1	-1E+10	1	-1E+10	1
4902624	36	C	06/16/2025	05:37	-128.275	48.623	0	9.10	0	10.6650	0	32.1996	0	24.654	0	9.023	0	-1e10	1	-1e10	1	-1E+10	1	5.6064	4	0.005511	0	-1E+10	1	-1E+10	1	-1E+10	1
4902624	36	C	06/16/2025	05:37	-128.275	48.623	0	9.30	0	10.5260	0	32.2168	0	24.692	0	9.221	0	258.8	4	93.4	4	-1E+10	1	6.2926	4	0.005605	0	-1E+10	1	-1E+10	1	-1E+10	1
4902624	36	C	06/16/2025	05:37	-128.275	48.623	0	9.50	0	10.3870	0	32.2340	0	24.729	0	9.420	0	-1e10	1	-1e10	1	-1E+10	1	5.8765	4	0.005955	0	-1E+10	1	-1E+10	1	-1E+10	1
4902624	36	C	06/16/2025	05:37	-128.275	48.623	0	9.80	0	10.3328	0	32.2376	0	24.741	0	9.717	0	-1e10	1	-1e10	1	-1E+10	1	6.2999	4	0.005182	0	-1E+10	1	-1E+10	1	-1E+10	1
4902624	36	C	06/16/2025	05:37	-128.275	48.623	0	10.40	0	10.2244	0	32.2447	0	24.764	0	10.312	0	256.5	4	92.0	4	-1E+10	1	5.1796	4	0.005000	0	-1E+10	1	-1E+10	1	-1E+10	1
4902624	36	C	06/16/2025	05:37	-128.275	48.623	0	11.10	0	10.0980	0	32.2530	0	24.792	0	11.006	0	-1e10	1	-1e10	1	-1E+10	1	-1e10	1	-1e10	1	-1E+10	1	-1E+10	1	-1E+10	1
4902624	36	C	06/16/2025	05:37	-128.275	48.623	0	11.50	0	10.0700	0	32.2559	0	24.799	0	11.403	0	254.8	4	91.1	4	-1E+10	1	5.2414	4	0.005030	0	-1E+10	1	-1E+10	1	-1E+10	1
4902624	36	C	06/16/2025	05:37	-128.275	48.623	0	12.70	0	9.9860	0	32.2648	0	24.820	0	12.592	0	252.7	4	90.2	4	-1E+10	1	5.5261	4	0.005288	0	-1E+10	1	-1E+10	1	-1E+10	1
4902624	36	C	06/16/2025	05:37	-128.275	48.623	0	13.00	0	9.9650	0	32.2670	0	24.825	0	12.890	0	-1e10	1	-1e10	1	-1E+10	1	-1e10	1	-1e10	1	-1E+10	1	-1E+10	1	-1E+10	1
4902624	36	C	06/16/2025	05:37	-128.275	48.623	0	13.40	0	9.9426	0	32.2696	0	24.831	0	13.286	0	251.7	4	89.8	4	-1E+10	1	4.9065	4	0.004621	0	-1E+10	1	-1E+10	1	-1E+10	1
4902624	36	C	06/16/2025	05:37	-128.275	48.623	0	14.10	0	9.9034	0	32.2741	0	24.841	0	13.980	0	250.6	4	89.3	4	-1E+10	1	5.3241	4	0.004979	0	-1E+10	1	-1E+10	1	-1E+10	1
4902624	36	C	06/16/2025	05:37	-128.275	48.623	0	14.80	0	9.8642	0	32.2787	0	24.851	0	14.674	0	249.6	4	88.9	4	-1E+10	1	4.9676	4	0.005006	0	-1E+10	1	-1E+10	1	-1E+10	1
4902624	36	C	06/16/2025	05:37	-128.275	48.623	0	15.00	0	9.8530	0	32.2800	0	24.854	0	14.873	0	-1e10	1	-1e10	1	-1E+10	1	-1e10	1	-1e10	1	-1E+10	1	-1E+10	1	-1E+10	1
4902624	36	C	06/16/2025	05:37	-128.275	48.623	0	15.50	0	9.8338	0	32.2832	0	24.859	0	15.368	0	248.6	4	88.5	4	-1E+10	1	4.2173	4	0.004571	0	-1E+10	1	-1E+10	1	-1E+10	1
4902624	36	C	06/16/2025	05:37	-128.275	48.623	0	16.10	0	9.8107	0	32.2869	0	24.866	0	15.963	0	247.9	4	88.2	4	-1E+10	1	4.0460	4	0.004241	0	-1E+10	1	-1E+10	1	-1E+10	1
4902624	36	C	06/16/2025	05:37	-128.275	48.623	0	16.80	0	9.7838	0	32.2914	0	24.874	0	16.657	0	247.0	4	87.8	4	-1E+10	1	4.0807	4	0.004141	0	-1E+10	1	-1E+10	1	-1E+10	1
4902624	36	C	06/16/2025	05:37	-128.275	48.623	0	16.90	0	9.7800	0	32.2920	0	24.875	0	16.757	0	-1e10	1	-1e10	1	-1E+10	1	-1e10	1	-1e10	1	-1E+10	1	-1E+10	1	-1E+10	1
4902624	36	C	06/16/2025	05:37	-128.275	48.623	0	17.50	0	9.7503	0	32.2980	0	24.884	0	17.351	0	245.8	4	87.3	4	-1E+10	1	3.9785	4	0.003751	0	-1E+10	1	-1E+10	1	-1E+10	1
4902624	36	C	06/16/2025	05:37	-128.275	48.623	0	18.20	0	9.7156	0	32.3050	0	24.896	0	18.045	0	244.5	4	86.8	4	-1E+10	1	3.2193	4	0.003235	0	-1E+10	1	-1E+10	1	-1E+10	1
4902624	36	C	06/16/2025	05:37	-128.275	48.623	0	18.90	0	9.6810	0	32.3120	0	24.907	0	18.739	0	-1e10	1	-1e10	1	-1E+10	1	-1e10	1	-1e10	1	-1E+10	1	-1E+10	1	-1E+10	1
4902624	36	C	06/16/2025	05:37	-128.275	48.623	0	19.10	0	9.6697	0	32.3157	0	24.911	0	18.938	0	244.3	4	86.7	4	-1E+10	1	2.4674	4	0.002684	0	-1E+10	1	-1E+10	1	-1E+10	1
4902624	36	C	06/16/2025	05:37	-128.275	48.623	0	19.80	0	9.6301	0	32.3287	0	24.928	0	19.632	0	244.5	4	86.7	4	-1E+10	1	2.6974	4	0.002749	0	-1E+10	1	-1E+10	1	-1E+10	1
4902624	36	C	06/16/2025	05:37	-128.275	48.623	0	20.50	0	9.5906	0	32.3416	0	24.944	0	20.326	0	244.6	4	86.6	4	-1E+10	1	2.7485	4	0.003269	0	-1E+10	1	-1E+10	1	-1E+10	1
4902624	36	C	06/16/2025	05:37	-128.275	48.623	0	20.90	0	9.5680	0	32.3490	0	24.954	0	20.722	0	-1e10	1	-1e10	1	-1E+10	1	-1e10	1	-1e10	1	-1E+10	1	-1E+10	1	-1E+10	1
4902624	36	C	06/16/2025	05:37	-128.275	48.623	0	21.40	0	9.5506	0	32.3583	0	24.964	0	21.218	0	244.6	4	86.5	4	-1E+10	1	3.0222	4	0.003779	0	-1E+10	1	-1E+10	1	-1E+10	1
4902624	36	C	06/16/2025	05:37	-128.275	48.623	0	22.20	0	9.5228	0	32.3731	0	24.980	0	22.011	0	244.1	4	86.3	4	-1E+10	1	3.3394	4	0.003573	0	-1E+10	1	-1E+10	1	-1E+10	1
4902624	36	C	06/16/2025	05:37	-128.275	48.623	0	23.00	0	9.4950	0	32.3880	0	24.996	0	22.804	0	-1e10	1	-1e10	1	-1E+10	1	-1e10	1	-1e10	1	-1E+10	1	-1E+10	1	-1E+10	1
4902624	36	C	06/16/2025	05:37	-128.275	48.623	0	23.10	0	9.4890	0	32.3907	0	24.999	0	22.904	0	243.6	4	86.1	4	-1E+10	1	3.3061	4	0.002999	0	-1E+10	1	-1E+10	1	-1E+10	1
4902624	36	C	06/16/2025	05:37	-128.275	48.623	0	24.00	0	9.4350	0	32.4145	0	25.026	0	23.796	0	243.1	4	85.8	4	-1E+10	1	3.1485	4	0.003187	0	-1E+10	1	-1E+10	1	-1E+10	1
4902624	36	C	06/16/2025	05:37	-128.275	48.623	0	24.90	0	9.3810	0	32.4384	0	25.054	0	24.688	0	242.9	4	85.7	4	-1E+10	1	3.3653	4	0.003071	0	-1E+10	1	-1E+10	1	-1E+10	1
4902624	36	C	06/16/2025	05:37	-128.275	48.623	0	25.00	0	9.3750	0	32.4410	0	25.057	0	24.787	0	-1e10	1	-1e10	1	-1E+10	1	-1e10	1	-1e10	1	-1E+10	1	-1E+10	1	-1E+10	1
4902624	36	C	06/16/2025	05:37	-128.275	48.623	0	25.80	0	9.3638	0	32.4482	0	25.064	0	25.580	0	242.7	4	85.6	4	-1E+10	1	3.8544	4	0.002965	0	-1E+10	1	-1E+10	1	-1E+10	1
4902624	36	C	06/16/2025	05:37	-128.275	48.623	0	26.70	0	9.3512	0	32.4563	0	25.072	0	26.473	0	242.5	4	85.5	4	-1E+10	1	3.1901	4	0.003845	0	-1E+10	1	-1E+10	1	-1E+10	1
4902624	36	C	06/16/2025	05:37	-128.275	48.623	0	27.00	0	9.3470	0	32.4590	0	25.075	0	26.770	0	-1e10	1	-1e10	1	-1E+10	1	-1e10	1	-1e10	1	-1E+10	1	-1E+10	1	-1E+10	1
4902624	36	C	06/16/2025	05:37	-128.275	48.623	0	27.60	0	9.3344	0	32.4617	0	25.079	0	27.365	0	242.5	4	85.5	4	-1E+10	1	3.0324	4	0.003951	0	-1E+10	1	-1E+10	1	-1E+10	1
4902624	36	C	06/16/2025	05:37	-128.275	48.623	0	28.40	0	9.3176	0	32.4653	0	25.085	0	28.158	0	242.7	4	85.5	4	-1E+10	1	3.4516	4	0.003820	0	-1E+10	1	-1E+10	1	-1E+10	1
4902624	36	C	06/16/2025	05:37	-128.275	48.623	0	29.00	0	9.3050	0	32.4680	0	25.089	0	28.753	0	-1e10	1	-1e10	1	-1E+10	1	-1e10	1	-1e10	1	-1E+10	1	-1E+10	1	-1E+10	1
4902624	36	C	06/16/2025	05:37	-128.275	48.623	0	29.20	0	9.2961	0	32.4719	0	25.093	0	28.951	0	243.0	4	85.6	4	-1E+10	1	4.3654	4	0.004121	0	-1E+10	1	-1E+10	1	-1E+10	1
4902624	36	C	06/16/2025	05:37	-128.275	48.623	0	30.20	0	9.2519	0	32.4914	0	25.116	0	29.943	0	242.6	4	85.4	4	-1E+10	1	5.0416	4	0.004591	0	-1E+10	1	-1E+10	1	-1E+10	1
4902624	36	C	06/16/2025	05:37	-128.275	48.623	0	31.10	0	9.2120	0	32.5090	0	25.136	0	30.835	0	239.9	4	84.4	4	-1E+10	1	4.7490	4	0.004743	0	-1E+10	1	-1E+10	1	-1E+10	1
4902624	36	C	06/16/2025	05:37	-128.275	48.623	0	32.00	0	9.1850	0	32.5265	0	25.154	0	31.727	0	240.4	4	84.5	4	-1E+10	1	4.2574	4	0.004739	0	-1E+10	1	-1E+10	1	-1E+10	1
4902624	36	C	06/16/2025	05:37	-128.275	48.623	0	32.90	0	9.1580	0	32.5441	0	25.172	0	32.619	0	239.5	4	84.1	4	-1E+10	1	4.4012	4	0.004311	0	-1E+10	1	-1E+10	1	-1E+10	1
4902624	36	C	06/16/2025	05:37	-128.275	48.623	0	33.00	0	9.1550	0	32.5460	0	25.174	0	32.719	0	-1e10	1	-1e10	1	-1E+10	1	-1e10	1	-1e10	1	-1E+10	1	-1E+10	1	-1E+10	1
4902624	36	C	06/16/2025	05:37	-128.275	48.623	0	33.90	0	9.1349	0	32.5533	0	25.183	0	33.611	0	238.8	4	83.8	4	-1E+10	1	4.3216	4	0.005569	0	-1E+10	1	-1E+10	1	-1E+10	1
4902624	36	C	06/16/2025	05:37	-128.275	48.623	0	34.90	0	9.1125	0	32.5614	0	25.192	0	34.602	0	237.8	4	83.5	4	-1E+10	1	3.8471	4	0.004520	0	-1E+10	1	-1E+10	1	-1E+10	1
4902624	36	C	06/16/2025	05:37	-128.275	48.623	0	35.10	0	9.1080	0	32.5630	0	25.194	0	34.801	0	-1e10	1	-1e10	1	-1E+10	1	-1e10	1	-1e10	1	-1E+10	1	-1E+10	1	-1E+10	1
4902624	36	C	06/16/2025	05:37	-128.275	48.623	0	35.80	0	9.0981	0	32.5671	0	25.199	0	35.494	0	237.1	4	83.2	4	-1E+10	1	3.8658	4	0.004541	0	-1E+10	1	-1E+10	1	-1E+10	1
4902624	36	C	06/16/2025	05:37	-128.275	48.623	0	36.80	0	9.0838	0	32.5728	0	25.206	0	36.486	0	236.3	4	82.9	4	-1E+10	1	4.1637	4	0.003763	0	-1E+10	1	-1E+10	1	-1E+10	1
4902624	36	C	06/16/2025	05:37	-128.275	48.623	0	37.00	0	9.0810	0	32.5740	0	25.207	0	36.684	0	-1e10	1	-1e10	1	-1E+10	1	-1e10	1	-1e10	1	-1E+10	1	-1E+10	1	-1E+10	1
4902624	36	C	06/16/2025	05:37	-128.275	48.623	0	37.70	0	9.0768	0	32.5768	0	25.210	0	37.378	0	235.3	4	82.5	4	-1E+10	1	4.0661	4	0.003927	0	-1E+10	1	-1E+10	1	-1E+10	1
4902624	36	C	06/16/2025	05:37	-128.275	48.623	0	38.70	0	9.0708	0	32.5808	0	25.214	0	38.369	0	234.1	4	82.1	4	-1E+10	1	3.7902	4	0.004248	0	-1E+10	1	-1E+10	1	-1E+10	1
4902624	36	C	06/16/2025	05:37	-128.275	48.623	0	39.00	0	9.0690	0	32.5820	0	25.215	0	38.667	0	-1e10	1	-1e10	1	-1E+10	1	-1e10	1	-1e10	1	-1E+10	1	-1E+10	1	-1E+10	1
4902624	36	C	06/16/2025	05:37	-128.275	48.623	0	39.60	0	9.0612	0	32.5853	0	25.219	0	39.262	0	233.2	4	81.8	4	-1E+10	1	3.8013	4	0.004179	0	-1E+10	1	-1E+10	1	-1E+10	1
4902624	36	C	06/16/2025	05:37	-128.275	48.623	0	40.50	0	9.0495	0	32.5902	0	25.225	0	40.154	0	231.9	4	81.3	4	-1E+10	1	4.0648	4	0.004565	0	-1E+10	1	-1E+10	1	-1E+10	1
4902624	36	C	06/16/2025	05:37	-128.275	48.623	0	41.00	0	9.0430	0	32.5930	0	25.228	0	40.650	0	-1e10	1	-1e10	1	-1E+10	1	-1e10	1	-1e10	1	-1E+10	1	-1E+10	1	-1E+10	1
4902624	36	C	06/16/2025	05:37	-128.275	48.623	0	41.50	0	9.0359	0	32.5975	0	25.233	0	41.145	0	230.7	4	80.9	4	-1E+10	1	3.2485	4	0.003903	0	-1E+10	1	-1E+10	1	-1E+10	1
4902624	36	C	06/16/2025	05:37	-128.275	48.623	0	42.40	0	9.0231	0	32.6055	0	25.241	0	42.037	0	229.4	4	80.4	4	-1E+10	1	3.1536	4	0.003774	0	-1E+10	1	-1E+10	1	-1E+10	1
4902624	36	C	06/16/2025	05:37	-128.275	48.623	0	42.90	0	9.0160	0	32.6100	0	25.246	0	42.533	0	-1e10	1	-1e10	1	-1E+10	1	-1e10	1	-1e10	1	-1E+10	1	-1E+10	1	-1E+10	1
4902624	36	C	06/16/2025	05:37	-128.275	48.623	0	43.30	0	9.0171	0	32.6157	0	25.250	0	42.930	0	227.8	4	79.8	4	-1E+10	1	3.1536	4	0.003918	0	-1E+10	1	-1E+10	1	-1E+10	1
4902624	36	C	06/16/2025	05:37	-128.275	48.623	0	44.20	0	9.0197	0	32.6286	0	25.260	0	43.822	0	226.3	4	79.3	4	-1E+10	1	3.0328	4	0.003704	0	-1E+10	1	-1E+10	1	-1E+10	1
4902624	36	C	06/16/2025	05:37	-128.275	48.623	0	45.00	0	9.0220	0	32.6400	0	25.268	0	44.615	0	-1e10	1	-1e10	1	-1E+10	1	-1e10	1	-1e10	1	-1E+10	1	-1E+10	1	-1E+10	1
4902624	36	C	06/16/2025	05:37	-128.275	48.623	0	45.20	0	9.0230	0	32.6410	0	25.269	0	44.813	0	224.6	4	78.7	4	-1E+10	1	2.9507	4	0.003824	0	-1E+10	1	-1E+10	1	-1E+10	1
4902624	36	C	06/16/2025	05:37	-128.275	48.623	0	46.10	0	9.0272	0	32.6458	0	25.272	0	45.705	0	222.5	4	78.0	4	-1E+10	1	2.8988	4	0.003933	0	-1E+10	1	-1E+10	1	-1E+10	1
4902624	36	C	06/16/2025	05:37	-128.275	48.623	0	47.00	0	9.0315	0	32.6505	0	25.275	0	46.598	0	220.1	4	77.2	4	-1E+10	1	2.9505	4	0.003719	0	-1E+10	1	-1E+10	1	-1E+10	1
4902624	36	C	06/16/2025	05:37	-128.275	48.623	0	47.10	0	9.0320	0	32.6510	0	25.275	0	46.697	0	-1e10	1	-1e10	1	-1E+10	1	-1e10	1	-1e10	1	-1E+10	1	-1E+10	1	-1E+10	1
4902624	36	C	06/16/2025	05:37	-128.275	48.623	0	48.00	0	9.0254	0	32.6557	0	25.280	0	47.589	0	217.4	4	76.2	4	-1E+10	1	3.1731	4	0.003344	0	-1E+10	1	-1E+10	1	-1E+10	1
4902624	36	C	06/16/2025	05:37	-128.275	48.623	0	48.90	0	9.0187	0	32.6605	0	25.285	0	48.481	0	214.4	4	75.2	4	-1E+10	1	2.9207	4	0.003251	0	-1E+10	1	-1E+10	1	-1E+10	1
4902624	36	C	06/16/2025	05:37	-128.275	48.623	0	49.00	0	9.0180	0	32.6610	0	25.285	0	48.580	0	-1e10	1	-1e10	1	-1E+10	1	-1e10	1	-1e10	1	-1E+10	1	-1E+10	1	-1E+10	1
4902624	36	C	06/16/2025	05:37	-128.275	48.623	0	49.80	0	8.9796	0	32.6886	0	25.313	0	49.373	0	211.7	4	74.1	4	-1E+10	1	2.6280	4	0.002953	0	-1E+10	1	-1E+10	1	-1E+10	1
4902624	36	C	06/16/2025	05:37	-128.275	48.623	0	50.90	0	8.9268	0	32.7266	0	25.351	0	50.464	0	209.7	4	73.4	4	-1E+10	1	2.2192	4	0.002894	0	-1E+10	1	-1E+10	1	-1E+10	1
4902624	36	C	06/16/2025	05:37	-128.275	48.623	0	51.00	0	8.9220	0	32.7300	0	25.354	0	50.563	0	-1e10	1	-1e10	1	-1E+10	1	-1e10	1	-1e10	1	-1E+10	1	-1E+10	1	-1E+10	1
4902624	36	C	06/16/2025	05:37	-128.275	48.623	0	51.90	0	8.9147	0	32.7416	0	25.364	0	51.455	0	207.6	4	72.6	4	-1E+10	1	3.0806	4	0.003070	0	-1E+10	1	-1E+10	1	-1E+10	1
4902624	36	C	06/16/2025	05:37	-128.275	48.623	0	53.00	0	8.9058	0	32.7557	0	25.377	0	52.546	0	205.1	4	71.7	4	-1E+10	1	2.6499	4	0.003164	0	-1E+10	1	-1E+10	1	-1E+10	1
4902624	36	C	06/16/2025	05:37	-128.275	48.623	0	53.10	0	8.9050	0	32.7570	0	25.378	0	52.645	0	-1e10	1	-1e10	1	-1E+10	1	-1e10	1	-1e10	1	-1E+10	1	-1E+10	1	-1E+10	1
4902624	36	C	06/16/2025	05:37	-128.275	48.623	0	54.10	0	8.8975	0	32.7610	0	25.382	0	53.636	0	202.1	4	70.7	4	-1E+10	1	2.8470	4	0.003282	0	-1E+10	1	-1E+10	1	-1E+10	1
4902624	36	C	06/16/2025	05:37	-128.275	48.623	0	54.80	0	8.8923	0	32.7638	0	25.385	0	54.330	0	200.0	4	69.9	4	-1E+10	1	2.5915	4	0.002672	0	-1E+10	1	-1E+10	1	-1E+10	1
4902624	36	C	06/16/2025	05:37	-128.275	48.623	0	55.10	0	8.8900	0	32.7650	0	25.387	0	54.627	0	-1e10	1	-1e10	1	-1E+10	1	-1e10	1	-1e10	1	-1E+10	1	-1E+10	1	-1E+10	1
4902624	36	C	06/16/2025	05:37	-128.275	48.623	0	55.20	0	8.8855	0	32.7661	0	25.388	0	54.726	0	198.6	4	69.5	4	-1E+10	1	2.5331	4	0.002732	0	-1E+10	1	-1E+10	1	-1E+10	1
4902624	36	C	06/16/2025	05:37	-128.275	48.623	0	55.60	0	8.8676	0	32.7703	0	25.394	0	55.123	0	196.8	4	68.8	4	-1E+10	1	2.5389	4	0.002941	0	-1E+10	1	-1E+10	1	-1E+10	1
4902624	36	C	06/16/2025	05:37	-128.275	48.623	0	56.10	0	8.8453	0	32.7755	0	25.402	0	55.618	0	194.9	4	68.1	4	-1E+10	1	2.6835	4	0.003418	0	-1E+10	1	-1E+10	1	-1E+10	1
4902624	36	C	06/16/2025	05:37	-128.275	48.623	0	56.60	0	8.8229	0	32.7808	0	25.409	0	56.114	0	192.9	4	67.4	4	-1E+10	1	2.4540	4	0.002720	0	-1E+10	1	-1E+10	1	-1E+10	1
4902624	36	C	06/16/2025	05:37	-128.275	48.623	0	57.00	0	8.8050	0	32.7850	0	25.415	0	56.511	0	-1e10	1	-1e10	1	-1E+10	1	-1e10	1	-1e10	1	-1E+10	1	-1E+10	1	-1E+10	1
4902624	36	C	06/16/2025	05:37	-128.275	48.623	0	57.10	0	8.8011	0	32.7868	0	25.417	0	56.610	0	190.4	4	66.5	4	-1E+10	1	2.3871	4	0.002848	0	-1E+10	1	-1E+10	1	-1E+10	1
4902624	36	C	06/16/2025	05:37	-128.275	48.623	0	57.60	0	8.7813	0	32.7961	0	25.428	0	57.105	0	187.7	4	65.5	4	-1E+10	1	2.2715	4	0.003463	0	-1E+10	1	-1E+10	1	-1E+10	1
4902624	36	C	06/16/2025	05:37	-128.275	48.623	0	58.20	0	8.7576	0	32.8071	0	25.440	0	57.700	0	184.3	4	64.3	4	-1E+10	1	2.3701	4	0.003166	0	-1E+10	1	-1E+10	1	-1E+10	1
4902624	36	C	06/16/2025	05:37	-128.275	48.623	0	58.80	0	8.7339	0	32.8182	0	25.452	0	58.295	0	180.6	4	63.0	4	-1E+10	1	2.2067	4	0.002772	0	-1E+10	1	-1E+10	1	-1E+10	1
4902624	36	C	06/16/2025	05:37	-128.275	48.623	0	58.90	0	8.7300	0	32.8200	0	25.454	0	58.394	0	-1e10	1	-1e10	1	-1E+10	1	-1e10	1	-1e10	1	-1E+10	1	-1E+10	1	-1E+10	1
4902624	36	C	06/16/2025	05:37	-128.275	48.623	0	59.50	0	8.6909	0	32.8463	0	25.481	0	58.989	0	177.0	4	61.7	4	-1E+10	1	2.0667	4	0.002596	0	-1E+10	1	-1E+10	1	-1E+10	1
4902624	36	C	06/16/2025	05:37	-128.275	48.623	0	60.20	0	8.6452	0	32.8770	0	25.512	0	59.683	0	173.2	4	60.3	4	-1E+10	1	1.8314	4	0.002387	0	-1E+10	1	-1E+10	1	-1E+10	1
4902624	36	C	06/16/2025	05:37	-128.275	48.623	0	61.00	0	8.5930	0	32.9120	0	25.547	0	60.476	0	168.9	4	58.7	4	-1E+10	1	1.5038	4	0.002056	0	-1E+10	1	-1E+10	1	-1E+10	1
4902624	36	C	06/16/2025	05:37	-128.275	48.623	0	61.80	0	8.5486	0	32.9436	0	25.579	0	61.269	0	167.7	4	58.3	4	-1E+10	1	1.4359	4	0.001921	0	-1E+10	1	-1E+10	1	-1E+10	1
4902624	36	C	06/16/2025	05:37	-128.275	48.623	0	62.70	0	8.4987	0	32.9791	0	25.614	0	62.161	0	164.6	4	57.2	4	-1E+10	1	1.2848	4	0.001815	0	-1E+10	1	-1E+10	1	-1E+10	1
4902624	36	C	06/16/2025	05:37	-128.275	48.623	0	63.00	0	8.4820	0	32.9910	0	25.626	0	62.458	0	-1e10	1	-1e10	1	-1E+10	1	-1e10	1	-1e10	1	-1E+10	1	-1E+10	1	-1E+10	1
4902624	36	C	06/16/2025	05:37	-128.275	48.623	0	63.70	0	8.4645	0	33.0047	0	25.639	0	63.152	0	161.2	4	56.0	4	-1E+10	1	1.2337	4	0.001733	0	-1E+10	1	-1E+10	1	-1E+10	1
4902624	36	C	06/16/2025	05:37	-128.275	48.623	0	64.60	0	8.4420	0	33.0222	0	25.657	0	64.044	0	157.6	4	54.7	4	-1E+10	1	1.3293	4	0.001781	0	-1E+10	1	-1E+10	1	-1E+10	1
4902624	36	C	06/16/2025	05:37	-128.275	48.623	0	65.00	0	8.4320	0	33.0300	0	25.664	0	64.441	0	-1e10	1	-1e10	1	-1E+10	1	-1e10	1	-1e10	1	-1E+10	1	-1E+10	1	-1E+10	1
4902624	36	C	06/16/2025	05:37	-128.275	48.623	0	65.60	0	8.4277	0	33.0403	0	25.673	0	65.035	0	153.7	4	53.3	4	-1E+10	1	1.1120	4	0.001643	0	-1E+10	1	-1E+10	1	-1E+10	1
4902624	36	C	06/16/2025	05:37	-128.275	48.623	0	66.60	0	8.4206	0	33.0574	0	25.687	0	66.027	0	149.6	4	51.9	4	-1E+10	1	0.8176	4	0.001238	0	-1E+10	1	-1E+10	1	-1E+10	1
4902624	36	C	06/16/2025	05:37	-128.275	48.623	0	67.10	0	8.4170	0	33.0660	0	25.695	0	66.522	0	-1e10	1	-1e10	1	-1E+10	1	-1e10	1	-1e10	1	-1E+10	1	-1E+10	1	-1E+10	1
4902624	36	C	06/16/2025	05:37	-128.275	48.623	0	67.70	0	8.4274	0	33.0840	0	25.707	0	67.117	0	146.7	4	50.9	4	-1E+10	1	0.5829	4	0.001144	0	-1E+10	1	-1E+10	1	-1E+10	1
4902624	36	C	06/16/2025	05:37	-128.275	48.623	0	68.80	0	8.4465	0	33.1170	0	25.730	0	68.207	0	144.6	4	50.2	4	-1E+10	1	0.4369	4	0.001356	0	-1E+10	1	-1E+10	1	-1E+10	1
4902624	36	C	06/16/2025	05:37	-128.275	48.623	0	69.00	0	8.4500	0	33.1230	0	25.734	0	68.406	0	-1e10	1	-1e10	1	-1E+10	1	-1e10	1	-1e10	1	-1E+10	1	-1E+10	1	-1E+10	1
4902624	36	C	06/16/2025	05:37	-128.275	48.623	0	69.80	0	8.4475	0	33.1276	0	25.738	0	69.199	0	142.3	4	49.4	4	-1E+10	1	0.3491	4	0.001355	0	-1E+10	1	-1E+10	1	-1E+10	1
4902624	36	C	06/16/2025	05:37	-128.275	48.623	0	70.90	0	8.4440	0	33.1340	0	25.744	0	70.289	0	137.9	4	47.9	4	-1E+10	1	0.2695	4	0.000603	0	-1E+10	1	-1E+10	1	-1E+10	1
4902624	36	C	06/16/2025	05:37	-128.275	48.623	0	72.00	0	8.4627	0	33.1747	0	25.773	0	71.379	0	136.1	4	47.3	4	-1E+10	1	0.2263	4	0.000583	0	-1E+10	1	-1E+10	1	-1E+10	1
4902624	36	C	06/16/2025	05:37	-128.275	48.623	0	72.90	0	8.4780	0	33.2080	0	25.797	0	72.271	0	-1e10	1	-1e10	1	-1E+10	1	-1e10	1	-1e10	1	-1E+10	1	-1E+10	1	-1E+10	1
4902624	36	C	06/16/2025	05:37	-128.275	48.623	0	73.30	0	8.4782	0	33.2253	0	25.811	0	72.668	0	134.2	4	46.7	4	-1E+10	1	0.1670	4	0.000545	0	-1E+10	1	-1E+10	1	-1E+10	1
4902624	36	C	06/16/2025	05:37	-128.275	48.623	0	74.60	0	8.4788	0	33.2817	0	25.855	0	73.956	0	132.9	4	46.2	4	-1E+10	1	0.1308	4	0.000509	0	-1E+10	1	-1E+10	1	-1E+10	1
4902624	36	C	06/16/2025	05:37	-128.275	48.623	0	75.00	0	8.4790	0	33.2990	0	25.868	0	74.353	0	-1e10	1	-1e10	1	-1E+10	1	-1e10	1	-1e10	1	-1E+10	1	-1E+10	1	-1E+10	1
4902624	36	C	06/16/2025	05:37	-128.275	48.623	0	75.90	0	8.4726	0	33.3114	0	25.879	0	75.245	0	131.9	4	45.9	4	-1E+10	1	0.1013	4	0.000486	0	-1E+10	1	-1E+10	1	-1E+10	1
4902624	36	C	06/16/2025	05:37	-128.275	48.623	0	77.10	0	8.4640	0	33.3280	0	25.893	0	76.434	0	-1e10	1	-1e10	1	-1E+10	1	-1e10	1	-1e10	1	-1E+10	1	-1E+10	1	-1E+10	1
4902624	36	C	06/16/2025	05:37	-128.275	48.623	0	77.20	0	8.4635	0	33.3281	0	25.893	0	76.533	0	131.1	4	45.6	4	-1E+10	1	0.1183	4	0.000598	0	-1E+10	1	-1E+10	1	-1E+10	1
4902624	36	C	06/16/2025	05:37	-128.275	48.623	0	78.50	0	8.4570	0	33.3301	0	25.896	0	77.822	0	130.1	4	45.3	4	-1E+10	1	0.1411	4	0.000643	0	-1E+10	1	-1E+10	1	-1E+10	1
4902624	36	C	06/16/2025	05:37	-128.275	48.623	0	79.10	0	8.4540	0	33.3310	0	25.897	0	78.417	0	-1e10	1	-1e10	1	-1E+10	1	-1e10	1	-1e10	1	-1E+10	1	-1E+10	1	-1E+10	1
4902624	36	C	06/16/2025	05:37	-128.275	48.623	0	79.70	0	8.4448	0	33.3326	0	25.900	0	79.011	0	129.1	4	44.9	4	-1E+10	1	0.1319	4	0.000492	0	-1E+10	1	-1E+10	1	-1E+10	1
4902624	36	C	06/16/2025	05:37	-128.275	48.623	0	80.90	0	8.4265	0	33.3357	0	25.905	0	80.201	0	127.7	4	44.4	4	-1E+10	1	0.1554	4	0.000479	0	-1E+10	1	-1E+10	1	-1E+10	1
4902624	36	C	06/16/2025	05:37	-128.275	48.623	0	81.00	0	8.4250	0	33.3360	0	25.905	0	80.300	0	-1e10	1	-1e10	1	-1E+10	1	-1e10	1	-1e10	1	-1E+10	1	-1E+10	1	-1E+10	1
4902624	36	C	06/16/2025	05:37	-128.275	48.623	0	82.00	0	8.4035	0	33.3425	0	25.914	0	81.291	0	126.1	4	43.8	4	-1E+10	1	0.1898	4	0.000571	0	-1E+10	1	-1E+10	1	-1E+10	1
4902624	36	C	06/16/2025	05:37	-128.275	48.623	0	83.00	0	8.3820	0	33.3490	0	25.922	0	82.282	0	-1e10	1	-1e10	1	-1E+10	1	-1e10	1	-1e10	1	-1E+10	1	-1E+10	1	-1E+10	1
4902624	36	C	06/16/2025	05:37	-128.275	48.623	0	83.20	0	8.3757	0	33.3555	0	25.928	0	82.480	0	124.4	4	43.2	4	-1E+10	1	0.1679	4	0.000454	0	-1E+10	1	-1E+10	1	-1E+10	1
4902624	36	C	06/16/2025	05:37	-128.275	48.623	0	84.40	0	8.3379	0	33.3945	0	25.964	0	83.670	0	123.0	4	42.7	4	-1E+10	1	0.0803	4	0.000414	0	-1E+10	1	-1E+10	1	-1E+10	1
4902624	36	C	06/16/2025	05:37	-128.275	48.623	0	85.00	0	8.3190	0	33.4140	0	25.983	0	84.265	0	-1e10	1	-1e10	1	-1E+10	1	-1e10	1	-1e10	1	-1E+10	1	-1E+10	1	-1E+10	1
4902624	36	C	06/16/2025	05:37	-128.275	48.623	0	85.60	0	8.3057	0	33.4361	0	26.002	0	84.859	0	121.9	4	42.3	4	-1E+10	1	0.0900	4	0.000517	0	-1E+10	1	-1E+10	1	-1E+10	1
4902624	36	C	06/16/2025	05:37	-128.275	48.623	0	86.80	0	8.2792	0	33.4803	0	26.041	0	86.049	0	121.3	4	42.1	4	-1E+10	1	0.0894	4	0.000482	0	-1E+10	1	-1E+10	1	-1E+10	1
4902624	36	C	06/16/2025	05:37	-128.275	48.623	0	86.90	0	8.2770	0	33.4840	0	26.044	0	86.148	0	-1e10	1	-1e10	1	-1E+10	1	-1e10	1	-1e10	1	-1E+10	1	-1E+10	1	-1E+10	1
4902624	36	C	06/16/2025	05:37	-128.275	48.623	0	88.00	0	8.2644	0	33.5008	0	26.059	0	87.238	0	120.9	4	41.9	4	-1E+10	1	0.0701	4	0.000479	0	-1E+10	1	-1E+10	1	-1E+10	1
4902624	36	C	06/16/2025	05:37	-128.275	48.623	0	89.00	0	8.2530	0	33.5160	0	26.073	0	88.229	0	-1e10	1	-1e10	1	-1E+10	1	-1e10	1	-1e10	1	-1E+10	1	-1E+10	1	-1E+10	1
4902624	36	C	06/16/2025	05:37	-128.275	48.623	0	89.30	0	8.2483	0	33.5201	0	26.077	0	88.526	0	120.6	4	41.8	4	-1E+10	1	0.0554	4	0.000475	0	-1E+10	1	-1E+10	1	-1E+10	1
4902624	36	C	06/16/2025	05:37	-128.275	48.623	0	90.50	0	8.2294	0	33.5367	0	26.092	0	89.716	0	120.5	4	41.8	4	-1E+10	1	0.0511	4	0.000382	0	-1E+10	1	-1E+10	1	-1E+10	1
4902624	36	C	06/16/2025	05:37	-128.275	48.623	0	91.10	0	8.2200	0	33.5450	0	26.100	0	90.310	0	-1e10	1	-1e10	1	-1E+10	1	-1e10	1	-1e10	1	-1E+10	1	-1E+10	1	-1E+10	1
4902624	36	C	06/16/2025	05:37	-128.275	48.623	0	91.70	0	8.1979	0	33.5504	0	26.108	0	90.905	0	120.4	4	41.7	4	-1E+10	1	0.0563	4	0.000391	0	-1E+10	1	-1E+10	1	-1E+10	1
4902624	36	C	06/16/2025	05:37	-128.275	48.623	0	92.90	0	8.1537	0	33.5611	0	26.123	0	92.094	0	120.3	4	41.6	4	-1E+10	1	0.0686	4	0.000402	0	-1E+10	1	-1E+10	1	-1E+10	1
4902624	36	C	06/16/2025	05:37	-128.275	48.623	0	93.00	0	8.1500	0	33.5620	0	26.124	0	92.194	0	-1e10	1	-1e10	1	-1E+10	1	-1e10	1	-1e10	1	-1E+10	1	-1E+10	1	-1E+10	1
4902624	36	C	06/16/2025	05:37	-128.275	48.623	0	94.10	0	8.1456	0	33.5714	0	26.132	0	93.284	0	120.3	4	41.6	4	-1E+10	1	0.0803	4	0.000477	0	-1E+10	1	-1E+10	1	-1E+10	1
4902624	36	C	06/16/2025	05:37	-128.275	48.623	0	95.00	0	8.1420	0	33.5790	0	26.139	0	94.176	0	-1e10	1	-1e10	1	-1E+10	1	-1e10	1	-1e10	1	-1E+10	1	-1E+10	1	-1E+10	1
4902624	36	C	06/16/2025	05:37	-128.275	48.623	0	95.40	0	8.1340	0	33.5792	0	26.140	0	94.572	0	120.5	4	41.7	4	-1E+10	1	0.0438	4	0.000466	0	-1E+10	1	-1E+10	1	-1E+10	1
4902624	36	C	06/16/2025	05:37	-128.275	48.623	0	96.60	0	8.1100	0	33.5798	0	26.144	0	95.761	0	120.6	4	41.7	4	-1E+10	1	0.0501	4	0.000395	0	-1E+10	1	-1E+10	1	-1E+10	1
4902624	36	C	06/16/2025	05:37	-128.275	48.623	0	96.90	0	8.1040	0	33.5800	0	26.145	0	96.059	0	-1e10	1	-1e10	1	-1E+10	1	-1e10	1	-1e10	1	-1E+10	1	-1E+10	1	-1E+10	1
4902624	36	C	06/16/2025	05:37	-128.275	48.623	0	97.80	0	8.0826	0	33.5779	0	26.147	0	96.951	0	120.5	4	41.6	4	-1E+10	1	0.0608	4	0.000509	0	-1E+10	1	-1E+10	1	-1E+10	1
4902624	36	C	06/16/2025	05:37	-128.275	48.623	0	99.00	0	8.0540	0	33.5750	0	26.149	0	98.140	0	118.4	4	40.9	4	-1E+10	1	0.0657	4	0.000467	0	-1E+10	1	-1E+10	1	-1E+10	1
4902624	36	C	06/16/2025	05:37	-128.275	48.623	0	100.10	0	7.9859	0	33.5745	0	26.158	0	99.230	0	119.5	4	41.2	4	-1E+10	1	0.0657	4	0.000395	0	-1E+10	1	-1E+10	1	-1E+10	1
4902624	36	C	06/16/2025	05:37	-128.275	48.623	0	101.10	0	7.9240	0	33.5740	0	26.167	0	100.221	0	-1e10	1	-1e10	1	-1E+10	1	-1e10	1	-1e10	1	-1E+10	1	-1E+10	1	-1E+10	1
4902624	36	C	06/16/2025	05:37	-128.275	48.623	0	101.30	0	7.9123	0	33.5748	0	26.169	0	100.420	0	118.3	4	40.7	4	-1E+10	1	0.0787	4	0.000388	0	-1E+10	1	-1E+10	1	-1E+10	1
4902624	36	C	06/16/2025	05:37	-128.275	48.623	0	102.40	0	7.8482	0	33.5791	0	26.182	0	101.510	0	116.7	4	40.1	4	-1E+10	1	0.0949	4	0.000386	0	-1E+10	1	-1E+10	1	-1E+10	1
4902624	36	C	06/16/2025	05:37	-128.275	48.623	0	102.90	0	7.8190	0	33.5810	0	26.188	0	102.005	0	-1e10	1	-1e10	1	-1E+10	1	-1e10	1	-1e10	1	-1E+10	1	-1E+10	1	-1E+10	1
4902624	36	C	06/16/2025	05:37	-128.275	48.623	0	103.40	0	7.8245	0	33.5923	0	26.196	0	102.501	0	115.0	4	39.5	4	-1E+10	1	0.0599	4	0.000348	0	-1E+10	1	-1E+10	1	-1E+10	1
4902624	36	C	06/16/2025	05:37	-128.275	48.623	0	104.20	0	7.8333	0	33.6102	0	26.209	0	103.294	0	113.5	4	39.0	4	-1E+10	1	0.0365	4	0.000348	0	-1E+10	1	-1E+10	1	-1E+10	1
4902624	36	C	06/16/2025	05:37	-128.275	48.623	0	104.90	0	7.8410	0	33.6260	0	26.220	0	103.987	0	110.9	4	38.1	4	-1E+10	1	0.0933	4	0.000604	0	-1E+10	1	-1E+10	1	-1E+10	1
4902624	36	C	06/16/2025	05:37	-128.275	48.623	0	105.60	0	7.8578	0	33.6428	0	26.231	0	104.681	0	112.1	4	38.6	4	-1E+10	1	0.0730	4	0.000476	0	-1E+10	1	-1E+10	1	-1E+10	1
4902624	36	C	06/16/2025	05:37	-128.275	48.623	0	106.30	0	7.8746	0	33.6596	0	26.241	0	105.375	0	111.8	4	38.5	4	-1E+10	1	0.0538	4	0.000417	0	-1E+10	1	-1E+10	1	-1E+10	1
4902624	36	C	06/16/2025	05:37	-128.275	48.623	0	106.90	0	7.8890	0	33.6740	0	26.251	0	105.969	0	-1e10	1	-1e10	1	-1E+10	1	-1e10	1	-1e10	1	-1E+10	1	-1E+10	1	-1E+10	1
4902624	36	C	06/16/2025	05:37	-128.275	48.623	0	107.00	0	7.8853	0	33.6743	0	26.251	0	106.069	0	111.4	4	38.4	4	-1E+10	1	0.0428	4	0.000370	0	-1E+10	1	-1E+10	1	-1E+10	1
4902624	36	C	06/16/2025	05:37	-128.275	48.623	0	107.60	0	7.8631	0	33.6761	0	26.256	0	106.663	0	110.7	4	38.1	4	-1E+10	1	0.0428	4	0.000350	0	-1E+10	1	-1E+10	1	-1E+10	1
4902624	36	C	06/16/2025	05:37	-128.275	48.623	0	108.30	0	7.8372	0	33.6782	0	26.261	0	107.357	0	109.7	4	37.7	4	-1E+10	1	0.0487	4	0.000373	0	-1E+10	1	-1E+10	1	-1E+10	1
4902624	36	C	06/16/2025	05:37	-128.275	48.623	0	108.90	0	7.8150	0	33.6800	0	26.266	0	107.952	0	-1e10	1	-1e10	1	-1E+10	1	-1e10	1	-1e10	1	-1E+10	1	-1E+10	1	-1E+10	1
4902624	36	C	06/16/2025	05:37	-128.275	48.623	0	109.00	0	7.8157	0	33.6812	0	26.267	0	108.051	0	108.5	4	37.3	4	-1E+10	1	0.0446	4	0.000365	0	-1E+10	1	-1E+10	1	-1E+10	1
4902624	36	C	06/16/2025	05:37	-128.275	48.623	0	109.80	0	7.8214	0	33.6911	0	26.274	0	108.843	0	107.1	4	36.8	4	-1E+10	1	0.0511	4	0.000466	0	-1E+10	1	-1E+10	1	-1E+10	1
4902624	36	C	06/16/2025	05:37	-128.275	48.623	0	110.50	0	7.8264	0	33.6998	0	26.280	0	109.537	0	105.9	4	36.4	4	-1E+10	1	0.0584	4	0.000337	0	-1E+10	1	-1E+10	1	-1E+10	1
4902624	36	C	06/16/2025	05:37	-128.275	48.623	0	111.00	0	7.8300	0	33.7060	0	26.284	0	110.033	0	-1e10	1	-1e10	1	-1E+10	1	-1e10	1	-1e10	1	-1E+10	1	-1E+10	1	-1E+10	1
4902624	36	C	06/16/2025	05:37	-128.275	48.623	0	111.30	0	7.8357	0	33.7103	0	26.287	0	110.330	0	105.3	4	36.2	4	-1E+10	1	0.0584	4	0.000374	0	-1E+10	1	-1E+10	1	-1E+10	1
4902624	36	C	06/16/2025	05:37	-128.275	48.623	0	112.10	0	7.8510	0	33.7217	0	26.294	0	111.123	0	105.0	4	36.1	4	-1E+10	1	0.0584	4	0.000399	0	-1E+10	1	-1E+10	1	-1E+10	1
4902624	36	C	06/16/2025	05:37	-128.275	48.623	0	112.90	0	7.8662	0	33.7331	0	26.300	0	111.916	0	104.6	4	36.0	4	-1E+10	1	0.0538	4	0.000400	0	-1E+10	1	-1E+10	1	-1E+10	1
4902624	36	C	06/16/2025	05:37	-128.275	48.623	0	113.10	0	7.8700	0	33.7360	0	26.302	0	112.114	0	-1e10	1	-1e10	1	-1E+10	1	-1e10	1	-1e10	1	-1E+10	1	-1E+10	1	-1E+10	1
4902624	36	C	06/16/2025	05:37	-128.275	48.623	0	113.70	0	7.8618	0	33.7382	0	26.305	0	112.708	0	104.2	4	35.9	4	-1E+10	1	0.0511	4	0.000395	0	-1E+10	1	-1E+10	1	-1E+10	1
4902624	36	C	06/16/2025	05:37	-128.275	48.623	0	114.50	0	7.8508	0	33.7412	0	26.309	0	113.501	0	103.9	4	35.8	4	-1E+10	1	0.0535	4	0.000426	0	-1E+10	1	-1E+10	1	-1E+10	1
4902624	36	C	06/16/2025	05:37	-128.275	48.623	0	115.00	0	7.8440	0	33.7430	0	26.311	0	113.997	0	-1e10	1	-1e10	1	-1E+10	1	-1e10	1	-1e10	1	-1E+10	1	-1E+10	1	-1E+10	1
4902624	36	C	06/16/2025	05:37	-128.275	48.623	0	115.30	0	7.8379	0	33.7439	0	26.313	0	114.294	0	103.6	4	35.7	4	-1E+10	1	0.0616	4	0.000601	0	-1E+10	1	-1E+10	1	-1E+10	1
4902624	36	C	06/16/2025	05:37	-128.275	48.623	0	116.10	0	7.8214	0	33.7463	0	26.317	0	115.087	0	103.2	4	35.5	4	-1E+10	1	0.0715	4	0.000932	0	-1E+10	1	-1E+10	1	-1E+10	1
4902624	36	C	06/16/2025	05:37	-128.275	48.623	0	117.00	0	7.8030	0	33.7490	0	26.322	0	115.979	0	101.2	4	34.8	4	-1E+10	1	0.0584	4	0.000376	0	-1E+10	1	-1E+10	1	-1E+10	1
4902624	36	C	06/16/2025	05:37	-128.275	48.623	0	117.80	0	7.7930	0	33.7538	0	26.327	0	116.771	0	102.7	4	35.3	4	-1E+10	1	0.0526	4	0.000391	0	-1E+10	1	-1E+10	1	-1E+10	1
4902624	36	C	06/16/2025	05:37	-128.275	48.623	0	118.70	0	7.7817	0	33.7592	0	26.333	0	117.663	0	102.5	4	35.2	4	-1E+10	1	0.0397	4	0.000486	0	-1E+10	1	-1E+10	1	-1E+10	1
4902624	36	C	06/16/2025	05:37	-128.275	48.623	0	119.00	0	7.7780	0	33.7610	0	26.335	0	117.961	0	-1e10	1	-1e10	1	-1E+10	1	-1e10	1	-1e10	1	-1E+10	1	-1E+10	1	-1E+10	1
4902624	36	C	06/16/2025	05:37	-128.275	48.623	0	119.60	0	7.7751	0	33.7616	0	26.336	0	118.555	0	102.3	4	35.1	4	-1E+10	1	0.0672	4	0.001169	0	-1E+10	1	-1E+10	1	-1E+10	1
4902624	36	C	06/16/2025	05:37	-128.275	48.623	0	120.40	0	7.7713	0	33.7623	0	26.337	0	119.348	0	102.0	4	35.0	4	-1E+10	1	0.0637	4	0.001035	0	-1E+10	1	-1E+10	1	-1E+10	1
4902624	36	C	06/16/2025	05:37	-128.275	48.623	0	121.10	0	7.7680	0	33.7630	0	26.338	0	120.042	0	-1e10	1	-1e10	1	-1E+10	1	-1e10	1	-1e10	1	-1E+10	1	-1E+10	1	-1E+10	1
4902624	36	C	06/16/2025	05:37	-128.275	48.623	0	121.30	0	7.7668	0	33.7632	0	26.339	0	120.240	0	101.6	4	34.9	4	-1E+10	1	0.0465	4	0.000496	0	-1E+10	1	-1E+10	1	-1E+10	1
4902624	36	C	06/16/2025	05:37	-128.275	48.623	0	122.10	0	7.7622	0	33.7641	0	26.340	0	121.033	0	101.2	4	34.8	4	-1E+10	1	0.0533	4	0.000420	0	-1E+10	1	-1E+10	1	-1E+10	1
4902624	36	C	06/16/2025	05:37	-128.275	48.623	0	123.00	0	7.7570	0	33.7650	0	26.341	0	121.925	0	99.1	4	34.0	4	-1E+10	1	0.0569	4	0.000407	0	-1E+10	1	-1E+10	1	-1E+10	1
4902624	36	C	06/16/2025	05:37	-128.275	48.623	0	123.80	0	7.7474	0	33.7690	0	26.346	0	122.717	0	100.3	4	34.4	4	-1E+10	1	0.0511	4	0.000454	0	-1E+10	1	-1E+10	1	-1E+10	1
4902624	36	C	06/16/2025	05:37	-128.275	48.623	0	124.70	0	7.7366	0	33.7735	0	26.351	0	123.609	0	99.9	4	34.3	4	-1E+10	1	0.0365	4	0.000383	0	-1E+10	1	-1E+10	1	-1E+10	1
4902624	36	C	06/16/2025	05:37	-128.275	48.623	0	125.00	0	7.7330	0	33.7750	0	26.353	0	123.906	0	-1e10	1	-1e10	1	-1E+10	1	-1e10	1	-1e10	1	-1E+10	1	-1E+10	1	-1E+10	1
4902624	36	C	06/16/2025	05:37	-128.275	48.623	0	125.50	0	7.7227	0	33.7795	0	26.358	0	124.402	0	99.7	4	34.2	4	-1E+10	1	0.0248	4	0.000562	0	-1E+10	1	-1E+10	1	-1E+10	1
4902624	36	C	06/16/2025	05:37	-128.275	48.623	0	126.40	0	7.7043	0	33.7876	0	26.367	0	125.294	0	99.6	4	34.2	4	-1E+10	1	0.0321	4	0.000483	0	-1E+10	1	-1E+10	1	-1E+10	1
4902624	36	C	06/16/2025	05:37	-128.275	48.623	0	127.00	0	7.6920	0	33.7930	0	26.373	0	125.888	0	-1e10	1	-1e10	1	-1E+10	1	-1e10	1	-1e10	1	-1E+10	1	-1E+10	1	-1E+10	1
4902624	36	C	06/16/2025	05:37	-128.275	48.623	0	127.30	0	7.6899	0	33.7936	0	26.374	0	126.186	0	99.4	4	34.1	4	-1E+10	1	0.0414	4	0.000415	0	-1E+10	1	-1E+10	1	-1E+10	1
4902624	36	C	06/16/2025	05:37	-128.275	48.623	0	128.10	0	7.6841	0	33.7951	0	26.376	0	126.978	0	99.3	4	34.1	4	-1E+10	1	0.0474	4	0.000448	0	-1E+10	1	-1E+10	1	-1E+10	1
4902624	36	C	06/16/2025	05:37	-128.275	48.623	0	128.90	0	7.6784	0	33.7966	0	26.378	0	127.771	0	99.1	4	34.0	4	-1E+10	1	0.0489	4	0.000464	0	-1E+10	1	-1E+10	1	-1E+10	1
4902624	36	C	06/16/2025	05:37	-128.275	48.623	0	129.10	0	7.6770	0	33.7970	0	26.378	0	127.969	0	-1e10	1	-1e10	1	-1E+10	1	-1e10	1	-1e10	1	-1E+10	1	-1E+10	1	-1E+10	1
4902624	36	C	06/16/2025	05:37	-128.275	48.623	0	129.80	0	7.6737	0	33.7977	0	26.379	0	128.663	0	98.8	4	33.9	4	-1E+10	1	0.0438	4	0.000409	0	-1E+10	1	-1E+10	1	-1E+10	1
4902624	36	C	06/16/2025	05:37	-128.275	48.623	0	130.70	0	7.6694	0	33.7987	0	26.381	0	129.555	0	98.6	4	33.8	4	-1E+10	1	0.0423	4	0.000426	0	-1E+10	1	-1E+10	1	-1E+10	1
4902624	36	C	06/16/2025	05:37	-128.275	48.623	0	131.00	0	7.6680	0	33.7990	0	26.381	0	129.852	0	-1e10	1	-1e10	1	-1E+10	1	-1e10	1	-1e10	1	-1E+10	1	-1E+10	1	-1E+10	1
4902624	36	C	06/16/2025	05:37	-128.275	48.623	0	131.50	0	7.6630	0	33.8007	0	26.383	0	130.348	0	98.5	4	33.8	4	-1E+10	1	0.0365	4	0.000454	0	-1E+10	1	-1E+10	1	-1E+10	1
4902624	36	C	06/16/2025	05:37	-128.275	48.623	0	132.50	0	7.6530	0	33.8040	0	26.387	0	131.338	0	98.3	4	33.7	4	-1E+10	1	0.0511	4	0.000794	0	-1E+10	1	-1E+10	1	-1E+10	1
4902624	36	C	06/16/2025	05:37	-128.275	48.623	0	133.10	0	7.6470	0	33.8060	0	26.390	0	131.933	0	-1e10	1	-1e10	1	-1E+10	1	-1e10	1	-1e10	1	-1E+10	1	-1E+10	1	-1E+10	1
4902624	36	C	06/16/2025	05:37	-128.275	48.623	0	133.30	0	7.6433	0	33.8072	0	26.391	0	132.131	0	98.3	4	33.7	4	-1E+10	1	0.0511	4	0.000450	0	-1E+10	1	-1E+10	1	-1E+10	1
4902624	36	C	06/16/2025	05:37	-128.275	48.623	0	134.10	0	7.6286	0	33.8118	0	26.397	0	132.924	0	98.3	4	33.7	4	-1E+10	1	0.0511	4	0.000444	0	-1E+10	1	-1E+10	1	-1E+10	1
4902624	36	C	06/16/2025	05:37	-128.275	48.623	0	135.00	0	7.6120	0	33.8170	0	26.403	0	133.816	0	96.7	4	33.1	4	-1E+10	1	0.0438	4	0.000442	0	-1E+10	1	-1E+10	1	-1E+10	1
4902624	36	C	06/16/2025	05:37	-128.275	48.623	0	135.90	0	7.6063	0	33.8175	0	26.405	0	134.708	0	98.4	4	33.7	4	-1E+10	1	0.0430	4	0.000418	0	-1E+10	1	-1E+10	1	-1E+10	1
4902624	36	C	06/16/2025	05:37	-128.275	48.623	0	136.80	0	7.6006	0	33.8179	0	26.406	0	135.599	0	98.5	4	33.7	4	-1E+10	1	0.0538	4	0.000414	0	-1E+10	1	-1E+10	1	-1E+10	1
4902624	36	C	06/16/2025	05:37	-128.275	48.623	0	136.90	0	7.6000	0	33.8180	0	26.406	0	135.698	0	-1e10	1	-1e10	1	-1E+10	1	-1e10	1	-1e10	1	-1E+10	1	-1E+10	1	-1E+10	1
4902624	36	C	06/16/2025	05:37	-128.275	48.623	0	137.70	0	7.5880	0	33.8192	0	26.409	0	136.491	0	98.5	4	33.7	4	-1E+10	1	0.0571	4	0.000413	0	-1E+10	1	-1E+10	1	-1E+10	1
4902624	36	C	06/16/2025	05:37	-128.275	48.623	0	138.60	0	7.5745	0	33.8205	0	26.412	0	137.383	0	98.3	4	33.7	4	-1E+10	1	0.0511	4	0.000442	0	-1E+10	1	-1E+10	1	-1E+10	1
4902624	36	C	06/16/2025	05:37	-128.275	48.623	0	138.90	0	7.5700	0	33.8210	0	26.413	0	137.680	0	-1e10	1	-1e10	1	-1E+10	1	-1e10	1	-1e10	1	-1E+10	1	-1E+10	1	-1E+10	1
4902624	36	C	06/16/2025	05:37	-128.275	48.623	0	139.50	0	7.5559	0	33.8225	0	26.416	0	138.275	0	98.2	4	33.6	4	-1E+10	1	0.0292	4	0.000383	0	-1E+10	1	-1E+10	1	-1E+10	1
4902624	36	C	06/16/2025	05:37	-128.275	48.623	0	140.40	0	7.5347	0	33.8247	0	26.421	0	139.167	0	97.9	4	33.5	4	-1E+10	1	0.0411	4	0.000537	0	-1E+10	1	-1E+10	1	-1E+10	1
4902624	36	C	06/16/2025	05:37	-128.275	48.623	0	140.90	0	7.5230	0	33.8260	0	26.423	0	139.662	0	-1e10	1	-1e10	1	-1E+10	1	-1e10	1	-1e10	1	-1E+10	1	-1E+10	1	-1E+10	1
4902624	36	C	06/16/2025	05:37	-128.275	48.623	0	141.30	0	7.5125	0	33.8283	0	26.426	0	140.058	0	97.7	4	33.4	4	-1E+10	1	0.0392	4	0.000429	0	-1E+10	1	-1E+10	1	-1E+10	1
4902624	36	C	06/16/2025	05:37	-128.275	48.623	0	142.30	0	7.4863	0	33.8340	0	26.435	0	141.049	0	97.4	4	33.3	4	-1E+10	1	0.0560	4	0.000387	0	-1E+10	1	-1E+10	1	-1E+10	1
4902624	36	C	06/16/2025	05:37	-128.275	48.623	0	143.00	0	7.4680	0	33.8380	0	26.440	0	141.743	0	-1e10	1	-1e10	1	-1E+10	1	-1e10	1	-1e10	1	-1E+10	1	-1E+10	1	-1E+10	1
4902624	36	C	06/16/2025	05:37	-128.275	48.623	0	143.20	0	7.4648	0	33.8386	0	26.441	0	141.941	0	97.2	4	33.2	4	-1E+10	1	0.0617	4	0.000381	0	-1E+10	1	-1E+10	1	-1E+10	1
4902624	36	C	06/16/2025	05:37	-128.275	48.623	0	144.10	0	7.4502	0	33.8411	0	26.445	0	142.833	0	97.0	4	33.1	4	-1E+10	1	0.0560	4	0.000371	0	-1E+10	1	-1E+10	1	-1E+10	1
4902624	36	C	06/16/2025	05:37	-128.275	48.623	0	145.10	0	7.4340	0	33.8440	0	26.450	0	143.824	0	95.1	4	32.4	4	-1E+10	1	0.0526	4	0.000414	0	-1E+10	1	-1E+10	1	-1E+10	1
4902624	36	C	06/16/2025	05:37	-128.275	48.623	0	146.10	0	7.4223	0	33.8451	0	26.453	0	144.814	0	96.5	4	32.9	4	-1E+10	1	0.0557	4	0.000470	0	-1E+10	1	-1E+10	1	-1E+10	1
4902624	36	C	06/16/2025	05:37	-128.275	48.623	0	146.90	0	7.4130	0	33.8460	0	26.455	0	145.607	0	-1e10	1	-1e10	1	-1E+10	1	-1e10	1	-1e10	1	-1E+10	1	-1E+10	1	-1E+10	1
4902624	36	C	06/16/2025	05:37	-128.275	48.623	0	147.00	0	7.4123	0	33.8462	0	26.455	0	145.706	0	96.1	4	32.8	4	-1E+10	1	0.0438	4	0.000383	0	-1E+10	1	-1E+10	1	-1E+10	1
4902624	36	C	06/16/2025	05:37	-128.275	48.623	0	148.00	0	7.4053	0	33.8479	0	26.457	0	146.697	0	95.7	4	32.6	4	-1E+10	1	0.0438	4	0.000344	0	-1E+10	1	-1E+10	1	-1E+10	1
4902624	36	C	06/16/2025	05:37	-128.275	48.623	0	149.00	0	7.3984	0	33.8497	0	26.460	0	147.688	0	95.4	4	32.5	4	-1E+10	1	0.0380	4	0.000386	0	-1E+10	1	-1E+10	1	-1E+10	1
4902624	36	C	06/16/2025	05:37	-128.275	48.623	0	149.20	0	7.3970	0	33.8500	0	26.460	0	147.886	0	-1e10	1	-1e10	1	-1E+10	1	-1e10	1	-1e10	1	-1E+10	1	-1E+10	1	-1E+10	1
4902624	36	C	06/16/2025	05:37	-128.275	48.623	0	149.90	0	7.3952	0	33.8507	0	26.461	0	148.580	0	95.0	4	32.4	4	-1E+10	1	0.0458	4	0.000463	0	-1E+10	1	-1E+10	1	-1E+10	1
4902624	36	C	06/16/2025	05:37	-128.275	48.623	0	150.80	0	7.3928	0	33.8517	0	26.462	0	149.471	0	94.7	4	32.3	4	-1E+10	1	0.0470	4	0.000455	0	-1E+10	1	-1E+10	1	-1E+10	1
4902624	36	C	06/16/2025	05:37	-128.275	48.623	0	151.10	0	7.3920	0	33.8520	0	26.462	0	149.769	0	-1e10	1	-1e10	1	-1E+10	1	-1e10	1	-1e10	1	-1E+10	1	-1E+10	1	-1E+10	1
4902624	36	C	06/16/2025	05:37	-128.275	48.623	0	151.80	0	7.3872	0	33.8538	0	26.464	0	150.462	0	94.4	4	32.2	4	-1E+10	1	0.0438	4	0.000450	0	-1E+10	1	-1E+10	1	-1E+10	1
4902624	36	C	06/16/2025	05:37	-128.275	48.623	0	152.70	0	7.3811	0	33.8562	0	26.467	0	151.354	0	94.2	4	32.1	4	-1E+10	1	0.0478	4	0.000516	0	-1E+10	1	-1E+10	1	-1E+10	1
4902624	36	C	06/16/2025	05:37	-128.275	48.623	0	153.00	0	7.3790	0	33.8570	0	26.468	0	151.651	0	-1e10	1	-1e10	1	-1E+10	1	-1e10	1	-1e10	1	-1E+10	1	-1E+10	1	-1E+10	1
4902624	36	C	06/16/2025	05:37	-128.275	48.623	0	153.50	0	7.3758	0	33.8580	0	26.469	0	152.147	0	93.9	4	32.0	4	-1E+10	1	0.0533	4	0.000520	0	-1E+10	1	-1E+10	1	-1E+10	1
4902624	36	C	06/16/2025	05:37	-128.275	48.623	0	154.40	0	7.3699	0	33.8598	0	26.472	0	153.038	0	93.6	4	31.9	4	-1E+10	1	0.0529	4	0.000416	0	-1E+10	1	-1E+10	1	-1E+10	1
4902624	36	C	06/16/2025	05:37	-128.275	48.623	0	155.00	0	7.3660	0	33.8610	0	26.473	0	153.633	0	-1e10	1	-1e10	1	-1E+10	1	-1e10	1	-1e10	1	-1E+10	1	-1E+10	1	-1E+10	1
4902624	36	C	06/16/2025	05:37	-128.275	48.623	0	155.20	0	7.3653	0	33.8613	0	26.473	0	153.831	0	93.5	4	31.9	4	-1E+10	1	0.0365	4	0.000379	0	-1E+10	1	-1E+10	1	-1E+10	1
4902624	36	C	06/16/2025	05:37	-128.275	48.623	0	156.00	0	7.3627	0	33.8624	0	26.475	0	154.624	0	93.4	4	31.8	4	-1E+10	1	0.0365	4	0.000395	0	-1E+10	1	-1E+10	1	-1E+10	1
4902624	36	C	06/16/2025	05:37	-128.275	48.623	0	156.80	0	7.3600	0	33.8636	0	26.476	0	155.416	0	93.2	4	31.7	4	-1E+10	1	0.0423	4	0.000479	0	-1E+10	1	-1E+10	1	-1E+10	1
4902624	36	C	06/16/2025	05:37	-128.275	48.623	0	157.10	0	7.3590	0	33.8640	0	26.476	0	155.714	0	-1e10	1	-1e10	1	-1E+10	1	-1e10	1	-1e10	1	-1E+10	1	-1E+10	1	-1E+10	1
4902624	36	C	06/16/2025	05:37	-128.275	48.623	0	157.80	0	7.3594	0	33.8643	0	26.477	0	156.407	0	93.0	4	31.7	4	-1E+10	1	0.0438	4	0.000459	0	-1E+10	1	-1E+10	1	-1E+10	1
4902624	36	C	06/16/2025	05:37	-128.275	48.623	0	158.70	0	7.3598	0	33.8648	0	26.477	0	157.299	0	92.9	4	31.6	4	-1E+10	1	0.0438	4	0.000402	0	-1E+10	1	-1E+10	1	-1E+10	1
4902624	36	C	06/16/2025	05:37	-128.275	48.623	0	159.10	0	7.3600	0	33.8650	0	26.477	0	157.695	0	-1e10	1	-1e10	1	-1E+10	1	-1e10	1	-1e10	1	-1E+10	1	-1E+10	1	-1E+10	1
4902624	36	C	06/16/2025	05:37	-128.275	48.623	0	159.60	0	7.3588	0	33.8650	0	26.477	0	158.191	0	92.7	4	31.6	4	-1E+10	1	0.0438	4	0.000402	0	-1E+10	1	-1E+10	1	-1E+10	1
4902624	36	C	06/16/2025	05:37	-128.275	48.623	0	160.50	0	7.3565	0	33.8650	0	26.478	0	159.082	0	92.4	4	31.5	4	-1E+10	1	0.0470	4	0.000423	0	-1E+10	1	-1E+10	1	-1E+10	1
4902624	36	C	06/16/2025	05:37	-128.275	48.623	0	161.10	0	7.3550	0	33.8650	0	26.478	0	159.677	0	-1e10	1	-1e10	1	-1E+10	1	-1e10	1	-1e10	1	-1E+10	1	-1E+10	1	-1E+10	1
4902624	36	C	06/16/2025	05:37	-128.275	48.623	0	161.40	0	7.3545	0	33.8652	0	26.478	0	159.974	0	92.2	4	31.4	4	-1E+10	1	0.0462	4	0.000426	0	-1E+10	1	-1E+10	1	-1E+10	1
4902624	36	C	06/16/2025	05:37	-128.275	48.623	0	162.40	0	7.3531	0	33.8657	0	26.479	0	160.965	0	92.0	4	31.3	4	-1E+10	1	0.0365	4	0.000414	0	-1E+10	1	-1E+10	1	-1E+10	1
4902624	36	C	06/16/2025	05:37	-128.275	48.623	0	163.10	0	7.3520	0	33.8660	0	26.479	0	161.658	0	-1e10	1	-1e10	1	-1E+10	1	-1e10	1	-1e10	1	-1E+10	1	-1E+10	1	-1E+10	1
4902624	36	C	06/16/2025	05:37	-128.275	48.623	0	163.30	0	7.3503	0	33.8663	0	26.480	0	161.856	0	91.7	4	31.2	4	-1E+10	1	0.0365	4	0.000395	0	-1E+10	1	-1E+10	1	-1E+10	1
4902624	36	C	06/16/2025	05:37	-128.275	48.623	0	164.30	0	7.3419	0	33.8679	0	26.482	0	162.847	0	91.5	4	31.2	4	-1E+10	1	0.0511	4	0.000418	0	-1E+10	1	-1E+10	1	-1E+10	1
4902624	36	C	06/16/2025	05:37	-128.275	48.623	0	165.00	0	7.3360	0	33.8690	0	26.484	0	163.541	0	-1e10	1	-1e10	1	-1E+10	1	-1e10	1	-1e10	1	-1E+10	1	-1E+10	1	-1E+10	1
4902624	36	C	06/16/2025	05:37	-128.275	48.623	0	165.20	0	7.3325	0	33.8695	0	26.485	0	163.739	0	91.2	4	31.1	4	-1E+10	1	0.0392	4	0.000466	0	-1E+10	1	-1E+10	1	-1E+10	1
4902624	36	C	06/16/2025	05:37	-128.275	48.623	0	166.20	0	7.3150	0	33.8720	0	26.489	0	164.730	0	91.0	4	31.0	4	-1E+10	1	0.0365	4	0.000414	0	-1E+10	1	-1E+10	1	-1E+10	1
4902624	36	C	06/16/2025	05:37	-128.275	48.623	0	167.00	0	7.3010	0	33.8740	0	26.493	0	165.522	0	-1e10	1	-1e10	1	-1E+10	1	-1e10	1	-1e10	1	-1E+10	1	-1E+10	1	-1E+10	1
4902624	36	C	06/16/2025	05:37	-128.275	48.623	0	167.10	0	7.3003	0	33.8741	0	26.493	0	165.621	0	90.8	4	30.9	4	-1E+10	1	0.0527	4	0.000481	0	-1E+10	1	-1E+10	1	-1E+10	1
4902624	36	C	06/16/2025	05:37	-128.275	48.623	0	168.10	0	7.2933	0	33.8751	0	26.495	0	166.612	0	90.5	4	30.8	4	-1E+10	1	0.0498	4	0.000489	0	-1E+10	1	-1E+10	1	-1E+10	1
4902624	36	C	06/16/2025	05:37	-128.275	48.623	0	169.00	0	7.2870	0	33.8760	0	26.496	0	167.504	0	88.6	4	30.2	4	-1E+10	1	0.0438	4	0.000414	0	-1E+10	1	-1E+10	1	-1E+10	1
4902624	36	C	06/16/2025	05:37	-128.275	48.623	0	169.90	0	7.2794	0	33.8773	0	26.498	0	168.395	0	89.9	4	30.6	4	-1E+10	1	0.0576	4	0.000386	0	-1E+10	1	-1E+10	1	-1E+10	1
4902624	36	C	06/16/2025	05:37	-128.275	48.623	0	170.90	0	7.2709	0	33.8789	0	26.501	0	169.386	0	89.6	4	30.5	4	-1E+10	1	0.0524	4	0.000404	0	-1E+10	1	-1E+10	1	-1E+10	1
4902624	36	C	06/16/2025	05:37	-128.275	48.623	0	171.00	0	7.2700	0	33.8790	0	26.501	0	169.485	0	-1e10	1	-1e10	1	-1E+10	1	-1e10	1	-1e10	1	-1E+10	1	-1E+10	1	-1E+10	1
4902624	36	C	06/16/2025	05:37	-128.275	48.623	0	171.80	0	7.2584	0	33.8802	0	26.503	0	170.278	0	89.3	4	30.4	4	-1E+10	1	0.0584	4	0.000395	0	-1E+10	1	-1E+10	1	-1E+10	1
4902624	36	C	06/16/2025	05:37	-128.275	48.623	0	172.70	0	7.2454	0	33.8815	0	26.506	0	171.169	0	88.9	4	30.2	4	-1E+10	1	0.0465	4	0.000471	0	-1E+10	1	-1E+10	1	-1E+10	1
4902624	36	C	06/16/2025	05:37	-128.275	48.623	0	173.00	0	7.2410	0	33.8820	0	26.507	0	171.467	0	-1e10	1	-1e10	1	-1E+10	1	-1e10	1	-1e10	1	-1E+10	1	-1E+10	1	-1E+10	1
4902624	36	C	06/16/2025	05:37	-128.275	48.623	0	173.70	0	7.2302	0	33.8830	0	26.510	0	172.160	0	88.7	4	30.1	4	-1E+10	1	0.0496	4	0.000404	0	-1E+10	1	-1E+10	1	-1E+10	1
4902624	36	C	06/16/2025	05:37	-128.275	48.623	0	174.60	0	7.2162	0	33.8844	0	26.513	0	173.052	0	88.5	4	30.1	4	-1E+10	1	0.0604	4	0.000393	0	-1E+10	1	-1E+10	1	-1E+10	1
4902624	36	C	06/16/2025	05:37	-128.275	48.623	0	175.00	0	7.2100	0	33.8850	0	26.514	0	173.448	0	-1e10	1	-1e10	1	-1E+10	1	-1e10	1	-1e10	1	-1E+10	1	-1E+10	1	-1E+10	1
4902624	36	C	06/16/2025	05:37	-128.275	48.623	0	175.50	0	7.2038	0	33.8860	0	26.516	0	173.943	0	88.2	4	30.0	4	-1E+10	1	0.0591	4	0.000386	0	-1E+10	1	-1E+10	1	-1E+10	1
4902624	36	C	06/16/2025	05:37	-128.275	48.623	0	176.50	0	7.1914	0	33.8879	0	26.519	0	174.934	0	88.0	4	29.9	4	-1E+10	1	0.0543	4	0.000418	0	-1E+10	1	-1E+10	1	-1E+10	1
4902624	36	C	06/16/2025	05:37	-128.275	48.623	0	177.10	0	7.1840	0	33.8890	0	26.521	0	175.529	0	-1e10	1	-1e10	1	-1E+10	1	-1e10	1	-1e10	1	-1E+10	1	-1E+10	1	-1E+10	1
4902624	36	C	06/16/2025	05:37	-128.275	48.623	0	177.40	0	7.1813	0	33.8898	0	26.522	0	175.826	0	88.0	4	29.9	4	-1E+10	1	0.0535	4	0.000442	0	-1E+10	1	-1E+10	1	-1E+10	1
4902624	36	C	06/16/2025	05:37	-128.275	48.623	0	178.40	0	7.1723	0	33.8923	0	26.525	0	176.816	0	87.9	4	29.8	4	-1E+10	1	0.0450	4	0.000371	0	-1E+10	1	-1E+10	1	-1E+10	1
4902624	36	C	06/16/2025	05:37	-128.275	48.623	0	179.10	0	7.1660	0	33.8940	0	26.527	0	177.510	0	-1e10	1	-1e10	1	-1E+10	1	-1e10	1	-1e10	1	-1E+10	1	-1E+10	1	-1E+10	1
4902624	36	C	06/16/2025	05:37	-128.275	48.623	0	179.40	0	7.1630	0	33.8940	0	26.528	0	177.807	0	87.7	4	29.8	4	-1E+10	1	0.0511	4	0.000371	0	-1E+10	1	-1E+10	1	-1E+10	1
4902624	36	C	06/16/2025	05:37	-128.275	48.623	0	180.30	0	7.1540	0	33.8940	0	26.529	0	178.699	0	87.4	4	29.6	4	-1E+10	1	0.0292	4	0.000430	0	-1E+10	1	-1E+10	1	-1E+10	1
4902624	36	C	06/16/2025	05:37	-128.275	48.623	0	181.00	0	7.1470	0	33.8940	0	26.530	0	179.392	0	-1e10	1	-1e10	1	-1E+10	1	-1e10	1	-1e10	1	-1E+10	1	-1E+10	1	-1E+10	1
4902624	36	C	06/16/2025	05:37	-128.275	48.623	0	181.30	0	7.1458	0	33.8940	0	26.530	0	179.689	0	87.0	4	29.5	4	-1E+10	1	0.0353	4	0.000371	0	-1E+10	1	-1E+10	1	-1E+10	1
4902624	36	C	06/16/2025	05:37	-128.275	48.623	0	182.20	0	7.1422	0	33.8940	0	26.531	0	180.581	0	86.6	4	29.4	4	-1E+10	1	0.0504	4	0.000404	0	-1E+10	1	-1E+10	1	-1E+10	1
4902624	36	C	06/16/2025	05:37	-128.275	48.623	0	183.00	0	7.1390	0	33.8940	0	26.531	0	181.374	0	-1e10	1	-1e10	1	-1E+10	1	-1e10	1	-1e10	1	-1E+10	1	-1E+10	1	-1E+10	1
4902624	36	C	06/16/2025	05:37	-128.275	48.623	0	183.20	0	7.1363	0	33.8945	0	26.532	0	181.572	0	86.2	4	29.2	4	-1E+10	1	0.0438	4	0.000422	0	-1E+10	1	-1E+10	1	-1E+10	1
4902624	36	C	06/16/2025	05:37	-128.275	48.623	0	184.10	0	7.1241	0	33.8968	0	26.535	0	182.463	0	85.7	4	29.0	4	-1E+10	1	0.0402	4	0.000400	0	-1E+10	1	-1E+10	1	-1E+10	1
4902624	36	C	06/16/2025	05:37	-128.275	48.623	0	185.00	0	7.1120	0	33.8990	0	26.539	0	183.355	0	-1e10	1	-1e10	1	-1E+10	1	-1e10	1	-1e10	1	-1E+10	1	-1E+10	1	-1E+10	1
4902624	36	C	06/16/2025	05:37	-128.275	48.623	0	185.10	0	7.1103	0	33.8991	0	26.539	0	183.454	0	85.1	4	28.8	4	-1E+10	1	0.0438	4	0.000485	0	-1E+10	1	-1E+10	1	-1E+10	1
4902624	36	C	06/16/2025	05:37	-128.275	48.623	0	186.10	0	7.0937	0	33.9006	0	26.542	0	184.445	0	84.6	4	28.7	4	-1E+10	1	0.0453	4	0.000620	0	-1E+10	1	-1E+10	1	-1E+10	1
4902624	36	C	06/16/2025	05:37	-128.275	48.623	0	187.00	0	7.0787	0	33.9019	0	26.546	0	185.336	0	84.3	4	28.6	4	-1E+10	1	0.0511	4	0.000454	0	-1E+10	1	-1E+10	1	-1E+10	1
4902624	36	C	06/16/2025	05:37	-128.275	48.623	0	187.10	0	7.0770	0	33.9020	0	26.546	0	185.435	0	-1e10	1	-1e10	1	-1E+10	1	-1e10	1	-1e10	1	-1E+10	1	-1E+10	1	-1E+10	1
4902624	36	C	06/16/2025	05:37	-128.275	48.623	0	188.00	0	7.0609	0	33.9025	0	26.548	0	186.327	0	84.1	4	28.5	4	-1E+10	1	0.0511	4	0.001521	0	-1E+10	1	-1E+10	1	-1E+10	1
4902624	36	C	06/16/2025	05:37	-128.275	48.623	0	189.00	0	7.0430	0	33.9030	0	26.551	0	187.318	0	82.4	4	27.9	4	-1E+10	1	0.0572	4	0.000553	0	-1E+10	1	-1E+10	1	-1E+10	1
4902624	36	C	06/16/2025	05:37	-128.275	48.623	0	190.00	0	7.0210	0	33.9030	0	26.554	0	188.308	0	83.5	4	28.2	4	-1E+10	1	0.0526	4	0.000444	0	-1E+10	1	-1E+10	1	-1E+10	1
4902624	36	C	06/16/2025	05:37	-128.275	48.623	0	191.00	0	6.9990	0	33.9030	0	26.557	0	189.299	0	81.7	4	27.6	4	-1E+10	1	0.0511	4	0.000402	0	-1E+10	1	-1E+10	1	-1E+10	1
4902624	36	C	06/16/2025	05:37	-128.275	48.623	0	192.00	0	6.9811	0	33.9062	0	26.562	0	190.289	0	82.8	4	28.0	4	-1E+10	1	0.0474	4	0.000383	0	-1E+10	1	-1E+10	1	-1E+10	1
4902624	36	C	06/16/2025	05:37	-128.275	48.623	0	192.90	0	6.9650	0	33.9090	0	26.567	0	191.181	0	-1e10	1	-1e10	1	-1E+10	1	-1e10	1	-1e10	1	-1E+10	1	-1E+10	1	-1E+10	1
4902624	36	C	06/16/2025	05:37	-128.275	48.623	0	193.00	0	6.9631	0	33.9090	0	26.567	0	191.280	0	82.5	4	27.9	4	-1E+10	1	0.0438	4	0.000390	0	-1E+10	1	-1E+10	1	-1E+10	1
4902624	36	C	06/16/2025	05:37	-128.275	48.623	0	194.00	0	6.9441	0	33.9090	0	26.570	0	192.271	0	82.2	4	27.7	4	-1E+10	1	0.0438	4	0.000391	0	-1E+10	1	-1E+10	1	-1E+10	1
4902624	36	C	06/16/2025	05:37	-128.275	48.623	0	194.90	0	6.9270	0	33.9090	0	26.572	0	193.162	0	-1e10	1	-1e10	1	-1E+10	1	-1e10	1	-1e10	1	-1E+10	1	-1E+10	1	-1E+10	1
4902624	36	C	06/16/2025	05:37	-128.275	48.623	0	195.00	0	6.9253	0	33.9090	0	26.572	0	193.261	0	81.7	4	27.6	4	-1E+10	1	0.0438	4	0.000392	0	-1E+10	1	-1E+10	1	-1E+10	1
4902624	36	C	06/16/2025	05:37	-128.275	48.623	0	196.10	0	6.9070	0	33.9096	0	26.575	0	194.351	0	81.2	4	27.4	4	-1E+10	1	0.0438	4	0.000312	0	-1E+10	1	-1E+10	1	-1E+10	1
4902624	36	C	06/16/2025	05:37	-128.275	48.623	0	197.00	0	6.8920	0	33.9100	0	26.577	0	195.243	0	-1e10	1	-1e10	1	-1E+10	1	-1e10	1	-1e10	1	-1E+10	1	-1E+10	1	-1E+10	1
4902624	36	C	06/16/2025	05:37	-128.275	48.623	0	197.10	0	6.8910	0	33.9101	0	26.578	0	195.342	0	80.7	4	27.2	4	-1E+10	1	0.0511	4	0.000348	0	-1E+10	1	-1E+10	1	-1E+10	1
4902624	36	C	06/16/2025	05:37	-128.275	48.623	0	198.20	0	6.8800	0	33.9117	0	26.580	0	196.431	0	80.2	4	27.0	4	-1E+10	1	0.0449	4	0.000338	0	-1E+10	1	-1E+10	1	-1E+10	1
4902624	36	C	06/16/2025	05:37	-128.275	48.623	0	199.10	0	6.8710	0	33.9130	0	26.583	0	197.323	0	-1e10	1	-1e10	1	-1E+10	1	-1e10	1	-1e10	1	-1E+10	1	-1E+10	1	-1E+10	1
4902624	36	C	06/16/2025	05:37	-128.275	48.623	0	199.30	0	6.8687	0	33.9134	0	26.583	0	197.521	0	79.9	4	26.9	4	-1E+10	1	0.0438	4	0.000328	0	-1E+10	1	-1E+10	1	-1E+10	1
4902624	36	C	06/16/2025	05:37	-128.275	48.623	0	200.40	0	6.8559	0	33.9157	0	26.587	0	198.611	0	79.6	4	26.8	4	-1E+10	1	0.0531	4	0.000376	0	-1E+10	1	-1E+10	1	-1E+10	1
4902624	36	C	06/16/2025	05:37	-128.275	48.623	0	201.00	0	6.8490	0	33.9170	0	26.589	0	199.205	0	-1e10	1	-1e10	1	-1E+10	1	-1e10	1	-1e10	1	-1E+10	1	-1E+10	1	-1E+10	1
4902624	36	C	06/16/2025	05:37	-128.275	48.623	0	201.40	0	6.8440	0	33.9180	0	26.590	0	199.601	0	79.3	4	26.7	4	-1E+10	1	0.0517	4	0.000390	0	-1E+10	1	-1E+10	1	-1E+10	1
4902624	36	C	06/16/2025	05:37	-128.275	48.623	0	202.50	0	6.8302	0	33.9207	0	26.594	0	200.691	0	79.1	4	26.6	4	-1E+10	1	0.0460	4	0.000371	0	-1E+10	1	-1E+10	1	-1E+10	1
4902624	36	C	06/16/2025	05:37	-128.275	48.623	0	203.00	0	6.8240	0	33.9220	0	26.596	0	201.186	0	-1e10	1	-1e10	1	-1E+10	1	-1e10	1	-1e10	1	-1E+10	1	-1E+10	1	-1E+10	1
4902624	36	C	06/16/2025	05:37	-128.275	48.623	0	203.70	0	6.8142	0	33.9238	0	26.599	0	201.880	0	78.9	4	26.6	4	-1E+10	1	0.0511	4	0.000377	0	-1E+10	1	-1E+10	1	-1E+10	1
4902624	36	C	06/16/2025	05:37	-128.275	48.623	0	204.80	0	6.7988	0	33.9265	0	26.603	0	202.969	0	78.8	4	26.5	4	-1E+10	1	0.0495	4	0.000397	0	-1E+10	1	-1E+10	1	-1E+10	1
4902624	36	C	06/16/2025	05:37	-128.275	48.623	0	205.00	0	6.7960	0	33.9270	0	26.604	0	203.167	0	-1e10	1	-1e10	1	-1E+10	1	-1e10	1	-1e10	1	-1E+10	1	-1E+10	1	-1E+10	1
4902624	36	C	06/16/2025	05:37	-128.275	48.623	0	205.90	0	6.7909	0	33.9274	0	26.605	0	204.059	0	78.6	4	26.4	4	-1E+10	1	0.0438	4	0.000406	0	-1E+10	1	-1E+10	1	-1E+10	1
4902624	36	C	06/16/2025	05:37	-128.275	48.623	0	207.10	0	6.7840	0	33.9280	0	26.606	0	205.247	0	77.0	4	25.9	4	-1E+10	1	0.0751	4	0.000426	0	-1E+10	1	-1E+10	1	-1E+10	1
4902624	36	C	06/16/2025	05:37	-128.275	48.623	0	208.20	0	6.7817	0	33.9286	0	26.607	0	206.337	0	78.2	4	26.3	4	-1E+10	1	0.0803	4	0.000468	0	-1E+10	1	-1E+10	1	-1E+10	1
4902624	36	C	06/16/2025	05:37	-128.275	48.623	0	209.00	0	6.7800	0	33.9290	0	26.608	0	207.130	0	-1e10	1	-1e10	1	-1E+10	1	-1e10	1	-1e10	1	-1E+10	1	-1E+10	1	-1E+10	1
4902624	36	C	06/16/2025	05:37	-128.275	48.623	0	209.40	0	6.7782	0	33.9290	0	26.608	0	207.526	0	77.9	4	26.2	4	-1E+10	1	0.0542	4	0.000418	0	-1E+10	1	-1E+10	1	-1E+10	1
4902624	36	C	06/16/2025	05:37	-128.275	48.623	0	210.50	0	6.7733	0	33.9290	0	26.609	0	208.615	0	77.7	4	26.1	4	-1E+10	1	0.0511	4	0.000394	0	-1E+10	1	-1E+10	1	-1E+10	1
4902624	36	C	06/16/2025	05:37	-128.275	48.623	0	211.00	0	6.7710	0	33.9290	0	26.609	0	209.111	0	-1e10	1	-1e10	1	-1E+10	1	-1e10	1	-1e10	1	-1E+10	1	-1E+10	1	-1E+10	1
4902624	36	C	06/16/2025	05:37	-128.275	48.623	0	211.70	0	6.7682	0	33.9294	0	26.610	0	209.804	0	77.5	4	26.1	4	-1E+10	1	0.0551	4	0.000384	0	-1E+10	1	-1E+10	1	-1E+10	1
4902624	36	C	06/16/2025	05:37	-128.275	48.623	0	212.80	0	6.7638	0	33.9299	0	26.611	0	210.894	0	77.3	4	26.0	4	-1E+10	1	0.0511	4	0.000363	0	-1E+10	1	-1E+10	1	-1E+10	1
4902624	36	C	06/16/2025	05:37	-128.275	48.623	0	213.00	0	6.7630	0	33.9300	0	26.611	0	211.092	0	-1e10	1	-1e10	1	-1E+10	1	-1e10	1	-1e10	1	-1E+10	1	-1E+10	1	-1E+10	1
4902624	36	C	06/16/2025	05:37	-128.275	48.623	0	213.90	0	6.7630	0	33.9300	0	26.611	0	211.983	0	77.2	4	26.0	4	-1E+10	1	0.0499	4	0.000347	0	-1E+10	1	-1E+10	1	-1E+10	1
4902624	36	C	06/16/2025	05:37	-128.275	48.623	0	215.00	0	6.7630	0	33.9300	0	26.611	0	213.073	0	-1e10	1	-1e10	1	-1E+10	1	-1e10	1	-1e10	1	-1E+10	1	-1E+10	1	-1E+10	1
4902624	36	C	06/16/2025	05:37	-128.275	48.623	0	215.10	0	6.7626	0	33.9301	0	26.611	0	213.172	0	77.1	4	25.9	4	-1E+10	1	0.0451	4	0.000350	0	-1E+10	1	-1E+10	1	-1E+10	1
4902624	36	C	06/16/2025	05:37	-128.275	48.623	0	216.20	0	6.7579	0	33.9306	0	26.612	0	214.261	0	77.1	4	25.9	4	-1E+10	1	0.0501	4	0.000366	0	-1E+10	1	-1E+10	1	-1E+10	1
4902624	36	C	06/16/2025	05:37	-128.275	48.623	0	216.90	0	6.7550	0	33.9310	0	26.613	0	214.955	0	-1e10	1	-1e10	1	-1E+10	1	-1e10	1	-1e10	1	-1E+10	1	-1E+10	1	-1E+10	1
4902624	36	C	06/16/2025	05:37	-128.275	48.623	0	217.40	0	6.7490	0	33.9310	0	26.614	0	215.450	0	77.0	4	25.9	4	-1E+10	1	0.0438	4	0.000406	0	-1E+10	1	-1E+10	1	-1E+10	1
4902624	36	C	06/16/2025	05:37	-128.275	48.623	0	218.60	0	6.7346	0	33.9310	0	26.615	0	216.639	0	77.0	4	25.9	4	-1E+10	1	0.0501	4	0.000406	0	-1E+10	1	-1E+10	1	-1E+10	1
4902624	36	C	06/16/2025	05:37	-128.275	48.623	0	218.90	0	6.7310	0	33.9310	0	26.616	0	216.936	0	-1e10	1	-1e10	1	-1E+10	1	-1e10	1	-1e10	1	-1E+10	1	-1E+10	1	-1E+10	1
4902624	36	C	06/16/2025	05:37	-128.275	48.623	0	219.80	0	6.7250	0	33.9310	0	26.617	0	217.827	0	76.8	4	25.8	4	-1E+10	1	0.0389	4	0.000367	0	-1E+10	1	-1E+10	1	-1E+10	1
4902624	36	C	06/16/2025	05:37	-128.275	48.623	0	221.00	0	6.7170	0	33.9310	0	26.618	0	219.016	0	75.2	4	25.3	4	-1E+10	1	0.0462	4	0.000390	0	-1E+10	1	-1E+10	1	-1E+10	1
4902624	36	C	06/16/2025	05:37	-128.275	48.623	0	222.20	0	6.7044	0	33.9316	0	26.620	0	220.204	0	76.4	4	25.7	4	-1E+10	1	0.0474	4	0.000388	0	-1E+10	1	-1E+10	1	-1E+10	1
4902624	36	C	06/16/2025	05:37	-128.275	48.623	0	223.00	0	6.6960	0	33.9320	0	26.621	0	220.997	0	-1e10	1	-1e10	1	-1E+10	1	-1e10	1	-1e10	1	-1E+10	1	-1E+10	1	-1E+10	1
4902624	36	C	06/16/2025	05:37	-128.275	48.623	0	223.40	0	6.6926	0	33.9320	0	26.622	0	221.393	0	76.2	4	25.6	4	-1E+10	1	0.0438	4	0.000371	0	-1E+10	1	-1E+10	1	-1E+10	1
4902624	36	C	06/16/2025	05:37	-128.275	48.623	0	224.60	0	6.6825	0	33.9320	0	26.623	0	222.582	0	76.0	4	25.5	4	-1E+10	1	0.0412	4	0.000350	0	-1E+10	1	-1E+10	1	-1E+10	1
4902624	36	C	06/16/2025	05:37	-128.275	48.623	0	224.90	0	6.6800	0	33.9320	0	26.624	0	222.879	0	-1e10	1	-1e10	1	-1E+10	1	-1e10	1	-1e10	1	-1E+10	1	-1E+10	1	-1E+10	1
4902624	36	C	06/16/2025	05:37	-128.275	48.623	0	225.80	0	6.6727	0	33.9324	0	26.625	0	223.770	0	75.7	4	25.4	4	-1E+10	1	0.0394	4	0.000320	0	-1E+10	1	-1E+10	1	-1E+10	1
4902624	36	C	06/16/2025	05:37	-128.275	48.623	0	227.00	0	6.6630	0	33.9330	0	26.627	0	224.959	0	74.1	4	24.9	4	-1E+10	1	0.0511	4	0.000350	0	-1E+10	1	-1E+10	1	-1E+10	1
4902624	36	C	06/16/2025	05:37	-128.275	48.623	0	228.20	0	6.6510	0	33.9330	0	26.628	0	226.147	0	75.1	4	25.2	4	-1E+10	1	0.0511	4	0.000382	0	-1E+10	1	-1E+10	1	-1E+10	1
4902624	36	C	06/16/2025	05:37	-128.275	48.623	0	229.10	0	6.6420	0	33.9330	0	26.629	0	227.039	0	-1e10	1	-1e10	1	-1E+10	1	-1e10	1	-1e10	1	-1E+10	1	-1E+10	1	-1E+10	1
4902624	36	C	06/16/2025	05:37	-128.275	48.623	0	229.40	0	6.6399	0	33.9330	0	26.630	0	227.336	0	74.8	4	25.1	4	-1E+10	1	0.0453	4	0.000336	0	-1E+10	1	-1E+10	1	-1E+10	1
4902624	36	C	06/16/2025	05:37	-128.275	48.623	0	230.70	0	6.6311	0	33.9330	0	26.631	0	228.623	0	74.4	4	24.9	4	-1E+10	1	0.0389	4	0.000332	0	-1E+10	1	-1E+10	1	-1E+10	1
4902624	36	C	06/16/2025	05:37	-128.275	48.623	0	231.00	0	6.6290	0	33.9330	0	26.631	0	228.920	0	-1e10	1	-1e10	1	-1E+10	1	-1e10	1	-1e10	1	-1E+10	1	-1E+10	1	-1E+10	1
4902624	36	C	06/16/2025	05:37	-128.275	48.623	0	231.90	0	6.6173	0	33.9339	0	26.633	0	229.812	0	74.0	4	24.8	4	-1E+10	1	0.0450	4	0.000349	0	-1E+10	1	-1E+10	1	-1E+10	1
4902624	36	C	06/16/2025	05:37	-128.275	48.623	0	233.00	0	6.6030	0	33.9350	0	26.636	0	230.901	0	-1e10	1	-1e10	1	-1E+10	1	-1e10	1	-1e10	1	-1E+10	1	-1E+10	1	-1E+10	1
4902624	36	C	06/16/2025	05:37	-128.275	48.623	0	233.10	0	6.6014	0	33.9351	0	26.637	0	231.000	0	73.6	4	24.7	4	-1E+10	1	0.0511	4	0.000354	0	-1E+10	1	-1E+10	1	-1E+10	1
4902624	36	C	06/16/2025	05:37	-128.275	48.623	0	234.30	0	6.5828	0	33.9363	0	26.640	0	232.189	0	73.2	4	24.5	4	-1E+10	1	0.0511	4	0.000361	0	-1E+10	1	-1E+10	1	-1E+10	1
4902624	36	C	06/16/2025	05:37	-128.275	48.623	0	235.00	0	6.5720	0	33.9370	0	26.642	0	232.882	0	-1e10	1	-1e10	1	-1E+10	1	-1e10	1	-1e10	1	-1E+10	1	-1E+10	1	-1E+10	1
4902624	36	C	06/16/2025	05:37	-128.275	48.623	0	235.60	0	6.5606	0	33.9376	0	26.644	0	233.476	0	72.8	4	24.4	4	-1E+10	1	0.0511	4	0.000381	0	-1E+10	1	-1E+10	1	-1E+10	1
4902624	36	C	06/16/2025	05:37	-128.275	48.623	0	236.80	0	6.5379	0	33.9389	0	26.648	0	234.665	0	72.5	4	24.2	4	-1E+10	1	0.0511	4	0.000332	0	-1E+10	1	-1E+10	1	-1E+10	1
4902624	36	C	06/16/2025	05:37	-128.275	48.623	0	236.90	0	6.5360	0	33.9390	0	26.648	0	234.764	0	-1e10	1	-1e10	1	-1E+10	1	-1e10	1	-1e10	1	-1E+10	1	-1E+10	1	-1E+10	1
4902624	36	C	06/16/2025	05:37	-128.275	48.623	0	238.00	0	6.5255	0	33.9401	0	26.651	0	235.853	0	72.1	4	24.1	4	-1E+10	1	0.0511	4	0.000312	0	-1E+10	1	-1E+10	1	-1E+10	1
4902624	36	C	06/16/2025	05:37	-128.275	48.623	0	238.90	0	6.5170	0	33.9410	0	26.652	0	236.745	0	-1e10	1	-1e10	1	-1E+10	1	-1e10	1	-1e10	1	-1E+10	1	-1E+10	1	-1E+10	1
4902624	36	C	06/16/2025	05:37	-128.275	48.623	0	239.30	0	6.5119	0	33.9418	0	26.654	0	237.141	0	71.7	4	24.0	4	-1E+10	1	0.0384	4	0.000332	0	-1E+10	1	-1E+10	1	-1E+10	1
4902624	36	C	06/16/2025	05:37	-128.275	48.623	0	240.50	0	6.4964	0	33.9440	0	26.657	0	238.329	0	71.4	4	23.9	4	-1E+10	1	0.0426	4	0.000365	0	-1E+10	1	-1E+10	1	-1E+10	1
4902624	36	C	06/16/2025	05:37	-128.275	48.623	0	241.00	0	6.4900	0	33.9450	0	26.659	0	238.825	0	-1e10	1	-1e10	1	-1E+10	1	-1e10	1	-1e10	1	-1E+10	1	-1E+10	1	-1E+10	1
4902624	36	C	06/16/2025	05:37	-128.275	48.623	0	241.70	0	6.4897	0	33.9460	0	26.660	0	239.518	0	71.2	4	23.8	4	-1E+10	1	0.0535	4	0.000394	0	-1E+10	1	-1E+10	1	-1E+10	1
4902624	36	C	06/16/2025	05:37	-128.275	48.623	0	243.00	0	6.4890	0	33.9479	0	26.661	0	240.805	0	70.9	4	23.7	4	-1E+10	1	0.0545	4	0.000406	0	-1E+10	1	-1E+10	1	-1E+10	1
4902624	36	C	06/16/2025	05:37	-128.275	48.623	0	243.10	0	6.4890	0	33.9480	0	26.662	0	240.904	0	-1e10	1	-1e10	1	-1E+10	1	-1e10	1	-1e10	1	-1E+10	1	-1E+10	1	-1E+10	1
4902624	36	C	06/16/2025	05:37	-128.275	48.623	0	244.20	0	6.4885	0	33.9486	0	26.662	0	241.994	0	70.7	4	23.6	4	-1E+10	1	0.0539	4	0.000451	0	-1E+10	1	-1E+10	1	-1E+10	1
4902624	36	C	06/16/2025	05:37	-128.275	48.623	0	245.10	0	6.4880	0	33.9490	0	26.663	0	242.885	0	-1e10	1	-1e10	1	-1E+10	1	-1e10	1	-1e10	1	-1E+10	1	-1E+10	1	-1E+10	1
4902624	36	C	06/16/2025	05:37	-128.275	48.623	0	245.40	0	6.4874	0	33.9492	0	26.663	0	243.182	0	70.5	4	23.6	4	-1E+10	1	0.0563	4	0.000516	0	-1E+10	1	-1E+10	1	-1E+10	1
4902624	36	C	06/16/2025	05:37	-128.275	48.623	0	246.60	0	6.4848	0	33.9498	0	26.664	0	244.371	0	70.3	4	23.5	4	-1E+10	1	0.0501	4	0.000498	0	-1E+10	1	-1E+10	1	-1E+10	1
4902624	36	C	06/16/2025	05:37	-128.275	48.623	0	247.00	0	6.4840	0	33.9500	0	26.664	0	244.767	0	-1e10	1	-1e10	1	-1E+10	1	-1e10	1	-1e10	1	-1E+10	1	-1E+10	1	-1E+10	1
4902624	36	C	06/16/2025	05:37	-128.275	48.623	0	247.80	0	6.4773	0	33.9496	0	26.664	0	245.559	0	70.2	4	23.5	4	-1E+10	1	0.0438	4	0.000488	0	-1E+10	1	-1E+10	1	-1E+10	1
4902624	36	C	06/16/2025	05:37	-128.275	48.623	0	248.90	0	6.4680	0	33.9490	0	26.665	0	246.649	0	-1e10	1	-1e10	1	-1E+10	1	-1e10	1	-1e10	1	-1E+10	1	-1E+10	1	-1E+10	1
4902624	36	C	06/16/2025	05:37	-128.275	48.623	0	249.00	0	6.4673	0	33.9491	0	26.665	0	246.748	0	70.1	4	23.4	4	-1E+10	1	0.0511	4	0.000464	0	-1E+10	1	-1E+10	1	-1E+10	1
4902624	36	C	06/16/2025	05:37	-128.275	48.623	0	250.20	0	6.4587	0	33.9502	0	26.667	0	247.936	0	70.0	4	23.4	4	-1E+10	1	0.0569	4	0.000371	0	-1E+10	1	-1E+10	1	-1E+10	1
4902624	36	C	06/16/2025	05:37	-128.275	48.623	0	251.00	0	6.4530	0	33.9510	0	26.669	0	248.728	0	-1e10	1	-1e10	1	-1E+10	1	-1e10	1	-1e10	1	-1E+10	1	-1E+10	1	-1E+10	1
4902624	36	C	06/16/2025	05:37	-128.275	48.623	0	251.50	0	6.4450	0	33.9512	0	26.670	0	249.224	0	69.8	4	23.3	4	-1E+10	1	0.0480	4	0.000355	0	-1E+10	1	-1E+10	1	-1E+10	1
4902624	36	C	06/16/2025	05:37	-128.275	48.623	0	252.70	0	6.4258	0	33.9519	0	26.673	0	250.412	0	69.6	4	23.2	4	-1E+10	1	0.0487	4	0.000328	0	-1E+10	1	-1E+10	1	-1E+10	1
4902624	36	C	06/16/2025	05:37	-128.275	48.623	0	253.00	0	6.4210	0	33.9520	0	26.674	0	250.709	0	-1e10	1	-1e10	1	-1E+10	1	-1e10	1	-1e10	1	-1E+10	1	-1E+10	1	-1E+10	1
4902624	36	C	06/16/2025	05:37	-128.275	48.623	0	253.90	0	6.4066	0	33.9515	0	26.675	0	251.600	0	69.3	4	23.1	4	-1E+10	1	0.0511	4	0.000331	0	-1E+10	1	-1E+10	1	-1E+10	1
4902624	36	C	06/16/2025	05:37	-128.275	48.623	0	255.00	0	6.3890	0	33.9510	0	26.677	0	252.690	0	-1e10	1	-1e10	1	-1E+10	1	-1e10	1	-1e10	1	-1E+10	1	-1E+10	1	-1E+10	1
4902624	36	C	06/16/2025	05:37	-128.275	48.623	0	255.10	0	6.3866	0	33.9511	0	26.677	0	252.789	0	69.1	4	23.0	4	-1E+10	1	0.0511	4	0.000347	0	-1E+10	1	-1E+10	1	-1E+10	1
4902624	36	C	06/16/2025	05:37	-128.275	48.623	0	256.30	0	6.3582	0	33.9517	0	26.682	0	253.977	0	69.0	4	23.0	4	-1E+10	1	0.0511	4	0.000345	0	-1E+10	1	-1E+10	1	-1E+10	1
4902624	36	C	06/16/2025	05:37	-128.275	48.623	0	256.90	0	6.3440	0	33.9520	0	26.684	0	254.571	0	-1e10	1	-1e10	1	-1E+10	1	-1e10	1	-1e10	1	-1E+10	1	-1E+10	1	-1E+10	1
4902624	36	C	06/16/2025	05:37	-128.275	48.623	0	257.60	0	6.3390	0	33.9517	0	26.684	0	255.265	0	68.7	4	22.9	4	-1E+10	1	0.0526	4	0.000328	0	-1E+10	1	-1E+10	1	-1E+10	1
4902624	36	C	06/16/2025	05:37	-128.275	48.623	0	258.80	0	6.3304	0	33.9511	0	26.685	0	256.453	0	68.4	4	22.8	4	-1E+10	1	0.0584	4	0.000300	0	-1E+10	1	-1E+10	1	-1E+10	1
4902624	36	C	06/16/2025	05:37	-128.275	48.623	0	259.00	0	6.3290	0	33.9510	0	26.685	0	256.651	0	-1e10	1	-1e10	1	-1E+10	1	-1e10	1	-1e10	1	-1E+10	1	-1E+10	1	-1E+10	1
4902624	36	C	06/16/2025	05:37	-128.275	48.623	0	260.00	0	6.3271	0	33.9510	0	26.685	0	257.641	0	68.1	4	22.7	4	-1E+10	1	0.0521	4	0.000340	0	-1E+10	1	-1E+10	1	-1E+10	1
4902624	36	C	06/16/2025	05:37	-128.275	48.623	0	261.10	0	6.3250	0	33.9510	0	26.685	0	258.731	0	-1e10	1	-1e10	1	-1E+10	1	-1e10	1	-1e10	1	-1E+10	1	-1E+10	1	-1E+10	1
4902624	36	C	06/16/2025	05:37	-128.275	48.623	0	261.20	0	6.3247	0	33.9510	0	26.685	0	258.830	0	67.8	4	22.6	4	-1E+10	1	0.0450	4	0.000406	0	-1E+10	1	-1E+10	1	-1E+10	1
4902624	36	C	06/16/2025	05:37	-128.275	48.623	0	262.40	0	6.3216	0	33.9510	0	26.686	0	260.018	0	67.4	4	22.4	4	-1E+10	1	0.0438	4	0.000527	0	-1E+10	1	-1E+10	1	-1E+10	1
4902624	36	C	06/16/2025	05:37	-128.275	48.623	0	263.00	0	6.3200	0	33.9510	0	26.686	0	260.612	0	-1e10	1	-1e10	1	-1E+10	1	-1e10	1	-1e10	1	-1E+10	1	-1E+10	1	-1E+10	1
4902624	36	C	06/16/2025	05:37	-128.275	48.623	0	263.70	0	6.3106	0	33.9514	0	26.688	0	261.305	0	67.0	4	22.3	4	-1E+10	1	0.0516	4	0.000438	0	-1E+10	1	-1E+10	1	-1E+10	1
4902624	36	C	06/16/2025	05:37	-128.275	48.623	0	264.90	0	6.2944	0	33.9520	0	26.690	0	262.494	0	66.5	4	22.1	4	-1E+10	1	0.0554	4	0.000312	0	-1E+10	1	-1E+10	1	-1E+10	1
4902624	36	C	06/16/2025	05:37	-128.275	48.623	0	265.00	0	6.2930	0	33.9520	0	26.690	0	262.593	0	-1e10	1	-1e10	1	-1E+10	1	-1e10	1	-1e10	1	-1E+10	1	-1E+10	1	-1E+10	1
4902624	36	C	06/16/2025	05:37	-128.275	48.623	0	266.10	0	6.2864	0	33.9537	0	26.693	0	263.682	0	66.2	4	22.0	4	-1E+10	1	0.0462	4	0.000308	0	-1E+10	1	-1E+10	1	-1E+10	1
4902624	36	C	06/16/2025	05:37	-128.275	48.623	0	267.00	0	6.2810	0	33.9550	0	26.694	0	264.573	0	-1e10	1	-1e10	1	-1E+10	1	-1e10	1	-1e10	1	-1E+10	1	-1E+10	1	-1E+10	1
4902624	36	C	06/16/2025	05:37	-128.275	48.623	0	267.30	0	6.2821	0	33.9555	0	26.695	0	264.870	0	65.8	4	21.9	4	-1E+10	1	0.0384	4	0.000300	0	-1E+10	1	-1E+10	1	-1E+10	1
4902624	36	C	06/16/2025	05:37	-128.275	48.623	0	268.60	0	6.2866	0	33.9574	0	26.696	0	266.158	0	65.4	4	21.8	4	-1E+10	1	0.0511	4	0.000300	0	-1E+10	1	-1E+10	1	-1E+10	1
4902624	36	C	06/16/2025	05:37	-128.275	48.623	0	269.00	0	6.2880	0	33.9580	0	26.696	0	266.554	0	-1e10	1	-1e10	1	-1E+10	1	-1e10	1	-1e10	1	-1E+10	1	-1E+10	1	-1E+10	1
4902624	36	C	06/16/2025	05:37	-128.275	48.623	0	269.80	0	6.2821	0	33.9593	0	26.698	0	267.346	0	65.1	4	21.7	4	-1E+10	1	0.0511	4	0.000312	0	-1E+10	1	-1E+10	1	-1E+10	1
4902624	36	C	06/16/2025	05:37	-128.275	48.623	0	270.90	0	6.2740	0	33.9610	0	26.700	0	268.435	0	-1e10	1	-1e10	1	-1E+10	1	-1e10	1	-1e10	1	-1E+10	1	-1E+10	1	-1E+10	1
4902624	36	C	06/16/2025	05:37	-128.275	48.623	0	271.10	0	6.2729	0	33.9611	0	26.700	0	268.633	0	64.8	4	21.6	4	-1E+10	1	0.0511	4	0.000474	0	-1E+10	1	-1E+10	1	-1E+10	1
4902624	36	C	06/16/2025	05:37	-128.275	48.623	0	272.30	0	6.2663	0	33.9617	0	26.702	0	269.822	0	64.5	4	21.5	4	-1E+10	1	0.0414	4	0.000382	0	-1E+10	1	-1E+10	1	-1E+10	1
4902624	36	C	06/16/2025	05:37	-128.275	48.623	0	272.90	0	6.2630	0	33.9620	0	26.702	0	270.416	0	-1e10	1	-1e10	1	-1E+10	1	-1e10	1	-1e10	1	-1E+10	1	-1E+10	1	-1E+10	1
4902624	36	C	06/16/2025	05:37	-128.275	48.623	0	273.50	0	6.2600	0	33.9623	0	26.703	0	271.010	0	64.3	4	21.4	4	-1E+10	1	0.0444	4	0.000298	0	-1E+10	1	-1E+10	1	-1E+10	1
4902624	36	C	06/16/2025	05:37	-128.275	48.623	0	274.80	0	6.2535	0	33.9630	0	26.704	0	272.297	0	63.9	4	21.3	4	-1E+10	1	0.0511	4	0.000276	0	-1E+10	1	-1E+10	1	-1E+10	1
4902624	36	C	06/16/2025	05:37	-128.275	48.623	0	274.90	0	6.2530	0	33.9630	0	26.704	0	272.396	0	-1e10	1	-1e10	1	-1E+10	1	-1e10	1	-1e10	1	-1E+10	1	-1E+10	1	-1E+10	1
4902624	36	C	06/16/2025	05:37	-128.275	48.623	0	276.00	0	6.2448	0	33.9641	0	26.706	0	273.486	0	63.6	4	21.1	4	-1E+10	1	0.0535	4	0.000284	0	-1E+10	1	-1E+10	1	-1E+10	1
4902624	36	C	06/16/2025	05:37	-128.275	48.623	0	276.90	0	6.2380	0	33.9650	0	26.708	0	274.377	0	-1e10	1	-1e10	1	-1E+10	1	-1e10	1	-1e10	1	-1E+10	1	-1E+10	1	-1E+10	1
4902624	36	C	06/16/2025	05:37	-128.275	48.623	0	277.30	0	6.2330	0	33.9654	0	26.709	0	274.773	0	63.3	4	21.0	4	-1E+10	1	0.0601	4	0.000322	0	-1E+10	1	-1E+10	1	-1E+10	1
4902624	36	C	06/16/2025	05:37	-128.275	48.623	0	278.50	0	6.2180	0	33.9666	0	26.712	0	275.961	0	63.0	4	20.9	4	-1E+10	1	0.0628	4	0.000378	0	-1E+10	1	-1E+10	1	-1E+10	1
4902624	36	C	06/16/2025	05:37	-128.275	48.623	0	278.90	0	6.2130	0	33.9670	0	26.713	0	276.357	0	-1e10	1	-1e10	1	-1E+10	1	-1e10	1	-1e10	1	-1E+10	1	-1E+10	1	-1E+10	1
4902624	36	C	06/16/2025	05:37	-128.275	48.623	0	279.80	0	6.2076	0	33.9674	0	26.714	0	277.248	0	62.8	4	20.9	4	-1E+10	1	0.0438	4	0.000276	0	-1E+10	1	-1E+10	1	-1E+10	1
4902624	36	C	06/16/2025	05:37	-128.275	48.623	0	280.90	0	6.2010	0	33.9680	0	26.715	0	278.338	0	-1e10	1	-1e10	1	-1E+10	1	-1e10	1	-1e10	1	-1E+10	1	-1E+10	1	-1E+10	1
4902624	36	C	06/16/2025	05:37	-128.275	48.623	0	281.10	0	6.2002	0	33.9680	0	26.715	0	278.536	0	62.5	4	20.8	4	-1E+10	1	0.0438	4	0.000287	0	-1E+10	1	-1E+10	1	-1E+10	1
4902624	36	C	06/16/2025	05:37	-128.275	48.623	0	282.30	0	6.1957	0	33.9680	0	26.716	0	279.724	0	62.2	4	20.6	4	-1E+10	1	0.0606	4	0.000270	0	-1E+10	1	-1E+10	1	-1E+10	1
4902624	36	C	06/16/2025	05:37	-128.275	48.623	0	283.00	0	6.1930	0	33.9680	0	26.716	0	280.417	0	-1e10	1	-1e10	1	-1E+10	1	-1e10	1	-1e10	1	-1E+10	1	-1E+10	1	-1E+10	1
4902624	36	C	06/16/2025	05:37	-128.275	48.623	0	283.60	0	6.1911	0	33.9680	0	26.716	0	281.011	0	61.9	4	20.5	4	-1E+10	1	0.0560	4	0.000257	0	-1E+10	1	-1E+10	1	-1E+10	1
4902624	36	C	06/16/2025	05:37	-128.275	48.623	0	284.80	0	6.1873	0	33.9680	0	26.717	0	282.199	0	61.5	4	20.4	4	-1E+10	1	0.0545	4	0.000264	0	-1E+10	1	-1E+10	1	-1E+10	1
4902624	36	C	06/16/2025	05:37	-128.275	48.623	0	284.90	0	6.1870	0	33.9680	0	26.717	0	282.298	0	-1e10	1	-1e10	1	-1E+10	1	-1e10	1	-1e10	1	-1E+10	1	-1E+10	1	-1E+10	1
4902624	36	C	06/16/2025	05:37	-128.275	48.623	0	286.10	0	6.1780	0	33.9698	0	26.719	0	283.487	0	61.2	4	20.3	4	-1E+10	1	0.0554	4	0.000325	0	-1E+10	1	-1E+10	1	-1E+10	1
4902624	36	C	06/16/2025	05:37	-128.275	48.623	0	286.90	0	6.1720	0	33.9710	0	26.721	0	284.279	0	-1e10	1	-1e10	1	-1E+10	1	-1e10	1	-1e10	1	-1E+10	1	-1E+10	1	-1E+10	1
4902624	36	C	06/16/2025	05:37	-128.275	48.623	0	287.30	0	6.1678	0	33.9712	0	26.722	0	284.675	0	60.8	4	20.2	4	-1E+10	1	0.0535	4	0.000448	0	-1E+10	1	-1E+10	1	-1E+10	1
4902624	36	C	06/16/2025	05:37	-128.275	48.623	0	288.60	0	6.1542	0	33.9719	0	26.724	0	285.962	0	60.4	4	20.1	4	-1E+10	1	0.0555	4	0.000513	0	-1E+10	1	-1E+10	1	-1E+10	1
4902624	36	C	06/16/2025	05:37	-128.275	48.623	0	288.90	0	6.1510	0	33.9720	0	26.725	0	286.259	0	-1e10	1	-1e10	1	-1E+10	1	-1e10	1	-1e10	1	-1E+10	1	-1E+10	1	-1E+10	1
4902624	36	C	06/16/2025	05:37	-128.275	48.623	0	289.80	0	6.1441	0	33.9724	0	26.726	0	287.150	0	60.1	4	19.9	4	-1E+10	1	0.0438	4	0.000335	0	-1E+10	1	-1E+10	1	-1E+10	1
4902624	36	C	06/16/2025	05:37	-128.275	48.623	0	291.00	0	6.1350	0	33.9730	0	26.727	0	288.339	0	58.5	4	19.4	4	-1E+10	1	0.0511	4	0.000279	0	-1E+10	1	-1E+10	1	-1E+10	1
4902624	36	C	06/16/2025	05:37	-128.275	48.623	0	292.20	0	6.1230	0	33.9736	0	26.729	0	289.527	0	59.2	4	19.6	4	-1E+10	1	0.0511	4	0.000277	0	-1E+10	1	-1E+10	1	-1E+10	1
4902624	36	C	06/16/2025	05:37	-128.275	48.623	0	293.10	0	6.1140	0	33.9740	0	26.731	0	290.418	0	-1e10	1	-1e10	1	-1E+10	1	-1e10	1	-1e10	1	-1E+10	1	-1E+10	1	-1E+10	1
4902624	36	C	06/16/2025	05:37	-128.275	48.623	0	293.50	0	6.1132	0	33.9744	0	26.731	0	290.814	0	58.7	4	19.5	4	-1E+10	1	0.0563	4	0.000285	0	-1E+10	1	-1E+10	1	-1E+10	1
4902624	36	C	06/16/2025	05:37	-128.275	48.623	0	294.70	0	6.1108	0	33.9756	0	26.733	0	292.002	0	58.2	4	19.3	4	-1E+10	1	0.0539	4	0.000360	0	-1E+10	1	-1E+10	1	-1E+10	1
4902624	36	C	06/16/2025	05:37	-128.275	48.623	0	295.10	0	6.1100	0	33.9760	0	26.733	0	292.398	0	-1e10	1	-1e10	1	-1E+10	1	-1e10	1	-1e10	1	-1E+10	1	-1E+10	1	-1E+10	1
4902624	36	C	06/16/2025	05:37	-128.275	48.623	0	295.90	0	6.1020	0	33.9768	0	26.735	0	293.190	0	57.7	4	19.1	4	-1E+10	1	0.0511	4	0.000373	0	-1E+10	1	-1E+10	1	-1E+10	1
4902624	36	C	06/16/2025	05:37	-128.275	48.623	0	297.00	0	6.0910	0	33.9780	0	26.737	0	294.279	0	-1e10	1	-1e10	1	-1E+10	1	-1e10	1	-1e10	1	-1E+10	1	-1E+10	1	-1E+10	1
4902624	36	C	06/16/2025	05:37	-128.275	48.623	0	297.10	0	6.0902	0	33.9781	0	26.737	0	294.378	0	57.2	4	18.9	4	-1E+10	1	0.0511	4	0.000339	0	-1E+10	1	-1E+10	1	-1E+10	1
4902624	36	C	06/16/2025	05:37	-128.275	48.623	0	298.30	0	6.0807	0	33.9794	0	26.739	0	295.567	0	56.7	4	18.8	4	-1E+10	1	0.0541	4	0.000381	0	-1E+10	1	-1E+10	1	-1E+10	1
4902624	36	C	06/16/2025	05:37	-128.275	48.623	0	298.90	0	6.0760	0	33.9800	0	26.740	0	296.161	0	-1e10	1	-1e10	1	-1E+10	1	-1e10	1	-1e10	1	-1E+10	1	-1E+10	1	-1E+10	1
4902624	36	C	06/16/2025	05:37	-128.275	48.623	0	299.50	0	6.0710	0	33.9806	0	26.742	0	296.755	0	56.3	4	18.6	4	-1E+10	1	0.0580	4	0.000431	0	-1E+10	1	-1E+10	1	-1E+10	1
4902624	36	C	06/16/2025	05:37	-128.275	48.623	0	305.10	0	6.0240	0	33.9860	0	26.752	0	302.299	0	-1e10	1	-1e10	1	-1E+10	1	-1e10	1	-1e10	1	-1E+10	1	-1E+10	1	-1E+10	1
4902624	36	C	06/16/2025	05:37	-128.275	48.623	0	308.40	0	6.0058	0	33.9880	0	26.756	0	305.567	0	55.0	4	18.2	4	-1E+10	1	0.0508	4	0.000475	0	-1E+10	1	-1E+10	1	-1E+10	1
4902624	36	C	06/16/2025	05:37	-128.275	48.623	0	315.10	0	5.9690	0	33.9920	0	26.764	0	312.200	0	-1e10	1	-1e10	1	-1E+10	1	-1e10	1	-1e10	1	-1E+10	1	-1E+10	1	-1E+10	1
4902624	36	C	06/16/2025	05:37	-128.275	48.623	0	316.70	0	5.9591	0	33.9930	0	26.766	0	313.784	0	53.2	4	17.6	4	-1E+10	1	0.0441	4	0.000457	0	-1E+10	1	-1E+10	1	-1E+10	1
4902624	36	C	06/16/2025	05:37	-128.275	48.623	0	325.00	0	5.9080	0	33.9980	0	26.776	0	322.001	0	-1e10	1	-1e10	1	-1E+10	1	-1e10	1	-1e10	1	-1E+10	1	-1E+10	1	-1E+10	1
4902624	36	C	06/16/2025	05:37	-128.275	48.623	0	325.60	0	5.9045	0	33.9984	0	26.777	0	322.595	0	51.4	4	17.0	4	-1E+10	1	0.0517	4	0.000559	0	-1E+10	1	-1E+10	1	-1E+10	1
4902624	36	C	06/16/2025	05:37	-128.275	48.623	0	335.00	0	5.8490	0	34.0040	0	26.788	0	331.901	0	-1e10	1	-1e10	1	-1E+10	1	-1e10	1	-1e10	1	-1E+10	1	-1E+10	1	-1E+10	1
4902624	36	C	06/16/2025	05:37	-128.275	48.623	0	335.10	0	5.8484	0	34.0041	0	26.788	0	332.000	0	49.7	4	16.4	4	-1E+10	1	0.0648	4	0.000579	0	-1E+10	1	-1E+10	1	-1E+10	1
4902624	36	C	06/16/2025	05:37	-128.275	48.623	0	344.90	0	5.7920	0	34.0100	0	26.800	0	341.701	0	-1e10	1	-1e10	1	-1E+10	1	-1e10	1	-1e10	1	-1E+10	1	-1E+10	1	-1E+10	1
4902624	36	C	06/16/2025	05:37	-128.275	48.623	0	345.20	0	5.7909	0	34.0101	0	26.800	0	341.998	0	48.4	4	15.9	4	-1E+10	1	0.0444	4	0.000522	0	-1E+10	1	-1E+10	1	-1E+10	1
4902624	36	C	06/16/2025	05:37	-128.275	48.623	0	354.90	0	5.7540	0	34.0150	0	26.809	0	351.600	0	-1e10	1	-1e10	1	-1E+10	1	-1e10	1	-1e10	1	-1E+10	1	-1E+10	1	-1E+10	1
4902624	36	C	06/16/2025	05:37	-128.275	48.623	0	355.60	0	5.7492	0	34.0153	0	26.810	0	352.293	0	46.9	4	15.4	4	-1E+10	1	0.0581	4	0.000508	0	-1E+10	1	-1E+10	1	-1E+10	1
4902624	36	C	06/16/2025	05:37	-128.275	48.623	0	365.20	0	5.6840	0	34.0190	0	26.821	0	361.795	0	-1e10	1	-1e10	1	-1E+10	1	-1e10	1	-1e10	1	-1E+10	1	-1E+10	1	-1E+10	1
4902624	36	C	06/16/2025	05:37	-128.275	48.623	0	365.70	0	5.6811	0	34.0194	0	26.821	0	362.290	0	45.4	4	14.9	4	-1E+10	1	0.0517	4	0.000443	0	-1E+10	1	-1E+10	1	-1E+10	1
4902624	36	C	06/16/2025	05:37	-128.275	48.623	0	375.20	0	5.6260	0	34.0260	0	26.833	0	371.693	0	-1e10	1	-1e10	1	-1E+10	1	-1e10	1	-1e10	1	-1E+10	1	-1E+10	1	-1E+10	1
4902624	36	C	06/16/2025	05:37	-128.275	48.623	0	375.50	0	5.6242	0	34.0262	0	26.834	0	371.990	0	43.6	4	14.3	4	-1E+10	1	0.0654	4	0.000524	0	-1E+10	1	-1E+10	1	-1E+10	1
4902624	36	C	06/16/2025	05:37	-128.275	48.623	0	385.30	0	5.5670	0	34.0330	0	26.846	0	381.689	0	-1e10	1	-1e10	1	-1E+10	1	-1e10	1	-1e10	1	-1E+10	1	-1E+10	1	-1E+10	1
4902624	36	C	06/16/2025	05:37	-128.275	48.623	0	385.60	0	5.5657	0	34.0332	0	26.846	0	381.986	0	41.6	4	13.6	4	-1E+10	1	0.0581	4	0.000847	0	-1E+10	1	-1E+10	1	-1E+10	1
4902624	36	C	06/16/2025	05:37	-128.275	48.623	0	395.30	0	5.5230	0	34.0410	0	26.858	0	391.586	0	-1e10	1	-1e10	1	-1E+10	1	-1e10	1	-1e10	1	-1E+10	1	-1E+10	1	-1E+10	1
4902624	36	C	06/16/2025	05:37	-128.275	48.623	0	395.50	0	5.5225	0	34.0411	0	26.858	0	391.784	0	39.9	4	13.1	4	-1E+10	1	0.0508	4	0.000488	0	-1E+10	1	-1E+10	1	-1E+10	1
4902624	36	C	06/16/2025	05:37	-128.275	48.623	0	405.00	0	5.4990	0	34.0470	0	26.865	0	401.186	0	-1e10	1	-1e10	1	-1E+10	1	-1e10	1	-1e10	1	-1E+10	1	-1E+10	1	-1E+10	1
4902624	36	C	06/16/2025	05:37	-128.275	48.623	0	405.50	0	5.4966	0	34.0473	0	26.866	0	401.680	0	38.6	4	12.6	4	-1E+10	1	0.0441	4	0.000507	0	-1E+10	1	-1E+10	1	-1E+10	1
4902624	36	C	06/16/2025	05:37	-128.275	48.623	0	414.90	0	5.4510	0	34.0530	0	26.876	0	410.983	0	-1e10	1	-1e10	1	-1E+10	1	-1e10	1	-1e10	1	-1E+10	1	-1E+10	1	-1E+10	1
4902624	36	C	06/16/2025	05:37	-128.275	48.623	0	415.90	0	5.4440	0	34.0540	0	26.878	0	411.972	0	36.7	4	12.0	4	-1E+10	1	0.0514	4	0.000428	0	-1E+10	1	-1E+10	1	-1E+10	1
4902624	36	C	06/16/2025	05:37	-128.275	48.623	0	424.80	0	5.3820	0	34.0630	0	26.892	0	420.779	0	-1e10	1	-1e10	1	-1E+10	1	-1e10	1	-1e10	1	-1E+10	1	-1E+10	1	-1E+10	1
4902624	36	C	06/16/2025	05:37	-128.275	48.623	0	426.40	0	5.3717	0	34.0635	0	26.894	0	422.362	0	35.2	4	11.5	4	-1E+10	1	0.0584	4	0.000423	0	-1E+10	1	-1E+10	1	-1E+10	1
4902624	36	C	06/16/2025	05:37	-128.275	48.623	0	434.60	0	5.3190	0	34.0660	0	26.902	0	430.476	0	-1e10	1	-1e10	1	-1E+10	1	-1e10	1	-1e10	1	-1E+10	1	-1E+10	1	-1E+10	1
4902624	36	C	06/16/2025	05:37	-128.275	48.623	0	437.20	0	5.3021	0	34.0665	0	26.904	0	433.049	0	34.4	4	11.2	4	-1E+10	1	0.0581	4	0.000309	0	-1E+10	1	-1E+10	1	-1E+10	1
4902624	36	C	06/16/2025	05:37	-128.275	48.623	0	444.90	0	5.2520	0	34.0680	0	26.911	0	440.667	0	-1e10	1	-1e10	1	-1E+10	1	-1e10	1	-1e10	1	-1E+10	1	-1E+10	1	-1E+10	1
4902624	36	C	06/16/2025	05:37	-128.275	48.623	0	448.10	0	5.2391	0	34.0696	0	26.914	0	443.834	0	33.2	4	10.8	4	-1E+10	1	0.0514	4	0.000276	0	-1E+10	1	-1E+10	1	-1E+10	1
4902624	36	C	06/16/2025	05:37	-128.275	48.623	0	455.10	0	5.2110	0	34.0730	0	26.920	0	450.759	0	-1e10	1	-1e10	1	-1E+10	1	-1e10	1	-1e10	1	-1E+10	1	-1E+10	1	-1E+10	1
4902624	36	C	06/16/2025	05:37	-128.275	48.623	0	458.80	0	5.1784	0	34.0737	0	26.925	0	454.420	0	32.1	4	10.4	4	-1E+10	1	0.0579	4	0.000309	0	-1E+10	1	-1E+10	1	-1E+10	1
4902624	36	C	06/16/2025	05:37	-128.275	48.623	0	465.20	0	5.1220	0	34.0750	0	26.932	0	460.752	0	-1e10	1	-1e10	1	-1E+10	1	-1e10	1	-1e10	1	-1E+10	1	-1E+10	1	-1E+10	1
4902624	36	C	06/16/2025	05:37	-128.275	48.623	0	469.80	0	5.0935	0	34.0745	0	26.935	0	465.303	0	31.6	4	10.2	4	-1E+10	1	0.0438	4	0.000275	0	-1E+10	1	-1E+10	1	-1E+10	1
4902624	36	C	06/16/2025	05:37	-128.275	48.623	0	474.90	0	5.0620	0	34.0740	0	26.938	0	470.348	0	-1e10	1	-1e10	1	-1E+10	1	-1e10	1	-1e10	1	-1E+10	1	-1E+10	1	-1E+10	1
4902624	36	C	06/16/2025	05:37	-128.275	48.623	0	480.90	0	5.0444	0	34.0752	0	26.941	0	476.284	0	30.5	4	9.9	4	-1E+10	1	0.0438	4	0.000274	0	-1E+10	1	-1E+10	1	-1E+10	1
4902624	36	C	06/16/2025	05:37	-128.275	48.623	0	484.80	0	5.0330	0	34.0760	0	26.943	0	480.142	0	-1e10	1	-1e10	1	-1E+10	1	-1e10	1	-1e10	1	-1E+10	1	-1E+10	1	-1E+10	1
4902624	36	C	06/16/2025	05:37	-128.275	48.623	0	492.60	0	4.9973	0	34.0805	0	26.951	0	487.858	0	28.9	4	9.3	4	-1E+10	1	0.0438	4	0.000250	0	-1E+10	1	-1E+10	1	-1E+10	1
4902624	36	C	06/16/2025	05:37	-128.275	48.623	0	495.30	0	4.9850	0	34.0820	0	26.954	0	490.528	0	-1e10	1	-1e10	1	-1E+10	1	-1e10	1	-1e10	1	-1E+10	1	-1E+10	1	-1E+10	1
4902624	36	C	06/16/2025	05:37	-128.275	48.623	0	502.00	0	4.9647	0	34.0894	0	26.962	0	497.156	0	27.5	4	8.9	4	-1E+10	1	0.0441	4	0.000238	0	-1E+10	1	-1E+10	1	-1E+10	1
4902624	36	C	06/16/2025	05:37	-128.275	48.623	0	505.20	0	4.9550	0	34.0930	0	26.966	0	500.321	0	-1e10	1	-1e10	1	-1E+10	1	-1e10	1	-1e10	1	-1E+10	1	-1E+10	1	-1E+10	1
4902624	36	C	06/16/2025	05:37	-128.275	48.623	0	509.90	0	4.9430	0	34.0959	0	26.970	0	504.970	0	26.5	4	8.5	4	-1E+10	1	0.0511	4	0.000205	0	-1E+10	1	-1E+10	1	-1E+10	1
4902624	36	C	06/16/2025	05:37	-128.275	48.623	0	515.00	0	4.9300	0	34.0990	0	26.974	0	510.015	0	-1e10	1	-1e10	1	-1E+10	1	-1e10	1	-1e10	1	-1E+10	1	-1E+10	1	-1E+10	1
4902624	36	C	06/16/2025	05:37	-128.275	48.623	0	518.00	0	4.9177	0	34.1011	0	26.977	0	512.982	0	25.5	4	8.2	4	-1E+10	1	0.0511	4	0.000239	0	-1E+10	1	-1E+10	1	-1E+10	1
4902624	36	C	06/16/2025	05:37	-128.275	48.623	0	525.00	0	4.8890	0	34.1060	0	26.984	0	519.905	0	-1e10	1	-1e10	1	-1E+10	1	-1e10	1	-1e10	1	-1E+10	1	-1E+10	1	-1E+10	1
4902624	36	C	06/16/2025	05:37	-128.275	48.623	0	526.20	0	4.8871	0	34.1070	0	26.985	0	521.092	0	24.3	4	7.8	4	-1E+10	1	0.0508	4	0.000231	0	-1E+10	1	-1E+10	1	-1E+10	1
4902624	36	C	06/16/2025	05:37	-128.275	48.623	0	534.60	0	4.8736	0	34.1137	0	26.992	0	529.400	0	23.5	4	7.6	4	-1E+10	1	0.0443	4	0.000321	0	-1E+10	1	-1E+10	1	-1E+10	1
4902624	36	C	06/16/2025	05:37	-128.275	48.623	0	535.00	0	4.8730	0	34.1140	0	26.992	0	529.795	0	-1e10	1	-1e10	1	-1E+10	1	-1e10	1	-1e10	1	-1E+10	1	-1E+10	1	-1E+10	1
4902624	36	C	06/16/2025	05:37	-128.275	48.623	0	543.00	0	4.8769	0	34.1234	0	26.999	0	537.707	0	22.6	4	7.3	4	-1E+10	1	0.0584	4	0.000313	0	-1E+10	1	-1E+10	1	-1E+10	1
4902624	36	C	06/16/2025	05:37	-128.275	48.623	0	545.20	0	4.8780	0	34.1260	0	27.001	0	539.883	0	-1e10	1	-1e10	1	-1E+10	1	-1e10	1	-1e10	1	-1E+10	1	-1E+10	1	-1E+10	1
4902624	36	C	06/16/2025	05:37	-128.275	48.623	0	551.60	0	4.8799	0	34.1312	0	27.005	0	546.212	0	22.0	4	7.1	4	-1E+10	1	0.0584	4	0.000405	0	-1E+10	1	-1E+10	1	-1E+10	1
4902624	36	C	06/16/2025	05:37	-128.275	48.623	0	555.10	0	4.8810	0	34.1340	0	27.007	0	549.673	0	-1e10	1	-1e10	1	-1E+10	1	-1e10	1	-1e10	1	-1E+10	1	-1E+10	1	-1E+10	1
4902624	36	C	06/16/2025	05:37	-128.275	48.623	0	560.30	0	4.8736	0	34.1345	0	27.009	0	554.816	0	21.4	4	6.9	4	-1E+10	1	0.0587	4	0.000446	0	-1E+10	1	-1E+10	1	-1E+10	1
4902624	36	C	06/16/2025	05:37	-128.275	48.623	0	565.00	0	4.8670	0	34.1350	0	27.010	0	559.463	0	-1e10	1	-1e10	1	-1E+10	1	-1e10	1	-1e10	1	-1E+10	1	-1E+10	1	-1E+10	1
4902624	36	C	06/16/2025	05:37	-128.275	48.623	0	569.00	0	4.8470	0	34.1366	0	27.013	0	563.419	0	20.3	4	6.5	4	-1E+10	1	0.0650	4	0.000349	0	-1E+10	1	-1E+10	1	-1E+10	1
4902624	36	C	06/16/2025	05:37	-128.275	48.623	0	575.00	0	4.8170	0	34.1390	0	27.019	0	569.352	0	-1e10	1	-1e10	1	-1E+10	1	-1e10	1	-1e10	1	-1E+10	1	-1E+10	1	-1E+10	1
4902624	36	C	06/16/2025	05:37	-128.275	48.623	0	577.90	0	4.7955	0	34.1404	0	27.022	0	572.219	0	19.1	4	6.1	4	-1E+10	1	0.0514	4	0.000203	0	-1E+10	1	-1E+10	1	-1E+10	1
4902624	36	C	06/16/2025	05:37	-128.275	48.623	0	585.10	0	4.7420	0	34.1440	0	27.031	0	579.338	0	-1e10	1	-1e10	1	-1E+10	1	-1e10	1	-1e10	1	-1E+10	1	-1E+10	1	-1E+10	1
4902624	36	C	06/16/2025	05:37	-128.275	48.623	0	587.10	0	4.7434	0	34.1476	0	27.034	0	581.316	0	17.7	4	5.7	4	-1E+10	1	0.0578	4	0.000192	0	-1E+10	1	-1E+10	1	-1E+10	1
4902624	36	C	06/16/2025	05:37	-128.275	48.623	0	595.20	0	4.7490	0	34.1620	0	27.045	0	589.325	0	-1e10	1	-1e10	1	-1E+10	1	-1e10	1	-1e10	1	-1E+10	1	-1E+10	1	-1E+10	1
4902624	36	C	06/16/2025	05:37	-128.275	48.623	0	596.40	0	4.7456	0	34.1633	0	27.046	0	590.511	0	16.5	4	5.3	4	-1E+10	1	0.0441	4	0.000202	0	-1E+10	1	-1E+10	1	-1E+10	1
4902624	36	C	06/16/2025	05:37	-128.275	48.623	0	605.10	0	4.7210	0	34.1730	0	27.056	0	599.113	0	-1e10	1	-1e10	1	-1E+10	1	-1e10	1	-1e10	1	-1E+10	1	-1E+10	1	-1E+10	1
4902624	36	C	06/16/2025	05:37	-128.275	48.623	0	605.90	0	4.7178	0	34.1732	0	27.057	0	599.904	0	15.7	4	5.0	4	-1E+10	1	0.0514	4	0.000180	0	-1E+10	1	-1E+10	1	-1E+10	1
4902624	36	C	06/16/2025	05:37	-128.275	48.623	0	615.20	0	4.6810	0	34.1760	0	27.063	0	609.098	0	-1e10	1	-1e10	1	-1E+10	1	-1e10	1	-1e10	1	-1E+10	1	-1E+10	1	-1E+10	1
4902624	36	C	06/16/2025	05:37	-128.275	48.623	0	615.70	0	4.6779	0	34.1762	0	27.064	0	609.592	0	15.3	4	4.9	4	-1E+10	1	0.0587	4	0.000181	0	-1E+10	1	-1E+10	1	-1E+10	1
4902624	36	C	06/16/2025	05:37	-128.275	48.623	0	625.00	0	4.6210	0	34.1790	0	27.072	0	618.786	0	-1e10	1	-1e10	1	-1E+10	1	-1e10	1	-1e10	1	-1E+10	1	-1E+10	1	-1E+10	1
4902624	36	C	06/16/2025	05:37	-128.275	48.623	0	625.80	0	4.6130	0	34.1794	0	27.074	0	619.577	0	14.8	4	4.7	4	-1E+10	1	0.0654	4	0.000214	0	-1E+10	1	-1E+10	1	-1E+10	1
4902624	36	C	06/16/2025	05:37	-128.275	48.623	0	634.80	0	4.5230	0	34.1840	0	27.087	0	628.474	0	-1e10	1	-1e10	1	-1E+10	1	-1e10	1	-1e10	1	-1E+10	1	-1E+10	1	-1E+10	1
4902624	36	C	06/16/2025	05:37	-128.275	48.623	0	635.90	0	4.5192	0	34.1849	0	27.088	0	629.561	0	14.3	4	4.6	4	-1E+10	1	0.0590	4	0.000204	0	-1E+10	1	-1E+10	1	-1E+10	1
4902624	36	C	06/16/2025	05:37	-128.275	48.623	0	644.90	0	4.4880	0	34.1920	0	27.097	0	638.458	0	-1e10	1	-1e10	1	-1E+10	1	-1e10	1	-1e10	1	-1E+10	1	-1E+10	1	-1E+10	1
4902624	36	C	06/16/2025	05:37	-128.275	48.623	0	646.30	0	4.4845	0	34.1931	0	27.099	0	639.842	0	13.6	4	4.3	4	-1E+10	1	0.0727	4	0.000237	0	-1E+10	1	-1E+10	1	-1E+10	1
4902624	36	C	06/16/2025	05:37	-128.275	48.623	0	655.00	0	4.4630	0	34.2000	0	27.106	0	648.441	0	-1e10	1	-1e10	1	-1E+10	1	-1e10	1	-1e10	1	-1E+10	1	-1E+10	1	-1E+10	1
4902624	36	C	06/16/2025	05:37	-128.275	48.623	0	657.00	0	4.4589	0	34.2012	0	27.108	0	650.418	0	12.9	4	4.1	4	-1E+10	1	0.0657	4	0.000203	0	-1E+10	1	-1E+10	1	-1E+10	1
4902624	36	C	06/16/2025	05:37	-128.275	48.623	0	665.20	0	4.4420	0	34.2060	0	27.113	0	658.523	0	-1e10	1	-1e10	1	-1E+10	1	-1e10	1	-1e10	1	-1E+10	1	-1E+10	1	-1E+10	1
4902624	36	C	06/16/2025	05:37	-128.275	48.623	0	667.80	0	4.4354	0	34.2071	0	27.115	0	661.093	0	12.5	4	4.0	4	-1E+10	1	0.0657	4	0.000215	0	-1E+10	1	-1E+10	1	-1E+10	1
4902624	36	C	06/16/2025	05:37	-128.275	48.623	0	675.10	0	4.4170	0	34.2100	0	27.119	0	668.308	0	-1e10	1	-1e10	1	-1E+10	1	-1e10	1	-1e10	1	-1E+10	1	-1E+10	1	-1E+10	1
4902624	36	C	06/16/2025	05:37	-128.275	48.623	0	678.80	0	4.4035	0	34.2126	0	27.123	0	671.964	0	12.2	4	3.9	4	-1E+10	1	0.0650	4	0.000228	0	-1E+10	1	-1E+10	1	-1E+10	1
4902624	36	C	06/16/2025	05:37	-128.275	48.623	0	685.00	0	4.3810	0	34.2170	0	27.129	0	678.092	0	-1e10	1	-1e10	1	-1E+10	1	-1e10	1	-1e10	1	-1E+10	1	-1E+10	1	-1E+10	1
4902624	36	C	06/16/2025	05:37	-128.275	48.623	0	689.90	0	4.3600	0	34.2200	0	27.134	0	682.935	0	11.7	4	3.7	4	-1E+10	1	0.0514	4	0.000270	0	-1E+10	1	-1E+10	1	-1E+10	1
4902624	36	C	06/16/2025	05:37	-128.275	48.623	0	694.80	0	4.3390	0	34.2230	0	27.138	0	687.777	0	-1e10	1	-1e10	1	-1E+10	1	-1e10	1	-1e10	1	-1E+10	1	-1E+10	1	-1E+10	1
4902624	36	C	06/16/2025	05:37	-128.275	48.623	0	701.10	0	4.3270	0	34.2255	0	27.142	0	694.003	0	11.3	4	3.6	4	-1E+10	1	0.0587	4	0.000202	0	-1E+10	1	-1E+10	1	-1E+10	1
4902624	36	C	06/16/2025	05:37	-128.275	48.623	0	704.80	0	4.3200	0	34.2270	0	27.143	0	697.659	0	-1e10	1	-1e10	1	-1E+10	1	-1e10	1	-1e10	1	-1E+10	1	-1E+10	1	-1E+10	1
4902624	36	C	06/16/2025	05:37	-128.275	48.623	0	712.40	0	4.2793	0	34.2309	0	27.151	0	705.169	0	10.7	4	3.4	4	-1E+10	1	0.0654	4	0.000193	0	-1E+10	1	-1E+10	1	-1E+10	1
4902624	36	C	06/16/2025	05:37	-128.275	48.623	0	714.50	0	4.2680	0	34.2320	0	27.153	0	707.244	0	-1e10	1	-1e10	1	-1E+10	1	-1e10	1	-1e10	1	-1E+10	1	-1E+10	1	-1E+10	1
4902624	36	C	06/16/2025	05:37	-128.275	48.623	0	724.00	0	4.3122	0	34.2508	0	27.163	0	716.632	0	9.8	4	3.1	4	-1E+10	1	0.0584	4	0.000271	0	-1E+10	1	-1E+10	1	-1E+10	1
4902624	36	C	06/16/2025	05:37	-128.275	48.623	0	724.60	0	4.3150	0	34.2520	0	27.164	0	717.225	0	-1e10	1	-1e10	1	-1E+10	1	-1e10	1	-1e10	1	-1E+10	1	-1E+10	1	-1E+10	1
4902624	36	C	06/16/2025	05:37	-128.275	48.623	0	735.00	0	4.3080	0	34.2570	0	27.169	0	727.501	0	-1e10	1	-1e10	1	-1E+10	1	-1e10	1	-1e10	1	-1E+10	1	-1E+10	1	-1E+10	1
4902624	36	C	06/16/2025	05:37	-128.275	48.623	0	735.60	0	4.3069	0	34.2572	0	27.169	0	728.093	0	9.6	4	3.1	4	-1E+10	1	0.0581	4	0.000253	0	-1E+10	1	-1E+10	1	-1E+10	1
4902624	36	C	06/16/2025	05:37	-128.275	48.623	0	745.10	0	4.2890	0	34.2600	0	27.173	0	737.480	0	-1e10	1	-1e10	1	-1E+10	1	-1e10	1	-1e10	1	-1E+10	1	-1E+10	1	-1E+10	1
4902624	36	C	06/16/2025	05:37	-128.275	48.623	0	747.40	0	4.2846	0	34.2612	0	27.175	0	739.752	0	9.5	4	3.0	4	-1E+10	1	0.0514	4	0.000341	0	-1E+10	1	-1E+10	1	-1E+10	1
4902624	36	C	06/16/2025	05:37	-128.275	48.623	0	755.10	0	4.2700	0	34.2650	0	27.179	0	747.359	0	-1e10	1	-1e10	1	-1E+10	1	-1e10	1	-1e10	1	-1E+10	1	-1E+10	1	-1E+10	1
4902624	36	C	06/16/2025	05:37	-128.275	48.623	0	759.20	0	4.2645	0	34.2663	0	27.181	0	751.410	0	9.3	4	3.0	4	-1E+10	1	0.0587	4	0.000308	0	-1E+10	1	-1E+10	1	-1E+10	1
4902624	36	C	06/16/2025	05:37	-128.275	48.623	0	764.80	0	4.2570	0	34.2680	0	27.183	0	756.942	0	-1e10	1	-1e10	1	-1E+10	1	-1e10	1	-1e10	1	-1E+10	1	-1E+10	1	-1E+10	1
4902624	36	C	06/16/2025	05:37	-128.275	48.623	0	771.00	0	4.2510	0	34.2698	0	27.185	0	763.067	0	9.3	4	2.9	4	-1E+10	1	0.0657	4	0.000328	0	-1E+10	1	-1E+10	1	-1E+10	1
4902624	36	C	06/16/2025	05:37	-128.275	48.623	0	775.10	0	4.2470	0	34.2710	0	27.187	0	767.118	0	-1e10	1	-1e10	1	-1E+10	1	-1e10	1	-1e10	1	-1E+10	1	-1E+10	1	-1E+10	1
4902624	36	C	06/16/2025	05:37	-128.275	48.623	0	782.80	0	4.2379	0	34.2733	0	27.190	0	774.724	0	9.1	4	2.9	4	-1E+10	1	0.0654	4	0.000272	0	-1E+10	1	-1E+10	1	-1E+10	1
4902624	36	C	06/16/2025	05:37	-128.275	48.623	0	785.20	0	4.2350	0	34.2740	0	27.190	0	777.095	0	-1e10	1	-1e10	1	-1E+10	1	-1e10	1	-1e10	1	-1E+10	1	-1E+10	1	-1E+10	1
4902624	36	C	06/16/2025	05:37	-128.275	48.623	0	791.40	0	4.2293	0	34.2753	0	27.192	0	783.219	0	9.0	4	2.9	4	-1E+10	1	0.0581	4	0.000285	0	-1E+10	1	-1E+10	1	-1E+10	1
4902624	36	C	06/16/2025	05:37	-128.275	48.623	0	795.00	0	4.2260	0	34.2760	0	27.193	0	786.775	0	-1e10	1	-1e10	1	-1E+10	1	-1e10	1	-1e10	1	-1E+10	1	-1E+10	1	-1E+10	1
4902624	36	C	06/16/2025	05:37	-128.275	48.623	0	799.40	0	4.2220	0	34.2769	0	27.194	0	791.121	0	8.9	4	2.8	4	-1E+10	1	0.0511	4	0.000329	0	-1E+10	1	-1E+10	1	-1E+10	1
4902624	36	C	06/16/2025	05:37	-128.275	48.623	0	805.00	0	4.2170	0	34.2780	0	27.196	0	796.653	0	-1e10	1	-1e10	1	-1E+10	1	-1e10	1	-1e10	1	-1E+10	1	-1E+10	1	-1E+10	1
4902624	36	C	06/16/2025	05:37	-128.275	48.623	0	807.40	0	4.2095	0	34.2795	0	27.198	0	799.023	0	8.7	4	2.8	4	-1E+10	1	0.0515	4	0.000304	0	-1E+10	1	-1E+10	1	-1E+10	1
4902624	36	C	06/16/2025	05:37	-128.275	48.623	0	814.90	0	4.1860	0	34.2840	0	27.204	0	806.431	0	-1e10	1	-1e10	1	-1E+10	1	-1e10	1	-1e10	1	-1E+10	1	-1E+10	1	-1E+10	1
4902624	36	C	06/16/2025	05:37	-128.275	48.623	0	815.60	0	4.1822	0	34.2845	0	27.205	0	807.122	0	8.5	4	2.7	4	-1E+10	1	0.0587	4	0.000259	0	-1E+10	1	-1E+10	1	-1E+10	1
4902624	36	C	06/16/2025	05:37	-128.275	48.623	0	824.40	0	4.1338	0	34.2905	0	27.214	0	815.814	0	8.1	4	2.6	4	-1E+10	1	0.0654	4	0.000247	0	-1E+10	1	-1E+10	1	-1E+10	1
4902624	36	C	06/16/2025	05:37	-128.275	48.623	0	825.10	0	4.1300	0	34.2910	0	27.215	0	816.505	0	-1e10	1	-1e10	1	-1E+10	1	-1e10	1	-1e10	1	-1E+10	1	-1E+10	1	-1E+10	1
4902624	36	C	06/16/2025	05:37	-128.275	48.623	0	833.30	0	4.1005	0	34.2992	0	27.225	0	824.604	0	7.9	4	2.5	4	-1E+10	1	0.0586	4	0.000242	0	-1E+10	1	-1E+10	1	-1E+10	1
4902624	36	C	06/16/2025	05:37	-128.275	48.623	0	835.10	0	4.0940	0	34.3010	0	27.227	0	826.381	0	-1e10	1	-1e10	1	-1E+10	1	-1e10	1	-1e10	1	-1E+10	1	-1E+10	1	-1E+10	1
4902624	36	C	06/16/2025	05:37	-128.275	48.623	0	842.70	0	4.0825	0	34.3056	0	27.232	0	833.887	0	7.7	4	2.4	4	-1E+10	1	0.0654	4	0.000426	0	-1E+10	1	-1E+10	1	-1E+10	1
4902624	36	C	06/16/2025	05:37	-128.275	48.623	0	845.00	0	4.0790	0	34.3070	0	27.233	0	836.158	0	-1e10	1	-1e10	1	-1E+10	1	-1e10	1	-1e10	1	-1E+10	1	-1E+10	1	-1E+10	1
4902624	36	C	06/16/2025	05:37	-128.275	48.623	0	852.40	0	4.0654	0	34.3123	0	27.239	0	843.466	0	7.6	4	2.4	4	-1E+10	1	0.0587	4	0.000202	0	-1E+10	1	-1E+10	1	-1E+10	1
4902624	36	C	06/16/2025	05:37	-128.275	48.623	0	854.80	0	4.0610	0	34.3140	0	27.241	0	845.836	0	-1e10	1	-1e10	1	-1E+10	1	-1e10	1	-1e10	1	-1E+10	1	-1E+10	1	-1E+10	1
4902624	36	C	06/16/2025	05:37	-128.275	48.623	0	862.50	0	4.0471	0	34.3171	0	27.245	0	853.439	0	7.5	4	2.4	4	-1E+10	1	0.0651	4	0.000222	0	-1E+10	1	-1E+10	1	-1E+10	1
4902624	36	C	06/16/2025	05:37	-128.275	48.623	0	864.80	0	4.0430	0	34.3180	0	27.246	0	855.710	0	-1e10	1	-1e10	1	-1E+10	1	-1e10	1	-1e10	1	-1E+10	1	-1E+10	1	-1E+10	1
4902624	36	C	06/16/2025	05:37	-128.275	48.623	0	873.00	0	4.0311	0	34.3204	0	27.249	0	863.807	0	7.5	4	2.4	4	-1E+10	1	0.0511	4	0.000178	0	-1E+10	1	-1E+10	1	-1E+10	1
4902624	36	C	06/16/2025	05:37	-128.275	48.623	0	875.10	0	4.0280	0	34.3210	0	27.250	0	865.881	0	-1e10	1	-1e10	1	-1E+10	1	-1e10	1	-1e10	1	-1E+10	1	-1E+10	1	-1E+10	1
4902624	36	C	06/16/2025	05:37	-128.275	48.623	0	883.80	0	4.0025	0	34.3263	0	27.257	0	874.471	0	7.5	4	2.4	4	-1E+10	1	0.0519	4	0.000200	0	-1E+10	1	-1E+10	1	-1E+10	1
4902624	36	C	06/16/2025	05:37	-128.275	48.623	0	885.00	0	3.9990	0	34.3270	0	27.258	0	875.656	0	-1e10	1	-1e10	1	-1E+10	1	-1e10	1	-1e10	1	-1E+10	1	-1E+10	1	-1E+10	1
4902624	36	C	06/16/2025	05:37	-128.275	48.623	0	895.00	0	3.9840	0	34.3300	0	27.262	0	885.529	0	-1e10	1	-1e10	1	-1E+10	1	-1e10	1	-1e10	1	-1E+10	1	-1E+10	1	-1E+10	1
4902624	36	C	06/16/2025	05:37	-128.275	48.623	0	895.10	0	3.9838	0	34.3300	0	27.262	0	885.628	0	7.4	4	2.4	4	-1E+10	1	0.0724	4	0.000199	0	-1E+10	1	-1E+10	1	-1E+10	1
4902624	36	C	06/16/2025	05:37	-128.275	48.623	0	905.30	0	3.9660	0	34.3340	0	27.267	0	895.698	0	-1e10	1	-1e10	1	-1E+10	1	-1e10	1	-1e10	1	-1E+10	1	-1E+10	1	-1E+10	1
4902624	36	C	06/16/2025	05:37	-128.275	48.623	0	906.70	0	3.9639	0	34.3343	0	27.267	0	897.080	0	7.4	4	2.3	4	-1E+10	1	0.0584	4	0.000167	0	-1E+10	1	-1E+10	1	-1E+10	1
4902624	36	C	06/16/2025	05:37	-128.275	48.623	0	915.10	0	3.9510	0	34.3360	0	27.270	0	905.373	0	-1e10	1	-1e10	1	-1E+10	1	-1e10	1	-1e10	1	-1E+10	1	-1E+10	1	-1E+10	1
4902624	36	C	06/16/2025	05:37	-128.275	48.623	0	918.40	0	3.9421	0	34.3373	0	27.272	0	908.631	0	7.5	4	2.4	4	-1E+10	1	0.0581	4	0.000222	0	-1E+10	1	-1E+10	1	-1E+10	1
4902624	36	C	06/16/2025	05:37	-128.275	48.623	0	925.10	0	3.9240	0	34.3400	0	27.276	0	915.245	0	-1e10	1	-1e10	1	-1E+10	1	-1e10	1	-1e10	1	-1E+10	1	-1E+10	1	-1E+10	1
4902624	36	C	06/16/2025	05:37	-128.275	48.623	0	930.20	0	3.9063	0	34.3420	0	27.279	0	920.279	0	7.7	4	2.4	4	-1E+10	1	0.0511	4	0.000191	0	-1E+10	1	-1E+10	1	-1E+10	1
4902624	36	C	06/16/2025	05:37	-128.275	48.623	0	935.20	0	3.8890	0	34.3440	0	27.283	0	925.215	0	-1e10	1	-1e10	1	-1E+10	1	-1e10	1	-1e10	1	-1E+10	1	-1E+10	1	-1E+10	1
4902624	36	C	06/16/2025	05:37	-128.275	48.623	0	942.00	0	3.8448	0	34.3474	0	27.290	0	931.927	0	7.9	4	2.5	4	-1E+10	1	0.0517	4	0.000245	0	-1E+10	1	-1E+10	1	-1E+10	1
4902624	36	C	06/16/2025	05:37	-128.275	48.623	0	945.20	0	3.8240	0	34.3490	0	27.293	0	935.086	0	-1e10	1	-1e10	1	-1E+10	1	-1e10	1	-1e10	1	-1E+10	1	-1E+10	1	-1E+10	1
4902624	36	C	06/16/2025	05:37	-128.275	48.623	0	954.00	0	3.8089	0	34.3508	0	27.296	0	943.772	0	8.0	4	2.5	4	-1E+10	1	0.0654	4	0.000211	0	-1E+10	1	-1E+10	1	-1E+10	1
4902624	36	C	06/16/2025	05:37	-128.275	48.623	0	955.10	0	3.8070	0	34.3510	0	27.297	0	944.857	0	-1e10	1	-1e10	1	-1E+10	1	-1e10	1	-1e10	1	-1E+10	1	-1E+10	1	-1E+10	1
4902624	36	C	06/16/2025	05:37	-128.275	48.623	0	965.20	0	3.8040	0	34.3540	0	27.299	0	954.826	0	-1e10	1	-1e10	1	-1E+10	1	-1e10	1	-1e10	1	-1E+10	1	-1E+10	1	-1E+10	1
4902624	36	C	06/16/2025	05:37	-128.275	48.623	0	965.30	0	3.8039	0	34.3540	0	27.300	0	954.925	0	8.1	4	2.5	4	-1E+10	1	0.0587	4	0.000216	0	-1E+10	1	-1E+10	1	-1E+10	1
4902624	36	C	06/16/2025	05:37	-128.275	48.623	0	974.80	0	3.7950	0	34.3580	0	27.304	0	964.301	0	-1e10	1	-1e10	1	-1E+10	1	-1e10	1	-1e10	1	-1E+10	1	-1E+10	1	-1E+10	1
4902624	36	C	06/16/2025	05:37	-128.275	48.623	0	976.60	0	3.7834	0	34.3587	0	27.305	0	966.077	0	29.9	4	9.4	4	-1E+10	1	0.0652	4	0.000335	0	-1E+10	1	-1E+10	1	-1E+10	1
4902624	36	C	06/16/2025	05:37	-128.275	48.623	0	984.90	0	3.7300	0	34.3620	0	27.313	0	974.269	0	-1e10	1	-1e10	1	-1E+10	1	-1e10	1	-1e10	1	-1E+10	1	-1E+10	1	-1E+10	1
4902624	36	C	06/16/2025	05:37	-128.275	48.623	0	988.20	0	3.7100	0	34.3633	0	27.316	0	977.525	0	41.0	4	12.9	4	-1E+10	1	0.0511	4	0.000176	0	-1E+10	1	-1E+10	1	-1E+10	1
4902624	36	C	06/16/2025	05:37	-128.275	48.623	0	994.80	0	3.6700	0	34.3660	0	27.322	0	984.038	0	-1e10	1	-1e10	1	-1E+10	1	-1e10	1	-1e10	1	-1E+10	1	-1E+10	1	-1E+10	1
4902624	36	C	06/16/2025	05:37	-128.275	48.623	0	1006.10	0	3.6502	0	34.3742	0	27.331	0	995.189	0	8.3	8	2.6	8	-1E+10	1	0.0511	4	0.000164	0	-1E+10	1	-1E+10	1	-1E+10	1
4902624	36	C	06/16/2025	05:37	-128.275	48.623	0	1025.10	0	3.6170	0	34.3880	0	27.345	0	1013.937	0	-1e10	1	-1e10	1	-1E+10	1	-1e10	1	-1e10	1	-1E+10	1	-1E+10	1	-1E+10	1
4902624	36	C	06/16/2025	05:37	-128.275	48.623	0	1029.00	0	3.6060	0	34.3897	0	27.348	0	1017.786	0	52.9	4	16.6	4	-1E+10	1	0.0515	4	0.000176	0	-1E+10	1	-1E+10	1	-1E+10	1
4902624	36	C	06/16/2025	05:37	-128.275	48.623	0	1047.00	0	3.5551	0	34.3973	0	27.359	0	1035.545	0	36.1	4	11.3	4	-1E+10	1	0.0654	4	0.000187	0	-1E+10	1	-1E+10	1	-1E+10	1
4902624	36	C	06/16/2025	05:37	-128.275	48.623	0	1063.10	0	3.5096	0	34.4042	0	27.369	0	1051.428	0	45.4	4	14.2	4	-1E+10	1	0.0512	4	0.000175	0	-1E+10	1	-1E+10	1	-1E+10	1
4902624	36	C	06/16/2025	05:37	-128.275	48.623	0	1074.30	0	3.4780	0	34.4090	0	27.376	0	1062.477	0	-1e10	1	-1e10	1	-1E+10	1	-1e10	1	-1e10	1	-1E+10	1	-1E+10	1	-1E+10	1
4902624	36	C	06/16/2025	05:37	-128.275	48.623	0	1080.30	0	3.4645	0	34.4114	0	27.379	0	1068.396	0	49.2	4	15.4	4	-1E+10	1	0.0584	4	0.000206	0	-1E+10	1	-1E+10	1	-1E+10	1
4902624	36	C	06/16/2025	05:37	-128.275	48.623	0	1098.80	0	3.4229	0	34.4187	0	27.389	0	1086.644	0	60.2	4	18.8	4	-1E+10	1	0.0584	4	0.002096	0	-1E+10	1	-1E+10	1	-1E+10	1
4902624	36	C	06/16/2025	05:37	-128.275	48.623	0	1119.30	0	3.3768	0	34.4268	0	27.400	0	1106.863	0	60.4	4	18.8	4	-1E+10	1	0.0584	4	0.000186	0	-1E+10	1	-1E+10	1	-1E+10	1
4902624	36	C	06/16/2025	05:37	-128.275	48.623	0	1125.00	0	3.3640	0	34.4290	0	27.403	0	1112.485	0	-1e10	1	-1e10	1	-1E+10	1	-1e10	1	-1e10	1	-1E+10	1	-1E+10	1	-1E+10	1
4902624	36	C	06/16/2025	05:37	-128.275	48.623	0	1141.40	0	3.3249	0	34.4313	0	27.409	0	1128.658	0	62.0	4	19.3	4	-1E+10	1	0.0584	4	0.000174	0	-1E+10	1	-1E+10	1	-1E+10	1
4902624	36	C	06/16/2025	05:37	-128.275	48.623	0	1164.40	0	3.2700	0	34.4344	0	27.416	0	1151.339	0	62.9	4	19.5	4	-1E+10	1	0.0586	4	0.000162	0	-1E+10	1	-1E+10	1	-1E+10	1
4902624	36	C	06/16/2025	05:37	-128.275	48.623	0	1175.70	0	3.2430	0	34.4360	0	27.420	0	1162.481	0	-1e10	1	-1e10	1	-1E+10	1	-1e10	1	-1e10	1	-1E+10	1	-1E+10	1	-1E+10	1
4902624	36	C	06/16/2025	05:37	-128.275	48.623	0	1180.60	0	3.2365	0	34.4374	0	27.422	0	1167.312	0	62.9	4	19.5	4	-1E+10	1	0.0658	4	0.000162	0	-1E+10	1	-1E+10	1	-1E+10	1
4902624	36	C	06/16/2025	05:37	-128.275	48.623	0	1197.90	0	3.2134	0	34.4423	0	27.428	0	1184.369	0	63.4	4	19.7	4	-1E+10	1	0.0727	4	0.000185	0	-1E+10	1	-1E+10	1	-1E+10	1
4902624	36	C	06/16/2025	05:37	-128.275	48.623	0	1215.80	0	3.1895	0	34.4473	0	27.434	0	1202.015	0	71.1	4	22.1	4	-1E+10	1	0.0584	4	0.000173	0	-1E+10	1	-1E+10	1	-1E+10	1
4902624	36	C	06/16/2025	05:37	-128.275	48.623	0	1225.20	0	3.1770	0	34.4500	0	27.438	0	1211.282	0	-1e10	1	-1e10	1	-1E+10	1	-1e10	1	-1e10	1	-1E+10	1	-1E+10	1	-1E+10	1
4902624	36	C	06/16/2025	05:37	-128.275	48.623	0	1234.10	0	3.1563	0	34.4528	0	27.442	0	1220.055	0	70.1	4	21.7	4	-1E+10	1	0.0584	4	0.000174	0	-1E+10	1	-1E+10	1	-1E+10	1
4902624	36	C	06/16/2025	05:37	-128.275	48.623	0	1252.00	0	3.1145	0	34.4585	0	27.451	0	1237.698	0	70.1	4	21.7	4	-1E+10	1	0.0585	4	0.000207	0	-1E+10	1	-1E+10	1	-1E+10	1
4902624	36	C	06/16/2025	05:37	-128.275	48.623	0	1269.30	0	3.0742	0	34.4641	0	27.459	0	1254.749	0	70.1	4	21.7	4	-1E+10	1	0.0655	4	0.000163	0	-1E+10	1	-1E+10	1	-1E+10	1
4902624	36	C	06/16/2025	05:37	-128.275	48.623	0	1275.40	0	3.0600	0	34.4660	0	27.462	0	1260.761	0	-1e10	1	-1e10	1	-1E+10	1	-1e10	1	-1e10	1	-1E+10	1	-1E+10	1	-1E+10	1
4902624	36	C	06/16/2025	05:37	-128.275	48.623	0	1286.00	0	3.0358	0	34.4695	0	27.467	0	1271.207	0	82.6	4	25.5	4	-1E+10	1	0.0583	4	0.000243	0	-1E+10	1	-1E+10	1	-1E+10	1
4902624	36	C	06/16/2025	05:37	-128.275	48.623	0	1302.70	0	2.9977	0	34.4749	0	27.474	0	1287.664	0	81.6	4	25.2	4	-1E+10	1	0.0511	4	0.000265	0	-1E+10	1	-1E+10	1	-1E+10	1
4902624	36	C	06/16/2025	05:37	-128.275	48.623	0	1319.50	0	2.9594	0	34.4804	0	27.482	0	1304.218	0	87.8	4	27.1	4	-1E+10	1	0.0511	4	0.000231	0	-1E+10	1	-1E+10	1	-1E+10	1
4902624	36	C	06/16/2025	05:37	-128.275	48.623	0	1324.50	0	2.9480	0	34.4820	0	27.485	0	1309.145	0	-1e10	1	-1e10	1	-1E+10	1	-1e10	1	-1e10	1	-1E+10	1	-1E+10	1	-1E+10	1
4902624	36	C	06/16/2025	05:37	-128.275	48.623	0	1336.60	0	2.9269	0	34.4846	0	27.489	0	1321.067	0	91.0	4	28.1	4	-1E+10	1	0.0511	4	0.000242	0	-1E+10	1	-1E+10	1	-1E+10	1
4902624	36	C	06/16/2025	05:37	-128.275	48.623	0	1355.30	0	2.8942	0	34.4887	0	27.495	0	1339.490	0	93.6	4	28.8	4	-1E+10	1	0.0512	4	0.000232	0	-1E+10	1	-1E+10	1	-1E+10	1
4902624	36	C	06/16/2025	05:37	-128.275	48.623	0	1374.90	0	2.8600	0	34.4930	0	27.502	0	1358.798	0	-1e10	1	-1e10	1	-1E+10	1	-1e10	1	-1e10	1	-1E+10	1	-1E+10	1	-1E+10	1
4902624	36	C	06/16/2025	05:37	-128.275	48.623	0	1375.20	0	2.8596	0	34.4931	0	27.502	0	1359.094	0	96.1	4	29.6	4	-1E+10	1	0.0583	4	0.000302	0	-1E+10	1	-1E+10	1	-1E+10	1
4902624	36	C	06/16/2025	05:37	-128.275	48.623	0	1396.50	0	2.8305	0	34.4968	0	27.507	0	1380.075	0	96.3	4	29.6	4	-1E+10	1	0.0511	4	0.000381	0	-1E+10	1	-1E+10	1	-1E+10	1
4902624	36	C	06/16/2025	05:37	-128.275	48.623	0	1417.50	0	2.8019	0	34.5006	0	27.513	0	1400.758	0	97.3	4	29.9	4	-1E+10	1	0.0512	4	0.000276	0	-1E+10	1	-1E+10	1	-1E+10	1
4902624	36	C	06/16/2025	05:37	-128.275	48.623	0	1425.50	0	2.7910	0	34.5020	0	27.515	0	1408.637	0	-1e10	1	-1e10	1	-1E+10	1	-1e10	1	-1e10	1	-1E+10	1	-1E+10	1	-1E+10	1
4902624	36	C	06/16/2025	05:37	-128.275	48.623	0	1434.40	0	2.7801	0	34.5031	0	27.517	0	1417.402	0	91.8	4	28.2	4	-1E+10	1	0.0581	4	0.000253	0	-1E+10	1	-1E+10	1	-1E+10	1
4902624	36	C	06/16/2025	05:37	-128.275	48.623	0	1453.80	0	2.7563	0	34.5054	0	27.521	0	1436.506	0	94.5	4	29.0	4	-1E+10	1	0.0371	4	0.000229	0	-1E+10	1	-1E+10	1	-1E+10	1
4902624	36	C	06/16/2025	05:37	-128.275	48.623	0	1473.80	0	2.7318	0	34.5078	0	27.525	0	1456.199	0	96.2	4	29.5	4	-1E+10	1	0.0653	4	0.000229	0	-1E+10	1	-1E+10	1	-1E+10	1
4902624	36	C	06/16/2025	05:37	-128.275	48.623	0	1475.30	0	2.7300	0	34.5080	0	27.526	0	1457.676	0	-1e10	1	-1e10	1	-1E+10	1	-1e10	1	-1e10	1	-1E+10	1	-1E+10	1	-1E+10	1
4902624	36	C	06/16/2025	05:37	-128.275	48.623	0	1494.70	0	2.6907	0	34.5115	0	27.532	0	1476.776	0	97.5	4	29.9	4	-1E+10	1	0.0372	4	0.000205	0	-1E+10	1	-1E+10	1	-1E+10	1
4902624	36	C	06/16/2025	05:37	-128.275	48.623	0	1515.80	0	2.6479	0	34.5153	0	27.539	0	1497.549	0	101.4	4	31.1	4	-1E+10	1	0.0654	4	0.000193	0	-1E+10	1	-1E+10	1	-1E+10	1
4902624	36	C	06/16/2025	05:37	-128.275	48.623	0	1525.10	0	2.6290	0	34.5170	0	27.542	0	1506.704	0	-1e10	1	-1e10	1	-1E+10	1	-1e10	1	-1e10	1	-1E+10	1	-1E+10	1	-1E+10	1
4902624	36	C	06/16/2025	05:37	-128.275	48.623	0	1536.50	0	2.6091	0	34.5193	0	27.545	0	1517.925	0	105.1	4	32.2	4	-1E+10	1	0.0511	4	0.000193	0	-1E+10	1	-1E+10	1	-1E+10	1
4902624	36	C	06/16/2025	05:37	-128.275	48.623	0	1556.20	0	2.5747	0	34.5232	0	27.552	0	1537.315	0	105.6	4	32.3	4	-1E+10	1	0.0513	4	0.000208	0	-1E+10	1	-1E+10	1	-1E+10	1
4902624	36	C	06/16/2025	05:37	-128.275	48.623	0	1574.90	0	2.5420	0	34.5270	0	27.557	0	1555.720	0	-1e10	1	-1e10	1	-1E+10	1	-1e10	1	-1e10	1	-1E+10	1	-1E+10	1	-1E+10	1
4902624	36	C	06/16/2025	05:37	-128.275	48.623	0	1575.30	0	2.5411	0	34.5271	0	27.558	0	1556.114	0	110.8	4	33.8	4	-1E+10	1	0.0581	4	0.000373	0	-1E+10	1	-1E+10	1	-1E+10	1
4902624	36	C	06/16/2025	05:37	-128.275	48.623	0	1594.70	0	2.4970	0	34.5318	0	27.565	0	1575.205	0	113.9	4	34.7	4	-1E+10	1	0.0441	4	0.000204	0	-1E+10	1	-1E+10	1	-1E+10	1
4902624	36	C	06/16/2025	05:37	-128.275	48.623	0	1614.80	0	2.4513	0	34.5366	0	27.573	0	1594.984	0	114.7	4	35.0	4	-1E+10	1	0.0584	4	0.000181	0	-1E+10	1	-1E+10	1	-1E+10	1
4902624	36	C	06/16/2025	05:37	-128.275	48.623	0	1624.60	0	2.4290	0	34.5390	0	27.577	0	1604.626	0	-1e10	1	-1e10	1	-1E+10	1	-1e10	1	-1e10	1	-1E+10	1	-1E+10	1	-1E+10	1
4902624	36	C	06/16/2025	05:37	-128.275	48.623	0	1635.70	0	2.4043	0	34.5418	0	27.581	0	1615.548	0	112.6	4	34.3	4	-1E+10	1	0.0583	4	0.000204	0	-1E+10	1	-1E+10	1	-1E+10	1
4902624	36	C	06/16/2025	05:37	-128.275	48.623	0	1657.50	0	2.3559	0	34.5473	0	27.589	0	1636.995	0	99.5	4	30.3	4	-1E+10	1	0.0513	4	0.000191	0	-1E+10	1	-1E+10	1	-1E+10	1
4902624	36	C	06/16/2025	05:37	-128.275	48.623	0	1675.10	0	2.3168	0	34.5518	0	27.596	0	1654.308	0	88.6	4	26.9	4	-1E+10	1	0.0584	4	0.000179	0	-1E+10	1	-1E+10	1	-1E+10	1
4902624	36	C	06/16/2025	05:37	-128.275	48.623	0	1675.90	0	2.3150	0	34.5520	0	27.597	0	1655.095	0	-1e10	1	-1e10	1	-1E+10	1	-1e10	1	-1e10	1	-1E+10	1	-1E+10	1	-1E+10	1
4902624	36	C	06/16/2025	05:37	-128.275	48.623	0	1691.50	0	2.2972	0	34.5543	0	27.600	0	1670.440	0	90.8	4	27.6	4	-1E+10	1	0.0581	4	0.000156	0	-1E+10	1	-1E+10	1	-1E+10	1
4902624	36	C	06/16/2025	05:37	-128.275	48.623	0	1708.80	0	2.2775	0	34.5568	0	27.604	0	1687.456	0	91.5	4	27.8	4	-1E+10	1	0.0440	4	0.000169	0	-1E+10	1	-1E+10	1	-1E+10	1
4902624	36	C	06/16/2025	05:37	-128.275	48.623	0	1724.10	0	2.2600	0	34.5590	0	27.607	0	1702.504	0	-1e10	1	-1e10	1	-1E+10	1	-1e10	1	-1e10	1	-1E+10	1	-1E+10	1	-1E+10	1
4902624	36	C	06/16/2025	05:37	-128.275	48.623	0	1727.80	0	2.2562	0	34.5595	0	27.608	0	1706.142	0	99.3	4	30.1	4	-1E+10	1	0.0511	4	0.000236	0	-1E+10	1	-1E+10	1	-1E+10	1
4902624	36	C	06/16/2025	05:37	-128.275	48.623	0	1748.40	0	2.2353	0	34.5624	0	27.612	0	1726.400	0	102.9	4	31.2	4	-1E+10	1	0.0509	4	0.000167	0	-1E+10	1	-1E+10	1	-1E+10	1
4902624	36	C	06/16/2025	05:37	-128.275	48.623	0	1770.40	0	2.2129	0	34.5655	0	27.616	0	1748.033	0	107.9	4	32.7	4	-1E+10	1	0.0441	4	0.000168	0	-1E+10	1	-1E+10	1	-1E+10	1
4902624	36	C	06/16/2025	05:37	-128.275	48.623	0	1774.20	0	2.2090	0	34.5660	0	27.617	0	1751.769	0	-1e10	1	-1e10	1	-1E+10	1	-1e10	1	-1e10	1	-1E+10	1	-1E+10	1	-1E+10	1
4902624	36	C	06/16/2025	05:37	-128.275	48.623	0	1793.40	0	2.1855	0	34.5682	0	27.621	0	1770.647	0	102.5	4	31.1	4	-1E+10	1	0.0582	4	0.000225	0	-1E+10	1	-1E+10	1	-1E+10	1
4902624	36	C	06/16/2025	05:37	-128.275	48.623	0	1817.30	0	2.1562	0	34.5710	0	27.625	0	1794.143	0	107.3	4	32.5	4	-1E+10	1	0.0440	4	0.000201	0	-1E+10	1	-1E+10	1	-1E+10	1
4902624	36	C	06/16/2025	05:37	-128.275	48.623	0	1825.60	0	2.1460	0	34.5720	0	27.627	0	1802.302	0	-1e10	1	-1e10	1	-1E+10	1	-1e10	1	-1e10	1	-1E+10	1	-1E+10	1	-1E+10	1
4902624	36	C	06/16/2025	05:37	-128.275	48.623	0	1839.40	0	2.1317	0	34.5740	0	27.630	0	1815.867	0	114.8	4	34.7	4	-1E+10	1	0.0512	4	0.000190	0	-1E+10	1	-1E+10	1	-1E+10	1
4902624	36	C	06/16/2025	05:37	-128.275	48.623	0	1855.80	0	2.1148	0	34.5763	0	27.633	0	1831.986	0	120.7	4	36.5	4	-1E+10	1	0.0583	4	0.000213	0	-1E+10	1	-1E+10	1	-1E+10	1
4902624	36	C	06/16/2025	05:37	-128.275	48.623	0	1873.20	0	2.0968	0	34.5788	0	27.637	0	1849.087	0	121.0	4	36.6	4	-1E+10	1	0.0511	4	0.000212	0	-1E+10	1	-1E+10	1	-1E+10	1
4902624	36	C	06/16/2025	05:37	-128.275	48.623	0	1874.90	0	2.0950	0	34.5790	0	27.637	0	1850.758	0	-1e10	1	-1e10	1	-1E+10	1	-1e10	1	-1e10	1	-1E+10	1	-1E+10	1	-1E+10	1
4902624	36	C	06/16/2025	05:37	-128.275	48.623	0	1890.90	0	2.0821	0	34.5806	0	27.639	0	1866.482	0	122.6	4	37.0	4	-1E+10	1	0.0509	4	0.000177	0	-1E+10	1	-1E+10	1	-1E+10	1
4902624	36	C	06/16/2025	05:37	-128.275	48.623	0	1908.10	0	2.0683	0	34.5823	0	27.642	0	1883.384	0	124.7	4	37.7	4	-1E+10	1	0.0440	4	0.000153	0	-1E+10	1	-1E+10	1	-1E+10	1
4902624	36	C	06/16/2025	05:37	-128.275	48.623	0	1924.70	0	2.0550	0	34.5840	0	27.644	0	1899.695	0	-1e10	1	-1e10	1	-1E+10	1	-1e10	1	-1e10	1	-1E+10	1	-1E+10	1	-1E+10	1
4902624	36	C	06/16/2025	05:37	-128.275	48.623	0	1925.40	0	2.0544	0	34.5841	0	27.644	0	1900.382	0	125.3	4	37.8	4	-1E+10	1	0.0509	4	0.000153	0	-1E+10	1	-1E+10	1	-1E+10	1
4902624	36	C	06/16/2025	05:37	-128.275	48.623	0	1943.10	0	2.0396	0	34.5859	0	27.647	0	1917.773	0	128.1	4	38.7	4	-1E+10	1	0.0437	4	0.000154	0	-1E+10	1	-1E+10	1	-1E+10	1
4902624	36	C	06/16/2025	05:37	-128.275	48.623	0	1961.20	0	2.0245	0	34.5878	0	27.650	0	1935.555	0	130.0	4	39.2	4	-1E+10	1	0.0367	4	0.000189	0	-1E+10	1	-1E+10	1	-1E+10	1
4902624	36	C	06/16/2025	05:37	-128.275	48.623	0	1972.50	0	2.0150	0	34.5890	0	27.652	0	1946.655	0	-1e10	1	-1e10	1	-1E+10	1	-1e10	1	-1e10	1	-1E+10	1	-1E+10	1	-1E+10	1
4902624	36	C	06/16/2025	05:37	-128.275	48.623	0	1979.60	0	-1e10	1	-1e10	1	-1e10	1	1953.630	0	138.7	4	-1e10	4	-1E+10	1	0.0507	4	0.000254	0	-1E+10	1	-1E+10	1	-1E+10	1
4902624	36	C	06/16/2025	05:37	-128.275	48.623	0	1994.80	0	-1e10	1	-1e10	1	-1e10	1	1968.560	0	135.9	4	-1e10	4	-1E+10	1	0.0365	4	0.000197	0	-1E+10	1	-1E+10	1	-1E+10	1
4902624	36	C	06/16/2025	05:37	-128.275	48.623	0																										
4902624	37	C	06/26/2025	00:33	-129.181	48.567	0	0.00	0	13.5650	8	31.9175	8	23.895	0	0.000	0	-1e10	1	-1e10	1	-1E+10	1	0.0584	4	0.000563	0	-1E+10	1	-1E+10	1	-1E+10	1
4902624	37	C	06/26/2025	00:33	-129.181	48.567	0	0.10	0	13.5670	8	31.9110	8	23.889	0	0.099	0	-1e10	1	-1e10	1	-1E+10	1	0.1168	4	0.001408	0	-1E+10	1	-1E+10	1	-1E+10	1
4902624	37	C	06/26/2025	00:33	-129.181	48.567	0	0.20	0	13.5690	8	31.9045	8	23.884	0	0.198	0	-1e10	1	-1e10	1	-1E+10	1	0.1241	4	0.001420	0	-1E+10	1	-1E+10	1	-1E+10	1
4902624	37	C	06/26/2025	00:33	-129.181	48.567	0	0.40	0	13.5730	8	31.8915	8	23.873	0	0.397	0	250.9	4	96.3	4	-1E+10	1	0.1314	4	0.001854	0	-1E+10	1	-1E+10	1	-1E+10	1
4902624	37	C	06/26/2025	00:33	-129.181	48.567	0	0.50	0	13.5750	8	31.8850	8	23.868	0	0.496	0	-1e10	1	-1e10	1	-1E+10	1	-1e10	1	-1e10	1	-1E+10	1	-1E+10	1	-1E+10	1
4902624	37	C	06/26/2025	00:33	-129.181	48.567	0	0.90	0	13.5726	8	31.8898	8	23.872	0	0.892	0	-1e10	1	-1e10	1	-1E+10	1	0.0876	4	0.001361	0	-1E+10	1	-1E+10	1	-1E+10	1
4902624	37	C	06/26/2025	00:33	-129.181	48.567	0	1.00	0	13.5720	8	31.8910	8	23.873	0	0.992	0	-1e10	1	-1e10	1	-1E+10	1	0.1387	4	0.001337	0	-1E+10	1	-1E+10	1	-1E+10	1
4902624	37	C	06/26/2025	00:33	-129.181	48.567	0	1.10	0	13.5714	8	31.8922	8	23.874	0	1.091	0	250.8	4	96.3	4	-1E+10	1	0.1022	4	0.001396	0	-1E+10	1	-1E+10	1	-1E+10	1
4902624	37	C	06/26/2025	00:33	-129.181	48.567	0	1.30	0	13.5702	8	31.8946	8	23.876	0	1.289	0	-1e10	1	-1e10	1	-1E+10	1	0.1022	4	0.001607	0	-1E+10	1	-1E+10	1	-1E+10	1
4902624	37	C	06/26/2025	00:33	-129.181	48.567	0	1.40	0	13.5696	8	31.8958	8	23.877	0	1.388	0	-1e10	1	-1e10	1	-1E+10	1	0.1168	4	0.001455	0	-1E+10	1	-1E+10	1	-1E+10	1
4902624	37	C	06/26/2025	00:33	-129.181	48.567	0	1.50	0	13.5690	0	31.8970	0	23.878	0	1.487	0	-1e10	1	-1e10	1	-1E+10	1	0.1314	4	0.001384	0	-1E+10	1	-1E+10	1	-1E+10	1
4902624	37	C	06/26/2025	00:33	-129.181	48.567	0	1.60	0	13.5697	0	31.8978	0	23.879	0	1.586	0	-1e10	1	-1e10	1	-1E+10	1	0.1241	4	0.001279	0	-1E+10	1	-1E+10	1	-1E+10	1
4902624	37	C	06/26/2025	00:33	-129.181	48.567	0	1.70	0	13.5704	0	31.8986	0	23.879	0	1.686	0	-1e10	1	-1e10	1	-1E+10	1	0.1241	4	0.001478	0	-1E+10	1	-1E+10	1	-1E+10	1
4902624	37	C	06/26/2025	00:33	-129.181	48.567	0	1.80	0	13.5711	0	31.8994	0	23.880	0	1.785	0	-1e10	1	-1e10	1	-1E+10	1	0.1314	4	0.001384	0	-1E+10	1	-1E+10	1	-1E+10	1
4902624	37	C	06/26/2025	00:33	-129.181	48.567	0	1.90	0	13.5718	0	31.9002	0	23.880	0	1.884	0	-1e10	1	-1e10	1	-1E+10	1	0.1460	4	0.001572	0	-1E+10	1	-1E+10	1	-1E+10	1
4902624	37	C	06/26/2025	00:33	-129.181	48.567	0	2.00	0	13.5725	0	31.9010	0	23.881	0	1.983	0	251.0	4	96.3	4	-1E+10	1	0.2044	4	0.002088	0	-1E+10	1	-1E+10	1	-1E+10	1
4902624	37	C	06/26/2025	00:33	-129.181	48.567	0	2.40	0	13.5753	0	31.9042	0	23.883	0	2.380	0	251.2	4	96.4	4	-1E+10	1	0.1314	4	0.001427	0	-1E+10	1	-1E+10	1	-1E+10	1
4902624	37	C	06/26/2025	00:33	-129.181	48.567	0	2.50	0	13.5760	0	31.9050	0	23.883	0	2.479	0	-1e10	1	-1e10	1	-1E+10	1	-1e10	1	-1e10	1	-1E+10	1	-1E+10	1	-1E+10	1
4902624	37	C	06/26/2025	00:33	-129.181	48.567	0	2.60	0	13.5699	0	31.9048	0	23.884	0	2.578	0	-1e10	1	-1e10	1	-1E+10	1	0.1314	4	0.001420	0	-1E+10	1	-1E+10	1	-1E+10	1
4902624	37	C	06/26/2025	00:33	-129.181	48.567	0	2.70	0	13.5638	0	31.9046	0	23.885	0	2.677	0	-1e10	1	-1e10	1	-1E+10	1	0.1460	4	0.001349	0	-1E+10	1	-1E+10	1	-1E+10	1
4902624	37	C	06/26/2025	00:33	-129.181	48.567	0	2.80	0	13.5577	0	31.9044	0	23.886	0	2.776	0	-1e10	1	-1e10	1	-1E+10	1	0.1387	4	0.001596	0	-1E+10	1	-1E+10	1	-1E+10	1
4902624	37	C	06/26/2025	00:33	-129.181	48.567	0	3.10	0	13.5394	0	31.9038	0	23.890	0	3.074	0	251.9	4	96.7	4	-1E+10	1	0.1484	4	0.001564	0	-1E+10	1	-1E+10	1	-1E+10	1
4902624	37	C	06/26/2025	00:33	-129.181	48.567	0	3.20	0	13.5333	0	31.9036	0	23.891	0	3.173	0	-1e10	1	-1e10	1	-1E+10	1	0.1533	4	0.001478	0	-1E+10	1	-1E+10	1	-1E+10	1
4902624	37	C	06/26/2025	00:33	-129.181	48.567	0	3.30	0	13.5272	0	31.9034	0	23.892	0	3.272	0	-1e10	1	-1e10	1	-1E+10	1	0.1606	4	0.001631	0	-1E+10	1	-1E+10	1	-1E+10	1
4902624	37	C	06/26/2025	00:33	-129.181	48.567	0	3.40	0	13.5211	0	31.9032	0	23.893	0	3.371	0	-1e10	1	-1e10	1	-1E+10	1	0.1606	4	0.001666	0	-1E+10	1	-1E+10	1	-1E+10	1
4902624	37	C	06/26/2025	00:33	-129.181	48.567	0	3.50	0	13.5150	0	31.9030	0	23.894	0	3.470	0	-1e10	1	-1e10	1	-1E+10	1	-1e10	1	-1e10	1	-1E+10	1	-1E+10	1	-1E+10	1
4902624	37	C	06/26/2025	00:33	-129.181	48.567	0	3.60	0	13.4932	0	31.9029	0	23.898	0	3.570	0	-1e10	1	-1e10	1	-1E+10	1	0.1679	4	0.001337	0	-1E+10	1	-1E+10	1	-1E+10	1
4902624	37	C	06/26/2025	00:33	-129.181	48.567	0	3.80	0	13.4496	0	31.9027	0	23.907	0	3.768	0	252.8	4	96.8	4	-1E+10	1	0.1752	4	0.001326	0	-1E+10	1	-1E+10	1	-1E+10	1
4902624	37	C	06/26/2025	00:33	-129.181	48.567	0	3.90	0	13.4278	0	31.9026	0	23.911	0	3.867	0	-1e10	1	-1e10	1	-1E+10	1	0.1825	4	0.001549	0	-1E+10	1	-1E+10	1	-1E+10	1
4902624	37	C	06/26/2025	00:33	-129.181	48.567	0	4.00	0	13.4060	0	31.9025	0	23.915	0	3.966	0	-1e10	1	-1e10	1	-1E+10	1	0.1971	4	0.001373	0	-1E+10	1	-1E+10	1	-1E+10	1
4902624	37	C	06/26/2025	00:33	-129.181	48.567	0	4.20	0	13.3624	0	31.9023	0	23.924	0	4.164	0	-1e10	1	-1e10	1	-1E+10	1	0.2117	4	0.001349	0	-1E+10	1	-1E+10	1	-1E+10	1
4902624	37	C	06/26/2025	00:33	-129.181	48.567	0	4.50	0	13.2970	0	31.9020	0	23.936	0	4.462	0	253.5	4	96.7	4	-1E+10	1	0.1898	4	0.001408	0	-1E+10	1	-1E+10	1	-1E+10	1
4902624	37	C	06/26/2025	00:33	-129.181	48.567	0	4.70	0	13.2360	0	31.9014	0	23.948	0	4.660	0	-1e10	1	-1e10	1	-1E+10	1	0.2117	4	0.001420	0	-1E+10	1	-1E+10	1	-1E+10	1
4902624	37	C	06/26/2025	00:33	-129.181	48.567	0	4.80	0	13.2055	0	31.9011	0	23.954	0	4.759	0	-1e10	1	-1e10	1	-1E+10	1	0.2190	4	0.001466	0	-1E+10	1	-1E+10	1	-1E+10	1
4902624	37	C	06/26/2025	00:33	-129.181	48.567	0	4.90	0	13.1750	0	31.9008	0	23.960	0	4.859	0	-1e10	1	-1e10	1	-1E+10	1	0.2409	4	0.001631	0	-1E+10	1	-1E+10	1	-1E+10	1
4902624	37	C	06/26/2025	00:33	-129.181	48.567	0	5.10	0	13.1140	0	31.9002	0	23.971	0	5.057	0	-1e10	1	-1e10	1	-1E+10	1	0.2336	4	0.001631	0	-1E+10	1	-1E+10	1	-1E+10	1
4902624	37	C	06/26/2025	00:33	-129.181	48.567	0	5.30	0	13.0530	0	31.8996	0	23.983	0	5.255	0	254.1	4	96.5	4	-1E+10	1	0.2482	4	0.001314	0	-1E+10	1	-1E+10	1	-1E+10	1
4902624	37	C	06/26/2025	00:33	-129.181	48.567	0	5.40	0	13.0225	0	31.8993	0	23.988	0	5.354	0	-1e10	1	-1e10	1	-1E+10	1	0.2409	4	0.001408	0	-1E+10	1	-1E+10	1	-1E+10	1
4902624	37	C	06/26/2025	00:33	-129.181	48.567	0	5.50	0	12.9920	0	31.8990	0	23.994	0	5.453	0	-1e10	1	-1e10	1	-1E+10	1	-1e10	1	-1e10	1	-1E+10	1	-1E+10	1	-1E+10	1
4902624	37	C	06/26/2025	00:33	-129.181	48.567	0	5.80	0	12.9752	0	31.8972	0	23.996	0	5.751	0	-1e10	1	-1e10	1	-1E+10	1	0.2409	4	0.001314	0	-1E+10	1	-1E+10	1	-1E+10	1
4902624	37	C	06/26/2025	00:33	-129.181	48.567	0	5.90	0	12.9696	0	31.8966	0	23.996	0	5.850	0	-1e10	1	-1e10	1	-1E+10	1	0.2409	4	0.001361	0	-1E+10	1	-1E+10	1	-1E+10	1
4902624	37	C	06/26/2025	00:33	-129.181	48.567	0	6.10	0	12.9584	0	31.8954	0	23.998	0	6.048	0	254.2	4	96.3	4	-1E+10	1	0.2336	4	0.001431	0	-1E+10	1	-1E+10	1	-1E+10	1
4902624	37	C	06/26/2025	00:33	-129.181	48.567	0	6.20	0	12.9528	0	31.8948	0	23.998	0	6.148	0	-1e10	1	-1e10	1	-1E+10	1	0.2701	4	0.001478	0	-1E+10	1	-1E+10	1	-1E+10	1
4902624	37	C	06/26/2025	00:33	-129.181	48.567	0	6.40	0	12.9416	0	31.8936	0	24.000	0	6.346	0	-1e10	1	-1e10	1	-1E+10	1	0.2701	4	0.001537	0	-1E+10	1	-1E+10	1	-1E+10	1
4902624	37	C	06/26/2025	00:33	-129.181	48.567	0	6.50	0	12.9360	0	31.8930	0	24.000	0	6.445	0	-1e10	1	-1e10	1	-1E+10	1	-1e10	1	-1e10	1	-1E+10	1	-1E+10	1	-1E+10	1
4902624	37	C	06/26/2025	00:33	-129.181	48.567	0	6.60	0	12.9336	0	31.8930	0	24.001	0	6.544	0	-1e10	1	-1e10	1	-1E+10	1	0.2701	4	0.001396	0	-1E+10	1	-1E+10	1	-1E+10	1
4902624	37	C	06/26/2025	00:33	-129.181	48.567	0	6.70	0	12.9312	0	31.8930	0	24.001	0	6.643	0	-1e10	1	-1e10	1	-1E+10	1	0.2555	4	0.001361	0	-1E+10	1	-1E+10	1	-1E+10	1
4902624	37	C	06/26/2025	00:33	-129.181	48.567	0	6.90	0	12.9264	0	31.8930	0	24.002	0	6.842	0	254.3	4	96.3	4	-1E+10	1	0.2774	4	0.001361	0	-1E+10	1	-1E+10	1	-1E+10	1
4902624	37	C	06/26/2025	00:33	-129.181	48.567	0	7.20	0	12.9192	0	31.8930	0	24.004	0	7.139	0	-1e10	1	-1e10	1	-1E+10	1	0.2774	4	0.001384	0	-1E+10	1	-1E+10	1	-1E+10	1
4902624	37	C	06/26/2025	00:33	-129.181	48.567	0	7.40	0	12.9144	0	31.8930	0	24.004	0	7.337	0	-1e10	1	-1e10	1	-1E+10	1	0.2701	4	0.001396	0	-1E+10	1	-1E+10	1	-1E+10	1
4902624	37	C	06/26/2025	00:33	-129.181	48.567	0	7.50	0	12.9120	0	31.8930	0	24.005	0	7.437	0	-1e10	1	-1e10	1	-1E+10	1	-1e10	1	-1e10	1	-1E+10	1	-1E+10	1	-1E+10	1
4902624	37	C	06/26/2025	00:33	-129.181	48.567	0	7.60	0	12.9107	0	31.8929	0	24.005	0	7.536	0	-1e10	1	-1e10	1	-1E+10	1	0.2774	4	0.001349	0	-1E+10	1	-1E+10	1	-1E+10	1
4902624	37	C	06/26/2025	00:33	-129.181	48.567	0	7.70	0	12.9094	0	31.8928	0	24.005	0	7.635	0	254.4	4	96.3	4	-1E+10	1	0.2920	4	0.001326	0	-1E+10	1	-1E+10	1	-1E+10	1
4902624	37	C	06/26/2025	00:33	-129.181	48.567	0	7.90	0	12.9068	0	31.8926	0	24.006	0	7.833	0	-1e10	1	-1e10	1	-1E+10	1	0.2993	4	0.001384	0	-1E+10	1	-1E+10	1	-1E+10	1
4902624	37	C	06/26/2025	00:33	-129.181	48.567	0	8.00	0	12.9055	0	31.8925	0	24.006	0	7.932	0	-1e10	1	-1e10	1	-1E+10	1	0.3212	4	0.002640	0	-1E+10	1	-1E+10	1	-1E+10	1
4902624	37	C	06/26/2025	00:33	-129.181	48.567	0	8.20	0	12.9029	0	31.8923	0	24.006	0	8.131	0	-1e10	1	-1e10	1	-1E+10	1	0.3285	4	0.001595	0	-1E+10	1	-1E+10	1	-1E+10	1
4902624	37	C	06/26/2025	00:33	-129.181	48.567	0	8.50	0	12.8990	0	31.8920	0	24.007	0	8.428	0	254.2	4	96.3	4	-1E+10	1	0.2993	4	0.001384	0	-1E+10	1	-1E+10	1	-1E+10	1
4902624	37	C	06/26/2025	00:33	-129.181	48.567	0	8.70	0	12.8968	0	31.8920	0	24.007	0	8.626	0	-1e10	1	-1e10	1	-1E+10	1	0.3212	4	0.001361	0	-1E+10	1	-1E+10	1	-1E+10	1
4902624	37	C	06/26/2025	00:33	-129.181	48.567	0	8.90	0	12.8946	0	31.8920	0	24.008	0	8.825	0	-1e10	1	-1e10	1	-1E+10	1	0.3212	4	0.001396	0	-1E+10	1	-1E+10	1	-1E+10	1
4902624	37	C	06/26/2025	00:33	-129.181	48.567	0	9.00	0	12.8935	0	31.8920	0	24.008	0	8.924	0	-1e10	1	-1e10	1	-1E+10	1	0.3358	4	0.001478	0	-1E+10	1	-1E+10	1	-1E+10	1
4902624	37	C	06/26/2025	00:33	-129.181	48.567	0	9.20	0	12.8913	0	31.8920	0	24.008	0	9.122	0	-1e10	1	-1e10	1	-1E+10	1	0.3285	4	0.001396	0	-1E+10	1	-1E+10	1	-1E+10	1
4902624	37	C	06/26/2025	00:33	-129.181	48.567	0	9.40	0	12.8891	0	31.8920	0	24.009	0	9.320	0	254.7	4	96.4	4	-1E+10	1	0.3358	4	0.001267	0	-1E+10	1	-1E+10	1	-1E+10	1
4902624	37	C	06/26/2025	00:33	-129.181	48.567	0	9.50	0	12.8880	0	31.8920	0	24.009	0	9.420	0	-1e10	1	-1e10	1	-1E+10	1	0.3504	4	0.001290	0	-1E+10	1	-1E+10	1	-1E+10	1
4902624	37	C	06/26/2025	00:33	-129.181	48.567	0	10.20	0	12.8791	0	31.8920	0	24.011	0	10.114	0	254.9	4	96.4	4	-1E+10	1	0.3577	4	0.001408	0	-1E+10	1	-1E+10	1	-1E+10	1
4902624	37	C	06/26/2025	00:33	-129.181	48.567	0	11.00	0	12.8690	0	31.8920	0	24.013	0	10.907	0	255.2	4	96.5	4	-1E+10	1	0.4424	4	0.001466	0	-1E+10	1	-1E+10	1	-1E+10	1
4902624	37	C	06/26/2025	00:33	-129.181	48.567	0	11.70	0	12.8537	0	31.8933	0	24.017	0	11.601	0	255.8	4	96.7	4	-1E+10	1	0.5137	4	0.001491	0	-1E+10	1	-1E+10	1	-1E+10	1
4902624	37	C	06/26/2025	00:33	-129.181	48.567	0	12.50	0	12.8361	0	31.8949	0	24.021	0	12.394	0	256.3	4	96.9	4	-1E+10	1	0.4411	4	0.001473	0	-1E+10	1	-1E+10	1	-1E+10	1
4902624	37	C	06/26/2025	00:33	-129.181	48.567	0	13.10	0	12.8230	0	31.8960	0	24.025	0	12.989	0	-1e10	1	-1e10	1	-1E+10	1	-1e10	1	-1e10	1	-1E+10	1	-1E+10	1	-1E+10	1
4902624	37	C	06/26/2025	00:33	-129.181	48.567	0	13.30	0	12.8103	0	31.8973	0	24.028	0	13.187	0	257.0	4	97.1	4	-1E+10	1	0.5037	4	0.001743	0	-1E+10	1	-1E+10	1	-1E+10	1
4902624	37	C	06/26/2025	00:33	-129.181	48.567	0	14.10	0	12.7597	0	31.9027	0	24.042	0	13.980	0	257.3	4	97.2	4	-1E+10	1	0.5037	4	0.001537	0	-1E+10	1	-1E+10	1	-1E+10	1
4902624	37	C	06/26/2025	00:33	-129.181	48.567	0	14.80	0	12.7153	0	31.9073	0	24.054	0	14.675	0	257.8	4	97.3	4	-1E+10	1	0.5840	4	0.001607	0	-1E+10	1	-1E+10	1	-1E+10	1
4902624	37	C	06/26/2025	00:33	-129.181	48.567	0	14.90	0	12.7090	0	31.9080	0	24.056	0	14.774	0	-1e10	1	-1e10	1	-1E+10	1	-1e10	1	-1e10	1	-1E+10	1	-1E+10	1	-1E+10	1
4902624	37	C	06/26/2025	00:33	-129.181	48.567	0	15.60	0	12.6747	0	31.9137	0	24.067	0	15.468	0	258.3	4	97.4	4	-1E+10	1	0.5970	4	0.001732	0	-1E+10	1	-1E+10	1	-1E+10	1
4902624	37	C	06/26/2025	00:33	-129.181	48.567	0	16.30	0	12.6403	0	31.9193	0	24.078	0	16.162	0	258.7	4	97.4	4	-1E+10	1	0.6181	4	0.002076	0	-1E+10	1	-1E+10	1	-1E+10	1
4902624	37	C	06/26/2025	00:33	-129.181	48.567	0	17.00	0	12.6060	0	31.9250	0	24.089	0	16.856	0	-1e10	1	-1e10	1	-1E+10	1	-1e10	1	-1e10	1	-1E+10	1	-1E+10	1	-1E+10	1
4902624	37	C	06/26/2025	00:33	-129.181	48.567	0	17.10	0	12.5848	0	31.9282	0	24.095	0	16.955	0	259.4	4	97.6	4	-1E+10	1	0.8422	4	0.002182	0	-1E+10	1	-1E+10	1	-1E+10	1
4902624	37	C	06/26/2025	00:33	-129.181	48.567	0	17.90	0	12.4152	0	31.9538	0	24.147	0	17.748	0	259.5	4	97.3	4	-1E+10	1	1.1461	4	0.002018	0	-1E+10	1	-1E+10	1	-1E+10	1
4902624	37	C	06/26/2025	00:33	-129.181	48.567	0	18.70	0	12.2456	0	31.9794	0	24.199	0	18.541	0	259.2	4	96.9	4	-1E+10	1	1.3235	4	0.001906	0	-1E+10	1	-1E+10	1	-1E+10	1
4902624	37	C	06/26/2025	00:33	-129.181	48.567	0	19.00	0	12.1820	0	31.9890	0	24.219	0	18.839	0	-1e10	1	-1e10	1	-1E+10	1	-1e10	1	-1e10	1	-1E+10	1	-1E+10	1	-1E+10	1
4902624	37	C	06/26/2025	00:33	-129.181	48.567	0	19.50	0	12.1567	0	31.9987	0	24.231	0	19.334	0	258.8	4	96.5	4	-1E+10	1	1.4007	4	0.002128	0	-1E+10	1	-1E+10	1	-1E+10	1
4902624	37	C	06/26/2025	00:33	-129.181	48.567	0	20.40	0	12.1113	0	32.0163	0	24.253	0	20.227	0	258.1	4	96.2	4	-1E+10	1	2.2822	4	0.003407	0	-1E+10	1	-1E+10	1	-1E+10	1
4902624	37	C	06/26/2025	00:33	-129.181	48.567	0	20.90	0	12.0860	0	32.0260	0	24.265	0	20.722	0	-1e10	1	-1e10	1	-1E+10	1	-1e10	1	-1e10	1	-1E+10	1	-1E+10	1	-1E+10	1
4902624	37	C	06/26/2025	00:33	-129.181	48.567	0	21.30	0	12.0736	0	32.0378	0	24.277	0	21.119	0	257.1	4	95.8	4	-1E+10	1	3.9785	4	0.003484	0	-1E+10	1	-1E+10	1	-1E+10	1
4902624	37	C	06/26/2025	00:33	-129.181	48.567	0	22.20	0	12.0458	0	32.0644	0	24.303	0	22.011	0	256.0	4	95.3	4	-1E+10	1	5.8002	4	0.003734	0	-1E+10	1	-1E+10	1	-1E+10	1
4902624	37	C	06/26/2025	00:33	-129.181	48.567	0	23.00	0	12.0210	0	32.0880	0	24.325	0	22.805	0	-1e10	1	-1e10	1	-1E+10	1	-1e10	1	-1e10	1	-1E+10	1	-1E+10	1	-1E+10	1
4902624	37	C	06/26/2025	00:33	-129.181	48.567	0	23.20	0	12.0007	0	32.0886	0	24.330	0	23.003	0	255.0	4	94.9	4	-1E+10	1	7.1744	4	0.004071	0	-1E+10	1	-1E+10	1	-1E+10	1
4902624	37	C	06/26/2025	00:33	-129.181	48.567	0	24.20	0	11.8992	0	32.0916	0	24.351	0	23.994	0	254.1	4	94.3	4	-1E+10	1	9.0374	4	0.004297	0	-1E+10	1	-1E+10	1	-1E+10	1
4902624	37	C	06/26/2025	00:33	-129.181	48.567	0	25.00	0	11.8180	0	32.0940	0	24.368	0	24.787	0	-1e10	1	-1e10	1	-1E+10	1	-1e10	1	-1e10	1	-1E+10	1	-1E+10	1	-1E+10	1
4902624	37	C	06/26/2025	00:33	-129.181	48.567	0	25.10	0	11.8179	0	32.0943	0	24.368	0	24.887	0	252.9	4	93.8	4	-1E+10	1	10.2127	4	0.004717	0	-1E+10	1	-1E+10	1	-1E+10	1
4902624	37	C	06/26/2025	00:33	-129.181	48.567	0	26.10	0	11.8163	0	32.0973	0	24.371	0	25.878	0	251.4	4	93.2	4	-1E+10	1	12.0134	4	0.005700	0	-1E+10	1	-1E+10	1	-1E+10	1
4902624	37	C	06/26/2025	00:33	-129.181	48.567	0	27.00	0	11.8150	0	32.1000	0	24.373	0	26.770	0	248.8	4	92.2	4	-1E+10	1	12.9818	4	0.006237	0	-1E+10	1	-1E+10	1	-1E+10	1
4902624	37	C	06/26/2025	00:33	-129.181	48.567	0	27.90	0	11.7353	0	32.1045	0	24.391	0	27.663	0	247.7	4	91.7	4	-1E+10	1	13.1745	4	0.006734	0	-1E+10	1	-1E+10	1	-1E+10	1
4902624	37	C	06/26/2025	00:33	-129.181	48.567	0	28.90	0	11.6468	0	32.1095	0	24.411	0	28.654	0	245.8	4	90.8	4	-1E+10	1	29.7986	4	0.015297	0	-1E+10	1	-1E+10	1	-1E+10	1
4902624	37	C	06/26/2025	00:33	-129.181	48.567	0	29.00	0	11.6380	0	32.1100	0	24.413	0	28.753	0	-1e10	1	-1e10	1	-1E+10	1	-1e10	1	-1e10	1	-1E+10	1	-1E+10	1	-1E+10	1
4902624	37	C	06/26/2025	00:33	-129.181	48.567	0	29.80	0	11.5076	0	32.1124	0	24.439	0	29.546	0	244.6	4	90.1	4	-1E+10	1	13.6510	4	0.005349	0	-1E+10	1	-1E+10	1	-1E+10	1
4902624	37	C	06/26/2025	00:33	-129.181	48.567	0	30.80	0	11.3446	0	32.1154	0	24.470	0	30.538	0	243.9	4	89.5	4	-1E+10	1	3.9752	4	0.002043	0	-1E+10	1	-1E+10	1	-1E+10	1
4902624	37	C	06/26/2025	00:33	-129.181	48.567	0	31.00	0	11.3120	0	32.1160	0	24.476	0	30.736	0	-1e10	1	-1e10	1	-1E+10	1	-1e10	1	-1e10	1	-1E+10	1	-1E+10	1	-1E+10	1
4902624	37	C	06/26/2025	00:33	-129.181	48.567	0	31.70	0	11.0467	0	32.1321	0	24.536	0	31.430	0	244.4	4	89.2	4	-1E+10	1	1.7763	4	0.001267	0	-1E+10	1	-1E+10	1	-1E+10	1
4902624	37	C	06/26/2025	00:33	-129.181	48.567	0	32.60	0	10.7056	0	32.1528	0	24.611	0	32.322	0	245.0	4	88.8	4	-1E+10	1	1.0877	4	0.001088	0	-1E+10	1	-1E+10	1	-1E+10	1
4902624	37	C	06/26/2025	00:33	-129.181	48.567	0	33.00	0	10.5540	0	32.1620	0	24.645	0	32.719	0	-1e10	1	-1e10	1	-1E+10	1	-1e10	1	-1e10	1	-1E+10	1	-1E+10	1	-1E+10	1
4902624	37	C	06/26/2025	00:33	-129.181	48.567	0	33.30	0	10.5058	0	32.1712	0	24.660	0	33.016	0	244.8	4	88.3	4	-1E+10	1	0.9417	4	0.001056	0	-1E+10	1	-1E+10	1	-1E+10	1
4902624	37	C	06/26/2025	00:33	-129.181	48.567	0	34.00	0	10.3935	0	32.1925	0	24.696	0	33.710	0	244.2	4	87.9	4	-1E+10	1	0.7032	4	0.000973	0	-1E+10	1	-1E+10	1	-1E+10	1
4902624	37	C	06/26/2025	00:33	-129.181	48.567	0	34.80	0	10.2651	0	32.2169	0	24.736	0	34.503	0	243.5	4	87.4	4	-1E+10	1	0.4672	4	0.000950	0	-1E+10	1	-1E+10	1	-1E+10	1
4902624	37	C	06/26/2025	00:33	-129.181	48.567	0	35.00	0	10.2330	0	32.2230	0	24.747	0	34.702	0	-1e10	1	-1e10	1	-1E+10	1	-1e10	1	-1e10	1	-1E+10	1	-1E+10	1	-1E+10	1
4902624	37	C	06/26/2025	00:33	-129.181	48.567	0	35.60	0	10.1286	0	32.2446	0	24.781	0	35.296	0	242.8	4	86.9	4	-1E+10	1	0.5606	4	0.000966	0	-1E+10	1	-1E+10	1	-1E+10	1
4902624	37	C	06/26/2025	00:33	-129.181	48.567	0	36.40	0	9.9894	0	32.2734	0	24.826	0	36.089	0	242.5	4	86.6	4	-1E+10	1	0.4964	4	0.000751	0	-1E+10	1	-1E+10	1	-1E+10	1
4902624	37	C	06/26/2025	00:33	-129.181	48.567	0	37.00	0	9.8850	0	32.2950	0	24.860	0	36.684	0	-1e10	1	-1e10	1	-1E+10	1	-1e10	1	-1e10	1	-1E+10	1	-1E+10	1	-1E+10	1
4902624	37	C	06/26/2025	00:33	-129.181	48.567	0	37.40	0	9.8552	0	32.2978	0	24.867	0	37.081	0	242.2	4	86.2	4	-1E+10	1	0.2701	4	0.000704	0	-1E+10	1	-1E+10	1	-1E+10	1
4902624	37	C	06/26/2025	00:33	-129.181	48.567	0	38.10	0	9.8031	0	32.3027	0	24.880	0	37.775	0	241.9	4	86.0	4	-1E+10	1	0.2555	4	0.000645	0	-1E+10	1	-1E+10	1	-1E+10	1
4902624	37	C	06/26/2025	00:33	-129.181	48.567	0	38.80	0	9.7509	0	32.3076	0	24.892	0	38.469	0	241.6	4	85.8	4	-1E+10	1	0.2363	4	0.000665	0	-1E+10	1	-1E+10	1	-1E+10	1
4902624	37	C	06/26/2025	00:33	-129.181	48.567	0	39.00	0	9.7360	0	32.3090	0	24.896	0	38.667	0	-1e10	1	-1e10	1	-1E+10	1	-1e10	1	-1e10	1	-1E+10	1	-1E+10	1	-1E+10	1
4902624	37	C	06/26/2025	00:33	-129.181	48.567	0	39.50	0	9.6991	0	32.3135	0	24.905	0	39.163	0	241.2	4	85.6	4	-1E+10	1	0.2141	4	0.000645	0	-1E+10	1	-1E+10	1	-1E+10	1
4902624	37	C	06/26/2025	00:33	-129.181	48.567	0	40.30	0	9.6400	0	32.3208	0	24.920	0	39.956	0	240.9	4	85.4	4	-1E+10	1	0.2181	4	0.000633	0	-1E+10	1	-1E+10	1	-1E+10	1
4902624	37	C	06/26/2025	00:33	-129.181	48.567	0	41.10	0	9.5810	0	32.3280	0	24.936	0	40.749	0	238.1	4	84.3	4	-1E+10	1	0.2263	4	0.000674	0	-1E+10	1	-1E+10	1	-1E+10	1
4902624	37	C	06/26/2025	00:33	-129.181	48.567	0	41.90	0	9.5187	0	32.3381	0	24.954	0	41.542	0	240.0	4	84.8	4	-1E+10	1	0.2307	4	0.000719	0	-1E+10	1	-1E+10	1	-1E+10	1
4902624	37	C	06/26/2025	00:33	-129.181	48.567	0	42.80	0	9.4486	0	32.3495	0	24.974	0	42.434	0	239.4	4	84.5	4	-1E+10	1	0.2295	4	0.000730	0	-1E+10	1	-1E+10	1	-1E+10	1
4902624	37	C	06/26/2025	00:33	-129.181	48.567	0	43.00	0	9.4330	0	32.3520	0	24.978	0	42.633	0	-1e10	1	-1e10	1	-1E+10	1	-1e10	1	-1e10	1	-1E+10	1	-1E+10	1	-1E+10	1
4902624	37	C	06/26/2025	00:33	-129.181	48.567	0	43.70	0	9.4106	0	32.3566	0	24.985	0	43.326	0	239.1	4	84.3	4	-1E+10	1	0.1898	4	0.000717	0	-1E+10	1	-1E+10	1	-1E+10	1
4902624	37	C	06/26/2025	00:33	-129.181	48.567	0	44.60	0	9.3818	0	32.3624	0	24.994	0	44.219	0	238.7	4	84.2	4	-1E+10	1	0.1898	4	0.000621	0	-1E+10	1	-1E+10	1	-1E+10	1
4902624	37	C	06/26/2025	00:33	-129.181	48.567	0	45.00	0	9.3690	0	32.3650	0	24.999	0	44.615	0	-1e10	1	-1e10	1	-1E+10	1	-1e10	1	-1e10	1	-1E+10	1	-1E+10	1	-1E+10	1
4902624	37	C	06/26/2025	00:33	-129.181	48.567	0	45.50	0	9.3635	0	32.3666	0	25.001	0	45.111	0	238.4	4	84.0	4	-1E+10	1	0.1838	4	0.000669	0	-1E+10	1	-1E+10	1	-1E+10	1
4902624	37	C	06/26/2025	00:33	-129.181	48.567	0	46.40	0	9.3535	0	32.3694	0	25.004	0	46.003	0	237.9	4	83.8	4	-1E+10	1	0.2052	4	0.000698	0	-1E+10	1	-1E+10	1	-1E+10	1
4902624	37	C	06/26/2025	00:33	-129.181	48.567	0	46.90	0	9.3480	0	32.3710	0	25.007	0	46.499	0	-1e10	1	-1e10	1	-1E+10	1	-1e10	1	-1e10	1	-1E+10	1	-1E+10	1	-1E+10	1
4902624	37	C	06/26/2025	00:33	-129.181	48.567	0	47.30	0	9.3476	0	32.3710	0	25.007	0	46.895	0	237.5	4	83.7	4	-1E+10	1	0.2210	4	0.000883	0	-1E+10	1	-1E+10	1	-1E+10	1
4902624	37	C	06/26/2025	00:33	-129.181	48.567	0	48.20	0	9.3468	0	32.3710	0	25.007	0	47.787	0	236.9	4	83.4	4	-1E+10	1	0.2190	4	0.000850	0	-1E+10	1	-1E+10	1	-1E+10	1
4902624	37	C	06/26/2025	00:33	-129.181	48.567	0	49.00	0	9.3460	0	32.3710	0	25.007	0	48.581	0	-1e10	1	-1e10	1	-1E+10	1	-1e10	1	-1e10	1	-1E+10	1	-1E+10	1	-1E+10	1
4902624	37	C	06/26/2025	00:33	-129.181	48.567	0	49.10	0	9.3448	0	32.3713	0	25.007	0	48.680	0	236.3	4	83.2	4	-1E+10	1	0.2085	4	0.000700	0	-1E+10	1	-1E+10	1	-1E+10	1
4902624	37	C	06/26/2025	00:33	-129.181	48.567	0	50.00	0	9.3345	0	32.3740	0	25.011	0	49.572	0	235.8	4	83.1	4	-1E+10	1	0.2256	4	0.000736	0	-1E+10	1	-1E+10	1	-1E+10	1
4902624	37	C	06/26/2025	00:33	-129.181	48.567	0	50.80	0	9.3253	0	32.3764	0	25.014	0	50.365	0	235.4	4	82.9	4	-1E+10	1	0.2635	4	0.000820	0	-1E+10	1	-1E+10	1	-1E+10	1
4902624	37	C	06/26/2025	00:33	-129.181	48.567	0	51.00	0	9.3230	0	32.3770	0	25.015	0	50.563	0	-1e10	1	-1e10	1	-1E+10	1	-1e10	1	-1e10	1	-1E+10	1	-1E+10	1	-1E+10	1
4902624	37	C	06/26/2025	00:33	-129.181	48.567	0	51.70	0	9.3191	0	32.3794	0	25.018	0	51.257	0	234.8	4	82.7	4	-1E+10	1	0.2701	4	0.000703	0	-1E+10	1	-1E+10	1	-1E+10	1
4902624	37	C	06/26/2025	00:33	-129.181	48.567	0	52.60	0	9.3142	0	32.3826	0	25.021	0	52.149	0	234.2	4	82.5	4	-1E+10	1	0.1898	4	0.000844	0	-1E+10	1	-1E+10	1	-1E+10	1
4902624	37	C	06/26/2025	00:33	-129.181	48.567	0	53.00	0	9.3120	0	32.3840	0	25.023	0	52.546	0	-1e10	1	-1e10	1	-1E+10	1	-1e10	1	-1e10	1	-1E+10	1	-1E+10	1	-1E+10	1
4902624	37	C	06/26/2025	00:33	-129.181	48.567	0	53.40	0	9.3057	0	32.3865	0	25.025	0	52.942	0	233.4	4	82.2	4	-1E+10	1	0.1956	4	0.000647	0	-1E+10	1	-1E+10	1	-1E+10	1
4902624	37	C	06/26/2025	00:33	-129.181	48.567	0	54.30	0	9.2916	0	32.3920	0	25.032	0	53.834	0	232.7	4	81.9	4	-1E+10	1	0.1785	4	0.000687	0	-1E+10	1	-1E+10	1	-1E+10	1
4902624	37	C	06/26/2025	00:33	-129.181	48.567	0	55.10	0	9.2790	0	32.3970	0	25.038	0	54.627	0	-1e10	1	-1e10	1	-1E+10	1	-1e10	1	-1e10	1	-1E+10	1	-1E+10	1	-1E+10	1
4902624	37	C	06/26/2025	00:33	-129.181	48.567	0	55.20	0	9.2776	0	32.3974	0	25.039	0	54.727	0	231.9	4	81.6	4	-1E+10	1	0.1679	4	0.000771	0	-1E+10	1	-1E+10	1	-1E+10	1
4902624	37	C	06/26/2025	00:33	-129.181	48.567	0	56.10	0	9.2650	0	32.4010	0	25.043	0	55.619	0	231.2	4	81.3	4	-1E+10	1	0.1779	4	0.000765	0	-1E+10	1	-1E+10	1	-1E+10	1
4902624	37	C	06/26/2025	00:33	-129.181	48.567	0	57.00	0	9.2524	0	32.4046	0	25.048	0	56.511	0	230.3	4	81.0	4	-1E+10	1	0.1876	4	0.000706	0	-1E+10	1	-1E+10	1	-1E+10	1
4902624	37	C	06/26/2025	00:33	-129.181	48.567	0	57.10	0	9.2510	0	32.4050	0	25.049	0	56.610	0	-1e10	1	-1e10	1	-1E+10	1	-1e10	1	-1e10	1	-1E+10	1	-1E+10	1	-1E+10	1
4902624	37	C	06/26/2025	00:33	-129.181	48.567	0	57.90	0	9.2406	0	32.4082	0	25.053	0	57.403	0	229.4	4	80.6	4	-1E+10	1	0.1825	4	0.000671	0	-1E+10	1	-1E+10	1	-1E+10	1
4902624	37	C	06/26/2025	00:33	-129.181	48.567	0	58.90	0	9.2276	0	32.4122	0	25.058	0	58.394	0	228.6	4	80.3	4	-1E+10	1	0.1781	4	0.000790	0	-1E+10	1	-1E+10	1	-1E+10	1
4902624	37	C	06/26/2025	00:33	-129.181	48.567	0	59.10	0	9.2250	0	32.4130	0	25.059	0	58.593	0	-1e10	1	-1e10	1	-1E+10	1	-1e10	1	-1e10	1	-1E+10	1	-1E+10	1	-1E+10	1
4902624	37	C	06/26/2025	00:33	-129.181	48.567	0	59.70	0	9.2155	0	32.4155	0	25.063	0	59.187	0	227.7	4	80.0	4	-1E+10	1	0.1606	4	0.001044	0	-1E+10	1	-1E+10	1	-1E+10	1
4902624	37	C	06/26/2025	00:33	-129.181	48.567	0	60.70	0	9.1997	0	32.4197	0	25.068	0	60.179	0	226.9	4	79.7	4	-1E+10	1	0.1728	4	0.000780	0	-1E+10	1	-1E+10	1	-1E+10	1
4902624	37	C	06/26/2025	00:33	-129.181	48.567	0	61.00	0	9.1950	0	32.4210	0	25.070	0	60.476	0	-1e10	1	-1e10	1	-1E+10	1	-1e10	1	-1e10	1	-1E+10	1	-1E+10	1	-1E+10	1
4902624	37	C	06/26/2025	00:33	-129.181	48.567	0	61.60	0	9.1902	0	32.4225	0	25.072	0	61.071	0	225.9	4	79.3	4	-1E+10	1	0.2093	4	0.000782	0	-1E+10	1	-1E+10	1	-1E+10	1
4902624	37	C	06/26/2025	00:33	-129.181	48.567	0	62.60	0	9.1822	0	32.4250	0	25.075	0	62.062	0	224.8	4	78.9	4	-1E+10	1	0.1925	4	0.000934	0	-1E+10	1	-1E+10	1	-1E+10	1
4902624	37	C	06/26/2025	00:33	-129.181	48.567	0	63.00	0	9.1790	0	32.4260	0	25.077	0	62.459	0	-1e10	1	-1e10	1	-1E+10	1	-1e10	1	-1e10	1	-1E+10	1	-1E+10	1	-1E+10	1
4902624	37	C	06/26/2025	00:33	-129.181	48.567	0	63.50	0	9.1730	0	32.4317	0	25.082	0	62.954	0	223.6	4	78.5	4	-1E+10	1	0.2104	4	0.000825	0	-1E+10	1	-1E+10	1	-1E+10	1
4902624	37	C	06/26/2025	00:33	-129.181	48.567	0	64.40	0	9.1623	0	32.4420	0	25.092	0	63.846	0	222.1	4	78.0	4	-1E+10	1	0.2132	4	0.000673	0	-1E+10	1	-1E+10	1	-1E+10	1
4902624	37	C	06/26/2025	00:33	-129.181	48.567	0	65.10	0	9.1540	0	32.4500	0	25.099	0	64.540	0	-1e10	1	-1e10	1	-1E+10	1	-1e10	1	-1e10	1	-1E+10	1	-1E+10	1	-1E+10	1
4902624	37	C	06/26/2025	00:33	-129.181	48.567	0	65.40	0	9.1491	0	32.4552	0	25.104	0	64.838	0	220.7	4	77.5	4	-1E+10	1	0.1703	4	0.000637	0	-1E+10	1	-1E+10	1	-1E+10	1
4902624	37	C	06/26/2025	00:33	-129.181	48.567	0	66.40	0	9.1326	0	32.4728	0	25.120	0	65.829	0	219.4	4	77.0	4	-1E+10	1	0.1448	4	0.000627	0	-1E+10	1	-1E+10	1	-1E+10	1
4902624	37	C	06/26/2025	00:33	-129.181	48.567	0	67.10	0	9.1210	0	32.4850	0	25.132	0	66.523	0	-1e10	1	-1e10	1	-1E+10	1	-1e10	1	-1e10	1	-1E+10	1	-1E+10	1	-1E+10	1
4902624	37	C	06/26/2025	00:33	-129.181	48.567	0	67.40	0	9.1163	0	32.4888	0	25.136	0	66.820	0	217.9	4	76.5	4	-1E+10	1	0.1387	4	0.000656	0	-1E+10	1	-1E+10	1	-1E+10	1
4902624	37	C	06/26/2025	00:33	-129.181	48.567	0	68.40	0	9.1005	0	32.5014	0	25.148	0	67.811	0	215.8	4	75.7	4	-1E+10	1	0.1460	4	0.000633	0	-1E+10	1	-1E+10	1	-1E+10	1
4902624	37	C	06/26/2025	00:33	-129.181	48.567	0	69.00	0	9.0910	0	32.5090	0	25.155	0	68.406	0	-1e10	1	-1e10	1	-1E+10	1	-1e10	1	-1e10	1	-1E+10	1	-1E+10	1	-1E+10	1
4902624	37	C	06/26/2025	00:33	-129.181	48.567	0	69.50	0	9.0836	0	32.5135	0	25.160	0	68.902	0	213.7	4	74.9	4	-1E+10	1	0.1398	4	0.000732	0	-1E+10	1	-1E+10	1	-1E+10	1
4902624	37	C	06/26/2025	00:33	-129.181	48.567	0	70.50	0	9.0689	0	32.5224	0	25.169	0	69.893	0	211.7	4	74.2	4	-1E+10	1	0.1484	4	0.000684	0	-1E+10	1	-1E+10	1	-1E+10	1
4902624	37	C	06/26/2025	00:33	-129.181	48.567	0	70.90	0	9.0630	0	32.5260	0	25.173	0	70.289	0	-1e10	1	-1e10	1	-1E+10	1	-1e10	1	-1e10	1	-1E+10	1	-1E+10	1	-1E+10	1
4902624	37	C	06/26/2025	00:33	-129.181	48.567	0	71.60	0	9.0467	0	32.5380	0	25.185	0	70.983	0	210.0	4	73.6	4	-1E+10	1	0.1487	4	0.006380	0	-1E+10	1	-1E+10	1	-1E+10	1
4902624	37	C	06/26/2025	00:33	-129.181	48.567	0	72.70	0	9.0210	0	32.5569	0	25.204	0	72.073	0	208.0	4	72.8	4	-1E+10	1	0.1497	4	0.005167	0	-1E+10	1	-1E+10	1	-1E+10	1
4902624	37	C	06/26/2025	00:33	-129.181	48.567	0	73.00	0	9.0140	0	32.5620	0	25.209	0	72.371	0	-1e10	1	-1e10	1	-1E+10	1	-1e10	1	-1e10	1	-1E+10	1	-1E+10	1	-1E+10	1
4902624	37	C	06/26/2025	00:33	-129.181	48.567	0	73.80	0	9.0000	0	32.5756	0	25.222	0	73.164	0	205.8	4	72.1	4	-1E+10	1	0.1484	4	0.000668	0	-1E+10	1	-1E+10	1	-1E+10	1
4902624	37	C	06/26/2025	00:33	-129.181	48.567	0	74.80	0	8.9825	0	32.5926	0	25.238	0	74.155	0	203.9	4	71.4	4	-1E+10	1	0.1372	4	0.000645	0	-1E+10	1	-1E+10	1	-1E+10	1
4902624	37	C	06/26/2025	00:33	-129.181	48.567	0	75.00	0	8.9790	0	32.5960	0	25.241	0	74.353	0	-1e10	1	-1e10	1	-1E+10	1	-1e10	1	-1e10	1	-1E+10	1	-1E+10	1	-1E+10	1
4902624	37	C	06/26/2025	00:33	-129.181	48.567	0	75.80	0	8.9630	0	32.6092	0	25.254	0	75.146	0	202.1	4	70.7	4	-1E+10	1	0.1330	4	0.000707	0	-1E+10	1	-1E+10	1	-1E+10	1
4902624	37	C	06/26/2025	00:33	-129.181	48.567	0	76.50	0	8.9490	0	32.6208	0	25.265	0	75.840	0	199.5	4	69.8	4	-1E+10	1	0.1387	4	0.000926	0	-1E+10	1	-1E+10	1	-1E+10	1
4902624	37	C	06/26/2025	00:33	-129.181	48.567	0	77.00	0	8.9390	0	32.6290	0	25.273	0	76.336	0	-1e10	1	-1e10	1	-1E+10	1	-1e10	1	-1e10	1	-1E+10	1	-1E+10	1	-1E+10	1
4902624	37	C	06/26/2025	00:33	-129.181	48.567	0	77.20	0	8.9364	0	32.6342	0	25.277	0	76.534	0	197.3	4	69.0	4	-1E+10	1	0.2352	4	0.003864	0	-1E+10	1	-1E+10	1	-1E+10	1
4902624	37	C	06/26/2025	00:33	-129.181	48.567	0	77.90	0	8.9273	0	32.6524	0	25.293	0	77.228	0	194.7	4	68.1	4	-1E+10	1	0.1742	4	0.001905	0	-1E+10	1	-1E+10	1	-1E+10	1
4902624	37	C	06/26/2025	00:33	-129.181	48.567	0	78.70	0	8.9169	0	32.6732	0	25.311	0	78.021	0	192.3	4	67.2	4	-1E+10	1	0.1484	4	0.000789	0	-1E+10	1	-1E+10	1	-1E+10	1
4902624	37	C	06/26/2025	00:33	-129.181	48.567	0	79.00	0	8.9130	0	32.6810	0	25.318	0	78.318	0	-1e10	1	-1e10	1	-1E+10	1	-1e10	1	-1e10	1	-1E+10	1	-1E+10	1	-1E+10	1
4902624	37	C	06/26/2025	00:33	-129.181	48.567	0	79.40	0	8.9024	0	32.6864	0	25.324	0	78.714	0	189.9	4	66.4	4	-1E+10	1	0.1533	4	0.000788	0	-1E+10	1	-1E+10	1	-1E+10	1
4902624	37	C	06/26/2025	00:33	-129.181	48.567	0	80.20	0	8.8812	0	32.6972	0	25.335	0	79.507	0	187.6	4	65.6	4	-1E+10	1	0.1439	4	0.000800	0	-1E+10	1	-1E+10	1	-1E+10	1
4902624	37	C	06/26/2025	00:33	-129.181	48.567	0	80.90	0	8.8626	0	32.7066	0	25.346	0	80.201	0	184.7	4	64.5	4	-1E+10	1	0.1290	4	0.000793	0	-1E+10	1	-1E+10	1	-1E+10	1
4902624	37	C	06/26/2025	00:33	-129.181	48.567	0	81.00	0	8.8600	0	32.7080	0	25.347	0	80.300	0	-1e10	1	-1e10	1	-1E+10	1	-1e10	1	-1e10	1	-1E+10	1	-1E+10	1	-1E+10	1
4902624	37	C	06/26/2025	00:33	-129.181	48.567	0	81.70	0	8.8169	0	32.7272	0	25.369	0	80.994	0	181.3	4	63.3	4	-1E+10	1	0.1226	4	0.000734	0	-1E+10	1	-1E+10	1	-1E+10	1
4902624	37	C	06/26/2025	00:33	-129.181	48.567	0	82.50	0	8.7677	0	32.7493	0	25.394	0	81.787	0	178.1	4	62.1	4	-1E+10	1	0.1168	4	0.000715	0	-1E+10	1	-1E+10	1	-1E+10	1
4902624	37	C	06/26/2025	00:33	-129.181	48.567	0	83.00	0	8.7370	0	32.7630	0	25.409	0	82.283	0	-1e10	1	-1e10	1	-1E+10	1	-1e10	1	-1e10	1	-1E+10	1	-1E+10	1	-1E+10	1
4902624	37	C	06/26/2025	00:33	-129.181	48.567	0	83.30	0	8.7193	0	32.7719	0	25.419	0	82.580	0	175.5	4	61.2	4	-1E+10	1	0.1241	4	0.000656	0	-1E+10	1	-1E+10	1	-1E+10	1
4902624	37	C	06/26/2025	00:33	-129.181	48.567	0	84.20	0	8.6662	0	32.7984	0	25.448	0	83.472	0	172.9	4	60.2	4	-1E+10	1	0.1175	4	0.000709	0	-1E+10	1	-1E+10	1	-1E+10	1
4902624	37	C	06/26/2025	00:33	-129.181	48.567	0	85.00	0	8.6190	0	32.8220	0	25.473	0	84.265	0	168.7	4	58.7	4	-1E+10	1	0.1117	4	0.000584	0	-1E+10	1	-1E+10	1	-1E+10	1
4902624	37	C	06/26/2025	00:33	-129.181	48.567	0	85.90	0	8.5884	0	32.8544	0	25.503	0	85.157	0	169.6	4	59.0	4	-1E+10	1	0.0998	4	0.000535	0	-1E+10	1	-1E+10	1	-1E+10	1
4902624	37	C	06/26/2025	00:33	-129.181	48.567	0	86.70	0	8.5612	0	32.8832	0	25.530	0	85.950	0	168.1	4	58.4	4	-1E+10	1	0.0985	4	0.000645	0	-1E+10	1	-1E+10	1	-1E+10	1
4902624	37	C	06/26/2025	00:33	-129.181	48.567	0	87.00	0	8.5510	0	32.8940	0	25.540	0	86.247	0	-1e10	1	-1e10	1	-1E+10	1	-1e10	1	-1e10	1	-1E+10	1	-1E+10	1	-1E+10	1
4902624	37	C	06/26/2025	00:33	-129.181	48.567	0	87.50	0	8.5495	0	32.8965	0	25.542	0	86.743	0	166.5	4	57.8	4	-1E+10	1	0.1088	4	0.000683	0	-1E+10	1	-1E+10	1	-1E+10	1
4902624	37	C	06/26/2025	00:33	-129.181	48.567	0	88.30	0	8.5471	0	32.9005	0	25.546	0	87.536	0	164.7	4	57.2	4	-1E+10	1	0.1231	4	0.000554	0	-1E+10	1	-1E+10	1	-1E+10	1
4902624	37	C	06/26/2025	00:33	-129.181	48.567	0	89.00	0	8.5450	0	32.9040	0	25.549	0	88.230	0	-1e10	1	-1e10	1	-1E+10	1	-1e10	1	-1e10	1	-1E+10	1	-1E+10	1	-1E+10	1
4902624	37	C	06/26/2025	00:33	-129.181	48.567	0	89.10	0	8.5443	0	32.9047	0	25.549	0	88.329	0	162.8	4	56.6	4	-1E+10	1	0.1217	4	0.000686	0	-1E+10	1	-1E+10	1	-1E+10	1
4902624	37	C	06/26/2025	00:33	-129.181	48.567	0	89.80	0	8.5394	0	32.9096	0	25.554	0	89.022	0	160.7	4	55.8	4	-1E+10	1	0.1387	4	0.000586	0	-1E+10	1	-1E+10	1	-1E+10	1
4902624	37	C	06/26/2025	00:33	-129.181	48.567	0	90.50	0	8.5345	0	32.9145	0	25.559	0	89.716	0	158.0	4	54.9	4	-1E+10	1	0.1160	4	0.000631	0	-1E+10	1	-1E+10	1	-1E+10	1
4902624	37	C	06/26/2025	00:33	-129.181	48.567	0	91.00	0	8.5310	0	32.9180	0	25.562	0	90.212	0	-1e10	1	-1e10	1	-1E+10	1	-1e10	1	-1e10	1	-1E+10	1	-1E+10	1	-1E+10	1
4902624	37	C	06/26/2025	00:33	-129.181	48.567	0	91.30	0	8.5180	0	32.9339	0	25.576	0	90.509	0	154.5	4	53.6	4	-1E+10	1	0.1095	4	0.000548	0	-1E+10	1	-1E+10	1	-1E+10	1
4902624	37	C	06/26/2025	00:33	-129.181	48.567	0	92.10	0	8.4832	0	32.9763	0	25.615	0	91.302	0	151.5	4	52.6	4	-1E+10	1	0.1144	4	0.000594	0	-1E+10	1	-1E+10	1	-1E+10	1
4902624	37	C	06/26/2025	00:33	-129.181	48.567	0	92.90	0	8.4483	0	33.0187	0	25.653	0	92.095	0	149.2	4	51.8	4	-1E+10	1	0.1132	4	0.000556	0	-1E+10	1	-1E+10	1	-1E+10	1
4902624	37	C	06/26/2025	00:33	-129.181	48.567	0	93.00	0	8.4440	0	33.0240	0	25.658	0	92.194	0	-1e10	1	-1e10	1	-1E+10	1	-1e10	1	-1e10	1	-1E+10	1	-1E+10	1	-1E+10	1
4902624	37	C	06/26/2025	00:33	-129.181	48.567	0	93.70	0	8.3985	0	33.0793	0	25.708	0	92.888	0	147.4	4	51.1	4	-1E+10	1	0.1095	4	0.000463	0	-1E+10	1	-1E+10	1	-1E+10	1
4902624	37	C	06/26/2025	00:33	-129.181	48.567	0	94.60	0	8.3400	0	33.1504	0	25.773	0	93.780	0	145.8	4	50.5	4	-1E+10	1	0.0998	4	0.000407	0	-1E+10	1	-1E+10	1	-1E+10	1
4902624	37	C	06/26/2025	00:33	-129.181	48.567	0	95.00	0	8.3140	0	33.1820	0	25.802	0	94.176	0	-1e10	1	-1e10	1	-1E+10	1	-1e10	1	-1e10	1	-1E+10	1	-1E+10	1	-1E+10	1
4902624	37	C	06/26/2025	00:33	-129.181	48.567	0	95.40	0	8.2898	0	33.2026	0	25.821	0	94.573	0	144.3	4	50.0	4	-1E+10	1	0.0856	4	0.000394	0	-1E+10	1	-1E+10	1	-1E+10	1
4902624	37	C	06/26/2025	00:33	-129.181	48.567	0	96.30	0	8.2353	0	33.2490	0	25.866	0	95.465	0	143.4	4	49.6	4	-1E+10	1	0.0819	4	0.000444	0	-1E+10	1	-1E+10	1	-1E+10	1
4902624	37	C	06/26/2025	00:33	-129.181	48.567	0	97.00	0	8.1930	0	33.2850	0	25.900	0	96.158	0	-1e10	1	-1e10	1	-1E+10	1	-1e10	1	-1e10	1	-1E+10	1	-1E+10	1	-1E+10	1
4902624	37	C	06/26/2025	00:33	-129.181	48.567	0	97.20	0	8.1890	0	33.2885	0	25.904	0	96.357	0	142.5	4	49.3	4	-1E+10	1	0.0927	4	0.000430	0	-1E+10	1	-1E+10	1	-1E+10	1
4902624	37	C	06/26/2025	00:33	-129.181	48.567	0	98.10	0	8.1710	0	33.3042	0	25.919	0	97.249	0	141.6	4	48.9	4	-1E+10	1	0.0730	4	0.000398	0	-1E+10	1	-1E+10	1	-1E+10	1
4902624	37	C	06/26/2025	00:33	-129.181	48.567	0	99.00	0	8.1530	0	33.3200	0	25.934	0	98.141	0	138.0	4	47.7	4	-1E+10	1	0.0730	4	0.000398	0	-1E+10	1	-1E+10	1	-1E+10	1
4902624	37	C	06/26/2025	00:33	-129.181	48.567	0	99.80	0	8.1328	0	33.3368	0	25.950	0	98.933	0	139.4	4	48.2	4	-1E+10	1	0.0787	4	0.000380	0	-1E+10	1	-1E+10	1	-1E+10	1
4902624	37	C	06/26/2025	00:33	-129.181	48.567	0	100.80	0	8.1075	0	33.3579	0	25.970	0	99.925	0	138.4	4	47.8	4	-1E+10	1	0.0909	4	0.000366	0	-1E+10	1	-1E+10	1	-1E+10	1
4902624	37	C	06/26/2025	00:33	-129.181	48.567	0	100.90	0	8.1050	0	33.3600	0	25.972	0	100.024	0	-1e10	1	-1e10	1	-1E+10	1	-1e10	1	-1e10	1	-1E+10	1	-1E+10	1	-1E+10	1
4902624	37	C	06/26/2025	00:33	-129.181	48.567	0	101.70	0	8.0755	0	33.3865	0	25.997	0	100.816	0	137.4	4	47.4	4	-1E+10	1	0.0839	4	0.000357	0	-1E+10	1	-1E+10	1	-1E+10	1
4902624	37	C	06/26/2025	00:33	-129.181	48.567	0	102.70	0	8.0387	0	33.4197	0	26.029	0	101.808	0	136.9	4	47.2	4	-1E+10	1	0.0730	4	0.001144	0	-1E+10	1	-1E+10	1	-1E+10	1
4902624	37	C	06/26/2025	00:33	-129.181	48.567	0	102.80	0	8.0350	0	33.4230	0	26.032	0	101.907	0	-1e10	1	-1e10	1	-1E+10	1	-1e10	1	-1e10	1	-1E+10	1	-1E+10	1	-1E+10	1
4902624	37	C	06/26/2025	00:33	-129.181	48.567	0	103.60	0	8.0005	0	33.4405	0	26.051	0	102.700	0	136.4	4	47.0	4	-1E+10	1	0.0730	4	0.001503	0	-1E+10	1	-1E+10	1	-1E+10	1
4902624	37	C	06/26/2025	00:33	-129.181	48.567	0	104.40	0	7.9659	0	33.4579	0	26.070	0	103.492	0	135.9	4	46.8	4	-1E+10	1	0.0721	4	0.000394	0	-1E+10	1	-1E+10	1	-1E+10	1
4902624	37	C	06/26/2025	00:33	-129.181	48.567	0	105.00	0	7.9400	0	33.4710	0	26.084	0	104.087	0	-1e10	1	-1e10	1	-1E+10	1	-1e10	1	-1e10	1	-1E+10	1	-1E+10	1	-1E+10	1
4902624	37	C	06/26/2025	00:33	-129.181	48.567	0	105.10	0	7.9349	0	33.4728	0	26.086	0	104.186	0	135.4	4	46.6	4	-1E+10	1	0.0657	4	0.000363	0	-1E+10	1	-1E+10	1	-1E+10	1
4902624	37	C	06/26/2025	00:33	-129.181	48.567	0	105.70	0	7.9040	0	33.4832	0	26.099	0	104.781	0	135.0	4	46.4	4	-1E+10	1	0.0584	4	0.000468	0	-1E+10	1	-1E+10	1	-1E+10	1
4902624	37	C	06/26/2025	00:33	-129.181	48.567	0	106.20	0	7.8782	0	33.4920	0	26.109	0	105.276	0	134.5	4	46.2	4	-1E+10	1	0.0645	4	0.000380	0	-1E+10	1	-1E+10	1	-1E+10	1
4902624	37	C	06/26/2025	00:33	-129.181	48.567	0	106.70	0	7.8524	0	33.5008	0	26.120	0	105.772	0	134.1	4	46.1	4	-1E+10	1	0.0615	4	0.000377	0	-1E+10	1	-1E+10	1	-1E+10	1
4902624	37	C	06/26/2025	00:33	-129.181	48.567	0	107.00	0	7.8370	0	33.5060	0	26.126	0	106.069	0	-1e10	1	-1e10	1	-1E+10	1	-1e10	1	-1e10	1	-1E+10	1	-1E+10	1	-1E+10	1
4902624	37	C	06/26/2025	00:33	-129.181	48.567	0	107.30	0	7.8291	0	33.5101	0	26.130	0	106.366	0	133.6	4	45.9	4	-1E+10	1	0.0540	4	0.000352	0	-1E+10	1	-1E+10	1	-1E+10	1
4902624	37	C	06/26/2025	00:33	-129.181	48.567	0	107.90	0	7.8131	0	33.5182	0	26.139	0	106.961	0	133.2	4	45.7	4	-1E+10	1	0.0511	4	0.000341	0	-1E+10	1	-1E+10	1	-1E+10	1
4902624	37	C	06/26/2025	00:33	-129.181	48.567	0	108.40	0	7.7999	0	33.5249	0	26.146	0	107.457	0	132.9	4	45.6	4	-1E+10	1	0.0560	4	0.000371	0	-1E+10	1	-1E+10	1	-1E+10	1
4902624	37	C	06/26/2025	00:33	-129.181	48.567	0	108.90	0	7.7866	0	33.5317	0	26.154	0	107.952	0	132.6	4	45.5	4	-1E+10	1	0.0633	4	0.000398	0	-1E+10	1	-1E+10	1	-1E+10	1
4902624	37	C	06/26/2025	00:33	-129.181	48.567	0	109.00	0	7.7840	0	33.5330	0	26.155	0	108.051	0	-1e10	1	-1e10	1	-1E+10	1	-1e10	1	-1e10	1	-1E+10	1	-1E+10	1	-1E+10	1
4902624	37	C	06/26/2025	00:33	-129.181	48.567	0	109.50	0	7.7842	0	33.5350	0	26.157	0	108.547	0	132.2	4	45.4	4	-1E+10	1	0.0521	4	0.000339	0	-1E+10	1	-1E+10	1	-1E+10	1
4902624	37	C	06/26/2025	00:33	-129.181	48.567	0	110.10	0	7.7845	0	33.5374	0	26.158	0	109.141	0	131.7	4	45.2	4	-1E+10	1	0.0584	4	0.000339	0	-1E+10	1	-1E+10	1	-1E+10	1
4902624	37	C	06/26/2025	00:33	-129.181	48.567	0	110.70	0	7.7848	0	33.5398	0	26.160	0	109.736	0	131.3	4	45.0	4	-1E+10	1	0.0584	4	0.000440	0	-1E+10	1	-1E+10	1	-1E+10	1
4902624	37	C	06/26/2025	00:33	-129.181	48.567	0	111.00	0	7.7850	0	33.5410	0	26.161	0	110.033	0	-1e10	1	-1e10	1	-1E+10	1	-1e10	1	-1e10	1	-1E+10	1	-1E+10	1	-1E+10	1
4902624	37	C	06/26/2025	00:33	-129.181	48.567	0	111.30	0	7.7789	0	33.5434	0	26.164	0	110.331	0	130.8	4	44.9	4	-1E+10	1	0.0523	4	0.000584	0	-1E+10	1	-1E+10	1	-1E+10	1
4902624	37	C	06/26/2025	00:33	-129.181	48.567	0	111.90	0	7.7666	0	33.5482	0	26.170	0	110.925	0	130.5	4	44.8	4	-1E+10	1	0.0667	4	0.000391	0	-1E+10	1	-1E+10	1	-1E+10	1
4902624	37	C	06/26/2025	00:33	-129.181	48.567	0	112.60	0	7.7522	0	33.5538	0	26.176	0	111.619	0	130.1	4	44.6	4	-1E+10	1	0.0568	4	0.000325	0	-1E+10	1	-1E+10	1	-1E+10	1
4902624	37	C	06/26/2025	00:33	-129.181	48.567	0	113.00	0	7.7440	0	33.5570	0	26.180	0	112.015	0	-1e10	1	-1e10	1	-1E+10	1	-1e10	1	-1e10	1	-1E+10	1	-1E+10	1	-1E+10	1
4902624	37	C	06/26/2025	00:33	-129.181	48.567	0	113.20	0	7.7356	0	33.5600	0	26.183	0	112.213	0	129.7	4	44.5	4	-1E+10	1	0.0459	4	0.000341	0	-1E+10	1	-1E+10	1	-1E+10	1
4902624	37	C	06/26/2025	00:33	-129.181	48.567	0	113.90	0	7.7063	0	33.5707	0	26.196	0	112.907	0	129.2	4	44.3	4	-1E+10	1	0.0527	4	0.000358	0	-1E+10	1	-1E+10	1	-1E+10	1
4902624	37	C	06/26/2025	00:33	-129.181	48.567	0	114.70	0	7.6728	0	33.5829	0	26.210	0	113.700	0	128.6	4	44.0	4	-1E+10	1	0.0576	4	0.000412	0	-1E+10	1	-1E+10	1	-1E+10	1
4902624	37	C	06/26/2025	00:33	-129.181	48.567	0	115.10	0	7.6560	0	33.5890	0	26.218	0	114.096	0	-1e10	1	-1e10	1	-1E+10	1	-1e10	1	-1e10	1	-1E+10	1	-1E+10	1	-1E+10	1
4902624	37	C	06/26/2025	00:33	-129.181	48.567	0	115.50	0	7.6538	0	33.5936	0	26.221	0	114.493	0	128.0	4	43.8	4	-1E+10	1	0.0511	4	0.000339	0	-1E+10	1	-1E+10	1	-1E+10	1
4902624	37	C	06/26/2025	00:33	-129.181	48.567	0	116.30	0	7.6494	0	33.6028	0	26.229	0	115.286	0	127.7	4	43.7	4	-1E+10	1	0.0657	4	0.000339	0	-1E+10	1	-1E+10	1	-1E+10	1
4902624	37	C	06/26/2025	00:33	-129.181	48.567	0	117.10	0	7.6450	0	33.6120	0	26.237	0	116.078	0	124.7	4	42.7	4	-1E+10	1	0.0599	4	0.000339	0	-1E+10	1	-1E+10	1	-1E+10	1
4902624	37	C	06/26/2025	00:33	-129.181	48.567	0	117.90	0	7.5934	0	33.6232	0	26.253	0	116.871	0	127.3	4	43.5	4	-1E+10	1	0.0496	4	0.000318	0	-1E+10	1	-1E+10	1	-1E+10	1
4902624	37	C	06/26/2025	00:33	-129.181	48.567	0	118.80	0	7.5353	0	33.6358	0	26.272	0	117.763	0	127.1	4	43.4	4	-1E+10	1	0.0402	4	0.000327	0	-1E+10	1	-1E+10	1	-1E+10	1
4902624	37	C	06/26/2025	00:33	-129.181	48.567	0	119.10	0	7.5160	0	33.6400	0	26.278	0	118.060	0	-1e10	1	-1e10	1	-1E+10	1	-1e10	1	-1e10	1	-1E+10	1	-1E+10	1	-1E+10	1
4902624	37	C	06/26/2025	00:33	-129.181	48.567	0	119.60	0	7.4999	0	33.6408	0	26.280	0	118.556	0	126.7	4	43.2	4	-1E+10	1	0.0420	4	0.000342	0	-1E+10	1	-1E+10	1	-1E+10	1
4902624	37	C	06/26/2025	00:33	-129.181	48.567	0	120.50	0	7.4711	0	33.6422	0	26.286	0	119.448	0	125.9	4	42.9	4	-1E+10	1	0.0569	4	0.000332	0	-1E+10	1	-1E+10	1	-1E+10	1
4902624	37	C	06/26/2025	00:33	-129.181	48.567	0	121.00	0	7.4550	0	33.6430	0	26.289	0	119.943	0	-1e10	1	-1e10	1	-1E+10	1	-1e10	1	-1e10	1	-1E+10	1	-1E+10	1	-1E+10	1
4902624	37	C	06/26/2025	00:33	-129.181	48.567	0	121.30	0	7.4539	0	33.6438	0	26.289	0	120.241	0	125.0	4	42.6	4	-1E+10	1	0.0625	4	0.000337	0	-1E+10	1	-1E+10	1	-1E+10	1
4902624	37	C	06/26/2025	00:33	-129.181	48.567	0	122.20	0	7.4508	0	33.6460	0	26.292	0	121.132	0	124.0	4	42.3	4	-1E+10	1	0.0511	4	0.000330	0	-1E+10	1	-1E+10	1	-1E+10	1
4902624	37	C	06/26/2025	00:33	-129.181	48.567	0	123.00	0	7.4480	0	33.6480	0	26.294	0	121.925	0	-1e10	1	-1e10	1	-1E+10	1	-1e10	1	-1e10	1	-1E+10	1	-1E+10	1	-1E+10	1
4902624	37	C	06/26/2025	00:33	-129.181	48.567	0	123.10	0	7.4487	0	33.6483	0	26.294	0	122.024	0	123.0	4	41.9	4	-1E+10	1	0.0511	4	0.000339	0	-1E+10	1	-1E+10	1	-1E+10	1
4902624	37	C	06/26/2025	00:33	-129.181	48.567	0	124.00	0	7.4551	0	33.6509	0	26.295	0	122.916	0	121.9	4	41.6	4	-1E+10	1	0.0511	4	0.000387	0	-1E+10	1	-1E+10	1	-1E+10	1
4902624	37	C	06/26/2025	00:33	-129.181	48.567	0	124.90	0	7.4616	0	33.6534	0	26.296	0	123.808	0	120.9	4	41.2	4	-1E+10	1	0.0511	4	0.000408	0	-1E+10	1	-1E+10	1	-1E+10	1
4902624	37	C	06/26/2025	00:33	-129.181	48.567	0	125.10	0	7.4630	0	33.6540	0	26.296	0	124.006	0	-1e10	1	-1e10	1	-1E+10	1	-1e10	1	-1e10	1	-1E+10	1	-1E+10	1	-1E+10	1
4902624	37	C	06/26/2025	00:33	-129.181	48.567	0	125.70	0	7.4702	0	33.6585	0	26.299	0	124.601	0	119.9	4	40.9	4	-1E+10	1	0.0511	4	0.000424	0	-1E+10	1	-1E+10	1	-1E+10	1
4902624	37	C	06/26/2025	00:33	-129.181	48.567	0	126.70	0	7.4822	0	33.6660	0	26.303	0	125.592	0	118.9	4	40.6	4	-1E+10	1	0.0471	4	0.000395	0	-1E+10	1	-1E+10	1	-1E+10	1
4902624	37	C	06/26/2025	00:33	-129.181	48.567	0	127.10	0	7.4870	0	33.6690	0	26.305	0	125.988	0	-1e10	1	-1e10	1	-1E+10	1	-1e10	1	-1e10	1	-1E+10	1	-1E+10	1	-1E+10	1
4902624	37	C	06/26/2025	00:33	-129.181	48.567	0	127.60	0	7.4973	0	33.6761	0	26.309	0	126.484	0	118.1	4	40.3	4	-1E+10	1	0.0503	4	0.000357	0	-1E+10	1	-1E+10	1	-1E+10	1
4902624	37	C	06/26/2025	00:33	-129.181	48.567	0	128.50	0	7.5157	0	33.6889	0	26.316	0	127.375	0	117.5	4	40.1	4	-1E+10	1	0.0560	4	0.000359	0	-1E+10	1	-1E+10	1	-1E+10	1
4902624	37	C	06/26/2025	00:33	-129.181	48.567	0	129.00	0	7.5260	0	33.6960	0	26.320	0	127.871	0	-1e10	1	-1e10	1	-1E+10	1	-1e10	1	-1e10	1	-1E+10	1	-1E+10	1	-1E+10	1
4902624	37	C	06/26/2025	00:33	-129.181	48.567	0	129.50	0	7.5328	0	33.6989	0	26.322	0	128.366	0	116.9	4	39.9	4	-1E+10	1	0.0524	4	0.000372	0	-1E+10	1	-1E+10	1	-1E+10	1
4902624	37	C	06/26/2025	00:33	-129.181	48.567	0	130.40	0	7.5452	0	33.7041	0	26.324	0	129.258	0	116.5	4	39.8	4	-1E+10	1	0.0584	4	0.000363	0	-1E+10	1	-1E+10	1	-1E+10	1
4902624	37	C	06/26/2025	00:33	-129.181	48.567	0	130.90	0	7.5520	0	33.7070	0	26.325	0	129.754	0	-1e10	1	-1e10	1	-1E+10	1	-1e10	1	-1e10	1	-1E+10	1	-1E+10	1	-1E+10	1
4902624	37	C	06/26/2025	00:33	-129.181	48.567	0	131.30	0	7.5541	0	33.7078	0	26.326	0	130.150	0	116.0	4	39.7	4	-1E+10	1	0.0438	4	0.000433	0	-1E+10	1	-1E+10	1	-1E+10	1
4902624	37	C	06/26/2025	00:33	-129.181	48.567	0	132.30	0	7.5593	0	33.7097	0	26.326	0	131.141	0	115.5	4	39.5	4	-1E+10	1	0.0499	4	0.000501	0	-1E+10	1	-1E+10	1	-1E+10	1
4902624	37	C	06/26/2025	00:33	-129.181	48.567	0	133.00	0	7.5630	0	33.7110	0	26.327	0	131.835	0	-1e10	1	-1e10	1	-1E+10	1	-1e10	1	-1e10	1	-1E+10	1	-1E+10	1	-1E+10	1
4902624	37	C	06/26/2025	00:33	-129.181	48.567	0	133.20	0	7.5642	0	33.7111	0	26.327	0	132.033	0	115.0	4	39.3	4	-1E+10	1	0.0511	4	0.000425	0	-1E+10	1	-1E+10	1	-1E+10	1
4902624	37	C	06/26/2025	00:33	-129.181	48.567	0	134.20	0	7.5702	0	33.7116	0	26.326	0	133.024	0	114.3	4	39.1	4	-1E+10	1	0.0462	4	0.000390	0	-1E+10	1	-1E+10	1	-1E+10	1
4902624	37	C	06/26/2025	00:33	-129.181	48.567	0	135.00	0	7.5750	0	33.7120	0	26.326	0	133.816	0	-1e10	1	-1e10	1	-1E+10	1	-1e10	1	-1e10	1	-1E+10	1	-1E+10	1	-1E+10	1
4902624	37	C	06/26/2025	00:33	-129.181	48.567	0	135.10	0	7.5756	0	33.7123	0	26.326	0	133.916	0	113.7	4	38.9	4	-1E+10	1	0.0474	4	0.000380	0	-1E+10	1	-1E+10	1	-1E+10	1
4902624	37	C	06/26/2025	00:33	-129.181	48.567	0	136.00	0	7.5808	0	33.7152	0	26.328	0	134.807	0	113.0	4	38.7	4	-1E+10	1	0.0571	4	0.000401	0	-1E+10	1	-1E+10	1	-1E+10	1
4902624	37	C	06/26/2025	00:33	-129.181	48.567	0	136.90	0	7.5860	0	33.7180	0	26.329	0	135.699	0	-1e10	1	-1e10	1	-1E+10	1	-1e10	1	-1e10	1	-1E+10	1	-1E+10	1	-1E+10	1
4902624	37	C	06/26/2025	00:33	-129.181	48.567	0	137.00	0	7.5851	0	33.7192	0	26.330	0	135.798	0	112.4	4	38.4	4	-1E+10	1	0.0672	4	0.000489	0	-1E+10	1	-1E+10	1	-1E+10	1
4902624	37	C	06/26/2025	00:33	-129.181	48.567	0	138.00	0	7.5766	0	33.7311	0	26.341	0	136.789	0	111.5	4	38.1	4	-1E+10	1	0.0438	4	0.000431	0	-1E+10	1	-1E+10	1	-1E+10	1
4902624	37	C	06/26/2025	00:33	-129.181	48.567	0	139.00	0	7.5680	0	33.7430	0	26.351	0	137.780	0	-1e10	1	-1e10	1	-1E+10	1	-1e10	1	-1e10	1	-1E+10	1	-1E+10	1	-1E+10	1
4902624	37	C	06/26/2025	00:33	-129.181	48.567	0	139.10	0	7.5660	0	33.7440	0	26.353	0	137.879	0	110.7	4	37.9	4	-1E+10	1	0.0438	4	0.000421	0	-1E+10	1	-1E+10	1	-1E+10	1
4902624	37	C	06/26/2025	00:33	-129.181	48.567	0	140.10	0	7.5455	0	33.7540	0	26.363	0	138.870	0	110.1	4	37.6	4	-1E+10	1	0.0499	4	0.000421	0	-1E+10	1	-1E+10	1	-1E+10	1
4902624	37	C	06/26/2025	00:33	-129.181	48.567	0	141.10	0	7.5250	0	33.7640	0	26.374	0	139.861	0	107.0	4	36.6	4	-1E+10	1	0.0453	4	0.000815	0	-1E+10	1	-1E+10	1	-1E+10	1
4902624	37	C	06/26/2025	00:33	-129.181	48.567	0	142.20	0	7.5053	0	33.7698	0	26.381	0	140.951	0	108.6	4	37.1	4	-1E+10	1	0.0539	4	0.000605	0	-1E+10	1	-1E+10	1	-1E+10	1
4902624	37	C	06/26/2025	00:33	-129.181	48.567	0	143.00	0	7.4910	0	33.7740	0	26.387	0	141.744	0	-1e10	1	-1e10	1	-1E+10	1	-1e10	1	-1e10	1	-1E+10	1	-1E+10	1	-1E+10	1
4902624	37	C	06/26/2025	00:33	-129.181	48.567	0	143.20	0	7.4904	0	33.7741	0	26.387	0	141.942	0	107.9	4	36.8	4	-1E+10	1	0.0517	4	0.000468	0	-1E+10	1	-1E+10	1	-1E+10	1
4902624	37	C	06/26/2025	00:33	-129.181	48.567	0	144.30	0	7.4871	0	33.7747	0	26.388	0	143.032	0	107.0	4	36.5	4	-1E+10	1	0.0491	4	0.000447	0	-1E+10	1	-1E+10	1	-1E+10	1
4902624	37	C	06/26/2025	00:33	-129.181	48.567	0	145.00	0	7.4850	0	33.7750	0	26.389	0	143.725	0	-1e10	1	-1e10	1	-1E+10	1	-1e10	1	-1e10	1	-1E+10	1	-1E+10	1	-1E+10	1
4902624	37	C	06/26/2025	00:33	-129.181	48.567	0	145.40	0	7.4828	0	33.7756	0	26.389	0	144.122	0	106.2	4	36.3	4	-1E+10	1	0.0633	4	0.000453	0	-1E+10	1	-1E+10	1	-1E+10	1
4902624	37	C	06/26/2025	00:33	-129.181	48.567	0	146.50	0	7.4767	0	33.7773	0	26.391	0	145.212	0	105.0	4	35.9	4	-1E+10	1	0.0713	4	0.000528	0	-1E+10	1	-1E+10	1	-1E+10	1
4902624	37	C	06/26/2025	00:33	-129.181	48.567	0	147.00	0	7.4740	0	33.7780	0	26.392	0	145.707	0	-1e10	1	-1e10	1	-1E+10	1	-1e10	1	-1e10	1	-1E+10	1	-1E+10	1	-1E+10	1
4902624	37	C	06/26/2025	00:33	-129.181	48.567	0	147.50	0	7.4716	0	33.7785	0	26.393	0	146.202	0	103.7	4	35.4	4	-1E+10	1	0.0657	4	0.000491	0	-1E+10	1	-1E+10	1	-1E+10	1
4902624	37	C	06/26/2025	00:33	-129.181	48.567	0	148.60	0	7.4664	0	33.7795	0	26.395	0	147.292	0	102.3	4	34.9	4	-1E+10	1	0.0657	4	0.000456	0	-1E+10	1	-1E+10	1	-1E+10	1
4902624	37	C	06/26/2025	00:33	-129.181	48.567	0	149.10	0	7.4640	0	33.7800	0	26.395	0	147.788	0	-1e10	1	-1e10	1	-1E+10	1	-1e10	1	-1e10	1	-1E+10	1	-1E+10	1	-1E+10	1
4902624	37	C	06/26/2025	00:33	-129.181	48.567	0	149.70	0	7.4583	0	33.7819	0	26.398	0	148.382	0	100.8	4	34.4	4	-1E+10	1	0.0533	4	0.000496	0	-1E+10	1	-1E+10	1	-1E+10	1
4902624	37	C	06/26/2025	00:33	-129.181	48.567	0	150.80	0	7.4479	0	33.7854	0	26.402	0	149.472	0	99.5	4	34.0	4	-1E+10	1	0.0612	4	0.000471	0	-1E+10	1	-1E+10	1	-1E+10	1
4902624	37	C	06/26/2025	00:33	-129.181	48.567	0	151.00	0	7.4460	0	33.7860	0	26.403	0	149.670	0	-1e10	1	-1e10	1	-1E+10	1	-1e10	1	-1e10	1	-1E+10	1	-1E+10	1	-1E+10	1
4902624	37	C	06/26/2025	00:33	-129.181	48.567	0	151.90	0	7.4374	0	33.7941	0	26.410	0	150.562	0	98.6	4	33.6	4	-1E+10	1	0.0611	4	0.000464	0	-1E+10	1	-1E+10	1	-1E+10	1
4902624	37	C	06/26/2025	00:33	-129.181	48.567	0	153.00	0	7.4270	0	33.8040	0	26.420	0	151.652	0	95.8	4	32.7	4	-1E+10	1	0.0584	4	0.000518	0	-1E+10	1	-1E+10	1	-1E+10	1
4902624	37	C	06/26/2025	00:33	-129.181	48.567	0	154.10	0	7.4215	0	33.8111	0	26.426	0	152.742	0	97.5	4	33.2	4	-1E+10	1	0.0558	4	0.000562	0	-1E+10	1	-1E+10	1	-1E+10	1
4902624	37	C	06/26/2025	00:33	-129.181	48.567	0	155.00	0	7.4170	0	33.8170	0	26.431	0	153.634	0	-1e10	1	-1e10	1	-1E+10	1	-1e10	1	-1e10	1	-1E+10	1	-1E+10	1	-1E+10	1
4902624	37	C	06/26/2025	00:33	-129.181	48.567	0	155.20	0	7.4175	0	33.8176	0	26.432	0	153.832	0	96.9	4	33.1	4	-1E+10	1	0.0577	4	0.000556	0	-1E+10	1	-1E+10	1	-1E+10	1
4902624	37	C	06/26/2025	00:33	-129.181	48.567	0	156.30	0	7.4202	0	33.8209	0	26.434	0	154.922	0	96.4	4	32.9	4	-1E+10	1	0.0796	4	0.000520	0	-1E+10	1	-1E+10	1	-1E+10	1
4902624	37	C	06/26/2025	00:33	-129.181	48.567	0	157.00	0	7.4220	0	33.8230	0	26.435	0	155.615	0	-1e10	1	-1e10	1	-1E+10	1	-1e10	1	-1e10	1	-1E+10	1	-1E+10	1	-1E+10	1
4902624	37	C	06/26/2025	00:33	-129.181	48.567	0	157.40	0	7.4218	0	33.8248	0	26.437	0	156.012	0	95.9	4	32.7	4	-1E+10	1	0.0472	4	0.000493	0	-1E+10	1	-1E+10	1	-1E+10	1
4902624	37	C	06/26/2025	00:33	-129.181	48.567	0	158.50	0	7.4212	0	33.8298	0	26.441	0	157.101	0	95.4	4	32.5	4	-1E+10	1	0.0657	4	0.000503	0	-1E+10	1	-1E+10	1	-1E+10	1
4902624	37	C	06/26/2025	00:33	-129.181	48.567	0	159.00	0	7.4210	0	33.8320	0	26.443	0	157.597	0	-1e10	1	-1e10	1	-1E+10	1	-1e10	1	-1e10	1	-1E+10	1	-1E+10	1	-1E+10	1
4902624	37	C	06/26/2025	00:33	-129.181	48.567	0	159.70	0	7.4020	0	33.8357	0	26.448	0	158.290	0	94.8	4	32.3	4	-1E+10	1	0.0657	4	0.000527	0	-1E+10	1	-1E+10	1	-1E+10	1
4902624	37	C	06/26/2025	00:33	-129.181	48.567	0	160.80	0	7.3721	0	33.8414	0	26.457	0	159.380	0	94.4	4	32.2	4	-1E+10	1	0.0657	4	0.000537	0	-1E+10	1	-1E+10	1	-1E+10	1
4902624	37	C	06/26/2025	00:33	-129.181	48.567	0	161.10	0	7.3640	0	33.8430	0	26.459	0	159.678	0	-1e10	1	-1e10	1	-1E+10	1	-1e10	1	-1e10	1	-1E+10	1	-1E+10	1	-1E+10	1
4902624	37	C	06/26/2025	00:33	-129.181	48.567	0	162.00	0	7.3531	0	33.8454	0	26.463	0	160.569	0	93.9	4	32.0	4	-1E+10	1	0.0516	4	0.000501	0	-1E+10	1	-1E+10	1	-1E+10	1
4902624	37	C	06/26/2025	00:33	-129.181	48.567	0	163.00	0	7.3410	0	33.8480	0	26.466	0	161.560	0	-1e10	1	-1e10	1	-1E+10	1	-1e10	1	-1e10	1	-1E+10	1	-1E+10	1	-1E+10	1
4902624	37	C	06/26/2025	00:33	-129.181	48.567	0	163.20	0	7.3410	0	33.8490	0	26.467	0	161.758	0	93.5	4	31.8	4	-1E+10	1	0.0624	4	0.000509	0	-1E+10	1	-1E+10	1	-1E+10	1
4902624	37	C	06/26/2025	00:33	-129.181	48.567	0	164.30	0	7.3410	0	33.8545	0	26.472	0	162.848	0	93.1	4	31.7	4	-1E+10	1	0.0657	4	0.000498	0	-1E+10	1	-1E+10	1	-1E+10	1
4902624	37	C	06/26/2025	00:33	-129.181	48.567	0	165.00	0	7.3410	0	33.8580	0	26.474	0	163.542	0	-1e10	1	-1e10	1	-1E+10	1	-1e10	1	-1e10	1	-1E+10	1	-1E+10	1	-1E+10	1
4902624	37	C	06/26/2025	00:33	-129.181	48.567	0	165.50	0	7.3377	0	33.8600	0	26.476	0	164.037	0	92.8	4	31.6	4	-1E+10	1	0.0558	4	0.000469	0	-1E+10	1	-1E+10	1	-1E+10	1
4902624	37	C	06/26/2025	00:33	-129.181	48.567	0	166.60	0	7.3306	0	33.8644	0	26.481	0	165.127	0	92.5	4	31.5	4	-1E+10	1	0.0535	4	0.000487	0	-1E+10	1	-1E+10	1	-1E+10	1
4902624	37	C	06/26/2025	00:33	-129.181	48.567	0	167.00	0	7.3280	0	33.8660	0	26.482	0	165.523	0	-1e10	1	-1e10	1	-1E+10	1	-1e10	1	-1e10	1	-1E+10	1	-1E+10	1	-1E+10	1
4902624	37	C	06/26/2025	00:33	-129.181	48.567	0	167.80	0	7.3223	0	33.8664	0	26.484	0	166.316	0	92.3	4	31.4	4	-1E+10	1	0.0657	4	0.000574	0	-1E+10	1	-1E+10	1	-1E+10	1
4902624	37	C	06/26/2025	00:33	-129.181	48.567	0	168.90	0	7.3144	0	33.8669	0	26.485	0	167.405	0	92.1	4	31.3	4	-1E+10	1	0.0657	4	0.000515	0	-1E+10	1	-1E+10	1	-1E+10	1
4902624	37	C	06/26/2025	00:33	-129.181	48.567	0	169.10	0	7.3130	0	33.8670	0	26.485	0	167.604	0	-1e10	1	-1e10	1	-1E+10	1	-1e10	1	-1e10	1	-1E+10	1	-1E+10	1	-1E+10	1
4902624	37	C	06/26/2025	00:33	-129.181	48.567	0	170.10	0	7.2962	0	33.8696	0	26.490	0	168.594	0	91.8	4	31.2	4	-1E+10	1	0.0594	4	0.000535	0	-1E+10	1	-1E+10	1	-1E+10	1
4902624	37	C	06/26/2025	00:33	-129.181	48.567	0	171.00	0	7.2810	0	33.8720	0	26.494	0	169.486	0	-1e10	1	-1e10	1	-1E+10	1	-1e10	1	-1e10	1	-1E+10	1	-1E+10	1	-1E+10	1
4902624	37	C	06/26/2025	00:33	-129.181	48.567	0	171.30	0	7.2708	0	33.8725	0	26.496	0	169.783	0	91.6	4	31.1	4	-1E+10	1	0.0645	4	0.000558	0	-1E+10	1	-1E+10	1	-1E+10	1
4902624	37	C	06/26/2025	00:33	-129.181	48.567	0	172.50	0	7.2300	0	33.8743	0	26.503	0	170.972	0	91.1	4	31.0	4	-1E+10	1	0.0553	4	0.000511	0	-1E+10	1	-1E+10	1	-1E+10	1
4902624	37	C	06/26/2025	00:33	-129.181	48.567	0	173.00	0	7.2130	0	33.8750	0	26.506	0	171.467	0	-1e10	1	-1e10	1	-1E+10	1	-1e10	1	-1e10	1	-1E+10	1	-1E+10	1	-1E+10	1
4902624	37	C	06/26/2025	00:33	-129.181	48.567	0	173.60	0	7.1977	0	33.8738	0	26.507	0	172.062	0	90.5	4	30.7	4	-1E+10	1	0.0730	4	0.000544	0	-1E+10	1	-1E+10	1	-1E+10	1
4902624	37	C	06/26/2025	00:33	-129.181	48.567	0	174.80	0	7.1671	0	33.8714	0	26.509	0	173.251	0	89.7	4	30.4	4	-1E+10	1	0.0797	4	0.000582	0	-1E+10	1	-1E+10	1	-1E+10	1
4902624	37	C	06/26/2025	00:33	-129.181	48.567	0	175.00	0	7.1620	0	33.8710	0	26.510	0	173.449	0	-1e10	1	-1e10	1	-1E+10	1	-1e10	1	-1e10	1	-1E+10	1	-1E+10	1	-1E+10	1
4902624	37	C	06/26/2025	00:33	-129.181	48.567	0	176.00	0	7.1450	0	33.8740	0	26.514	0	174.440	0	89.1	4	30.2	4	-1E+10	1	0.0610	4	0.000578	0	-1E+10	1	-1E+10	1	-1E+10	1
4902624	37	C	06/26/2025	00:33	-129.181	48.567	0	177.00	0	7.1280	0	33.8770	0	26.519	0	175.430	0	-1e10	1	-1e10	1	-1E+10	1	-1e10	1	-1e10	1	-1E+10	1	-1E+10	1	-1E+10	1
4902624	37	C	06/26/2025	00:33	-129.181	48.567	0	177.10	0	7.1269	0	33.8773	0	26.519	0	175.529	0	88.6	4	30.0	4	-1E+10	1	0.0636	4	0.000603	0	-1E+10	1	-1E+10	1	-1E+10	1
4902624	37	C	06/26/2025	00:33	-129.181	48.567	0	178.30	0	7.1137	0	33.8815	0	26.525	0	176.718	0	88.2	4	29.9	4	-1E+10	1	0.0511	4	0.000573	0	-1E+10	1	-1E+10	1	-1E+10	1
4902624	37	C	06/26/2025	00:33	-129.181	48.567	0	179.00	0	7.1060	0	33.8840	0	26.528	0	177.412	0	-1e10	1	-1e10	1	-1E+10	1	-1e10	1	-1e10	1	-1E+10	1	-1E+10	1	-1E+10	1
4902624	37	C	06/26/2025	00:33	-129.181	48.567	0	179.50	0	7.1003	0	33.8855	0	26.530	0	177.907	0	87.9	4	29.8	4	-1E+10	1	0.0511	4	0.000515	0	-1E+10	1	-1E+10	1	-1E+10	1
4902624	37	C	06/26/2025	00:33	-129.181	48.567	0	180.70	0	7.0865	0	33.8891	0	26.534	0	179.096	0	87.6	4	29.7	4	-1E+10	1	0.0574	4	0.000565	0	-1E+10	1	-1E+10	1	-1E+10	1
4902624	37	C	06/26/2025	00:33	-129.181	48.567	0	181.00	0	7.0830	0	33.8900	0	26.536	0	179.393	0	-1e10	1	-1e10	1	-1E+10	1	-1e10	1	-1e10	1	-1E+10	1	-1E+10	1	-1E+10	1
4902624	37	C	06/26/2025	00:33	-129.181	48.567	0	181.90	0	7.0650	0	33.8904	0	26.538	0	180.285	0	87.2	4	29.5	4	-1E+10	1	0.0584	4	0.000582	0	-1E+10	1	-1E+10	1	-1E+10	1
4902624	37	C	06/26/2025	00:33	-129.181	48.567	0	183.00	0	7.0430	0	33.8910	0	26.542	0	181.375	0	-1e10	1	-1e10	1	-1E+10	1	-1e10	1	-1e10	1	-1E+10	1	-1E+10	1	-1E+10	1
4902624	37	C	06/26/2025	00:33	-129.181	48.567	0	183.10	0	7.0414	0	33.8913	0	26.542	0	181.474	0	86.8	4	29.4	4	-1E+10	1	0.0487	4	0.000554	0	-1E+10	1	-1E+10	1	-1E+10	1
4902624	37	C	06/26/2025	00:33	-129.181	48.567	0	184.20	0	7.0238	0	33.8940	0	26.547	0	182.563	0	86.4	4	29.2	4	-1E+10	1	0.0511	4	0.000532	0	-1E+10	1	-1E+10	1	-1E+10	1
4902624	37	C	06/26/2025	00:33	-129.181	48.567	0	185.00	0	7.0110	0	33.8960	0	26.550	0	183.356	0	-1e10	1	-1e10	1	-1E+10	1	-1e10	1	-1e10	1	-1E+10	1	-1E+10	1	-1E+10	1
4902624	37	C	06/26/2025	00:33	-129.181	48.567	0	185.40	0	7.0066	0	33.8964	0	26.551	0	183.752	0	86.0	4	29.1	4	-1E+10	1	0.0558	4	0.000510	0	-1E+10	1	-1E+10	1	-1E+10	1
4902624	37	C	06/26/2025	00:33	-129.181	48.567	0	186.50	0	6.9945	0	33.8975	0	26.554	0	184.842	0	85.7	4	29.0	4	-1E+10	1	0.0523	4	0.000481	0	-1E+10	1	-1E+10	1	-1E+10	1
4902624	37	C	06/26/2025	00:33	-129.181	48.567	0	187.00	0	6.9890	0	33.8980	0	26.555	0	185.337	0	-1e10	1	-1e10	1	-1E+10	1	-1e10	1	-1e10	1	-1E+10	1	-1E+10	1	-1E+10	1
4902624	37	C	06/26/2025	00:33	-129.181	48.567	0	187.70	0	6.9772	0	33.9006	0	26.558	0	186.031	0	85.4	4	28.9	4	-1E+10	1	0.0574	4	0.000481	0	-1E+10	1	-1E+10	1	-1E+10	1
4902624	37	C	06/26/2025	00:33	-129.181	48.567	0	188.90	0	6.9570	0	33.9050	0	26.565	0	187.219	0	83.2	4	28.1	4	-1E+10	1	0.0511	4	0.000421	0	-1E+10	1	-1E+10	1	-1E+10	1
4902624	37	C	06/26/2025	00:33	-129.181	48.567	0	190.00	0	6.9444	0	33.9055	0	26.567	0	188.309	0	85.0	4	28.7	4	-1E+10	1	0.0626	4	0.000458	0	-1E+10	1	-1E+10	1	-1E+10	1
4902624	37	C	06/26/2025	00:33	-129.181	48.567	0	191.00	0	6.9330	0	33.9060	0	26.569	0	189.300	0	-1e10	1	-1e10	1	-1E+10	1	-1e10	1	-1e10	1	-1E+10	1	-1E+10	1	-1E+10	1
4902624	37	C	06/26/2025	00:33	-129.181	48.567	0	191.20	0	6.9328	0	33.9059	0	26.569	0	189.498	0	84.7	4	28.6	4	-1E+10	1	0.0657	4	0.000476	0	-1E+10	1	-1E+10	1	-1E+10	1
4902624	37	C	06/26/2025	00:33	-129.181	48.567	0	192.40	0	6.9317	0	33.9053	0	26.568	0	190.687	0	84.5	4	28.5	4	-1E+10	1	0.0704	4	0.000555	0	-1E+10	1	-1E+10	1	-1E+10	1
4902624	37	C	06/26/2025	00:33	-129.181	48.567	0	193.10	0	6.9310	0	33.9050	0	26.568	0	191.380	0	-1e10	1	-1e10	1	-1E+10	1	-1e10	1	-1e10	1	-1E+10	1	-1E+10	1	-1E+10	1
4902624	37	C	06/26/2025	00:33	-129.181	48.567	0	193.60	0	6.9307	0	33.9050	0	26.568	0	191.875	0	84.2	4	28.4	4	-1E+10	1	0.0584	4	0.000550	0	-1E+10	1	-1E+10	1	-1E+10	1
4902624	37	C	06/26/2025	00:33	-129.181	48.567	0	194.80	0	6.9301	0	33.9050	0	26.568	0	193.064	0	84.0	4	28.3	4	-1E+10	1	0.0468	4	0.000532	0	-1E+10	1	-1E+10	1	-1E+10	1
4902624	37	C	06/26/2025	00:33	-129.181	48.567	0	194.90	0	6.9300	0	33.9050	0	26.568	0	193.163	0	-1e10	1	-1e10	1	-1E+10	1	-1e10	1	-1e10	1	-1E+10	1	-1E+10	1	-1E+10	1
4902624	37	C	06/26/2025	00:33	-129.181	48.567	0	196.20	0	6.9146	0	33.9062	0	26.571	0	194.451	0	83.7	4	28.2	4	-1E+10	1	0.0472	4	0.000497	0	-1E+10	1	-1E+10	1	-1E+10	1
4902624	37	C	06/26/2025	00:33	-129.181	48.567	0	197.10	0	6.9040	0	33.9070	0	26.574	0	195.343	0	81.6	4	27.5	4	-1E+10	1	0.0454	4	0.000483	0	-1E+10	1	-1E+10	1	-1E+10	1
4902624	37	C	06/26/2025	00:33	-129.181	48.567	0	198.20	0	6.8907	0	33.9087	0	26.577	0	196.432	0	83.3	4	28.1	4	-1E+10	1	0.0511	4	0.000667	0	-1E+10	1	-1E+10	1	-1E+10	1
4902624	37	C	06/26/2025	00:33	-129.181	48.567	0	199.00	0	6.8810	0	33.9100	0	26.579	0	197.225	0	-1e10	1	-1e10	1	-1E+10	1	-1e10	1	-1e10	1	-1E+10	1	-1E+10	1	-1E+10	1
4902624	37	C	06/26/2025	00:33	-129.181	48.567	0	199.40	0	6.8768	0	33.9098	0	26.579	0	197.621	0	83.1	4	28.0	4	-1E+10	1	0.0511	4	0.000479	0	-1E+10	1	-1E+10	1	-1E+10	1
4902624	37	C	06/26/2025	00:33	-129.181	48.567	0	200.50	0	6.8653	0	33.9092	0	26.581	0	198.711	0	82.8	4	27.9	4	-1E+10	1	0.0561	4	0.000504	0	-1E+10	1	-1E+10	1	-1E+10	1
4902624	37	C	06/26/2025	00:33	-129.181	48.567	0	201.00	0	6.8600	0	33.9090	0	26.581	0	199.206	0	-1e10	1	-1e10	1	-1E+10	1	-1e10	1	-1e10	1	-1E+10	1	-1E+10	1	-1E+10	1
4902624	37	C	06/26/2025	00:33	-129.181	48.567	0	201.70	0	6.8425	0	33.9100	0	26.584	0	199.899	0	82.5	4	27.8	4	-1E+10	1	0.0627	4	0.000494	0	-1E+10	1	-1E+10	1	-1E+10	1
4902624	37	C	06/26/2025	00:33	-129.181	48.567	0	202.80	0	6.8150	0	33.9117	0	26.589	0	200.989	0	82.3	4	27.7	4	-1E+10	1	0.0590	4	0.000474	0	-1E+10	1	-1E+10	1	-1E+10	1
4902624	37	C	06/26/2025	00:33	-129.181	48.567	0	203.00	0	6.8100	0	33.9120	0	26.590	0	201.187	0	-1e10	1	-1e10	1	-1E+10	1	-1e10	1	-1e10	1	-1E+10	1	-1E+10	1	-1E+10	1
4902624	37	C	06/26/2025	00:33	-129.181	48.567	0	203.90	0	6.8070	0	33.9129	0	26.591	0	202.079	0	82.0	4	27.6	4	-1E+10	1	0.0511	4	0.000472	0	-1E+10	1	-1E+10	1	-1E+10	1
4902624	37	C	06/26/2025	00:33	-129.181	48.567	0	205.10	0	6.8030	0	33.9140	0	26.593	0	203.267	0	79.8	4	26.9	4	-1E+10	1	0.0537	4	0.000471	0	-1E+10	1	-1E+10	1	-1E+10	1
4902624	37	C	06/26/2025	00:33	-129.181	48.567	0	206.30	0	6.7943	0	33.9147	0	26.594	0	204.456	0	81.4	4	27.4	4	-1E+10	1	0.0548	4	0.000479	0	-1E+10	1	-1E+10	1	-1E+10	1
4902624	37	C	06/26/2025	00:33	-129.181	48.567	0	206.90	0	6.7900	0	33.9150	0	26.595	0	205.050	0	-1e10	1	-1e10	1	-1E+10	1	-1e10	1	-1e10	1	-1E+10	1	-1E+10	1	-1E+10	1
4902624	37	C	06/26/2025	00:33	-129.181	48.567	0	207.40	0	6.7845	0	33.9159	0	26.597	0	205.546	0	81.2	4	27.3	4	-1E+10	1	0.0460	4	0.000551	0	-1E+10	1	-1E+10	1	-1E+10	1
4902624	37	C	06/26/2025	00:33	-129.181	48.567	0	208.50	0	6.7725	0	33.9179	0	26.600	0	206.635	0	81.0	4	27.2	4	-1E+10	1	0.0584	4	0.000561	0	-1E+10	1	-1E+10	1	-1E+10	1
4902624	37	C	06/26/2025	00:33	-129.181	48.567	0	209.10	0	6.7660	0	33.9190	0	26.602	0	207.230	0	-1e10	1	-1e10	1	-1E+10	1	-1e10	1	-1e10	1	-1E+10	1	-1E+10	1	-1E+10	1
4902624	37	C	06/26/2025	00:33	-129.181	48.567	0	209.70	0	6.7581	0	33.9187	0	26.602	0	207.824	0	80.8	4	27.2	4	-1E+10	1	0.0521	4	0.000491	0	-1E+10	1	-1E+10	1	-1E+10	1
4902624	37	C	06/26/2025	00:33	-129.181	48.567	0	210.80	0	6.7436	0	33.9181	0	26.604	0	208.914	0	80.6	4	27.1	4	-1E+10	1	0.0451	4	0.000489	0	-1E+10	1	-1E+10	1	-1E+10	1
4902624	37	C	06/26/2025	00:33	-129.181	48.567	0	211.00	0	6.7410	0	33.9180	0	26.604	0	209.112	0	-1e10	1	-1e10	1	-1E+10	1	-1e10	1	-1e10	1	-1E+10	1	-1E+10	1	-1E+10	1
4902624	37	C	06/26/2025	00:33	-129.181	48.567	0	212.00	0	6.7434	0	33.9190	0	26.605	0	210.102	0	80.4	4	27.0	4	-1E+10	1	0.0594	4	0.000466	0	-1E+10	1	-1E+10	1	-1E+10	1
4902624	37	C	06/26/2025	00:33	-129.181	48.567	0	213.10	0	6.7460	0	33.9200	0	26.605	0	211.192	0	78.3	4	26.3	4	-1E+10	1	-1e10	1	-1e10	1	-1E+10	1	-1E+10	1	-1E+10	1
4902624	37	C	06/26/2025	00:33	-129.181	48.567	0	214.40	0	6.7486	0	33.9213	0	26.606	0	212.479	0	79.9	4	26.9	4	-1E+10	1	0.0577	4	0.000384	0	-1E+10	1	-1E+10	1	-1E+10	1
4902624	37	C	06/26/2025	00:33	-129.181	48.567	0	215.10	0	6.7500	0	33.9220	0	26.606	0	213.173	0	-1e10	1	-1e10	1	-1E+10	1	-1e10	1	-1e10	1	-1E+10	1	-1E+10	1	-1E+10	1
4902624	37	C	06/26/2025	00:33	-129.181	48.567	0	215.50	0	6.7466	0	33.9233	0	26.608	0	213.569	0	79.8	4	26.8	4	-1E+10	1	-1e10	1	-1e10	1	-1E+10	1	-1E+10	1	-1E+10	1
4902624	37	C	06/26/2025	00:33	-129.181	48.567	0	216.40	0	6.7391	0	33.9261	0	26.611	0	214.461	0	79.7	4	26.8	4	-1E+10	1	0.0376	4	0.000364	0	-1E+10	1	-1E+10	1	-1E+10	1
4902624	37	C	06/26/2025	00:33	-129.181	48.567	0	217.00	0	6.7340	0	33.9280	0	26.613	0	215.055	0	-1e10	1	-1e10	1	-1E+10	1	-1e10	1	-1e10	1	-1E+10	1	-1E+10	1	-1E+10	1
4902624	37	C	06/26/2025	00:33	-129.181	48.567	0	217.50	0	6.7266	0	33.9278	0	26.614	0	215.550	0	79.6	4	26.7	4	-1E+10	1	0.0438	4	0.000374	0	-1E+10	1	-1E+10	1	-1E+10	1
4902624	37	C	06/26/2025	00:33	-129.181	48.567	0	218.60	0	6.7104	0	33.9272	0	26.616	0	216.640	0	79.4	4	26.7	4	-1E+10	1	0.0511	4	0.000362	0	-1E+10	1	-1E+10	1	-1E+10	1
4902624	37	C	06/26/2025	00:33	-129.181	48.567	0	219.10	0	6.7030	0	33.9270	0	26.617	0	217.135	0	-1e10	1	-1e10	1	-1E+10	1	-1e10	1	-1e10	1	-1E+10	1	-1E+10	1	-1E+10	1
4902624	37	C	06/26/2025	00:33	-129.181	48.567	0	219.70	0	6.6983	0	33.9273	0	26.617	0	217.729	0	79.2	4	26.6	4	-1E+10	1	0.0511	4	0.000342	0	-1E+10	1	-1E+10	1	-1E+10	1
4902624	37	C	06/26/2025	00:33	-129.181	48.567	0	220.80	0	6.6896	0	33.9279	0	26.619	0	218.819	0	79.0	4	26.5	4	-1E+10	1	0.0612	4	0.000387	0	-1E+10	1	-1E+10	1	-1E+10	1
4902624	37	C	06/26/2025	00:33	-129.181	48.567	0	221.00	0	6.6880	0	33.9280	0	26.619	0	219.017	0	-1e10	1	-1e10	1	-1E+10	1	-1e10	1	-1e10	1	-1E+10	1	-1E+10	1	-1E+10	1
4902624	37	C	06/26/2025	00:33	-129.181	48.567	0	222.10	0	6.6838	0	33.9280	0	26.620	0	220.106	0	78.8	4	26.4	4	-1E+10	1	0.0505	4	0.000409	0	-1E+10	1	-1E+10	1	-1E+10	1
4902624	37	C	06/26/2025	00:33	-129.181	48.567	0	223.10	0	6.6800	0	33.9280	0	26.620	0	221.097	0	-1e10	1	-1e10	1	-1E+10	1	-1e10	1	-1e10	1	-1E+10	1	-1E+10	1	-1E+10	1
4902624	37	C	06/26/2025	00:33	-129.181	48.567	0	223.20	0	6.6798	0	33.9280	0	26.620	0	221.196	0	78.5	4	26.3	4	-1E+10	1	0.0511	4	0.000379	0	-1E+10	1	-1E+10	1	-1E+10	1
4902624	37	C	06/26/2025	00:33	-129.181	48.567	0	224.30	0	6.6781	0	33.9280	0	26.621	0	222.285	0	78.2	4	26.3	4	-1E+10	1	0.0584	4	0.000380	0	-1E+10	1	-1E+10	1	-1E+10	1
4902624	37	C	06/26/2025	00:33	-129.181	48.567	0	225.00	0	6.6770	0	33.9280	0	26.621	0	222.979	0	-1e10	1	-1e10	1	-1E+10	1	-1e10	1	-1e10	1	-1E+10	1	-1E+10	1	-1E+10	1
4902624	37	C	06/26/2025	00:33	-129.181	48.567	0	225.40	0	6.6766	0	33.9280	0	26.621	0	223.375	0	77.9	4	26.1	4	-1E+10	1	0.0539	4	0.000414	0	-1E+10	1	-1E+10	1	-1E+10	1
4902624	37	C	06/26/2025	00:33	-129.181	48.567	0	226.50	0	6.6753	0	33.9280	0	26.621	0	224.465	0	77.5	4	26.0	4	-1E+10	1	0.0460	4	0.000375	0	-1E+10	1	-1E+10	1	-1E+10	1
4902624	37	C	06/26/2025	00:33	-129.181	48.567	0	226.80	0	6.6750	0	33.9280	0	26.621	0	224.762	0	-1e10	1	-1e10	1	-1E+10	1	-1e10	1	-1e10	1	-1E+10	1	-1E+10	1	-1E+10	1
4902624	37	C	06/26/2025	00:33	-129.181	48.567	0	227.60	0	6.6732	0	33.9284	0	26.622	0	225.554	0	77.2	4	25.9	4	-1E+10	1	0.0584	4	0.000385	0	-1E+10	1	-1E+10	1	-1E+10	1
4902624	37	C	06/26/2025	00:33	-129.181	48.567	0	228.70	0	6.6707	0	33.9289	0	26.622	0	226.644	0	76.8	4	25.8	4	-1E+10	1	0.0584	4	0.000350	0	-1E+10	1	-1E+10	1	-1E+10	1
4902624	37	C	06/26/2025	00:33	-129.181	48.567	0	229.00	0	6.6700	0	33.9290	0	26.623	0	226.941	0	-1e10	1	-1e10	1	-1E+10	1	-1e10	1	-1e10	1	-1E+10	1	-1E+10	1	-1E+10	1
4902624	37	C	06/26/2025	00:33	-129.181	48.567	0	229.80	0	6.6620	0	33.9298	0	26.624	0	227.733	0	76.5	4	25.7	4	-1E+10	1	0.0584	4	0.000439	0	-1E+10	1	-1E+10	1	-1E+10	1
4902624	37	C	06/26/2025	00:33	-129.181	48.567	0	230.90	0	6.6510	0	33.9308	0	26.627	0	228.823	0	76.1	4	25.5	4	-1E+10	1	0.0644	4	0.000437	0	-1E+10	1	-1E+10	1	-1E+10	1
4902624	37	C	06/26/2025	00:33	-129.181	48.567	0	231.10	0	6.6490	0	33.9310	0	26.627	0	229.021	0	-1e10	1	-1e10	1	-1E+10	1	-1e10	1	-1e10	1	-1E+10	1	-1E+10	1	-1E+10	1
4902624	37	C	06/26/2025	00:33	-129.181	48.567	0	232.00	0	6.6310	0	33.9337	0	26.632	0	229.912	0	75.8	4	25.4	4	-1E+10	1	0.0478	4	0.000375	0	-1E+10	1	-1E+10	1	-1E+10	1
4902624	37	C	06/26/2025	00:33	-129.181	48.567	0	233.10	0	6.6090	0	33.9370	0	26.637	0	231.002	0	73.8	4	24.7	4	-1E+10	1	0.0489	4	0.000394	0	-1E+10	1	-1E+10	1	-1E+10	1
4902624	37	C	06/26/2025	00:33	-129.181	48.567	0	234.20	0	6.5887	0	33.9382	0	26.641	0	232.091	0	75.3	4	25.2	4	-1E+10	1	0.0584	4	0.000403	0	-1E+10	1	-1E+10	1	-1E+10	1
4902624	37	C	06/26/2025	00:33	-129.181	48.567	0	235.00	0	6.5740	0	33.9390	0	26.643	0	232.883	0	-1e10	1	-1e10	1	-1E+10	1	-1e10	1	-1e10	1	-1E+10	1	-1E+10	1	-1E+10	1
4902624	37	C	06/26/2025	00:33	-129.181	48.567	0	235.30	0	6.5729	0	33.9392	0	26.644	0	233.181	0	75.1	4	25.2	4	-1E+10	1	0.0630	4	0.000418	0	-1E+10	1	-1E+10	1	-1E+10	1
4902624	37	C	06/26/2025	00:33	-129.181	48.567	0	236.40	0	6.5688	0	33.9397	0	26.645	0	234.270	0	74.9	4	25.1	4	-1E+10	1	0.0584	4	0.000437	0	-1E+10	1	-1E+10	1	-1E+10	1
4902624	37	C	06/26/2025	00:33	-129.181	48.567	0	236.90	0	6.5670	0	33.9400	0	26.645	0	234.765	0	-1e10	1	-1e10	1	-1E+10	1	-1e10	1	-1e10	1	-1E+10	1	-1E+10	1	-1E+10	1
4902624	37	C	06/26/2025	00:33	-129.181	48.567	0	237.60	0	6.5666	0	33.9396	0	26.645	0	235.458	0	74.8	4	25.0	4	-1E+10	1	0.0568	4	0.000397	0	-1E+10	1	-1E+10	1	-1E+10	1
4902624	37	C	06/26/2025	00:33	-129.181	48.567	0	238.70	0	6.5661	0	33.9391	0	26.644	0	236.548	0	74.5	4	24.9	4	-1E+10	1	0.0511	4	0.000397	0	-1E+10	1	-1E+10	1	-1E+10	1
4902624	37	C	06/26/2025	00:33	-129.181	48.567	0	238.90	0	6.5660	0	33.9390	0	26.644	0	236.746	0	-1e10	1	-1e10	1	-1E+10	1	-1e10	1	-1e10	1	-1E+10	1	-1E+10	1	-1E+10	1
4902624	37	C	06/26/2025	00:33	-129.181	48.567	0	239.80	0	6.5621	0	33.9386	0	26.645	0	237.637	0	74.2	4	24.8	4	-1E+10	1	0.0584	4	0.000467	0	-1E+10	1	-1E+10	1	-1E+10	1
4902624	37	C	06/26/2025	00:33	-129.181	48.567	0	240.90	0	6.5574	0	33.9380	0	26.645	0	238.727	0	73.9	4	24.8	4	-1E+10	1	0.0584	4	0.000418	0	-1E+10	1	-1E+10	1	-1E+10	1
4902624	37	C	06/26/2025	00:33	-129.181	48.567	0	241.00	0	6.5570	0	33.9380	0	26.645	0	238.826	0	-1e10	1	-1e10	1	-1E+10	1	-1e10	1	-1e10	1	-1E+10	1	-1E+10	1	-1E+10	1
4902624	37	C	06/26/2025	00:33	-129.181	48.567	0	242.00	0	6.5570	0	33.9375	0	26.644	0	239.816	0	73.5	4	24.6	4	-1E+10	1	0.0685	4	0.000587	0	-1E+10	1	-1E+10	1	-1E+10	1
4902624	37	C	06/26/2025	00:33	-129.181	48.567	0	243.10	0	6.5570	0	33.9370	0	26.644	0	240.906	0	71.5	4	23.9	4	-1E+10	1	0.0544	4	0.000487	0	-1E+10	1	-1E+10	1	-1E+10	1
4902624	37	C	06/26/2025	00:33	-129.181	48.567	0	244.10	0	6.5449	0	33.9375	0	26.646	0	241.896	0	72.7	4	24.3	4	-1E+10	1	0.0438	4	0.000380	0	-1E+10	1	-1E+10	1	-1E+10	1
4902624	37	C	06/26/2025	00:33	-129.181	48.567	0	245.00	0	6.5340	0	33.9380	0	26.648	0	242.787	0	-1e10	1	-1e10	1	-1E+10	1	-1e10	1	-1e10	1	-1E+10	1	-1E+10	1	-1E+10	1
4902624	37	C	06/26/2025	00:33	-129.181	48.567	0	245.20	0	6.5285	0	33.9379	0	26.648	0	242.986	0	72.2	4	24.2	4	-1E+10	1	0.0416	4	0.000373	0	-1E+10	1	-1E+10	1	-1E+10	1
4902624	37	C	06/26/2025	00:33	-129.181	48.567	0	246.30	0	6.4983	0	33.9374	0	26.652	0	244.075	0	71.7	4	24.0	4	-1E+10	1	0.0392	4	0.000367	0	-1E+10	1	-1E+10	1	-1E+10	1
4902624	37	C	06/26/2025	00:33	-129.181	48.567	0	247.00	0	6.4790	0	33.9370	0	26.654	0	244.768	0	-1e10	1	-1e10	1	-1E+10	1	-1e10	1	-1e10	1	-1E+10	1	-1E+10	1	-1E+10	1
4902624	37	C	06/26/2025	00:33	-129.181	48.567	0	247.40	0	6.4700	0	33.9378	0	26.656	0	245.164	0	71.1	4	23.7	4	-1E+10	1	0.0533	4	0.000349	0	-1E+10	1	-1E+10	1	-1E+10	1
4902624	37	C	06/26/2025	00:33	-129.181	48.567	0	248.50	0	6.4453	0	33.9400	0	26.661	0	246.254	0	70.5	4	23.5	4	-1E+10	1	0.0657	4	0.000408	0	-1E+10	1	-1E+10	1	-1E+10	1
4902624	37	C	06/26/2025	00:33	-129.181	48.567	0	249.00	0	6.4340	0	33.9410	0	26.663	0	246.749	0	-1e10	1	-1e10	1	-1E+10	1	-1e10	1	-1e10	1	-1E+10	1	-1E+10	1	-1E+10	1
4902624	37	C	06/26/2025	00:33	-129.181	48.567	0	249.60	0	6.4304	0	33.9419	0	26.664	0	247.343	0	70.1	4	23.4	4	-1E+10	1	0.0657	4	0.000372	0	-1E+10	1	-1E+10	1	-1E+10	1
4902624	37	C	06/26/2025	00:33	-129.181	48.567	0	250.80	0	6.4232	0	33.9437	0	26.667	0	248.532	0	69.6	4	23.2	4	-1E+10	1	0.0478	4	0.000506	0	-1E+10	1	-1E+10	1	-1E+10	1
4902624	37	C	06/26/2025	00:33	-129.181	48.567	0	251.00	0	6.4220	0	33.9440	0	26.667	0	248.730	0	-1e10	1	-1e10	1	-1E+10	1	-1e10	1	-1e10	1	-1E+10	1	-1E+10	1	-1E+10	1
4902624	37	C	06/26/2025	00:33	-129.181	48.567	0	251.90	0	6.4148	0	33.9445	0	26.669	0	249.621	0	69.1	4	23.1	4	-1E+10	1	0.0539	4	0.000416	0	-1E+10	1	-1E+10	1	-1E+10	1
4902624	37	C	06/26/2025	00:33	-129.181	48.567	0	253.00	0	6.4060	0	33.9450	0	26.670	0	250.710	0	67.1	4	22.4	4	-1E+10	1	0.0545	4	0.000399	0	-1E+10	1	-1E+10	1	-1E+10	1
4902624	37	C	06/26/2025	00:33	-129.181	48.567	0	254.10	0	6.3812	0	33.9455	0	26.674	0	251.800	0	68.3	4	22.8	4	-1E+10	1	0.0511	4	0.000412	0	-1E+10	1	-1E+10	1	-1E+10	1
4902624	37	C	06/26/2025	00:33	-129.181	48.567	0	255.00	0	6.3610	0	33.9460	0	26.677	0	252.691	0	-1e10	1	-1e10	1	-1E+10	1	-1e10	1	-1e10	1	-1E+10	1	-1E+10	1	-1E+10	1
4902624	37	C	06/26/2025	00:33	-129.181	48.567	0	255.20	0	6.3588	0	33.9459	0	26.677	0	252.889	0	67.9	4	22.6	4	-1E+10	1	0.0511	4	0.000381	0	-1E+10	1	-1E+10	1	-1E+10	1
4902624	37	C	06/26/2025	00:33	-129.181	48.567	0	256.30	0	6.3467	0	33.9454	0	26.678	0	253.978	0	67.4	4	22.4	4	-1E+10	1	0.0511	4	0.000373	0	-1E+10	1	-1E+10	1	-1E+10	1
4902624	37	C	06/26/2025	00:33	-129.181	48.567	0	257.00	0	6.3390	0	33.9450	0	26.679	0	254.672	0	-1e10	1	-1e10	1	-1E+10	1	-1e10	1	-1e10	1	-1E+10	1	-1E+10	1	-1E+10	1
4902624	37	C	06/26/2025	00:33	-129.181	48.567	0	257.50	0	6.3338	0	33.9469	0	26.681	0	255.167	0	66.9	4	22.3	4	-1E+10	1	0.0511	4	0.000373	0	-1E+10	1	-1E+10	1	-1E+10	1
4902624	37	C	06/26/2025	00:33	-129.181	48.567	0	258.60	0	6.3222	0	33.9511	0	26.686	0	256.256	0	66.5	4	22.1	4	-1E+10	1	0.0584	4	0.000397	0	-1E+10	1	-1E+10	1	-1E+10	1
4902624	37	C	06/26/2025	00:33	-129.181	48.567	0	259.10	0	6.3170	0	33.9530	0	26.688	0	256.751	0	-1e10	1	-1e10	1	-1E+10	1	-1e10	1	-1e10	1	-1E+10	1	-1E+10	1	-1E+10	1
4902624	37	C	06/26/2025	00:33	-129.181	48.567	0	259.70	0	6.3151	0	33.9549	0	26.690	0	257.346	0	66.1	4	22.0	4	-1E+10	1	0.0641	4	0.000443	0	-1E+10	1	-1E+10	1	-1E+10	1
4902624	37	C	06/26/2025	00:33	-129.181	48.567	0	260.90	0	6.3113	0	33.9587	0	26.693	0	258.534	0	65.7	4	21.9	4	-1E+10	1	0.0657	4	0.000372	0	-1E+10	1	-1E+10	1	-1E+10	1
4902624	37	C	06/26/2025	00:33	-129.181	48.567	0	261.00	0	6.3110	0	33.9590	0	26.694	0	258.633	0	-1e10	1	-1e10	1	-1E+10	1	-1e10	1	-1e10	1	-1E+10	1	-1E+10	1	-1E+10	1
4902624	37	C	06/26/2025	00:33	-129.181	48.567	0	262.10	0	6.3012	0	33.9602	0	26.696	0	259.722	0	65.3	4	21.7	4	-1E+10	1	0.0564	4	0.000378	0	-1E+10	1	-1E+10	1	-1E+10	1
4902624	37	C	06/26/2025	00:33	-129.181	48.567	0	262.90	0	6.2940	0	33.9610	0	26.697	0	260.515	0	-1e10	1	-1e10	1	-1E+10	1	-1e10	1	-1e10	1	-1E+10	1	-1E+10	1	-1E+10	1
4902624	37	C	06/26/2025	00:33	-129.181	48.567	0	263.30	0	6.2883	0	33.9614	0	26.698	0	260.911	0	65.0	4	21.6	4	-1E+10	1	0.0553	4	0.000388	0	-1E+10	1	-1E+10	1	-1E+10	1
4902624	37	C	06/26/2025	00:33	-129.181	48.567	0	264.40	0	6.2726	0	33.9624	0	26.701	0	262.000	0	64.6	4	21.5	4	-1E+10	1	0.0584	4	0.000381	0	-1E+10	1	-1E+10	1	-1E+10	1
4902624	37	C	06/26/2025	00:33	-129.181	48.567	0	265.00	0	6.2640	0	33.9630	0	26.703	0	262.594	0	-1e10	1	-1e10	1	-1E+10	1	-1e10	1	-1e10	1	-1E+10	1	-1E+10	1	-1E+10	1
4902624	37	C	06/26/2025	00:33	-129.181	48.567	0	265.60	0	6.2574	0	33.9636	0	26.704	0	263.188	0	64.3	4	21.4	4	-1E+10	1	0.0584	4	0.000384	0	-1E+10	1	-1E+10	1	-1E+10	1
4902624	37	C	06/26/2025	00:33	-129.181	48.567	0	266.70	0	6.2453	0	33.9647	0	26.707	0	264.278	0	64.0	4	21.3	4	-1E+10	1	0.0594	4	0.000328	0	-1E+10	1	-1E+10	1	-1E+10	1
4902624	37	C	06/26/2025	00:33	-129.181	48.567	0	267.00	0	6.2420	0	33.9650	0	26.707	0	264.575	0	-1e10	1	-1e10	1	-1E+10	1	-1e10	1	-1e10	1	-1E+10	1	-1E+10	1	-1E+10	1
4902624	37	C	06/26/2025	00:33	-129.181	48.567	0	267.90	0	6.2360	0	33.9659	0	26.709	0	265.466	0	63.6	4	21.2	4	-1E+10	1	0.0657	4	0.000338	0	-1E+10	1	-1E+10	1	-1E+10	1
4902624	37	C	06/26/2025	00:33	-129.181	48.567	0	269.00	0	6.2287	0	33.9669	0	26.710	0	266.555	0	63.3	4	21.0	4	-1E+10	1	0.0714	4	0.000301	0	-1E+10	1	-1E+10	1	-1E+10	1
4902624	37	C	06/26/2025	00:33	-129.181	48.567	0	269.10	0	6.2280	0	33.9670	0	26.711	0	266.654	0	-1e10	1	-1e10	1	-1E+10	1	-1e10	1	-1e10	1	-1E+10	1	-1E+10	1	-1E+10	1
4902624	37	C	06/26/2025	00:33	-129.181	48.567	0	270.20	0	6.2124	0	33.9676	0	26.713	0	267.744	0	63.2	4	21.0	4	-1E+10	1	0.0730	4	0.000326	0	-1E+10	1	-1E+10	1	-1E+10	1
4902624	37	C	06/26/2025	00:33	-129.181	48.567	0	271.00	0	6.2010	0	33.9680	0	26.715	0	268.536	0	-1e10	1	-1e10	1	-1E+10	1	-1e10	1	-1e10	1	-1E+10	1	-1E+10	1	-1E+10	1
4902624	37	C	06/26/2025	00:33	-129.181	48.567	0	271.40	0	6.1994	0	33.9682	0	26.715	0	268.932	0	62.9	4	20.9	4	-1E+10	1	0.0589	4	0.000738	0	-1E+10	1	-1E+10	1	-1E+10	1
4902624	37	C	06/26/2025	00:33	-129.181	48.567	0	272.50	0	6.1950	0	33.9688	0	26.716	0	270.021	0	62.6	4	20.8	4	-1E+10	1	0.0542	4	0.000688	0	-1E+10	1	-1E+10	1	-1E+10	1
4902624	37	C	06/26/2025	00:33	-129.181	48.567	0	273.00	0	6.1930	0	33.9690	0	26.717	0	270.516	0	-1e10	1	-1e10	1	-1E+10	1	-1e10	1	-1e10	1	-1E+10	1	-1E+10	1	-1E+10	1
4902624	37	C	06/26/2025	00:33	-129.181	48.567	0	273.80	0	6.1830	0	33.9702	0	26.719	0	271.308	0	62.4	4	20.7	4	-1E+10	1	0.0554	4	0.000360	0	-1E+10	1	-1E+10	1	-1E+10	1
4902624	37	C	06/26/2025	00:33	-129.181	48.567	0	275.00	0	6.1680	0	33.9720	0	26.722	0	272.497	0	60.7	4	20.2	4	-1E+10	1	0.0537	4	0.000383	0	-1E+10	1	-1E+10	1	-1E+10	1
4902624	37	C	06/26/2025	00:33	-129.181	48.567	0	276.10	0	6.1515	0	33.9715	0	26.724	0	273.586	0	62.0	4	20.6	4	-1E+10	1	0.0553	4	0.000341	0	-1E+10	1	-1E+10	1	-1E+10	1
4902624	37	C	06/26/2025	00:33	-129.181	48.567	0	277.00	0	6.1380	0	33.9710	0	26.725	0	274.477	0	-1e10	1	-1e10	1	-1E+10	1	-1e10	1	-1e10	1	-1E+10	1	-1E+10	1	-1E+10	1
4902624	37	C	06/26/2025	00:33	-129.181	48.567	0	277.30	0	6.1356	0	33.9708	0	26.725	0	274.774	0	61.7	4	20.5	4	-1E+10	1	0.0365	4	0.000361	0	-1E+10	1	-1E+10	1	-1E+10	1
4902624	37	C	06/26/2025	00:33	-129.181	48.567	0	278.50	0	6.1262	0	33.9702	0	26.726	0	275.963	0	61.5	4	20.4	4	-1E+10	1	0.0438	4	0.000373	0	-1E+10	1	-1E+10	1	-1E+10	1
4902624	37	C	06/26/2025	00:33	-129.181	48.567	0	278.90	0	6.1230	0	33.9700	0	26.726	0	276.359	0	-1e10	1	-1e10	1	-1E+10	1	-1e10	1	-1e10	1	-1E+10	1	-1E+10	1	-1E+10	1
4902624	37	C	06/26/2025	00:33	-129.181	48.567	0	279.60	0	6.1163	0	33.9703	0	26.728	0	277.052	0	61.3	4	20.3	4	-1E+10	1	0.0562	4	0.000383	0	-1E+10	1	-1E+10	1	-1E+10	1
4902624	37	C	06/26/2025	00:33	-129.181	48.567	0	280.50	0	6.1078	0	33.9708	0	26.729	0	277.943	0	61.1	4	20.2	4	-1E+10	1	0.0584	4	0.000340	0	-1E+10	1	-1E+10	1	-1E+10	1
4902624	37	C	06/26/2025	00:33	-129.181	48.567	0	281.00	0	6.1030	0	33.9710	0	26.730	0	278.438	0	-1e10	1	-1e10	1	-1E+10	1	-1e10	1	-1e10	1	-1E+10	1	-1E+10	1	-1E+10	1
4902624	37	C	06/26/2025	00:33	-129.181	48.567	0	281.40	0	6.1001	0	33.9712	0	26.730	0	278.834	0	60.9	4	20.2	4	-1E+10	1	0.0675	4	0.000336	0	-1E+10	1	-1E+10	1	-1E+10	1
4902624	37	C	06/26/2025	00:33	-129.181	48.567	0	282.20	0	6.0944	0	33.9716	0	26.731	0	279.626	0	60.7	4	20.1	4	-1E+10	1	0.0649	4	0.000349	0	-1E+10	1	-1E+10	1	-1E+10	1
4902624	37	C	06/26/2025	00:33	-129.181	48.567	0	283.00	0	6.0887	0	33.9720	0	26.732	0	280.419	0	60.6	4	20.1	4	-1E+10	1	0.0642	4	0.000364	0	-1E+10	1	-1E+10	1	-1E+10	1
4902624	37	C	06/26/2025	00:33	-129.181	48.567	0	283.10	0	6.0880	0	33.9720	0	26.732	0	280.518	0	-1e10	1	-1e10	1	-1E+10	1	-1e10	1	-1e10	1	-1E+10	1	-1E+10	1	-1E+10	1
4902624	37	C	06/26/2025	00:33	-129.181	48.567	0	283.80	0	6.0836	0	33.9720	0	26.733	0	281.211	0	60.3	4	20.0	4	-1E+10	1	0.0712	4	0.000370	0	-1E+10	1	-1E+10	1	-1E+10	1
4902624	37	C	06/26/2025	00:33	-129.181	48.567	0	284.60	0	6.0785	0	33.9720	0	26.734	0	282.003	0	60.1	4	19.9	4	-1E+10	1	0.0642	4	0.000331	0	-1E+10	1	-1E+10	1	-1E+10	1
4902624	37	C	06/26/2025	00:33	-129.181	48.567	0	285.00	0	6.0760	0	33.9720	0	26.734	0	282.399	0	-1e10	1	-1e10	1	-1E+10	1	-1e10	1	-1e10	1	-1E+10	1	-1E+10	1	-1E+10	1
4902624	37	C	06/26/2025	00:33	-129.181	48.567	0	285.40	0	6.0741	0	33.9718	0	26.734	0	282.795	0	59.9	4	19.8	4	-1E+10	1	0.0584	4	0.000349	0	-1E+10	1	-1E+10	1	-1E+10	1
4902624	37	C	06/26/2025	00:33	-129.181	48.567	0	286.20	0	6.0703	0	33.9714	0	26.734	0	283.587	0	59.6	4	19.7	4	-1E+10	1	0.0526	4	0.000387	0	-1E+10	1	-1E+10	1	-1E+10	1
4902624	37	C	06/26/2025	00:33	-129.181	48.567	0	286.90	0	6.0670	0	33.9710	0	26.734	0	284.280	0	-1e10	1	-1e10	1	-1E+10	1	-1e10	1	-1e10	1	-1E+10	1	-1E+10	1	-1E+10	1
4902624	37	C	06/26/2025	00:33	-129.181	48.567	0	287.10	0	6.0635	0	33.9715	0	26.735	0	284.478	0	59.4	4	19.7	4	-1E+10	1	0.0511	4	0.000387	0	-1E+10	1	-1E+10	1	-1E+10	1
4902624	37	C	06/26/2025	00:33	-129.181	48.567	0	287.90	0	6.0494	0	33.9734	0	26.738	0	285.270	0	59.2	4	19.6	4	-1E+10	1	0.0657	4	0.000478	0	-1E+10	1	-1E+10	1	-1E+10	1
4902624	37	C	06/26/2025	00:33	-129.181	48.567	0	288.80	0	6.0335	0	33.9755	0	26.742	0	286.162	0	59.0	4	19.5	4	-1E+10	1	0.0611	4	0.000461	0	-1E+10	1	-1E+10	1	-1E+10	1
4902624	37	C	06/26/2025	00:33	-129.181	48.567	0	289.00	0	6.0300	0	33.9760	0	26.743	0	286.360	0	-1e10	1	-1e10	1	-1E+10	1	-1e10	1	-1e10	1	-1E+10	1	-1E+10	1	-1E+10	1
4902624	37	C	06/26/2025	00:33	-129.181	48.567	0	289.60	0	6.0217	0	33.9757	0	26.744	0	286.954	0	58.9	4	19.5	4	-1E+10	1	0.0538	4	0.000390	0	-1E+10	1	-1E+10	1	-1E+10	1
4902624	37	C	06/26/2025	00:33	-129.181	48.567	0	290.40	0	6.0107	0	33.9753	0	26.745	0	287.746	0	58.8	4	19.4	4	-1E+10	1	0.0562	4	0.000365	0	-1E+10	1	-1E+10	1	-1E+10	1
4902624	37	C	06/26/2025	00:33	-129.181	48.567	0	291.10	0	6.0010	0	33.9750	0	26.746	0	288.439	0	-1e10	1	-1e10	1	-1E+10	1	-1e10	1	-1e10	1	-1E+10	1	-1E+10	1	-1E+10	1
4902624	37	C	06/26/2025	00:33	-129.181	48.567	0	291.30	0	5.9988	0	33.9749	0	26.746	0	288.637	0	58.6	4	19.4	4	-1E+10	1	0.0511	4	0.000415	0	-1E+10	1	-1E+10	1	-1E+10	1
4902624	37	C	06/26/2025	00:33	-129.181	48.567	0	292.10	0	5.9899	0	33.9745	0	26.747	0	289.429	0	58.4	4	19.3	4	-1E+10	1	0.0511	4	0.000584	0	-1E+10	1	-1E+10	1	-1E+10	1
4902624	37	C	06/26/2025	00:33	-129.181	48.567	0	293.00	0	5.9800	0	33.9740	0	26.748	0	290.320	0	56.8	4	18.8	4	-1E+10	1	0.0657	4	0.000396	0	-1E+10	1	-1E+10	1	-1E+10	1
4902624	37	C	06/26/2025	00:33	-129.181	48.567	0	293.80	0	5.9708	0	33.9736	0	26.749	0	291.112	0	58.0	4	19.1	4	-1E+10	1	0.0599	4	0.000453	0	-1E+10	1	-1E+10	1	-1E+10	1
4902624	37	C	06/26/2025	00:33	-129.181	48.567	0	294.70	0	5.9604	0	33.9731	0	26.749	0	292.004	0	57.7	4	19.1	4	-1E+10	1	0.0584	4	0.000425	0	-1E+10	1	-1E+10	1	-1E+10	1
4902624	37	C	06/26/2025	00:33	-129.181	48.567	0	295.00	0	5.9570	0	33.9730	0	26.750	0	292.301	0	-1e10	1	-1e10	1	-1E+10	1	-1e10	1	-1e10	1	-1E+10	1	-1E+10	1	-1E+10	1
4902624	37	C	06/26/2025	00:33	-129.181	48.567	0	295.50	0	5.9546	0	33.9727	0	26.750	0	292.796	0	57.5	4	19.0	4	-1E+10	1	0.0584	4	0.000427	0	-1E+10	1	-1E+10	1	-1E+10	1
4902624	37	C	06/26/2025	00:33	-129.181	48.567	0	296.40	0	5.9504	0	33.9723	0	26.750	0	293.687	0	57.2	4	18.9	4	-1E+10	1	0.0511	4	0.000449	0	-1E+10	1	-1E+10	1	-1E+10	1
4902624	37	C	06/26/2025	00:33	-129.181	48.567	0	296.90	0	5.9480	0	33.9720	0	26.750	0	294.182	0	-1e10	1	-1e10	1	-1E+10	1	-1e10	1	-1e10	1	-1E+10	1	-1E+10	1	-1E+10	1
4902624	37	C	06/26/2025	00:33	-129.181	48.567	0	297.20	0	5.9473	0	33.9721	0	26.750	0	294.479	0	56.8	4	18.8	4	-1E+10	1	0.0462	4	0.000431	0	-1E+10	1	-1E+10	1	-1E+10	1
4902624	37	C	06/26/2025	00:33	-129.181	48.567	0	298.10	0	5.9451	0	33.9726	0	26.751	0	295.370	0	56.5	4	18.6	4	-1E+10	1	0.0511	4	0.000384	0	-1E+10	1	-1E+10	1	-1E+10	1
4902624	37	C	06/26/2025	00:33	-129.181	48.567	0	298.90	0	5.9432	0	33.9730	0	26.752	0	296.162	0	56.2	4	18.5	4	-1E+10	1	0.0514	4	0.000385	0	-1E+10	1	-1E+10	1	-1E+10	1
4902624	37	C	06/26/2025	00:33	-129.181	48.567	0	299.00	0	5.9430	0	33.9730	0	26.752	0	296.261	0	-1e10	1	-1e10	1	-1E+10	1	-1e10	1	-1e10	1	-1E+10	1	-1E+10	1	-1E+10	1
4902624	37	C	06/26/2025	00:33	-129.181	48.567	0	305.00	0	5.9140	0	33.9880	0	26.767	0	302.202	0	-1e10	1	-1e10	1	-1E+10	1	-1e10	1	-1e10	1	-1E+10	1	-1E+10	1	-1E+10	1
4902624	37	C	06/26/2025	00:33	-129.181	48.567	0	307.60	0	5.8945	0	33.9888	0	26.770	0	304.776	0	54.6	4	18.0	4	-1E+10	1	0.0590	4	0.000406	0	-1E+10	1	-1E+10	1	-1E+10	1
4902624	37	C	06/26/2025	00:33	-129.181	48.567	0	315.00	0	5.8390	0	33.9910	0	26.779	0	312.103	0	-1e10	1	-1e10	1	-1E+10	1	-1e10	1	-1e10	1	-1E+10	1	-1E+10	1	-1E+10	1
4902624	37	C	06/26/2025	00:33	-129.181	48.567	0	316.70	0	5.8246	0	33.9917	0	26.781	0	313.786	0	52.4	4	17.2	4	-1E+10	1	0.0723	4	0.000376	0	-1E+10	1	-1E+10	1	-1E+10	1
4902624	37	C	06/26/2025	00:33	-129.181	48.567	0	325.00	0	5.7540	0	33.9950	0	26.793	0	322.003	0	-1e10	1	-1e10	1	-1E+10	1	-1e10	1	-1e10	1	-1E+10	1	-1E+10	1	-1E+10	1
4902624	37	C	06/26/2025	00:33	-129.181	48.567	0	326.30	0	5.7458	0	33.9963	0	26.795	0	323.290	0	50.2	4	16.5	4	-1E+10	1	0.0513	4	0.000474	0	-1E+10	1	-1E+10	1	-1E+10	1
4902624	37	C	06/26/2025	00:33	-129.181	48.567	0	335.10	0	5.6900	0	34.0050	0	26.808	0	332.002	0	-1e10	1	-1e10	1	-1E+10	1	-1e10	1	-1e10	1	-1E+10	1	-1E+10	1	-1E+10	1
4902624	37	C	06/26/2025	00:33	-129.181	48.567	0	336.10	0	5.6841	0	34.0054	0	26.809	0	332.992	0	48.4	4	15.9	4	-1E+10	1	0.0584	4	0.000338	0	-1E+10	1	-1E+10	1	-1E+10	1
4902624	37	C	06/26/2025	00:33	-129.181	48.567	0	344.90	0	5.6320	0	34.0090	0	26.819	0	341.703	0	-1e10	1	-1e10	1	-1E+10	1	-1e10	1	-1e10	1	-1E+10	1	-1E+10	1	-1E+10	1
4902624	37	C	06/26/2025	00:33	-129.181	48.567	0	346.20	0	5.6290	0	34.0102	0	26.820	0	342.990	0	46.9	4	15.4	4	-1E+10	1	0.0584	4	0.000348	0	-1E+10	1	-1E+10	1	-1E+10	1
4902624	37	C	06/26/2025	00:33	-129.181	48.567	0	354.80	0	5.6090	0	34.0180	0	26.829	0	351.503	0	-1e10	1	-1e10	1	-1E+10	1	-1e10	1	-1e10	1	-1E+10	1	-1E+10	1	-1E+10	1
4902624	37	C	06/26/2025	00:33	-129.181	48.567	0	356.50	0	5.6041	0	34.0189	0	26.830	0	353.185	0	44.8	4	14.7	4	-1E+10	1	0.0584	4	0.000337	0	-1E+10	1	-1E+10	1	-1E+10	1
4902624	37	C	06/26/2025	00:33	-129.181	48.567	0	364.80	0	5.5800	0	34.0230	0	26.836	0	361.401	0	-1e10	1	-1e10	1	-1E+10	1	-1e10	1	-1e10	1	-1E+10	1	-1E+10	1	-1E+10	1
4902624	37	C	06/26/2025	00:33	-129.181	48.567	0	366.80	0	5.5637	0	34.0234	0	26.839	0	363.381	0	43.3	4	14.2	4	-1E+10	1	0.0578	4	0.000338	0	-1E+10	1	-1E+10	1	-1E+10	1
4902624	37	C	06/26/2025	00:33	-129.181	48.567	0	375.10	0	5.4960	0	34.0250	0	26.848	0	371.596	0	-1e10	1	-1e10	1	-1E+10	1	-1e10	1	-1e10	1	-1E+10	1	-1E+10	1	-1E+10	1
4902624	37	C	06/26/2025	00:33	-129.181	48.567	0	377.30	0	5.4855	0	34.0263	0	26.850	0	373.773	0	41.8	4	13.7	4	-1E+10	1	0.0443	4	0.000359	0	-1E+10	1	-1E+10	1	-1E+10	1
4902624	37	C	06/26/2025	00:33	-129.181	48.567	0	385.20	0	5.4480	0	34.0310	0	26.859	0	381.592	0	-1e10	1	-1e10	1	-1E+10	1	-1e10	1	-1e10	1	-1E+10	1	-1E+10	1	-1E+10	1
4902624	37	C	06/26/2025	00:33	-129.181	48.567	0	388.00	0	5.4400	0	34.0339	0	26.862	0	384.363	0	40.2	4	13.1	4	-1E+10	1	0.0584	4	0.000325	0	-1E+10	1	-1E+10	1	-1E+10	1
4902624	37	C	06/26/2025	00:33	-129.181	48.567	0	395.00	0	5.4200	0	34.0410	0	26.870	0	391.291	0	-1e10	1	-1e10	1	-1E+10	1	-1e10	1	-1e10	1	-1E+10	1	-1E+10	1	-1E+10	1
4902624	37	C	06/26/2025	00:33	-129.181	48.567	0	398.90	0	5.3559	0	34.0371	0	26.874	0	395.151	0	39.5	4	12.9	4	-1E+10	1	0.0587	4	0.000326	0	-1E+10	1	-1E+10	1	-1E+10	1
4902624	37	C	06/26/2025	00:33	-129.181	48.567	0	405.10	0	5.2540	0	34.0310	0	26.882	0	401.287	0	-1e10	1	-1e10	1	-1E+10	1	-1e10	1	-1e10	1	-1E+10	1	-1E+10	1	-1E+10	1
4902624	37	C	06/26/2025	00:33	-129.181	48.567	0	409.50	0	5.2253	0	34.0332	0	26.887	0	405.641	0	38.1	4	12.4	4	-1E+10	1	0.0654	4	0.000368	0	-1E+10	1	-1E+10	1	-1E+10	1
4902624	37	C	06/26/2025	00:33	-129.181	48.567	0	414.90	0	5.1900	0	34.0360	0	26.893	0	410.985	0	-1e10	1	-1e10	1	-1E+10	1	-1e10	1	-1e10	1	-1E+10	1	-1E+10	1	-1E+10	1
4902624	37	C	06/26/2025	00:33	-129.181	48.567	0	420.30	0	5.1698	0	34.0393	0	26.898	0	416.328	0	36.4	4	11.8	4	-1E+10	1	0.0584	4	0.000562	0	-1E+10	1	-1E+10	1	-1E+10	1
4902624	37	C	06/26/2025	00:33	-129.181	48.567	0	424.80	0	5.1530	0	34.0420	0	26.902	0	420.781	0	-1e10	1	-1e10	1	-1E+10	1	-1e10	1	-1e10	1	-1E+10	1	-1E+10	1	-1E+10	1
4902624	37	C	06/26/2025	00:33	-129.181	48.567	0	431.10	0	5.1493	0	34.0544	0	26.912	0	427.015	0	33.4	4	10.8	4	-1E+10	1	0.0581	4	0.000335	0	-1E+10	1	-1E+10	1	-1E+10	1
4902624	37	C	06/26/2025	00:33	-129.181	48.567	0	435.00	0	5.1470	0	34.0620	0	26.919	0	430.874	0	-1e10	1	-1e10	1	-1E+10	1	-1e10	1	-1e10	1	-1E+10	1	-1E+10	1	-1E+10	1
4902624	37	C	06/26/2025	00:33	-129.181	48.567	0	441.90	0	5.1067	0	34.0681	0	26.928	0	437.701	0	31.6	4	10.2	4	-1E+10	1	0.0518	4	0.000296	0	-1E+10	1	-1E+10	1	-1E+10	1
4902624	37	C	06/26/2025	00:33	-129.181	48.567	0	445.10	0	5.0880	0	34.0710	0	26.933	0	440.868	0	-1e10	1	-1e10	1	-1E+10	1	-1e10	1	-1e10	1	-1E+10	1	-1E+10	1	-1E+10	1
4902624	37	C	06/26/2025	00:33	-129.181	48.567	0	452.90	0	5.0647	0	34.0758	0	26.939	0	448.585	0	30.1	4	9.8	4	-1E+10	1	0.0652	4	0.000436	0	-1E+10	1	-1E+10	1	-1E+10	1
4902624	37	C	06/26/2025	00:33	-129.181	48.567	0	454.80	0	5.0590	0	34.0770	0	26.941	0	450.465	0	-1e10	1	-1e10	1	-1E+10	1	-1e10	1	-1e10	1	-1E+10	1	-1E+10	1	-1E+10	1
4902624	37	C	06/26/2025	00:33	-129.181	48.567	0	464.30	0	5.0618	0	34.0884	0	26.950	0	459.864	0	28.5	4	9.2	4	-1E+10	1	0.0514	4	0.000290	0	-1E+10	1	-1E+10	1	-1E+10	1
4902624	37	C	06/26/2025	00:33	-129.181	48.567	0	464.80	0	5.0620	0	34.0890	0	26.950	0	460.358	0	-1e10	1	-1e10	1	-1E+10	1	-1e10	1	-1e10	1	-1E+10	1	-1E+10	1	-1E+10	1
4902624	37	C	06/26/2025	00:33	-129.181	48.567	0	475.00	0	4.9780	0	34.0890	0	26.960	0	470.449	0	-1e10	1	-1e10	1	-1E+10	1	-1e10	1	-1e10	1	-1E+10	1	-1E+10	1	-1E+10	1
4902624	37	C	06/26/2025	00:33	-129.181	48.567	0	475.90	0	4.9799	0	34.0909	0	26.961	0	471.340	0	26.4	4	8.5	4	-1E+10	1	0.0589	4	0.000324	0	-1E+10	1	-1E+10	1	-1E+10	1
4902624	37	C	06/26/2025	00:33	-129.181	48.567	0	485.10	0	4.9990	0	34.1100	0	26.974	0	480.441	0	-1e10	1	-1e10	1	-1E+10	1	-1e10	1	-1e10	1	-1E+10	1	-1E+10	1	-1E+10	1
4902624	37	C	06/26/2025	00:33	-129.181	48.567	0	487.80	0	4.9947	0	34.1127	0	26.977	0	483.112	0	24.3	4	7.9	4	-1E+10	1	0.0717	4	0.000312	0	-1E+10	1	-1E+10	1	-1E+10	1
4902624	37	C	06/26/2025	00:33	-129.181	48.567	0	495.10	0	4.9830	0	34.1200	0	26.984	0	490.333	0	-1e10	1	-1e10	1	-1E+10	1	-1e10	1	-1e10	1	-1E+10	1	-1E+10	1	-1E+10	1
4902624	37	C	06/26/2025	00:33	-129.181	48.567	0	496.10	0	4.9812	0	34.1205	0	26.985	0	491.322	0	23.6	4	7.6	4	-1E+10	1	0.0511	4	0.000301	0	-1E+10	1	-1E+10	1	-1E+10	1
4902624	37	C	06/26/2025	00:33	-129.181	48.567	0	504.30	0	4.9663	0	34.1246	0	26.990	0	499.433	0	22.8	4	7.4	4	-1E+10	1	0.0518	4	0.000321	0	-1E+10	1	-1E+10	1	-1E+10	1
4902624	37	C	06/26/2025	00:33	-129.181	48.567	0	505.00	0	4.9650	0	34.1250	0	26.990	0	500.126	0	-1e10	1	-1e10	1	-1E+10	1	-1e10	1	-1e10	1	-1E+10	1	-1E+10	1	-1E+10	1
4902624	37	C	06/26/2025	00:33	-129.181	48.567	0	512.90	0	4.9379	0	34.1290	0	26.996	0	507.940	0	22.0	4	7.1	4	-1E+10	1	0.0655	4	0.000253	0	-1E+10	1	-1E+10	1	-1E+10	1
4902624	37	C	06/26/2025	00:33	-129.181	48.567	0	514.90	0	4.9310	0	34.1300	0	26.998	0	509.918	0	-1e10	1	-1e10	1	-1E+10	1	-1e10	1	-1e10	1	-1E+10	1	-1E+10	1	-1E+10	1
4902624	37	C	06/26/2025	00:33	-129.181	48.567	0	521.90	0	4.8674	0	34.1314	0	27.006	0	516.842	0	21.0	4	6.8	4	-1E+10	1	0.0579	4	0.000253	0	-1E+10	1	-1E+10	1	-1E+10	1
4902624	37	C	06/26/2025	00:33	-129.181	48.567	0	524.80	0	4.8410	0	34.1320	0	27.010	0	519.710	0	-1e10	1	-1e10	1	-1E+10	1	-1e10	1	-1e10	1	-1E+10	1	-1E+10	1	-1E+10	1
4902624	37	C	06/26/2025	00:33	-129.181	48.567	0	531.60	0	4.7995	0	34.1340	0	27.016	0	526.435	0	20.4	4	6.6	4	-1E+10	1	0.0450	4	0.000241	0	-1E+10	1	-1E+10	1	-1E+10	1
4902624	37	C	06/26/2025	00:33	-129.181	48.567	0	534.80	0	4.7800	0	34.1350	0	27.019	0	529.600	0	-1e10	1	-1e10	1	-1E+10	1	-1e10	1	-1e10	1	-1E+10	1	-1E+10	1	-1E+10	1
4902624	37	C	06/26/2025	00:33	-129.181	48.567	0	541.60	0	4.7582	0	34.1377	0	27.024	0	536.325	0	19.6	4	6.3	4	-1E+10	1	0.0721	4	0.000245	0	-1E+10	1	-1E+10	1	-1E+10	1
4902624	37	C	06/26/2025	00:33	-129.181	48.567	0	544.80	0	4.7480	0	34.1390	0	27.026	0	539.490	0	-1e10	1	-1e10	1	-1E+10	1	-1e10	1	-1e10	1	-1E+10	1	-1E+10	1	-1E+10	1
4902624	37	C	06/26/2025	00:33	-129.181	48.567	0	551.80	0	4.7186	0	34.1432	0	27.033	0	546.413	0	18.7	4	6.0	4	-1E+10	1	0.0514	4	0.000344	0	-1E+10	1	-1E+10	1	-1E+10	1
4902624	37	C	06/26/2025	00:33	-129.181	48.567	0	554.80	0	4.7060	0	34.1450	0	27.035	0	549.379	0	-1e10	1	-1e10	1	-1E+10	1	-1e10	1	-1e10	1	-1E+10	1	-1E+10	1	-1E+10	1
4902624	37	C	06/26/2025	00:33	-129.181	48.567	0	562.30	0	4.6941	0	34.1472	0	27.039	0	556.796	0	18.2	4	5.8	4	-1E+10	1	0.0587	4	0.000263	0	-1E+10	1	-1E+10	1	-1E+10	1
4902624	37	C	06/26/2025	00:33	-129.181	48.567	0	564.90	0	4.6900	0	34.1480	0	27.040	0	559.367	0	-1e10	1	-1e10	1	-1E+10	1	-1e10	1	-1e10	1	-1E+10	1	-1E+10	1	-1E+10	1
4902624	37	C	06/26/2025	00:33	-129.181	48.567	0	573.00	0	4.6788	0	34.1496	0	27.042	0	567.377	0	17.4	4	5.6	4	-1E+10	1	0.0652	4	0.000235	0	-1E+10	1	-1E+10	1	-1E+10	1
4902624	37	C	06/26/2025	00:33	-129.181	48.567	0	575.00	0	4.6760	0	34.1500	0	27.043	0	569.354	0	-1e10	1	-1e10	1	-1E+10	1	-1e10	1	-1e10	1	-1E+10	1	-1E+10	1	-1E+10	1
4902624	37	C	06/26/2025	00:33	-129.181	48.567	0	583.80	0	4.6422	0	34.1589	0	27.054	0	578.056	0	16.3	4	5.2	4	-1E+10	1	0.0514	4	0.000378	0	-1E+10	1	-1E+10	1	-1E+10	1
4902624	37	C	06/26/2025	00:33	-129.181	48.567	0	584.90	0	4.6380	0	34.1600	0	27.055	0	579.144	0	-1e10	1	-1e10	1	-1E+10	1	-1e10	1	-1e10	1	-1E+10	1	-1E+10	1	-1E+10	1
4902624	37	C	06/26/2025	00:33	-129.181	48.567	0	594.90	0	4.6083	0	34.1679	0	27.065	0	589.031	0	15.3	4	4.9	4	-1E+10	1	0.0591	4	0.000277	0	-1E+10	1	-1E+10	1	-1E+10	1
4902624	37	C	06/26/2025	00:33	-129.181	48.567	0	595.00	0	4.6080	0	34.1680	0	27.065	0	589.130	0	-1e10	1	-1e10	1	-1E+10	1	-1e10	1	-1e10	1	-1E+10	1	-1E+10	1	-1E+10	1
4902624	37	C	06/26/2025	00:33	-129.181	48.567	0	605.20	0	4.5780	0	34.1750	0	27.074	0	599.215	0	-1e10	1	-1e10	1	-1E+10	1	-1e10	1	-1e10	1	-1E+10	1	-1E+10	1	-1E+10	1
4902624	37	C	06/26/2025	00:33	-129.181	48.567	0	606.10	0	4.5752	0	34.1759	0	27.075	0	600.104	0	14.5	4	4.6	4	-1E+10	1	0.0717	4	0.000308	0	-1E+10	1	-1E+10	1	-1E+10	1
4902624	37	C	06/26/2025	00:33	-129.181	48.567	0	615.20	0	4.5470	0	34.1850	0	27.085	0	609.101	0	-1e10	1	-1e10	1	-1E+10	1	-1e10	1	-1e10	1	-1E+10	1	-1E+10	1	-1E+10	1
4902624	37	C	06/26/2025	00:33	-129.181	48.567	0	617.30	0	4.5428	0	34.1863	0	27.087	0	611.177	0	13.7	4	4.4	4	-1E+10	1	0.0445	4	0.000253	0	-1E+10	1	-1E+10	1	-1E+10	1
4902624	37	C	06/26/2025	00:33	-129.181	48.567	0	625.10	0	4.5270	0	34.1910	0	27.092	0	618.888	0	-1e10	1	-1e10	1	-1E+10	1	-1e10	1	-1e10	1	-1E+10	1	-1E+10	1	-1E+10	1
4902624	37	C	06/26/2025	00:33	-129.181	48.567	0	628.30	0	4.5218	0	34.1933	0	27.094	0	622.052	0	13.1	4	4.2	4	-1E+10	1	0.0581	4	0.000513	0	-1E+10	1	-1E+10	1	-1E+10	1
4902624	37	C	06/26/2025	00:33	-129.181	48.567	0	635.00	0	4.5110	0	34.1980	0	27.099	0	628.675	0	-1e10	1	-1e10	1	-1E+10	1	-1e10	1	-1e10	1	-1E+10	1	-1E+10	1	-1E+10	1
4902624	37	C	06/26/2025	00:33	-129.181	48.567	0	639.10	0	4.5059	0	34.2010	0	27.102	0	632.728	0	12.4	4	4.0	4	-1E+10	1	0.0519	4	0.000275	0	-1E+10	1	-1E+10	1	-1E+10	1
4902624	37	C	06/26/2025	00:33	-129.181	48.567	0	644.70	0	4.4990	0	34.2050	0	27.106	0	638.263	0	-1e10	1	-1e10	1	-1E+10	1	-1e10	1	-1e10	1	-1E+10	1	-1E+10	1	-1E+10	1
4902624	37	C	06/26/2025	00:33	-129.181	48.567	0	649.60	0	4.4846	0	34.2088	0	27.111	0	643.107	0	11.8	4	3.8	4	-1E+10	1	0.0721	4	0.000274	0	-1E+10	1	-1E+10	1	-1E+10	1
4902624	37	C	06/26/2025	00:33	-129.181	48.567	0	654.90	0	4.4690	0	34.2130	0	27.116	0	648.346	0	-1e10	1	-1e10	1	-1E+10	1	-1e10	1	-1e10	1	-1E+10	1	-1E+10	1	-1E+10	1
4902624	37	C	06/26/2025	00:33	-129.181	48.567	0	659.80	0	4.4603	0	34.2174	0	27.121	0	653.189	0	11.5	4	3.7	4	-1E+10	1	0.0514	4	0.000252	0	-1E+10	1	-1E+10	1	-1E+10	1
4902624	37	C	06/26/2025	00:33	-129.181	48.567	0	665.00	0	4.4510	0	34.2220	0	27.125	0	658.329	0	-1e10	1	-1e10	1	-1E+10	1	-1e10	1	-1e10	1	-1E+10	1	-1E+10	1	-1E+10	1
4902624	37	C	06/26/2025	00:33	-129.181	48.567	0	670.10	0	4.4326	0	34.2235	0	27.128	0	663.369	0	11.3	4	3.6	4	-1E+10	1	0.0587	4	0.000265	0	-1E+10	1	-1E+10	1	-1E+10	1
4902624	37	C	06/26/2025	00:33	-129.181	48.567	0	675.00	0	4.4150	0	34.2250	0	27.132	0	668.212	0	-1e10	1	-1e10	1	-1E+10	1	-1e10	1	-1e10	1	-1E+10	1	-1E+10	1	-1E+10	1
4902624	37	C	06/26/2025	00:33	-129.181	48.567	0	680.60	0	4.3910	0	34.2301	0	27.138	0	673.747	0	10.7	4	3.4	4	-1E+10	1	0.0650	4	0.000300	0	-1E+10	1	-1E+10	1	-1E+10	1
4902624	37	C	06/26/2025	00:33	-129.181	48.567	0	684.80	0	4.3730	0	34.2340	0	27.143	0	677.898	0	-1e10	1	-1e10	1	-1E+10	1	-1e10	1	-1e10	1	-1E+10	1	-1E+10	1	-1E+10	1
4902624	37	C	06/26/2025	00:33	-129.181	48.567	0	691.00	0	4.3408	0	34.2377	0	27.150	0	684.025	0	10.5	4	3.4	4	-1E+10	1	0.0508	4	0.000317	0	-1E+10	1	-1E+10	1	-1E+10	1
4902624	37	C	06/26/2025	00:33	-129.181	48.567	0	694.80	0	4.3210	0	34.2400	0	27.154	0	687.780	0	-1e10	1	-1e10	1	-1E+10	1	-1e10	1	-1e10	1	-1E+10	1	-1E+10	1	-1E+10	1
4902624	37	C	06/26/2025	00:33	-129.181	48.567	0	701.90	0	4.3068	0	34.2457	0	27.160	0	694.797	0	10.0	4	3.2	4	-1E+10	1	0.0441	4	0.000198	0	-1E+10	1	-1E+10	1	-1E+10	1
4902624	37	C	06/26/2025	00:33	-129.181	48.567	0	704.80	0	4.3010	0	34.2480	0	27.162	0	697.663	0	-1e10	1	-1e10	1	-1E+10	1	-1e10	1	-1e10	1	-1E+10	1	-1E+10	1	-1E+10	1
4902624	37	C	06/26/2025	00:33	-129.181	48.567	0	713.20	0	4.2945	0	34.2569	0	27.170	0	705.963	0	9.4	4	3.0	4	-1E+10	1	0.0511	4	0.000330	0	-1E+10	1	-1E+10	1	-1E+10	1
4902624	37	C	06/26/2025	00:33	-129.181	48.567	0	715.20	0	4.2930	0	34.2590	0	27.172	0	707.940	0	-1e10	1	-1e10	1	-1E+10	1	-1e10	1	-1e10	1	-1E+10	1	-1E+10	1	-1E+10	1
4902624	37	C	06/26/2025	00:33	-129.181	48.567	0	724.50	0	4.2742	0	34.2637	0	27.178	0	717.129	0	9.2	4	2.9	4	-1E+10	1	0.0515	4	0.000253	0	-1E+10	1	-1E+10	1	-1E+10	1
4902624	37	C	06/26/2025	00:33	-129.181	48.567	0	725.10	0	4.2730	0	34.2640	0	27.178	0	717.722	0	-1e10	1	-1e10	1	-1E+10	1	-1e10	1	-1e10	1	-1E+10	1	-1E+10	1	-1E+10	1
4902624	37	C	06/26/2025	00:33	-129.181	48.567	0	732.40	0	4.2518	0	34.2677	0	27.183	0	724.935	0	9.0	4	2.8	4	-1E+10	1	0.0584	4	0.000284	0	-1E+10	1	-1E+10	1	-1E+10	1
4902624	37	C	06/26/2025	00:33	-129.181	48.567	0	735.10	0	4.2440	0	34.2690	0	27.185	0	727.603	0	-1e10	1	-1e10	1	-1E+10	1	-1e10	1	-1e10	1	-1E+10	1	-1E+10	1	-1E+10	1
4902624	37	C	06/26/2025	00:33	-129.181	48.567	0	740.60	0	4.2207	0	34.2729	0	27.191	0	733.037	0	8.7	4	2.7	4	-1E+10	1	0.0581	4	0.000239	0	-1E+10	1	-1E+10	1	-1E+10	1
4902624	37	C	06/26/2025	00:33	-129.181	48.567	0	745.00	0	4.2020	0	34.2760	0	27.195	0	737.385	0	-1e10	1	-1e10	1	-1E+10	1	-1e10	1	-1e10	1	-1E+10	1	-1E+10	1	-1E+10	1
4902624	37	C	06/26/2025	00:33	-129.181	48.567	0	749.10	0	4.1911	0	34.2781	0	27.198	0	741.435	0	8.5	4	2.7	4	-1E+10	1	0.0511	4	0.000238	0	-1E+10	1	-1E+10	1	-1E+10	1
4902624	37	C	06/26/2025	00:33	-129.181	48.567	0	754.80	0	4.1760	0	34.2810	0	27.202	0	747.067	0	-1e10	1	-1e10	1	-1E+10	1	-1e10	1	-1e10	1	-1E+10	1	-1E+10	1	-1E+10	1
4902624	37	C	06/26/2025	00:33	-129.181	48.567	0	758.20	0	4.1669	0	34.2827	0	27.204	0	750.426	0	8.4	4	2.7	4	-1E+10	1	0.0517	4	0.000216	0	-1E+10	1	-1E+10	1	-1E+10	1
4902624	37	C	06/26/2025	00:33	-129.181	48.567	0	764.90	0	4.1490	0	34.2860	0	27.209	0	757.045	0	-1e10	1	-1e10	1	-1E+10	1	-1e10	1	-1e10	1	-1E+10	1	-1E+10	1	-1E+10	1
4902624	37	C	06/26/2025	00:33	-129.181	48.567	0	767.60	0	4.1435	0	34.2876	0	27.211	0	759.712	0	8.2	4	2.6	4	-1E+10	1	0.0735	4	0.000283	0	-1E+10	1	-1E+10	1	-1E+10	1
4902624	37	C	06/26/2025	00:33	-129.181	48.567	0	775.20	0	4.1280	0	34.2920	0	27.216	0	767.220	0	-1e10	1	-1e10	1	-1E+10	1	-1e10	1	-1e10	1	-1E+10	1	-1E+10	1	-1E+10	1
4902624	37	C	06/26/2025	00:33	-129.181	48.567	0	777.80	0	4.1248	0	34.2933	0	27.217	0	769.789	0	8.0	4	2.5	4	-1E+10	1	0.3182	4	0.002416	0	-1E+10	1	-1E+10	1	-1E+10	1
4902624	37	C	06/26/2025	00:33	-129.181	48.567	0	785.10	0	4.1160	0	34.2970	0	27.221	0	777.000	0	-1e10	1	-1e10	1	-1E+10	1	-1e10	1	-1e10	1	-1E+10	1	-1E+10	1	-1E+10	1
4902624	37	C	06/26/2025	00:33	-129.181	48.567	0	788.30	0	4.1131	0	34.2980	0	27.222	0	780.161	0	7.9	4	2.5	4	-1E+10	1	0.0587	4	0.000228	0	-1E+10	1	-1E+10	1	-1E+10	1
4902624	37	C	06/26/2025	00:33	-129.181	48.567	0	794.90	0	4.1070	0	34.3000	0	27.224	0	786.681	0	-1e10	1	-1e10	1	-1E+10	1	-1e10	1	-1e10	1	-1E+10	1	-1E+10	1	-1E+10	1
4902624	37	C	06/26/2025	00:33	-129.181	48.567	0	799.00	0	4.0995	0	34.3017	0	27.227	0	790.730	0	7.9	4	2.5	4	-1E+10	1	0.0654	4	0.000260	0	-1E+10	1	-1E+10	1	-1E+10	1
4902624	37	C	06/26/2025	00:33	-129.181	48.567	0	804.70	0	4.0890	0	34.3040	0	27.230	0	796.361	0	-1e10	1	-1e10	1	-1E+10	1	-1e10	1	-1e10	1	-1E+10	1	-1E+10	1	-1E+10	1
4902624	37	C	06/26/2025	00:33	-129.181	48.567	0	809.80	0	4.0715	0	34.3075	0	27.234	0	801.398	0	7.7	4	2.4	4	-1E+10	1	0.0577	4	0.000227	0	-1E+10	1	-1E+10	1	-1E+10	1
4902624	37	C	06/26/2025	00:33	-129.181	48.567	0	814.90	0	4.0540	0	34.3110	0	27.239	0	806.435	0	-1e10	1	-1e10	1	-1E+10	1	-1e10	1	-1e10	1	-1E+10	1	-1E+10	1	-1E+10	1
4902624	37	C	06/26/2025	00:33	-129.181	48.567	0	820.90	0	4.0387	0	34.3145	0	27.243	0	812.361	0	7.6	4	2.4	4	-1E+10	1	0.0441	4	0.000226	0	-1E+10	1	-1E+10	1	-1E+10	1
4902624	37	C	06/26/2025	00:33	-129.181	48.567	0	825.10	0	4.0280	0	34.3170	0	27.246	0	816.509	0	-1e10	1	-1e10	1	-1E+10	1	-1e10	1	-1e10	1	-1E+10	1	-1E+10	1	-1E+10	1
4902624	37	C	06/26/2025	00:33	-129.181	48.567	0	832.00	0	4.0189	0	34.3191	0	27.249	0	823.324	0	7.5	4	2.4	4	-1E+10	1	0.0519	4	0.000215	0	-1E+10	1	-1E+10	1	-1E+10	1
4902624	37	C	06/26/2025	00:33	-129.181	48.567	0	835.00	0	4.0150	0	34.3200	0	27.250	0	826.287	0	-1e10	1	-1e10	1	-1E+10	1	-1e10	1	-1e10	1	-1E+10	1	-1E+10	1	-1E+10	1
4902624	37	C	06/26/2025	00:33	-129.181	48.567	0	843.20	0	4.0033	0	34.3233	0	27.254	0	834.385	0	7.6	4	2.4	4	-1E+10	1	0.0723	4	0.000218	0	-1E+10	1	-1E+10	1	-1E+10	1
4902624	37	C	06/26/2025	00:33	-129.181	48.567	0	844.80	0	4.0010	0	34.3240	0	27.255	0	835.965	0	-1e10	1	-1e10	1	-1E+10	1	-1e10	1	-1e10	1	-1E+10	1	-1E+10	1	-1E+10	1
4902624	37	C	06/26/2025	00:33	-129.181	48.567	0	854.20	0	3.9842	0	34.3268	0	27.259	0	845.248	0	7.5	4	2.4	4	-1E+10	1	0.0581	4	0.000293	0	-1E+10	1	-1E+10	1	-1E+10	1
4902624	37	C	06/26/2025	00:33	-129.181	48.567	0	854.90	0	3.9830	0	34.3270	0	27.259	0	845.939	0	-1e10	1	-1e10	1	-1E+10	1	-1e10	1	-1e10	1	-1E+10	1	-1E+10	1	-1E+10	1
4902624	37	C	06/26/2025	00:33	-129.181	48.567	0	864.80	0	3.9640	0	34.3320	0	27.265	0	855.715	0	-1e10	1	-1e10	1	-1E+10	1	-1e10	1	-1e10	1	-1E+10	1	-1E+10	1	-1E+10	1
4902624	37	C	06/26/2025	00:33	-129.181	48.567	0	865.10	0	3.9635	0	34.3321	0	27.265	0	856.011	0	7.5	4	2.4	4	-1E+10	1	0.0514	4	0.000203	0	-1E+10	1	-1E+10	1	-1E+10	1
4902624	37	C	06/26/2025	00:33	-129.181	48.567	0	875.20	0	3.9460	0	34.3360	0	27.270	0	865.984	0	-1e10	1	-1e10	1	-1E+10	1	-1e10	1	-1e10	1	-1E+10	1	-1E+10	1	-1E+10	1
4902624	37	C	06/26/2025	00:33	-129.181	48.567	0	876.00	0	3.9441	0	34.3363	0	27.271	0	866.774	0	7.5	4	2.4	4	-1E+10	1	0.0587	4	0.000205	0	-1E+10	1	-1E+10	1	-1E+10	1
4902624	37	C	06/26/2025	00:33	-129.181	48.567	0	884.80	0	3.9230	0	34.3400	0	27.276	0	875.463	0	-1e10	1	-1e10	1	-1E+10	1	-1e10	1	-1e10	1	-1E+10	1	-1E+10	1	-1E+10	1
4902624	37	C	06/26/2025	00:33	-129.181	48.567	0	887.00	0	3.9185	0	34.3406	0	27.277	0	877.635	0	7.5	4	2.4	4	-1E+10	1	0.0660	4	0.000285	0	-1E+10	1	-1E+10	1	-1E+10	1
4902624	37	C	06/26/2025	00:33	-129.181	48.567	0	895.00	0	3.9020	0	34.3430	0	27.280	0	885.534	0	-1e10	1	-1e10	1	-1E+10	1	-1e10	1	-1e10	1	-1E+10	1	-1E+10	1	-1E+10	1
4902624	37	C	06/26/2025	00:33	-129.181	48.567	0	897.90	0	3.8923	0	34.3442	0	27.282	0	888.397	0	7.5	4	2.4	4	-1E+10	1	0.0727	4	0.000294	0	-1E+10	1	-1E+10	1	-1E+10	1
4902624	37	C	06/26/2025	00:33	-129.181	48.567	0	904.90	0	3.8690	0	34.3470	0	27.287	0	895.308	0	-1e10	1	-1e10	1	-1E+10	1	-1e10	1	-1e10	1	-1E+10	1	-1E+10	1	-1E+10	1
4902624	37	C	06/26/2025	00:33	-129.181	48.567	0	909.20	0	3.8486	0	34.3492	0	27.291	0	899.553	0	7.7	4	2.4	4	-1E+10	1	0.0660	4	0.000237	0	-1E+10	1	-1E+10	1	-1E+10	1
4902624	37	C	06/26/2025	00:33	-129.181	48.567	0	914.80	0	3.8220	0	34.3520	0	27.296	0	905.081	0	-1e10	1	-1e10	1	-1E+10	1	-1e10	1	-1e10	1	-1E+10	1	-1E+10	1	-1E+10	1
4902624	37	C	06/26/2025	00:33	-129.181	48.567	0	920.90	0	3.8131	0	34.3561	0	27.300	0	911.103	0	7.8	4	2.5	4	-1E+10	1	0.0724	4	0.000224	0	-1E+10	1	-1E+10	1	-1E+10	1
4902624	37	C	06/26/2025	00:33	-129.181	48.567	0	925.10	0	3.8070	0	34.3590	0	27.303	0	915.249	0	-1e10	1	-1e10	1	-1E+10	1	-1e10	1	-1e10	1	-1E+10	1	-1E+10	1	-1E+10	1
4902624	37	C	06/26/2025	00:33	-129.181	48.567	0	932.80	0	3.7965	0	34.3605	0	27.305	0	922.850	0	7.8	4	2.5	4	-1E+10	1	0.0582	4	0.000203	0	-1E+10	1	-1E+10	1	-1E+10	1
4902624	37	C	06/26/2025	00:33	-129.181	48.567	0	935.40	0	3.7930	0	34.3610	0	27.306	0	925.417	0	-1e10	1	-1e10	1	-1E+10	1	-1e10	1	-1e10	1	-1E+10	1	-1E+10	1	-1E+10	1
4902624	37	C	06/26/2025	00:33	-129.181	48.567	0	944.90	0	3.7782	0	34.3630	0	27.309	0	934.794	0	7.8	4	2.5	4	-1E+10	1	0.0511	4	0.000223	0	-1E+10	1	-1E+10	1	-1E+10	1
4902624	37	C	06/26/2025	00:33	-129.181	48.567	0	945.00	0	3.7780	0	34.3630	0	27.309	0	934.893	0	-1e10	1	-1e10	1	-1E+10	1	-1e10	1	-1e10	1	-1E+10	1	-1E+10	1	-1E+10	1
4902624	37	C	06/26/2025	00:33	-129.181	48.567	0	954.90	0	3.7600	0	34.3670	0	27.314	0	944.665	0	-1e10	1	-1e10	1	-1E+10	1	-1e10	1	-1e10	1	-1E+10	1	-1E+10	1	-1E+10	1
4902624	37	C	06/26/2025	00:33	-129.181	48.567	0	956.50	0	3.7586	0	34.3675	0	27.315	0	946.244	0	8.0	4	2.5	4	-1E+10	1	0.0508	4	0.000180	0	-1E+10	1	-1E+10	1	-1E+10	1
4902624	37	C	06/26/2025	00:33	-129.181	48.567	0	964.90	0	3.7510	0	34.3700	0	27.317	0	954.535	0	-1e10	1	-1e10	1	-1E+10	1	-1e10	1	-1e10	1	-1E+10	1	-1E+10	1	-1E+10	1
4902624	37	C	06/26/2025	00:33	-129.181	48.567	0	968.00	0	3.7429	0	34.3709	0	27.319	0	957.595	0	8.1	4	2.6	4	-1E+10	1	0.0443	4	0.000225	0	-1E+10	1	-1E+10	1	-1E+10	1
4902624	37	C	06/26/2025	00:33	-129.181	48.567	0	974.90	0	3.7250	0	34.3730	0	27.323	0	964.404	0	-1e10	1	-1e10	1	-1E+10	1	-1e10	1	-1e10	1	-1E+10	1	-1E+10	1	-1E+10	1
4902624	37	C	06/26/2025	00:33	-129.181	48.567	0	979.60	0	3.7059	0	34.3735	0	27.325	0	969.043	0	8.3	4	2.6	4	-1E+10	1	0.0584	4	0.000223	0	-1E+10	1	-1E+10	1	-1E+10	1
4902624	37	C	06/26/2025	00:33	-129.181	48.567	0	985.00	0	3.6840	0	34.3740	0	27.327	0	974.372	0	-1e10	1	-1e10	1	-1E+10	1	-1e10	1	-1e10	1	-1E+10	1	-1E+10	1	-1E+10	1
4902624	37	C	06/26/2025	00:33	-129.181	48.567	0	991.30	0	3.6694	0	34.3791	0	27.333	0	980.590	0	8.4	4	2.6	4	-1E+10	1	0.0582	4	0.000190	0	-1E+10	1	-1E+10	1	-1E+10	1
4902624	37	C	06/26/2025	00:33	-129.181	48.567	0	994.90	0	3.6610	0	34.3820	0	27.336	0	984.142	0	-1e10	1	-1e10	1	-1E+10	1	-1e10	1	-1e10	1	-1E+10	1	-1E+10	1	-1E+10	1
4902624	37	C	06/26/2025	00:33	-129.181	48.567	0	1003.80	0	3.6332	0	34.3861	0	27.342	0	992.925	0	8.6	4	2.7	4	-1E+10	1	0.0512	4	0.000212	0	-1E+10	1	-1E+10	1	-1E+10	1
4902624	37	C	06/26/2025	00:33	-129.181	48.567	0	1019.90	0	3.5829	0	34.3936	0	27.353	0	1008.812	0	42.4	4	13.3	4	-1E+10	1	0.0584	4	0.000168	0	-1E+10	1	-1E+10	1	-1E+10	1
4902624	37	C	06/26/2025	00:33	-129.181	48.567	0	1025.00	0	3.5670	0	34.3960	0	27.357	0	1013.844	0	-1e10	1	-1e10	1	-1E+10	1	-1e10	1	-1e10	1	-1E+10	1	-1E+10	1	-1E+10	1
4902624	37	C	06/26/2025	00:33	-129.181	48.567	0	1037.10	0	3.5375	0	34.4011	0	27.364	0	1025.783	0	48.7	4	15.2	4	-1E+10	1	0.0586	4	0.000281	0	-1E+10	1	-1E+10	1	-1E+10	1
4902624	37	C	06/26/2025	00:33	-129.181	48.567	0	1055.40	0	3.4928	0	34.4088	0	27.374	0	1043.837	0	73.9	4	23.1	4	-1E+10	1	0.0657	4	0.000224	0	-1E+10	1	-1E+10	1	-1E+10	1
4902624	37	C	06/26/2025	00:33	-129.181	48.567	0	1074.90	0	3.4452	0	34.4170	0	27.385	0	1063.074	0	85.9	4	26.8	4	-1E+10	1	0.0654	4	0.000246	0	-1E+10	1	-1E+10	1	-1E+10	1
4902624	37	C	06/26/2025	00:33	-129.181	48.567	0	1075.00	0	3.4450	0	34.4170	0	27.385	0	1063.173	0	-1e10	1	-1e10	1	-1E+10	1	-1e10	1	-1e10	1	-1E+10	1	-1E+10	1	-1E+10	1
4902624	37	C	06/26/2025	00:33	-129.181	48.567	0	1096.30	0	3.3892	0	34.4234	0	27.396	0	1084.184	0	101.8	4	31.7	4	-1E+10	1	0.0513	4	0.000188	0	-1E+10	1	-1E+10	1	-1E+10	1
4902624	37	C	06/26/2025	00:33	-129.181	48.567	0	1118.60	0	3.3307	0	34.4302	0	27.407	0	1106.179	0	108.9	4	33.9	4	-1E+10	1	0.0583	4	0.000199	0	-1E+10	1	-1E+10	1	-1E+10	1
4902624	37	C	06/26/2025	00:33	-129.181	48.567	0	1124.60	0	3.3150	0	34.4320	0	27.410	0	1112.096	0	-1e10	1	-1e10	1	-1E+10	1	-1e10	1	-1e10	1	-1E+10	1	-1E+10	1	-1E+10	1
4902624	37	C	06/26/2025	00:33	-129.181	48.567	0	1141.70	0	3.2825	0	34.4364	0	27.417	0	1128.960	0	114.6	4	35.6	4	-1E+10	1	0.0512	4	0.000176	0	-1E+10	1	-1E+10	1	-1E+10	1
4902624	37	C	06/26/2025	00:33	-129.181	48.567	0	1165.80	0	3.2367	0	34.4426	0	27.426	0	1152.725	0	118.7	4	36.8	4	-1E+10	1	0.0584	4	0.000200	0	-1E+10	1	-1E+10	1	-1E+10	1
4902624	37	C	06/26/2025	00:33	-129.181	48.567	0	1175.10	0	3.2190	0	34.4450	0	27.430	0	1161.895	0	-1e10	1	-1e10	1	-1E+10	1	-1e10	1	-1e10	1	-1E+10	1	-1E+10	1	-1E+10	1
4902624	37	C	06/26/2025	00:33	-129.181	48.567	0	1190.10	0	3.1914	0	34.4488	0	27.435	0	1176.684	0	120.8	4	37.5	4	-1E+10	1	0.0582	4	0.000245	0	-1E+10	1	-1E+10	1	-1E+10	1
4902624	37	C	06/26/2025	00:33	-129.181	48.567	0	1214.10	0	3.1471	0	34.4549	0	27.444	0	1200.345	0	121.8	4	37.7	4	-1E+10	1	0.0515	4	0.000198	0	-1E+10	1	-1E+10	1	-1E+10	1
4902624	37	C	06/26/2025	00:33	-129.181	48.567	0	1226.10	0	3.1250	0	34.4580	0	27.449	0	1212.175	0	-1e10	1	-1e10	1	-1E+10	1	-1e10	1	-1e10	1	-1E+10	1	-1E+10	1	-1E+10	1
4902624	37	C	06/26/2025	00:33	-129.181	48.567	0	1231.20	0	3.1128	0	34.4597	0	27.451	0	1217.202	0	123.4	4	38.2	4	-1E+10	1	0.0654	4	0.000175	0	-1E+10	1	-1E+10	1	-1E+10	1
4902624	37	C	06/26/2025	00:33	-129.181	48.567	0	1247.40	0	3.0741	0	34.4650	0	27.459	0	1233.171	0	125.0	4	38.7	4	-1E+10	1	0.0514	4	0.000176	0	-1E+10	1	-1E+10	1	-1E+10	1
4902624	37	C	06/26/2025	00:33	-129.181	48.567	0	1263.70	0	3.0351	0	34.4704	0	27.467	0	1249.236	0	126.6	4	39.1	4	-1E+10	1	0.0656	4	0.000232	0	-1E+10	1	-1E+10	1	-1E+10	1
4902624	37	C	06/26/2025	00:33	-129.181	48.567	0	1274.60	0	3.0090	0	34.4740	0	27.473	0	1259.979	0	-1e10	1	-1e10	1	-1E+10	1	-1e10	1	-1e10	1	-1E+10	1	-1E+10	1	-1E+10	1
4902624	37	C	06/26/2025	00:33	-129.181	48.567	0	1281.00	0	2.9987	0	34.4751	0	27.474	0	1266.286	0	127.4	4	39.4	4	-1E+10	1	0.0589	4	0.000165	0	-1E+10	1	-1E+10	1	-1E+10	1
4902624	37	C	06/26/2025	00:33	-129.181	48.567	0	1300.30	0	2.9678	0	34.4786	0	27.480	0	1285.306	0	128.2	4	39.6	4	-1E+10	1	0.0797	4	0.000300	0	-1E+10	1	-1E+10	1	-1E+10	1
4902624	37	C	06/26/2025	00:33	-129.181	48.567	0	1320.40	0	2.9355	0	34.4822	0	27.486	0	1305.112	0	129.7	4	40.0	4	-1E+10	1	0.0512	4	0.000162	0	-1E+10	1	-1E+10	1	-1E+10	1
4902624	37	C	06/26/2025	00:33	-129.181	48.567	0	1325.10	0	2.9280	0	34.4830	0	27.487	0	1309.743	0	-1e10	1	-1e10	1	-1E+10	1	-1e10	1	-1e10	1	-1E+10	1	-1E+10	1	-1E+10	1
4902624	37	C	06/26/2025	00:33	-129.181	48.567	0	1342.00	0	2.8948	0	34.4870	0	27.494	0	1326.394	0	132.8	4	40.9	4	-1E+10	1	0.0586	4	0.000198	0	-1E+10	1	-1E+10	1	-1E+10	1
4902624	37	C	06/26/2025	00:33	-129.181	48.567	0	1365.70	0	2.8482	0	34.4927	0	27.502	0	1349.742	0	134.7	4	41.4	4	-1E+10	1	0.0725	4	0.000265	0	-1E+10	1	-1E+10	1	-1E+10	1
4902624	37	C	06/26/2025	00:33	-129.181	48.567	0	1375.50	0	2.8290	0	34.4950	0	27.506	0	1359.396	0	-1e10	1	-1e10	1	-1E+10	1	-1e10	1	-1e10	1	-1E+10	1	-1E+10	1	-1E+10	1
4902624	37	C	06/26/2025	00:33	-129.181	48.567	0	1386.70	0	2.8133	0	34.4966	0	27.509	0	1370.429	0	137.2	4	42.2	4	-1E+10	1	0.0513	4	0.000185	0	-1E+10	1	-1E+10	1	-1E+10	1
4902624	37	C	06/26/2025	00:33	-129.181	48.567	0	1402.90	0	2.7907	0	34.4989	0	27.513	0	1386.386	0	137.2	4	42.2	4	-1E+10	1	0.0587	4	0.000218	0	-1E+10	1	-1E+10	1	-1E+10	1
4902624	37	C	06/26/2025	00:33	-129.181	48.567	0	1419.20	0	2.7678	0	34.5012	0	27.517	0	1402.439	0	136.8	4	42.0	4	-1E+10	1	0.0729	4	0.000161	0	-1E+10	1	-1E+10	1	-1E+10	1
4902624	37	C	06/26/2025	00:33	-129.181	48.567	0	1424.80	0	2.7600	0	34.5020	0	27.518	0	1407.955	0	-1e10	1	-1e10	1	-1E+10	1	-1e10	1	-1e10	1	-1E+10	1	-1E+10	1	-1E+10	1
4902624	37	C	06/26/2025	00:33	-129.181	48.567	0	1436.10	0	2.7354	0	34.5047	0	27.522	0	1419.083	0	135.4	4	41.6	4	-1E+10	1	0.0650	4	0.000173	0	-1E+10	1	-1E+10	1	-1E+10	1
4902624	37	C	06/26/2025	00:33	-129.181	48.567	0	1453.70	0	2.6970	0	34.5089	0	27.529	0	1436.415	0	134.5	4	41.2	4	-1E+10	1	0.0371	4	0.000231	0	-1E+10	1	-1E+10	1	-1E+10	1
4902624	37	C	06/26/2025	00:33	-129.181	48.567	0	1471.80	0	2.6575	0	34.5133	0	27.536	0	1454.237	0	132.6	4	40.6	4	-1E+10	1	0.0655	4	0.000264	0	-1E+10	1	-1E+10	1	-1E+10	1
4902624	37	C	06/26/2025	00:33	-129.181	48.567	0	1474.80	0	2.6510	0	34.5140	0	27.537	0	1457.191	0	-1e10	1	-1e10	1	-1E+10	1	-1e10	1	-1e10	1	-1E+10	1	-1E+10	1	-1E+10	1
4902624	37	C	06/26/2025	00:33	-129.181	48.567	0	1489.90	0	2.6101	0	34.5164	0	27.543	0	1472.058	0	134.4	4	41.1	4	-1E+10	1	0.0511	4	0.000202	0	-1E+10	1	-1E+10	1	-1E+10	1
4902624	37	C	06/26/2025	00:33	-129.181	48.567	0	1508.00	0	2.5612	0	34.5193	0	27.549	0	1489.878	0	127.1	4	38.8	4	-1E+10	1	0.0510	4	0.000610	0	-1E+10	1	-1E+10	1	-1E+10	1
4902624	37	C	06/26/2025	00:33	-129.181	48.567	0	1524.70	0	2.5160	0	34.5220	0	27.555	0	1506.318	0	-1e10	1	-1e10	1	-1E+10	1	-1e10	1	-1e10	1	-1E+10	1	-1E+10	1	-1E+10	1
4902624	37	C	06/26/2025	00:33	-129.181	48.567	0	1526.50	0	2.5127	0	34.5222	0	27.556	0	1508.089	0	127.1	4	38.8	4	-1E+10	1	0.0440	4	0.000183	0	-1E+10	1	-1E+10	1	-1E+10	1
4902624	37	C	06/26/2025	00:33	-129.181	48.567	0	1545.30	0	2.4782	0	34.5245	0	27.560	0	1526.595	0	124.7	4	38.0	4	-1E+10	1	0.0510	4	0.000194	0	-1E+10	1	-1E+10	1	-1E+10	1
4902624	37	C	06/26/2025	00:33	-129.181	48.567	0	1564.60	0	2.4427	0	34.5268	0	27.565	0	1545.591	0	110.2	4	33.6	4	-1E+10	1	0.0439	4	0.000182	0	-1E+10	1	-1E+10	1	-1E+10	1
4902624	37	C	06/26/2025	00:33	-129.181	48.567	0	1574.80	0	2.4240	0	34.5280	0	27.568	0	1555.630	0	-1e10	1	-1e10	1	-1E+10	1	-1e10	1	-1e10	1	-1E+10	1	-1E+10	1	-1E+10	1
4902624	37	C	06/26/2025	00:33	-129.181	48.567	0	1584.80	0	2.4103	0	34.5294	0	27.570	0	1565.471	0	85.7	4	26.1	4	-1E+10	1	0.0511	4	0.000170	0	-1E+10	1	-1E+10	1	-1E+10	1
4902624	37	C	06/26/2025	00:33	-129.181	48.567	0	1606.00	0	2.3811	0	34.5324	0	27.575	0	1586.333	0	86.9	4	26.4	4	-1E+10	1	0.0511	4	0.000146	0	-1E+10	1	-1E+10	1	-1E+10	1
4902624	37	C	06/26/2025	00:33	-129.181	48.567	0	1624.30	0	2.3560	0	34.5350	0	27.579	0	1604.339	0	-1e10	1	-1e10	1	-1E+10	1	-1e10	1	-1e10	1	-1E+10	1	-1E+10	1	-1E+10	1
4902624	37	C	06/26/2025	00:33	-129.181	48.567	0	1628.10	0	2.3514	0	34.5357	0	27.580	0	1608.078	0	88.8	4	27.0	4	-1E+10	1	0.0511	4	0.000146	0	-1E+10	1	-1E+10	1	-1E+10	1
4902624	37	C	06/26/2025	00:33	-129.181	48.567	0	1651.20	0	2.3232	0	34.5402	0	27.586	0	1630.805	0	90.3	4	27.4	4	-1E+10	1	0.0516	4	0.000160	0	-1E+10	1	-1E+10	1	-1E+10	1
4902624	37	C	06/26/2025	00:33	-129.181	48.567	0	1674.90	0	2.2943	0	34.5448	0	27.593	0	1654.120	0	92.4	4	28.1	4	-1E+10	1	0.0725	4	0.000294	0	-1E+10	1	-1E+10	1	-1E+10	1
4902624	37	C	06/26/2025	00:33	-129.181	48.567	0	1676.00	0	2.2930	0	34.5450	0	27.593	0	1655.202	0	-1e10	1	-1e10	1	-1E+10	1	-1e10	1	-1e10	1	-1E+10	1	-1E+10	1	-1E+10	1
4902624	37	C	06/26/2025	00:33	-129.181	48.567	0	1692.00	0	2.2762	0	34.5473	0	27.596	0	1670.941	0	93.4	4	28.3	4	-1E+10	1	0.0511	4	0.000157	0	-1E+10	1	-1E+10	1	-1E+10	1
4902624	37	C	06/26/2025	00:33	-129.181	48.567	0	1708.80	0	2.2587	0	34.5497	0	27.600	0	1687.465	0	95.0	4	28.8	4	-1E+10	1	0.0512	4	0.000157	0	-1E+10	1	-1E+10	1	-1E+10	1
4902624	37	C	06/26/2025	00:33	-129.181	48.567	0	1724.70	0	2.2420	0	34.5520	0	27.603	0	1703.102	0	-1e10	1	-1e10	1	-1E+10	1	-1e10	1	-1e10	1	-1E+10	1	-1E+10	1	-1E+10	1
4902624	37	C	06/26/2025	00:33	-129.181	48.567	0	1726.30	0	2.2391	0	34.5523	0	27.603	0	1704.676	0	96.6	4	29.3	4	-1E+10	1	0.0582	4	0.000168	0	-1E+10	1	-1E+10	1	-1E+10	1
4902624	37	C	06/26/2025	00:33	-129.181	48.567	0	1744.50	0	2.2066	0	34.5563	0	27.609	0	1722.574	0	99.1	4	30.0	4	-1E+10	1	0.0511	4	0.000156	0	-1E+10	1	-1E+10	1	-1E+10	1
4902624	37	C	06/26/2025	00:33	-129.181	48.567	0	1763.50	0	2.1726	0	34.5605	0	27.615	0	1741.258	0	102.5	4	31.0	4	-1E+10	1	0.0511	4	0.000169	0	-1E+10	1	-1E+10	1	-1E+10	1
4902624	37	C	06/26/2025	00:33	-129.181	48.567	0	1775.00	0	2.1520	0	34.5630	0	27.619	0	1752.565	0	-1e10	1	-1e10	1	-1E+10	1	-1e10	1	-1e10	1	-1E+10	1	-1E+10	1	-1E+10	1
4902624	37	C	06/26/2025	00:33	-129.181	48.567	0	1783.90	0	2.1430	0	34.5644	0	27.621	0	1761.316	0	104.2	4	31.5	4	-1E+10	1	0.0512	4	0.000224	0	-1E+10	1	-1E+10	1	-1E+10	1
4902624	37	C	06/26/2025	00:33	-129.181	48.567	0	1804.90	0	2.1216	0	34.5678	0	27.625	0	1781.962	0	105.8	4	32.0	4	-1E+10	1	0.0582	4	0.000144	0	-1E+10	1	-1E+10	1	-1E+10	1
4902624	37	C	06/26/2025	00:33	-129.181	48.567	0	1825.20	0	2.1010	0	34.5710	0	27.630	0	1801.918	0	-1e10	1	-1e10	1	-1E+10	1	-1e10	1	-1e10	1	-1E+10	1	-1E+10	1	-1E+10	1
4902624	37	C	06/26/2025	00:33	-129.181	48.567	0	1826.10	0	2.1002	0	34.5711	0	27.630	0	1802.802	0	108.2	4	32.7	4	-1E+10	1	0.0511	4	0.000188	0	-1E+10	1	-1E+10	1	-1E+10	1
4902624	37	C	06/26/2025	00:33	-129.181	48.567	0	1847.50	0	2.0806	0	34.5741	0	27.634	0	1823.838	0	110.6	4	33.4	4	-1E+10	1	0.0511	4	0.000146	0	-1E+10	1	-1E+10	1	-1E+10	1
4902624	37	C	06/26/2025	00:33	-129.181	48.567	0	1870.30	0	2.0598	0	34.5773	0	27.638	0	1846.247	0	112.5	4	34.0	4	-1E+10	1	0.0511	4	0.001581	0	-1E+10	1	-1E+10	1	-1E+10	1
4902624	37	C	06/26/2025	00:33	-129.181	48.567	0	1875.60	0	2.0550	0	34.5780	0	27.639	0	1851.455	0	-1e10	1	-1e10	1	-1E+10	1	-1e10	1	-1e10	1	-1E+10	1	-1E+10	1	-1E+10	1
4902624	37	C	06/26/2025	00:33	-129.181	48.567	0	1888.70	0	2.0459	0	34.5796	0	27.641	0	1864.329	0	114.3	4	34.5	4	-1E+10	1	0.0511	4	0.000154	0	-1E+10	1	-1E+10	1	-1E+10	1
4902624	37	C	06/26/2025	00:33	-129.181	48.567	0	1905.00	0	2.0346	0	34.5816	0	27.644	0	1880.347	0	115.4	4	34.8	4	-1E+10	1	0.0510	4	0.000142	0	-1E+10	1	-1E+10	1	-1E+10	1
4902624	37	C	06/26/2025	00:33	-129.181	48.567	0	1922.20	0	2.0227	0	34.5837	0	27.647	0	1897.248	0	116.2	4	35.1	4	-1E+10	1	0.0440	4	0.000142	0	-1E+10	1	-1E+10	1	-1E+10	1
4902624	37	C	06/26/2025	00:33	-129.181	48.567	0	1924.70	0	2.0210	0	34.5840	0	27.647	0	1899.704	0	-1e10	1	-1e10	1	-1E+10	1	-1e10	1	-1e10	1	-1E+10	1	-1E+10	1	-1E+10	1
4902624	37	C	06/26/2025	00:33	-129.181	48.567	0	1940.00	0	2.0112	0	34.5856	0	27.649	0	1914.737	0	118.2	4	35.6	4	-1E+10	1	0.0584	4	0.000177	0	-1E+10	1	-1E+10	1	-1E+10	1
4902624	37	C	06/26/2025	00:33	-129.181	48.567	0	1958.40	0	1.9995	0	34.5876	0	27.652	0	1932.814	0	119.0	4	35.9	4	-1E+10	1	0.0578	4	0.000210	0	-1E+10	1	-1E+10	1	-1E+10	1
4902624	37	C	06/26/2025	00:33	-129.181	48.567	0	1962.30	0	1.9970	0	34.5880	0	27.652	0	1936.645	0	-1e10	1	-1e10	1	-1E+10	1	-1e10	1	-1e10	1	-1E+10	1	-1E+10	1	-1E+10	1
4902624	37	C	06/26/2025	00:33	-129.181	48.567	0	1973.90	0	-1e10	1	-1e10	1	-1e10	1	1948.041	0	109.4	4	-1e10	4	-1E+10	1	0.0365	4	0.000164	0	-1E+10	1	-1E+10	1	-1E+10	1
4902624	37	C	06/26/2025	00:33	-129.181	48.567	0																										
4902624	38	C	07/06/2025	19:36	-129.698	48.803	0	0.10	0	15.0080	0	31.8760	0	23.564	0	0.099	0	228.1	4	90.1	4	-1E+10	1	0.0511	4	-0.000340	8	-1E+10	1	-1E+10	1	-1E+10	1
4902624	38	C	07/06/2025	19:36	-129.698	48.803	0	0.40	0	15.0080	0	31.8760	0	23.564	0	0.397	0	-1e10	1	-1e10	1	-1E+10	1	-1e10	1	-1e10	1	-1E+10	1	-1E+10	1	-1E+10	1
4902624	38	C	07/06/2025	19:36	-129.698	48.803	0	0.50	0	15.0054	0	31.8792	0	23.567	0	0.496	0	244.5	4	96.6	4	-1E+10	1	0.1801	4	0.000716	0	-1E+10	1	-1E+10	1	-1E+10	1
4902624	38	C	07/06/2025	19:36	-129.698	48.803	0	1.10	0	14.9895	0	31.8983	0	23.585	0	1.091	0	-1e10	1	-1e10	1	-1E+10	1	0.2774	4	0.000741	0	-1E+10	1	-1E+10	1	-1E+10	1
4902624	38	C	07/06/2025	19:36	-129.698	48.803	0	1.30	0	14.9843	0	31.9046	0	23.591	0	1.289	0	244.5	4	96.5	4	-1E+10	1	0.0730	4	0.001069	0	-1E+10	1	-1E+10	1	-1E+10	1
4902624	38	C	07/06/2025	19:36	-129.698	48.803	0	1.40	0	14.9816	0	31.9078	0	23.594	0	1.388	0	-1e10	1	-1e10	1	-1E+10	1	0.1022	4	0.000576	0	-1E+10	1	-1E+10	1	-1E+10	1
4902624	38	C	07/06/2025	19:36	-129.698	48.803	0	1.50	0	14.9790	0	31.9110	0	23.597	0	1.487	0	-1e10	1	-1e10	1	-1E+10	1	-1e10	1	-1e10	1	-1E+10	1	-1E+10	1	-1E+10	1
4902624	38	C	07/06/2025	19:36	-129.698	48.803	0	1.60	0	14.9658	0	31.9119	0	23.601	0	1.586	0	-1e10	1	-1e10	1	-1E+10	1	0.1168	4	0.000858	0	-1E+10	1	-1E+10	1	-1E+10	1
4902624	38	C	07/06/2025	19:36	-129.698	48.803	0	1.90	0	14.9261	0	31.9146	0	23.611	0	1.884	0	-1e10	1	-1e10	1	-1E+10	1	0.1241	4	0.000881	0	-1E+10	1	-1E+10	1	-1E+10	1
4902624	38	C	07/06/2025	19:36	-129.698	48.803	0	2.00	0	14.9129	0	31.9154	0	23.615	0	1.983	0	244.9	4	96.6	4	-1E+10	1	0.1095	4	0.000752	0	-1E+10	1	-1E+10	1	-1E+10	1
4902624	38	C	07/06/2025	19:36	-129.698	48.803	0	2.20	0	14.8864	0	31.9172	0	23.622	0	2.181	0	-1e10	1	-1e10	1	-1E+10	1	0.1387	4	0.000799	0	-1E+10	1	-1E+10	1	-1E+10	1
4902624	38	C	07/06/2025	19:36	-129.698	48.803	0	2.40	0	14.8600	0	31.9190	0	23.629	0	2.380	0	-1e10	1	-1e10	1	-1E+10	1	-1e10	1	-1e10	1	-1E+10	1	-1E+10	1	-1E+10	1
4902624	38	C	07/06/2025	19:36	-129.698	48.803	0	2.60	0	14.8416	0	31.9188	0	23.632	0	2.578	0	-1e10	1	-1e10	1	-1E+10	1	0.1241	4	0.000811	0	-1E+10	1	-1E+10	1	-1E+10	1
4902624	38	C	07/06/2025	19:36	-129.698	48.803	0	2.90	0	14.8140	0	31.9185	0	23.638	0	2.875	0	-1e10	1	-1e10	1	-1E+10	1	0.1533	4	0.000870	0	-1E+10	1	-1E+10	1	-1E+10	1
4902624	38	C	07/06/2025	19:36	-129.698	48.803	0	3.00	0	14.8048	0	31.9184	0	23.640	0	2.975	0	245.5	4	96.6	4	-1E+10	1	0.1241	4	0.000776	0	-1E+10	1	-1E+10	1	-1E+10	1
4902624	38	C	07/06/2025	19:36	-129.698	48.803	0	3.20	0	14.7864	0	31.9182	0	23.644	0	3.173	0	-1e10	1	-1e10	1	-1E+10	1	0.1460	4	0.000764	0	-1E+10	1	-1E+10	1	-1E+10	1
4902624	38	C	07/06/2025	19:36	-129.698	48.803	0	3.40	0	14.7680	0	31.9180	0	23.647	0	3.371	0	-1e10	1	-1e10	1	-1E+10	1	-1e10	1	-1e10	1	-1E+10	1	-1E+10	1	-1E+10	1
4902624	38	C	07/06/2025	19:36	-129.698	48.803	0	3.50	0	14.7669	0	31.9179	0	23.648	0	3.470	0	-1e10	1	-1e10	1	-1E+10	1	0.1095	4	0.000799	0	-1E+10	1	-1E+10	1	-1E+10	1
4902624	38	C	07/06/2025	19:36	-129.698	48.803	0	3.70	0	14.7647	0	31.9177	0	23.648	0	3.669	0	-1e10	1	-1e10	1	-1E+10	1	0.1533	4	0.000787	0	-1E+10	1	-1E+10	1	-1E+10	1
4902624	38	C	07/06/2025	19:36	-129.698	48.803	0	4.00	0	14.7615	0	31.9175	0	23.648	0	3.966	0	246.1	4	96.7	4	-1E+10	1	0.1445	4	0.000827	0	-1E+10	1	-1E+10	1	-1E+10	1
4902624	38	C	07/06/2025	19:36	-129.698	48.803	0	4.30	0	14.7582	0	31.9172	0	23.649	0	4.264	0	-1e10	1	-1e10	1	-1E+10	1	0.1533	4	0.000834	0	-1E+10	1	-1E+10	1	-1E+10	1
4902624	38	C	07/06/2025	19:36	-129.698	48.803	0	4.50	0	14.7560	0	31.9170	0	23.649	0	4.462	0	-1e10	1	-1e10	1	-1E+10	1	0.1168	4	0.000846	0	-1E+10	1	-1E+10	1	-1E+10	1
4902624	38	C	07/06/2025	19:36	-129.698	48.803	0	4.70	0	14.7538	0	31.9166	0	23.649	0	4.660	0	-1e10	1	-1e10	1	-1E+10	1	0.1606	4	0.000787	0	-1E+10	1	-1E+10	1	-1E+10	1
4902624	38	C	07/06/2025	19:36	-129.698	48.803	0	4.90	0	14.7516	0	31.9161	0	23.649	0	4.858	0	-1e10	1	-1e10	1	-1E+10	1	0.1314	4	0.000764	0	-1E+10	1	-1E+10	1	-1E+10	1
4902624	38	C	07/06/2025	19:36	-129.698	48.803	0	5.00	0	14.7504	0	31.9159	0	23.649	0	4.958	0	246.9	4	97.0	4	-1E+10	1	0.1387	4	0.000858	0	-1E+10	1	-1E+10	1	-1E+10	1
4902624	38	C	07/06/2025	19:36	-129.698	48.803	0	5.20	0	14.7482	0	31.9154	0	23.650	0	5.156	0	-1e10	1	-1e10	1	-1E+10	1	0.1460	4	0.000834	0	-1E+10	1	-1E+10	1	-1E+10	1
4902624	38	C	07/06/2025	19:36	-129.698	48.803	0	5.40	0	14.7460	0	31.9150	0	23.650	0	5.354	0	-1e10	1	-1e10	1	-1E+10	1	0.1679	4	0.000787	0	-1E+10	1	-1E+10	1	-1E+10	1
4902624	38	C	07/06/2025	19:36	-129.698	48.803	0	5.60	0	14.7380	0	31.9154	0	23.652	0	5.553	0	-1e10	1	-1e10	1	-1E+10	1	0.1460	4	0.000834	0	-1E+10	1	-1E+10	1	-1E+10	1
4902624	38	C	07/06/2025	19:36	-129.698	48.803	0	6.00	0	14.7220	0	31.9161	0	23.656	0	5.949	0	247.8	4	97.3	4	-1E+10	1	0.1606	4	0.000870	0	-1E+10	1	-1E+10	1	-1E+10	1
4902624	38	C	07/06/2025	19:36	-129.698	48.803	0	6.20	0	14.7140	0	31.9165	0	23.658	0	6.147	0	-1e10	1	-1e10	1	-1E+10	1	0.1606	4	0.000846	0	-1E+10	1	-1E+10	1	-1E+10	1
4902624	38	C	07/06/2025	19:36	-129.698	48.803	0	6.40	0	14.7060	0	31.9168	0	23.660	0	6.346	0	-1e10	1	-1e10	1	-1E+10	1	0.1460	4	0.000834	0	-1E+10	1	-1E+10	1	-1E+10	1
4902624	38	C	07/06/2025	19:36	-129.698	48.803	0	6.50	0	14.7020	0	31.9170	0	23.661	0	6.445	0	-1e10	1	-1e10	1	-1E+10	1	-1e10	1	-1e10	1	-1E+10	1	-1E+10	1	-1E+10	1
4902624	38	C	07/06/2025	19:36	-129.698	48.803	0	6.60	0	14.6938	0	31.9168	0	23.662	0	6.544	0	-1e10	1	-1e10	1	-1E+10	1	0.1898	4	0.000823	0	-1E+10	1	-1E+10	1	-1E+10	1
4902624	38	C	07/06/2025	19:36	-129.698	48.803	0	6.80	0	14.6774	0	31.9164	0	23.665	0	6.742	0	-1e10	1	-1e10	1	-1E+10	1	0.1825	4	0.000858	0	-1E+10	1	-1E+10	1	-1E+10	1
4902624	38	C	07/06/2025	19:36	-129.698	48.803	0	6.90	0	14.6692	0	31.9162	0	23.667	0	6.841	0	249.1	4	97.8	4	-1E+10	1	0.1898	4	0.000823	0	-1E+10	1	-1E+10	1	-1E+10	1
4902624	38	C	07/06/2025	19:36	-129.698	48.803	0	7.20	0	14.6446	0	31.9156	0	23.672	0	7.139	0	-1e10	1	-1e10	1	-1E+10	1	0.1971	4	0.000870	0	-1E+10	1	-1E+10	1	-1E+10	1
4902624	38	C	07/06/2025	19:36	-129.698	48.803	0	7.50	0	14.6200	0	31.9150	0	23.676	0	7.436	0	-1e10	1	-1e10	1	-1E+10	1	0.1825	4	0.000869	0	-1E+10	1	-1E+10	1	-1E+10	1
4902624	38	C	07/06/2025	19:36	-129.698	48.803	0	7.70	0	14.6072	0	31.9140	0	23.678	0	7.635	0	-1e10	1	-1e10	1	-1E+10	1	0.1898	4	0.000834	0	-1E+10	1	-1E+10	1	-1E+10	1
4902624	38	C	07/06/2025	19:36	-129.698	48.803	0	7.90	0	14.5944	0	31.9130	0	23.680	0	7.833	0	250.6	4	98.2	4	-1E+10	1	0.1898	4	0.001480	0	-1E+10	1	-1E+10	1	-1E+10	1
4902624	38	C	07/06/2025	19:36	-129.698	48.803	0	8.10	0	14.5816	0	31.9120	0	23.682	0	8.031	0	-1e10	1	-1e10	1	-1E+10	1	0.2044	4	0.000858	0	-1E+10	1	-1E+10	1	-1E+10	1
4902624	38	C	07/06/2025	19:36	-129.698	48.803	0	8.30	0	14.5688	0	31.9110	0	23.684	0	8.230	0	-1e10	1	-1e10	1	-1E+10	1	0.1971	4	0.000905	0	-1E+10	1	-1E+10	1	-1E+10	1
4902624	38	C	07/06/2025	19:36	-129.698	48.803	0	8.50	0	14.5560	0	31.9100	0	23.686	0	8.428	0	-1e10	1	-1e10	1	-1E+10	1	0.2117	4	0.000881	0	-1E+10	1	-1E+10	1	-1E+10	1
4902624	38	C	07/06/2025	19:36	-129.698	48.803	0	8.70	0	14.5402	0	31.9098	0	23.689	0	8.626	0	-1e10	1	-1e10	1	-1E+10	1	0.2044	4	0.000928	0	-1E+10	1	-1E+10	1	-1E+10	1
4902624	38	C	07/06/2025	19:36	-129.698	48.803	0	8.80	0	14.5323	0	31.9097	0	23.691	0	8.725	0	251.9	4	98.6	4	-1E+10	1	0.2190	4	0.000869	0	-1E+10	1	-1E+10	1	-1E+10	1
4902624	38	C	07/06/2025	19:36	-129.698	48.803	0	9.20	0	14.5007	0	31.9093	0	23.697	0	9.122	0	-1e10	1	-1e10	1	-1E+10	1	0.2117	4	0.001972	0	-1E+10	1	-1E+10	1	-1E+10	1
4902624	38	C	07/06/2025	19:36	-129.698	48.803	0	9.40	0	14.4849	0	31.9091	0	23.700	0	9.320	0	-1e10	1	-1e10	1	-1E+10	1	0.2263	4	0.001198	0	-1E+10	1	-1E+10	1	-1E+10	1
4902624	38	C	07/06/2025	19:36	-129.698	48.803	0	9.50	0	14.4770	0	31.9090	0	23.702	0	9.419	0	-1e10	1	-1e10	1	-1E+10	1	-1e10	1	-1e10	1	-1E+10	1	-1E+10	1	-1E+10	1
4902624	38	C	07/06/2025	19:36	-129.698	48.803	0	9.60	0	14.4505	0	31.9093	0	23.708	0	9.519	0	-1e10	1	-1e10	1	-1E+10	1	0.2336	4	0.000916	0	-1E+10	1	-1E+10	1	-1E+10	1
4902624	38	C	07/06/2025	19:36	-129.698	48.803	0	9.80	0	14.3976	0	31.9100	0	23.719	0	9.717	0	253.1	4	98.8	4	-1E+10	1	0.2190	4	0.001092	0	-1E+10	1	-1E+10	1	-1E+10	1
4902624	38	C	07/06/2025	19:36	-129.698	48.803	0	10.90	0	14.1065	0	31.9137	0	23.782	0	10.807	0	255.7	4	99.2	4	-1E+10	1	0.2263	4	0.001022	0	-1E+10	1	-1E+10	1	-1E+10	1
4902624	38	C	07/06/2025	19:36	-129.698	48.803	0	11.00	0	14.0800	0	31.9140	0	23.788	0	10.907	0	-1e10	1	-1e10	1	-1E+10	1	-1e10	1	-1e10	1	-1E+10	1	-1E+10	1	-1E+10	1
4902624	38	C	07/06/2025	19:36	-129.698	48.803	0	11.60	0	13.9360	0	31.9116	0	23.816	0	11.501	0	256.7	4	99.3	4	-1E+10	1	0.2518	4	0.001043	0	-1E+10	1	-1E+10	1	-1E+10	1
4902624	38	C	07/06/2025	19:36	-129.698	48.803	0	12.20	0	13.7920	0	31.9092	0	23.843	0	12.096	0	257.2	4	99.2	4	-1E+10	1	0.2692	4	0.001148	0	-1E+10	1	-1E+10	1	-1E+10	1
4902624	38	C	07/06/2025	19:36	-129.698	48.803	0	12.80	0	13.6480	0	31.9068	0	23.870	0	12.691	0	257.7	4	99.1	4	-1E+10	1	0.2930	4	0.001200	0	-1E+10	1	-1E+10	1	-1E+10	1
4902624	38	C	07/06/2025	19:36	-129.698	48.803	0	13.00	0	13.6000	0	31.9060	0	23.879	0	12.890	0	-1e10	1	-1e10	1	-1E+10	1	-1e10	1	-1e10	1	-1E+10	1	-1E+10	1	-1E+10	1
4902624	38	C	07/06/2025	19:36	-129.698	48.803	0	13.40	0	13.5108	0	31.9094	0	23.900	0	13.286	0	258.6	4	99.2	4	-1E+10	1	0.3285	4	0.001210	0	-1E+10	1	-1E+10	1	-1E+10	1
4902624	38	C	07/06/2025	19:36	-129.698	48.803	0	14.10	0	13.3547	0	31.9153	0	23.936	0	13.980	0	258.7	4	98.9	4	-1E+10	1	0.3686	4	0.001235	0	-1E+10	1	-1E+10	1	-1E+10	1
4902624	38	C	07/06/2025	19:36	-129.698	48.803	0	14.80	0	13.1986	0	31.9213	0	23.971	0	14.674	0	258.9	4	98.7	4	-1E+10	1	0.3885	4	0.001271	0	-1E+10	1	-1E+10	1	-1E+10	1
4902624	38	C	07/06/2025	19:36	-129.698	48.803	0	15.00	0	13.1540	0	31.9230	0	23.981	0	14.872	0	-1e10	1	-1e10	1	-1E+10	1	-1e10	1	-1e10	1	-1E+10	1	-1E+10	1	-1E+10	1
4902624	38	C	07/06/2025	19:36	-129.698	48.803	0	15.50	0	13.0865	0	31.9253	0	23.996	0	15.368	0	259.0	4	98.5	4	-1E+10	1	0.3942	4	0.001526	0	-1E+10	1	-1E+10	1	-1E+10	1
4902624	38	C	07/06/2025	19:36	-129.698	48.803	0	16.20	0	12.9920	0	31.9284	0	24.017	0	16.062	0	258.8	4	98.2	4	-1E+10	1	0.4380	4	0.001221	0	-1E+10	1	-1E+10	1	-1E+10	1
4902624	38	C	07/06/2025	19:36	-129.698	48.803	0	16.90	0	12.8975	0	31.9315	0	24.038	0	16.756	0	258.5	4	97.9	4	-1E+10	1	0.4508	4	0.001312	0	-1E+10	1	-1E+10	1	-1E+10	1
4902624	38	C	07/06/2025	19:36	-129.698	48.803	0	17.00	0	12.8840	0	31.9320	0	24.041	0	16.855	0	-1e10	1	-1e10	1	-1E+10	1	-1e10	1	-1e10	1	-1E+10	1	-1E+10	1	-1E+10	1
4902624	38	C	07/06/2025	19:36	-129.698	48.803	0	17.50	0	12.8407	0	31.9335	0	24.050	0	17.351	0	258.5	4	97.8	4	-1E+10	1	0.4754	4	0.001297	0	-1E+10	1	-1E+10	1	-1E+10	1
4902624	38	C	07/06/2025	19:36	-129.698	48.803	0	18.20	0	12.7802	0	31.9356	0	24.064	0	18.045	0	258.3	4	97.6	4	-1E+10	1	0.5016	4	0.001267	0	-1E+10	1	-1E+10	1	-1E+10	1
4902624	38	C	07/06/2025	19:36	-129.698	48.803	0	18.90	0	12.7197	0	31.9377	0	24.077	0	18.739	0	257.8	4	97.3	4	-1E+10	1	0.5584	4	0.001485	0	-1E+10	1	-1E+10	1	-1E+10	1
4902624	38	C	07/06/2025	19:36	-129.698	48.803	0	19.00	0	12.7110	0	31.9380	0	24.079	0	18.838	0	-1e10	1	-1e10	1	-1E+10	1	-1e10	1	-1e10	1	-1E+10	1	-1E+10	1	-1E+10	1
4902624	38	C	07/06/2025	19:36	-129.698	48.803	0	19.60	0	12.6347	0	31.9414	0	24.096	0	19.433	0	258.0	4	97.2	4	-1E+10	1	0.6108	4	0.001589	0	-1E+10	1	-1E+10	1	-1E+10	1
4902624	38	C	07/06/2025	19:36	-129.698	48.803	0	20.30	0	12.5457	0	31.9454	0	24.116	0	20.127	0	257.0	4	96.6	4	-1E+10	1	0.6132	4	0.001349	0	-1E+10	1	-1E+10	1	-1E+10	1
4902624	38	C	07/06/2025	19:36	-129.698	48.803	0	21.10	0	12.4440	0	31.9500	0	24.139	0	20.920	0	254.6	4	95.5	4	-1E+10	1	0.6570	4	0.001515	0	-1E+10	1	-1E+10	1	-1E+10	1
4902624	38	C	07/06/2025	19:36	-129.698	48.803	0	21.90	0	12.3232	0	31.9608	0	24.170	0	21.713	0	254.7	4	95.4	4	-1E+10	1	1.0074	4	0.001937	0	-1E+10	1	-1E+10	1	-1E+10	1
4902624	38	C	07/06/2025	19:36	-129.698	48.803	0	22.70	0	12.2024	0	31.9716	0	24.201	0	22.507	0	253.6	4	94.7	4	-1E+10	1	1.7082	4	0.002340	0	-1E+10	1	-1E+10	1	-1E+10	1
4902624	38	C	07/06/2025	19:36	-129.698	48.803	0	23.10	0	12.1420	0	31.9770	0	24.217	0	22.903	0	-1e10	1	-1e10	1	-1E+10	1	-1e10	1	-1e10	1	-1E+10	1	-1E+10	1	-1E+10	1
4902624	38	C	07/06/2025	19:36	-129.698	48.803	0	23.60	0	12.0646	0	31.9849	0	24.237	0	23.399	0	252.2	4	93.9	4	-1E+10	1	3.3653	4	0.003162	0	-1E+10	1	-1E+10	1	-1E+10	1
4902624	38	C	07/06/2025	19:36	-129.698	48.803	0	24.50	0	11.9254	0	31.9991	0	24.274	0	24.291	0	250.4	4	93.0	4	-1E+10	1	3.8296	4	0.003302	0	-1E+10	1	-1E+10	1	-1E+10	1
4902624	38	C	07/06/2025	19:36	-129.698	48.803	0	25.00	0	11.8480	0	32.0070	0	24.295	0	24.787	0	-1e10	1	-1e10	1	-1E+10	1	-1e10	1	-1e10	1	-1E+10	1	-1E+10	1	-1E+10	1
4902624	38	C	07/06/2025	19:36	-129.698	48.803	0	25.30	0	11.8219	0	32.0104	0	24.302	0	25.084	0	249.1	4	92.3	4	-1E+10	1	3.9237	4	0.003075	0	-1E+10	1	-1E+10	1	-1E+10	1
4902624	38	C	07/06/2025	19:36	-129.698	48.803	0	26.20	0	11.7436	0	32.0208	0	24.324	0	25.977	0	247.6	4	91.6	4	-1E+10	1	3.6734	4	0.002599	0	-1E+10	1	-1E+10	1	-1E+10	1
4902624	38	C	07/06/2025	19:36	-129.698	48.803	0	27.00	0	11.6740	0	32.0300	0	24.344	0	26.770	0	-1e10	1	-1e10	1	-1E+10	1	-1e10	1	-1e10	1	-1E+10	1	-1E+10	1	-1E+10	1
4902624	38	C	07/06/2025	19:36	-129.698	48.803	0	27.10	0	11.6545	0	32.0335	0	24.351	0	26.869	0	245.9	4	90.8	4	-1E+10	1	2.7528	4	0.001988	0	-1E+10	1	-1E+10	1	-1E+10	1
4902624	38	C	07/06/2025	19:36	-129.698	48.803	0	28.10	0	11.4592	0	32.0688	0	24.413	0	27.860	0	244.5	4	90.0	4	-1E+10	1	1.5439	4	0.001464	0	-1E+10	1	-1E+10	1	-1E+10	1
4902624	38	C	07/06/2025	19:36	-129.698	48.803	0	28.90	0	11.3030	0	32.0970	0	24.463	0	28.653	0	-1e10	1	-1e10	1	-1E+10	1	-1e10	1	-1e10	1	-1E+10	1	-1E+10	1	-1E+10	1
4902624	38	C	07/06/2025	19:36	-129.698	48.803	0	29.10	0	11.2727	0	32.1009	0	24.472	0	28.852	0	244.4	4	89.6	4	-1E+10	1	1.2337	4	0.001444	0	-1E+10	1	-1E+10	1	-1E+10	1
4902624	38	C	07/06/2025	19:36	-129.698	48.803	0	30.20	0	11.1061	0	32.1224	0	24.518	0	29.942	0	243.6	4	89.0	4	-1E+10	1	1.0439	4	0.001397	0	-1E+10	1	-1E+10	1	-1E+10	1
4902624	38	C	07/06/2025	19:36	-129.698	48.803	0	31.00	0	10.9850	0	32.1380	0	24.551	0	30.735	0	-1e10	1	-1e10	1	-1E+10	1	-1e10	1	-1e10	1	-1E+10	1	-1E+10	1	-1E+10	1
4902624	38	C	07/06/2025	19:36	-129.698	48.803	0	31.30	0	10.9805	0	32.1385	0	24.553	0	31.033	0	242.8	4	88.5	4	-1E+10	1	0.9327	4	0.001268	0	-1E+10	1	-1E+10	1	-1E+10	1
4902624	38	C	07/06/2025	19:36	-129.698	48.803	0	32.30	0	10.9655	0	32.1399	0	24.556	0	32.024	0	241.9	4	88.1	4	-1E+10	1	0.9417	4	0.001292	0	-1E+10	1	-1E+10	1	-1E+10	1
4902624	38	C	07/06/2025	19:36	-129.698	48.803	0	33.00	0	10.9550	0	32.1410	0	24.559	0	32.718	0	-1e10	1	-1e10	1	-1E+10	1	-1e10	1	-1e10	1	-1E+10	1	-1E+10	1	-1E+10	1
4902624	38	C	07/06/2025	19:36	-129.698	48.803	0	33.40	0	10.9466	0	32.1420	0	24.561	0	33.115	0	241.0	4	87.8	4	-1E+10	1	0.8913	4	0.001263	0	-1E+10	1	-1E+10	1	-1E+10	1
4902624	38	C	07/06/2025	19:36	-129.698	48.803	0	34.40	0	10.9256	0	32.1445	0	24.567	0	34.106	0	240.3	4	87.5	4	-1E+10	1	0.8979	4	0.001260	0	-1E+10	1	-1E+10	1	-1E+10	1
4902624	38	C	07/06/2025	19:36	-129.698	48.803	0	35.00	0	10.9130	0	32.1460	0	24.570	0	34.701	0	-1e10	1	-1e10	1	-1E+10	1	-1e10	1	-1e10	1	-1E+10	1	-1E+10	1	-1E+10	1
4902624	38	C	07/06/2025	19:36	-129.698	48.803	0	35.40	0	10.9014	0	32.1472	0	24.573	0	35.097	0	239.5	4	87.1	4	-1E+10	1	0.9101	4	0.001308	0	-1E+10	1	-1E+10	1	-1E+10	1
4902624	38	C	07/06/2025	19:36	-129.698	48.803	0	36.40	0	10.8724	0	32.1502	0	24.581	0	36.089	0	238.2	4	86.6	4	-1E+10	1	0.8362	4	0.001310	0	-1E+10	1	-1E+10	1	-1E+10	1
4902624	38	C	07/06/2025	19:36	-129.698	48.803	0	37.00	0	10.8550	0	32.1520	0	24.585	0	36.684	0	-1e10	1	-1e10	1	-1E+10	1	-1e10	1	-1e10	1	-1E+10	1	-1E+10	1	-1E+10	1
4902624	38	C	07/06/2025	19:36	-129.698	48.803	0	37.50	0	10.8108	0	32.1585	0	24.598	0	37.179	0	237.0	4	86.0	4	-1E+10	1	0.7547	4	0.001115	0	-1E+10	1	-1E+10	1	-1E+10	1
4902624	38	C	07/06/2025	19:36	-129.698	48.803	0	38.60	0	10.7134	0	32.1728	0	24.626	0	38.270	0	236.2	4	85.6	4	-1E+10	1	0.5694	4	0.001045	0	-1E+10	1	-1E+10	1	-1E+10	1
4902624	38	C	07/06/2025	19:36	-129.698	48.803	0	39.00	0	10.6780	0	32.1780	0	24.636	0	38.666	0	-1e10	1	-1e10	1	-1E+10	1	-1e10	1	-1e10	1	-1E+10	1	-1E+10	1	-1E+10	1
4902624	38	C	07/06/2025	19:36	-129.698	48.803	0	39.90	0	10.5952	0	32.1888	0	24.659	0	39.558	0	235.1	4	85.0	4	-1E+10	1	0.4891	4	0.001045	0	-1E+10	1	-1E+10	1	-1E+10	1
4902624	38	C	07/06/2025	19:36	-129.698	48.803	0	41.00	0	10.4940	0	32.2020	0	24.686	0	40.649	0	234.3	4	84.5	4	-1E+10	1	0.4380	4	0.000923	0	-1E+10	1	-1E+10	1	-1E+10	1
4902624	38	C	07/06/2025	19:36	-129.698	48.803	0	42.00	0	10.3935	0	32.2178	0	24.716	0	41.640	0	233.7	4	84.1	4	-1E+10	1	0.3650	4	0.001233	0	-1E+10	1	-1E+10	1	-1E+10	1
4902624	38	C	07/06/2025	19:36	-129.698	48.803	0	42.80	0	10.3131	0	32.2304	0	24.739	0	42.433	0	233.6	4	84.0	4	-1E+10	1	0.3119	4	0.000926	0	-1E+10	1	-1E+10	1	-1E+10	1
4902624	38	C	07/06/2025	19:36	-129.698	48.803	0	42.90	0	10.3030	0	32.2320	0	24.742	0	42.532	0	-1e10	1	-1e10	1	-1E+10	1	-1e10	1	-1e10	1	-1E+10	1	-1E+10	1	-1E+10	1
4902624	38	C	07/06/2025	19:36	-129.698	48.803	0	43.60	0	10.2502	0	32.2444	0	24.760	0	43.226	0	233.2	4	83.7	4	-1E+10	1	0.2966	4	0.000759	0	-1E+10	1	-1E+10	1	-1E+10	1
4902624	38	C	07/06/2025	19:36	-129.698	48.803	0	44.30	0	10.1974	0	32.2568	0	24.779	0	43.920	0	232.4	4	83.4	4	-1E+10	1	0.2847	4	0.000693	0	-1E+10	1	-1E+10	1	-1E+10	1
4902624	38	C	07/06/2025	19:36	-129.698	48.803	0	45.00	0	10.1445	0	32.2692	0	24.798	0	44.614	0	231.7	4	83.0	4	-1E+10	1	0.2619	4	0.000676	0	-1E+10	1	-1E+10	1	-1E+10	1
4902624	38	C	07/06/2025	19:36	-129.698	48.803	0	45.10	0	10.1370	0	32.2710	0	24.800	0	44.713	0	-1e10	1	-1e10	1	-1E+10	1	-1e10	1	-1e10	1	-1E+10	1	-1E+10	1	-1E+10	1
4902624	38	C	07/06/2025	19:36	-129.698	48.803	0	45.70	0	10.0962	0	32.2767	0	24.811	0	45.308	0	230.9	4	82.6	4	-1E+10	1	0.2409	4	0.000702	0	-1E+10	1	-1E+10	1	-1E+10	1
4902624	38	C	07/06/2025	19:36	-129.698	48.803	0	46.40	0	10.0486	0	32.2834	0	24.825	0	46.002	0	230.2	4	82.3	4	-1E+10	1	0.2198	4	0.000706	0	-1E+10	1	-1E+10	1	-1E+10	1
4902624	38	C	07/06/2025	19:36	-129.698	48.803	0	47.10	0	10.0010	0	32.2900	0	24.838	0	46.696	0	-1e10	1	-1e10	1	-1E+10	1	-1e10	1	-1e10	1	-1E+10	1	-1E+10	1	-1E+10	1
4902624	38	C	07/06/2025	19:36	-129.698	48.803	0	47.20	0	9.9964	0	32.2902	0	24.839	0	46.795	0	229.4	4	81.9	4	-1E+10	1	0.2263	4	0.000811	0	-1E+10	1	-1E+10	1	-1E+10	1
4902624	38	C	07/06/2025	19:36	-129.698	48.803	0	48.00	0	9.9598	0	32.2919	0	24.846	0	47.588	0	228.5	4	81.5	4	-1E+10	1	0.2133	4	0.000800	0	-1E+10	1	-1E+10	1	-1E+10	1
4902624	38	C	07/06/2025	19:36	-129.698	48.803	0	48.70	0	9.9277	0	32.2934	0	24.852	0	48.282	0	227.4	4	81.1	4	-1E+10	1	0.2336	4	0.000790	0	-1E+10	1	-1E+10	1	-1E+10	1
4902624	38	C	07/06/2025	19:36	-129.698	48.803	0	49.00	0	9.9140	0	32.2940	0	24.855	0	48.579	0	-1e10	1	-1e10	1	-1E+10	1	-1e10	1	-1e10	1	-1E+10	1	-1E+10	1	-1E+10	1
4902624	38	C	07/06/2025	19:36	-129.698	48.803	0	49.50	0	9.8670	0	32.3013	0	24.868	0	49.075	0	226.0	4	80.5	4	-1E+10	1	0.2360	4	0.000881	0	-1E+10	1	-1E+10	1	-1E+10	1
4902624	38	C	07/06/2025	19:36	-129.698	48.803	0	50.30	0	9.7918	0	32.3129	0	24.890	0	49.868	0	224.1	4	79.7	4	-1E+10	1	0.2154	4	0.000764	0	-1E+10	1	-1E+10	1	-1E+10	1
4902624	38	C	07/06/2025	19:36	-129.698	48.803	0	51.00	0	9.7260	0	32.3230	0	24.908	0	50.562	0	-1e10	1	-1e10	1	-1E+10	1	-1e10	1	-1e10	1	-1E+10	1	-1E+10	1	-1E+10	1
4902624	38	C	07/06/2025	19:36	-129.698	48.803	0	51.20	0	9.7042	0	32.3259	0	24.914	0	50.760	0	222.6	4	79.0	4	-1E+10	1	0.1809	4	0.000599	0	-1E+10	1	-1E+10	1	-1E+10	1
4902624	38	C	07/06/2025	19:36	-129.698	48.803	0	52.00	0	9.6170	0	32.3375	0	24.937	0	51.553	0	221.4	4	78.4	4	-1E+10	1	0.1546	4	0.000577	0	-1E+10	1	-1E+10	1	-1E+10	1
4902624	38	C	07/06/2025	19:36	-129.698	48.803	0	52.90	0	9.5189	0	32.3506	0	24.963	0	52.446	0	220.4	4	77.9	4	-1E+10	1	0.1365	4	0.000517	0	-1E+10	1	-1E+10	1	-1E+10	1
4902624	38	C	07/06/2025	19:36	-129.698	48.803	0	53.00	0	9.5080	0	32.3520	0	24.966	0	52.545	0	-1e10	1	-1e10	1	-1E+10	1	-1e10	1	-1e10	1	-1E+10	1	-1E+10	1	-1E+10	1
4902624	38	C	07/06/2025	19:36	-129.698	48.803	0	53.80	0	9.4874	0	32.3592	0	24.975	0	53.338	0	219.7	4	77.6	4	-1E+10	1	0.1168	4	0.000517	0	-1E+10	1	-1E+10	1	-1E+10	1
4902624	38	C	07/06/2025	19:36	-129.698	48.803	0	54.70	0	9.4642	0	32.3672	0	24.985	0	54.230	0	218.8	4	77.3	4	-1E+10	1	0.1168	4	0.000541	0	-1E+10	1	-1E+10	1	-1E+10	1
4902624	38	C	07/06/2025	19:36	-129.698	48.803	0	54.90	0	9.4590	0	32.3690	0	24.988	0	54.428	0	-1e10	1	-1e10	1	-1E+10	1	-1e10	1	-1e10	1	-1E+10	1	-1E+10	1	-1E+10	1
4902624	38	C	07/06/2025	19:36	-129.698	48.803	0	55.50	0	9.4421	0	32.3719	0	24.992	0	55.023	0	217.8	4	76.9	4	-1E+10	1	0.1285	4	0.000512	0	-1E+10	1	-1E+10	1	-1E+10	1
4902624	38	C	07/06/2025	19:36	-129.698	48.803	0	56.40	0	9.4169	0	32.3761	0	25.000	0	55.915	0	216.6	4	76.4	4	-1E+10	1	0.1407	4	0.000550	0	-1E+10	1	-1E+10	1	-1E+10	1
4902624	38	C	07/06/2025	19:36	-129.698	48.803	0	57.00	0	9.4000	0	32.3790	0	25.005	0	56.510	0	-1e10	1	-1e10	1	-1E+10	1	-1e10	1	-1e10	1	-1E+10	1	-1E+10	1	-1E+10	1
4902624	38	C	07/06/2025	19:36	-129.698	48.803	0	57.30	0	9.3854	0	32.3831	0	25.010	0	56.807	0	215.0	4	75.8	4	-1E+10	1	0.1298	4	0.000504	0	-1E+10	1	-1E+10	1	-1E+10	1
4902624	38	C	07/06/2025	19:36	-129.698	48.803	0	58.20	0	9.3418	0	32.3952	0	25.027	0	57.699	0	213.7	4	75.3	4	-1E+10	1	0.1102	4	0.000452	0	-1E+10	1	-1E+10	1	-1E+10	1
4902624	38	C	07/06/2025	19:36	-129.698	48.803	0	59.00	0	9.3030	0	32.4060	0	25.041	0	58.492	0	-1e10	1	-1e10	1	-1E+10	1	-1e10	1	-1e10	1	-1E+10	1	-1E+10	1	-1E+10	1
4902624	38	C	07/06/2025	19:36	-129.698	48.803	0	59.10	0	9.3009	0	32.4065	0	25.042	0	58.591	0	212.2	4	74.7	4	-1E+10	1	0.1132	4	0.000634	0	-1E+10	1	-1E+10	1	-1E+10	1
4902624	38	C	07/06/2025	19:36	-129.698	48.803	0	60.00	0	9.2815	0	32.4110	0	25.049	0	59.483	0	210.5	4	74.1	4	-1E+10	1	0.1338	4	0.000917	0	-1E+10	1	-1E+10	1	-1E+10	1
4902624	38	C	07/06/2025	19:36	-129.698	48.803	0	60.90	0	9.2621	0	32.4155	0	25.055	0	60.376	0	208.7	4	73.4	4	-1E+10	1	0.1141	4	0.000474	0	-1E+10	1	-1E+10	1	-1E+10	1
4902624	38	C	07/06/2025	19:36	-129.698	48.803	0	61.00	0	9.2600	0	32.4160	0	25.056	0	60.475	0	-1e10	1	-1e10	1	-1E+10	1	-1e10	1	-1e10	1	-1E+10	1	-1E+10	1	-1E+10	1
4902624	38	C	07/06/2025	19:36	-129.698	48.803	0	61.80	0	9.2179	0	32.4383	0	25.080	0	61.268	0	206.8	4	72.7	4	-1E+10	1	0.1022	4	0.000494	0	-1E+10	1	-1E+10	1	-1E+10	1
4902624	38	C	07/06/2025	19:36	-129.698	48.803	0	62.70	0	9.1705	0	32.4634	0	25.107	0	62.160	0	205.3	4	72.1	4	-1E+10	1	0.1141	4	0.000622	0	-1E+10	1	-1E+10	1	-1E+10	1
4902624	38	C	07/06/2025	19:36	-129.698	48.803	0	62.90	0	9.1600	0	32.4690	0	25.113	0	62.358	0	-1e10	1	-1e10	1	-1E+10	1	-1e10	1	-1e10	1	-1E+10	1	-1E+10	1	-1E+10	1
4902624	38	C	07/06/2025	19:36	-129.698	48.803	0	63.70	0	9.1288	0	32.4834	0	25.129	0	63.151	0	203.8	4	71.5	4	-1E+10	1	0.1110	4	0.000506	0	-1E+10	1	-1E+10	1	-1E+10	1
4902624	38	C	07/06/2025	19:36	-129.698	48.803	0	64.60	0	9.0937	0	32.4996	0	25.147	0	64.043	0	202.5	4	71.0	4	-1E+10	1	0.1281	4	0.000470	0	-1E+10	1	-1E+10	1	-1E+10	1
4902624	38	C	07/06/2025	19:36	-129.698	48.803	0	64.90	0	9.0820	0	32.5050	0	25.154	0	64.341	0	-1e10	1	-1e10	1	-1E+10	1	-1e10	1	-1e10	1	-1E+10	1	-1E+10	1	-1E+10	1
4902624	38	C	07/06/2025	19:36	-129.698	48.803	0	65.60	0	9.0568	0	32.5165	0	25.166	0	65.034	0	200.8	4	70.4	4	-1E+10	1	0.1241	4	0.000464	0	-1E+10	1	-1E+10	1	-1E+10	1
4902624	38	C	07/06/2025	19:36	-129.698	48.803	0	66.60	0	9.0208	0	32.5331	0	25.185	0	66.026	0	199.3	4	69.8	4	-1E+10	1	0.1066	4	0.000472	0	-1E+10	1	-1E+10	1	-1E+10	1
4902624	38	C	07/06/2025	19:36	-129.698	48.803	0	66.90	0	9.0100	0	32.5380	0	25.191	0	66.323	0	-1e10	1	-1e10	1	-1E+10	1	-1e10	1	-1e10	1	-1E+10	1	-1E+10	1	-1E+10	1
4902624	38	C	07/06/2025	19:36	-129.698	48.803	0	67.60	0	8.9750	0	32.5520	0	25.207	0	67.017	0	197.7	4	69.2	4	-1E+10	1	0.1071	4	0.000849	0	-1E+10	1	-1E+10	1	-1E+10	1
4902624	38	C	07/06/2025	19:36	-129.698	48.803	0	68.70	0	8.9200	0	32.5740	0	25.233	0	68.107	0	196.0	4	68.5	4	-1E+10	1	0.1117	4	0.001312	0	-1E+10	1	-1E+10	1	-1E+10	1
4902624	38	C	07/06/2025	19:36	-129.698	48.803	0	69.00	0	8.9050	0	32.5800	0	25.240	0	68.405	0	-1e10	1	-1e10	1	-1E+10	1	-1e10	1	-1e10	1	-1E+10	1	-1E+10	1	-1E+10	1
4902624	38	C	07/06/2025	19:36	-129.698	48.803	0	69.70	0	8.8693	0	32.5999	0	25.261	0	69.098	0	193.9	4	67.7	4	-1E+10	1	0.0949	4	0.000482	0	-1E+10	1	-1E+10	1	-1E+10	1
4902624	38	C	07/06/2025	19:36	-129.698	48.803	0	70.70	0	8.8182	0	32.6283	0	25.291	0	70.090	0	191.8	4	66.9	4	-1E+10	1	0.0949	4	0.000494	0	-1E+10	1	-1E+10	1	-1E+10	1
4902624	38	C	07/06/2025	19:36	-129.698	48.803	0	70.90	0	8.8080	0	32.6340	0	25.297	0	70.288	0	-1e10	1	-1e10	1	-1E+10	1	-1e10	1	-1e10	1	-1E+10	1	-1E+10	1	-1E+10	1
4902624	38	C	07/06/2025	19:36	-129.698	48.803	0	72.00	0	8.7678	0	32.6582	0	25.322	0	71.378	0	188.5	4	65.7	4	-1E+10	1	0.1095	4	0.000435	0	-1E+10	1	-1E+10	1	-1E+10	1
4902624	38	C	07/06/2025	19:36	-129.698	48.803	0	72.90	0	8.7350	0	32.6780	0	25.343	0	72.270	0	184.2	4	64.2	4	-1E+10	1	0.0994	4	0.000427	0	-1E+10	1	-1E+10	1	-1E+10	1
4902624	38	C	07/06/2025	19:36	-129.698	48.803	0	73.80	0	8.6765	0	32.7055	0	25.373	0	73.162	0	185.1	4	64.4	4	-1E+10	1	0.0949	4	0.000456	0	-1E+10	1	-1E+10	1	-1E+10	1
4902624	38	C	07/06/2025	19:36	-129.698	48.803	0	74.80	0	8.6115	0	32.7359	0	25.407	0	74.153	0	183.0	4	63.6	4	-1E+10	1	0.0949	4	0.000456	0	-1E+10	1	-1E+10	1	-1E+10	1
4902624	38	C	07/06/2025	19:36	-129.698	48.803	0	74.90	0	8.6050	0	32.7390	0	25.410	0	74.253	0	-1e10	1	-1e10	1	-1E+10	1	-1e10	1	-1e10	1	-1E+10	1	-1E+10	1	-1E+10	1
4902624	38	C	07/06/2025	19:36	-129.698	48.803	0	75.60	0	8.5462	0	32.7628	0	25.438	0	74.946	0	181.2	4	62.9	4	-1E+10	1	0.1031	4	0.000430	0	-1E+10	1	-1E+10	1	-1E+10	1
4902624	38	C	07/06/2025	19:36	-129.698	48.803	0	76.30	0	8.4874	0	32.7866	0	25.465	0	75.640	0	179.6	4	62.3	4	-1E+10	1	0.1126	4	0.000420	0	-1E+10	1	-1E+10	1	-1E+10	1
4902624	38	C	07/06/2025	19:36	-129.698	48.803	0	76.90	0	8.4370	0	32.8070	0	25.489	0	76.235	0	-1e10	1	-1e10	1	-1E+10	1	-1e10	1	-1e10	1	-1E+10	1	-1E+10	1	-1E+10	1
4902624	38	C	07/06/2025	19:36	-129.698	48.803	0	77.00	0	8.4353	0	32.8079	0	25.490	0	76.334	0	177.8	4	61.6	4	-1E+10	1	0.1038	4	0.000419	0	-1E+10	1	-1E+10	1	-1E+10	1
4902624	38	C	07/06/2025	19:36	-129.698	48.803	0	77.70	0	8.4235	0	32.8139	0	25.496	0	77.028	0	175.8	4	60.9	4	-1E+10	1	0.1095	4	0.000447	0	-1E+10	1	-1E+10	1	-1E+10	1
4902624	38	C	07/06/2025	19:36	-129.698	48.803	0	78.50	0	8.4101	0	32.8208	0	25.504	0	77.821	0	172.7	4	59.8	4	-1E+10	1	0.1095	4	0.000505	0	-1E+10	1	-1E+10	1	-1E+10	1
4902624	38	C	07/06/2025	19:36	-129.698	48.803	0	79.10	0	8.4000	0	32.8260	0	25.509	0	78.415	0	-1e10	1	-1e10	1	-1E+10	1	-1e10	1	-1e10	1	-1E+10	1	-1E+10	1	-1E+10	1
4902624	38	C	07/06/2025	19:36	-129.698	48.803	0	79.20	0	8.3964	0	32.8282	0	25.512	0	78.515	0	168.2	4	58.2	4	-1E+10	1	0.1168	4	0.000411	0	-1E+10	1	-1E+10	1	-1E+10	1
4902624	38	C	07/06/2025	19:36	-129.698	48.803	0	79.80	0	8.3747	0	32.8416	0	25.525	0	79.109	0	168.7	4	58.4	4	-1E+10	1	0.1113	4	0.000403	0	-1E+10	1	-1E+10	1	-1E+10	1
4902624	38	C	07/06/2025	19:36	-129.698	48.803	0	80.40	0	8.3531	0	32.8549	0	25.539	0	79.704	0	165.7	4	57.3	4	-1E+10	1	0.0998	4	0.000406	0	-1E+10	1	-1E+10	1	-1E+10	1
4902624	38	C	07/06/2025	19:36	-129.698	48.803	0	80.90	0	8.3350	0	32.8660	0	25.550	0	80.199	0	-1e10	1	-1e10	1	-1E+10	1	-1e10	1	-1e10	1	-1E+10	1	-1E+10	1	-1E+10	1
4902624	38	C	07/06/2025	19:36	-129.698	48.803	0	81.10	0	8.3245	0	32.8825	0	25.565	0	80.398	0	162.4	4	56.1	4	-1E+10	1	0.0876	4	0.000417	0	-1E+10	1	-1E+10	1	-1E+10	1
4902624	38	C	07/06/2025	19:36	-129.698	48.803	0	81.90	0	8.2825	0	32.9485	0	25.623	0	81.191	0	159.8	4	55.2	4	-1E+10	1	0.0876	4	0.000405	0	-1E+10	1	-1E+10	1	-1E+10	1
4902624	38	C	07/06/2025	19:36	-129.698	48.803	0	82.70	0	8.2405	0	33.0145	0	25.681	0	81.984	0	158.1	4	54.6	4	-1E+10	1	0.0876	4	0.000370	0	-1E+10	1	-1E+10	1	-1E+10	1
4902624	38	C	07/06/2025	19:36	-129.698	48.803	0	82.90	0	8.2300	0	33.0310	0	25.695	0	82.182	0	-1e10	1	-1e10	1	-1E+10	1	-1e10	1	-1e10	1	-1E+10	1	-1E+10	1	-1E+10	1
4902624	38	C	07/06/2025	19:36	-129.698	48.803	0	83.50	0	8.2289	0	33.0456	0	25.707	0	82.776	0	156.3	4	54.0	4	-1E+10	1	0.0876	4	0.000411	0	-1E+10	1	-1E+10	1	-1E+10	1
4902624	38	C	07/06/2025	19:36	-129.698	48.803	0	84.30	0	8.2273	0	33.0650	0	25.722	0	83.569	0	154.6	4	53.4	4	-1E+10	1	0.0803	4	0.000376	0	-1E+10	1	-1E+10	1	-1E+10	1
4902624	38	C	07/06/2025	19:36	-129.698	48.803	0	85.00	0	8.2260	0	33.0820	0	25.736	0	84.263	0	-1e10	1	-1e10	1	-1E+10	1	-1e10	1	-1e10	1	-1E+10	1	-1E+10	1	-1E+10	1
4902624	38	C	07/06/2025	19:36	-129.698	48.803	0	85.20	0	8.2258	0	33.0867	0	25.740	0	84.461	0	152.3	4	52.6	4	-1E+10	1	0.0730	4	0.000376	0	-1E+10	1	-1E+10	1	-1E+10	1
4902624	38	C	07/06/2025	19:36	-129.698	48.803	0	85.90	0	8.2251	0	33.1031	0	25.753	0	85.155	0	150.6	4	52.0	4	-1E+10	1	0.0781	4	0.000343	0	-1E+10	1	-1E+10	1	-1E+10	1
4902624	38	C	07/06/2025	19:36	-129.698	48.803	0	86.60	0	8.2244	0	33.1196	0	25.766	0	85.849	0	148.4	4	51.3	4	-1E+10	1	0.0803	4	0.000343	0	-1E+10	1	-1E+10	1	-1E+10	1
4902624	38	C	07/06/2025	19:36	-129.698	48.803	0	87.00	0	8.2240	0	33.1290	0	25.773	0	86.245	0	-1e10	1	-1e10	1	-1E+10	1	-1e10	1	-1e10	1	-1E+10	1	-1E+10	1	-1E+10	1
4902624	38	C	07/06/2025	19:36	-129.698	48.803	0	87.40	0	8.2062	0	33.1382	0	25.783	0	86.642	0	145.6	4	50.3	4	-1E+10	1	0.0694	4	0.000347	0	-1E+10	1	-1E+10	1	-1E+10	1
4902624	38	C	07/06/2025	19:36	-129.698	48.803	0	88.20	0	8.1706	0	33.1566	0	25.803	0	87.435	0	142.3	4	49.1	4	-1E+10	1	0.0628	4	0.000341	0	-1E+10	1	-1E+10	1	-1E+10	1
4902624	38	C	07/06/2025	19:36	-129.698	48.803	0	89.00	0	8.1350	0	33.1750	0	25.822	0	88.228	0	-1e10	1	-1e10	1	-1E+10	1	-1e10	1	-1e10	1	-1E+10	1	-1E+10	1	-1E+10	1
4902624	38	C	07/06/2025	19:36	-129.698	48.803	0	89.10	0	8.1392	0	33.1793	0	25.825	0	88.327	0	139.1	4	48.0	4	-1E+10	1	0.0698	4	0.000343	0	-1E+10	1	-1E+10	1	-1E+10	1
4902624	38	C	07/06/2025	19:36	-129.698	48.803	0	90.00	0	8.1775	0	33.2180	0	25.850	0	89.219	0	135.3	4	46.7	4	-1E+10	1	0.0599	4	0.000357	0	-1E+10	1	-1E+10	1	-1E+10	1
4902624	38	C	07/06/2025	19:36	-129.698	48.803	0	90.80	0	8.2115	0	33.2524	0	25.872	0	90.012	0	132.8	4	45.9	4	-1E+10	1	0.0657	4	0.000376	0	-1E+10	1	-1E+10	1	-1E+10	1
4902624	38	C	07/06/2025	19:36	-129.698	48.803	0	91.00	0	8.2200	0	33.2610	0	25.877	0	90.210	0	-1e10	1	-1e10	1	-1E+10	1	-1e10	1	-1e10	1	-1E+10	1	-1E+10	1	-1E+10	1
4902624	38	C	07/06/2025	19:36	-129.698	48.803	0	91.70	0	8.2389	0	33.2813	0	25.891	0	90.904	0	130.7	4	45.2	4	-1E+10	1	0.0597	4	0.000395	0	-1E+10	1	-1E+10	1	-1E+10	1
4902624	38	C	07/06/2025	19:36	-129.698	48.803	0	92.60	0	8.2632	0	33.3074	0	25.907	0	91.796	0	127.8	4	44.3	4	-1E+10	1	0.0470	4	0.000372	0	-1E+10	1	-1E+10	1	-1E+10	1
4902624	38	C	07/06/2025	19:36	-129.698	48.803	0	93.00	0	8.2740	0	33.3190	0	25.915	0	92.192	0	-1e10	1	-1e10	1	-1E+10	1	-1e10	1	-1e10	1	-1E+10	1	-1E+10	1	-1E+10	1
4902624	38	C	07/06/2025	19:36	-129.698	48.803	0	93.60	0	8.2800	0	33.3373	0	25.928	0	92.787	0	126.1	4	43.7	4	-1E+10	1	0.0584	4	0.000403	0	-1E+10	1	-1E+10	1	-1E+10	1
4902624	38	C	07/06/2025	19:36	-129.698	48.803	0	94.50	0	8.2890	0	33.3647	0	25.949	0	93.679	0	125.0	4	43.3	4	-1E+10	1	0.0657	4	0.000412	0	-1E+10	1	-1E+10	1	-1E+10	1
4902624	38	C	07/06/2025	19:36	-129.698	48.803	0	95.00	0	8.2940	0	33.3800	0	25.960	0	94.174	0	-1e10	1	-1e10	1	-1E+10	1	-1e10	1	-1e10	1	-1E+10	1	-1E+10	1	-1E+10	1
4902624	38	C	07/06/2025	19:36	-129.698	48.803	0	95.50	0	8.2869	0	33.3871	0	25.966	0	94.670	0	123.5	4	42.8	4	-1E+10	1	0.0657	4	0.000409	0	-1E+10	1	-1E+10	1	-1E+10	1
4902624	38	C	07/06/2025	19:36	-129.698	48.803	0	96.50	0	8.2726	0	33.4014	0	25.980	0	95.661	0	122.1	4	42.3	4	-1E+10	1	0.0657	4	0.000391	0	-1E+10	1	-1E+10	1	-1E+10	1
4902624	38	C	07/06/2025	19:36	-129.698	48.803	0	97.10	0	8.2640	0	33.4100	0	25.988	0	96.255	0	-1e10	1	-1e10	1	-1E+10	1	-1e10	1	-1e10	1	-1E+10	1	-1E+10	1	-1E+10	1
4902624	38	C	07/06/2025	19:36	-129.698	48.803	0	97.50	0	8.2642	0	33.4157	0	25.992	0	96.652	0	120.8	4	41.9	4	-1E+10	1	0.0608	4	0.000357	0	-1E+10	1	-1E+10	1	-1E+10	1
4902624	38	C	07/06/2025	19:36	-129.698	48.803	0	98.50	0	8.2647	0	33.4299	0	26.003	0	97.643	0	119.5	4	41.4	4	-1E+10	1	0.0526	4	0.000381	0	-1E+10	1	-1E+10	1	-1E+10	1
4902624	38	C	07/06/2025	19:36	-129.698	48.803	0	99.00	0	8.2650	0	33.4370	0	26.009	0	98.138	0	-1e10	1	-1e10	1	-1E+10	1	-1e10	1	-1e10	1	-1E+10	1	-1E+10	1	-1E+10	1
4902624	38	C	07/06/2025	19:36	-129.698	48.803	0	99.40	0	8.2662	0	33.4416	0	26.012	0	98.535	0	118.3	4	41.0	4	-1E+10	1	0.0584	4	0.000356	0	-1E+10	1	-1E+10	1	-1E+10	1
4902624	38	C	07/06/2025	19:36	-129.698	48.803	0	100.40	0	8.2692	0	33.4531	0	26.021	0	99.526	0	117.1	4	40.6	4	-1E+10	1	0.0584	4	0.000388	0	-1E+10	1	-1E+10	1	-1E+10	1
4902624	38	C	07/06/2025	19:36	-129.698	48.803	0	101.00	0	8.2710	0	33.4600	0	26.026	0	100.121	0	-1e10	1	-1e10	1	-1E+10	1	-1e10	1	-1e10	1	-1E+10	1	-1E+10	1	-1E+10	1
4902624	38	C	07/06/2025	19:36	-129.698	48.803	0	101.40	0	8.2641	0	33.4672	0	26.033	0	100.517	0	116.1	4	40.2	4	-1E+10	1	0.0523	4	0.000358	0	-1E+10	1	-1E+10	1	-1E+10	1
4902624	38	C	07/06/2025	19:36	-129.698	48.803	0	102.40	0	8.2470	0	33.4853	0	26.050	0	101.508	0	115.2	4	39.9	4	-1E+10	1	0.0511	4	0.000371	0	-1E+10	1	-1E+10	1	-1E+10	1
4902624	38	C	07/06/2025	19:36	-129.698	48.803	0	103.10	0	8.2350	0	33.4980	0	26.061	0	102.202	0	-1e10	1	-1e10	1	-1E+10	1	-1e10	1	-1e10	1	-1E+10	1	-1E+10	1	-1E+10	1
4902624	38	C	07/06/2025	19:36	-129.698	48.803	0	103.40	0	8.2271	0	33.5049	0	26.068	0	102.499	0	114.4	4	39.6	4	-1E+10	1	0.0511	4	0.000407	0	-1E+10	1	-1E+10	1	-1E+10	1
4902624	38	C	07/06/2025	19:36	-129.698	48.803	0	104.40	0	8.2008	0	33.5281	0	26.090	0	103.490	0	113.7	4	39.4	4	-1E+10	1	0.0591	4	0.000416	0	-1E+10	1	-1E+10	1	-1E+10	1
4902624	38	C	07/06/2025	19:36	-129.698	48.803	0	105.00	0	8.1850	0	33.5420	0	26.103	0	104.085	0	-1e10	1	-1e10	1	-1E+10	1	-1e10	1	-1e10	1	-1E+10	1	-1E+10	1	-1E+10	1
4902624	38	C	07/06/2025	19:36	-129.698	48.803	0	105.20	0	8.1810	0	33.5450	0	26.106	0	104.283	0	113.3	4	39.2	4	-1E+10	1	0.0602	4	0.000394	0	-1E+10	1	-1E+10	1	-1E+10	1
4902624	38	C	07/06/2025	19:36	-129.698	48.803	0	105.90	0	8.1670	0	33.5553	0	26.116	0	104.977	0	112.9	4	39.1	4	-1E+10	1	0.0553	4	0.000371	0	-1E+10	1	-1E+10	1	-1E+10	1
4902624	38	C	07/06/2025	19:36	-129.698	48.803	0	106.50	0	8.1550	0	33.5641	0	26.125	0	105.571	0	112.4	4	38.9	4	-1E+10	1	0.0639	4	0.000388	0	-1E+10	1	-1E+10	1	-1E+10	1
4902624	38	C	07/06/2025	19:36	-129.698	48.803	0	107.10	0	8.1430	0	33.5730	0	26.134	0	106.166	0	-1e10	1	-1e10	1	-1E+10	1	-1e10	1	-1e10	1	-1E+10	1	-1E+10	1	-1E+10	1
4902624	38	C	07/06/2025	19:36	-129.698	48.803	0	107.20	0	8.1401	0	33.5747	0	26.136	0	106.265	0	112.1	4	38.8	4	-1E+10	1	0.0511	4	0.000388	0	-1E+10	1	-1E+10	1	-1E+10	1
4902624	38	C	07/06/2025	19:36	-129.698	48.803	0	107.80	0	8.1224	0	33.5852	0	26.147	0	106.860	0	111.9	4	38.7	4	-1E+10	1	0.0365	4	0.000376	0	-1E+10	1	-1E+10	1	-1E+10	1
4902624	38	C	07/06/2025	19:36	-129.698	48.803	0	108.50	0	8.1017	0	33.5973	0	26.159	0	107.553	0	111.8	4	38.6	4	-1E+10	1	0.0557	4	0.000396	0	-1E+10	1	-1E+10	1	-1E+10	1
4902624	38	C	07/06/2025	19:36	-129.698	48.803	0	109.00	0	8.0870	0	33.6060	0	26.168	0	108.049	0	-1e10	1	-1e10	1	-1E+10	1	-1e10	1	-1e10	1	-1E+10	1	-1E+10	1	-1E+10	1
4902624	38	C	07/06/2025	19:36	-129.698	48.803	0	109.20	0	8.0850	0	33.6067	0	26.169	0	108.247	0	111.4	4	38.5	4	-1E+10	1	0.0535	4	0.000399	0	-1E+10	1	-1E+10	1	-1E+10	1
4902624	38	C	07/06/2025	19:36	-129.698	48.803	0	109.90	0	8.0780	0	33.6090	0	26.172	0	108.941	0	111.1	4	38.4	4	-1E+10	1	0.0511	4	0.000453	0	-1E+10	1	-1E+10	1	-1E+10	1
4902624	38	C	07/06/2025	19:36	-129.698	48.803	0	110.60	0	8.0710	0	33.6113	0	26.175	0	109.634	0	110.8	4	38.3	4	-1E+10	1	0.0479	4	0.000452	0	-1E+10	1	-1E+10	1	-1E+10	1
4902624	38	C	07/06/2025	19:36	-129.698	48.803	0	111.10	0	8.0660	0	33.6130	0	26.177	0	110.130	0	-1e10	1	-1e10	1	-1E+10	1	-1e10	1	-1e10	1	-1E+10	1	-1E+10	1	-1E+10	1
4902624	38	C	07/06/2025	19:36	-129.698	48.803	0	111.40	0	8.0595	0	33.6158	0	26.180	0	110.427	0	110.4	4	38.2	4	-1E+10	1	0.0487	4	0.000435	0	-1E+10	1	-1E+10	1	-1E+10	1
4902624	38	C	07/06/2025	19:36	-129.698	48.803	0	112.10	0	8.0444	0	33.6225	0	26.187	0	111.121	0	110.0	4	38.0	4	-1E+10	1	0.0566	4	0.000490	0	-1E+10	1	-1E+10	1	-1E+10	1
4902624	38	C	07/06/2025	19:36	-129.698	48.803	0	112.90	0	8.0272	0	33.6301	0	26.196	0	111.914	0	109.7	4	37.9	4	-1E+10	1	0.0446	4	0.000390	0	-1E+10	1	-1E+10	1	-1E+10	1
4902624	38	C	07/06/2025	19:36	-129.698	48.803	0	113.00	0	8.0250	0	33.6310	0	26.197	0	112.013	0	-1e10	1	-1e10	1	-1E+10	1	-1e10	1	-1e10	1	-1E+10	1	-1E+10	1	-1E+10	1
4902624	38	C	07/06/2025	19:36	-129.698	48.803	0	113.70	0	8.0138	0	33.6359	0	26.202	0	112.707	0	109.4	4	37.8	4	-1E+10	1	0.0511	4	0.000411	0	-1E+10	1	-1E+10	1	-1E+10	1
4902624	38	C	07/06/2025	19:36	-129.698	48.803	0	114.50	0	8.0010	0	33.6415	0	26.209	0	113.499	0	109.1	4	37.6	4	-1E+10	1	0.0511	4	0.000439	0	-1E+10	1	-1E+10	1	-1E+10	1
4902624	38	C	07/06/2025	19:36	-129.698	48.803	0	115.00	0	7.9930	0	33.6450	0	26.213	0	113.995	0	-1e10	1	-1e10	1	-1E+10	1	-1e10	1	-1e10	1	-1E+10	1	-1E+10	1	-1E+10	1
4902624	38	C	07/06/2025	19:36	-129.698	48.803	0	115.30	0	7.9906	0	33.6467	0	26.214	0	114.292	0	108.8	4	37.5	4	-1E+10	1	0.0566	4	0.000402	0	-1E+10	1	-1E+10	1	-1E+10	1
4902624	38	C	07/06/2025	19:36	-129.698	48.803	0	116.10	0	7.9841	0	33.6513	0	26.219	0	115.085	0	108.5	4	37.4	4	-1E+10	1	0.0540	4	0.000388	0	-1E+10	1	-1E+10	1	-1E+10	1
4902624	38	C	07/06/2025	19:36	-129.698	48.803	0	117.00	0	7.9768	0	33.6564	0	26.224	0	115.977	0	108.2	4	37.3	4	-1E+10	1	0.0620	4	0.000434	0	-1E+10	1	-1E+10	1	-1E+10	1
4902624	38	C	07/06/2025	19:36	-129.698	48.803	0	117.10	0	7.9760	0	33.6570	0	26.225	0	116.076	0	-1e10	1	-1e10	1	-1E+10	1	-1e10	1	-1e10	1	-1E+10	1	-1E+10	1	-1E+10	1
4902624	38	C	07/06/2025	19:36	-129.698	48.803	0	117.80	0	7.9642	0	33.6618	0	26.230	0	116.770	0	107.9	4	37.2	4	-1E+10	1	0.0675	4	0.000468	0	-1E+10	1	-1E+10	1	-1E+10	1
4902624	38	C	07/06/2025	19:36	-129.698	48.803	0	118.70	0	7.9491	0	33.6679	0	26.237	0	117.661	0	107.5	4	37.1	4	-1E+10	1	0.0557	4	0.000425	0	-1E+10	1	-1E+10	1	-1E+10	1
4902624	38	C	07/06/2025	19:36	-129.698	48.803	0	119.00	0	7.9440	0	33.6700	0	26.240	0	117.959	0	-1e10	1	-1e10	1	-1E+10	1	-1e10	1	-1e10	1	-1E+10	1	-1E+10	1	-1E+10	1
4902624	38	C	07/06/2025	19:36	-129.698	48.803	0	119.50	0	7.9387	0	33.6720	0	26.242	0	118.454	0	107.0	4	36.9	4	-1E+10	1	0.0518	4	0.000390	0	-1E+10	1	-1E+10	1	-1E+10	1
4902624	38	C	07/06/2025	19:36	-129.698	48.803	0	120.40	0	7.9293	0	33.6756	0	26.246	0	119.346	0	106.5	4	36.7	4	-1E+10	1	0.0584	4	0.000411	0	-1E+10	1	-1E+10	1	-1E+10	1
4902624	38	C	07/06/2025	19:36	-129.698	48.803	0	121.00	0	7.9230	0	33.6780	0	26.249	0	119.941	0	-1e10	1	-1e10	1	-1E+10	1	-1e10	1	-1e10	1	-1E+10	1	-1E+10	1	-1E+10	1
4902624	38	C	07/06/2025	19:36	-129.698	48.803	0	121.20	0	7.9213	0	33.6794	0	26.250	0	120.139	0	106.2	4	36.6	4	-1E+10	1	0.0511	4	0.000493	0	-1E+10	1	-1E+10	1	-1E+10	1
4902624	38	C	07/06/2025	19:36	-129.698	48.803	0	122.10	0	7.9136	0	33.6859	0	26.257	0	121.031	0	105.9	4	36.5	4	-1E+10	1	0.0451	4	0.000426	0	-1E+10	1	-1E+10	1	-1E+10	1
4902624	38	C	07/06/2025	19:36	-129.698	48.803	0	122.90	0	7.9067	0	33.6916	0	26.262	0	121.823	0	105.6	4	36.4	4	-1E+10	1	0.0438	4	0.000411	0	-1E+10	1	-1E+10	1	-1E+10	1
4902624	38	C	07/06/2025	19:36	-129.698	48.803	0	123.10	0	7.9050	0	33.6930	0	26.263	0	122.022	0	-1e10	1	-1e10	1	-1E+10	1	-1e10	1	-1e10	1	-1E+10	1	-1E+10	1	-1E+10	1
4902624	38	C	07/06/2025	19:36	-129.698	48.803	0	123.80	0	7.8987	0	33.6978	0	26.268	0	122.715	0	105.3	4	36.3	4	-1E+10	1	0.0484	4	0.000396	0	-1E+10	1	-1E+10	1	-1E+10	1
4902624	38	C	07/06/2025	19:36	-129.698	48.803	0	124.60	0	7.8916	0	33.7033	0	26.273	0	123.508	0	105.0	4	36.2	4	-1E+10	1	0.0478	4	0.000414	0	-1E+10	1	-1E+10	1	-1E+10	1
4902624	38	C	07/06/2025	19:36	-129.698	48.803	0	125.00	0	7.8880	0	33.7060	0	26.276	0	123.904	0	-1e10	1	-1e10	1	-1E+10	1	-1e10	1	-1e10	1	-1E+10	1	-1E+10	1	-1E+10	1
4902624	38	C	07/06/2025	19:36	-129.698	48.803	0	125.50	0	7.8808	0	33.7105	0	26.281	0	124.400	0	104.8	4	36.1	4	-1E+10	1	0.0460	4	0.000432	0	-1E+10	1	-1E+10	1	-1E+10	1
4902624	38	C	07/06/2025	19:36	-129.698	48.803	0	126.40	0	7.8677	0	33.7186	0	26.289	0	125.292	0	104.8	4	36.1	4	-1E+10	1	0.0495	4	0.000407	0	-1E+10	1	-1E+10	1	-1E+10	1
4902624	38	C	07/06/2025	19:36	-129.698	48.803	0	127.00	0	7.8590	0	33.7240	0	26.294	0	125.886	0	-1e10	1	-1e10	1	-1E+10	1	-1e10	1	-1e10	1	-1E+10	1	-1E+10	1	-1E+10	1
4902624	38	C	07/06/2025	19:36	-129.698	48.803	0	127.30	0	7.8532	0	33.7255	0	26.297	0	126.184	0	104.7	4	36.0	4	-1E+10	1	0.0438	4	0.000427	0	-1E+10	1	-1E+10	1	-1E+10	1
4902624	38	C	07/06/2025	19:36	-129.698	48.803	0	128.10	0	7.8376	0	33.7295	0	26.302	0	126.976	0	104.7	4	36.0	4	-1E+10	1	0.0438	4	0.000399	0	-1E+10	1	-1E+10	1	-1E+10	1
4902624	38	C	07/06/2025	19:36	-129.698	48.803	0	129.00	0	7.8200	0	33.7340	0	26.308	0	127.868	0	102.2	4	35.2	4	-1E+10	1	0.0557	4	0.000418	0	-1E+10	1	-1E+10	1	-1E+10	1
4902624	38	C	07/06/2025	19:36	-129.698	48.803	0	129.90	0	7.8007	0	33.7367	0	26.313	0	128.760	0	104.6	4	35.9	4	-1E+10	1	0.0470	4	0.000423	0	-1E+10	1	-1E+10	1	-1E+10	1
4902624	38	C	07/06/2025	19:36	-129.698	48.803	0	130.70	0	7.7835	0	33.7391	0	26.317	0	129.553	0	104.4	4	35.9	4	-1E+10	1	0.0394	4	0.000585	0	-1E+10	1	-1E+10	1	-1E+10	1
4902624	38	C	07/06/2025	19:36	-129.698	48.803	0	131.00	0	7.7770	0	33.7400	0	26.319	0	129.850	0	-1e10	1	-1e10	1	-1E+10	1	-1e10	1	-1e10	1	-1E+10	1	-1E+10	1	-1E+10	1
4902624	38	C	07/06/2025	19:36	-129.698	48.803	0	131.60	0	7.7728	0	33.7445	0	26.323	0	130.444	0	104.2	4	35.8	4	-1E+10	1	0.0465	4	0.000575	0	-1E+10	1	-1E+10	1	-1E+10	1
4902624	38	C	07/06/2025	19:36	-129.698	48.803	0	132.50	0	7.7665	0	33.7513	0	26.329	0	131.336	0	104.2	4	35.8	4	-1E+10	1	0.0535	4	0.000423	0	-1E+10	1	-1E+10	1	-1E+10	1
4902624	38	C	07/06/2025	19:36	-129.698	48.803	0	133.00	0	7.7630	0	33.7550	0	26.333	0	131.832	0	-1e10	1	-1e10	1	-1E+10	1	-1e10	1	-1e10	1	-1E+10	1	-1E+10	1	-1E+10	1
4902624	38	C	07/06/2025	19:36	-129.698	48.803	0	133.50	0	7.7585	0	33.7576	0	26.336	0	132.327	0	104.4	4	35.9	4	-1E+10	1	0.0465	4	0.000416	0	-1E+10	1	-1E+10	1	-1E+10	1
4902624	38	C	07/06/2025	19:36	-129.698	48.803	0	134.40	0	7.7505	0	33.7624	0	26.340	0	133.219	0	104.7	4	35.9	4	-1E+10	1	0.0538	4	0.000877	0	-1E+10	1	-1E+10	1	-1E+10	1
4902624	38	C	07/06/2025	19:36	-129.698	48.803	0	134.90	0	7.7460	0	33.7650	0	26.343	0	133.714	0	-1e10	1	-1e10	1	-1E+10	1	-1e10	1	-1e10	1	-1E+10	1	-1E+10	1	-1E+10	1
4902624	38	C	07/06/2025	19:36	-129.698	48.803	0	135.30	0	7.7376	0	33.7646	0	26.344	0	134.111	0	104.8	4	36.0	4	-1E+10	1	0.0657	4	0.002816	0	-1E+10	1	-1E+10	1	-1E+10	1
4902624	38	C	07/06/2025	19:36	-129.698	48.803	0	136.20	0	7.7188	0	33.7638	0	26.346	0	135.003	0	104.9	4	36.0	4	-1E+10	1	0.0584	4	0.000575	0	-1E+10	1	-1E+10	1	-1E+10	1
4902624	38	C	07/06/2025	19:36	-129.698	48.803	0	137.00	0	7.7020	0	33.7630	0	26.348	0	135.795	0	-1e10	1	-1e10	1	-1E+10	1	-1e10	1	-1e10	1	-1E+10	1	-1E+10	1	-1E+10	1
4902624	38	C	07/06/2025	19:36	-129.698	48.803	0	137.20	0	7.6923	0	33.7629	0	26.349	0	135.993	0	104.8	4	35.9	4	-1E+10	1	0.0523	4	0.000419	0	-1E+10	1	-1E+10	1	-1E+10	1
4902624	38	C	07/06/2025	19:36	-129.698	48.803	0	138.10	0	7.6486	0	33.7625	0	26.355	0	136.885	0	104.2	4	35.7	4	-1E+10	1	0.0557	4	0.000402	0	-1E+10	1	-1E+10	1	-1E+10	1
4902624	38	C	07/06/2025	19:36	-129.698	48.803	0	139.10	0	7.6000	0	33.7620	0	26.362	0	137.876	0	100.8	4	34.5	4	-1E+10	1	0.0535	4	0.000419	0	-1E+10	1	-1E+10	1	-1E+10	1
4902624	38	C	07/06/2025	19:36	-129.698	48.803	0	140.00	0	7.5901	0	33.7652	0	26.366	0	138.768	0	102.5	4	35.1	4	-1E+10	1	0.0584	4	0.000440	0	-1E+10	1	-1E+10	1	-1E+10	1
4902624	38	C	07/06/2025	19:36	-129.698	48.803	0	140.90	0	7.5802	0	33.7683	0	26.370	0	139.660	0	101.7	4	34.8	4	-1E+10	1	0.0617	4	0.000448	0	-1E+10	1	-1E+10	1	-1E+10	1
4902624	38	C	07/06/2025	19:36	-129.698	48.803	0	141.10	0	7.5780	0	33.7690	0	26.371	0	139.858	0	-1e10	1	-1e10	1	-1E+10	1	-1e10	1	-1e10	1	-1E+10	1	-1E+10	1	-1E+10	1
4902624	38	C	07/06/2025	19:36	-129.698	48.803	0	141.90	0	7.5816	0	33.7758	0	26.375	0	140.651	0	100.9	4	34.5	4	-1E+10	1	0.0526	4	0.000427	0	-1E+10	1	-1E+10	1	-1E+10	1
4902624	38	C	07/06/2025	19:36	-129.698	48.803	0	142.90	0	7.5861	0	33.7843	0	26.381	0	141.641	0	100.4	4	34.4	4	-1E+10	1	0.0557	4	0.000435	0	-1E+10	1	-1E+10	1	-1E+10	1
4902624	38	C	07/06/2025	19:36	-129.698	48.803	0	143.10	0	7.5870	0	33.7860	0	26.383	0	141.840	0	-1e10	1	-1e10	1	-1E+10	1	-1e10	1	-1e10	1	-1E+10	1	-1E+10	1	-1E+10	1
4902624	38	C	07/06/2025	19:36	-129.698	48.803	0	143.80	0	7.5830	0	33.7917	0	26.388	0	142.533	0	100.2	4	34.3	4	-1E+10	1	0.0438	4	0.000387	0	-1E+10	1	-1E+10	1	-1E+10	1
4902624	38	C	07/06/2025	19:36	-129.698	48.803	0	144.80	0	7.5773	0	33.7998	0	26.395	0	143.524	0	100.2	4	34.3	4	-1E+10	1	0.0560	4	0.000544	0	-1E+10	1	-1E+10	1	-1E+10	1
4902624	38	C	07/06/2025	19:36	-129.698	48.803	0	145.20	0	7.5750	0	33.8030	0	26.398	0	143.920	0	-1e10	1	-1e10	1	-1E+10	1	-1e10	1	-1e10	1	-1E+10	1	-1E+10	1	-1E+10	1
4902624	38	C	07/06/2025	19:36	-129.698	48.803	0	145.80	0	7.5677	0	33.8053	0	26.401	0	144.515	0	100.1	4	34.2	4	-1E+10	1	0.0454	4	0.000554	0	-1E+10	1	-1E+10	1	-1E+10	1
4902624	38	C	07/06/2025	19:36	-129.698	48.803	0	146.70	0	7.5567	0	33.8088	0	26.405	0	145.407	0	100.0	4	34.2	4	-1E+10	1	0.0438	4	0.000888	0	-1E+10	1	-1E+10	1	-1E+10	1
4902624	38	C	07/06/2025	19:36	-129.698	48.803	0	147.00	0	7.5530	0	33.8100	0	26.406	0	145.704	0	-1e10	1	-1e10	1	-1E+10	1	-1e10	1	-1e10	1	-1E+10	1	-1E+10	1	-1E+10	1
4902624	38	C	07/06/2025	19:36	-129.698	48.803	0	147.60	0	7.5284	0	33.8121	0	26.412	0	146.298	0	100.0	4	34.2	4	-1E+10	1	0.0504	4	0.000784	0	-1E+10	1	-1E+10	1	-1E+10	1
4902624	38	C	07/06/2025	19:36	-129.698	48.803	0	148.60	0	7.4874	0	33.8156	0	26.420	0	147.289	0	99.8	4	34.1	4	-1E+10	1	0.0555	4	0.000472	0	-1E+10	1	-1E+10	1	-1E+10	1
4902624	38	C	07/06/2025	19:36	-129.698	48.803	0	149.00	0	7.4710	0	33.8170	0	26.424	0	147.685	0	-1e10	1	-1e10	1	-1E+10	1	-1e10	1	-1e10	1	-1E+10	1	-1E+10	1	-1E+10	1
4902624	38	C	07/06/2025	19:36	-129.698	48.803	0	149.60	0	7.4593	0	33.8176	0	26.426	0	148.280	0	99.6	4	34.0	4	-1E+10	1	0.0462	4	0.000465	0	-1E+10	1	-1E+10	1	-1E+10	1
4902624	38	C	07/06/2025	19:36	-129.698	48.803	0	150.60	0	7.4398	0	33.8185	0	26.429	0	149.271	0	99.2	4	33.9	4	-1E+10	1	0.0426	4	0.000411	0	-1E+10	1	-1E+10	1	-1E+10	1
4902624	38	C	07/06/2025	19:36	-129.698	48.803	0	151.10	0	7.4300	0	33.8190	0	26.431	0	149.766	0	-1e10	1	-1e10	1	-1E+10	1	-1e10	1	-1e10	1	-1E+10	1	-1E+10	1	-1E+10	1
4902624	38	C	07/06/2025	19:36	-129.698	48.803	0	151.60	0	7.4308	0	33.8196	0	26.431	0	150.262	0	98.9	4	33.7	4	-1E+10	1	0.0730	4	0.000411	0	-1E+10	1	-1E+10	1	-1E+10	1
4902624	38	C	07/06/2025	19:36	-129.698	48.803	0	152.60	0	7.4325	0	33.8207	0	26.432	0	151.252	0	98.6	4	33.7	4	-1E+10	1	0.0438	4	0.000387	0	-1E+10	1	-1E+10	1	-1E+10	1
4902624	38	C	07/06/2025	19:36	-129.698	48.803	0	152.90	0	7.4330	0	33.8210	0	26.432	0	151.550	0	-1e10	1	-1e10	1	-1E+10	1	-1e10	1	-1e10	1	-1E+10	1	-1E+10	1	-1E+10	1
4902624	38	C	07/06/2025	19:36	-129.698	48.803	0	153.60	0	7.4264	0	33.8231	0	26.435	0	152.243	0	98.4	4	33.6	4	-1E+10	1	0.0657	4	0.000540	0	-1E+10	1	-1E+10	1	-1E+10	1
4902624	38	C	07/06/2025	19:36	-129.698	48.803	0	154.60	0	7.4169	0	33.8261	0	26.438	0	153.234	0	98.2	4	33.5	4	-1E+10	1	0.0414	4	0.000403	0	-1E+10	1	-1E+10	1	-1E+10	1
4902624	38	C	07/06/2025	19:36	-129.698	48.803	0	154.90	0	7.4140	0	33.8270	0	26.440	0	153.531	0	-1e10	1	-1e10	1	-1E+10	1	-1e10	1	-1e10	1	-1E+10	1	-1E+10	1	-1E+10	1
4902624	38	C	07/06/2025	19:36	-129.698	48.803	0	155.70	0	7.3934	0	33.8297	0	26.445	0	154.324	0	97.9	4	33.4	4	-1E+10	1	0.0425	4	0.000414	0	-1E+10	1	-1E+10	1	-1E+10	1
4902624	38	C	07/06/2025	19:36	-129.698	48.803	0	156.70	0	7.3677	0	33.8330	0	26.451	0	155.315	0	97.6	4	33.3	4	-1E+10	1	0.0487	4	0.000415	0	-1E+10	1	-1E+10	1	-1E+10	1
4902624	38	C	07/06/2025	19:36	-129.698	48.803	0	157.00	0	7.3600	0	33.8340	0	26.453	0	155.612	0	-1e10	1	-1e10	1	-1E+10	1	-1e10	1	-1e10	1	-1E+10	1	-1E+10	1	-1E+10	1
4902624	38	C	07/06/2025	19:36	-129.698	48.803	0	157.70	0	7.3555	0	33.8347	0	26.454	0	156.305	0	97.3	4	33.1	4	-1E+10	1	0.0438	4	0.000475	0	-1E+10	1	-1E+10	1	-1E+10	1
4902624	38	C	07/06/2025	19:36	-129.698	48.803	0	158.70	0	7.3489	0	33.8357	0	26.456	0	157.296	0	96.9	4	33.0	4	-1E+10	1	0.0511	4	0.000488	0	-1E+10	1	-1E+10	1	-1E+10	1
4902624	38	C	07/06/2025	19:36	-129.698	48.803	0	159.00	0	7.3470	0	33.8360	0	26.456	0	157.593	0	-1e10	1	-1e10	1	-1E+10	1	-1e10	1	-1e10	1	-1E+10	1	-1E+10	1	-1E+10	1
4902624	38	C	07/06/2025	19:36	-129.698	48.803	0	159.70	0	7.3428	0	33.8374	0	26.458	0	158.287	0	96.5	4	32.8	4	-1E+10	1	0.0633	4	0.000450	0	-1E+10	1	-1E+10	1	-1E+10	1
4902624	38	C	07/06/2025	19:36	-129.698	48.803	0	160.70	0	7.3368	0	33.8394	0	26.460	0	159.278	0	96.0	4	32.7	4	-1E+10	1	0.0438	4	0.000512	0	-1E+10	1	-1E+10	1	-1E+10	1
4902624	38	C	07/06/2025	19:36	-129.698	48.803	0	161.00	0	7.3350	0	33.8400	0	26.461	0	159.575	0	-1e10	1	-1e10	1	-1E+10	1	-1e10	1	-1e10	1	-1E+10	1	-1E+10	1	-1E+10	1
4902624	38	C	07/06/2025	19:36	-129.698	48.803	0	161.70	0	7.3324	0	33.8418	0	26.463	0	160.269	0	95.6	4	32.5	4	-1E+10	1	0.0438	4	0.000434	0	-1E+10	1	-1E+10	1	-1E+10	1
4902624	38	C	07/06/2025	19:36	-129.698	48.803	0	162.60	0	7.3291	0	33.8442	0	26.465	0	161.160	0	95.1	4	32.4	4	-1E+10	1	0.0511	4	0.000422	0	-1E+10	1	-1E+10	1	-1E+10	1
4902624	38	C	07/06/2025	19:36	-129.698	48.803	0	162.90	0	7.3280	0	33.8450	0	26.466	0	161.457	0	-1e10	1	-1e10	1	-1E+10	1	-1e10	1	-1e10	1	-1E+10	1	-1E+10	1	-1E+10	1
4902624	38	C	07/06/2025	19:36	-129.698	48.803	0	163.60	0	7.3186	0	33.8482	0	26.470	0	162.151	0	94.7	4	32.2	4	-1E+10	1	0.0511	4	0.000510	0	-1E+10	1	-1E+10	1	-1E+10	1
4902624	38	C	07/06/2025	19:36	-129.698	48.803	0	164.60	0	7.3050	0	33.8526	0	26.475	0	163.142	0	94.3	4	32.1	4	-1E+10	1	0.0466	4	0.000477	0	-1E+10	1	-1E+10	1	-1E+10	1
4902624	38	C	07/06/2025	19:36	-129.698	48.803	0	164.90	0	7.3010	0	33.8540	0	26.477	0	163.439	0	-1e10	1	-1e10	1	-1E+10	1	-1e10	1	-1e10	1	-1E+10	1	-1E+10	1	-1E+10	1
4902624	38	C	07/06/2025	19:36	-129.698	48.803	0	165.60	0	7.2902	0	33.8564	0	26.480	0	164.132	0	94.0	4	32.0	4	-1E+10	1	0.0474	4	0.000428	0	-1E+10	1	-1E+10	1	-1E+10	1
4902624	38	C	07/06/2025	19:36	-129.698	48.803	0	166.60	0	7.2747	0	33.8600	0	26.485	0	165.123	0	93.7	4	31.9	4	-1E+10	1	0.0577	4	0.000421	0	-1E+10	1	-1E+10	1	-1E+10	1
4902624	38	C	07/06/2025	19:36	-129.698	48.803	0	166.90	0	7.2700	0	33.8610	0	26.487	0	165.420	0	-1e10	1	-1e10	1	-1E+10	1	-1e10	1	-1e10	1	-1E+10	1	-1E+10	1	-1E+10	1
4902624	38	C	07/06/2025	19:36	-129.698	48.803	0	167.60	0	7.2710	0	33.8613	0	26.487	0	166.114	0	93.5	4	31.8	4	-1E+10	1	0.0608	4	0.000442	0	-1E+10	1	-1E+10	1	-1E+10	1
4902624	38	C	07/06/2025	19:36	-129.698	48.803	0	168.60	0	7.2724	0	33.8618	0	26.487	0	167.105	0	93.2	4	31.7	4	-1E+10	1	0.0482	4	0.000472	0	-1E+10	1	-1E+10	1	-1E+10	1
4902624	38	C	07/06/2025	19:36	-129.698	48.803	0	169.00	0	7.2730	0	33.8620	0	26.487	0	167.501	0	-1e10	1	-1e10	1	-1E+10	1	-1e10	1	-1e10	1	-1E+10	1	-1E+10	1	-1E+10	1
4902624	38	C	07/06/2025	19:36	-129.698	48.803	0	169.60	0	7.2730	0	33.8625	0	26.487	0	168.095	0	93.0	4	31.6	4	-1E+10	1	0.0377	4	0.000500	0	-1E+10	1	-1E+10	1	-1E+10	1
4902624	38	C	07/06/2025	19:36	-129.698	48.803	0	170.60	0	7.2730	0	33.8635	0	26.488	0	169.086	0	92.8	4	31.5	4	-1E+10	1	0.0438	4	0.000364	0	-1E+10	1	-1E+10	1	-1E+10	1
4902624	38	C	07/06/2025	19:36	-129.698	48.803	0	171.20	0	7.2730	0	33.8640	0	26.489	0	169.681	0	-1e10	1	-1e10	1	-1E+10	1	-1e10	1	-1e10	1	-1E+10	1	-1E+10	1	-1E+10	1
4902624	38	C	07/06/2025	19:36	-129.698	48.803	0	171.60	0	7.2710	0	33.8651	0	26.490	0	170.077	0	92.5	4	31.5	4	-1E+10	1	0.0560	4	0.000422	0	-1E+10	1	-1E+10	1	-1E+10	1
4902624	38	C	07/06/2025	19:36	-129.698	48.803	0	172.60	0	7.2660	0	33.8679	0	26.493	0	171.068	0	92.3	4	31.4	4	-1E+10	1	0.0649	4	0.000486	0	-1E+10	1	-1E+10	1	-1E+10	1
4902624	38	C	07/06/2025	19:36	-129.698	48.803	0	173.00	0	7.2640	0	33.8690	0	26.494	0	171.464	0	-1e10	1	-1e10	1	-1E+10	1	-1e10	1	-1e10	1	-1E+10	1	-1E+10	1	-1E+10	1
4902624	38	C	07/06/2025	19:36	-129.698	48.803	0	173.50	0	7.2625	0	33.8700	0	26.495	0	171.959	0	92.1	4	31.3	4	-1E+10	1	0.0511	4	0.000461	0	-1E+10	1	-1E+10	1	-1E+10	1
4902624	38	C	07/06/2025	19:36	-129.698	48.803	0	174.40	0	7.2598	0	33.8718	0	26.497	0	172.851	0	92.0	4	31.3	4	-1E+10	1	0.0471	4	0.000494	0	-1E+10	1	-1E+10	1	-1E+10	1
4902624	38	C	07/06/2025	19:36	-129.698	48.803	0	175.00	0	7.2580	0	33.8730	0	26.498	0	173.445	0	-1e10	1	-1e10	1	-1E+10	1	-1e10	1	-1e10	1	-1E+10	1	-1E+10	1	-1E+10	1
4902624	38	C	07/06/2025	19:36	-129.698	48.803	0	175.40	0	7.2517	0	33.8732	0	26.499	0	173.841	0	91.8	4	31.2	4	-1E+10	1	0.0511	4	0.000515	0	-1E+10	1	-1E+10	1	-1E+10	1
4902624	38	C	07/06/2025	19:36	-129.698	48.803	0	176.30	0	7.2376	0	33.8736	0	26.501	0	174.733	0	91.7	4	31.2	4	-1E+10	1	0.0484	4	0.000448	0	-1E+10	1	-1E+10	1	-1E+10	1
4902624	38	C	07/06/2025	19:36	-129.698	48.803	0	177.10	0	7.2250	0	33.8740	0	26.503	0	175.526	0	-1e10	1	-1e10	1	-1E+10	1	-1e10	1	-1e10	1	-1E+10	1	-1E+10	1	-1E+10	1
4902624	38	C	07/06/2025	19:36	-129.698	48.803	0	177.20	0	7.2216	0	33.8738	0	26.504	0	175.625	0	91.5	4	31.1	4	-1E+10	1	0.0450	4	0.000428	0	-1E+10	1	-1E+10	1	-1E+10	1
4902624	38	C	07/06/2025	19:36	-129.698	48.803	0	178.20	0	7.1879	0	33.8723	0	26.507	0	176.615	0	91.2	4	31.0	4	-1E+10	1	0.0511	4	0.000516	0	-1E+10	1	-1E+10	1	-1E+10	1
4902624	38	C	07/06/2025	19:36	-129.698	48.803	0	179.00	0	7.1610	0	33.8710	0	26.510	0	177.408	0	-1e10	1	-1e10	1	-1E+10	1	-1e10	1	-1e10	1	-1E+10	1	-1E+10	1	-1E+10	1
4902624	38	C	07/06/2025	19:36	-129.698	48.803	0	179.10	0	7.1605	0	33.8710	0	26.510	0	177.507	0	90.9	4	30.8	4	-1E+10	1	0.0511	4	0.000422	0	-1E+10	1	-1E+10	1	-1E+10	1
4902624	38	C	07/06/2025	19:36	-129.698	48.803	0	180.00	0	7.1565	0	33.8715	0	26.511	0	178.399	0	90.6	4	30.7	4	-1E+10	1	0.0571	4	0.000422	0	-1E+10	1	-1E+10	1	-1E+10	1
4902624	38	C	07/06/2025	19:36	-129.698	48.803	0	180.90	0	7.1525	0	33.8720	0	26.512	0	179.290	0	90.3	4	30.6	4	-1E+10	1	0.0538	4	0.000497	0	-1E+10	1	-1E+10	1	-1E+10	1
4902624	38	C	07/06/2025	19:36	-129.698	48.803	0	181.00	0	7.1520	0	33.8720	0	26.512	0	179.389	0	-1e10	1	-1e10	1	-1E+10	1	-1e10	1	-1e10	1	-1E+10	1	-1E+10	1	-1E+10	1
4902624	38	C	07/06/2025	19:36	-129.698	48.803	0	181.90	0	7.1484	0	33.8738	0	26.514	0	180.281	0	90.0	4	30.5	4	-1E+10	1	0.0560	4	0.000485	0	-1E+10	1	-1E+10	1	-1E+10	1
4902624	38	C	07/06/2025	19:36	-129.698	48.803	0	182.80	0	7.1448	0	33.8756	0	26.516	0	181.172	0	89.7	4	30.4	4	-1E+10	1	0.0544	4	0.000470	0	-1E+10	1	-1E+10	1	-1E+10	1
4902624	38	C	07/06/2025	19:36	-129.698	48.803	0	183.00	0	7.1440	0	33.8760	0	26.516	0	181.371	0	-1e10	1	-1e10	1	-1E+10	1	-1e10	1	-1e10	1	-1E+10	1	-1E+10	1	-1E+10	1
4902624	38	C	07/06/2025	19:36	-129.698	48.803	0	183.70	0	7.1318	0	33.8770	0	26.519	0	182.064	0	89.5	4	30.3	4	-1E+10	1	0.0511	4	0.000468	0	-1E+10	1	-1E+10	1	-1E+10	1
4902624	38	C	07/06/2025	19:36	-129.698	48.803	0	184.60	0	7.1160	0	33.8784	0	26.522	0	182.956	0	89.2	4	30.2	4	-1E+10	1	0.0543	4	0.000446	0	-1E+10	1	-1E+10	1	-1E+10	1
4902624	38	C	07/06/2025	19:36	-129.698	48.803	0	185.00	0	7.1090	0	33.8790	0	26.523	0	183.352	0	-1e10	1	-1e10	1	-1E+10	1	-1e10	1	-1e10	1	-1E+10	1	-1E+10	1	-1E+10	1
4902624	38	C	07/06/2025	19:36	-129.698	48.803	0	185.50	0	7.1011	0	33.8788	0	26.524	0	183.847	0	89.0	4	30.1	4	-1E+10	1	0.0642	4	0.000469	0	-1E+10	1	-1E+10	1	-1E+10	1
4902624	38	C	07/06/2025	19:36	-129.698	48.803	0	186.30	0	7.0886	0	33.8784	0	26.526	0	184.640	0	88.7	4	30.0	4	-1E+10	1	0.0584	4	0.000563	0	-1E+10	1	-1E+10	1	-1E+10	1
4902624	38	C	07/06/2025	19:36	-129.698	48.803	0	187.10	0	7.0760	0	33.8780	0	26.527	0	185.432	0	-1e10	1	-1e10	1	-1E+10	1	-1e10	1	-1e10	1	-1E+10	1	-1E+10	1	-1E+10	1
4902624	38	C	07/06/2025	19:36	-129.698	48.803	0	187.20	0	7.0744	0	33.8780	0	26.527	0	185.531	0	88.3	4	29.9	4	-1E+10	1	0.0524	4	0.000505	0	-1E+10	1	-1E+10	1	-1E+10	1
4902624	38	C	07/06/2025	19:36	-129.698	48.803	0	188.10	0	7.0597	0	33.8780	0	26.529	0	186.423	0	87.9	4	29.7	4	-1E+10	1	0.0568	4	0.000447	0	-1E+10	1	-1E+10	1	-1E+10	1
4902624	38	C	07/06/2025	19:36	-129.698	48.803	0	189.00	0	7.0450	0	33.8780	0	26.531	0	187.314	0	-1e10	1	-1e10	1	-1E+10	1	-1e10	1	-1e10	1	-1E+10	1	-1E+10	1	-1E+10	1
4902624	38	C	07/06/2025	19:36	-129.698	48.803	0	189.10	0	7.0437	0	33.8783	0	26.532	0	187.414	0	87.4	4	29.6	4	-1E+10	1	0.0584	4	0.000553	0	-1E+10	1	-1E+10	1	-1E+10	1
4902624	38	C	07/06/2025	19:36	-129.698	48.803	0	190.00	0	7.0315	0	33.8810	0	26.536	0	188.305	0	87.0	4	29.4	4	-1E+10	1	0.0548	4	0.000528	0	-1E+10	1	-1E+10	1	-1E+10	1
4902624	38	C	07/06/2025	19:36	-129.698	48.803	0	190.90	0	7.0194	0	33.8837	0	26.539	0	189.197	0	86.6	4	29.3	4	-1E+10	1	0.0535	4	0.000477	0	-1E+10	1	-1E+10	1	-1E+10	1
4902624	38	C	07/06/2025	19:36	-129.698	48.803	0	191.00	0	7.0180	0	33.8840	0	26.540	0	189.296	0	-1e10	1	-1e10	1	-1E+10	1	-1e10	1	-1e10	1	-1E+10	1	-1E+10	1	-1E+10	1
4902624	38	C	07/06/2025	19:36	-129.698	48.803	0	191.80	0	7.0205	0	33.8857	0	26.541	0	190.088	0	86.1	4	29.1	4	-1E+10	1	0.0604	4	0.000487	0	-1E+10	1	-1E+10	1	-1E+10	1
4902624	38	C	07/06/2025	19:36	-129.698	48.803	0	192.80	0	7.0237	0	33.8878	0	26.542	0	191.079	0	85.5	4	28.9	4	-1E+10	1	0.0657	4	0.000419	0	-1E+10	1	-1E+10	1	-1E+10	1
4902624	38	C	07/06/2025	19:36	-129.698	48.803	0	192.90	0	7.0240	0	33.8880	0	26.542	0	191.178	0	-1e10	1	-1e10	1	-1E+10	1	-1e10	1	-1e10	1	-1E+10	1	-1E+10	1	-1E+10	1
4902624	38	C	07/06/2025	19:36	-129.698	48.803	0	193.70	0	7.0251	0	33.8922	0	26.545	0	191.970	0	85.1	4	28.8	4	-1E+10	1	0.0657	4	0.000457	0	-1E+10	1	-1E+10	1	-1E+10	1
4902624	38	C	07/06/2025	19:36	-129.698	48.803	0	194.60	0	7.0264	0	33.8969	0	26.549	0	192.862	0	84.7	4	28.6	4	-1E+10	1	0.0584	4	0.000434	0	-1E+10	1	-1E+10	1	-1E+10	1
4902624	38	C	07/06/2025	19:36	-129.698	48.803	0	195.00	0	7.0270	0	33.8990	0	26.550	0	193.258	0	-1e10	1	-1e10	1	-1E+10	1	-1e10	1	-1e10	1	-1E+10	1	-1E+10	1	-1E+10	1
4902624	38	C	07/06/2025	19:36	-129.698	48.803	0	195.60	0	7.0225	0	33.9005	0	26.552	0	193.853	0	84.3	4	28.5	4	-1E+10	1	0.0584	4	0.000359	0	-1E+10	1	-1E+10	1	-1E+10	1
4902624	38	C	07/06/2025	19:36	-129.698	48.803	0	196.50	0	7.0157	0	33.9027	0	26.555	0	194.744	0	83.9	4	28.4	4	-1E+10	1	0.0535	4	0.000438	0	-1E+10	1	-1E+10	1	-1E+10	1
4902624	38	C	07/06/2025	19:36	-129.698	48.803	0	197.00	0	7.0120	0	33.9040	0	26.556	0	195.239	0	-1e10	1	-1e10	1	-1E+10	1	-1e10	1	-1e10	1	-1E+10	1	-1E+10	1	-1E+10	1
4902624	38	C	07/06/2025	19:36	-129.698	48.803	0	197.50	0	7.0078	0	33.9048	0	26.558	0	195.735	0	83.5	4	28.2	4	-1E+10	1	0.0511	4	0.000438	0	-1E+10	1	-1E+10	1	-1E+10	1
4902624	38	C	07/06/2025	19:36	-129.698	48.803	0	198.50	0	6.9992	0	33.9062	0	26.560	0	196.725	0	83.1	4	28.1	4	-1E+10	1	0.0474	4	0.000422	0	-1E+10	1	-1E+10	1	-1E+10	1
4902624	38	C	07/06/2025	19:36	-129.698	48.803	0	199.00	0	6.9950	0	33.9070	0	26.561	0	197.221	0	-1e10	1	-1e10	1	-1E+10	1	-1e10	1	-1e10	1	-1E+10	1	-1E+10	1	-1E+10	1
4902624	38	C	07/06/2025	19:36	-129.698	48.803	0	199.50	0	6.9875	0	33.9080	0	26.563	0	197.716	0	82.7	4	28.0	4	-1E+10	1	0.0518	4	0.000429	0	-1E+10	1	-1E+10	1	-1E+10	1
4902624	38	C	07/06/2025	19:36	-129.698	48.803	0	200.40	0	6.9740	0	33.9098	0	26.566	0	198.607	0	82.4	4	27.8	4	-1E+10	1	0.0604	4	0.000418	0	-1E+10	1	-1E+10	1	-1E+10	1
4902624	38	C	07/06/2025	19:36	-129.698	48.803	0	201.00	0	6.9650	0	33.9110	0	26.568	0	199.202	0	-1e10	1	-1e10	1	-1E+10	1	-1e10	1	-1e10	1	-1E+10	1	-1E+10	1	-1E+10	1
4902624	38	C	07/06/2025	19:36	-129.698	48.803	0	201.50	0	6.9550	0	33.9120	0	26.571	0	199.697	0	82.1	4	27.7	4	-1E+10	1	0.0402	4	0.000395	0	-1E+10	1	-1E+10	1	-1E+10	1
4902624	38	C	07/06/2025	19:36	-129.698	48.803	0	202.50	0	6.9350	0	33.9140	0	26.575	0	200.688	0	81.9	4	27.7	4	-1E+10	1	0.0584	4	0.000375	0	-1E+10	1	-1E+10	1	-1E+10	1
4902624	38	C	07/06/2025	19:36	-129.698	48.803	0	203.00	0	6.9250	0	33.9150	0	26.577	0	201.183	0	-1e10	1	-1e10	1	-1E+10	1	-1e10	1	-1e10	1	-1E+10	1	-1E+10	1	-1E+10	1
4902624	38	C	07/06/2025	19:36	-129.698	48.803	0	203.60	0	6.9163	0	33.9150	0	26.578	0	201.777	0	81.6	4	27.5	4	-1E+10	1	0.0584	4	0.000418	0	-1E+10	1	-1E+10	1	-1E+10	1
4902624	38	C	07/06/2025	19:36	-129.698	48.803	0	204.60	0	6.9018	0	33.9150	0	26.580	0	202.768	0	81.3	4	27.4	4	-1E+10	1	0.0584	4	0.000384	0	-1E+10	1	-1E+10	1	-1E+10	1
4902624	38	C	07/06/2025	19:36	-129.698	48.803	0	205.00	0	6.8960	0	33.9150	0	26.581	0	203.164	0	-1e10	1	-1e10	1	-1E+10	1	-1e10	1	-1e10	1	-1E+10	1	-1E+10	1	-1E+10	1
4902624	38	C	07/06/2025	19:36	-129.698	48.803	0	205.60	0	6.8882	0	33.9156	0	26.583	0	203.758	0	81.1	4	27.3	4	-1E+10	1	0.0539	4	0.000440	0	-1E+10	1	-1E+10	1	-1E+10	1
4902624	38	C	07/06/2025	19:36	-129.698	48.803	0	206.70	0	6.8739	0	33.9167	0	26.585	0	204.848	0	80.7	4	27.2	4	-1E+10	1	0.0584	4	0.000475	0	-1E+10	1	-1E+10	1	-1E+10	1
4902624	38	C	07/06/2025	19:36	-129.698	48.803	0	207.00	0	6.8700	0	33.9170	0	26.586	0	205.145	0	-1e10	1	-1e10	1	-1E+10	1	-1e10	1	-1e10	1	-1E+10	1	-1E+10	1	-1E+10	1
4902624	38	C	07/06/2025	19:36	-129.698	48.803	0	207.80	0	6.8510	0	33.9185	0	26.590	0	205.937	0	80.5	4	27.1	4	-1E+10	1	0.0657	4	0.000453	0	-1E+10	1	-1E+10	1	-1E+10	1
4902624	38	C	07/06/2025	19:36	-129.698	48.803	0	208.90	0	6.8248	0	33.9206	0	26.595	0	207.027	0	80.3	4	27.0	4	-1E+10	1	0.0601	4	0.000420	0	-1E+10	1	-1E+10	1	-1E+10	1
4902624	38	C	07/06/2025	19:36	-129.698	48.803	0	209.10	0	6.8200	0	33.9210	0	26.596	0	207.225	0	-1e10	1	-1e10	1	-1E+10	1	-1e10	1	-1e10	1	-1E+10	1	-1E+10	1	-1E+10	1
4902624	38	C	07/06/2025	19:36	-129.698	48.803	0	210.00	0	6.8124	0	33.9206	0	26.597	0	208.117	0	80.1	4	27.0	4	-1E+10	1	0.0511	4	0.000403	0	-1E+10	1	-1E+10	1	-1E+10	1
4902624	38	C	07/06/2025	19:36	-129.698	48.803	0	211.10	0	6.8030	0	33.9200	0	26.598	0	209.206	0	77.8	4	26.2	4	-1E+10	1	0.0511	4	0.000421	0	-1E+10	1	-1E+10	1	-1E+10	1
4902624	38	C	07/06/2025	19:36	-129.698	48.803	0	212.20	0	6.7997	0	33.9194	0	26.598	0	210.296	0	79.5	4	26.8	4	-1E+10	1	0.0657	4	0.000375	0	-1E+10	1	-1E+10	1	-1E+10	1
4902624	38	C	07/06/2025	19:36	-129.698	48.803	0	213.10	0	6.7970	0	33.9190	0	26.598	0	211.187	0	-1e10	1	-1e10	1	-1E+10	1	-1e10	1	-1e10	1	-1E+10	1	-1E+10	1	-1E+10	1
4902624	38	C	07/06/2025	19:36	-129.698	48.803	0	213.30	0	6.7949	0	33.9190	0	26.598	0	211.385	0	79.2	4	26.6	4	-1E+10	1	0.0595	4	0.000415	0	-1E+10	1	-1E+10	1	-1E+10	1
4902624	38	C	07/06/2025	19:36	-129.698	48.803	0	214.40	0	6.7833	0	33.9190	0	26.599	0	212.475	0	78.7	4	26.5	4	-1E+10	1	0.0584	4	0.000414	0	-1E+10	1	-1E+10	1	-1E+10	1
4902624	38	C	07/06/2025	19:36	-129.698	48.803	0	215.00	0	6.7770	0	33.9190	0	26.600	0	213.069	0	-1e10	1	-1e10	1	-1E+10	1	-1e10	1	-1e10	1	-1E+10	1	-1E+10	1	-1E+10	1
4902624	38	C	07/06/2025	19:36	-129.698	48.803	0	215.60	0	6.7745	0	33.9203	0	26.602	0	213.663	0	78.4	4	26.4	4	-1E+10	1	0.0538	4	0.000455	0	-1E+10	1	-1E+10	1	-1E+10	1
4902624	38	C	07/06/2025	19:36	-129.698	48.803	0	216.70	0	6.7698	0	33.9226	0	26.604	0	214.753	0	78.0	4	26.2	4	-1E+10	1	0.0474	4	0.000463	0	-1E+10	1	-1E+10	1	-1E+10	1
4902624	38	C	07/06/2025	19:36	-129.698	48.803	0	216.90	0	6.7690	0	33.9230	0	26.605	0	214.951	0	-1e10	1	-1e10	1	-1E+10	1	-1e10	1	-1e10	1	-1E+10	1	-1E+10	1	-1E+10	1
4902624	38	C	07/06/2025	19:36	-129.698	48.803	0	217.80	0	6.7596	0	33.9239	0	26.606	0	215.843	0	77.7	4	26.1	4	-1E+10	1	0.0480	4	0.000472	0	-1E+10	1	-1E+10	1	-1E+10	1
4902624	38	C	07/06/2025	19:36	-129.698	48.803	0	219.00	0	6.7470	0	33.9250	0	26.609	0	217.031	0	75.5	4	25.4	4	-1E+10	1	0.0557	4	0.000539	0	-1E+10	1	-1E+10	1	-1E+10	1
4902624	38	C	07/06/2025	19:36	-129.698	48.803	0	220.10	0	6.7350	0	33.9266	0	26.612	0	218.121	0	77.2	4	25.9	4	-1E+10	1	0.0462	4	0.000527	0	-1E+10	1	-1E+10	1	-1E+10	1
4902624	38	C	07/06/2025	19:36	-129.698	48.803	0	221.10	0	6.7240	0	33.9280	0	26.615	0	219.111	0	-1e10	1	-1e10	1	-1E+10	1	-1e10	1	-1e10	1	-1E+10	1	-1E+10	1	-1E+10	1
4902624	38	C	07/06/2025	19:36	-129.698	48.803	0	221.30	0	6.7205	0	33.9280	0	26.615	0	219.309	0	76.9	4	25.9	4	-1E+10	1	0.0594	4	0.000468	0	-1E+10	1	-1E+10	1	-1E+10	1
4902624	38	C	07/06/2025	19:36	-129.698	48.803	0	222.50	0	6.6997	0	33.9280	0	26.618	0	220.498	0	76.7	4	25.8	4	-1E+10	1	0.0657	4	0.000469	0	-1E+10	1	-1E+10	1	-1E+10	1
4902624	38	C	07/06/2025	19:36	-129.698	48.803	0	223.00	0	6.6910	0	33.9280	0	26.619	0	220.993	0	-1e10	1	-1e10	1	-1E+10	1	-1e10	1	-1e10	1	-1E+10	1	-1E+10	1	-1E+10	1
4902624	38	C	07/06/2025	19:36	-129.698	48.803	0	223.60	0	6.6904	0	33.9286	0	26.620	0	221.587	0	76.4	4	25.6	4	-1E+10	1	0.0584	4	0.000398	0	-1E+10	1	-1E+10	1	-1E+10	1
4902624	38	C	07/06/2025	19:36	-129.698	48.803	0	224.80	0	6.6892	0	33.9298	0	26.621	0	222.776	0	76.1	4	25.6	4	-1E+10	1	0.0584	4	0.000408	0	-1E+10	1	-1E+10	1	-1E+10	1
4902624	38	C	07/06/2025	19:36	-129.698	48.803	0	225.00	0	6.6890	0	33.9300	0	26.621	0	222.974	0	-1e10	1	-1e10	1	-1E+10	1	-1e10	1	-1e10	1	-1E+10	1	-1E+10	1	-1E+10	1
4902624	38	C	07/06/2025	19:36	-129.698	48.803	0	225.90	0	6.6867	0	33.9309	0	26.622	0	223.865	0	75.9	4	25.5	4	-1E+10	1	0.0490	4	0.000372	0	-1E+10	1	-1E+10	1	-1E+10	1
4902624	38	C	07/06/2025	19:36	-129.698	48.803	0	227.00	0	6.6840	0	33.9320	0	26.623	0	224.955	0	-1e10	1	-1e10	1	-1E+10	1	-1e10	1	-1e10	1	-1E+10	1	-1E+10	1	-1E+10	1
4902624	38	C	07/06/2025	19:36	-129.698	48.803	0	227.10	0	6.6829	0	33.9320	0	26.623	0	225.054	0	75.7	4	25.4	4	-1E+10	1	0.0523	4	0.000358	0	-1E+10	1	-1E+10	1	-1E+10	1
4902624	38	C	07/06/2025	19:36	-129.698	48.803	0	228.30	0	6.6697	0	33.9326	0	26.626	0	226.242	0	75.4	4	25.3	4	-1E+10	1	0.0620	4	0.000357	0	-1E+10	1	-1E+10	1	-1E+10	1
4902624	38	C	07/06/2025	19:36	-129.698	48.803	0	229.00	0	6.6620	0	33.9330	0	26.627	0	226.936	0	-1e10	1	-1e10	1	-1E+10	1	-1e10	1	-1e10	1	-1E+10	1	-1E+10	1	-1E+10	1
4902624	38	C	07/06/2025	19:36	-129.698	48.803	0	229.50	0	6.6575	0	33.9335	0	26.628	0	227.431	0	75.2	4	25.2	4	-1E+10	1	0.0605	4	0.000338	0	-1E+10	1	-1E+10	1	-1E+10	1
4902624	38	C	07/06/2025	19:36	-129.698	48.803	0	230.70	0	6.6467	0	33.9347	0	26.630	0	228.620	0	75.0	4	25.1	4	-1E+10	1	0.0493	4	0.000313	0	-1E+10	1	-1E+10	1	-1E+10	1
4902624	38	C	07/06/2025	19:36	-129.698	48.803	0	231.00	0	6.6440	0	33.9350	0	26.631	0	228.917	0	-1e10	1	-1e10	1	-1E+10	1	-1e10	1	-1e10	1	-1E+10	1	-1E+10	1	-1E+10	1
4902624	38	C	07/06/2025	19:36	-129.698	48.803	0	231.80	0	6.6380	0	33.9346	0	26.631	0	229.709	0	74.7	4	25.1	4	-1E+10	1	0.0438	4	0.000329	0	-1E+10	1	-1E+10	1	-1E+10	1
4902624	38	C	07/06/2025	19:36	-129.698	48.803	0	233.00	0	6.6290	0	33.9340	0	26.632	0	230.897	0	72.5	4	24.3	4	-1E+10	1	0.0438	4	0.000479	0	-1E+10	1	-1E+10	1	-1E+10	1
4902624	38	C	07/06/2025	19:36	-129.698	48.803	0	234.20	0	6.6158	0	33.9358	0	26.635	0	232.086	0	74.3	4	24.9	4	-1E+10	1	0.0496	4	0.000349	0	-1E+10	1	-1E+10	1	-1E+10	1
4902624	38	C	07/06/2025	19:36	-129.698	48.803	0	235.00	0	6.6070	0	33.9370	0	26.637	0	232.878	0	-1e10	1	-1e10	1	-1E+10	1	-1e10	1	-1e10	1	-1E+10	1	-1E+10	1	-1E+10	1
4902624	38	C	07/06/2025	19:36	-129.698	48.803	0	235.40	0	6.5978	0	33.9372	0	26.639	0	233.274	0	74.1	4	24.8	4	-1E+10	1	0.0630	4	0.000345	0	-1E+10	1	-1E+10	1	-1E+10	1
4902624	38	C	07/06/2025	19:36	-129.698	48.803	0	236.60	0	6.5702	0	33.9378	0	26.643	0	234.463	0	73.8	4	24.7	4	-1E+10	1	0.0511	4	0.000383	0	-1E+10	1	-1E+10	1	-1E+10	1
4902624	38	C	07/06/2025	19:36	-129.698	48.803	0	237.00	0	6.5610	0	33.9380	0	26.644	0	234.859	0	-1e10	1	-1e10	1	-1E+10	1	-1e10	1	-1e10	1	-1E+10	1	-1E+10	1	-1E+10	1
4902624	38	C	07/06/2025	19:36	-129.698	48.803	0	237.80	0	6.5463	0	33.9372	0	26.645	0	235.651	0	73.5	4	24.6	4	-1E+10	1	0.0438	4	0.000375	0	-1E+10	1	-1E+10	1	-1E+10	1
4902624	38	C	07/06/2025	19:36	-129.698	48.803	0	238.90	0	6.5260	0	33.9360	0	26.647	0	236.741	0	-1e10	1	-1e10	1	-1E+10	1	-1e10	1	-1e10	1	-1E+10	1	-1E+10	1	-1E+10	1
4902624	38	C	07/06/2025	19:36	-129.698	48.803	0	239.00	0	6.5252	0	33.9360	0	26.647	0	236.840	0	73.2	4	24.5	4	-1E+10	1	0.0494	4	0.000347	0	-1E+10	1	-1E+10	1	-1E+10	1
4902624	38	C	07/06/2025	19:36	-129.698	48.803	0	240.20	0	6.5155	0	33.9366	0	26.649	0	238.028	0	72.9	4	24.4	4	-1E+10	1	0.0584	4	0.000343	0	-1E+10	1	-1E+10	1	-1E+10	1
4902624	38	C	07/06/2025	19:36	-129.698	48.803	0	241.00	0	6.5090	0	33.9370	0	26.650	0	238.821	0	-1e10	1	-1e10	1	-1E+10	1	-1e10	1	-1e10	1	-1E+10	1	-1E+10	1	-1E+10	1
4902624	38	C	07/06/2025	19:36	-129.698	48.803	0	241.50	0	6.5050	0	33.9372	0	26.651	0	239.316	0	72.6	4	24.3	4	-1E+10	1	0.0540	4	0.000354	0	-1E+10	1	-1E+10	1	-1E+10	1
4902624	38	C	07/06/2025	19:36	-129.698	48.803	0	242.70	0	6.4952	0	33.9378	0	26.653	0	240.504	0	72.2	4	24.1	4	-1E+10	1	0.0365	4	0.000363	0	-1E+10	1	-1E+10	1	-1E+10	1
4902624	38	C	07/06/2025	19:36	-129.698	48.803	0	243.10	0	6.4920	0	33.9380	0	26.653	0	240.900	0	-1e10	1	-1e10	1	-1E+10	1	-1e10	1	-1e10	1	-1E+10	1	-1E+10	1	-1E+10	1
4902624	38	C	07/06/2025	19:36	-129.698	48.803	0	244.00	0	6.4844	0	33.9384	0	26.655	0	241.792	0	71.9	4	24.0	4	-1E+10	1	0.0511	4	0.000410	0	-1E+10	1	-1E+10	1	-1E+10	1
4902624	38	C	07/06/2025	19:36	-129.698	48.803	0	245.10	0	6.4750	0	33.9390	0	26.656	0	242.881	0	-1e10	1	-1e10	1	-1E+10	1	-1e10	1	-1e10	1	-1E+10	1	-1E+10	1	-1E+10	1
4902624	38	C	07/06/2025	19:36	-129.698	48.803	0	245.20	0	6.4740	0	33.9390	0	26.657	0	242.980	0	71.5	4	23.9	4	-1E+10	1	0.0628	4	0.000410	0	-1E+10	1	-1E+10	1	-1E+10	1
4902624	38	C	07/06/2025	19:36	-129.698	48.803	0	246.50	0	6.4610	0	33.9397	0	26.659	0	244.268	0	71.1	4	23.8	4	-1E+10	1	0.0605	4	0.000418	0	-1E+10	1	-1E+10	1	-1E+10	1
4902624	38	C	07/06/2025	19:36	-129.698	48.803	0	247.10	0	6.4550	0	33.9400	0	26.660	0	244.862	0	-1e10	1	-1e10	1	-1E+10	1	-1e10	1	-1e10	1	-1E+10	1	-1E+10	1	-1E+10	1
4902624	38	C	07/06/2025	19:36	-129.698	48.803	0	247.70	0	6.4457	0	33.9400	0	26.661	0	245.456	0	70.9	4	23.7	4	-1E+10	1	0.0449	4	0.000429	0	-1E+10	1	-1E+10	1	-1E+10	1
4902624	38	C	07/06/2025	19:36	-129.698	48.803	0	248.90	0	6.4271	0	33.9400	0	26.663	0	246.645	0	70.6	4	23.6	4	-1E+10	1	0.0535	4	0.000433	0	-1E+10	1	-1E+10	1	-1E+10	1
4902624	38	C	07/06/2025	19:36	-129.698	48.803	0	249.10	0	6.4240	0	33.9400	0	26.664	0	246.843	0	-1e10	1	-1e10	1	-1E+10	1	-1e10	1	-1e10	1	-1E+10	1	-1E+10	1	-1E+10	1
4902624	38	C	07/06/2025	19:36	-129.698	48.803	0	250.20	0	6.4075	0	33.9411	0	26.667	0	247.932	0	70.4	4	23.5	4	-1E+10	1	0.0657	4	0.000418	0	-1E+10	1	-1E+10	1	-1E+10	1
4902624	38	C	07/06/2025	19:36	-129.698	48.803	0	251.10	0	6.3940	0	33.9420	0	26.669	0	248.823	0	-1e10	1	-1e10	1	-1E+10	1	-1e10	1	-1e10	1	-1E+10	1	-1E+10	1	-1E+10	1
4902624	38	C	07/06/2025	19:36	-129.698	48.803	0	251.40	0	6.3934	0	33.9423	0	26.670	0	249.120	0	70.2	4	23.4	4	-1E+10	1	0.0511	4	0.000392	0	-1E+10	1	-1E+10	1	-1E+10	1
4902624	38	C	07/06/2025	19:36	-129.698	48.803	0	252.70	0	6.3908	0	33.9436	0	26.671	0	250.408	0	69.9	4	23.3	4	-1E+10	1	0.0525	4	0.000415	0	-1E+10	1	-1E+10	1	-1E+10	1
4902624	38	C	07/06/2025	19:36	-129.698	48.803	0	253.10	0	6.3900	0	33.9440	0	26.671	0	250.804	0	-1e10	1	-1e10	1	-1E+10	1	-1e10	1	-1e10	1	-1E+10	1	-1E+10	1	-1E+10	1
4902624	38	C	07/06/2025	19:36	-129.698	48.803	0	254.00	0	6.3895	0	33.9445	0	26.672	0	251.695	0	69.7	4	23.2	4	-1E+10	1	0.0584	4	0.000386	0	-1E+10	1	-1E+10	1	-1E+10	1
4902624	38	C	07/06/2025	19:36	-129.698	48.803	0	255.00	0	6.3890	0	33.9450	0	26.672	0	252.686	0	-1e10	1	-1e10	1	-1E+10	1	-1e10	1	-1e10	1	-1E+10	1	-1E+10	1	-1E+10	1
4902624	38	C	07/06/2025	19:36	-129.698	48.803	0	255.20	0	6.3889	0	33.9451	0	26.672	0	252.884	0	69.4	4	23.1	4	-1E+10	1	0.0467	4	0.000386	0	-1E+10	1	-1E+10	1	-1E+10	1
4902624	38	C	07/06/2025	19:36	-129.698	48.803	0	256.50	0	6.3882	0	33.9458	0	26.673	0	254.171	0	69.1	4	23.0	4	-1E+10	1	0.0382	4	0.000477	0	-1E+10	1	-1E+10	1	-1E+10	1
4902624	38	C	07/06/2025	19:36	-129.698	48.803	0	256.90	0	6.3880	0	33.9460	0	26.673	0	254.567	0	-1e10	1	-1e10	1	-1E+10	1	-1e10	1	-1e10	1	-1E+10	1	-1E+10	1	-1E+10	1
4902624	38	C	07/06/2025	19:36	-129.698	48.803	0	257.80	0	6.3846	0	33.9469	0	26.674	0	255.458	0	68.8	4	22.9	4	-1E+10	1	0.0511	4	0.000402	0	-1E+10	1	-1E+10	1	-1E+10	1
4902624	38	C	07/06/2025	19:36	-129.698	48.803	0	259.00	0	6.3800	0	33.9480	0	26.676	0	256.647	0	-1e10	1	-1e10	1	-1E+10	1	-1e10	1	-1e10	1	-1E+10	1	-1E+10	1	-1E+10	1
4902624	38	C	07/06/2025	19:36	-129.698	48.803	0	259.10	0	6.3797	0	33.9481	0	26.676	0	256.746	0	68.5	4	22.8	4	-1E+10	1	0.0511	4	0.000357	0	-1E+10	1	-1E+10	1	-1E+10	1
4902624	38	C	07/06/2025	19:36	-129.698	48.803	0	260.40	0	6.3751	0	33.9487	0	26.677	0	258.033	0	68.1	4	22.7	4	-1E+10	1	0.0522	4	0.000358	0	-1E+10	1	-1E+10	1	-1E+10	1
4902624	38	C	07/06/2025	19:36	-129.698	48.803	0	261.00	0	6.3730	0	33.9490	0	26.678	0	258.627	0	-1e10	1	-1e10	1	-1E+10	1	-1e10	1	-1e10	1	-1E+10	1	-1E+10	1	-1E+10	1
4902624	38	C	07/06/2025	19:36	-129.698	48.803	0	261.70	0	6.3627	0	33.9503	0	26.680	0	259.321	0	67.8	4	22.6	4	-1E+10	1	0.0633	4	0.000351	0	-1E+10	1	-1E+10	1	-1E+10	1
4902624	38	C	07/06/2025	19:36	-129.698	48.803	0	263.00	0	6.3435	0	33.9528	0	26.685	0	260.608	0	67.6	4	22.5	4	-1E+10	1	0.0543	4	0.000360	0	-1E+10	1	-1E+10	1	-1E+10	1
4902624	38	C	07/06/2025	19:36	-129.698	48.803	0	263.10	0	6.3420	0	33.9530	0	26.685	0	260.707	0	-1e10	1	-1e10	1	-1E+10	1	-1e10	1	-1e10	1	-1E+10	1	-1E+10	1	-1E+10	1
4902624	38	C	07/06/2025	19:36	-129.698	48.803	0	264.30	0	6.3357	0	33.9524	0	26.685	0	261.895	0	67.4	4	22.4	4	-1E+10	1	0.0365	4	0.000398	0	-1E+10	1	-1E+10	1	-1E+10	1
4902624	38	C	07/06/2025	19:36	-129.698	48.803	0	265.00	0	6.3320	0	33.9520	0	26.685	0	262.588	0	-1e10	1	-1e10	1	-1E+10	1	-1e10	1	-1e10	1	-1E+10	1	-1E+10	1	-1E+10	1
4902624	38	C	07/06/2025	19:36	-129.698	48.803	0	265.50	0	6.3233	0	33.9517	0	26.686	0	263.084	0	67.1	4	22.4	4	-1E+10	1	0.0584	4	0.000468	0	-1E+10	1	-1E+10	1	-1E+10	1
4902624	38	C	07/06/2025	19:36	-129.698	48.803	0	266.80	0	6.3007	0	33.9511	0	26.689	0	264.371	0	66.9	4	22.3	4	-1E+10	1	0.0584	4	0.000459	0	-1E+10	1	-1E+10	1	-1E+10	1
4902624	38	C	07/06/2025	19:36	-129.698	48.803	0	266.90	0	6.2990	0	33.9510	0	26.689	0	264.470	0	-1e10	1	-1e10	1	-1E+10	1	-1e10	1	-1e10	1	-1E+10	1	-1E+10	1	-1E+10	1
4902624	38	C	07/06/2025	19:36	-129.698	48.803	0	268.10	0	6.2853	0	33.9516	0	26.691	0	265.658	0	66.7	4	22.2	4	-1E+10	1	0.0535	4	0.000457	0	-1E+10	1	-1E+10	1	-1E+10	1
4902624	38	C	07/06/2025	19:36	-129.698	48.803	0	269.00	0	6.2750	0	33.9520	0	26.693	0	266.549	0	-1e10	1	-1e10	1	-1E+10	1	-1e10	1	-1e10	1	-1E+10	1	-1E+10	1	-1E+10	1
4902624	38	C	07/06/2025	19:36	-129.698	48.803	0	269.40	0	6.2734	0	33.9520	0	26.693	0	266.946	0	66.5	4	22.1	4	-1E+10	1	0.0511	4	0.000478	0	-1E+10	1	-1E+10	1	-1E+10	1
4902624	38	C	07/06/2025	19:36	-129.698	48.803	0	270.60	0	6.2686	0	33.9520	0	26.694	0	268.134	0	66.2	4	22.0	4	-1E+10	1	0.0613	4	0.000453	0	-1E+10	1	-1E+10	1	-1E+10	1
4902624	38	C	07/06/2025	19:36	-129.698	48.803	0	271.00	0	6.2670	0	33.9520	0	26.694	0	268.530	0	-1e10	1	-1e10	1	-1E+10	1	-1e10	1	-1e10	1	-1E+10	1	-1E+10	1	-1E+10	1
4902624	38	C	07/06/2025	19:36	-129.698	48.803	0	271.90	0	6.2648	0	33.9520	0	26.694	0	269.421	0	66.0	4	21.9	4	-1E+10	1	0.0704	4	0.000426	0	-1E+10	1	-1E+10	1	-1E+10	1
4902624	38	C	07/06/2025	19:36	-129.698	48.803	0	273.00	0	6.2620	0	33.9520	0	26.694	0	270.510	0	-1e10	1	-1e10	1	-1E+10	1	-1e10	1	-1e10	1	-1E+10	1	-1E+10	1	-1E+10	1
4902624	38	C	07/06/2025	19:36	-129.698	48.803	0	273.10	0	6.2614	0	33.9520	0	26.695	0	270.609	0	65.7	4	21.9	4	-1E+10	1	0.0620	4	0.000448	0	-1E+10	1	-1E+10	1	-1E+10	1
4902624	38	C	07/06/2025	19:36	-129.698	48.803	0	274.20	0	6.2544	0	33.9520	0	26.695	0	271.699	0	65.5	4	21.8	4	-1E+10	1	0.0511	4	0.000436	0	-1E+10	1	-1E+10	1	-1E+10	1
4902624	38	C	07/06/2025	19:36	-129.698	48.803	0	274.90	0	6.2500	0	33.9520	0	26.696	0	272.392	0	-1e10	1	-1e10	1	-1E+10	1	-1e10	1	-1e10	1	-1E+10	1	-1E+10	1	-1E+10	1
4902624	38	C	07/06/2025	19:36	-129.698	48.803	0	275.30	0	6.2466	0	33.9526	0	26.697	0	272.788	0	65.3	4	21.7	4	-1E+10	1	0.0511	4	0.000515	0	-1E+10	1	-1E+10	1	-1E+10	1
4902624	38	C	07/06/2025	19:36	-129.698	48.803	0	276.20	0	6.2389	0	33.9539	0	26.699	0	273.679	0	65.1	4	21.6	4	-1E+10	1	0.0630	4	0.000419	0	-1E+10	1	-1E+10	1	-1E+10	1
4902624	38	C	07/06/2025	19:36	-129.698	48.803	0	277.00	0	6.2320	0	33.9550	0	26.701	0	274.471	0	63.2	4	21.0	4	-1E+10	1	0.0493	4	0.000486	0	-1E+10	1	-1E+10	1	-1E+10	1
4902624	38	C	07/06/2025	19:36	-129.698	48.803	0	277.80	0	6.2307	0	33.9563	0	26.702	0	275.263	0	64.7	4	21.5	4	-1E+10	1	0.0438	4	0.000554	0	-1E+10	1	-1E+10	1	-1E+10	1
4902624	38	C	07/06/2025	19:36	-129.698	48.803	0	278.60	0	6.2295	0	33.9575	0	26.703	0	276.056	0	64.7	4	21.5	4	-1E+10	1	0.0548	4	0.000509	0	-1E+10	1	-1E+10	1	-1E+10	1
4902624	38	C	07/06/2025	19:36	-129.698	48.803	0	278.90	0	6.2290	0	33.9580	0	26.703	0	276.353	0	-1e10	1	-1e10	1	-1E+10	1	-1e10	1	-1e10	1	-1E+10	1	-1E+10	1	-1E+10	1
4902624	38	C	07/06/2025	19:36	-129.698	48.803	0	279.50	0	6.2251	0	33.9586	0	26.704	0	276.947	0	64.7	4	21.5	4	-1E+10	1	0.0620	4	0.000456	0	-1E+10	1	-1E+10	1	-1E+10	1
4902624	38	C	07/06/2025	19:36	-129.698	48.803	0	280.30	0	6.2199	0	33.9594	0	26.706	0	277.739	0	64.6	4	21.5	4	-1E+10	1	0.0526	4	0.000463	0	-1E+10	1	-1E+10	1	-1E+10	1
4902624	38	C	07/06/2025	19:36	-129.698	48.803	0	280.90	0	6.2160	0	33.9600	0	26.707	0	278.333	0	-1e10	1	-1e10	1	-1E+10	1	-1e10	1	-1e10	1	-1E+10	1	-1E+10	1	-1E+10	1
4902624	38	C	07/06/2025	19:36	-129.698	48.803	0	281.10	0	6.2154	0	33.9600	0	26.707	0	278.531	0	64.6	4	21.5	4	-1E+10	1	0.0467	4	0.000451	0	-1E+10	1	-1E+10	1	-1E+10	1
4902624	38	C	07/06/2025	19:36	-129.698	48.803	0	281.90	0	6.2131	0	33.9600	0	26.707	0	279.323	0	64.5	4	21.4	4	-1E+10	1	0.0584	4	0.000433	0	-1E+10	1	-1E+10	1	-1E+10	1
4902624	38	C	07/06/2025	19:36	-129.698	48.803	0	282.70	0	6.2109	0	33.9600	0	26.707	0	280.115	0	64.5	4	21.4	4	-1E+10	1	0.0438	4	0.000445	0	-1E+10	1	-1E+10	1	-1E+10	1
4902624	38	C	07/06/2025	19:36	-129.698	48.803	0	283.00	0	6.2100	0	33.9600	0	26.708	0	280.412	0	-1e10	1	-1e10	1	-1E+10	1	-1e10	1	-1e10	1	-1E+10	1	-1E+10	1	-1E+10	1
4902624	38	C	07/06/2025	19:36	-129.698	48.803	0	283.70	0	6.2086	0	33.9600	0	26.708	0	281.106	0	64.4	4	21.4	4	-1E+10	1	0.0657	4	0.000456	0	-1E+10	1	-1E+10	1	-1E+10	1
4902624	38	C	07/06/2025	19:36	-129.698	48.803	0	284.40	0	6.2072	0	33.9600	0	26.708	0	281.799	0	64.3	4	21.4	4	-1E+10	1	0.0708	4	0.000432	0	-1E+10	1	-1E+10	1	-1E+10	1
4902624	38	C	07/06/2025	19:36	-129.698	48.803	0	285.00	0	6.2060	0	33.9600	0	26.708	0	282.393	0	-1e10	1	-1e10	1	-1E+10	1	-1e10	1	-1e10	1	-1E+10	1	-1E+10	1	-1E+10	1
4902624	38	C	07/06/2025	19:36	-129.698	48.803	0	285.10	0	6.2055	0	33.9600	0	26.708	0	282.492	0	64.2	4	21.3	4	-1E+10	1	0.0620	4	0.000421	0	-1E+10	1	-1E+10	1	-1E+10	1
4902624	38	C	07/06/2025	19:36	-129.698	48.803	0	286.00	0	6.2005	0	33.9600	0	26.709	0	283.383	0	64.1	4	21.3	4	-1E+10	1	0.0474	4	0.000433	0	-1E+10	1	-1E+10	1	-1E+10	1
4902624	38	C	07/06/2025	19:36	-129.698	48.803	0	286.80	0	6.1961	0	33.9600	0	26.709	0	284.175	0	64.0	4	21.2	4	-1E+10	1	0.0438	4	0.000492	0	-1E+10	1	-1E+10	1	-1E+10	1
4902624	38	C	07/06/2025	19:36	-129.698	48.803	0	287.00	0	6.1950	0	33.9600	0	26.709	0	284.373	0	-1e10	1	-1e10	1	-1E+10	1	-1e10	1	-1e10	1	-1E+10	1	-1E+10	1	-1E+10	1
4902624	38	C	07/06/2025	19:36	-129.698	48.803	0	287.60	0	6.1893	0	33.9600	0	26.710	0	284.967	0	63.8	4	21.2	4	-1E+10	1	0.0456	4	0.000556	0	-1E+10	1	-1E+10	1	-1E+10	1
4902624	38	C	07/06/2025	19:36	-129.698	48.803	0	288.40	0	6.1817	0	33.9600	0	26.711	0	285.759	0	63.7	4	21.1	4	-1E+10	1	0.0467	4	0.000454	0	-1E+10	1	-1E+10	1	-1E+10	1
4902624	38	C	07/06/2025	19:36	-129.698	48.803	0	288.90	0	6.1770	0	33.9600	0	26.712	0	286.254	0	-1e10	1	-1e10	1	-1E+10	1	-1e10	1	-1e10	1	-1E+10	1	-1E+10	1	-1E+10	1
4902624	38	C	07/06/2025	19:36	-129.698	48.803	0	289.20	0	6.1743	0	33.9603	0	26.712	0	286.551	0	63.5	4	21.1	4	-1E+10	1	0.0292	4	0.000398	0	-1E+10	1	-1E+10	1	-1E+10	1
4902624	38	C	07/06/2025	19:36	-129.698	48.803	0	290.00	0	6.1670	0	33.9610	0	26.714	0	287.344	0	63.3	4	21.0	4	-1E+10	1	0.0467	4	0.000416	0	-1E+10	1	-1E+10	1	-1E+10	1
4902624	38	C	07/06/2025	19:36	-129.698	48.803	0	290.80	0	6.1598	0	33.9618	0	26.715	0	288.136	0	63.2	4	21.0	4	-1E+10	1	0.0511	4	0.000394	0	-1E+10	1	-1E+10	1	-1E+10	1
4902624	38	C	07/06/2025	19:36	-129.698	48.803	0	291.00	0	6.1580	0	33.9620	0	26.716	0	288.334	0	-1e10	1	-1e10	1	-1E+10	1	-1e10	1	-1e10	1	-1E+10	1	-1E+10	1	-1E+10	1
4902624	38	C	07/06/2025	19:36	-129.698	48.803	0	291.70	0	6.1530	0	33.9620	0	26.716	0	289.027	0	63.0	4	20.9	4	-1E+10	1	0.0511	4	0.000468	0	-1E+10	1	-1E+10	1	-1E+10	1
4902624	38	C	07/06/2025	19:36	-129.698	48.803	0	292.50	0	6.1473	0	33.9620	0	26.717	0	289.819	0	62.9	4	20.9	4	-1E+10	1	0.0511	4	0.000431	0	-1E+10	1	-1E+10	1	-1E+10	1
4902624	38	C	07/06/2025	19:36	-129.698	48.803	0	293.10	0	6.1430	0	33.9620	0	26.718	0	290.413	0	-1e10	1	-1e10	1	-1E+10	1	-1e10	1	-1e10	1	-1E+10	1	-1E+10	1	-1E+10	1
4902624	38	C	07/06/2025	19:36	-129.698	48.803	0	293.30	0	6.1435	0	33.9622	0	26.718	0	290.611	0	62.7	4	20.8	4	-1E+10	1	0.0602	4	0.000417	0	-1E+10	1	-1E+10	1	-1E+10	1
4902624	38	C	07/06/2025	19:36	-129.698	48.803	0	294.10	0	6.1455	0	33.9630	0	26.718	0	291.403	0	62.5	4	20.7	4	-1E+10	1	0.0584	4	0.000421	0	-1E+10	1	-1E+10	1	-1E+10	1
4902624	38	C	07/06/2025	19:36	-129.698	48.803	0	294.90	0	6.1475	0	33.9638	0	26.719	0	292.195	0	62.3	4	20.7	4	-1E+10	1	0.0555	4	0.000432	0	-1E+10	1	-1E+10	1	-1E+10	1
4902624	38	C	07/06/2025	19:36	-129.698	48.803	0	295.10	0	6.1480	0	33.9640	0	26.719	0	292.393	0	-1e10	1	-1e10	1	-1E+10	1	-1e10	1	-1e10	1	-1E+10	1	-1E+10	1	-1E+10	1
4902624	38	C	07/06/2025	19:36	-129.698	48.803	0	295.90	0	6.1436	0	33.9648	0	26.720	0	293.185	0	62.2	4	20.6	4	-1E+10	1	0.0654	4	0.000455	0	-1E+10	1	-1E+10	1	-1E+10	1
4902624	38	C	07/06/2025	19:36	-129.698	48.803	0	297.10	0	6.1370	0	33.9660	0	26.722	0	294.374	0	-1e10	1	-1e10	1	-1E+10	1	-1e10	1	-1e10	1	-1E+10	1	-1E+10	1	-1E+10	1
4902624	38	C	07/06/2025	19:36	-129.698	48.803	0	299.10	0	6.1110	0	33.9650	0	26.724	0	296.354	0	-1e10	1	-1e10	1	-1E+10	1	-1e10	1	-1e10	1	-1E+10	1	-1E+10	1	-1E+10	1
4902624	38	C	07/06/2025	19:36	-129.698	48.803	0	304.40	0	6.0748	0	33.9712	0	26.734	0	301.601	0	60.2	4	19.9	4	-1E+10	1	0.0587	4	0.000419	0	-1E+10	1	-1E+10	1	-1E+10	1
4902624	38	C	07/06/2025	19:36	-129.698	48.803	0	305.10	0	6.0700	0	33.9720	0	26.735	0	302.294	0	-1e10	1	-1e10	1	-1E+10	1	-1e10	1	-1e10	1	-1E+10	1	-1E+10	1	-1E+10	1
4902624	38	C	07/06/2025	19:36	-129.698	48.803	0	313.10	0	6.0175	0	33.9760	0	26.745	0	310.215	0	58.7	4	19.4	4	-1E+10	1	0.0644	4	0.000373	0	-1E+10	1	-1E+10	1	-1E+10	1
4902624	38	C	07/06/2025	19:36	-129.698	48.803	0	315.00	0	6.0050	0	33.9770	0	26.747	0	312.096	0	-1e10	1	-1e10	1	-1E+10	1	-1e10	1	-1e10	1	-1E+10	1	-1E+10	1	-1E+10	1
4902624	38	C	07/06/2025	19:36	-129.698	48.803	0	322.00	0	5.9644	0	33.9798	0	26.755	0	319.026	0	57.5	4	19.0	4	-1E+10	1	0.0371	4	0.000350	0	-1E+10	1	-1E+10	1	-1E+10	1
4902624	38	C	07/06/2025	19:36	-129.698	48.803	0	325.00	0	5.9470	0	33.9810	0	26.758	0	321.996	0	-1e10	1	-1e10	1	-1E+10	1	-1e10	1	-1e10	1	-1E+10	1	-1E+10	1	-1E+10	1
4902624	38	C	07/06/2025	19:36	-129.698	48.803	0	331.10	0	5.8946	0	33.9828	0	26.766	0	328.035	0	55.7	4	18.4	4	-1E+10	1	0.0517	4	0.000348	0	-1E+10	1	-1E+10	1	-1E+10	1
4902624	38	C	07/06/2025	19:36	-129.698	48.803	0	334.90	0	5.8620	0	33.9840	0	26.771	0	331.796	0	-1e10	1	-1e10	1	-1E+10	1	-1e10	1	-1e10	1	-1E+10	1	-1E+10	1	-1E+10	1
4902624	38	C	07/06/2025	19:36	-129.698	48.803	0	340.40	0	5.8232	0	33.9889	0	26.779	0	337.241	0	53.3	4	17.6	4	-1E+10	1	0.0654	4	0.000303	0	-1E+10	1	-1E+10	1	-1E+10	1
4902624	38	C	07/06/2025	19:36	-129.698	48.803	0	345.10	0	5.7900	0	33.9930	0	26.787	0	341.893	0	-1e10	1	-1e10	1	-1E+10	1	-1e10	1	-1e10	1	-1E+10	1	-1E+10	1	-1E+10	1
4902624	38	C	07/06/2025	19:36	-129.698	48.803	0	350.00	0	5.7547	0	33.9950	0	26.793	0	346.744	0	51.5	4	16.9	4	-1E+10	1	0.0581	4	0.000292	0	-1E+10	1	-1E+10	1	-1E+10	1
4902624	38	C	07/06/2025	19:36	-129.698	48.803	0	355.10	0	5.7180	0	33.9970	0	26.799	0	351.792	0	-1e10	1	-1e10	1	-1E+10	1	-1e10	1	-1e10	1	-1E+10	1	-1E+10	1	-1E+10	1
4902624	38	C	07/06/2025	19:36	-129.698	48.803	0	359.80	0	5.6701	0	33.9998	0	26.807	0	356.444	0	49.2	4	16.1	4	-1E+10	1	0.0513	4	0.000291	0	-1E+10	1	-1E+10	1	-1E+10	1
4902624	38	C	07/06/2025	19:36	-129.698	48.803	0	365.00	0	5.6170	0	34.0030	0	26.816	0	361.591	0	-1e10	1	-1e10	1	-1E+10	1	-1e10	1	-1e10	1	-1E+10	1	-1E+10	1	-1E+10	1
4902624	38	C	07/06/2025	19:36	-129.698	48.803	0	369.90	0	5.5762	0	34.0074	0	26.824	0	366.441	0	46.6	4	15.3	4	-1E+10	1	0.0578	4	0.000279	0	-1E+10	1	-1E+10	1	-1E+10	1
4902624	38	C	07/06/2025	19:36	-129.698	48.803	0	375.10	0	5.5330	0	34.0120	0	26.833	0	371.588	0	-1e10	1	-1e10	1	-1E+10	1	-1e10	1	-1e10	1	-1E+10	1	-1E+10	1	-1E+10	1
4902624	38	C	07/06/2025	19:36	-129.698	48.803	0	380.30	0	5.5044	0	34.0162	0	26.840	0	376.734	0	44.4	4	14.5	4	-1E+10	1	0.0452	4	0.000256	0	-1E+10	1	-1E+10	1	-1E+10	1
4902624	38	C	07/06/2025	19:36	-129.698	48.803	0	385.10	0	5.4780	0	34.0200	0	26.846	0	381.485	0	-1e10	1	-1e10	1	-1E+10	1	-1e10	1	-1e10	1	-1E+10	1	-1E+10	1	-1E+10	1
4902624	38	C	07/06/2025	19:36	-129.698	48.803	0	390.80	0	5.4381	0	34.0246	0	26.855	0	387.126	0	42.2	4	13.8	4	-1E+10	1	0.0792	4	0.000268	0	-1E+10	1	-1E+10	1	-1E+10	1
4902624	38	C	07/06/2025	19:36	-129.698	48.803	0	395.10	0	5.4080	0	34.0280	0	26.861	0	391.382	0	-1e10	1	-1e10	1	-1E+10	1	-1e10	1	-1e10	1	-1E+10	1	-1E+10	1	-1E+10	1
4902624	38	C	07/06/2025	19:36	-129.698	48.803	0	401.50	0	5.3673	0	34.0306	0	26.868	0	397.715	0	41.0	4	13.3	4	-1E+10	1	0.0511	4	0.000268	0	-1E+10	1	-1E+10	1	-1E+10	1
4902624	38	C	07/06/2025	19:36	-129.698	48.803	0	405.00	0	5.3450	0	34.0320	0	26.872	0	401.179	0	-1e10	1	-1e10	1	-1E+10	1	-1e10	1	-1e10	1	-1E+10	1	-1E+10	1	-1E+10	1
4902624	38	C	07/06/2025	19:36	-129.698	48.803	0	412.30	0	5.3165	0	34.0335	0	26.876	0	408.403	0	39.6	4	12.9	4	-1E+10	1	0.0511	4	0.000290	0	-1E+10	1	-1E+10	1	-1E+10	1
4902624	38	C	07/06/2025	19:36	-129.698	48.803	0	415.00	0	5.3060	0	34.0340	0	26.878	0	411.075	0	-1e10	1	-1e10	1	-1E+10	1	-1e10	1	-1e10	1	-1E+10	1	-1E+10	1	-1E+10	1
4902624	38	C	07/06/2025	19:36	-129.698	48.803	0	423.50	0	5.2917	0	34.0424	0	26.886	0	419.486	0	37.4	4	12.2	4	-1E+10	1	0.0508	4	0.000282	0	-1E+10	1	-1E+10	1	-1E+10	1
4902624	38	C	07/06/2025	19:36	-129.698	48.803	0	425.10	0	5.2890	0	34.0440	0	26.888	0	421.069	0	-1e10	1	-1e10	1	-1E+10	1	-1e10	1	-1e10	1	-1E+10	1	-1E+10	1	-1E+10	1
4902624	38	C	07/06/2025	19:36	-129.698	48.803	0	434.90	0	5.2450	0	34.0510	0	26.899	0	430.766	0	-1e10	1	-1e10	1	-1E+10	1	-1e10	1	-1e10	1	-1E+10	1	-1E+10	1	-1E+10	1
4902624	38	C	07/06/2025	19:36	-129.698	48.803	0	435.00	0	5.2442	0	34.0511	0	26.899	0	430.865	0	35.5	4	11.5	4	-1E+10	1	0.0440	4	0.000337	0	-1E+10	1	-1E+10	1	-1E+10	1
4902624	38	C	07/06/2025	19:36	-129.698	48.803	0	445.10	0	5.1600	0	34.0570	0	26.913	0	440.858	0	-1e10	1	-1e10	1	-1E+10	1	-1e10	1	-1e10	1	-1E+10	1	-1E+10	1	-1E+10	1
4902624	38	C	07/06/2025	19:36	-129.698	48.803	0	446.90	0	5.1572	0	34.0595	0	26.916	0	442.639	0	33.2	4	10.8	4	-1E+10	1	0.0511	4	0.000312	0	-1E+10	1	-1E+10	1	-1E+10	1
4902624	38	C	07/06/2025	19:36	-129.698	48.803	0	455.30	0	5.1440	0	34.0710	0	26.926	0	450.950	0	-1e10	1	-1e10	1	-1E+10	1	-1e10	1	-1e10	1	-1E+10	1	-1E+10	1	-1E+10	1
4902624	38	C	07/06/2025	19:36	-129.698	48.803	0	459.00	0	5.1410	0	34.0729	0	26.928	0	454.610	0	31.8	4	10.3	4	-1E+10	1	0.0517	4	0.000257	0	-1E+10	1	-1E+10	1	-1E+10	1
4902624	38	C	07/06/2025	19:36	-129.698	48.803	0	465.10	0	5.1360	0	34.0760	0	26.931	0	460.645	0	-1e10	1	-1e10	1	-1E+10	1	-1e10	1	-1e10	1	-1E+10	1	-1E+10	1	-1E+10	1
4902624	38	C	07/06/2025	19:36	-129.698	48.803	0	471.40	0	5.1095	0	34.0792	0	26.937	0	466.878	0	30.4	4	9.8	4	-1E+10	1	0.0651	4	0.000291	0	-1E+10	1	-1E+10	1	-1E+10	1
4902624	38	C	07/06/2025	19:36	-129.698	48.803	0	475.10	0	5.0940	0	34.0810	0	26.940	0	470.538	0	-1e10	1	-1e10	1	-1E+10	1	-1e10	1	-1e10	1	-1E+10	1	-1E+10	1	-1E+10	1
4902624	38	C	07/06/2025	19:36	-129.698	48.803	0	483.20	0	5.0363	0	34.0850	0	26.950	0	478.551	0	28.8	4	9.3	4	-1E+10	1	0.0514	4	0.000335	0	-1E+10	1	-1E+10	1	-1E+10	1
4902624	38	C	07/06/2025	19:36	-129.698	48.803	0	485.20	0	5.0220	0	34.0860	0	26.953	0	480.529	0	-1e10	1	-1e10	1	-1E+10	1	-1e10	1	-1e10	1	-1E+10	1	-1E+10	1	-1E+10	1
4902624	38	C	07/06/2025	19:36	-129.698	48.803	0	491.40	0	5.0043	0	34.0930	0	26.960	0	486.663	0	27.3	4	8.8	4	-1E+10	1	0.0592	4	0.001172	0	-1E+10	1	-1E+10	1	-1E+10	1
4902624	38	C	07/06/2025	19:36	-129.698	48.803	0	495.00	0	4.9940	0	34.0970	0	26.965	0	490.224	0	-1e10	1	-1e10	1	-1E+10	1	-1e10	1	-1e10	1	-1E+10	1	-1E+10	1	-1E+10	1
4902624	38	C	07/06/2025	19:36	-129.698	48.803	0	499.90	0	4.9850	0	34.1010	0	26.969	0	495.070	0	26.0	4	8.4	4	-1E+10	1	0.0798	4	0.000276	0	-1E+10	1	-1E+10	1	-1E+10	1
4902624	38	C	07/06/2025	19:36	-129.698	48.803	0	504.80	0	4.9760	0	34.1050	0	26.973	0	499.917	0	-1e10	1	-1e10	1	-1E+10	1	-1e10	1	-1e10	1	-1E+10	1	-1E+10	1	-1E+10	1
4902624	38	C	07/06/2025	19:36	-129.698	48.803	0	508.70	0	4.9486	0	34.1050	0	26.976	0	503.775	0	25.3	4	8.2	4	-1E+10	1	0.0650	4	0.000221	0	-1E+10	1	-1E+10	1	-1E+10	1
4902624	38	C	07/06/2025	19:36	-129.698	48.803	0	514.90	0	4.9050	0	34.1050	0	26.981	0	509.907	0	-1e10	1	-1e10	1	-1E+10	1	-1e10	1	-1e10	1	-1E+10	1	-1E+10	1	-1E+10	1
4902624	38	C	07/06/2025	19:36	-129.698	48.803	0	517.60	0	4.8914	0	34.1061	0	26.984	0	512.578	0	24.6	4	7.9	4	-1E+10	1	0.0514	4	0.000257	0	-1E+10	1	-1E+10	1	-1E+10	1
4902624	38	C	07/06/2025	19:36	-129.698	48.803	0	525.00	0	4.8540	0	34.1090	0	26.990	0	519.897	0	-1e10	1	-1e10	1	-1E+10	1	-1e10	1	-1e10	1	-1E+10	1	-1E+10	1	-1E+10	1
4902624	38	C	07/06/2025	19:36	-129.698	48.803	0	526.80	0	4.8460	0	34.1103	0	26.992	0	521.677	0	23.5	4	7.6	4	-1E+10	1	0.0584	4	0.000310	0	-1E+10	1	-1E+10	1	-1E+10	1
4902624	38	C	07/06/2025	19:36	-129.698	48.803	0	534.90	0	4.8100	0	34.1160	0	27.001	0	529.688	0	-1e10	1	-1e10	1	-1E+10	1	-1e10	1	-1e10	1	-1E+10	1	-1E+10	1	-1E+10	1
4902624	38	C	07/06/2025	19:36	-129.698	48.803	0	536.30	0	4.8101	0	34.1173	0	27.002	0	531.072	0	22.1	4	7.1	4	-1E+10	1	0.0584	4	0.000230	0	-1E+10	1	-1E+10	1	-1E+10	1
4902624	38	C	07/06/2025	19:36	-129.698	48.803	0	544.90	0	4.8110	0	34.1250	0	27.008	0	539.577	0	-1e10	1	-1e10	1	-1E+10	1	-1e10	1	-1e10	1	-1E+10	1	-1E+10	1	-1E+10	1
4902624	38	C	07/06/2025	19:36	-129.698	48.803	0	546.10	0	4.8134	0	34.1266	0	27.009	0	540.764	0	20.6	4	6.6	4	-1E+10	1	0.0582	4	0.000218	0	-1E+10	1	-1E+10	1	-1E+10	1
4902624	38	C	07/06/2025	19:36	-129.698	48.803	0	555.10	0	4.8310	0	34.1390	0	27.017	0	549.664	0	-1e10	1	-1e10	1	-1E+10	1	-1e10	1	-1e10	1	-1E+10	1	-1E+10	1	-1E+10	1
4902624	38	C	07/06/2025	19:36	-129.698	48.803	0	556.30	0	4.8279	0	34.1395	0	27.018	0	550.851	0	19.7	4	6.4	4	-1E+10	1	0.0511	4	0.000198	0	-1E+10	1	-1E+10	1	-1E+10	1
4902624	38	C	07/06/2025	19:36	-129.698	48.803	0	565.30	0	4.8050	0	34.1430	0	27.023	0	559.751	0	-1e10	1	-1e10	1	-1E+10	1	-1e10	1	-1e10	1	-1E+10	1	-1E+10	1	-1E+10	1
4902624	38	C	07/06/2025	19:36	-129.698	48.803	0	566.60	0	4.7992	0	34.1438	0	27.024	0	561.036	0	18.9	4	6.1	4	-1E+10	1	0.0508	4	0.000253	0	-1E+10	1	-1E+10	1	-1E+10	1
4902624	38	C	07/06/2025	19:36	-129.698	48.803	0	575.20	0	4.7610	0	34.1490	0	27.033	0	569.540	0	-1e10	1	-1e10	1	-1E+10	1	-1e10	1	-1e10	1	-1E+10	1	-1E+10	1	-1E+10	1
4902624	38	C	07/06/2025	19:36	-129.698	48.803	0	577.10	0	4.7565	0	34.1504	0	27.034	0	571.419	0	17.9	4	5.8	4	-1E+10	1	0.0446	4	0.000218	0	-1E+10	1	-1E+10	1	-1E+10	1
4902624	38	C	07/06/2025	19:36	-129.698	48.803	0	584.90	0	4.7380	0	34.1560	0	27.041	0	579.131	0	-1e10	1	-1e10	1	-1E+10	1	-1e10	1	-1e10	1	-1E+10	1	-1E+10	1	-1E+10	1
4902624	38	C	07/06/2025	19:36	-129.698	48.803	0	587.70	0	4.7332	0	34.1588	0	27.044	0	581.899	0	16.9	4	5.4	4	-1E+10	1	0.0654	4	0.000206	0	-1E+10	1	-1E+10	1	-1E+10	1
4902624	38	C	07/06/2025	19:36	-129.698	48.803	0	594.90	0	4.7210	0	34.1660	0	27.051	0	589.018	0	-1e10	1	-1e10	1	-1E+10	1	-1e10	1	-1e10	1	-1E+10	1	-1E+10	1	-1E+10	1
4902624	38	C	07/06/2025	19:36	-129.698	48.803	0	598.40	0	4.7042	0	34.1678	0	27.054	0	592.479	0	15.9	4	5.1	4	-1E+10	1	0.0587	4	0.000186	0	-1E+10	1	-1E+10	1	-1E+10	1
4902624	38	C	07/06/2025	19:36	-129.698	48.803	0	604.90	0	4.6730	0	34.1710	0	27.060	0	598.905	0	-1e10	1	-1e10	1	-1E+10	1	-1e10	1	-1e10	1	-1E+10	1	-1E+10	1	-1E+10	1
4902624	38	C	07/06/2025	19:36	-129.698	48.803	0	609.20	0	4.6559	0	34.1731	0	27.064	0	603.156	0	15.4	4	4.9	4	-1E+10	1	0.0657	4	0.000349	0	-1E+10	1	-1E+10	1	-1E+10	1
4902624	38	C	07/06/2025	19:36	-129.698	48.803	0	615.20	0	4.6320	0	34.1760	0	27.069	0	609.088	0	-1e10	1	-1e10	1	-1E+10	1	-1e10	1	-1e10	1	-1E+10	1	-1E+10	1	-1E+10	1
4902624	38	C	07/06/2025	19:36	-129.698	48.803	0	619.90	0	4.6258	0	34.1818	0	27.074	0	613.734	0	14.1	4	4.5	4	-1E+10	1	0.0660	4	0.002239	0	-1E+10	1	-1E+10	1	-1E+10	1
4902624	38	C	07/06/2025	19:36	-129.698	48.803	0	625.00	0	4.6190	0	34.1880	0	27.080	0	618.776	0	-1e10	1	-1e10	1	-1E+10	1	-1e10	1	-1e10	1	-1E+10	1	-1E+10	1	-1E+10	1
4902624	38	C	07/06/2025	19:36	-129.698	48.803	0	630.60	0	4.5998	0	34.1931	0	27.086	0	624.312	0	13.3	4	4.3	4	-1E+10	1	0.0725	4	0.000207	0	-1E+10	1	-1E+10	1	-1E+10	1
4902624	38	C	07/06/2025	19:36	-129.698	48.803	0	634.90	0	4.5850	0	34.1970	0	27.091	0	628.562	0	-1e10	1	-1e10	1	-1E+10	1	-1e10	1	-1e10	1	-1E+10	1	-1E+10	1	-1E+10	1
4902624	38	C	07/06/2025	19:36	-129.698	48.803	0	641.50	0	4.5628	0	34.2003	0	27.096	0	635.086	0	12.8	4	4.1	4	-1E+10	1	0.0584	4	0.000230	0	-1E+10	1	-1E+10	1	-1E+10	1
4902624	38	C	07/06/2025	19:36	-129.698	48.803	0	645.00	0	4.5510	0	34.2020	0	27.098	0	638.546	0	-1e10	1	-1e10	1	-1E+10	1	-1e10	1	-1e10	1	-1E+10	1	-1E+10	1	-1E+10	1
4902624	38	C	07/06/2025	19:36	-129.698	48.803	0	652.00	0	4.5360	0	34.2056	0	27.103	0	645.465	0	12.4	4	4.0	4	-1E+10	1	0.0587	4	0.000241	0	-1E+10	1	-1E+10	1	-1E+10	1
4902624	38	C	07/06/2025	19:36	-129.698	48.803	0	654.80	0	4.5300	0	34.2070	0	27.105	0	648.233	0	-1e10	1	-1e10	1	-1E+10	1	-1e10	1	-1e10	1	-1E+10	1	-1E+10	1	-1E+10	1
4902624	38	C	07/06/2025	19:36	-129.698	48.803	0	662.50	0	4.5046	0	34.2145	0	27.113	0	655.843	0	11.6	4	3.7	4	-1E+10	1	0.0654	4	0.000241	0	-1E+10	1	-1E+10	1	-1E+10	1
4902624	38	C	07/06/2025	19:36	-129.698	48.803	0	665.10	0	4.4960	0	34.2170	0	27.116	0	658.413	0	-1e10	1	-1e10	1	-1E+10	1	-1e10	1	-1e10	1	-1E+10	1	-1E+10	1	-1E+10	1
4902624	38	C	07/06/2025	19:36	-129.698	48.803	0	673.10	0	4.4453	0	34.2218	0	27.126	0	666.320	0	11.0	4	3.5	4	-1E+10	1	0.0576	4	0.000228	0	-1E+10	1	-1E+10	1	-1E+10	1
4902624	38	C	07/06/2025	19:36	-129.698	48.803	0	675.20	0	4.4320	0	34.2230	0	27.128	0	668.395	0	-1e10	1	-1e10	1	-1E+10	1	-1e10	1	-1e10	1	-1E+10	1	-1E+10	1	-1E+10	1
4902624	38	C	07/06/2025	19:36	-129.698	48.803	0	683.90	0	4.4045	0	34.2274	0	27.135	0	676.994	0	10.7	4	3.4	4	-1E+10	1	0.0378	4	0.000196	0	-1E+10	1	-1E+10	1	-1E+10	1
4902624	38	C	07/06/2025	19:36	-129.698	48.803	0	685.00	0	4.4010	0	34.2280	0	27.136	0	678.081	0	-1e10	1	-1e10	1	-1E+10	1	-1e10	1	-1e10	1	-1E+10	1	-1E+10	1	-1E+10	1
4902624	38	C	07/06/2025	19:36	-129.698	48.803	0	694.90	0	4.3690	0	34.2350	0	27.145	0	687.864	0	10.0	4	3.2	4	-1E+10	1	0.0654	4	0.000229	0	-1E+10	1	-1E+10	1	-1E+10	1
4902624	38	C	07/06/2025	19:36	-129.698	48.803	0	705.00	0	4.3300	0	34.2410	0	27.154	0	697.845	0	-1e10	1	-1e10	1	-1E+10	1	-1e10	1	-1e10	1	-1E+10	1	-1E+10	1	-1E+10	1
4902624	38	C	07/06/2025	19:36	-129.698	48.803	0	705.90	0	4.3277	0	34.2415	0	27.154	0	698.735	0	10.1	4	3.2	4	-1E+10	1	0.0584	4	0.000226	0	-1E+10	1	-1E+10	1	-1E+10	1
4902624	38	C	07/06/2025	19:36	-129.698	48.803	0	715.00	0	4.3050	0	34.2460	0	27.160	0	707.727	0	-1e10	1	-1e10	1	-1E+10	1	-1e10	1	-1e10	1	-1E+10	1	-1E+10	1	-1E+10	1
4902624	38	C	07/06/2025	19:36	-129.698	48.803	0	715.70	0	4.3035	0	34.2464	0	27.161	0	708.419	0	9.8	4	3.1	4	-1E+10	1	0.0586	4	0.000422	0	-1E+10	1	-1E+10	1	-1E+10	1
4902624	38	C	07/06/2025	19:36	-129.698	48.803	0	723.00	0	4.2879	0	34.2509	0	27.166	0	715.632	0	9.6	4	3.1	4	-1E+10	1	0.0654	4	0.000207	0	-1E+10	1	-1E+10	1	-1E+10	1
4902624	38	C	07/06/2025	19:36	-129.698	48.803	0	724.80	0	4.2840	0	34.2520	0	27.167	0	717.410	0	-1e10	1	-1e10	1	-1E+10	1	-1e10	1	-1e10	1	-1E+10	1	-1E+10	1	-1E+10	1
4902624	38	C	07/06/2025	19:36	-129.698	48.803	0	730.70	0	4.2609	0	34.2555	0	27.173	0	723.240	0	9.5	4	3.0	4	-1E+10	1	0.0579	4	0.000251	0	-1E+10	1	-1E+10	1	-1E+10	1
4902624	38	C	07/06/2025	19:36	-129.698	48.803	0	735.00	0	4.2440	0	34.2580	0	27.176	0	727.489	0	-1e10	1	-1e10	1	-1E+10	1	-1e10	1	-1e10	1	-1E+10	1	-1E+10	1	-1E+10	1
4902624	38	C	07/06/2025	19:36	-129.698	48.803	0	738.90	0	4.2360	0	34.2588	0	27.178	0	731.342	0	9.4	4	3.0	4	-1E+10	1	0.0443	4	0.000217	0	-1E+10	1	-1E+10	1	-1E+10	1
4902624	38	C	07/06/2025	19:36	-129.698	48.803	0	745.20	0	4.2230	0	34.2600	0	27.180	0	737.566	0	-1e10	1	-1e10	1	-1E+10	1	-1e10	1	-1e10	1	-1E+10	1	-1E+10	1	-1E+10	1
4902624	38	C	07/06/2025	19:36	-129.698	48.803	0	747.60	0	4.2232	0	34.2617	0	27.182	0	739.937	0	9.2	4	2.9	4	-1E+10	1	0.0584	4	0.000229	0	-1E+10	1	-1E+10	1	-1E+10	1
4902624	38	C	07/06/2025	19:36	-129.698	48.803	0	755.10	0	4.2240	0	34.2670	0	27.186	0	747.347	0	-1e10	1	-1e10	1	-1E+10	1	-1e10	1	-1e10	1	-1E+10	1	-1E+10	1	-1E+10	1
4902624	38	C	07/06/2025	19:36	-129.698	48.803	0	756.60	0	4.2207	0	34.2682	0	27.187	0	748.829	0	8.8	4	2.8	4	-1E+10	1	0.0579	4	0.000227	0	-1E+10	1	-1E+10	1	-1E+10	1
4902624	38	C	07/06/2025	19:36	-129.698	48.803	0	765.10	0	4.2020	0	34.2750	0	27.195	0	757.226	0	-1e10	1	-1e10	1	-1E+10	1	-1e10	1	-1e10	1	-1E+10	1	-1E+10	1	-1E+10	1
4902624	38	C	07/06/2025	19:36	-129.698	48.803	0	766.00	0	4.1995	0	34.2754	0	27.195	0	758.115	0	8.7	4	2.8	4	-1E+10	1	0.0444	4	0.000183	0	-1E+10	1	-1E+10	1	-1E+10	1
4902624	38	C	07/06/2025	19:36	-129.698	48.803	0	775.00	0	4.1740	0	34.2790	0	27.201	0	767.006	0	-1e10	1	-1e10	1	-1E+10	1	-1e10	1	-1e10	1	-1E+10	1	-1E+10	1	-1E+10	1
4902624	38	C	07/06/2025	19:36	-129.698	48.803	0	775.60	0	4.1729	0	34.2793	0	27.201	0	767.599	0	8.6	4	2.7	4	-1E+10	1	0.0581	4	0.000228	0	-1E+10	1	-1E+10	1	-1E+10	1
4902624	38	C	07/06/2025	19:36	-129.698	48.803	0	784.80	0	4.1560	0	34.2840	0	27.207	0	776.687	0	-1e10	1	-1e10	1	-1E+10	1	-1e10	1	-1e10	1	-1E+10	1	-1E+10	1	-1E+10	1
4902624	38	C	07/06/2025	19:36	-129.698	48.803	0	785.40	0	4.1538	0	34.2844	0	27.207	0	777.280	0	8.4	4	2.7	4	-1E+10	1	0.0511	4	0.000217	0	-1E+10	1	-1E+10	1	-1E+10	1
4902624	38	C	07/06/2025	19:36	-129.698	48.803	0	795.10	0	4.1190	0	34.2900	0	27.215	0	786.861	0	8.3	4	2.6	4	-1E+10	1	0.0511	4	0.000229	0	-1E+10	1	-1E+10	1	-1E+10	1
4902624	38	C	07/06/2025	19:36	-129.698	48.803	0	804.80	0	4.0892	0	34.2919	0	27.220	0	796.442	0	8.4	4	2.7	4	-1E+10	1	0.0517	4	0.000262	0	-1E+10	1	-1E+10	1	-1E+10	1
4902624	38	C	07/06/2025	19:36	-129.698	48.803	0	805.20	0	4.0880	0	34.2920	0	27.220	0	796.837	0	-1e10	1	-1e10	1	-1E+10	1	-1e10	1	-1e10	1	-1E+10	1	-1E+10	1	-1E+10	1
4902624	38	C	07/06/2025	19:36	-129.698	48.803	0	814.60	0	4.0711	0	34.2967	0	27.226	0	806.121	0	8.2	4	2.6	4	-1E+10	1	0.0657	4	0.000227	0	-1E+10	1	-1E+10	1	-1E+10	1
4902624	38	C	07/06/2025	19:36	-129.698	48.803	0	815.20	0	4.0700	0	34.2970	0	27.226	0	806.714	0	-1e10	1	-1e10	1	-1E+10	1	-1e10	1	-1e10	1	-1E+10	1	-1E+10	1	-1E+10	1
4902624	38	C	07/06/2025	19:36	-129.698	48.803	0	824.60	0	4.0425	0	34.3036	0	27.234	0	815.998	0	8.0	4	2.5	4	-1E+10	1	0.0648	4	0.000205	0	-1E+10	1	-1E+10	1	-1E+10	1
4902624	38	C	07/06/2025	19:36	-129.698	48.803	0	825.10	0	4.0410	0	34.3040	0	27.235	0	816.492	0	-1e10	1	-1e10	1	-1E+10	1	-1e10	1	-1e10	1	-1E+10	1	-1E+10	1	-1E+10	1
4902624	38	C	07/06/2025	19:36	-129.698	48.803	0	834.80	0	4.0057	0	34.3128	0	27.245	0	826.071	0	8.0	4	2.5	4	-1E+10	1	0.0444	4	0.000215	0	-1E+10	1	-1E+10	1	-1E+10	1
4902624	38	C	07/06/2025	19:36	-129.698	48.803	0	835.00	0	4.0050	0	34.3130	0	27.246	0	826.269	0	-1e10	1	-1e10	1	-1E+10	1	-1e10	1	-1e10	1	-1E+10	1	-1E+10	1	-1E+10	1
4902624	38	C	07/06/2025	19:36	-129.698	48.803	0	844.90	0	3.9710	0	34.3160	0	27.252	0	836.045	0	-1e10	1	-1e10	1	-1E+10	1	-1e10	1	-1e10	1	-1E+10	1	-1E+10	1	-1E+10	1
4902624	38	C	07/06/2025	19:36	-129.698	48.803	0	845.20	0	3.9708	0	34.3163	0	27.252	0	836.342	0	7.8	4	2.5	4	-1E+10	1	0.0584	4	0.000204	0	-1E+10	1	-1E+10	1	-1E+10	1
4902624	38	C	07/06/2025	19:36	-129.698	48.803	0	855.10	0	3.9650	0	34.3250	0	27.259	0	846.118	0	-1e10	1	-1e10	1	-1E+10	1	-1e10	1	-1e10	1	-1E+10	1	-1E+10	1	-1E+10	1
4902624	38	C	07/06/2025	19:36	-129.698	48.803	0	855.70	0	3.9648	0	34.3254	0	27.260	0	846.710	0	7.6	4	2.4	4	-1E+10	1	0.0581	4	0.000215	0	-1E+10	1	-1E+10	1	-1E+10	1
4902624	38	C	07/06/2025	19:36	-129.698	48.803	0	865.30	0	3.9610	0	34.3310	0	27.265	0	856.190	0	-1e10	1	-1e10	1	-1E+10	1	-1e10	1	-1e10	1	-1E+10	1	-1E+10	1	-1E+10	1
4902624	38	C	07/06/2025	19:36	-129.698	48.803	0	866.10	0	3.9596	0	34.3316	0	27.265	0	856.980	0	7.5	4	2.4	4	-1E+10	1	0.0514	4	0.000207	0	-1E+10	1	-1E+10	1	-1E+10	1
4902624	38	C	07/06/2025	19:36	-129.698	48.803	0	875.00	0	3.9440	0	34.3380	0	27.272	0	865.768	0	-1e10	1	-1e10	1	-1E+10	1	-1e10	1	-1e10	1	-1E+10	1	-1E+10	1	-1E+10	1
4902624	38	C	07/06/2025	19:36	-129.698	48.803	0	876.40	0	3.9393	0	34.3390	0	27.273	0	867.150	0	7.6	4	2.4	4	-1E+10	1	0.0581	4	0.000271	0	-1E+10	1	-1E+10	1	-1E+10	1
4902624	38	C	07/06/2025	19:36	-129.698	48.803	0	884.90	0	3.9110	0	34.3450	0	27.281	0	875.543	0	-1e10	1	-1e10	1	-1E+10	1	-1e10	1	-1e10	1	-1E+10	1	-1E+10	1	-1E+10	1
4902624	38	C	07/06/2025	19:36	-129.698	48.803	0	886.80	0	3.9060	0	34.3459	0	27.282	0	877.418	0	7.5	4	2.4	4	-1E+10	1	0.0517	4	0.000191	0	-1E+10	1	-1E+10	1	-1E+10	1
4902624	38	C	07/06/2025	19:36	-129.698	48.803	0	895.10	0	3.8840	0	34.3500	0	27.288	0	885.613	0	-1e10	1	-1e10	1	-1E+10	1	-1e10	1	-1e10	1	-1E+10	1	-1E+10	1	-1E+10	1
4902624	38	C	07/06/2025	19:36	-129.698	48.803	0	897.50	0	3.8759	0	34.3509	0	27.289	0	887.983	0	7.6	4	2.4	4	-1E+10	1	0.0657	4	0.000169	0	-1E+10	1	-1E+10	1	-1E+10	1
4902624	38	C	07/06/2025	19:36	-129.698	48.803	0	905.20	0	3.8500	0	34.3540	0	27.294	0	895.584	0	-1e10	1	-1e10	1	-1E+10	1	-1e10	1	-1e10	1	-1E+10	1	-1E+10	1	-1E+10	1
4902624	38	C	07/06/2025	19:36	-129.698	48.803	0	908.10	0	3.8404	0	34.3552	0	27.296	0	898.447	0	7.6	4	2.4	4	-1E+10	1	0.0654	4	0.000181	0	-1E+10	1	-1E+10	1	-1E+10	1
4902624	38	C	07/06/2025	19:36	-129.698	48.803	0	915.20	0	3.8170	0	34.3580	0	27.301	0	905.457	0	-1e10	1	-1e10	1	-1E+10	1	-1e10	1	-1e10	1	-1E+10	1	-1E+10	1	-1E+10	1
4902624	38	C	07/06/2025	19:36	-129.698	48.803	0	918.80	0	3.8045	0	34.3591	0	27.303	0	909.010	0	7.7	4	2.4	4	-1E+10	1	0.0584	4	0.000202	0	-1E+10	1	-1E+10	1	-1E+10	1
4902624	38	C	07/06/2025	19:36	-129.698	48.803	0	925.00	0	3.7830	0	34.3610	0	27.307	0	915.131	0	-1e10	1	-1e10	1	-1E+10	1	-1e10	1	-1e10	1	-1E+10	1	-1E+10	1	-1E+10	1
4902624	38	C	07/06/2025	19:36	-129.698	48.803	0	929.70	0	3.7662	0	34.3624	0	27.310	0	919.770	0	7.9	4	2.5	4	-1E+10	1	0.0584	4	0.000182	0	-1E+10	1	-1E+10	1	-1E+10	1
4902624	38	C	07/06/2025	19:36	-129.698	48.803	0	935.10	0	3.7470	0	34.3640	0	27.313	0	925.101	0	-1e10	1	-1e10	1	-1E+10	1	-1e10	1	-1e10	1	-1E+10	1	-1E+10	1	-1E+10	1
4902624	38	C	07/06/2025	19:36	-129.698	48.803	0	940.70	0	3.7204	0	34.3663	0	27.317	0	930.628	0	8.2	4	2.6	4	-1E+10	1	0.0587	4	0.000236	0	-1E+10	1	-1E+10	1	-1E+10	1
4902624	38	C	07/06/2025	19:36	-129.698	48.803	0	945.00	0	3.7000	0	34.3680	0	27.321	0	934.873	0	-1e10	1	-1e10	1	-1E+10	1	-1e10	1	-1e10	1	-1E+10	1	-1E+10	1	-1E+10	1
4902624	38	C	07/06/2025	19:36	-129.698	48.803	0	952.00	0	3.6825	0	34.3708	0	27.325	0	941.782	0	8.3	4	2.6	4	-1E+10	1	0.0654	4	0.000180	0	-1E+10	1	-1E+10	1	-1E+10	1
4902624	38	C	07/06/2025	19:36	-129.698	48.803	0	955.00	0	3.6750	0	34.3720	0	27.326	0	944.743	0	-1e10	1	-1e10	1	-1E+10	1	-1e10	1	-1e10	1	-1E+10	1	-1E+10	1	-1E+10	1
4902624	38	C	07/06/2025	19:36	-129.698	48.803	0	962.70	0	3.6436	0	34.3783	0	27.335	0	952.343	0	8.5	4	2.7	4	-1E+10	1	0.0587	4	0.000190	0	-1E+10	1	-1E+10	1	-1E+10	1
4902624	38	C	07/06/2025	19:36	-129.698	48.803	0	964.80	0	3.6350	0	34.3800	0	27.337	0	954.416	0	-1e10	1	-1e10	1	-1E+10	1	-1e10	1	-1e10	1	-1E+10	1	-1E+10	1	-1E+10	1
4902624	38	C	07/06/2025	19:36	-129.698	48.803	0	970.00	0	3.6129	0	34.3841	0	27.342	0	959.548	0	8.7	4	2.7	4	-1E+10	1	0.0657	4	0.000168	0	-1E+10	1	-1E+10	1	-1E+10	1
4902624	38	C	07/06/2025	19:36	-129.698	48.803	0	974.90	0	3.5920	0	34.3880	0	27.347	0	964.384	0	-1e10	1	-1e10	1	-1E+10	1	-1e10	1	-1e10	1	-1E+10	1	-1E+10	1	-1E+10	1
4902624	38	C	07/06/2025	19:36	-129.698	48.803	0	977.80	0	3.5800	0	34.3895	0	27.350	0	967.246	0	8.8	4	2.7	4	-1E+10	1	0.0652	4	0.000190	0	-1E+10	1	-1E+10	1	-1E+10	1
4902624	38	C	07/06/2025	19:36	-129.698	48.803	0	984.80	0	3.5510	0	34.3930	0	27.355	0	974.154	0	-1e10	1	-1e10	1	-1E+10	1	-1e10	1	-1e10	1	-1E+10	1	-1E+10	1	-1E+10	1
4902624	38	C	07/06/2025	19:36	-129.698	48.803	0	986.00	0	3.5465	0	34.3936	0	27.356	0	975.338	0	9.0	4	2.8	4	-1E+10	1	0.0511	4	0.000167	0	-1E+10	1	-1E+10	1	-1E+10	1
4902624	38	C	07/06/2025	19:36	-129.698	48.803	0	994.80	0	3.5137	0	34.3979	0	27.363	0	984.022	0	9.2	4	2.9	4	-1E+10	1	0.0508	4	0.000155	0	-1E+10	1	-1E+10	1	-1E+10	1
4902624	38	C	07/06/2025	19:36	-129.698	48.803	0	995.00	0	3.5130	0	34.3980	0	27.363	0	984.220	0	-1e10	1	-1e10	1	-1E+10	1	-1e10	1	-1e10	1	-1E+10	1	-1E+10	1	-1E+10	1
4902624	38	C	07/06/2025	19:36	-129.698	48.803	0	1013.60	0	3.4762	0	34.4017	0	27.370	0	1002.574	0	10.5	4	3.3	4	-1E+10	1	0.0370	4	0.000156	0	-1E+10	1	-1E+10	1	-1E+10	1
4902624	38	C	07/06/2025	19:36	-129.698	48.803	0	1024.80	0	3.4540	0	34.4040	0	27.374	0	1013.625	0	-1e10	1	-1e10	1	-1E+10	1	-1e10	1	-1e10	1	-1E+10	1	-1E+10	1	-1E+10	1
4902624	38	C	07/06/2025	19:36	-129.698	48.803	0	1032.90	0	3.4431	0	34.4059	0	27.376	0	1021.617	0	46.6	4	14.5	4	-1E+10	1	0.0585	4	0.000213	0	-1E+10	1	-1E+10	1	-1E+10	1
4902624	38	C	07/06/2025	19:36	-129.698	48.803	0	1053.00	0	3.4160	0	34.4107	0	27.383	0	1041.447	0	57.8	4	18.0	4	-1E+10	1	0.0653	4	0.000178	0	-1E+10	1	-1E+10	1	-1E+10	1
4902624	38	C	07/06/2025	19:36	-129.698	48.803	0	1074.00	0	3.3876	0	34.4157	0	27.390	0	1062.164	0	67.0	4	20.9	4	-1E+10	1	0.0441	4	0.000179	0	-1E+10	1	-1E+10	1	-1E+10	1
4902624	38	C	07/06/2025	19:36	-129.698	48.803	0	1075.20	0	3.3860	0	34.4160	0	27.390	0	1063.347	0	-1e10	1	-1e10	1	-1E+10	1	-1e10	1	-1e10	1	-1E+10	1	-1E+10	1	-1E+10	1
4902624	38	C	07/06/2025	19:36	-129.698	48.803	0	1094.90	0	3.3563	0	34.4227	0	27.398	0	1082.779	0	67.8	4	21.1	4	-1E+10	1	0.0585	4	0.000223	0	-1E+10	1	-1E+10	1	-1E+10	1
4902624	38	C	07/06/2025	19:36	-129.698	48.803	0	1115.40	0	3.3255	0	34.4297	0	27.407	0	1102.999	0	108.8	4	33.8	4	-1E+10	1	0.0654	4	0.000166	0	-1E+10	1	-1E+10	1	-1E+10	1
4902624	38	C	07/06/2025	19:36	-129.698	48.803	0	1125.00	0	3.3110	0	34.4330	0	27.411	0	1112.466	0	-1e10	1	-1e10	1	-1E+10	1	-1e10	1	-1e10	1	-1E+10	1	-1E+10	1	-1E+10	1
4902624	38	C	07/06/2025	19:36	-129.698	48.803	0	1135.70	0	3.2891	0	34.4360	0	27.416	0	1123.019	0	113.8	4	35.4	4	-1E+10	1	0.0514	4	0.000200	0	-1E+10	1	-1E+10	1	-1E+10	1
4902624	38	C	07/06/2025	19:36	-129.698	48.803	0	1156.20	0	3.2471	0	34.4417	0	27.424	0	1143.234	0	113.9	4	35.4	4	-1E+10	1	0.0654	4	0.000190	0	-1E+10	1	-1E+10	1	-1E+10	1
4902624	38	C	07/06/2025	19:36	-129.698	48.803	0	1175.30	0	3.2080	0	34.4470	0	27.432	0	1162.067	0	-1e10	1	-1e10	1	-1E+10	1	-1e10	1	-1e10	1	-1E+10	1	-1E+10	1	-1E+10	1
4902624	38	C	07/06/2025	19:36	-129.698	48.803	0	1177.30	0	3.2003	0	34.4468	0	27.433	0	1164.039	0	82.7	4	25.7	4	-1E+10	1	0.0513	4	0.000245	0	-1E+10	1	-1E+10	1	-1E+10	1
4902624	38	C	07/06/2025	19:36	-129.698	48.803	0	1199.70	0	3.1135	0	34.4451	0	27.439	0	1186.123	0	69.3	4	21.5	4	-1E+10	1	0.0581	4	0.000158	0	-1E+10	1	-1E+10	1	-1E+10	1
4902624	38	C	07/06/2025	19:36	-129.698	48.803	0	1219.40	0	3.0372	0	34.4435	0	27.445	0	1205.544	0	71.8	4	22.2	4	-1E+10	1	0.0439	4	0.000405	0	-1E+10	1	-1E+10	1	-1E+10	1
4902624	38	C	07/06/2025	19:36	-129.698	48.803	0	1225.90	0	3.0120	0	34.4430	0	27.447	0	1211.952	0	-1e10	1	-1e10	1	-1E+10	1	-1e10	1	-1e10	1	-1E+10	1	-1E+10	1	-1E+10	1
4902624	38	C	07/06/2025	19:36	-129.698	48.803	0	1236.30	0	2.9915	0	34.4460	0	27.451	0	1222.203	0	92.3	4	28.5	4	-1E+10	1	0.0511	4	0.000129	0	-1E+10	1	-1E+10	1	-1E+10	1
4902624	38	C	07/06/2025	19:36	-129.698	48.803	0	1254.80	0	2.9551	0	34.4513	0	27.459	0	1240.438	0	73.4	4	22.7	4	-1E+10	1	0.0513	4	0.000140	0	-1E+10	1	-1E+10	1	-1E+10	1
4902624	38	C	07/06/2025	19:36	-129.698	48.803	0	1273.90	0	2.9176	0	34.4568	0	27.467	0	1259.262	0	72.7	4	22.4	4	-1E+10	1	0.0584	4	0.000151	0	-1E+10	1	-1E+10	1	-1E+10	1
4902624	38	C	07/06/2025	19:36	-129.698	48.803	0	1274.70	0	2.9160	0	34.4570	0	27.467	0	1260.050	0	-1e10	1	-1e10	1	-1E+10	1	-1e10	1	-1e10	1	-1E+10	1	-1E+10	1	-1E+10	1
4902624	38	C	07/06/2025	19:36	-129.698	48.803	0	1293.80	0	2.8809	0	34.4623	0	27.475	0	1278.873	0	75.8	4	23.3	4	-1E+10	1	0.0584	4	0.000117	0	-1E+10	1	-1E+10	1	-1E+10	1
4902624	38	C	07/06/2025	19:36	-129.698	48.803	0	1313.80	0	2.8442	0	34.4679	0	27.483	0	1298.581	0	75.7	4	23.3	4	-1E+10	1	0.0585	4	0.000139	0	-1E+10	1	-1E+10	1	-1E+10	1
4902624	38	C	07/06/2025	19:36	-129.698	48.803	0	1324.80	0	2.8240	0	34.4710	0	27.487	0	1309.419	0	-1e10	1	-1e10	1	-1E+10	1	-1e10	1	-1e10	1	-1E+10	1	-1E+10	1	-1E+10	1
4902624	38	C	07/06/2025	19:36	-129.698	48.803	0	1334.00	0	2.8072	0	34.4732	0	27.490	0	1318.483	0	73.5	4	22.6	4	-1E+10	1	0.0657	4	0.000139	0	-1E+10	1	-1E+10	1	-1E+10	1
4902624	38	C	07/06/2025	19:36	-129.698	48.803	0	1354.30	0	2.7700	0	34.4780	0	27.497	0	1338.483	0	75.7	4	23.2	4	-1E+10	1	0.0654	4	0.000127	0	-1E+10	1	-1E+10	1	-1E+10	1
4902624	38	C	07/06/2025	19:36	-129.698	48.803	0	1374.80	0	2.7325	0	34.4829	0	27.505	0	1358.677	0	79.9	4	24.5	4	-1E+10	1	0.0514	4	0.000116	0	-1E+10	1	-1E+10	1	-1E+10	1
4902624	38	C	07/06/2025	19:36	-129.698	48.803	0	1375.10	0	2.7320	0	34.4830	0	27.505	0	1358.973	0	-1e10	1	-1e10	1	-1E+10	1	-1e10	1	-1e10	1	-1E+10	1	-1E+10	1	-1E+10	1
4902624	38	C	07/06/2025	19:36	-129.698	48.803	0	1395.90	0	2.6913	0	34.4880	0	27.512	0	1379.461	0	82.8	4	25.4	4	-1E+10	1	0.0654	4	0.000161	0	-1E+10	1	-1E+10	1	-1E+10	1
4902624	38	C	07/06/2025	19:36	-129.698	48.803	0	1417.30	0	2.6495	0	34.4932	0	27.520	0	1400.538	0	85.9	4	26.3	4	-1E+10	1	0.0513	4	0.000116	0	-1E+10	1	-1E+10	1	-1E+10	1
4902624	38	C	07/06/2025	19:36	-129.698	48.803	0	1424.70	0	2.6350	0	34.4950	0	27.523	0	1407.826	0	-1e10	1	-1e10	1	-1E+10	1	-1e10	1	-1e10	1	-1E+10	1	-1E+10	1	-1E+10	1
4902624	38	C	07/06/2025	19:36	-129.698	48.803	0	1439.70	0	2.6073	0	34.4988	0	27.528	0	1422.598	0	86.8	4	26.6	4	-1E+10	1	0.0584	4	0.000160	0	-1E+10	1	-1E+10	1	-1E+10	1
4902624	38	C	07/06/2025	19:36	-129.698	48.803	0	1463.10	0	2.5640	0	34.5047	0	27.537	0	1445.640	0	86.3	4	26.4	4	-1E+10	1	0.0580	4	0.000115	0	-1E+10	1	-1E+10	1	-1E+10	1
4902624	38	C	07/06/2025	19:36	-129.698	48.803	0	1476.10	0	2.5400	0	34.5080	0	27.542	0	1458.440	0	-1e10	1	-1e10	1	-1E+10	1	-1e10	1	-1e10	1	-1E+10	1	-1E+10	1	-1E+10	1
4902624	38	C	07/06/2025	19:36	-129.698	48.803	0	1480.20	0	2.5333	0	34.5089	0	27.543	0	1462.476	0	89.6	4	27.4	4	-1E+10	1	0.0440	4	0.000136	0	-1E+10	1	-1E+10	1	-1E+10	1
4902624	38	C	07/06/2025	19:36	-129.698	48.803	0	1496.90	0	2.5058	0	34.5123	0	27.548	0	1478.918	0	91.0	4	27.8	4	-1E+10	1	0.0511	4	0.000113	0	-1E+10	1	-1E+10	1	-1E+10	1
4902624	38	C	07/06/2025	19:36	-129.698	48.803	0	1514.30	0	2.4773	0	34.5159	0	27.553	0	1496.047	0	92.7	4	28.3	4	-1E+10	1	0.0511	4	0.000102	0	-1E+10	1	-1E+10	1	-1E+10	1
4902624	38	C	07/06/2025	19:36	-129.698	48.803	0	1524.20	0	2.4610	0	34.5180	0	27.557	0	1505.793	0	-1e10	1	-1e10	1	-1E+10	1	-1e10	1	-1e10	1	-1E+10	1	-1E+10	1	-1E+10	1
4902624	38	C	07/06/2025	19:36	-129.698	48.803	0	1532.80	0	2.4485	0	34.5197	0	27.559	0	1514.258	0	92.7	4	28.3	4	-1E+10	1	0.0512	4	0.000113	0	-1E+10	1	-1E+10	1	-1E+10	1
4902624	38	C	07/06/2025	19:36	-129.698	48.803	0	1552.30	0	2.4203	0	34.5236	0	27.565	0	1533.452	0	92.0	4	28.0	4	-1E+10	1	0.0590	4	0.000113	0	-1E+10	1	-1E+10	1	-1E+10	1
4902624	38	C	07/06/2025	19:36	-129.698	48.803	0	1572.60	0	2.3909	0	34.5276	0	27.570	0	1553.431	0	93.9	4	28.6	4	-1E+10	1	0.0869	4	0.000167	0	-1E+10	1	-1E+10	1	-1E+10	1
4902624	38	C	07/06/2025	19:36	-129.698	48.803	0	1574.60	0	2.3880	0	34.5280	0	27.571	0	1555.399	0	-1e10	1	-1e10	1	-1E+10	1	-1e10	1	-1e10	1	-1E+10	1	-1E+10	1	-1E+10	1
4902624	38	C	07/06/2025	19:36	-129.698	48.803	0	1593.90	0	2.3650	0	34.5311	0	27.575	0	1574.392	0	92.0	4	28.0	4	-1E+10	1	0.0581	4	0.000504	0	-1E+10	1	-1E+10	1	-1E+10	1
4902624	38	C	07/06/2025	19:36	-129.698	48.803	0	1616.20	0	2.3385	0	34.5346	0	27.580	0	1596.335	0	92.3	4	28.1	4	-1E+10	1	0.0441	4	0.000136	0	-1E+10	1	-1E+10	1	-1E+10	1
4902624	38	C	07/06/2025	19:36	-129.698	48.803	0	1625.00	0	2.3280	0	34.5360	0	27.582	0	1604.993	0	-1e10	1	-1e10	1	-1E+10	1	-1e10	1	-1e10	1	-1E+10	1	-1E+10	1	-1E+10	1
4902624	38	C	07/06/2025	19:36	-129.698	48.803	0	1638.60	0	2.3152	0	34.5379	0	27.585	0	1618.374	0	83.2	4	25.3	4	-1E+10	1	0.0583	4	0.000181	0	-1E+10	1	-1E+10	1	-1E+10	1
4902624	38	C	07/06/2025	19:36	-129.698	48.803	0	1661.10	0	2.2941	0	34.5411	0	27.589	0	1640.509	0	84.4	4	25.6	4	-1E+10	1	0.0513	4	0.000123	0	-1E+10	1	-1E+10	1	-1E+10	1
4902624	38	C	07/06/2025	19:36	-129.698	48.803	0	1675.00	0	2.2810	0	34.5430	0	27.592	0	1654.183	0	-1e10	1	-1e10	1	-1E+10	1	-1e10	1	-1e10	1	-1E+10	1	-1E+10	1	-1E+10	1
4902624	38	C	07/06/2025	19:36	-129.698	48.803	0	1683.80	0	2.2687	0	34.5449	0	27.595	0	1662.839	0	87.0	4	26.4	4	-1E+10	1	0.0584	4	0.000122	0	-1E+10	1	-1E+10	1	-1E+10	1
4902624	38	C	07/06/2025	19:36	-129.698	48.803	0	1707.00	0	2.2364	0	34.5499	0	27.601	0	1685.658	0	88.9	4	27.0	4	-1E+10	1	0.0584	4	0.000145	0	-1E+10	1	-1E+10	1	-1E+10	1
4902624	38	C	07/06/2025	19:36	-129.698	48.803	0	1724.10	0	2.2125	0	34.5536	0	27.606	0	1702.475	0	90.7	4	27.5	4	-1E+10	1	0.0580	4	0.000499	0	-1E+10	1	-1E+10	1	-1E+10	1
4902624	38	C	07/06/2025	19:36	-129.698	48.803	0	1725.90	0	2.2100	0	34.5540	0	27.607	0	1704.246	0	-1e10	1	-1e10	1	-1E+10	1	-1e10	1	-1e10	1	-1E+10	1	-1E+10	1	-1E+10	1
4902624	38	C	07/06/2025	19:36	-129.698	48.803	0	1740.60	0	2.1958	0	34.5561	0	27.610	0	1718.702	0	92.1	4	27.9	4	-1E+10	1	0.0439	4	0.000110	0	-1E+10	1	-1E+10	1	-1E+10	1
4902624	38	C	07/06/2025	19:36	-129.698	48.803	0	1758.40	0	2.1786	0	34.5587	0	27.613	0	1736.205	0	93.0	4	28.1	4	-1E+10	1	0.0514	4	0.000133	0	-1E+10	1	-1E+10	1	-1E+10	1
4902624	38	C	07/06/2025	19:36	-129.698	48.803	0	1774.50	0	2.1630	0	34.5610	0	27.617	0	1752.035	0	-1e10	1	-1e10	1	-1E+10	1	-1e10	1	-1e10	1	-1E+10	1	-1E+10	1	-1E+10	1
4902624	38	C	07/06/2025	19:36	-129.698	48.803	0	1777.50	0	2.1606	0	34.5614	0	27.617	0	1754.985	0	94.3	4	28.6	4	-1E+10	1	0.0657	4	0.000132	0	-1E+10	1	-1E+10	1	-1E+10	1
4902624	38	C	07/06/2025	19:36	-129.698	48.803	0	1798.20	0	2.1443	0	34.5638	0	27.620	0	1775.336	0	95.8	4	29.0	4	-1E+10	1	0.0656	4	0.000109	0	-1E+10	1	-1E+10	1	-1E+10	1
4902624	38	C	07/06/2025	19:36	-129.698	48.803	0	1820.30	0	2.1269	0	34.5664	0	27.624	0	1797.062	0	96.6	4	29.2	4	-1E+10	1	0.0584	4	0.000132	0	-1E+10	1	-1E+10	1	-1E+10	1
4902624	38	C	07/06/2025	19:36	-129.698	48.803	0	1825.20	0	2.1230	0	34.5670	0	27.625	0	1801.879	0	-1e10	1	-1e10	1	-1E+10	1	-1e10	1	-1e10	1	-1E+10	1	-1E+10	1	-1E+10	1
4902624	38	C	07/06/2025	19:36	-129.698	48.803	0	1843.10	0	2.1091	0	34.5691	0	27.628	0	1819.473	0	97.0	4	29.3	4	-1E+10	1	0.0584	4	0.000131	0	-1E+10	1	-1E+10	1	-1E+10	1
4902624	38	C	07/06/2025	19:36	-129.698	48.803	0	1860.90	0	2.0952	0	34.5713	0	27.631	0	1836.968	0	97.6	4	29.5	4	-1E+10	1	0.0580	4	0.000131	0	-1E+10	1	-1E+10	1	-1E+10	1
4902624	38	C	07/06/2025	19:36	-129.698	48.803	0	1875.30	0	2.0840	0	34.5730	0	27.633	0	1851.121	0	-1e10	1	-1e10	1	-1E+10	1	-1e10	1	-1e10	1	-1E+10	1	-1E+10	1	-1E+10	1
4902624	38	C	07/06/2025	19:36	-129.698	48.803	0	1876.80	0	2.0830	0	34.5732	0	27.633	0	1852.595	0	98.9	4	29.9	4	-1E+10	1	0.0369	4	0.000107	0	-1E+10	1	-1E+10	1	-1E+10	1
4902624	38	C	07/06/2025	19:36	-129.698	48.803	0	1893.60	0	2.0715	0	34.5748	0	27.636	0	1869.104	0	99.7	4	30.1	4	-1E+10	1	0.0580	4	0.000108	0	-1E+10	1	-1E+10	1	-1E+10	1
4902624	38	C	07/06/2025	19:36	-129.698	48.803	0	1911.00	0	2.0595	0	34.5766	0	27.638	0	1886.202	0	100.4	4	30.3	4	-1E+10	1	0.0367	4	0.000157	0	-1E+10	1	-1E+10	1	-1E+10	1
4902624	38	C	07/06/2025	19:36	-129.698	48.803	0	1924.90	0	2.0500	0	34.5780	0	27.640	0	1899.860	0	-1e10	1	-1e10	1	-1E+10	1	-1e10	1	-1e10	1	-1E+10	1	-1E+10	1	-1E+10	1
4902624	38	C	07/06/2025	19:36	-129.698	48.803	0	1928.70	0	2.0476	0	34.5785	0	27.641	0	1903.593	0	101.5	4	30.6	4	-1E+10	1	0.0510	4	0.000361	0	-1E+10	1	-1E+10	1	-1E+10	1
4902624	38	C	07/06/2025	19:36	-129.698	48.803	0	1946.90	0	2.0359	0	34.5806	0	27.643	0	1921.474	0	102.4	4	30.9	4	-1E+10	1	0.0440	4	0.000118	0	-1E+10	1	-1E+10	1	-1E+10	1
4902624	38	C	07/06/2025	19:36	-129.698	48.803	0	1965.10	0	2.0242	0	34.5828	0	27.646	0	1939.354	0	103.4	4	31.2	4	-1E+10	1	0.0511	4	0.000108	0	-1E+10	1	-1E+10	1	-1E+10	1
4902624	38	C	07/06/2025	19:36	-129.698	48.803	0	1974.80	0	2.0180	0	34.5840	0	27.648	0	1948.882	0	-1e10	1	-1e10	1	-1E+10	1	-1e10	1	-1e10	1	-1E+10	1	-1E+10	1	-1E+10	1
4902624	38	C	07/06/2025	19:36	-129.698	48.803	0	1983.80	0	-1e10	1	-1e10	1	-1e10	1	1957.723	0	110.2	4	-1e10	4	-1E+10	1	0.0511	4	0.000228	0	-1E+10	1	-1E+10	1	-1E+10	1
4902624	38	C	07/06/2025	19:36	-129.698	48.803	0	1999.00	0	-1e10	1	-1e10	1	-1e10	1	1972.653	0	109.3	4	-1e10	4	-1E+10	1	0.0511	4	0.000353	0	-1E+10	1	-1E+10	1	-1E+10	1
4902624	38	C	07/06/2025	19:36	-129.698	48.803	0																										
4902624	39	C	07/16/2025	14:29	-129.627	49.116	0	0.00	0	14.5687	0	31.9431	0	23.709	0	0.000	0	240.6	4	94.2	4	-1E+10	1	0.2138	4	0.000881	0	-1E+10	1	-1E+10	1	-1E+10	1
4902624	39	C	07/16/2025	14:29	-129.627	49.116	0	0.40	0	14.5921	0	31.9414	0	23.702	0	0.397	0	244.1	4	95.7	4	-1E+10	1	0.2805	4	0.001022	0	-1E+10	1	-1E+10	1	-1E+10	1
4902624	39	C	07/16/2025	14:29	-129.627	49.116	0	0.50	0	14.5980	0	31.9410	0	23.701	0	0.496	0	-1e10	1	-1e10	1	-1E+10	1	-1e10	1	-1e10	1	-1E+10	1	-1E+10	1	-1E+10	1
4902624	39	C	07/16/2025	14:29	-129.627	49.116	0	0.60	0	14.5981	0	31.9422	0	23.702	0	0.595	0	244.5	4	95.8	4	-1E+10	1	0.3139	4	0.001092	0	-1E+10	1	-1E+10	1	-1E+10	1
4902624	39	C	07/16/2025	14:29	-129.627	49.116	0	0.70	0	14.5982	0	31.9434	0	23.703	0	0.694	0	-1e10	1	-1e10	1	-1E+10	1	0.2920	4	0.001115	0	-1E+10	1	-1E+10	1	-1E+10	1
4902624	39	C	07/16/2025	14:29	-129.627	49.116	0	1.00	0	14.5986	0	31.9471	0	23.705	0	0.992	0	243.7	4	95.5	4	-1E+10	1	0.3139	4	0.001092	0	-1E+10	1	-1E+10	1	-1E+10	1
4902624	39	C	07/16/2025	14:29	-129.627	49.116	0	1.30	0	14.5989	0	31.9508	0	23.708	0	1.289	0	-1e10	1	-1e10	1	-1E+10	1	0.3285	4	0.001186	0	-1E+10	1	-1E+10	1	-1E+10	1
4902624	39	C	07/16/2025	14:29	-129.627	49.116	0	1.40	0	14.5990	0	31.9520	0	23.709	0	1.388	0	-1e10	1	-1e10	1	-1E+10	1	0.3358	4	0.001221	0	-1E+10	1	-1E+10	1	-1E+10	1
4902624	39	C	07/16/2025	14:29	-129.627	49.116	0	1.50	0	14.5992	0	31.9520	0	23.709	0	1.487	0	-1e10	1	-1e10	1	-1E+10	1	0.3431	4	0.001092	0	-1E+10	1	-1E+10	1	-1E+10	1
4902624	39	C	07/16/2025	14:29	-129.627	49.116	0	1.70	0	14.5995	0	31.9520	0	23.709	0	1.686	0	-1e10	1	-1e10	1	-1E+10	1	0.3285	4	0.001209	0	-1E+10	1	-1E+10	1	-1E+10	1
4902624	39	C	07/16/2025	14:29	-129.627	49.116	0	1.90	0	14.5999	0	31.9520	0	23.709	0	1.884	0	-1e10	1	-1e10	1	-1E+10	1	0.3066	4	0.001092	0	-1E+10	1	-1E+10	1	-1E+10	1
4902624	39	C	07/16/2025	14:29	-129.627	49.116	0	2.10	0	14.6003	0	31.9520	0	23.709	0	2.082	0	243.4	4	95.4	4	-1E+10	1	0.3139	4	0.001104	0	-1E+10	1	-1E+10	1	-1E+10	1
4902624	39	C	07/16/2025	14:29	-129.627	49.116	0	2.20	0	14.6005	0	31.9520	0	23.709	0	2.181	0	-1e10	1	-1e10	1	-1E+10	1	0.3212	4	0.001068	0	-1E+10	1	-1E+10	1	-1E+10	1
4902624	39	C	07/16/2025	14:29	-129.627	49.116	0	2.40	0	14.6008	0	31.9520	0	23.709	0	2.380	0	-1e10	1	-1e10	1	-1E+10	1	0.3285	4	0.001104	0	-1E+10	1	-1E+10	1	-1E+10	1
4902624	39	C	07/16/2025	14:29	-129.627	49.116	0	2.50	0	14.6010	0	31.9520	0	23.709	0	2.479	0	-1e10	1	-1e10	1	-1E+10	1	0.3212	4	0.001315	0	-1E+10	1	-1E+10	1	-1E+10	1
4902624	39	C	07/16/2025	14:29	-129.627	49.116	0	2.70	0	14.6012	0	31.9520	0	23.709	0	2.677	0	243.4	4	95.4	4	-1E+10	1	0.3285	4	0.001139	0	-1E+10	1	-1E+10	1	-1E+10	1
4902624	39	C	07/16/2025	14:29	-129.627	49.116	0	2.90	0	14.6014	0	31.9520	0	23.709	0	2.875	0	-1e10	1	-1e10	1	-1E+10	1	0.3212	4	0.001104	0	-1E+10	1	-1E+10	1	-1E+10	1
4902624	39	C	07/16/2025	14:29	-129.627	49.116	0	3.20	0	14.6017	0	31.9520	0	23.709	0	3.173	0	-1e10	1	-1e10	1	-1E+10	1	0.3139	4	0.001139	0	-1E+10	1	-1E+10	1	-1E+10	1
4902624	39	C	07/16/2025	14:29	-129.627	49.116	0	3.40	0	14.6019	0	31.9520	0	23.709	0	3.371	0	-1e10	1	-1e10	1	-1E+10	1	0.3285	4	0.001104	0	-1E+10	1	-1E+10	1	-1E+10	1
4902624	39	C	07/16/2025	14:29	-129.627	49.116	0	3.50	0	14.6020	0	31.9520	0	23.709	0	3.470	0	-1e10	1	-1e10	1	-1E+10	1	-1e10	1	-1e10	1	-1E+10	1	-1E+10	1	-1E+10	1
4902624	39	C	07/16/2025	14:29	-129.627	49.116	0	3.60	0	14.6019	0	31.9520	0	23.709	0	3.569	0	243.3	4	95.4	4	-1E+10	1	0.3212	4	0.001186	0	-1E+10	1	-1E+10	1	-1E+10	1
4902624	39	C	07/16/2025	14:29	-129.627	49.116	0	3.70	0	14.6018	0	31.9520	0	23.709	0	3.669	0	-1e10	1	-1e10	1	-1E+10	1	0.3723	4	0.001127	0	-1E+10	1	-1E+10	1	-1E+10	1
4902624	39	C	07/16/2025	14:29	-129.627	49.116	0	3.90	0	14.6016	0	31.9520	0	23.709	0	3.867	0	-1e10	1	-1e10	1	-1E+10	1	0.3942	4	0.001104	0	-1E+10	1	-1E+10	1	-1E+10	1
4902624	39	C	07/16/2025	14:29	-129.627	49.116	0	4.20	0	14.6013	0	31.9520	0	23.709	0	4.164	0	-1e10	1	-1e10	1	-1E+10	1	0.4088	4	0.001104	0	-1E+10	1	-1E+10	1	-1E+10	1
4902624	39	C	07/16/2025	14:29	-129.627	49.116	0	4.50	0	14.6010	0	31.9520	0	23.709	0	4.462	0	-1e10	1	-1e10	1	-1E+10	1	-1e10	1	-1e10	1	-1E+10	1	-1E+10	1	-1E+10	1
4902624	39	C	07/16/2025	14:29	-129.627	49.116	0	4.60	0	14.6009	0	31.9521	0	23.709	0	4.561	0	243.2	4	95.3	4	-1E+10	1	0.3942	4	0.001133	0	-1E+10	1	-1E+10	1	-1E+10	1
4902624	39	C	07/16/2025	14:29	-129.627	49.116	0	4.80	0	14.6007	0	31.9523	0	23.709	0	4.759	0	-1e10	1	-1e10	1	-1E+10	1	0.4015	4	0.001139	0	-1E+10	1	-1E+10	1	-1E+10	1
4902624	39	C	07/16/2025	14:29	-129.627	49.116	0	5.00	0	14.6005	0	31.9525	0	23.709	0	4.957	0	-1e10	1	-1e10	1	-1E+10	1	0.3723	4	0.001186	0	-1E+10	1	-1E+10	1	-1E+10	1
4902624	39	C	07/16/2025	14:29	-129.627	49.116	0	5.30	0	14.6002	0	31.9528	0	23.710	0	5.255	0	-1e10	1	-1e10	1	-1E+10	1	0.4015	4	0.001115	0	-1E+10	1	-1E+10	1	-1E+10	1
4902624	39	C	07/16/2025	14:29	-129.627	49.116	0	5.50	0	14.6000	0	31.9530	0	23.710	0	5.453	0	-1e10	1	-1e10	1	-1E+10	1	0.4088	4	0.001092	0	-1E+10	1	-1E+10	1	-1E+10	1
4902624	39	C	07/16/2025	14:29	-129.627	49.116	0	5.80	0	14.6000	0	31.9527	0	23.710	0	5.751	0	243.2	4	95.4	4	-1E+10	1	0.3942	4	0.001162	0	-1E+10	1	-1E+10	1	-1E+10	1
4902624	39	C	07/16/2025	14:29	-129.627	49.116	0	6.00	0	14.6000	0	31.9525	0	23.710	0	5.949	0	-1e10	1	-1e10	1	-1E+10	1	0.3869	4	0.001139	0	-1E+10	1	-1E+10	1	-1E+10	1
4902624	39	C	07/16/2025	14:29	-129.627	49.116	0	6.20	0	14.6000	0	31.9524	0	23.709	0	6.147	0	-1e10	1	-1e10	1	-1E+10	1	0.3796	4	0.001139	0	-1E+10	1	-1E+10	1	-1E+10	1
4902624	39	C	07/16/2025	14:29	-129.627	49.116	0	6.50	0	14.6000	0	31.9521	0	23.709	0	6.445	0	-1e10	1	-1e10	1	-1E+10	1	0.3869	4	0.001115	0	-1E+10	1	-1E+10	1	-1E+10	1
4902624	39	C	07/16/2025	14:29	-129.627	49.116	0	6.60	0	14.6000	0	31.9520	0	23.709	0	6.544	0	-1e10	1	-1e10	1	-1E+10	1	-1e10	1	-1e10	1	-1E+10	1	-1E+10	1	-1E+10	1
4902624	39	C	07/16/2025	14:29	-129.627	49.116	0	7.00	0	14.6004	0	31.9520	0	23.709	0	6.940	0	243.1	4	95.3	4	-1E+10	1	0.3796	4	0.001197	0	-1E+10	1	-1E+10	1	-1E+10	1
4902624	39	C	07/16/2025	14:29	-129.627	49.116	0	7.20	0	14.6007	0	31.9520	0	23.709	0	7.139	0	-1e10	1	-1e10	1	-1E+10	1	0.4015	4	0.001186	0	-1E+10	1	-1E+10	1	-1E+10	1
4902624	39	C	07/16/2025	14:29	-129.627	49.116	0	7.50	0	14.6010	0	31.9520	0	23.709	0	7.436	0	-1e10	1	-1e10	1	-1E+10	1	0.3869	4	0.001127	0	-1E+10	1	-1E+10	1	-1E+10	1
4902624	39	C	07/16/2025	14:29	-129.627	49.116	0	7.80	0	14.6007	0	31.9520	0	23.709	0	7.734	0	-1e10	1	-1e10	1	-1E+10	1	0.4015	4	0.001068	0	-1E+10	1	-1E+10	1	-1E+10	1
4902624	39	C	07/16/2025	14:29	-129.627	49.116	0	8.00	0	14.6004	0	31.9520	0	23.709	0	7.932	0	-1e10	1	-1e10	1	-1E+10	1	0.3942	4	0.001127	0	-1E+10	1	-1E+10	1	-1E+10	1
4902624	39	C	07/16/2025	14:29	-129.627	49.116	0	8.20	0	14.6002	0	31.9520	0	23.709	0	8.130	0	243.0	4	95.3	4	-1E+10	1	0.4015	4	0.001209	0	-1E+10	1	-1E+10	1	-1E+10	1
4902624	39	C	07/16/2025	14:29	-129.627	49.116	0	8.40	0	14.6000	0	31.9520	0	23.709	0	8.328	0	-1e10	1	-1e10	1	-1E+10	1	-1e10	1	-1e10	1	-1E+10	1	-1E+10	1	-1E+10	1
4902624	39	C	07/16/2025	14:29	-129.627	49.116	0	8.60	0	14.6000	0	31.9520	0	23.709	0	8.527	0	-1e10	1	-1e10	1	-1E+10	1	0.4234	4	0.001291	0	-1E+10	1	-1E+10	1	-1E+10	1
4902624	39	C	07/16/2025	14:29	-129.627	49.116	0	9.10	0	14.6000	0	31.9520	0	23.709	0	9.023	0	-1e10	1	-1e10	1	-1E+10	1	0.3942	4	0.001162	0	-1E+10	1	-1E+10	1	-1E+10	1
4902624	39	C	07/16/2025	14:29	-129.627	49.116	0	9.30	0	14.6000	0	31.9520	0	23.709	0	9.221	0	-1e10	1	-1e10	1	-1E+10	1	0.4088	4	0.001162	0	-1E+10	1	-1E+10	1	-1E+10	1
4902624	39	C	07/16/2025	14:29	-129.627	49.116	0	9.50	0	14.6000	0	31.9520	0	23.709	0	9.419	0	-1e10	1	-1e10	1	-1E+10	1	-1e10	1	-1e10	1	-1E+10	1	-1E+10	1	-1E+10	1
4902624	39	C	07/16/2025	14:29	-129.627	49.116	0	9.60	0	14.6001	0	31.9520	0	23.709	0	9.518	0	243.0	4	95.3	4	-1E+10	1	0.4015	4	0.001080	0	-1E+10	1	-1E+10	1	-1E+10	1
4902624	39	C	07/16/2025	14:29	-129.627	49.116	0	9.80	0	14.6004	0	31.9520	0	23.709	0	9.717	0	-1e10	1	-1e10	1	-1E+10	1	0.3942	4	0.001092	0	-1E+10	1	-1E+10	1	-1E+10	1
4902624	39	C	07/16/2025	14:29	-129.627	49.116	0	10.90	0	14.6019	0	31.9520	0	23.709	0	10.807	0	243.0	4	95.3	4	-1E+10	1	0.3869	4	0.001162	0	-1E+10	1	-1E+10	1	-1E+10	1
4902624	39	C	07/16/2025	14:29	-129.627	49.116	0	11.00	0	14.6020	0	31.9520	0	23.709	0	10.906	0	-1e10	1	-1e10	1	-1E+10	1	-1e10	1	-1e10	1	-1E+10	1	-1E+10	1	-1E+10	1
4902624	39	C	07/16/2025	14:29	-129.627	49.116	0	12.20	0	14.6020	0	31.9520	0	23.709	0	12.096	0	243.0	4	95.3	4	-1E+10	1	0.3869	4	0.001115	0	-1E+10	1	-1E+10	1	-1E+10	1
4902624	39	C	07/16/2025	14:29	-129.627	49.116	0	13.00	0	14.6020	0	31.9520	0	23.709	0	12.889	0	-1e10	1	-1e10	1	-1E+10	1	-1e10	1	-1e10	1	-1E+10	1	-1E+10	1	-1E+10	1
4902624	39	C	07/16/2025	14:29	-129.627	49.116	0	13.50	0	14.6023	0	31.9520	0	23.709	0	13.385	0	243.1	4	95.3	4	-1E+10	1	0.3918	4	0.001096	0	-1E+10	1	-1E+10	1	-1E+10	1
4902624	39	C	07/16/2025	14:29	-129.627	49.116	0	14.90	0	14.6030	0	31.9520	0	23.709	0	14.773	0	243.1	4	95.3	4	-1E+10	1	0.3989	4	0.001077	0	-1E+10	1	-1E+10	1	-1E+10	1
4902624	39	C	07/16/2025	14:29	-129.627	49.116	0	15.00	0	14.6030	0	31.9520	0	23.709	0	14.872	0	-1e10	1	-1e10	1	-1E+10	1	-1e10	1	-1e10	1	-1E+10	1	-1E+10	1	-1E+10	1
4902624	39	C	07/16/2025	14:29	-129.627	49.116	0	16.20	0	14.6030	0	31.9520	0	23.709	0	16.062	0	243.1	4	95.3	4	-1E+10	1	0.3937	4	0.001075	0	-1E+10	1	-1E+10	1	-1E+10	1
4902624	39	C	07/16/2025	14:29	-129.627	49.116	0	17.10	0	14.6030	0	31.9520	0	23.709	0	16.954	0	-1e10	1	-1e10	1	-1E+10	1	-1e10	1	-1e10	1	-1E+10	1	-1E+10	1	-1E+10	1
4902624	39	C	07/16/2025	14:29	-129.627	49.116	0	17.50	0	14.6019	0	31.9520	0	23.709	0	17.351	0	243.1	4	95.3	4	-1E+10	1	0.3951	4	0.001067	0	-1E+10	1	-1E+10	1	-1E+10	1
4902624	39	C	07/16/2025	14:29	-129.627	49.116	0	18.70	0	14.5988	0	31.9520	0	23.710	0	18.540	0	243.2	4	95.3	4	-1E+10	1	0.4101	4	0.001051	0	-1E+10	1	-1E+10	1	-1E+10	1
4902624	39	C	07/16/2025	14:29	-129.627	49.116	0	19.00	0	14.5980	0	31.9520	0	23.710	0	18.838	0	-1e10	1	-1e10	1	-1E+10	1	-1e10	1	-1e10	1	-1E+10	1	-1E+10	1	-1E+10	1
4902624	39	C	07/16/2025	14:29	-129.627	49.116	0	19.90	0	14.5971	0	31.9520	0	23.710	0	19.730	0	243.2	4	95.3	4	-1E+10	1	0.4106	4	0.001083	0	-1E+10	1	-1E+10	1	-1E+10	1
4902624	39	C	07/16/2025	14:29	-129.627	49.116	0	21.00	0	14.5960	0	31.9520	0	23.710	0	20.821	0	243.5	4	95.4	4	-1E+10	1	0.3963	4	0.001102	0	-1E+10	1	-1E+10	1	-1E+10	1
4902624	39	C	07/16/2025	14:29	-129.627	49.116	0	22.20	0	14.5954	0	31.9514	0	23.710	0	22.010	0	243.5	4	95.4	4	-1E+10	1	0.4088	4	0.001162	0	-1E+10	1	-1E+10	1	-1E+10	1
4902624	39	C	07/16/2025	14:29	-129.627	49.116	0	23.00	0	14.5950	0	31.9510	0	23.710	0	22.803	0	-1e10	1	-1e10	1	-1E+10	1	-1e10	1	-1e10	1	-1E+10	1	-1E+10	1	-1E+10	1
4902624	39	C	07/16/2025	14:29	-129.627	49.116	0	23.40	0	14.5944	0	31.9510	0	23.710	0	23.200	0	243.6	4	95.5	4	-1E+10	1	0.4088	4	0.001068	0	-1E+10	1	-1E+10	1	-1E+10	1
4902624	39	C	07/16/2025	14:29	-129.627	49.116	0	24.50	0	14.5928	0	31.9510	0	23.710	0	24.290	0	243.8	4	95.6	4	-1E+10	1	0.4150	4	0.001058	0	-1E+10	1	-1E+10	1	-1E+10	1
4902624	39	C	07/16/2025	14:29	-129.627	49.116	0	25.00	0	14.5920	0	31.9510	0	23.711	0	24.786	0	-1e10	1	-1e10	1	-1E+10	1	-1e10	1	-1e10	1	-1E+10	1	-1E+10	1	-1E+10	1
4902624	39	C	07/16/2025	14:29	-129.627	49.116	0	25.50	0	14.5853	0	31.9508	0	23.712	0	25.282	0	244.1	4	95.7	4	-1E+10	1	0.4210	4	0.001072	0	-1E+10	1	-1E+10	1	-1E+10	1
4902624	39	C	07/16/2025	14:29	-129.627	49.116	0	26.50	0	14.5720	0	31.9503	0	23.714	0	26.273	0	244.6	4	95.8	4	-1E+10	1	0.4088	4	0.001096	0	-1E+10	1	-1E+10	1	-1E+10	1
4902624	39	C	07/16/2025	14:29	-129.627	49.116	0	27.10	0	14.5640	0	31.9500	0	23.716	0	26.868	0	-1e10	1	-1e10	1	-1E+10	1	-1e10	1	-1e10	1	-1E+10	1	-1E+10	1	-1E+10	1
4902624	39	C	07/16/2025	14:29	-129.627	49.116	0	27.30	0	14.5608	0	31.9496	0	23.716	0	27.066	0	245.0	4	96.0	4	-1E+10	1	0.4426	4	0.001096	0	-1E+10	1	-1E+10	1	-1E+10	1
4902624	39	C	07/16/2025	14:29	-129.627	49.116	0	27.90	0	14.5511	0	31.9482	0	23.717	0	27.661	0	245.6	4	96.2	4	-1E+10	1	0.4547	4	0.001107	0	-1E+10	1	-1E+10	1	-1E+10	1
4902624	39	C	07/16/2025	14:29	-129.627	49.116	0	28.50	0	14.5414	0	31.9469	0	23.718	0	28.256	0	246.1	4	96.3	4	-1E+10	1	0.4356	4	0.001193	0	-1E+10	1	-1E+10	1	-1E+10	1
4902624	39	C	07/16/2025	14:29	-129.627	49.116	0	28.90	0	14.5350	0	31.9460	0	23.719	0	28.653	0	-1e10	1	-1e10	1	-1E+10	1	-1e10	1	-1e10	1	-1E+10	1	-1E+10	1	-1E+10	1
4902624	39	C	07/16/2025	14:29	-129.627	49.116	0	29.10	0	14.5208	0	31.9450	0	23.721	0	28.851	0	246.9	4	96.6	4	-1E+10	1	0.4307	4	0.001309	0	-1E+10	1	-1E+10	1	-1E+10	1
4902624	39	C	07/16/2025	14:29	-129.627	49.116	0	29.70	0	14.4782	0	31.9418	0	23.727	0	29.446	0	248.1	4	97.0	4	-1E+10	1	0.4307	4	0.001256	0	-1E+10	1	-1E+10	1	-1E+10	1
4902624	39	C	07/16/2025	14:29	-129.627	49.116	0	30.30	0	14.4357	0	31.9387	0	23.734	0	30.040	0	248.9	4	97.2	4	-1E+10	1	0.4244	4	0.001186	0	-1E+10	1	-1E+10	1	-1E+10	1
4902624	39	C	07/16/2025	14:29	-129.627	49.116	0	30.90	0	14.3931	0	31.9355	0	23.740	0	30.635	0	250.2	4	97.7	4	-1E+10	1	0.4964	4	0.001232	0	-1E+10	1	-1E+10	1	-1E+10	1
4902624	39	C	07/16/2025	14:29	-129.627	49.116	0	31.00	0	14.3860	0	31.9350	0	23.742	0	30.734	0	-1e10	1	-1e10	1	-1E+10	1	-1e10	1	-1e10	1	-1E+10	1	-1E+10	1	-1E+10	1
4902624	39	C	07/16/2025	14:29	-129.627	49.116	0	31.70	0	14.1060	0	31.9403	0	23.804	0	31.428	0	252.1	4	97.8	4	-1E+10	1	0.5013	4	0.001397	0	-1E+10	1	-1E+10	1	-1E+10	1
4902624	39	C	07/16/2025	14:29	-129.627	49.116	0	32.50	0	13.7860	0	31.9464	0	23.874	0	32.221	0	255.3	4	98.5	4	-1E+10	1	0.5658	4	0.001602	0	-1E+10	1	-1E+10	1	-1E+10	1
4902624	39	C	07/16/2025	14:29	-129.627	49.116	0	33.10	0	13.5460	0	31.9510	0	23.925	0	32.816	0	-1e10	1	-1e10	1	-1E+10	1	-1e10	1	-1e10	1	-1E+10	1	-1E+10	1	-1E+10	1
4902624	39	C	07/16/2025	14:29	-129.627	49.116	0	33.30	0	13.4349	0	31.9585	0	23.953	0	33.015	0	256.4	4	98.2	4	-1E+10	1	0.7981	4	0.001799	0	-1E+10	1	-1E+10	1	-1E+10	1
4902624	39	C	07/16/2025	14:29	-129.627	49.116	0	34.30	0	12.8797	0	31.9958	0	24.091	0	34.006	0	256.8	4	97.2	4	-1E+10	1	1.2421	4	0.001935	0	-1E+10	1	-1E+10	1	-1E+10	1
4902624	39	C	07/16/2025	14:29	-129.627	49.116	0	35.00	0	12.4910	0	32.0220	0	24.186	0	34.700	0	-1e10	1	-1e10	1	-1E+10	1	-1e10	1	-1e10	1	-1E+10	1	-1E+10	1	-1E+10	1
4902624	39	C	07/16/2025	14:29	-129.627	49.116	0	35.30	0	12.4664	0	32.0219	0	24.191	0	34.997	0	255.3	4	95.9	4	-1E+10	1	1.5595	4	0.001975	0	-1E+10	1	-1E+10	1	-1E+10	1
4902624	39	C	07/16/2025	14:29	-129.627	49.116	0	36.30	0	12.3844	0	32.0214	0	24.206	0	35.989	0	253.7	4	95.1	4	-1E+10	1	1.7520	4	0.002124	0	-1E+10	1	-1E+10	1	-1E+10	1
4902624	39	C	07/16/2025	14:29	-129.627	49.116	0	37.00	0	12.3270	0	32.0210	0	24.217	0	36.682	0	-1e10	1	-1e10	1	-1E+10	1	-1e10	1	-1e10	1	-1E+10	1	-1E+10	1	-1E+10	1
4902624	39	C	07/16/2025	14:29	-129.627	49.116	0	37.30	0	12.2815	0	32.0212	0	24.225	0	36.980	0	251.9	4	94.2	4	-1E+10	1	2.0075	4	0.002253	0	-1E+10	1	-1E+10	1	-1E+10	1
4902624	39	C	07/16/2025	14:29	-129.627	49.116	0	38.30	0	12.1299	0	32.0217	0	24.254	0	37.971	0	251.0	4	93.6	4	-1E+10	1	2.2995	4	0.002307	0	-1E+10	1	-1E+10	1	-1E+10	1
4902624	39	C	07/16/2025	14:29	-129.627	49.116	0	38.90	0	12.0390	0	32.0220	0	24.271	0	38.566	0	-1e10	1	-1e10	1	-1E+10	1	-1e10	1	-1e10	1	-1E+10	1	-1E+10	1	-1E+10	1
4902624	39	C	07/16/2025	14:29	-129.627	49.116	0	39.40	0	12.0014	0	32.0196	0	24.276	0	39.062	0	249.8	4	92.9	4	-1E+10	1	2.4747	4	0.002347	0	-1E+10	1	-1E+10	1	-1E+10	1
4902624	39	C	07/16/2025	14:29	-129.627	49.116	0	40.40	0	11.9261	0	32.0149	0	24.287	0	40.053	0	248.6	4	92.3	4	-1E+10	1	2.4703	4	0.002366	0	-1E+10	1	-1E+10	1	-1E+10	1
4902624	39	C	07/16/2025	14:29	-129.627	49.116	0	41.00	0	11.8810	0	32.0120	0	24.293	0	40.648	0	-1e10	1	-1e10	1	-1E+10	1	-1e10	1	-1e10	1	-1E+10	1	-1E+10	1	-1E+10	1
4902624	39	C	07/16/2025	14:29	-129.627	49.116	0	41.50	0	11.8460	0	32.0120	0	24.299	0	41.143	0	247.9	4	91.9	4	-1E+10	1	2.4090	4	0.002488	0	-1E+10	1	-1E+10	1	-1E+10	1
4902624	39	C	07/16/2025	14:29	-129.627	49.116	0	42.60	0	11.7690	0	32.0120	0	24.313	0	42.234	0	246.4	4	91.2	4	-1E+10	1	2.3236	4	0.002594	0	-1E+10	1	-1E+10	1	-1E+10	1
4902624	39	C	07/16/2025	14:29	-129.627	49.116	0	43.00	0	11.7410	0	32.0120	0	24.318	0	42.630	0	-1e10	1	-1e10	1	-1E+10	1	-1e10	1	-1e10	1	-1E+10	1	-1E+10	1	-1E+10	1
4902624	39	C	07/16/2025	14:29	-129.627	49.116	0	43.70	0	11.7022	0	32.0155	0	24.328	0	43.324	0	245.0	4	90.6	4	-1E+10	1	2.1429	4	0.002674	0	-1E+10	1	-1E+10	1	-1E+10	1
4902624	39	C	07/16/2025	14:29	-129.627	49.116	0	44.80	0	11.6411	0	32.0210	0	24.344	0	44.415	0	243.6	4	89.9	4	-1E+10	1	1.8657	4	0.003012	0	-1E+10	1	-1E+10	1	-1E+10	1
4902624	39	C	07/16/2025	14:29	-129.627	49.116	0	45.00	0	11.6300	0	32.0220	0	24.347	0	44.613	0	-1e10	1	-1e10	1	-1E+10	1	-1e10	1	-1e10	1	-1E+10	1	-1E+10	1	-1E+10	1
4902624	39	C	07/16/2025	14:29	-129.627	49.116	0	46.00	0	11.5553	0	32.0352	0	24.370	0	45.604	0	242.9	4	89.5	4	-1E+10	1	1.6717	4	0.002218	0	-1E+10	1	-1E+10	1	-1E+10	1
4902624	39	C	07/16/2025	14:29	-129.627	49.116	0	46.90	0	11.4880	0	32.0470	0	24.392	0	46.496	0	-1e10	1	-1e10	1	-1E+10	1	-1e10	1	-1e10	1	-1E+10	1	-1E+10	1	-1E+10	1
4902624	39	C	07/16/2025	14:29	-129.627	49.116	0	47.20	0	11.4851	0	32.0557	0	24.399	0	46.794	0	242.0	4	89.0	4	-1E+10	1	1.6216	4	0.002027	0	-1E+10	1	-1E+10	1	-1E+10	1
4902624	39	C	07/16/2025	14:29	-129.627	49.116	0	48.30	0	11.4747	0	32.0877	0	24.426	0	47.884	0	240.8	4	88.6	4	-1E+10	1	1.7173	4	0.001916	0	-1E+10	1	-1E+10	1	-1E+10	1
4902624	39	C	07/16/2025	14:29	-129.627	49.116	0	49.00	0	11.4680	0	32.1080	0	24.443	0	48.578	0	-1e10	1	-1e10	1	-1E+10	1	-1e10	1	-1e10	1	-1E+10	1	-1E+10	1	-1E+10	1
4902624	39	C	07/16/2025	14:29	-129.627	49.116	0	49.40	0	11.4392	0	32.1106	0	24.450	0	48.975	0	239.3	4	88.0	4	-1E+10	1	1.7071	4	0.001860	0	-1E+10	1	-1E+10	1	-1E+10	1
4902624	39	C	07/16/2025	14:29	-129.627	49.116	0	50.60	0	11.3528	0	32.1184	0	24.471	0	50.164	0	238.0	4	87.4	4	-1E+10	1	1.4943	4	0.001703	0	-1E+10	1	-1E+10	1	-1E+10	1
4902624	39	C	07/16/2025	14:29	-129.627	49.116	0	51.00	0	11.3240	0	32.1210	0	24.479	0	50.561	0	-1e10	1	-1e10	1	-1E+10	1	-1e10	1	-1e10	1	-1E+10	1	-1E+10	1	-1E+10	1
4902624	39	C	07/16/2025	14:29	-129.627	49.116	0	51.70	0	11.2326	0	32.1224	0	24.496	0	51.254	0	237.4	4	86.9	4	-1E+10	1	1.1634	4	0.001526	0	-1E+10	1	-1E+10	1	-1E+10	1
4902624	39	C	07/16/2025	14:29	-129.627	49.116	0	52.80	0	11.0891	0	32.1246	0	24.523	0	52.345	0	236.9	4	86.5	4	-1E+10	1	0.9264	4	0.001444	0	-1E+10	1	-1E+10	1	-1E+10	1
4902624	39	C	07/16/2025	14:29	-129.627	49.116	0	53.00	0	11.0630	0	32.1250	0	24.528	0	52.543	0	-1e10	1	-1e10	1	-1E+10	1	-1e10	1	-1e10	1	-1E+10	1	-1E+10	1	-1E+10	1
4902624	39	C	07/16/2025	14:29	-129.627	49.116	0	53.80	0	11.0186	0	32.1250	0	24.536	0	53.336	0	236.1	4	86.1	4	-1E+10	1	0.8930	4	0.001408	0	-1E+10	1	-1E+10	1	-1E+10	1
4902624	39	C	07/16/2025	14:29	-129.627	49.116	0	54.90	0	10.9576	0	32.1250	0	24.547	0	54.427	0	235.1	4	85.6	4	-1E+10	1	0.8660	4	0.001326	0	-1E+10	1	-1E+10	1	-1E+10	1
4902624	39	C	07/16/2025	14:29	-129.627	49.116	0	55.00	0	10.9520	0	32.1250	0	24.548	0	54.526	0	-1e10	1	-1e10	1	-1E+10	1	-1e10	1	-1e10	1	-1E+10	1	-1E+10	1	-1E+10	1
4902624	39	C	07/16/2025	14:29	-129.627	49.116	0	55.90	0	10.9113	0	32.1421	0	24.568	0	55.418	0	234.3	4	85.2	4	-1E+10	1	0.7653	4	0.001204	0	-1E+10	1	-1E+10	1	-1E+10	1
4902624	39	C	07/16/2025	14:29	-129.627	49.116	0	56.90	0	10.8660	0	32.1610	0	24.591	0	56.409	0	231.6	4	84.2	4	-1E+10	1	0.6862	4	0.001064	0	-1E+10	1	-1E+10	1	-1E+10	1
4902624	39	C	07/16/2025	14:29	-129.627	49.116	0	57.90	0	10.6822	0	32.1839	0	24.640	0	57.400	0	232.4	4	84.2	4	-1E+10	1	0.5220	4	0.000950	0	-1E+10	1	-1E+10	1	-1E+10	1
4902624	39	C	07/16/2025	14:29	-129.627	49.116	0	58.90	0	10.4984	0	32.2067	0	24.689	0	58.391	0	231.9	4	83.7	4	-1E+10	1	0.3957	4	0.000786	0	-1E+10	1	-1E+10	1	-1E+10	1
4902624	39	C	07/16/2025	14:29	-129.627	49.116	0	59.00	0	10.4800	0	32.2090	0	24.694	0	58.491	0	-1e10	1	-1e10	1	-1E+10	1	-1e10	1	-1e10	1	-1E+10	1	-1E+10	1	-1E+10	1
4902624	39	C	07/16/2025	14:29	-129.627	49.116	0	59.90	0	10.2833	0	32.2275	0	24.742	0	59.383	0	231.5	4	83.1	4	-1E+10	1	0.2993	4	0.000751	0	-1E+10	1	-1E+10	1	-1E+10	1
4902624	39	C	07/16/2025	14:29	-129.627	49.116	0	60.80	0	10.0867	0	32.2459	0	24.789	0	60.275	0	230.6	4	82.5	4	-1E+10	1	0.2482	4	0.000716	0	-1E+10	1	-1E+10	1	-1E+10	1
4902624	39	C	07/16/2025	14:29	-129.627	49.116	0	61.00	0	10.0430	0	32.2500	0	24.800	0	60.473	0	-1e10	1	-1e10	1	-1E+10	1	-1e10	1	-1e10	1	-1E+10	1	-1E+10	1	-1E+10	1
4902624	39	C	07/16/2025	14:29	-129.627	49.116	0	61.60	0	9.9998	0	32.2557	0	24.811	0	61.068	0	229.5	4	81.9	4	-1E+10	1	0.2263	4	0.000651	0	-1E+10	1	-1E+10	1	-1E+10	1
4902624	39	C	07/16/2025	14:29	-129.627	49.116	0	62.20	0	9.9566	0	32.2614	0	24.823	0	61.662	0	228.2	4	81.4	4	-1E+10	1	0.2190	4	0.000596	0	-1E+10	1	-1E+10	1	-1E+10	1
4902624	39	C	07/16/2025	14:29	-129.627	49.116	0	62.80	0	9.9134	0	32.2671	0	24.834	0	62.257	0	227.0	4	80.9	4	-1E+10	1	0.2135	4	0.000556	0	-1E+10	1	-1E+10	1	-1E+10	1
4902624	39	C	07/16/2025	14:29	-129.627	49.116	0	63.00	0	9.8990	0	32.2690	0	24.838	0	62.455	0	-1e10	1	-1e10	1	-1E+10	1	-1e10	1	-1e10	1	-1E+10	1	-1E+10	1	-1E+10	1
4902624	39	C	07/16/2025	14:29	-129.627	49.116	0	63.50	0	9.8388	0	32.2766	0	24.854	0	62.951	0	225.7	4	80.3	4	-1E+10	1	0.1752	4	0.000587	0	-1E+10	1	-1E+10	1	-1E+10	1
4902624	39	C	07/16/2025	14:29	-129.627	49.116	0	64.30	0	9.7424	0	32.2888	0	24.879	0	63.744	0	224.3	4	79.7	4	-1E+10	1	0.1606	4	0.001490	0	-1E+10	1	-1E+10	1	-1E+10	1
4902624	39	C	07/16/2025	14:29	-129.627	49.116	0	65.00	0	9.6580	0	32.2995	0	24.901	0	64.438	0	223.1	4	79.1	4	-1E+10	1	0.1350	4	0.000603	0	-1E+10	1	-1E+10	1	-1E+10	1
4902624	39	C	07/16/2025	14:29	-129.627	49.116	0	65.10	0	9.6460	0	32.3010	0	24.905	0	64.537	0	-1e10	1	-1e10	1	-1E+10	1	-1e10	1	-1e10	1	-1E+10	1	-1E+10	1	-1E+10	1
4902624	39	C	07/16/2025	14:29	-129.627	49.116	0	65.70	0	9.5989	0	32.3102	0	24.919	0	65.132	0	221.9	4	78.6	4	-1E+10	1	0.1217	4	0.000456	0	-1E+10	1	-1E+10	1	-1E+10	1
4902624	39	C	07/16/2025	14:29	-129.627	49.116	0	66.50	0	9.5362	0	32.3224	0	24.939	0	65.925	0	220.8	4	78.1	4	-1E+10	1	0.1122	4	0.000468	0	-1E+10	1	-1E+10	1	-1E+10	1
4902624	39	C	07/16/2025	14:29	-129.627	49.116	0	67.00	0	9.4970	0	32.3300	0	24.951	0	66.420	0	-1e10	1	-1e10	1	-1E+10	1	-1e10	1	-1e10	1	-1E+10	1	-1E+10	1	-1E+10	1
4902624	39	C	07/16/2025	14:29	-129.627	49.116	0	67.30	0	9.4816	0	32.3334	0	24.956	0	66.718	0	219.5	4	77.5	4	-1E+10	1	0.1136	4	0.000462	0	-1E+10	1	-1E+10	1	-1E+10	1
4902624	39	C	07/16/2025	14:29	-129.627	49.116	0	68.00	0	9.4456	0	32.3414	0	24.968	0	67.411	0	218.0	4	76.9	4	-1E+10	1	0.1071	4	0.000438	0	-1E+10	1	-1E+10	1	-1E+10	1
4902624	39	C	07/16/2025	14:29	-129.627	49.116	0	68.80	0	9.4044	0	32.3506	0	24.982	0	68.204	0	216.4	4	76.3	4	-1E+10	1	0.0876	4	0.000429	0	-1E+10	1	-1E+10	1	-1E+10	1
4902624	39	C	07/16/2025	14:29	-129.627	49.116	0	69.10	0	9.3890	0	32.3540	0	24.987	0	68.502	0	-1e10	1	-1e10	1	-1E+10	1	-1e10	1	-1e10	1	-1E+10	1	-1E+10	1	-1E+10	1
4902624	39	C	07/16/2025	14:29	-129.627	49.116	0	69.60	0	9.3464	0	32.3674	0	25.004	0	68.997	0	214.6	4	75.6	4	-1E+10	1	0.0863	4	0.000435	0	-1E+10	1	-1E+10	1	-1E+10	1
4902624	39	C	07/16/2025	14:29	-129.627	49.116	0	70.50	0	9.2696	0	32.3916	0	25.035	0	69.889	0	212.6	4	74.8	4	-1E+10	1	0.0803	4	0.000387	0	-1E+10	1	-1E+10	1	-1E+10	1
4902624	39	C	07/16/2025	14:29	-129.627	49.116	0	71.00	0	9.2270	0	32.4050	0	25.053	0	70.385	0	-1e10	1	-1e10	1	-1E+10	1	-1e10	1	-1e10	1	-1E+10	1	-1E+10	1	-1E+10	1
4902624	39	C	07/16/2025	14:29	-129.627	49.116	0	71.40	0	9.1998	0	32.4158	0	25.065	0	70.781	0	210.8	4	74.1	4	-1E+10	1	0.0803	4	0.000440	0	-1E+10	1	-1E+10	1	-1E+10	1
4902624	39	C	07/16/2025	14:29	-129.627	49.116	0	72.20	0	9.1454	0	32.4374	0	25.091	0	71.574	0	208.9	4	73.3	4	-1E+10	1	0.0689	4	0.000428	0	-1E+10	1	-1E+10	1	-1E+10	1
4902624	39	C	07/16/2025	14:29	-129.627	49.116	0	73.00	0	9.0910	0	32.4590	0	25.116	0	72.367	0	-1e10	1	-1e10	1	-1E+10	1	-1e10	1	-1e10	1	-1E+10	1	-1E+10	1	-1E+10	1
4902624	39	C	07/16/2025	14:29	-129.627	49.116	0	73.20	0	9.0789	0	32.4639	0	25.122	0	72.565	0	206.5	4	72.4	4	-1E+10	1	0.0657	4	0.000414	0	-1E+10	1	-1E+10	1	-1E+10	1
4902624	39	C	07/16/2025	14:29	-129.627	49.116	0	74.20	0	9.0184	0	32.4884	0	25.151	0	73.557	0	204.1	4	71.4	4	-1E+10	1	0.0618	4	0.000379	0	-1E+10	1	-1E+10	1	-1E+10	1
4902624	39	C	07/16/2025	14:29	-129.627	49.116	0	75.00	0	8.9700	0	32.5080	0	25.173	0	74.350	0	-1e10	1	-1e10	1	-1E+10	1	-1e10	1	-1e10	1	-1E+10	1	-1E+10	1	-1E+10	1
4902624	39	C	07/16/2025	14:29	-129.627	49.116	0	75.20	0	8.9632	0	32.5169	0	25.181	0	74.548	0	201.6	4	70.5	4	-1E+10	1	0.0611	4	0.000335	0	-1E+10	1	-1E+10	1	-1E+10	1
4902624	39	C	07/16/2025	14:29	-129.627	49.116	0	76.30	0	8.9258	0	32.5658	0	25.226	0	75.638	0	200.0	4	69.9	4	-1E+10	1	0.0612	4	0.000331	0	-1E+10	1	-1E+10	1	-1E+10	1
4902624	39	C	07/16/2025	14:29	-129.627	49.116	0	77.00	0	8.9020	0	32.5970	0	25.254	0	76.332	0	-1e10	1	-1e10	1	-1E+10	1	-1e10	1	-1e10	1	-1E+10	1	-1E+10	1	-1E+10	1
4902624	39	C	07/16/2025	14:29	-129.627	49.116	0	77.40	0	8.9012	0	32.5992	0	25.255	0	76.728	0	198.6	4	69.4	4	-1E+10	1	0.0522	4	0.000380	0	-1E+10	1	-1E+10	1	-1E+10	1
4902624	39	C	07/16/2025	14:29	-129.627	49.116	0	78.50	0	8.8990	0	32.6053	0	25.261	0	77.819	0	196.9	4	68.8	4	-1E+10	1	0.0584	4	0.000340	0	-1E+10	1	-1E+10	1	-1E+10	1
4902624	39	C	07/16/2025	14:29	-129.627	49.116	0	79.00	0	8.8980	0	32.6080	0	25.263	0	78.314	0	-1e10	1	-1e10	1	-1E+10	1	-1e10	1	-1e10	1	-1E+10	1	-1E+10	1	-1E+10	1
4902624	39	C	07/16/2025	14:29	-129.627	49.116	0	79.60	0	8.8898	0	32.6165	0	25.271	0	78.909	0	194.9	4	68.1	4	-1E+10	1	0.0584	4	0.000423	0	-1E+10	1	-1E+10	1	-1E+10	1
4902624	39	C	07/16/2025	14:29	-129.627	49.116	0	80.70	0	8.8747	0	32.6322	0	25.285	0	79.999	0	192.4	4	67.2	4	-1E+10	1	0.0438	4	0.000376	0	-1E+10	1	-1E+10	1	-1E+10	1
4902624	39	C	07/16/2025	14:29	-129.627	49.116	0	80.90	0	8.8720	0	32.6350	0	25.288	0	80.197	0	-1e10	1	-1e10	1	-1E+10	1	-1e10	1	-1e10	1	-1E+10	1	-1E+10	1	-1E+10	1
4902624	39	C	07/16/2025	14:29	-129.627	49.116	0	81.50	0	8.8579	0	32.6485	0	25.301	0	80.792	0	190.6	4	66.6	4	-1E+10	1	0.0544	4	0.000367	0	-1E+10	1	-1E+10	1	-1E+10	1
4902624	39	C	07/16/2025	14:29	-129.627	49.116	0	82.20	0	8.8414	0	32.6642	0	25.316	0	81.486	0	188.9	4	66.0	4	-1E+10	1	0.0535	4	0.000387	0	-1E+10	1	-1E+10	1	-1E+10	1
4902624	39	C	07/16/2025	14:29	-129.627	49.116	0	82.80	0	8.8273	0	32.6777	0	25.328	0	82.080	0	187.4	4	65.4	4	-1E+10	1	0.0511	4	0.000376	0	-1E+10	1	-1E+10	1	-1E+10	1
4902624	39	C	07/16/2025	14:29	-129.627	49.116	0	82.90	0	8.8250	0	32.6800	0	25.331	0	82.179	0	-1e10	1	-1e10	1	-1E+10	1	-1e10	1	-1e10	1	-1E+10	1	-1E+10	1	-1E+10	1
4902624	39	C	07/16/2025	14:29	-129.627	49.116	0	83.40	0	8.8167	0	32.6888	0	25.339	0	82.675	0	185.8	4	64.8	4	-1E+10	1	0.0594	4	0.000369	0	-1E+10	1	-1E+10	1	-1E+10	1
4902624	39	C	07/16/2025	14:29	-129.627	49.116	0	84.10	0	8.8050	0	32.7011	0	25.350	0	83.369	0	184.0	4	64.2	4	-1E+10	1	0.0699	4	0.000391	0	-1E+10	1	-1E+10	1	-1E+10	1
4902624	39	C	07/16/2025	14:29	-129.627	49.116	0	84.70	0	8.7950	0	32.7117	0	25.360	0	83.963	0	182.0	4	63.5	4	-1E+10	1	0.0456	4	0.000345	0	-1E+10	1	-1E+10	1	-1E+10	1
4902624	39	C	07/16/2025	14:29	-129.627	49.116	0	85.00	0	8.7900	0	32.7170	0	25.365	0	84.261	0	-1e10	1	-1e10	1	-1E+10	1	-1e10	1	-1e10	1	-1E+10	1	-1E+10	1	-1E+10	1
4902624	39	C	07/16/2025	14:29	-129.627	49.116	0	85.40	0	8.7826	0	32.7272	0	25.374	0	84.657	0	179.6	4	62.6	4	-1E+10	1	0.0584	4	0.000376	0	-1E+10	1	-1E+10	1	-1E+10	1
4902624	39	C	07/16/2025	14:29	-129.627	49.116	0	86.10	0	8.7697	0	32.7450	0	25.390	0	85.351	0	177.3	4	61.8	4	-1E+10	1	0.0527	4	0.000385	0	-1E+10	1	-1E+10	1	-1E+10	1
4902624	39	C	07/16/2025	14:29	-129.627	49.116	0	86.80	0	8.7567	0	32.7629	0	25.406	0	86.045	0	174.9	4	61.0	4	-1E+10	1	0.0511	4	0.000348	0	-1E+10	1	-1E+10	1	-1E+10	1
4902624	39	C	07/16/2025	14:29	-129.627	49.116	0	87.00	0	8.7530	0	32.7680	0	25.411	0	86.243	0	-1e10	1	-1e10	1	-1E+10	1	-1e10	1	-1e10	1	-1E+10	1	-1E+10	1	-1E+10	1
4902624	39	C	07/16/2025	14:29	-129.627	49.116	0	87.50	0	8.7332	0	32.7849	0	25.427	0	86.738	0	172.3	4	60.1	4	-1E+10	1	0.0608	4	0.000356	0	-1E+10	1	-1E+10	1	-1E+10	1
4902624	39	C	07/16/2025	14:29	-129.627	49.116	0	88.20	0	8.7056	0	32.8086	0	25.450	0	87.432	0	169.4	4	59.0	4	-1E+10	1	0.0620	4	0.000381	0	-1E+10	1	-1E+10	1	-1E+10	1
4902624	39	C	07/16/2025	14:29	-129.627	49.116	0	88.90	0	8.6779	0	32.8322	0	25.472	0	88.126	0	166.4	4	58.0	4	-1E+10	1	0.0521	4	0.000389	0	-1E+10	1	-1E+10	1	-1E+10	1
4902624	39	C	07/16/2025	14:29	-129.627	49.116	0	89.10	0	8.6700	0	32.8390	0	25.479	0	88.324	0	-1e10	1	-1e10	1	-1E+10	1	-1e10	1	-1e10	1	-1E+10	1	-1E+10	1	-1E+10	1
4902624	39	C	07/16/2025	14:29	-129.627	49.116	0	89.60	0	8.6465	0	32.8615	0	25.500	0	88.820	0	163.7	4	57.0	4	-1E+10	1	0.0487	4	0.000364	0	-1E+10	1	-1E+10	1	-1E+10	1
4902624	39	C	07/16/2025	14:29	-129.627	49.116	0	90.40	0	8.6089	0	32.8975	0	25.534	0	89.613	0	161.3	4	56.1	4	-1E+10	1	0.0599	4	0.000345	0	-1E+10	1	-1E+10	1	-1E+10	1
4902624	39	C	07/16/2025	14:29	-129.627	49.116	0	91.10	0	8.5760	0	32.9290	0	25.564	0	90.306	0	-1e10	1	-1e10	1	-1E+10	1	-1e10	1	-1e10	1	-1E+10	1	-1E+10	1	-1E+10	1
4902624	39	C	07/16/2025	14:29	-129.627	49.116	0	91.20	0	8.5725	0	32.9325	0	25.567	0	90.405	0	159.3	4	55.4	4	-1E+10	1	0.0657	4	0.000364	0	-1E+10	1	-1E+10	1	-1E+10	1
4902624	39	C	07/16/2025	14:29	-129.627	49.116	0	91.90	0	8.5484	0	32.9570	0	25.590	0	91.099	0	157.7	4	54.8	4	-1E+10	1	0.0438	4	0.000364	0	-1E+10	1	-1E+10	1	-1E+10	1
4902624	39	C	07/16/2025	14:29	-129.627	49.116	0	92.70	0	8.5208	0	32.9850	0	25.616	0	91.892	0	155.9	4	54.2	4	-1E+10	1	0.0496	4	0.000345	0	-1E+10	1	-1E+10	1	-1E+10	1
4902624	39	C	07/16/2025	14:29	-129.627	49.116	0	93.10	0	8.5070	0	32.9990	0	25.629	0	92.288	0	-1e10	1	-1e10	1	-1E+10	1	-1e10	1	-1e10	1	-1E+10	1	-1E+10	1	-1E+10	1
4902624	39	C	07/16/2025	14:29	-129.627	49.116	0	93.50	0	8.5060	0	33.0004	0	25.630	0	92.685	0	154.0	4	53.5	4	-1E+10	1	0.0414	4	0.000340	0	-1E+10	1	-1E+10	1	-1E+10	1
4902624	39	C	07/16/2025	14:29	-129.627	49.116	0	94.30	0	8.5040	0	33.0032	0	25.633	0	93.478	0	151.9	4	52.8	4	-1E+10	1	0.0411	4	0.000348	0	-1E+10	1	-1E+10	1	-1E+10	1
4902624	39	C	07/16/2025	14:29	-129.627	49.116	0	95.00	0	8.5022	0	33.0056	0	25.635	0	94.171	0	149.6	4	52.0	4	-1E+10	1	0.0503	4	0.000347	0	-1E+10	1	-1E+10	1	-1E+10	1
4902624	39	C	07/16/2025	14:29	-129.627	49.116	0	95.10	0	8.5020	0	33.0060	0	25.635	0	94.271	0	-1e10	1	-1e10	1	-1E+10	1	-1e10	1	-1e10	1	-1E+10	1	-1E+10	1	-1E+10	1
4902624	39	C	07/16/2025	14:29	-129.627	49.116	0	95.80	0	8.4847	0	33.0388	0	25.664	0	94.964	0	147.0	4	51.1	4	-1E+10	1	0.0540	4	0.000351	0	-1E+10	1	-1E+10	1	-1E+10	1
4902624	39	C	07/16/2025	14:29	-129.627	49.116	0	96.60	0	8.4649	0	33.0763	0	25.696	0	95.757	0	144.4	4	50.1	4	-1E+10	1	0.0447	4	0.000371	0	-1E+10	1	-1E+10	1	-1E+10	1
4902624	39	C	07/16/2025	14:29	-129.627	49.116	0	97.00	0	8.4550	0	33.0950	0	25.712	0	96.154	0	-1e10	1	-1e10	1	-1E+10	1	-1e10	1	-1e10	1	-1E+10	1	-1E+10	1	-1E+10	1
4902624	39	C	07/16/2025	14:29	-129.627	49.116	0	97.50	0	8.4455	0	33.1143	0	25.729	0	96.649	0	142.5	4	49.5	4	-1E+10	1	0.0511	4	0.000342	0	-1E+10	1	-1E+10	1	-1E+10	1
4902624	39	C	07/16/2025	14:29	-129.627	49.116	0	98.40	0	8.4284	0	33.1489	0	25.758	0	97.541	0	141.1	4	49.0	4	-1E+10	1	0.0511	4	0.000352	0	-1E+10	1	-1E+10	1	-1E+10	1
4902624	39	C	07/16/2025	14:29	-129.627	49.116	0	99.00	0	8.4170	0	33.1720	0	25.778	0	98.136	0	-1e10	1	-1e10	1	-1E+10	1	-1e10	1	-1e10	1	-1E+10	1	-1E+10	1	-1E+10	1
4902624	39	C	07/16/2025	14:29	-129.627	49.116	0	99.30	0	8.4150	0	33.1754	0	25.781	0	98.433	0	139.4	4	48.4	4	-1E+10	1	0.0577	4	0.000384	0	-1E+10	1	-1E+10	1	-1E+10	1
4902624	39	C	07/16/2025	14:29	-129.627	49.116	0	100.20	0	8.4092	0	33.1858	0	25.790	0	99.325	0	137.6	4	47.8	4	-1E+10	1	0.0584	4	0.000397	0	-1E+10	1	-1E+10	1	-1E+10	1
4902624	39	C	07/16/2025	14:29	-129.627	49.116	0	101.00	0	8.4040	0	33.1950	0	25.798	0	100.118	0	-1e10	1	-1e10	1	-1E+10	1	-1e10	1	-1e10	1	-1E+10	1	-1E+10	1	-1E+10	1
4902624	39	C	07/16/2025	14:29	-129.627	49.116	0	101.10	0	8.4022	0	33.1964	0	25.800	0	100.217	0	136.0	4	47.2	4	-1E+10	1	0.0482	4	0.000399	0	-1E+10	1	-1E+10	1	-1E+10	1
4902624	39	C	07/16/2025	14:29	-129.627	49.116	0	102.00	0	8.3864	0	33.2088	0	25.812	0	101.109	0	134.2	4	46.6	4	-1E+10	1	0.0478	4	0.000360	0	-1E+10	1	-1E+10	1	-1E+10	1
4902624	39	C	07/16/2025	14:29	-129.627	49.116	0	102.80	0	8.3723	0	33.2199	0	25.823	0	101.902	0	132.1	4	45.8	4	-1E+10	1	0.0511	4	0.000336	0	-1E+10	1	-1E+10	1	-1E+10	1
4902624	39	C	07/16/2025	14:29	-129.627	49.116	0	103.10	0	8.3670	0	33.2240	0	25.827	0	102.199	0	-1e10	1	-1e10	1	-1E+10	1	-1e10	1	-1e10	1	-1E+10	1	-1E+10	1	-1E+10	1
4902624	39	C	07/16/2025	14:29	-129.627	49.116	0	103.80	0	8.3507	0	33.2397	0	25.841	0	102.893	0	130.0	4	45.1	4	-1E+10	1	0.0453	4	0.000361	0	-1E+10	1	-1E+10	1	-1E+10	1
4902624	39	C	07/16/2025	14:29	-129.627	49.116	0	104.80	0	8.3273	0	33.2620	0	25.862	0	103.884	0	127.8	4	44.3	4	-1E+10	1	0.0414	4	0.000364	0	-1E+10	1	-1E+10	1	-1E+10	1
4902624	39	C	07/16/2025	14:29	-129.627	49.116	0	105.20	0	8.3180	0	33.2710	0	25.871	0	104.280	0	-1e10	1	-1e10	1	-1E+10	1	-1e10	1	-1e10	1	-1E+10	1	-1E+10	1	-1E+10	1
4902624	39	C	07/16/2025	14:29	-129.627	49.116	0	105.80	0	8.2954	0	33.2932	0	25.892	0	104.875	0	125.9	4	43.6	4	-1E+10	1	0.0540	4	0.000366	0	-1E+10	1	-1E+10	1	-1E+10	1
4902624	39	C	07/16/2025	14:29	-129.627	49.116	0	106.80	0	8.2578	0	33.3303	0	25.926	0	105.866	0	124.3	4	43.0	4	-1E+10	1	0.0635	4	0.000449	0	-1E+10	1	-1E+10	1	-1E+10	1
4902624	39	C	07/16/2025	14:29	-129.627	49.116	0	106.90	0	8.2540	0	33.3340	0	25.930	0	105.965	0	-1e10	1	-1e10	1	-1E+10	1	-1e10	1	-1e10	1	-1E+10	1	-1E+10	1	-1E+10	1
4902624	39	C	07/16/2025	14:29	-129.627	49.116	0	107.90	0	8.2283	0	33.3664	0	25.959	0	106.956	0	123.1	4	42.6	4	-1E+10	1	0.0511	4	0.000340	0	-1E+10	1	-1E+10	1	-1E+10	1
4902624	39	C	07/16/2025	14:29	-129.627	49.116	0	108.90	0	8.2026	0	33.3988	0	25.988	0	107.947	0	122.2	4	42.3	4	-1E+10	1	0.0511	4	0.000330	0	-1E+10	1	-1E+10	1	-1E+10	1
4902624	39	C	07/16/2025	14:29	-129.627	49.116	0	109.00	0	8.2000	0	33.4020	0	25.991	0	108.046	0	-1e10	1	-1e10	1	-1E+10	1	-1e10	1	-1e10	1	-1E+10	1	-1E+10	1	-1E+10	1
4902624	39	C	07/16/2025	14:29	-129.627	49.116	0	109.90	0	8.1786	0	33.4226	0	26.011	0	108.938	0	121.1	4	41.9	4	-1E+10	1	0.0511	4	0.000357	0	-1E+10	1	-1E+10	1	-1E+10	1
4902624	39	C	07/16/2025	14:29	-129.627	49.116	0	110.80	0	8.1571	0	33.4431	0	26.030	0	109.830	0	120.1	4	41.5	4	-1E+10	1	0.0511	4	0.000381	0	-1E+10	1	-1E+10	1	-1E+10	1
4902624	39	C	07/16/2025	14:29	-129.627	49.116	0	111.10	0	8.1500	0	33.4500	0	26.036	0	110.127	0	-1e10	1	-1e10	1	-1E+10	1	-1e10	1	-1e10	1	-1E+10	1	-1E+10	1	-1E+10	1
4902624	39	C	07/16/2025	14:29	-129.627	49.116	0	111.60	0	8.1405	0	33.4592	0	26.045	0	110.622	0	119.3	4	41.2	4	-1E+10	1	0.0552	4	0.000375	0	-1E+10	1	-1E+10	1	-1E+10	1
4902624	39	C	07/16/2025	14:29	-129.627	49.116	0	112.20	0	8.1292	0	33.4703	0	26.055	0	111.217	0	118.5	4	41.0	4	-1E+10	1	0.0511	4	0.000356	0	-1E+10	1	-1E+10	1	-1E+10	1
4902624	39	C	07/16/2025	14:29	-129.627	49.116	0	113.00	0	8.1140	0	33.4850	0	26.069	0	112.010	0	115.2	4	39.8	4	-1E+10	1	0.0397	4	0.000397	0	-1E+10	1	-1E+10	1	-1E+10	1
4902624	39	C	07/16/2025	14:29	-129.627	49.116	0	113.70	0	8.1042	0	33.4948	0	26.078	0	112.703	0	116.7	4	40.3	4	-1E+10	1	0.0422	4	0.000490	0	-1E+10	1	-1E+10	1	-1E+10	1
4902624	39	C	07/16/2025	14:29	-129.627	49.116	0	114.40	0	8.0944	0	33.5046	0	26.088	0	113.397	0	115.8	4	40.0	4	-1E+10	1	0.0365	4	0.000563	0	-1E+10	1	-1E+10	1	-1E+10	1
4902624	39	C	07/16/2025	14:29	-129.627	49.116	0	115.00	0	8.0860	0	33.5130	0	26.095	0	113.992	0	-1e10	1	-1e10	1	-1E+10	1	-1e10	1	-1e10	1	-1E+10	1	-1E+10	1	-1E+10	1
4902624	39	C	07/16/2025	14:29	-129.627	49.116	0	115.20	0	8.0846	0	33.5146	0	26.097	0	114.190	0	115.0	4	39.7	4	-1E+10	1	0.0438	4	0.001807	0	-1E+10	1	-1E+10	1	-1E+10	1
4902624	39	C	07/16/2025	14:29	-129.627	49.116	0	115.90	0	8.0797	0	33.5202	0	26.102	0	114.883	0	114.2	4	39.5	4	-1E+10	1	0.0438	4	0.000812	0	-1E+10	1	-1E+10	1	-1E+10	1
4902624	39	C	07/16/2025	14:29	-129.627	49.116	0	116.70	0	8.0741	0	33.5266	0	26.108	0	115.676	0	113.4	4	39.2	4	-1E+10	1	0.0487	4	0.000419	0	-1E+10	1	-1E+10	1	-1E+10	1
4902624	39	C	07/16/2025	14:29	-129.627	49.116	0	117.00	0	8.0720	0	33.5290	0	26.110	0	115.973	0	-1e10	1	-1e10	1	-1E+10	1	-1e10	1	-1e10	1	-1E+10	1	-1E+10	1	-1E+10	1
4902624	39	C	07/16/2025	14:29	-129.627	49.116	0	117.50	0	8.0747	0	33.5335	0	26.113	0	116.469	0	112.7	4	38.9	4	-1E+10	1	0.0511	4	0.000406	0	-1E+10	1	-1E+10	1	-1E+10	1
4902624	39	C	07/16/2025	14:29	-129.627	49.116	0	118.20	0	8.0786	0	33.5398	0	26.118	0	117.163	0	112.0	4	38.7	4	-1E+10	1	0.0474	4	0.000369	0	-1E+10	1	-1E+10	1	-1E+10	1
4902624	39	C	07/16/2025	14:29	-129.627	49.116	0	119.00	0	8.0830	0	33.5470	0	26.123	0	117.955	0	108.9	4	37.6	4	-1E+10	1	0.0487	4	0.000340	0	-1E+10	1	-1E+10	1	-1E+10	1
4902624	39	C	07/16/2025	14:29	-129.627	49.116	0	119.80	0	8.0778	0	33.5570	0	26.131	0	118.748	0	110.6	4	38.2	4	-1E+10	1	0.0548	4	0.000378	0	-1E+10	1	-1E+10	1	-1E+10	1
4902624	39	C	07/16/2025	14:29	-129.627	49.116	0	120.60	0	8.0726	0	33.5670	0	26.140	0	119.541	0	110.1	4	38.0	4	-1E+10	1	0.0438	4	0.000349	0	-1E+10	1	-1E+10	1	-1E+10	1
4902624	39	C	07/16/2025	14:29	-129.627	49.116	0	121.00	0	8.0700	0	33.5720	0	26.144	0	119.937	0	-1e10	1	-1e10	1	-1E+10	1	-1e10	1	-1e10	1	-1E+10	1	-1E+10	1	-1E+10	1
4902624	39	C	07/16/2025	14:29	-129.627	49.116	0	121.40	0	8.0666	0	33.5764	0	26.148	0	120.334	0	109.6	4	37.9	4	-1E+10	1	0.0438	4	0.000340	0	-1E+10	1	-1E+10	1	-1E+10	1
4902624	39	C	07/16/2025	14:29	-129.627	49.116	0	122.30	0	8.0591	0	33.5864	0	26.157	0	121.225	0	109.2	4	37.7	4	-1E+10	1	0.0569	4	0.000340	0	-1E+10	1	-1E+10	1	-1E+10	1
4902624	39	C	07/16/2025	14:29	-129.627	49.116	0	122.90	0	8.0540	0	33.5930	0	26.163	0	121.820	0	-1e10	1	-1e10	1	-1E+10	1	-1e10	1	-1e10	1	-1E+10	1	-1E+10	1	-1E+10	1
4902624	39	C	07/16/2025	14:29	-129.627	49.116	0	123.10	0	8.0535	0	33.5938	0	26.164	0	122.018	0	108.6	4	37.5	4	-1E+10	1	0.0520	4	0.000350	0	-1E+10	1	-1E+10	1	-1E+10	1
4902624	39	C	07/16/2025	14:29	-129.627	49.116	0	123.90	0	8.0516	0	33.5968	0	26.166	0	122.811	0	108.0	4	37.3	4	-1E+10	1	0.0460	4	0.000376	0	-1E+10	1	-1E+10	1	-1E+10	1
4902624	39	C	07/16/2025	14:29	-129.627	49.116	0	124.70	0	8.0497	0	33.5999	0	26.169	0	123.604	0	107.3	4	37.0	4	-1E+10	1	0.0438	4	0.000358	0	-1E+10	1	-1E+10	1	-1E+10	1
4902624	39	C	07/16/2025	14:29	-129.627	49.116	0	125.00	0	8.0490	0	33.6010	0	26.170	0	123.901	0	-1e10	1	-1e10	1	-1E+10	1	-1e10	1	-1e10	1	-1E+10	1	-1E+10	1	-1E+10	1
4902624	39	C	07/16/2025	14:29	-129.627	49.116	0	125.60	0	8.0430	0	33.6070	0	26.176	0	124.495	0	106.5	4	36.8	4	-1E+10	1	0.0438	4	0.000339	0	-1E+10	1	-1E+10	1	-1E+10	1
4902624	39	C	07/16/2025	14:29	-129.627	49.116	0	126.40	0	8.0350	0	33.6150	0	26.183	0	125.288	0	105.8	4	36.5	4	-1E+10	1	0.0438	4	0.000630	0	-1E+10	1	-1E+10	1	-1E+10	1
4902624	39	C	07/16/2025	14:29	-129.627	49.116	0	127.00	0	8.0290	0	33.6210	0	26.189	0	125.883	0	-1e10	1	-1e10	1	-1E+10	1	-1e10	1	-1e10	1	-1E+10	1	-1E+10	1	-1E+10	1
4902624	39	C	07/16/2025	14:29	-129.627	49.116	0	127.30	0	8.0197	0	33.6273	0	26.195	0	126.180	0	105.2	4	36.3	4	-1E+10	1	0.0453	4	0.001281	0	-1E+10	1	-1E+10	1	-1E+10	1
4902624	39	C	07/16/2025	14:29	-129.627	49.116	0	128.20	0	7.9918	0	33.6462	0	26.214	0	127.072	0	104.9	4	36.2	4	-1E+10	1	0.0584	4	0.000457	0	-1E+10	1	-1E+10	1	-1E+10	1
4902624	39	C	07/16/2025	14:29	-129.627	49.116	0	129.00	0	7.9670	0	33.6630	0	26.231	0	127.864	0	-1e10	1	-1e10	1	-1E+10	1	-1e10	1	-1e10	1	-1E+10	1	-1E+10	1	-1E+10	1
4902624	39	C	07/16/2025	14:29	-129.627	49.116	0	129.20	0	7.9652	0	33.6640	0	26.232	0	128.063	0	104.6	4	36.1	4	-1E+10	1	0.0730	4	0.000375	0	-1E+10	1	-1E+10	1	-1E+10	1
4902624	39	C	07/16/2025	14:29	-129.627	49.116	0	130.10	0	7.9571	0	33.6685	0	26.237	0	128.954	0	104.3	4	36.0	4	-1E+10	1	0.0551	4	0.000366	0	-1E+10	1	-1E+10	1	-1E+10	1
4902624	39	C	07/16/2025	14:29	-129.627	49.116	0	131.00	0	7.9490	0	33.6730	0	26.241	0	129.846	0	-1e10	1	-1e10	1	-1E+10	1	-1e10	1	-1e10	1	-1E+10	1	-1E+10	1	-1E+10	1
4902624	39	C	07/16/2025	14:29	-129.627	49.116	0	131.10	0	7.9481	0	33.6733	0	26.242	0	129.945	0	104.0	4	35.9	4	-1E+10	1	0.0414	4	0.000363	0	-1E+10	1	-1E+10	1	-1E+10	1
4902624	39	C	07/16/2025	14:29	-129.627	49.116	0	132.00	0	7.9401	0	33.6762	0	26.245	0	130.837	0	103.6	4	35.7	4	-1E+10	1	0.0487	4	0.000409	0	-1E+10	1	-1E+10	1	-1E+10	1
4902624	39	C	07/16/2025	14:29	-129.627	49.116	0	132.90	0	7.9320	0	33.6790	0	26.249	0	131.729	0	-1e10	1	-1e10	1	-1E+10	1	-1e10	1	-1e10	1	-1E+10	1	-1E+10	1	-1E+10	1
4902624	39	C	07/16/2025	14:29	-129.627	49.116	0	133.00	0	7.9306	0	33.6797	0	26.249	0	131.828	0	103.3	4	35.6	4	-1E+10	1	0.0584	4	0.000457	0	-1E+10	1	-1E+10	1	-1E+10	1
4902624	39	C	07/16/2025	14:29	-129.627	49.116	0	134.00	0	7.9168	0	33.6869	0	26.257	0	132.819	0	102.9	4	35.4	4	-1E+10	1	0.0535	4	0.000430	0	-1E+10	1	-1E+10	1	-1E+10	1
4902624	39	C	07/16/2025	14:29	-129.627	49.116	0	134.90	0	7.9044	0	33.6933	0	26.264	0	133.711	0	102.6	4	35.3	4	-1E+10	1	0.0454	4	0.000354	0	-1E+10	1	-1E+10	1	-1E+10	1
4902624	39	C	07/16/2025	14:29	-129.627	49.116	0	135.00	0	7.9030	0	33.6940	0	26.265	0	133.810	0	-1e10	1	-1e10	1	-1E+10	1	-1e10	1	-1e10	1	-1E+10	1	-1E+10	1	-1E+10	1
4902624	39	C	07/16/2025	14:29	-129.627	49.116	0	135.90	0	7.8872	0	33.7030	0	26.274	0	134.701	0	102.3	4	35.2	4	-1E+10	1	0.0572	4	0.000375	0	-1E+10	1	-1E+10	1	-1E+10	1
4902624	39	C	07/16/2025	14:29	-129.627	49.116	0	136.90	0	7.8698	0	33.7130	0	26.284	0	135.692	0	102.1	4	35.2	4	-1E+10	1	0.0511	4	0.000375	0	-1E+10	1	-1E+10	1	-1E+10	1
4902624	39	C	07/16/2025	14:29	-129.627	49.116	0	137.00	0	7.8680	0	33.7140	0	26.285	0	135.791	0	-1e10	1	-1e10	1	-1E+10	1	-1e10	1	-1e10	1	-1E+10	1	-1E+10	1	-1E+10	1
4902624	39	C	07/16/2025	14:29	-129.627	49.116	0	137.90	0	7.8572	0	33.7181	0	26.290	0	136.683	0	101.9	4	35.1	4	-1E+10	1	0.0572	4	0.000365	0	-1E+10	1	-1E+10	1	-1E+10	1
4902624	39	C	07/16/2025	14:29	-129.627	49.116	0	138.80	0	7.8464	0	33.7221	0	26.295	0	137.575	0	101.6	4	35.0	4	-1E+10	1	0.0470	4	0.000382	0	-1E+10	1	-1E+10	1	-1E+10	1
4902624	39	C	07/16/2025	14:29	-129.627	49.116	0	139.00	0	7.8440	0	33.7230	0	26.296	0	137.773	0	-1e10	1	-1e10	1	-1E+10	1	-1e10	1	-1e10	1	-1E+10	1	-1E+10	1	-1E+10	1
4902624	39	C	07/16/2025	14:29	-129.627	49.116	0	139.80	0	7.8364	0	33.7257	0	26.299	0	138.566	0	101.2	4	34.8	4	-1E+10	1	0.0487	4	0.000418	0	-1E+10	1	-1E+10	1	-1E+10	1
4902624	39	C	07/16/2025	14:29	-129.627	49.116	0	140.80	0	7.8269	0	33.7290	0	26.303	0	139.557	0	100.9	4	34.7	4	-1E+10	1	0.0511	4	0.000428	0	-1E+10	1	-1E+10	1	-1E+10	1
4902624	39	C	07/16/2025	14:29	-129.627	49.116	0	141.10	0	7.8240	0	33.7300	0	26.304	0	139.854	0	-1e10	1	-1e10	1	-1E+10	1	-1e10	1	-1e10	1	-1E+10	1	-1E+10	1	-1E+10	1
4902624	39	C	07/16/2025	14:29	-129.627	49.116	0	141.70	0	7.8183	0	33.7335	0	26.308	0	140.448	0	100.5	4	34.6	4	-1E+10	1	0.0535	4	0.000426	0	-1E+10	1	-1E+10	1	-1E+10	1
4902624	39	C	07/16/2025	14:29	-129.627	49.116	0	142.70	0	7.8088	0	33.7393	0	26.314	0	141.439	0	100.2	4	34.4	4	-1E+10	1	0.0560	4	0.000414	0	-1E+10	1	-1E+10	1	-1E+10	1
4902624	39	C	07/16/2025	14:29	-129.627	49.116	0	143.00	0	7.8060	0	33.7410	0	26.316	0	141.736	0	-1e10	1	-1e10	1	-1E+10	1	-1e10	1	-1e10	1	-1E+10	1	-1E+10	1	-1E+10	1
4902624	39	C	07/16/2025	14:29	-129.627	49.116	0	143.70	0	7.8033	0	33.7423	0	26.317	0	142.430	0	99.8	4	34.3	4	-1E+10	1	0.0511	4	0.000422	0	-1E+10	1	-1E+10	1	-1E+10	1
4902624	39	C	07/16/2025	14:29	-129.627	49.116	0	144.70	0	7.7995	0	33.7442	0	26.319	0	143.421	0	99.5	4	34.2	4	-1E+10	1	0.0511	4	0.000657	0	-1E+10	1	-1E+10	1	-1E+10	1
4902624	39	C	07/16/2025	14:29	-129.627	49.116	0	145.10	0	7.7980	0	33.7450	0	26.320	0	143.817	0	-1e10	1	-1e10	1	-1E+10	1	-1e10	1	-1e10	1	-1E+10	1	-1E+10	1	-1E+10	1
4902624	39	C	07/16/2025	14:29	-129.627	49.116	0	145.60	0	7.7957	0	33.7460	0	26.321	0	144.313	0	99.1	4	34.1	4	-1E+10	1	0.0657	4	0.000363	0	-1E+10	1	-1E+10	1	-1E+10	1
4902624	39	C	07/16/2025	14:29	-129.627	49.116	0	146.60	0	7.7913	0	33.7480	0	26.323	0	145.303	0	98.7	4	33.9	4	-1E+10	1	0.0414	4	0.000637	0	-1E+10	1	-1E+10	1	-1E+10	1
4902624	39	C	07/16/2025	14:29	-129.627	49.116	0	147.10	0	7.7890	0	33.7490	0	26.325	0	145.799	0	-1e10	1	-1e10	1	-1E+10	1	-1e10	1	-1e10	1	-1E+10	1	-1E+10	1	-1E+10	1
4902624	39	C	07/16/2025	14:29	-129.627	49.116	0	147.60	0	7.7848	0	33.7516	0	26.327	0	146.294	0	98.3	4	33.8	4	-1E+10	1	0.0471	4	0.002142	0	-1E+10	1	-1E+10	1	-1E+10	1
4902624	39	C	07/16/2025	14:29	-129.627	49.116	0	148.50	0	7.7772	0	33.7564	0	26.332	0	147.186	0	97.9	4	33.7	4	-1E+10	1	0.0511	4	0.001335	0	-1E+10	1	-1E+10	1	-1E+10	1
4902624	39	C	07/16/2025	14:29	-129.627	49.116	0	149.00	0	7.7730	0	33.7590	0	26.335	0	147.681	0	-1e10	1	-1e10	1	-1E+10	1	-1e10	1	-1e10	1	-1E+10	1	-1E+10	1	-1E+10	1
4902624	39	C	07/16/2025	14:29	-129.627	49.116	0	149.50	0	7.7690	0	33.7620	0	26.338	0	148.177	0	97.7	4	33.6	4	-1E+10	1	0.0548	4	0.000398	0	-1E+10	1	-1E+10	1	-1E+10	1
4902624	39	C	07/16/2025	14:29	-129.627	49.116	0	150.40	0	7.7618	0	33.7674	0	26.343	0	149.068	0	97.5	4	33.5	4	-1E+10	1	0.0584	4	0.000363	0	-1E+10	1	-1E+10	1	-1E+10	1
4902624	39	C	07/16/2025	14:29	-129.627	49.116	0	151.00	0	7.7570	0	33.7710	0	26.347	0	149.663	0	-1e10	1	-1e10	1	-1E+10	1	-1e10	1	-1e10	1	-1E+10	1	-1E+10	1	-1E+10	1
4902624	39	C	07/16/2025	14:29	-129.627	49.116	0	151.40	0	7.7560	0	33.7718	0	26.347	0	150.059	0	97.4	4	33.4	4	-1E+10	1	0.0584	4	0.000363	0	-1E+10	1	-1E+10	1	-1E+10	1
4902624	39	C	07/16/2025	14:29	-129.627	49.116	0	152.30	0	7.7537	0	33.7736	0	26.349	0	150.951	0	97.2	4	33.4	4	-1E+10	1	0.0531	4	0.000370	0	-1E+10	1	-1E+10	1	-1E+10	1
4902624	39	C	07/16/2025	14:29	-129.627	49.116	0	153.00	0	7.7520	0	33.7750	0	26.350	0	151.644	0	-1e10	1	-1e10	1	-1E+10	1	-1e10	1	-1e10	1	-1E+10	1	-1E+10	1	-1E+10	1
4902624	39	C	07/16/2025	14:29	-129.627	49.116	0	153.20	0	7.7507	0	33.7758	0	26.351	0	151.843	0	97.1	4	33.3	4	-1E+10	1	0.0292	4	0.000398	0	-1E+10	1	-1E+10	1	-1E+10	1
4902624	39	C	07/16/2025	14:29	-129.627	49.116	0	154.10	0	7.7447	0	33.7792	0	26.355	0	152.734	0	96.9	4	33.3	4	-1E+10	1	0.0471	4	0.000446	0	-1E+10	1	-1E+10	1	-1E+10	1
4902624	39	C	07/16/2025	14:29	-129.627	49.116	0	155.00	0	7.7387	0	33.7826	0	26.358	0	153.626	0	96.7	4	33.2	4	-1E+10	1	0.0454	4	0.000621	0	-1E+10	1	-1E+10	1	-1E+10	1
4902624	39	C	07/16/2025	14:29	-129.627	49.116	0	155.10	0	7.7380	0	33.7830	0	26.359	0	153.725	0	-1e10	1	-1e10	1	-1E+10	1	-1e10	1	-1e10	1	-1E+10	1	-1E+10	1	-1E+10	1
4902624	39	C	07/16/2025	14:29	-129.627	49.116	0	156.00	0	7.7285	0	33.7873	0	26.364	0	154.617	0	96.7	4	33.2	4	-1E+10	1	0.0491	4	0.000446	0	-1E+10	1	-1E+10	1	-1E+10	1
4902624	39	C	07/16/2025	14:29	-129.627	49.116	0	156.90	0	7.7191	0	33.7915	0	26.368	0	155.508	0	96.7	4	33.2	4	-1E+10	1	0.0551	4	0.000382	0	-1E+10	1	-1E+10	1	-1E+10	1
4902624	39	C	07/16/2025	14:29	-129.627	49.116	0	157.00	0	7.7180	0	33.7920	0	26.369	0	155.607	0	-1e10	1	-1e10	1	-1E+10	1	-1e10	1	-1e10	1	-1E+10	1	-1E+10	1	-1E+10	1
4902624	39	C	07/16/2025	14:29	-129.627	49.116	0	157.80	0	7.7072	0	33.7944	0	26.372	0	156.400	0	96.6	4	33.2	4	-1E+10	1	0.0496	4	0.000380	0	-1E+10	1	-1E+10	1	-1E+10	1
4902624	39	C	07/16/2025	14:29	-129.627	49.116	0	158.70	0	7.6950	0	33.7971	0	26.376	0	157.292	0	96.6	4	33.2	4	-1E+10	1	0.0387	4	0.000366	0	-1E+10	1	-1E+10	1	-1E+10	1
4902624	39	C	07/16/2025	14:29	-129.627	49.116	0	159.00	0	7.6910	0	33.7980	0	26.377	0	157.589	0	-1e10	1	-1e10	1	-1E+10	1	-1e10	1	-1e10	1	-1E+10	1	-1E+10	1	-1E+10	1
4902624	39	C	07/16/2025	14:29	-129.627	49.116	0	159.60	0	7.6853	0	33.7986	0	26.379	0	158.183	0	96.6	4	33.2	4	-1E+10	1	0.0451	4	0.000401	0	-1E+10	1	-1E+10	1	-1E+10	1
4902624	39	C	07/16/2025	14:29	-129.627	49.116	0	160.50	0	7.6768	0	33.7995	0	26.381	0	159.075	0	96.5	4	33.1	4	-1E+10	1	0.0511	4	0.000410	0	-1E+10	1	-1E+10	1	-1E+10	1
4902624	39	C	07/16/2025	14:29	-129.627	49.116	0	161.00	0	7.6720	0	33.8000	0	26.382	0	159.570	0	-1e10	1	-1e10	1	-1E+10	1	-1e10	1	-1e10	1	-1E+10	1	-1E+10	1	-1E+10	1
4902624	39	C	07/16/2025	14:29	-129.627	49.116	0	161.40	0	7.6693	0	33.8008	0	26.383	0	159.967	0	96.4	4	33.1	4	-1E+10	1	0.0511	4	0.000375	0	-1E+10	1	-1E+10	1	-1E+10	1
4902624	39	C	07/16/2025	14:29	-129.627	49.116	0	162.30	0	7.6631	0	33.8027	0	26.385	0	160.858	0	96.4	4	33.1	4	-1E+10	1	0.0438	4	0.000727	0	-1E+10	1	-1E+10	1	-1E+10	1
4902624	39	C	07/16/2025	14:29	-129.627	49.116	0	162.90	0	7.6590	0	33.8040	0	26.387	0	161.453	0	-1e10	1	-1e10	1	-1E+10	1	-1e10	1	-1e10	1	-1E+10	1	-1E+10	1	-1E+10	1
4902624	39	C	07/16/2025	14:29	-129.627	49.116	0	163.20	0	7.6566	0	33.8046	0	26.388	0	161.750	0	96.4	4	33.0	4	-1E+10	1	0.0569	4	0.000463	0	-1E+10	1	-1E+10	1	-1E+10	1
4902624	39	C	07/16/2025	14:29	-129.627	49.116	0	164.00	0	7.6501	0	33.8061	0	26.390	0	162.543	0	96.3	4	33.0	4	-1E+10	1	0.0584	4	0.000379	0	-1E+10	1	-1E+10	1	-1E+10	1
4902624	39	C	07/16/2025	14:29	-129.627	49.116	0	164.90	0	7.6428	0	33.8078	0	26.392	0	163.434	0	96.3	4	33.0	4	-1E+10	1	0.0491	4	0.000415	0	-1E+10	1	-1E+10	1	-1E+10	1
4902624	39	C	07/16/2025	14:29	-129.627	49.116	0	165.00	0	7.6420	0	33.8080	0	26.392	0	163.533	0	-1e10	1	-1e10	1	-1E+10	1	-1e10	1	-1e10	1	-1E+10	1	-1E+10	1	-1E+10	1
4902624	39	C	07/16/2025	14:29	-129.627	49.116	0	165.80	0	7.6308	0	33.8096	0	26.395	0	164.326	0	96.3	4	33.0	4	-1E+10	1	0.0474	4	0.000422	0	-1E+10	1	-1E+10	1	-1E+10	1
4902624	39	C	07/16/2025	14:29	-129.627	49.116	0	166.60	0	7.6196	0	33.8112	0	26.398	0	165.118	0	96.2	4	32.9	4	-1E+10	1	0.0511	4	0.000387	0	-1E+10	1	-1E+10	1	-1E+10	1
4902624	39	C	07/16/2025	14:29	-129.627	49.116	0	167.00	0	7.6140	0	33.8120	0	26.400	0	165.515	0	-1e10	1	-1e10	1	-1E+10	1	-1e10	1	-1e10	1	-1E+10	1	-1E+10	1	-1E+10	1
4902624	39	C	07/16/2025	14:29	-129.627	49.116	0	167.50	0	7.6053	0	33.8136	0	26.402	0	166.010	0	96.0	4	32.9	4	-1E+10	1	0.0511	4	0.000363	0	-1E+10	1	-1E+10	1	-1E+10	1
4902624	39	C	07/16/2025	14:29	-129.627	49.116	0	168.30	0	7.5914	0	33.8161	0	26.406	0	166.803	0	95.9	4	32.8	4	-1E+10	1	0.0511	4	0.000367	0	-1E+10	1	-1E+10	1	-1E+10	1
4902624	39	C	07/16/2025	14:29	-129.627	49.116	0	168.90	0	7.5810	0	33.8180	0	26.409	0	167.397	0	-1e10	1	-1e10	1	-1E+10	1	-1e10	1	-1e10	1	-1E+10	1	-1E+10	1	-1E+10	1
4902624	39	C	07/16/2025	14:29	-129.627	49.116	0	169.20	0	7.5769	0	33.8193	0	26.411	0	167.694	0	95.8	4	32.8	4	-1E+10	1	0.0511	4	0.000398	0	-1E+10	1	-1E+10	1	-1E+10	1
4902624	39	C	07/16/2025	14:29	-129.627	49.116	0	170.10	0	7.5644	0	33.8231	0	26.415	0	168.586	0	95.8	4	32.8	4	-1E+10	1	0.0511	4	0.000398	0	-1E+10	1	-1E+10	1	-1E+10	1
4902624	39	C	07/16/2025	14:29	-129.627	49.116	0	170.90	0	7.5534	0	33.8266	0	26.420	0	169.378	0	95.9	4	32.8	4	-1E+10	1	0.0511	4	0.000379	0	-1E+10	1	-1E+10	1	-1E+10	1
4902624	39	C	07/16/2025	14:29	-129.627	49.116	0	171.00	0	7.5520	0	33.8270	0	26.420	0	169.478	0	-1e10	1	-1e10	1	-1E+10	1	-1e10	1	-1e10	1	-1E+10	1	-1E+10	1	-1E+10	1
4902624	39	C	07/16/2025	14:29	-129.627	49.116	0	171.80	0	7.5404	0	33.8282	0	26.423	0	170.270	0	95.9	4	32.8	4	-1E+10	1	0.0511	4	0.000391	0	-1E+10	1	-1E+10	1	-1E+10	1
4902624	39	C	07/16/2025	14:29	-129.627	49.116	0	172.70	0	7.5273	0	33.8296	0	26.426	0	171.162	0	95.9	4	32.8	4	-1E+10	1	0.0462	4	0.000391	0	-1E+10	1	-1E+10	1	-1E+10	1
4902624	39	C	07/16/2025	14:29	-129.627	49.116	0	173.00	0	7.5230	0	33.8300	0	26.427	0	171.459	0	-1e10	1	-1e10	1	-1E+10	1	-1e10	1	-1e10	1	-1E+10	1	-1E+10	1	-1E+10	1
4902624	39	C	07/16/2025	14:29	-129.627	49.116	0	173.50	0	7.5173	0	33.8300	0	26.428	0	171.954	0	95.7	4	32.7	4	-1E+10	1	0.0438	4	0.000422	0	-1E+10	1	-1E+10	1	-1E+10	1
4902624	39	C	07/16/2025	14:29	-129.627	49.116	0	174.40	0	7.5069	0	33.8300	0	26.429	0	172.846	0	95.5	4	32.7	4	-1E+10	1	0.0467	4	0.000429	0	-1E+10	1	-1E+10	1	-1E+10	1
4902624	39	C	07/16/2025	14:29	-129.627	49.116	0	175.00	0	7.5000	0	33.8300	0	26.430	0	173.440	0	-1e10	1	-1e10	1	-1E+10	1	-1e10	1	-1e10	1	-1E+10	1	-1E+10	1	-1E+10	1
4902624	39	C	07/16/2025	14:29	-129.627	49.116	0	175.20	0	7.4942	0	33.8308	0	26.432	0	173.638	0	95.2	4	32.5	4	-1E+10	1	0.0479	4	0.000384	0	-1E+10	1	-1E+10	1	-1E+10	1
4902624	39	C	07/16/2025	14:29	-129.627	49.116	0	176.00	0	7.4711	0	33.8342	0	26.437	0	174.431	0	94.9	4	32.4	4	-1E+10	1	0.0380	4	0.000384	0	-1E+10	1	-1E+10	1	-1E+10	1
4902624	39	C	07/16/2025	14:29	-129.627	49.116	0	176.90	0	7.4450	0	33.8380	0	26.444	0	175.322	0	92.3	4	31.5	4	-1E+10	1	0.0511	4	0.000469	0	-1E+10	1	-1E+10	1	-1E+10	1
4902624	39	C	07/16/2025	14:29	-129.627	49.116	0	177.70	0	7.4378	0	33.8403	0	26.447	0	176.115	0	94.1	4	32.1	4	-1E+10	1	0.0453	4	0.000450	0	-1E+10	1	-1E+10	1	-1E+10	1
4902624	39	C	07/16/2025	14:29	-129.627	49.116	0	178.60	0	7.4296	0	33.8429	0	26.450	0	177.007	0	93.7	4	32.0	4	-1E+10	1	0.0438	4	0.000384	0	-1E+10	1	-1E+10	1	-1E+10	1
4902624	39	C	07/16/2025	14:29	-129.627	49.116	0	179.00	0	7.4260	0	33.8440	0	26.452	0	177.403	0	-1e10	1	-1e10	1	-1E+10	1	-1e10	1	-1e10	1	-1E+10	1	-1E+10	1	-1E+10	1
4902624	39	C	07/16/2025	14:29	-129.627	49.116	0	179.40	0	7.4226	0	33.8451	0	26.453	0	177.799	0	93.3	4	31.8	4	-1E+10	1	0.0438	4	0.000405	0	-1E+10	1	-1E+10	1	-1E+10	1
4902624	39	C	07/16/2025	14:29	-129.627	49.116	0	180.30	0	7.4149	0	33.8477	0	26.456	0	178.691	0	93.0	4	31.7	4	-1E+10	1	0.0511	4	0.000416	0	-1E+10	1	-1E+10	1	-1E+10	1
4902624	39	C	07/16/2025	14:29	-129.627	49.116	0	181.10	0	7.4080	0	33.8500	0	26.459	0	179.483	0	90.4	4	30.8	4	-1E+10	1	0.0557	4	0.000406	0	-1E+10	1	-1E+10	1	-1E+10	1
4902624	39	C	07/16/2025	14:29	-129.627	49.116	0	181.90	0	7.4068	0	33.8524	0	26.461	0	180.276	0	92.3	4	31.5	4	-1E+10	1	0.0511	4	0.000398	0	-1E+10	1	-1E+10	1	-1E+10	1
4902624	39	C	07/16/2025	14:29	-129.627	49.116	0	182.80	0	7.4055	0	33.8551	0	26.463	0	181.167	0	92.0	4	31.4	4	-1E+10	1	0.0496	4	0.000417	0	-1E+10	1	-1E+10	1	-1E+10	1
4902624	39	C	07/16/2025	14:29	-129.627	49.116	0	183.10	0	7.4050	0	33.8560	0	26.464	0	181.464	0	-1e10	1	-1e10	1	-1E+10	1	-1e10	1	-1e10	1	-1E+10	1	-1E+10	1	-1E+10	1
4902624	39	C	07/16/2025	14:29	-129.627	49.116	0	183.60	0	7.3992	0	33.8576	0	26.466	0	181.960	0	91.8	4	31.3	4	-1E+10	1	0.0438	4	0.000492	0	-1E+10	1	-1E+10	1	-1E+10	1
4902624	39	C	07/16/2025	14:29	-129.627	49.116	0	184.50	0	7.3888	0	33.8604	0	26.470	0	182.851	0	91.5	4	31.2	4	-1E+10	1	0.0511	4	0.000422	0	-1E+10	1	-1E+10	1	-1E+10	1
4902624	39	C	07/16/2025	14:29	-129.627	49.116	0	185.00	0	7.3830	0	33.8620	0	26.472	0	183.347	0	-1e10	1	-1e10	1	-1E+10	1	-1e10	1	-1e10	1	-1E+10	1	-1E+10	1	-1E+10	1
4902624	39	C	07/16/2025	14:29	-129.627	49.116	0	185.30	0	7.3804	0	33.8624	0	26.473	0	183.644	0	91.2	4	31.1	4	-1E+10	1	0.0453	4	0.000365	0	-1E+10	1	-1E+10	1	-1E+10	1
4902624	39	C	07/16/2025	14:29	-129.627	49.116	0	186.20	0	7.3728	0	33.8638	0	26.475	0	184.535	0	90.9	4	31.0	4	-1E+10	1	0.0531	4	0.000366	0	-1E+10	1	-1E+10	1	-1E+10	1
4902624	39	C	07/16/2025	14:29	-129.627	49.116	0	187.00	0	7.3660	0	33.8650	0	26.477	0	185.328	0	-1e10	1	-1e10	1	-1E+10	1	-1e10	1	-1e10	1	-1E+10	1	-1E+10	1	-1E+10	1
4902624	39	C	07/16/2025	14:29	-129.627	49.116	0	187.10	0	7.3654	0	33.8653	0	26.477	0	185.427	0	90.6	4	30.9	4	-1E+10	1	0.0543	4	0.000446	0	-1E+10	1	-1E+10	1	-1E+10	1
4902624	39	C	07/16/2025	14:29	-129.627	49.116	0	188.00	0	7.3600	0	33.8680	0	26.480	0	186.319	0	90.3	4	30.8	4	-1E+10	1	0.0511	4	0.000477	0	-1E+10	1	-1E+10	1	-1E+10	1
4902624	39	C	07/16/2025	14:29	-129.627	49.116	0	188.90	0	7.3546	0	33.8707	0	26.483	0	187.210	0	90.0	4	30.6	4	-1E+10	1	0.0511	4	0.000705	0	-1E+10	1	-1E+10	1	-1E+10	1
4902624	39	C	07/16/2025	14:29	-129.627	49.116	0	189.00	0	7.3540	0	33.8710	0	26.483	0	187.309	0	-1e10	1	-1e10	1	-1E+10	1	-1e10	1	-1e10	1	-1E+10	1	-1E+10	1	-1E+10	1
4902624	39	C	07/16/2025	14:29	-129.627	49.116	0	189.80	0	7.3324	0	33.8742	0	26.489	0	188.102	0	89.6	4	30.5	4	-1E+10	1	0.0495	4	0.001112	0	-1E+10	1	-1E+10	1	-1E+10	1
4902624	39	C	07/16/2025	14:29	-129.627	49.116	0	190.70	0	7.3081	0	33.8778	0	26.495	0	188.993	0	89.3	4	30.4	4	-1E+10	1	0.0438	4	0.000399	0	-1E+10	1	-1E+10	1	-1E+10	1
4902624	39	C	07/16/2025	14:29	-129.627	49.116	0	191.00	0	7.3000	0	33.8790	0	26.497	0	189.290	0	-1e10	1	-1e10	1	-1E+10	1	-1e10	1	-1e10	1	-1E+10	1	-1E+10	1	-1E+10	1
4902624	39	C	07/16/2025	14:29	-129.627	49.116	0	191.60	0	7.2911	0	33.8801	0	26.499	0	189.885	0	89.0	4	30.3	4	-1E+10	1	0.0438	4	0.000351	0	-1E+10	1	-1E+10	1	-1E+10	1
4902624	39	C	07/16/2025	14:29	-129.627	49.116	0	192.50	0	7.2779	0	33.8819	0	26.502	0	190.776	0	88.7	4	30.2	4	-1E+10	1	0.0438	4	0.001532	0	-1E+10	1	-1E+10	1	-1E+10	1
4902624	39	C	07/16/2025	14:29	-129.627	49.116	0	193.10	0	7.2690	0	33.8830	0	26.504	0	191.371	0	-1e10	1	-1e10	1	-1E+10	1	-1e10	1	-1e10	1	-1E+10	1	-1E+10	1	-1E+10	1
4902624	39	C	07/16/2025	14:29	-129.627	49.116	0	193.40	0	7.2641	0	33.8836	0	26.506	0	191.668	0	88.5	4	30.1	4	-1E+10	1	0.0552	4	0.000863	0	-1E+10	1	-1E+10	1	-1E+10	1
4902624	39	C	07/16/2025	14:29	-129.627	49.116	0	194.30	0	7.2494	0	33.8855	0	26.509	0	192.559	0	88.2	4	30.0	4	-1E+10	1	0.0538	4	0.000463	0	-1E+10	1	-1E+10	1	-1E+10	1
4902624	39	C	07/16/2025	14:29	-129.627	49.116	0	195.00	0	7.2380	0	33.8870	0	26.512	0	193.253	0	-1e10	1	-1e10	1	-1E+10	1	-1e10	1	-1e10	1	-1E+10	1	-1E+10	1	-1E+10	1
4902624	39	C	07/16/2025	14:29	-129.627	49.116	0	195.20	0	7.2341	0	33.8875	0	26.513	0	193.451	0	88.1	4	29.9	4	-1E+10	1	0.0544	4	0.001298	0	-1E+10	1	-1E+10	1	-1E+10	1
4902624	39	C	07/16/2025	14:29	-129.627	49.116	0	196.10	0	7.2165	0	33.8896	0	26.517	0	194.342	0	87.9	4	29.9	4	-1E+10	1	0.0560	4	0.001724	0	-1E+10	1	-1E+10	1	-1E+10	1
4902624	39	C	07/16/2025	14:29	-129.627	49.116	0	197.00	0	7.1990	0	33.8918	0	26.521	0	195.234	0	87.7	4	29.8	4	-1E+10	1	0.0531	4	0.000389	0	-1E+10	1	-1E+10	1	-1E+10	1
4902624	39	C	07/16/2025	14:29	-129.627	49.116	0	197.10	0	7.1970	0	33.8920	0	26.522	0	195.333	0	-1e10	1	-1e10	1	-1E+10	1	-1e10	1	-1e10	1	-1E+10	1	-1E+10	1	-1E+10	1
4902624	39	C	07/16/2025	14:29	-129.627	49.116	0	197.90	0	7.1882	0	33.8924	0	26.523	0	196.125	0	87.6	4	29.7	4	-1E+10	1	0.0571	4	0.000398	0	-1E+10	1	-1E+10	1	-1E+10	1
4902624	39	C	07/16/2025	14:29	-129.627	49.116	0	198.90	0	7.1771	0	33.8929	0	26.525	0	197.116	0	87.4	4	29.7	4	-1E+10	1	0.0438	4	0.000398	0	-1E+10	1	-1E+10	1	-1E+10	1
4902624	39	C	07/16/2025	14:29	-129.627	49.116	0	199.00	0	7.1760	0	33.8930	0	26.525	0	197.215	0	-1e10	1	-1e10	1	-1E+10	1	-1e10	1	-1e10	1	-1E+10	1	-1E+10	1	-1E+10	1
4902624	39	C	07/16/2025	14:29	-129.627	49.116	0	199.80	0	7.1588	0	33.8942	0	26.529	0	198.007	0	87.2	4	29.6	4	-1E+10	1	0.0438	4	0.000480	0	-1E+10	1	-1E+10	1	-1E+10	1
4902624	39	C	07/16/2025	14:29	-129.627	49.116	0	200.70	0	7.1395	0	33.8955	0	26.532	0	198.899	0	87.0	4	29.5	4	-1E+10	1	0.0498	4	0.000365	0	-1E+10	1	-1E+10	1	-1E+10	1
4902624	39	C	07/16/2025	14:29	-129.627	49.116	0	201.00	0	7.1330	0	33.8960	0	26.534	0	199.196	0	-1e10	1	-1e10	1	-1E+10	1	-1e10	1	-1e10	1	-1E+10	1	-1E+10	1	-1E+10	1
4902624	39	C	07/16/2025	14:29	-129.627	49.116	0	201.70	0	7.1193	0	33.8964	0	26.536	0	199.889	0	86.8	4	29.4	4	-1E+10	1	0.0564	4	0.000408	0	-1E+10	1	-1E+10	1	-1E+10	1
4902624	39	C	07/16/2025	14:29	-129.627	49.116	0	202.60	0	7.1018	0	33.8968	0	26.539	0	200.781	0	86.7	4	29.4	4	-1E+10	1	0.0628	4	0.002362	0	-1E+10	1	-1E+10	1	-1E+10	1
4902624	39	C	07/16/2025	14:29	-129.627	49.116	0	203.00	0	7.0940	0	33.8970	0	26.540	0	201.177	0	-1e10	1	-1e10	1	-1E+10	1	-1e10	1	-1e10	1	-1E+10	1	-1E+10	1	-1E+10	1
4902624	39	C	07/16/2025	14:29	-129.627	49.116	0	203.50	0	7.0860	0	33.8975	0	26.541	0	201.672	0	86.6	4	29.3	4	-1E+10	1	0.0591	4	0.002176	0	-1E+10	1	-1E+10	1	-1E+10	1
4902624	39	C	07/16/2025	14:29	-129.627	49.116	0	204.50	0	7.0700	0	33.8985	0	26.544	0	202.663	0	86.6	4	29.3	4	-1E+10	1	0.0511	4	0.000472	0	-1E+10	1	-1E+10	1	-1E+10	1
4902624	39	C	07/16/2025	14:29	-129.627	49.116	0	205.00	0	7.0620	0	33.8990	0	26.546	0	203.158	0	-1e10	1	-1e10	1	-1E+10	1	-1e10	1	-1e10	1	-1E+10	1	-1E+10	1	-1E+10	1
4902624	39	C	07/16/2025	14:29	-129.627	49.116	0	205.40	0	7.0556	0	33.8990	0	26.547	0	203.554	0	86.5	4	29.3	4	-1E+10	1	0.0519	4	0.000569	0	-1E+10	1	-1E+10	1	-1E+10	1
4902624	39	C	07/16/2025	14:29	-129.627	49.116	0	206.40	0	7.0396	0	33.8990	0	26.549	0	204.545	0	86.5	4	29.3	4	-1E+10	1	0.0572	4	0.000345	0	-1E+10	1	-1E+10	1	-1E+10	1
4902624	39	C	07/16/2025	14:29	-129.627	49.116	0	207.00	0	7.0300	0	33.8990	0	26.550	0	205.139	0	-1e10	1	-1e10	1	-1E+10	1	-1e10	1	-1e10	1	-1E+10	1	-1E+10	1	-1E+10	1
4902624	39	C	07/16/2025	14:29	-129.627	49.116	0	207.40	0	7.0224	0	33.8996	0	26.552	0	205.535	0	86.4	4	29.2	4	-1E+10	1	0.0511	4	0.000374	0	-1E+10	1	-1E+10	1	-1E+10	1
4902624	39	C	07/16/2025	14:29	-129.627	49.116	0	208.40	0	7.0034	0	33.9011	0	26.556	0	206.526	0	86.4	4	29.2	4	-1E+10	1	0.0445	4	0.000342	0	-1E+10	1	-1E+10	1	-1E+10	1
4902624	39	C	07/16/2025	14:29	-129.627	49.116	0	209.00	0	6.9920	0	33.9020	0	26.558	0	207.120	0	-1e10	1	-1e10	1	-1E+10	1	-1e10	1	-1e10	1	-1E+10	1	-1E+10	1	-1E+10	1
4902624	39	C	07/16/2025	14:29	-129.627	49.116	0	209.30	0	6.9869	0	33.9021	0	26.559	0	207.417	0	86.5	4	29.2	4	-1E+10	1	0.0555	4	0.000424	0	-1E+10	1	-1E+10	1	-1E+10	1
4902624	39	C	07/16/2025	14:29	-129.627	49.116	0	210.30	0	6.9699	0	33.9026	0	26.561	0	208.408	0	86.6	4	29.3	4	-1E+10	1	0.0487	4	0.000421	0	-1E+10	1	-1E+10	1	-1E+10	1
4902624	39	C	07/16/2025	14:29	-129.627	49.116	0	211.00	0	6.9580	0	33.9030	0	26.563	0	209.101	0	-1e10	1	-1e10	1	-1E+10	1	-1e10	1	-1e10	1	-1E+10	1	-1E+10	1	-1E+10	1
4902624	39	C	07/16/2025	14:29	-129.627	49.116	0	211.30	0	6.9507	0	33.9029	0	26.564	0	209.398	0	86.7	4	29.3	4	-1E+10	1	0.0474	4	0.000451	0	-1E+10	1	-1E+10	1	-1E+10	1
4902624	39	C	07/16/2025	14:29	-129.627	49.116	0	212.30	0	6.9261	0	33.9024	0	26.567	0	210.389	0	86.7	4	29.3	4	-1E+10	1	0.0540	4	0.000431	0	-1E+10	1	-1E+10	1	-1E+10	1
4902624	39	C	07/16/2025	14:29	-129.627	49.116	0	213.00	0	6.9090	0	33.9020	0	26.569	0	211.082	0	-1e10	1	-1e10	1	-1E+10	1	-1e10	1	-1e10	1	-1E+10	1	-1E+10	1	-1E+10	1
4902624	39	C	07/16/2025	14:29	-129.627	49.116	0	213.30	0	6.9000	0	33.9016	0	26.570	0	211.379	0	86.7	4	29.2	4	-1E+10	1	0.0560	4	0.000355	0	-1E+10	1	-1E+10	1	-1E+10	1
4902624	39	C	07/16/2025	14:29	-129.627	49.116	0	214.30	0	6.8700	0	33.9001	0	26.573	0	212.370	0	86.4	4	29.1	4	-1E+10	1	0.0500	4	0.000379	0	-1E+10	1	-1E+10	1	-1E+10	1
4902624	39	C	07/16/2025	14:29	-129.627	49.116	0	215.10	0	6.8460	0	33.8990	0	26.575	0	213.162	0	-1e10	1	-1e10	1	-1E+10	1	-1e10	1	-1e10	1	-1E+10	1	-1E+10	1	-1E+10	1
4902624	39	C	07/16/2025	14:29	-129.627	49.116	0	215.40	0	6.8321	0	33.8988	0	26.577	0	213.459	0	86.3	4	29.1	4	-1E+10	1	0.0438	4	0.000339	0	-1E+10	1	-1E+10	1	-1E+10	1
4902624	39	C	07/16/2025	14:29	-129.627	49.116	0	216.40	0	6.7858	0	33.8983	0	26.583	0	214.450	0	86.2	4	29.0	4	-1E+10	1	0.0511	4	0.000339	0	-1E+10	1	-1E+10	1	-1E+10	1
4902624	39	C	07/16/2025	14:29	-129.627	49.116	0	217.00	0	6.7580	0	33.8980	0	26.586	0	215.044	0	-1e10	1	-1e10	1	-1E+10	1	-1e10	1	-1e10	1	-1E+10	1	-1E+10	1	-1E+10	1
4902624	39	C	07/16/2025	14:29	-129.627	49.116	0	217.50	0	6.7480	0	33.8965	0	26.586	0	215.539	0	86.0	4	28.9	4	-1E+10	1	0.0511	4	0.000359	0	-1E+10	1	-1E+10	1	-1E+10	1
4902624	39	C	07/16/2025	14:29	-129.627	49.116	0	218.50	0	6.7280	0	33.8935	0	26.587	0	216.530	0	85.7	4	28.8	4	-1E+10	1	0.0414	4	0.000355	0	-1E+10	1	-1E+10	1	-1E+10	1
4902624	39	C	07/16/2025	14:29	-129.627	49.116	0	219.00	0	6.7180	0	33.8920	0	26.587	0	217.025	0	-1e10	1	-1e10	1	-1E+10	1	-1e10	1	-1e10	1	-1E+10	1	-1E+10	1	-1E+10	1
4902624	39	C	07/16/2025	14:29	-129.627	49.116	0	219.60	0	6.7126	0	33.8914	0	26.587	0	217.619	0	85.5	4	28.7	4	-1E+10	1	0.0504	4	0.000336	0	-1E+10	1	-1E+10	1	-1E+10	1
4902624	39	C	07/16/2025	14:29	-129.627	49.116	0	220.60	0	6.7036	0	33.8904	0	26.588	0	218.610	0	85.3	4	28.6	4	-1E+10	1	0.0584	4	0.000339	0	-1E+10	1	-1E+10	1	-1E+10	1
4902624	39	C	07/16/2025	14:29	-129.627	49.116	0	221.00	0	6.7000	0	33.8900	0	26.588	0	219.006	0	-1e10	1	-1e10	1	-1E+10	1	-1e10	1	-1e10	1	-1E+10	1	-1E+10	1	-1E+10	1
4902624	39	C	07/16/2025	14:29	-129.627	49.116	0	221.60	0	6.6742	0	33.8879	0	26.590	0	219.600	0	85.0	4	28.5	4	-1E+10	1	0.0629	4	0.000347	0	-1E+10	1	-1E+10	1	-1E+10	1
4902624	39	C	07/16/2025	14:29	-129.627	49.116	0	222.70	0	6.6269	0	33.8840	0	26.593	0	220.690	0	84.7	4	28.4	4	-1E+10	1	0.0677	4	0.000339	0	-1E+10	1	-1E+10	1	-1E+10	1
4902624	39	C	07/16/2025	14:29	-129.627	49.116	0	223.00	0	6.6140	0	33.8830	0	26.594	0	220.987	0	-1e10	1	-1e10	1	-1E+10	1	-1e10	1	-1e10	1	-1E+10	1	-1E+10	1	-1E+10	1
4902624	39	C	07/16/2025	14:29	-129.627	49.116	0	223.80	0	6.5916	0	33.8822	0	26.596	0	221.779	0	84.4	4	28.3	4	-1E+10	1	0.0467	4	0.000330	0	-1E+10	1	-1E+10	1	-1E+10	1
4902624	39	C	07/16/2025	14:29	-129.627	49.116	0	224.80	0	6.5636	0	33.8812	0	26.599	0	222.770	0	84.0	4	28.1	4	-1E+10	1	0.0550	4	0.000296	0	-1E+10	1	-1E+10	1	-1E+10	1
4902624	39	C	07/16/2025	14:29	-129.627	49.116	0	225.00	0	6.5580	0	33.8810	0	26.599	0	222.968	0	-1e10	1	-1e10	1	-1E+10	1	-1e10	1	-1e10	1	-1E+10	1	-1E+10	1	-1E+10	1
4902624	39	C	07/16/2025	14:29	-129.627	49.116	0	225.90	0	6.5481	0	33.8810	0	26.601	0	223.859	0	83.6	4	28.0	4	-1E+10	1	0.0365	4	0.000316	0	-1E+10	1	-1E+10	1	-1E+10	1
4902624	39	C	07/16/2025	14:29	-129.627	49.116	0	227.00	0	6.5360	0	33.8810	0	26.602	0	224.948	0	81.2	4	27.1	4	-1E+10	1	0.0511	4	0.000327	0	-1E+10	1	-1E+10	1	-1E+10	1
4902624	39	C	07/16/2025	14:29	-129.627	49.116	0	228.10	0	6.5393	0	33.8838	0	26.604	0	226.038	0	82.8	4	27.7	4	-1E+10	1	0.0573	4	0.000317	0	-1E+10	1	-1E+10	1	-1E+10	1
4902624	39	C	07/16/2025	14:29	-129.627	49.116	0	229.00	0	6.5420	0	33.8860	0	26.606	0	226.929	0	-1e10	1	-1e10	1	-1E+10	1	-1e10	1	-1e10	1	-1E+10	1	-1E+10	1	-1E+10	1
4902624	39	C	07/16/2025	14:29	-129.627	49.116	0	229.10	0	6.5415	0	33.8860	0	26.606	0	227.028	0	82.5	4	27.6	4	-1E+10	1	0.0539	4	0.000352	0	-1E+10	1	-1E+10	1	-1E+10	1
4902624	39	C	07/16/2025	14:29	-129.627	49.116	0	230.20	0	6.5357	0	33.8854	0	26.606	0	228.118	0	82.0	4	27.4	4	-1E+10	1	0.0511	4	0.000346	0	-1E+10	1	-1E+10	1	-1E+10	1
4902624	39	C	07/16/2025	14:29	-129.627	49.116	0	231.10	0	6.5310	0	33.8850	0	26.606	0	229.009	0	-1e10	1	-1e10	1	-1E+10	1	-1e10	1	-1e10	1	-1E+10	1	-1E+10	1	-1E+10	1
4902624	39	C	07/16/2025	14:29	-129.627	49.116	0	231.30	0	6.5273	0	33.8853	0	26.607	0	229.207	0	81.6	4	27.3	4	-1E+10	1	0.0472	4	0.000327	0	-1E+10	1	-1E+10	1	-1E+10	1
4902624	39	C	07/16/2025	14:29	-129.627	49.116	0	232.30	0	6.5089	0	33.8869	0	26.611	0	230.198	0	81.1	4	27.1	4	-1E+10	1	0.0438	4	0.000335	0	-1E+10	1	-1E+10	1	-1E+10	1
4902624	39	C	07/16/2025	14:29	-129.627	49.116	0	233.00	0	6.4960	0	33.8880	0	26.613	0	230.891	0	-1e10	1	-1e10	1	-1E+10	1	-1e10	1	-1e10	1	-1E+10	1	-1E+10	1	-1E+10	1
4902624	39	C	07/16/2025	14:29	-129.627	49.116	0	233.40	0	6.4891	0	33.8876	0	26.614	0	231.287	0	80.7	4	27.0	4	-1E+10	1	0.0438	4	0.000342	0	-1E+10	1	-1E+10	1	-1E+10	1
4902624	39	C	07/16/2025	14:29	-129.627	49.116	0	234.50	0	6.4699	0	33.8864	0	26.615	0	232.376	0	80.3	4	26.8	4	-1E+10	1	0.0438	4	0.000304	0	-1E+10	1	-1E+10	1	-1E+10	1
4902624	39	C	07/16/2025	14:29	-129.627	49.116	0	234.90	0	6.4630	0	33.8860	0	26.616	0	232.773	0	-1e10	1	-1e10	1	-1E+10	1	-1e10	1	-1e10	1	-1E+10	1	-1E+10	1	-1E+10	1
4902624	39	C	07/16/2025	14:29	-129.627	49.116	0	235.60	0	6.4350	0	33.8860	0	26.620	0	233.466	0	79.9	4	26.7	4	-1E+10	1	0.0438	4	0.000304	0	-1E+10	1	-1E+10	1	-1E+10	1
4902624	39	C	07/16/2025	14:29	-129.627	49.116	0	236.70	0	6.3910	0	33.8860	0	26.625	0	234.555	0	79.6	4	26.5	4	-1E+10	1	0.0500	4	0.000283	0	-1E+10	1	-1E+10	1	-1E+10	1
4902624	39	C	07/16/2025	14:29	-129.627	49.116	0	236.90	0	6.3830	0	33.8860	0	26.626	0	234.753	0	-1e10	1	-1e10	1	-1E+10	1	-1e10	1	-1e10	1	-1E+10	1	-1E+10	1	-1E+10	1
4902624	39	C	07/16/2025	14:29	-129.627	49.116	0	237.80	0	6.3646	0	33.8851	0	26.628	0	235.645	0	79.3	4	26.4	4	-1E+10	1	0.0511	4	0.000299	0	-1E+10	1	-1E+10	1	-1E+10	1
4902624	39	C	07/16/2025	14:29	-129.627	49.116	0	238.90	0	6.3420	0	33.8840	0	26.630	0	236.734	0	77.1	4	25.7	4	-1E+10	1	0.0562	4	0.000491	0	-1E+10	1	-1E+10	1	-1E+10	1
4902624	39	C	07/16/2025	14:29	-129.627	49.116	0	240.00	0	6.3305	0	33.8829	0	26.631	0	237.824	0	78.7	4	26.2	4	-1E+10	1	0.0548	4	0.000445	0	-1E+10	1	-1E+10	1	-1E+10	1
4902624	39	C	07/16/2025	14:29	-129.627	49.116	0	240.90	0	6.3210	0	33.8820	0	26.631	0	238.715	0	-1e10	1	-1e10	1	-1E+10	1	-1e10	1	-1e10	1	-1E+10	1	-1E+10	1	-1E+10	1
4902624	39	C	07/16/2025	14:29	-129.627	49.116	0	241.20	0	6.3144	0	33.8823	0	26.632	0	239.012	0	78.4	4	26.1	4	-1E+10	1	0.0478	4	0.000310	0	-1E+10	1	-1E+10	1	-1E+10	1
4902624	39	C	07/16/2025	14:29	-129.627	49.116	0	242.30	0	6.2903	0	33.8833	0	26.636	0	240.101	0	78.1	4	26.0	4	-1E+10	1	0.0412	4	0.000308	0	-1E+10	1	-1E+10	1	-1E+10	1
4902624	39	C	07/16/2025	14:29	-129.627	49.116	0	243.00	0	6.2750	0	33.8840	0	26.639	0	240.795	0	-1e10	1	-1e10	1	-1E+10	1	-1e10	1	-1e10	1	-1E+10	1	-1E+10	1	-1E+10	1
4902624	39	C	07/16/2025	14:29	-129.627	49.116	0	243.40	0	6.2716	0	33.8840	0	26.639	0	241.191	0	78.0	4	25.9	4	-1E+10	1	0.0386	4	0.000319	0	-1E+10	1	-1E+10	1	-1E+10	1
4902624	39	C	07/16/2025	14:29	-129.627	49.116	0	244.60	0	6.2614	0	33.8840	0	26.641	0	242.379	0	77.7	4	25.8	4	-1E+10	1	0.0511	4	0.000339	0	-1E+10	1	-1E+10	1	-1E+10	1
4902624	39	C	07/16/2025	14:29	-129.627	49.116	0	245.00	0	6.2580	0	33.8840	0	26.641	0	242.775	0	-1e10	1	-1e10	1	-1E+10	1	-1e10	1	-1e10	1	-1E+10	1	-1E+10	1	-1E+10	1
4902624	39	C	07/16/2025	14:29	-129.627	49.116	0	245.70	0	6.2570	0	33.8840	0	26.641	0	243.468	0	77.5	4	25.8	4	-1E+10	1	0.0584	4	0.000315	0	-1E+10	1	-1E+10	1	-1E+10	1
4902624	39	C	07/16/2025	14:29	-129.627	49.116	0	246.90	0	6.2553	0	33.8840	0	26.641	0	244.657	0	77.2	4	25.7	4	-1E+10	1	0.0584	4	0.000275	0	-1E+10	1	-1E+10	1	-1E+10	1
4902624	39	C	07/16/2025	14:29	-129.627	49.116	0	247.10	0	6.2550	0	33.8840	0	26.641	0	244.855	0	-1e10	1	-1e10	1	-1E+10	1	-1e10	1	-1e10	1	-1E+10	1	-1E+10	1	-1E+10	1
4902624	39	C	07/16/2025	14:29	-129.627	49.116	0	248.00	0	6.2493	0	33.8845	0	26.642	0	245.746	0	77.0	4	25.6	4	-1E+10	1	0.0537	4	0.000291	0	-1E+10	1	-1E+10	1	-1E+10	1
4902624	39	C	07/16/2025	14:29	-129.627	49.116	0	249.00	0	6.2430	0	33.8850	0	26.644	0	246.737	0	-1e10	1	-1e10	1	-1E+10	1	-1e10	1	-1e10	1	-1E+10	1	-1E+10	1	-1E+10	1
4902624	39	C	07/16/2025	14:29	-129.627	49.116	0	249.10	0	6.2422	0	33.8850	0	26.644	0	246.836	0	76.7	4	25.5	4	-1E+10	1	0.0511	4	0.000323	0	-1E+10	1	-1E+10	1	-1E+10	1
4902624	39	C	07/16/2025	14:29	-129.627	49.116	0	250.30	0	6.2326	0	33.8857	0	26.646	0	248.024	0	76.4	4	25.4	4	-1E+10	1	0.0474	4	0.000350	0	-1E+10	1	-1E+10	1	-1E+10	1
4902624	39	C	07/16/2025	14:29	-129.627	49.116	0	251.00	0	6.2270	0	33.8860	0	26.647	0	248.717	0	-1e10	1	-1e10	1	-1E+10	1	-1e10	1	-1e10	1	-1E+10	1	-1E+10	1	-1E+10	1
4902624	39	C	07/16/2025	14:29	-129.627	49.116	0	251.50	0	6.2210	0	33.8867	0	26.648	0	249.212	0	76.1	4	25.3	4	-1E+10	1	0.0511	4	0.000342	0	-1E+10	1	-1E+10	1	-1E+10	1
4902624	39	C	07/16/2025	14:29	-129.627	49.116	0	252.70	0	6.2066	0	33.8885	0	26.651	0	250.401	0	75.8	4	25.2	4	-1E+10	1	0.0630	4	0.000310	0	-1E+10	1	-1E+10	1	-1E+10	1
4902624	39	C	07/16/2025	14:29	-129.627	49.116	0	253.00	0	6.2030	0	33.8890	0	26.652	0	250.698	0	-1e10	1	-1e10	1	-1E+10	1	-1e10	1	-1e10	1	-1E+10	1	-1E+10	1	-1E+10	1
4902624	39	C	07/16/2025	14:29	-129.627	49.116	0	253.90	0	6.1926	0	33.8899	0	26.654	0	251.589	0	75.5	4	25.1	4	-1E+10	1	0.0527	4	0.000326	0	-1E+10	1	-1E+10	1	-1E+10	1
4902624	39	C	07/16/2025	14:29	-129.627	49.116	0	255.00	0	6.1800	0	33.8910	0	26.657	0	252.678	0	73.5	4	24.4	4	-1E+10	1	0.0584	4	0.000279	0	-1E+10	1	-1E+10	1	-1E+10	1
4902624	39	C	07/16/2025	14:29	-129.627	49.116	0	256.20	0	6.1746	0	33.8910	0	26.657	0	253.867	0	75.1	4	24.9	4	-1E+10	1	0.0396	4	0.000310	0	-1E+10	1	-1E+10	1	-1E+10	1
4902624	39	C	07/16/2025	14:29	-129.627	49.116	0	257.00	0	6.1710	0	33.8910	0	26.658	0	254.659	0	-1e10	1	-1e10	1	-1E+10	1	-1e10	1	-1e10	1	-1E+10	1	-1E+10	1	-1E+10	1
4902624	39	C	07/16/2025	14:29	-129.627	49.116	0	257.40	0	6.1666	0	33.8912	0	26.658	0	255.055	0	74.8	4	24.8	4	-1E+10	1	0.0487	4	0.000306	0	-1E+10	1	-1E+10	1	-1E+10	1
4902624	39	C	07/16/2025	14:29	-129.627	49.116	0	258.60	0	6.1534	0	33.8918	0	26.661	0	256.243	0	74.6	4	24.7	4	-1E+10	1	0.0511	4	0.000382	0	-1E+10	1	-1E+10	1	-1E+10	1
4902624	39	C	07/16/2025	14:29	-129.627	49.116	0	259.00	0	6.1490	0	33.8920	0	26.661	0	256.639	0	-1e10	1	-1e10	1	-1E+10	1	-1e10	1	-1e10	1	-1E+10	1	-1E+10	1	-1E+10	1
4902624	39	C	07/16/2025	14:29	-129.627	49.116	0	259.80	0	6.1390	0	33.8924	0	26.663	0	257.432	0	74.4	4	24.6	4	-1E+10	1	0.0474	4	0.000368	0	-1E+10	1	-1E+10	1	-1E+10	1
4902624	39	C	07/16/2025	14:29	-129.627	49.116	0	260.90	0	6.1252	0	33.8930	0	26.665	0	258.521	0	74.2	4	24.6	4	-1E+10	1	0.0438	4	0.000307	0	-1E+10	1	-1E+10	1	-1E+10	1
4902624	39	C	07/16/2025	14:29	-129.627	49.116	0	261.00	0	6.1240	0	33.8930	0	26.665	0	258.620	0	-1e10	1	-1e10	1	-1E+10	1	-1e10	1	-1e10	1	-1E+10	1	-1E+10	1	-1E+10	1
4902624	39	C	07/16/2025	14:29	-129.627	49.116	0	262.10	0	6.1136	0	33.8936	0	26.667	0	259.709	0	74.0	4	24.5	4	-1E+10	1	0.0490	4	0.000296	0	-1E+10	1	-1E+10	1	-1E+10	1
4902624	39	C	07/16/2025	14:29	-129.627	49.116	0	263.00	0	6.1050	0	33.8940	0	26.668	0	260.600	0	-1e10	1	-1e10	1	-1E+10	1	-1e10	1	-1e10	1	-1E+10	1	-1E+10	1	-1E+10	1
4902624	39	C	07/16/2025	14:29	-129.627	49.116	0	263.30	0	6.1035	0	33.8941	0	26.669	0	260.898	0	73.9	4	24.5	4	-1E+10	1	0.0568	4	0.000368	0	-1E+10	1	-1E+10	1	-1E+10	1
4902624	39	C	07/16/2025	14:29	-129.627	49.116	0	264.40	0	6.0980	0	33.8947	0	26.670	0	261.987	0	73.7	4	24.4	4	-1E+10	1	0.0511	4	0.000609	0	-1E+10	1	-1E+10	1	-1E+10	1
4902624	39	C	07/16/2025	14:29	-129.627	49.116	0	265.00	0	6.0950	0	33.8950	0	26.671	0	262.581	0	-1e10	1	-1e10	1	-1E+10	1	-1e10	1	-1e10	1	-1E+10	1	-1E+10	1	-1E+10	1
4902624	39	C	07/16/2025	14:29	-129.627	49.116	0	265.60	0	6.0918	0	33.8953	0	26.671	0	263.175	0	73.5	4	24.3	4	-1E+10	1	0.0584	4	0.000362	0	-1E+10	1	-1E+10	1	-1E+10	1
4902624	39	C	07/16/2025	14:29	-129.627	49.116	0	266.80	0	6.0855	0	33.8959	0	26.673	0	264.363	0	73.4	4	24.3	4	-1E+10	1	0.0467	4	0.000287	0	-1E+10	1	-1E+10	1	-1E+10	1
4902624	39	C	07/16/2025	14:29	-129.627	49.116	0	266.90	0	6.0850	0	33.8960	0	26.673	0	264.462	0	-1e10	1	-1e10	1	-1E+10	1	-1e10	1	-1e10	1	-1E+10	1	-1E+10	1	-1E+10	1
4902624	39	C	07/16/2025	14:29	-129.627	49.116	0	268.00	0	6.0808	0	33.8965	0	26.674	0	265.552	0	73.2	4	24.2	4	-1E+10	1	0.0438	4	0.000253	0	-1E+10	1	-1E+10	1	-1E+10	1
4902624	39	C	07/16/2025	14:29	-129.627	49.116	0	269.00	0	6.0770	0	33.8970	0	26.674	0	266.542	0	-1e10	1	-1e10	1	-1E+10	1	-1e10	1	-1e10	1	-1E+10	1	-1E+10	1	-1E+10	1
4902624	39	C	07/16/2025	14:29	-129.627	49.116	0	269.20	0	6.0766	0	33.8970	0	26.674	0	266.740	0	73.0	4	24.1	4	-1E+10	1	0.0481	4	0.000265	0	-1E+10	1	-1E+10	1	-1E+10	1
4902624	39	C	07/16/2025	14:29	-129.627	49.116	0	270.30	0	6.0743	0	33.8970	0	26.675	0	267.829	0	72.7	4	24.1	4	-1E+10	1	0.0574	4	0.000371	0	-1E+10	1	-1E+10	1	-1E+10	1
4902624	39	C	07/16/2025	14:29	-129.627	49.116	0	270.90	0	6.0730	0	33.8970	0	26.675	0	268.423	0	-1e10	1	-1e10	1	-1E+10	1	-1e10	1	-1e10	1	-1E+10	1	-1E+10	1	-1E+10	1
4902624	39	C	07/16/2025	14:29	-129.627	49.116	0	271.50	0	6.0701	0	33.8973	0	26.676	0	269.017	0	72.4	4	24.0	4	-1E+10	1	0.0657	4	0.000424	0	-1E+10	1	-1E+10	1	-1E+10	1
4902624	39	C	07/16/2025	14:29	-129.627	49.116	0	272.70	0	6.0644	0	33.8979	0	26.677	0	270.206	0	72.1	4	23.9	4	-1E+10	1	0.0621	4	0.000259	0	-1E+10	1	-1E+10	1	-1E+10	1
4902624	39	C	07/16/2025	14:29	-129.627	49.116	0	273.00	0	6.0630	0	33.8980	0	26.677	0	270.503	0	-1e10	1	-1e10	1	-1E+10	1	-1e10	1	-1e10	1	-1E+10	1	-1E+10	1	-1E+10	1
4902624	39	C	07/16/2025	14:29	-129.627	49.116	0	273.90	0	6.0594	0	33.8984	0	26.678	0	271.394	0	71.7	4	23.7	4	-1E+10	1	0.0459	4	0.000273	0	-1E+10	1	-1E+10	1	-1E+10	1
4902624	39	C	07/16/2025	14:29	-129.627	49.116	0	275.00	0	6.0550	0	33.8990	0	26.679	0	272.483	0	-1e10	1	-1e10	1	-1E+10	1	-1e10	1	-1e10	1	-1E+10	1	-1E+10	1	-1E+10	1
4902624	39	C	07/16/2025	14:29	-129.627	49.116	0	275.10	0	6.0545	0	33.8991	0	26.679	0	272.582	0	71.3	4	23.6	4	-1E+10	1	0.0584	4	0.000303	0	-1E+10	1	-1E+10	1	-1E+10	1
4902624	39	C	07/16/2025	14:29	-129.627	49.116	0	276.40	0	6.0473	0	33.9004	0	26.681	0	273.869	0	70.9	4	23.4	4	-1E+10	1	0.0457	4	0.000303	0	-1E+10	1	-1E+10	1	-1E+10	1
4902624	39	C	07/16/2025	14:29	-129.627	49.116	0	277.00	0	6.0440	0	33.9010	0	26.682	0	274.463	0	-1e10	1	-1e10	1	-1E+10	1	-1e10	1	-1e10	1	-1E+10	1	-1E+10	1	-1E+10	1
4902624	39	C	07/16/2025	14:29	-129.627	49.116	0	277.60	0	6.0446	0	33.9029	0	26.683	0	275.058	0	70.4	4	23.3	4	-1E+10	1	0.0560	4	0.000294	0	-1E+10	1	-1E+10	1	-1E+10	1
4902624	39	C	07/16/2025	14:29	-129.627	49.116	0	278.80	0	6.0459	0	33.9067	0	26.686	0	276.246	0	70.1	4	23.2	4	-1E+10	1	0.0535	4	0.000315	0	-1E+10	1	-1E+10	1	-1E+10	1
4902624	39	C	07/16/2025	14:29	-129.627	49.116	0	278.90	0	6.0460	0	33.9070	0	26.686	0	276.345	0	-1e10	1	-1e10	1	-1E+10	1	-1e10	1	-1e10	1	-1E+10	1	-1E+10	1	-1E+10	1
4902624	39	C	07/16/2025	14:29	-129.627	49.116	0	280.00	0	6.0439	0	33.9133	0	26.692	0	277.434	0	69.8	4	23.1	4	-1E+10	1	0.0511	4	0.000299	0	-1E+10	1	-1E+10	1	-1E+10	1
4902624	39	C	07/16/2025	14:29	-129.627	49.116	0	281.00	0	6.0420	0	33.9190	0	26.696	0	278.424	0	-1e10	1	-1e10	1	-1E+10	1	-1e10	1	-1e10	1	-1E+10	1	-1E+10	1	-1E+10	1
4902624	39	C	07/16/2025	14:29	-129.627	49.116	0	281.30	0	6.0407	0	33.9187	0	26.696	0	278.721	0	69.4	4	23.0	4	-1E+10	1	0.0511	4	0.000268	0	-1E+10	1	-1E+10	1	-1E+10	1
4902624	39	C	07/16/2025	14:29	-129.627	49.116	0	282.50	0	6.0356	0	33.9176	0	26.696	0	279.909	0	69.1	4	22.9	4	-1E+10	1	0.0537	4	0.000256	0	-1E+10	1	-1E+10	1	-1E+10	1
4902624	39	C	07/16/2025	14:29	-129.627	49.116	0	283.10	0	6.0330	0	33.9170	0	26.696	0	280.503	0	-1e10	1	-1e10	1	-1E+10	1	-1e10	1	-1e10	1	-1E+10	1	-1E+10	1	-1E+10	1
4902624	39	C	07/16/2025	14:29	-129.627	49.116	0	283.70	0	6.0345	0	33.9179	0	26.696	0	281.098	0	68.8	4	22.7	4	-1E+10	1	0.0615	4	0.000241	0	-1E+10	1	-1E+10	1	-1E+10	1
4902624	39	C	07/16/2025	14:29	-129.627	49.116	0	284.80	0	6.0373	0	33.9195	0	26.697	0	282.187	0	68.4	4	22.6	4	-1E+10	1	0.0730	4	0.000268	0	-1E+10	1	-1E+10	1	-1E+10	1
4902624	39	C	07/16/2025	14:29	-129.627	49.116	0	285.10	0	6.0380	0	33.9200	0	26.698	0	282.484	0	-1e10	1	-1e10	1	-1E+10	1	-1e10	1	-1e10	1	-1E+10	1	-1E+10	1	-1E+10	1
4902624	39	C	07/16/2025	14:29	-129.627	49.116	0	286.00	0	6.0461	0	33.9228	0	26.699	0	283.375	0	68.0	4	22.5	4	-1E+10	1	0.0365	4	0.000303	0	-1E+10	1	-1E+10	1	-1E+10	1
4902624	39	C	07/16/2025	14:29	-129.627	49.116	0	287.00	0	6.0550	0	33.9260	0	26.700	0	284.365	0	65.9	4	21.8	4	-1E+10	1	0.0498	4	0.000346	0	-1E+10	1	-1E+10	1	-1E+10	1
4902624	39	C	07/16/2025	14:29	-129.627	49.116	0	287.80	0	6.0760	0	33.9294	0	26.700	0	285.157	0	67.2	4	22.2	4	-1E+10	1	0.0511	4	0.000301	0	-1E+10	1	-1E+10	1	-1E+10	1
4902624	39	C	07/16/2025	14:29	-129.627	49.116	0	288.60	0	6.0969	0	33.9329	0	26.700	0	285.949	0	66.8	4	22.1	4	-1E+10	1	0.0511	4	0.000295	0	-1E+10	1	-1E+10	1	-1E+10	1
4902624	39	C	07/16/2025	14:29	-129.627	49.116	0	289.10	0	6.1100	0	33.9350	0	26.701	0	286.444	0	-1e10	1	-1e10	1	-1E+10	1	-1e10	1	-1e10	1	-1E+10	1	-1E+10	1	-1E+10	1
4902624	39	C	07/16/2025	14:29	-129.627	49.116	0	289.30	0	6.1128	0	33.9361	0	26.701	0	286.642	0	66.4	4	22.0	4	-1E+10	1	0.0479	4	0.000314	0	-1E+10	1	-1E+10	1	-1E+10	1
4902624	39	C	07/16/2025	14:29	-129.627	49.116	0	290.10	0	6.1242	0	33.9403	0	26.703	0	287.434	0	66.1	4	21.9	4	-1E+10	1	0.0462	4	0.000323	0	-1E+10	1	-1E+10	1	-1E+10	1
4902624	39	C	07/16/2025	14:29	-129.627	49.116	0	290.80	0	6.1342	0	33.9439	0	26.705	0	288.127	0	65.8	4	21.8	4	-1E+10	1	0.0501	4	0.000325	0	-1E+10	1	-1E+10	1	-1E+10	1
4902624	39	C	07/16/2025	14:29	-129.627	49.116	0	291.00	0	6.1370	0	33.9450	0	26.705	0	288.325	0	-1e10	1	-1e10	1	-1E+10	1	-1e10	1	-1e10	1	-1E+10	1	-1E+10	1	-1E+10	1
4902624	39	C	07/16/2025	14:29	-129.627	49.116	0	291.60	0	6.1436	0	33.9479	0	26.706	0	288.920	0	65.5	4	21.7	4	-1E+10	1	0.0454	4	0.000378	0	-1E+10	1	-1E+10	1	-1E+10	1
4902624	39	C	07/16/2025	14:29	-129.627	49.116	0	292.30	0	6.1512	0	33.9512	0	26.708	0	289.613	0	65.3	4	21.6	4	-1E+10	1	0.0511	4	0.000350	0	-1E+10	1	-1E+10	1	-1E+10	1
4902624	39	C	07/16/2025	14:29	-129.627	49.116	0	293.00	0	6.1589	0	33.9545	0	26.710	0	290.306	0	65.1	4	21.6	4	-1E+10	1	0.0568	4	0.000341	0	-1E+10	1	-1E+10	1	-1E+10	1
4902624	39	C	07/16/2025	14:29	-129.627	49.116	0	293.10	0	6.1600	0	33.9550	0	26.710	0	290.405	0	-1e10	1	-1e10	1	-1E+10	1	-1e10	1	-1e10	1	-1E+10	1	-1E+10	1	-1E+10	1
4902624	39	C	07/16/2025	14:29	-129.627	49.116	0	293.80	0	6.1600	0	33.9557	0	26.711	0	291.098	0	64.9	4	21.5	4	-1E+10	1	0.0529	4	0.000312	0	-1E+10	1	-1E+10	1	-1E+10	1
4902624	39	C	07/16/2025	14:29	-129.627	49.116	0	294.60	0	6.1600	0	33.9566	0	26.711	0	291.890	0	64.7	4	21.5	4	-1E+10	1	0.0462	4	0.000319	0	-1E+10	1	-1E+10	1	-1E+10	1
4902624	39	C	07/16/2025	14:29	-129.627	49.116	0	295.00	0	6.1600	0	33.9570	0	26.712	0	292.286	0	-1e10	1	-1e10	1	-1E+10	1	-1e10	1	-1e10	1	-1E+10	1	-1E+10	1	-1E+10	1
4902624	39	C	07/16/2025	14:29	-129.627	49.116	0	295.30	0	6.1570	0	33.9573	0	26.712	0	292.583	0	64.4	4	21.4	4	-1E+10	1	0.0406	4	0.000327	0	-1E+10	1	-1E+10	1	-1E+10	1
4902624	39	C	07/16/2025	14:29	-129.627	49.116	0	296.10	0	6.1490	0	33.9580	0	26.714	0	293.375	0	64.3	4	21.3	4	-1E+10	1	0.0420	4	0.000331	0	-1E+10	1	-1E+10	1	-1E+10	1
4902624	39	C	07/16/2025	14:29	-129.627	49.116	0	296.90	0	6.1410	0	33.9588	0	26.716	0	294.167	0	64.1	4	21.3	4	-1E+10	1	0.0574	4	0.000384	0	-1E+10	1	-1E+10	1	-1E+10	1
4902624	39	C	07/16/2025	14:29	-129.627	49.116	0	297.10	0	6.1390	0	33.9590	0	26.716	0	294.365	0	-1e10	1	-1e10	1	-1E+10	1	-1e10	1	-1e10	1	-1E+10	1	-1E+10	1	-1E+10	1
4902624	39	C	07/16/2025	14:29	-129.627	49.116	0	297.60	0	6.1320	0	33.9590	0	26.717	0	294.860	0	64.0	4	21.2	4	-1E+10	1	0.0569	4	0.000426	0	-1E+10	1	-1E+10	1	-1E+10	1
4902624	39	C	07/16/2025	14:29	-129.627	49.116	0	298.60	0	6.1180	0	33.9590	0	26.719	0	295.850	0	63.8	4	21.1	4	-1E+10	1	0.0368	4	0.000383	0	-1E+10	1	-1E+10	1	-1E+10	1
4902624	39	C	07/16/2025	14:29	-129.627	49.116	0	299.10	0	6.1110	0	33.9590	0	26.719	0	296.345	0	-1e10	1	-1e10	1	-1E+10	1	-1e10	1	-1e10	1	-1E+10	1	-1E+10	1	-1E+10	1
4902624	39	C	07/16/2025	14:29	-129.627	49.116	0	305.00	0	6.0770	0	33.9630	0	26.727	0	302.187	0	-1e10	1	-1e10	1	-1E+10	1	-1e10	1	-1e10	1	-1E+10	1	-1E+10	1	-1E+10	1
4902624	39	C	07/16/2025	14:29	-129.627	49.116	0	306.50	0	6.0711	0	33.9648	0	26.729	0	303.672	0	61.7	4	20.4	4	-1E+10	1	0.0441	4	0.000315	0	-1E+10	1	-1E+10	1	-1E+10	1
4902624	39	C	07/16/2025	14:29	-129.627	49.116	0	314.70	0	6.0388	0	33.9748	0	26.741	0	311.790	0	60.0	4	19.8	4	-1E+10	1	0.0514	4	0.000324	0	-1E+10	1	-1E+10	1	-1E+10	1
4902624	39	C	07/16/2025	14:29	-129.627	49.116	0	314.90	0	6.0380	0	33.9750	0	26.741	0	311.988	0	-1e10	1	-1e10	1	-1E+10	1	-1e10	1	-1e10	1	-1E+10	1	-1E+10	1	-1E+10	1
4902624	39	C	07/16/2025	14:29	-129.627	49.116	0	323.10	0	6.0044	0	33.9799	0	26.750	0	320.106	0	58.0	4	19.2	4	-1E+10	1	0.0581	4	0.000281	0	-1E+10	1	-1E+10	1	-1E+10	1
4902624	39	C	07/16/2025	14:29	-129.627	49.116	0	324.90	0	5.9970	0	33.9810	0	26.751	0	321.888	0	-1e10	1	-1e10	1	-1E+10	1	-1e10	1	-1e10	1	-1E+10	1	-1E+10	1	-1E+10	1
4902624	39	C	07/16/2025	14:29	-129.627	49.116	0	331.80	0	5.9584	0	33.9864	0	26.761	0	328.718	0	55.8	4	18.4	4	-1E+10	1	0.0511	4	0.000313	0	-1E+10	1	-1E+10	1	-1E+10	1
4902624	39	C	07/16/2025	14:29	-129.627	49.116	0	335.10	0	5.9400	0	33.9890	0	26.765	0	331.985	0	-1e10	1	-1e10	1	-1E+10	1	-1e10	1	-1e10	1	-1E+10	1	-1E+10	1	-1E+10	1
4902624	39	C	07/16/2025	14:29	-129.627	49.116	0	340.60	0	5.8916	0	33.9923	0	26.774	0	337.429	0	53.9	4	17.8	4	-1E+10	1	0.0508	4	0.000278	0	-1E+10	1	-1E+10	1	-1E+10	1
4902624	39	C	07/16/2025	14:29	-129.627	49.116	0	345.10	0	5.8520	0	33.9950	0	26.781	0	341.884	0	-1e10	1	-1e10	1	-1E+10	1	-1e10	1	-1e10	1	-1E+10	1	-1E+10	1	-1E+10	1
4902624	39	C	07/16/2025	14:29	-129.627	49.116	0	349.80	0	5.8261	0	33.9973	0	26.786	0	346.536	0	52.3	4	17.2	4	-1E+10	1	0.0441	4	0.000258	0	-1E+10	1	-1E+10	1	-1E+10	1
4902624	39	C	07/16/2025	14:29	-129.627	49.116	0	355.10	0	5.7970	0	34.0000	0	26.792	0	351.782	0	-1e10	1	-1e10	1	-1E+10	1	-1e10	1	-1e10	1	-1E+10	1	-1E+10	1	-1E+10	1
4902624	39	C	07/16/2025	14:29	-129.627	49.116	0	359.30	0	5.7642	0	34.0004	0	26.796	0	355.939	0	51.0	4	16.8	4	-1E+10	1	0.0514	4	0.000301	0	-1E+10	1	-1E+10	1	-1E+10	1
4902624	39	C	07/16/2025	14:29	-129.627	49.116	0	365.10	0	5.7190	0	34.0010	0	26.802	0	361.680	0	-1e10	1	-1e10	1	-1E+10	1	-1e10	1	-1e10	1	-1E+10	1	-1E+10	1	-1E+10	1
4902624	39	C	07/16/2025	14:29	-129.627	49.116	0	369.10	0	5.6950	0	34.0038	0	26.807	0	365.639	0	49.2	4	16.1	4	-1E+10	1	0.0581	4	0.000257	0	-1E+10	1	-1E+10	1	-1E+10	1
4902624	39	C	07/16/2025	14:29	-129.627	49.116	0	375.10	0	5.6590	0	34.0080	0	26.815	0	371.577	0	-1e10	1	-1e10	1	-1E+10	1	-1e10	1	-1e10	1	-1E+10	1	-1E+10	1	-1E+10	1
4902624	39	C	07/16/2025	14:29	-129.627	49.116	0	379.20	0	5.6364	0	34.0093	0	26.819	0	375.635	0	47.5	4	15.6	4	-1E+10	1	0.0505	4	0.000301	0	-1E+10	1	-1E+10	1	-1E+10	1
4902624	39	C	07/16/2025	14:29	-129.627	49.116	0	384.90	0	5.6050	0	34.0110	0	26.824	0	381.276	0	-1e10	1	-1e10	1	-1E+10	1	-1e10	1	-1e10	1	-1E+10	1	-1E+10	1	-1E+10	1
4902624	39	C	07/16/2025	14:29	-129.627	49.116	0	389.50	0	5.5739	0	34.0137	0	26.830	0	385.829	0	45.7	4	15.0	4	-1E+10	1	0.0368	4	0.000272	0	-1E+10	1	-1E+10	1	-1E+10	1
4902624	39	C	07/16/2025	14:29	-129.627	49.116	0	395.10	0	5.5360	0	34.0170	0	26.837	0	391.370	0	-1e10	1	-1e10	1	-1E+10	1	-1e10	1	-1e10	1	-1E+10	1	-1E+10	1	-1E+10	1
4902624	39	C	07/16/2025	14:29	-129.627	49.116	0	400.10	0	5.4985	0	34.0195	0	26.844	0	396.319	0	43.8	4	14.3	4	-1E+10	1	0.0443	4	0.000383	0	-1E+10	1	-1E+10	1	-1E+10	1
4902624	39	C	07/16/2025	14:29	-129.627	49.116	0	405.10	0	5.4610	0	34.0220	0	26.850	0	401.266	0	-1e10	1	-1e10	1	-1E+10	1	-1e10	1	-1e10	1	-1E+10	1	-1E+10	1	-1E+10	1
4902624	39	C	07/16/2025	14:29	-129.627	49.116	0	411.00	0	5.4193	0	34.0262	0	26.858	0	407.105	0	41.9	4	13.7	4	-1E+10	1	0.0584	4	0.000345	0	-1E+10	1	-1E+10	1	-1E+10	1
4902624	39	C	07/16/2025	14:29	-129.627	49.116	0	415.00	0	5.3910	0	34.0290	0	26.864	0	411.063	0	-1e10	1	-1e10	1	-1E+10	1	-1e10	1	-1e10	1	-1E+10	1	-1E+10	1	-1E+10	1
4902624	39	C	07/16/2025	14:29	-129.627	49.116	0	421.90	0	5.3645	0	34.0325	0	26.870	0	417.891	0	40.4	4	13.1	4	-1E+10	1	0.0584	4	0.000255	0	-1E+10	1	-1E+10	1	-1E+10	1
4902624	39	C	07/16/2025	14:29	-129.627	49.116	0	424.90	0	5.3530	0	34.0340	0	26.873	0	420.859	0	-1e10	1	-1e10	1	-1E+10	1	-1e10	1	-1e10	1	-1E+10	1	-1E+10	1	-1E+10	1
4902624	39	C	07/16/2025	14:29	-129.627	49.116	0	432.70	0	5.3232	0	34.0378	0	26.879	0	428.577	0	38.9	4	12.6	4	-1E+10	1	0.0587	4	0.000245	0	-1E+10	1	-1E+10	1	-1E+10	1
4902624	39	C	07/16/2025	14:29	-129.627	49.116	0	435.10	0	5.3140	0	34.0390	0	26.881	0	430.951	0	-1e10	1	-1e10	1	-1E+10	1	-1e10	1	-1e10	1	-1E+10	1	-1E+10	1	-1E+10	1
4902624	39	C	07/16/2025	14:29	-129.627	49.116	0	443.50	0	5.2729	0	34.0441	0	26.890	0	439.262	0	37.3	4	12.1	4	-1E+10	1	0.0649	4	0.000289	0	-1E+10	1	-1E+10	1	-1E+10	1
4902624	39	C	07/16/2025	14:29	-129.627	49.116	0	444.90	0	5.2660	0	34.0450	0	26.892	0	440.648	0	-1e10	1	-1e10	1	-1E+10	1	-1e10	1	-1e10	1	-1E+10	1	-1E+10	1	-1E+10	1
4902624	39	C	07/16/2025	14:29	-129.627	49.116	0	454.10	0	5.2223	0	34.0514	0	26.902	0	449.750	0	35.7	4	11.6	4	-1E+10	1	0.0441	4	0.000254	0	-1E+10	1	-1E+10	1	-1E+10	1
4902624	39	C	07/16/2025	14:29	-129.627	49.116	0	455.00	0	5.2180	0	34.0520	0	26.903	0	450.640	0	-1e10	1	-1e10	1	-1E+10	1	-1e10	1	-1e10	1	-1E+10	1	-1E+10	1	-1E+10	1
4902624	39	C	07/16/2025	14:29	-129.627	49.116	0	464.80	0	5.1724	0	34.0578	0	26.913	0	460.335	0	34.0	4	11.0	4	-1E+10	1	0.0516	4	0.000232	0	-1E+10	1	-1E+10	1	-1E+10	1
4902624	39	C	07/16/2025	14:29	-129.627	49.116	0	465.10	0	5.1710	0	34.0580	0	26.913	0	460.632	0	-1e10	1	-1e10	1	-1E+10	1	-1e10	1	-1e10	1	-1E+10	1	-1E+10	1	-1E+10	1
4902624	39	C	07/16/2025	14:29	-129.627	49.116	0	474.90	0	5.1200	0	34.0640	0	26.924	0	470.327	0	-1e10	1	-1e10	1	-1E+10	1	-1e10	1	-1e10	1	-1E+10	1	-1E+10	1	-1E+10	1
4902624	39	C	07/16/2025	14:29	-129.627	49.116	0	475.70	0	5.1159	0	34.0646	0	26.925	0	471.118	0	32.2	4	10.4	4	-1E+10	1	0.0654	4	0.000242	0	-1E+10	1	-1E+10	1	-1E+10	1
4902624	39	C	07/16/2025	14:29	-129.627	49.116	0	484.90	0	5.0690	0	34.0720	0	26.936	0	480.219	0	-1e10	1	-1e10	1	-1E+10	1	-1e10	1	-1e10	1	-1E+10	1	-1E+10	1	-1E+10	1
4902624	39	C	07/16/2025	14:29	-129.627	49.116	0	486.70	0	5.0594	0	34.0736	0	26.939	0	482.000	0	30.3	4	9.8	4	-1E+10	1	0.0587	4	0.000230	0	-1E+10	1	-1E+10	1	-1E+10	1
4902624	39	C	07/16/2025	14:29	-129.627	49.116	0	495.00	0	5.0150	0	34.0810	0	26.950	0	490.210	0	-1e10	1	-1e10	1	-1E+10	1	-1e10	1	-1e10	1	-1E+10	1	-1E+10	1	-1E+10	1
4902624	39	C	07/16/2025	14:29	-129.627	49.116	0	498.10	0	4.9947	0	34.0841	0	26.954	0	493.276	0	28.1	4	9.1	4	-1E+10	1	0.0648	4	0.000209	0	-1E+10	1	-1E+10	1	-1E+10	1
4902624	39	C	07/16/2025	14:29	-129.627	49.116	0	505.10	0	4.9490	0	34.0910	0	26.965	0	500.200	0	-1e10	1	-1e10	1	-1E+10	1	-1e10	1	-1e10	1	-1E+10	1	-1E+10	1	-1E+10	1
4902624	39	C	07/16/2025	14:29	-129.627	49.116	0	509.80	0	4.9452	0	34.0968	0	26.970	0	504.848	0	25.9	4	8.4	4	-1E+10	1	0.0444	4	0.000240	0	-1E+10	1	-1E+10	1	-1E+10	1
4902624	39	C	07/16/2025	14:29	-129.627	49.116	0	514.90	0	4.9410	0	34.1030	0	26.976	0	509.893	0	-1e10	1	-1e10	1	-1E+10	1	-1e10	1	-1e10	1	-1E+10	1	-1E+10	1	-1E+10	1
4902624	39	C	07/16/2025	14:29	-129.627	49.116	0	521.80	0	4.9452	0	34.1114	0	26.982	0	516.717	0	23.9	4	7.7	4	-1E+10	1	0.0587	4	0.000185	0	-1E+10	1	-1E+10	1	-1E+10	1
4902624	39	C	07/16/2025	14:29	-129.627	49.116	0	524.80	0	4.9470	0	34.1150	0	26.984	0	519.684	0	-1e10	1	-1e10	1	-1E+10	1	-1e10	1	-1e10	1	-1E+10	1	-1E+10	1	-1E+10	1
4902624	39	C	07/16/2025	14:29	-129.627	49.116	0	533.80	0	4.9074	0	34.1213	0	26.994	0	528.585	0	22.5	4	7.3	4	-1E+10	1	0.0645	4	0.000208	0	-1E+10	1	-1E+10	1	-1E+10	1
4902624	39	C	07/16/2025	14:29	-129.627	49.116	0	534.80	0	4.9030	0	34.1220	0	26.995	0	529.574	0	-1e10	1	-1e10	1	-1E+10	1	-1e10	1	-1e10	1	-1E+10	1	-1E+10	1	-1E+10	1
4902624	39	C	07/16/2025	14:29	-129.627	49.116	0	544.70	0	4.8370	0	34.1250	0	27.005	0	539.364	0	-1e10	1	-1e10	1	-1E+10	1	-1e10	1	-1e10	1	-1E+10	1	-1E+10	1	-1E+10	1
4902624	39	C	07/16/2025	14:29	-129.627	49.116	0	545.90	0	4.8336	0	34.1256	0	27.006	0	540.551	0	21.7	4	7.0	4	-1E+10	1	0.0374	4	0.000230	0	-1E+10	1	-1E+10	1	-1E+10	1
4902624	39	C	07/16/2025	14:29	-129.627	49.116	0	554.90	0	4.8080	0	34.1300	0	27.012	0	549.451	0	-1e10	1	-1e10	1	-1E+10	1	-1e10	1	-1e10	1	-1E+10	1	-1E+10	1	-1E+10	1
4902624	39	C	07/16/2025	14:29	-129.627	49.116	0	557.30	0	4.8042	0	34.1319	0	27.014	0	551.824	0	20.8	4	6.7	4	-1E+10	1	0.0581	4	0.000222	0	-1E+10	1	-1E+10	1	-1E+10	1
4902624	39	C	07/16/2025	14:29	-129.627	49.116	0	565.10	0	4.7920	0	34.1380	0	27.020	0	559.537	0	-1e10	1	-1e10	1	-1E+10	1	-1e10	1	-1e10	1	-1E+10	1	-1E+10	1	-1E+10	1
4902624	39	C	07/16/2025	14:29	-129.627	49.116	0	565.50	0	4.7910	0	34.1384	0	27.021	0	559.932	0	19.5	4	6.3	4	-1E+10	1	0.0508	4	0.000318	0	-1E+10	1	-1E+10	1	-1E+10	1
4902624	39	C	07/16/2025	14:29	-129.627	49.116	0	574.10	0	4.7688	0	34.1478	0	27.031	0	568.436	0	18.5	4	5.9	4	-1E+10	1	0.0438	4	0.000208	0	-1E+10	1	-1E+10	1	-1E+10	1
4902624	39	C	07/16/2025	14:29	-129.627	49.116	0	575.20	0	4.7660	0	34.1490	0	27.032	0	569.524	0	-1e10	1	-1e10	1	-1E+10	1	-1e10	1	-1e10	1	-1E+10	1	-1E+10	1	-1E+10	1
4902624	39	C	07/16/2025	14:29	-129.627	49.116	0	583.10	0	4.7367	0	34.1555	0	27.041	0	577.335	0	17.8	4	5.7	4	-1E+10	1	0.0441	4	0.000245	0	-1E+10	1	-1E+10	1	-1E+10	1
4902624	39	C	07/16/2025	14:29	-129.627	49.116	0	584.90	0	4.7300	0	34.1570	0	27.043	0	579.114	0	-1e10	1	-1e10	1	-1E+10	1	-1e10	1	-1e10	1	-1E+10	1	-1E+10	1	-1E+10	1
4902624	39	C	07/16/2025	14:29	-129.627	49.116	0	592.50	0	4.7110	0	34.1600	0	27.047	0	586.629	0	17.2	4	5.5	4	-1E+10	1	0.0514	4	0.000320	0	-1E+10	1	-1E+10	1	-1E+10	1
4902624	39	C	07/16/2025	14:29	-129.627	49.116	0	594.90	0	4.7050	0	34.1610	0	27.049	0	589.001	0	-1e10	1	-1e10	1	-1E+10	1	-1e10	1	-1e10	1	-1E+10	1	-1E+10	1	-1E+10	1
4902624	39	C	07/16/2025	14:29	-129.627	49.116	0	602.20	0	4.6857	0	34.1660	0	27.055	0	596.219	0	16.2	4	5.2	4	-1E+10	1	0.0584	4	0.000229	0	-1E+10	1	-1E+10	1	-1E+10	1
4902624	39	C	07/16/2025	14:29	-129.627	49.116	0	605.10	0	4.6780	0	34.1680	0	27.057	0	599.086	0	-1e10	1	-1e10	1	-1E+10	1	-1e10	1	-1e10	1	-1E+10	1	-1E+10	1	-1E+10	1
4902624	39	C	07/16/2025	14:29	-129.627	49.116	0	612.00	0	4.6648	0	34.1729	0	27.063	0	605.907	0	15.4	4	5.0	4	-1E+10	1	0.0581	4	0.000196	0	-1E+10	1	-1E+10	1	-1E+10	1
4902624	39	C	07/16/2025	14:29	-129.627	49.116	0	615.00	0	4.6590	0	34.1750	0	27.065	0	608.873	0	-1e10	1	-1e10	1	-1E+10	1	-1e10	1	-1e10	1	-1E+10	1	-1E+10	1	-1E+10	1
4902624	39	C	07/16/2025	14:29	-129.627	49.116	0	621.60	0	4.6372	0	34.1796	0	27.071	0	615.397	0	14.6	4	4.7	4	-1E+10	1	0.0514	4	0.000241	0	-1E+10	1	-1E+10	1	-1E+10	1
4902624	39	C	07/16/2025	14:29	-129.627	49.116	0	625.00	0	4.6260	0	34.1820	0	27.074	0	618.758	0	-1e10	1	-1e10	1	-1E+10	1	-1e10	1	-1e10	1	-1E+10	1	-1E+10	1	-1E+10	1
4902624	39	C	07/16/2025	14:29	-129.627	49.116	0	631.00	0	4.5942	0	34.1875	0	27.082	0	624.689	0	13.8	4	4.4	4	-1E+10	1	0.0584	4	0.000230	0	-1E+10	1	-1E+10	1	-1E+10	1
4902624	39	C	07/16/2025	14:29	-129.627	49.116	0	634.80	0	4.5740	0	34.1910	0	27.087	0	628.446	0	-1e10	1	-1e10	1	-1E+10	1	-1e10	1	-1e10	1	-1E+10	1	-1E+10	1	-1E+10	1
4902624	39	C	07/16/2025	14:29	-129.627	49.116	0	640.30	0	4.5528	0	34.1948	0	27.092	0	633.882	0	13.3	4	4.2	4	-1E+10	1	0.0586	4	0.000240	0	-1E+10	1	-1E+10	1	-1E+10	1
4902624	39	C	07/16/2025	14:29	-129.627	49.116	0	644.90	0	4.5350	0	34.1980	0	27.097	0	638.429	0	-1e10	1	-1e10	1	-1E+10	1	-1e10	1	-1e10	1	-1E+10	1	-1E+10	1	-1E+10	1
4902624	39	C	07/16/2025	14:29	-129.627	49.116	0	649.60	0	4.5024	0	34.2022	0	27.104	0	643.075	0	12.6	4	4.0	4	-1E+10	1	0.0660	4	0.000217	0	-1E+10	1	-1E+10	1	-1E+10	1
4902624	39	C	07/16/2025	14:29	-129.627	49.116	0	655.00	0	4.4650	0	34.2070	0	27.112	0	648.412	0	-1e10	1	-1e10	1	-1E+10	1	-1e10	1	-1e10	1	-1E+10	1	-1E+10	1	-1E+10	1
4902624	39	C	07/16/2025	14:29	-129.627	49.116	0	659.10	0	4.4574	0	34.2110	0	27.116	0	652.464	0	11.9	4	3.8	4	-1E+10	1	0.0724	4	0.000194	0	-1E+10	1	-1E+10	1	-1E+10	1
4902624	39	C	07/16/2025	14:29	-129.627	49.116	0	665.20	0	4.4460	0	34.2170	0	27.122	0	658.493	0	-1e10	1	-1e10	1	-1E+10	1	-1e10	1	-1e10	1	-1E+10	1	-1E+10	1	-1E+10	1
4902624	39	C	07/16/2025	14:29	-129.627	49.116	0	668.70	0	4.4356	0	34.2199	0	27.125	0	661.952	0	11.3	4	3.6	4	-1E+10	1	0.0581	4	0.000205	0	-1E+10	1	-1E+10	1	-1E+10	1
4902624	39	C	07/16/2025	14:29	-129.627	49.116	0	675.00	0	4.4170	0	34.2250	0	27.131	0	668.179	0	-1e10	1	-1e10	1	-1E+10	1	-1e10	1	-1e10	1	-1E+10	1	-1E+10	1	-1E+10	1
4902624	39	C	07/16/2025	14:29	-129.627	49.116	0	678.50	0	4.4067	0	34.2278	0	27.135	0	671.638	0	10.7	4	3.4	4	-1E+10	1	0.0514	4	0.000196	0	-1E+10	1	-1E+10	1	-1E+10	1
4902624	39	C	07/16/2025	14:29	-129.627	49.116	0	684.90	0	4.3880	0	34.2330	0	27.141	0	677.963	0	-1e10	1	-1e10	1	-1E+10	1	-1e10	1	-1e10	1	-1E+10	1	-1E+10	1	-1E+10	1
4902624	39	C	07/16/2025	14:29	-129.627	49.116	0	688.70	0	4.3755	0	34.2363	0	27.145	0	681.718	0	10.1	4	3.2	4	-1E+10	1	0.0584	4	0.000250	0	-1E+10	1	-1E+10	1	-1E+10	1
4902624	39	C	07/16/2025	14:29	-129.627	49.116	0	695.20	0	4.3540	0	34.2420	0	27.152	0	688.141	0	-1e10	1	-1e10	1	-1E+10	1	-1e10	1	-1e10	1	-1E+10	1	-1E+10	1	-1E+10	1
4902624	39	C	07/16/2025	14:29	-129.627	49.116	0	699.20	0	4.3379	0	34.2449	0	27.156	0	692.094	0	9.8	4	3.1	4	-1E+10	1	0.0594	4	0.000184	0	-1E+10	1	-1E+10	1	-1E+10	1
4902624	39	C	07/16/2025	14:29	-129.627	49.116	0	704.90	0	4.3150	0	34.2490	0	27.161	0	697.727	0	-1e10	1	-1e10	1	-1E+10	1	-1e10	1	-1e10	1	-1E+10	1	-1E+10	1	-1E+10	1
4902624	39	C	07/16/2025	14:29	-129.627	49.116	0	709.80	0	4.3019	0	34.2529	0	27.166	0	702.568	0	9.4	4	3.0	4	-1E+10	1	0.0798	4	0.000230	0	-1E+10	1	-1E+10	1	-1E+10	1
4902624	39	C	07/16/2025	14:29	-129.627	49.116	0	715.00	0	4.2880	0	34.2570	0	27.171	0	707.707	0	-1e10	1	-1e10	1	-1E+10	1	-1e10	1	-1e10	1	-1E+10	1	-1E+10	1	-1E+10	1
4902624	39	C	07/16/2025	14:29	-129.627	49.116	0	720.80	0	4.2741	0	34.2593	0	27.174	0	713.438	0	9.2	4	2.9	4	-1E+10	1	0.0657	4	0.000263	0	-1E+10	1	-1E+10	1	-1E+10	1
4902624	39	C	07/16/2025	14:29	-129.627	49.116	0	725.00	0	4.2640	0	34.2610	0	27.177	0	717.587	0	-1e10	1	-1e10	1	-1E+10	1	-1e10	1	-1e10	1	-1E+10	1	-1E+10	1	-1E+10	1
4902624	39	C	07/16/2025	14:29	-129.627	49.116	0	731.60	0	4.2385	0	34.2662	0	27.183	0	724.108	0	8.8	4	2.8	4	-1E+10	1	0.0654	4	0.000239	0	-1E+10	1	-1E+10	1	-1E+10	1
4902624	39	C	07/16/2025	14:29	-129.627	49.116	0	735.10	0	4.2250	0	34.2690	0	27.187	0	727.567	0	-1e10	1	-1e10	1	-1E+10	1	-1e10	1	-1e10	1	-1E+10	1	-1E+10	1	-1E+10	1
4902624	39	C	07/16/2025	14:29	-129.627	49.116	0	742.90	0	4.1967	0	34.2721	0	27.193	0	735.273	0	8.9	4	2.8	4	-1E+10	1	0.0577	4	0.000205	0	-1E+10	1	-1E+10	1	-1E+10	1
4902624	39	C	07/16/2025	14:29	-129.627	49.116	0	745.30	0	4.1880	0	34.2730	0	27.194	0	737.644	0	-1e10	1	-1e10	1	-1E+10	1	-1e10	1	-1e10	1	-1E+10	1	-1E+10	1	-1E+10	1
4902624	39	C	07/16/2025	14:29	-129.627	49.116	0	750.90	0	4.1789	0	34.2747	0	27.197	0	743.177	0	8.7	4	2.8	4	-1E+10	1	0.0438	4	0.000204	0	-1E+10	1	-1E+10	1	-1E+10	1
4902624	39	C	07/16/2025	14:29	-129.627	49.116	0	755.20	0	4.1720	0	34.2760	0	27.198	0	747.425	0	-1e10	1	-1e10	1	-1E+10	1	-1e10	1	-1e10	1	-1E+10	1	-1E+10	1	-1E+10	1
4902624	39	C	07/16/2025	14:29	-129.627	49.116	0	759.10	0	4.1637	0	34.2795	0	27.202	0	751.277	0	8.4	4	2.7	4	-1E+10	1	0.0443	4	0.000192	0	-1E+10	1	-1E+10	1	-1E+10	1
4902624	39	C	07/16/2025	14:29	-129.627	49.116	0	765.10	0	4.1510	0	34.2850	0	27.208	0	757.205	0	-1e10	1	-1e10	1	-1E+10	1	-1e10	1	-1e10	1	-1E+10	1	-1E+10	1	-1E+10	1
4902624	39	C	07/16/2025	14:29	-129.627	49.116	0	768.00	0	4.1402	0	34.2865	0	27.210	0	760.069	0	8.3	4	2.6	4	-1E+10	1	0.0581	4	0.000172	0	-1E+10	1	-1E+10	1	-1E+10	1
4902624	39	C	07/16/2025	14:29	-129.627	49.116	0	775.00	0	4.1140	0	34.2900	0	27.216	0	766.984	0	-1e10	1	-1e10	1	-1E+10	1	-1e10	1	-1e10	1	-1E+10	1	-1E+10	1	-1E+10	1
4902624	39	C	07/16/2025	14:29	-129.627	49.116	0	777.30	0	4.1080	0	34.2916	0	27.218	0	769.256	0	8.2	4	2.6	4	-1E+10	1	0.0517	4	0.000238	0	-1E+10	1	-1E+10	1	-1E+10	1
4902624	39	C	07/16/2025	14:29	-129.627	49.116	0	785.00	0	4.0880	0	34.2970	0	27.224	0	776.862	0	-1e10	1	-1e10	1	-1E+10	1	-1e10	1	-1e10	1	-1E+10	1	-1E+10	1	-1E+10	1
4902624	39	C	07/16/2025	14:29	-129.627	49.116	0	786.90	0	4.0837	0	34.2983	0	27.225	0	778.739	0	8.0	4	2.5	4	-1E+10	1	0.0654	4	0.000203	0	-1E+10	1	-1E+10	1	-1E+10	1
4902624	39	C	07/16/2025	14:29	-129.627	49.116	0	795.10	0	4.0650	0	34.3040	0	27.232	0	786.839	0	-1e10	1	-1e10	1	-1E+10	1	-1e10	1	-1e10	1	-1E+10	1	-1E+10	1	-1E+10	1
4902624	39	C	07/16/2025	14:29	-129.627	49.116	0	797.00	0	4.0610	0	34.3048	0	27.233	0	788.715	0	8.0	4	2.5	4	-1E+10	1	0.0581	4	0.000182	0	-1E+10	1	-1E+10	1	-1E+10	1
4902624	39	C	07/16/2025	14:29	-129.627	49.116	0	805.10	0	4.0440	0	34.3080	0	27.237	0	796.716	0	-1e10	1	-1e10	1	-1E+10	1	-1e10	1	-1e10	1	-1E+10	1	-1E+10	1	-1E+10	1
4902624	39	C	07/16/2025	14:29	-129.627	49.116	0	807.50	0	4.0421	0	34.3085	0	27.238	0	799.086	0	7.9	4	2.5	4	-1E+10	1	0.0508	4	0.000205	0	-1E+10	1	-1E+10	1	-1E+10	1
4902624	39	C	07/16/2025	14:29	-129.627	49.116	0	815.10	0	4.0360	0	34.3100	0	27.240	0	806.592	0	-1e10	1	-1e10	1	-1E+10	1	-1e10	1	-1e10	1	-1E+10	1	-1E+10	1	-1E+10	1
4902624	39	C	07/16/2025	14:29	-129.627	49.116	0	818.40	0	4.0286	0	34.3110	0	27.241	0	809.851	0	7.9	4	2.5	4	-1E+10	1	0.0438	4	0.000226	0	-1E+10	1	-1E+10	1	-1E+10	1
4902624	39	C	07/16/2025	14:29	-129.627	49.116	0	824.90	0	4.0140	0	34.3130	0	27.245	0	816.271	0	-1e10	1	-1e10	1	-1E+10	1	-1e10	1	-1e10	1	-1E+10	1	-1E+10	1	-1E+10	1
4902624	39	C	07/16/2025	14:29	-129.627	49.116	0	829.60	0	4.0021	0	34.3149	0	27.247	0	820.912	0	7.9	4	2.5	4	-1E+10	1	0.0441	4	0.000193	0	-1E+10	1	-1E+10	1	-1E+10	1
4902624	39	C	07/16/2025	14:29	-129.627	49.116	0	834.80	0	3.9890	0	34.3170	0	27.250	0	826.048	0	-1e10	1	-1e10	1	-1E+10	1	-1e10	1	-1e10	1	-1E+10	1	-1E+10	1	-1E+10	1
4902624	39	C	07/16/2025	14:29	-129.627	49.116	0	841.10	0	3.9665	0	34.3195	0	27.255	0	832.269	0	7.9	4	2.5	4	-1E+10	1	0.0514	4	0.000214	0	-1E+10	1	-1E+10	1	-1E+10	1
4902624	39	C	07/16/2025	14:29	-129.627	49.116	0	844.90	0	3.9530	0	34.3210	0	27.257	0	836.022	0	-1e10	1	-1e10	1	-1E+10	1	-1e10	1	-1e10	1	-1E+10	1	-1E+10	1	-1E+10	1
4902624	39	C	07/16/2025	14:29	-129.627	49.116	0	852.90	0	3.9345	0	34.3233	0	27.261	0	843.921	0	7.9	4	2.5	4	-1E+10	1	0.0586	4	0.000192	0	-1E+10	1	-1E+10	1	-1E+10	1
4902624	39	C	07/16/2025	14:29	-129.627	49.116	0	855.30	0	3.9290	0	34.3240	0	27.262	0	846.291	0	-1e10	1	-1e10	1	-1E+10	1	-1e10	1	-1e10	1	-1E+10	1	-1E+10	1	-1E+10	1
4902624	39	C	07/16/2025	14:29	-129.627	49.116	0	865.00	0	3.9092	0	34.3280	0	27.267	0	855.869	0	7.9	4	2.5	4	-1E+10	1	0.0651	4	0.000202	0	-1E+10	1	-1E+10	1	-1E+10	1
4902624	39	C	07/16/2025	14:29	-129.627	49.116	0	865.10	0	3.9090	0	34.3280	0	27.267	0	855.968	0	-1e10	1	-1e10	1	-1E+10	1	-1e10	1	-1e10	1	-1E+10	1	-1E+10	1	-1E+10	1
4902624	39	C	07/16/2025	14:29	-129.627	49.116	0	875.00	0	3.8790	0	34.3360	0	27.277	0	865.743	0	-1e10	1	-1e10	1	-1E+10	1	-1e10	1	-1e10	1	-1E+10	1	-1E+10	1	-1E+10	1
4902624	39	C	07/16/2025	14:29	-129.627	49.116	0	877.30	0	3.8721	0	34.3367	0	27.278	0	868.014	0	7.9	4	2.5	4	-1E+10	1	0.0514	4	0.000172	0	-1E+10	1	-1E+10	1	-1E+10	1
4902624	39	C	07/16/2025	14:29	-129.627	49.116	0	885.00	0	3.8490	0	34.3390	0	27.282	0	875.616	0	-1e10	1	-1e10	1	-1E+10	1	-1e10	1	-1e10	1	-1E+10	1	-1E+10	1	-1E+10	1
4902624	39	C	07/16/2025	14:29	-129.627	49.116	0	889.70	0	3.8376	0	34.3409	0	27.285	0	880.257	0	7.9	4	2.5	4	-1E+10	1	0.0581	4	0.000258	0	-1E+10	1	-1E+10	1	-1E+10	1
4902624	39	C	07/16/2025	14:29	-129.627	49.116	0	894.90	0	3.8250	0	34.3430	0	27.288	0	885.390	0	-1e10	1	-1e10	1	-1E+10	1	-1e10	1	-1e10	1	-1E+10	1	-1E+10	1	-1E+10	1
4902624	39	C	07/16/2025	14:29	-129.627	49.116	0	901.90	0	3.8133	0	34.3457	0	27.291	0	892.301	0	7.9	4	2.5	4	-1E+10	1	0.0516	4	0.000180	0	-1E+10	1	-1E+10	1	-1E+10	1
4902624	39	C	07/16/2025	14:29	-129.627	49.116	0	905.10	0	3.8080	0	34.3470	0	27.293	0	895.460	0	-1e10	1	-1e10	1	-1E+10	1	-1e10	1	-1e10	1	-1E+10	1	-1E+10	1	-1E+10	1
4902624	39	C	07/16/2025	14:29	-129.627	49.116	0	914.40	0	3.7805	0	34.3517	0	27.300	0	904.641	0	8.0	4	2.5	4	-1E+10	1	0.0651	4	0.000190	0	-1E+10	1	-1E+10	1	-1E+10	1
4902624	39	C	07/16/2025	14:29	-129.627	49.116	0	914.90	0	3.7790	0	34.3520	0	27.300	0	905.135	0	-1e10	1	-1e10	1	-1E+10	1	-1e10	1	-1e10	1	-1E+10	1	-1E+10	1	-1E+10	1
4902624	39	C	07/16/2025	14:29	-129.627	49.116	0	925.00	0	3.7620	0	34.3560	0	27.305	0	915.105	0	-1e10	1	-1e10	1	-1E+10	1	-1e10	1	-1e10	1	-1E+10	1	-1E+10	1	-1E+10	1
4902624	39	C	07/16/2025	14:29	-129.627	49.116	0	926.70	0	3.7598	0	34.3565	0	27.306	0	916.783	0	7.9	4	2.5	4	-1E+10	1	0.0520	4	0.000167	0	-1E+10	1	-1E+10	1	-1E+10	1
4902624	39	C	07/16/2025	14:29	-129.627	49.116	0	935.00	0	3.7490	0	34.3590	0	27.309	0	924.976	0	-1e10	1	-1e10	1	-1E+10	1	-1e10	1	-1e10	1	-1E+10	1	-1E+10	1	-1E+10	1
4902624	39	C	07/16/2025	14:29	-129.627	49.116	0	939.20	0	3.7452	0	34.3620	0	27.311	0	929.121	0	8.0	4	2.5	4	-1E+10	1	0.0724	4	0.000168	0	-1E+10	1	-1E+10	1	-1E+10	1
4902624	39	C	07/16/2025	14:29	-129.627	49.116	0	944.90	0	3.7400	0	34.3660	0	27.315	0	934.747	0	-1e10	1	-1e10	1	-1E+10	1	-1e10	1	-1e10	1	-1E+10	1	-1E+10	1	-1E+10	1
4902624	39	C	07/16/2025	14:29	-129.627	49.116	0	951.60	0	3.7164	0	34.3680	0	27.319	0	941.360	0	8.0	4	2.5	4	-1E+10	1	0.0584	4	0.000182	0	-1E+10	1	-1E+10	1	-1E+10	1
4902624	39	C	07/16/2025	14:29	-129.627	49.116	0	955.10	0	3.7040	0	34.3690	0	27.321	0	944.815	0	-1e10	1	-1e10	1	-1E+10	1	-1e10	1	-1e10	1	-1E+10	1	-1E+10	1	-1E+10	1
4902624	39	C	07/16/2025	14:29	-129.627	49.116	0	963.90	0	3.6794	0	34.3725	0	27.327	0	953.500	0	8.2	4	2.6	4	-1E+10	1	0.0587	4	0.000247	0	-1E+10	1	-1E+10	1	-1E+10	1
4902624	39	C	07/16/2025	14:29	-129.627	49.116	0	965.10	0	3.6760	0	34.3730	0	27.327	0	954.684	0	-1e10	1	-1e10	1	-1E+10	1	-1e10	1	-1e10	1	-1E+10	1	-1E+10	1	-1E+10	1
4902624	39	C	07/16/2025	14:29	-129.627	49.116	0	975.10	0	3.6580	0	34.3770	0	27.332	0	964.553	0	-1e10	1	-1e10	1	-1E+10	1	-1e10	1	-1e10	1	-1E+10	1	-1E+10	1	-1E+10	1
4902624	39	C	07/16/2025	14:29	-129.627	49.116	0	976.10	0	3.6554	0	34.3774	0	27.333	0	965.540	0	10.0	4	3.1	4	-1E+10	1	0.0654	4	0.000202	0	-1E+10	1	-1E+10	1	-1E+10	1
4902624	39	C	07/16/2025	14:29	-129.627	49.116	0	985.10	0	3.6320	0	34.3810	0	27.338	0	974.422	0	-1e10	1	-1e10	1	-1E+10	1	-1e10	1	-1e10	1	-1E+10	1	-1E+10	1	-1E+10	1
4902624	39	C	07/16/2025	14:29	-129.627	49.116	0	988.20	0	3.6247	0	34.3823	0	27.340	0	977.481	0	28.0	4	8.8	4	-1E+10	1	0.0581	4	0.000198	0	-1E+10	1	-1E+10	1	-1E+10	1
4902624	39	C	07/16/2025	14:29	-129.627	49.116	0	994.90	0	3.6090	0	34.3850	0	27.344	0	984.093	0	-1e10	1	-1e10	1	-1E+10	1	-1e10	1	-1e10	1	-1E+10	1	-1E+10	1	-1E+10	1
4902624	39	C	07/16/2025	14:29	-129.627	49.116	0	999.50	0	3.5970	0	34.3873	0	27.347	0	988.632	0	24.8	4	7.8	4	-1E+10	1	0.0512	4	0.000376	0	-1E+10	1	-1E+10	1	-1E+10	1
4902624	39	C	07/16/2025	14:29	-129.627	49.116	0	1015.70	0	3.5549	0	34.3954	0	27.357	0	1004.617	0	9.0	4	2.8	4	-1E+10	1	0.0584	4	0.000258	0	-1E+10	1	-1E+10	1	-1E+10	1
4902624	39	C	07/16/2025	14:29	-129.627	49.116	0	1024.90	0	3.5310	0	34.4000	0	27.363	0	1013.694	0	-1e10	1	-1e10	1	-1E+10	1	-1e10	1	-1e10	1	-1E+10	1	-1E+10	1	-1E+10	1
4902624	39	C	07/16/2025	14:29	-129.627	49.116	0	1032.30	0	3.5127	0	34.4024	0	27.367	0	1020.995	0	9.2	4	2.9	4	-1E+10	1	0.0586	4	0.000178	0	-1E+10	1	-1E+10	1	-1E+10	1
4902624	39	C	07/16/2025	14:29	-129.627	49.116	0	1050.00	0	3.4690	0	34.4081	0	27.376	0	1038.458	0	18.6	4	5.8	4	-1E+10	1	0.0654	4	0.000166	0	-1E+10	1	-1E+10	1	-1E+10	1
4902624	39	C	07/16/2025	14:29	-129.627	49.116	0	1069.10	0	3.4218	0	34.4142	0	27.385	0	1057.300	0	32.5	4	10.1	4	-1E+10	1	0.0512	4	0.000189	0	-1E+10	1	-1E+10	1	-1E+10	1
4902624	39	C	07/16/2025	14:29	-129.627	49.116	0	1074.70	0	3.4080	0	34.4160	0	27.388	0	1062.824	0	-1e10	1	-1e10	1	-1E+10	1	-1e10	1	-1e10	1	-1E+10	1	-1E+10	1	-1E+10	1
4902624	39	C	07/16/2025	14:29	-129.627	49.116	0	1089.70	0	3.3515	0	34.4154	0	27.393	0	1077.619	0	74.7	8	23.3	8	-1E+10	1	0.0584	4	0.000165	0	-1E+10	1	-1E+10	1	-1E+10	1
4902624	39	C	07/16/2025	14:29	-129.627	49.116	0	1111.70	0	3.2687	0	34.4145	0	27.400	0	1099.318	0	46.0	4	14.3	4	-1E+10	1	0.0581	4	0.000154	0	-1E+10	1	-1E+10	1	-1E+10	1
4902624	39	C	07/16/2025	14:29	-129.627	49.116	0	1124.90	0	3.2190	0	34.4140	0	27.404	0	1112.336	0	-1e10	1	-1e10	1	-1E+10	1	-1e10	1	-1e10	1	-1E+10	1	-1E+10	1	-1E+10	1
4902624	39	C	07/16/2025	14:29	-129.627	49.116	0	1134.80	0	3.1945	0	34.4170	0	27.409	0	1122.099	0	60.9	4	18.9	4	-1E+10	1	0.0443	4	0.000164	0	-1E+10	1	-1E+10	1	-1E+10	1
4902624	39	C	07/16/2025	14:29	-129.627	49.116	0	1159.00	0	3.1348	0	34.4242	0	27.421	0	1145.962	0	65.6	4	20.3	4	-1E+10	1	0.0656	4	0.000141	0	-1E+10	1	-1E+10	1	-1E+10	1
4902624	39	C	07/16/2025	14:29	-129.627	49.116	0	1175.10	0	3.0950	0	34.4290	0	27.428	0	1161.837	0	-1e10	1	-1e10	1	-1E+10	1	-1e10	1	-1e10	1	-1E+10	1	-1E+10	1	-1E+10	1
4902624	39	C	07/16/2025	14:29	-129.627	49.116	0	1183.50	0	3.0757	0	34.4317	0	27.432	0	1170.118	0	67.1	4	20.7	4	-1E+10	1	0.0584	4	0.000153	0	-1E+10	1	-1E+10	1	-1E+10	1
4902624	39	C	07/16/2025	14:29	-129.627	49.116	0	1208.00	0	3.0193	0	34.4394	0	27.444	0	1194.272	0	92.8	4	28.7	4	-1E+10	1	0.0584	4	0.000152	0	-1E+10	1	-1E+10	1	-1E+10	1
4902624	39	C	07/16/2025	14:29	-129.627	49.116	0	1225.00	0	2.9802	0	34.4448	0	27.451	0	1211.030	0	90.9	4	28.1	4	-1E+10	1	0.0584	4	0.000140	0	-1E+10	1	-1E+10	1	-1E+10	1
4902624	39	C	07/16/2025	14:29	-129.627	49.116	0	1225.50	0	2.9790	0	34.4450	0	27.452	0	1211.523	0	-1e10	1	-1e10	1	-1E+10	1	-1e10	1	-1e10	1	-1E+10	1	-1E+10	1	-1E+10	1
4902624	39	C	07/16/2025	14:29	-129.627	49.116	0	1241.30	0	2.9456	0	34.4501	0	27.459	0	1227.096	0	67.6	4	20.8	4	-1E+10	1	0.0581	4	0.000129	0	-1E+10	1	-1E+10	1	-1E+10	1
4902624	39	C	07/16/2025	14:29	-129.627	49.116	0	1258.30	0	2.9097	0	34.4557	0	27.467	0	1243.852	0	67.4	4	20.8	4	-1E+10	1	0.0442	4	0.000151	0	-1E+10	1	-1E+10	1	-1E+10	1
4902624	39	C	07/16/2025	14:29	-129.627	49.116	0	1274.70	0	2.8750	0	34.4610	0	27.474	0	1260.014	0	-1e10	1	-1e10	1	-1E+10	1	-1e10	1	-1e10	1	-1E+10	1	-1E+10	1	-1E+10	1
4902624	39	C	07/16/2025	14:29	-129.627	49.116	0	1276.20	0	2.8731	0	34.4613	0	27.474	0	1261.492	0	66.3	4	20.4	4	-1E+10	1	0.0655	4	0.000128	0	-1E+10	1	-1E+10	1	-1E+10	1
4902624	39	C	07/16/2025	14:29	-129.627	49.116	0	1295.40	0	2.8486	0	34.4651	0	27.480	0	1280.413	0	68.6	4	21.1	4	-1E+10	1	0.0510	4	0.000116	0	-1E+10	1	-1E+10	1	-1E+10	1
4902624	39	C	07/16/2025	14:29	-129.627	49.116	0	1315.20	0	2.8234	0	34.4691	0	27.485	0	1299.923	0	71.7	4	22.0	4	-1E+10	1	0.0441	4	0.000117	0	-1E+10	1	-1E+10	1	-1E+10	1
4902624	39	C	07/16/2025	14:29	-129.627	49.116	0	1324.90	0	2.8110	0	34.4710	0	27.488	0	1309.480	0	-1e10	1	-1e10	1	-1E+10	1	-1e10	1	-1e10	1	-1E+10	1	-1E+10	1	-1E+10	1
4902624	39	C	07/16/2025	14:29	-129.627	49.116	0	1335.10	0	2.7971	0	34.4730	0	27.491	0	1319.529	0	77.8	4	23.9	4	-1E+10	1	0.0581	4	0.000173	0	-1E+10	1	-1E+10	1	-1E+10	1
4902624	39	C	07/16/2025	14:29	-129.627	49.116	0	1355.90	0	2.7686	0	34.4771	0	27.497	0	1340.021	0	83.5	4	25.6	4	-1E+10	1	0.0437	4	0.000139	0	-1E+10	1	-1E+10	1	-1E+10	1
4902624	39	C	07/16/2025	14:29	-129.627	49.116	0	1375.40	0	2.7420	0	34.4810	0	27.502	0	1359.230	0	-1e10	1	-1e10	1	-1E+10	1	-1e10	1	-1e10	1	-1E+10	1	-1E+10	1	-1E+10	1
4902624	39	C	07/16/2025	14:29	-129.627	49.116	0	1377.50	0	2.7391	0	34.4814	0	27.503	0	1361.298	0	73.3	4	22.5	4	-1E+10	1	0.0368	4	0.000161	0	-1E+10	1	-1E+10	1	-1E+10	1
4902624	39	C	07/16/2025	14:29	-129.627	49.116	0	1400.10	0	2.7076	0	34.4855	0	27.509	0	1383.558	0	73.8	4	22.6	4	-1E+10	1	0.0510	4	0.000115	0	-1E+10	1	-1E+10	1	-1E+10	1
4902624	39	C	07/16/2025	14:29	-129.627	49.116	0	1422.60	0	2.6762	0	34.4896	0	27.515	0	1405.717	0	77.3	4	23.7	4	-1E+10	1	0.0438	4	0.000138	0	-1E+10	1	-1E+10	1	-1E+10	1
4902624	39	C	07/16/2025	14:29	-129.627	49.116	0	1424.90	0	2.6730	0	34.4900	0	27.516	0	1407.982	0	-1e10	1	-1e10	1	-1E+10	1	-1e10	1	-1e10	1	-1E+10	1	-1E+10	1	-1E+10	1
4902624	39	C	07/16/2025	14:29	-129.627	49.116	0	1445.60	0	2.6410	0	34.4933	0	27.521	0	1428.367	0	76.9	4	23.5	4	-1E+10	1	0.0440	4	0.000137	0	-1E+10	1	-1E+10	1	-1E+10	1
4902624	39	C	07/16/2025	14:29	-129.627	49.116	0	1469.30	0	2.6043	0	34.4970	0	27.527	0	1451.703	0	83.2	4	25.5	4	-1E+10	1	0.0583	4	0.000125	0	-1E+10	1	-1E+10	1	-1E+10	1
4902624	39	C	07/16/2025	14:29	-129.627	49.116	0	1475.30	0	2.5950	0	34.4980	0	27.529	0	1457.610	0	-1e10	1	-1e10	1	-1E+10	1	-1e10	1	-1e10	1	-1E+10	1	-1E+10	1	-1E+10	1
4902624	39	C	07/16/2025	14:29	-129.627	49.116	0	1492.40	0	2.5665	0	34.5018	0	27.535	0	1474.446	0	85.1	4	26.0	4	-1E+10	1	0.0512	4	0.000137	0	-1E+10	1	-1E+10	1	-1E+10	1
4902624	39	C	07/16/2025	14:29	-129.627	49.116	0	1508.60	0	2.5395	0	34.5054	0	27.540	0	1490.394	0	91.8	4	28.0	4	-1E+10	1	0.0581	4	0.000137	0	-1E+10	1	-1E+10	1	-1E+10	1
4902624	39	C	07/16/2025	14:29	-129.627	49.116	0	1524.50	0	2.5130	0	34.5090	0	27.545	0	1506.045	0	-1e10	1	-1e10	1	-1E+10	1	-1e10	1	-1e10	1	-1E+10	1	-1E+10	1	-1E+10	1
4902624	39	C	07/16/2025	14:29	-129.627	49.116	0	1525.70	0	2.5114	0	34.5093	0	27.545	0	1507.226	0	94.3	4	28.8	4	-1E+10	1	0.0438	4	0.000159	0	-1E+10	1	-1E+10	1	-1E+10	1
4902624	39	C	07/16/2025	14:29	-129.627	49.116	0	1543.30	0	2.4879	0	34.5131	0	27.551	0	1524.550	0	112.1	4	34.2	4	-1E+10	1	0.0440	4	0.000147	0	-1E+10	1	-1E+10	1	-1E+10	1
4902624	39	C	07/16/2025	14:29	-129.627	49.116	0	1561.80	0	2.4632	0	34.5172	0	27.556	0	1542.758	0	105.0	4	32.0	4	-1E+10	1	0.0511	4	0.000123	0	-1E+10	1	-1E+10	1	-1E+10	1
4902624	39	C	07/16/2025	14:29	-129.627	49.116	0	1574.70	0	2.4460	0	34.5200	0	27.560	0	1555.453	0	-1e10	1	-1e10	1	-1E+10	1	-1e10	1	-1e10	1	-1E+10	1	-1E+10	1	-1E+10	1
4902624	39	C	07/16/2025	14:29	-129.627	49.116	0	1580.90	0	2.4358	0	34.5214	0	27.562	0	1561.554	0	133.7	4	40.7	4	-1E+10	1	0.0511	4	0.000101	0	-1E+10	1	-1E+10	1	-1E+10	1
4902624	39	C	07/16/2025	14:29	-129.627	49.116	0	1600.50	0	2.4034	0	34.5256	0	27.568	0	1580.841	0	143.3	4	43.6	4	-1E+10	1	0.0512	4	0.000135	0	-1E+10	1	-1E+10	1	-1E+10	1
4902624	39	C	07/16/2025	14:29	-129.627	49.116	0	1620.90	0	2.3698	0	34.5301	0	27.574	0	1600.914	0	91.8	4	27.9	4	-1E+10	1	0.0583	4	0.000111	0	-1E+10	1	-1E+10	1	-1E+10	1
4902624	39	C	07/16/2025	14:29	-129.627	49.116	0	1625.00	0	2.3630	0	34.5310	0	27.576	0	1604.948	0	-1e10	1	-1e10	1	-1E+10	1	-1e10	1	-1e10	1	-1E+10	1	-1E+10	1	-1E+10	1
4902624	39	C	07/16/2025	14:29	-129.627	49.116	0	1642.40	0	2.3403	0	34.5341	0	27.580	0	1622.066	0	91.8	4	27.9	4	-1E+10	1	0.0511	4	0.000122	0	-1E+10	1	-1E+10	1	-1E+10	1
4902624	39	C	07/16/2025	14:29	-129.627	49.116	0	1664.70	0	2.3113	0	34.5380	0	27.586	0	1644.004	0	90.0	4	27.3	4	-1E+10	1	0.0513	4	0.000099	0	-1E+10	1	-1E+10	1	-1E+10	1
4902624	39	C	07/16/2025	14:29	-129.627	49.116	0	1675.70	0	2.2970	0	34.5400	0	27.588	0	1654.824	0	-1e10	1	-1e10	1	-1E+10	1	-1e10	1	-1e10	1	-1E+10	1	-1E+10	1	-1E+10	1
4902624	39	C	07/16/2025	14:29	-129.627	49.116	0	1683.80	0	2.2881	0	34.5415	0	27.590	0	1662.791	0	92.9	4	28.2	4	-1E+10	1	0.0583	4	0.000111	0	-1E+10	1	-1E+10	1	-1E+10	1
4902624	39	C	07/16/2025	14:29	-129.627	49.116	0	1699.60	0	2.2707	0	34.5444	0	27.594	0	1678.332	0	95.4	4	29.0	4	-1E+10	1	0.0511	4	0.000157	0	-1E+10	1	-1E+10	1	-1E+10	1
4902624	39	C	07/16/2025	14:29	-129.627	49.116	0	1716.60	0	2.2519	0	34.5475	0	27.598	0	1695.051	0	96.0	4	29.1	4	-1E+10	1	0.0511	4	0.000179	0	-1E+10	1	-1E+10	1	-1E+10	1
4902624	39	C	07/16/2025	14:29	-129.627	49.116	0	1724.70	0	2.2430	0	34.5490	0	27.600	0	1703.017	0	-1e10	1	-1e10	1	-1E+10	1	-1e10	1	-1e10	1	-1E+10	1	-1E+10	1	-1E+10	1
4902624	39	C	07/16/2025	14:29	-129.627	49.116	0	1734.60	0	2.2341	0	34.5502	0	27.602	0	1712.752	0	96.7	4	29.3	4	-1E+10	1	0.0509	4	0.000098	0	-1E+10	1	-1E+10	1	-1E+10	1
4902624	39	C	07/16/2025	14:29	-129.627	49.116	0	1753.50	0	2.2172	0	34.5524	0	27.605	0	1731.337	0	97.6	4	29.6	4	-1E+10	1	0.0436	4	0.000099	0	-1E+10	1	-1E+10	1	-1E+10	1
4902624	39	C	07/16/2025	14:29	-129.627	49.116	0	1772.90	0	2.1999	0	34.5547	0	27.609	0	1750.412	0	99.7	4	30.2	4	-1E+10	1	0.0369	4	0.000189	0	-1E+10	1	-1E+10	1	-1E+10	1
4902624	39	C	07/16/2025	14:29	-129.627	49.116	0	1775.00	0	2.1980	0	34.5550	0	27.609	0	1752.477	0	-1e10	1	-1e10	1	-1E+10	1	-1e10	1	-1e10	1	-1E+10	1	-1E+10	1	-1E+10	1
4902624	39	C	07/16/2025	14:29	-129.627	49.116	0	1793.00	0	2.1764	0	34.5586	0	27.614	0	1770.174	0	101.6	4	30.8	4	-1E+10	1	0.0583	4	0.000109	0	-1E+10	1	-1E+10	1	-1E+10	1
4902624	39	C	07/16/2025	14:29	-129.627	49.116	0	1813.40	0	2.1519	0	34.5627	0	27.619	0	1790.228	0	103.2	4	31.2	4	-1E+10	1	0.0508	4	0.000131	0	-1E+10	1	-1E+10	1	-1E+10	1
4902624	39	C	07/16/2025	14:29	-129.627	49.116	0	1825.00	0	2.1380	0	34.5650	0	27.622	0	1801.631	0	-1e10	1	-1e10	1	-1E+10	1	-1e10	1	-1e10	1	-1E+10	1	-1E+10	1	-1E+10	1
4902624	39	C	07/16/2025	14:29	-129.627	49.116	0	1834.10	0	2.1300	0	34.5663	0	27.624	0	1810.575	0	105.0	4	31.8	4	-1E+10	1	0.0368	4	0.000110	0	-1E+10	1	-1E+10	1	-1E+10	1
4902624	39	C	07/16/2025	14:29	-129.627	49.116	0	1855.00	0	2.1118	0	34.5692	0	27.628	0	1831.117	0	106.3	4	32.1	4	-1E+10	1	0.0511	4	0.000223	0	-1E+10	1	-1E+10	1	-1E+10	1
4902624	39	C	07/16/2025	14:29	-129.627	49.116	0	1875.30	0	2.0940	0	34.5720	0	27.631	0	1851.068	0	-1e10	1	-1e10	1	-1E+10	1	-1e10	1	-1e10	1	-1E+10	1	-1E+10	1	-1E+10	1
4902624	39	C	07/16/2025	14:29	-129.627	49.116	0	1876.10	0	2.0933	0	34.5721	0	27.632	0	1851.854	0	107.2	4	32.4	4	-1E+10	1	0.0512	4	0.000119	0	-1E+10	1	-1E+10	1	-1E+10	1
4902624	39	C	07/16/2025	14:29	-129.627	49.116	0	1898.00	0	2.0753	0	34.5752	0	27.636	0	1873.374	0	108.6	4	32.8	4	-1E+10	1	0.0581	4	0.000130	0	-1E+10	1	-1E+10	1	-1E+10	1
4902624	39	C	07/16/2025	14:29	-129.627	49.116	0	1920.10	0	2.0571	0	34.5783	0	27.640	0	1895.089	0	109.5	4	33.1	4	-1E+10	1	0.0435	4	0.000130	0	-1E+10	1	-1E+10	1	-1E+10	1
4902624	39	C	07/16/2025	14:29	-129.627	49.116	0	1925.10	0	2.0530	0	34.5790	0	27.641	0	1900.002	0	-1e10	1	-1e10	1	-1E+10	1	-1e10	1	-1e10	1	-1E+10	1	-1E+10	1	-1E+10	1
4902624	39	C	07/16/2025	14:29	-129.627	49.116	0	1942.40	0	2.0398	0	34.5811	0	27.643	0	1916.999	0	109.6	4	33.1	4	-1E+10	1	0.0297	4	0.000129	0	-1E+10	1	-1E+10	1	-1E+10	1
4902624	39	C	07/16/2025	14:29	-129.627	49.116	0	1965.00	0	2.0225	0	34.5839	0	27.647	0	1939.200	0	110.0	4	33.2	4	-1E+10	1	0.0583	4	0.000107	0	-1E+10	1	-1E+10	1	-1E+10	1
4902624	39	C	07/16/2025	14:29	-129.627	49.116	0	1973.50	0	2.0160	0	34.5850	0	27.648	0	1947.550	0	-1e10	1	-1e10	1	-1E+10	1	-1e10	1	-1e10	1	-1E+10	1	-1E+10	1	-1E+10	1
4902624	39	C	07/16/2025	14:29	-129.627	49.116	0	1981.60	0	-1e10	1	-1e10	1	-1e10	1	1955.506	0	116.4	4	-1e10	4	-1E+10	1	0.0513	4	0.000165	0	-1E+10	1	-1E+10	1	-1E+10	1
4902624	39	C	07/16/2025	14:29	-129.627	49.116	0	1995.40	0	-1e10	1	-1e10	1	-1e10	1	1969.061	0	114.8	4	-1e10	4	-1E+10	1	0.0584	4	0.000153	0	-1E+10	1	-1E+10	1	-1E+10	1
4902624	39	C	07/16/2025	14:29	-129.627	49.116	0																										
4902624	40	C	07/26/2025	09:33	-129.094	49.259	0	0.10	0	14.9239	0	32.0233	0	23.695	0	0.099	0	-1e10	1	-1e10	1	-1E+10	1	0.5329	4	0.001538	0	-1E+10	1	-1E+10	1	-1E+10	1
4902624	40	C	07/26/2025	09:33	-129.094	49.259	0	0.30	0	14.9344	0	32.0201	0	23.691	0	0.297	0	237.6	4	93.8	4	-1E+10	1	0.5183	4	0.001409	0	-1E+10	1	-1E+10	1	-1E+10	1
4902624	40	C	07/26/2025	09:33	-129.094	49.259	0	0.50	0	14.9450	0	32.0170	0	23.686	0	0.496	0	-1e10	1	-1e10	1	-1E+10	1	-1e10	1	-1e10	1	-1E+10	1	-1E+10	1	-1E+10	1
4902624	40	C	07/26/2025	09:33	-129.094	49.259	0	0.90	0	14.9462	0	32.0170	0	23.686	0	0.892	0	-1e10	1	-1e10	1	-1E+10	1	0.5548	4	0.001514	0	-1E+10	1	-1E+10	1	-1E+10	1
4902624	40	C	07/26/2025	09:33	-129.094	49.259	0	1.10	0	14.9468	0	32.0170	0	23.685	0	1.091	0	-1e10	1	-1e10	1	-1E+10	1	0.5548	4	0.001550	0	-1E+10	1	-1E+10	1	-1E+10	1
4902624	40	C	07/26/2025	09:33	-129.094	49.259	0	1.50	0	14.9480	0	32.0170	0	23.685	0	1.487	0	-1e10	1	-1e10	1	-1E+10	1	0.5621	4	0.001491	0	-1E+10	1	-1E+10	1	-1E+10	1
4902624	40	C	07/26/2025	09:33	-129.094	49.259	0	1.70	0	14.9484	0	32.0170	0	23.685	0	1.686	0	-1e10	1	-1e10	1	-1E+10	1	0.5329	4	0.001432	0	-1E+10	1	-1E+10	1	-1E+10	1
4902624	40	C	07/26/2025	09:33	-129.094	49.259	0	2.00	0	14.9490	0	32.0170	0	23.685	0	1.983	0	-1e10	1	-1e10	1	-1E+10	1	0.5329	4	0.001444	0	-1E+10	1	-1E+10	1	-1E+10	1
4902624	40	C	07/26/2025	09:33	-129.094	49.259	0	2.20	0	14.9494	0	32.0170	0	23.685	0	2.181	0	237.1	4	93.6	4	-1E+10	1	0.5475	4	0.001432	0	-1E+10	1	-1E+10	1	-1E+10	1
4902624	40	C	07/26/2025	09:33	-129.094	49.259	0	2.40	0	14.9498	0	32.0170	0	23.685	0	2.380	0	-1e10	1	-1e10	1	-1E+10	1	0.5256	4	0.001491	0	-1E+10	1	-1E+10	1	-1E+10	1
4902624	40	C	07/26/2025	09:33	-129.094	49.259	0	2.50	0	14.9500	0	32.0170	0	23.685	0	2.479	0	-1e10	1	-1e10	1	-1E+10	1	-1e10	1	-1e10	1	-1E+10	1	-1E+10	1	-1E+10	1
4902624	40	C	07/26/2025	09:33	-129.094	49.259	0	2.60	0	14.9500	0	32.0170	0	23.685	0	2.578	0	-1e10	1	-1e10	1	-1E+10	1	0.5402	4	0.001374	0	-1E+10	1	-1E+10	1	-1E+10	1
4902624	40	C	07/26/2025	09:33	-129.094	49.259	0	2.80	0	14.9500	0	32.0170	0	23.685	0	2.776	0	-1e10	1	-1e10	1	-1E+10	1	0.5329	4	0.001467	0	-1E+10	1	-1E+10	1	-1E+10	1
4902624	40	C	07/26/2025	09:33	-129.094	49.259	0	3.10	0	14.9500	0	32.0170	0	23.685	0	3.074	0	237.0	4	93.6	4	-1E+10	1	0.5548	4	0.001374	0	-1E+10	1	-1E+10	1	-1E+10	1
4902624	40	C	07/26/2025	09:33	-129.094	49.259	0	3.50	0	14.9500	0	32.0170	0	23.685	0	3.470	0	-1e10	1	-1e10	1	-1E+10	1	0.5256	4	0.001456	0	-1E+10	1	-1E+10	1	-1E+10	1
4902624	40	C	07/26/2025	09:33	-129.094	49.259	0	3.70	0	14.9502	0	32.0168	0	23.685	0	3.668	0	-1e10	1	-1e10	1	-1E+10	1	0.5329	4	0.001456	0	-1E+10	1	-1E+10	1	-1E+10	1
4902624	40	C	07/26/2025	09:33	-129.094	49.259	0	3.90	0	14.9504	0	32.0166	0	23.684	0	3.867	0	-1e10	1	-1e10	1	-1E+10	1	0.5256	4	0.001374	0	-1E+10	1	-1E+10	1	-1E+10	1
4902624	40	C	07/26/2025	09:33	-129.094	49.259	0	4.10	0	14.9506	0	32.0164	0	23.684	0	4.065	0	237.0	4	93.6	4	-1E+10	1	0.5621	4	0.001420	0	-1E+10	1	-1E+10	1	-1E+10	1
4902624	40	C	07/26/2025	09:33	-129.094	49.259	0	4.40	0	14.9509	0	32.0161	0	23.684	0	4.363	0	-1e10	1	-1e10	1	-1E+10	1	0.5183	4	0.001385	0	-1E+10	1	-1E+10	1	-1E+10	1
4902624	40	C	07/26/2025	09:33	-129.094	49.259	0	4.50	0	14.9510	0	32.0160	0	23.684	0	4.462	0	-1e10	1	-1e10	1	-1E+10	1	-1e10	1	-1e10	1	-1E+10	1	-1E+10	1	-1E+10	1
4902624	40	C	07/26/2025	09:33	-129.094	49.259	0	4.60	0	14.9510	0	32.0161	0	23.684	0	4.561	0	-1e10	1	-1e10	1	-1E+10	1	0.5475	4	0.001467	0	-1E+10	1	-1E+10	1	-1E+10	1
4902624	40	C	07/26/2025	09:33	-129.094	49.259	0	4.80	0	14.9510	0	32.0163	0	23.684	0	4.759	0	-1e10	1	-1e10	1	-1E+10	1	0.5256	4	0.001596	0	-1E+10	1	-1E+10	1	-1E+10	1
4902624	40	C	07/26/2025	09:33	-129.094	49.259	0	5.20	0	14.9510	0	32.0167	0	23.684	0	5.156	0	237.1	4	93.6	4	-1E+10	1	0.5621	4	0.001397	0	-1E+10	1	-1E+10	1	-1E+10	1
4902624	40	C	07/26/2025	09:33	-129.094	49.259	0	5.40	0	14.9510	0	32.0169	0	23.685	0	5.354	0	-1e10	1	-1e10	1	-1E+10	1	0.5256	4	0.001479	0	-1E+10	1	-1E+10	1	-1E+10	1
4902624	40	C	07/26/2025	09:33	-129.094	49.259	0	5.50	0	14.9510	0	32.0170	0	23.685	0	5.453	0	-1e10	1	-1e10	1	-1E+10	1	-1e10	1	-1e10	1	-1E+10	1	-1E+10	1	-1E+10	1
4902624	40	C	07/26/2025	09:33	-129.094	49.259	0	5.70	0	14.9510	0	32.0170	0	23.685	0	5.651	0	-1e10	1	-1e10	1	-1E+10	1	0.5329	4	0.001456	0	-1E+10	1	-1E+10	1	-1E+10	1
4902624	40	C	07/26/2025	09:33	-129.094	49.259	0	5.90	0	14.9510	0	32.0170	0	23.685	0	5.850	0	-1e10	1	-1e10	1	-1E+10	1	0.5402	4	0.001503	0	-1E+10	1	-1E+10	1	-1E+10	1
4902624	40	C	07/26/2025	09:33	-129.094	49.259	0	6.10	0	14.9510	0	32.0170	0	23.685	0	6.048	0	-1e10	1	-1e10	1	-1E+10	1	0.5621	4	0.001596	0	-1E+10	1	-1E+10	1	-1E+10	1
4902624	40	C	07/26/2025	09:33	-129.094	49.259	0	6.40	0	14.9510	0	32.0170	0	23.685	0	6.345	0	237.2	4	93.7	4	-1E+10	1	0.5475	4	0.001444	0	-1E+10	1	-1E+10	1	-1E+10	1
4902624	40	C	07/26/2025	09:33	-129.094	49.259	0	6.50	0	14.9510	0	32.0170	0	23.685	0	6.445	0	-1e10	1	-1e10	1	-1E+10	1	-1e10	1	-1e10	1	-1E+10	1	-1E+10	1	-1E+10	1
4902624	40	C	07/26/2025	09:33	-129.094	49.259	0	6.60	0	14.9510	0	32.0170	0	23.685	0	6.544	0	-1e10	1	-1e10	1	-1E+10	1	0.5256	4	0.001432	0	-1E+10	1	-1E+10	1	-1E+10	1
4902624	40	C	07/26/2025	09:33	-129.094	49.259	0	6.80	0	14.9510	0	32.0170	0	23.685	0	6.742	0	-1e10	1	-1e10	1	-1E+10	1	0.5621	4	0.001456	0	-1E+10	1	-1E+10	1	-1E+10	1
4902624	40	C	07/26/2025	09:33	-129.094	49.259	0	7.30	0	14.9510	0	32.0170	0	23.685	0	7.238	0	-1e10	1	-1e10	1	-1E+10	1	0.5548	4	0.001467	0	-1E+10	1	-1E+10	1	-1E+10	1
4902624	40	C	07/26/2025	09:33	-129.094	49.259	0	7.50	0	14.9510	0	32.0170	0	23.685	0	7.436	0	237.3	4	93.7	4	-1E+10	1	0.5694	4	0.001350	0	-1E+10	1	-1E+10	1	-1E+10	1
4902624	40	C	07/26/2025	09:33	-129.094	49.259	0	7.80	0	14.9507	0	32.0167	0	23.685	0	7.734	0	-1e10	1	-1e10	1	-1E+10	1	0.5329	4	0.001491	0	-1E+10	1	-1E+10	1	-1E+10	1
4902624	40	C	07/26/2025	09:33	-129.094	49.259	0	8.00	0	14.9505	0	32.0165	0	23.685	0	7.932	0	-1e10	1	-1e10	1	-1E+10	1	0.5548	4	0.001397	0	-1E+10	1	-1E+10	1	-1E+10	1
4902624	40	C	07/26/2025	09:33	-129.094	49.259	0	8.20	0	14.9504	0	32.0164	0	23.684	0	8.130	0	-1e10	1	-1e10	1	-1E+10	1	0.5475	4	0.001385	0	-1E+10	1	-1E+10	1	-1E+10	1
4902624	40	C	07/26/2025	09:33	-129.094	49.259	0	8.50	0	14.9501	0	32.0161	0	23.684	0	8.428	0	-1e10	1	-1e10	1	-1E+10	1	0.5475	4	0.001444	0	-1E+10	1	-1E+10	1	-1E+10	1
4902624	40	C	07/26/2025	09:33	-129.094	49.259	0	8.60	0	14.9500	0	32.0160	0	23.684	0	8.527	0	-1e10	1	-1e10	1	-1E+10	1	-1e10	1	-1e10	1	-1E+10	1	-1E+10	1	-1E+10	1
4902624	40	C	07/26/2025	09:33	-129.094	49.259	0	8.70	0	14.9499	0	32.0160	0	23.684	0	8.626	0	237.4	4	93.8	4	-1E+10	1	0.5256	4	0.001420	0	-1E+10	1	-1E+10	1	-1E+10	1
4902624	40	C	07/26/2025	09:33	-129.094	49.259	0	9.10	0	14.9494	0	32.0160	0	23.684	0	9.022	0	-1e10	1	-1e10	1	-1E+10	1	0.5548	4	0.002089	0	-1E+10	1	-1E+10	1	-1E+10	1
4902624	40	C	07/26/2025	09:33	-129.094	49.259	0	9.30	0	14.9492	0	32.0160	0	23.684	0	9.221	0	-1e10	1	-1e10	1	-1E+10	1	0.6716	4	0.001573	0	-1E+10	1	-1E+10	1	-1E+10	1
4902624	40	C	07/26/2025	09:33	-129.094	49.259	0	9.50	0	14.9490	0	32.0160	0	23.685	0	9.419	0	-1e10	1	-1e10	1	-1E+10	1	-1e10	1	-1e10	1	-1E+10	1	-1E+10	1	-1E+10	1
4902624	40	C	07/26/2025	09:33	-129.094	49.259	0	9.60	0	14.9491	0	32.0160	0	23.684	0	9.518	0	-1e10	1	-1e10	1	-1E+10	1	0.5548	4	0.001538	0	-1E+10	1	-1E+10	1	-1E+10	1
4902624	40	C	07/26/2025	09:33	-129.094	49.259	0	9.80	0	14.9492	0	32.0160	0	23.684	0	9.716	0	237.5	4	93.8	4	-1E+10	1	0.5548	4	0.001585	0	-1E+10	1	-1E+10	1	-1E+10	1
4902624	40	C	07/26/2025	09:33	-129.094	49.259	0	10.90	0	14.9499	0	32.0160	0	23.684	0	10.807	0	237.9	4	93.9	4	-1E+10	1	0.5511	4	0.001485	0	-1E+10	1	-1E+10	1	-1E+10	1
4902624	40	C	07/26/2025	09:33	-129.094	49.259	0	11.00	0	14.9500	0	32.0160	0	23.684	0	10.906	0	-1e10	1	-1e10	1	-1E+10	1	-1e10	1	-1e10	1	-1E+10	1	-1E+10	1	-1E+10	1
4902624	40	C	07/26/2025	09:33	-129.094	49.259	0	11.90	0	14.9500	0	32.0155	0	23.684	0	11.798	0	238.1	4	94.0	4	-1E+10	1	0.5597	4	0.001456	0	-1E+10	1	-1E+10	1	-1E+10	1
4902624	40	C	07/26/2025	09:33	-129.094	49.259	0	12.90	0	14.9500	0	32.0150	0	23.684	0	12.790	0	238.7	4	94.3	4	-1E+10	1	0.5782	4	0.001420	0	-1E+10	1	-1E+10	1	-1E+10	1
4902624	40	C	07/26/2025	09:33	-129.094	49.259	0	13.00	0	14.9500	0	32.0150	0	23.684	0	12.889	0	-1e10	1	-1e10	1	-1E+10	1	-1e10	1	-1e10	1	-1E+10	1	-1E+10	1	-1E+10	1
4902624	40	C	07/26/2025	09:33	-129.094	49.259	0	13.90	0	14.9467	0	32.0141	0	23.684	0	13.781	0	239.0	4	94.4	4	-1E+10	1	0.6059	4	0.001458	0	-1E+10	1	-1E+10	1	-1E+10	1
4902624	40	C	07/26/2025	09:33	-129.094	49.259	0	14.90	0	14.9430	0	32.0130	0	23.684	0	14.773	0	239.9	4	94.7	4	-1E+10	1	0.5694	4	0.001409	0	-1E+10	1	-1E+10	1	-1E+10	1
4902624	40	C	07/26/2025	09:33	-129.094	49.259	0	15.90	0	14.8825	0	32.0125	0	23.696	0	15.764	0	240.6	4	94.9	4	-1E+10	1	0.6643	4	0.001456	0	-1E+10	1	-1E+10	1	-1E+10	1
4902624	40	C	07/26/2025	09:33	-129.094	49.259	0	16.70	0	14.8341	0	32.0121	0	23.706	0	16.557	0	241.8	4	95.3	4	-1E+10	1	0.7008	4	0.001573	0	-1E+10	1	-1E+10	1	-1E+10	1
4902624	40	C	07/26/2025	09:33	-129.094	49.259	0	17.00	0	14.8160	0	32.0120	0	23.710	0	16.855	0	-1e10	1	-1e10	1	-1E+10	1	-1e10	1	-1e10	1	-1E+10	1	-1E+10	1	-1E+10	1
4902624	40	C	07/26/2025	09:33	-129.094	49.259	0	17.50	0	14.6580	0	32.0125	0	23.744	0	17.350	0	243.1	4	95.4	4	-1E+10	1	0.7665	4	0.002019	0	-1E+10	1	-1E+10	1	-1E+10	1
4902624	40	C	07/26/2025	09:33	-129.094	49.259	0	17.80	0	14.5632	0	32.0128	0	23.764	0	17.648	0	243.7	4	95.5	4	-1E+10	1	0.9067	4	0.001751	0	-1E+10	1	-1E+10	1	-1E+10	1
4902624	40	C	07/26/2025	09:33	-129.094	49.259	0	18.10	0	14.4684	0	32.0131	0	23.784	0	17.945	0	244.8	4	95.8	4	-1E+10	1	1.0220	4	0.001592	0	-1E+10	1	-1E+10	1	-1E+10	1
4902624	40	C	07/26/2025	09:33	-129.094	49.259	0	18.40	0	14.3736	0	32.0134	0	23.804	0	18.243	0	246.0	4	96.0	4	-1E+10	1	1.1169	4	0.001676	0	-1E+10	1	-1E+10	1	-1E+10	1
4902624	40	C	07/26/2025	09:33	-129.094	49.259	0	18.80	0	14.2472	0	32.0138	0	23.831	0	18.639	0	247.4	4	96.3	4	-1E+10	1	1.3461	4	0.001854	0	-1E+10	1	-1E+10	1	-1E+10	1
4902624	40	C	07/26/2025	09:33	-129.094	49.259	0	19.00	0	14.1840	0	32.0140	0	23.844	0	18.838	0	-1e10	1	-1e10	1	-1E+10	1	-1e10	1	-1e10	1	-1E+10	1	-1E+10	1	-1E+10	1
4902624	40	C	07/26/2025	09:33	-129.094	49.259	0	19.20	0	14.0598	0	32.0160	0	23.871	0	19.036	0	248.5	4	96.4	4	-1E+10	1	1.6498	4	0.002042	0	-1E+10	1	-1E+10	1	-1E+10	1
4902624	40	C	07/26/2025	09:33	-129.094	49.259	0	19.70	0	13.7493	0	32.0210	0	23.938	0	19.532	0	249.5	4	96.2	4	-1E+10	1	1.8323	4	0.002042	0	-1E+10	1	-1E+10	1	-1E+10	1
4902624	40	C	07/26/2025	09:33	-129.094	49.259	0	20.30	0	13.3767	0	32.0270	0	24.018	0	20.126	0	250.5	4	95.9	4	-1E+10	1	1.8198	4	0.002253	0	-1E+10	1	-1E+10	1	-1E+10	1
4902624	40	C	07/26/2025	09:33	-129.094	49.259	0	21.00	0	12.9420	0	32.0340	0	24.109	0	20.820	0	250.9	4	95.2	4	-1E+10	1	1.9637	4	0.002406	0	-1E+10	1	-1E+10	1	-1E+10	1
4902624	40	C	07/26/2025	09:33	-129.094	49.259	0	21.80	0	12.5172	0	32.0552	0	24.207	0	21.613	0	250.7	4	94.3	4	-1E+10	1	2.1989	4	0.002341	0	-1E+10	1	-1E+10	1	-1E+10	1
4902624	40	C	07/26/2025	09:33	-129.094	49.259	0	22.70	0	12.0393	0	32.0791	0	24.315	0	22.506	0	250.7	4	93.4	4	-1E+10	1	2.3254	4	0.002252	0	-1E+10	1	-1E+10	1	-1E+10	1
4902624	40	C	07/26/2025	09:33	-129.094	49.259	0	23.00	0	11.8800	0	32.0870	0	24.351	0	22.803	0	-1e10	1	-1e10	1	-1E+10	1	-1e10	1	-1e10	1	-1E+10	1	-1E+10	1	-1E+10	1
4902624	40	C	07/26/2025	09:33	-129.094	49.259	0	23.70	0	11.7798	0	32.0870	0	24.369	0	23.497	0	249.9	4	92.6	4	-1E+10	1	2.3267	4	0.002440	0	-1E+10	1	-1E+10	1	-1E+10	1
4902624	40	C	07/26/2025	09:33	-129.094	49.259	0	24.60	0	11.6509	0	32.0870	0	24.393	0	24.389	0	248.7	4	91.9	4	-1E+10	1	2.3331	4	0.002725	0	-1E+10	1	-1E+10	1	-1E+10	1
4902624	40	C	07/26/2025	09:33	-129.094	49.259	0	24.90	0	11.6080	0	32.0870	0	24.401	0	24.687	0	-1e10	1	-1e10	1	-1E+10	1	-1e10	1	-1e10	1	-1E+10	1	-1E+10	1	-1E+10	1
4902624	40	C	07/26/2025	09:33	-129.094	49.259	0	25.60	0	11.5900	0	32.0860	0	24.403	0	25.381	0	247.2	4	91.2	4	-1E+10	1	2.3226	4	0.002615	0	-1E+10	1	-1E+10	1	-1E+10	1
4902624	40	C	07/26/2025	09:33	-129.094	49.259	0	26.60	0	11.5643	0	32.0846	0	24.407	0	26.372	0	245.3	4	90.5	4	-1E+10	1	2.3287	4	0.002488	0	-1E+10	1	-1E+10	1	-1E+10	1
4902624	40	C	07/26/2025	09:33	-129.094	49.259	0	27.00	0	11.5540	0	32.0840	0	24.408	0	26.769	0	-1e10	1	-1e10	1	-1E+10	1	-1e10	1	-1e10	1	-1E+10	1	-1E+10	1	-1E+10	1
4902624	40	C	07/26/2025	09:33	-129.094	49.259	0	27.70	0	11.5278	0	32.0836	0	24.413	0	27.463	0	243.1	4	89.6	4	-1E+10	1	2.2995	4	0.002453	0	-1E+10	1	-1E+10	1	-1E+10	1
4902624	40	C	07/26/2025	09:33	-129.094	49.259	0	28.80	0	11.4865	0	32.0831	0	24.420	0	28.553	0	240.7	4	88.6	4	-1E+10	1	2.1097	4	0.002382	0	-1E+10	1	-1E+10	1	-1E+10	1
4902624	40	C	07/26/2025	09:33	-129.094	49.259	0	29.00	0	11.4790	0	32.0830	0	24.421	0	28.751	0	-1e10	1	-1e10	1	-1E+10	1	-1e10	1	-1e10	1	-1E+10	1	-1E+10	1	-1E+10	1
4902624	40	C	07/26/2025	09:33	-129.094	49.259	0	29.90	0	11.3120	0	32.1028	0	24.466	0	29.644	0	239.3	4	87.8	4	-1E+10	1	1.6526	4	0.002015	0	-1E+10	1	-1E+10	1	-1E+10	1
4902624	40	C	07/26/2025	09:33	-129.094	49.259	0	31.00	0	11.1080	0	32.1270	0	24.521	0	30.734	0	237.3	4	86.7	4	-1E+10	1	1.5320	4	0.001963	0	-1E+10	1	-1E+10	1	-1E+10	1
4902624	40	C	07/26/2025	09:33	-129.094	49.259	0	32.20	0	11.0534	0	32.1258	0	24.530	0	31.924	0	238.0	4	86.8	4	-1E+10	1	1.4879	4	0.001837	0	-1E+10	1	-1E+10	1	-1E+10	1
4902624	40	C	07/26/2025	09:33	-129.094	49.259	0	33.00	0	11.0170	0	32.1250	0	24.536	0	32.717	0	-1e10	1	-1e10	1	-1E+10	1	-1e10	1	-1e10	1	-1E+10	1	-1E+10	1	-1E+10	1
4902624	40	C	07/26/2025	09:33	-129.094	49.259	0	33.30	0	11.0067	0	32.1263	0	24.538	0	33.014	0	236.7	4	86.3	4	-1E+10	1	1.3962	4	0.002078	0	-1E+10	1	-1E+10	1	-1E+10	1
4902624	40	C	07/26/2025	09:33	-129.094	49.259	0	34.50	0	10.9657	0	32.1313	0	24.550	0	34.204	0	235.3	4	85.7	4	-1E+10	1	1.1816	4	0.002203	0	-1E+10	1	-1E+10	1	-1E+10	1
4902624	40	C	07/26/2025	09:33	-129.094	49.259	0	34.90	0	10.9520	0	32.1330	0	24.553	0	34.600	0	-1e10	1	-1e10	1	-1E+10	1	-1e10	1	-1e10	1	-1E+10	1	-1E+10	1	-1E+10	1
4902624	40	C	07/26/2025	09:33	-129.094	49.259	0	35.80	0	10.8660	0	32.1469	0	24.579	0	35.492	0	234.6	4	85.3	4	-1E+10	1	0.8401	4	0.001611	0	-1E+10	1	-1E+10	1	-1E+10	1
4902624	40	C	07/26/2025	09:33	-129.094	49.259	0	36.90	0	10.7610	0	32.1640	0	24.611	0	36.583	0	-1e10	1	-1e10	1	-1E+10	1	-1e10	1	-1e10	1	-1E+10	1	-1E+10	1	-1E+10	1
4902624	40	C	07/26/2025	09:33	-129.094	49.259	0	37.10	0	10.7417	0	32.1670	0	24.616	0	36.781	0	233.9	4	84.8	4	-1E+10	1	0.7063	4	0.001516	0	-1E+10	1	-1E+10	1	-1E+10	1
4902624	40	C	07/26/2025	09:33	-129.094	49.259	0	38.40	0	10.6160	0	32.1869	0	24.653	0	38.070	0	233.6	4	84.5	4	-1E+10	1	0.5402	4	0.001068	0	-1E+10	1	-1E+10	1	-1E+10	1
4902624	40	C	07/26/2025	09:33	-129.094	49.259	0	39.00	0	10.5580	0	32.1960	0	24.671	0	38.665	0	-1e10	1	-1e10	1	-1E+10	1	-1e10	1	-1e10	1	-1E+10	1	-1E+10	1	-1E+10	1
4902624	40	C	07/26/2025	09:33	-129.094	49.259	0	39.70	0	10.4673	0	32.2053	0	24.693	0	39.359	0	233.3	4	84.1	4	-1E+10	1	0.4334	4	0.000906	0	-1E+10	1	-1E+10	1	-1E+10	1
4902624	40	C	07/26/2025	09:33	-129.094	49.259	0	41.10	0	10.2860	0	32.2240	0	24.739	0	40.746	0	231.1	4	83.0	4	-1E+10	1	0.3717	4	0.001246	0	-1E+10	1	-1E+10	1	-1E+10	1
4902624	40	C	07/26/2025	09:33	-129.094	49.259	0	42.40	0	10.1998	0	32.2295	0	24.757	0	42.035	0	233.1	4	83.6	4	-1E+10	1	0.3272	4	0.000871	0	-1E+10	1	-1E+10	1	-1E+10	1
4902624	40	C	07/26/2025	09:33	-129.094	49.259	0	43.00	0	10.1600	0	32.2320	0	24.766	0	42.630	0	-1e10	1	-1e10	1	-1E+10	1	-1e10	1	-1e10	1	-1E+10	1	-1E+10	1	-1E+10	1
4902624	40	C	07/26/2025	09:33	-129.094	49.259	0	43.90	0	10.0640	0	32.2444	0	24.792	0	43.522	0	233.4	4	83.5	4	-1E+10	1	0.2774	4	0.000602	0	-1E+10	1	-1E+10	1	-1E+10	1
4902624	40	C	07/26/2025	09:33	-129.094	49.259	0	45.10	0	9.9360	0	32.2610	0	24.826	0	44.712	0	-1e10	1	-1e10	1	-1E+10	1	-1e10	1	-1e10	1	-1E+10	1	-1E+10	1	-1E+10	1
4902624	40	C	07/26/2025	09:33	-129.094	49.259	0	45.40	0	9.9248	0	32.2623	0	24.828	0	45.009	0	233.5	4	83.3	4	-1E+10	1	0.2513	4	0.000591	0	-1E+10	1	-1E+10	1	-1E+10	1
4902624	40	C	07/26/2025	09:33	-129.094	49.259	0	46.80	0	9.8725	0	32.2682	0	24.842	0	46.397	0	233.2	4	83.0	4	-1E+10	1	0.2506	4	0.000615	0	-1E+10	1	-1E+10	1	-1E+10	1
4902624	40	C	07/26/2025	09:33	-129.094	49.259	0	47.00	0	9.8650	0	32.2690	0	24.844	0	46.595	0	-1e10	1	-1e10	1	-1E+10	1	-1e10	1	-1e10	1	-1E+10	1	-1E+10	1	-1E+10	1
4902624	40	C	07/26/2025	09:33	-129.094	49.259	0	48.30	0	9.8554	0	32.2711	0	24.847	0	47.884	0	232.8	4	82.9	4	-1E+10	1	0.2360	4	0.000622	0	-1E+10	1	-1E+10	1	-1E+10	1
4902624	40	C	07/26/2025	09:33	-129.094	49.259	0	48.90	0	9.8510	0	32.2720	0	24.848	0	48.478	0	-1e10	1	-1e10	1	-1E+10	1	-1e10	1	-1e10	1	-1E+10	1	-1E+10	1	-1E+10	1
4902624	40	C	07/26/2025	09:33	-129.094	49.259	0	49.80	0	9.8077	0	32.2853	0	24.866	0	49.370	0	232.3	4	82.6	4	-1E+10	1	0.2117	4	0.000622	0	-1E+10	1	-1E+10	1	-1E+10	1
4902624	40	C	07/26/2025	09:33	-129.094	49.259	0	51.00	0	9.7500	0	32.3030	0	24.889	0	50.560	0	-1e10	1	-1e10	1	-1E+10	1	-1e10	1	-1e10	1	-1E+10	1	-1E+10	1	-1E+10	1
4902624	40	C	07/26/2025	09:33	-129.094	49.259	0	51.30	0	9.7373	0	32.3039	0	24.892	0	50.857	0	231.6	4	82.2	4	-1E+10	1	0.2044	4	0.000564	0	-1E+10	1	-1E+10	1	-1E+10	1
4902624	40	C	07/26/2025	09:33	-129.094	49.259	0	52.80	0	9.6737	0	32.3081	0	24.905	0	52.344	0	230.8	4	81.9	4	-1E+10	1	0.2044	4	0.000481	0	-1E+10	1	-1E+10	1	-1E+10	1
4902624	40	C	07/26/2025	09:33	-129.094	49.259	0	53.10	0	9.6610	0	32.3090	0	24.908	0	52.642	0	-1e10	1	-1e10	1	-1E+10	1	-1e10	1	-1e10	1	-1E+10	1	-1E+10	1	-1E+10	1
4902624	40	C	07/26/2025	09:33	-129.094	49.259	0	54.20	0	9.5917	0	32.3167	0	24.925	0	53.732	0	230.0	4	81.4	4	-1E+10	1	0.1855	4	0.000513	0	-1E+10	1	-1E+10	1	-1E+10	1
4902624	40	C	07/26/2025	09:33	-129.094	49.259	0	55.10	0	9.5350	0	32.3230	0	24.939	0	54.624	0	-1e10	1	-1e10	1	-1E+10	1	-1e10	1	-1e10	1	-1E+10	1	-1E+10	1	-1E+10	1
4902624	40	C	07/26/2025	09:33	-129.094	49.259	0	55.70	0	9.5086	0	32.3239	0	24.944	0	55.219	0	229.2	4	81.0	4	-1E+10	1	0.1470	4	0.000902	0	-1E+10	1	-1E+10	1	-1E+10	1
4902624	40	C	07/26/2025	09:33	-129.094	49.259	0	57.10	0	9.4470	0	32.3260	0	24.956	0	56.606	0	225.8	4	79.7	4	-1E+10	1	0.1424	4	0.000763	0	-1E+10	1	-1E+10	1	-1E+10	1
4902624	40	C	07/26/2025	09:33	-129.094	49.259	0	58.50	0	9.3679	0	32.3358	0	24.976	0	57.994	0	226.9	4	80.0	4	-1E+10	1	0.1447	4	0.000416	0	-1E+10	1	-1E+10	1	-1E+10	1
4902624	40	C	07/26/2025	09:33	-129.094	49.259	0	59.10	0	9.3340	0	32.3400	0	24.985	0	58.589	0	-1e10	1	-1e10	1	-1E+10	1	-1e10	1	-1e10	1	-1E+10	1	-1E+10	1	-1E+10	1
4902624	40	C	07/26/2025	09:33	-129.094	49.259	0	60.00	0	9.2579	0	32.3476	0	25.003	0	59.481	0	225.2	4	79.2	4	-1E+10	1	0.1210	4	0.000393	0	-1E+10	1	-1E+10	1	-1E+10	1
4902624	40	C	07/26/2025	09:33	-129.094	49.259	0	61.10	0	9.1650	0	32.3570	0	25.025	0	60.571	0	-1e10	1	-1e10	1	-1E+10	1	-1e10	1	-1e10	1	-1E+10	1	-1E+10	1	-1E+10	1
4902624	40	C	07/26/2025	09:33	-129.094	49.259	0	61.30	0	9.1557	0	32.3584	0	25.027	0	60.770	0	223.2	4	78.3	4	-1E+10	1	0.1095	4	0.000386	0	-1E+10	1	-1E+10	1	-1E+10	1
4902624	40	C	07/26/2025	09:33	-129.094	49.259	0	62.70	0	9.0909	0	32.3679	0	25.045	0	62.157	0	220.6	4	77.3	4	-1E+10	1	0.1095	4	0.000505	0	-1E+10	1	-1E+10	1	-1E+10	1
4902624	40	C	07/26/2025	09:33	-129.094	49.259	0	63.00	0	9.0770	0	32.3700	0	25.049	0	62.455	0	-1e10	1	-1e10	1	-1E+10	1	-1e10	1	-1e10	1	-1E+10	1	-1E+10	1	-1E+10	1
4902624	40	C	07/26/2025	09:33	-129.094	49.259	0	64.10	0	9.0314	0	32.3876	0	25.070	0	63.545	0	217.8	4	76.2	4	-1E+10	1	0.1223	4	0.000433	0	-1E+10	1	-1E+10	1	-1E+10	1
4902624	40	C	07/26/2025	09:33	-129.094	49.259	0	65.00	0	8.9940	0	32.4020	0	25.087	0	64.437	0	-1e10	1	-1e10	1	-1E+10	1	-1e10	1	-1e10	1	-1E+10	1	-1E+10	1	-1E+10	1
4902624	40	C	07/26/2025	09:33	-129.094	49.259	0	65.40	0	8.9948	0	32.4078	0	25.091	0	64.833	0	215.3	4	75.3	4	-1E+10	1	0.1056	4	0.000363	0	-1E+10	1	-1E+10	1	-1E+10	1
4902624	40	C	07/26/2025	09:33	-129.094	49.259	0	66.70	0	8.9974	0	32.4267	0	25.105	0	66.122	0	212.5	4	74.3	4	-1E+10	1	0.0972	4	0.000352	0	-1E+10	1	-1E+10	1	-1E+10	1
4902624	40	C	07/26/2025	09:33	-129.094	49.259	0	67.00	0	8.9980	0	32.4310	0	25.109	0	66.419	0	-1e10	1	-1e10	1	-1E+10	1	-1e10	1	-1e10	1	-1E+10	1	-1E+10	1	-1E+10	1
4902624	40	C	07/26/2025	09:33	-129.094	49.259	0	67.90	0	8.9867	0	32.4463	0	25.122	0	67.311	0	209.7	4	73.3	4	-1E+10	1	0.0847	4	0.000407	0	-1E+10	1	-1E+10	1	-1E+10	1
4902624	40	C	07/26/2025	09:33	-129.094	49.259	0	69.00	0	8.9730	0	32.4650	0	25.139	0	68.402	0	-1e10	1	-1e10	1	-1E+10	1	-1e10	1	-1e10	1	-1E+10	1	-1E+10	1	-1E+10	1
4902624	40	C	07/26/2025	09:33	-129.094	49.259	0	69.20	0	8.9758	0	32.4698	0	25.143	0	68.600	0	207.1	4	72.4	4	-1E+10	1	0.0760	4	0.000489	0	-1E+10	1	-1E+10	1	-1E+10	1
4902624	40	C	07/26/2025	09:33	-129.094	49.259	0	70.40	0	8.9923	0	32.4983	0	25.162	0	69.789	0	204.5	4	71.5	4	-1E+10	1	0.0803	4	0.000458	0	-1E+10	1	-1E+10	1	-1E+10	1
4902624	40	C	07/26/2025	09:33	-129.094	49.259	0	71.10	0	9.0020	0	32.5150	0	25.174	0	70.483	0	-1e10	1	-1e10	1	-1E+10	1	-1e10	1	-1e10	1	-1E+10	1	-1E+10	1	-1E+10	1
4902624	40	C	07/26/2025	09:33	-129.094	49.259	0	71.60	0	8.9978	0	32.5237	0	25.181	0	70.979	0	202.0	4	70.7	4	-1E+10	1	0.0803	4	0.000352	0	-1E+10	1	-1E+10	1	-1E+10	1
4902624	40	C	07/26/2025	09:33	-129.094	49.259	0	72.60	0	8.9894	0	32.5411	0	25.196	0	71.970	0	199.5	4	69.8	4	-1E+10	1	0.0803	4	0.000352	0	-1E+10	1	-1E+10	1	-1E+10	1
4902624	40	C	07/26/2025	09:33	-129.094	49.259	0	73.00	0	8.9860	0	32.5480	0	25.202	0	72.366	0	-1e10	1	-1e10	1	-1E+10	1	-1e10	1	-1e10	1	-1E+10	1	-1E+10	1	-1E+10	1
4902624	40	C	07/26/2025	09:33	-129.094	49.259	0	73.40	0	8.9730	0	32.5572	0	25.211	0	72.763	0	197.4	4	69.1	4	-1E+10	1	0.0584	4	0.000341	0	-1E+10	1	-1E+10	1	-1E+10	1
4902624	40	C	07/26/2025	09:33	-129.094	49.259	0	74.20	0	8.9470	0	32.5756	0	25.230	0	73.556	0	195.6	4	68.4	4	-1E+10	1	0.0584	4	0.000372	0	-1E+10	1	-1E+10	1	-1E+10	1
4902624	40	C	07/26/2025	09:33	-129.094	49.259	0	75.00	0	8.9210	0	32.5940	0	25.248	0	74.349	0	190.4	4	66.5	4	-1E+10	1	0.0686	4	0.000368	0	-1E+10	1	-1E+10	1	-1E+10	1
4902624	40	C	07/26/2025	09:33	-129.094	49.259	0	75.80	0	8.9006	0	32.6164	0	25.269	0	75.141	0	190.0	4	66.4	4	-1E+10	1	0.0771	4	0.000351	0	-1E+10	1	-1E+10	1	-1E+10	1
4902624	40	C	07/26/2025	09:33	-129.094	49.259	0	76.70	0	8.8777	0	32.6416	0	25.292	0	76.033	0	186.9	4	65.3	4	-1E+10	1	0.0657	4	0.000341	0	-1E+10	1	-1E+10	1	-1E+10	1
4902624	40	C	07/26/2025	09:33	-129.094	49.259	0	77.00	0	8.8700	0	32.6500	0	25.300	0	76.331	0	-1e10	1	-1e10	1	-1E+10	1	-1e10	1	-1e10	1	-1E+10	1	-1E+10	1	-1E+10	1
4902624	40	C	07/26/2025	09:33	-129.094	49.259	0	77.60	0	8.8620	0	32.6677	0	25.315	0	76.925	0	184.1	4	64.3	4	-1E+10	1	0.0538	4	0.000358	0	-1E+10	1	-1E+10	1	-1E+10	1
4902624	40	C	07/26/2025	09:33	-129.094	49.259	0	78.50	0	8.8500	0	32.6943	0	25.338	0	77.817	0	181.2	4	63.3	4	-1E+10	1	0.0584	4	0.000377	0	-1E+10	1	-1E+10	1	-1E+10	1
4902624	40	C	07/26/2025	09:33	-129.094	49.259	0	79.10	0	8.8420	0	32.7120	0	25.353	0	78.412	0	-1e10	1	-1e10	1	-1E+10	1	-1e10	1	-1e10	1	-1E+10	1	-1E+10	1	-1E+10	1
4902624	40	C	07/26/2025	09:33	-129.094	49.259	0	79.30	0	8.8398	0	32.7161	0	25.356	0	78.610	0	178.0	4	62.2	4	-1E+10	1	0.0576	4	0.000344	0	-1E+10	1	-1E+10	1	-1E+10	1
4902624	40	C	07/26/2025	09:33	-129.094	49.259	0	80.10	0	8.8310	0	32.7325	0	25.371	0	79.403	0	174.5	4	60.9	4	-1E+10	1	0.0511	4	0.000376	0	-1E+10	1	-1E+10	1	-1E+10	1
4902624	40	C	07/26/2025	09:33	-129.094	49.259	0	81.00	0	8.8211	0	32.7509	0	25.387	0	80.295	0	170.8	4	59.6	4	-1E+10	1	0.0511	4	0.000364	0	-1E+10	1	-1E+10	1	-1E+10	1
4902624	40	C	07/26/2025	09:33	-129.094	49.259	0	81.10	0	8.8200	0	32.7530	0	25.388	0	80.394	0	-1e10	1	-1e10	1	-1E+10	1	-1e10	1	-1e10	1	-1E+10	1	-1E+10	1	-1E+10	1
4902624	40	C	07/26/2025	09:33	-129.094	49.259	0	81.70	0	8.7953	0	32.7923	0	25.423	0	80.989	0	168.0	4	58.7	4	-1E+10	1	0.0511	4	0.000313	0	-1E+10	1	-1E+10	1	-1E+10	1
4902624	40	C	07/26/2025	09:33	-129.094	49.259	0	82.30	0	8.7707	0	32.8317	0	25.458	0	81.584	0	165.3	4	57.7	4	-1E+10	1	0.0465	4	0.000327	0	-1E+10	1	-1E+10	1	-1E+10	1
4902624	40	C	07/26/2025	09:33	-129.094	49.259	0	82.90	0	8.7460	0	32.8710	0	25.492	0	82.178	0	159.8	4	55.7	4	-1E+10	1	0.0548	4	0.000405	0	-1E+10	1	-1E+10	1	-1E+10	1
4902624	40	C	07/26/2025	09:33	-129.094	49.259	0	83.40	0	8.7227	0	32.8950	0	25.515	0	82.674	0	159.3	4	55.6	4	-1E+10	1	0.0657	4	0.000446	0	-1E+10	1	-1E+10	1	-1E+10	1
4902624	40	C	07/26/2025	09:33	-129.094	49.259	0	84.00	0	8.6947	0	32.9239	0	25.542	0	83.269	0	156.7	4	54.6	4	-1E+10	1	0.0636	4	0.000392	0	-1E+10	1	-1E+10	1	-1E+10	1
4902624	40	C	07/26/2025	09:33	-129.094	49.259	0	84.60	0	8.6667	0	32.9528	0	25.568	0	83.863	0	154.1	4	53.7	4	-1E+10	1	0.0594	4	0.000377	0	-1E+10	1	-1E+10	1	-1E+10	1
4902624	40	C	07/26/2025	09:33	-129.094	49.259	0	85.00	0	8.6480	0	32.9720	0	25.586	0	84.260	0	-1e10	1	-1e10	1	-1E+10	1	-1e10	1	-1e10	1	-1E+10	1	-1E+10	1	-1E+10	1
4902624	40	C	07/26/2025	09:33	-129.094	49.259	0	85.20	0	8.6438	0	32.9761	0	25.590	0	84.458	0	151.8	4	52.9	4	-1E+10	1	0.0657	4	0.000387	0	-1E+10	1	-1E+10	1	-1E+10	1
4902624	40	C	07/26/2025	09:33	-129.094	49.259	0	85.90	0	8.6291	0	32.9904	0	25.604	0	85.152	0	149.4	4	52.0	4	-1E+10	1	0.0876	4	0.000376	0	-1E+10	1	-1E+10	1	-1E+10	1
4902624	40	C	07/26/2025	09:33	-129.094	49.259	0	86.60	0	8.6145	0	33.0048	0	25.617	0	85.845	0	146.5	4	51.0	4	-1E+10	1	0.0649	4	0.000367	0	-1E+10	1	-1E+10	1	-1E+10	1
4902624	40	C	07/26/2025	09:33	-129.094	49.259	0	87.10	0	8.6040	0	33.0150	0	25.627	0	86.341	0	-1e10	1	-1e10	1	-1E+10	1	-1e10	1	-1e10	1	-1E+10	1	-1E+10	1	-1E+10	1
4902624	40	C	07/26/2025	09:33	-129.094	49.259	0	87.40	0	8.5926	0	33.0271	0	25.638	0	86.638	0	143.5	4	50.0	4	-1E+10	1	0.0487	4	0.000348	0	-1E+10	1	-1E+10	1	-1E+10	1
4902624	40	C	07/26/2025	09:33	-129.094	49.259	0	88.20	0	8.5622	0	33.0596	0	25.668	0	87.431	0	140.7	4	49.0	4	-1E+10	1	0.0392	4	0.000333	0	-1E+10	1	-1E+10	1	-1E+10	1
4902624	40	C	07/26/2025	09:33	-129.094	49.259	0	89.00	0	8.5318	0	33.0919	0	25.698	0	88.224	0	138.5	4	48.2	4	-1E+10	1	0.0398	4	0.000323	0	-1E+10	1	-1E+10	1	-1E+10	1
4902624	40	C	07/26/2025	09:33	-129.094	49.259	0	89.10	0	8.5280	0	33.0960	0	25.702	0	88.323	0	-1e10	1	-1e10	1	-1E+10	1	-1e10	1	-1e10	1	-1E+10	1	-1E+10	1	-1E+10	1
4902624	40	C	07/26/2025	09:33	-129.094	49.259	0	90.00	0	8.4896	0	33.1363	0	25.739	0	89.215	0	136.4	4	47.4	4	-1E+10	1	0.0438	4	0.000312	0	-1E+10	1	-1E+10	1	-1E+10	1
4902624	40	C	07/26/2025	09:33	-129.094	49.259	0	91.00	0	8.4470	0	33.1810	0	25.781	0	90.206	0	132.2	4	45.9	4	-1E+10	1	0.0471	4	0.000321	0	-1E+10	1	-1E+10	1	-1E+10	1
4902624	40	C	07/26/2025	09:33	-129.094	49.259	0	92.00	0	8.4420	0	33.1980	0	25.795	0	91.197	0	133.3	4	46.3	4	-1E+10	1	0.0487	4	0.000344	0	-1E+10	1	-1E+10	1	-1E+10	1
4902624	40	C	07/26/2025	09:33	-129.094	49.259	0	93.00	0	8.4370	0	33.2150	0	25.809	0	92.188	0	129.3	4	44.9	4	-1E+10	1	0.0460	4	0.000358	0	-1E+10	1	-1E+10	1	-1E+10	1
4902624	40	C	07/26/2025	09:33	-129.094	49.259	0	94.10	0	8.4375	0	33.2194	0	25.812	0	93.278	0	130.0	4	45.2	4	-1E+10	1	0.0584	4	0.000387	0	-1E+10	1	-1E+10	1	-1E+10	1
4902624	40	C	07/26/2025	09:33	-129.094	49.259	0	95.00	0	8.4380	0	33.2230	0	25.815	0	94.170	0	-1e10	1	-1e10	1	-1E+10	1	-1e10	1	-1e10	1	-1E+10	1	-1E+10	1	-1E+10	1
4902624	40	C	07/26/2025	09:33	-129.094	49.259	0	95.20	0	8.4334	0	33.2288	0	25.820	0	94.368	0	127.9	4	44.4	4	-1E+10	1	0.0365	4	0.000340	0	-1E+10	1	-1E+10	1	-1E+10	1
4902624	40	C	07/26/2025	09:33	-129.094	49.259	0	96.40	0	8.4058	0	33.2636	0	25.852	0	95.558	0	126.2	4	43.8	4	-1E+10	1	0.0553	4	0.000290	0	-1E+10	1	-1E+10	1	-1E+10	1
4902624	40	C	07/26/2025	09:33	-129.094	49.259	0	97.00	0	8.3920	0	33.2810	0	25.868	0	96.152	0	-1e10	1	-1e10	1	-1E+10	1	-1e10	1	-1e10	1	-1E+10	1	-1E+10	1	-1E+10	1
4902624	40	C	07/26/2025	09:33	-129.094	49.259	0	97.50	0	8.3867	0	33.2915	0	25.877	0	96.648	0	124.6	4	43.3	4	-1E+10	1	0.0490	4	0.000350	0	-1E+10	1	-1E+10	1	-1E+10	1
4902624	40	C	07/26/2025	09:33	-129.094	49.259	0	98.70	0	8.3741	0	33.3168	0	25.898	0	97.837	0	123.1	4	42.7	4	-1E+10	1	0.0438	4	0.000353	0	-1E+10	1	-1E+10	1	-1E+10	1
4902624	40	C	07/26/2025	09:33	-129.094	49.259	0	98.90	0	8.3720	0	33.3210	0	25.902	0	98.035	0	-1e10	1	-1e10	1	-1E+10	1	-1e10	1	-1e10	1	-1E+10	1	-1E+10	1	-1E+10	1
4902624	40	C	07/26/2025	09:33	-129.094	49.259	0	99.90	0	8.3501	0	33.3405	0	25.921	0	99.026	0	121.4	4	42.1	4	-1E+10	1	0.0474	4	0.000358	0	-1E+10	1	-1E+10	1	-1E+10	1
4902624	40	C	07/26/2025	09:33	-129.094	49.259	0	101.00	0	8.3260	0	33.3620	0	25.941	0	100.116	0	117.6	4	40.8	4	-1E+10	1	0.0490	4	0.000364	0	-1E+10	1	-1E+10	1	-1E+10	1
4902624	40	C	07/26/2025	09:33	-129.094	49.259	0	102.20	0	8.3194	0	33.3806	0	25.957	0	101.306	0	118.8	4	41.2	4	-1E+10	1	0.0438	4	0.000303	0	-1E+10	1	-1E+10	1	-1E+10	1
4902624	40	C	07/26/2025	09:33	-129.094	49.259	0	103.00	0	8.3150	0	33.3930	0	25.967	0	102.098	0	-1e10	1	-1e10	1	-1E+10	1	-1e10	1	-1e10	1	-1E+10	1	-1E+10	1	-1E+10	1
4902624	40	C	07/26/2025	09:33	-129.094	49.259	0	103.30	0	8.3167	0	33.3952	0	25.968	0	102.396	0	117.8	4	40.9	4	-1E+10	1	0.0438	4	0.000300	0	-1E+10	1	-1E+10	1	-1E+10	1
4902624	40	C	07/26/2025	09:33	-129.094	49.259	0	104.50	0	8.3237	0	33.4041	0	25.974	0	103.585	0	116.6	4	40.5	4	-1E+10	1	0.0438	4	0.000340	0	-1E+10	1	-1E+10	1	-1E+10	1
4902624	40	C	07/26/2025	09:33	-129.094	49.259	0	104.90	0	8.3260	0	33.4070	0	25.976	0	103.981	0	-1e10	1	-1e10	1	-1E+10	1	-1e10	1	-1e10	1	-1E+10	1	-1E+10	1	-1E+10	1
4902624	40	C	07/26/2025	09:33	-129.094	49.259	0	105.60	0	8.3250	0	33.4130	0	25.981	0	104.675	0	115.5	4	40.1	4	-1E+10	1	0.0438	4	0.000311	0	-1E+10	1	-1E+10	1	-1E+10	1
4902624	40	C	07/26/2025	09:33	-129.094	49.259	0	106.70	0	8.3233	0	33.4223	0	25.989	0	105.765	0	114.4	4	39.7	4	-1E+10	1	0.0498	4	0.000345	0	-1E+10	1	-1E+10	1	-1E+10	1
4902624	40	C	07/26/2025	09:33	-129.094	49.259	0	106.90	0	8.3230	0	33.4240	0	25.990	0	105.963	0	-1e10	1	-1e10	1	-1E+10	1	-1e10	1	-1e10	1	-1E+10	1	-1E+10	1	-1E+10	1
4902624	40	C	07/26/2025	09:33	-129.094	49.259	0	107.80	0	8.3059	0	33.4416	0	26.007	0	106.855	0	113.2	4	39.3	4	-1E+10	1	0.0460	4	0.000353	0	-1E+10	1	-1E+10	1	-1E+10	1
4902624	40	C	07/26/2025	09:33	-129.094	49.259	0	108.90	0	8.2849	0	33.4630	0	26.027	0	107.945	0	112.1	4	38.9	4	-1E+10	1	0.0477	4	0.000466	0	-1E+10	1	-1E+10	1	-1E+10	1
4902624	40	C	07/26/2025	09:33	-129.094	49.259	0	109.00	0	8.2830	0	33.4650	0	26.028	0	108.044	0	-1e10	1	-1e10	1	-1E+10	1	-1e10	1	-1e10	1	-1E+10	1	-1E+10	1	-1E+10	1
4902624	40	C	07/26/2025	09:33	-129.094	49.259	0	110.00	0	8.2649	0	33.4845	0	26.046	0	109.035	0	111.4	4	38.6	4	-1E+10	1	0.0544	4	0.000451	0	-1E+10	1	-1E+10	1	-1E+10	1
4902624	40	C	07/26/2025	09:33	-129.094	49.259	0	111.10	0	8.2450	0	33.5060	0	26.066	0	110.125	0	108.4	4	37.6	4	-1E+10	1	0.0556	4	0.000326	0	-1E+10	1	-1E+10	1	-1E+10	1
4902624	40	C	07/26/2025	09:33	-129.094	49.259	0	112.10	0	8.2313	0	33.5165	0	26.077	0	111.116	0	110.0	4	38.1	4	-1E+10	1	0.0511	4	0.000380	0	-1E+10	1	-1E+10	1	-1E+10	1
4902624	40	C	07/26/2025	09:33	-129.094	49.259	0	113.00	0	8.2190	0	33.5260	0	26.086	0	112.008	0	-1e10	1	-1e10	1	-1E+10	1	-1e10	1	-1e10	1	-1E+10	1	-1E+10	1	-1E+10	1
4902624	40	C	07/26/2025	09:33	-129.094	49.259	0	113.20	0	8.2158	0	33.5284	0	26.088	0	112.206	0	109.4	4	37.9	4	-1E+10	1	0.0511	4	0.000598	0	-1E+10	1	-1E+10	1	-1E+10	1
4902624	40	C	07/26/2025	09:33	-129.094	49.259	0	114.20	0	8.1996	0	33.5403	0	26.100	0	113.197	0	108.6	4	37.6	4	-1E+10	1	0.0511	4	0.000387	0	-1E+10	1	-1E+10	1	-1E+10	1
4902624	40	C	07/26/2025	09:33	-129.094	49.259	0	115.10	0	8.1850	0	33.5510	0	26.111	0	114.089	0	-1e10	1	-1e10	1	-1E+10	1	-1e10	1	-1e10	1	-1E+10	1	-1E+10	1	-1E+10	1
4902624	40	C	07/26/2025	09:33	-129.094	49.259	0	115.20	0	8.1830	0	33.5522	0	26.112	0	114.188	0	107.9	4	37.4	4	-1E+10	1	0.0329	4	0.000387	0	-1E+10	1	-1E+10	1	-1E+10	1
4902624	40	C	07/26/2025	09:33	-129.094	49.259	0	116.10	0	8.1645	0	33.5630	0	26.123	0	115.080	0	107.0	4	37.1	4	-1E+10	1	0.0478	4	0.000387	0	-1E+10	1	-1E+10	1	-1E+10	1
4902624	40	C	07/26/2025	09:33	-129.094	49.259	0	116.90	0	8.1481	0	33.5726	0	26.133	0	115.873	0	106.4	4	36.8	4	-1E+10	1	0.0459	4	0.000380	0	-1E+10	1	-1E+10	1	-1E+10	1
4902624	40	C	07/26/2025	09:33	-129.094	49.259	0	117.10	0	8.1440	0	33.5750	0	26.135	0	116.071	0	-1e10	1	-1e10	1	-1E+10	1	-1e10	1	-1e10	1	-1E+10	1	-1E+10	1	-1E+10	1
4902624	40	C	07/26/2025	09:33	-129.094	49.259	0	117.60	0	8.1329	0	33.5819	0	26.143	0	116.567	0	106.0	4	36.7	4	-1E+10	1	0.0448	4	0.000369	0	-1E+10	1	-1E+10	1	-1E+10	1
4902624	40	C	07/26/2025	09:33	-129.094	49.259	0	118.10	0	8.1218	0	33.5889	0	26.150	0	117.062	0	105.5	4	36.5	4	-1E+10	1	0.0469	4	0.000364	0	-1E+10	1	-1E+10	1	-1E+10	1
4902624	40	C	07/26/2025	09:33	-129.094	49.259	0	118.70	0	8.1084	0	33.5972	0	26.158	0	117.657	0	105.1	4	36.4	4	-1E+10	1	0.0409	4	0.000361	0	-1E+10	1	-1E+10	1	-1E+10	1
4902624	40	C	07/26/2025	09:33	-129.094	49.259	0	118.90	0	8.1040	0	33.6000	0	26.161	0	117.855	0	-1e10	1	-1e10	1	-1E+10	1	-1e10	1	-1e10	1	-1E+10	1	-1E+10	1	-1E+10	1
4902624	40	C	07/26/2025	09:33	-129.094	49.259	0	119.20	0	8.0994	0	33.6036	0	26.165	0	118.152	0	104.7	4	36.2	4	-1E+10	1	0.0574	4	0.000355	0	-1E+10	1	-1E+10	1	-1E+10	1
4902624	40	C	07/26/2025	09:33	-129.094	49.259	0	119.80	0	8.0903	0	33.6107	0	26.172	0	118.747	0	104.2	4	36.0	4	-1E+10	1	0.0511	4	0.000375	0	-1E+10	1	-1E+10	1	-1E+10	1
4902624	40	C	07/26/2025	09:33	-129.094	49.259	0	120.50	0	8.0796	0	33.6190	0	26.180	0	119.440	0	103.3	4	35.7	4	-1E+10	1	0.0511	4	0.000328	0	-1E+10	1	-1E+10	1	-1E+10	1
4902624	40	C	07/26/2025	09:33	-129.094	49.259	0	121.00	0	8.0720	0	33.6250	0	26.185	0	119.936	0	-1e10	1	-1e10	1	-1E+10	1	-1e10	1	-1e10	1	-1E+10	1	-1E+10	1	-1E+10	1
4902624	40	C	07/26/2025	09:33	-129.094	49.259	0	121.10	0	8.0702	0	33.6262	0	26.187	0	120.035	0	101.3	4	35.0	4	-1E+10	1	0.0584	4	0.000434	0	-1E+10	1	-1E+10	1	-1E+10	1
4902624	40	C	07/26/2025	09:33	-129.094	49.259	0	121.70	0	8.0591	0	33.6335	0	26.194	0	120.629	0	102.8	4	35.5	4	-1E+10	1	0.0474	4	0.000355	0	-1E+10	1	-1E+10	1	-1E+10	1
4902624	40	C	07/26/2025	09:33	-129.094	49.259	0	122.30	0	8.0481	0	33.6407	0	26.201	0	121.224	0	102.2	4	35.3	4	-1E+10	1	0.0373	4	0.000344	0	-1E+10	1	-1E+10	1	-1E+10	1
4902624	40	C	07/26/2025	09:33	-129.094	49.259	0	122.90	0	8.0370	0	33.6480	0	26.209	0	121.818	0	-1e10	1	-1e10	1	-1E+10	1	-1e10	1	-1e10	1	-1E+10	1	-1E+10	1	-1E+10	1
4902624	40	C	07/26/2025	09:33	-129.094	49.259	0	123.00	0	8.0355	0	33.6491	0	26.210	0	121.917	0	101.9	4	35.2	4	-1E+10	1	0.0313	4	0.000367	0	-1E+10	1	-1E+10	1	-1E+10	1
4902624	40	C	07/26/2025	09:33	-129.094	49.259	0	123.80	0	8.0237	0	33.6579	0	26.218	0	122.710	0	101.6	4	35.1	4	-1E+10	1	0.0389	4	0.000364	0	-1E+10	1	-1E+10	1	-1E+10	1
4902624	40	C	07/26/2025	09:33	-129.094	49.259	0	124.50	0	8.0134	0	33.6655	0	26.226	0	123.404	0	101.2	4	35.0	4	-1E+10	1	0.0446	4	0.000340	0	-1E+10	1	-1E+10	1	-1E+10	1
4902624	40	C	07/26/2025	09:33	-129.094	49.259	0	125.00	0	8.0060	0	33.6710	0	26.231	0	123.899	0	-1e10	1	-1e10	1	-1E+10	1	-1e10	1	-1e10	1	-1E+10	1	-1E+10	1	-1E+10	1
4902624	40	C	07/26/2025	09:33	-129.094	49.259	0	125.30	0	8.0027	0	33.6727	0	26.233	0	124.197	0	100.9	4	34.8	4	-1E+10	1	0.0511	4	0.000340	0	-1E+10	1	-1E+10	1	-1E+10	1
4902624	40	C	07/26/2025	09:33	-129.094	49.259	0	126.10	0	7.9940	0	33.6773	0	26.238	0	124.989	0	100.6	4	34.7	4	-1E+10	1	0.0511	4	0.000340	0	-1E+10	1	-1E+10	1	-1E+10	1
4902624	40	C	07/26/2025	09:33	-129.094	49.259	0	127.00	0	7.9841	0	33.6824	0	26.244	0	125.881	0	100.4	4	34.6	4	-1E+10	1	0.0511	4	0.000309	0	-1E+10	1	-1E+10	1	-1E+10	1
4902624	40	C	07/26/2025	09:33	-129.094	49.259	0	127.10	0	7.9830	0	33.6830	0	26.244	0	125.980	0	-1e10	1	-1e10	1	-1E+10	1	-1e10	1	-1e10	1	-1E+10	1	-1E+10	1	-1E+10	1
4902624	40	C	07/26/2025	09:33	-129.094	49.259	0	127.80	0	7.9767	0	33.6867	0	26.248	0	126.674	0	100.1	4	34.5	4	-1E+10	1	0.0409	4	0.000363	0	-1E+10	1	-1E+10	1	-1E+10	1
4902624	40	C	07/26/2025	09:33	-129.094	49.259	0	128.70	0	7.9687	0	33.6914	0	26.253	0	127.566	0	99.9	4	34.5	4	-1E+10	1	0.0462	4	0.000380	0	-1E+10	1	-1E+10	1	-1E+10	1
4902624	40	C	07/26/2025	09:33	-129.094	49.259	0	129.00	0	7.9660	0	33.6930	0	26.255	0	127.863	0	-1e10	1	-1e10	1	-1E+10	1	-1e10	1	-1e10	1	-1E+10	1	-1E+10	1	-1E+10	1
4902624	40	C	07/26/2025	09:33	-129.094	49.259	0	129.50	0	7.9605	0	33.6951	0	26.257	0	128.358	0	99.8	4	34.4	4	-1E+10	1	0.0511	4	0.000405	0	-1E+10	1	-1E+10	1	-1E+10	1
4902624	40	C	07/26/2025	09:33	-129.094	49.259	0	130.40	0	7.9505	0	33.6989	0	26.261	0	129.250	0	99.6	4	34.3	4	-1E+10	1	0.0511	4	0.000421	0	-1E+10	1	-1E+10	1	-1E+10	1
4902624	40	C	07/26/2025	09:33	-129.094	49.259	0	130.90	0	7.9450	0	33.7010	0	26.264	0	129.745	0	-1e10	1	-1e10	1	-1E+10	1	-1e10	1	-1e10	1	-1E+10	1	-1E+10	1	-1E+10	1
4902624	40	C	07/26/2025	09:33	-129.094	49.259	0	131.30	0	7.9400	0	33.7039	0	26.267	0	130.142	0	99.4	4	34.3	4	-1E+10	1	0.0511	4	0.000394	0	-1E+10	1	-1E+10	1	-1E+10	1
4902624	40	C	07/26/2025	09:33	-129.094	49.259	0	132.20	0	7.9289	0	33.7103	0	26.274	0	131.034	0	99.4	4	34.3	4	-1E+10	1	0.0487	4	0.000371	0	-1E+10	1	-1E+10	1	-1E+10	1
4902624	40	C	07/26/2025	09:33	-129.094	49.259	0	133.00	0	7.9190	0	33.7160	0	26.280	0	131.826	0	-1e10	1	-1e10	1	-1E+10	1	-1e10	1	-1e10	1	-1E+10	1	-1E+10	1	-1E+10	1
4902624	40	C	07/26/2025	09:33	-129.094	49.259	0	133.20	0	7.9155	0	33.7171	0	26.281	0	132.024	0	99.4	4	34.3	4	-1E+10	1	0.0365	4	0.000352	0	-1E+10	1	-1E+10	1	-1E+10	1
4902624	40	C	07/26/2025	09:33	-129.094	49.259	0	134.20	0	7.8979	0	33.7229	0	26.288	0	133.015	0	99.4	4	34.3	4	-1E+10	1	0.0365	4	0.000371	0	-1E+10	1	-1E+10	1	-1E+10	1
4902624	40	C	07/26/2025	09:33	-129.094	49.259	0	135.10	0	7.8820	0	33.7280	0	26.294	0	133.907	0	97.2	4	33.5	4	-1E+10	1	0.0365	4	0.000366	0	-1E+10	1	-1E+10	1	-1E+10	1
4902624	40	C	07/26/2025	09:33	-129.094	49.259	0	136.10	0	7.8657	0	33.7312	0	26.299	0	134.898	0	99.2	4	34.2	4	-1E+10	1	0.0511	4	0.000332	0	-1E+10	1	-1E+10	1	-1E+10	1
4902624	40	C	07/26/2025	09:33	-129.094	49.259	0	137.00	0	7.8510	0	33.7340	0	26.304	0	135.790	0	-1e10	1	-1e10	1	-1E+10	1	-1e10	1	-1e10	1	-1E+10	1	-1E+10	1	-1E+10	1
4902624	40	C	07/26/2025	09:33	-129.094	49.259	0	137.10	0	7.8501	0	33.7344	0	26.304	0	135.889	0	99.1	4	34.1	4	-1E+10	1	0.0474	4	0.000340	0	-1E+10	1	-1E+10	1	-1E+10	1
4902624	40	C	07/26/2025	09:33	-129.094	49.259	0	138.10	0	7.8411	0	33.7379	0	26.308	0	136.880	0	98.9	4	34.0	4	-1E+10	1	0.0453	4	0.000354	0	-1E+10	1	-1E+10	1	-1E+10	1
4902624	40	C	07/26/2025	09:33	-129.094	49.259	0	139.00	0	7.8330	0	33.7410	0	26.312	0	137.771	0	-1e10	1	-1e10	1	-1E+10	1	-1e10	1	-1e10	1	-1E+10	1	-1E+10	1	-1E+10	1
4902624	40	C	07/26/2025	09:33	-129.094	49.259	0	139.10	0	7.8325	0	33.7412	0	26.312	0	137.870	0	98.8	4	34.0	4	-1E+10	1	0.0557	4	0.000340	0	-1E+10	1	-1E+10	1	-1E+10	1
4902624	40	C	07/26/2025	09:33	-129.094	49.259	0	140.00	0	7.8277	0	33.7426	0	26.314	0	138.762	0	98.6	4	33.9	4	-1E+10	1	0.0487	4	0.000526	0	-1E+10	1	-1E+10	1	-1E+10	1
4902624	40	C	07/26/2025	09:33	-129.094	49.259	0	140.90	0	7.8230	0	33.7440	0	26.316	0	139.654	0	-1e10	1	-1e10	1	-1E+10	1	-1e10	1	-1e10	1	-1E+10	1	-1E+10	1	-1E+10	1
4902624	40	C	07/26/2025	09:33	-129.094	49.259	0	141.00	0	7.8224	0	33.7443	0	26.316	0	139.753	0	98.5	4	33.9	4	-1E+10	1	0.0365	4	0.001454	0	-1E+10	1	-1E+10	1	-1E+10	1
4902624	40	C	07/26/2025	09:33	-129.094	49.259	0	142.00	0	7.8165	0	33.7470	0	26.319	0	140.744	0	98.3	4	33.8	4	-1E+10	1	0.0438	4	0.000352	0	-1E+10	1	-1E+10	1	-1E+10	1
4902624	40	C	07/26/2025	09:33	-129.094	49.259	0	143.00	0	7.8106	0	33.7497	0	26.322	0	141.735	0	98.1	4	33.7	4	-1E+10	1	0.0377	4	0.000352	0	-1E+10	1	-1E+10	1	-1E+10	1
4902624	40	C	07/26/2025	09:33	-129.094	49.259	0	143.10	0	7.8100	0	33.7500	0	26.322	0	141.834	0	-1e10	1	-1e10	1	-1E+10	1	-1e10	1	-1e10	1	-1E+10	1	-1E+10	1	-1E+10	1
4902624	40	C	07/26/2025	09:33	-129.094	49.259	0	143.90	0	7.8024	0	33.7525	0	26.325	0	142.626	0	98.0	4	33.7	4	-1E+10	1	0.0458	4	0.000359	0	-1E+10	1	-1E+10	1	-1E+10	1
4902624	40	C	07/26/2025	09:33	-129.094	49.259	0	144.90	0	7.7929	0	33.7557	0	26.329	0	143.617	0	97.8	4	33.6	4	-1E+10	1	0.0511	4	0.000363	0	-1E+10	1	-1E+10	1	-1E+10	1
4902624	40	C	07/26/2025	09:33	-129.094	49.259	0	145.00	0	7.7920	0	33.7560	0	26.330	0	143.716	0	-1e10	1	-1e10	1	-1E+10	1	-1e10	1	-1e10	1	-1E+10	1	-1E+10	1	-1E+10	1
4902624	40	C	07/26/2025	09:33	-129.094	49.259	0	145.90	0	7.7848	0	33.7578	0	26.332	0	144.608	0	97.5	4	33.5	4	-1E+10	1	0.0471	4	0.000357	0	-1E+10	1	-1E+10	1	-1E+10	1
4902624	40	C	07/26/2025	09:33	-129.094	49.259	0	146.80	0	7.7776	0	33.7596	0	26.335	0	145.500	0	97.2	4	33.4	4	-1E+10	1	0.0462	4	0.000403	0	-1E+10	1	-1E+10	1	-1E+10	1
4902624	40	C	07/26/2025	09:33	-129.094	49.259	0	147.00	0	7.7760	0	33.7600	0	26.335	0	145.698	0	-1e10	1	-1e10	1	-1E+10	1	-1e10	1	-1e10	1	-1E+10	1	-1E+10	1	-1E+10	1
4902624	40	C	07/26/2025	09:33	-129.094	49.259	0	147.80	0	7.7704	0	33.7632	0	26.338	0	146.490	0	97.0	4	33.3	4	-1E+10	1	0.0527	4	0.000491	0	-1E+10	1	-1E+10	1	-1E+10	1
4902624	40	C	07/26/2025	09:33	-129.094	49.259	0	148.70	0	7.7641	0	33.7668	0	26.342	0	147.382	0	96.8	4	33.3	4	-1E+10	1	0.0572	4	0.000430	0	-1E+10	1	-1E+10	1	-1E+10	1
4902624	40	C	07/26/2025	09:33	-129.094	49.259	0	149.00	0	7.7620	0	33.7680	0	26.343	0	147.679	0	-1e10	1	-1e10	1	-1E+10	1	-1e10	1	-1e10	1	-1E+10	1	-1E+10	1	-1E+10	1
4902624	40	C	07/26/2025	09:33	-129.094	49.259	0	149.70	0	7.7564	0	33.7694	0	26.345	0	148.373	0	96.6	4	33.2	4	-1E+10	1	0.0511	4	0.000352	0	-1E+10	1	-1E+10	1	-1E+10	1
4902624	40	C	07/26/2025	09:33	-129.094	49.259	0	150.70	0	7.7484	0	33.7714	0	26.348	0	149.364	0	96.3	4	33.1	4	-1E+10	1	0.0511	4	0.000342	0	-1E+10	1	-1E+10	1	-1E+10	1
4902624	40	C	07/26/2025	09:33	-129.094	49.259	0	151.00	0	7.7460	0	33.7720	0	26.349	0	149.661	0	-1e10	1	-1e10	1	-1E+10	1	-1e10	1	-1e10	1	-1E+10	1	-1E+10	1	-1E+10	1
4902624	40	C	07/26/2025	09:33	-129.094	49.259	0	151.60	0	7.7375	0	33.7745	0	26.352	0	150.255	0	96.0	4	33.0	4	-1E+10	1	0.0511	4	0.000365	0	-1E+10	1	-1E+10	1	-1E+10	1
4902624	40	C	07/26/2025	09:33	-129.094	49.259	0	152.60	0	7.7233	0	33.7787	0	26.358	0	151.246	0	95.7	4	32.9	4	-1E+10	1	0.0465	4	0.000390	0	-1E+10	1	-1E+10	1	-1E+10	1
4902624	40	C	07/26/2025	09:33	-129.094	49.259	0	152.90	0	7.7190	0	33.7800	0	26.359	0	151.543	0	-1e10	1	-1e10	1	-1E+10	1	-1e10	1	-1e10	1	-1E+10	1	-1E+10	1	-1E+10	1
4902624	40	C	07/26/2025	09:33	-129.094	49.259	0	153.60	0	7.7071	0	33.7845	0	26.364	0	152.237	0	95.4	4	32.8	4	-1E+10	1	0.0526	4	0.000406	0	-1E+10	1	-1E+10	1	-1E+10	1
4902624	40	C	07/26/2025	09:33	-129.094	49.259	0	154.60	0	7.6901	0	33.7910	0	26.372	0	153.228	0	95.2	4	32.7	4	-1E+10	1	0.0540	4	0.000389	0	-1E+10	1	-1E+10	1	-1E+10	1
4902624	40	C	07/26/2025	09:33	-129.094	49.259	0	154.90	0	7.6850	0	33.7930	0	26.374	0	153.525	0	-1e10	1	-1e10	1	-1E+10	1	-1e10	1	-1e10	1	-1E+10	1	-1E+10	1	-1E+10	1
4902624	40	C	07/26/2025	09:33	-129.094	49.259	0	155.60	0	7.6767	0	33.7960	0	26.378	0	154.218	0	95.1	4	32.6	4	-1E+10	1	0.0438	4	0.000346	0	-1E+10	1	-1E+10	1	-1E+10	1
4902624	40	C	07/26/2025	09:33	-129.094	49.259	0	156.60	0	7.6648	0	33.8003	0	26.383	0	155.209	0	95.0	4	32.6	4	-1E+10	1	0.0365	4	0.000334	0	-1E+10	1	-1E+10	1	-1E+10	1
4902624	40	C	07/26/2025	09:33	-129.094	49.259	0	157.00	0	7.6600	0	33.8020	0	26.385	0	155.605	0	-1e10	1	-1e10	1	-1E+10	1	-1e10	1	-1e10	1	-1E+10	1	-1E+10	1	-1E+10	1
4902624	40	C	07/26/2025	09:33	-129.094	49.259	0	157.70	0	7.6509	0	33.8041	0	26.388	0	156.299	0	94.9	4	32.5	4	-1E+10	1	0.0394	4	0.000377	0	-1E+10	1	-1E+10	1	-1E+10	1
4902624	40	C	07/26/2025	09:33	-129.094	49.259	0	158.70	0	7.6379	0	33.8071	0	26.392	0	157.290	0	94.8	4	32.5	4	-1E+10	1	0.0535	4	0.000387	0	-1E+10	1	-1E+10	1	-1E+10	1
4902624	40	C	07/26/2025	09:33	-129.094	49.259	0	159.00	0	7.6340	0	33.8080	0	26.393	0	157.587	0	-1e10	1	-1e10	1	-1E+10	1	-1e10	1	-1e10	1	-1E+10	1	-1E+10	1	-1E+10	1
4902624	40	C	07/26/2025	09:33	-129.094	49.259	0	159.70	0	7.6294	0	33.8090	0	26.395	0	158.280	0	94.7	4	32.4	4	-1E+10	1	0.0657	4	0.000387	0	-1E+10	1	-1E+10	1	-1E+10	1
4902624	40	C	07/26/2025	09:33	-129.094	49.259	0	160.80	0	7.6223	0	33.8107	0	26.397	0	159.370	0	94.5	4	32.4	4	-1E+10	1	0.0533	4	0.000387	0	-1E+10	1	-1E+10	1	-1E+10	1
4902624	40	C	07/26/2025	09:33	-129.094	49.259	0	161.00	0	7.6210	0	33.8110	0	26.398	0	159.568	0	-1e10	1	-1e10	1	-1E+10	1	-1e10	1	-1e10	1	-1E+10	1	-1E+10	1	-1E+10	1
4902624	40	C	07/26/2025	09:33	-129.094	49.259	0	161.90	0	7.6120	0	33.8133	0	26.401	0	160.460	0	94.4	4	32.3	4	-1E+10	1	0.0451	4	0.000339	0	-1E+10	1	-1E+10	1	-1E+10	1
4902624	40	C	07/26/2025	09:33	-129.094	49.259	0	163.00	0	7.6010	0	33.8160	0	26.405	0	161.550	0	92.1	4	31.5	4	-1E+10	1	0.0489	4	0.000336	0	-1E+10	1	-1E+10	1	-1E+10	1
4902624	40	C	07/26/2025	09:33	-129.094	49.259	0	164.10	0	7.5971	0	33.8166	0	26.406	0	162.640	0	94.2	4	32.3	4	-1E+10	1	0.0511	4	0.000340	0	-1E+10	1	-1E+10	1	-1E+10	1
4902624	40	C	07/26/2025	09:33	-129.094	49.259	0	165.00	0	7.5940	0	33.8170	0	26.406	0	163.531	0	-1e10	1	-1e10	1	-1E+10	1	-1e10	1	-1e10	1	-1E+10	1	-1E+10	1	-1E+10	1
4902624	40	C	07/26/2025	09:33	-129.094	49.259	0	165.20	0	7.5923	0	33.8173	0	26.407	0	163.729	0	94.1	4	32.2	4	-1E+10	1	0.0481	4	0.000350	0	-1E+10	1	-1E+10	1	-1E+10	1
4902624	40	C	07/26/2025	09:33	-129.094	49.259	0	166.30	0	7.5830	0	33.8190	0	26.409	0	164.819	0	93.9	4	32.1	4	-1E+10	1	0.0438	4	0.000378	0	-1E+10	1	-1E+10	1	-1E+10	1
4902624	40	C	07/26/2025	09:33	-129.094	49.259	0	167.00	0	7.5770	0	33.8200	0	26.411	0	165.513	0	-1e10	1	-1e10	1	-1E+10	1	-1e10	1	-1e10	1	-1E+10	1	-1E+10	1	-1E+10	1
4902624	40	C	07/26/2025	09:33	-129.094	49.259	0	167.40	0	7.5724	0	33.8206	0	26.412	0	165.909	0	93.7	4	32.1	4	-1E+10	1	0.0449	4	0.000398	0	-1E+10	1	-1E+10	1	-1E+10	1
4902624	40	C	07/26/2025	09:33	-129.094	49.259	0	168.50	0	7.5598	0	33.8223	0	26.415	0	166.999	0	93.4	4	32.0	4	-1E+10	1	0.0511	4	0.000328	0	-1E+10	1	-1E+10	1	-1E+10	1
4902624	40	C	07/26/2025	09:33	-129.094	49.259	0	169.00	0	7.5540	0	33.8230	0	26.417	0	167.494	0	-1e10	1	-1e10	1	-1E+10	1	-1e10	1	-1e10	1	-1E+10	1	-1E+10	1	-1E+10	1
4902624	40	C	07/26/2025	09:33	-129.094	49.259	0	169.70	0	7.5512	0	33.8248	0	26.419	0	168.187	0	93.1	4	31.9	4	-1E+10	1	0.0438	4	0.000445	0	-1E+10	1	-1E+10	1	-1E+10	1
4902624	40	C	07/26/2025	09:33	-129.094	49.259	0	170.80	0	7.5468	0	33.8275	0	26.421	0	169.277	0	93.0	4	31.8	4	-1E+10	1	0.0376	4	0.000396	0	-1E+10	1	-1E+10	1	-1E+10	1
4902624	40	C	07/26/2025	09:33	-129.094	49.259	0	171.00	0	7.5460	0	33.8280	0	26.422	0	169.475	0	-1e10	1	-1e10	1	-1E+10	1	-1e10	1	-1e10	1	-1E+10	1	-1E+10	1	-1E+10	1
4902624	40	C	07/26/2025	09:33	-129.094	49.259	0	172.00	0	7.5430	0	33.8285	0	26.423	0	170.466	0	92.8	4	31.8	4	-1E+10	1	0.0469	4	0.000362	0	-1E+10	1	-1E+10	1	-1E+10	1
4902624	40	C	07/26/2025	09:33	-129.094	49.259	0	173.00	0	7.5400	0	33.8290	0	26.424	0	171.457	0	-1e10	1	-1e10	1	-1E+10	1	-1e10	1	-1e10	1	-1E+10	1	-1E+10	1	-1E+10	1
4902624	40	C	07/26/2025	09:33	-129.094	49.259	0	173.10	0	7.5392	0	33.8292	0	26.424	0	171.556	0	92.6	4	31.7	4	-1E+10	1	0.0511	4	0.000365	0	-1E+10	1	-1E+10	1	-1E+10	1
4902624	40	C	07/26/2025	09:33	-129.094	49.259	0	174.30	0	7.5296	0	33.8316	0	26.427	0	172.745	0	92.5	4	31.6	4	-1E+10	1	0.0511	4	0.000369	0	-1E+10	1	-1E+10	1	-1E+10	1
4902624	40	C	07/26/2025	09:33	-129.094	49.259	0	175.00	0	7.5240	0	33.8330	0	26.429	0	173.438	0	-1e10	1	-1e10	1	-1E+10	1	-1e10	1	-1e10	1	-1E+10	1	-1E+10	1	-1E+10	1
4902624	40	C	07/26/2025	09:33	-129.094	49.259	0	175.40	0	7.5214	0	33.8334	0	26.430	0	173.834	0	92.3	4	31.5	4	-1E+10	1	0.0553	4	0.000357	0	-1E+10	1	-1E+10	1	-1E+10	1
4902624	40	C	07/26/2025	09:33	-129.094	49.259	0	176.60	0	7.5136	0	33.8346	0	26.432	0	175.023	0	92.0	4	31.5	4	-1E+10	1	0.0633	4	0.000349	0	-1E+10	1	-1E+10	1	-1E+10	1
4902624	40	C	07/26/2025	09:33	-129.094	49.259	0	177.00	0	7.5110	0	33.8350	0	26.432	0	175.419	0	-1e10	1	-1e10	1	-1E+10	1	-1e10	1	-1e10	1	-1E+10	1	-1E+10	1	-1E+10	1
4902624	40	C	07/26/2025	09:33	-129.094	49.259	0	177.80	0	7.5086	0	33.8362	0	26.434	0	176.212	0	91.9	4	31.4	4	-1E+10	1	0.0501	4	0.000390	0	-1E+10	1	-1E+10	1	-1E+10	1
4902624	40	C	07/26/2025	09:33	-129.094	49.259	0	179.00	0	7.5050	0	33.8380	0	26.436	0	177.401	0	89.6	4	30.6	4	-1E+10	1	0.0438	4	0.000340	0	-1E+10	1	-1E+10	1	-1E+10	1
4902624	40	C	07/26/2025	09:33	-129.094	49.259	0	180.20	0	7.5014	0	33.8392	0	26.437	0	178.589	0	91.7	4	31.3	4	-1E+10	1	0.0438	4	0.000390	0	-1E+10	1	-1E+10	1	-1E+10	1
4902624	40	C	07/26/2025	09:33	-129.094	49.259	0	181.00	0	7.4990	0	33.8400	0	26.438	0	179.382	0	-1e10	1	-1e10	1	-1E+10	1	-1e10	1	-1e10	1	-1E+10	1	-1E+10	1	-1E+10	1
4902624	40	C	07/26/2025	09:33	-129.094	49.259	0	181.40	0	7.4952	0	33.8408	0	26.439	0	179.778	0	91.7	4	31.3	4	-1E+10	1	0.0438	4	0.000447	0	-1E+10	1	-1E+10	1	-1E+10	1
4902624	40	C	07/26/2025	09:33	-129.094	49.259	0	182.60	0	7.4838	0	33.8434	0	26.443	0	180.967	0	91.6	4	31.3	4	-1E+10	1	0.0487	4	0.000387	0	-1E+10	1	-1E+10	1	-1E+10	1
4902624	40	C	07/26/2025	09:33	-129.094	49.259	0	182.90	0	7.4810	0	33.8440	0	26.444	0	181.264	0	-1e10	1	-1e10	1	-1E+10	1	-1e10	1	-1e10	1	-1E+10	1	-1E+10	1	-1E+10	1
4902624	40	C	07/26/2025	09:33	-129.094	49.259	0	183.80	0	7.4763	0	33.8444	0	26.445	0	182.156	0	91.6	4	31.3	4	-1E+10	1	0.0548	4	0.000328	0	-1E+10	1	-1E+10	1	-1E+10	1
4902624	40	C	07/26/2025	09:33	-129.094	49.259	0	185.00	0	7.4700	0	33.8450	0	26.446	0	183.344	0	89.5	4	30.6	4	-1E+10	1	0.0554	4	0.000334	0	-1E+10	1	-1E+10	1	-1E+10	1
4902624	40	C	07/26/2025	09:33	-129.094	49.259	0	186.20	0	7.4646	0	33.8456	0	26.447	0	184.533	0	91.5	4	31.2	4	-1E+10	1	0.0537	4	0.000358	0	-1E+10	1	-1E+10	1	-1E+10	1
4902624	40	C	07/26/2025	09:33	-129.094	49.259	0	187.00	0	7.4610	0	33.8460	0	26.448	0	185.325	0	-1e10	1	-1e10	1	-1E+10	1	-1e10	1	-1e10	1	-1E+10	1	-1E+10	1	-1E+10	1
4902624	40	C	07/26/2025	09:33	-129.094	49.259	0	187.40	0	7.4551	0	33.8471	0	26.450	0	185.722	0	91.4	4	31.2	4	-1E+10	1	0.0569	4	0.000344	0	-1E+10	1	-1E+10	1	-1E+10	1
4902624	40	C	07/26/2025	09:33	-129.094	49.259	0	188.60	0	7.4374	0	33.8502	0	26.455	0	186.910	0	91.4	4	31.2	4	-1E+10	1	0.0511	4	0.000410	0	-1E+10	1	-1E+10	1	-1E+10	1
4902624	40	C	07/26/2025	09:33	-129.094	49.259	0	188.90	0	7.4330	0	33.8510	0	26.456	0	187.208	0	-1e10	1	-1e10	1	-1E+10	1	-1e10	1	-1e10	1	-1E+10	1	-1E+10	1	-1E+10	1
4902624	40	C	07/26/2025	09:33	-129.094	49.259	0	189.80	0	7.4257	0	33.8519	0	26.458	0	188.099	0	91.3	4	31.1	4	-1E+10	1	0.0511	4	0.000375	0	-1E+10	1	-1E+10	1	-1E+10	1
4902624	40	C	07/26/2025	09:33	-129.094	49.259	0	191.00	0	7.4160	0	33.8530	0	26.460	0	189.288	0	89.0	4	30.4	4	-1E+10	1	0.0574	4	0.000365	0	-1E+10	1	-1E+10	1	-1E+10	1
4902624	40	C	07/26/2025	09:33	-129.094	49.259	0	192.10	0	7.4121	0	33.8535	0	26.461	0	190.377	0	91.1	4	31.1	4	-1E+10	1	0.0490	4	0.000355	0	-1E+10	1	-1E+10	1	-1E+10	1
4902624	40	C	07/26/2025	09:33	-129.094	49.259	0	193.00	0	7.4090	0	33.8540	0	26.462	0	191.269	0	-1e10	1	-1e10	1	-1E+10	1	-1e10	1	-1e10	1	-1E+10	1	-1E+10	1	-1E+10	1
4902624	40	C	07/26/2025	09:33	-129.094	49.259	0	193.30	0	7.4066	0	33.8543	0	26.463	0	191.566	0	90.9	4	31.0	4	-1E+10	1	0.0438	4	0.000372	0	-1E+10	1	-1E+10	1	-1E+10	1
4902624	40	C	07/26/2025	09:33	-129.094	49.259	0	194.50	0	7.3972	0	33.8556	0	26.465	0	192.755	0	90.8	4	31.0	4	-1E+10	1	0.0472	4	0.000556	0	-1E+10	1	-1E+10	1	-1E+10	1
4902624	40	C	07/26/2025	09:33	-129.094	49.259	0	194.90	0	7.3940	0	33.8560	0	26.466	0	193.151	0	-1e10	1	-1e10	1	-1E+10	1	-1e10	1	-1e10	1	-1E+10	1	-1E+10	1	-1E+10	1
4902624	40	C	07/26/2025	09:33	-129.094	49.259	0	195.80	0	7.3829	0	33.8586	0	26.469	0	194.043	0	90.6	4	30.9	4	-1E+10	1	0.0537	4	0.000633	0	-1E+10	1	-1E+10	1	-1E+10	1
4902624	40	C	07/26/2025	09:33	-129.094	49.259	0	197.00	0	7.3680	0	33.8620	0	26.474	0	195.231	0	88.4	4	30.1	4	-1E+10	1	0.0584	4	0.000410	0	-1E+10	1	-1E+10	1	-1E+10	1
4902624	40	C	07/26/2025	09:33	-129.094	49.259	0	198.20	0	7.3554	0	33.8638	0	26.477	0	196.420	0	90.4	4	30.8	4	-1E+10	1	0.0599	4	0.000363	0	-1E+10	1	-1E+10	1	-1E+10	1
4902624	40	C	07/26/2025	09:33	-129.094	49.259	0	199.00	0	7.3470	0	33.8650	0	26.479	0	197.212	0	-1e10	1	-1e10	1	-1E+10	1	-1e10	1	-1e10	1	-1E+10	1	-1E+10	1	-1E+10	1
4902624	40	C	07/26/2025	09:33	-129.094	49.259	0	199.40	0	7.3440	0	33.8652	0	26.480	0	197.609	0	90.3	4	30.8	4	-1E+10	1	0.0657	4	0.000316	0	-1E+10	1	-1E+10	1	-1E+10	1
4902624	40	C	07/26/2025	09:33	-129.094	49.259	0	200.50	0	7.3357	0	33.8658	0	26.482	0	198.698	0	90.1	4	30.7	4	-1E+10	1	0.0542	4	0.000381	0	-1E+10	1	-1E+10	1	-1E+10	1
4902624	40	C	07/26/2025	09:33	-129.094	49.259	0	201.00	0	7.3320	0	33.8660	0	26.482	0	199.193	0	-1e10	1	-1e10	1	-1E+10	1	-1e10	1	-1e10	1	-1E+10	1	-1E+10	1	-1E+10	1
4902624	40	C	07/26/2025	09:33	-129.094	49.259	0	201.70	0	7.3278	0	33.8667	0	26.484	0	199.887	0	89.9	4	30.6	4	-1E+10	1	0.0511	4	0.000407	0	-1E+10	1	-1E+10	1	-1E+10	1
4902624	40	C	07/26/2025	09:33	-129.094	49.259	0	202.90	0	7.3206	0	33.8679	0	26.485	0	201.075	0	89.7	4	30.5	4	-1E+10	1	0.0417	4	0.000372	0	-1E+10	1	-1E+10	1	-1E+10	1
4902624	40	C	07/26/2025	09:33	-129.094	49.259	0	203.00	0	7.3200	0	33.8680	0	26.486	0	201.174	0	-1e10	1	-1e10	1	-1E+10	1	-1e10	1	-1e10	1	-1E+10	1	-1E+10	1	-1E+10	1
4902624	40	C	07/26/2025	09:33	-129.094	49.259	0	204.00	0	7.3180	0	33.8685	0	26.486	0	202.165	0	89.4	4	30.4	4	-1E+10	1	0.0432	4	0.000411	0	-1E+10	1	-1E+10	1	-1E+10	1
4902624	40	C	07/26/2025	09:33	-129.094	49.259	0	205.00	0	7.3160	0	33.8690	0	26.487	0	203.155	0	-1e10	1	-1e10	1	-1E+10	1	-1e10	1	-1e10	1	-1E+10	1	-1E+10	1	-1E+10	1
4902624	40	C	07/26/2025	09:33	-129.094	49.259	0	205.20	0	7.3148	0	33.8692	0	26.487	0	203.354	0	89.3	4	30.4	4	-1E+10	1	0.0450	4	0.000412	0	-1E+10	1	-1E+10	1	-1E+10	1
4902624	40	C	07/26/2025	09:33	-129.094	49.259	0	206.30	0	7.3082	0	33.8703	0	26.489	0	204.443	0	89.2	4	30.4	4	-1E+10	1	0.0410	4	0.000366	0	-1E+10	1	-1E+10	1	-1E+10	1
4902624	40	C	07/26/2025	09:33	-129.094	49.259	0	207.00	0	7.3040	0	33.8710	0	26.490	0	205.136	0	-1e10	1	-1e10	1	-1E+10	1	-1e10	1	-1e10	1	-1E+10	1	-1E+10	1	-1E+10	1
4902624	40	C	07/26/2025	09:33	-129.094	49.259	0	207.50	0	7.3002	0	33.8717	0	26.491	0	205.632	0	89.0	4	30.3	4	-1E+10	1	0.0480	4	0.000460	0	-1E+10	1	-1E+10	1	-1E+10	1
4902624	40	C	07/26/2025	09:33	-129.094	49.259	0	208.60	0	7.2918	0	33.8733	0	26.494	0	206.721	0	88.8	4	30.2	4	-1E+10	1	0.0365	4	0.000386	0	-1E+10	1	-1E+10	1	-1E+10	1
4902624	40	C	07/26/2025	09:33	-129.094	49.259	0	209.10	0	7.2880	0	33.8740	0	26.495	0	207.217	0	-1e10	1	-1e10	1	-1E+10	1	-1e10	1	-1e10	1	-1E+10	1	-1E+10	1	-1E+10	1
4902624	40	C	07/26/2025	09:33	-129.094	49.259	0	209.70	0	7.2805	0	33.8752	0	26.497	0	207.811	0	88.6	4	30.1	4	-1E+10	1	0.0438	4	0.000339	0	-1E+10	1	-1E+10	1	-1E+10	1
4902624	40	C	07/26/2025	09:33	-129.094	49.259	0	210.90	0	7.2655	0	33.8776	0	26.501	0	208.999	0	88.5	4	30.1	4	-1E+10	1	0.0563	4	0.000330	0	-1E+10	1	-1E+10	1	-1E+10	1
4902624	40	C	07/26/2025	09:33	-129.094	49.259	0	211.10	0	7.2630	0	33.8780	0	26.502	0	209.197	0	-1e10	1	-1e10	1	-1E+10	1	-1e10	1	-1e10	1	-1E+10	1	-1E+10	1	-1E+10	1
4902624	40	C	07/26/2025	09:33	-129.094	49.259	0	212.00	0	7.2540	0	33.8789	0	26.504	0	210.089	0	88.3	4	30.0	4	-1E+10	1	0.0490	4	0.000388	0	-1E+10	1	-1E+10	1	-1E+10	1
4902624	40	C	07/26/2025	09:33	-129.094	49.259	0	213.00	0	7.2440	0	33.8800	0	26.506	0	211.079	0	-1e10	1	-1e10	1	-1E+10	1	-1e10	1	-1e10	1	-1E+10	1	-1E+10	1	-1E+10	1
4902624	40	C	07/26/2025	09:33	-129.094	49.259	0	213.10	0	7.2438	0	33.8800	0	26.506	0	211.178	0	88.2	4	30.0	4	-1E+10	1	0.0398	4	0.000370	0	-1E+10	1	-1E+10	1	-1E+10	1
4902624	40	C	07/26/2025	09:33	-129.094	49.259	0	214.20	0	7.2421	0	33.8800	0	26.506	0	212.268	0	88.0	4	29.9	4	-1E+10	1	0.0432	4	0.000339	0	-1E+10	1	-1E+10	1	-1E+10	1
4902624	40	C	07/26/2025	09:33	-129.094	49.259	0	214.90	0	7.2410	0	33.8800	0	26.506	0	212.961	0	-1e10	1	-1e10	1	-1E+10	1	-1e10	1	-1e10	1	-1E+10	1	-1E+10	1	-1E+10	1
4902624	40	C	07/26/2025	09:33	-129.094	49.259	0	215.40	0	7.2386	0	33.8805	0	26.507	0	213.457	0	87.7	4	29.8	4	-1E+10	1	0.0511	4	0.000355	0	-1E+10	1	-1E+10	1	-1E+10	1
4902624	40	C	07/26/2025	09:33	-129.094	49.259	0	216.50	0	7.2334	0	33.8815	0	26.509	0	214.546	0	87.5	4	29.7	4	-1E+10	1	0.0511	4	0.000359	0	-1E+10	1	-1E+10	1	-1E+10	1
4902624	40	C	07/26/2025	09:33	-129.094	49.259	0	217.00	0	7.2310	0	33.8820	0	26.509	0	215.041	0	-1e10	1	-1e10	1	-1E+10	1	-1e10	1	-1e10	1	-1E+10	1	-1E+10	1	-1E+10	1
4902624	40	C	07/26/2025	09:33	-129.094	49.259	0	217.60	0	7.2277	0	33.8826	0	26.510	0	215.636	0	87.3	4	29.7	4	-1E+10	1	0.0501	4	0.000343	0	-1E+10	1	-1E+10	1	-1E+10	1
4902624	40	C	07/26/2025	09:33	-129.094	49.259	0	218.80	0	7.2211	0	33.8838	0	26.512	0	216.824	0	87.1	4	29.6	4	-1E+10	1	0.0438	4	0.000363	0	-1E+10	1	-1E+10	1	-1E+10	1
4902624	40	C	07/26/2025	09:33	-129.094	49.259	0	219.00	0	7.2200	0	33.8840	0	26.512	0	217.022	0	-1e10	1	-1e10	1	-1E+10	1	-1e10	1	-1e10	1	-1E+10	1	-1E+10	1	-1E+10	1
4902624	40	C	07/26/2025	09:33	-129.094	49.259	0	219.90	0	7.2155	0	33.8844	0	26.513	0	217.914	0	86.9	4	29.5	4	-1E+10	1	0.0438	4	0.000363	0	-1E+10	1	-1E+10	1	-1E+10	1
4902624	40	C	07/26/2025	09:33	-129.094	49.259	0	220.90	0	7.2105	0	33.8849	0	26.514	0	218.904	0	86.7	4	29.4	4	-1E+10	1	0.0544	4	0.000380	0	-1E+10	1	-1E+10	1	-1E+10	1
4902624	40	C	07/26/2025	09:33	-129.094	49.259	0	221.00	0	7.2100	0	33.8850	0	26.515	0	219.003	0	-1e10	1	-1e10	1	-1E+10	1	-1e10	1	-1e10	1	-1E+10	1	-1E+10	1	-1E+10	1
4902624	40	C	07/26/2025	09:33	-129.094	49.259	0	222.10	0	7.2042	0	33.8856	0	26.516	0	220.092	0	86.4	4	29.3	4	-1E+10	1	0.0533	4	0.000557	0	-1E+10	1	-1E+10	1	-1E+10	1
4902624	40	C	07/26/2025	09:33	-129.094	49.259	0	222.90	0	7.2000	0	33.8860	0	26.517	0	220.885	0	-1e10	1	-1e10	1	-1E+10	1	-1e10	1	-1e10	1	-1E+10	1	-1E+10	1	-1E+10	1
4902624	40	C	07/26/2025	09:33	-129.094	49.259	0	223.20	0	7.1979	0	33.8861	0	26.517	0	221.182	0	86.0	4	29.2	4	-1E+10	1	0.0511	4	0.000506	0	-1E+10	1	-1E+10	1	-1E+10	1
4902624	40	C	07/26/2025	09:33	-129.094	49.259	0	224.20	0	7.1907	0	33.8866	0	26.519	0	222.172	0	85.6	4	29.0	4	-1E+10	1	0.0511	4	0.000374	0	-1E+10	1	-1E+10	1	-1E+10	1
4902624	40	C	07/26/2025	09:33	-129.094	49.259	0	225.00	0	7.1850	0	33.8870	0	26.520	0	222.965	0	-1e10	1	-1e10	1	-1E+10	1	-1e10	1	-1e10	1	-1E+10	1	-1E+10	1	-1E+10	1
4902624	40	C	07/26/2025	09:33	-129.094	49.259	0	225.30	0	7.1831	0	33.8876	0	26.520	0	223.262	0	85.0	4	28.9	4	-1E+10	1	0.0539	4	0.000330	0	-1E+10	1	-1E+10	1	-1E+10	1
4902624	40	C	07/26/2025	09:33	-129.094	49.259	0	226.40	0	7.1759	0	33.8898	0	26.523	0	224.351	0	84.6	4	28.7	4	-1E+10	1	0.0564	4	0.000341	0	-1E+10	1	-1E+10	1	-1E+10	1
4902624	40	C	07/26/2025	09:33	-129.094	49.259	0	227.00	0	7.1720	0	33.8910	0	26.525	0	224.946	0	-1e10	1	-1e10	1	-1E+10	1	-1e10	1	-1e10	1	-1E+10	1	-1E+10	1	-1E+10	1
4902624	40	C	07/26/2025	09:33	-129.094	49.259	0	227.40	0	7.1680	0	33.8918	0	26.526	0	225.342	0	84.3	4	28.6	4	-1E+10	1	0.0484	4	0.000405	0	-1E+10	1	-1E+10	1	-1E+10	1
4902624	40	C	07/26/2025	09:33	-129.094	49.259	0	228.50	0	7.1570	0	33.8940	0	26.529	0	226.431	0	84.1	4	28.5	4	-1E+10	1	0.0365	4	0.000375	0	-1E+10	1	-1E+10	1	-1E+10	1
4902624	40	C	07/26/2025	09:33	-129.094	49.259	0	229.00	0	7.1520	0	33.8950	0	26.531	0	226.926	0	-1e10	1	-1e10	1	-1E+10	1	-1e10	1	-1e10	1	-1E+10	1	-1E+10	1	-1E+10	1
4902624	40	C	07/26/2025	09:33	-129.094	49.259	0	229.60	0	7.1448	0	33.8956	0	26.532	0	227.521	0	83.9	4	28.4	4	-1E+10	1	0.0365	4	0.000316	0	-1E+10	1	-1E+10	1	-1E+10	1
4902624	40	C	07/26/2025	09:33	-129.094	49.259	0	230.60	0	7.1328	0	33.8966	0	26.535	0	228.511	0	83.6	4	28.4	4	-1E+10	1	0.0548	4	0.000365	0	-1E+10	1	-1E+10	1	-1E+10	1
4902624	40	C	07/26/2025	09:33	-129.094	49.259	0	231.00	0	7.1280	0	33.8970	0	26.535	0	228.907	0	-1e10	1	-1e10	1	-1E+10	1	-1e10	1	-1e10	1	-1E+10	1	-1E+10	1	-1E+10	1
4902624	40	C	07/26/2025	09:33	-129.094	49.259	0	231.60	0	7.1217	0	33.8970	0	26.536	0	229.501	0	83.4	4	28.3	4	-1E+10	1	0.0637	4	0.000383	0	-1E+10	1	-1E+10	1	-1E+10	1
4902624	40	C	07/26/2025	09:33	-129.094	49.259	0	232.70	0	7.1101	0	33.8970	0	26.538	0	230.591	0	83.0	4	28.1	4	-1E+10	1	0.0462	4	0.000347	0	-1E+10	1	-1E+10	1	-1E+10	1
4902624	40	C	07/26/2025	09:33	-129.094	49.259	0	233.00	0	7.1070	0	33.8970	0	26.538	0	230.888	0	-1e10	1	-1e10	1	-1E+10	1	-1e10	1	-1e10	1	-1E+10	1	-1E+10	1	-1E+10	1
4902624	40	C	07/26/2025	09:33	-129.094	49.259	0	233.80	0	7.1024	0	33.8974	0	26.539	0	231.680	0	82.5	4	28.0	4	-1E+10	1	0.0444	4	0.000340	0	-1E+10	1	-1E+10	1	-1E+10	1
4902624	40	C	07/26/2025	09:33	-129.094	49.259	0	234.90	0	7.0961	0	33.8979	0	26.541	0	232.770	0	82.0	4	27.8	4	-1E+10	1	0.0445	4	0.000367	0	-1E+10	1	-1E+10	1	-1E+10	1
4902624	40	C	07/26/2025	09:33	-129.094	49.259	0	235.10	0	7.0950	0	33.8980	0	26.541	0	232.968	0	-1e10	1	-1e10	1	-1E+10	1	-1e10	1	-1e10	1	-1E+10	1	-1E+10	1	-1E+10	1
4902624	40	C	07/26/2025	09:33	-129.094	49.259	0	235.90	0	7.0862	0	33.8997	0	26.543	0	233.760	0	81.4	4	27.6	4	-1E+10	1	0.0387	4	0.000372	0	-1E+10	1	-1E+10	1	-1E+10	1
4902624	40	C	07/26/2025	09:33	-129.094	49.259	0	237.00	0	7.0740	0	33.9020	0	26.547	0	234.849	0	79.0	4	26.7	4	-1E+10	1	0.0460	4	0.000345	0	-1E+10	1	-1E+10	1	-1E+10	1
4902624	40	C	07/26/2025	09:33	-129.094	49.259	0	238.10	0	7.0542	0	33.9058	0	26.553	0	235.939	0	80.3	4	27.2	4	-1E+10	1	0.0584	4	0.000374	0	-1E+10	1	-1E+10	1	-1E+10	1
4902624	40	C	07/26/2025	09:33	-129.094	49.259	0	239.00	0	7.0380	0	33.9090	0	26.557	0	236.830	0	-1e10	1	-1e10	1	-1E+10	1	-1e10	1	-1e10	1	-1E+10	1	-1E+10	1	-1E+10	1
4902624	40	C	07/26/2025	09:33	-129.094	49.259	0	239.20	0	7.0335	0	33.9096	0	26.558	0	237.028	0	80.1	4	27.1	4	-1E+10	1	0.0584	4	0.000304	0	-1E+10	1	-1E+10	1	-1E+10	1
4902624	40	C	07/26/2025	09:33	-129.094	49.259	0	240.30	0	7.0087	0	33.9129	0	26.564	0	238.118	0	80.0	4	27.0	4	-1E+10	1	0.0399	4	0.000393	0	-1E+10	1	-1E+10	1	-1E+10	1
4902624	40	C	07/26/2025	09:33	-129.094	49.259	0	241.00	0	6.9930	0	33.9150	0	26.568	0	238.811	0	-1e10	1	-1e10	1	-1E+10	1	-1e10	1	-1e10	1	-1E+10	1	-1E+10	1	-1E+10	1
4902624	40	C	07/26/2025	09:33	-129.094	49.259	0	241.40	0	6.9865	0	33.9154	0	26.569	0	239.207	0	80.0	4	27.0	4	-1E+10	1	0.0466	4	0.000361	0	-1E+10	1	-1E+10	1	-1E+10	1
4902624	40	C	07/26/2025	09:33	-129.094	49.259	0	242.50	0	6.9687	0	33.9164	0	26.573	0	240.296	0	80.0	4	27.0	4	-1E+10	1	0.0511	4	0.000339	0	-1E+10	1	-1E+10	1	-1E+10	1
4902624	40	C	07/26/2025	09:33	-129.094	49.259	0	243.10	0	6.9590	0	33.9170	0	26.575	0	240.890	0	-1e10	1	-1e10	1	-1E+10	1	-1e10	1	-1e10	1	-1E+10	1	-1E+10	1	-1E+10	1
4902624	40	C	07/26/2025	09:33	-129.094	49.259	0	243.50	0	6.9522	0	33.9170	0	26.575	0	241.287	0	79.9	4	27.0	4	-1E+10	1	0.0477	4	0.000317	0	-1E+10	1	-1E+10	1	-1E+10	1
4902624	40	C	07/26/2025	09:33	-129.094	49.259	0	244.60	0	6.9335	0	33.9170	0	26.578	0	242.376	0	79.8	4	26.9	4	-1E+10	1	0.0460	4	0.000314	0	-1E+10	1	-1E+10	1	-1E+10	1
4902624	40	C	07/26/2025	09:33	-129.094	49.259	0	245.10	0	6.9250	0	33.9170	0	26.579	0	242.871	0	-1e10	1	-1e10	1	-1E+10	1	-1e10	1	-1e10	1	-1E+10	1	-1E+10	1	-1E+10	1
4902624	40	C	07/26/2025	09:33	-129.094	49.259	0	245.80	0	6.9202	0	33.9174	0	26.580	0	243.564	0	79.6	4	26.9	4	-1E+10	1	0.0511	4	0.000351	0	-1E+10	1	-1E+10	1	-1E+10	1
4902624	40	C	07/26/2025	09:33	-129.094	49.259	0	246.90	0	6.9127	0	33.9179	0	26.582	0	244.654	0	79.5	4	26.8	4	-1E+10	1	0.0522	4	0.000317	0	-1E+10	1	-1E+10	1	-1E+10	1
4902624	40	C	07/26/2025	09:33	-129.094	49.259	0	247.00	0	6.9120	0	33.9180	0	26.582	0	244.753	0	-1e10	1	-1e10	1	-1E+10	1	-1e10	1	-1e10	1	-1E+10	1	-1E+10	1	-1E+10	1
4902624	40	C	07/26/2025	09:33	-129.094	49.259	0	248.00	0	6.9041	0	33.9180	0	26.583	0	245.743	0	79.3	4	26.8	4	-1E+10	1	0.0584	4	0.000327	0	-1E+10	1	-1E+10	1	-1E+10	1
4902624	40	C	07/26/2025	09:33	-129.094	49.259	0	248.90	0	6.8970	0	33.9180	0	26.584	0	246.634	0	-1e10	1	-1e10	1	-1E+10	1	-1e10	1	-1e10	1	-1E+10	1	-1E+10	1	-1E+10	1
4902624	40	C	07/26/2025	09:33	-129.094	49.259	0	249.10	0	6.8945	0	33.9182	0	26.584	0	246.832	0	79.1	4	26.7	4	-1E+10	1	0.0527	4	0.001387	0	-1E+10	1	-1E+10	1	-1E+10	1
4902624	40	C	07/26/2025	09:33	-129.094	49.259	0	250.20	0	6.8808	0	33.9193	0	26.587	0	247.922	0	78.9	4	26.6	4	-1E+10	1	0.0564	4	0.000704	0	-1E+10	1	-1E+10	1	-1E+10	1
4902624	40	C	07/26/2025	09:33	-129.094	49.259	0	250.90	0	6.8720	0	33.9200	0	26.589	0	248.615	0	-1e10	1	-1e10	1	-1E+10	1	-1e10	1	-1e10	1	-1E+10	1	-1E+10	1	-1E+10	1
4902624	40	C	07/26/2025	09:33	-129.094	49.259	0	251.30	0	6.8657	0	33.9202	0	26.590	0	249.011	0	78.7	4	26.5	4	-1E+10	1	0.0494	4	0.000339	0	-1E+10	1	-1E+10	1	-1E+10	1
4902624	40	C	07/26/2025	09:33	-129.094	49.259	0	252.40	0	6.8484	0	33.9207	0	26.593	0	250.100	0	78.4	4	26.4	4	-1E+10	1	0.0539	4	0.000334	0	-1E+10	1	-1E+10	1	-1E+10	1
4902624	40	C	07/26/2025	09:33	-129.094	49.259	0	253.00	0	6.8390	0	33.9210	0	26.594	0	250.694	0	-1e10	1	-1e10	1	-1E+10	1	-1e10	1	-1e10	1	-1E+10	1	-1E+10	1	-1E+10	1
4902624	40	C	07/26/2025	09:33	-129.094	49.259	0	253.50	0	6.8330	0	33.9212	0	26.595	0	251.190	0	78.2	4	26.3	4	-1E+10	1	0.0604	4	0.000344	0	-1E+10	1	-1E+10	1	-1E+10	1
4902624	40	C	07/26/2025	09:33	-129.094	49.259	0	254.60	0	6.8200	0	33.9218	0	26.597	0	252.279	0	77.8	4	26.2	4	-1E+10	1	0.0511	4	0.000342	0	-1E+10	1	-1E+10	1	-1E+10	1
4902624	40	C	07/26/2025	09:33	-129.094	49.259	0	255.10	0	6.8140	0	33.9220	0	26.598	0	252.774	0	-1e10	1	-1e10	1	-1E+10	1	-1e10	1	-1e10	1	-1E+10	1	-1E+10	1	-1E+10	1
4902624	40	C	07/26/2025	09:33	-129.094	49.259	0	255.70	0	6.8058	0	33.9226	0	26.600	0	253.368	0	77.5	4	26.1	4	-1E+10	1	0.0511	4	0.000281	0	-1E+10	1	-1E+10	1	-1E+10	1
4902624	40	C	07/26/2025	09:33	-129.094	49.259	0	256.80	0	6.7907	0	33.9238	0	26.603	0	254.458	0	77.0	4	25.9	4	-1E+10	1	0.0511	4	0.000351	0	-1E+10	1	-1E+10	1	-1E+10	1
4902624	40	C	07/26/2025	09:33	-129.094	49.259	0	257.00	0	6.7880	0	33.9240	0	26.603	0	254.656	0	-1e10	1	-1e10	1	-1E+10	1	-1e10	1	-1e10	1	-1E+10	1	-1E+10	1	-1E+10	1
4902624	40	C	07/26/2025	09:33	-129.094	49.259	0	257.90	0	6.7745	0	33.9254	0	26.606	0	255.547	0	76.6	4	25.8	4	-1E+10	1	0.0511	4	0.000339	0	-1E+10	1	-1E+10	1	-1E+10	1
4902624	40	C	07/26/2025	09:33	-129.094	49.259	0	259.00	0	6.7580	0	33.9270	0	26.610	0	256.636	0	-1e10	1	-1e10	1	-1E+10	1	-1e10	1	-1e10	1	-1E+10	1	-1E+10	1	-1E+10	1
4902624	40	C	07/26/2025	09:33	-129.094	49.259	0	259.10	0	6.7573	0	33.9271	0	26.610	0	256.735	0	76.3	4	25.7	4	-1E+10	1	0.0574	4	0.000359	0	-1E+10	1	-1E+10	1	-1E+10	1
4902624	40	C	07/26/2025	09:33	-129.094	49.259	0	260.20	0	6.7496	0	33.9282	0	26.612	0	257.824	0	76.0	4	25.6	4	-1E+10	1	0.0483	4	0.000330	0	-1E+10	1	-1E+10	1	-1E+10	1
4902624	40	C	07/26/2025	09:33	-129.094	49.259	0	261.00	0	6.7440	0	33.9290	0	26.613	0	258.617	0	-1e10	1	-1e10	1	-1E+10	1	-1e10	1	-1e10	1	-1E+10	1	-1E+10	1	-1E+10	1
4902624	40	C	07/26/2025	09:33	-129.094	49.259	0	261.30	0	6.7387	0	33.9297	0	26.614	0	258.914	0	75.7	4	25.4	4	-1E+10	1	0.0481	4	0.000343	0	-1E+10	1	-1E+10	1	-1E+10	1
4902624	40	C	07/26/2025	09:33	-129.094	49.259	0	262.50	0	6.7178	0	33.9327	0	26.620	0	260.102	0	75.4	4	25.3	4	-1E+10	1	0.0474	4	0.000345	0	-1E+10	1	-1E+10	1	-1E+10	1
4902624	40	C	07/26/2025	09:33	-129.094	49.259	0	263.00	0	6.7090	0	33.9340	0	26.622	0	260.597	0	-1e10	1	-1e10	1	-1E+10	1	-1e10	1	-1e10	1	-1E+10	1	-1E+10	1	-1E+10	1
4902624	40	C	07/26/2025	09:33	-129.094	49.259	0	263.70	0	6.7024	0	33.9340	0	26.623	0	261.290	0	75.2	4	25.2	4	-1E+10	1	0.0516	4	0.000315	0	-1E+10	1	-1E+10	1	-1E+10	1
4902624	40	C	07/26/2025	09:33	-129.094	49.259	0	264.90	0	6.6909	0	33.9340	0	26.624	0	262.478	0	74.9	4	25.2	4	-1E+10	1	0.0606	4	0.000289	0	-1E+10	1	-1E+10	1	-1E+10	1
4902624	40	C	07/26/2025	09:33	-129.094	49.259	0	265.00	0	6.6900	0	33.9340	0	26.624	0	262.578	0	-1e10	1	-1e10	1	-1E+10	1	-1e10	1	-1e10	1	-1E+10	1	-1E+10	1	-1E+10	1
4902624	40	C	07/26/2025	09:33	-129.094	49.259	0	266.10	0	6.6834	0	33.9340	0	26.625	0	263.667	0	74.7	4	25.1	4	-1E+10	1	0.0448	4	0.000285	0	-1E+10	1	-1E+10	1	-1E+10	1
4902624	40	C	07/26/2025	09:33	-129.094	49.259	0	267.00	0	6.6780	0	33.9340	0	26.626	0	264.558	0	-1e10	1	-1e10	1	-1E+10	1	-1e10	1	-1e10	1	-1E+10	1	-1E+10	1	-1E+10	1
4902624	40	C	07/26/2025	09:33	-129.094	49.259	0	267.30	0	6.6757	0	33.9341	0	26.626	0	264.855	0	74.4	4	25.0	4	-1E+10	1	0.0511	4	0.000315	0	-1E+10	1	-1E+10	1	-1E+10	1
4902624	40	C	07/26/2025	09:33	-129.094	49.259	0	268.50	0	6.6667	0	33.9347	0	26.628	0	266.043	0	74.1	4	24.9	4	-1E+10	1	0.0569	4	0.000315	0	-1E+10	1	-1E+10	1	-1E+10	1
4902624	40	C	07/26/2025	09:33	-129.094	49.259	0	269.00	0	6.6630	0	33.9350	0	26.629	0	266.538	0	-1e10	1	-1e10	1	-1E+10	1	-1e10	1	-1e10	1	-1E+10	1	-1E+10	1	-1E+10	1
4902624	40	C	07/26/2025	09:33	-129.094	49.259	0	269.70	0	6.6536	0	33.9357	0	26.631	0	267.232	0	73.9	4	24.8	4	-1E+10	1	0.0529	4	0.000298	0	-1E+10	1	-1E+10	1	-1E+10	1
4902624	40	C	07/26/2025	09:33	-129.094	49.259	0	270.90	0	6.6374	0	33.9369	0	26.634	0	268.420	0	73.6	4	24.7	4	-1E+10	1	0.0511	4	0.000315	0	-1E+10	1	-1E+10	1	-1E+10	1
4902624	40	C	07/26/2025	09:33	-129.094	49.259	0	271.00	0	6.6360	0	33.9370	0	26.634	0	268.519	0	-1e10	1	-1e10	1	-1E+10	1	-1e10	1	-1e10	1	-1E+10	1	-1E+10	1	-1E+10	1
4902624	40	C	07/26/2025	09:33	-129.094	49.259	0	272.10	0	6.6223	0	33.9381	0	26.637	0	269.608	0	73.4	4	24.6	4	-1E+10	1	0.0511	4	0.000311	0	-1E+10	1	-1E+10	1	-1E+10	1
4902624	40	C	07/26/2025	09:33	-129.094	49.259	0	273.00	0	6.6110	0	33.9390	0	26.639	0	270.499	0	-1e10	1	-1e10	1	-1E+10	1	-1e10	1	-1e10	1	-1E+10	1	-1E+10	1	-1E+10	1
4902624	40	C	07/26/2025	09:33	-129.094	49.259	0	273.30	0	6.6084	0	33.9391	0	26.639	0	270.796	0	73.2	4	24.5	4	-1E+10	1	0.0511	4	0.000288	0	-1E+10	1	-1E+10	1	-1E+10	1
4902624	40	C	07/26/2025	09:33	-129.094	49.259	0	274.50	0	6.5982	0	33.9398	0	26.641	0	271.984	0	73.0	4	24.4	4	-1E+10	1	0.0535	4	0.000292	0	-1E+10	1	-1E+10	1	-1E+10	1
4902624	40	C	07/26/2025	09:33	-129.094	49.259	0	275.00	0	6.5940	0	33.9400	0	26.642	0	272.480	0	-1e10	1	-1e10	1	-1E+10	1	-1e10	1	-1e10	1	-1E+10	1	-1E+10	1	-1E+10	1
4902624	40	C	07/26/2025	09:33	-129.094	49.259	0	275.70	0	6.5877	0	33.9403	0	26.643	0	273.173	0	72.8	4	24.4	4	-1E+10	1	0.0574	4	0.000327	0	-1E+10	1	-1E+10	1	-1E+10	1
4902624	40	C	07/26/2025	09:33	-129.094	49.259	0	276.90	0	6.5769	0	33.9410	0	26.645	0	274.361	0	72.6	4	24.3	4	-1E+10	1	0.0511	4	0.000397	0	-1E+10	1	-1E+10	1	-1E+10	1
4902624	40	C	07/26/2025	09:33	-129.094	49.259	0	277.00	0	6.5760	0	33.9410	0	26.645	0	274.460	0	-1e10	1	-1e10	1	-1E+10	1	-1e10	1	-1e10	1	-1E+10	1	-1E+10	1	-1E+10	1
4902624	40	C	07/26/2025	09:33	-129.094	49.259	0	278.10	0	6.5671	0	33.9415	0	26.647	0	275.549	0	72.4	4	24.2	4	-1E+10	1	0.0438	4	0.000409	0	-1E+10	1	-1E+10	1	-1E+10	1
4902624	40	C	07/26/2025	09:33	-129.094	49.259	0	279.10	0	6.5590	0	33.9420	0	26.648	0	276.539	0	-1e10	1	-1e10	1	-1E+10	1	-1e10	1	-1e10	1	-1E+10	1	-1E+10	1	-1E+10	1
4902624	40	C	07/26/2025	09:33	-129.094	49.259	0	279.30	0	6.5573	0	33.9421	0	26.648	0	276.737	0	72.2	4	24.2	4	-1E+10	1	0.0501	4	0.000299	0	-1E+10	1	-1E+10	1	-1E+10	1
4902624	40	C	07/26/2025	09:33	-129.094	49.259	0	280.40	0	6.5481	0	33.9427	0	26.650	0	277.826	0	72.1	4	24.1	4	-1E+10	1	0.0460	4	0.000353	0	-1E+10	1	-1E+10	1	-1E+10	1
4902624	40	C	07/26/2025	09:33	-129.094	49.259	0	281.00	0	6.5430	0	33.9430	0	26.651	0	278.420	0	-1e10	1	-1e10	1	-1E+10	1	-1e10	1	-1e10	1	-1E+10	1	-1E+10	1	-1E+10	1
4902624	40	C	07/26/2025	09:33	-129.094	49.259	0	281.40	0	6.5420	0	33.9430	0	26.651	0	278.817	0	71.9	4	24.1	4	-1E+10	1	0.0438	4	0.000336	0	-1E+10	1	-1E+10	1	-1E+10	1
4902624	40	C	07/26/2025	09:33	-129.094	49.259	0	282.20	0	6.5400	0	33.9430	0	26.651	0	279.609	0	71.7	4	24.0	4	-1E+10	1	0.0470	4	0.000309	0	-1E+10	1	-1E+10	1	-1E+10	1
4902624	40	C	07/26/2025	09:33	-129.094	49.259	0	283.00	0	6.5380	0	33.9430	0	26.652	0	280.401	0	69.8	4	23.4	4	-1E+10	1	0.0489	4	0.000315	0	-1E+10	1	-1E+10	1	-1E+10	1
4902624	40	C	07/26/2025	09:33	-129.094	49.259	0	283.80	0	6.5344	0	33.9430	0	26.652	0	281.193	0	71.3	4	23.9	4	-1E+10	1	0.0448	4	0.000315	0	-1E+10	1	-1E+10	1	-1E+10	1
4902624	40	C	07/26/2025	09:33	-129.094	49.259	0	284.60	0	6.5308	0	33.9430	0	26.653	0	281.985	0	71.1	4	23.8	4	-1E+10	1	0.0540	4	0.000318	0	-1E+10	1	-1E+10	1	-1E+10	1
4902624	40	C	07/26/2025	09:33	-129.094	49.259	0	285.00	0	6.5290	0	33.9430	0	26.653	0	282.381	0	-1e10	1	-1e10	1	-1E+10	1	-1e10	1	-1e10	1	-1E+10	1	-1E+10	1	-1E+10	1
4902624	40	C	07/26/2025	09:33	-129.094	49.259	0	285.40	0	6.5230	0	33.9436	0	26.654	0	282.777	0	70.8	4	23.7	4	-1E+10	1	0.0657	4	0.000327	0	-1E+10	1	-1E+10	1	-1E+10	1
4902624	40	C	07/26/2025	09:33	-129.094	49.259	0	286.20	0	6.5110	0	33.9448	0	26.657	0	283.569	0	70.6	4	23.6	4	-1E+10	1	0.0592	4	0.000296	0	-1E+10	1	-1E+10	1	-1E+10	1
4902624	40	C	07/26/2025	09:33	-129.094	49.259	0	287.00	0	6.4990	0	33.9460	0	26.659	0	284.361	0	68.7	4	23.0	4	-1E+10	1	0.0456	4	0.000292	0	-1E+10	1	-1E+10	1	-1E+10	1
4902624	40	C	07/26/2025	09:33	-129.094	49.259	0	287.80	0	6.4926	0	33.9460	0	26.660	0	285.153	0	70.2	4	23.5	4	-1E+10	1	0.0438	4	0.000308	0	-1E+10	1	-1E+10	1	-1E+10	1
4902624	40	C	07/26/2025	09:33	-129.094	49.259	0	288.60	0	6.4862	0	33.9460	0	26.661	0	285.945	0	70.0	4	23.4	4	-1E+10	1	0.0474	4	0.000309	0	-1E+10	1	-1E+10	1	-1E+10	1
4902624	40	C	07/26/2025	09:33	-129.094	49.259	0	289.00	0	6.4830	0	33.9460	0	26.661	0	286.342	0	-1e10	1	-1e10	1	-1E+10	1	-1e10	1	-1e10	1	-1E+10	1	-1E+10	1	-1E+10	1
4902624	40	C	07/26/2025	09:33	-129.094	49.259	0	289.40	0	6.4770	0	33.9464	0	26.662	0	286.738	0	69.8	4	23.3	4	-1E+10	1	0.0484	4	0.000303	0	-1E+10	1	-1E+10	1	-1E+10	1
4902624	40	C	07/26/2025	09:33	-129.094	49.259	0	290.30	0	6.4635	0	33.9473	0	26.665	0	287.629	0	69.6	4	23.2	4	-1E+10	1	0.0526	4	0.000289	0	-1E+10	1	-1E+10	1	-1E+10	1
4902624	40	C	07/26/2025	09:33	-129.094	49.259	0	291.00	0	6.4530	0	33.9480	0	26.667	0	288.322	0	-1e10	1	-1e10	1	-1E+10	1	-1e10	1	-1e10	1	-1E+10	1	-1E+10	1	-1E+10	1
4902624	40	C	07/26/2025	09:33	-129.094	49.259	0	291.10	0	6.4513	0	33.9480	0	26.667	0	288.421	0	69.4	4	23.2	4	-1E+10	1	0.0642	4	0.000271	0	-1E+10	1	-1E+10	1	-1E+10	1
4902624	40	C	07/26/2025	09:33	-129.094	49.259	0	291.90	0	6.4374	0	33.9480	0	26.669	0	289.213	0	69.2	4	23.1	4	-1E+10	1	0.0584	4	0.000280	0	-1E+10	1	-1E+10	1	-1E+10	1
4902624	40	C	07/26/2025	09:33	-129.094	49.259	0	292.70	0	6.4235	0	33.9480	0	26.671	0	290.005	0	69.1	4	23.1	4	-1E+10	1	0.0438	4	0.000268	0	-1E+10	1	-1E+10	1	-1E+10	1
4902624	40	C	07/26/2025	09:33	-129.094	49.259	0	292.90	0	6.4200	0	33.9480	0	26.671	0	290.203	0	-1e10	1	-1e10	1	-1E+10	1	-1e10	1	-1e10	1	-1E+10	1	-1E+10	1	-1E+10	1
4902624	40	C	07/26/2025	09:33	-129.094	49.259	0	293.60	0	6.4147	0	33.9480	0	26.672	0	290.896	0	68.9	4	23.0	4	-1E+10	1	0.0372	4	0.000300	0	-1E+10	1	-1E+10	1	-1E+10	1
4902624	40	C	07/26/2025	09:33	-129.094	49.259	0	294.40	0	6.4086	0	33.9480	0	26.673	0	291.688	0	68.6	4	22.9	4	-1E+10	1	0.0458	4	0.000326	0	-1E+10	1	-1E+10	1	-1E+10	1
4902624	40	C	07/26/2025	09:33	-129.094	49.259	0	295.00	0	6.4040	0	33.9480	0	26.673	0	292.282	0	-1e10	1	-1e10	1	-1E+10	1	-1e10	1	-1e10	1	-1E+10	1	-1E+10	1	-1E+10	1
4902624	40	C	07/26/2025	09:33	-129.094	49.259	0	295.30	0	6.4014	0	33.9483	0	26.674	0	292.579	0	68.4	4	22.8	4	-1E+10	1	0.0465	4	0.000287	0	-1E+10	1	-1E+10	1	-1E+10	1
4902624	40	C	07/26/2025	09:33	-129.094	49.259	0	296.10	0	6.3946	0	33.9490	0	26.675	0	293.371	0	68.2	4	22.7	4	-1E+10	1	0.0474	4	0.000538	0	-1E+10	1	-1E+10	1	-1E+10	1
4902624	40	C	07/26/2025	09:33	-129.094	49.259	0	297.00	0	6.3869	0	33.9499	0	26.677	0	294.262	0	67.9	4	22.7	4	-1E+10	1	0.0511	4	0.000574	0	-1E+10	1	-1E+10	1	-1E+10	1
4902624	40	C	07/26/2025	09:33	-129.094	49.259	0	297.10	0	6.3860	0	33.9500	0	26.677	0	294.361	0	-1e10	1	-1e10	1	-1E+10	1	-1e10	1	-1e10	1	-1E+10	1	-1E+10	1	-1E+10	1
4902624	40	C	07/26/2025	09:33	-129.094	49.259	0	297.80	0	6.3731	0	33.9504	0	26.679	0	295.054	0	67.7	4	22.6	4	-1E+10	1	0.0484	4	0.000259	0	-1E+10	1	-1E+10	1	-1E+10	1
4902624	40	C	07/26/2025	09:33	-129.094	49.259	0	298.70	0	6.3565	0	33.9508	0	26.682	0	295.945	0	67.5	4	22.5	4	-1E+10	1	0.0438	4	0.000245	0	-1E+10	1	-1E+10	1	-1E+10	1
4902624	40	C	07/26/2025	09:33	-129.094	49.259	0	299.00	0	6.3510	0	33.9510	0	26.683	0	296.242	0	-1e10	1	-1e10	1	-1E+10	1	-1e10	1	-1e10	1	-1E+10	1	-1E+10	1	-1E+10	1
4902624	40	C	07/26/2025	09:33	-129.094	49.259	0	305.10	0	6.3070	0	33.9580	0	26.694	0	302.282	0	-1e10	1	-1e10	1	-1E+10	1	-1e10	1	-1e10	1	-1E+10	1	-1E+10	1	-1E+10	1
4902624	40	C	07/26/2025	09:33	-129.094	49.259	0	307.40	0	6.2932	0	33.9589	0	26.696	0	304.559	0	65.8	4	21.9	4	-1E+10	1	0.0438	4	0.000245	0	-1E+10	1	-1E+10	1	-1E+10	1
4902624	40	C	07/26/2025	09:33	-129.094	49.259	0	314.90	0	6.2480	0	33.9620	0	26.705	0	311.984	0	-1e10	1	-1e10	1	-1E+10	1	-1e10	1	-1e10	1	-1E+10	1	-1E+10	1	-1E+10	1
4902624	40	C	07/26/2025	09:33	-129.094	49.259	0	316.30	0	6.2390	0	33.9627	0	26.706	0	313.370	0	64.3	4	21.4	4	-1E+10	1	0.0444	4	0.000273	0	-1E+10	1	-1E+10	1	-1E+10	1
4902624	40	C	07/26/2025	09:33	-129.094	49.259	0	325.00	0	6.1830	0	33.9670	0	26.717	0	321.982	0	-1e10	1	-1e10	1	-1E+10	1	-1e10	1	-1e10	1	-1E+10	1	-1E+10	1	-1E+10	1
4902624	40	C	07/26/2025	09:33	-129.094	49.259	0	325.30	0	6.1802	0	33.9672	0	26.717	0	322.279	0	62.1	4	20.6	4	-1E+10	1	0.0578	4	0.000625	0	-1E+10	1	-1E+10	1	-1E+10	1
4902624	40	C	07/26/2025	09:33	-129.094	49.259	0	334.40	0	6.0937	0	33.9736	0	26.734	0	331.288	0	60.1	4	19.9	4	-1E+10	1	0.0440	4	0.000234	0	-1E+10	1	-1E+10	1	-1E+10	1
4902624	40	C	07/26/2025	09:33	-129.094	49.259	0	335.00	0	6.0880	0	33.9740	0	26.735	0	331.882	0	-1e10	1	-1e10	1	-1E+10	1	-1e10	1	-1e10	1	-1E+10	1	-1E+10	1	-1E+10	1
4902624	40	C	07/26/2025	09:33	-129.094	49.259	0	343.30	0	6.0287	0	33.9774	0	26.745	0	340.097	0	58.4	4	19.3	4	-1E+10	1	0.0504	4	0.000268	0	-1E+10	1	-1E+10	1	-1E+10	1
4902624	40	C	07/26/2025	09:33	-129.094	49.259	0	344.80	0	6.0180	0	33.9780	0	26.747	0	341.582	0	-1e10	1	-1e10	1	-1E+10	1	-1e10	1	-1e10	1	-1E+10	1	-1E+10	1	-1E+10	1
4902624	40	C	07/26/2025	09:33	-129.094	49.259	0	352.00	0	5.9502	0	33.9829	0	26.759	0	348.709	0	56.1	4	18.5	4	-1E+10	1	0.0375	4	0.000266	0	-1E+10	1	-1E+10	1	-1E+10	1
4902624	40	C	07/26/2025	09:33	-129.094	49.259	0	355.00	0	5.9220	0	33.9850	0	26.764	0	351.678	0	-1e10	1	-1e10	1	-1E+10	1	-1e10	1	-1e10	1	-1E+10	1	-1E+10	1	-1E+10	1
4902624	40	C	07/26/2025	09:33	-129.094	49.259	0	360.50	0	5.8799	0	33.9882	0	26.772	0	357.122	0	54.3	4	17.9	4	-1E+10	1	0.0579	4	0.000232	0	-1E+10	1	-1E+10	1	-1E+10	1
4902624	40	C	07/26/2025	09:33	-129.094	49.259	0	365.20	0	5.8440	0	33.9910	0	26.779	0	361.774	0	-1e10	1	-1e10	1	-1E+10	1	-1e10	1	-1e10	1	-1E+10	1	-1E+10	1	-1E+10	1
4902624	40	C	07/26/2025	09:33	-129.094	49.259	0	369.00	0	5.8145	0	33.9933	0	26.784	0	365.535	0	52.4	4	17.2	4	-1E+10	1	0.0438	4	0.000233	0	-1E+10	1	-1E+10	1	-1E+10	1
4902624	40	C	07/26/2025	09:33	-129.094	49.259	0	375.00	0	5.7680	0	33.9970	0	26.793	0	371.473	0	-1e10	1	-1e10	1	-1E+10	1	-1e10	1	-1e10	1	-1E+10	1	-1E+10	1	-1E+10	1
4902624	40	C	07/26/2025	09:33	-129.094	49.259	0	377.40	0	5.7471	0	33.9989	0	26.797	0	373.849	0	50.1	4	16.5	4	-1E+10	1	0.0441	4	0.000255	0	-1E+10	1	-1E+10	1	-1E+10	1
4902624	40	C	07/26/2025	09:33	-129.094	49.259	0	385.00	0	5.6810	0	34.0050	0	26.810	0	381.370	0	-1e10	1	-1e10	1	-1E+10	1	-1e10	1	-1e10	1	-1E+10	1	-1E+10	1	-1E+10	1
4902624	40	C	07/26/2025	09:33	-129.094	49.259	0	386.20	0	5.6701	0	34.0060	0	26.812	0	382.558	0	47.9	4	15.7	4	-1E+10	1	0.0511	4	0.000232	0	-1E+10	1	-1E+10	1	-1E+10	1
4902624	40	C	07/26/2025	09:33	-129.094	49.259	0	395.10	0	5.5890	0	34.0130	0	26.828	0	391.365	0	-1e10	1	-1e10	1	-1E+10	1	-1e10	1	-1e10	1	-1E+10	1	-1E+10	1	-1E+10	1
4902624	40	C	07/26/2025	09:33	-129.094	49.259	0	395.40	0	5.5868	0	34.0132	0	26.828	0	391.662	0	46.2	4	15.1	4	-1E+10	1	0.0511	4	0.000220	0	-1E+10	1	-1E+10	1	-1E+10	1
4902624	40	C	07/26/2025	09:33	-129.094	49.259	0	405.00	0	5.5150	0	34.0180	0	26.840	0	401.162	0	43.1	4	14.1	4	-1E+10	1	0.0514	4	0.000232	0	-1E+10	1	-1E+10	1	-1E+10	1
4902624	40	C	07/26/2025	09:33	-129.094	49.259	0	414.70	0	5.4670	0	34.0250	0	26.852	0	410.761	0	-1e10	1	-1e10	1	-1E+10	1	-1e10	1	-1e10	1	-1E+10	1	-1E+10	1	-1E+10	1
4902624	40	C	07/26/2025	09:33	-129.094	49.259	0	415.30	0	5.4640	0	34.0254	0	26.853	0	411.354	0	42.2	4	13.8	4	-1E+10	1	0.0581	4	0.000231	0	-1E+10	1	-1E+10	1	-1E+10	1
4902624	40	C	07/26/2025	09:33	-129.094	49.259	0	425.00	0	5.4160	0	34.0320	0	26.864	0	420.952	0	-1e10	1	-1e10	1	-1E+10	1	-1e10	1	-1e10	1	-1E+10	1	-1E+10	1	-1E+10	1
4902624	40	C	07/26/2025	09:33	-129.094	49.259	0	426.30	0	5.4103	0	34.0328	0	26.865	0	422.239	0	40.4	4	13.2	4	-1E+10	1	0.0511	4	0.000209	0	-1E+10	1	-1E+10	1	-1E+10	1
4902624	40	C	07/26/2025	09:33	-129.094	49.259	0	435.00	0	5.3720	0	34.0380	0	26.874	0	430.847	0	-1e10	1	-1e10	1	-1E+10	1	-1e10	1	-1e10	1	-1E+10	1	-1E+10	1	-1E+10	1
4902624	40	C	07/26/2025	09:33	-129.094	49.259	0	437.70	0	5.3564	0	34.0409	0	26.878	0	433.518	0	37.9	4	12.4	4	-1E+10	1	0.0513	4	0.000232	0	-1E+10	1	-1E+10	1	-1E+10	1
4902624	40	C	07/26/2025	09:33	-129.094	49.259	0	445.20	0	5.3130	0	34.0490	0	26.889	0	440.939	0	-1e10	1	-1e10	1	-1E+10	1	-1e10	1	-1e10	1	-1E+10	1	-1E+10	1	-1E+10	1
4902624	40	C	07/26/2025	09:33	-129.094	49.259	0	449.70	0	5.3035	0	34.0513	0	26.892	0	445.391	0	36.2	4	11.8	4	-1E+10	1	0.0581	4	0.000231	0	-1E+10	1	-1E+10	1	-1E+10	1
4902624	40	C	07/26/2025	09:33	-129.094	49.259	0	455.10	0	5.2920	0	34.0540	0	26.896	0	450.733	0	-1e10	1	-1e10	1	-1E+10	1	-1e10	1	-1e10	1	-1E+10	1	-1E+10	1	-1E+10	1
4902624	40	C	07/26/2025	09:33	-129.094	49.259	0	462.00	0	5.2704	0	34.0596	0	26.903	0	457.559	0	34.0	4	11.1	4	-1E+10	1	0.0514	4	0.000221	0	-1E+10	1	-1E+10	1	-1E+10	1
4902624	40	C	07/26/2025	09:33	-129.094	49.259	0	465.00	0	5.2610	0	34.0620	0	26.906	0	460.527	0	-1e10	1	-1e10	1	-1E+10	1	-1e10	1	-1e10	1	-1E+10	1	-1E+10	1	-1E+10	1
4902624	40	C	07/26/2025	09:33	-129.094	49.259	0	474.60	0	5.2068	0	34.0715	0	26.920	0	470.024	0	32.4	4	10.5	4	-1E+10	1	0.0584	4	0.000243	0	-1E+10	1	-1E+10	1	-1E+10	1
4902624	40	C	07/26/2025	09:33	-129.094	49.259	0	475.10	0	5.2040	0	34.0720	0	26.921	0	470.519	0	-1e10	1	-1e10	1	-1E+10	1	-1e10	1	-1e10	1	-1E+10	1	-1E+10	1	-1E+10	1
4902624	40	C	07/26/2025	09:33	-129.094	49.259	0	485.30	0	5.1840	0	34.0760	0	26.926	0	480.608	0	-1e10	1	-1e10	1	-1E+10	1	-1e10	1	-1e10	1	-1E+10	1	-1E+10	1	-1E+10	1
4902624	40	C	07/26/2025	09:33	-129.094	49.259	0	487.30	0	5.1803	0	34.0766	0	26.927	0	482.587	0	31.3	4	10.2	4	-1E+10	1	0.0581	4	0.000242	0	-1E+10	1	-1E+10	1	-1E+10	1
4902624	40	C	07/26/2025	09:33	-129.094	49.259	0	495.00	0	5.1660	0	34.0790	0	26.931	0	490.203	0	-1e10	1	-1e10	1	-1E+10	1	-1e10	1	-1e10	1	-1E+10	1	-1E+10	1	-1E+10	1
4902624	40	C	07/26/2025	09:33	-129.094	49.259	0	500.20	0	5.1478	0	34.0816	0	26.935	0	495.347	0	29.9	4	9.7	4	-1E+10	1	0.0520	4	0.000220	0	-1E+10	1	-1E+10	1	-1E+10	1
4902624	40	C	07/26/2025	09:33	-129.094	49.259	0	505.00	0	5.1310	0	34.0840	0	26.939	0	500.094	0	-1e10	1	-1e10	1	-1E+10	1	-1e10	1	-1e10	1	-1E+10	1	-1E+10	1	-1E+10	1
4902624	40	C	07/26/2025	09:33	-129.094	49.259	0	513.10	0	5.0909	0	34.0897	0	26.948	0	508.106	0	28.1	4	9.1	4	-1E+10	1	0.0719	4	0.000243	0	-1E+10	1	-1E+10	1	-1E+10	1
4902624	40	C	07/26/2025	09:33	-129.094	49.259	0	514.90	0	5.0820	0	34.0910	0	26.950	0	509.886	0	-1e10	1	-1e10	1	-1E+10	1	-1e10	1	-1e10	1	-1E+10	1	-1E+10	1	-1E+10	1
4902624	40	C	07/26/2025	09:33	-129.094	49.259	0	524.80	0	5.0330	0	34.0990	0	26.962	0	519.677	0	-1e10	1	-1e10	1	-1E+10	1	-1e10	1	-1e10	1	-1E+10	1	-1E+10	1	-1E+10	1
4902624	40	C	07/26/2025	09:33	-129.094	49.259	0	525.20	0	5.0319	0	34.0992	0	26.962	0	520.073	0	26.8	4	8.7	4	-1E+10	1	0.0511	4	0.000242	0	-1E+10	1	-1E+10	1	-1E+10	1
4902624	40	C	07/26/2025	09:33	-129.094	49.259	0	533.00	0	5.0107	0	34.1038	0	26.968	0	527.787	0	26.0	4	8.4	4	-1E+10	1	0.0511	4	0.000254	0	-1E+10	1	-1E+10	1	-1E+10	1
4902624	40	C	07/26/2025	09:33	-129.094	49.259	0	535.10	0	5.0050	0	34.1050	0	26.970	0	529.863	0	-1e10	1	-1e10	1	-1E+10	1	-1e10	1	-1e10	1	-1E+10	1	-1E+10	1	-1E+10	1
4902624	40	C	07/26/2025	09:33	-129.094	49.259	0	541.30	0	4.9937	0	34.1081	0	26.974	0	535.995	0	25.2	4	8.1	4	-1E+10	1	0.0511	4	0.000243	0	-1E+10	1	-1E+10	1	-1E+10	1
4902624	40	C	07/26/2025	09:33	-129.094	49.259	0	545.00	0	4.9870	0	34.1100	0	26.976	0	539.654	0	-1e10	1	-1e10	1	-1E+10	1	-1e10	1	-1e10	1	-1E+10	1	-1E+10	1	-1E+10	1
4902624	40	C	07/26/2025	09:33	-129.094	49.259	0	549.50	0	4.9692	0	34.1136	0	26.981	0	544.104	0	24.1	4	7.8	4	-1E+10	1	0.0516	4	0.000254	0	-1E+10	1	-1E+10	1	-1E+10	1
4902624	40	C	07/26/2025	09:33	-129.094	49.259	0	555.10	0	4.9470	0	34.1180	0	26.987	0	549.641	0	-1e10	1	-1e10	1	-1E+10	1	-1e10	1	-1e10	1	-1E+10	1	-1E+10	1	-1E+10	1
4902624	40	C	07/26/2025	09:33	-129.094	49.259	0	557.80	0	4.9427	0	34.1191	0	26.989	0	552.311	0	23.6	4	7.6	4	-1E+10	1	0.0652	4	0.000266	0	-1E+10	1	-1E+10	1	-1E+10	1
4902624	40	C	07/26/2025	09:33	-129.094	49.259	0	565.10	0	4.9310	0	34.1220	0	26.992	0	559.530	0	-1e10	1	-1e10	1	-1E+10	1	-1e10	1	-1e10	1	-1E+10	1	-1E+10	1	-1E+10	1
4902624	40	C	07/26/2025	09:33	-129.094	49.259	0	566.10	0	4.9255	0	34.1228	0	26.993	0	560.518	0	22.6	4	7.3	4	-1E+10	1	0.0506	4	0.000288	0	-1E+10	1	-1E+10	1	-1E+10	1
4902624	40	C	07/26/2025	09:33	-129.094	49.259	0	574.60	0	4.8792	0	34.1297	0	27.004	0	568.923	0	21.5	4	6.9	4	-1E+10	1	0.0375	4	0.000266	0	-1E+10	1	-1E+10	1	-1E+10	1
4902624	40	C	07/26/2025	09:33	-129.094	49.259	0	575.00	0	4.8770	0	34.1300	0	27.005	0	569.318	0	-1e10	1	-1e10	1	-1E+10	1	-1e10	1	-1e10	1	-1E+10	1	-1E+10	1	-1E+10	1
4902624	40	C	07/26/2025	09:33	-129.094	49.259	0	583.30	0	4.8426	0	34.1342	0	27.012	0	577.525	0	20.8	4	6.7	4	-1E+10	1	0.0581	4	0.000287	0	-1E+10	1	-1E+10	1	-1E+10	1
4902624	40	C	07/26/2025	09:33	-129.094	49.259	0	584.90	0	4.8360	0	34.1350	0	27.013	0	579.107	0	-1e10	1	-1e10	1	-1E+10	1	-1e10	1	-1e10	1	-1E+10	1	-1E+10	1	-1E+10	1
4902624	40	C	07/26/2025	09:33	-129.094	49.259	0	592.20	0	4.8050	0	34.1387	0	27.020	0	586.324	0	19.8	4	6.4	4	-1E+10	1	0.0516	4	0.000253	0	-1E+10	1	-1E+10	1	-1E+10	1
4902624	40	C	07/26/2025	09:33	-129.094	49.259	0	594.80	0	4.7940	0	34.1400	0	27.022	0	588.895	0	-1e10	1	-1e10	1	-1E+10	1	-1e10	1	-1e10	1	-1E+10	1	-1E+10	1	-1E+10	1
4902624	40	C	07/26/2025	09:33	-129.094	49.259	0	601.80	0	4.7569	0	34.1442	0	27.030	0	595.815	0	19.1	4	6.1	4	-1E+10	1	0.0654	4	0.000240	0	-1E+10	1	-1E+10	1	-1E+10	1
4902624	40	C	07/26/2025	09:33	-129.094	49.259	0	604.80	0	4.7410	0	34.1460	0	27.033	0	598.781	0	-1e10	1	-1e10	1	-1E+10	1	-1e10	1	-1e10	1	-1E+10	1	-1E+10	1	-1E+10	1
4902624	40	C	07/26/2025	09:33	-129.094	49.259	0	611.60	0	4.7255	0	34.1487	0	27.037	0	605.504	0	18.4	4	5.9	4	-1E+10	1	0.0581	4	0.000208	0	-1E+10	1	-1E+10	1	-1E+10	1
4902624	40	C	07/26/2025	09:33	-129.094	49.259	0	614.90	0	4.7180	0	34.1500	0	27.039	0	608.766	0	-1e10	1	-1e10	1	-1E+10	1	-1e10	1	-1e10	1	-1E+10	1	-1E+10	1	-1E+10	1
4902624	40	C	07/26/2025	09:33	-129.094	49.259	0	621.50	0	4.7015	0	34.1553	0	27.045	0	615.290	0	17.6	4	5.6	4	-1E+10	1	0.0508	4	0.000252	0	-1E+10	1	-1E+10	1	-1E+10	1
4902624	40	C	07/26/2025	09:33	-129.094	49.259	0	624.90	0	4.6930	0	34.1580	0	27.048	0	618.651	0	-1e10	1	-1e10	1	-1E+10	1	-1e10	1	-1e10	1	-1E+10	1	-1E+10	1	-1E+10	1
4902624	40	C	07/26/2025	09:33	-129.094	49.259	0	631.60	0	4.6756	0	34.1620	0	27.053	0	625.274	0	16.8	4	5.4	4	-1E+10	1	0.0444	4	0.000231	0	-1E+10	1	-1E+10	1	-1E+10	1
4902624	40	C	07/26/2025	09:33	-129.094	49.259	0	634.90	0	4.6670	0	34.1640	0	27.056	0	628.536	0	-1e10	1	-1e10	1	-1E+10	1	-1e10	1	-1e10	1	-1E+10	1	-1E+10	1	-1E+10	1
4902624	40	C	07/26/2025	09:33	-129.094	49.259	0	642.00	0	4.6542	0	34.1683	0	27.060	0	635.554	0	16.1	4	5.1	4	-1E+10	1	0.0581	4	0.000276	0	-1E+10	1	-1E+10	1	-1E+10	1
4902624	40	C	07/26/2025	09:33	-129.094	49.259	0	644.90	0	4.6490	0	34.1700	0	27.062	0	638.421	0	-1e10	1	-1e10	1	-1E+10	1	-1e10	1	-1e10	1	-1E+10	1	-1E+10	1	-1E+10	1
4902624	40	C	07/26/2025	09:33	-129.094	49.259	0	652.70	0	4.6238	0	34.1763	0	27.070	0	646.130	0	15.1	4	4.8	4	-1E+10	1	0.0514	4	0.000275	0	-1E+10	1	-1E+10	1	-1E+10	1
4902624	40	C	07/26/2025	09:33	-129.094	49.259	0	654.80	0	4.6170	0	34.1780	0	27.072	0	648.206	0	-1e10	1	-1e10	1	-1E+10	1	-1e10	1	-1e10	1	-1E+10	1	-1E+10	1	-1E+10	1
4902624	40	C	07/26/2025	09:33	-129.094	49.259	0	663.50	0	4.5886	0	34.1849	0	27.081	0	656.804	0	14.2	4	4.5	4	-1E+10	1	0.0581	4	0.000248	0	-1E+10	1	-1E+10	1	-1E+10	1
4902624	40	C	07/26/2025	09:33	-129.094	49.259	0	664.90	0	4.5840	0	34.1860	0	27.082	0	658.188	0	-1e10	1	-1e10	1	-1E+10	1	-1e10	1	-1e10	1	-1E+10	1	-1E+10	1	-1E+10	1
4902624	40	C	07/26/2025	09:33	-129.094	49.259	0	674.50	0	4.5559	0	34.1928	0	27.091	0	667.676	0	13.5	4	4.3	4	-1E+10	1	0.0514	4	0.000431	0	-1E+10	1	-1E+10	1	-1E+10	1
4902624	40	C	07/26/2025	09:33	-129.094	49.259	0	674.80	0	4.5550	0	34.1930	0	27.091	0	667.972	0	-1e10	1	-1e10	1	-1E+10	1	-1e10	1	-1e10	1	-1E+10	1	-1E+10	1	-1E+10	1
4902624	40	C	07/26/2025	09:33	-129.094	49.259	0	684.90	0	4.5380	0	34.1960	0	27.095	0	677.954	0	-1e10	1	-1e10	1	-1E+10	1	-1e10	1	-1e10	1	-1E+10	1	-1E+10	1	-1E+10	1
4902624	40	C	07/26/2025	09:33	-129.094	49.259	0	685.70	0	4.5347	0	34.1966	0	27.096	0	678.744	0	12.8	4	4.1	4	-1E+10	1	0.0584	4	0.000228	0	-1E+10	1	-1E+10	1	-1E+10	1
4902624	40	C	07/26/2025	09:33	-129.094	49.259	0	695.20	0	4.4960	0	34.2040	0	27.106	0	688.132	0	-1e10	1	-1e10	1	-1E+10	1	-1e10	1	-1e10	1	-1E+10	1	-1E+10	1	-1E+10	1
4902624	40	C	07/26/2025	09:33	-129.094	49.259	0	697.40	0	4.4901	0	34.2055	0	27.108	0	690.306	0	12.1	4	3.9	4	-1E+10	1	0.0584	4	0.000208	0	-1E+10	1	-1E+10	1	-1E+10	1
4902624	40	C	07/26/2025	09:33	-129.094	49.259	0	705.20	0	4.4690	0	34.2110	0	27.115	0	698.014	0	-1e10	1	-1e10	1	-1E+10	1	-1e10	1	-1e10	1	-1E+10	1	-1E+10	1	-1E+10	1
4902624	40	C	07/26/2025	09:33	-129.094	49.259	0	709.10	0	4.4651	0	34.2157	0	27.119	0	701.868	0	11.4	4	3.6	4	-1E+10	1	0.0581	4	0.000273	0	-1E+10	1	-1E+10	1	-1E+10	1
4902624	40	C	07/26/2025	09:33	-129.094	49.259	0	715.10	0	4.4590	0	34.2230	0	27.126	0	707.796	0	-1e10	1	-1e10	1	-1E+10	1	-1e10	1	-1e10	1	-1E+10	1	-1E+10	1	-1E+10	1
4902624	40	C	07/26/2025	09:33	-129.094	49.259	0	720.70	0	4.4472	0	34.2269	0	27.130	0	713.329	0	10.8	4	3.4	4	-1E+10	1	0.0517	4	0.000218	0	-1E+10	1	-1E+10	1	-1E+10	1
4902624	40	C	07/26/2025	09:33	-129.094	49.259	0	725.10	0	4.4380	0	34.2300	0	27.134	0	717.677	0	-1e10	1	-1e10	1	-1E+10	1	-1e10	1	-1e10	1	-1E+10	1	-1E+10	1	-1E+10	1
4902624	40	C	07/26/2025	09:33	-129.094	49.259	0	732.40	0	4.4199	0	34.2336	0	27.138	0	724.889	0	10.4	4	3.3	4	-1E+10	1	0.0657	4	0.000240	0	-1E+10	1	-1E+10	1	-1E+10	1
4902624	40	C	07/26/2025	09:33	-129.094	49.259	0	735.20	0	4.4130	0	34.2350	0	27.140	0	727.656	0	-1e10	1	-1e10	1	-1E+10	1	-1e10	1	-1e10	1	-1E+10	1	-1E+10	1	-1E+10	1
4902624	40	C	07/26/2025	09:33	-129.094	49.259	0	744.00	0	4.3747	0	34.2411	0	27.149	0	736.350	0	10.1	4	3.2	4	-1E+10	1	0.0654	4	0.000229	0	-1E+10	1	-1E+10	1	-1E+10	1
4902624	40	C	07/26/2025	09:33	-129.094	49.259	0	745.30	0	4.3690	0	34.2420	0	27.151	0	737.634	0	-1e10	1	-1e10	1	-1E+10	1	-1e10	1	-1e10	1	-1E+10	1	-1E+10	1	-1E+10	1
4902624	40	C	07/26/2025	09:33	-129.094	49.259	0	755.20	0	4.3390	0	34.2470	0	27.158	0	747.415	0	-1e10	1	-1e10	1	-1E+10	1	-1e10	1	-1e10	1	-1E+10	1	-1E+10	1	-1E+10	1
4902624	40	C	07/26/2025	09:33	-129.094	49.259	0	755.50	0	4.3375	0	34.2473	0	27.158	0	747.711	0	9.7	4	3.1	4	-1E+10	1	0.0587	4	0.000238	0	-1E+10	1	-1E+10	1	-1E+10	1
4902624	40	C	07/26/2025	09:33	-129.094	49.259	0	765.40	0	4.2870	0	34.2560	0	27.171	0	757.491	0	-1e10	1	-1e10	1	-1E+10	1	-1e10	1	-1e10	1	-1E+10	1	-1E+10	1	-1E+10	1
4902624	40	C	07/26/2025	09:33	-129.094	49.259	0	767.00	0	4.2801	0	34.2563	0	27.172	0	759.072	0	9.6	4	3.0	4	-1E+10	1	0.0655	4	0.000205	0	-1E+10	1	-1E+10	1	-1E+10	1
4902624	40	C	07/26/2025	09:33	-129.094	49.259	0	775.20	0	4.2450	0	34.2580	0	27.177	0	767.172	0	-1e10	1	-1e10	1	-1E+10	1	-1e10	1	-1e10	1	-1E+10	1	-1E+10	1	-1E+10	1
4902624	40	C	07/26/2025	09:33	-129.094	49.259	0	778.80	0	4.2223	0	34.2587	0	27.180	0	770.728	0	9.8	4	3.1	4	-1E+10	1	0.0584	4	0.000204	0	-1E+10	1	-1E+10	1	-1E+10	1
4902624	40	C	07/26/2025	09:33	-129.094	49.259	0	785.20	0	4.1820	0	34.2600	0	27.185	0	777.050	0	-1e10	1	-1e10	1	-1E+10	1	-1e10	1	-1e10	1	-1E+10	1	-1E+10	1	-1E+10	1
4902624	40	C	07/26/2025	09:33	-129.094	49.259	0	786.80	0	4.1761	0	34.2613	0	27.186	0	778.630	0	9.5	4	3.0	4	-1E+10	1	0.0581	4	0.000220	0	-1E+10	1	-1E+10	1	-1E+10	1
4902624	40	C	07/26/2025	09:33	-129.094	49.259	0	794.70	0	4.1469	0	34.2676	0	27.195	0	786.433	0	9.2	4	2.9	4	-1E+10	1	0.0514	4	0.000600	0	-1E+10	1	-1E+10	1	-1E+10	1
4902624	40	C	07/26/2025	09:33	-129.094	49.259	0	795.20	0	4.1450	0	34.2680	0	27.195	0	786.927	0	-1e10	1	-1e10	1	-1E+10	1	-1e10	1	-1e10	1	-1E+10	1	-1E+10	1	-1E+10	1
4902624	40	C	07/26/2025	09:33	-129.094	49.259	0	802.80	0	4.1256	0	34.2781	0	27.205	0	794.434	0	8.6	4	2.7	4	-1E+10	1	0.0584	4	0.000215	0	-1E+10	1	-1E+10	1	-1E+10	1
4902624	40	C	07/26/2025	09:33	-129.094	49.259	0	805.00	0	4.1200	0	34.2810	0	27.208	0	796.606	0	-1e10	1	-1e10	1	-1E+10	1	-1e10	1	-1e10	1	-1E+10	1	-1E+10	1	-1E+10	1
4902624	40	C	07/26/2025	09:33	-129.094	49.259	0	810.90	0	4.1100	0	34.2875	0	27.214	0	802.434	0	8.3	4	2.6	4	-1E+10	1	0.0584	4	0.000181	0	-1E+10	1	-1E+10	1	-1E+10	1
4902624	40	C	07/26/2025	09:33	-129.094	49.259	0	815.00	0	4.1030	0	34.2920	0	27.219	0	806.483	0	-1e10	1	-1e10	1	-1E+10	1	-1e10	1	-1e10	1	-1E+10	1	-1E+10	1	-1E+10	1
4902624	40	C	07/26/2025	09:33	-129.094	49.259	0	819.30	0	4.0921	0	34.2968	0	27.224	0	810.730	0	8.1	4	2.6	4	-1E+10	1	0.0587	4	0.000192	0	-1E+10	1	-1E+10	1	-1E+10	1
4902624	40	C	07/26/2025	09:33	-129.094	49.259	0	824.90	0	4.0780	0	34.3030	0	27.230	0	816.260	0	-1e10	1	-1e10	1	-1E+10	1	-1e10	1	-1e10	1	-1E+10	1	-1E+10	1	-1E+10	1
4902624	40	C	07/26/2025	09:33	-129.094	49.259	0	828.00	0	4.0611	0	34.3033	0	27.232	0	819.322	0	8.0	4	2.5	4	-1E+10	1	0.0654	4	0.000192	0	-1E+10	1	-1E+10	1	-1E+10	1
4902624	40	C	07/26/2025	09:33	-129.094	49.259	0	835.00	0	4.0230	0	34.3040	0	27.237	0	826.234	0	-1e10	1	-1e10	1	-1E+10	1	-1e10	1	-1e10	1	-1E+10	1	-1E+10	1	-1E+10	1
4902624	40	C	07/26/2025	09:33	-129.094	49.259	0	836.90	0	4.0195	0	34.3055	0	27.238	0	828.111	0	7.9	4	2.5	4	-1E+10	1	0.0584	4	0.000180	0	-1E+10	1	-1E+10	1	-1E+10	1
4902624	40	C	07/26/2025	09:33	-129.094	49.259	0	844.90	0	4.0050	0	34.3120	0	27.245	0	836.011	0	-1e10	1	-1e10	1	-1E+10	1	-1e10	1	-1e10	1	-1E+10	1	-1E+10	1	-1E+10	1
4902624	40	C	07/26/2025	09:33	-129.094	49.259	0	846.10	0	4.0041	0	34.3128	0	27.246	0	837.196	0	7.8	4	2.5	4	-1E+10	1	0.0582	4	0.000180	0	-1E+10	1	-1E+10	1	-1E+10	1
4902624	40	C	07/26/2025	09:33	-129.094	49.259	0	855.20	0	3.9970	0	34.3190	0	27.251	0	846.181	0	-1e10	1	-1e10	1	-1E+10	1	-1e10	1	-1e10	1	-1E+10	1	-1E+10	1	-1E+10	1
4902624	40	C	07/26/2025	09:33	-129.094	49.259	0	855.90	0	3.9947	0	34.3197	0	27.252	0	846.873	0	7.7	4	2.4	4	-1E+10	1	0.0511	4	0.000169	0	-1E+10	1	-1E+10	1	-1E+10	1
4902624	40	C	07/26/2025	09:33	-129.094	49.259	0	865.00	0	3.9650	0	34.3290	0	27.263	0	855.858	0	-1e10	1	-1e10	1	-1E+10	1	-1e10	1	-1e10	1	-1E+10	1	-1E+10	1	-1E+10	1
4902624	40	C	07/26/2025	09:33	-129.094	49.259	0	866.00	0	3.9640	0	34.3293	0	27.263	0	856.845	0	7.5	4	2.4	4	-1E+10	1	0.0511	4	0.000201	0	-1E+10	1	-1E+10	1	-1E+10	1
4902624	40	C	07/26/2025	09:33	-129.094	49.259	0	875.00	0	3.9550	0	34.3320	0	27.266	0	865.732	0	-1e10	1	-1e10	1	-1E+10	1	-1e10	1	-1e10	1	-1E+10	1	-1E+10	1	-1E+10	1
4902624	40	C	07/26/2025	09:33	-129.094	49.259	0	876.60	0	3.9530	0	34.3323	0	27.267	0	867.311	0	7.6	4	2.4	4	-1E+10	1	0.0514	4	0.000440	0	-1E+10	1	-1E+10	1	-1E+10	1
4902624	40	C	07/26/2025	09:33	-129.094	49.259	0	885.20	0	3.9420	0	34.3340	0	27.269	0	875.802	0	-1e10	1	-1e10	1	-1E+10	1	-1e10	1	-1e10	1	-1E+10	1	-1E+10	1	-1E+10	1
4902624	40	C	07/26/2025	09:33	-129.094	49.259	0	887.40	0	3.9328	0	34.3353	0	27.271	0	877.974	0	7.6	4	2.4	4	-1E+10	1	0.0584	4	0.000180	0	-1E+10	1	-1E+10	1	-1E+10	1
4902624	40	C	07/26/2025	09:33	-129.094	49.259	0	895.00	0	3.9010	0	34.3400	0	27.278	0	885.478	0	-1e10	1	-1e10	1	-1E+10	1	-1e10	1	-1e10	1	-1E+10	1	-1E+10	1	-1E+10	1
4902624	40	C	07/26/2025	09:33	-129.094	49.259	0	898.50	0	3.8918	0	34.3414	0	27.280	0	888.933	0	7.6	4	2.4	4	-1E+10	1	0.0584	4	0.000181	0	-1E+10	1	-1E+10	1	-1E+10	1
4902624	40	C	07/26/2025	09:33	-129.094	49.259	0	904.90	0	3.8750	0	34.3440	0	27.284	0	895.251	0	-1e10	1	-1e10	1	-1E+10	1	-1e10	1	-1e10	1	-1E+10	1	-1E+10	1	-1E+10	1
4902624	40	C	07/26/2025	09:33	-129.094	49.259	0	909.50	0	3.8543	0	34.3458	0	27.288	0	899.792	0	7.7	4	2.4	4	-1E+10	1	0.0581	4	0.000214	0	-1E+10	1	-1E+10	1	-1E+10	1
4902624	40	C	07/26/2025	09:33	-129.094	49.259	0	915.10	0	3.8290	0	34.3480	0	27.292	0	905.320	0	-1e10	1	-1e10	1	-1E+10	1	-1e10	1	-1e10	1	-1E+10	1	-1E+10	1	-1E+10	1
4902624	40	C	07/26/2025	09:33	-129.094	49.259	0	920.30	0	3.8091	0	34.3500	0	27.295	0	910.453	0	7.8	4	2.5	4	-1E+10	1	0.0516	4	0.000191	0	-1E+10	1	-1E+10	1	-1E+10	1
4902624	40	C	07/26/2025	09:33	-129.094	49.259	0	925.30	0	3.7900	0	34.3520	0	27.299	0	915.389	0	-1e10	1	-1e10	1	-1E+10	1	-1e10	1	-1e10	1	-1E+10	1	-1E+10	1	-1E+10	1
4902624	40	C	07/26/2025	09:33	-129.094	49.259	0	931.50	0	3.7794	0	34.3539	0	27.302	0	921.509	0	7.9	4	2.5	4	-1E+10	1	0.0647	4	0.000190	0	-1E+10	1	-1E+10	1	-1E+10	1
4902624	40	C	07/26/2025	09:33	-129.094	49.259	0	935.20	0	3.7730	0	34.3550	0	27.303	0	925.161	0	-1e10	1	-1e10	1	-1E+10	1	-1e10	1	-1e10	1	-1E+10	1	-1E+10	1	-1E+10	1
4902624	40	C	07/26/2025	09:33	-129.094	49.259	0	942.80	0	3.7650	0	34.3566	0	27.305	0	932.662	0	7.9	4	2.5	4	-1E+10	1	0.0438	4	0.000179	0	-1E+10	1	-1E+10	1	-1E+10	1
4902624	40	C	07/26/2025	09:33	-129.094	49.259	0	944.70	0	3.7630	0	34.3570	0	27.306	0	934.538	0	-1e10	1	-1e10	1	-1E+10	1	-1e10	1	-1e10	1	-1E+10	1	-1E+10	1	-1E+10	1
4902624	40	C	07/26/2025	09:33	-129.094	49.259	0	954.30	0	3.7270	0	34.3653	0	27.316	0	944.013	0	8.1	4	2.5	4	-1E+10	1	0.0444	4	0.000167	0	-1E+10	1	-1E+10	1	-1E+10	1
4902624	40	C	07/26/2025	09:33	-129.094	49.259	0	955.10	0	3.7240	0	34.3660	0	27.317	0	944.802	0	-1e10	1	-1e10	1	-1E+10	1	-1e10	1	-1e10	1	-1E+10	1	-1E+10	1	-1E+10	1
4902624	40	C	07/26/2025	09:33	-129.094	49.259	0	965.00	0	3.6990	0	34.3710	0	27.323	0	954.573	0	-1e10	1	-1e10	1	-1E+10	1	-1e10	1	-1e10	1	-1E+10	1	-1E+10	1	-1E+10	1
4902624	40	C	07/26/2025	09:33	-129.094	49.259	0	966.30	0	3.6970	0	34.3714	0	27.324	0	955.856	0	8.2	4	2.6	4	-1E+10	1	0.0584	4	0.000166	0	-1E+10	1	-1E+10	1	-1E+10	1
4902624	40	C	07/26/2025	09:33	-129.094	49.259	0	975.00	0	3.6840	0	34.3740	0	27.327	0	964.442	0	-1e10	1	-1e10	1	-1E+10	1	-1e10	1	-1e10	1	-1E+10	1	-1E+10	1	-1E+10	1
4902624	40	C	07/26/2025	09:33	-129.094	49.259	0	975.10	0	3.6837	0	34.3740	0	27.327	0	964.541	0	8.2	4	2.6	4	-1E+10	1	0.0581	4	0.000156	0	-1E+10	1	-1E+10	1	-1E+10	1
4902624	40	C	07/26/2025	09:33	-129.094	49.259	0	983.20	0	3.6616	0	34.3773	0	27.332	0	972.534	0	8.3	4	2.6	4	-1E+10	1	0.0515	4	0.000179	0	-1E+10	1	-1E+10	1	-1E+10	1
4902624	40	C	07/26/2025	09:33	-129.094	49.259	0	984.90	0	3.6570	0	34.3780	0	27.333	0	974.212	0	-1e10	1	-1e10	1	-1E+10	1	-1e10	1	-1e10	1	-1E+10	1	-1E+10	1	-1E+10	1
4902624	40	C	07/26/2025	09:33	-129.094	49.259	0	991.50	0	3.6445	0	34.3800	0	27.336	0	980.725	0	8.3	4	2.6	4	-1E+10	1	0.0584	4	0.000193	0	-1E+10	1	-1E+10	1	-1E+10	1
4902624	40	C	07/26/2025	09:33	-129.094	49.259	0	994.90	0	3.6380	0	34.3810	0	27.338	0	984.080	0	-1e10	1	-1e10	1	-1E+10	1	-1e10	1	-1e10	1	-1E+10	1	-1E+10	1	-1E+10	1
4902624	40	C	07/26/2025	09:33	-129.094	49.259	0	1003.20	0	3.6149	0	34.3847	0	27.343	0	992.270	0	8.5	4	2.7	4	-1E+10	1	0.0584	4	0.000261	0	-1E+10	1	-1E+10	1	-1E+10	1
4902624	40	C	07/26/2025	09:33	-129.094	49.259	0	1020.70	0	3.5660	0	34.3924	0	27.354	0	1009.537	0	8.8	4	2.8	4	-1E+10	1	0.0584	4	0.000293	0	-1E+10	1	-1E+10	1	-1E+10	1
4902624	40	C	07/26/2025	09:33	-129.094	49.259	0	1024.30	0	3.5560	0	34.3940	0	27.356	0	1013.089	0	-1e10	1	-1e10	1	-1E+10	1	-1e10	1	-1e10	1	-1E+10	1	-1E+10	1	-1E+10	1
4902624	40	C	07/26/2025	09:33	-129.094	49.259	0	1039.40	0	3.4881	0	34.3946	0	27.363	0	1027.987	0	15.4	4	4.8	4	-1E+10	1	0.0584	4	0.000166	0	-1E+10	1	-1E+10	1	-1E+10	1
4902624	40	C	07/26/2025	09:33	-129.094	49.259	0	1059.00	0	3.4000	0	34.3954	0	27.372	0	1047.323	0	35.0	4	10.9	4	-1E+10	1	0.0584	4	0.000166	0	-1E+10	1	-1E+10	1	-1E+10	1
4902624	40	C	07/26/2025	09:33	-129.094	49.259	0	1075.00	0	3.3280	0	34.3960	0	27.380	0	1063.106	0	-1e10	1	-1e10	1	-1E+10	1	-1e10	1	-1e10	1	-1E+10	1	-1E+10	1	-1E+10	1
4902624	40	C	07/26/2025	09:33	-129.094	49.259	0	1079.60	0	3.3178	0	34.3973	0	27.382	0	1067.643	0	58.2	4	18.1	4	-1E+10	1	0.0584	4	0.000166	0	-1E+10	1	-1E+10	1	-1E+10	1
4902624	40	C	07/26/2025	09:33	-129.094	49.259	0	1100.80	0	3.2708	0	34.4032	0	27.391	0	1088.554	0	35.9	4	11.1	4	-1E+10	1	0.0581	4	0.000188	0	-1E+10	1	-1E+10	1	-1E+10	1
4902624	40	C	07/26/2025	09:33	-129.094	49.259	0	1122.40	0	3.2230	0	34.4092	0	27.400	0	1109.856	0	38.6	4	12.0	4	-1E+10	1	0.0439	4	0.000119	0	-1E+10	1	-1E+10	1	-1E+10	1
4902624	40	C	07/26/2025	09:33	-129.094	49.259	0	1125.10	0	3.2170	0	34.4100	0	27.401	0	1112.519	0	-1e10	1	-1e10	1	-1E+10	1	-1e10	1	-1e10	1	-1E+10	1	-1E+10	1	-1E+10	1
4902624	40	C	07/26/2025	09:33	-129.094	49.259	0	1144.50	0	3.1830	0	34.4166	0	27.410	0	1131.650	0	46.8	4	14.5	4	-1E+10	1	0.0512	4	0.000164	0	-1E+10	1	-1E+10	1	-1E+10	1
4902624	40	C	07/26/2025	09:33	-129.094	49.259	0	1167.50	0	3.1427	0	34.4244	0	27.420	0	1154.328	0	52.6	4	16.3	4	-1E+10	1	0.0584	4	0.000144	0	-1E+10	1	-1E+10	1	-1E+10	1
4902624	40	C	07/26/2025	09:33	-129.094	49.259	0	1175.30	0	3.1290	0	34.4270	0	27.423	0	1162.019	0	-1e10	1	-1e10	1	-1E+10	1	-1e10	1	-1e10	1	-1E+10	1	-1E+10	1	-1E+10	1
4902624	40	C	07/26/2025	09:33	-129.094	49.259	0	1190.50	0	3.0999	0	34.4318	0	27.430	0	1177.004	0	58.6	4	18.1	4	-1E+10	1	0.0582	4	0.000267	0	-1E+10	1	-1E+10	1	-1E+10	1
4902624	40	C	07/26/2025	09:33	-129.094	49.259	0	1214.10	0	3.0548	0	34.4392	0	27.440	0	1200.270	0	62.3	4	19.3	4	-1E+10	1	0.0511	4	0.000118	0	-1E+10	1	-1E+10	1	-1E+10	1
4902624	40	C	07/26/2025	09:33	-129.094	49.259	0	1226.00	0	3.0320	0	34.4430	0	27.445	0	1212.000	0	-1e10	1	-1e10	1	-1E+10	1	-1e10	1	-1e10	1	-1E+10	1	-1E+10	1	-1E+10	1
4902624	40	C	07/26/2025	09:33	-129.094	49.259	0	1238.10	0	3.0054	0	34.4460	0	27.450	0	1223.926	0	63.0	4	19.4	4	-1E+10	1	0.0511	4	0.000152	0	-1E+10	1	-1E+10	1	-1E+10	1
4902624	40	C	07/26/2025	09:33	-129.094	49.259	0	1255.20	0	2.9678	0	34.4501	0	27.457	0	1240.780	0	68.0	4	21.0	4	-1E+10	1	0.0511	4	0.000174	0	-1E+10	1	-1E+10	1	-1E+10	1
4902624	40	C	07/26/2025	09:33	-129.094	49.259	0	1271.60	0	2.9317	0	34.4541	0	27.464	0	1256.943	0	72.0	4	22.2	4	-1E+10	1	0.0511	4	0.000140	0	-1E+10	1	-1E+10	1	-1E+10	1
4902624	40	C	07/26/2025	09:33	-129.094	49.259	0	1275.10	0	2.9240	0	34.4550	0	27.465	0	1260.392	0	-1e10	1	-1e10	1	-1E+10	1	-1e10	1	-1e10	1	-1E+10	1	-1E+10	1	-1E+10	1
4902624	40	C	07/26/2025	09:33	-129.094	49.259	0	1288.50	0	2.8873	0	34.4577	0	27.470	0	1273.597	0	64.1	4	19.7	4	-1E+10	1	0.0511	4	0.000139	0	-1E+10	1	-1E+10	1	-1E+10	1
4902624	40	C	07/26/2025	09:33	-129.094	49.259	0	1306.20	0	2.8388	0	34.4613	0	27.478	0	1291.038	0	62.0	4	19.1	4	-1E+10	1	0.0511	4	0.000116	0	-1E+10	1	-1E+10	1	-1E+10	1
4902624	40	C	07/26/2025	09:33	-129.094	49.259	0	1324.40	0	2.7890	0	34.4650	0	27.485	0	1308.970	0	-1e10	1	-1e10	1	-1E+10	1	-1e10	1	-1e10	1	-1E+10	1	-1E+10	1	-1E+10	1
4902624	40	C	07/26/2025	09:33	-129.094	49.259	0	1325.00	0	2.7882	0	34.4652	0	27.485	0	1309.561	0	57.6	4	17.7	4	-1E+10	1	0.0510	4	0.000116	0	-1E+10	1	-1E+10	1	-1E+10	1
4902624	40	C	07/26/2025	09:33	-129.094	49.259	0	1345.20	0	2.7605	0	34.4712	0	27.493	0	1329.462	0	68.2	4	20.9	4	-1E+10	1	0.0441	4	0.000126	0	-1E+10	1	-1E+10	1	-1E+10	1
4902624	40	C	07/26/2025	09:33	-129.094	49.259	0	1366.70	0	2.7310	0	34.4776	0	27.500	0	1350.642	0	71.3	4	21.9	4	-1E+10	1	0.0583	4	0.000103	0	-1E+10	1	-1E+10	1	-1E+10	1
4902624	40	C	07/26/2025	09:33	-129.094	49.259	0	1374.70	0	2.7200	0	34.4800	0	27.503	0	1358.522	0	-1e10	1	-1e10	1	-1E+10	1	-1e10	1	-1e10	1	-1E+10	1	-1E+10	1	-1E+10	1
4902624	40	C	07/26/2025	09:33	-129.094	49.259	0	1388.70	0	2.6927	0	34.4831	0	27.508	0	1372.312	0	72.6	4	22.3	4	-1E+10	1	0.0510	4	0.000115	0	-1E+10	1	-1E+10	1	-1E+10	1
4902624	40	C	07/26/2025	09:33	-129.094	49.259	0	1411.40	0	2.6484	0	34.4880	0	27.516	0	1394.669	0	76.5	4	23.4	4	-1E+10	1	0.0440	4	0.000126	0	-1E+10	1	-1E+10	1	-1E+10	1
4902624	40	C	07/26/2025	09:33	-129.094	49.259	0	1424.90	0	2.6220	0	34.4910	0	27.521	0	1407.964	0	-1e10	1	-1e10	1	-1E+10	1	-1e10	1	-1e10	1	-1E+10	1	-1E+10	1	-1E+10	1
4902624	40	C	07/26/2025	09:33	-129.094	49.259	0	1434.00	0	2.6085	0	34.4933	0	27.524	0	1416.925	0	69.0	4	21.1	4	-1E+10	1	0.0510	4	0.000126	0	-1E+10	1	-1E+10	1	-1E+10	1
4902624	40	C	07/26/2025	09:33	-129.094	49.259	0	1457.10	0	2.5742	0	34.4992	0	27.532	0	1439.672	0	69.9	4	21.4	4	-1E+10	1	0.0440	4	0.000114	0	-1E+10	1	-1E+10	1	-1E+10	1
4902624	40	C	07/26/2025	09:33	-129.094	49.259	0	1476.10	0	2.5460	0	34.5040	0	27.538	0	1458.379	0	-1e10	1	-1e10	1	-1E+10	1	-1e10	1	-1e10	1	-1E+10	1	-1E+10	1	-1E+10	1
4902624	40	C	07/26/2025	09:33	-129.094	49.259	0	1480.20	0	2.5390	0	34.5052	0	27.540	0	1462.415	0	73.6	4	22.5	4	-1E+10	1	0.0511	4	0.000114	0	-1E+10	1	-1E+10	1	-1E+10	1
4902624	40	C	07/26/2025	09:33	-129.094	49.259	0	1496.90	0	2.5104	0	34.5100	0	27.546	0	1478.856	0	74.0	4	22.6	4	-1E+10	1	0.0511	4	0.000125	0	-1E+10	1	-1E+10	1	-1E+10	1
4902624	40	C	07/26/2025	09:33	-129.094	49.259	0	1513.40	0	2.4822	0	34.5148	0	27.552	0	1495.099	0	78.2	4	23.9	4	-1E+10	1	0.0511	4	0.000113	0	-1E+10	1	-1E+10	1	-1E+10	1
4902624	40	C	07/26/2025	09:33	-129.094	49.259	0	1524.60	0	2.4630	0	34.5180	0	27.556	0	1506.124	0	-1e10	1	-1e10	1	-1E+10	1	-1e10	1	-1e10	1	-1E+10	1	-1E+10	1	-1E+10	1
4902624	40	C	07/26/2025	09:33	-129.094	49.259	0	1530.50	0	2.4523	0	34.5193	0	27.558	0	1511.931	0	80.7	4	24.6	4	-1E+10	1	0.0512	4	0.000101	0	-1E+10	1	-1E+10	1	-1E+10	1
4902624	40	C	07/26/2025	09:33	-129.094	49.259	0	1548.80	0	2.4192	0	34.5233	0	27.564	0	1529.943	0	83.3	4	25.4	4	-1E+10	1	0.0581	4	0.000113	0	-1E+10	1	-1E+10	1	-1E+10	1
4902624	40	C	07/26/2025	09:33	-129.094	49.259	0	1568.10	0	2.3843	0	34.5275	0	27.571	0	1548.937	0	86.0	4	26.2	4	-1E+10	1	0.0439	4	0.000124	0	-1E+10	1	-1E+10	1	-1E+10	1
4902624	40	C	07/26/2025	09:33	-129.094	49.259	0	1574.90	0	2.3720	0	34.5290	0	27.573	0	1555.629	0	-1e10	1	-1e10	1	-1E+10	1	-1e10	1	-1e10	1	-1E+10	1	-1E+10	1	-1E+10	1
4902624	40	C	07/26/2025	09:33	-129.094	49.259	0	1588.40	0	2.3514	0	34.5317	0	27.577	0	1568.914	0	89.1	4	27.1	4	-1E+10	1	0.0509	4	0.000146	0	-1E+10	1	-1E+10	1	-1E+10	1
4902624	40	C	07/26/2025	09:33	-129.094	49.259	0	1609.80	0	2.3188	0	34.5359	0	27.583	0	1589.971	0	94.6	4	28.7	4	-1E+10	1	0.0441	4	0.000124	0	-1E+10	1	-1E+10	1	-1E+10	1
4902624	40	C	07/26/2025	09:33	-129.094	49.259	0	1625.40	0	2.2950	0	34.5390	0	27.588	0	1605.320	0	-1e10	1	-1e10	1	-1E+10	1	-1e10	1	-1e10	1	-1E+10	1	-1E+10	1	-1E+10	1
4902624	40	C	07/26/2025	09:33	-129.094	49.259	0	1631.60	0	2.2897	0	34.5398	0	27.589	0	1611.420	0	96.9	4	29.4	4	-1E+10	1	0.0585	4	0.000146	0	-1E+10	1	-1E+10	1	-1E+10	1
4902624	40	C	07/26/2025	09:33	-129.094	49.259	0	1647.00	0	2.2766	0	34.5416	0	27.591	0	1626.570	0	97.8	4	29.7	4	-1E+10	1	0.0654	4	0.000145	0	-1E+10	1	-1E+10	1	-1E+10	1
4902624	40	C	07/26/2025	09:33	-129.094	49.259	0	1663.60	0	2.2624	0	34.5437	0	27.594	0	1642.900	0	100.9	4	30.6	4	-1E+10	1	0.0508	4	0.000099	0	-1E+10	1	-1E+10	1	-1E+10	1
4902624	40	C	07/26/2025	09:33	-129.094	49.259	0	1674.60	0	2.2530	0	34.5450	0	27.596	0	1653.720	0	-1e10	1	-1e10	1	-1E+10	1	-1e10	1	-1e10	1	-1E+10	1	-1E+10	1	-1E+10	1
4902624	40	C	07/26/2025	09:33	-129.094	49.259	0	1681.00	0	2.2464	0	34.5460	0	27.597	0	1660.016	0	102.5	4	31.1	4	-1E+10	1	0.0368	4	0.000134	0	-1E+10	1	-1E+10	1	-1E+10	1
4902624	40	C	07/26/2025	09:33	-129.094	49.259	0	1698.80	0	2.2280	0	34.5488	0	27.601	0	1677.523	0	106.4	4	32.3	4	-1E+10	1	0.0511	4	0.000122	0	-1E+10	1	-1E+10	1	-1E+10	1
4902624	40	C	07/26/2025	09:33	-129.094	49.259	0	1716.60	0	2.2096	0	34.5517	0	27.605	0	1695.029	0	108.6	4	32.9	4	-1E+10	1	0.0514	4	0.000110	0	-1E+10	1	-1E+10	1	-1E+10	1
4902624	40	C	07/26/2025	09:33	-129.094	49.259	0	1724.90	0	2.2010	0	34.5530	0	27.607	0	1703.191	0	-1e10	1	-1e10	1	-1E+10	1	-1e10	1	-1e10	1	-1E+10	1	-1E+10	1	-1E+10	1
4902624	40	C	07/26/2025	09:33	-129.094	49.259	0	1734.60	0	2.1898	0	34.5547	0	27.609	0	1712.730	0	110.7	4	33.5	4	-1E+10	1	0.0654	4	0.000121	0	-1E+10	1	-1E+10	1	-1E+10	1
4902624	40	C	07/26/2025	09:33	-129.094	49.259	0	1752.70	0	2.1688	0	34.5580	0	27.614	0	1730.528	0	112.7	4	34.1	4	-1E+10	1	0.0513	4	0.000109	0	-1E+10	1	-1E+10	1	-1E+10	1
4902624	40	C	07/26/2025	09:33	-129.094	49.259	0	1770.60	0	2.1481	0	34.5612	0	27.618	0	1748.128	0	114.7	4	34.7	4	-1E+10	1	0.0579	4	0.000120	0	-1E+10	1	-1E+10	1	-1E+10	1
4902624	40	C	07/26/2025	09:33	-129.094	49.259	0	1775.00	0	2.1430	0	34.5620	0	27.619	0	1752.454	0	-1e10	1	-1e10	1	-1E+10	1	-1e10	1	-1e10	1	-1E+10	1	-1E+10	1	-1E+10	1
4902624	40	C	07/26/2025	09:33	-129.094	49.259	0	1788.50	0	2.1262	0	34.5644	0	27.622	0	1765.727	0	116.3	4	35.2	4	-1E+10	1	0.0367	4	0.000109	0	-1E+10	1	-1E+10	1	-1E+10	1
4902624	40	C	07/26/2025	09:33	-129.094	49.259	0	1806.50	0	2.1037	0	34.5677	0	27.627	0	1783.422	0	118.7	4	35.9	4	-1E+10	1	0.0438	4	0.000121	0	-1E+10	1	-1E+10	1	-1E+10	1
4902624	40	C	07/26/2025	09:33	-129.094	49.259	0	1824.70	0	2.0810	0	34.5710	0	27.631	0	1801.312	0	119.5	4	36.1	4	-1E+10	1	0.0437	4	0.000143	0	-1E+10	1	-1E+10	1	-1E+10	1
4902624	40	C	07/26/2025	09:33	-129.094	49.259	0	1843.20	0	2.0611	0	34.5743	0	27.636	0	1819.496	0	123.3	4	37.2	4	-1E+10	1	0.0367	4	0.000154	0	-1E+10	1	-1E+10	1	-1E+10	1
4902624	40	C	07/26/2025	09:33	-129.094	49.259	0	1862.40	0	2.0404	0	34.5778	0	27.640	0	1838.366	0	125.3	4	37.8	4	-1E+10	1	0.0438	4	0.000143	0	-1E+10	1	-1E+10	1	-1E+10	1
4902624	40	C	07/26/2025	09:33	-129.094	49.259	0	1874.90	0	2.0270	0	34.5800	0	27.643	0	1850.650	0	-1e10	1	-1e10	1	-1E+10	1	-1e10	1	-1e10	1	-1E+10	1	-1E+10	1	-1E+10	1
4902624	40	C	07/26/2025	09:33	-129.094	49.259	0	1882.30	0	2.0225	0	34.5809	0	27.644	0	1857.922	0	127.1	4	38.4	4	-1E+10	1	0.0440	4	0.000143	0	-1E+10	1	-1E+10	1	-1E+10	1
4902624	40	C	07/26/2025	09:33	-129.094	49.259	0	1902.90	0	2.0098	0	34.5833	0	27.647	0	1878.165	0	129.1	4	38.9	4	-1E+10	1	0.0511	4	0.000153	0	-1E+10	1	-1E+10	1	-1E+10	1
4902624	40	C	07/26/2025	09:33	-129.094	49.259	0	1924.40	0	1.9966	0	34.5859	0	27.650	0	1899.289	0	131.3	4	39.6	4	-1E+10	1	0.0512	4	0.000142	0	-1E+10	1	-1E+10	1	-1E+10	1
4902624	40	C	07/26/2025	09:33	-129.094	49.259	0	1925.40	0	1.9960	0	34.5860	0	27.651	0	1900.272	0	-1e10	1	-1e10	1	-1E+10	1	-1e10	1	-1e10	1	-1E+10	1	-1E+10	1	-1E+10	1
4902624	40	C	07/26/2025	09:33	-129.094	49.259	0	1944.60	0	1.9850	0	34.5881	0	27.653	0	1919.135	0	135.1	4	40.7	4	-1E+10	1	0.0585	4	0.000153	0	-1E+10	1	-1E+10	1	-1E+10	1
4902624	40	C	07/26/2025	09:33	-129.094	49.259	0	1960.30	0	1.9760	0	34.5899	0	27.655	0	1934.558	0	140.0	4	42.2	4	-1E+10	1	0.0654	4	0.000153	0	-1E+10	1	-1E+10	1	-1E+10	1
4902624	40	C	07/26/2025	09:33	-129.094	49.259	0	1970.70	0	1.9700	0	34.5910	0	27.657	0	1944.774	0	-1e10	1	-1e10	1	-1E+10	1	-1e10	1	-1e10	1	-1E+10	1	-1E+10	1	-1E+10	1
4902624	40	C	07/26/2025	09:33	-129.094	49.259	0	1976.80	0	-1e10	1	-1e10	1	-1e10	1	1950.766	0	151.3	4	-1e10	4	-1E+10	1	0.0509	4	0.000154	0	-1E+10	1	-1E+10	1	-1E+10	1
4902624	40	C	07/26/2025	09:33	-129.094	49.259	0	1990.80	0	-1e10	1	-1e10	1	-1e10	1	1964.517	0	132.9	4	-1e10	4	-1E+10	1	0.0438	4	0.000177	0	-1E+10	1	-1E+10	1	-1E+10	1
4902624	40	C	07/26/2025	09:33	-129.094	49.259	0																										
4902624	42	C	08/15/2025	04:36	-129.334	48.977	0	0.30	0	16.7228	0	31.8945	0	23.197	0	0.297	0	230.2	4	94.0	4	-1E+10	1	0.3626	4	0.001178	0	-1E+10	1	-1E+10	1	-1E+10	1
4902624	42	C	08/15/2025	04:36	-129.334	48.977	0	0.40	0	16.7250	0	31.8980	0	23.199	0	0.397	0	-1e10	1	-1e10	1	-1E+10	1	-1e10	1	-1e10	1	-1E+10	1	-1E+10	1	-1E+10	1
4902624	42	C	08/15/2025	04:36	-129.334	48.977	0	0.70	0	16.7253	0	31.8988	0	23.200	0	0.694	0	229.7	4	93.8	4	-1E+10	1	0.3541	4	0.001193	0	-1E+10	1	-1E+10	1	-1E+10	1
4902624	42	C	08/15/2025	04:36	-129.334	48.977	0	1.00	0	16.7255	0	31.8996	0	23.201	0	0.992	0	-1e10	1	-1e10	1	-1E+10	1	0.3431	4	0.001211	0	-1E+10	1	-1E+10	1	-1E+10	1
4902624	42	C	08/15/2025	04:36	-129.334	48.977	0	1.10	0	16.7256	0	31.8999	0	23.201	0	1.091	0	-1e10	1	-1e10	1	-1E+10	1	0.3431	4	0.001258	0	-1E+10	1	-1E+10	1	-1E+10	1
4902624	42	C	08/15/2025	04:36	-129.334	48.977	0	1.30	0	16.7258	0	31.9005	0	23.201	0	1.289	0	-1e10	1	-1e10	1	-1E+10	1	0.3650	4	0.001164	0	-1E+10	1	-1E+10	1	-1E+10	1
4902624	42	C	08/15/2025	04:36	-129.334	48.977	0	1.40	0	16.7259	0	31.9007	0	23.201	0	1.388	0	-1e10	1	-1e10	1	-1E+10	1	0.3577	4	0.001246	0	-1E+10	1	-1E+10	1	-1E+10	1
4902624	42	C	08/15/2025	04:36	-129.334	48.977	0	1.50	0	16.7260	0	31.9010	0	23.202	0	1.487	0	-1e10	1	-1e10	1	-1E+10	1	0.3431	4	0.001188	0	-1E+10	1	-1E+10	1	-1E+10	1
4902624	42	C	08/15/2025	04:36	-129.334	48.977	0	1.70	0	16.7260	0	31.9010	0	23.202	0	1.686	0	-1e10	1	-1e10	1	-1E+10	1	0.3723	4	0.001176	0	-1E+10	1	-1E+10	1	-1E+10	1
4902624	42	C	08/15/2025	04:36	-129.334	48.977	0	1.80	0	16.7260	0	31.9010	0	23.202	0	1.785	0	-1e10	1	-1e10	1	-1E+10	1	0.3869	4	0.001293	0	-1E+10	1	-1E+10	1	-1E+10	1
4902624	42	C	08/15/2025	04:36	-129.334	48.977	0	2.10	0	16.7260	0	31.9010	0	23.202	0	2.082	0	229.5	4	93.7	4	-1E+10	1	0.3723	4	0.001235	0	-1E+10	1	-1E+10	1	-1E+10	1
4902624	42	C	08/15/2025	04:36	-129.334	48.977	0	2.30	0	16.7260	0	31.9010	0	23.202	0	2.280	0	-1e10	1	-1e10	1	-1E+10	1	0.3723	4	0.001328	0	-1E+10	1	-1E+10	1	-1E+10	1
4902624	42	C	08/15/2025	04:36	-129.334	48.977	0	2.40	0	16.7260	0	31.9010	0	23.202	0	2.380	0	-1e10	1	-1e10	1	-1E+10	1	0.3577	4	0.001270	0	-1E+10	1	-1E+10	1	-1E+10	1
4902624	42	C	08/15/2025	04:36	-129.334	48.977	0	2.60	0	16.7262	0	31.9010	0	23.202	0	2.578	0	-1e10	1	-1e10	1	-1E+10	1	0.3723	4	0.001305	0	-1E+10	1	-1E+10	1	-1E+10	1
4902624	42	C	08/15/2025	04:36	-129.334	48.977	0	2.80	0	16.7264	0	31.9010	0	23.201	0	2.776	0	229.4	4	93.7	4	-1E+10	1	0.3942	4	0.001199	0	-1E+10	1	-1E+10	1	-1E+10	1
4902624	42	C	08/15/2025	04:36	-129.334	48.977	0	2.90	0	16.7265	0	31.9010	0	23.201	0	2.875	0	-1e10	1	-1e10	1	-1E+10	1	0.3577	4	0.001223	0	-1E+10	1	-1E+10	1	-1E+10	1
4902624	42	C	08/15/2025	04:36	-129.334	48.977	0	3.10	0	16.7267	0	31.9010	0	23.201	0	3.074	0	-1e10	1	-1e10	1	-1E+10	1	0.3869	4	0.001188	0	-1E+10	1	-1E+10	1	-1E+10	1
4902624	42	C	08/15/2025	04:36	-129.334	48.977	0	3.20	0	16.7268	0	31.9010	0	23.201	0	3.173	0	-1e10	1	-1e10	1	-1E+10	1	0.3577	4	0.001281	0	-1E+10	1	-1E+10	1	-1E+10	1
4902624	42	C	08/15/2025	04:36	-129.334	48.977	0	3.40	0	16.7270	0	31.9010	0	23.201	0	3.371	0	-1e10	1	-1e10	1	-1E+10	1	-1e10	1	-1e10	1	-1E+10	1	-1E+10	1	-1E+10	1
4902624	42	C	08/15/2025	04:36	-129.334	48.977	0	3.50	0	16.7270	0	31.9011	0	23.201	0	3.470	0	229.5	4	93.8	4	-1E+10	1	0.4015	4	0.001188	0	-1E+10	1	-1E+10	1	-1E+10	1
4902624	42	C	08/15/2025	04:36	-129.334	48.977	0	3.70	0	16.7270	0	31.9013	0	23.202	0	3.669	0	-1e10	1	-1e10	1	-1E+10	1	0.3723	4	0.001211	0	-1E+10	1	-1E+10	1	-1E+10	1
4902624	42	C	08/15/2025	04:36	-129.334	48.977	0	3.80	0	16.7270	0	31.9014	0	23.202	0	3.768	0	-1e10	1	-1e10	1	-1E+10	1	0.3869	4	0.001246	0	-1E+10	1	-1E+10	1	-1E+10	1
4902624	42	C	08/15/2025	04:36	-129.334	48.977	0	4.00	0	16.7270	0	31.9015	0	23.202	0	3.966	0	-1e10	1	-1e10	1	-1E+10	1	0.3650	4	0.001199	0	-1E+10	1	-1E+10	1	-1E+10	1
4902624	42	C	08/15/2025	04:36	-129.334	48.977	0	4.10	0	16.7270	0	31.9016	0	23.202	0	4.065	0	-1e10	1	-1e10	1	-1E+10	1	0.3650	4	0.001305	0	-1E+10	1	-1E+10	1	-1E+10	1
4902624	42	C	08/15/2025	04:36	-129.334	48.977	0	4.30	0	16.7270	0	31.9018	0	23.202	0	4.263	0	229.4	4	93.7	4	-1E+10	1	0.3723	4	0.001340	0	-1E+10	1	-1E+10	1	-1E+10	1
4902624	42	C	08/15/2025	04:36	-129.334	48.977	0	4.50	0	16.7270	0	31.9020	0	23.202	0	4.462	0	-1e10	1	-1e10	1	-1E+10	1	0.3723	4	0.001317	0	-1E+10	1	-1E+10	1	-1E+10	1
4902624	42	C	08/15/2025	04:36	-129.334	48.977	0	4.80	0	16.7264	0	31.9023	0	23.203	0	4.759	0	-1e10	1	-1e10	1	-1E+10	1	0.3650	4	0.001270	0	-1E+10	1	-1E+10	1	-1E+10	1
4902624	42	C	08/15/2025	04:36	-129.334	48.977	0	4.90	0	16.7262	0	31.9024	0	23.203	0	4.858	0	-1e10	1	-1e10	1	-1E+10	1	0.3650	4	0.001234	0	-1E+10	1	-1E+10	1	-1E+10	1
4902624	42	C	08/15/2025	04:36	-129.334	48.977	0	5.20	0	16.7256	0	31.9027	0	23.203	0	5.156	0	229.4	4	93.7	4	-1E+10	1	0.4015	4	0.001317	0	-1E+10	1	-1E+10	1	-1E+10	1
4902624	42	C	08/15/2025	04:36	-129.334	48.977	0	5.30	0	16.7254	0	31.9028	0	23.203	0	5.255	0	-1e10	1	-1e10	1	-1E+10	1	0.3650	4	0.001258	0	-1E+10	1	-1E+10	1	-1E+10	1
4902624	42	C	08/15/2025	04:36	-129.334	48.977	0	5.50	0	16.7250	0	31.9030	0	23.203	0	5.453	0	-1e10	1	-1e10	1	-1E+10	1	0.3796	4	0.001281	0	-1E+10	1	-1E+10	1	-1E+10	1
4902624	42	C	08/15/2025	04:36	-129.334	48.977	0	5.70	0	16.7250	0	31.9032	0	23.204	0	5.652	0	-1e10	1	-1e10	1	-1E+10	1	0.3723	4	0.001258	0	-1E+10	1	-1E+10	1	-1E+10	1
4902624	42	C	08/15/2025	04:36	-129.334	48.977	0	5.80	0	16.7250	0	31.9033	0	23.204	0	5.751	0	-1e10	1	-1e10	1	-1E+10	1	0.3869	4	0.001270	0	-1E+10	1	-1E+10	1	-1E+10	1
4902624	42	C	08/15/2025	04:36	-129.334	48.977	0	6.00	0	16.7250	0	31.9036	0	23.204	0	5.949	0	229.4	4	93.7	4	-1E+10	1	0.3650	4	0.001199	0	-1E+10	1	-1E+10	1	-1E+10	1
4902624	42	C	08/15/2025	04:36	-129.334	48.977	0	6.30	0	16.7250	0	31.9039	0	23.204	0	6.246	0	-1e10	1	-1e10	1	-1E+10	1	0.3796	4	0.001270	0	-1E+10	1	-1E+10	1	-1E+10	1
4902624	42	C	08/15/2025	04:36	-129.334	48.977	0	6.40	0	16.7250	0	31.9040	0	23.204	0	6.346	0	-1e10	1	-1e10	1	-1E+10	1	-1e10	1	-1e10	1	-1E+10	1	-1E+10	1	-1E+10	1
4902624	42	C	08/15/2025	04:36	-129.334	48.977	0	6.50	0	16.7249	0	31.9041	0	23.204	0	6.445	0	-1e10	1	-1e10	1	-1E+10	1	0.3796	4	0.001246	0	-1E+10	1	-1E+10	1	-1E+10	1
4902624	42	C	08/15/2025	04:36	-129.334	48.977	0	6.70	0	16.7247	0	31.9043	0	23.205	0	6.643	0	-1e10	1	-1e10	1	-1E+10	1	0.3796	4	0.001199	0	-1E+10	1	-1E+10	1	-1E+10	1
4902624	42	C	08/15/2025	04:36	-129.334	48.977	0	6.90	0	16.7245	0	31.9045	0	23.205	0	6.841	0	229.4	4	93.7	4	-1E+10	1	0.3431	4	0.001246	0	-1E+10	1	-1E+10	1	-1E+10	1
4902624	42	C	08/15/2025	04:36	-129.334	48.977	0	7.10	0	16.7243	0	31.9047	0	23.205	0	7.040	0	-1e10	1	-1e10	1	-1E+10	1	0.3650	4	0.001246	0	-1E+10	1	-1E+10	1	-1E+10	1
4902624	42	C	08/15/2025	04:36	-129.334	48.977	0	7.20	0	16.7242	0	31.9048	0	23.205	0	7.139	0	-1e10	1	-1e10	1	-1E+10	1	0.3723	4	0.001410	0	-1E+10	1	-1E+10	1	-1E+10	1
4902624	42	C	08/15/2025	04:36	-129.334	48.977	0	7.40	0	16.7240	0	31.9050	0	23.205	0	7.337	0	-1e10	1	-1e10	1	-1E+10	1	0.3869	4	0.001246	0	-1E+10	1	-1E+10	1	-1E+10	1
4902624	42	C	08/15/2025	04:36	-129.334	48.977	0	7.80	0	16.7233	0	31.9054	0	23.206	0	7.734	0	229.4	4	93.7	4	-1E+10	1	0.3869	4	0.001305	0	-1E+10	1	-1E+10	1	-1E+10	1
4902624	42	C	08/15/2025	04:36	-129.334	48.977	0	8.00	0	16.7229	0	31.9055	0	23.206	0	7.932	0	-1e10	1	-1e10	1	-1E+10	1	0.3796	4	0.001199	0	-1E+10	1	-1E+10	1	-1E+10	1
4902624	42	C	08/15/2025	04:36	-129.334	48.977	0	8.20	0	16.7225	0	31.9057	0	23.206	0	8.130	0	-1e10	1	-1e10	1	-1E+10	1	0.3650	4	0.001246	0	-1E+10	1	-1E+10	1	-1E+10	1
4902624	42	C	08/15/2025	04:36	-129.334	48.977	0	8.40	0	16.7222	0	31.9059	0	23.206	0	8.329	0	-1e10	1	-1e10	1	-1E+10	1	0.3869	4	0.001317	0	-1E+10	1	-1E+10	1	-1E+10	1
4902624	42	C	08/15/2025	04:36	-129.334	48.977	0	8.50	0	16.7220	0	31.9060	0	23.207	0	8.428	0	-1e10	1	-1e10	1	-1E+10	1	-1e10	1	-1e10	1	-1E+10	1	-1E+10	1	-1E+10	1
4902624	42	C	08/15/2025	04:36	-129.334	48.977	0	8.60	0	16.7219	0	31.9061	0	23.207	0	8.527	0	-1e10	1	-1e10	1	-1E+10	1	0.3650	4	0.001293	0	-1E+10	1	-1E+10	1	-1E+10	1
4902624	42	C	08/15/2025	04:36	-129.334	48.977	0	8.80	0	16.7217	0	31.9063	0	23.207	0	8.725	0	229.4	4	93.7	4	-1E+10	1	0.4015	4	0.001188	0	-1E+10	1	-1E+10	1	-1E+10	1
4902624	42	C	08/15/2025	04:36	-129.334	48.977	0	9.00	0	16.7215	0	31.9065	0	23.207	0	8.923	0	-1e10	1	-1e10	1	-1E+10	1	0.3577	4	0.001234	0	-1E+10	1	-1E+10	1	-1E+10	1
4902624	42	C	08/15/2025	04:36	-129.334	48.977	0	9.20	0	16.7214	0	31.9066	0	23.207	0	9.122	0	-1e10	1	-1e10	1	-1E+10	1	0.3796	4	0.001258	0	-1E+10	1	-1E+10	1	-1E+10	1
4902624	42	C	08/15/2025	04:36	-129.334	48.977	0	9.60	0	16.7210	0	31.9070	0	23.208	0	9.518	0	-1e10	1	-1e10	1	-1E+10	1	0.3723	4	0.001223	0	-1E+10	1	-1E+10	1	-1E+10	1
4902624	42	C	08/15/2025	04:36	-129.334	48.977	0	9.80	0	16.7201	0	31.9079	0	23.208	0	9.717	0	229.4	4	93.7	4	-1E+10	1	0.3796	4	0.001903	0	-1E+10	1	-1E+10	1	-1E+10	1
4902624	42	C	08/15/2025	04:36	-129.334	48.977	0	10.80	0	16.7159	0	31.9121	0	23.213	0	10.708	0	229.5	4	93.7	4	-1E+10	1	0.3784	4	0.001244	0	-1E+10	1	-1E+10	1	-1E+10	1
4902624	42	C	08/15/2025	04:36	-129.334	48.977	0	11.00	0	16.7150	0	31.9130	0	23.214	0	10.906	0	-1e10	1	-1e10	1	-1E+10	1	-1e10	1	-1e10	1	-1E+10	1	-1E+10	1	-1E+10	1
4902624	42	C	08/15/2025	04:36	-129.334	48.977	0	11.80	0	16.7106	0	31.9162	0	23.217	0	11.700	0	229.5	4	93.8	4	-1E+10	1	0.4453	4	0.001176	0	-1E+10	1	-1E+10	1	-1E+10	1
4902624	42	C	08/15/2025	04:36	-129.334	48.977	0	12.80	0	16.7051	0	31.9202	0	23.221	0	12.691	0	229.6	4	93.8	4	-1E+10	1	0.4636	4	0.001264	0	-1E+10	1	-1E+10	1	-1E+10	1
4902624	42	C	08/15/2025	04:36	-129.334	48.977	0	13.00	0	16.7040	0	31.9210	0	23.222	0	12.889	0	-1e10	1	-1e10	1	-1E+10	1	-1e10	1	-1e10	1	-1E+10	1	-1E+10	1	-1E+10	1
4902624	42	C	08/15/2025	04:36	-129.334	48.977	0	13.90	0	16.7017	0	31.9214	0	23.223	0	13.782	0	229.7	4	93.8	4	-1E+10	1	0.4672	4	0.001253	0	-1E+10	1	-1E+10	1	-1E+10	1
4902624	42	C	08/15/2025	04:36	-129.334	48.977	0	15.00	0	16.6990	0	31.9220	0	23.224	0	14.872	0	229.8	4	93.8	4	-1E+10	1	0.4773	4	0.001230	0	-1E+10	1	-1E+10	1	-1E+10	1
4902624	42	C	08/15/2025	04:36	-129.334	48.977	0	16.10	0	16.6978	0	31.9226	0	23.225	0	15.963	0	229.9	4	93.9	4	-1E+10	1	0.5172	4	0.001513	0	-1E+10	1	-1E+10	1	-1E+10	1
4902624	42	C	08/15/2025	04:36	-129.334	48.977	0	16.90	0	16.6970	0	31.9230	0	23.226	0	16.756	0	-1e10	1	-1e10	1	-1E+10	1	-1e10	1	-1e10	1	-1E+10	1	-1E+10	1	-1E+10	1
4902624	42	C	08/15/2025	04:36	-129.334	48.977	0	17.20	0	16.6969	0	31.9230	0	23.226	0	17.053	0	229.9	4	93.9	4	-1E+10	1	0.5409	4	0.001464	0	-1E+10	1	-1E+10	1	-1E+10	1
4902624	42	C	08/15/2025	04:36	-129.334	48.977	0	18.20	0	16.6964	0	31.9230	0	23.226	0	18.045	0	230.1	4	94.0	4	-1E+10	1	0.5329	4	0.001134	0	-1E+10	1	-1E+10	1	-1E+10	1
4902624	42	C	08/15/2025	04:36	-129.334	48.977	0	19.00	0	16.6960	0	31.9230	0	23.226	0	18.838	0	-1e10	1	-1e10	1	-1E+10	1	-1e10	1	-1e10	1	-1E+10	1	-1E+10	1	-1E+10	1
4902624	42	C	08/15/2025	04:36	-129.334	48.977	0	19.30	0	16.6958	0	31.9230	0	23.226	0	19.135	0	230.5	4	94.1	4	-1E+10	1	0.5387	4	0.001223	0	-1E+10	1	-1E+10	1	-1E+10	1
4902624	42	C	08/15/2025	04:36	-129.334	48.977	0	20.30	0	16.6953	0	31.9230	0	23.226	0	20.127	0	230.8	4	94.3	4	-1E+10	1	0.5650	4	0.001316	0	-1E+10	1	-1E+10	1	-1E+10	1
4902624	42	C	08/15/2025	04:36	-129.334	48.977	0	20.90	0	16.6950	0	31.9230	0	23.226	0	20.722	0	-1e10	1	-1e10	1	-1E+10	1	-1e10	1	-1e10	1	-1E+10	1	-1E+10	1	-1E+10	1
4902624	42	C	08/15/2025	04:36	-129.334	48.977	0	21.30	0	16.6938	0	31.9226	0	23.226	0	21.118	0	231.2	4	94.4	4	-1E+10	1	0.5860	4	0.001316	0	-1E+10	1	-1E+10	1	-1E+10	1
4902624	42	C	08/15/2025	04:36	-129.334	48.977	0	22.20	0	16.6911	0	31.9217	0	23.226	0	22.011	0	231.8	4	94.7	4	-1E+10	1	0.6278	4	0.001316	0	-1E+10	1	-1E+10	1	-1E+10	1
4902624	42	C	08/15/2025	04:36	-129.334	48.977	0	22.90	0	16.6890	0	31.9210	0	23.226	0	22.705	0	-1e10	1	-1e10	1	-1E+10	1	-1e10	1	-1e10	1	-1E+10	1	-1E+10	1	-1E+10	1
4902624	42	C	08/15/2025	04:36	-129.334	48.977	0	23.30	0	16.6694	0	31.9206	0	23.230	0	23.101	0	232.6	4	94.9	4	-1E+10	1	0.6059	4	0.001293	0	-1E+10	1	-1E+10	1	-1E+10	1
4902624	42	C	08/15/2025	04:36	-129.334	48.977	0	24.10	0	16.6302	0	31.9198	0	23.239	0	23.894	0	233.4	4	95.2	4	-1E+10	1	0.5735	4	0.001460	0	-1E+10	1	-1E+10	1	-1E+10	1
4902624	42	C	08/15/2025	04:36	-129.334	48.977	0	24.90	0	16.5910	0	31.9190	0	23.247	0	24.687	0	234.8	4	95.7	4	-1E+10	1	0.5926	4	0.001421	0	-1E+10	1	-1E+10	1	-1E+10	1
4902624	42	C	08/15/2025	04:36	-129.334	48.977	0	25.80	0	16.4857	0	31.9159	0	23.269	0	25.580	0	236.1	4	96.0	4	-1E+10	1	0.6132	4	0.001416	0	-1E+10	1	-1E+10	1	-1E+10	1
4902624	42	C	08/15/2025	04:36	-129.334	48.977	0	26.60	0	16.3921	0	31.9131	0	23.288	0	26.373	0	237.7	4	96.5	4	-1E+10	1	0.6342	4	0.001459	0	-1E+10	1	-1E+10	1	-1E+10	1
4902624	42	C	08/15/2025	04:36	-129.334	48.977	0	26.90	0	16.3570	0	31.9120	0	23.295	0	26.670	0	-1e10	1	-1e10	1	-1E+10	1	-1e10	1	-1e10	1	-1E+10	1	-1E+10	1	-1E+10	1
4902624	42	C	08/15/2025	04:36	-129.334	48.977	0	27.40	0	16.0875	0	31.9199	0	23.362	0	27.166	0	240.2	4	96.9	4	-1E+10	1	0.6959	4	0.001535	0	-1E+10	1	-1E+10	1	-1E+10	1
4902624	42	C	08/15/2025	04:36	-129.334	48.977	0	28.20	0	15.6562	0	31.9324	0	23.467	0	27.959	0	242.1	4	96.9	4	-1E+10	1	0.8395	4	0.001739	0	-1E+10	1	-1E+10	1	-1E+10	1
4902624	42	C	08/15/2025	04:36	-129.334	48.977	0	28.80	0	15.3328	0	31.9419	0	23.545	0	28.554	0	243.3	4	96.8	4	-1E+10	1	1.0366	4	0.002020	0	-1E+10	1	-1E+10	1	-1E+10	1
4902624	42	C	08/15/2025	04:36	-129.334	48.977	0	29.00	0	15.2250	0	31.9450	0	23.571	0	28.752	0	-1e10	1	-1e10	1	-1E+10	1	-1e10	1	-1e10	1	-1E+10	1	-1E+10	1	-1E+10	1
4902624	42	C	08/15/2025	04:36	-129.334	48.977	0	29.30	0	15.1267	0	31.9473	0	23.594	0	29.049	0	244.1	4	96.7	4	-1E+10	1	1.1534	4	0.002044	0	-1E+10	1	-1E+10	1	-1E+10	1
4902624	42	C	08/15/2025	04:36	-129.334	48.977	0	29.70	0	14.9958	0	31.9502	0	23.625	0	29.446	0	244.9	4	96.8	4	-1E+10	1	1.1534	4	0.001931	0	-1E+10	1	-1E+10	1	-1E+10	1
4902624	42	C	08/15/2025	04:36	-129.334	48.977	0	30.20	0	14.8320	0	31.9540	0	23.662	0	29.942	0	245.4	4	96.6	4	-1E+10	1	1.1437	4	0.002036	0	-1E+10	1	-1E+10	1	-1E+10	1
4902624	42	C	08/15/2025	04:36	-129.334	48.977	0	30.80	0	14.6355	0	31.9585	0	23.707	0	30.537	0	246.5	4	96.7	4	-1E+10	1	1.0755	4	0.002195	0	-1E+10	1	-1E+10	1	-1E+10	1
4902624	42	C	08/15/2025	04:36	-129.334	48.977	0	31.00	0	14.5700	0	31.9600	0	23.722	0	30.735	0	-1e10	1	-1e10	1	-1E+10	1	-1e10	1	-1e10	1	-1E+10	1	-1E+10	1	-1E+10	1
4902624	42	C	08/15/2025	04:36	-129.334	48.977	0	31.40	0	14.4146	0	31.9634	0	23.758	0	31.131	0	246.8	4	96.4	4	-1E+10	1	1.0914	4	0.002330	0	-1E+10	1	-1E+10	1	-1E+10	1
4902624	42	C	08/15/2025	04:36	-129.334	48.977	0	32.10	0	14.1426	0	31.9694	0	23.819	0	31.825	0	247.8	4	96.3	4	-1E+10	1	1.1580	4	0.003000	0	-1E+10	1	-1E+10	1	-1E+10	1
4902624	42	C	08/15/2025	04:36	-129.334	48.977	0	32.70	0	13.9094	0	31.9746	0	23.870	0	32.420	0	248.5	4	96.1	4	-1E+10	1	1.2431	4	0.003812	0	-1E+10	1	-1E+10	1	-1E+10	1
4902624	42	C	08/15/2025	04:36	-129.334	48.977	0	33.10	0	13.7540	0	31.9780	0	23.904	0	32.817	0	-1e10	1	-1e10	1	-1E+10	1	-1e10	1	-1e10	1	-1E+10	1	-1E+10	1	-1E+10	1
4902624	42	C	08/15/2025	04:36	-129.334	48.977	0	33.40	0	13.6592	0	31.9828	0	23.927	0	33.114	0	248.4	4	95.6	4	-1E+10	1	1.6726	4	0.002885	0	-1E+10	1	-1E+10	1	-1E+10	1
4902624	42	C	08/15/2025	04:36	-129.334	48.977	0	34.10	0	13.4380	0	31.9940	0	23.980	0	33.808	0	247.8	4	94.9	4	-1E+10	1	2.4455	4	0.002947	0	-1E+10	1	-1E+10	1	-1E+10	1
4902624	42	C	08/15/2025	04:36	-129.334	48.977	0	34.80	0	13.2168	0	32.0052	0	24.033	0	34.502	0	246.8	4	94.1	4	-1E+10	1	2.8997	4	0.002874	0	-1E+10	1	-1E+10	1	-1E+10	1
4902624	42	C	08/15/2025	04:36	-129.334	48.977	0	35.10	0	13.1220	0	32.0100	0	24.055	0	34.799	0	-1e10	1	-1e10	1	-1E+10	1	-1e10	1	-1e10	1	-1E+10	1	-1E+10	1	-1E+10	1
4902624	42	C	08/15/2025	04:36	-129.334	48.977	0	35.50	0	13.0664	0	32.0117	0	24.067	0	35.196	0	245.7	4	93.4	4	-1E+10	1	3.2120	4	0.002954	0	-1E+10	1	-1E+10	1	-1E+10	1
4902624	42	C	08/15/2025	04:36	-129.334	48.977	0	36.20	0	12.9692	0	32.0146	0	24.089	0	35.890	0	244.4	4	92.7	4	-1E+10	1	3.5542	4	0.002891	0	-1E+10	1	-1E+10	1	-1E+10	1
4902624	42	C	08/15/2025	04:36	-129.334	48.977	0	37.00	0	12.8580	0	32.0180	0	24.113	0	36.683	0	240.9	4	91.2	4	-1E+10	1	3.7048	4	0.002812	0	-1E+10	1	-1E+10	1	-1E+10	1
4902624	42	C	08/15/2025	04:36	-129.334	48.977	0	37.80	0	12.5600	0	32.0440	0	24.190	0	37.476	0	241.0	4	90.7	4	-1E+10	1	3.4967	4	0.002732	0	-1E+10	1	-1E+10	1	-1E+10	1
4902624	42	C	08/15/2025	04:36	-129.334	48.977	0	38.70	0	12.2247	0	32.0732	0	24.276	0	38.368	0	240.2	4	89.8	4	-1E+10	1	3.0468	4	0.002632	0	-1E+10	1	-1E+10	1	-1E+10	1
4902624	42	C	08/15/2025	04:36	-129.334	48.977	0	39.00	0	12.1130	0	32.0830	0	24.305	0	38.666	0	-1e10	1	-1e10	1	-1E+10	1	-1e10	1	-1e10	1	-1E+10	1	-1E+10	1	-1E+10	1
4902624	42	C	08/15/2025	04:36	-129.334	48.977	0	39.70	0	11.9610	0	32.0923	0	24.340	0	39.360	0	239.5	4	89.1	4	-1E+10	1	2.9115	4	0.002753	0	-1E+10	1	-1E+10	1	-1E+10	1
4902624	42	C	08/15/2025	04:36	-129.334	48.977	0	40.70	0	11.7439	0	32.1057	0	24.391	0	40.351	0	239.0	4	88.5	4	-1E+10	1	2.9784	4	0.003017	0	-1E+10	1	-1E+10	1	-1E+10	1
4902624	42	C	08/15/2025	04:36	-129.334	48.977	0	41.10	0	11.6570	0	32.1110	0	24.411	0	40.747	0	-1e10	1	-1e10	1	-1E+10	1	-1e10	1	-1e10	1	-1E+10	1	-1E+10	1	-1E+10	1
4902624	42	C	08/15/2025	04:36	-129.334	48.977	0	41.70	0	11.5793	0	32.1155	0	24.428	0	41.342	0	238.2	4	87.9	4	-1E+10	1	2.8397	4	0.003146	0	-1E+10	1	-1E+10	1	-1E+10	1
4902624	42	C	08/15/2025	04:36	-129.334	48.977	0	42.70	0	11.4498	0	32.1230	0	24.457	0	42.334	0	237.4	4	87.3	4	-1E+10	1	2.8579	4	0.002355	0	-1E+10	1	-1E+10	1	-1E+10	1
4902624	42	C	08/15/2025	04:36	-129.334	48.977	0	43.10	0	11.3980	0	32.1260	0	24.469	0	42.730	0	-1e10	1	-1e10	1	-1E+10	1	-1e10	1	-1e10	1	-1E+10	1	-1E+10	1	-1E+10	1
4902624	42	C	08/15/2025	04:36	-129.334	48.977	0	43.70	0	11.3105	0	32.1323	0	24.490	0	43.325	0	236.6	4	86.8	4	-1E+10	1	2.7974	4	0.002403	0	-1E+10	1	-1E+10	1	-1E+10	1
4902624	42	C	08/15/2025	04:36	-129.334	48.977	0	44.80	0	11.1502	0	32.1439	0	24.527	0	44.415	0	235.6	4	86.1	4	-1E+10	1	2.5961	4	0.003707	0	-1E+10	1	-1E+10	1	-1E+10	1
4902624	42	C	08/15/2025	04:36	-129.334	48.977	0	45.00	0	11.1210	0	32.1460	0	24.534	0	44.614	0	-1e10	1	-1e10	1	-1E+10	1	-1e10	1	-1e10	1	-1E+10	1	-1E+10	1	-1E+10	1
4902624	42	C	08/15/2025	04:36	-129.334	48.977	0	45.80	0	11.0574	0	32.1498	0	24.548	0	45.407	0	234.1	4	85.4	4	-1E+10	1	2.4479	4	0.002840	0	-1E+10	1	-1E+10	1	-1E+10	1
4902624	42	C	08/15/2025	04:36	-129.334	48.977	0	46.80	0	10.9779	0	32.1545	0	24.566	0	46.398	0	232.6	4	84.7	4	-1E+10	1	2.2922	4	0.003129	0	-1E+10	1	-1E+10	1	-1E+10	1
4902624	42	C	08/15/2025	04:36	-129.334	48.977	0	46.90	0	10.9700	0	32.1550	0	24.568	0	46.497	0	-1e10	1	-1e10	1	-1E+10	1	-1e10	1	-1e10	1	-1E+10	1	-1E+10	1	-1E+10	1
4902624	42	C	08/15/2025	04:36	-129.334	48.977	0	47.70	0	10.8228	0	32.1722	0	24.607	0	47.290	0	231.0	4	83.9	4	-1E+10	1	2.0492	4	0.003071	0	-1E+10	1	-1E+10	1	-1E+10	1
4902624	42	C	08/15/2025	04:36	-129.334	48.977	0	48.40	0	10.6940	0	32.1873	0	24.641	0	47.984	0	229.8	4	83.2	4	-1E+10	1	1.7350	4	0.001903	0	-1E+10	1	-1E+10	1	-1E+10	1
4902624	42	C	08/15/2025	04:36	-129.334	48.977	0	48.90	0	10.6020	0	32.1980	0	24.665	0	48.480	0	-1e10	1	-1e10	1	-1E+10	1	-1e10	1	-1e10	1	-1E+10	1	-1E+10	1	-1E+10	1
4902624	42	C	08/15/2025	04:36	-129.334	48.977	0	49.20	0	10.5668	0	32.2001	0	24.672	0	48.777	0	230.2	4	83.2	4	-1E+10	1	1.4705	4	0.001955	0	-1E+10	1	-1E+10	1	-1E+10	1
4902624	42	C	08/15/2025	04:36	-129.334	48.977	0	49.90	0	10.4845	0	32.2050	0	24.690	0	49.471	0	229.8	4	82.9	4	-1E+10	1	1.4308	4	0.001727	0	-1E+10	1	-1E+10	1	-1E+10	1
4902624	42	C	08/15/2025	04:36	-129.334	48.977	0	50.60	0	10.4022	0	32.2099	0	24.708	0	50.165	0	229.2	4	82.5	4	-1E+10	1	1.3724	4	0.002290	0	-1E+10	1	-1E+10	1	-1E+10	1
4902624	42	C	08/15/2025	04:36	-129.334	48.977	0	50.90	0	10.3670	0	32.2120	0	24.716	0	50.462	0	-1e10	1	-1e10	1	-1E+10	1	-1e10	1	-1e10	1	-1E+10	1	-1E+10	1	-1E+10	1
4902624	42	C	08/15/2025	04:36	-129.334	48.977	0	51.50	0	10.3293	0	32.2169	0	24.726	0	51.057	0	228.3	4	82.1	4	-1E+10	1	1.2848	4	0.007722	0	-1E+10	1	-1E+10	1	-1E+10	1
4902624	42	C	08/15/2025	04:36	-129.334	48.977	0	52.20	0	10.2853	0	32.2225	0	24.738	0	51.751	0	227.4	4	81.7	4	-1E+10	1	1.2899	4	0.003640	0	-1E+10	1	-1E+10	1	-1E+10	1
4902624	42	C	08/15/2025	04:36	-129.334	48.977	0	52.90	0	10.2413	0	32.2282	0	24.750	0	52.445	0	226.4	4	81.3	4	-1E+10	1	1.2003	4	0.001858	0	-1E+10	1	-1E+10	1	-1E+10	1
4902624	42	C	08/15/2025	04:36	-129.334	48.977	0	53.00	0	10.2350	0	32.2290	0	24.751	0	52.544	0	-1e10	1	-1e10	1	-1E+10	1	-1e10	1	-1e10	1	-1E+10	1	-1E+10	1	-1E+10	1
4902624	42	C	08/15/2025	04:36	-129.334	48.977	0	53.70	0	10.1468	0	32.2388	0	24.774	0	53.238	0	225.8	4	80.9	4	-1E+10	1	1.0804	4	0.002442	0	-1E+10	1	-1E+10	1	-1E+10	1
4902624	42	C	08/15/2025	04:36	-129.334	48.977	0	54.50	0	10.0460	0	32.2500	0	24.799	0	54.031	0	224.8	4	80.3	4	-1E+10	1	0.9767	4	0.002792	0	-1E+10	1	-1E+10	1	-1E+10	1
4902624	42	C	08/15/2025	04:36	-129.334	48.977	0	55.00	0	9.9830	0	32.2570	0	24.815	0	54.526	0	-1e10	1	-1e10	1	-1E+10	1	-1e10	1	-1e10	1	-1E+10	1	-1E+10	1	-1E+10	1
4902624	42	C	08/15/2025	04:36	-129.334	48.977	0	55.40	0	9.9308	0	32.2654	0	24.830	0	54.923	0	223.8	4	79.8	4	-1E+10	1	0.8217	4	0.002270	0	-1E+10	1	-1E+10	1	-1E+10	1
4902624	42	C	08/15/2025	04:36	-129.334	48.977	0	56.30	0	9.8133	0	32.2843	0	24.864	0	55.815	0	223.2	4	79.4	4	-1E+10	1	0.6862	4	0.002747	0	-1E+10	1	-1E+10	1	-1E+10	1
4902624	42	C	08/15/2025	04:36	-129.334	48.977	0	57.00	0	9.7220	0	32.2990	0	24.891	0	56.509	0	-1e10	1	-1e10	1	-1E+10	1	-1e10	1	-1e10	1	-1E+10	1	-1E+10	1	-1E+10	1
4902624	42	C	08/15/2025	04:36	-129.334	48.977	0	57.10	0	9.7112	0	32.3011	0	24.894	0	56.608	0	222.7	4	79.1	4	-1E+10	1	0.5986	4	0.003451	0	-1E+10	1	-1E+10	1	-1E+10	1
4902624	42	C	08/15/2025	04:36	-129.334	48.977	0	57.90	0	9.6249	0	32.3179	0	24.921	0	57.401	0	222.0	4	78.7	4	-1E+10	1	0.4876	4	0.001443	0	-1E+10	1	-1E+10	1	-1E+10	1
4902624	42	C	08/15/2025	04:36	-129.334	48.977	0	58.80	0	9.5278	0	32.3369	0	24.951	0	58.293	0	221.2	4	78.2	4	-1E+10	1	0.4031	4	0.000795	0	-1E+10	1	-1E+10	1	-1E+10	1
4902624	42	C	08/15/2025	04:36	-129.334	48.977	0	58.90	0	9.5170	0	32.3390	0	24.955	0	58.392	0	-1e10	1	-1e10	1	-1E+10	1	-1e10	1	-1e10	1	-1E+10	1	-1E+10	1	-1E+10	1
4902624	42	C	08/15/2025	04:36	-129.334	48.977	0	59.70	0	9.4583	0	32.3546	0	24.976	0	59.185	0	220.4	4	77.8	4	-1E+10	1	0.3823	4	0.000768	0	-1E+10	1	-1E+10	1	-1E+10	1
4902624	42	C	08/15/2025	04:36	-129.334	48.977	0	60.60	0	9.3923	0	32.3722	0	25.001	0	60.077	0	219.5	4	77.4	4	-1E+10	1	0.3504	4	0.000735	0	-1E+10	1	-1E+10	1	-1E+10	1
4902624	42	C	08/15/2025	04:36	-129.334	48.977	0	61.00	0	9.3630	0	32.3800	0	25.011	0	60.474	0	-1e10	1	-1e10	1	-1E+10	1	-1e10	1	-1e10	1	-1E+10	1	-1E+10	1	-1E+10	1
4902624	42	C	08/15/2025	04:36	-129.334	48.977	0	61.50	0	9.3343	0	32.3916	0	25.025	0	60.969	0	218.8	4	77.1	4	-1E+10	1	0.3180	4	0.000814	0	-1E+10	1	-1E+10	1	-1E+10	1
4902624	42	C	08/15/2025	04:36	-129.334	48.977	0	62.30	0	9.2884	0	32.4101	0	25.047	0	61.762	0	217.9	4	76.7	4	-1E+10	1	0.3073	4	0.000873	0	-1E+10	1	-1E+10	1	-1E+10	1
4902624	42	C	08/15/2025	04:36	-129.334	48.977	0	62.90	0	9.2540	0	32.4240	0	25.063	0	62.357	0	-1e10	1	-1e10	1	-1E+10	1	-1e10	1	-1e10	1	-1E+10	1	-1E+10	1	-1E+10	1
4902624	42	C	08/15/2025	04:36	-129.334	48.977	0	63.20	0	9.2436	0	32.4307	0	25.070	0	62.654	0	217.2	4	76.4	4	-1E+10	1	0.2893	4	0.000666	0	-1E+10	1	-1E+10	1	-1E+10	1
4902624	42	C	08/15/2025	04:36	-129.334	48.977	0	64.10	0	9.2123	0	32.4509	0	25.091	0	63.547	0	216.5	4	76.1	4	-1E+10	1	0.2774	4	0.000694	0	-1E+10	1	-1E+10	1	-1E+10	1
4902624	42	C	08/15/2025	04:36	-129.334	48.977	0	64.90	0	9.1845	0	32.4688	0	25.109	0	64.340	0	216.1	4	75.9	4	-1E+10	1	0.2555	4	0.000730	0	-1E+10	1	-1E+10	1	-1E+10	1
4902624	42	C	08/15/2025	04:36	-129.334	48.977	0	65.00	0	9.1810	0	32.4710	0	25.111	0	64.439	0	-1e10	1	-1e10	1	-1E+10	1	-1e10	1	-1e10	1	-1E+10	1	-1E+10	1	-1E+10	1
4902624	42	C	08/15/2025	04:36	-129.334	48.977	0	65.80	0	9.1766	0	32.4770	0	25.117	0	65.232	0	215.5	4	75.7	4	-1E+10	1	0.2555	4	0.000846	0	-1E+10	1	-1E+10	1	-1E+10	1
4902624	42	C	08/15/2025	04:36	-129.334	48.977	0	66.60	0	9.1722	0	32.4830	0	25.122	0	66.025	0	214.8	4	75.4	4	-1E+10	1	0.2555	4	0.000842	0	-1E+10	1	-1E+10	1	-1E+10	1
4902624	42	C	08/15/2025	04:36	-129.334	48.977	0	67.00	0	9.1700	0	32.4860	0	25.125	0	66.421	0	-1e10	1	-1e10	1	-1E+10	1	-1e10	1	-1e10	1	-1E+10	1	-1E+10	1	-1E+10	1
4902624	42	C	08/15/2025	04:36	-129.334	48.977	0	67.40	0	9.1652	0	32.4928	0	25.131	0	66.818	0	214.1	4	75.2	4	-1E+10	1	0.2433	4	0.000666	0	-1E+10	1	-1E+10	1	-1E+10	1
4902624	42	C	08/15/2025	04:36	-129.334	48.977	0	68.30	0	9.1544	0	32.5081	0	25.145	0	67.710	0	213.3	4	74.9	4	-1E+10	1	0.2263	4	0.000536	0	-1E+10	1	-1E+10	1	-1E+10	1
4902624	42	C	08/15/2025	04:36	-129.334	48.977	0	69.00	0	9.1460	0	32.5200	0	25.155	0	68.403	0	-1e10	1	-1e10	1	-1E+10	1	-1e10	1	-1e10	1	-1E+10	1	-1E+10	1	-1E+10	1
4902624	42	C	08/15/2025	04:36	-129.334	48.977	0	69.10	0	9.1452	0	32.5212	0	25.156	0	68.503	0	212.4	4	74.6	4	-1E+10	1	0.2190	4	0.000584	0	-1E+10	1	-1E+10	1	-1E+10	1
4902624	42	C	08/15/2025	04:36	-129.334	48.977	0	70.00	0	9.1379	0	32.5319	0	25.166	0	69.395	0	211.4	4	74.2	4	-1E+10	1	0.2174	4	0.000651	0	-1E+10	1	-1E+10	1	-1E+10	1
4902624	42	C	08/15/2025	04:36	-129.334	48.977	0	70.80	0	9.1314	0	32.5414	0	25.174	0	70.188	0	210.4	4	73.9	4	-1E+10	1	0.2110	4	0.000543	0	-1E+10	1	-1E+10	1	-1E+10	1
4902624	42	C	08/15/2025	04:36	-129.334	48.977	0	71.10	0	9.1290	0	32.5450	0	25.178	0	70.485	0	-1e10	1	-1e10	1	-1E+10	1	-1e10	1	-1e10	1	-1E+10	1	-1E+10	1	-1E+10	1
4902624	42	C	08/15/2025	04:36	-129.334	48.977	0	71.80	0	9.1220	0	32.5535	0	25.185	0	71.179	0	209.3	4	73.5	4	-1E+10	1	0.2044	4	0.000554	0	-1E+10	1	-1E+10	1	-1E+10	1
4902624	42	C	08/15/2025	04:36	-129.334	48.977	0	72.90	0	9.1110	0	32.5668	0	25.197	0	72.269	0	207.7	4	72.9	4	-1E+10	1	0.2117	4	0.000530	0	-1E+10	1	-1E+10	1	-1E+10	1
4902624	42	C	08/15/2025	04:36	-129.334	48.977	0	73.00	0	9.1100	0	32.5680	0	25.199	0	72.368	0	-1e10	1	-1e10	1	-1E+10	1	-1e10	1	-1e10	1	-1E+10	1	-1E+10	1	-1E+10	1
4902624	42	C	08/15/2025	04:36	-129.334	48.977	0	73.80	0	9.0919	0	32.5861	0	25.216	0	73.161	0	206.7	4	72.5	4	-1E+10	1	0.1679	4	0.000471	0	-1E+10	1	-1E+10	1	-1E+10	1
4902624	42	C	08/15/2025	04:36	-129.334	48.977	0	74.70	0	9.0715	0	32.6065	0	25.235	0	74.053	0	205.4	4	72.1	4	-1E+10	1	0.1569	4	0.000515	0	-1E+10	1	-1E+10	1	-1E+10	1
4902624	42	C	08/15/2025	04:36	-129.334	48.977	0	74.90	0	9.0670	0	32.6110	0	25.239	0	74.251	0	-1e10	1	-1e10	1	-1E+10	1	-1e10	1	-1e10	1	-1E+10	1	-1E+10	1	-1E+10	1
4902624	42	C	08/15/2025	04:36	-129.334	48.977	0	75.60	0	9.0557	0	32.6197	0	25.248	0	74.945	0	203.9	4	71.5	4	-1E+10	1	0.1497	4	0.001398	0	-1E+10	1	-1E+10	1	-1E+10	1
4902624	42	C	08/15/2025	04:36	-129.334	48.977	0	76.60	0	9.0395	0	32.6320	0	25.260	0	75.936	0	202.6	4	71.0	4	-1E+10	1	0.1298	4	0.001588	0	-1E+10	1	-1E+10	1	-1E+10	1
4902624	42	C	08/15/2025	04:36	-129.334	48.977	0	77.00	0	9.0330	0	32.6370	0	25.265	0	76.333	0	-1e10	1	-1e10	1	-1E+10	1	-1e10	1	-1e10	1	-1E+10	1	-1E+10	1	-1E+10	1
4902624	42	C	08/15/2025	04:36	-129.334	48.977	0	77.50	0	9.0223	0	32.6463	0	25.274	0	76.828	0	201.5	4	70.6	4	-1E+10	1	0.1153	4	0.000732	0	-1E+10	1	-1E+10	1	-1E+10	1
4902624	42	C	08/15/2025	04:36	-129.334	48.977	0	78.20	0	9.0072	0	32.6592	0	25.286	0	77.522	0	200.5	4	70.3	4	-1E+10	1	0.1241	4	0.000699	0	-1E+10	1	-1E+10	1	-1E+10	1
4902624	42	C	08/15/2025	04:36	-129.334	48.977	0	78.80	0	8.9943	0	32.6703	0	25.297	0	78.117	0	199.7	4	70.0	4	-1E+10	1	0.1241	4	0.000589	0	-1E+10	1	-1E+10	1	-1E+10	1
4902624	42	C	08/15/2025	04:36	-129.334	48.977	0	79.00	0	8.9900	0	32.6740	0	25.300	0	78.315	0	-1e10	1	-1e10	1	-1E+10	1	-1e10	1	-1e10	1	-1E+10	1	-1E+10	1	-1E+10	1
4902624	42	C	08/15/2025	04:36	-129.334	48.977	0	79.40	0	8.9854	0	32.6801	0	25.306	0	78.712	0	198.5	4	69.5	4	-1E+10	1	0.0949	4	0.000471	0	-1E+10	1	-1E+10	1	-1E+10	1
4902624	42	C	08/15/2025	04:36	-129.334	48.977	0	80.00	0	8.9786	0	32.6892	0	25.314	0	79.306	0	196.9	4	69.0	4	-1E+10	1	0.1012	4	0.002372	0	-1E+10	1	-1E+10	1	-1E+10	1
4902624	42	C	08/15/2025	04:36	-129.334	48.977	0	80.60	0	8.9717	0	32.6984	0	25.322	0	79.901	0	195.5	4	68.5	4	-1E+10	1	0.1068	4	0.006223	0	-1E+10	1	-1E+10	1	-1E+10	1
4902624	42	C	08/15/2025	04:36	-129.334	48.977	0	81.10	0	8.9660	0	32.7060	0	25.329	0	80.396	0	-1e10	1	-1e10	1	-1E+10	1	-1e10	1	-1e10	1	-1E+10	1	-1E+10	1	-1E+10	1
4902624	42	C	08/15/2025	04:36	-129.334	48.977	0	81.30	0	8.9630	0	32.7096	0	25.332	0	80.595	0	193.9	4	67.9	4	-1E+10	1	0.1012	4	0.003905	0	-1E+10	1	-1E+10	1	-1E+10	1
4902624	42	C	08/15/2025	04:36	-129.334	48.977	0	82.00	0	8.9527	0	32.7223	0	25.344	0	81.288	0	192.1	4	67.3	4	-1E+10	1	0.0913	4	0.000671	0	-1E+10	1	-1E+10	1	-1E+10	1
4902624	42	C	08/15/2025	04:36	-129.334	48.977	0	82.70	0	8.9424	0	32.7350	0	25.355	0	81.982	0	190.3	4	66.6	4	-1E+10	1	0.0849	4	0.000845	0	-1E+10	1	-1E+10	1	-1E+10	1
4902624	42	C	08/15/2025	04:36	-129.334	48.977	0	83.20	0	8.9350	0	32.7440	0	25.364	0	82.478	0	-1e10	1	-1e10	1	-1E+10	1	-1e10	1	-1e10	1	-1E+10	1	-1E+10	1	-1E+10	1
4902624	42	C	08/15/2025	04:36	-129.334	48.977	0	83.50	0	8.9303	0	32.7508	0	25.370	0	82.775	0	188.5	4	66.0	4	-1E+10	1	0.0913	4	0.002117	0	-1E+10	1	-1E+10	1	-1E+10	1
4902624	42	C	08/15/2025	04:36	-129.334	48.977	0	84.20	0	8.9192	0	32.7666	0	25.384	0	83.469	0	186.4	4	65.2	4	-1E+10	1	0.1014	4	0.003545	0	-1E+10	1	-1E+10	1	-1E+10	1
4902624	42	C	08/15/2025	04:36	-129.334	48.977	0	85.10	0	8.9050	0	32.7870	0	25.402	0	84.361	0	180.8	4	63.3	4	-1E+10	1	0.0715	4	0.001605	0	-1E+10	1	-1E+10	1	-1E+10	1
4902624	42	C	08/15/2025	04:36	-129.334	48.977	0	85.90	0	8.8998	0	32.7930	0	25.408	0	85.154	0	182.1	4	63.7	4	-1E+10	1	0.0657	4	0.000413	0	-1E+10	1	-1E+10	1	-1E+10	1
4902624	42	C	08/15/2025	04:36	-129.334	48.977	0	86.80	0	8.8940	0	32.7997	0	25.414	0	86.046	0	179.8	4	62.9	4	-1E+10	1	0.0511	4	0.001140	0	-1E+10	1	-1E+10	1	-1E+10	1
4902624	42	C	08/15/2025	04:36	-129.334	48.977	0	87.10	0	8.8920	0	32.8020	0	25.416	0	86.343	0	-1e10	1	-1e10	1	-1E+10	1	-1e10	1	-1e10	1	-1E+10	1	-1E+10	1	-1E+10	1
4902624	42	C	08/15/2025	04:36	-129.334	48.977	0	87.70	0	8.8800	0	32.8143	0	25.427	0	86.938	0	176.8	4	61.9	4	-1E+10	1	0.0708	4	0.000633	0	-1E+10	1	-1E+10	1	-1E+10	1
4902624	42	C	08/15/2025	04:36	-129.334	48.977	0	88.50	0	8.8640	0	32.8307	0	25.443	0	87.731	0	173.5	4	60.7	4	-1E+10	1	0.0823	4	0.005623	0	-1E+10	1	-1E+10	1	-1E+10	1
4902624	42	C	08/15/2025	04:36	-129.334	48.977	0	89.00	0	8.8540	0	32.8410	0	25.452	0	88.226	0	-1e10	1	-1e10	1	-1E+10	1	-1e10	1	-1e10	1	-1E+10	1	-1E+10	1	-1E+10	1
4902624	42	C	08/15/2025	04:36	-129.334	48.977	0	89.50	0	8.8470	0	32.8477	0	25.459	0	88.722	0	170.2	4	59.5	4	-1E+10	1	0.0730	4	0.003119	0	-1E+10	1	-1E+10	1	-1E+10	1
4902624	42	C	08/15/2025	04:36	-129.334	48.977	0	90.40	0	8.8344	0	32.8599	0	25.470	0	89.614	0	166.7	4	58.3	4	-1E+10	1	0.0538	4	0.000392	0	-1E+10	1	-1E+10	1	-1E+10	1
4902624	42	C	08/15/2025	04:36	-129.334	48.977	0	91.00	0	8.8260	0	32.8680	0	25.478	0	90.208	0	-1e10	1	-1e10	1	-1E+10	1	-1e10	1	-1e10	1	-1E+10	1	-1E+10	1	-1E+10	1
4902624	42	C	08/15/2025	04:36	-129.334	48.977	0	91.30	0	8.8194	0	32.8755	0	25.485	0	90.506	0	163.1	4	57.0	4	-1E+10	1	0.0491	4	0.001078	0	-1E+10	1	-1E+10	1	-1E+10	1
4902624	42	C	08/15/2025	04:36	-129.334	48.977	0	92.20	0	8.7996	0	32.8980	0	25.505	0	91.398	0	159.8	4	55.8	4	-1E+10	1	0.0569	4	0.001931	0	-1E+10	1	-1E+10	1	-1E+10	1
4902624	42	C	08/15/2025	04:36	-129.334	48.977	0	93.00	0	8.7820	0	32.9180	0	25.524	0	92.191	0	-1e10	1	-1e10	1	-1E+10	1	-1e10	1	-1e10	1	-1E+10	1	-1E+10	1	-1E+10	1
4902624	42	C	08/15/2025	04:36	-129.334	48.977	0	93.10	0	8.7791	0	32.9215	0	25.527	0	92.290	0	156.2	4	54.6	4	-1E+10	1	0.0504	4	0.000361	0	-1E+10	1	-1E+10	1	-1E+10	1
4902624	42	C	08/15/2025	04:36	-129.334	48.977	0	94.10	0	8.7500	0	32.9568	0	25.559	0	93.281	0	152.4	4	53.2	4	-1E+10	1	0.0438	4	0.000413	0	-1E+10	1	-1E+10	1	-1E+10	1
4902624	42	C	08/15/2025	04:36	-129.334	48.977	0	95.10	0	8.7210	0	32.9920	0	25.591	0	94.272	0	-1e10	1	-1e10	1	-1E+10	1	-1e10	1	-1e10	1	-1E+10	1	-1E+10	1	-1E+10	1
4902624	42	C	08/15/2025	04:36	-129.334	48.977	0	95.20	0	8.7197	0	32.9932	0	25.592	0	94.371	0	149.0	4	52.0	4	-1E+10	1	0.0500	4	0.000413	0	-1E+10	1	-1E+10	1	-1E+10	1
4902624	42	C	08/15/2025	04:36	-129.334	48.977	0	96.20	0	8.7071	0	33.0047	0	25.603	0	95.362	0	145.3	4	50.7	4	-1E+10	1	0.0511	4	0.000497	0	-1E+10	1	-1E+10	1	-1E+10	1
4902624	42	C	08/15/2025	04:36	-129.334	48.977	0	97.00	0	8.6970	0	33.0140	0	25.612	0	96.155	0	-1e10	1	-1e10	1	-1E+10	1	-1e10	1	-1e10	1	-1E+10	1	-1E+10	1	-1E+10	1
4902624	42	C	08/15/2025	04:36	-129.334	48.977	0	97.20	0	8.6901	0	33.0215	0	25.619	0	96.353	0	141.5	4	49.4	4	-1E+10	1	0.0511	4	0.000448	0	-1E+10	1	-1E+10	1	-1E+10	1
4902624	42	C	08/15/2025	04:36	-129.334	48.977	0	98.30	0	8.6522	0	33.0628	0	25.657	0	97.443	0	138.3	4	48.2	4	-1E+10	1	0.0438	4	0.000366	0	-1E+10	1	-1E+10	1	-1E+10	1
4902624	42	C	08/15/2025	04:36	-129.334	48.977	0	99.00	0	8.6280	0	33.0890	0	25.681	0	98.137	0	-1e10	1	-1e10	1	-1E+10	1	-1e10	1	-1e10	1	-1E+10	1	-1E+10	1	-1E+10	1
4902624	42	C	08/15/2025	04:36	-129.334	48.977	0	99.40	0	8.6184	0	33.1058	0	25.696	0	98.533	0	135.1	4	47.1	4	-1E+10	1	0.0418	4	0.000324	0	-1E+10	1	-1E+10	1	-1E+10	1
4902624	42	C	08/15/2025	04:36	-129.334	48.977	0	100.50	0	8.5920	0	33.1520	0	25.736	0	99.623	0	132.2	4	46.1	4	-1E+10	1	0.0489	4	0.000392	0	-1E+10	1	-1E+10	1	-1E+10	1
4902624	42	C	08/15/2025	04:36	-129.334	48.977	0	101.00	0	8.5800	0	33.1730	0	25.754	0	100.119	0	-1e10	1	-1e10	1	-1E+10	1	-1e10	1	-1e10	1	-1E+10	1	-1E+10	1	-1E+10	1
4902624	42	C	08/15/2025	04:36	-129.334	48.977	0	101.50	0	8.5728	0	33.1830	0	25.763	0	100.615	0	129.6	4	45.2	4	-1E+10	1	0.0432	4	0.000524	0	-1E+10	1	-1E+10	1	-1E+10	1
4902624	42	C	08/15/2025	04:36	-129.334	48.977	0	102.60	0	8.5568	0	33.2050	0	25.783	0	101.705	0	127.1	4	44.3	4	-1E+10	1	0.0365	4	0.000459	0	-1E+10	1	-1E+10	1	-1E+10	1
4902624	42	C	08/15/2025	04:36	-129.334	48.977	0	103.00	0	8.5510	0	33.2130	0	25.790	0	102.101	0	-1e10	1	-1e10	1	-1E+10	1	-1e10	1	-1e10	1	-1E+10	1	-1E+10	1	-1E+10	1
4902624	42	C	08/15/2025	04:36	-129.334	48.977	0	103.60	0	8.5414	0	33.2298	0	25.805	0	102.696	0	124.6	4	43.4	4	-1E+10	1	0.0511	4	0.000354	0	-1E+10	1	-1E+10	1	-1E+10	1
4902624	42	C	08/15/2025	04:36	-129.334	48.977	0	104.70	0	8.5238	0	33.2606	0	25.832	0	103.786	0	122.4	4	42.6	4	-1E+10	1	0.0387	4	0.000513	0	-1E+10	1	-1E+10	1	-1E+10	1
4902624	42	C	08/15/2025	04:36	-129.334	48.977	0	105.00	0	8.5190	0	33.2690	0	25.839	0	104.083	0	-1e10	1	-1e10	1	-1E+10	1	-1e10	1	-1e10	1	-1E+10	1	-1E+10	1	-1E+10	1
4902624	42	C	08/15/2025	04:36	-129.334	48.977	0	105.70	0	8.5124	0	33.2801	0	25.849	0	104.777	0	120.6	4	42.0	4	-1E+10	1	0.0462	4	0.000502	0	-1E+10	1	-1E+10	1	-1E+10	1
4902624	42	C	08/15/2025	04:36	-129.334	48.977	0	106.70	0	8.5029	0	33.2958	0	25.863	0	105.768	0	118.8	4	41.4	4	-1E+10	1	0.0365	4	0.000381	0	-1E+10	1	-1E+10	1	-1E+10	1
4902624	42	C	08/15/2025	04:36	-129.334	48.977	0	106.90	0	8.5010	0	33.2990	0	25.865	0	105.966	0	-1e10	1	-1e10	1	-1E+10	1	-1e10	1	-1e10	1	-1E+10	1	-1E+10	1	-1E+10	1
4902624	42	C	08/15/2025	04:36	-129.334	48.977	0	107.60	0	8.4940	0	33.3057	0	25.872	0	106.660	0	117.0	4	40.7	4	-1E+10	1	0.0329	4	0.000371	0	-1E+10	1	-1E+10	1	-1E+10	1
4902624	42	C	08/15/2025	04:36	-129.334	48.977	0	108.60	0	8.4840	0	33.3152	0	25.881	0	107.651	0	115.0	4	40.0	4	-1E+10	1	0.0365	4	0.000381	0	-1E+10	1	-1E+10	1	-1E+10	1
4902624	42	C	08/15/2025	04:36	-129.334	48.977	0	109.10	0	8.4790	0	33.3200	0	25.885	0	108.146	0	-1e10	1	-1e10	1	-1E+10	1	-1e10	1	-1e10	1	-1E+10	1	-1E+10	1	-1E+10	1
4902624	42	C	08/15/2025	04:36	-129.334	48.977	0	109.60	0	8.4692	0	33.3300	0	25.894	0	108.642	0	112.9	4	39.3	4	-1E+10	1	0.0394	4	0.000319	0	-1E+10	1	-1E+10	1	-1E+10	1
4902624	42	C	08/15/2025	04:36	-129.334	48.977	0	110.60	0	8.4497	0	33.3500	0	25.913	0	109.633	0	110.8	4	38.5	4	-1E+10	1	0.0523	4	0.000322	0	-1E+10	1	-1E+10	1	-1E+10	1
4902624	42	C	08/15/2025	04:36	-129.334	48.977	0	111.10	0	8.4400	0	33.3600	0	25.922	0	110.128	0	-1e10	1	-1e10	1	-1E+10	1	-1e10	1	-1e10	1	-1E+10	1	-1E+10	1	-1E+10	1
4902624	42	C	08/15/2025	04:36	-129.334	48.977	0	111.60	0	8.4384	0	33.3724	0	25.932	0	110.624	0	109.1	4	37.9	4	-1E+10	1	0.0584	4	0.000342	0	-1E+10	1	-1E+10	1	-1E+10	1
4902624	42	C	08/15/2025	04:36	-129.334	48.977	0	112.60	0	8.4353	0	33.3971	0	25.952	0	111.615	0	107.3	4	37.3	4	-1E+10	1	0.0462	4	0.000332	0	-1E+10	1	-1E+10	1	-1E+10	1
4902624	42	C	08/15/2025	04:36	-129.334	48.977	0	113.00	0	8.4340	0	33.4070	0	25.960	0	112.011	0	-1e10	1	-1e10	1	-1E+10	1	-1e10	1	-1e10	1	-1E+10	1	-1E+10	1	-1E+10	1
4902624	42	C	08/15/2025	04:36	-129.334	48.977	0	113.60	0	8.4264	0	33.4237	0	25.975	0	112.606	0	105.6	4	36.7	4	-1E+10	1	0.0613	4	0.000340	0	-1E+10	1	-1E+10	1	-1E+10	1
4902624	42	C	08/15/2025	04:36	-129.334	48.977	0	114.60	0	8.4138	0	33.4516	0	25.998	0	113.597	0	104.2	4	36.2	4	-1E+10	1	0.0511	4	0.000342	0	-1E+10	1	-1E+10	1	-1E+10	1
4902624	42	C	08/15/2025	04:36	-129.334	48.977	0	114.90	0	8.4100	0	33.4600	0	26.005	0	113.894	0	-1e10	1	-1e10	1	-1E+10	1	-1e10	1	-1e10	1	-1E+10	1	-1E+10	1	-1E+10	1
4902624	42	C	08/15/2025	04:36	-129.334	48.977	0	115.60	0	8.4090	0	33.4710	0	26.014	0	114.588	0	102.9	4	35.8	4	-1E+10	1	0.0472	4	0.000331	0	-1E+10	1	-1E+10	1	-1E+10	1
4902624	42	C	08/15/2025	04:36	-129.334	48.977	0	116.70	0	8.4074	0	33.4883	0	26.028	0	115.678	0	101.4	4	35.3	4	-1E+10	1	0.0569	4	0.000333	0	-1E+10	1	-1E+10	1	-1E+10	1
4902624	42	C	08/15/2025	04:36	-129.334	48.977	0	117.00	0	8.4070	0	33.4930	0	26.032	0	115.975	0	-1e10	1	-1e10	1	-1E+10	1	-1e10	1	-1e10	1	-1E+10	1	-1E+10	1	-1E+10	1
4902624	42	C	08/15/2025	04:36	-129.334	48.977	0	117.80	0	8.4078	0	33.5056	0	26.042	0	116.768	0	100.5	4	35.0	4	-1E+10	1	0.0573	4	0.000372	0	-1E+10	1	-1E+10	1	-1E+10	1
4902624	42	C	08/15/2025	04:36	-129.334	48.977	0	118.90	0	8.4088	0	33.5229	0	26.055	0	117.858	0	99.7	4	34.7	4	-1E+10	1	0.0421	4	0.000387	0	-1E+10	1	-1E+10	1	-1E+10	1
4902624	42	C	08/15/2025	04:36	-129.334	48.977	0	119.10	0	8.4090	0	33.5260	0	26.057	0	118.056	0	-1e10	1	-1e10	1	-1E+10	1	-1e10	1	-1e10	1	-1E+10	1	-1E+10	1	-1E+10	1
4902624	42	C	08/15/2025	04:36	-129.334	48.977	0	119.90	0	8.3961	0	33.5362	0	26.067	0	118.849	0	99.0	4	34.5	4	-1E+10	1	0.0365	4	0.000342	0	-1E+10	1	-1E+10	1	-1E+10	1
4902624	42	C	08/15/2025	04:36	-129.334	48.977	0	120.90	0	8.3800	0	33.5490	0	26.080	0	119.840	0	96.0	4	33.4	4	-1E+10	1	0.0438	4	0.000354	0	-1E+10	1	-1E+10	1	-1E+10	1
4902624	42	C	08/15/2025	04:36	-129.334	48.977	0	121.90	0	8.3743	0	33.5561	0	26.086	0	120.831	0	97.9	4	34.1	4	-1E+10	1	0.0499	4	0.000334	0	-1E+10	1	-1E+10	1	-1E+10	1
4902624	42	C	08/15/2025	04:36	-129.334	48.977	0	122.70	0	8.3697	0	33.5619	0	26.092	0	121.623	0	97.4	4	33.9	4	-1E+10	1	0.0462	4	0.000338	0	-1E+10	1	-1E+10	1	-1E+10	1
4902624	42	C	08/15/2025	04:36	-129.334	48.977	0	123.00	0	8.3680	0	33.5640	0	26.093	0	121.921	0	-1e10	1	-1e10	1	-1E+10	1	-1e10	1	-1e10	1	-1E+10	1	-1E+10	1	-1E+10	1
4902624	42	C	08/15/2025	04:36	-129.334	48.977	0	123.40	0	8.3640	0	33.5680	0	26.097	0	122.317	0	96.9	4	33.7	4	-1E+10	1	0.0389	4	0.000334	0	-1E+10	1	-1E+10	1	-1E+10	1
4902624	42	C	08/15/2025	04:36	-129.334	48.977	0	124.00	0	8.3580	0	33.5740	0	26.103	0	122.912	0	96.5	4	33.6	4	-1E+10	1	0.0402	4	0.000336	0	-1E+10	1	-1E+10	1	-1E+10	1
4902624	42	C	08/15/2025	04:36	-129.334	48.977	0	124.60	0	8.3520	0	33.5800	0	26.108	0	123.506	0	96.0	4	33.4	4	-1E+10	1	0.0456	4	0.000333	0	-1E+10	1	-1E+10	1	-1E+10	1
4902624	42	C	08/15/2025	04:36	-129.334	48.977	0	125.00	0	8.3480	0	33.5840	0	26.112	0	123.902	0	-1e10	1	-1e10	1	-1E+10	1	-1e10	1	-1e10	1	-1E+10	1	-1E+10	1	-1E+10	1
4902624	42	C	08/15/2025	04:36	-129.334	48.977	0	125.30	0	8.3446	0	33.5869	0	26.115	0	124.200	0	95.5	4	33.2	4	-1E+10	1	0.0511	4	0.000313	0	-1E+10	1	-1E+10	1	-1E+10	1
4902624	42	C	08/15/2025	04:36	-129.334	48.977	0	126.00	0	8.3366	0	33.5935	0	26.121	0	124.893	0	95.0	4	33.0	4	-1E+10	1	0.0493	4	0.000349	0	-1E+10	1	-1E+10	1	-1E+10	1
4902624	42	C	08/15/2025	04:36	-129.334	48.977	0	126.70	0	8.3286	0	33.6002	0	26.128	0	125.587	0	94.5	4	32.8	4	-1E+10	1	0.0365	4	0.000318	0	-1E+10	1	-1E+10	1	-1E+10	1
4902624	42	C	08/15/2025	04:36	-129.334	48.977	0	127.10	0	8.3240	0	33.6040	0	26.132	0	125.983	0	-1e10	1	-1e10	1	-1E+10	1	-1e10	1	-1e10	1	-1E+10	1	-1E+10	1	-1E+10	1
4902624	42	C	08/15/2025	04:36	-129.334	48.977	0	127.50	0	8.3158	0	33.6080	0	26.136	0	126.380	0	93.9	4	32.6	4	-1E+10	1	0.0495	4	0.000308	0	-1E+10	1	-1E+10	1	-1E+10	1
4902624	42	C	08/15/2025	04:36	-129.334	48.977	0	128.20	0	8.3014	0	33.6150	0	26.144	0	127.073	0	93.3	4	32.4	4	-1E+10	1	0.0511	4	0.000289	0	-1E+10	1	-1E+10	1	-1E+10	1
4902624	42	C	08/15/2025	04:36	-129.334	48.977	0	129.00	0	8.2850	0	33.6230	0	26.152	0	127.866	0	90.5	4	31.4	4	-1E+10	1	0.0511	4	0.000283	0	-1E+10	1	-1E+10	1	-1E+10	1
4902624	42	C	08/15/2025	04:36	-129.334	48.977	0	129.70	0	8.2811	0	33.6269	0	26.156	0	128.560	0	92.4	4	32.1	4	-1E+10	1	0.0446	4	0.000320	0	-1E+10	1	-1E+10	1	-1E+10	1
4902624	42	C	08/15/2025	04:36	-129.334	48.977	0	130.40	0	8.2773	0	33.6307	0	26.160	0	129.253	0	91.9	4	31.9	4	-1E+10	1	0.0428	4	0.000338	0	-1E+10	1	-1E+10	1	-1E+10	1
4902624	42	C	08/15/2025	04:36	-129.334	48.977	0	131.00	0	8.2740	0	33.6340	0	26.163	0	129.848	0	-1e10	1	-1e10	1	-1E+10	1	-1e10	1	-1e10	1	-1E+10	1	-1E+10	1	-1E+10	1
4902624	42	C	08/15/2025	04:36	-129.334	48.977	0	131.20	0	8.2703	0	33.6357	0	26.165	0	130.046	0	91.4	4	31.7	4	-1E+10	1	0.0560	4	0.000299	0	-1E+10	1	-1E+10	1	-1E+10	1
4902624	42	C	08/15/2025	04:36	-129.334	48.977	0	131.90	0	8.2573	0	33.6417	0	26.171	0	130.740	0	90.9	4	31.6	4	-1E+10	1	0.0495	4	0.000350	0	-1E+10	1	-1E+10	1	-1E+10	1
4902624	42	C	08/15/2025	04:36	-129.334	48.977	0	132.70	0	8.2426	0	33.6484	0	26.179	0	131.532	0	90.4	4	31.4	4	-1E+10	1	0.0365	4	0.000318	0	-1E+10	1	-1E+10	1	-1E+10	1
4902624	42	C	08/15/2025	04:36	-129.334	48.977	0	133.00	0	8.2370	0	33.6510	0	26.182	0	131.830	0	-1e10	1	-1e10	1	-1E+10	1	-1e10	1	-1e10	1	-1E+10	1	-1E+10	1	-1E+10	1
4902624	42	C	08/15/2025	04:36	-129.334	48.977	0	133.50	0	8.2288	0	33.6552	0	26.186	0	132.325	0	90.0	4	31.2	4	-1E+10	1	0.0657	4	0.000318	0	-1E+10	1	-1E+10	1	-1E+10	1
4902624	42	C	08/15/2025	04:36	-129.334	48.977	0	134.20	0	8.2174	0	33.6611	0	26.192	0	133.019	0	89.5	4	31.0	4	-1E+10	1	0.0430	4	0.000346	0	-1E+10	1	-1E+10	1	-1E+10	1
4902624	42	C	08/15/2025	04:36	-129.334	48.977	0	134.90	0	8.2060	0	33.6670	0	26.199	0	133.712	0	-1e10	1	-1e10	1	-1E+10	1	-1e10	1	-1e10	1	-1E+10	1	-1E+10	1	-1E+10	1
4902624	42	C	08/15/2025	04:36	-129.334	48.977	0	135.00	0	8.2051	0	33.6675	0	26.199	0	133.811	0	88.9	4	30.8	4	-1E+10	1	0.0453	4	0.000339	0	-1E+10	1	-1E+10	1	-1E+10	1
4902624	42	C	08/15/2025	04:36	-129.334	48.977	0	135.80	0	8.1979	0	33.6713	0	26.203	0	134.604	0	88.4	4	30.6	4	-1E+10	1	0.0469	4	0.000317	0	-1E+10	1	-1E+10	1	-1E+10	1
4902624	42	C	08/15/2025	04:36	-129.334	48.977	0	136.60	0	8.1906	0	33.6751	0	26.207	0	135.397	0	88.0	4	30.5	4	-1E+10	1	0.0474	4	0.000295	0	-1E+10	1	-1E+10	1	-1E+10	1
4902624	42	C	08/15/2025	04:36	-129.334	48.977	0	137.00	0	8.1870	0	33.6770	0	26.209	0	135.793	0	-1e10	1	-1e10	1	-1E+10	1	-1e10	1	-1e10	1	-1E+10	1	-1E+10	1	-1E+10	1
4902624	42	C	08/15/2025	04:36	-129.334	48.977	0	137.50	0	8.1793	0	33.6820	0	26.215	0	136.289	0	87.5	4	30.3	4	-1E+10	1	0.0423	4	0.000307	0	-1E+10	1	-1E+10	1	-1E+10	1
4902624	42	C	08/15/2025	04:36	-129.334	48.977	0	138.30	0	8.1669	0	33.6900	0	26.223	0	137.081	0	87.1	4	30.2	4	-1E+10	1	0.0308	4	0.000329	0	-1E+10	1	-1E+10	1	-1E+10	1
4902624	42	C	08/15/2025	04:36	-129.334	48.977	0	139.00	0	8.1560	0	33.6970	0	26.230	0	137.775	0	-1e10	1	-1e10	1	-1E+10	1	-1e10	1	-1e10	1	-1E+10	1	-1E+10	1	-1E+10	1
4902624	42	C	08/15/2025	04:36	-129.334	48.977	0	139.20	0	8.1534	0	33.6983	0	26.231	0	137.973	0	86.7	4	30.0	4	-1E+10	1	0.0394	4	0.000285	0	-1E+10	1	-1E+10	1	-1E+10	1
4902624	42	C	08/15/2025	04:36	-129.334	48.977	0	140.00	0	8.1430	0	33.7035	0	26.237	0	138.766	0	86.4	4	29.9	4	-1E+10	1	0.0511	4	0.000295	0	-1E+10	1	-1E+10	1	-1E+10	1
4902624	42	C	08/15/2025	04:36	-129.334	48.977	0	140.90	0	8.1313	0	33.7094	0	26.243	0	139.657	0	86.2	4	29.8	4	-1E+10	1	0.0511	4	0.000295	0	-1E+10	1	-1E+10	1	-1E+10	1
4902624	42	C	08/15/2025	04:36	-129.334	48.977	0	141.00	0	8.1300	0	33.7100	0	26.244	0	139.757	0	-1e10	1	-1e10	1	-1E+10	1	-1e10	1	-1e10	1	-1E+10	1	-1E+10	1	-1E+10	1
4902624	42	C	08/15/2025	04:36	-129.334	48.977	0	141.80	0	8.1224	0	33.7148	0	26.249	0	140.549	0	85.9	4	29.7	4	-1E+10	1	0.0511	4	0.000307	0	-1E+10	1	-1E+10	1	-1E+10	1
4902624	42	C	08/15/2025	04:36	-129.334	48.977	0	142.70	0	8.1138	0	33.7202	0	26.254	0	141.441	0	85.7	4	29.7	4	-1E+10	1	0.0451	4	0.000383	0	-1E+10	1	-1E+10	1	-1E+10	1
4902624	42	C	08/15/2025	04:36	-129.334	48.977	0	143.00	0	8.1110	0	33.7220	0	26.256	0	141.738	0	-1e10	1	-1e10	1	-1E+10	1	-1e10	1	-1e10	1	-1E+10	1	-1E+10	1	-1E+10	1
4902624	42	C	08/15/2025	04:36	-129.334	48.977	0	143.60	0	8.1065	0	33.7238	0	26.258	0	142.333	0	85.5	4	29.6	4	-1E+10	1	0.0484	4	0.000356	0	-1E+10	1	-1E+10	1	-1E+10	1
4902624	42	C	08/15/2025	04:36	-129.334	48.977	0	144.50	0	8.0997	0	33.7265	0	26.261	0	143.224	0	85.3	4	29.5	4	-1E+10	1	0.0511	4	0.000336	0	-1E+10	1	-1E+10	1	-1E+10	1
4902624	42	C	08/15/2025	04:36	-129.334	48.977	0	145.00	0	8.0960	0	33.7280	0	26.263	0	143.720	0	-1e10	1	-1e10	1	-1E+10	1	-1e10	1	-1e10	1	-1E+10	1	-1E+10	1	-1E+10	1
4902624	42	C	08/15/2025	04:36	-129.334	48.977	0	145.40	0	8.0920	0	33.7296	0	26.265	0	144.116	0	85.0	4	29.4	4	-1E+10	1	0.0511	4	0.000326	0	-1E+10	1	-1E+10	1	-1E+10	1
4902624	42	C	08/15/2025	04:36	-129.334	48.977	0	146.40	0	8.0820	0	33.7336	0	26.270	0	145.107	0	84.8	4	29.3	4	-1E+10	1	0.0511	4	0.000366	0	-1E+10	1	-1E+10	1	-1E+10	1
4902624	42	C	08/15/2025	04:36	-129.334	48.977	0	147.00	0	8.0760	0	33.7360	0	26.272	0	145.702	0	-1e10	1	-1e10	1	-1E+10	1	-1e10	1	-1e10	1	-1E+10	1	-1E+10	1	-1E+10	1
4902624	42	C	08/15/2025	04:36	-129.334	48.977	0	147.30	0	8.0746	0	33.7366	0	26.273	0	145.999	0	84.6	4	29.2	4	-1E+10	1	0.0479	4	0.000437	0	-1E+10	1	-1E+10	1	-1E+10	1
4902624	42	C	08/15/2025	04:36	-129.334	48.977	0	148.20	0	8.0706	0	33.7384	0	26.275	0	146.890	0	84.3	4	29.2	4	-1E+10	1	0.0378	4	0.000318	0	-1E+10	1	-1E+10	1	-1E+10	1
4902624	42	C	08/15/2025	04:36	-129.334	48.977	0	149.00	0	8.0670	0	33.7400	0	26.277	0	147.683	0	-1e10	1	-1e10	1	-1E+10	1	-1e10	1	-1e10	1	-1E+10	1	-1E+10	1	-1E+10	1
4902624	42	C	08/15/2025	04:36	-129.334	48.977	0	149.10	0	8.0666	0	33.7401	0	26.277	0	147.782	0	84.1	4	29.1	4	-1E+10	1	0.0438	4	0.000318	0	-1E+10	1	-1E+10	1	-1E+10	1
4902624	42	C	08/15/2025	04:36	-129.334	48.977	0	150.10	0	8.0626	0	33.7411	0	26.278	0	148.773	0	83.9	4	29.0	4	-1E+10	1	0.0377	4	0.000308	0	-1E+10	1	-1E+10	1	-1E+10	1
4902624	42	C	08/15/2025	04:36	-129.334	48.977	0	151.00	0	8.0590	0	33.7420	0	26.280	0	149.665	0	81.5	4	28.2	4	-1E+10	1	0.0308	4	0.000407	0	-1E+10	1	-1E+10	1	-1E+10	1
4902624	42	C	08/15/2025	04:36	-129.334	48.977	0	151.90	0	8.0486	0	33.7452	0	26.284	0	150.556	0	83.4	4	28.8	4	-1E+10	1	0.0385	4	0.000391	0	-1E+10	1	-1E+10	1	-1E+10	1
4902624	42	C	08/15/2025	04:36	-129.334	48.977	0	152.90	0	8.0372	0	33.7486	0	26.288	0	151.547	0	83.2	4	28.8	4	-1E+10	1	0.0474	4	0.000359	0	-1E+10	1	-1E+10	1	-1E+10	1
4902624	42	C	08/15/2025	04:36	-129.334	48.977	0	153.00	0	8.0360	0	33.7490	0	26.289	0	151.646	0	-1e10	1	-1e10	1	-1E+10	1	-1e10	1	-1e10	1	-1E+10	1	-1E+10	1	-1E+10	1
4902624	42	C	08/15/2025	04:36	-129.334	48.977	0	153.80	0	8.0280	0	33.7514	0	26.292	0	152.439	0	83.0	4	28.7	4	-1E+10	1	0.0511	4	0.000353	0	-1E+10	1	-1E+10	1	-1E+10	1
4902624	42	C	08/15/2025	04:36	-129.334	48.977	0	154.80	0	8.0180	0	33.7544	0	26.296	0	153.430	0	82.8	4	28.6	4	-1E+10	1	0.0487	4	0.000342	0	-1E+10	1	-1E+10	1	-1E+10	1
4902624	42	C	08/15/2025	04:36	-129.334	48.977	0	155.00	0	8.0160	0	33.7550	0	26.296	0	153.628	0	-1e10	1	-1e10	1	-1E+10	1	-1e10	1	-1e10	1	-1E+10	1	-1E+10	1	-1E+10	1
4902624	42	C	08/15/2025	04:36	-129.334	48.977	0	155.80	0	8.0036	0	33.7590	0	26.301	0	154.420	0	82.5	4	28.5	4	-1E+10	1	0.0438	4	0.000316	0	-1E+10	1	-1E+10	1	-1E+10	1
4902624	42	C	08/15/2025	04:36	-129.334	48.977	0	156.70	0	7.9897	0	33.7635	0	26.307	0	155.312	0	82.3	4	28.4	4	-1E+10	1	0.0438	4	0.000306	0	-1E+10	1	-1E+10	1	-1E+10	1
4902624	42	C	08/15/2025	04:36	-129.334	48.977	0	157.00	0	7.9850	0	33.7650	0	26.309	0	155.609	0	-1e10	1	-1e10	1	-1E+10	1	-1e10	1	-1e10	1	-1E+10	1	-1E+10	1	-1E+10	1
4902624	42	C	08/15/2025	04:36	-129.334	48.977	0	157.70	0	7.9770	0	33.7678	0	26.312	0	156.303	0	82.2	4	28.4	4	-1E+10	1	0.0438	4	0.000342	0	-1E+10	1	-1E+10	1	-1E+10	1
4902624	42	C	08/15/2025	04:36	-129.334	48.977	0	158.70	0	7.9654	0	33.7718	0	26.317	0	157.294	0	82.0	4	28.3	4	-1E+10	1	0.0438	4	0.000302	0	-1E+10	1	-1E+10	1	-1E+10	1
4902624	42	C	08/15/2025	04:36	-129.334	48.977	0	159.00	0	7.9620	0	33.7730	0	26.318	0	157.591	0	-1e10	1	-1e10	1	-1E+10	1	-1e10	1	-1e10	1	-1E+10	1	-1E+10	1	-1E+10	1
4902624	42	C	08/15/2025	04:36	-129.334	48.977	0	159.60	0	7.9587	0	33.7742	0	26.320	0	158.185	0	81.8	4	28.2	4	-1E+10	1	0.0481	4	0.000295	0	-1E+10	1	-1E+10	1	-1E+10	1
4902624	42	C	08/15/2025	04:36	-129.334	48.977	0	160.60	0	7.9532	0	33.7762	0	26.322	0	159.176	0	81.8	4	28.2	4	-1E+10	1	0.0511	4	0.000288	0	-1E+10	1	-1E+10	1	-1E+10	1
4902624	42	C	08/15/2025	04:36	-129.334	48.977	0	161.00	0	7.9510	0	33.7770	0	26.323	0	159.572	0	-1e10	1	-1e10	1	-1E+10	1	-1e10	1	-1e10	1	-1E+10	1	-1E+10	1	-1E+10	1
4902624	42	C	08/15/2025	04:36	-129.334	48.977	0	161.60	0	7.9469	0	33.7779	0	26.325	0	160.167	0	81.7	4	28.2	4	-1E+10	1	0.0511	4	0.000302	0	-1E+10	1	-1E+10	1	-1E+10	1
4902624	42	C	08/15/2025	04:36	-129.334	48.977	0	162.50	0	7.9407	0	33.7794	0	26.327	0	161.059	0	81.5	4	28.1	4	-1E+10	1	0.0511	4	0.000330	0	-1E+10	1	-1E+10	1	-1E+10	1
4902624	42	C	08/15/2025	04:36	-129.334	48.977	0	162.90	0	7.9380	0	33.7800	0	26.327	0	161.455	0	-1e10	1	-1e10	1	-1E+10	1	-1e10	1	-1e10	1	-1E+10	1	-1E+10	1	-1E+10	1
4902624	42	C	08/15/2025	04:36	-129.334	48.977	0	163.50	0	7.9317	0	33.7812	0	26.329	0	162.049	0	81.4	4	28.1	4	-1E+10	1	0.0495	4	0.000377	0	-1E+10	1	-1E+10	1	-1E+10	1
4902624	42	C	08/15/2025	04:36	-129.334	48.977	0	164.40	0	7.9222	0	33.7830	0	26.332	0	162.941	0	81.3	4	28.0	4	-1E+10	1	0.0450	4	0.000439	0	-1E+10	1	-1E+10	1	-1E+10	1
4902624	42	C	08/15/2025	04:36	-129.334	48.977	0	164.90	0	7.9170	0	33.7840	0	26.334	0	163.436	0	-1e10	1	-1e10	1	-1E+10	1	-1e10	1	-1e10	1	-1E+10	1	-1E+10	1	-1E+10	1
4902624	42	C	08/15/2025	04:36	-129.334	48.977	0	165.40	0	7.9120	0	33.7854	0	26.336	0	163.932	0	81.1	4	28.0	4	-1E+10	1	0.0511	4	0.000342	0	-1E+10	1	-1E+10	1	-1E+10	1
4902624	42	C	08/15/2025	04:36	-129.334	48.977	0	166.40	0	7.9020	0	33.7883	0	26.339	0	164.922	0	80.9	4	27.9	4	-1E+10	1	0.0450	4	0.000723	0	-1E+10	1	-1E+10	1	-1E+10	1
4902624	42	C	08/15/2025	04:36	-129.334	48.977	0	167.00	0	7.8960	0	33.7900	0	26.342	0	165.517	0	-1e10	1	-1e10	1	-1E+10	1	-1e10	1	-1e10	1	-1E+10	1	-1E+10	1	-1E+10	1
4902624	42	C	08/15/2025	04:36	-129.334	48.977	0	167.40	0	7.8928	0	33.7908	0	26.343	0	165.913	0	80.7	4	27.8	4	-1E+10	1	0.0496	4	0.000414	0	-1E+10	1	-1E+10	1	-1E+10	1
4902624	42	C	08/15/2025	04:36	-129.334	48.977	0	168.40	0	7.8848	0	33.7928	0	26.345	0	166.904	0	80.5	4	27.8	4	-1E+10	1	0.0462	4	0.000341	0	-1E+10	1	-1E+10	1	-1E+10	1
4902624	42	C	08/15/2025	04:36	-129.334	48.977	0	169.00	0	7.8800	0	33.7940	0	26.347	0	167.498	0	-1e10	1	-1e10	1	-1E+10	1	-1e10	1	-1e10	1	-1E+10	1	-1E+10	1	-1E+10	1
4902624	42	C	08/15/2025	04:36	-129.334	48.977	0	169.40	0	7.8758	0	33.7952	0	26.349	0	167.895	0	80.4	4	27.7	4	-1E+10	1	0.0438	4	0.000353	0	-1E+10	1	-1E+10	1	-1E+10	1
4902624	42	C	08/15/2025	04:36	-129.334	48.977	0	170.50	0	7.8643	0	33.7985	0	26.353	0	168.984	0	80.2	4	27.6	4	-1E+10	1	0.0471	4	0.000353	0	-1E+10	1	-1E+10	1	-1E+10	1
4902624	42	C	08/15/2025	04:36	-129.334	48.977	0	171.00	0	7.8590	0	33.8000	0	26.355	0	169.480	0	-1e10	1	-1e10	1	-1E+10	1	-1e10	1	-1e10	1	-1E+10	1	-1E+10	1	-1E+10	1
4902624	42	C	08/15/2025	04:36	-129.334	48.977	0	171.50	0	7.8535	0	33.8014	0	26.357	0	169.975	0	80.1	4	27.6	4	-1E+10	1	0.0535	4	0.000338	0	-1E+10	1	-1E+10	1	-1E+10	1
4902624	42	C	08/15/2025	04:36	-129.334	48.977	0	172.50	0	7.8426	0	33.8043	0	26.361	0	170.966	0	79.9	4	27.5	4	-1E+10	1	0.0596	4	0.000312	0	-1E+10	1	-1E+10	1	-1E+10	1
4902624	42	C	08/15/2025	04:36	-129.334	48.977	0	173.10	0	7.8360	0	33.8060	0	26.363	0	171.560	0	-1e10	1	-1e10	1	-1E+10	1	-1e10	1	-1e10	1	-1E+10	1	-1E+10	1	-1E+10	1
4902624	42	C	08/15/2025	04:36	-129.334	48.977	0	173.50	0	7.8331	0	33.8064	0	26.364	0	171.956	0	79.7	4	27.4	4	-1E+10	1	0.0657	4	0.000341	0	-1E+10	1	-1E+10	1	-1E+10	1
4902624	42	C	08/15/2025	04:36	-129.334	48.977	0	174.60	0	7.8249	0	33.8076	0	26.366	0	173.046	0	79.5	4	27.3	4	-1E+10	1	0.0438	4	0.000553	0	-1E+10	1	-1E+10	1	-1E+10	1
4902624	42	C	08/15/2025	04:36	-129.334	48.977	0	175.00	0	7.8220	0	33.8080	0	26.367	0	173.442	0	-1e10	1	-1e10	1	-1E+10	1	-1e10	1	-1e10	1	-1E+10	1	-1E+10	1	-1E+10	1
4902624	42	C	08/15/2025	04:36	-129.334	48.977	0	175.60	0	7.8130	0	33.8104	0	26.370	0	174.037	0	79.2	4	27.3	4	-1E+10	1	0.0499	4	0.000347	0	-1E+10	1	-1E+10	1	-1E+10	1
4902624	42	C	08/15/2025	04:36	-129.334	48.977	0	176.70	0	7.7965	0	33.8148	0	26.376	0	175.127	0	79.1	4	27.2	4	-1E+10	1	0.0460	4	0.000339	0	-1E+10	1	-1E+10	1	-1E+10	1
4902624	42	C	08/15/2025	04:36	-129.334	48.977	0	177.00	0	7.7920	0	33.8160	0	26.377	0	175.424	0	-1e10	1	-1e10	1	-1E+10	1	-1e10	1	-1e10	1	-1E+10	1	-1E+10	1	-1E+10	1
4902624	42	C	08/15/2025	04:36	-129.334	48.977	0	177.70	0	7.7829	0	33.8185	0	26.380	0	176.117	0	78.9	4	27.1	4	-1E+10	1	0.0482	4	0.000332	0	-1E+10	1	-1E+10	1	-1E+10	1
4902624	42	C	08/15/2025	04:36	-129.334	48.977	0	178.80	0	7.7686	0	33.8223	0	26.386	0	177.207	0	78.8	4	27.1	4	-1E+10	1	0.0472	4	0.000318	0	-1E+10	1	-1E+10	1	-1E+10	1
4902624	42	C	08/15/2025	04:36	-129.334	48.977	0	179.00	0	7.7660	0	33.8230	0	26.387	0	177.405	0	-1e10	1	-1e10	1	-1E+10	1	-1e10	1	-1e10	1	-1E+10	1	-1E+10	1	-1E+10	1
4902624	42	C	08/15/2025	04:36	-129.334	48.977	0	179.80	0	7.7584	0	33.8242	0	26.389	0	178.198	0	78.6	4	27.0	4	-1E+10	1	0.0438	4	0.000322	0	-1E+10	1	-1E+10	1	-1E+10	1
4902624	42	C	08/15/2025	04:36	-129.334	48.977	0	180.90	0	7.7480	0	33.8259	0	26.391	0	179.287	0	78.5	4	27.0	4	-1E+10	1	0.0423	4	0.000327	0	-1E+10	1	-1E+10	1	-1E+10	1
4902624	42	C	08/15/2025	04:36	-129.334	48.977	0	181.00	0	7.7470	0	33.8260	0	26.392	0	179.386	0	-1e10	1	-1e10	1	-1E+10	1	-1e10	1	-1e10	1	-1E+10	1	-1E+10	1	-1E+10	1
4902624	42	C	08/15/2025	04:36	-129.334	48.977	0	181.90	0	7.7380	0	33.8269	0	26.394	0	180.278	0	78.2	4	26.9	4	-1E+10	1	0.0376	4	0.000320	0	-1E+10	1	-1E+10	1	-1E+10	1
4902624	42	C	08/15/2025	04:36	-129.334	48.977	0	183.00	0	7.7270	0	33.8280	0	26.396	0	181.368	0	75.8	4	26.0	4	-1E+10	1	0.0438	4	0.000329	0	-1E+10	1	-1E+10	1	-1E+10	1
4902624	42	C	08/15/2025	04:36	-129.334	48.977	0	184.00	0	7.7155	0	33.8310	0	26.400	0	182.358	0	77.5	4	26.6	4	-1E+10	1	0.0377	4	0.000349	0	-1E+10	1	-1E+10	1	-1E+10	1
4902624	42	C	08/15/2025	04:36	-129.334	48.977	0	185.00	0	7.7040	0	33.8340	0	26.404	0	183.349	0	-1e10	1	-1e10	1	-1E+10	1	-1e10	1	-1e10	1	-1E+10	1	-1E+10	1	-1E+10	1
4902624	42	C	08/15/2025	04:36	-129.334	48.977	0	185.10	0	7.7025	0	33.8344	0	26.405	0	183.448	0	77.1	4	26.5	4	-1E+10	1	0.0425	4	0.000315	0	-1E+10	1	-1E+10	1	-1E+10	1
4902624	42	C	08/15/2025	04:36	-129.334	48.977	0	186.20	0	7.6866	0	33.8388	0	26.410	0	184.538	0	76.8	4	26.4	4	-1E+10	1	0.0489	4	0.000330	0	-1E+10	1	-1E+10	1	-1E+10	1
4902624	42	C	08/15/2025	04:36	-129.334	48.977	0	187.00	0	7.6750	0	33.8420	0	26.415	0	185.330	0	-1e10	1	-1e10	1	-1E+10	1	-1e10	1	-1e10	1	-1E+10	1	-1E+10	1	-1E+10	1
4902624	42	C	08/15/2025	04:36	-129.334	48.977	0	187.20	0	7.6723	0	33.8425	0	26.415	0	185.528	0	76.7	4	26.3	4	-1E+10	1	0.0477	4	0.000330	0	-1E+10	1	-1E+10	1	-1E+10	1
4902624	42	C	08/15/2025	04:36	-129.334	48.977	0	188.30	0	7.6574	0	33.8452	0	26.420	0	186.618	0	76.5	4	26.2	4	-1E+10	1	0.0465	4	0.000318	0	-1E+10	1	-1E+10	1	-1E+10	1
4902624	42	C	08/15/2025	04:36	-129.334	48.977	0	189.00	0	7.6480	0	33.8470	0	26.423	0	187.311	0	-1e10	1	-1e10	1	-1E+10	1	-1e10	1	-1e10	1	-1E+10	1	-1E+10	1	-1E+10	1
4902624	42	C	08/15/2025	04:36	-129.334	48.977	0	189.40	0	7.6452	0	33.8474	0	26.423	0	187.708	0	76.2	4	26.1	4	-1E+10	1	0.0487	4	0.000341	0	-1E+10	1	-1E+10	1	-1E+10	1
4902624	42	C	08/15/2025	04:36	-129.334	48.977	0	190.50	0	7.6375	0	33.8485	0	26.425	0	188.797	0	76.0	4	26.0	4	-1E+10	1	0.0454	4	0.000376	0	-1E+10	1	-1E+10	1	-1E+10	1
4902624	42	C	08/15/2025	04:36	-129.334	48.977	0	191.00	0	7.6340	0	33.8490	0	26.426	0	189.293	0	-1e10	1	-1e10	1	-1E+10	1	-1e10	1	-1e10	1	-1E+10	1	-1E+10	1	-1E+10	1
4902624	42	C	08/15/2025	04:36	-129.334	48.977	0	191.60	0	7.6320	0	33.8493	0	26.427	0	189.887	0	75.7	4	25.9	4	-1E+10	1	0.0511	4	0.000330	0	-1E+10	1	-1E+10	1	-1E+10	1
4902624	42	C	08/15/2025	04:36	-129.334	48.977	0	192.70	0	7.6283	0	33.8498	0	26.428	0	190.977	0	75.3	4	25.8	4	-1E+10	1	0.0511	4	0.000341	0	-1E+10	1	-1E+10	1	-1E+10	1
4902624	42	C	08/15/2025	04:36	-129.334	48.977	0	193.10	0	7.6270	0	33.8500	0	26.428	0	191.373	0	-1e10	1	-1e10	1	-1E+10	1	-1e10	1	-1e10	1	-1E+10	1	-1E+10	1	-1E+10	1
4902624	42	C	08/15/2025	04:36	-129.334	48.977	0	193.70	0	7.6223	0	33.8513	0	26.430	0	191.967	0	74.9	4	25.7	4	-1E+10	1	0.0511	4	0.000331	0	-1E+10	1	-1E+10	1	-1E+10	1
4902624	42	C	08/15/2025	04:36	-129.334	48.977	0	194.80	0	7.6136	0	33.8536	0	26.433	0	193.057	0	74.6	4	25.5	4	-1E+10	1	0.0511	4	0.000330	0	-1E+10	1	-1E+10	1	-1E+10	1
4902624	42	C	08/15/2025	04:36	-129.334	48.977	0	195.00	0	7.6120	0	33.8540	0	26.433	0	193.255	0	-1e10	1	-1e10	1	-1E+10	1	-1e10	1	-1e10	1	-1E+10	1	-1E+10	1	-1E+10	1
4902624	42	C	08/15/2025	04:36	-129.334	48.977	0	195.90	0	7.6012	0	33.8563	0	26.437	0	194.147	0	74.3	4	25.4	4	-1E+10	1	0.0467	4	0.000315	0	-1E+10	1	-1E+10	1	-1E+10	1
4902624	42	C	08/15/2025	04:36	-129.334	48.977	0	197.00	0	7.5880	0	33.8590	0	26.441	0	195.236	0	72.1	4	24.7	4	-1E+10	1	0.0438	4	0.000335	0	-1E+10	1	-1E+10	1	-1E+10	1
4902624	42	C	08/15/2025	04:36	-129.334	48.977	0	198.10	0	7.5775	0	33.8612	0	26.444	0	196.326	0	73.8	4	25.3	4	-1E+10	1	0.0416	4	0.000350	0	-1E+10	1	-1E+10	1	-1E+10	1
4902624	42	C	08/15/2025	04:36	-129.334	48.977	0	199.00	0	7.5690	0	33.8630	0	26.447	0	197.217	0	-1e10	1	-1e10	1	-1E+10	1	-1e10	1	-1e10	1	-1E+10	1	-1E+10	1	-1E+10	1
4902624	42	C	08/15/2025	04:36	-129.334	48.977	0	199.20	0	7.5674	0	33.8633	0	26.447	0	197.415	0	73.6	4	25.2	4	-1E+10	1	0.0392	4	0.000323	0	-1E+10	1	-1E+10	1	-1E+10	1
4902624	42	C	08/15/2025	04:36	-129.334	48.977	0	200.30	0	7.5587	0	33.8651	0	26.450	0	198.505	0	73.3	4	25.1	4	-1E+10	1	0.0500	4	0.000486	0	-1E+10	1	-1E+10	1	-1E+10	1
4902624	42	C	08/15/2025	04:36	-129.334	48.977	0	200.90	0	7.5540	0	33.8660	0	26.451	0	199.099	0	-1e10	1	-1e10	1	-1E+10	1	-1e10	1	-1e10	1	-1E+10	1	-1E+10	1	-1E+10	1
4902624	42	C	08/15/2025	04:36	-129.334	48.977	0	201.40	0	7.5525	0	33.8662	0	26.451	0	199.595	0	73.0	4	25.0	4	-1E+10	1	0.0438	4	0.001221	0	-1E+10	1	-1E+10	1	-1E+10	1
4902624	42	C	08/15/2025	04:36	-129.334	48.977	0	202.50	0	7.5492	0	33.8668	0	26.452	0	200.684	0	72.7	4	24.9	4	-1E+10	1	0.0376	4	0.000486	0	-1E+10	1	-1E+10	1	-1E+10	1
4902624	42	C	08/15/2025	04:36	-129.334	48.977	0	202.90	0	7.5480	0	33.8670	0	26.453	0	201.081	0	-1e10	1	-1e10	1	-1E+10	1	-1e10	1	-1e10	1	-1E+10	1	-1E+10	1	-1E+10	1
4902624	42	C	08/15/2025	04:36	-129.334	48.977	0	203.60	0	7.5453	0	33.8673	0	26.453	0	201.774	0	72.3	4	24.7	4	-1E+10	1	0.0474	4	0.000362	0	-1E+10	1	-1E+10	1	-1E+10	1
4902624	42	C	08/15/2025	04:36	-129.334	48.977	0	204.70	0	7.5411	0	33.8679	0	26.454	0	202.864	0	72.0	4	24.6	4	-1E+10	1	0.0556	4	0.000321	0	-1E+10	1	-1E+10	1	-1E+10	1
4902624	42	C	08/15/2025	04:36	-129.334	48.977	0	205.00	0	7.5400	0	33.8680	0	26.455	0	203.161	0	-1e10	1	-1e10	1	-1E+10	1	-1e10	1	-1e10	1	-1E+10	1	-1E+10	1	-1E+10	1
4902624	42	C	08/15/2025	04:36	-129.334	48.977	0	205.80	0	7.5312	0	33.8701	0	26.458	0	203.953	0	71.7	4	24.5	4	-1E+10	1	0.0504	4	0.000326	0	-1E+10	1	-1E+10	1	-1E+10	1
4902624	42	C	08/15/2025	04:36	-129.334	48.977	0	206.90	0	7.5190	0	33.8730	0	26.462	0	205.043	0	69.5	4	23.8	4	-1E+10	1	0.0438	4	0.000327	0	-1E+10	1	-1E+10	1	-1E+10	1
4902624	42	C	08/15/2025	04:36	-129.334	48.977	0	208.00	0	7.5058	0	33.8757	0	26.466	0	206.132	0	71.2	4	24.3	4	-1E+10	1	0.0438	4	0.000317	0	-1E+10	1	-1E+10	1	-1E+10	1
4902624	42	C	08/15/2025	04:36	-129.334	48.977	0	208.90	0	7.4950	0	33.8780	0	26.469	0	207.024	0	-1e10	1	-1e10	1	-1E+10	1	-1e10	1	-1e10	1	-1E+10	1	-1E+10	1	-1E+10	1
4902624	42	C	08/15/2025	04:36	-129.334	48.977	0	209.10	0	7.4920	0	33.8785	0	26.470	0	207.222	0	70.9	4	24.2	4	-1E+10	1	0.0483	4	0.000329	0	-1E+10	1	-1E+10	1	-1E+10	1
4902624	42	C	08/15/2025	04:36	-129.334	48.977	0	210.20	0	7.4755	0	33.8812	0	26.474	0	208.311	0	70.7	4	24.1	4	-1E+10	1	0.0557	4	0.000334	0	-1E+10	1	-1E+10	1	-1E+10	1
4902624	42	C	08/15/2025	04:36	-129.334	48.977	0	210.90	0	7.4650	0	33.8830	0	26.477	0	209.005	0	-1e10	1	-1e10	1	-1E+10	1	-1e10	1	-1e10	1	-1E+10	1	-1E+10	1	-1E+10	1
4902624	42	C	08/15/2025	04:36	-129.334	48.977	0	211.40	0	7.4637	0	33.8830	0	26.477	0	209.500	0	70.3	4	24.0	4	-1E+10	1	0.0438	4	0.000348	0	-1E+10	1	-1E+10	1	-1E+10	1
4902624	42	C	08/15/2025	04:36	-129.334	48.977	0	212.50	0	7.4610	0	33.8830	0	26.478	0	210.590	0	69.9	4	23.9	4	-1E+10	1	0.0438	4	0.000329	0	-1E+10	1	-1E+10	1	-1E+10	1
4902624	42	C	08/15/2025	04:36	-129.334	48.977	0	212.90	0	7.4600	0	33.8830	0	26.478	0	210.986	0	-1e10	1	-1e10	1	-1E+10	1	-1e10	1	-1e10	1	-1E+10	1	-1E+10	1	-1E+10	1
4902624	42	C	08/15/2025	04:36	-129.334	48.977	0	213.60	0	7.4548	0	33.8848	0	26.480	0	211.679	0	69.6	4	23.8	4	-1E+10	1	0.0500	4	0.000319	0	-1E+10	1	-1E+10	1	-1E+10	1
4902624	42	C	08/15/2025	04:36	-129.334	48.977	0	214.70	0	7.4465	0	33.8875	0	26.483	0	212.769	0	69.3	4	23.7	4	-1E+10	1	0.0511	4	0.000346	0	-1E+10	1	-1E+10	1	-1E+10	1
4902624	42	C	08/15/2025	04:36	-129.334	48.977	0	214.90	0	7.4450	0	33.8880	0	26.484	0	212.967	0	-1e10	1	-1e10	1	-1E+10	1	-1e10	1	-1e10	1	-1E+10	1	-1E+10	1	-1E+10	1
4902624	42	C	08/15/2025	04:36	-129.334	48.977	0	215.90	0	7.4374	0	33.8899	0	26.487	0	213.957	0	69.1	4	23.6	4	-1E+10	1	0.0563	4	0.000336	0	-1E+10	1	-1E+10	1	-1E+10	1
4902624	42	C	08/15/2025	04:36	-129.334	48.977	0	217.00	0	7.4290	0	33.8920	0	26.489	0	215.047	0	67.2	4	22.9	4	-1E+10	1	0.0623	4	0.000329	0	-1E+10	1	-1E+10	1	-1E+10	1
4902624	42	C	08/15/2025	04:36	-129.334	48.977	0	218.10	0	7.4235	0	33.8931	0	26.491	0	216.136	0	68.9	4	23.5	4	-1E+10	1	0.0566	4	0.000315	0	-1E+10	1	-1E+10	1	-1E+10	1
4902624	42	C	08/15/2025	04:36	-129.334	48.977	0	219.00	0	7.4190	0	33.8940	0	26.492	0	217.028	0	-1e10	1	-1e10	1	-1E+10	1	-1e10	1	-1e10	1	-1E+10	1	-1E+10	1	-1E+10	1
4902624	42	C	08/15/2025	04:36	-129.334	48.977	0	219.20	0	7.4176	0	33.8942	0	26.493	0	217.226	0	68.9	4	23.5	4	-1E+10	1	0.0438	4	0.000301	0	-1E+10	1	-1E+10	1	-1E+10	1
4902624	42	C	08/15/2025	04:36	-129.334	48.977	0	220.30	0	7.4099	0	33.8953	0	26.495	0	218.315	0	68.9	4	23.5	4	-1E+10	1	0.0438	4	0.000319	0	-1E+10	1	-1E+10	1	-1E+10	1
4902624	42	C	08/15/2025	04:36	-129.334	48.977	0	221.00	0	7.4050	0	33.8960	0	26.496	0	219.009	0	-1e10	1	-1e10	1	-1E+10	1	-1e10	1	-1e10	1	-1E+10	1	-1E+10	1	-1E+10	1
4902624	42	C	08/15/2025	04:36	-129.334	48.977	0	221.50	0	7.3998	0	33.8968	0	26.497	0	219.504	0	68.9	4	23.5	4	-1E+10	1	0.0438	4	0.000329	0	-1E+10	1	-1E+10	1	-1E+10	1
4902624	42	C	08/15/2025	04:36	-129.334	48.977	0	222.60	0	7.3882	0	33.8984	0	26.500	0	220.593	0	68.9	4	23.5	4	-1E+10	1	0.0438	4	0.000271	0	-1E+10	1	-1E+10	1	-1E+10	1
4902624	42	C	08/15/2025	04:36	-129.334	48.977	0	223.00	0	7.3840	0	33.8990	0	26.501	0	220.990	0	-1e10	1	-1e10	1	-1E+10	1	-1e10	1	-1e10	1	-1E+10	1	-1E+10	1	-1E+10	1
4902624	42	C	08/15/2025	04:36	-129.334	48.977	0	223.70	0	7.3742	0	33.9007	0	26.504	0	221.683	0	68.9	4	23.5	4	-1E+10	1	0.0495	4	0.000307	0	-1E+10	1	-1E+10	1	-1E+10	1
4902624	42	C	08/15/2025	04:36	-129.334	48.977	0	224.90	0	7.3574	0	33.9037	0	26.509	0	222.871	0	69.0	4	23.5	4	-1E+10	1	0.0511	4	0.000318	0	-1E+10	1	-1E+10	1	-1E+10	1
4902624	42	C	08/15/2025	04:36	-129.334	48.977	0	225.00	0	7.3560	0	33.9040	0	26.509	0	222.970	0	-1e10	1	-1e10	1	-1E+10	1	-1e10	1	-1e10	1	-1E+10	1	-1E+10	1	-1E+10	1
4902624	42	C	08/15/2025	04:36	-129.334	48.977	0	226.00	0	7.3471	0	33.9045	0	26.511	0	223.961	0	69.2	4	23.6	4	-1E+10	1	0.0511	4	0.000345	0	-1E+10	1	-1E+10	1	-1E+10	1
4902624	42	C	08/15/2025	04:36	-129.334	48.977	0	226.90	0	7.3390	0	33.9050	0	26.512	0	224.852	0	-1e10	1	-1e10	1	-1E+10	1	-1e10	1	-1e10	1	-1E+10	1	-1E+10	1	-1E+10	1
4902624	42	C	08/15/2025	04:36	-129.334	48.977	0	227.20	0	7.3376	0	33.9050	0	26.513	0	225.149	0	69.2	4	23.6	4	-1E+10	1	0.0474	4	0.000341	0	-1E+10	1	-1E+10	1	-1E+10	1
4902624	42	C	08/15/2025	04:36	-129.334	48.977	0	228.30	0	7.3323	0	33.9050	0	26.513	0	226.239	0	69.2	4	23.6	4	-1E+10	1	0.0483	4	0.000314	0	-1E+10	1	-1E+10	1	-1E+10	1
4902624	42	C	08/15/2025	04:36	-129.334	48.977	0	229.00	0	7.3290	0	33.9050	0	26.514	0	226.932	0	-1e10	1	-1e10	1	-1E+10	1	-1e10	1	-1e10	1	-1E+10	1	-1E+10	1	-1E+10	1
4902624	42	C	08/15/2025	04:36	-129.334	48.977	0	229.40	0	7.3214	0	33.9062	0	26.516	0	227.328	0	69.2	4	23.6	4	-1E+10	1	0.0572	4	0.000306	0	-1E+10	1	-1E+10	1	-1E+10	1
4902624	42	C	08/15/2025	04:36	-129.334	48.977	0	230.60	0	7.2986	0	33.9098	0	26.522	0	228.517	0	69.3	4	23.6	4	-1E+10	1	0.0500	4	0.000302	0	-1E+10	1	-1E+10	1	-1E+10	1
4902624	42	C	08/15/2025	04:36	-129.334	48.977	0	231.00	0	7.2910	0	33.9110	0	26.524	0	228.913	0	-1e10	1	-1e10	1	-1E+10	1	-1e10	1	-1e10	1	-1E+10	1	-1E+10	1	-1E+10	1
4902624	42	C	08/15/2025	04:36	-129.334	48.977	0	231.70	0	7.2826	0	33.9117	0	26.526	0	229.606	0	69.4	4	23.6	4	-1E+10	1	0.0438	4	0.000282	0	-1E+10	1	-1E+10	1	-1E+10	1
4902624	42	C	08/15/2025	04:36	-129.334	48.977	0	232.90	0	7.2682	0	33.9129	0	26.529	0	230.795	0	69.5	4	23.7	4	-1E+10	1	0.0438	4	0.000302	0	-1E+10	1	-1E+10	1	-1E+10	1
4902624	42	C	08/15/2025	04:36	-129.334	48.977	0	233.00	0	7.2670	0	33.9130	0	26.529	0	230.894	0	-1e10	1	-1e10	1	-1E+10	1	-1e10	1	-1e10	1	-1E+10	1	-1E+10	1	-1E+10	1
4902624	42	C	08/15/2025	04:36	-129.334	48.977	0	234.00	0	7.2505	0	33.9145	0	26.532	0	231.884	0	69.6	4	23.7	4	-1E+10	1	0.0493	4	0.000306	0	-1E+10	1	-1E+10	1	-1E+10	1
4902624	42	C	08/15/2025	04:36	-129.334	48.977	0	235.00	0	7.2340	0	33.9160	0	26.536	0	232.875	0	-1e10	1	-1e10	1	-1E+10	1	-1e10	1	-1e10	1	-1E+10	1	-1E+10	1	-1E+10	1
4902624	42	C	08/15/2025	04:36	-129.334	48.977	0	235.20	0	7.2321	0	33.9160	0	26.536	0	233.073	0	69.6	4	23.6	4	-1E+10	1	0.0558	4	0.000298	0	-1E+10	1	-1E+10	1	-1E+10	1
4902624	42	C	08/15/2025	04:36	-129.334	48.977	0	236.40	0	7.2207	0	33.9160	0	26.538	0	234.261	0	69.4	4	23.6	4	-1E+10	1	0.0620	4	0.000312	0	-1E+10	1	-1E+10	1	-1E+10	1
4902624	42	C	08/15/2025	04:36	-129.334	48.977	0	237.00	0	7.2150	0	33.9160	0	26.539	0	234.855	0	-1e10	1	-1e10	1	-1E+10	1	-1e10	1	-1e10	1	-1E+10	1	-1E+10	1	-1E+10	1
4902624	42	C	08/15/2025	04:36	-129.334	48.977	0	237.50	0	7.2105	0	33.9170	0	26.540	0	235.351	0	69.3	4	23.5	4	-1E+10	1	0.0630	4	0.000308	0	-1E+10	1	-1E+10	1	-1E+10	1
4902624	42	C	08/15/2025	04:36	-129.334	48.977	0	238.70	0	7.1997	0	33.9194	0	26.543	0	236.539	0	69.3	4	23.5	4	-1E+10	1	0.0560	4	0.000278	0	-1E+10	1	-1E+10	1	-1E+10	1
4902624	42	C	08/15/2025	04:36	-129.334	48.977	0	239.00	0	7.1970	0	33.9200	0	26.544	0	236.836	0	-1e10	1	-1e10	1	-1E+10	1	-1e10	1	-1e10	1	-1E+10	1	-1E+10	1	-1E+10	1
4902624	42	C	08/15/2025	04:36	-129.334	48.977	0	239.90	0	7.1862	0	33.9213	0	26.547	0	237.727	0	69.4	4	23.6	4	-1E+10	1	0.0511	4	0.000302	0	-1E+10	1	-1E+10	1	-1E+10	1
4902624	42	C	08/15/2025	04:36	-129.334	48.977	0	241.00	0	7.1730	0	33.9230	0	26.550	0	238.817	0	-1e10	1	-1e10	1	-1E+10	1	-1e10	1	-1e10	1	-1E+10	1	-1E+10	1	-1E+10	1
4902624	42	C	08/15/2025	04:36	-129.334	48.977	0	241.10	0	7.1721	0	33.9230	0	26.550	0	238.916	0	69.4	4	23.6	4	-1E+10	1	0.0511	4	0.000353	0	-1E+10	1	-1E+10	1	-1E+10	1
4902624	42	C	08/15/2025	04:36	-129.334	48.977	0	242.30	0	7.1613	0	33.9236	0	26.552	0	240.104	0	69.5	4	23.6	4	-1E+10	1	0.0438	4	0.000306	0	-1E+10	1	-1E+10	1	-1E+10	1
4902624	42	C	08/15/2025	04:36	-129.334	48.977	0	243.00	0	7.1550	0	33.9240	0	26.553	0	240.798	0	-1e10	1	-1e10	1	-1E+10	1	-1e10	1	-1e10	1	-1E+10	1	-1E+10	1	-1E+10	1
4902624	42	C	08/15/2025	04:36	-129.334	48.977	0	243.50	0	7.1493	0	33.9245	0	26.554	0	241.293	0	69.5	4	23.6	4	-1E+10	1	0.0438	4	0.000296	0	-1E+10	1	-1E+10	1	-1E+10	1
4902624	42	C	08/15/2025	04:36	-129.334	48.977	0	244.70	0	7.1354	0	33.9257	0	26.557	0	242.481	0	69.5	4	23.6	4	-1E+10	1	0.0438	4	0.000309	0	-1E+10	1	-1E+10	1	-1E+10	1
4902624	42	C	08/15/2025	04:36	-129.334	48.977	0	245.00	0	7.1320	0	33.9260	0	26.558	0	242.778	0	-1e10	1	-1e10	1	-1E+10	1	-1e10	1	-1e10	1	-1E+10	1	-1E+10	1	-1E+10	1
4902624	42	C	08/15/2025	04:36	-129.334	48.977	0	245.90	0	7.1239	0	33.9264	0	26.559	0	243.670	0	69.5	4	23.6	4	-1E+10	1	0.0481	4	0.000290	0	-1E+10	1	-1E+10	1	-1E+10	1
4902624	42	C	08/15/2025	04:36	-129.334	48.977	0	247.00	0	7.1140	0	33.9270	0	26.561	0	244.759	0	-1e10	1	-1e10	1	-1E+10	1	-1e10	1	-1e10	1	-1E+10	1	-1E+10	1	-1E+10	1
4902624	42	C	08/15/2025	04:36	-129.334	48.977	0	247.10	0	7.1133	0	33.9271	0	26.561	0	244.858	0	69.4	4	23.5	4	-1E+10	1	0.0402	4	0.000294	0	-1E+10	1	-1E+10	1	-1E+10	1
4902624	42	C	08/15/2025	04:36	-129.334	48.977	0	248.30	0	7.1044	0	33.9277	0	26.563	0	246.046	0	69.4	4	23.5	4	-1E+10	1	0.0341	4	0.000306	0	-1E+10	1	-1E+10	1	-1E+10	1
4902624	42	C	08/15/2025	04:36	-129.334	48.977	0	248.90	0	7.1000	0	33.9280	0	26.564	0	246.641	0	-1e10	1	-1e10	1	-1E+10	1	-1e10	1	-1e10	1	-1E+10	1	-1E+10	1	-1E+10	1
4902624	42	C	08/15/2025	04:36	-129.334	48.977	0	249.50	0	7.0960	0	33.9283	0	26.565	0	247.235	0	69.4	4	23.5	4	-1E+10	1	0.0438	4	0.000280	0	-1E+10	1	-1E+10	1	-1E+10	1
4902624	42	C	08/15/2025	04:36	-129.334	48.977	0	250.80	0	7.0873	0	33.9289	0	26.566	0	248.522	0	69.4	4	23.5	4	-1E+10	1	0.0438	4	0.000273	0	-1E+10	1	-1E+10	1	-1E+10	1
4902624	42	C	08/15/2025	04:36	-129.334	48.977	0	251.00	0	7.0860	0	33.9290	0	26.567	0	248.720	0	-1e10	1	-1e10	1	-1E+10	1	-1e10	1	-1e10	1	-1E+10	1	-1E+10	1	-1E+10	1
4902624	42	C	08/15/2025	04:36	-129.334	48.977	0	252.00	0	7.0698	0	33.9309	0	26.570	0	249.711	0	69.4	4	23.5	4	-1E+10	1	0.0438	4	0.000282	0	-1E+10	1	-1E+10	1	-1E+10	1
4902624	42	C	08/15/2025	04:36	-129.334	48.977	0	253.10	0	7.0520	0	33.9330	0	26.575	0	250.800	0	-1e10	1	-1e10	1	-1E+10	1	-1e10	1	-1e10	1	-1E+10	1	-1E+10	1	-1E+10	1
4902624	42	C	08/15/2025	04:36	-129.334	48.977	0	253.20	0	7.0510	0	33.9331	0	26.575	0	250.899	0	69.4	4	23.5	4	-1E+10	1	0.0438	4	0.000282	0	-1E+10	1	-1E+10	1	-1E+10	1
4902624	42	C	08/15/2025	04:36	-129.334	48.977	0	254.40	0	7.0390	0	33.9344	0	26.577	0	252.087	0	69.4	4	23.5	4	-1E+10	1	0.0494	4	0.000273	0	-1E+10	1	-1E+10	1	-1E+10	1
4902624	42	C	08/15/2025	04:36	-129.334	48.977	0	255.00	0	7.0330	0	33.9350	0	26.579	0	252.682	0	-1e10	1	-1e10	1	-1E+10	1	-1e10	1	-1e10	1	-1E+10	1	-1E+10	1	-1E+10	1
4902624	42	C	08/15/2025	04:36	-129.334	48.977	0	255.60	0	7.0279	0	33.9353	0	26.580	0	253.276	0	69.4	4	23.5	4	-1E+10	1	0.0511	4	0.000278	0	-1E+10	1	-1E+10	1	-1E+10	1
4902624	42	C	08/15/2025	04:36	-129.334	48.977	0	256.90	0	7.0168	0	33.9360	0	26.582	0	254.563	0	69.4	4	23.5	4	-1E+10	1	0.0472	4	0.000276	0	-1E+10	1	-1E+10	1	-1E+10	1
4902624	42	C	08/15/2025	04:36	-129.334	48.977	0	257.00	0	7.0160	0	33.9360	0	26.582	0	254.662	0	-1e10	1	-1e10	1	-1E+10	1	-1e10	1	-1e10	1	-1E+10	1	-1E+10	1	-1E+10	1
4902624	42	C	08/15/2025	04:36	-129.334	48.977	0	258.10	0	7.0105	0	33.9360	0	26.583	0	255.751	0	69.5	4	23.5	4	-1E+10	1	0.0438	4	0.000280	0	-1E+10	1	-1E+10	1	-1E+10	1
4902624	42	C	08/15/2025	04:36	-129.334	48.977	0	259.00	0	7.0060	0	33.9360	0	26.583	0	256.643	0	-1e10	1	-1e10	1	-1E+10	1	-1e10	1	-1e10	1	-1E+10	1	-1E+10	1	-1E+10	1
4902624	42	C	08/15/2025	04:36	-129.334	48.977	0	259.30	0	7.0037	0	33.9363	0	26.584	0	256.940	0	69.5	4	23.5	4	-1E+10	1	0.0487	4	0.000298	0	-1E+10	1	-1E+10	1	-1E+10	1
4902624	42	C	08/15/2025	04:36	-129.334	48.977	0	260.60	0	6.9940	0	33.9376	0	26.586	0	258.227	0	69.6	4	23.5	4	-1E+10	1	0.0570	4	0.000308	0	-1E+10	1	-1E+10	1	-1E+10	1
4902624	42	C	08/15/2025	04:36	-129.334	48.977	0	261.00	0	6.9910	0	33.9380	0	26.587	0	258.623	0	-1e10	1	-1e10	1	-1E+10	1	-1e10	1	-1e10	1	-1E+10	1	-1E+10	1	-1E+10	1
4902624	42	C	08/15/2025	04:36	-129.334	48.977	0	261.90	0	6.9825	0	33.9384	0	26.588	0	259.514	0	69.7	4	23.6	4	-1E+10	1	0.0511	4	0.000317	0	-1E+10	1	-1E+10	1	-1E+10	1
4902624	42	C	08/15/2025	04:36	-129.334	48.977	0	263.00	0	6.9720	0	33.9390	0	26.590	0	260.604	0	-1e10	1	-1e10	1	-1E+10	1	-1e10	1	-1e10	1	-1E+10	1	-1E+10	1	-1E+10	1
4902624	42	C	08/15/2025	04:36	-129.334	48.977	0	263.10	0	6.9704	0	33.9391	0	26.591	0	260.703	0	69.8	4	23.6	4	-1E+10	1	0.0511	4	0.000270	0	-1E+10	1	-1E+10	1	-1E+10	1
4902624	42	C	08/15/2025	04:36	-129.334	48.977	0	264.40	0	6.9503	0	33.9404	0	26.594	0	261.990	0	69.8	4	23.6	4	-1E+10	1	0.0448	4	0.000301	0	-1E+10	1	-1E+10	1	-1E+10	1
4902624	42	C	08/15/2025	04:36	-129.334	48.977	0	265.00	0	6.9410	0	33.9410	0	26.596	0	262.584	0	-1e10	1	-1e10	1	-1E+10	1	-1e10	1	-1e10	1	-1E+10	1	-1E+10	1	-1E+10	1
4902624	42	C	08/15/2025	04:36	-129.334	48.977	0	265.60	0	6.9338	0	33.9413	0	26.597	0	263.178	0	69.8	4	23.6	4	-1E+10	1	0.0535	4	0.000298	0	-1E+10	1	-1E+10	1	-1E+10	1
4902624	42	C	08/15/2025	04:36	-129.334	48.977	0	266.90	0	6.9182	0	33.9420	0	26.600	0	264.466	0	69.9	4	23.6	4	-1E+10	1	0.0539	4	0.000286	0	-1E+10	1	-1E+10	1	-1E+10	1
4902624	42	C	08/15/2025	04:36	-129.334	48.977	0	267.00	0	6.9170	0	33.9420	0	26.600	0	264.565	0	-1e10	1	-1e10	1	-1E+10	1	-1e10	1	-1e10	1	-1E+10	1	-1E+10	1	-1E+10	1
4902624	42	C	08/15/2025	04:36	-129.334	48.977	0	268.10	0	6.9098	0	33.9426	0	26.602	0	265.654	0	70.0	4	23.6	4	-1E+10	1	0.0511	4	0.000293	0	-1E+10	1	-1E+10	1	-1E+10	1
4902624	42	C	08/15/2025	04:36	-129.334	48.977	0	269.00	0	6.9040	0	33.9430	0	26.603	0	266.545	0	-1e10	1	-1e10	1	-1E+10	1	-1e10	1	-1e10	1	-1E+10	1	-1E+10	1	-1E+10	1
4902624	42	C	08/15/2025	04:36	-129.334	48.977	0	269.40	0	6.8994	0	33.9434	0	26.604	0	266.941	0	70.1	4	23.7	4	-1E+10	1	0.0560	4	0.000286	0	-1E+10	1	-1E+10	1	-1E+10	1
4902624	42	C	08/15/2025	04:36	-129.334	48.977	0	270.60	0	6.8856	0	33.9446	0	26.607	0	268.130	0	70.3	4	23.7	4	-1E+10	1	0.0645	4	0.000249	0	-1E+10	1	-1E+10	1	-1E+10	1
4902624	42	C	08/15/2025	04:36	-129.334	48.977	0	271.00	0	6.8810	0	33.9450	0	26.607	0	268.526	0	-1e10	1	-1e10	1	-1E+10	1	-1e10	1	-1e10	1	-1E+10	1	-1E+10	1	-1E+10	1
4902624	42	C	08/15/2025	04:36	-129.334	48.977	0	271.90	0	6.8711	0	33.9450	0	26.609	0	269.417	0	70.4	4	23.7	4	-1E+10	1	0.0569	4	0.000261	0	-1E+10	1	-1E+10	1	-1E+10	1
4902624	42	C	08/15/2025	04:36	-129.334	48.977	0	273.00	0	6.8590	0	33.9450	0	26.610	0	270.506	0	-1e10	1	-1e10	1	-1E+10	1	-1e10	1	-1e10	1	-1E+10	1	-1E+10	1	-1E+10	1
4902624	42	C	08/15/2025	04:36	-129.334	48.977	0	273.10	0	6.8579	0	33.9451	0	26.611	0	270.605	0	70.7	4	23.8	4	-1E+10	1	0.0511	4	0.000270	0	-1E+10	1	-1E+10	1	-1E+10	1
4902624	42	C	08/15/2025	04:36	-129.334	48.977	0	274.40	0	6.8429	0	33.9464	0	26.614	0	271.892	0	70.9	4	23.9	4	-1E+10	1	0.0452	4	0.000270	0	-1E+10	1	-1E+10	1	-1E+10	1
4902624	42	C	08/15/2025	04:36	-129.334	48.977	0	275.00	0	6.8360	0	33.9470	0	26.615	0	272.487	0	-1e10	1	-1e10	1	-1E+10	1	-1e10	1	-1e10	1	-1E+10	1	-1E+10	1	-1E+10	1
4902624	42	C	08/15/2025	04:36	-129.334	48.977	0	275.60	0	6.8289	0	33.9470	0	26.616	0	273.081	0	71.1	4	24.0	4	-1E+10	1	0.0438	4	0.000288	0	-1E+10	1	-1E+10	1	-1E+10	1
4902624	42	C	08/15/2025	04:36	-129.334	48.977	0	276.90	0	6.8134	0	33.9470	0	26.618	0	274.368	0	71.4	4	24.1	4	-1E+10	1	0.0438	4	0.000286	0	-1E+10	1	-1E+10	1	-1E+10	1
4902624	42	C	08/15/2025	04:36	-129.334	48.977	0	277.10	0	6.8110	0	33.9470	0	26.619	0	274.566	0	-1e10	1	-1e10	1	-1E+10	1	-1e10	1	-1e10	1	-1E+10	1	-1E+10	1	-1E+10	1
4902624	42	C	08/15/2025	04:36	-129.334	48.977	0	278.20	0	6.7977	0	33.9453	0	26.619	0	275.655	0	71.6	4	24.1	4	-1E+10	1	0.0474	4	0.000269	0	-1E+10	1	-1E+10	1	-1E+10	1
4902624	42	C	08/15/2025	04:36	-129.334	48.977	0	279.00	0	6.7880	0	33.9440	0	26.619	0	276.447	0	-1e10	1	-1e10	1	-1E+10	1	-1e10	1	-1e10	1	-1E+10	1	-1E+10	1	-1E+10	1
4902624	42	C	08/15/2025	04:36	-129.334	48.977	0	279.50	0	6.7841	0	33.9437	0	26.620	0	276.942	0	71.7	4	24.1	4	-1E+10	1	0.0511	4	0.000271	0	-1E+10	1	-1E+10	1	-1E+10	1
4902624	42	C	08/15/2025	04:36	-129.334	48.977	0	280.80	0	6.7738	0	33.9431	0	26.620	0	278.230	0	71.7	4	24.1	4	-1E+10	1	0.0462	4	0.000286	0	-1E+10	1	-1E+10	1	-1E+10	1
4902624	42	C	08/15/2025	04:36	-129.334	48.977	0	280.90	0	6.7730	0	33.9430	0	26.621	0	278.329	0	-1e10	1	-1e10	1	-1E+10	1	-1e10	1	-1e10	1	-1E+10	1	-1E+10	1	-1E+10	1
4902624	42	C	08/15/2025	04:36	-129.334	48.977	0	282.00	0	6.7719	0	33.9441	0	26.622	0	279.418	0	71.8	4	24.1	4	-1E+10	1	0.0375	4	0.000268	0	-1E+10	1	-1E+10	1	-1E+10	1
4902624	42	C	08/15/2025	04:36	-129.334	48.977	0	282.90	0	6.7710	0	33.9450	0	26.622	0	280.309	0	-1e10	1	-1e10	1	-1E+10	1	-1e10	1	-1e10	1	-1E+10	1	-1E+10	1	-1E+10	1
4902624	42	C	08/15/2025	04:36	-129.334	48.977	0	283.30	0	6.7649	0	33.9448	0	26.623	0	280.705	0	72.0	4	24.2	4	-1E+10	1	0.0438	4	0.000258	0	-1E+10	1	-1E+10	1	-1E+10	1
4902624	42	C	08/15/2025	04:36	-129.334	48.977	0	284.60	0	6.7451	0	33.9442	0	26.625	0	281.992	0	72.1	4	24.2	4	-1E+10	1	0.0584	4	0.000282	0	-1E+10	1	-1E+10	1	-1E+10	1
4902624	42	C	08/15/2025	04:36	-129.334	48.977	0	285.00	0	6.7390	0	33.9440	0	26.626	0	282.388	0	-1e10	1	-1e10	1	-1E+10	1	-1e10	1	-1e10	1	-1E+10	1	-1E+10	1	-1E+10	1
4902624	42	C	08/15/2025	04:36	-129.334	48.977	0	285.90	0	6.7282	0	33.9440	0	26.627	0	283.279	0	72.2	4	24.3	4	-1E+10	1	0.0457	4	0.000322	0	-1E+10	1	-1E+10	1	-1E+10	1
4902624	42	C	08/15/2025	04:36	-129.334	48.977	0	287.00	0	6.7150	0	33.9440	0	26.629	0	284.369	0	-1e10	1	-1e10	1	-1E+10	1	-1e10	1	-1e10	1	-1E+10	1	-1E+10	1	-1E+10	1
4902624	42	C	08/15/2025	04:36	-129.334	48.977	0	287.10	0	6.7126	0	33.9440	0	26.629	0	284.468	0	72.3	4	24.3	4	-1E+10	1	0.0438	4	0.000297	0	-1E+10	1	-1E+10	1	-1E+10	1
4902624	42	C	08/15/2025	04:36	-129.334	48.977	0	288.40	0	6.6807	0	33.9433	0	26.633	0	285.755	0	72.4	4	24.3	4	-1E+10	1	0.0438	4	0.000289	0	-1E+10	1	-1E+10	1	-1E+10	1
4902624	42	C	08/15/2025	04:36	-129.334	48.977	0	289.00	0	6.6660	0	33.9430	0	26.635	0	286.349	0	-1e10	1	-1e10	1	-1E+10	1	-1e10	1	-1e10	1	-1E+10	1	-1E+10	1	-1E+10	1
4902624	42	C	08/15/2025	04:36	-129.334	48.977	0	289.60	0	6.6534	0	33.9421	0	26.636	0	286.943	0	72.2	4	24.2	4	-1E+10	1	0.0511	4	0.000282	0	-1E+10	1	-1E+10	1	-1E+10	1
4902624	42	C	08/15/2025	04:36	-129.334	48.977	0	290.90	0	6.6261	0	33.9401	0	26.638	0	288.230	0	72.0	4	24.1	4	-1E+10	1	0.0550	4	0.000275	0	-1E+10	1	-1E+10	1	-1E+10	1
4902624	42	C	08/15/2025	04:36	-129.334	48.977	0	291.00	0	6.6240	0	33.9400	0	26.638	0	288.329	0	-1e10	1	-1e10	1	-1E+10	1	-1e10	1	-1e10	1	-1E+10	1	-1E+10	1	-1E+10	1
4902624	42	C	08/15/2025	04:36	-129.334	48.977	0	292.10	0	6.6064	0	33.9411	0	26.641	0	289.418	0	71.8	4	24.1	4	-1E+10	1	0.0539	4	0.000268	0	-1E+10	1	-1E+10	1	-1E+10	1
4902624	42	C	08/15/2025	04:36	-129.334	48.977	0	293.00	0	6.5920	0	33.9420	0	26.644	0	290.309	0	-1e10	1	-1e10	1	-1E+10	1	-1e10	1	-1e10	1	-1E+10	1	-1E+10	1	-1E+10	1
4902624	42	C	08/15/2025	04:36	-129.334	48.977	0	293.40	0	6.5878	0	33.9424	0	26.645	0	290.705	0	71.6	4	24.0	4	-1E+10	1	0.0584	4	0.000248	0	-1E+10	1	-1E+10	1	-1E+10	1
4902624	42	C	08/15/2025	04:36	-129.334	48.977	0	295.00	0	6.5710	0	33.9440	0	26.648	0	292.290	0	-1e10	1	-1e10	1	-1E+10	1	-1e10	1	-1e10	1	-1E+10	1	-1E+10	1	-1E+10	1
4902624	42	C	08/15/2025	04:36	-129.334	48.977	0	297.00	0	6.5470	0	33.9450	0	26.652	0	294.270	0	-1e10	1	-1e10	1	-1E+10	1	-1e10	1	-1e10	1	-1E+10	1	-1E+10	1	-1E+10	1
4902624	42	C	08/15/2025	04:36	-129.334	48.977	0	299.00	0	6.5350	0	33.9460	0	26.655	0	296.250	0	-1e10	1	-1e10	1	-1E+10	1	-1e10	1	-1e10	1	-1E+10	1	-1E+10	1	-1E+10	1
4902624	42	C	08/15/2025	04:36	-129.334	48.977	0	304.90	0	6.5100	0	33.9470	0	26.659	0	302.091	0	-1e10	1	-1e10	1	-1E+10	1	-1e10	1	-1e10	1	-1E+10	1	-1E+10	1	-1E+10	1
4902624	42	C	08/15/2025	04:36	-129.334	48.977	0	305.90	0	6.5032	0	33.9475	0	26.660	0	303.081	0	69.8	4	23.3	4	-1E+10	1	0.0578	4	0.000281	0	-1E+10	1	-1E+10	1	-1E+10	1
4902624	42	C	08/15/2025	04:36	-129.334	48.977	0	314.90	0	6.4420	0	33.9520	0	26.672	0	311.992	0	-1e10	1	-1e10	1	-1E+10	1	-1e10	1	-1e10	1	-1E+10	1	-1E+10	1	-1E+10	1
4902624	42	C	08/15/2025	04:36	-129.334	48.977	0	317.50	0	6.4111	0	33.9538	0	26.677	0	314.566	0	67.4	4	22.5	4	-1E+10	1	0.0444	4	0.000282	0	-1E+10	1	-1E+10	1	-1E+10	1
4902624	42	C	08/15/2025	04:36	-129.334	48.977	0	325.00	0	6.3220	0	33.9590	0	26.693	0	321.991	0	-1e10	1	-1e10	1	-1E+10	1	-1e10	1	-1e10	1	-1E+10	1	-1E+10	1	-1E+10	1
4902624	42	C	08/15/2025	04:36	-129.334	48.977	0	325.40	0	6.3180	0	33.9592	0	26.694	0	322.387	0	65.5	4	21.8	4	-1E+10	1	0.0578	4	0.000584	0	-1E+10	1	-1E+10	1	-1E+10	1
4902624	42	C	08/15/2025	04:36	-129.334	48.977	0	333.40	0	6.2380	0	33.9640	0	26.708	0	330.306	0	63.3	4	21.0	4	-1E+10	1	0.0438	4	0.000234	0	-1E+10	1	-1E+10	1	-1E+10	1
4902624	42	C	08/15/2025	04:36	-129.334	48.977	0	335.10	0	6.2210	0	33.9650	0	26.711	0	331.989	0	-1e10	1	-1e10	1	-1E+10	1	-1e10	1	-1e10	1	-1E+10	1	-1E+10	1	-1E+10	1
4902624	42	C	08/15/2025	04:36	-129.334	48.977	0	341.80	0	6.1627	0	33.9697	0	26.722	0	338.621	0	61.3	4	20.3	4	-1E+10	1	0.0438	4	0.000224	0	-1E+10	1	-1E+10	1	-1E+10	1
4902624	42	C	08/15/2025	04:36	-129.334	48.977	0	345.10	0	6.1340	0	33.9720	0	26.727	0	341.888	0	-1e10	1	-1e10	1	-1E+10	1	-1e10	1	-1e10	1	-1E+10	1	-1E+10	1	-1E+10	1
4902624	42	C	08/15/2025	04:36	-129.334	48.977	0	350.50	0	6.1024	0	33.9747	0	26.734	0	347.233	0	59.7	4	19.8	4	-1E+10	1	0.0440	4	0.000257	0	-1E+10	1	-1E+10	1	-1E+10	1
4902624	42	C	08/15/2025	04:36	-129.334	48.977	0	355.00	0	6.0760	0	33.9770	0	26.739	0	351.687	0	-1e10	1	-1e10	1	-1E+10	1	-1e10	1	-1e10	1	-1E+10	1	-1E+10	1	-1E+10	1
4902624	42	C	08/15/2025	04:36	-129.334	48.977	0	359.70	0	6.0513	0	33.9789	0	26.743	0	356.340	0	58.2	4	19.3	4	-1E+10	1	0.0511	4	0.000234	0	-1E+10	1	-1E+10	1	-1E+10	1
4902624	42	C	08/15/2025	04:36	-129.334	48.977	0	365.10	0	6.0230	0	33.9810	0	26.749	0	361.684	0	-1e10	1	-1e10	1	-1E+10	1	-1e10	1	-1e10	1	-1E+10	1	-1E+10	1	-1E+10	1
4902624	42	C	08/15/2025	04:36	-129.334	48.977	0	369.20	0	5.9911	0	33.9831	0	26.754	0	365.742	0	56.2	4	18.6	4	-1E+10	1	0.0511	4	0.000233	0	-1E+10	1	-1E+10	1	-1E+10	1
4902624	42	C	08/15/2025	04:36	-129.334	48.977	0	375.00	0	5.9460	0	33.9860	0	26.762	0	371.483	0	-1e10	1	-1e10	1	-1E+10	1	-1e10	1	-1e10	1	-1E+10	1	-1E+10	1	-1E+10	1
4902624	42	C	08/15/2025	04:36	-129.334	48.977	0	379.20	0	5.9131	0	33.9885	0	26.768	0	375.640	0	54.0	4	17.8	4	-1E+10	1	0.0511	4	0.000210	0	-1E+10	1	-1E+10	1	-1E+10	1
4902624	42	C	08/15/2025	04:36	-129.334	48.977	0	385.10	0	5.8670	0	33.9920	0	26.777	0	381.479	0	-1e10	1	-1e10	1	-1E+10	1	-1e10	1	-1e10	1	-1E+10	1	-1E+10	1	-1E+10	1
4902624	42	C	08/15/2025	04:36	-129.334	48.977	0	389.20	0	5.8360	0	33.9945	0	26.783	0	385.537	0	51.8	4	17.1	4	-1E+10	1	0.0511	4	0.000199	0	-1E+10	1	-1E+10	1	-1E+10	1
4902624	42	C	08/15/2025	04:36	-129.334	48.977	0	394.90	0	5.7930	0	33.9980	0	26.791	0	391.178	0	-1e10	1	-1e10	1	-1E+10	1	-1e10	1	-1e10	1	-1E+10	1	-1E+10	1	-1E+10	1
4902624	42	C	08/15/2025	04:36	-129.334	48.977	0	399.40	0	5.7586	0	34.0017	0	26.798	0	395.631	0	49.5	4	16.3	4	-1E+10	1	0.0508	4	0.000212	0	-1E+10	1	-1E+10	1	-1E+10	1
4902624	42	C	08/15/2025	04:36	-129.334	48.977	0	404.70	0	5.7180	0	34.0060	0	26.807	0	400.876	0	-1e10	1	-1e10	1	-1E+10	1	-1e10	1	-1e10	1	-1E+10	1	-1E+10	1	-1E+10	1
4902624	42	C	08/15/2025	04:36	-129.334	48.977	0	409.80	0	5.6900	0	34.0090	0	26.812	0	405.922	0	47.6	4	15.6	4	-1E+10	1	0.0441	4	0.000245	0	-1E+10	1	-1E+10	1	-1E+10	1
4902624	42	C	08/15/2025	04:36	-129.334	48.977	0	414.90	0	5.6620	0	34.0120	0	26.818	0	410.969	0	-1e10	1	-1e10	1	-1E+10	1	-1e10	1	-1e10	1	-1E+10	1	-1E+10	1	-1E+10	1
4902624	42	C	08/15/2025	04:36	-129.334	48.977	0	420.20	0	5.6355	0	34.0152	0	26.824	0	416.214	0	46.0	4	15.1	4	-1E+10	1	0.0511	4	0.000244	0	-1E+10	1	-1E+10	1	-1E+10	1
4902624	42	C	08/15/2025	04:36	-129.334	48.977	0	424.90	0	5.6120	0	34.0180	0	26.829	0	420.864	0	-1e10	1	-1e10	1	-1E+10	1	-1e10	1	-1e10	1	-1E+10	1	-1E+10	1	-1E+10	1
4902624	42	C	08/15/2025	04:36	-129.334	48.977	0	430.70	0	5.5771	0	34.0214	0	26.836	0	426.603	0	44.2	4	14.5	4	-1E+10	1	0.0508	4	0.000221	0	-1E+10	1	-1E+10	1	-1E+10	1
4902624	42	C	08/15/2025	04:36	-129.334	48.977	0	435.20	0	5.5500	0	34.0240	0	26.841	0	431.056	0	-1e10	1	-1e10	1	-1E+10	1	-1e10	1	-1e10	1	-1E+10	1	-1E+10	1	-1E+10	1
4902624	42	C	08/15/2025	04:36	-129.334	48.977	0	441.30	0	5.5192	0	34.0271	0	26.848	0	437.091	0	42.4	4	13.9	4	-1E+10	1	0.0438	4	0.000198	0	-1E+10	1	-1E+10	1	-1E+10	1
4902624	42	C	08/15/2025	04:36	-129.334	48.977	0	445.10	0	5.5000	0	34.0290	0	26.851	0	440.851	0	-1e10	1	-1e10	1	-1E+10	1	-1e10	1	-1e10	1	-1E+10	1	-1E+10	1	-1E+10	1
4902624	42	C	08/15/2025	04:36	-129.334	48.977	0	452.10	0	5.4643	0	34.0333	0	26.859	0	447.777	0	40.6	4	13.2	4	-1E+10	1	0.0443	4	0.000198	0	-1E+10	1	-1E+10	1	-1E+10	1
4902624	42	C	08/15/2025	04:36	-129.334	48.977	0	454.90	0	5.4500	0	34.0350	0	26.862	0	450.547	0	-1e10	1	-1e10	1	-1E+10	1	-1e10	1	-1e10	1	-1E+10	1	-1E+10	1	-1E+10	1
4902624	42	C	08/15/2025	04:36	-129.334	48.977	0	463.20	0	5.3947	0	34.0425	0	26.875	0	458.758	0	38.3	4	12.5	4	-1E+10	1	0.0581	4	0.000197	0	-1E+10	1	-1E+10	1	-1E+10	1
4902624	42	C	08/15/2025	04:36	-129.334	48.977	0	464.80	0	5.3840	0	34.0440	0	26.877	0	460.341	0	-1e10	1	-1e10	1	-1E+10	1	-1e10	1	-1e10	1	-1E+10	1	-1E+10	1	-1E+10	1
4902624	42	C	08/15/2025	04:36	-129.334	48.977	0	474.40	0	5.3317	0	34.0507	0	26.889	0	469.838	0	37.1	4	12.1	4	-1E+10	1	0.0514	4	0.000186	0	-1E+10	1	-1E+10	1	-1E+10	1
4902624	42	C	08/15/2025	04:36	-129.334	48.977	0	474.90	0	5.3290	0	34.0510	0	26.889	0	470.333	0	-1e10	1	-1e10	1	-1E+10	1	-1e10	1	-1e10	1	-1E+10	1	-1E+10	1	-1E+10	1
4902624	42	C	08/15/2025	04:36	-129.334	48.977	0	484.70	0	5.3030	0	34.0530	0	26.894	0	480.027	0	-1e10	1	-1e10	1	-1E+10	1	-1e10	1	-1e10	1	-1E+10	1	-1E+10	1	-1E+10	1
4902624	42	C	08/15/2025	04:36	-129.334	48.977	0	485.80	0	5.2994	0	34.0535	0	26.895	0	481.115	0	36.0	4	11.7	4	-1E+10	1	0.0584	4	0.000187	0	-1E+10	1	-1E+10	1	-1E+10	1
4902624	42	C	08/15/2025	04:36	-129.334	48.977	0	495.20	0	5.2690	0	34.0580	0	26.902	0	490.414	0	-1e10	1	-1e10	1	-1E+10	1	-1e10	1	-1e10	1	-1E+10	1	-1E+10	1	-1E+10	1
4902624	42	C	08/15/2025	04:36	-129.334	48.977	0	497.20	0	5.2614	0	34.0594	0	26.904	0	492.392	0	34.3	4	11.2	4	-1E+10	1	0.0579	4	0.000209	0	-1E+10	1	-1E+10	1	-1E+10	1
4902624	42	C	08/15/2025	04:36	-129.334	48.977	0	505.20	0	5.2310	0	34.0650	0	26.912	0	500.305	0	-1e10	1	-1e10	1	-1E+10	1	-1e10	1	-1e10	1	-1E+10	1	-1E+10	1	-1E+10	1
4902624	42	C	08/15/2025	04:36	-129.334	48.977	0	508.70	0	5.2163	0	34.0679	0	26.916	0	503.767	0	32.7	4	10.6	4	-1E+10	1	0.0444	4	0.000196	0	-1E+10	1	-1E+10	1	-1E+10	1
4902624	42	C	08/15/2025	04:36	-129.334	48.977	0	514.70	0	5.1910	0	34.0730	0	26.923	0	509.701	0	-1e10	1	-1e10	1	-1E+10	1	-1e10	1	-1e10	1	-1E+10	1	-1E+10	1	-1E+10	1
4902624	42	C	08/15/2025	04:36	-129.334	48.977	0	520.20	0	5.1778	0	34.0746	0	26.926	0	515.141	0	31.5	4	10.2	4	-1E+10	1	0.0584	4	0.000164	0	-1E+10	1	-1E+10	1	-1E+10	1
4902624	42	C	08/15/2025	04:36	-129.334	48.977	0	525.10	0	5.1660	0	34.0760	0	26.929	0	519.987	0	-1e10	1	-1e10	1	-1E+10	1	-1e10	1	-1e10	1	-1E+10	1	-1E+10	1	-1E+10	1
4902624	42	C	08/15/2025	04:36	-129.334	48.977	0	531.90	0	5.1418	0	34.0800	0	26.935	0	526.712	0	29.9	4	9.7	4	-1E+10	1	0.0581	4	0.000212	0	-1E+10	1	-1E+10	1	-1E+10	1
4902624	42	C	08/15/2025	04:36	-129.334	48.977	0	535.20	0	5.1300	0	34.0820	0	26.938	0	529.976	0	-1e10	1	-1e10	1	-1E+10	1	-1e10	1	-1e10	1	-1E+10	1	-1E+10	1	-1E+10	1
4902624	42	C	08/15/2025	04:36	-129.334	48.977	0	543.80	0	5.0848	0	34.0898	0	26.949	0	538.481	0	28.5	4	9.2	4	-1E+10	1	0.0505	4	0.000277	0	-1E+10	1	-1E+10	1	-1E+10	1
4902624	42	C	08/15/2025	04:36	-129.334	48.977	0	545.10	0	5.0780	0	34.0910	0	26.951	0	539.767	0	-1e10	1	-1e10	1	-1E+10	1	-1e10	1	-1e10	1	-1E+10	1	-1E+10	1	-1E+10	1
4902624	42	C	08/15/2025	04:36	-129.334	48.977	0	554.20	0	5.0573	0	34.0937	0	26.955	0	548.766	0	27.5	4	8.9	4	-1E+10	1	0.0371	4	0.000222	0	-1E+10	1	-1E+10	1	-1E+10	1
4902624	42	C	08/15/2025	04:36	-129.334	48.977	0	555.20	0	5.0550	0	34.0940	0	26.956	0	549.754	0	-1e10	1	-1e10	1	-1E+10	1	-1e10	1	-1e10	1	-1E+10	1	-1E+10	1	-1E+10	1
4902624	42	C	08/15/2025	04:36	-129.334	48.977	0	562.20	0	5.0189	0	34.1004	0	26.965	0	556.676	0	26.1	4	8.4	4	-1E+10	1	0.0515	4	0.000255	0	-1E+10	1	-1E+10	1	-1E+10	1
4902624	42	C	08/15/2025	04:36	-129.334	48.977	0	565.10	0	5.0040	0	34.1030	0	26.969	0	559.544	0	-1e10	1	-1e10	1	-1E+10	1	-1e10	1	-1e10	1	-1E+10	1	-1E+10	1	-1E+10	1
4902624	42	C	08/15/2025	04:36	-129.334	48.977	0	570.20	0	4.9858	0	34.1072	0	26.974	0	564.587	0	24.9	4	8.0	4	-1E+10	1	0.0581	4	0.000254	0	-1E+10	1	-1E+10	1	-1E+10	1
4902624	42	C	08/15/2025	04:36	-129.334	48.977	0	574.90	0	4.9690	0	34.1110	0	26.979	0	569.234	0	-1e10	1	-1e10	1	-1E+10	1	-1e10	1	-1e10	1	-1E+10	1	-1E+10	1	-1E+10	1
4902624	42	C	08/15/2025	04:36	-129.334	48.977	0	578.50	0	4.9524	0	34.1142	0	26.984	0	572.794	0	23.6	4	7.6	4	-1E+10	1	0.0514	4	0.000220	0	-1E+10	1	-1E+10	1	-1E+10	1
4902624	42	C	08/15/2025	04:36	-129.334	48.977	0	585.10	0	4.9220	0	34.1200	0	26.992	0	579.319	0	-1e10	1	-1e10	1	-1E+10	1	-1e10	1	-1e10	1	-1E+10	1	-1E+10	1	-1E+10	1
4902624	42	C	08/15/2025	04:36	-129.334	48.977	0	587.00	0	4.9159	0	34.1208	0	26.993	0	581.198	0	22.9	4	7.4	4	-1E+10	1	0.0584	4	0.000221	0	-1E+10	1	-1E+10	1	-1E+10	1
4902624	42	C	08/15/2025	04:36	-129.334	48.977	0	595.00	0	4.8900	0	34.1240	0	26.999	0	589.108	0	-1e10	1	-1e10	1	-1E+10	1	-1e10	1	-1e10	1	-1E+10	1	-1E+10	1	-1E+10	1
4902624	42	C	08/15/2025	04:36	-129.334	48.977	0	595.80	0	4.8874	0	34.1245	0	26.999	0	589.899	0	22.1	4	7.1	4	-1E+10	1	0.0579	4	0.000243	0	-1E+10	1	-1E+10	1	-1E+10	1
4902624	42	C	08/15/2025	04:36	-129.334	48.977	0	604.80	0	4.8586	0	34.1299	0	27.007	0	598.797	0	21.5	4	6.9	4	-1E+10	1	0.0448	4	0.000220	0	-1E+10	1	-1E+10	1	-1E+10	1
4902624	42	C	08/15/2025	04:36	-129.334	48.977	0	605.00	0	4.8580	0	34.1300	0	27.007	0	598.994	0	-1e10	1	-1e10	1	-1E+10	1	-1e10	1	-1e10	1	-1E+10	1	-1E+10	1	-1E+10	1
4902624	42	C	08/15/2025	04:36	-129.334	48.977	0	614.00	0	4.8418	0	34.1327	0	27.011	0	607.892	0	20.7	4	6.7	4	-1E+10	1	0.0648	4	0.000233	0	-1E+10	1	-1E+10	1	-1E+10	1
4902624	42	C	08/15/2025	04:36	-129.334	48.977	0	615.00	0	4.8400	0	34.1330	0	27.012	0	608.880	0	-1e10	1	-1e10	1	-1E+10	1	-1e10	1	-1e10	1	-1E+10	1	-1E+10	1	-1E+10	1
4902624	42	C	08/15/2025	04:36	-129.334	48.977	0	623.60	0	4.7957	0	34.1410	0	27.023	0	617.382	0	19.5	4	6.3	4	-1E+10	1	0.0442	4	0.000269	0	-1E+10	1	-1E+10	1	-1E+10	1
4902624	42	C	08/15/2025	04:36	-129.334	48.977	0	624.70	0	4.7900	0	34.1420	0	27.024	0	618.469	0	-1e10	1	-1e10	1	-1E+10	1	-1e10	1	-1e10	1	-1E+10	1	-1E+10	1	-1E+10	1
4902624	42	C	08/15/2025	04:36	-129.334	48.977	0	633.40	0	4.7702	0	34.1454	0	27.029	0	627.070	0	18.6	4	6.0	4	-1E+10	1	0.0511	4	0.000322	0	-1E+10	1	-1E+10	1	-1E+10	1
4902624	42	C	08/15/2025	04:36	-129.334	48.977	0	634.80	0	4.7670	0	34.1460	0	27.030	0	628.453	0	-1e10	1	-1e10	1	-1E+10	1	-1e10	1	-1e10	1	-1E+10	1	-1E+10	1	-1E+10	1
4902624	42	C	08/15/2025	04:36	-129.334	48.977	0	643.40	0	4.7336	0	34.1543	0	27.041	0	636.954	0	17.5	4	5.6	4	-1E+10	1	0.0508	4	0.000249	0	-1E+10	1	-1E+10	1	-1E+10	1
4902624	42	C	08/15/2025	04:36	-129.334	48.977	0	645.10	0	4.7270	0	34.1560	0	27.043	0	638.635	0	-1e10	1	-1e10	1	-1E+10	1	-1e10	1	-1e10	1	-1E+10	1	-1E+10	1	-1E+10	1
4902624	42	C	08/15/2025	04:36	-129.334	48.977	0	653.80	0	4.6874	0	34.1612	0	27.051	0	647.234	0	16.8	4	5.4	4	-1E+10	1	0.0441	4	0.000387	0	-1E+10	1	-1E+10	1	-1E+10	1
4902624	42	C	08/15/2025	04:36	-129.334	48.977	0	655.20	0	4.6810	0	34.1620	0	27.053	0	648.618	0	-1e10	1	-1e10	1	-1E+10	1	-1e10	1	-1e10	1	-1E+10	1	-1E+10	1	-1E+10	1
4902624	42	C	08/15/2025	04:36	-129.334	48.977	0	664.00	0	4.6483	0	34.1656	0	27.059	0	657.316	0	16.1	4	5.1	4	-1E+10	1	0.0514	4	0.000184	0	-1E+10	1	-1E+10	1	-1E+10	1
4902624	42	C	08/15/2025	04:36	-129.334	48.977	0	664.90	0	4.6450	0	34.1660	0	27.060	0	658.205	0	-1e10	1	-1e10	1	-1E+10	1	-1e10	1	-1e10	1	-1E+10	1	-1E+10	1	-1E+10	1
4902624	42	C	08/15/2025	04:36	-129.334	48.977	0	674.10	0	4.6064	0	34.1743	0	27.071	0	667.298	0	14.8	4	4.7	4	-1E+10	1	0.0587	4	0.000186	0	-1E+10	1	-1E+10	1	-1E+10	1
4902624	42	C	08/15/2025	04:36	-129.334	48.977	0	674.90	0	4.6030	0	34.1750	0	27.072	0	668.088	0	-1e10	1	-1e10	1	-1E+10	1	-1e10	1	-1e10	1	-1E+10	1	-1E+10	1	-1E+10	1
4902624	42	C	08/15/2025	04:36	-129.334	48.977	0	684.60	0	4.5602	0	34.1883	0	27.087	0	677.675	0	13.6	4	4.3	4	-1E+10	1	0.0652	4	0.000231	0	-1E+10	1	-1E+10	1	-1E+10	1
4902624	42	C	08/15/2025	04:36	-129.334	48.977	0	685.10	0	4.5580	0	34.1890	0	27.088	0	678.169	0	-1e10	1	-1e10	1	-1E+10	1	-1e10	1	-1e10	1	-1E+10	1	-1E+10	1	-1E+10	1
4902624	42	C	08/15/2025	04:36	-129.334	48.977	0	695.00	0	4.5310	0	34.1990	0	27.099	0	687.952	0	-1e10	1	-1e10	1	-1E+10	1	-1e10	1	-1e10	1	-1E+10	1	-1E+10	1	-1E+10	1
4902624	42	C	08/15/2025	04:36	-129.334	48.977	0	695.40	0	4.5299	0	34.1994	0	27.099	0	688.348	0	12.7	4	4.1	4	-1E+10	1	0.0514	4	0.000252	0	-1E+10	1	-1E+10	1	-1E+10	1
4902624	42	C	08/15/2025	04:36	-129.334	48.977	0	705.10	0	4.5020	0	34.2090	0	27.110	0	697.933	0	-1e10	1	-1e10	1	-1E+10	1	-1e10	1	-1e10	1	-1E+10	1	-1E+10	1	-1E+10	1
4902624	42	C	08/15/2025	04:36	-129.334	48.977	0	706.70	0	4.4973	0	34.2101	0	27.111	0	699.514	0	12.0	4	3.8	4	-1E+10	1	0.0582	4	0.000228	0	-1E+10	1	-1E+10	1	-1E+10	1
4902624	42	C	08/15/2025	04:36	-129.334	48.977	0	715.00	0	4.4730	0	34.2160	0	27.119	0	707.716	0	-1e10	1	-1e10	1	-1E+10	1	-1e10	1	-1e10	1	-1E+10	1	-1E+10	1	-1E+10	1
4902624	42	C	08/15/2025	04:36	-129.334	48.977	0	718.40	0	4.4645	0	34.2184	0	27.121	0	711.075	0	11.3	4	3.6	4	-1E+10	1	0.0513	4	0.000161	0	-1E+10	1	-1E+10	1	-1E+10	1
4902624	42	C	08/15/2025	04:36	-129.334	48.977	0	725.00	0	4.4480	0	34.2230	0	27.127	0	717.596	0	-1e10	1	-1e10	1	-1E+10	1	-1e10	1	-1e10	1	-1E+10	1	-1E+10	1	-1E+10	1
4902624	42	C	08/15/2025	04:36	-129.334	48.977	0	730.50	0	4.4254	0	34.2263	0	27.132	0	723.031	0	10.9	4	3.5	4	-1E+10	1	0.0584	4	0.000207	0	-1E+10	1	-1E+10	1	-1E+10	1
4902624	42	C	08/15/2025	04:36	-129.334	48.977	0	735.00	0	4.4070	0	34.2290	0	27.136	0	727.477	0	-1e10	1	-1e10	1	-1E+10	1	-1e10	1	-1e10	1	-1E+10	1	-1E+10	1	-1E+10	1
4902624	42	C	08/15/2025	04:36	-129.334	48.977	0	741.80	0	4.3821	0	34.2330	0	27.142	0	734.195	0	10.6	4	3.4	4	-1E+10	1	0.0581	4	0.000206	0	-1E+10	1	-1E+10	1	-1E+10	1
4902624	42	C	08/15/2025	04:36	-129.334	48.977	0	745.10	0	4.3700	0	34.2350	0	27.145	0	737.456	0	-1e10	1	-1e10	1	-1E+10	1	-1e10	1	-1e10	1	-1E+10	1	-1E+10	1	-1E+10	1
4902624	42	C	08/15/2025	04:36	-129.334	48.977	0	749.70	0	4.3575	0	34.2373	0	27.148	0	742.000	0	10.4	4	3.3	4	-1E+10	1	0.0516	4	0.000193	0	-1E+10	1	-1E+10	1	-1E+10	1
4902624	42	C	08/15/2025	04:36	-129.334	48.977	0	755.00	0	4.3430	0	34.2400	0	27.152	0	747.236	0	-1e10	1	-1e10	1	-1E+10	1	-1e10	1	-1e10	1	-1E+10	1	-1E+10	1	-1E+10	1
4902624	42	C	08/15/2025	04:36	-129.334	48.977	0	757.80	0	4.3379	0	34.2409	0	27.153	0	750.003	0	10.3	4	3.3	4	-1E+10	1	0.0654	4	0.000160	0	-1E+10	1	-1E+10	1	-1E+10	1
4902624	42	C	08/15/2025	04:36	-129.334	48.977	0	764.80	0	4.3250	0	34.2430	0	27.156	0	756.918	0	-1e10	1	-1e10	1	-1E+10	1	-1e10	1	-1e10	1	-1E+10	1	-1E+10	1	-1E+10	1
4902624	42	C	08/15/2025	04:36	-129.334	48.977	0	766.10	0	4.3170	0	34.2443	0	27.158	0	758.202	0	10.0	4	3.2	4	-1E+10	1	0.0577	4	0.000184	0	-1E+10	1	-1E+10	1	-1E+10	1
4902624	42	C	08/15/2025	04:36	-129.334	48.977	0	774.50	0	4.2655	0	34.2526	0	27.170	0	766.500	0	9.7	4	3.1	4	-1E+10	1	0.0441	4	0.000216	0	-1E+10	1	-1E+10	1	-1E+10	1
4902624	42	C	08/15/2025	04:36	-129.334	48.977	0	774.90	0	4.2630	0	34.2530	0	27.171	0	766.895	0	-1e10	1	-1e10	1	-1E+10	1	-1e10	1	-1e10	1	-1E+10	1	-1E+10	1	-1E+10	1
4902624	42	C	08/15/2025	04:36	-129.334	48.977	0	783.10	0	4.2289	0	34.2587	0	27.179	0	774.995	0	9.5	4	3.0	4	-1E+10	1	0.0504	4	0.000172	0	-1E+10	1	-1E+10	1	-1E+10	1
4902624	42	C	08/15/2025	04:36	-129.334	48.977	0	785.00	0	4.2210	0	34.2600	0	27.181	0	776.872	0	-1e10	1	-1e10	1	-1E+10	1	-1e10	1	-1e10	1	-1E+10	1	-1E+10	1	-1E+10	1
4902624	42	C	08/15/2025	04:36	-129.334	48.977	0	791.90	0	4.1959	0	34.2649	0	27.187	0	783.688	0	9.2	4	2.9	4	-1E+10	1	0.0371	4	0.000193	0	-1E+10	1	-1E+10	1	-1E+10	1
4902624	42	C	08/15/2025	04:36	-129.334	48.977	0	794.90	0	4.1850	0	34.2670	0	27.190	0	786.651	0	-1e10	1	-1e10	1	-1E+10	1	-1e10	1	-1e10	1	-1E+10	1	-1E+10	1	-1E+10	1
4902624	42	C	08/15/2025	04:36	-129.334	48.977	0	800.90	0	4.1719	0	34.2718	0	27.195	0	792.577	0	8.8	4	2.8	4	-1E+10	1	0.0516	4	0.000173	0	-1E+10	1	-1E+10	1	-1E+10	1
4902624	42	C	08/15/2025	04:36	-129.334	48.977	0	805.00	0	4.1630	0	34.2750	0	27.199	0	796.627	0	-1e10	1	-1e10	1	-1E+10	1	-1e10	1	-1e10	1	-1E+10	1	-1E+10	1	-1E+10	1
4902624	42	C	08/15/2025	04:36	-129.334	48.977	0	810.10	0	4.1544	0	34.2826	0	27.206	0	801.664	0	8.2	4	2.6	4	-1E+10	1	0.0652	4	0.000229	0	-1E+10	1	-1E+10	1	-1E+10	1
4902624	42	C	08/15/2025	04:36	-129.334	48.977	0	815.10	0	4.1460	0	34.2900	0	27.213	0	806.602	0	-1e10	1	-1e10	1	-1E+10	1	-1e10	1	-1e10	1	-1E+10	1	-1E+10	1	-1E+10	1
4902624	42	C	08/15/2025	04:36	-129.334	48.977	0	819.60	0	4.1386	0	34.2928	0	27.216	0	811.047	0	8.0	4	2.5	4	-1E+10	1	0.0517	4	0.000215	0	-1E+10	1	-1E+10	1	-1E+10	1
4902624	42	C	08/15/2025	04:36	-129.334	48.977	0	824.80	0	4.1300	0	34.2960	0	27.219	0	816.182	0	-1e10	1	-1e10	1	-1E+10	1	-1e10	1	-1e10	1	-1E+10	1	-1E+10	1	-1E+10	1
4902624	42	C	08/15/2025	04:36	-129.334	48.977	0	829.20	0	4.1187	0	34.2982	0	27.222	0	820.528	0	8.0	4	2.5	4	-1E+10	1	0.0650	4	0.000171	0	-1E+10	1	-1E+10	1	-1E+10	1
4902624	42	C	08/15/2025	04:36	-129.334	48.977	0	834.90	0	4.1040	0	34.3010	0	27.226	0	826.157	0	-1e10	1	-1e10	1	-1E+10	1	-1e10	1	-1e10	1	-1E+10	1	-1E+10	1	-1E+10	1
4902624	42	C	08/15/2025	04:36	-129.334	48.977	0	839.10	0	4.0962	0	34.3022	0	27.228	0	830.305	0	7.9	4	2.5	4	-1E+10	1	0.0447	4	0.000205	0	-1E+10	1	-1E+10	1	-1E+10	1
4902624	42	C	08/15/2025	04:36	-129.334	48.977	0	845.10	0	4.0850	0	34.3040	0	27.230	0	836.230	0	-1e10	1	-1e10	1	-1E+10	1	-1e10	1	-1e10	1	-1E+10	1	-1E+10	1	-1E+10	1
4902624	42	C	08/15/2025	04:36	-129.334	48.977	0	848.90	0	4.0708	0	34.3063	0	27.234	0	839.982	0	7.8	4	2.5	4	-1E+10	1	0.0657	4	0.000206	0	-1E+10	1	-1E+10	1	-1E+10	1
4902624	42	C	08/15/2025	04:36	-129.334	48.977	0	855.00	0	4.0480	0	34.3100	0	27.239	0	846.006	0	-1e10	1	-1e10	1	-1E+10	1	-1e10	1	-1e10	1	-1E+10	1	-1E+10	1	-1E+10	1
4902624	42	C	08/15/2025	04:36	-129.334	48.977	0	858.80	0	4.0413	0	34.3107	0	27.240	0	849.758	0	7.8	4	2.5	4	-1E+10	1	0.0651	4	0.000217	0	-1E+10	1	-1E+10	1	-1E+10	1
4902624	42	C	08/15/2025	04:36	-129.334	48.977	0	865.20	0	4.0300	0	34.3120	0	27.243	0	856.078	0	-1e10	1	-1e10	1	-1E+10	1	-1e10	1	-1e10	1	-1E+10	1	-1E+10	1	-1E+10	1
4902624	42	C	08/15/2025	04:36	-129.334	48.977	0	869.00	0	4.0235	0	34.3132	0	27.244	0	859.830	0	7.7	4	2.4	4	-1E+10	1	0.0511	4	0.000219	0	-1E+10	1	-1E+10	1	-1E+10	1
4902624	42	C	08/15/2025	04:36	-129.334	48.977	0	875.10	0	4.0130	0	34.3150	0	27.247	0	865.853	0	-1e10	1	-1e10	1	-1E+10	1	-1e10	1	-1e10	1	-1E+10	1	-1E+10	1	-1E+10	1
4902624	42	C	08/15/2025	04:36	-129.334	48.977	0	879.40	0	3.9992	0	34.3163	0	27.249	0	870.098	0	7.7	4	2.4	4	-1E+10	1	0.0514	4	0.000283	0	-1E+10	1	-1E+10	1	-1E+10	1
4902624	42	C	08/15/2025	04:36	-129.334	48.977	0	885.10	0	3.9810	0	34.3180	0	27.252	0	875.726	0	-1e10	1	-1e10	1	-1E+10	1	-1e10	1	-1e10	1	-1E+10	1	-1E+10	1	-1E+10	1
4902624	42	C	08/15/2025	04:36	-129.334	48.977	0	889.90	0	3.9625	0	34.3225	0	27.258	0	880.465	0	7.6	4	2.4	4	-1E+10	1	0.0587	4	0.000203	0	-1E+10	1	-1E+10	1	-1E+10	1
4902624	42	C	08/15/2025	04:36	-129.334	48.977	0	894.70	0	3.9440	0	34.3270	0	27.263	0	885.204	0	-1e10	1	-1e10	1	-1E+10	1	-1e10	1	-1e10	1	-1E+10	1	-1E+10	1	-1E+10	1
4902624	42	C	08/15/2025	04:36	-129.334	48.977	0	900.60	0	3.9272	0	34.3316	0	27.269	0	891.029	0	7.6	4	2.4	4	-1E+10	1	0.0652	4	0.000159	0	-1E+10	1	-1E+10	1	-1E+10	1
4902624	42	C	08/15/2025	04:36	-129.334	48.977	0	904.90	0	3.9150	0	34.3350	0	27.273	0	895.274	0	-1e10	1	-1e10	1	-1E+10	1	-1e10	1	-1e10	1	-1E+10	1	-1E+10	1	-1E+10	1
4902624	42	C	08/15/2025	04:36	-129.334	48.977	0	911.40	0	3.8860	0	34.3414	0	27.281	0	901.691	0	7.6	4	2.4	4	-1E+10	1	0.0511	4	0.000180	0	-1E+10	1	-1E+10	1	-1E+10	1
4902624	42	C	08/15/2025	04:36	-129.334	48.977	0	915.00	0	3.8700	0	34.3450	0	27.285	0	905.245	0	-1e10	1	-1e10	1	-1E+10	1	-1e10	1	-1e10	1	-1E+10	1	-1E+10	1	-1E+10	1
4902624	42	C	08/15/2025	04:36	-129.334	48.977	0	922.50	0	3.8589	0	34.3472	0	27.288	0	912.648	0	7.5	4	2.4	4	-1E+10	1	0.0514	4	0.000171	0	-1E+10	1	-1E+10	1	-1E+10	1
4902624	42	C	08/15/2025	04:36	-129.334	48.977	0	925.10	0	3.8550	0	34.3480	0	27.289	0	915.215	0	-1e10	1	-1e10	1	-1E+10	1	-1e10	1	-1e10	1	-1E+10	1	-1E+10	1	-1E+10	1
4902624	42	C	08/15/2025	04:36	-129.334	48.977	0	933.70	0	3.8326	0	34.3514	0	27.294	0	923.704	0	7.7	4	2.4	4	-1E+10	1	0.0589	4	0.000226	0	-1E+10	1	-1E+10	1	-1E+10	1
4902624	42	C	08/15/2025	04:36	-129.334	48.977	0	935.10	0	3.8290	0	34.3520	0	27.295	0	925.086	0	-1e10	1	-1e10	1	-1E+10	1	-1e10	1	-1e10	1	-1E+10	1	-1E+10	1	-1E+10	1
4902624	42	C	08/15/2025	04:36	-129.334	48.977	0	944.90	0	3.8040	0	34.3560	0	27.301	0	934.759	0	-1e10	1	-1e10	1	-1E+10	1	-1e10	1	-1e10	1	-1E+10	1	-1E+10	1	-1E+10	1
4902624	42	C	08/15/2025	04:36	-129.334	48.977	0	945.10	0	3.8036	0	34.3560	0	27.301	0	934.957	0	7.7	4	2.4	4	-1E+10	1	0.0727	4	0.000181	0	-1E+10	1	-1E+10	1	-1E+10	1
4902624	42	C	08/15/2025	04:36	-129.334	48.977	0	955.20	0	3.7830	0	34.3580	0	27.305	0	944.925	0	-1e10	1	-1e10	1	-1E+10	1	-1e10	1	-1e10	1	-1E+10	1	-1E+10	1	-1E+10	1
4902624	42	C	08/15/2025	04:36	-129.334	48.977	0	956.70	0	3.7768	0	34.3587	0	27.306	0	946.406	0	7.9	4	2.5	4	-1E+10	1	0.0657	4	0.000192	0	-1E+10	1	-1E+10	1	-1E+10	1
4902624	42	C	08/15/2025	04:36	-129.334	48.977	0	965.40	0	3.7410	0	34.3630	0	27.313	0	954.993	0	-1e10	1	-1e10	1	-1E+10	1	-1e10	1	-1e10	1	-1E+10	1	-1E+10	1	-1E+10	1
4902624	42	C	08/15/2025	04:36	-129.334	48.977	0	968.50	0	3.7284	0	34.3643	0	27.315	0	958.052	0	8.1	4	2.5	4	-1E+10	1	0.0654	4	0.000180	0	-1E+10	1	-1E+10	1	-1E+10	1
4902624	42	C	08/15/2025	04:36	-129.334	48.977	0	975.00	0	3.7020	0	34.3670	0	27.320	0	964.467	0	-1e10	1	-1e10	1	-1E+10	1	-1e10	1	-1e10	1	-1E+10	1	-1E+10	1	-1E+10	1
4902624	42	C	08/15/2025	04:36	-129.334	48.977	0	980.40	0	3.6884	0	34.3681	0	27.322	0	969.796	0	8.1	4	2.5	4	-1E+10	1	0.0584	4	0.000181	0	-1E+10	1	-1E+10	1	-1E+10	1
4902624	42	C	08/15/2025	04:36	-129.334	48.977	0	984.90	0	3.6770	0	34.3690	0	27.324	0	974.237	0	-1e10	1	-1e10	1	-1E+10	1	-1e10	1	-1e10	1	-1E+10	1	-1E+10	1	-1E+10	1
4902624	42	C	08/15/2025	04:36	-129.334	48.977	0	991.90	0	3.6650	0	34.3711	0	27.327	0	981.145	0	8.1	4	2.6	4	-1E+10	1	0.0582	4	0.000194	0	-1E+10	1	-1E+10	1	-1E+10	1
4902624	42	C	08/15/2025	04:36	-129.334	48.977	0	994.80	0	3.6600	0	34.3720	0	27.328	0	984.007	0	-1e10	1	-1e10	1	-1E+10	1	-1e10	1	-1e10	1	-1E+10	1	-1E+10	1	-1E+10	1
4902624	42	C	08/15/2025	04:36	-129.334	48.977	0	1006.00	0	3.6152	0	34.3731	0	27.334	0	995.058	0	8.3	4	2.6	4	-1E+10	1	0.0515	4	0.000271	0	-1E+10	1	-1E+10	1	-1E+10	1
4902624	42	C	08/15/2025	04:36	-129.334	48.977	0	1022.80	0	3.5480	0	34.3748	0	27.342	0	1011.635	0	8.6	4	2.7	4	-1E+10	1	0.0726	4	0.000133	0	-1E+10	1	-1E+10	1	-1E+10	1
4902624	42	C	08/15/2025	04:36	-129.334	48.977	0	1024.80	0	3.5400	0	34.3750	0	27.342	0	1013.609	0	-1e10	1	-1e10	1	-1E+10	1	-1e10	1	-1e10	1	-1E+10	1	-1E+10	1	-1E+10	1
4902624	42	C	08/15/2025	04:36	-129.334	48.977	0	1040.40	0	3.4831	0	34.3787	0	27.351	0	1029.000	0	8.7	4	2.7	4	-1E+10	1	0.0514	4	0.000144	0	-1E+10	1	-1E+10	1	-1E+10	1
4902624	42	C	08/15/2025	04:36	-129.334	48.977	0	1059.10	0	3.4150	0	34.3832	0	27.361	0	1047.448	0	9.4	4	2.9	4	-1E+10	1	0.0653	4	0.000144	0	-1E+10	1	-1E+10	1	-1E+10	1
4902624	42	C	08/15/2025	04:36	-129.334	48.977	0	1075.00	0	3.3570	0	34.3870	0	27.370	0	1063.133	0	-1e10	1	-1e10	1	-1E+10	1	-1e10	1	-1e10	1	-1E+10	1	-1E+10	1	-1E+10	1
4902624	42	C	08/15/2025	04:36	-129.334	48.977	0	1079.10	0	3.3495	0	34.3878	0	27.371	0	1067.177	0	53.6	4	16.7	4	-1E+10	1	0.0439	4	0.000143	0	-1E+10	1	-1E+10	1	-1E+10	1
4902624	42	C	08/15/2025	04:36	-129.334	48.977	0	1100.30	0	3.3105	0	34.3921	0	27.378	0	1088.088	0	52.8	4	16.4	4	-1E+10	1	0.0513	4	0.000132	0	-1E+10	1	-1E+10	1	-1E+10	1
4902624	42	C	08/15/2025	04:36	-129.334	48.977	0	1122.70	0	3.2694	0	34.3965	0	27.386	0	1110.180	0	53.4	4	16.6	4	-1E+10	1	0.0584	4	0.000131	0	-1E+10	1	-1E+10	1	-1E+10	1
4902624	42	C	08/15/2025	04:36	-129.334	48.977	0	1125.10	0	3.2650	0	34.3970	0	27.387	0	1112.547	0	-1e10	1	-1e10	1	-1E+10	1	-1e10	1	-1e10	1	-1E+10	1	-1E+10	1	-1E+10	1
4902624	42	C	08/15/2025	04:36	-129.334	48.977	0	1146.00	0	3.2170	0	34.4025	0	27.396	0	1133.158	0	54.3	4	16.9	4	-1E+10	1	0.0584	4	0.000124	0	-1E+10	1	-1E+10	1	-1E+10	1
4902624	42	C	08/15/2025	04:36	-129.334	48.977	0	1169.20	0	3.1636	0	34.4086	0	27.406	0	1156.034	0	52.7	4	16.3	4	-1E+10	1	0.0584	4	0.000396	0	-1E+10	1	-1E+10	1	-1E+10	1
4902624	42	C	08/15/2025	04:36	-129.334	48.977	0	1174.70	0	3.1510	0	34.4100	0	27.408	0	1161.457	0	-1e10	1	-1e10	1	-1E+10	1	-1e10	1	-1e10	1	-1E+10	1	-1E+10	1	-1E+10	1
4902624	42	C	08/15/2025	04:36	-129.334	48.977	0	1193.00	0	3.1023	0	34.4161	0	27.417	0	1179.499	0	48.2	4	14.9	4	-1E+10	1	0.0585	4	0.000130	0	-1E+10	1	-1E+10	1	-1E+10	1
4902624	42	C	08/15/2025	04:36	-129.334	48.977	0	1216.90	0	3.0386	0	34.4241	0	27.430	0	1203.061	0	57.7	4	17.8	4	-1E+10	1	0.0657	4	0.000131	0	-1E+10	1	-1E+10	1	-1E+10	1
4902624	42	C	08/15/2025	04:36	-129.334	48.977	0	1225.40	0	3.0160	0	34.4270	0	27.434	0	1211.439	0	-1e10	1	-1e10	1	-1E+10	1	-1e10	1	-1e10	1	-1E+10	1	-1E+10	1	-1E+10	1
4902624	42	C	08/15/2025	04:36	-129.334	48.977	0	1236.70	0	2.9958	0	34.4311	0	27.439	0	1222.578	0	55.9	4	17.3	4	-1E+10	1	0.0656	4	0.000176	0	-1E+10	1	-1E+10	1	-1E+10	1
4902624	42	C	08/15/2025	04:36	-129.334	48.977	0	1252.70	0	2.9672	0	34.4370	0	27.447	0	1238.348	0	53.6	4	16.5	4	-1E+10	1	0.0582	4	0.000140	0	-1E+10	1	-1E+10	1	-1E+10	1
4902624	42	C	08/15/2025	04:36	-129.334	48.977	0	1269.40	0	2.9373	0	34.4431	0	27.454	0	1254.807	0	57.8	4	17.8	4	-1E+10	1	0.0511	4	0.000109	0	-1E+10	1	-1E+10	1	-1E+10	1
4902624	42	C	08/15/2025	04:36	-129.334	48.977	0	1274.60	0	2.9280	0	34.4450	0	27.457	0	1259.932	0	-1e10	1	-1e10	1	-1E+10	1	-1e10	1	-1e10	1	-1E+10	1	-1E+10	1	-1E+10	1
4902624	42	C	08/15/2025	04:36	-129.334	48.977	0	1286.70	0	2.8975	0	34.4474	0	27.461	0	1271.856	0	57.1	4	17.6	4	-1E+10	1	0.0513	4	0.000232	0	-1E+10	1	-1E+10	1	-1E+10	1
4902624	42	C	08/15/2025	04:36	-129.334	48.977	0	1304.60	0	2.8524	0	34.4510	0	27.468	0	1289.495	0	59.1	4	18.2	4	-1E+10	1	0.0585	4	0.000128	0	-1E+10	1	-1E+10	1	-1E+10	1
4902624	42	C	08/15/2025	04:36	-129.334	48.977	0	1323.30	0	2.8053	0	34.4547	0	27.475	0	1307.920	0	59.5	4	18.3	4	-1E+10	1	0.0656	4	0.000094	0	-1E+10	1	-1E+10	1	-1E+10	1
4902624	42	C	08/15/2025	04:36	-129.334	48.977	0	1324.60	0	2.8020	0	34.4550	0	27.476	0	1309.201	0	-1e10	1	-1e10	1	-1E+10	1	-1e10	1	-1e10	1	-1E+10	1	-1E+10	1	-1E+10	1
4902624	42	C	08/15/2025	04:36	-129.334	48.977	0	1342.90	0	2.7713	0	34.4586	0	27.482	0	1327.231	0	61.9	4	19.0	4	-1E+10	1	0.0584	4	0.000116	0	-1E+10	1	-1E+10	1	-1E+10	1
4902624	42	C	08/15/2025	04:36	-129.334	48.977	0	1363.80	0	2.7362	0	34.4627	0	27.488	0	1347.820	0	64.8	4	19.9	4	-1E+10	1	0.0583	4	0.000116	0	-1E+10	1	-1E+10	1	-1E+10	1
4902624	42	C	08/15/2025	04:36	-129.334	48.977	0	1375.20	0	2.7170	0	34.4650	0	27.492	0	1359.050	0	-1e10	1	-1e10	1	-1E+10	1	-1e10	1	-1e10	1	-1E+10	1	-1E+10	1	-1E+10	1
4902624	42	C	08/15/2025	04:36	-129.334	48.977	0	1385.50	0	2.6975	0	34.4673	0	27.495	0	1369.195	0	61.9	4	19.0	4	-1E+10	1	0.0512	4	0.000116	0	-1E+10	1	-1E+10	1	-1E+10	1
4902624	42	C	08/15/2025	04:36	-129.334	48.977	0	1407.50	0	2.6558	0	34.4721	0	27.503	0	1390.864	0	65.2	4	20.0	4	-1E+10	1	0.0584	4	0.000116	0	-1E+10	1	-1E+10	1	-1E+10	1
4902624	42	C	08/15/2025	04:36	-129.334	48.977	0	1425.30	0	2.6220	0	34.4760	0	27.509	0	1408.394	0	-1e10	1	-1e10	1	-1E+10	1	-1e10	1	-1e10	1	-1E+10	1	-1E+10	1	-1E+10	1
4902624	42	C	08/15/2025	04:36	-129.334	48.977	0	1429.60	0	2.6140	0	34.4775	0	27.511	0	1412.629	0	67.0	4	20.5	4	-1E+10	1	0.0583	4	0.000138	0	-1E+10	1	-1E+10	1	-1E+10	1
4902624	42	C	08/15/2025	04:36	-129.334	48.977	0	1452.50	0	2.5711	0	34.4856	0	27.521	0	1435.179	0	58.1	4	17.8	4	-1E+10	1	0.0510	4	0.000114	0	-1E+10	1	-1E+10	1	-1E+10	1
4902624	42	C	08/15/2025	04:36	-129.334	48.977	0	1471.90	0	2.5349	0	34.4925	0	27.530	0	1454.281	0	64.5	4	19.7	4	-1E+10	1	0.0441	4	0.000091	0	-1E+10	1	-1E+10	1	-1E+10	1
4902624	42	C	08/15/2025	04:36	-129.334	48.977	0	1476.10	0	2.5270	0	34.4940	0	27.532	0	1458.416	0	-1e10	1	-1e10	1	-1E+10	1	-1e10	1	-1e10	1	-1E+10	1	-1E+10	1	-1E+10	1
4902624	42	C	08/15/2025	04:36	-129.334	48.977	0	1487.90	0	2.5129	0	34.4967	0	27.535	0	1470.034	0	65.0	4	19.8	4	-1E+10	1	0.0582	4	0.000103	0	-1E+10	1	-1E+10	1	-1E+10	1
4902624	42	C	08/15/2025	04:36	-129.334	48.977	0	1504.70	0	2.4928	0	34.5005	0	27.540	0	1486.573	0	61.9	4	18.9	4	-1E+10	1	0.0514	4	0.000148	0	-1E+10	1	-1E+10	1	-1E+10	1
4902624	42	C	08/15/2025	04:36	-129.334	48.977	0	1521.80	0	2.4723	0	34.5044	0	27.545	0	1503.406	0	64.6	4	19.7	4	-1E+10	1	0.0657	4	0.000091	0	-1E+10	1	-1E+10	1	-1E+10	1
4902624	42	C	08/15/2025	04:36	-129.334	48.977	0	1524.60	0	2.4690	0	34.5050	0	27.545	0	1506.163	0	-1e10	1	-1e10	1	-1E+10	1	-1e10	1	-1e10	1	-1E+10	1	-1E+10	1	-1E+10	1
4902624	42	C	08/15/2025	04:36	-129.334	48.977	0	1539.60	0	2.4494	0	34.5089	0	27.550	0	1520.927	0	73.5	4	22.4	4	-1E+10	1	0.0652	4	0.000113	0	-1E+10	1	-1E+10	1	-1E+10	1
4902624	42	C	08/15/2025	04:36	-129.334	48.977	0	1558.30	0	2.4250	0	34.5137	0	27.556	0	1539.333	0	71.1	4	21.7	4	-1E+10	1	0.0438	4	0.000102	0	-1E+10	1	-1E+10	1	-1E+10	1
4902624	42	C	08/15/2025	04:36	-129.334	48.977	0	1575.20	0	2.4030	0	34.5180	0	27.562	0	1555.965	0	-1e10	1	-1e10	1	-1E+10	1	-1e10	1	-1e10	1	-1E+10	1	-1E+10	1	-1E+10	1
4902624	42	C	08/15/2025	04:36	-129.334	48.977	0	1578.50	0	2.3991	0	34.5187	0	27.563	0	1559.212	0	72.8	4	22.2	4	-1E+10	1	0.0438	4	0.000136	0	-1E+10	1	-1E+10	1	-1E+10	1
4902624	42	C	08/15/2025	04:36	-129.334	48.977	0	1599.80	0	2.3737	0	34.5230	0	27.568	0	1580.173	0	69.6	4	21.2	4	-1E+10	1	0.0442	4	0.000113	0	-1E+10	1	-1E+10	1	-1E+10	1
4902624	42	C	08/15/2025	04:36	-129.334	48.977	0	1622.20	0	2.3470	0	34.5275	0	27.574	0	1602.213	0	69.9	4	21.3	4	-1E+10	1	0.0649	4	0.000135	0	-1E+10	1	-1E+10	1	-1E+10	1
4902624	42	C	08/15/2025	04:36	-129.334	48.977	0	1624.70	0	2.3440	0	34.5280	0	27.575	0	1604.673	0	-1e10	1	-1e10	1	-1E+10	1	-1e10	1	-1e10	1	-1E+10	1	-1E+10	1	-1E+10	1
4902624	42	C	08/15/2025	04:36	-129.334	48.977	0	1645.30	0	2.3232	0	34.5317	0	27.579	0	1624.940	0	71.6	4	21.8	4	-1E+10	1	0.0297	4	0.000100	0	-1E+10	1	-1E+10	1	-1E+10	1
4902624	42	C	08/15/2025	04:36	-129.334	48.977	0	1662.00	0	2.3064	0	34.5346	0	27.583	0	1641.368	0	70.7	4	21.5	4	-1E+10	1	0.0511	4	0.000100	0	-1E+10	1	-1E+10	1	-1E+10	1
4902624	42	C	08/15/2025	04:36	-129.334	48.977	0	1675.30	0	2.2930	0	34.5370	0	27.586	0	1654.452	0	-1e10	1	-1e10	1	-1E+10	1	-1e10	1	-1e10	1	-1E+10	1	-1E+10	1	-1E+10	1
4902624	42	C	08/15/2025	04:36	-129.334	48.977	0	1678.50	0	2.2910	0	34.5374	0	27.587	0	1657.599	0	76.0	4	23.1	4	-1E+10	1	0.0512	4	0.000111	0	-1E+10	1	-1E+10	1	-1E+10	1
4902624	42	C	08/15/2025	04:36	-129.334	48.977	0	1696.10	0	2.2801	0	34.5399	0	27.590	0	1674.911	0	78.7	4	23.9	4	-1E+10	1	0.0584	4	0.000134	0	-1E+10	1	-1E+10	1	-1E+10	1
4902624	42	C	08/15/2025	04:36	-129.334	48.977	0	1714.40	0	2.2687	0	34.5425	0	27.593	0	1692.909	0	79.7	4	24.2	4	-1E+10	1	0.0584	4	0.000110	0	-1E+10	1	-1E+10	1	-1E+10	1
4902624	42	C	08/15/2025	04:36	-129.334	48.977	0	1725.20	0	2.2620	0	34.5440	0	27.595	0	1703.530	0	-1e10	1	-1e10	1	-1E+10	1	-1e10	1	-1e10	1	-1E+10	1	-1E+10	1	-1E+10	1
4902624	42	C	08/15/2025	04:36	-129.334	48.977	0	1732.40	0	2.2527	0	34.5453	0	27.597	0	1710.611	0	80.1	4	24.3	4	-1E+10	1	0.0583	4	0.000110	0	-1E+10	1	-1E+10	1	-1E+10	1
4902624	42	C	08/15/2025	04:36	-129.334	48.977	0	1750.70	0	2.2291	0	34.5486	0	27.601	0	1728.606	0	81.6	4	24.7	4	-1E+10	1	0.0511	4	0.000087	0	-1E+10	1	-1E+10	1	-1E+10	1
4902624	42	C	08/15/2025	04:36	-129.334	48.977	0	1769.40	0	2.2050	0	34.5520	0	27.606	0	1746.993	0	83.5	4	25.3	4	-1E+10	1	0.0513	4	0.000098	0	-1E+10	1	-1E+10	1	-1E+10	1
4902624	42	C	08/15/2025	04:36	-129.334	48.977	0	1774.80	0	2.1980	0	34.5530	0	27.607	0	1752.303	0	-1e10	1	-1e10	1	-1E+10	1	-1e10	1	-1e10	1	-1E+10	1	-1E+10	1	-1E+10	1
4902624	42	C	08/15/2025	04:36	-129.334	48.977	0	1788.40	0	2.1781	0	34.5560	0	27.611	0	1765.674	0	90.6	4	27.4	4	-1E+10	1	0.0584	4	0.000132	0	-1E+10	1	-1E+10	1	-1E+10	1
4902624	42	C	08/15/2025	04:36	-129.334	48.977	0	1807.80	0	2.1496	0	34.5603	0	27.617	0	1784.746	0	90.4	4	27.4	4	-1E+10	1	0.0583	4	0.000121	0	-1E+10	1	-1E+10	1	-1E+10	1
4902624	42	C	08/15/2025	04:36	-129.334	48.977	0	1824.60	0	2.1250	0	34.5640	0	27.622	0	1801.260	0	-1e10	1	-1e10	1	-1E+10	1	-1e10	1	-1e10	1	-1E+10	1	-1E+10	1	-1E+10	1
4902624	42	C	08/15/2025	04:36	-129.334	48.977	0	1827.20	0	2.1223	0	34.5645	0	27.623	0	1803.816	0	91.8	4	27.8	4	-1E+10	1	0.0512	4	0.000155	0	-1E+10	1	-1E+10	1	-1E+10	1
4902624	42	C	08/15/2025	04:36	-129.334	48.977	0	1847.20	0	2.1018	0	34.5680	0	27.627	0	1823.474	0	95.5	4	28.9	4	-1E+10	1	0.0584	4	0.000132	0	-1E+10	1	-1E+10	1	-1E+10	1
4902624	42	C	08/15/2025	04:36	-129.334	48.977	0	1868.10	0	2.0804	0	34.5717	0	27.632	0	1844.015	0	92.9	4	28.1	4	-1E+10	1	0.0580	4	0.000143	0	-1E+10	1	-1E+10	1	-1E+10	1
4902624	42	C	08/15/2025	04:36	-129.334	48.977	0	1875.30	0	2.0730	0	34.5730	0	27.634	0	1851.091	0	-1e10	1	-1e10	1	-1E+10	1	-1e10	1	-1e10	1	-1E+10	1	-1E+10	1	-1E+10	1
4902624	42	C	08/15/2025	04:36	-129.334	48.977	0	1890.20	0	2.0665	0	34.5742	0	27.635	0	1865.733	0	93.7	4	28.3	4	-1E+10	1	0.0367	4	0.000143	0	-1E+10	1	-1E+10	1	-1E+10	1
4902624	42	C	08/15/2025	04:36	-129.334	48.977	0	1908.00	0	2.0587	0	34.5756	0	27.637	0	1883.224	0	94.6	4	28.6	4	-1E+10	1	0.0439	4	0.000154	0	-1E+10	1	-1E+10	1	-1E+10	1
4902624	42	C	08/15/2025	04:36	-129.334	48.977	0	1924.20	0	2.0516	0	34.5769	0	27.639	0	1899.142	0	94.4	4	28.5	4	-1E+10	1	0.0510	4	0.000176	0	-1E+10	1	-1E+10	1	-1E+10	1
4902624	42	C	08/15/2025	04:36	-129.334	48.977	0	1925.60	0	2.0510	0	34.5770	0	27.639	0	1900.517	0	-1e10	1	-1e10	1	-1E+10	1	-1e10	1	-1e10	1	-1E+10	1	-1E+10	1	-1E+10	1
4902624	42	C	08/15/2025	04:36	-129.334	48.977	0	1940.40	0	2.0420	0	34.5787	0	27.641	0	1915.058	0	93.7	4	28.3	4	-1E+10	1	0.0438	4	0.000141	0	-1E+10	1	-1E+10	1	-1E+10	1
4902624	42	C	08/15/2025	04:36	-129.334	48.977	0	1957.30	0	2.0316	0	34.5806	0	27.644	0	1931.661	0	95.3	4	28.8	4	-1E+10	1	0.0438	4	0.000131	0	-1E+10	1	-1E+10	1	-1E+10	1
4902624	42	C	08/15/2025	04:36	-129.334	48.977	0	1969.80	0	2.0240	0	34.5820	0	27.645	0	1943.940	0	-1e10	1	-1e10	1	-1E+10	1	-1e10	1	-1e10	1	-1E+10	1	-1E+10	1	-1E+10	1
4902624	42	C	08/15/2025	04:36	-129.334	48.977	0	1975.00	0	-1e10	1	-1e10	1	-1e10	1	1949.048	0	99.5	4	-1e10	4	-1E+10	1	0.0440	4	0.000190	0	-1E+10	1	-1E+10	1	-1E+10	1
4902624	42	C	08/15/2025	04:36	-129.334	48.977	0	1989.60	0	-1e10	1	-1e10	1	-1e10	1	1963.389	0	71.3	4	-1e10	4	-1E+10	1	0.0511	4	0.000179	0	-1E+10	1	-1E+10	1	-1E+10	1
4902624	42	C	08/15/2025	04:36	-129.334	48.977	0																										
4902624	43	C	08/24/2025	23:44	-129.102	49.179	0	0.40	0	17.4200	0	31.9630	0	23.087	0	0.397	0	226.6	4	93.9	4	-1E+10	1	0.0657	4	0.000625	0	-1E+10	1	-1E+10	1	-1E+10	1
4902624	43	C	08/24/2025	23:44	-129.102	49.179	0	0.50	0	17.4199	0	31.9635	0	23.088	0	0.496	0	226.6	4	93.8	4	-1E+10	1	0.0657	4	0.000625	0	-1E+10	1	-1E+10	1	-1E+10	1
4902624	43	C	08/24/2025	23:44	-129.102	49.179	0	0.60	0	17.4198	0	31.9641	0	23.088	0	0.595	0	-1e10	1	-1e10	1	-1E+10	1	0.1533	4	0.001164	0	-1E+10	1	-1E+10	1	-1E+10	1
4902624	43	C	08/24/2025	23:44	-129.102	49.179	0	0.80	0	17.4196	0	31.9652	0	23.089	0	0.793	0	-1e10	1	-1e10	1	-1E+10	1	0.1387	4	0.000754	0	-1E+10	1	-1E+10	1	-1E+10	1
4902624	43	C	08/24/2025	23:44	-129.102	49.179	0	1.10	0	17.4194	0	31.9668	0	23.090	0	1.091	0	-1e10	1	-1e10	1	-1E+10	1	0.1095	4	0.000601	0	-1E+10	1	-1E+10	1	-1E+10	1
4902624	43	C	08/24/2025	23:44	-129.102	49.179	0	1.50	0	17.4190	0	31.9690	0	23.092	0	1.487	0	-1e10	1	-1e10	1	-1E+10	1	0.0584	4	0.000355	0	-1E+10	1	-1E+10	1	-1E+10	1
4902624	43	C	08/24/2025	23:44	-129.102	49.179	0	1.60	0	17.4189	0	31.9691	0	23.092	0	1.586	0	-1e10	1	-1e10	1	-1E+10	1	0.2482	4	0.001211	0	-1E+10	1	-1E+10	1	-1E+10	1
4902624	43	C	08/24/2025	23:44	-129.102	49.179	0	1.70	0	17.4188	0	31.9692	0	23.092	0	1.686	0	-1e10	1	-1e10	1	-1E+10	1	0.0146	4	-0.000044	8	-1E+10	1	-1E+10	1	-1E+10	1
4902624	43	C	08/24/2025	23:44	-129.102	49.179	0	2.00	0	17.4185	0	31.9695	0	23.093	0	1.983	0	226.1	4	93.6	4	-1E+10	1	0.2044	4	0.001153	0	-1E+10	1	-1E+10	1	-1E+10	1
4902624	43	C	08/24/2025	23:44	-129.102	49.179	0	2.10	0	17.4184	0	31.9696	0	23.093	0	2.082	0	-1e10	1	-1e10	1	-1E+10	1	0.0511	4	0.000472	0	-1E+10	1	-1E+10	1	-1E+10	1
4902624	43	C	08/24/2025	23:44	-129.102	49.179	0	2.30	0	17.4182	0	31.9698	0	23.093	0	2.280	0	-1e10	1	-1e10	1	-1E+10	1	0.1606	4	0.001223	0	-1E+10	1	-1E+10	1	-1E+10	1
4902624	43	C	08/24/2025	23:44	-129.102	49.179	0	2.50	0	17.4180	0	31.9700	0	23.093	0	2.479	0	-1e10	1	-1e10	1	-1E+10	1	-1e10	1	-1e10	1	-1E+10	1	-1E+10	1	-1E+10	1
4902624	43	C	08/24/2025	23:44	-129.102	49.179	0	2.60	0	17.4180	0	31.9700	0	23.093	0	2.578	0	-1e10	1	-1e10	1	-1E+10	1	0.1898	4	0.001164	0	-1E+10	1	-1E+10	1	-1E+10	1
4902624	43	C	08/24/2025	23:44	-129.102	49.179	0	2.70	0	17.4180	0	31.9700	0	23.093	0	2.677	0	226.1	4	93.7	4	-1E+10	1	0.1825	4	0.001188	0	-1E+10	1	-1E+10	1	-1E+10	1
4902624	43	C	08/24/2025	23:44	-129.102	49.179	0	3.10	0	17.4180	0	31.9700	0	23.093	0	3.074	0	-1e10	1	-1e10	1	-1E+10	1	0.1606	4	0.001129	0	-1E+10	1	-1E+10	1	-1E+10	1
4902624	43	C	08/24/2025	23:44	-129.102	49.179	0	3.30	0	17.4180	0	31.9700	0	23.093	0	3.272	0	-1e10	1	-1e10	1	-1E+10	1	0.1752	4	0.001094	0	-1E+10	1	-1E+10	1	-1E+10	1
4902624	43	C	08/24/2025	23:44	-129.102	49.179	0	3.50	0	17.4180	0	31.9700	0	23.093	0	3.470	0	-1e10	1	-1e10	1	-1E+10	1	0.2044	4	0.001082	0	-1E+10	1	-1E+10	1	-1E+10	1
4902624	43	C	08/24/2025	23:44	-129.102	49.179	0	3.70	0	17.4178	0	31.9700	0	23.093	0	3.669	0	226.1	4	93.7	4	-1E+10	1	0.2044	4	0.001211	0	-1E+10	1	-1E+10	1	-1E+10	1
4902624	43	C	08/24/2025	23:44	-129.102	49.179	0	3.90	0	17.4176	0	31.9700	0	23.093	0	3.867	0	-1e10	1	-1e10	1	-1E+10	1	0.2263	4	0.001188	0	-1E+10	1	-1E+10	1	-1E+10	1
4902624	43	C	08/24/2025	23:44	-129.102	49.179	0	4.10	0	17.4175	0	31.9700	0	23.093	0	4.065	0	-1e10	1	-1e10	1	-1E+10	1	0.1971	4	0.001211	0	-1E+10	1	-1E+10	1	-1E+10	1
4902624	43	C	08/24/2025	23:44	-129.102	49.179	0	4.40	0	17.4172	0	31.9700	0	23.093	0	4.363	0	-1e10	1	-1e10	1	-1E+10	1	0.2117	4	0.001094	0	-1E+10	1	-1E+10	1	-1E+10	1
4902624	43	C	08/24/2025	23:44	-129.102	49.179	0	4.60	0	17.4170	0	31.9700	0	23.093	0	4.561	0	-1e10	1	-1e10	1	-1E+10	1	-1e10	1	-1e10	1	-1E+10	1	-1E+10	1	-1E+10	1
4902624	43	C	08/24/2025	23:44	-129.102	49.179	0	4.80	0	17.4168	0	31.9700	0	23.094	0	4.759	0	226.1	4	93.6	4	-1E+10	1	0.2044	4	0.001153	0	-1E+10	1	-1E+10	1	-1E+10	1
4902624	43	C	08/24/2025	23:44	-129.102	49.179	0	5.00	0	17.4166	0	31.9700	0	23.094	0	4.957	0	-1e10	1	-1e10	1	-1E+10	1	0.1971	4	0.001153	0	-1E+10	1	-1E+10	1	-1E+10	1
4902624	43	C	08/24/2025	23:44	-129.102	49.179	0	5.20	0	17.4163	0	31.9700	0	23.094	0	5.156	0	-1e10	1	-1e10	1	-1E+10	1	0.2482	4	0.001153	0	-1E+10	1	-1E+10	1	-1E+10	1
4902624	43	C	08/24/2025	23:44	-129.102	49.179	0	5.50	0	17.4160	0	31.9700	0	23.094	0	5.453	0	-1e10	1	-1e10	1	-1E+10	1	0.2482	4	0.001188	0	-1E+10	1	-1E+10	1	-1E+10	1
4902624	43	C	08/24/2025	23:44	-129.102	49.179	0	5.70	0	17.4160	0	31.9698	0	23.094	0	5.651	0	-1e10	1	-1e10	1	-1E+10	1	0.2555	4	0.001141	0	-1E+10	1	-1E+10	1	-1E+10	1
4902624	43	C	08/24/2025	23:44	-129.102	49.179	0	5.90	0	17.4160	0	31.9696	0	23.093	0	5.850	0	226.0	4	93.6	4	-1E+10	1	0.2482	4	0.001176	0	-1E+10	1	-1E+10	1	-1E+10	1
4902624	43	C	08/24/2025	23:44	-129.102	49.179	0	6.20	0	17.4160	0	31.9693	0	23.093	0	6.147	0	-1e10	1	-1e10	1	-1E+10	1	0.2409	4	0.001141	0	-1E+10	1	-1E+10	1	-1E+10	1
4902624	43	C	08/24/2025	23:44	-129.102	49.179	0	6.40	0	17.4160	0	31.9691	0	23.093	0	6.346	0	-1e10	1	-1e10	1	-1E+10	1	0.2555	4	0.001176	0	-1E+10	1	-1E+10	1	-1E+10	1
4902624	43	C	08/24/2025	23:44	-129.102	49.179	0	6.50	0	17.4160	0	31.9690	0	23.093	0	6.445	0	-1e10	1	-1e10	1	-1E+10	1	-1e10	1	-1e10	1	-1E+10	1	-1E+10	1	-1E+10	1
4902624	43	C	08/24/2025	23:44	-129.102	49.179	0	6.80	0	17.4163	0	31.9693	0	23.093	0	6.742	0	-1e10	1	-1e10	1	-1E+10	1	0.2409	4	0.001176	0	-1E+10	1	-1E+10	1	-1E+10	1
4902624	43	C	08/24/2025	23:44	-129.102	49.179	0	7.10	0	17.4167	0	31.9697	0	23.093	0	7.040	0	226.0	4	93.6	4	-1E+10	1	0.2482	4	0.001129	0	-1E+10	1	-1E+10	1	-1E+10	1
4902624	43	C	08/24/2025	23:44	-129.102	49.179	0	7.30	0	17.4169	0	31.9699	0	23.093	0	7.238	0	-1e10	1	-1e10	1	-1E+10	1	0.2409	4	0.001188	0	-1E+10	1	-1E+10	1	-1E+10	1
4902624	43	C	08/24/2025	23:44	-129.102	49.179	0	7.40	0	17.4170	0	31.9700	0	23.094	0	7.337	0	-1e10	1	-1e10	1	-1E+10	1	-1e10	1	-1e10	1	-1E+10	1	-1E+10	1	-1E+10	1
4902624	43	C	08/24/2025	23:44	-129.102	49.179	0	7.50	0	17.4168	0	31.9700	0	23.094	0	7.436	0	-1e10	1	-1e10	1	-1E+10	1	0.2555	4	0.001176	0	-1E+10	1	-1E+10	1	-1E+10	1
4902624	43	C	08/24/2025	23:44	-129.102	49.179	0	7.80	0	17.4163	0	31.9700	0	23.094	0	7.734	0	-1e10	1	-1e10	1	-1E+10	1	0.2409	4	0.001117	0	-1E+10	1	-1E+10	1	-1E+10	1
4902624	43	C	08/24/2025	23:44	-129.102	49.179	0	8.00	0	17.4159	0	31.9700	0	23.094	0	7.932	0	-1e10	1	-1e10	1	-1E+10	1	0.2628	4	0.001164	0	-1E+10	1	-1E+10	1	-1E+10	1
4902624	43	C	08/24/2025	23:44	-129.102	49.179	0	8.20	0	17.4155	0	31.9700	0	23.094	0	8.130	0	226.1	4	93.6	4	-1E+10	1	0.2701	4	0.001153	0	-1E+10	1	-1E+10	1	-1E+10	1
4902624	43	C	08/24/2025	23:44	-129.102	49.179	0	8.50	0	17.4150	0	31.9700	0	23.094	0	8.428	0	-1e10	1	-1e10	1	-1E+10	1	-1e10	1	-1e10	1	-1E+10	1	-1E+10	1	-1E+10	1
4902624	43	C	08/24/2025	23:44	-129.102	49.179	0	8.80	0	17.4147	0	31.9700	0	23.094	0	8.725	0	-1e10	1	-1e10	1	-1E+10	1	0.2628	4	0.001164	0	-1E+10	1	-1E+10	1	-1E+10	1
4902624	43	C	08/24/2025	23:44	-129.102	49.179	0	9.00	0	17.4145	0	31.9700	0	23.094	0	8.923	0	-1e10	1	-1e10	1	-1E+10	1	0.2701	4	0.001211	0	-1E+10	1	-1E+10	1	-1E+10	1
4902624	43	C	08/24/2025	23:44	-129.102	49.179	0	9.30	0	17.4142	0	31.9700	0	23.094	0	9.221	0	-1e10	1	-1e10	1	-1E+10	1	0.2774	4	0.001153	0	-1E+10	1	-1E+10	1	-1E+10	1
4902624	43	C	08/24/2025	23:44	-129.102	49.179	0	9.50	0	17.4140	0	31.9700	0	23.094	0	9.419	0	226.3	4	93.7	4	-1E+10	1	0.2774	4	0.001129	0	-1E+10	1	-1E+10	1	-1E+10	1
4902624	43	C	08/24/2025	23:44	-129.102	49.179	0	10.80	0	17.4131	0	31.9700	0	23.095	0	10.708	0	226.4	4	93.8	4	-1E+10	1	0.2763	4	0.001141	0	-1E+10	1	-1E+10	1	-1E+10	1
4902624	43	C	08/24/2025	23:44	-129.102	49.179	0	10.90	0	17.4130	0	31.9700	0	23.095	0	10.807	0	-1e10	1	-1e10	1	-1E+10	1	-1e10	1	-1e10	1	-1E+10	1	-1E+10	1	-1E+10	1
4902624	43	C	08/24/2025	23:44	-129.102	49.179	0	12.00	0	17.4120	0	31.9705	0	23.095	0	11.898	0	226.6	4	93.8	4	-1E+10	1	0.2886	4	0.001141	0	-1E+10	1	-1E+10	1	-1E+10	1
4902624	43	C	08/24/2025	23:44	-129.102	49.179	0	13.00	0	17.4110	0	31.9710	0	23.096	0	12.889	0	-1e10	1	-1e10	1	-1E+10	1	-1e10	1	-1e10	1	-1E+10	1	-1E+10	1	-1E+10	1
4902624	43	C	08/24/2025	23:44	-129.102	49.179	0	13.40	0	17.4072	0	31.9724	0	23.098	0	13.286	0	226.8	4	93.9	4	-1E+10	1	0.3071	4	0.001165	0	-1E+10	1	-1E+10	1	-1E+10	1
4902624	43	C	08/24/2025	23:44	-129.102	49.179	0	14.70	0	17.3948	0	31.9770	0	23.104	0	14.575	0	227.1	4	94.0	4	-1E+10	1	0.3102	4	0.001141	0	-1E+10	1	-1E+10	1	-1E+10	1
4902624	43	C	08/24/2025	23:44	-129.102	49.179	0	15.00	0	17.3920	0	31.9780	0	23.106	0	14.872	0	-1e10	1	-1e10	1	-1E+10	1	-1e10	1	-1e10	1	-1E+10	1	-1E+10	1	-1E+10	1
4902624	43	C	08/24/2025	23:44	-129.102	49.179	0	16.00	0	17.3895	0	31.9785	0	23.107	0	15.863	0	227.5	4	94.2	4	-1E+10	1	0.3066	4	0.001125	0	-1E+10	1	-1E+10	1	-1E+10	1
4902624	43	C	08/24/2025	23:44	-129.102	49.179	0	17.00	0	17.3870	0	31.9790	0	23.108	0	16.855	0	-1e10	1	-1e10	1	-1E+10	1	-1e10	1	-1e10	1	-1E+10	1	-1E+10	1	-1E+10	1
4902624	43	C	08/24/2025	23:44	-129.102	49.179	0	17.10	0	17.3862	0	31.9793	0	23.108	0	16.954	0	227.8	4	94.3	4	-1E+10	1	0.3119	4	0.001170	0	-1E+10	1	-1E+10	1	-1E+10	1
4902624	43	C	08/24/2025	23:44	-129.102	49.179	0	18.00	0	17.3791	0	31.9816	0	23.112	0	17.846	0	228.3	4	94.5	4	-1E+10	1	0.3252	4	0.001202	0	-1E+10	1	-1E+10	1	-1E+10	1
4902624	43	C	08/24/2025	23:44	-129.102	49.179	0	18.90	0	17.3720	0	31.9840	0	23.115	0	18.739	0	228.9	4	94.7	4	-1E+10	1	0.3431	4	0.001211	0	-1E+10	1	-1E+10	1	-1E+10	1
4902624	43	C	08/24/2025	23:44	-129.102	49.179	0	19.70	0	17.3667	0	31.9840	0	23.117	0	19.532	0	229.4	4	94.9	4	-1E+10	1	0.3358	4	0.001211	0	-1E+10	1	-1E+10	1	-1E+10	1
4902624	43	C	08/24/2025	23:44	-129.102	49.179	0	20.60	0	17.3607	0	31.9840	0	23.118	0	20.424	0	230.2	4	95.3	4	-1E+10	1	0.3358	4	0.001148	0	-1E+10	1	-1E+10	1	-1E+10	1
4902624	43	C	08/24/2025	23:44	-129.102	49.179	0	21.00	0	17.3580	0	31.9840	0	23.119	0	20.820	0	-1e10	1	-1e10	1	-1E+10	1	-1e10	1	-1e10	1	-1E+10	1	-1E+10	1	-1E+10	1
4902624	43	C	08/24/2025	23:44	-129.102	49.179	0	21.30	0	17.3501	0	31.9836	0	23.120	0	21.118	0	231.2	4	95.7	4	-1E+10	1	0.3402	4	0.001169	0	-1E+10	1	-1E+10	1	-1E+10	1
4902624	43	C	08/24/2025	23:44	-129.102	49.179	0	22.10	0	17.3292	0	31.9824	0	23.124	0	21.911	0	232.4	4	96.1	4	-1E+10	1	0.3473	4	0.001188	0	-1E+10	1	-1E+10	1	-1E+10	1
4902624	43	C	08/24/2025	23:44	-129.102	49.179	0	22.90	0	17.3082	0	31.9813	0	23.128	0	22.704	0	234.2	4	96.8	4	-1E+10	1	0.3595	4	0.001188	0	-1E+10	1	-1E+10	1	-1E+10	1
4902624	43	C	08/24/2025	23:44	-129.102	49.179	0	23.10	0	17.3030	0	31.9810	0	23.129	0	22.902	0	-1e10	1	-1e10	1	-1E+10	1	-1e10	1	-1e10	1	-1E+10	1	-1E+10	1	-1E+10	1
4902624	43	C	08/24/2025	23:44	-129.102	49.179	0	23.50	0	17.1382	0	31.9820	0	23.169	0	23.299	0	236.4	4	97.4	4	-1E+10	1	0.4088	4	0.001215	0	-1E+10	1	-1E+10	1	-1E+10	1
4902624	43	C	08/24/2025	23:44	-129.102	49.179	0	24.20	0	16.8498	0	31.9838	0	23.237	0	23.993	0	238.5	4	97.7	4	-1E+10	1	0.5277	4	0.001322	0	-1E+10	1	-1E+10	1	-1E+10	1
4902624	43	C	08/24/2025	23:44	-129.102	49.179	0	25.00	0	16.5202	0	31.9858	0	23.315	0	24.786	0	242.8	4	98.8	4	-1E+10	1	0.7446	4	0.001691	0	-1E+10	1	-1E+10	1	-1E+10	1
4902624	43	C	08/24/2025	23:44	-129.102	49.179	0	25.10	0	16.4790	0	31.9860	0	23.324	0	24.885	0	-1e10	1	-1e10	1	-1E+10	1	-1e10	1	-1e10	1	-1E+10	1	-1E+10	1	-1E+10	1
4902624	43	C	08/24/2025	23:44	-129.102	49.179	0	25.70	0	15.9854	0	31.9869	0	23.436	0	25.480	0	247.2	4	99.6	4	-1E+10	1	0.8468	4	0.001892	0	-1E+10	1	-1E+10	1	-1E+10	1
4902624	43	C	08/24/2025	23:44	-129.102	49.179	0	26.30	0	15.4918	0	31.9879	0	23.546	0	26.075	0	247.9	4	99.0	4	-1E+10	1	0.8468	4	0.001892	0	-1E+10	1	-1E+10	1	-1E+10	1
4902624	43	C	08/24/2025	23:44	-129.102	49.179	0	26.70	0	15.1628	0	31.9885	0	23.618	0	26.471	0	248.3	4	98.5	4	-1E+10	1	0.8833	4	0.001938	0	-1E+10	1	-1E+10	1	-1E+10	1
4902624	43	C	08/24/2025	23:44	-129.102	49.179	0	27.00	0	14.9160	0	31.9890	0	23.671	0	26.769	0	-1e10	1	-1e10	1	-1E+10	1	-1e10	1	-1e10	1	-1E+10	1	-1E+10	1	-1E+10	1
4902624	43	C	08/24/2025	23:44	-129.102	49.179	0	27.20	0	14.8631	0	31.9901	0	23.683	0	26.967	0	248.6	4	98.0	4	-1E+10	1	0.8894	4	0.001978	0	-1E+10	1	-1E+10	1	-1E+10	1
4902624	43	C	08/24/2025	23:44	-129.102	49.179	0	27.60	0	14.7573	0	31.9923	0	23.708	0	27.364	0	249.1	4	98.0	4	-1E+10	1	0.9256	4	0.002042	0	-1E+10	1	-1E+10	1	-1E+10	1
4902624	43	C	08/24/2025	23:44	-129.102	49.179	0	28.10	0	14.6251	0	31.9951	0	23.738	0	27.859	0	249.5	4	97.9	4	-1E+10	1	0.9884	4	0.002178	0	-1E+10	1	-1E+10	1	-1E+10	1
4902624	43	C	08/24/2025	23:44	-129.102	49.179	0	28.50	0	14.5192	0	31.9972	0	23.762	0	28.256	0	250.1	4	97.9	4	-1E+10	1	1.0110	4	0.002161	0	-1E+10	1	-1E+10	1	-1E+10	1
4902624	43	C	08/24/2025	23:44	-129.102	49.179	0	28.90	0	14.4135	0	31.9995	0	23.785	0	28.652	0	250.1	4	97.7	4	-1E+10	1	1.0483	4	0.002112	0	-1E+10	1	-1E+10	1	-1E+10	1
4902624	43	C	08/24/2025	23:44	-129.102	49.179	0	29.00	0	14.3870	0	32.0000	0	23.791	0	28.752	0	-1e10	1	-1e10	1	-1E+10	1	-1e10	1	-1e10	1	-1E+10	1	-1E+10	1	-1E+10	1
4902624	43	C	08/24/2025	23:44	-129.102	49.179	0	29.30	0	14.2738	0	32.0032	0	23.817	0	29.049	0	250.1	4	97.4	4	-1E+10	1	1.1351	4	0.002220	0	-1E+10	1	-1E+10	1	-1E+10	1
4902624	43	C	08/24/2025	23:44	-129.102	49.179	0	29.70	0	14.1228	0	32.0074	0	23.852	0	29.445	0	250.9	4	97.5	4	-1E+10	1	1.3347	4	0.002437	0	-1E+10	1	-1E+10	1	-1E+10	1
4902624	43	C	08/24/2025	23:44	-129.102	49.179	0	30.20	0	13.9342	0	32.0126	0	23.895	0	29.941	0	250.4	4	96.9	4	-1E+10	1	1.9491	4	0.002642	0	-1E+10	1	-1E+10	1	-1E+10	1
4902624	43	C	08/24/2025	23:44	-129.102	49.179	0	30.70	0	13.7455	0	32.0179	0	23.937	0	30.437	0	250.2	4	96.5	4	-1E+10	1	1.8943	4	0.002769	0	-1E+10	1	-1E+10	1	-1E+10	1
4902624	43	C	08/24/2025	23:44	-129.102	49.179	0	30.90	0	13.6700	0	32.0200	0	23.954	0	30.635	0	-1e10	1	-1e10	1	-1E+10	1	-1e10	1	-1e10	1	-1E+10	1	-1E+10	1	-1E+10	1
4902624	43	C	08/24/2025	23:44	-129.102	49.179	0	31.30	0	13.4438	0	32.0328	0	24.009	0	31.032	0	249.4	4	95.6	4	-1E+10	1	2.5248	4	0.002853	0	-1E+10	1	-1E+10	1	-1E+10	1
4902624	43	C	08/24/2025	23:44	-129.102	49.179	0	32.10	0	12.9914	0	32.0584	0	24.118	0	31.825	0	248.2	4	94.3	4	-1E+10	1	3.2388	4	0.003127	0	-1E+10	1	-1E+10	1	-1E+10	1
4902624	43	C	08/24/2025	23:44	-129.102	49.179	0	32.90	0	12.5390	0	32.0840	0	24.225	0	32.618	0	245.5	4	92.4	4	-1E+10	1	3.5733	4	0.003317	0	-1E+10	1	-1E+10	1	-1E+10	1
4902624	43	C	08/24/2025	23:44	-129.102	49.179	0	33.70	0	12.3398	0	32.0882	0	24.266	0	33.411	0	246.6	4	92.4	4	-1E+10	1	3.6500	4	0.003209	0	-1E+10	1	-1E+10	1	-1E+10	1
4902624	43	C	08/24/2025	23:44	-129.102	49.179	0	34.60	0	12.1156	0	32.0929	0	24.312	0	34.303	0	245.4	4	91.6	4	-1E+10	1	3.5478	4	0.002760	0	-1E+10	1	-1E+10	1	-1E+10	1
4902624	43	C	08/24/2025	23:44	-129.102	49.179	0	35.00	0	12.0160	0	32.0950	0	24.332	0	34.700	0	-1e10	1	-1e10	1	-1E+10	1	-1e10	1	-1e10	1	-1E+10	1	-1E+10	1	-1E+10	1
4902624	43	C	08/24/2025	23:44	-129.102	49.179	0	35.50	0	11.9643	0	32.0983	0	24.344	0	35.195	0	244.2	4	90.8	4	-1E+10	1	3.4115	4	0.002539	0	-1E+10	1	-1E+10	1	-1E+10	1
4902624	43	C	08/24/2025	23:44	-129.102	49.179	0	36.50	0	11.8610	0	32.1050	0	24.369	0	36.187	0	243.0	4	90.2	4	-1E+10	1	3.2412	4	0.002666	0	-1E+10	1	-1E+10	1	-1E+10	1
4902624	43	C	08/24/2025	23:44	-129.102	49.179	0	37.10	0	11.7990	0	32.1090	0	24.383	0	36.781	0	-1e10	1	-1e10	1	-1E+10	1	-1e10	1	-1e10	1	-1E+10	1	-1E+10	1	-1E+10	1
4902624	43	C	08/24/2025	23:44	-129.102	49.179	0	37.50	0	11.7777	0	32.1098	0	24.388	0	37.178	0	241.5	4	89.5	4	-1E+10	1	3.2120	4	0.002701	0	-1E+10	1	-1E+10	1	-1E+10	1
4902624	43	C	08/24/2025	23:44	-129.102	49.179	0	38.50	0	11.7246	0	32.1119	0	24.399	0	38.169	0	239.6	4	88.7	4	-1E+10	1	3.1633	4	0.002613	0	-1E+10	1	-1E+10	1	-1E+10	1
4902624	43	C	08/24/2025	23:44	-129.102	49.179	0	39.00	0	11.6980	0	32.1130	0	24.405	0	38.665	0	-1e10	1	-1e10	1	-1E+10	1	-1e10	1	-1e10	1	-1E+10	1	-1E+10	1	-1E+10	1
4902624	43	C	08/24/2025	23:44	-129.102	49.179	0	39.50	0	11.6296	0	32.1196	0	24.422	0	39.161	0	237.9	4	87.9	4	-1E+10	1	3.0709	4	0.002345	0	-1E+10	1	-1E+10	1	-1E+10	1
4902624	43	C	08/24/2025	23:44	-129.102	49.179	0	40.40	0	11.5064	0	32.1314	0	24.454	0	40.053	0	236.6	4	87.2	4	-1E+10	1	2.8957	4	0.002129	0	-1E+10	1	-1E+10	1	-1E+10	1
4902624	43	C	08/24/2025	23:44	-129.102	49.179	0	40.90	0	11.4380	0	32.1380	0	24.471	0	40.548	0	-1e10	1	-1e10	1	-1E+10	1	-1e10	1	-1e10	1	-1E+10	1	-1E+10	1	-1E+10	1
4902624	43	C	08/24/2025	23:44	-129.102	49.179	0	41.40	0	11.3592	0	32.1442	0	24.490	0	41.044	0	235.3	4	86.4	4	-1E+10	1	2.5966	4	0.001931	0	-1E+10	1	-1E+10	1	-1E+10	1
4902624	43	C	08/24/2025	23:44	-129.102	49.179	0	42.60	0	11.1700	0	32.1590	0	24.535	0	42.234	0	234.1	4	85.7	4	-1E+10	1	2.3135	4	0.001732	0	-1E+10	1	-1E+10	1	-1E+10	1
4902624	43	C	08/24/2025	23:44	-129.102	49.179	0	43.00	0	11.1070	0	32.1640	0	24.550	0	42.630	0	-1e10	1	-1e10	1	-1E+10	1	-1e10	1	-1e10	1	-1E+10	1	-1E+10	1	-1E+10	1
4902624	43	C	08/24/2025	23:44	-129.102	49.179	0	43.70	0	11.0433	0	32.1692	0	24.566	0	43.324	0	233.1	4	85.1	4	-1E+10	1	2.1754	4	0.001629	0	-1E+10	1	-1E+10	1	-1E+10	1
4902624	43	C	08/24/2025	23:44	-129.102	49.179	0	44.70	0	10.9522	0	32.1765	0	24.587	0	44.315	0	232.2	4	84.6	4	-1E+10	1	2.0384	4	0.001588	0	-1E+10	1	-1E+10	1	-1E+10	1
4902624	43	C	08/24/2025	23:44	-129.102	49.179	0	44.90	0	10.9340	0	32.1780	0	24.592	0	44.514	0	-1e10	1	-1e10	1	-1E+10	1	-1e10	1	-1e10	1	-1E+10	1	-1E+10	1	-1E+10	1
4902624	43	C	08/24/2025	23:44	-129.102	49.179	0	45.80	0	10.8834	0	32.1810	0	24.603	0	45.406	0	231.3	4	84.1	4	-1E+10	1	1.9272	4	0.001598	0	-1E+10	1	-1E+10	1	-1E+10	1
4902624	43	C	08/24/2025	23:44	-129.102	49.179	0	46.90	0	10.8216	0	32.1847	0	24.616	0	46.496	0	230.4	4	83.7	4	-1E+10	1	1.6801	4	0.001370	0	-1E+10	1	-1E+10	1	-1E+10	1
4902624	43	C	08/24/2025	23:44	-129.102	49.179	0	47.00	0	10.8160	0	32.1850	0	24.618	0	46.595	0	-1e10	1	-1e10	1	-1E+10	1	-1e10	1	-1e10	1	-1E+10	1	-1E+10	1	-1E+10	1
4902624	43	C	08/24/2025	23:44	-129.102	49.179	0	48.00	0	10.6455	0	32.2045	0	24.662	0	47.587	0	230.0	4	83.3	4	-1E+10	1	1.3605	4	0.001280	0	-1E+10	1	-1E+10	1	-1E+10	1
4902624	43	C	08/24/2025	23:44	-129.102	49.179	0	49.00	0	10.4750	0	32.2240	0	24.707	0	48.578	0	-1e10	1	-1e10	1	-1E+10	1	-1e10	1	-1e10	1	-1E+10	1	-1E+10	1	-1E+10	1
4902624	43	C	08/24/2025	23:44	-129.102	49.179	0	49.10	0	10.4657	0	32.2247	0	24.709	0	48.677	0	229.7	4	82.8	4	-1E+10	1	1.1633	4	0.001224	0	-1E+10	1	-1E+10	1	-1E+10	1
4902624	43	C	08/24/2025	23:44	-129.102	49.179	0	50.30	0	10.3546	0	32.2336	0	24.735	0	49.866	0	229.2	4	82.5	4	-1E+10	1	1.0087	4	0.001117	0	-1E+10	1	-1E+10	1	-1E+10	1
4902624	43	C	08/24/2025	23:44	-129.102	49.179	0	50.90	0	10.2990	0	32.2380	0	24.747	0	50.461	0	-1e10	1	-1e10	1	-1E+10	1	-1e10	1	-1e10	1	-1E+10	1	-1E+10	1	-1E+10	1
4902624	43	C	08/24/2025	23:44	-129.102	49.179	0	51.40	0	10.2607	0	32.2425	0	24.757	0	50.957	0	228.7	4	82.1	4	-1E+10	1	0.9125	4	0.001015	0	-1E+10	1	-1E+10	1	-1E+10	1
4902624	43	C	08/24/2025	23:44	-129.102	49.179	0	52.50	0	10.1763	0	32.2525	0	24.779	0	52.047	0	228.2	4	81.8	4	-1E+10	1	0.8255	4	0.001003	0	-1E+10	1	-1E+10	1	-1E+10	1
4902624	43	C	08/24/2025	23:44	-129.102	49.179	0	53.00	0	10.1380	0	32.2570	0	24.789	0	52.543	0	-1e10	1	-1e10	1	-1E+10	1	-1e10	1	-1e10	1	-1E+10	1	-1E+10	1	-1E+10	1
4902624	43	C	08/24/2025	23:44	-129.102	49.179	0	53.70	0	10.1056	0	32.2592	0	24.796	0	53.237	0	227.7	4	81.5	4	-1E+10	1	0.7613	4	0.000976	0	-1E+10	1	-1E+10	1	-1E+10	1
4902624	43	C	08/24/2025	23:44	-129.102	49.179	0	54.80	0	10.0546	0	32.2627	0	24.808	0	54.327	0	226.8	4	81.1	4	-1E+10	1	0.7417	4	0.000892	0	-1E+10	1	-1E+10	1	-1E+10	1
4902624	43	C	08/24/2025	23:44	-129.102	49.179	0	54.90	0	10.0500	0	32.2630	0	24.809	0	54.426	0	-1e10	1	-1e10	1	-1E+10	1	-1e10	1	-1e10	1	-1E+10	1	-1E+10	1	-1E+10	1
4902624	43	C	08/24/2025	23:44	-129.102	49.179	0	55.80	0	10.0461	0	32.2621	0	24.809	0	55.318	0	225.8	4	80.7	4	-1E+10	1	0.7040	4	0.000995	0	-1E+10	1	-1E+10	1	-1E+10	1
4902624	43	C	08/24/2025	23:44	-129.102	49.179	0	56.50	0	10.0431	0	32.2615	0	24.809	0	56.012	0	225.0	4	80.4	4	-1E+10	1	0.7154	4	0.001058	0	-1E+10	1	-1E+10	1	-1E+10	1
4902624	43	C	08/24/2025	23:44	-129.102	49.179	0	57.00	0	10.0410	0	32.2610	0	24.809	0	56.508	0	-1e10	1	-1e10	1	-1E+10	1	-1e10	1	-1e10	1	-1E+10	1	-1E+10	1	-1E+10	1
4902624	43	C	08/24/2025	23:44	-129.102	49.179	0	57.20	0	10.0291	0	32.2622	0	24.811	0	56.706	0	224.0	4	80.0	4	-1E+10	1	0.7090	4	0.000956	0	-1E+10	1	-1E+10	1	-1E+10	1
4902624	43	C	08/24/2025	23:44	-129.102	49.179	0	57.80	0	9.9934	0	32.2656	0	24.820	0	57.301	0	222.7	4	79.5	4	-1E+10	1	0.6716	4	0.000961	0	-1E+10	1	-1E+10	1	-1E+10	1
4902624	43	C	08/24/2025	23:44	-129.102	49.179	0	58.50	0	9.9518	0	32.2697	0	24.830	0	57.995	0	221.5	4	79.0	4	-1E+10	1	0.6041	4	0.000991	0	-1E+10	1	-1E+10	1	-1E+10	1
4902624	43	C	08/24/2025	23:44	-129.102	49.179	0	58.90	0	9.9280	0	32.2720	0	24.836	0	58.391	0	-1e10	1	-1e10	1	-1E+10	1	-1e10	1	-1e10	1	-1E+10	1	-1E+10	1	-1E+10	1
4902624	43	C	08/24/2025	23:44	-129.102	49.179	0	59.20	0	9.8755	0	32.2805	0	24.851	0	58.688	0	220.6	4	78.6	4	-1E+10	1	0.5069	4	0.000941	0	-1E+10	1	-1E+10	1	-1E+10	1
4902624	43	C	08/24/2025	23:44	-129.102	49.179	0	59.90	0	9.7530	0	32.3005	0	24.887	0	59.382	0	219.2	4	77.9	4	-1E+10	1	0.4042	4	0.000806	0	-1E+10	1	-1E+10	1	-1E+10	1
4902624	43	C	08/24/2025	23:44	-129.102	49.179	0	60.70	0	9.6130	0	32.3233	0	24.927	0	60.175	0	217.7	4	77.1	4	-1E+10	1	0.3314	4	0.000656	0	-1E+10	1	-1E+10	1	-1E+10	1
4902624	43	C	08/24/2025	23:44	-129.102	49.179	0	60.90	0	9.5780	0	32.3290	0	24.937	0	60.374	0	-1e10	1	-1e10	1	-1E+10	1	-1e10	1	-1e10	1	-1E+10	1	-1E+10	1	-1E+10	1
4902624	43	C	08/24/2025	23:44	-129.102	49.179	0	61.50	0	9.5240	0	32.3407	0	24.955	0	60.968	0	216.5	4	76.5	4	-1E+10	1	0.3183	4	0.000647	0	-1E+10	1	-1E+10	1	-1E+10	1
4902624	43	C	08/24/2025	23:44	-129.102	49.179	0	62.40	0	9.4430	0	32.3582	0	24.982	0	61.860	0	215.0	4	75.9	4	-1E+10	1	0.2920	4	0.000636	0	-1E+10	1	-1E+10	1	-1E+10	1
4902624	43	C	08/24/2025	23:44	-129.102	49.179	0	62.90	0	9.3980	0	32.3680	0	24.997	0	62.356	0	-1e10	1	-1e10	1	-1E+10	1	-1e10	1	-1e10	1	-1E+10	1	-1E+10	1	-1E+10	1
4902624	43	C	08/24/2025	23:44	-129.102	49.179	0	63.20	0	9.3883	0	32.3707	0	25.000	0	62.653	0	213.2	4	75.2	4	-1E+10	1	0.2628	4	0.000648	0	-1E+10	1	-1E+10	1	-1E+10	1
4902624	43	C	08/24/2025	23:44	-129.102	49.179	0	64.10	0	9.3591	0	32.3789	0	25.011	0	63.545	0	211.5	4	74.5	4	-1E+10	1	0.2694	4	0.000595	0	-1E+10	1	-1E+10	1	-1E+10	1
4902624	43	C	08/24/2025	23:44	-129.102	49.179	0	64.90	0	9.3332	0	32.3861	0	25.021	0	64.338	0	209.6	4	73.8	4	-1E+10	1	0.2292	4	0.000523	0	-1E+10	1	-1E+10	1	-1E+10	1
4902624	43	C	08/24/2025	23:44	-129.102	49.179	0	65.00	0	9.3300	0	32.3870	0	25.022	0	64.437	0	-1e10	1	-1e10	1	-1E+10	1	-1e10	1	-1e10	1	-1E+10	1	-1E+10	1	-1E+10	1
4902624	43	C	08/24/2025	23:44	-129.102	49.179	0	65.80	0	9.2608	0	32.4118	0	25.053	0	65.230	0	207.7	4	73.1	4	-1E+10	1	0.1874	4	0.000487	0	-1E+10	1	-1E+10	1	-1E+10	1
4902624	43	C	08/24/2025	23:44	-129.102	49.179	0	66.60	0	9.1916	0	32.4366	0	25.083	0	66.023	0	205.8	4	72.3	4	-1E+10	1	0.1619	4	0.000483	0	-1E+10	1	-1E+10	1	-1E+10	1
4902624	43	C	08/24/2025	23:44	-129.102	49.179	0	67.00	0	9.1570	0	32.4490	0	25.098	0	66.420	0	-1e10	1	-1e10	1	-1E+10	1	-1e10	1	-1e10	1	-1E+10	1	-1E+10	1	-1E+10	1
4902624	43	C	08/24/2025	23:44	-129.102	49.179	0	67.50	0	9.1302	0	32.4701	0	25.119	0	66.915	0	203.9	4	71.5	4	-1E+10	1	0.1394	4	0.000469	0	-1E+10	1	-1E+10	1	-1E+10	1
4902624	43	C	08/24/2025	23:44	-129.102	49.179	0	68.40	0	9.0818	0	32.5079	0	25.156	0	67.807	0	202.3	4	70.9	4	-1E+10	1	0.1209	4	0.000444	0	-1E+10	1	-1E+10	1	-1E+10	1
4902624	43	C	08/24/2025	23:44	-129.102	49.179	0	68.90	0	9.0550	0	32.5290	0	25.177	0	68.303	0	-1e10	1	-1e10	1	-1E+10	1	-1e10	1	-1e10	1	-1E+10	1	-1E+10	1	-1E+10	1
4902624	43	C	08/24/2025	23:44	-129.102	49.179	0	69.20	0	9.0477	0	32.5349	0	25.182	0	68.600	0	200.8	4	70.3	4	-1E+10	1	0.1082	4	0.000475	0	-1E+10	1	-1E+10	1	-1E+10	1
4902624	43	C	08/24/2025	23:44	-129.102	49.179	0	70.20	0	9.0234	0	32.5544	0	25.201	0	69.592	0	198.5	4	69.5	4	-1E+10	1	0.0949	4	0.000507	0	-1E+10	1	-1E+10	1	-1E+10	1
4902624	43	C	08/24/2025	23:44	-129.102	49.179	0	71.00	0	9.0040	0	32.5700	0	25.217	0	70.384	0	-1e10	1	-1e10	1	-1E+10	1	-1e10	1	-1e10	1	-1E+10	1	-1E+10	1	-1E+10	1
4902624	43	C	08/24/2025	23:44	-129.102	49.179	0	71.10	0	9.0027	0	32.5713	0	25.218	0	70.484	0	196.2	4	68.7	4	-1E+10	1	0.0889	4	0.000536	0	-1E+10	1	-1E+10	1	-1E+10	1
4902624	43	C	08/24/2025	23:44	-129.102	49.179	0	72.00	0	8.9914	0	32.5832	0	25.229	0	71.376	0	193.7	4	67.8	4	-1E+10	1	0.0933	4	0.000496	0	-1E+10	1	-1E+10	1	-1E+10	1
4902624	43	C	08/24/2025	23:44	-129.102	49.179	0	72.90	0	8.9800	0	32.5950	0	25.240	0	72.268	0	-1e10	1	-1e10	1	-1E+10	1	-1e10	1	-1e10	1	-1E+10	1	-1E+10	1	-1E+10	1
4902624	43	C	08/24/2025	23:44	-129.102	49.179	0	73.00	0	8.9783	0	32.5963	0	25.241	0	72.367	0	190.5	4	66.7	4	-1E+10	1	0.1192	4	0.000436	0	-1E+10	1	-1E+10	1	-1E+10	1
4902624	43	C	08/24/2025	23:44	-129.102	49.179	0	73.90	0	8.9632	0	32.6082	0	25.253	0	73.259	0	187.3	4	65.5	4	-1E+10	1	0.1082	4	0.000450	0	-1E+10	1	-1E+10	1	-1E+10	1
4902624	43	C	08/24/2025	23:44	-129.102	49.179	0	74.80	0	8.9480	0	32.6200	0	25.265	0	74.151	0	184.2	4	64.4	4	-1E+10	1	0.0754	4	0.000483	0	-1E+10	1	-1E+10	1	-1E+10	1
4902624	43	C	08/24/2025	23:44	-129.102	49.179	0	75.10	0	8.9430	0	32.6240	0	25.268	0	74.448	0	-1e10	1	-1e10	1	-1E+10	1	-1e10	1	-1e10	1	-1E+10	1	-1E+10	1	-1E+10	1
4902624	43	C	08/24/2025	23:44	-129.102	49.179	0	75.80	0	8.9246	0	32.6439	0	25.287	0	75.142	0	180.8	4	63.2	4	-1E+10	1	0.0684	4	0.000451	0	-1E+10	1	-1E+10	1	-1E+10	1
4902624	43	C	08/24/2025	23:44	-129.102	49.179	0	76.70	0	8.9009	0	32.6695	0	25.311	0	76.034	0	177.6	4	62.1	4	-1E+10	1	0.0718	4	0.000491	0	-1E+10	1	-1E+10	1	-1E+10	1
4902624	43	C	08/24/2025	23:44	-129.102	49.179	0	77.00	0	8.8930	0	32.6780	0	25.318	0	76.331	0	-1e10	1	-1e10	1	-1E+10	1	-1e10	1	-1e10	1	-1E+10	1	-1E+10	1	-1E+10	1
4902624	43	C	08/24/2025	23:44	-129.102	49.179	0	77.70	0	8.8654	0	32.7071	0	25.345	0	77.025	0	173.9	4	60.8	4	-1E+10	1	0.0657	4	0.000765	0	-1E+10	1	-1E+10	1	-1E+10	1
4902624	43	C	08/24/2025	23:44	-129.102	49.179	0	78.60	0	8.8298	0	32.7445	0	25.380	0	77.917	0	170.6	4	59.6	4	-1E+10	1	0.0730	4	0.000436	0	-1E+10	1	-1E+10	1	-1E+10	1
4902624	43	C	08/24/2025	23:44	-129.102	49.179	0	78.90	0	8.8180	0	32.7570	0	25.392	0	78.215	0	-1e10	1	-1e10	1	-1E+10	1	-1e10	1	-1e10	1	-1E+10	1	-1E+10	1	-1E+10	1
4902624	43	C	08/24/2025	23:44	-129.102	49.179	0	79.60	0	8.7960	0	32.7807	0	25.414	0	78.908	0	167.3	4	58.4	4	-1E+10	1	0.0365	4	0.000436	0	-1E+10	1	-1E+10	1	-1E+10	1
4902624	43	C	08/24/2025	23:44	-129.102	49.179	0	80.70	0	8.7614	0	32.8179	0	25.448	0	79.999	0	164.2	4	57.3	4	-1E+10	1	0.0456	4	0.000376	0	-1E+10	1	-1E+10	1	-1E+10	1
4902624	43	C	08/24/2025	23:44	-129.102	49.179	0	81.00	0	8.7520	0	32.8280	0	25.458	0	80.296	0	-1e10	1	-1e10	1	-1E+10	1	-1e10	1	-1e10	1	-1E+10	1	-1E+10	1	-1E+10	1
4902624	43	C	08/24/2025	23:44	-129.102	49.179	0	81.70	0	8.7341	0	32.8479	0	25.476	0	80.990	0	160.9	4	56.1	4	-1E+10	1	0.0511	4	0.000347	0	-1E+10	1	-1E+10	1	-1E+10	1
4902624	43	C	08/24/2025	23:44	-129.102	49.179	0	82.70	0	8.7087	0	32.8764	0	25.502	0	81.981	0	157.9	4	55.1	4	-1E+10	1	0.0511	4	0.000483	0	-1E+10	1	-1E+10	1	-1E+10	1
4902624	43	C	08/24/2025	23:44	-129.102	49.179	0	83.00	0	8.7010	0	32.8850	0	25.510	0	82.278	0	-1e10	1	-1e10	1	-1E+10	1	-1e10	1	-1e10	1	-1E+10	1	-1E+10	1	-1E+10	1
4902624	43	C	08/24/2025	23:44	-129.102	49.179	0	83.70	0	8.6853	0	32.9035	0	25.527	0	82.972	0	154.5	4	53.8	4	-1E+10	1	0.0511	4	0.000537	0	-1E+10	1	-1E+10	1	-1E+10	1
4902624	43	C	08/24/2025	23:44	-129.102	49.179	0	84.80	0	8.6605	0	32.9327	0	25.554	0	84.062	0	150.1	4	52.3	4	-1E+10	1	0.0524	4	0.000343	0	-1E+10	1	-1E+10	1	-1E+10	1
4902624	43	C	08/24/2025	23:44	-129.102	49.179	0	85.00	0	8.6560	0	32.9380	0	25.559	0	84.260	0	-1e10	1	-1e10	1	-1E+10	1	-1e10	1	-1e10	1	-1E+10	1	-1E+10	1	-1E+10	1
4902624	43	C	08/24/2025	23:44	-129.102	49.179	0	85.90	0	8.6250	0	32.9762	0	25.593	0	85.152	0	145.7	4	50.8	4	-1E+10	1	0.0548	4	0.000350	0	-1E+10	1	-1E+10	1	-1E+10	1
4902624	43	C	08/24/2025	23:44	-129.102	49.179	0	86.90	0	8.5905	0	33.0187	0	25.632	0	86.143	0	141.6	4	49.3	4	-1E+10	1	0.0365	4	0.000389	0	-1E+10	1	-1E+10	1	-1E+10	1
4902624	43	C	08/24/2025	23:44	-129.102	49.179	0	87.00	0	8.5870	0	33.0230	0	25.636	0	86.242	0	-1e10	1	-1e10	1	-1E+10	1	-1e10	1	-1e10	1	-1E+10	1	-1E+10	1	-1E+10	1
4902624	43	C	08/24/2025	23:44	-129.102	49.179	0	88.10	0	8.5598	0	33.0654	0	25.673	0	87.333	0	137.7	4	47.9	4	-1E+10	1	0.0365	4	0.000601	0	-1E+10	1	-1E+10	1	-1E+10	1
4902624	43	C	08/24/2025	23:44	-129.102	49.179	0	88.80	0	8.5424	0	33.0924	0	25.697	0	88.026	0	135.7	4	47.2	4	-1E+10	1	0.0429	4	0.000375	0	-1E+10	1	-1E+10	1	-1E+10	1
4902624	43	C	08/24/2025	23:44	-129.102	49.179	0	89.10	0	8.5350	0	33.1040	0	25.707	0	88.324	0	-1e10	1	-1e10	1	-1E+10	1	-1e10	1	-1e10	1	-1E+10	1	-1E+10	1	-1E+10	1
4902624	43	C	08/24/2025	23:44	-129.102	49.179	0	89.50	0	8.5292	0	33.1178	0	25.719	0	88.720	0	133.1	4	46.3	4	-1E+10	1	0.0548	4	0.000334	0	-1E+10	1	-1E+10	1	-1E+10	1
4902624	43	C	08/24/2025	23:44	-129.102	49.179	0	90.20	0	8.5191	0	33.1419	0	25.739	0	89.414	0	130.6	4	45.4	4	-1E+10	1	0.0462	4	0.000363	0	-1E+10	1	-1E+10	1	-1E+10	1
4902624	43	C	08/24/2025	23:44	-129.102	49.179	0	90.90	0	8.5090	0	33.1660	0	25.760	0	90.108	0	125.4	4	43.6	4	-1E+10	1	0.0428	4	0.000359	0	-1E+10	1	-1E+10	1	-1E+10	1
4902624	43	C	08/24/2025	23:44	-129.102	49.179	0	91.60	0	8.4897	0	33.2017	0	25.791	0	90.801	0	125.4	4	43.6	4	-1E+10	1	0.0511	4	0.000335	0	-1E+10	1	-1E+10	1	-1E+10	1
4902624	43	C	08/24/2025	23:44	-129.102	49.179	0	92.30	0	8.4703	0	33.2373	0	25.821	0	91.495	0	122.5	4	42.6	4	-1E+10	1	0.0504	4	0.000367	0	-1E+10	1	-1E+10	1	-1E+10	1
4902624	43	C	08/24/2025	23:44	-129.102	49.179	0	93.00	0	8.4510	0	33.2730	0	25.852	0	92.189	0	-1e10	1	-1e10	1	-1E+10	1	-1e10	1	-1e10	1	-1E+10	1	-1E+10	1	-1E+10	1
4902624	43	C	08/24/2025	23:44	-129.102	49.179	0	93.20	0	8.4484	0	33.2806	0	25.859	0	92.387	0	120.6	4	41.9	4	-1E+10	1	0.0438	4	0.000378	0	-1E+10	1	-1E+10	1	-1E+10	1
4902624	43	C	08/24/2025	23:44	-129.102	49.179	0	94.00	0	8.4380	0	33.3110	0	25.884	0	93.180	0	119.1	4	41.4	4	-1E+10	1	0.0438	4	0.000366	0	-1E+10	1	-1E+10	1	-1E+10	1
4902624	43	C	08/24/2025	23:44	-129.102	49.179	0	94.80	0	8.4276	0	33.3414	0	25.909	0	93.973	0	117.5	4	40.8	4	-1E+10	1	0.0321	4	0.000695	0	-1E+10	1	-1E+10	1	-1E+10	1
4902624	43	C	08/24/2025	23:44	-129.102	49.179	0	95.00	0	8.4250	0	33.3490	0	25.916	0	94.171	0	-1e10	1	-1e10	1	-1E+10	1	-1e10	1	-1e10	1	-1E+10	1	-1E+10	1	-1E+10	1
4902624	43	C	08/24/2025	23:44	-129.102	49.179	0	95.70	0	8.4159	0	33.3640	0	25.929	0	94.865	0	116.3	4	40.4	4	-1E+10	1	0.0445	4	0.000506	0	-1E+10	1	-1E+10	1	-1E+10	1
4902624	43	C	08/24/2025	23:44	-129.102	49.179	0	96.50	0	8.4055	0	33.3812	0	25.944	0	95.658	0	115.4	4	40.1	4	-1E+10	1	0.0511	4	0.000353	0	-1E+10	1	-1E+10	1	-1E+10	1
4902624	43	C	08/24/2025	23:44	-129.102	49.179	0	97.00	0	8.3990	0	33.3920	0	25.954	0	96.153	0	-1e10	1	-1e10	1	-1E+10	1	-1e10	1	-1e10	1	-1E+10	1	-1E+10	1	-1E+10	1
4902624	43	C	08/24/2025	23:44	-129.102	49.179	0	97.20	0	8.3949	0	33.3952	0	25.957	0	96.351	0	114.5	4	39.8	4	-1E+10	1	0.0469	4	0.000337	0	-1E+10	1	-1E+10	1	-1E+10	1
4902624	43	C	08/24/2025	23:44	-129.102	49.179	0	97.70	0	8.3846	0	33.4031	0	25.964	0	96.847	0	113.8	4	39.6	4	-1E+10	1	0.0467	4	0.000357	0	-1E+10	1	-1E+10	1	-1E+10	1
4902624	43	C	08/24/2025	23:44	-129.102	49.179	0	98.20	0	8.3744	0	33.4109	0	25.972	0	97.342	0	113.2	4	39.3	4	-1E+10	1	0.0511	4	0.000359	0	-1E+10	1	-1E+10	1	-1E+10	1
4902624	43	C	08/24/2025	23:44	-129.102	49.179	0	98.70	0	8.3641	0	33.4188	0	25.980	0	97.838	0	112.5	4	39.1	4	-1E+10	1	0.0462	4	0.000342	0	-1E+10	1	-1E+10	1	-1E+10	1
4902624	43	C	08/24/2025	23:44	-129.102	49.179	0	98.90	0	8.3600	0	33.4220	0	25.983	0	98.036	0	-1e10	1	-1e10	1	-1E+10	1	-1e10	1	-1e10	1	-1E+10	1	-1E+10	1	-1E+10	1
4902624	43	C	08/24/2025	23:44	-129.102	49.179	0	99.20	0	8.3557	0	33.4250	0	25.986	0	98.333	0	111.6	4	38.7	4	-1E+10	1	0.0389	4	0.000364	0	-1E+10	1	-1E+10	1	-1E+10	1
4902624	43	C	08/24/2025	23:44	-129.102	49.179	0	99.70	0	8.3486	0	33.4300	0	25.991	0	98.829	0	110.7	4	38.4	4	-1E+10	1	0.0511	4	0.000354	0	-1E+10	1	-1E+10	1	-1E+10	1
4902624	43	C	08/24/2025	23:44	-129.102	49.179	0	100.30	0	8.3400	0	33.4360	0	25.997	0	99.423	0	109.8	4	38.1	4	-1E+10	1	0.0657	4	0.000331	0	-1E+10	1	-1E+10	1	-1E+10	1
4902624	43	C	08/24/2025	23:44	-129.102	49.179	0	100.80	0	8.3329	0	33.4410	0	26.002	0	99.919	0	108.8	4	37.8	4	-1E+10	1	0.0553	4	0.000381	0	-1E+10	1	-1E+10	1	-1E+10	1
4902624	43	C	08/24/2025	23:44	-129.102	49.179	0	101.00	0	8.3300	0	33.4430	0	26.004	0	100.117	0	-1e10	1	-1e10	1	-1E+10	1	-1e10	1	-1e10	1	-1E+10	1	-1E+10	1	-1E+10	1
4902624	43	C	08/24/2025	23:44	-129.102	49.179	0	101.50	0	8.3262	0	33.4528	0	26.012	0	100.613	0	107.7	4	37.4	4	-1E+10	1	0.0511	4	0.000379	0	-1E+10	1	-1E+10	1	-1E+10	1
4902624	43	C	08/24/2025	23:44	-129.102	49.179	0	102.10	0	8.3216	0	33.4645	0	26.022	0	101.207	0	106.4	4	36.9	4	-1E+10	1	0.0548	4	0.000354	0	-1E+10	1	-1E+10	1	-1E+10	1
4902624	43	C	08/24/2025	23:44	-129.102	49.179	0	102.80	0	8.3163	0	33.4781	0	26.034	0	101.901	0	105.1	4	36.5	4	-1E+10	1	0.0474	4	0.000413	0	-1E+10	1	-1E+10	1	-1E+10	1
4902624	43	C	08/24/2025	23:44	-129.102	49.179	0	103.10	0	8.3140	0	33.4840	0	26.039	0	102.198	0	-1e10	1	-1e10	1	-1E+10	1	-1e10	1	-1e10	1	-1E+10	1	-1E+10	1	-1E+10	1
4902624	43	C	08/24/2025	23:44	-129.102	49.179	0	103.50	0	8.3176	0	33.4914	0	26.044	0	102.595	0	104.2	4	36.2	4	-1E+10	1	0.0365	4	0.000598	0	-1E+10	1	-1E+10	1	-1E+10	1
4902624	43	C	08/24/2025	23:44	-129.102	49.179	0	104.10	0	8.3230	0	33.5025	0	26.052	0	103.189	0	103.4	4	35.9	4	-1E+10	1	0.0407	4	0.000719	0	-1E+10	1	-1E+10	1	-1E+10	1
4902624	43	C	08/24/2025	23:44	-129.102	49.179	0	104.80	0	8.3293	0	33.5154	0	26.061	0	103.883	0	102.9	4	35.7	4	-1E+10	1	0.0639	4	0.000313	0	-1E+10	1	-1E+10	1	-1E+10	1
4902624	43	C	08/24/2025	23:44	-129.102	49.179	0	105.10	0	8.3320	0	33.5210	0	26.065	0	104.180	0	-1e10	1	-1e10	1	-1E+10	1	-1e10	1	-1e10	1	-1E+10	1	-1E+10	1	-1E+10	1
4902624	43	C	08/24/2025	23:44	-129.102	49.179	0	105.50	0	8.3258	0	33.5264	0	26.070	0	104.577	0	102.4	4	35.6	4	-1E+10	1	0.0511	4	0.000354	0	-1E+10	1	-1E+10	1	-1E+10	1
4902624	43	C	08/24/2025	23:44	-129.102	49.179	0	106.30	0	8.3134	0	33.5372	0	26.080	0	105.369	0	101.8	4	35.4	4	-1E+10	1	0.0511	4	0.000302	0	-1E+10	1	-1E+10	1	-1E+10	1
4902624	43	C	08/24/2025	23:44	-129.102	49.179	0	107.00	0	8.3025	0	33.5466	0	26.089	0	106.063	0	101.3	4	35.2	4	-1E+10	1	0.0456	4	0.000322	0	-1E+10	1	-1E+10	1	-1E+10	1
4902624	43	C	08/24/2025	23:44	-129.102	49.179	0	107.10	0	8.3010	0	33.5480	0	26.091	0	106.162	0	-1e10	1	-1e10	1	-1E+10	1	-1e10	1	-1e10	1	-1E+10	1	-1E+10	1	-1E+10	1
4902624	43	C	08/24/2025	23:44	-129.102	49.179	0	107.80	0	8.2944	0	33.5557	0	26.098	0	106.856	0	100.7	4	35.0	4	-1E+10	1	0.0584	4	0.000323	0	-1E+10	1	-1E+10	1	-1E+10	1
4902624	43	C	08/24/2025	23:44	-129.102	49.179	0	108.60	0	8.2868	0	33.5646	0	26.106	0	107.649	0	100.2	4	34.8	4	-1E+10	1	0.0548	4	0.000313	0	-1E+10	1	-1E+10	1	-1E+10	1
4902624	43	C	08/24/2025	23:44	-129.102	49.179	0	109.00	0	8.2830	0	33.5690	0	26.110	0	108.045	0	-1e10	1	-1e10	1	-1E+10	1	-1e10	1	-1e10	1	-1E+10	1	-1E+10	1	-1E+10	1
4902624	43	C	08/24/2025	23:44	-129.102	49.179	0	109.40	0	8.2826	0	33.5708	0	26.111	0	108.442	0	99.8	4	34.6	4	-1E+10	1	0.0438	4	0.000364	0	-1E+10	1	-1E+10	1	-1E+10	1
4902624	43	C	08/24/2025	23:44	-129.102	49.179	0	110.20	0	8.2818	0	33.5744	0	26.114	0	109.234	0	99.3	4	34.5	4	-1E+10	1	0.0460	4	0.000435	0	-1E+10	1	-1E+10	1	-1E+10	1
4902624	43	C	08/24/2025	23:44	-129.102	49.179	0	111.00	0	8.2810	0	33.5780	0	26.117	0	110.027	0	96.3	4	33.4	4	-1E+10	1	0.0504	4	0.000373	0	-1E+10	1	-1E+10	1	-1E+10	1
4902624	43	C	08/24/2025	23:44	-129.102	49.179	0	111.90	0	8.2747	0	33.5807	0	26.120	0	110.919	0	98.2	4	34.1	4	-1E+10	1	0.0438	4	0.000331	0	-1E+10	1	-1E+10	1	-1E+10	1
4902624	43	C	08/24/2025	23:44	-129.102	49.179	0	112.70	0	8.2691	0	33.5831	0	26.123	0	111.712	0	97.6	4	33.9	4	-1E+10	1	0.0584	4	0.000342	0	-1E+10	1	-1E+10	1	-1E+10	1
4902624	43	C	08/24/2025	23:44	-129.102	49.179	0	113.00	0	8.2670	0	33.5840	0	26.124	0	112.009	0	-1e10	1	-1e10	1	-1E+10	1	-1e10	1	-1e10	1	-1E+10	1	-1E+10	1	-1E+10	1
4902624	43	C	08/24/2025	23:44	-129.102	49.179	0	113.50	0	8.2560	0	33.5900	0	26.130	0	112.504	0	96.9	4	33.6	4	-1E+10	1	0.0409	4	0.000380	0	-1E+10	1	-1E+10	1	-1E+10	1
4902624	43	C	08/24/2025	23:44	-129.102	49.179	0	114.30	0	8.2385	0	33.5995	0	26.141	0	113.297	0	96.1	4	33.3	4	-1E+10	1	0.0462	4	0.000350	0	-1E+10	1	-1E+10	1	-1E+10	1
4902624	43	C	08/24/2025	23:44	-129.102	49.179	0	115.10	0	8.2210	0	33.6090	0	26.151	0	114.090	0	93.0	4	32.2	4	-1E+10	1	0.0430	4	0.000304	0	-1E+10	1	-1E+10	1	-1E+10	1
4902624	43	C	08/24/2025	23:44	-129.102	49.179	0	115.90	0	8.2063	0	33.6187	0	26.160	0	114.883	0	94.9	4	32.9	4	-1E+10	1	0.0453	4	0.000340	0	-1E+10	1	-1E+10	1	-1E+10	1
4902624	43	C	08/24/2025	23:44	-129.102	49.179	0	116.80	0	8.1897	0	33.6296	0	26.172	0	115.775	0	94.2	4	32.7	4	-1E+10	1	0.0560	4	0.000401	0	-1E+10	1	-1E+10	1	-1E+10	1
4902624	43	C	08/24/2025	23:44	-129.102	49.179	0	117.00	0	8.1860	0	33.6320	0	26.174	0	115.973	0	-1e10	1	-1e10	1	-1E+10	1	-1e10	1	-1e10	1	-1E+10	1	-1E+10	1	-1E+10	1
4902624	43	C	08/24/2025	23:44	-129.102	49.179	0	117.60	0	8.1898	0	33.6358	0	26.176	0	116.567	0	93.6	4	32.4	4	-1E+10	1	0.0543	4	0.000370	0	-1E+10	1	-1E+10	1	-1E+10	1
4902624	43	C	08/24/2025	23:44	-129.102	49.179	0	118.40	0	8.1948	0	33.6408	0	26.180	0	117.360	0	93.0	4	32.2	4	-1E+10	1	0.0608	4	0.000422	0	-1E+10	1	-1E+10	1	-1E+10	1
4902624	43	C	08/24/2025	23:44	-129.102	49.179	0	118.90	0	8.1980	0	33.6440	0	26.182	0	117.856	0	-1e10	1	-1e10	1	-1E+10	1	-1e10	1	-1e10	1	-1E+10	1	-1E+10	1	-1E+10	1
4902624	43	C	08/24/2025	23:44	-129.102	49.179	0	119.20	0	8.1966	0	33.6469	0	26.184	0	118.153	0	92.5	4	32.1	4	-1E+10	1	0.0219	4	0.000401	0	-1E+10	1	-1E+10	1	-1E+10	1
4902624	43	C	08/24/2025	23:44	-129.102	49.179	0	120.10	0	8.1926	0	33.6554	0	26.191	0	119.045	0	92.3	4	32.0	4	-1E+10	1	0.0416	4	0.000316	0	-1E+10	1	-1E+10	1	-1E+10	1
4902624	43	C	08/24/2025	23:44	-129.102	49.179	0	120.90	0	8.1890	0	33.6630	0	26.198	0	119.837	0	89.6	4	31.1	4	-1E+10	1	0.0552	4	0.000307	0	-1E+10	1	-1E+10	1	-1E+10	1
4902624	43	C	08/24/2025	23:44	-129.102	49.179	0	121.70	0	8.1825	0	33.6660	0	26.201	0	120.630	0	91.8	4	31.8	4	-1E+10	1	0.0496	4	0.000307	0	-1E+10	1	-1E+10	1	-1E+10	1
4902624	43	C	08/24/2025	23:44	-129.102	49.179	0	122.60	0	8.1752	0	33.6695	0	26.205	0	121.522	0	91.6	4	31.7	4	-1E+10	1	0.0402	4	0.000307	0	-1E+10	1	-1E+10	1	-1E+10	1
4902624	43	C	08/24/2025	23:44	-129.102	49.179	0	123.00	0	8.1720	0	33.6710	0	26.207	0	121.918	0	-1e10	1	-1e10	1	-1E+10	1	-1e10	1	-1e10	1	-1E+10	1	-1E+10	1	-1E+10	1
4902624	43	C	08/24/2025	23:44	-129.102	49.179	0	123.40	0	8.1707	0	33.6714	0	26.207	0	122.315	0	91.3	4	31.7	4	-1E+10	1	0.0392	4	0.000307	0	-1E+10	1	-1E+10	1	-1E+10	1
4902624	43	C	08/24/2025	23:44	-129.102	49.179	0	124.30	0	8.1677	0	33.6722	0	26.208	0	123.207	0	91.0	4	31.5	4	-1E+10	1	0.0467	4	0.000396	0	-1E+10	1	-1E+10	1	-1E+10	1
4902624	43	C	08/24/2025	23:44	-129.102	49.179	0	125.10	0	8.1650	0	33.6730	0	26.209	0	123.999	0	88.4	4	30.6	4	-1E+10	1	0.0511	4	0.000492	0	-1E+10	1	-1E+10	1	-1E+10	1
4902624	43	C	08/24/2025	23:44	-129.102	49.179	0	125.90	0	8.1592	0	33.6766	0	26.213	0	124.792	0	90.4	4	31.3	4	-1E+10	1	0.0511	4	0.000342	0	-1E+10	1	-1E+10	1	-1E+10	1
4902624	43	C	08/24/2025	23:44	-129.102	49.179	0	126.70	0	8.1534	0	33.6801	0	26.217	0	125.585	0	90.0	4	31.2	4	-1E+10	1	0.0438	4	0.000377	0	-1E+10	1	-1E+10	1	-1E+10	1
4902624	43	C	08/24/2025	23:44	-129.102	49.179	0	126.90	0	8.1520	0	33.6810	0	26.218	0	125.783	0	-1e10	1	-1e10	1	-1E+10	1	-1e10	1	-1e10	1	-1E+10	1	-1E+10	1	-1E+10	1
4902624	43	C	08/24/2025	23:44	-129.102	49.179	0	127.60	0	8.1496	0	33.6828	0	26.219	0	126.476	0	89.6	4	31.1	4	-1E+10	1	0.0569	4	0.000314	0	-1E+10	1	-1E+10	1	-1E+10	1
4902624	43	C	08/24/2025	23:44	-129.102	49.179	0	128.40	0	8.1468	0	33.6847	0	26.221	0	127.269	0	89.3	4	30.9	4	-1E+10	1	0.0482	4	0.000307	0	-1E+10	1	-1E+10	1	-1E+10	1
4902624	43	C	08/24/2025	23:44	-129.102	49.179	0	128.90	0	8.1450	0	33.6860	0	26.223	0	127.765	0	-1e10	1	-1e10	1	-1E+10	1	-1e10	1	-1e10	1	-1E+10	1	-1E+10	1	-1E+10	1
4902624	43	C	08/24/2025	23:44	-129.102	49.179	0	129.20	0	8.1393	0	33.6887	0	26.226	0	128.062	0	88.9	4	30.8	4	-1E+10	1	0.0479	4	0.000313	0	-1E+10	1	-1E+10	1	-1E+10	1
4902624	43	C	08/24/2025	23:44	-129.102	49.179	0	130.10	0	8.1221	0	33.6969	0	26.235	0	128.954	0	88.7	4	30.7	4	-1E+10	1	0.0438	4	0.000325	0	-1E+10	1	-1E+10	1	-1E+10	1
4902624	43	C	08/24/2025	23:44	-129.102	49.179	0	130.90	0	8.1069	0	33.7041	0	26.243	0	129.746	0	88.4	4	30.6	4	-1E+10	1	0.0365	4	0.000334	0	-1E+10	1	-1E+10	1	-1E+10	1
4902624	43	C	08/24/2025	23:44	-129.102	49.179	0	131.00	0	8.1050	0	33.7050	0	26.244	0	129.845	0	-1e10	1	-1e10	1	-1E+10	1	-1e10	1	-1e10	1	-1E+10	1	-1E+10	1	-1E+10	1
4902624	43	C	08/24/2025	23:44	-129.102	49.179	0	131.70	0	8.1006	0	33.7072	0	26.246	0	130.539	0	88.2	4	30.5	4	-1E+10	1	0.0365	4	0.000348	0	-1E+10	1	-1E+10	1	-1E+10	1
4902624	43	C	08/24/2025	23:44	-129.102	49.179	0	132.60	0	8.0949	0	33.7101	0	26.249	0	131.431	0	87.9	4	30.4	4	-1E+10	1	0.0394	4	0.000370	0	-1E+10	1	-1E+10	1	-1E+10	1
4902624	43	C	08/24/2025	23:44	-129.102	49.179	0	132.90	0	8.0930	0	33.7110	0	26.250	0	131.728	0	-1e10	1	-1e10	1	-1E+10	1	-1e10	1	-1e10	1	-1E+10	1	-1E+10	1	-1E+10	1
4902624	43	C	08/24/2025	23:44	-129.102	49.179	0	133.40	0	8.0920	0	33.7112	0	26.250	0	132.224	0	87.6	4	30.3	4	-1E+10	1	0.0511	4	0.000295	0	-1E+10	1	-1E+10	1	-1E+10	1
4902624	43	C	08/24/2025	23:44	-129.102	49.179	0	134.20	0	8.0905	0	33.7116	0	26.251	0	133.016	0	87.3	4	30.2	4	-1E+10	1	0.0453	4	0.000389	0	-1E+10	1	-1E+10	1	-1E+10	1
4902624	43	C	08/24/2025	23:44	-129.102	49.179	0	135.00	0	8.0890	0	33.7120	0	26.251	0	133.809	0	-1e10	1	-1e10	1	-1E+10	1	-1e10	1	-1e10	1	-1E+10	1	-1E+10	1	-1E+10	1
4902624	43	C	08/24/2025	23:44	-129.102	49.179	0	135.10	0	8.0878	0	33.7124	0	26.252	0	133.908	0	86.9	4	30.1	4	-1E+10	1	0.0438	4	0.000330	0	-1E+10	1	-1E+10	1	-1E+10	1
4902624	43	C	08/24/2025	23:44	-129.102	49.179	0	136.00	0	8.0775	0	33.7160	0	26.256	0	134.800	0	86.5	4	29.9	4	-1E+10	1	0.0489	4	0.000594	0	-1E+10	1	-1E+10	1	-1E+10	1
4902624	43	C	08/24/2025	23:44	-129.102	49.179	0	136.80	0	8.0683	0	33.7192	0	26.260	0	135.592	0	86.1	4	29.8	4	-1E+10	1	0.0511	4	0.000744	0	-1E+10	1	-1E+10	1	-1E+10	1
4902624	43	C	08/24/2025	23:44	-129.102	49.179	0	137.00	0	8.0660	0	33.7200	0	26.261	0	135.791	0	-1e10	1	-1e10	1	-1E+10	1	-1e10	1	-1e10	1	-1E+10	1	-1E+10	1	-1E+10	1
4902624	43	C	08/24/2025	23:44	-129.102	49.179	0	137.70	0	8.0527	0	33.7263	0	26.268	0	136.484	0	85.7	4	29.6	4	-1E+10	1	0.0487	4	0.000635	0	-1E+10	1	-1E+10	1	-1E+10	1
4902624	43	C	08/24/2025	23:44	-129.102	49.179	0	138.60	0	8.0356	0	33.7344	0	26.277	0	137.376	0	85.5	4	29.5	4	-1E+10	1	0.0460	4	0.000336	0	-1E+10	1	-1E+10	1	-1E+10	1
4902624	43	C	08/24/2025	23:44	-129.102	49.179	0	139.00	0	8.0280	0	33.7380	0	26.281	0	137.772	0	-1e10	1	-1e10	1	-1E+10	1	-1e10	1	-1e10	1	-1E+10	1	-1E+10	1	-1E+10	1
4902624	43	C	08/24/2025	23:44	-129.102	49.179	0	139.50	0	8.0208	0	33.7412	0	26.285	0	138.268	0	85.2	4	29.4	4	-1E+10	1	0.0524	4	0.000302	0	-1E+10	1	-1E+10	1	-1E+10	1
4902624	43	C	08/24/2025	23:44	-129.102	49.179	0	140.40	0	8.0077	0	33.7471	0	26.291	0	139.159	0	84.9	4	29.3	4	-1E+10	1	0.0584	4	0.000330	0	-1E+10	1	-1E+10	1	-1E+10	1
4902624	43	C	08/24/2025	23:44	-129.102	49.179	0	141.00	0	7.9990	0	33.7510	0	26.295	0	139.754	0	-1e10	1	-1e10	1	-1E+10	1	-1e10	1	-1e10	1	-1E+10	1	-1E+10	1	-1E+10	1
4902624	43	C	08/24/2025	23:44	-129.102	49.179	0	141.30	0	7.9976	0	33.7517	0	26.296	0	140.051	0	84.8	4	29.3	4	-1E+10	1	0.0365	4	0.000319	0	-1E+10	1	-1E+10	1	-1E+10	1
4902624	43	C	08/24/2025	23:44	-129.102	49.179	0	142.20	0	7.9933	0	33.7539	0	26.299	0	140.943	0	84.8	4	29.3	4	-1E+10	1	0.0484	4	0.000280	0	-1E+10	1	-1E+10	1	-1E+10	1
4902624	43	C	08/24/2025	23:44	-129.102	49.179	0	143.10	0	7.9890	0	33.7560	0	26.301	0	141.835	0	82.4	4	28.4	4	-1E+10	1	0.0460	4	0.000321	0	-1E+10	1	-1E+10	1	-1E+10	1
4902624	43	C	08/24/2025	23:44	-129.102	49.179	0	144.00	0	7.9832	0	33.7578	0	26.303	0	142.726	0	84.5	4	29.2	4	-1E+10	1	0.0482	4	0.000321	0	-1E+10	1	-1E+10	1	-1E+10	1
4902624	43	C	08/24/2025	23:44	-129.102	49.179	0	144.90	0	7.9773	0	33.7596	0	26.305	0	143.618	0	84.3	4	29.1	4	-1E+10	1	0.0478	4	0.000333	0	-1E+10	1	-1E+10	1	-1E+10	1
4902624	43	C	08/24/2025	23:44	-129.102	49.179	0	145.10	0	7.9760	0	33.7600	0	26.306	0	143.816	0	-1e10	1	-1e10	1	-1E+10	1	-1e10	1	-1e10	1	-1E+10	1	-1E+10	1	-1E+10	1
4902624	43	C	08/24/2025	23:44	-129.102	49.179	0	145.80	0	7.9708	0	33.7615	0	26.308	0	144.510	0	84.1	4	29.0	4	-1E+10	1	0.0458	4	0.000404	0	-1E+10	1	-1E+10	1	-1E+10	1
4902624	43	C	08/24/2025	23:44	-129.102	49.179	0	146.80	0	7.9635	0	33.7636	0	26.311	0	145.501	0	83.9	4	29.0	4	-1E+10	1	0.0527	4	0.000454	0	-1E+10	1	-1E+10	1	-1E+10	1
4902624	43	C	08/24/2025	23:44	-129.102	49.179	0	147.00	0	7.9620	0	33.7640	0	26.311	0	145.699	0	-1e10	1	-1e10	1	-1E+10	1	-1e10	1	-1e10	1	-1E+10	1	-1E+10	1	-1E+10	1
4902624	43	C	08/24/2025	23:44	-129.102	49.179	0	147.70	0	7.9602	0	33.7655	0	26.313	0	146.392	0	83.8	4	28.9	4	-1E+10	1	0.0571	4	0.000280	0	-1E+10	1	-1E+10	1	-1E+10	1
4902624	43	C	08/24/2025	23:44	-129.102	49.179	0	148.60	0	7.9578	0	33.7674	0	26.314	0	147.284	0	83.6	4	28.9	4	-1E+10	1	0.0511	4	0.000319	0	-1E+10	1	-1E+10	1	-1E+10	1
4902624	43	C	08/24/2025	23:44	-129.102	49.179	0	148.90	0	7.9570	0	33.7680	0	26.315	0	147.581	0	-1e10	1	-1e10	1	-1E+10	1	-1e10	1	-1e10	1	-1E+10	1	-1E+10	1	-1E+10	1
4902624	43	C	08/24/2025	23:44	-129.102	49.179	0	149.50	0	7.9561	0	33.7689	0	26.316	0	148.176	0	83.5	4	28.8	4	-1E+10	1	0.0511	4	0.000367	0	-1E+10	1	-1E+10	1	-1E+10	1
4902624	43	C	08/24/2025	23:44	-129.102	49.179	0	150.40	0	7.9549	0	33.7701	0	26.317	0	149.067	0	83.4	4	28.8	4	-1E+10	1	0.0511	4	0.000341	0	-1E+10	1	-1E+10	1	-1E+10	1
4902624	43	C	08/24/2025	23:44	-129.102	49.179	0	151.00	0	7.9540	0	33.7710	0	26.318	0	149.662	0	-1e10	1	-1e10	1	-1E+10	1	-1e10	1	-1e10	1	-1E+10	1	-1E+10	1	-1E+10	1
4902624	43	C	08/24/2025	23:44	-129.102	49.179	0	151.30	0	7.9513	0	33.7718	0	26.319	0	149.959	0	83.4	4	28.8	4	-1E+10	1	0.0511	4	0.000308	0	-1E+10	1	-1E+10	1	-1E+10	1
4902624	43	C	08/24/2025	23:44	-129.102	49.179	0	152.20	0	7.9432	0	33.7740	0	26.322	0	150.851	0	83.3	4	28.7	4	-1E+10	1	0.0511	4	0.000282	0	-1E+10	1	-1E+10	1	-1E+10	1
4902624	43	C	08/24/2025	23:44	-129.102	49.179	0	153.00	0	7.9360	0	33.7760	0	26.324	0	151.644	0	-1e10	1	-1e10	1	-1E+10	1	-1e10	1	-1e10	1	-1E+10	1	-1E+10	1	-1E+10	1
4902624	43	C	08/24/2025	23:44	-129.102	49.179	0	153.10	0	7.9355	0	33.7760	0	26.325	0	151.743	0	83.2	4	28.7	4	-1E+10	1	0.0430	4	0.000324	0	-1E+10	1	-1E+10	1	-1E+10	1
4902624	43	C	08/24/2025	23:44	-129.102	49.179	0	154.00	0	7.9308	0	33.7765	0	26.326	0	152.634	0	83.1	4	28.7	4	-1E+10	1	0.0438	4	0.000365	0	-1E+10	1	-1E+10	1	-1E+10	1
4902624	43	C	08/24/2025	23:44	-129.102	49.179	0	154.90	0	7.9260	0	33.7769	0	26.327	0	153.526	0	83.0	4	28.6	4	-1E+10	1	0.0482	4	0.000351	0	-1E+10	1	-1E+10	1	-1E+10	1
4902624	43	C	08/24/2025	23:44	-129.102	49.179	0	155.10	0	7.9250	0	33.7770	0	26.327	0	153.724	0	-1e10	1	-1e10	1	-1E+10	1	-1e10	1	-1e10	1	-1E+10	1	-1E+10	1	-1E+10	1
4902624	43	C	08/24/2025	23:44	-129.102	49.179	0	155.80	0	7.9217	0	33.7774	0	26.328	0	154.418	0	82.8	4	28.5	4	-1E+10	1	0.0438	4	0.000334	0	-1E+10	1	-1E+10	1	-1E+10	1
4902624	43	C	08/24/2025	23:44	-129.102	49.179	0	156.60	0	7.9179	0	33.7778	0	26.329	0	155.210	0	82.6	4	28.5	4	-1E+10	1	0.0431	4	0.000340	0	-1E+10	1	-1E+10	1	-1E+10	1
4902624	43	C	08/24/2025	23:44	-129.102	49.179	0	157.00	0	7.9160	0	33.7780	0	26.329	0	155.607	0	-1e10	1	-1e10	1	-1E+10	1	-1e10	1	-1e10	1	-1E+10	1	-1E+10	1	-1E+10	1
4902624	43	C	08/24/2025	23:44	-129.102	49.179	0	157.50	0	7.9139	0	33.7788	0	26.330	0	156.102	0	82.3	4	28.4	4	-1E+10	1	0.0365	4	0.000318	0	-1E+10	1	-1E+10	1	-1E+10	1
4902624	43	C	08/24/2025	23:44	-129.102	49.179	0	158.50	0	7.9097	0	33.7804	0	26.332	0	157.093	0	82.1	4	28.3	4	-1E+10	1	0.0564	4	0.000340	0	-1E+10	1	-1E+10	1	-1E+10	1
4902624	43	C	08/24/2025	23:44	-129.102	49.179	0	158.90	0	7.9080	0	33.7810	0	26.333	0	157.489	0	-1e10	1	-1e10	1	-1E+10	1	-1e10	1	-1e10	1	-1E+10	1	-1E+10	1	-1E+10	1
4902624	43	C	08/24/2025	23:44	-129.102	49.179	0	159.40	0	7.8995	0	33.7840	0	26.336	0	157.984	0	81.9	4	28.2	4	-1E+10	1	0.0389	4	0.000331	0	-1E+10	1	-1E+10	1	-1E+10	1
4902624	43	C	08/24/2025	23:44	-129.102	49.179	0	160.30	0	7.8842	0	33.7894	0	26.343	0	158.876	0	81.7	4	28.2	4	-1E+10	1	0.0524	4	0.000381	0	-1E+10	1	-1E+10	1	-1E+10	1
4902624	43	C	08/24/2025	23:44	-129.102	49.179	0	160.90	0	7.8740	0	33.7930	0	26.347	0	159.470	0	-1e10	1	-1e10	1	-1E+10	1	-1e10	1	-1e10	1	-1E+10	1	-1E+10	1	-1E+10	1
4902624	43	C	08/24/2025	23:44	-129.102	49.179	0	161.20	0	7.8726	0	33.7933	0	26.347	0	159.768	0	81.6	4	28.1	4	-1E+10	1	0.0465	4	0.000362	0	-1E+10	1	-1E+10	1	-1E+10	1
4902624	43	C	08/24/2025	23:44	-129.102	49.179	0	162.10	0	7.8683	0	33.7941	0	26.349	0	160.659	0	81.5	4	28.1	4	-1E+10	1	0.0430	4	0.000330	0	-1E+10	1	-1E+10	1	-1E+10	1
4902624	43	C	08/24/2025	23:44	-129.102	49.179	0	163.00	0	7.8640	0	33.7950	0	26.350	0	161.551	0	79.1	4	27.3	4	-1E+10	1	0.0511	4	0.000339	0	-1E+10	1	-1E+10	1	-1E+10	1
4902624	43	C	08/24/2025	23:44	-129.102	49.179	0	163.90	0	7.8584	0	33.7967	0	26.352	0	162.443	0	81.2	4	28.0	4	-1E+10	1	0.0498	4	0.000356	0	-1E+10	1	-1E+10	1	-1E+10	1
4902624	43	C	08/24/2025	23:44	-129.102	49.179	0	164.80	0	7.8529	0	33.7984	0	26.354	0	163.334	0	81.0	4	27.9	4	-1E+10	1	0.0438	4	0.000365	0	-1E+10	1	-1E+10	1	-1E+10	1
4902624	43	C	08/24/2025	23:44	-129.102	49.179	0	165.10	0	7.8510	0	33.7990	0	26.355	0	163.631	0	-1e10	1	-1e10	1	-1E+10	1	-1e10	1	-1e10	1	-1E+10	1	-1E+10	1	-1E+10	1
4902624	43	C	08/24/2025	23:44	-129.102	49.179	0	165.70	0	7.8471	0	33.7999	0	26.356	0	164.226	0	80.8	4	27.8	4	-1E+10	1	0.0438	4	0.000576	0	-1E+10	1	-1E+10	1	-1E+10	1
4902624	43	C	08/24/2025	23:44	-129.102	49.179	0	166.70	0	7.8406	0	33.8014	0	26.359	0	165.217	0	80.7	4	27.8	4	-1E+10	1	0.0560	4	0.000400	0	-1E+10	1	-1E+10	1	-1E+10	1
4902624	43	C	08/24/2025	23:44	-129.102	49.179	0	167.10	0	7.8380	0	33.8020	0	26.359	0	165.613	0	-1e10	1	-1e10	1	-1E+10	1	-1e10	1	-1e10	1	-1E+10	1	-1E+10	1	-1E+10	1
4902624	43	C	08/24/2025	23:44	-129.102	49.179	0	167.60	0	7.8359	0	33.8031	0	26.361	0	166.108	0	80.5	4	27.7	4	-1E+10	1	0.0584	4	0.000406	0	-1E+10	1	-1E+10	1	-1E+10	1
4902624	43	C	08/24/2025	23:44	-129.102	49.179	0	168.50	0	7.8321	0	33.8049	0	26.363	0	167.000	0	80.3	4	27.7	4	-1E+10	1	0.0496	4	0.000354	0	-1E+10	1	-1E+10	1	-1E+10	1
4902624	43	C	08/24/2025	23:44	-129.102	49.179	0	169.00	0	7.8300	0	33.8060	0	26.364	0	167.495	0	-1e10	1	-1e10	1	-1E+10	1	-1e10	1	-1e10	1	-1E+10	1	-1E+10	1	-1E+10	1
4902624	43	C	08/24/2025	23:44	-129.102	49.179	0	169.40	0	7.8274	0	33.8068	0	26.365	0	167.891	0	80.3	4	27.6	4	-1E+10	1	0.0471	4	0.000317	0	-1E+10	1	-1E+10	1	-1E+10	1
4902624	43	C	08/24/2025	23:44	-129.102	49.179	0	170.40	0	7.8209	0	33.8088	0	26.367	0	168.882	0	80.2	4	27.6	4	-1E+10	1	0.0511	4	0.000322	0	-1E+10	1	-1E+10	1	-1E+10	1
4902624	43	C	08/24/2025	23:44	-129.102	49.179	0	171.00	0	7.8170	0	33.8100	0	26.369	0	169.477	0	-1e10	1	-1e10	1	-1E+10	1	-1e10	1	-1e10	1	-1E+10	1	-1E+10	1	-1E+10	1
4902624	43	C	08/24/2025	23:44	-129.102	49.179	0	171.30	0	7.8147	0	33.8105	0	26.369	0	169.774	0	80.2	4	27.6	4	-1E+10	1	0.0496	4	0.000311	0	-1E+10	1	-1E+10	1	-1E+10	1
4902624	43	C	08/24/2025	23:44	-129.102	49.179	0	172.30	0	7.8073	0	33.8120	0	26.372	0	170.764	0	80.1	4	27.6	4	-1E+10	1	0.0438	4	0.000326	0	-1E+10	1	-1E+10	1	-1E+10	1
4902624	43	C	08/24/2025	23:44	-129.102	49.179	0	173.00	0	7.8020	0	33.8130	0	26.373	0	171.458	0	-1e10	1	-1e10	1	-1E+10	1	-1e10	1	-1e10	1	-1E+10	1	-1E+10	1	-1E+10	1
4902624	43	C	08/24/2025	23:44	-129.102	49.179	0	173.20	0	7.8004	0	33.8133	0	26.374	0	171.656	0	80.1	4	27.6	4	-1E+10	1	0.0438	4	0.000307	0	-1E+10	1	-1E+10	1	-1E+10	1
4902624	43	C	08/24/2025	23:44	-129.102	49.179	0	174.20	0	7.7925	0	33.8149	0	26.376	0	172.647	0	80.1	4	27.6	4	-1E+10	1	0.0571	4	0.000552	0	-1E+10	1	-1E+10	1	-1E+10	1
4902624	43	C	08/24/2025	23:44	-129.102	49.179	0	174.90	0	7.7870	0	33.8160	0	26.378	0	173.340	0	-1e10	1	-1e10	1	-1E+10	1	-1e10	1	-1e10	1	-1E+10	1	-1E+10	1	-1E+10	1
4902624	43	C	08/24/2025	23:44	-129.102	49.179	0	175.10	0	7.7840	0	33.8166	0	26.379	0	173.538	0	80.0	4	27.5	4	-1E+10	1	0.0526	4	0.000342	0	-1E+10	1	-1E+10	1	-1E+10	1
4902624	43	C	08/24/2025	23:44	-129.102	49.179	0	176.10	0	7.7690	0	33.8198	0	26.384	0	174.529	0	80.0	4	27.5	4	-1E+10	1	0.0414	4	0.000307	0	-1E+10	1	-1E+10	1	-1E+10	1
4902624	43	C	08/24/2025	23:44	-129.102	49.179	0	177.10	0	7.7540	0	33.8230	0	26.388	0	175.520	0	77.7	4	26.7	4	-1E+10	1	0.0405	4	0.000325	0	-1E+10	1	-1E+10	1	-1E+10	1
4902624	43	C	08/24/2025	23:44	-129.102	49.179	0	178.00	0	7.7469	0	33.8244	0	26.390	0	176.411	0	79.9	4	27.4	4	-1E+10	1	0.0467	4	0.000321	0	-1E+10	1	-1E+10	1	-1E+10	1
4902624	43	C	08/24/2025	23:44	-129.102	49.179	0	179.00	0	7.7390	0	33.8260	0	26.393	0	177.402	0	77.7	4	26.7	4	-1E+10	1	0.0511	4	0.000342	0	-1E+10	1	-1E+10	1	-1E+10	1
4902624	43	C	08/24/2025	23:44	-129.102	49.179	0	180.00	0	7.7320	0	33.8275	0	26.395	0	178.392	0	79.9	4	27.5	4	-1E+10	1	0.0511	4	0.000391	0	-1E+10	1	-1E+10	1	-1E+10	1
4902624	43	C	08/24/2025	23:44	-129.102	49.179	0	180.90	0	7.7257	0	33.8288	0	26.397	0	179.284	0	80.0	4	27.5	4	-1E+10	1	0.0511	4	0.000295	0	-1E+10	1	-1E+10	1	-1E+10	1
4902624	43	C	08/24/2025	23:44	-129.102	49.179	0	181.00	0	7.7250	0	33.8290	0	26.397	0	179.383	0	-1e10	1	-1e10	1	-1E+10	1	-1e10	1	-1e10	1	-1E+10	1	-1E+10	1	-1E+10	1
4902624	43	C	08/24/2025	23:44	-129.102	49.179	0	181.90	0	7.7132	0	33.8309	0	26.400	0	180.275	0	80.0	4	27.5	4	-1E+10	1	0.0584	4	0.000377	0	-1E+10	1	-1E+10	1	-1E+10	1
4902624	43	C	08/24/2025	23:44	-129.102	49.179	0	182.80	0	7.7013	0	33.8328	0	26.404	0	181.166	0	80.0	4	27.5	4	-1E+10	1	0.0584	4	0.000350	0	-1E+10	1	-1E+10	1	-1E+10	1
4902624	43	C	08/24/2025	23:44	-129.102	49.179	0	182.90	0	7.7000	0	33.8330	0	26.404	0	181.265	0	-1e10	1	-1e10	1	-1E+10	1	-1e10	1	-1e10	1	-1E+10	1	-1E+10	1	-1E+10	1
4902624	43	C	08/24/2025	23:44	-129.102	49.179	0	183.80	0	7.6887	0	33.8348	0	26.407	0	182.157	0	80.0	4	27.4	4	-1E+10	1	0.0445	4	0.000327	0	-1E+10	1	-1E+10	1	-1E+10	1
4902624	43	C	08/24/2025	23:44	-129.102	49.179	0	184.80	0	7.6762	0	33.8368	0	26.410	0	183.147	0	79.9	4	27.4	4	-1E+10	1	0.0409	4	0.000332	0	-1E+10	1	-1E+10	1	-1E+10	1
4902624	43	C	08/24/2025	23:44	-129.102	49.179	0	184.90	0	7.6750	0	33.8370	0	26.411	0	183.247	0	-1e10	1	-1e10	1	-1E+10	1	-1e10	1	-1e10	1	-1E+10	1	-1E+10	1	-1E+10	1
4902624	43	C	08/24/2025	23:44	-129.102	49.179	0	185.80	0	7.6665	0	33.8384	0	26.413	0	184.138	0	79.8	4	27.4	4	-1E+10	1	0.0438	4	0.000348	0	-1E+10	1	-1E+10	1	-1E+10	1
4902624	43	C	08/24/2025	23:44	-129.102	49.179	0	186.80	0	7.6569	0	33.8399	0	26.416	0	185.129	0	79.7	4	27.3	4	-1E+10	1	0.0462	4	0.000357	0	-1E+10	1	-1E+10	1	-1E+10	1
4902624	43	C	08/24/2025	23:44	-129.102	49.179	0	186.90	0	7.6560	0	33.8400	0	26.416	0	185.228	0	-1e10	1	-1e10	1	-1E+10	1	-1e10	1	-1e10	1	-1E+10	1	-1E+10	1	-1E+10	1
4902624	43	C	08/24/2025	23:44	-129.102	49.179	0	187.80	0	7.6444	0	33.8421	0	26.419	0	186.119	0	79.7	4	27.3	4	-1E+10	1	0.0496	4	0.000372	0	-1E+10	1	-1E+10	1	-1E+10	1
4902624	43	C	08/24/2025	23:44	-129.102	49.179	0	188.80	0	7.6316	0	33.8445	0	26.423	0	187.110	0	79.6	4	27.3	4	-1E+10	1	0.0438	4	0.000385	0	-1E+10	1	-1E+10	1	-1E+10	1
4902624	43	C	08/24/2025	23:44	-129.102	49.179	0	189.00	0	7.6290	0	33.8450	0	26.424	0	187.308	0	-1e10	1	-1e10	1	-1E+10	1	-1e10	1	-1e10	1	-1E+10	1	-1E+10	1	-1E+10	1
4902624	43	C	08/24/2025	23:44	-129.102	49.179	0	189.80	0	7.6206	0	33.8463	0	26.426	0	188.101	0	79.5	4	27.3	4	-1E+10	1	0.0438	4	0.000306	0	-1E+10	1	-1E+10	1	-1E+10	1
4902624	43	C	08/24/2025	23:44	-129.102	49.179	0	190.80	0	7.6101	0	33.8478	0	26.429	0	189.091	0	79.4	4	27.2	4	-1E+10	1	0.0499	4	0.000336	0	-1E+10	1	-1E+10	1	-1E+10	1
4902624	43	C	08/24/2025	23:44	-129.102	49.179	0	190.90	0	7.6090	0	33.8480	0	26.429	0	189.190	0	-1e10	1	-1e10	1	-1E+10	1	-1e10	1	-1e10	1	-1E+10	1	-1E+10	1	-1E+10	1
4902624	43	C	08/24/2025	23:44	-129.102	49.179	0	191.80	0	7.5951	0	33.8493	0	26.432	0	190.082	0	79.1	4	27.1	4	-1E+10	1	0.0511	4	0.000332	0	-1E+10	1	-1E+10	1	-1E+10	1
4902624	43	C	08/24/2025	23:44	-129.102	49.179	0	192.80	0	7.5796	0	33.8509	0	26.435	0	191.072	0	78.7	4	27.0	4	-1E+10	1	0.0462	4	0.000533	0	-1E+10	1	-1E+10	1	-1E+10	1
4902624	43	C	08/24/2025	23:44	-129.102	49.179	0	192.90	0	7.5780	0	33.8510	0	26.436	0	191.171	0	-1e10	1	-1e10	1	-1E+10	1	-1e10	1	-1e10	1	-1E+10	1	-1E+10	1	-1E+10	1
4902624	43	C	08/24/2025	23:44	-129.102	49.179	0	193.80	0	7.5707	0	33.8523	0	26.438	0	192.063	0	78.3	4	26.8	4	-1E+10	1	0.0505	4	0.001355	0	-1E+10	1	-1E+10	1	-1E+10	1
4902624	43	C	08/24/2025	23:44	-129.102	49.179	0	194.80	0	7.5626	0	33.8537	0	26.440	0	193.053	0	77.9	4	26.7	4	-1E+10	1	0.0560	4	0.001589	0	-1E+10	1	-1E+10	1	-1E+10	1
4902624	43	C	08/24/2025	23:44	-129.102	49.179	0	195.00	0	7.5610	0	33.8540	0	26.441	0	193.252	0	-1e10	1	-1e10	1	-1E+10	1	-1e10	1	-1e10	1	-1E+10	1	-1E+10	1	-1E+10	1
4902624	43	C	08/24/2025	23:44	-129.102	49.179	0	195.90	0	7.5605	0	33.8554	0	26.442	0	194.143	0	77.5	4	26.5	4	-1E+10	1	0.0539	4	0.000431	0	-1E+10	1	-1E+10	1	-1E+10	1
4902624	43	C	08/24/2025	23:44	-129.102	49.179	0	196.90	0	7.5601	0	33.8568	0	26.443	0	195.134	0	77.2	4	26.4	4	-1E+10	1	0.0572	4	0.000482	0	-1E+10	1	-1E+10	1	-1E+10	1
4902624	43	C	08/24/2025	23:44	-129.102	49.179	0	197.00	0	7.5600	0	33.8570	0	26.443	0	195.233	0	-1e10	1	-1e10	1	-1E+10	1	-1e10	1	-1e10	1	-1E+10	1	-1E+10	1	-1E+10	1
4902624	43	C	08/24/2025	23:44	-129.102	49.179	0	197.90	0	7.5527	0	33.8579	0	26.445	0	196.124	0	76.7	4	26.3	4	-1E+10	1	0.0511	4	0.000306	0	-1E+10	1	-1E+10	1	-1E+10	1
4902624	43	C	08/24/2025	23:44	-129.102	49.179	0	199.00	0	7.5438	0	33.8589	0	26.447	0	197.214	0	76.2	4	26.1	4	-1E+10	1	0.0511	4	0.000295	0	-1E+10	1	-1E+10	1	-1E+10	1
4902624	43	C	08/24/2025	23:44	-129.102	49.179	0	199.10	0	7.5430	0	33.8590	0	26.447	0	197.313	0	-1e10	1	-1e10	1	-1E+10	1	-1e10	1	-1e10	1	-1E+10	1	-1E+10	1	-1E+10	1
4902624	43	C	08/24/2025	23:44	-129.102	49.179	0	200.00	0	7.5363	0	33.8613	0	26.450	0	198.204	0	75.6	4	25.9	4	-1E+10	1	0.0511	4	0.000656	0	-1E+10	1	-1E+10	1	-1E+10	1
4902624	43	C	08/24/2025	23:44	-129.102	49.179	0	201.00	0	7.5287	0	33.8637	0	26.453	0	199.195	0	75.2	4	25.7	4	-1E+10	1	0.0511	4	0.000431	0	-1E+10	1	-1E+10	1	-1E+10	1
4902624	43	C	08/24/2025	23:44	-129.102	49.179	0	201.10	0	7.5280	0	33.8640	0	26.453	0	199.294	0	-1e10	1	-1e10	1	-1E+10	1	-1e10	1	-1e10	1	-1E+10	1	-1E+10	1	-1E+10	1
4902624	43	C	08/24/2025	23:44	-129.102	49.179	0	202.00	0	7.5237	0	33.8654	0	26.455	0	200.185	0	74.8	4	25.6	4	-1E+10	1	0.0431	4	0.000315	0	-1E+10	1	-1E+10	1	-1E+10	1
4902624	43	C	08/24/2025	23:44	-129.102	49.179	0	203.00	0	7.5190	0	33.8670	0	26.457	0	201.176	0	-1e10	1	-1e10	1	-1E+10	1	-1e10	1	-1e10	1	-1E+10	1	-1E+10	1	-1E+10	1
4902624	43	C	08/24/2025	23:44	-129.102	49.179	0	203.10	0	7.5187	0	33.8671	0	26.457	0	201.275	0	74.5	4	25.5	4	-1E+10	1	0.0438	4	0.000365	0	-1E+10	1	-1E+10	1	-1E+10	1
4902624	43	C	08/24/2025	23:44	-129.102	49.179	0	204.10	0	7.5153	0	33.8680	0	26.458	0	202.265	0	74.1	4	25.3	4	-1E+10	1	0.0511	4	0.000363	0	-1E+10	1	-1E+10	1	-1E+10	1
4902624	43	C	08/24/2025	23:44	-129.102	49.179	0	205.10	0	7.5120	0	33.8690	0	26.459	0	203.256	0	-1e10	1	-1e10	1	-1E+10	1	-1e10	1	-1e10	1	-1E+10	1	-1E+10	1	-1E+10	1
4902624	43	C	08/24/2025	23:44	-129.102	49.179	0	205.20	0	7.5104	0	33.8693	0	26.460	0	203.355	0	73.7	4	25.2	4	-1E+10	1	0.0496	4	0.000304	0	-1E+10	1	-1E+10	1	-1E+10	1
4902624	43	C	08/24/2025	23:44	-129.102	49.179	0	206.20	0	7.4946	0	33.8725	0	26.465	0	204.346	0	73.4	4	25.1	4	-1E+10	1	0.0438	4	0.000302	0	-1E+10	1	-1E+10	1	-1E+10	1
4902624	43	C	08/24/2025	23:44	-129.102	49.179	0	207.00	0	7.4820	0	33.8750	0	26.468	0	205.138	0	-1e10	1	-1e10	1	-1E+10	1	-1e10	1	-1e10	1	-1E+10	1	-1E+10	1	-1E+10	1
4902624	43	C	08/24/2025	23:44	-129.102	49.179	0	207.30	0	7.4780	0	33.8756	0	26.469	0	205.435	0	72.9	4	24.9	4	-1E+10	1	0.0438	4	0.000341	0	-1E+10	1	-1E+10	1	-1E+10	1
4902624	43	C	08/24/2025	23:44	-129.102	49.179	0	208.30	0	7.4644	0	33.8776	0	26.473	0	206.426	0	72.5	4	24.8	4	-1E+10	1	0.0438	4	0.000371	0	-1E+10	1	-1E+10	1	-1E+10	1
4902624	43	C	08/24/2025	23:44	-129.102	49.179	0	209.00	0	7.4550	0	33.8790	0	26.475	0	207.119	0	-1e10	1	-1e10	1	-1E+10	1	-1e10	1	-1e10	1	-1E+10	1	-1E+10	1	-1E+10	1
4902624	43	C	08/24/2025	23:44	-129.102	49.179	0	209.40	0	7.4502	0	33.8806	0	26.477	0	207.515	0	72.1	4	24.6	4	-1E+10	1	0.0378	4	0.000338	0	-1E+10	1	-1E+10	1	-1E+10	1
4902624	43	C	08/24/2025	23:44	-129.102	49.179	0	210.40	0	7.4382	0	33.8846	0	26.482	0	208.506	0	71.9	4	24.5	4	-1E+10	1	0.0462	4	0.000314	0	-1E+10	1	-1E+10	1	-1E+10	1
4902624	43	C	08/24/2025	23:44	-129.102	49.179	0	211.00	0	7.4310	0	33.8870	0	26.485	0	209.100	0	-1e10	1	-1e10	1	-1E+10	1	-1e10	1	-1e10	1	-1E+10	1	-1E+10	1	-1E+10	1
4902624	43	C	08/24/2025	23:44	-129.102	49.179	0	211.40	0	7.4286	0	33.8874	0	26.486	0	209.496	0	71.8	4	24.5	4	-1E+10	1	0.0477	4	0.000306	0	-1E+10	1	-1E+10	1	-1E+10	1
4902624	43	C	08/24/2025	23:44	-129.102	49.179	0	212.50	0	7.4220	0	33.8885	0	26.488	0	210.586	0	71.8	4	24.5	4	-1E+10	1	0.0496	4	0.000311	0	-1E+10	1	-1E+10	1	-1E+10	1
4902624	43	C	08/24/2025	23:44	-129.102	49.179	0	213.00	0	7.4190	0	33.8890	0	26.488	0	211.081	0	-1e10	1	-1e10	1	-1E+10	1	-1e10	1	-1e10	1	-1E+10	1	-1E+10	1	-1E+10	1
4902624	43	C	08/24/2025	23:44	-129.102	49.179	0	213.60	0	7.4151	0	33.8899	0	26.490	0	211.675	0	71.7	4	24.5	4	-1E+10	1	0.0528	4	0.000688	0	-1E+10	1	-1E+10	1	-1E+10	1
4902624	43	C	08/24/2025	23:44	-129.102	49.179	0	214.60	0	7.4086	0	33.8914	0	26.492	0	212.666	0	71.7	4	24.5	4	-1E+10	1	0.0451	4	0.001148	0	-1E+10	1	-1E+10	1	-1E+10	1
4902624	43	C	08/24/2025	23:44	-129.102	49.179	0	215.00	0	7.4060	0	33.8920	0	26.493	0	213.062	0	-1e10	1	-1e10	1	-1E+10	1	-1e10	1	-1e10	1	-1E+10	1	-1E+10	1	-1E+10	1
4902624	43	C	08/24/2025	23:44	-129.102	49.179	0	215.70	0	7.3997	0	33.8930	0	26.494	0	213.755	0	71.8	4	24.5	4	-1E+10	1	0.0496	4	0.000501	0	-1E+10	1	-1E+10	1	-1E+10	1
4902624	43	C	08/24/2025	23:44	-129.102	49.179	0	216.80	0	7.3898	0	33.8947	0	26.497	0	214.845	0	71.8	4	24.5	4	-1E+10	1	0.0454	4	0.000302	0	-1E+10	1	-1E+10	1	-1E+10	1
4902624	43	C	08/24/2025	23:44	-129.102	49.179	0	217.00	0	7.3880	0	33.8950	0	26.498	0	215.043	0	-1e10	1	-1e10	1	-1E+10	1	-1e10	1	-1e10	1	-1E+10	1	-1E+10	1	-1E+10	1
4902624	43	C	08/24/2025	23:44	-129.102	49.179	0	217.90	0	7.3866	0	33.8950	0	26.498	0	215.934	0	71.9	4	24.5	4	-1E+10	1	0.0511	4	0.000330	0	-1E+10	1	-1E+10	1	-1E+10	1
4902624	43	C	08/24/2025	23:44	-129.102	49.179	0	218.90	0	7.3850	0	33.8950	0	26.498	0	216.925	0	69.9	4	23.8	4	-1E+10	1	0.0329	4	0.000310	0	-1E+10	1	-1E+10	1	-1E+10	1
4902624	43	C	08/24/2025	23:44	-129.102	49.179	0	220.00	0	7.3819	0	33.8950	0	26.498	0	218.014	0	72.0	4	24.5	4	-1E+10	1	0.0411	4	0.000335	0	-1E+10	1	-1E+10	1	-1E+10	1
4902624	43	C	08/24/2025	23:44	-129.102	49.179	0	221.00	0	7.3790	0	33.8950	0	26.499	0	219.005	0	-1e10	1	-1e10	1	-1E+10	1	-1e10	1	-1e10	1	-1E+10	1	-1E+10	1	-1E+10	1
4902624	43	C	08/24/2025	23:44	-129.102	49.179	0	221.10	0	7.3784	0	33.8950	0	26.499	0	219.104	0	72.0	4	24.5	4	-1E+10	1	0.0489	4	0.000325	0	-1E+10	1	-1E+10	1	-1E+10	1
4902624	43	C	08/24/2025	23:44	-129.102	49.179	0	222.20	0	7.3712	0	33.8950	0	26.500	0	220.193	0	72.0	4	24.5	4	-1E+10	1	0.0393	4	0.000324	0	-1E+10	1	-1E+10	1	-1E+10	1
4902624	43	C	08/24/2025	23:44	-129.102	49.179	0	223.00	0	7.3660	0	33.8950	0	26.501	0	220.985	0	-1e10	1	-1e10	1	-1E+10	1	-1e10	1	-1e10	1	-1E+10	1	-1E+10	1	-1E+10	1
4902624	43	C	08/24/2025	23:44	-129.102	49.179	0	223.20	0	7.3625	0	33.8953	0	26.501	0	221.184	0	71.9	4	24.5	4	-1E+10	1	0.0372	4	0.000372	0	-1E+10	1	-1E+10	1	-1E+10	1
4902624	43	C	08/24/2025	23:44	-129.102	49.179	0	224.30	0	7.3432	0	33.8969	0	26.505	0	222.273	0	71.6	4	24.4	4	-1E+10	1	0.0533	4	0.000414	0	-1E+10	1	-1E+10	1	-1E+10	1
4902624	43	C	08/24/2025	23:44	-129.102	49.179	0	225.00	0	7.3310	0	33.8980	0	26.508	0	222.966	0	-1e10	1	-1e10	1	-1E+10	1	-1e10	1	-1e10	1	-1E+10	1	-1E+10	1	-1E+10	1
4902624	43	C	08/24/2025	23:44	-129.102	49.179	0	225.40	0	7.3292	0	33.8986	0	26.509	0	223.363	0	71.2	4	24.3	4	-1E+10	1	0.0606	4	0.001081	0	-1E+10	1	-1E+10	1	-1E+10	1
4902624	43	C	08/24/2025	23:44	-129.102	49.179	0	226.50	0	7.3243	0	33.9002	0	26.511	0	224.452	0	71.0	4	24.2	4	-1E+10	1	0.0730	4	0.005151	0	-1E+10	1	-1E+10	1	-1E+10	1
4902624	43	C	08/24/2025	23:44	-129.102	49.179	0	227.00	0	7.3220	0	33.9010	0	26.512	0	224.947	0	-1e10	1	-1e10	1	-1E+10	1	-1e10	1	-1e10	1	-1E+10	1	-1E+10	1	-1E+10	1
4902624	43	C	08/24/2025	23:44	-129.102	49.179	0	227.60	0	7.3198	0	33.9016	0	26.512	0	225.541	0	70.9	4	24.1	4	-1E+10	1	0.0511	4	0.002171	0	-1E+10	1	-1E+10	1	-1E+10	1
4902624	43	C	08/24/2025	23:44	-129.102	49.179	0	228.70	0	7.3157	0	33.9028	0	26.514	0	226.631	0	70.8	4	24.1	4	-1E+10	1	0.0511	4	0.000733	0	-1E+10	1	-1E+10	1	-1E+10	1
4902624	43	C	08/24/2025	23:44	-129.102	49.179	0	228.90	0	7.3150	0	33.9030	0	26.514	0	226.829	0	-1e10	1	-1e10	1	-1E+10	1	-1e10	1	-1e10	1	-1E+10	1	-1E+10	1	-1E+10	1
4902624	43	C	08/24/2025	23:44	-129.102	49.179	0	229.80	0	7.3069	0	33.9051	0	26.517	0	227.720	0	70.9	4	24.1	4	-1E+10	1	0.0466	4	0.000334	0	-1E+10	1	-1E+10	1	-1E+10	1
4902624	43	C	08/24/2025	23:44	-129.102	49.179	0	230.90	0	7.2969	0	33.9078	0	26.521	0	228.810	0	71.1	4	24.2	4	-1E+10	1	0.0398	4	0.000317	0	-1E+10	1	-1E+10	1	-1E+10	1
4902624	43	C	08/24/2025	23:44	-129.102	49.179	0	231.00	0	7.2960	0	33.9080	0	26.521	0	228.909	0	-1e10	1	-1e10	1	-1E+10	1	-1e10	1	-1e10	1	-1E+10	1	-1E+10	1	-1E+10	1
4902624	43	C	08/24/2025	23:44	-129.102	49.179	0	232.10	0	7.2878	0	33.9102	0	26.524	0	229.998	0	71.5	4	24.3	4	-1E+10	1	0.0474	4	0.000300	0	-1E+10	1	-1E+10	1	-1E+10	1
4902624	43	C	08/24/2025	23:44	-129.102	49.179	0	233.00	0	7.2810	0	33.9120	0	26.526	0	230.890	0	-1e10	1	-1e10	1	-1E+10	1	-1e10	1	-1e10	1	-1E+10	1	-1E+10	1	-1E+10	1
4902624	43	C	08/24/2025	23:44	-129.102	49.179	0	233.20	0	7.2797	0	33.9121	0	26.526	0	231.088	0	72.0	4	24.5	4	-1E+10	1	0.0517	4	0.000305	0	-1E+10	1	-1E+10	1	-1E+10	1
4902624	43	C	08/24/2025	23:44	-129.102	49.179	0	234.30	0	7.2726	0	33.9126	0	26.528	0	232.177	0	72.6	4	24.7	4	-1E+10	1	0.0405	4	0.000325	0	-1E+10	1	-1E+10	1	-1E+10	1
4902624	43	C	08/24/2025	23:44	-129.102	49.179	0	235.00	0	7.2680	0	33.9130	0	26.529	0	232.870	0	-1e10	1	-1e10	1	-1E+10	1	-1e10	1	-1e10	1	-1E+10	1	-1E+10	1	-1E+10	1
4902624	43	C	08/24/2025	23:44	-129.102	49.179	0	235.40	0	7.2628	0	33.9132	0	26.530	0	233.266	0	73.3	4	24.9	4	-1E+10	1	0.0573	4	0.000306	0	-1E+10	1	-1E+10	1	-1E+10	1
4902624	43	C	08/24/2025	23:44	-129.102	49.179	0	236.50	0	7.2485	0	33.9137	0	26.532	0	234.356	0	74.0	4	25.2	4	-1E+10	1	0.0511	4	0.000306	0	-1E+10	1	-1E+10	1	-1E+10	1
4902624	43	C	08/24/2025	23:44	-129.102	49.179	0	237.00	0	7.2420	0	33.9140	0	26.533	0	234.851	0	-1e10	1	-1e10	1	-1E+10	1	-1e10	1	-1e10	1	-1E+10	1	-1E+10	1	-1E+10	1
4902624	43	C	08/24/2025	23:44	-129.102	49.179	0	237.60	0	7.2315	0	33.9140	0	26.535	0	235.445	0	74.7	4	25.4	4	-1E+10	1	0.0511	4	0.000288	0	-1E+10	1	-1E+10	1	-1E+10	1
4902624	43	C	08/24/2025	23:44	-129.102	49.179	0	238.80	0	7.2105	0	33.9140	0	26.538	0	236.634	0	75.2	4	25.5	4	-1E+10	1	0.0511	4	0.000252	0	-1E+10	1	-1E+10	1	-1E+10	1
4902624	43	C	08/24/2025	23:44	-129.102	49.179	0	239.00	0	7.2070	0	33.9140	0	26.538	0	236.832	0	-1e10	1	-1e10	1	-1E+10	1	-1e10	1	-1e10	1	-1E+10	1	-1E+10	1	-1E+10	1
4902624	43	C	08/24/2025	23:44	-129.102	49.179	0	239.90	0	7.1867	0	33.9131	0	26.540	0	237.723	0	75.5	4	25.6	4	-1E+10	1	0.0713	4	0.001124	0	-1E+10	1	-1E+10	1	-1E+10	1
4902624	43	C	08/24/2025	23:44	-129.102	49.179	0	241.00	0	7.1620	0	33.9120	0	26.543	0	238.812	0	73.5	4	24.9	4	-1E+10	1	0.0657	4	0.000898	0	-1E+10	1	-1E+10	1	-1E+10	1
4902624	43	C	08/24/2025	23:44	-129.102	49.179	0	242.10	0	7.1526	0	33.9120	0	26.544	0	239.902	0	75.6	4	25.7	4	-1E+10	1	0.0484	4	0.000325	0	-1E+10	1	-1E+10	1	-1E+10	1
4902624	43	C	08/24/2025	23:44	-129.102	49.179	0	243.00	0	7.1450	0	33.9120	0	26.545	0	240.793	0	-1e10	1	-1e10	1	-1E+10	1	-1e10	1	-1e10	1	-1E+10	1	-1E+10	1	-1E+10	1
4902624	43	C	08/24/2025	23:44	-129.102	49.179	0	243.30	0	7.1431	0	33.9121	0	26.545	0	241.090	0	75.6	4	25.6	4	-1E+10	1	0.0412	4	0.000479	0	-1E+10	1	-1E+10	1	-1E+10	1
4902624	43	C	08/24/2025	23:44	-129.102	49.179	0	244.40	0	7.1363	0	33.9127	0	26.547	0	242.180	0	75.6	4	25.6	4	-1E+10	1	0.0399	4	0.000576	0	-1E+10	1	-1E+10	1	-1E+10	1
4902624	43	C	08/24/2025	23:44	-129.102	49.179	0	245.10	0	7.1320	0	33.9130	0	26.548	0	242.873	0	-1e10	1	-1e10	1	-1E+10	1	-1e10	1	-1e10	1	-1E+10	1	-1E+10	1	-1E+10	1
4902624	43	C	08/24/2025	23:44	-129.102	49.179	0	245.50	0	7.1276	0	33.9132	0	26.548	0	243.269	0	75.7	4	25.7	4	-1E+10	1	0.0584	4	0.000318	0	-1E+10	1	-1E+10	1	-1E+10	1
4902624	43	C	08/24/2025	23:44	-129.102	49.179	0	246.60	0	7.1155	0	33.9137	0	26.551	0	244.358	0	75.7	4	25.6	4	-1E+10	1	0.0438	4	0.000271	0	-1E+10	1	-1E+10	1	-1E+10	1
4902624	43	C	08/24/2025	23:44	-129.102	49.179	0	247.10	0	7.1100	0	33.9140	0	26.552	0	244.854	0	-1e10	1	-1e10	1	-1E+10	1	-1e10	1	-1e10	1	-1E+10	1	-1E+10	1	-1E+10	1
4902624	43	C	08/24/2025	23:44	-129.102	49.179	0	247.80	0	7.1030	0	33.9147	0	26.553	0	245.547	0	75.7	4	25.6	4	-1E+10	1	0.0563	4	0.000422	0	-1E+10	1	-1E+10	1	-1E+10	1
4902624	43	C	08/24/2025	23:44	-129.102	49.179	0	248.90	0	7.0920	0	33.9159	0	26.556	0	246.636	0	75.7	4	25.6	4	-1E+10	1	0.0584	4	0.003109	0	-1E+10	1	-1E+10	1	-1E+10	1
4902624	43	C	08/24/2025	23:44	-129.102	49.179	0	249.00	0	7.0910	0	33.9160	0	26.556	0	246.735	0	-1e10	1	-1e10	1	-1E+10	1	-1e10	1	-1e10	1	-1E+10	1	-1E+10	1	-1E+10	1
4902624	43	C	08/24/2025	23:44	-129.102	49.179	0	250.10	0	7.0838	0	33.9165	0	26.557	0	247.824	0	75.7	4	25.6	4	-1E+10	1	0.0584	4	0.002908	0	-1E+10	1	-1E+10	1	-1E+10	1
4902624	43	C	08/24/2025	23:44	-129.102	49.179	0	251.00	0	7.0780	0	33.9170	0	26.558	0	248.716	0	-1e10	1	-1e10	1	-1E+10	1	-1e10	1	-1e10	1	-1E+10	1	-1E+10	1	-1E+10	1
4902624	43	C	08/24/2025	23:44	-129.102	49.179	0	251.20	0	7.0760	0	33.9172	0	26.559	0	248.914	0	75.8	4	25.7	4	-1E+10	1	0.0548	4	0.001156	0	-1E+10	1	-1E+10	1	-1E+10	1
4902624	43	C	08/24/2025	23:44	-129.102	49.179	0	252.40	0	7.0640	0	33.9183	0	26.561	0	250.102	0	75.8	4	25.7	4	-1E+10	1	0.0511	4	0.000335	0	-1E+10	1	-1E+10	1	-1E+10	1
4902624	43	C	08/24/2025	23:44	-129.102	49.179	0	253.10	0	7.0570	0	33.9190	0	26.563	0	250.795	0	-1e10	1	-1e10	1	-1E+10	1	-1e10	1	-1e10	1	-1E+10	1	-1E+10	1	-1E+10	1
4902624	43	C	08/24/2025	23:44	-129.102	49.179	0	253.50	0	7.0532	0	33.9192	0	26.564	0	251.191	0	75.9	4	25.7	4	-1E+10	1	0.0499	4	0.000284	0	-1E+10	1	-1E+10	1	-1E+10	1
4902624	43	C	08/24/2025	23:44	-129.102	49.179	0	254.70	0	7.0418	0	33.9198	0	26.566	0	252.380	0	76.0	4	25.7	4	-1E+10	1	0.0459	4	0.000904	0	-1E+10	1	-1E+10	1	-1E+10	1
4902624	43	C	08/24/2025	23:44	-129.102	49.179	0	255.10	0	7.0380	0	33.9200	0	26.566	0	252.776	0	-1e10	1	-1e10	1	-1E+10	1	-1e10	1	-1e10	1	-1E+10	1	-1E+10	1	-1E+10	1
4902624	43	C	08/24/2025	23:44	-129.102	49.179	0	255.90	0	7.0292	0	33.9204	0	26.568	0	253.568	0	76.0	4	25.7	4	-1E+10	1	0.0584	4	0.004564	0	-1E+10	1	-1E+10	1	-1E+10	1
4902624	43	C	08/24/2025	23:44	-129.102	49.179	0	257.00	0	7.0170	0	33.9210	0	26.570	0	254.657	0	73.9	4	25.0	4	-1E+10	1	0.0527	4	0.001228	0	-1E+10	1	-1E+10	1	-1E+10	1
4902624	43	C	08/24/2025	23:44	-129.102	49.179	0	258.20	0	7.0079	0	33.9210	0	26.571	0	255.846	0	76.0	4	25.7	4	-1E+10	1	0.0511	4	0.000282	0	-1E+10	1	-1E+10	1	-1E+10	1
4902624	43	C	08/24/2025	23:44	-129.102	49.179	0	259.10	0	7.0010	0	33.9210	0	26.572	0	256.737	0	-1e10	1	-1e10	1	-1E+10	1	-1e10	1	-1e10	1	-1E+10	1	-1E+10	1	-1E+10	1
4902624	43	C	08/24/2025	23:44	-129.102	49.179	0	259.40	0	6.9994	0	33.9210	0	26.572	0	257.034	0	76.1	4	25.7	4	-1E+10	1	0.0370	4	0.000256	0	-1E+10	1	-1E+10	1	-1E+10	1
4902624	43	C	08/24/2025	23:44	-129.102	49.179	0	260.60	0	6.9927	0	33.9210	0	26.573	0	258.222	0	76.0	4	25.7	4	-1E+10	1	0.0329	4	0.000329	0	-1E+10	1	-1E+10	1	-1E+10	1
4902624	43	C	08/24/2025	23:44	-129.102	49.179	0	261.10	0	6.9900	0	33.9210	0	26.574	0	258.717	0	-1e10	1	-1e10	1	-1E+10	1	-1e10	1	-1e10	1	-1E+10	1	-1E+10	1	-1E+10	1
4902624	43	C	08/24/2025	23:44	-129.102	49.179	0	261.80	0	6.9872	0	33.9210	0	26.574	0	259.411	0	75.9	4	25.6	4	-1E+10	1	0.0487	4	0.000358	0	-1E+10	1	-1E+10	1	-1E+10	1
4902624	43	C	08/24/2025	23:44	-129.102	49.179	0	263.00	0	6.9824	0	33.9210	0	26.575	0	260.599	0	75.8	4	25.6	4	-1E+10	1	0.0579	4	0.000291	0	-1E+10	1	-1E+10	1	-1E+10	1
4902624	43	C	08/24/2025	23:44	-129.102	49.179	0	263.10	0	6.9820	0	33.9210	0	26.575	0	260.698	0	-1e10	1	-1e10	1	-1E+10	1	-1e10	1	-1e10	1	-1E+10	1	-1E+10	1	-1E+10	1
4902624	43	C	08/24/2025	23:44	-129.102	49.179	0	264.10	0	6.9767	0	33.9215	0	26.576	0	261.688	0	75.7	4	25.6	4	-1E+10	1	0.0438	4	0.000304	0	-1E+10	1	-1E+10	1	-1E+10	1
4902624	43	C	08/24/2025	23:44	-129.102	49.179	0	265.00	0	6.9720	0	33.9220	0	26.577	0	262.579	0	-1e10	1	-1e10	1	-1E+10	1	-1e10	1	-1e10	1	-1E+10	1	-1E+10	1	-1E+10	1
4902624	43	C	08/24/2025	23:44	-129.102	49.179	0	265.30	0	6.9703	0	33.9220	0	26.577	0	262.876	0	75.5	4	25.5	4	-1E+10	1	0.0438	4	0.000294	0	-1E+10	1	-1E+10	1	-1E+10	1
4902624	43	C	08/24/2025	23:44	-129.102	49.179	0	266.50	0	6.9633	0	33.9220	0	26.578	0	264.065	0	75.4	4	25.5	4	-1E+10	1	0.0511	4	0.000271	0	-1E+10	1	-1E+10	1	-1E+10	1
4902624	43	C	08/24/2025	23:44	-129.102	49.179	0	266.90	0	6.9610	0	33.9220	0	26.578	0	264.461	0	-1e10	1	-1e10	1	-1E+10	1	-1e10	1	-1e10	1	-1E+10	1	-1E+10	1	-1E+10	1
4902624	43	C	08/24/2025	23:44	-129.102	49.179	0	267.70	0	6.9510	0	33.9228	0	26.580	0	265.253	0	75.2	4	25.4	4	-1E+10	1	0.0323	4	0.000281	0	-1E+10	1	-1E+10	1	-1E+10	1
4902624	43	C	08/24/2025	23:44	-129.102	49.179	0	268.80	0	6.9372	0	33.9239	0	26.583	0	266.342	0	75.1	4	25.3	4	-1E+10	1	0.0433	4	0.000539	0	-1E+10	1	-1E+10	1	-1E+10	1
4902624	43	C	08/24/2025	23:44	-129.102	49.179	0	268.90	0	6.9360	0	33.9240	0	26.583	0	266.441	0	-1e10	1	-1e10	1	-1E+10	1	-1e10	1	-1e10	1	-1E+10	1	-1E+10	1	-1E+10	1
4902624	43	C	08/24/2025	23:44	-129.102	49.179	0	270.00	0	6.9135	0	33.9261	0	26.588	0	267.531	0	74.9	4	25.3	4	-1E+10	1	0.0554	4	0.000462	0	-1E+10	1	-1E+10	1	-1E+10	1
4902624	43	C	08/24/2025	23:44	-129.102	49.179	0	271.00	0	6.8930	0	33.9280	0	26.592	0	268.521	0	-1e10	1	-1e10	1	-1E+10	1	-1e10	1	-1e10	1	-1E+10	1	-1E+10	1	-1E+10	1
4902624	43	C	08/24/2025	23:44	-129.102	49.179	0	271.20	0	6.8922	0	33.9279	0	26.593	0	268.719	0	74.8	4	25.2	4	-1E+10	1	0.0474	4	0.000294	0	-1E+10	1	-1E+10	1	-1E+10	1
4902624	43	C	08/24/2025	23:44	-129.102	49.179	0	272.40	0	6.8874	0	33.9273	0	26.593	0	269.907	0	74.5	4	25.1	4	-1E+10	1	0.0391	4	0.000299	0	-1E+10	1	-1E+10	1	-1E+10	1
4902624	43	C	08/24/2025	23:44	-129.102	49.179	0	273.00	0	6.8850	0	33.9270	0	26.593	0	270.501	0	-1e10	1	-1e10	1	-1E+10	1	-1e10	1	-1e10	1	-1E+10	1	-1E+10	1	-1E+10	1
4902624	43	C	08/24/2025	23:44	-129.102	49.179	0	273.60	0	6.8796	0	33.9273	0	26.594	0	271.095	0	74.4	4	25.1	4	-1E+10	1	0.0456	4	0.000344	0	-1E+10	1	-1E+10	1	-1E+10	1
4902624	43	C	08/24/2025	23:44	-129.102	49.179	0	274.70	0	6.8697	0	33.9279	0	26.596	0	272.184	0	74.2	4	25.0	4	-1E+10	1	0.0501	4	0.000393	0	-1E+10	1	-1E+10	1	-1E+10	1
4902624	43	C	08/24/2025	23:44	-129.102	49.179	0	275.00	0	6.8670	0	33.9280	0	26.596	0	272.482	0	-1e10	1	-1e10	1	-1E+10	1	-1e10	1	-1e10	1	-1E+10	1	-1E+10	1	-1E+10	1
4902624	43	C	08/24/2025	23:44	-129.102	49.179	0	275.90	0	6.8526	0	33.9294	0	26.599	0	273.373	0	74.0	4	24.9	4	-1E+10	1	0.0438	4	0.000423	0	-1E+10	1	-1E+10	1	-1E+10	1
4902624	43	C	08/24/2025	23:44	-129.102	49.179	0	277.00	0	6.8350	0	33.9310	0	26.603	0	274.462	0	-1e10	1	-1e10	1	-1E+10	1	-1e10	1	-1e10	1	-1E+10	1	-1E+10	1	-1E+10	1
4902624	43	C	08/24/2025	23:44	-129.102	49.179	0	277.10	0	6.8334	0	33.9312	0	26.603	0	274.561	0	73.8	4	24.9	4	-1E+10	1	0.0555	4	0.000282	0	-1E+10	1	-1E+10	1	-1E+10	1
4902624	43	C	08/24/2025	23:44	-129.102	49.179	0	278.30	0	6.8145	0	33.9331	0	26.607	0	275.749	0	73.7	4	24.8	4	-1E+10	1	0.0639	4	0.000282	0	-1E+10	1	-1E+10	1	-1E+10	1
4902624	43	C	08/24/2025	23:44	-129.102	49.179	0	278.90	0	6.8050	0	33.9340	0	26.609	0	276.343	0	-1e10	1	-1e10	1	-1E+10	1	-1e10	1	-1e10	1	-1E+10	1	-1E+10	1	-1E+10	1
4902624	43	C	08/24/2025	23:44	-129.102	49.179	0	279.50	0	6.7973	0	33.9343	0	26.610	0	276.937	0	73.6	4	24.8	4	-1E+10	1	0.0516	4	0.000286	0	-1E+10	1	-1E+10	1	-1E+10	1
4902624	43	C	08/24/2025	23:44	-129.102	49.179	0	280.70	0	6.7819	0	33.9349	0	26.613	0	278.125	0	73.4	4	24.7	4	-1E+10	1	0.0404	4	0.000282	0	-1E+10	1	-1E+10	1	-1E+10	1
4902624	43	C	08/24/2025	23:44	-129.102	49.179	0	281.00	0	6.7780	0	33.9350	0	26.614	0	278.423	0	-1e10	1	-1e10	1	-1E+10	1	-1e10	1	-1e10	1	-1E+10	1	-1E+10	1	-1E+10	1
4902624	43	C	08/24/2025	23:44	-129.102	49.179	0	282.00	0	6.7690	0	33.9350	0	26.615	0	279.413	0	73.2	4	24.6	4	-1E+10	1	0.0487	4	0.000277	0	-1E+10	1	-1E+10	1	-1E+10	1
4902624	43	C	08/24/2025	23:44	-129.102	49.179	0	283.00	0	6.7600	0	33.9350	0	26.616	0	280.403	0	-1e10	1	-1e10	1	-1E+10	1	-1e10	1	-1e10	1	-1E+10	1	-1E+10	1	-1E+10	1
4902624	43	C	08/24/2025	23:44	-129.102	49.179	0	283.10	0	6.7591	0	33.9351	0	26.616	0	280.502	0	72.9	4	24.5	4	-1E+10	1	0.0594	4	0.000270	0	-1E+10	1	-1E+10	1	-1E+10	1
4902624	43	C	08/24/2025	23:44	-129.102	49.179	0	284.40	0	6.7467	0	33.9357	0	26.618	0	281.789	0	72.6	4	24.4	4	-1E+10	1	0.0438	4	0.000268	0	-1E+10	1	-1E+10	1	-1E+10	1
4902624	43	C	08/24/2025	23:44	-129.102	49.179	0	285.00	0	6.7410	0	33.9360	0	26.619	0	282.383	0	-1e10	1	-1e10	1	-1E+10	1	-1e10	1	-1e10	1	-1E+10	1	-1E+10	1	-1E+10	1
4902624	43	C	08/24/2025	23:44	-129.102	49.179	0	285.60	0	6.7347	0	33.9366	0	26.621	0	282.977	0	72.3	4	24.3	4	-1E+10	1	0.0438	4	0.000259	0	-1E+10	1	-1E+10	1	-1E+10	1
4902624	43	C	08/24/2025	23:44	-129.102	49.179	0	286.80	0	6.7221	0	33.9379	0	26.623	0	284.165	0	72.1	4	24.2	4	-1E+10	1	0.0584	4	0.000259	0	-1E+10	1	-1E+10	1	-1E+10	1
4902624	43	C	08/24/2025	23:44	-129.102	49.179	0	286.90	0	6.7210	0	33.9380	0	26.624	0	284.264	0	-1e10	1	-1e10	1	-1E+10	1	-1e10	1	-1e10	1	-1E+10	1	-1E+10	1	-1E+10	1
4902624	43	C	08/24/2025	23:44	-129.102	49.179	0	288.00	0	6.7105	0	33.9396	0	26.626	0	285.353	0	71.9	4	24.2	4	-1E+10	1	0.0647	4	0.000309	0	-1E+10	1	-1E+10	1	-1E+10	1
4902624	43	C	08/24/2025	23:44	-129.102	49.179	0	289.00	0	6.7010	0	33.9410	0	26.629	0	286.344	0	-1e10	1	-1e10	1	-1E+10	1	-1e10	1	-1e10	1	-1E+10	1	-1E+10	1	-1E+10	1
4902624	43	C	08/24/2025	23:44	-129.102	49.179	0	289.20	0	6.6985	0	33.9413	0	26.629	0	286.542	0	71.8	4	24.1	4	-1E+10	1	0.0560	4	0.000270	0	-1E+10	1	-1E+10	1	-1E+10	1
4902624	43	C	08/24/2025	23:44	-129.102	49.179	0	290.40	0	6.6835	0	33.9431	0	26.633	0	287.730	0	71.8	4	24.1	4	-1E+10	1	0.0511	4	0.000254	0	-1E+10	1	-1E+10	1	-1E+10	1
4902624	43	C	08/24/2025	23:44	-129.102	49.179	0	291.00	0	6.6760	0	33.9440	0	26.634	0	288.324	0	-1e10	1	-1e10	1	-1E+10	1	-1e10	1	-1e10	1	-1E+10	1	-1E+10	1	-1E+10	1
4902624	43	C	08/24/2025	23:44	-129.102	49.179	0	291.70	0	6.6669	0	33.9440	0	26.636	0	289.017	0	71.7	4	24.0	4	-1E+10	1	0.0472	4	0.000259	0	-1E+10	1	-1E+10	1	-1E+10	1
4902624	43	C	08/24/2025	23:44	-129.102	49.179	0	292.90	0	6.6513	0	33.9440	0	26.638	0	290.205	0	71.5	4	24.0	4	-1E+10	1	0.0651	4	0.000254	0	-1E+10	1	-1E+10	1	-1E+10	1
4902624	43	C	08/24/2025	23:44	-129.102	49.179	0	293.00	0	6.6500	0	33.9440	0	26.638	0	290.304	0	-1e10	1	-1e10	1	-1E+10	1	-1e10	1	-1e10	1	-1E+10	1	-1E+10	1	-1E+10	1
4902624	43	C	08/24/2025	23:44	-129.102	49.179	0	294.10	0	6.6396	0	33.9451	0	26.640	0	291.393	0	71.5	4	24.0	4	-1E+10	1	0.0736	4	0.000257	0	-1E+10	1	-1E+10	1	-1E+10	1
4902624	43	C	08/24/2025	23:44	-129.102	49.179	0	295.00	0	6.6310	0	33.9460	0	26.642	0	292.284	0	-1e10	1	-1e10	1	-1E+10	1	-1e10	1	-1e10	1	-1E+10	1	-1E+10	1	-1E+10	1
4902624	43	C	08/24/2025	23:44	-129.102	49.179	0	295.30	0	6.6281	0	33.9457	0	26.642	0	292.581	0	71.4	4	23.9	4	-1E+10	1	0.0438	4	0.000273	0	-1E+10	1	-1E+10	1	-1E+10	1
4902624	43	C	08/24/2025	23:44	-129.102	49.179	0	297.00	0	6.6120	0	33.9440	0	26.643	0	294.264	0	-1e10	1	-1e10	1	-1E+10	1	-1e10	1	-1e10	1	-1E+10	1	-1E+10	1	-1E+10	1
4902624	43	C	08/24/2025	23:44	-129.102	49.179	0	299.00	0	6.6010	0	33.9440	0	26.644	0	296.245	0	-1e10	1	-1e10	1	-1E+10	1	-1e10	1	-1e10	1	-1E+10	1	-1E+10	1	-1E+10	1
4902624	43	C	08/24/2025	23:44	-129.102	49.179	0	304.90	0	6.5590	0	33.9470	0	26.652	0	302.086	0	-1e10	1	-1e10	1	-1E+10	1	-1e10	1	-1e10	1	-1E+10	1	-1E+10	1	-1E+10	1
4902624	43	C	08/24/2025	23:44	-129.102	49.179	0	307.80	0	6.5393	0	33.9493	0	26.657	0	304.957	0	69.1	4	23.1	4	-1E+10	1	0.0446	4	0.000324	0	-1E+10	1	-1E+10	1	-1E+10	1
4902624	43	C	08/24/2025	23:44	-129.102	49.179	0	315.20	0	6.4890	0	33.9550	0	26.668	0	312.283	0	-1e10	1	-1e10	1	-1E+10	1	-1e10	1	-1e10	1	-1E+10	1	-1E+10	1	-1E+10	1
4902624	43	C	08/24/2025	23:44	-129.102	49.179	0	316.90	0	6.4736	0	33.9555	0	26.670	0	313.966	0	67.7	4	22.6	4	-1E+10	1	0.0580	4	0.000235	0	-1E+10	1	-1E+10	1	-1E+10	1
4902624	43	C	08/24/2025	23:44	-129.102	49.179	0	324.90	0	6.4009	0	33.9580	0	26.682	0	321.886	0	66.2	4	22.1	4	-1E+10	1	0.0511	4	0.000236	0	-1E+10	1	-1E+10	1	-1E+10	1
4902624	43	C	08/24/2025	23:44	-129.102	49.179	0	325.00	0	6.4000	0	33.9580	0	26.682	0	321.985	0	-1e10	1	-1e10	1	-1E+10	1	-1e10	1	-1e10	1	-1E+10	1	-1E+10	1	-1E+10	1
4902624	43	C	08/24/2025	23:44	-129.102	49.179	0	333.30	0	6.3228	0	33.9622	0	26.695	0	330.201	0	64.7	4	21.6	4	-1E+10	1	0.0516	4	0.000279	0	-1E+10	1	-1E+10	1	-1E+10	1
4902624	43	C	08/24/2025	23:44	-129.102	49.179	0	335.00	0	6.3070	0	33.9630	0	26.698	0	331.884	0	-1e10	1	-1e10	1	-1E+10	1	-1e10	1	-1e10	1	-1E+10	1	-1E+10	1	-1E+10	1
4902624	43	C	08/24/2025	23:44	-129.102	49.179	0	342.10	0	6.2676	0	33.9659	0	26.705	0	338.912	0	63.3	4	21.0	4	-1E+10	1	0.0647	4	0.000212	0	-1E+10	1	-1E+10	1	-1E+10	1
4902624	43	C	08/24/2025	23:44	-129.102	49.179	0	344.90	0	6.2520	0	33.9670	0	26.708	0	341.684	0	-1e10	1	-1e10	1	-1E+10	1	-1e10	1	-1e10	1	-1E+10	1	-1E+10	1	-1E+10	1
4902624	43	C	08/24/2025	23:44	-129.102	49.179	0	350.90	0	6.2142	0	33.9694	0	26.715	0	347.623	0	61.6	4	20.5	4	-1E+10	1	0.0438	4	0.000222	0	-1E+10	1	-1E+10	1	-1E+10	1
4902624	43	C	08/24/2025	23:44	-129.102	49.179	0	354.90	0	6.1890	0	33.9710	0	26.720	0	351.582	0	-1e10	1	-1e10	1	-1E+10	1	-1e10	1	-1e10	1	-1E+10	1	-1E+10	1	-1E+10	1
4902624	43	C	08/24/2025	23:44	-129.102	49.179	0	359.60	0	6.1359	0	33.9738	0	26.729	0	356.234	0	59.4	4	19.7	4	-1E+10	1	0.0440	4	0.000211	0	-1E+10	1	-1E+10	1	-1E+10	1
4902624	43	C	08/24/2025	23:44	-129.102	49.179	0	364.90	0	6.0760	0	33.9770	0	26.739	0	361.480	0	-1e10	1	-1e10	1	-1E+10	1	-1e10	1	-1e10	1	-1E+10	1	-1E+10	1	-1E+10	1
4902624	43	C	08/24/2025	23:44	-129.102	49.179	0	368.50	0	6.0411	0	33.9799	0	26.746	0	365.043	0	57.2	4	18.9	4	-1E+10	1	0.0514	4	0.000222	0	-1E+10	1	-1E+10	1	-1E+10	1
4902624	43	C	08/24/2025	23:44	-129.102	49.179	0	375.00	0	5.9780	0	33.9850	0	26.758	0	371.476	0	-1e10	1	-1e10	1	-1E+10	1	-1e10	1	-1e10	1	-1E+10	1	-1E+10	1	-1E+10	1
4902624	43	C	08/24/2025	23:44	-129.102	49.179	0	377.30	0	5.9578	0	33.9862	0	26.761	0	373.752	0	55.3	4	18.3	4	-1E+10	1	0.0577	4	0.000211	0	-1E+10	1	-1E+10	1	-1E+10	1
4902624	43	C	08/24/2025	23:44	-129.102	49.179	0	385.00	0	5.8900	0	33.9900	0	26.773	0	381.373	0	-1e10	1	-1e10	1	-1E+10	1	-1e10	1	-1e10	1	-1E+10	1	-1E+10	1	-1E+10	1
4902624	43	C	08/24/2025	23:44	-129.102	49.179	0	386.10	0	5.8822	0	33.9904	0	26.774	0	382.462	0	53.8	4	17.7	4	-1E+10	1	0.0441	4	0.000223	0	-1E+10	1	-1E+10	1	-1E+10	1
4902624	43	C	08/24/2025	23:44	-129.102	49.179	0	394.90	0	5.8200	0	33.9940	0	26.784	0	391.170	0	50.7	4	16.7	4	-1E+10	1	0.0511	4	0.000234	0	-1E+10	1	-1E+10	1	-1E+10	1
4902624	43	C	08/24/2025	23:44	-129.102	49.179	0	404.10	0	5.7644	0	33.9995	0	26.796	0	400.275	0	50.6	4	16.6	4	-1E+10	1	0.0508	4	0.000221	0	-1E+10	1	-1E+10	1	-1E+10	1
4902624	43	C	08/24/2025	23:44	-129.102	49.179	0	405.00	0	5.7590	0	34.0000	0	26.797	0	401.165	0	-1e10	1	-1e10	1	-1E+10	1	-1e10	1	-1e10	1	-1E+10	1	-1E+10	1	-1E+10	1
4902624	43	C	08/24/2025	23:44	-129.102	49.179	0	413.40	0	5.7116	0	34.0033	0	26.805	0	409.477	0	48.8	4	16.0	4	-1E+10	1	0.0441	4	0.000199	0	-1E+10	1	-1E+10	1	-1E+10	1
4902624	43	C	08/24/2025	23:44	-129.102	49.179	0	415.10	0	5.7020	0	34.0040	0	26.807	0	411.160	0	-1e10	1	-1e10	1	-1E+10	1	-1e10	1	-1e10	1	-1E+10	1	-1E+10	1	-1E+10	1
4902624	43	C	08/24/2025	23:44	-129.102	49.179	0	423.00	0	5.6450	0	34.0089	0	26.818	0	418.977	0	46.5	4	15.2	4	-1E+10	1	0.0514	4	0.000204	0	-1E+10	1	-1E+10	1	-1E+10	1
4902624	43	C	08/24/2025	23:44	-129.102	49.179	0	424.80	0	5.6320	0	34.0100	0	26.820	0	420.758	0	-1e10	1	-1e10	1	-1E+10	1	-1e10	1	-1e10	1	-1E+10	1	-1E+10	1	-1E+10	1
4902624	43	C	08/24/2025	23:44	-129.102	49.179	0	433.00	0	5.5615	0	34.0182	0	26.835	0	428.871	0	44.1	4	14.4	4	-1E+10	1	0.0578	4	0.000334	0	-1E+10	1	-1E+10	1	-1E+10	1
4902624	43	C	08/24/2025	23:44	-129.102	49.179	0	434.80	0	5.5460	0	34.0200	0	26.839	0	430.652	0	-1e10	1	-1e10	1	-1E+10	1	-1e10	1	-1e10	1	-1E+10	1	-1E+10	1	-1E+10	1
4902624	43	C	08/24/2025	23:44	-129.102	49.179	0	443.30	0	5.4829	0	34.0267	0	26.852	0	439.062	0	41.8	4	13.6	4	-1E+10	1	0.0435	4	0.000197	0	-1E+10	1	-1E+10	1	-1E+10	1
4902624	43	C	08/24/2025	23:44	-129.102	49.179	0	444.90	0	5.4710	0	34.0280	0	26.854	0	440.645	0	-1e10	1	-1e10	1	-1E+10	1	-1e10	1	-1e10	1	-1E+10	1	-1E+10	1	-1E+10	1
4902624	43	C	08/24/2025	23:44	-129.102	49.179	0	454.00	0	5.4178	0	34.0352	0	26.866	0	449.648	0	40.1	4	13.1	4	-1E+10	1	0.0368	4	0.000177	0	-1E+10	1	-1E+10	1	-1E+10	1
4902624	43	C	08/24/2025	23:44	-129.102	49.179	0	455.00	0	5.4120	0	34.0360	0	26.867	0	450.637	0	-1e10	1	-1e10	1	-1E+10	1	-1e10	1	-1e10	1	-1E+10	1	-1E+10	1	-1E+10	1
4902624	43	C	08/24/2025	23:44	-129.102	49.179	0	465.10	0	5.3698	0	34.0409	0	26.876	0	460.629	0	38.4	4	12.5	4	-1E+10	1	0.0451	4	0.000220	0	-1E+10	1	-1E+10	1	-1E+10	1
4902624	43	C	08/24/2025	23:44	-129.102	49.179	0	465.30	0	5.3690	0	34.0410	0	26.877	0	460.827	0	-1e10	1	-1e10	1	-1E+10	1	-1e10	1	-1e10	1	-1E+10	1	-1E+10	1	-1E+10	1
4902624	43	C	08/24/2025	23:44	-129.102	49.179	0	475.10	0	5.3210	0	34.0480	0	26.888	0	470.522	0	-1e10	1	-1e10	1	-1E+10	1	-1e10	1	-1e10	1	-1E+10	1	-1E+10	1	-1E+10	1
4902624	43	C	08/24/2025	23:44	-129.102	49.179	0	476.80	0	5.3156	0	34.0489	0	26.889	0	472.204	0	36.8	4	12.0	4	-1E+10	1	0.0782	4	0.000187	0	-1E+10	1	-1E+10	1	-1E+10	1
4902624	43	C	08/24/2025	23:44	-129.102	49.179	0	484.90	0	5.2900	0	34.0530	0	26.896	0	480.216	0	-1e10	1	-1e10	1	-1E+10	1	-1e10	1	-1e10	1	-1E+10	1	-1E+10	1	-1E+10	1
4902624	43	C	08/24/2025	23:44	-129.102	49.179	0	485.20	0	5.2887	0	34.0532	0	26.896	0	480.513	0	35.8	4	11.7	4	-1E+10	1	0.0450	4	0.000195	0	-1E+10	1	-1E+10	1	-1E+10	1
4902624	43	C	08/24/2025	23:44	-129.102	49.179	0	492.70	0	5.2571	0	34.0591	0	26.904	0	487.932	0	34.5	4	11.2	4	-1E+10	1	0.0722	4	0.000197	0	-1E+10	1	-1E+10	1	-1E+10	1
4902624	43	C	08/24/2025	23:44	-129.102	49.179	0	495.10	0	5.2470	0	34.0610	0	26.907	0	490.306	0	-1e10	1	-1e10	1	-1E+10	1	-1e10	1	-1e10	1	-1E+10	1	-1E+10	1	-1E+10	1
4902624	43	C	08/24/2025	23:44	-129.102	49.179	0	500.90	0	5.2315	0	34.0646	0	26.912	0	496.043	0	33.7	4	10.9	4	-1E+10	1	0.0516	4	0.000187	0	-1E+10	1	-1E+10	1	-1E+10	1
4902624	43	C	08/24/2025	23:44	-129.102	49.179	0	504.80	0	5.2210	0	34.0670	0	26.915	0	499.900	0	-1e10	1	-1e10	1	-1E+10	1	-1e10	1	-1e10	1	-1E+10	1	-1E+10	1	-1E+10	1
4902624	43	C	08/24/2025	23:44	-129.102	49.179	0	509.30	0	5.2139	0	34.0683	0	26.917	0	504.351	0	33.0	4	10.7	4	-1E+10	1	0.0650	4	0.000219	0	-1E+10	1	-1E+10	1	-1E+10	1
4902624	43	C	08/24/2025	23:44	-129.102	49.179	0	515.00	0	5.2050	0	34.0700	0	26.919	0	509.989	0	-1e10	1	-1e10	1	-1E+10	1	-1e10	1	-1e10	1	-1E+10	1	-1E+10	1	-1E+10	1
4902624	43	C	08/24/2025	23:44	-129.102	49.179	0	517.80	0	5.1974	0	34.0714	0	26.921	0	512.758	0	32.1	4	10.4	4	-1E+10	1	0.0511	4	0.000175	0	-1E+10	1	-1E+10	1	-1E+10	1
4902624	43	C	08/24/2025	23:44	-129.102	49.179	0	525.00	0	5.1780	0	34.0750	0	26.926	0	519.879	0	-1e10	1	-1e10	1	-1E+10	1	-1e10	1	-1e10	1	-1E+10	1	-1E+10	1	-1E+10	1
4902624	43	C	08/24/2025	23:44	-129.102	49.179	0	526.40	0	5.1737	0	34.0758	0	26.928	0	521.263	0	31.1	4	10.1	4	-1E+10	1	0.0516	4	0.000198	0	-1E+10	1	-1E+10	1	-1E+10	1
4902624	43	C	08/24/2025	23:44	-129.102	49.179	0	535.00	0	5.1470	0	34.0810	0	26.935	0	529.768	0	-1e10	1	-1e10	1	-1E+10	1	-1e10	1	-1e10	1	-1E+10	1	-1E+10	1	-1E+10	1
4902624	43	C	08/24/2025	23:44	-129.102	49.179	0	535.10	0	5.1466	0	34.0811	0	26.935	0	529.867	0	29.9	4	9.7	4	-1E+10	1	0.0649	4	0.000209	0	-1E+10	1	-1E+10	1	-1E+10	1
4902624	43	C	08/24/2025	23:44	-129.102	49.179	0	543.80	0	5.1141	0	34.0863	0	26.943	0	538.471	0	28.9	4	9.4	4	-1E+10	1	0.0443	4	0.000198	0	-1E+10	1	-1E+10	1	-1E+10	1
4902624	43	C	08/24/2025	23:44	-129.102	49.179	0	544.90	0	5.1100	0	34.0870	0	26.944	0	539.559	0	-1e10	1	-1e10	1	-1E+10	1	-1e10	1	-1e10	1	-1E+10	1	-1E+10	1	-1E+10	1
4902624	43	C	08/24/2025	23:44	-129.102	49.179	0	552.60	0	5.0804	0	34.0917	0	26.951	0	547.173	0	28.0	4	9.1	4	-1E+10	1	0.0584	4	0.000210	0	-1E+10	1	-1E+10	1	-1E+10	1
4902624	43	C	08/24/2025	23:44	-129.102	49.179	0	554.80	0	5.0720	0	34.0930	0	26.953	0	549.349	0	-1e10	1	-1e10	1	-1E+10	1	-1e10	1	-1e10	1	-1E+10	1	-1E+10	1	-1E+10	1
4902624	43	C	08/24/2025	23:44	-129.102	49.179	0	561.30	0	5.0542	0	34.0962	0	26.958	0	555.776	0	26.9	4	8.7	4	-1E+10	1	0.0587	4	0.000221	0	-1E+10	1	-1E+10	1	-1E+10	1
4902624	43	C	08/24/2025	23:44	-129.102	49.179	0	565.00	0	5.0440	0	34.0980	0	26.960	0	559.435	0	-1e10	1	-1e10	1	-1E+10	1	-1e10	1	-1e10	1	-1E+10	1	-1E+10	1	-1E+10	1
4902624	43	C	08/24/2025	23:44	-129.102	49.179	0	569.80	0	5.0236	0	34.1023	0	26.966	0	564.181	0	25.6	4	8.3	4	-1E+10	1	0.0652	4	0.000221	0	-1E+10	1	-1E+10	1	-1E+10	1
4902624	43	C	08/24/2025	23:44	-129.102	49.179	0	575.10	0	5.0010	0	34.1070	0	26.973	0	569.421	0	-1e10	1	-1e10	1	-1E+10	1	-1e10	1	-1e10	1	-1E+10	1	-1E+10	1	-1E+10	1
4902624	43	C	08/24/2025	23:44	-129.102	49.179	0	578.10	0	4.9881	0	34.1088	0	26.975	0	572.388	0	24.6	4	7.9	4	-1E+10	1	0.0516	4	0.000220	0	-1E+10	1	-1E+10	1	-1E+10	1
4902624	43	C	08/24/2025	23:44	-129.102	49.179	0	584.90	0	4.9590	0	34.1130	0	26.982	0	579.111	0	-1e10	1	-1e10	1	-1E+10	1	-1e10	1	-1e10	1	-1E+10	1	-1E+10	1	-1E+10	1
4902624	43	C	08/24/2025	23:44	-129.102	49.179	0	586.50	0	4.9500	0	34.1144	0	26.984	0	580.693	0	23.4	4	7.6	4	-1E+10	1	0.0657	4	0.000197	0	-1E+10	1	-1E+10	1	-1E+10	1
4902624	43	C	08/24/2025	23:44	-129.102	49.179	0	594.80	0	4.9036	0	34.1219	0	26.996	0	588.899	0	22.1	4	7.1	4	-1E+10	1	0.0654	4	0.000209	0	-1E+10	1	-1E+10	1	-1E+10	1
4902624	43	C	08/24/2025	23:44	-129.102	49.179	0	594.90	0	4.9030	0	34.1220	0	26.996	0	588.998	0	-1e10	1	-1e10	1	-1E+10	1	-1e10	1	-1e10	1	-1E+10	1	-1E+10	1	-1E+10	1
4902624	43	C	08/24/2025	23:44	-129.102	49.179	0	603.20	0	4.8615	0	34.1286	0	27.006	0	597.204	0	21.1	4	6.8	4	-1E+10	1	0.0584	4	0.000232	0	-1E+10	1	-1E+10	1	-1E+10	1
4902624	43	C	08/24/2025	23:44	-129.102	49.179	0	604.90	0	4.8530	0	34.1300	0	27.008	0	598.884	0	-1e10	1	-1e10	1	-1E+10	1	-1e10	1	-1e10	1	-1E+10	1	-1E+10	1	-1E+10	1
4902624	43	C	08/24/2025	23:44	-129.102	49.179	0	611.80	0	4.8264	0	34.1348	0	27.015	0	605.706	0	20.3	4	6.5	4	-1E+10	1	0.0584	4	0.000243	0	-1E+10	1	-1E+10	1	-1E+10	1
4902624	43	C	08/24/2025	23:44	-129.102	49.179	0	615.00	0	4.8140	0	34.1370	0	27.018	0	608.869	0	-1e10	1	-1e10	1	-1E+10	1	-1e10	1	-1e10	1	-1E+10	1	-1E+10	1	-1E+10	1
4902624	43	C	08/24/2025	23:44	-129.102	49.179	0	620.70	0	4.7965	0	34.1404	0	27.022	0	614.504	0	19.4	4	6.2	4	-1E+10	1	0.0584	4	0.000232	0	-1E+10	1	-1E+10	1	-1E+10	1
4902624	43	C	08/24/2025	23:44	-129.102	49.179	0	625.10	0	4.7830	0	34.1430	0	27.026	0	618.853	0	-1e10	1	-1e10	1	-1E+10	1	-1e10	1	-1e10	1	-1E+10	1	-1E+10	1	-1E+10	1
4902624	43	C	08/24/2025	23:44	-129.102	49.179	0	630.00	0	4.7637	0	34.1460	0	27.031	0	623.697	0	18.6	4	6.0	4	-1E+10	1	0.0581	4	0.000233	0	-1E+10	1	-1E+10	1	-1E+10	1
4902624	43	C	08/24/2025	23:44	-129.102	49.179	0	635.00	0	4.7440	0	34.1490	0	27.035	0	628.640	0	-1e10	1	-1e10	1	-1E+10	1	-1e10	1	-1e10	1	-1E+10	1	-1E+10	1	-1E+10	1
4902624	43	C	08/24/2025	23:44	-129.102	49.179	0	639.80	0	4.7202	0	34.1533	0	27.041	0	633.384	0	17.5	4	5.6	4	-1E+10	1	0.0508	4	0.000252	0	-1E+10	1	-1E+10	1	-1E+10	1
4902624	43	C	08/24/2025	23:44	-129.102	49.179	0	645.10	0	4.6940	0	34.1580	0	27.048	0	638.623	0	-1e10	1	-1e10	1	-1E+10	1	-1e10	1	-1e10	1	-1E+10	1	-1E+10	1	-1E+10	1
4902624	43	C	08/24/2025	23:44	-129.102	49.179	0	650.00	0	4.6790	0	34.1620	0	27.053	0	643.466	0	16.5	4	5.3	4	-1E+10	1	0.0444	4	0.000185	0	-1E+10	1	-1E+10	1	-1E+10	1
4902624	43	C	08/24/2025	23:44	-129.102	49.179	0	654.90	0	4.6640	0	34.1660	0	27.058	0	648.309	0	-1e10	1	-1e10	1	-1E+10	1	-1e10	1	-1e10	1	-1E+10	1	-1E+10	1	-1E+10	1
4902624	43	C	08/24/2025	23:44	-129.102	49.179	0	660.70	0	4.6489	0	34.1706	0	27.063	0	654.042	0	15.6	4	5.0	4	-1E+10	1	0.0581	4	0.000199	0	-1E+10	1	-1E+10	1	-1E+10	1
4902624	43	C	08/24/2025	23:44	-129.102	49.179	0	664.90	0	4.6380	0	34.1740	0	27.067	0	658.193	0	-1e10	1	-1e10	1	-1E+10	1	-1e10	1	-1e10	1	-1E+10	1	-1E+10	1	-1E+10	1
4902624	43	C	08/24/2025	23:44	-129.102	49.179	0	671.70	0	4.6142	0	34.1773	0	27.072	0	664.913	0	15.1	4	4.8	4	-1E+10	1	0.0517	4	0.000254	0	-1E+10	1	-1E+10	1	-1E+10	1
4902624	43	C	08/24/2025	23:44	-129.102	49.179	0	675.20	0	4.6020	0	34.1790	0	27.075	0	668.373	0	-1e10	1	-1e10	1	-1E+10	1	-1e10	1	-1e10	1	-1E+10	1	-1E+10	1	-1E+10	1
4902624	43	C	08/24/2025	23:44	-129.102	49.179	0	683.00	0	4.5819	0	34.1829	0	27.080	0	676.081	0	14.4	4	4.6	4	-1E+10	1	0.0654	4	0.000231	0	-1E+10	1	-1E+10	1	-1E+10	1
4902624	43	C	08/24/2025	23:44	-129.102	49.179	0	685.30	0	4.5760	0	34.1840	0	27.082	0	678.354	0	-1e10	1	-1e10	1	-1E+10	1	-1e10	1	-1e10	1	-1E+10	1	-1E+10	1	-1E+10	1
4902624	43	C	08/24/2025	23:44	-129.102	49.179	0	694.80	0	4.5285	0	34.1927	0	27.094	0	687.742	0	13.5	4	4.3	4	-1E+10	1	0.0584	4	0.000221	0	-1E+10	1	-1E+10	1	-1E+10	1
4902624	43	C	08/24/2025	23:44	-129.102	49.179	0	695.10	0	4.5270	0	34.1930	0	27.094	0	688.038	0	-1e10	1	-1e10	1	-1E+10	1	-1e10	1	-1e10	1	-1E+10	1	-1E+10	1	-1E+10	1
4902624	43	C	08/24/2025	23:44	-129.102	49.179	0	703.20	0	4.5047	0	34.1971	0	27.100	0	696.043	0	13.1	4	4.2	4	-1E+10	1	0.0578	4	0.000252	0	-1E+10	1	-1E+10	1	-1E+10	1
4902624	43	C	08/24/2025	23:44	-129.102	49.179	0	704.90	0	4.5000	0	34.1980	0	27.101	0	697.723	0	-1e10	1	-1e10	1	-1E+10	1	-1e10	1	-1e10	1	-1E+10	1	-1E+10	1	-1E+10	1
4902624	43	C	08/24/2025	23:44	-129.102	49.179	0	710.80	0	4.4774	0	34.2026	0	27.107	0	703.552	0	12.6	4	4.0	4	-1E+10	1	0.0441	4	0.000207	0	-1E+10	1	-1E+10	1	-1E+10	1
4902624	43	C	08/24/2025	23:44	-129.102	49.179	0	715.10	0	4.4610	0	34.2060	0	27.112	0	707.801	0	-1e10	1	-1e10	1	-1E+10	1	-1e10	1	-1e10	1	-1E+10	1	-1E+10	1	-1E+10	1
4902624	43	C	08/24/2025	23:44	-129.102	49.179	0	718.80	0	4.4490	0	34.2097	0	27.116	0	711.457	0	12.1	4	3.9	4	-1E+10	1	0.0511	4	0.000197	0	-1E+10	1	-1E+10	1	-1E+10	1
4902624	43	C	08/24/2025	23:44	-129.102	49.179	0	725.00	0	4.4290	0	34.2160	0	27.123	0	717.583	0	-1e10	1	-1e10	1	-1E+10	1	-1e10	1	-1e10	1	-1E+10	1	-1E+10	1	-1E+10	1
4902624	43	C	08/24/2025	23:44	-129.102	49.179	0	727.10	0	4.4245	0	34.2179	0	27.125	0	719.658	0	11.4	4	3.6	4	-1E+10	1	0.0521	4	0.000218	0	-1E+10	1	-1E+10	1	-1E+10	1
4902624	43	C	08/24/2025	23:44	-129.102	49.179	0	735.20	0	4.4070	0	34.2250	0	27.133	0	727.661	0	-1e10	1	-1e10	1	-1E+10	1	-1e10	1	-1e10	1	-1E+10	1	-1E+10	1	-1E+10	1
4902624	43	C	08/24/2025	23:44	-129.102	49.179	0	735.60	0	4.4060	0	34.2253	0	27.133	0	728.056	0	10.8	4	3.5	4	-1E+10	1	0.0723	4	0.000195	0	-1E+10	1	-1E+10	1	-1E+10	1
4902624	43	C	08/24/2025	23:44	-129.102	49.179	0	744.20	0	4.3840	0	34.2323	0	27.141	0	736.553	0	10.5	4	3.3	4	-1E+10	1	0.0581	4	0.000217	0	-1E+10	1	-1E+10	1	-1E+10	1
4902624	43	C	08/24/2025	23:44	-129.102	49.179	0	745.00	0	4.3820	0	34.2330	0	27.142	0	737.343	0	-1e10	1	-1e10	1	-1E+10	1	-1e10	1	-1e10	1	-1E+10	1	-1E+10	1	-1E+10	1
4902624	43	C	08/24/2025	23:44	-129.102	49.179	0	752.80	0	4.3536	0	34.2369	0	27.148	0	745.049	0	10.2	4	3.3	4	-1E+10	1	0.0514	4	0.000183	0	-1E+10	1	-1E+10	1	-1E+10	1
4902624	43	C	08/24/2025	23:44	-129.102	49.179	0	754.90	0	4.3460	0	34.2380	0	27.150	0	747.124	0	-1e10	1	-1e10	1	-1E+10	1	-1e10	1	-1e10	1	-1E+10	1	-1E+10	1	-1E+10	1
4902624	43	C	08/24/2025	23:44	-129.102	49.179	0	761.40	0	4.3254	0	34.2425	0	27.156	0	753.545	0	9.9	4	3.1	4	-1E+10	1	0.0581	4	0.000186	0	-1E+10	1	-1E+10	1	-1E+10	1
4902624	43	C	08/24/2025	23:44	-129.102	49.179	0	765.00	0	4.3140	0	34.2450	0	27.159	0	757.102	0	-1e10	1	-1e10	1	-1E+10	1	-1e10	1	-1e10	1	-1E+10	1	-1E+10	1	-1E+10	1
4902624	43	C	08/24/2025	23:44	-129.102	49.179	0	770.20	0	4.2960	0	34.2496	0	27.165	0	762.238	0	9.6	4	3.0	4	-1E+10	1	0.0511	4	0.000274	0	-1E+10	1	-1E+10	1	-1E+10	1
4902624	43	C	08/24/2025	23:44	-129.102	49.179	0	775.10	0	4.2790	0	34.2540	0	27.170	0	767.079	0	-1e10	1	-1e10	1	-1E+10	1	-1e10	1	-1e10	1	-1E+10	1	-1E+10	1	-1E+10	1
4902624	43	C	08/24/2025	23:44	-129.102	49.179	0	778.90	0	4.2739	0	34.2556	0	27.172	0	770.832	0	9.3	4	3.0	4	-1E+10	1	0.0511	4	0.000205	0	-1E+10	1	-1E+10	1	-1E+10	1
4902624	43	C	08/24/2025	23:44	-129.102	49.179	0	784.80	0	4.2660	0	34.2580	0	27.174	0	776.660	0	-1e10	1	-1e10	1	-1E+10	1	-1e10	1	-1e10	1	-1E+10	1	-1E+10	1	-1E+10	1
4902624	43	C	08/24/2025	23:44	-129.102	49.179	0	787.60	0	4.2624	0	34.2588	0	27.176	0	779.426	0	9.2	4	2.9	4	-1E+10	1	0.0513	4	0.000183	0	-1E+10	1	-1E+10	1	-1E+10	1
4902624	43	C	08/24/2025	23:44	-129.102	49.179	0	794.90	0	4.2530	0	34.2610	0	27.178	0	786.637	0	-1e10	1	-1e10	1	-1E+10	1	-1e10	1	-1e10	1	-1E+10	1	-1E+10	1	-1E+10	1
4902624	43	C	08/24/2025	23:44	-129.102	49.179	0	796.40	0	4.2468	0	34.2623	0	27.180	0	788.118	0	8.9	4	2.8	4	-1E+10	1	0.0582	4	0.000194	0	-1E+10	1	-1E+10	1	-1E+10	1
4902624	43	C	08/24/2025	23:44	-129.102	49.179	0	805.00	0	4.2110	0	34.2700	0	27.190	0	796.612	0	-1e10	1	-1e10	1	-1E+10	1	-1e10	1	-1e10	1	-1E+10	1	-1E+10	1	-1E+10	1
4902624	43	C	08/24/2025	23:44	-129.102	49.179	0	805.30	0	4.2097	0	34.2703	0	27.190	0	796.909	0	8.5	4	2.7	4	-1E+10	1	0.0511	4	0.000183	0	-1E+10	1	-1E+10	1	-1E+10	1
4902624	43	C	08/24/2025	23:44	-129.102	49.179	0	814.40	0	4.1715	0	34.2803	0	27.202	0	805.896	0	8.4	4	2.7	4	-1E+10	1	0.0514	4	0.000194	0	-1E+10	1	-1E+10	1	-1E+10	1
4902624	43	C	08/24/2025	23:44	-129.102	49.179	0	815.00	0	4.1690	0	34.2810	0	27.203	0	806.489	0	-1e10	1	-1e10	1	-1E+10	1	-1e10	1	-1e10	1	-1E+10	1	-1E+10	1	-1E+10	1
4902624	43	C	08/24/2025	23:44	-129.102	49.179	0	823.60	0	4.1561	0	34.2870	0	27.209	0	814.982	0	8.2	4	2.6	4	-1E+10	1	0.0581	4	0.000193	0	-1E+10	1	-1E+10	1	-1E+10	1
4902624	43	C	08/24/2025	23:44	-129.102	49.179	0	825.00	0	4.1540	0	34.2880	0	27.210	0	816.365	0	-1e10	1	-1e10	1	-1E+10	1	-1e10	1	-1e10	1	-1E+10	1	-1E+10	1	-1E+10	1
4902624	43	C	08/24/2025	23:44	-129.102	49.179	0	832.80	0	4.1439	0	34.2911	0	27.214	0	824.068	0	8.2	4	2.6	4	-1E+10	1	0.0520	4	0.000172	0	-1E+10	1	-1E+10	1	-1E+10	1
4902624	43	C	08/24/2025	23:44	-129.102	49.179	0	835.00	0	4.1410	0	34.2920	0	27.215	0	826.240	0	-1e10	1	-1e10	1	-1E+10	1	-1e10	1	-1e10	1	-1E+10	1	-1E+10	1	-1E+10	1
4902624	43	C	08/24/2025	23:44	-129.102	49.179	0	842.30	0	4.1154	0	34.2949	0	27.220	0	833.449	0	8.1	4	2.6	4	-1E+10	1	0.0724	4	0.000193	0	-1E+10	1	-1E+10	1	-1E+10	1
4902624	43	C	08/24/2025	23:44	-129.102	49.179	0	845.00	0	4.1060	0	34.2960	0	27.222	0	836.115	0	-1e10	1	-1e10	1	-1E+10	1	-1e10	1	-1e10	1	-1E+10	1	-1E+10	1	-1E+10	1
4902624	43	C	08/24/2025	23:44	-129.102	49.179	0	852.00	0	4.0890	0	34.2988	0	27.226	0	843.028	0	8.1	4	2.6	4	-1E+10	1	0.0584	4	0.000182	0	-1E+10	1	-1E+10	1	-1E+10	1
4902624	43	C	08/24/2025	23:44	-129.102	49.179	0	854.90	0	4.0820	0	34.3000	0	27.228	0	845.891	0	-1e10	1	-1e10	1	-1E+10	1	-1e10	1	-1e10	1	-1E+10	1	-1E+10	1	-1E+10	1
4902624	43	C	08/24/2025	23:44	-129.102	49.179	0	861.80	0	4.0636	0	34.3021	0	27.231	0	852.705	0	8.1	4	2.6	4	-1E+10	1	0.0587	4	0.000183	0	-1E+10	1	-1E+10	1	-1E+10	1
4902624	43	C	08/24/2025	23:44	-129.102	49.179	0	865.00	0	4.0550	0	34.3030	0	27.233	0	855.864	0	-1e10	1	-1e10	1	-1E+10	1	-1e10	1	-1e10	1	-1E+10	1	-1E+10	1	-1E+10	1
4902624	43	C	08/24/2025	23:44	-129.102	49.179	0	872.00	0	4.0310	0	34.3071	0	27.239	0	862.776	0	7.9	4	2.5	4	-1E+10	1	0.0648	4	0.000205	0	-1E+10	1	-1E+10	1	-1E+10	1
4902624	43	C	08/24/2025	23:44	-129.102	49.179	0	875.20	0	4.0200	0	34.3090	0	27.241	0	865.935	0	-1e10	1	-1e10	1	-1E+10	1	-1e10	1	-1e10	1	-1E+10	1	-1E+10	1	-1E+10	1
4902624	43	C	08/24/2025	23:44	-129.102	49.179	0	882.30	0	4.0037	0	34.3133	0	27.246	0	872.945	0	7.8	4	2.5	4	-1E+10	1	0.0441	4	0.000192	0	-1E+10	1	-1E+10	1	-1E+10	1
4902624	43	C	08/24/2025	23:44	-129.102	49.179	0	885.20	0	3.9970	0	34.3150	0	27.248	0	875.809	0	-1e10	1	-1e10	1	-1E+10	1	-1e10	1	-1e10	1	-1E+10	1	-1E+10	1	-1E+10	1
4902624	43	C	08/24/2025	23:44	-129.102	49.179	0	892.70	0	3.9738	0	34.3195	0	27.254	0	883.213	0	7.8	4	2.5	4	-1E+10	1	0.0511	4	0.000159	0	-1E+10	1	-1E+10	1	-1E+10	1
4902624	43	C	08/24/2025	23:44	-129.102	49.179	0	895.20	0	3.9660	0	34.3210	0	27.256	0	885.681	0	-1e10	1	-1e10	1	-1E+10	1	-1e10	1	-1e10	1	-1E+10	1	-1E+10	1	-1E+10	1
4902624	43	C	08/24/2025	23:44	-129.102	49.179	0	903.40	0	3.9457	0	34.3251	0	27.262	0	893.777	0	7.7	4	2.4	4	-1E+10	1	0.0516	4	0.000170	0	-1E+10	1	-1E+10	1	-1E+10	1
4902624	43	C	08/24/2025	23:44	-129.102	49.179	0	905.30	0	3.9410	0	34.3260	0	27.263	0	895.652	0	-1e10	1	-1e10	1	-1E+10	1	-1e10	1	-1e10	1	-1E+10	1	-1E+10	1	-1E+10	1
4902624	43	C	08/24/2025	23:44	-129.102	49.179	0	914.20	0	3.9219	0	34.3324	0	27.270	0	904.438	0	7.6	4	2.4	4	-1E+10	1	0.0654	4	0.000170	0	-1E+10	1	-1E+10	1	-1E+10	1
4902624	43	C	08/24/2025	23:44	-129.102	49.179	0	915.10	0	3.9200	0	34.3330	0	27.271	0	905.327	0	-1e10	1	-1e10	1	-1E+10	1	-1e10	1	-1e10	1	-1E+10	1	-1E+10	1	-1E+10	1
4902624	43	C	08/24/2025	23:44	-129.102	49.179	0	925.10	0	3.8920	0	34.3390	0	27.278	0	915.198	0	-1e10	1	-1e10	1	-1E+10	1	-1e10	1	-1e10	1	-1E+10	1	-1E+10	1	-1E+10	1
4902624	43	C	08/24/2025	23:44	-129.102	49.179	0	925.30	0	3.8914	0	34.3391	0	27.279	0	915.396	0	7.5	4	2.4	4	-1E+10	1	0.0584	4	0.000182	0	-1E+10	1	-1E+10	1	-1E+10	1
4902624	43	C	08/24/2025	23:44	-129.102	49.179	0	935.10	0	3.8620	0	34.3450	0	27.286	0	925.069	0	-1e10	1	-1e10	1	-1E+10	1	-1e10	1	-1e10	1	-1E+10	1	-1E+10	1	-1E+10	1
4902624	43	C	08/24/2025	23:44	-129.102	49.179	0	936.50	0	3.8586	0	34.3456	0	27.287	0	926.451	0	7.7	4	2.4	4	-1E+10	1	0.0587	4	0.000192	0	-1E+10	1	-1E+10	1	-1E+10	1
4902624	43	C	08/24/2025	23:44	-129.102	49.179	0	945.10	0	3.8380	0	34.3490	0	27.292	0	934.939	0	-1e10	1	-1e10	1	-1E+10	1	-1e10	1	-1e10	1	-1E+10	1	-1E+10	1	-1E+10	1
4902624	43	C	08/24/2025	23:44	-129.102	49.179	0	948.10	0	3.8317	0	34.3499	0	27.293	0	937.900	0	7.7	4	2.4	4	-1E+10	1	0.0651	4	0.000170	0	-1E+10	1	-1E+10	1	-1E+10	1
4902624	43	C	08/24/2025	23:44	-129.102	49.179	0	955.10	0	3.8170	0	34.3520	0	27.297	0	944.809	0	-1e10	1	-1e10	1	-1E+10	1	-1e10	1	-1e10	1	-1E+10	1	-1E+10	1	-1E+10	1
4902624	43	C	08/24/2025	23:44	-129.102	49.179	0	959.60	0	3.8091	0	34.3533	0	27.298	0	949.251	0	7.7	4	2.4	4	-1E+10	1	0.0517	4	0.000190	0	-1E+10	1	-1E+10	1	-1E+10	1
4902624	43	C	08/24/2025	23:44	-129.102	49.179	0	965.30	0	3.7990	0	34.3550	0	27.301	0	954.876	0	-1e10	1	-1e10	1	-1E+10	1	-1e10	1	-1e10	1	-1E+10	1	-1E+10	1	-1E+10	1
4902624	43	C	08/24/2025	23:44	-129.102	49.179	0	971.30	0	3.7848	0	34.3575	0	27.304	0	960.798	0	7.9	4	2.5	4	-1E+10	1	0.0654	4	0.000146	0	-1E+10	1	-1E+10	1	-1E+10	1
4902624	43	C	08/24/2025	23:44	-129.102	49.179	0	975.00	0	3.7760	0	34.3590	0	27.306	0	964.449	0	-1e10	1	-1e10	1	-1E+10	1	-1e10	1	-1e10	1	-1E+10	1	-1E+10	1	-1E+10	1
4902624	43	C	08/24/2025	23:44	-129.102	49.179	0	983.20	0	3.7289	0	34.3590	0	27.311	0	972.541	0	8.3	4	2.6	4	-1E+10	1	0.0580	4	0.000167	0	-1E+10	1	-1E+10	1	-1E+10	1
4902624	43	C	08/24/2025	23:44	-129.102	49.179	0	985.10	0	3.7180	0	34.3590	0	27.312	0	974.416	0	-1e10	1	-1e10	1	-1E+10	1	-1e10	1	-1e10	1	-1E+10	1	-1E+10	1	-1E+10	1
4902624	43	C	08/24/2025	23:44	-129.102	49.179	0	992.00	0	3.6401	0	34.3549	0	27.317	0	981.225	0	8.9	4	2.8	4	-1E+10	1	0.0514	4	0.000146	0	-1E+10	1	-1E+10	1	-1E+10	1
4902624	43	C	08/24/2025	23:44	-129.102	49.179	0	995.20	0	3.6040	0	34.3530	0	27.319	0	984.383	0	-1e10	1	-1e10	1	-1E+10	1	-1e10	1	-1e10	1	-1E+10	1	-1E+10	1	-1E+10	1
4902624	43	C	08/24/2025	23:44	-129.102	49.179	0	1006.60	0	3.5362	0	34.3542	0	27.326	0	995.632	0	9.6	4	3.0	4	-1E+10	1	0.0656	4	0.000167	0	-1E+10	1	-1E+10	1	-1E+10	1
4902624	43	C	08/24/2025	23:44	-129.102	49.179	0	1024.20	0	3.4316	0	34.3560	0	27.338	0	1012.998	0	9.2	4	2.9	4	-1E+10	1	0.0582	4	0.000110	0	-1E+10	1	-1E+10	1	-1E+10	1
4902624	43	C	08/24/2025	23:44	-129.102	49.179	0	1024.30	0	3.4310	0	34.3560	0	27.338	0	1013.097	0	-1e10	1	-1e10	1	-1E+10	1	-1e10	1	-1e10	1	-1E+10	1	-1E+10	1	-1E+10	1
4902624	43	C	08/24/2025	23:44	-129.102	49.179	0	1042.90	0	3.3796	0	34.3629	0	27.348	0	1031.447	0	9.5	4	3.0	4	-1E+10	1	0.0512	4	0.000122	0	-1E+10	1	-1E+10	1	-1E+10	1
4902624	43	C	08/24/2025	23:44	-129.102	49.179	0	1062.80	0	3.3246	0	34.3703	0	27.359	0	1051.079	0	12.5	4	3.9	4	-1E+10	1	0.0583	4	0.000190	0	-1E+10	1	-1E+10	1	-1E+10	1
4902624	43	C	08/24/2025	23:44	-129.102	49.179	0	1075.30	0	3.2900	0	34.3750	0	27.366	0	1063.410	0	-1e10	1	-1e10	1	-1E+10	1	-1e10	1	-1e10	1	-1E+10	1	-1E+10	1	-1E+10	1
4902624	43	C	08/24/2025	23:44	-129.102	49.179	0	1083.60	0	3.2657	0	34.3783	0	27.371	0	1071.597	0	50.6	4	15.7	4	-1E+10	1	0.0514	4	0.000132	0	-1E+10	1	-1E+10	1	-1E+10	1
4902624	43	C	08/24/2025	23:44	-129.102	49.179	0	1105.30	0	3.2022	0	34.3870	0	27.384	0	1093.000	0	52.0	4	16.1	4	-1E+10	1	0.0654	4	0.000109	0	-1E+10	1	-1E+10	1	-1E+10	1
4902624	43	C	08/24/2025	23:44	-129.102	49.179	0	1125.20	0	3.1440	0	34.3950	0	27.396	0	1112.625	0	-1e10	1	-1e10	1	-1E+10	1	-1e10	1	-1e10	1	-1E+10	1	-1E+10	1	-1E+10	1
4902624	43	C	08/24/2025	23:44	-129.102	49.179	0	1127.00	0	3.1401	0	34.3955	0	27.397	0	1114.401	0	45.3	4	14.0	4	-1E+10	1	0.0514	4	0.000154	0	-1E+10	1	-1E+10	1	-1E+10	1
4902624	43	C	08/24/2025	23:44	-129.102	49.179	0	1149.20	0	3.0915	0	34.4017	0	27.407	0	1136.292	0	48.7	4	15.1	4	-1E+10	1	0.0654	4	0.000119	0	-1E+10	1	-1E+10	1	-1E+10	1
4902624	43	C	08/24/2025	23:44	-129.102	49.179	0	1171.10	0	3.0435	0	34.4079	0	27.416	0	1157.886	0	49.4	4	15.3	4	-1E+10	1	0.0512	4	0.000119	0	-1E+10	1	-1E+10	1	-1E+10	1
4902624	43	C	08/24/2025	23:44	-129.102	49.179	0	1175.00	0	3.0350	0	34.4090	0	27.418	0	1161.731	0	-1e10	1	-1e10	1	-1E+10	1	-1e10	1	-1e10	1	-1E+10	1	-1E+10	1	-1E+10	1
4902624	43	C	08/24/2025	23:44	-129.102	49.179	0	1193.70	0	3.0065	0	34.4138	0	27.424	0	1180.168	0	48.4	4	14.9	4	-1E+10	1	0.0656	4	0.000130	0	-1E+10	1	-1E+10	1	-1E+10	1
4902624	43	C	08/24/2025	23:44	-129.102	49.179	0	1216.90	0	2.9711	0	34.4198	0	27.432	0	1203.038	0	49.8	4	15.4	4	-1E+10	1	0.0582	4	0.000118	0	-1E+10	1	-1E+10	1	-1E+10	1
4902624	43	C	08/24/2025	23:44	-129.102	49.179	0	1225.50	0	2.9580	0	34.4220	0	27.435	0	1211.516	0	-1e10	1	-1e10	1	-1E+10	1	-1e10	1	-1e10	1	-1E+10	1	-1E+10	1	-1E+10	1
4902624	43	C	08/24/2025	23:44	-129.102	49.179	0	1238.40	0	2.9349	0	34.4254	0	27.440	0	1224.231	0	51.6	4	15.9	4	-1E+10	1	0.0511	4	0.000107	0	-1E+10	1	-1E+10	1	-1E+10	1
4902624	43	C	08/24/2025	23:44	-129.102	49.179	0	1254.60	0	2.9060	0	34.4297	0	27.446	0	1240.198	0	48.3	4	14.9	4	-1E+10	1	0.0514	4	0.000118	0	-1E+10	1	-1E+10	1	-1E+10	1
4902624	43	C	08/24/2025	23:44	-129.102	49.179	0	1271.70	0	2.8754	0	34.4342	0	27.453	0	1257.051	0	55.0	4	16.9	4	-1E+10	1	0.0654	4	0.000107	0	-1E+10	1	-1E+10	1	-1E+10	1
4902624	43	C	08/24/2025	23:44	-129.102	49.179	0	1274.70	0	2.8700	0	34.4350	0	27.454	0	1260.007	0	-1e10	1	-1e10	1	-1E+10	1	-1e10	1	-1e10	1	-1E+10	1	-1E+10	1	-1E+10	1
4902624	43	C	08/24/2025	23:44	-129.102	49.179	0	1289.40	0	2.8495	0	34.4379	0	27.458	0	1274.493	0	60.6	4	18.7	4	-1E+10	1	0.0512	4	0.000140	0	-1E+10	1	-1E+10	1	-1E+10	1
4902624	43	C	08/24/2025	23:44	-129.102	49.179	0	1307.90	0	2.8236	0	34.4416	0	27.463	0	1292.723	0	60.4	4	18.6	4	-1E+10	1	0.0583	4	0.000105	0	-1E+10	1	-1E+10	1	-1E+10	1
4902624	43	C	08/24/2025	23:44	-129.102	49.179	0	1324.80	0	2.8000	0	34.4450	0	27.468	0	1309.374	0	-1e10	1	-1e10	1	-1E+10	1	-1e10	1	-1e10	1	-1E+10	1	-1E+10	1	-1E+10	1
4902624	43	C	08/24/2025	23:44	-129.102	49.179	0	1327.30	0	2.7950	0	34.4458	0	27.469	0	1311.837	0	57.7	4	17.7	4	-1E+10	1	0.0510	4	0.000105	0	-1E+10	1	-1E+10	1	-1E+10	1
4902624	43	C	08/24/2025	23:44	-129.102	49.179	0	1347.10	0	2.7556	0	34.4526	0	27.478	0	1331.344	0	56.2	4	17.2	4	-1E+10	1	0.0438	4	0.000105	0	-1E+10	1	-1E+10	1	-1E+10	1
4902624	43	C	08/24/2025	23:44	-129.102	49.179	0	1367.50	0	2.7149	0	34.4595	0	27.487	0	1351.440	0	55.7	4	17.1	4	-1E+10	1	0.0441	4	0.000116	0	-1E+10	1	-1E+10	1	-1E+10	1
4902624	43	C	08/24/2025	23:44	-129.102	49.179	0	1375.00	0	2.7000	0	34.4620	0	27.491	0	1358.828	0	-1e10	1	-1e10	1	-1E+10	1	-1e10	1	-1e10	1	-1E+10	1	-1E+10	1	-1E+10	1
4902624	43	C	08/24/2025	23:44	-129.102	49.179	0	1388.50	0	2.6788	0	34.4672	0	27.497	0	1372.125	0	53.6	4	16.4	4	-1E+10	1	0.0585	4	0.000116	0	-1E+10	1	-1E+10	1	-1E+10	1
4902624	43	C	08/24/2025	23:44	-129.102	49.179	0	1410.60	0	2.6440	0	34.4756	0	27.507	0	1393.891	0	52.7	4	16.1	4	-1E+10	1	0.0655	4	0.000127	0	-1E+10	1	-1E+10	1	-1E+10	1
4902624	43	C	08/24/2025	23:44	-129.102	49.179	0	1424.60	0	2.6220	0	34.4810	0	27.513	0	1407.679	0	-1e10	1	-1e10	1	-1E+10	1	-1e10	1	-1e10	1	-1E+10	1	-1E+10	1	-1E+10	1
4902624	43	C	08/24/2025	23:44	-129.102	49.179	0	1433.20	0	2.6043	0	34.4837	0	27.517	0	1416.148	0	52.4	4	16.0	4	-1E+10	1	0.0583	4	0.000127	0	-1E+10	1	-1E+10	1	-1E+10	1
4902624	43	C	08/24/2025	23:44	-129.102	49.179	0	1455.60	0	2.5581	0	34.4907	0	27.526	0	1438.205	0	50.5	4	15.4	4	-1E+10	1	0.0511	4	0.000115	0	-1E+10	1	-1E+10	1	-1E+10	1
4902624	43	C	08/24/2025	23:44	-129.102	49.179	0	1472.30	0	2.5236	0	34.4960	0	27.533	0	1454.648	0	53.2	4	16.2	4	-1E+10	1	0.0512	4	0.000138	0	-1E+10	1	-1E+10	1	-1E+10	1
4902624	43	C	08/24/2025	23:44	-129.102	49.179	0	1475.50	0	2.5170	0	34.4970	0	27.535	0	1457.799	0	-1e10	1	-1e10	1	-1E+10	1	-1e10	1	-1e10	1	-1E+10	1	-1E+10	1	-1E+10	1
4902624	43	C	08/24/2025	23:44	-129.102	49.179	0	1488.70	0	2.4993	0	34.5002	0	27.539	0	1470.794	0	54.0	4	16.5	4	-1E+10	1	0.0583	4	0.000149	0	-1E+10	1	-1E+10	1	-1E+10	1
4902624	43	C	08/24/2025	23:44	-129.102	49.179	0	1505.70	0	2.4764	0	34.5044	0	27.544	0	1487.530	0	58.7	4	17.9	4	-1E+10	1	0.0510	4	0.000114	0	-1E+10	1	-1E+10	1	-1E+10	1
4902624	43	C	08/24/2025	23:44	-129.102	49.179	0	1523.30	0	2.4527	0	34.5087	0	27.550	0	1504.855	0	61.5	4	18.7	4	-1E+10	1	0.0438	4	0.000137	0	-1E+10	1	-1E+10	1	-1E+10	1
4902624	43	C	08/24/2025	23:44	-129.102	49.179	0	1524.60	0	2.4510	0	34.5090	0	27.550	0	1506.135	0	-1e10	1	-1e10	1	-1E+10	1	-1e10	1	-1e10	1	-1E+10	1	-1E+10	1	-1E+10	1
4902624	43	C	08/24/2025	23:44	-129.102	49.179	0	1541.90	0	2.4334	0	34.5124	0	27.554	0	1523.163	0	65.1	4	19.8	4	-1E+10	1	0.0441	4	0.000125	0	-1E+10	1	-1E+10	1	-1E+10	1
4902624	43	C	08/24/2025	23:44	-129.102	49.179	0	1560.60	0	2.4144	0	34.5162	0	27.559	0	1541.568	0	66.4	4	20.2	4	-1E+10	1	0.0581	4	0.000136	0	-1E+10	1	-1E+10	1	-1E+10	1
4902624	43	C	08/24/2025	23:44	-129.102	49.179	0	1574.80	0	2.4000	0	34.5190	0	27.563	0	1555.542	0	-1e10	1	-1e10	1	-1E+10	1	-1e10	1	-1e10	1	-1E+10	1	-1E+10	1	-1E+10	1
4902624	43	C	08/24/2025	23:44	-129.102	49.179	0	1580.00	0	2.3930	0	34.5199	0	27.564	0	1560.660	0	66.6	4	20.3	4	-1E+10	1	0.0439	4	0.000125	0	-1E+10	1	-1E+10	1	-1E+10	1
4902624	43	C	08/24/2025	23:44	-129.102	49.179	0	1600.40	0	2.3656	0	34.5236	0	27.569	0	1580.734	0	67.9	4	20.7	4	-1E+10	1	0.0511	4	0.000136	0	-1E+10	1	-1E+10	1	-1E+10	1
4902624	43	C	08/24/2025	23:44	-129.102	49.179	0	1622.00	0	2.3366	0	34.5274	0	27.575	0	1601.987	0	68.4	4	20.8	4	-1E+10	1	0.0510	4	0.000135	0	-1E+10	1	-1E+10	1	-1E+10	1
4902624	43	C	08/24/2025	23:44	-129.102	49.179	0	1625.40	0	2.3320	0	34.5280	0	27.576	0	1605.332	0	-1e10	1	-1e10	1	-1E+10	1	-1e10	1	-1e10	1	-1E+10	1	-1E+10	1	-1E+10	1
4902624	43	C	08/24/2025	23:44	-129.102	49.179	0	1644.50	0	2.3123	0	34.5310	0	27.580	0	1624.123	0	64.2	4	19.5	4	-1E+10	1	0.0441	4	0.000134	0	-1E+10	1	-1E+10	1	-1E+10	1
4902624	43	C	08/24/2025	23:44	-129.102	49.179	0	1667.10	0	2.2891	0	34.5346	0	27.585	0	1646.355	0	70.3	4	21.3	4	-1E+10	1	0.0582	4	0.001106	0	-1E+10	1	-1E+10	1	-1E+10	1
4902624	43	C	08/24/2025	23:44	-129.102	49.179	0	1675.90	0	2.2800	0	34.5360	0	27.587	0	1655.011	0	-1e10	1	-1e10	1	-1E+10	1	-1e10	1	-1e10	1	-1E+10	1	-1E+10	1	-1E+10	1
4902624	43	C	08/24/2025	23:44	-129.102	49.179	0	1686.70	0	2.2683	0	34.5380	0	27.589	0	1665.634	0	72.7	4	22.1	4	-1E+10	1	0.0512	4	0.000100	0	-1E+10	1	-1E+10	1	-1E+10	1
4902624	43	C	08/24/2025	23:44	-129.102	49.179	0	1703.00	0	2.2507	0	34.5410	0	27.593	0	1681.666	0	70.1	4	21.3	4	-1E+10	1	0.0580	4	0.000110	0	-1E+10	1	-1E+10	1	-1E+10	1
4902624	43	C	08/24/2025	23:44	-129.102	49.179	0	1719.90	0	2.2324	0	34.5441	0	27.597	0	1698.287	0	69.9	4	21.2	4	-1E+10	1	0.0369	4	0.000088	0	-1E+10	1	-1E+10	1	-1E+10	1
4902624	43	C	08/24/2025	23:44	-129.102	49.179	0	1724.90	0	2.2270	0	34.5450	0	27.598	0	1703.204	0	-1e10	1	-1e10	1	-1E+10	1	-1e10	1	-1e10	1	-1E+10	1	-1E+10	1	-1E+10	1
4902624	43	C	08/24/2025	23:44	-129.102	49.179	0	1736.90	0	2.2150	0	34.5472	0	27.601	0	1715.004	0	69.4	4	21.0	4	-1E+10	1	0.0582	4	0.000145	0	-1E+10	1	-1E+10	1	-1E+10	1
4902624	43	C	08/24/2025	23:44	-129.102	49.179	0	1754.20	0	2.1976	0	34.5503	0	27.605	0	1732.016	0	69.2	4	21.0	4	-1E+10	1	0.0511	4	0.000111	0	-1E+10	1	-1E+10	1	-1E+10	1
4902624	43	C	08/24/2025	23:44	-129.102	49.179	0	1771.90	0	2.1798	0	34.5535	0	27.609	0	1749.419	0	72.1	4	21.8	4	-1E+10	1	0.0511	4	0.000156	0	-1E+10	1	-1E+10	1	-1E+10	1
4902624	43	C	08/24/2025	23:44	-129.102	49.179	0	1774.70	0	2.1770	0	34.5540	0	27.610	0	1752.172	0	-1e10	1	-1e10	1	-1E+10	1	-1e10	1	-1e10	1	-1E+10	1	-1E+10	1	-1E+10	1
4902624	43	C	08/24/2025	23:44	-129.102	49.179	0	1790.20	0	2.1631	0	34.5565	0	27.613	0	1767.411	0	72.8	4	22.0	4	-1E+10	1	0.0511	4	0.000144	0	-1E+10	1	-1E+10	1	-1E+10	1
4902624	43	C	08/24/2025	23:44	-129.102	49.179	0	1809.40	0	2.1458	0	34.5595	0	27.617	0	1786.286	0	76.8	4	23.2	4	-1E+10	1	0.0511	4	0.000121	0	-1E+10	1	-1E+10	1	-1E+10	1
4902624	43	C	08/24/2025	23:44	-129.102	49.179	0	1824.80	0	2.1320	0	34.5620	0	27.620	0	1801.424	0	-1e10	1	-1e10	1	-1E+10	1	-1e10	1	-1e10	1	-1E+10	1	-1E+10	1	-1E+10	1
4902624	43	C	08/24/2025	23:44	-129.102	49.179	0	1829.20	0	2.1280	0	34.5627	0	27.621	0	1805.749	0	79.8	4	24.1	4	-1E+10	1	0.0511	4	0.000133	0	-1E+10	1	-1E+10	1	-1E+10	1
4902624	43	C	08/24/2025	23:44	-129.102	49.179	0	1849.30	0	2.1095	0	34.5659	0	27.625	0	1825.505	0	80.8	4	24.4	4	-1E+10	1	0.0508	4	0.000166	0	-1E+10	1	-1E+10	1	-1E+10	1
4902624	43	C	08/24/2025	23:44	-129.102	49.179	0	1869.40	0	2.0911	0	34.5691	0	27.629	0	1845.259	0	82.4	4	24.9	4	-1E+10	1	0.0366	4	0.000143	0	-1E+10	1	-1E+10	1	-1E+10	1
4902624	43	C	08/24/2025	23:44	-129.102	49.179	0	1875.00	0	2.0860	0	34.5700	0	27.630	0	1850.762	0	-1e10	1	-1e10	1	-1E+10	1	-1e10	1	-1e10	1	-1E+10	1	-1E+10	1	-1E+10	1
4902624	43	C	08/24/2025	23:44	-129.102	49.179	0	1890.20	0	2.0742	0	34.5721	0	27.633	0	1865.699	0	84.5	4	25.5	4	-1E+10	1	0.0438	4	0.000130	0	-1E+10	1	-1E+10	1	-1E+10	1
4902624	43	C	08/24/2025	23:44	-129.102	49.179	0	1911.20	0	2.0580	0	34.5750	0	27.637	0	1886.334	0	84.9	4	25.6	4	-1E+10	1	0.0439	4	0.000119	0	-1E+10	1	-1E+10	1	-1E+10	1
4902624	43	C	08/24/2025	23:44	-129.102	49.179	0	1925.40	0	2.0470	0	34.5770	0	27.639	0	1900.286	0	-1e10	1	-1e10	1	-1E+10	1	-1e10	1	-1e10	1	-1E+10	1	-1E+10	1	-1E+10	1
4902624	43	C	08/24/2025	23:44	-129.102	49.179	0	1932.50	0	2.0421	0	34.5779	0	27.641	0	1907.261	0	85.7	4	25.9	4	-1E+10	1	0.0508	4	0.000141	0	-1E+10	1	-1E+10	1	-1E+10	1
4902624	43	C	08/24/2025	23:44	-129.102	49.179	0	1954.60	0	2.0267	0	34.5808	0	27.644	0	1928.973	0	85.5	4	25.8	4	-1E+10	1	0.0367	4	0.000122	0	-1E+10	1	-1E+10	1	-1E+10	1
4902624	43	C	08/24/2025	23:44	-129.102	49.179	0	1971.50	0	2.0150	0	34.5830	0	27.647	0	1945.574	0	-1e10	1	-1e10	1	-1E+10	1	-1e10	1	-1e10	1	-1E+10	1	-1E+10	1	-1E+10	1
4902624	43	C	08/24/2025	23:44	-129.102	49.179	0	1977.50	0	-1e10	1	-1e10	1	-1e10	1	1951.468	0	103.9	4	-1e10	4	-1E+10	1	0.0442	4	0.000304	0	-1E+10	1	-1E+10	1	-1E+10	1
4902624	43	C	08/24/2025	23:44	-129.102	49.179	0	1991.80	0	-1e10	1	-1e10	1	-1e10	1	1965.513	0	100.5	4	-1e10	4	-1E+10	1	0.0584	4	0.000167	0	-1E+10	1	-1E+10	1	-1E+10	1
4902624	43	C	08/24/2025	23:44	-129.102	49.179	0																										
4902624	44	C	09/04/2025	18:25	-128.893	48.924	0	0.20	0	17.3947	0	31.9663	0	23.096	0	0.198	0	224.2	4	92.8	4	-1E+10	1	0.2482	4	0.001000	0	-1E+10	1	-1E+10	1	-1E+10	1
4902624	44	C	09/04/2025	18:25	-128.893	48.924	0	0.30	0	17.3978	0	31.9662	0	23.095	0	0.297	0	224.4	4	92.9	4	-1E+10	1	-1e10	1	-1e10	1	-1E+10	1	-1E+10	1	-1E+10	1
4902624	44	C	09/04/2025	18:25	-128.893	48.924	0	0.40	0	17.4010	0	31.9660	0	23.094	0	0.397	0	-1e10	1	-1e10	1	-1E+10	1	-1e10	1	-1e10	1	-1E+10	1	-1E+10	1	-1E+10	1
4902624	44	C	09/04/2025	18:25	-128.893	48.924	0	0.80	0	17.4014	0	31.9660	0	23.094	0	0.793	0	-1e10	1	-1e10	1	-1E+10	1	0.2409	4	0.001047	0	-1E+10	1	-1E+10	1	-1E+10	1
4902624	44	C	09/04/2025	18:25	-128.893	48.924	0	1.30	0	17.4018	0	31.9660	0	23.094	0	1.289	0	223.6	4	92.6	4	-1E+10	1	-1e10	1	-1e10	1	-1E+10	1	-1E+10	1	-1E+10	1
4902624	44	C	09/04/2025	18:25	-128.893	48.924	0	1.50	0	17.4020	0	31.9660	0	23.094	0	1.487	0	-1e10	1	-1e10	1	-1E+10	1	0.2482	4	0.001024	0	-1E+10	1	-1E+10	1	-1E+10	1
4902624	44	C	09/04/2025	18:25	-128.893	48.924	0	1.70	0	17.4022	0	31.9660	0	23.094	0	1.686	0	-1e10	1	-1e10	1	-1E+10	1	0.2555	4	0.001047	0	-1E+10	1	-1E+10	1	-1E+10	1
4902624	44	C	09/04/2025	18:25	-128.893	48.924	0	1.90	0	17.4024	0	31.9660	0	23.094	0	1.884	0	-1e10	1	-1e10	1	-1E+10	1	0.2774	4	0.001035	0	-1E+10	1	-1E+10	1	-1E+10	1
4902624	44	C	09/04/2025	18:25	-128.893	48.924	0	2.20	0	17.4027	0	31.9660	0	23.094	0	2.181	0	223.6	4	92.6	4	-1E+10	1	0.2555	4	0.001059	0	-1E+10	1	-1E+10	1	-1E+10	1
4902624	44	C	09/04/2025	18:25	-128.893	48.924	0	2.40	0	17.4029	0	31.9660	0	23.094	0	2.380	0	-1e10	1	-1e10	1	-1E+10	1	0.2701	4	0.001129	0	-1E+10	1	-1E+10	1	-1E+10	1
4902624	44	C	09/04/2025	18:25	-128.893	48.924	0	2.50	0	17.4030	0	31.9660	0	23.094	0	2.479	0	-1e10	1	-1e10	1	-1E+10	1	-1e10	1	-1e10	1	-1E+10	1	-1E+10	1	-1E+10	1
4902624	44	C	09/04/2025	18:25	-128.893	48.924	0	2.60	0	17.4029	0	31.9661	0	23.094	0	2.578	0	-1e10	1	-1e10	1	-1E+10	1	0.2482	4	0.000988	0	-1E+10	1	-1E+10	1	-1E+10	1
4902624	44	C	09/04/2025	18:25	-128.893	48.924	0	2.90	0	17.4026	0	31.9664	0	23.094	0	2.875	0	-1e10	1	-1e10	1	-1E+10	1	0.2847	4	0.001047	0	-1E+10	1	-1E+10	1	-1E+10	1
4902624	44	C	09/04/2025	18:25	-128.893	48.924	0	3.40	0	17.4021	0	31.9669	0	23.095	0	3.371	0	223.6	4	92.6	4	-1E+10	1	0.2701	4	0.001012	0	-1E+10	1	-1E+10	1	-1E+10	1
4902624	44	C	09/04/2025	18:25	-128.893	48.924	0	3.50	0	17.4020	0	31.9670	0	23.095	0	3.470	0	-1e10	1	-1e10	1	-1E+10	1	-1e10	1	-1e10	1	-1E+10	1	-1E+10	1	-1E+10	1
4902624	44	C	09/04/2025	18:25	-128.893	48.924	0	3.60	0	17.4021	0	31.9669	0	23.095	0	3.569	0	-1e10	1	-1e10	1	-1E+10	1	0.2774	4	0.001035	0	-1E+10	1	-1E+10	1	-1E+10	1
4902624	44	C	09/04/2025	18:25	-128.893	48.924	0	3.80	0	17.4023	0	31.9667	0	23.094	0	3.768	0	-1e10	1	-1e10	1	-1E+10	1	0.2920	4	0.001047	0	-1E+10	1	-1E+10	1	-1E+10	1
4902624	44	C	09/04/2025	18:25	-128.893	48.924	0	4.00	0	17.4025	0	31.9665	0	23.094	0	3.966	0	-1e10	1	-1e10	1	-1E+10	1	0.2847	4	0.001059	0	-1E+10	1	-1E+10	1	-1E+10	1
4902624	44	C	09/04/2025	18:25	-128.893	48.924	0	4.20	0	17.4027	0	31.9663	0	23.094	0	4.164	0	-1e10	1	-1e10	1	-1E+10	1	0.2774	4	0.001024	0	-1E+10	1	-1E+10	1	-1E+10	1
4902624	44	C	09/04/2025	18:25	-128.893	48.924	0	4.50	0	17.4030	0	31.9660	0	23.094	0	4.462	0	223.7	4	92.6	4	-1E+10	1	0.2993	4	0.001106	0	-1E+10	1	-1E+10	1	-1E+10	1
4902624	44	C	09/04/2025	18:25	-128.893	48.924	0	4.70	0	17.4030	0	31.9660	0	23.094	0	4.660	0	-1e10	1	-1e10	1	-1E+10	1	0.2920	4	0.001035	0	-1E+10	1	-1E+10	1	-1E+10	1
4902624	44	C	09/04/2025	18:25	-128.893	48.924	0	4.90	0	17.4030	0	31.9660	0	23.094	0	4.858	0	-1e10	1	-1e10	1	-1E+10	1	0.2774	4	0.001047	0	-1E+10	1	-1E+10	1	-1E+10	1
4902624	44	C	09/04/2025	18:25	-128.893	48.924	0	5.40	0	17.4030	0	31.9660	0	23.094	0	5.354	0	-1e10	1	-1e10	1	-1E+10	1	0.2993	4	0.001106	0	-1E+10	1	-1E+10	1	-1E+10	1
4902624	44	C	09/04/2025	18:25	-128.893	48.924	0	5.50	0	17.4030	0	31.9660	0	23.094	0	5.453	0	-1e10	1	-1e10	1	-1E+10	1	-1e10	1	-1e10	1	-1E+10	1	-1E+10	1	-1E+10	1
4902624	44	C	09/04/2025	18:25	-128.893	48.924	0	5.60	0	17.4029	0	31.9661	0	23.094	0	5.552	0	223.7	4	92.6	4	-1E+10	1	0.2993	4	0.001082	0	-1E+10	1	-1E+10	1	-1E+10	1
4902624	44	C	09/04/2025	18:25	-128.893	48.924	0	5.90	0	17.4026	0	31.9664	0	23.094	0	5.850	0	-1e10	1	-1e10	1	-1E+10	1	0.3066	4	0.001059	0	-1E+10	1	-1E+10	1	-1E+10	1
4902624	44	C	09/04/2025	18:25	-128.893	48.924	0	6.10	0	17.4024	0	31.9666	0	23.094	0	6.048	0	-1e10	1	-1e10	1	-1E+10	1	0.3066	4	0.001024	0	-1E+10	1	-1E+10	1	-1E+10	1
4902624	44	C	09/04/2025	18:25	-128.893	48.924	0	6.40	0	17.4021	0	31.9669	0	23.095	0	6.346	0	-1e10	1	-1e10	1	-1E+10	1	0.2993	4	0.001082	0	-1E+10	1	-1E+10	1	-1E+10	1
4902624	44	C	09/04/2025	18:25	-128.893	48.924	0	6.50	0	17.4020	0	31.9670	0	23.095	0	6.445	0	-1e10	1	-1e10	1	-1E+10	1	-1e10	1	-1e10	1	-1E+10	1	-1E+10	1	-1E+10	1
4902624	44	C	09/04/2025	18:25	-128.893	48.924	0	6.60	0	17.4021	0	31.9669	0	23.095	0	6.544	0	-1e10	1	-1e10	1	-1E+10	1	0.2847	4	0.001047	0	-1E+10	1	-1E+10	1	-1E+10	1
4902624	44	C	09/04/2025	18:25	-128.893	48.924	0	6.80	0	17.4023	0	31.9667	0	23.094	0	6.742	0	223.7	4	92.6	4	-1E+10	1	0.2847	4	0.001024	0	-1E+10	1	-1E+10	1	-1E+10	1
4902624	44	C	09/04/2025	18:25	-128.893	48.924	0	7.30	0	17.4029	0	31.9661	0	23.094	0	7.238	0	-1e10	1	-1e10	1	-1E+10	1	0.3285	4	0.001024	0	-1E+10	1	-1E+10	1	-1E+10	1
4902624	44	C	09/04/2025	18:25	-128.893	48.924	0	7.40	0	17.4030	0	31.9660	0	23.094	0	7.337	0	-1e10	1	-1e10	1	-1E+10	1	-1e10	1	-1e10	1	-1E+10	1	-1E+10	1	-1E+10	1
4902624	44	C	09/04/2025	18:25	-128.893	48.924	0	7.50	0	17.4029	0	31.9660	0	23.094	0	7.436	0	-1e10	1	-1e10	1	-1E+10	1	0.2847	4	0.000977	0	-1E+10	1	-1E+10	1	-1E+10	1
4902624	44	C	09/04/2025	18:25	-128.893	48.924	0	7.80	0	17.4026	0	31.9660	0	23.094	0	7.734	0	-1e10	1	-1e10	1	-1E+10	1	0.2920	4	0.001059	0	-1E+10	1	-1E+10	1	-1E+10	1
4902624	44	C	09/04/2025	18:25	-128.893	48.924	0	8.10	0	17.4024	0	31.9660	0	23.094	0	8.031	0	223.8	4	92.6	4	-1E+10	1	0.2920	4	0.001188	0	-1E+10	1	-1E+10	1	-1E+10	1
4902624	44	C	09/04/2025	18:25	-128.893	48.924	0	8.30	0	17.4022	0	31.9660	0	23.094	0	8.229	0	-1e10	1	-1e10	1	-1E+10	1	0.2993	4	0.001024	0	-1E+10	1	-1E+10	1	-1E+10	1
4902624	44	C	09/04/2025	18:25	-128.893	48.924	0	8.50	0	17.4020	0	31.9660	0	23.094	0	8.428	0	-1e10	1	-1e10	1	-1E+10	1	0.2993	4	0.001270	0	-1E+10	1	-1E+10	1	-1E+10	1
4902624	44	C	09/04/2025	18:25	-128.893	48.924	0	8.70	0	17.4013	0	31.9662	0	23.094	0	8.626	0	-1e10	1	-1e10	1	-1E+10	1	0.3066	4	0.001082	0	-1E+10	1	-1E+10	1	-1E+10	1
4902624	44	C	09/04/2025	18:25	-128.893	48.924	0	9.20	0	17.3995	0	31.9666	0	23.095	0	9.122	0	224.0	4	92.7	4	-1E+10	1	0.3139	4	0.001052	0	-1E+10	1	-1E+10	1	-1E+10	1
4902624	44	C	09/04/2025	18:25	-128.893	48.924	0	9.50	0	17.3984	0	31.9669	0	23.096	0	9.419	0	-1e10	1	-1e10	1	-1E+10	1	0.3139	4	0.001024	0	-1E+10	1	-1E+10	1	-1E+10	1
4902624	44	C	09/04/2025	18:25	-128.893	48.924	0	9.60	0	17.3980	0	31.9670	0	23.096	0	9.518	0	-1e10	1	-1e10	1	-1E+10	1	-1e10	1	-1e10	1	-1E+10	1	-1E+10	1	-1E+10	1
4902624	44	C	09/04/2025	18:25	-128.893	48.924	0	9.70	0	17.3979	0	31.9669	0	23.096	0	9.618	0	-1e10	1	-1e10	1	-1E+10	1	0.3139	4	0.001024	0	-1E+10	1	-1E+10	1	-1E+10	1
4902624	44	C	09/04/2025	18:25	-128.893	48.924	0	10.40	0	17.3969	0	31.9664	0	23.096	0	10.312	0	224.1	4	92.8	4	-1E+10	1	0.3149	4	0.001045	0	-1E+10	1	-1E+10	1	-1E+10	1
4902624	44	C	09/04/2025	18:25	-128.893	48.924	0	11.00	0	17.3960	0	31.9660	0	23.096	0	10.906	0	-1e10	1	-1e10	1	-1E+10	1	-1e10	1	-1e10	1	-1E+10	1	-1E+10	1	-1E+10	1
4902624	44	C	09/04/2025	18:25	-128.893	48.924	0	11.60	0	17.3960	0	31.9657	0	23.095	0	11.501	0	224.4	4	92.9	4	-1E+10	1	0.3163	4	0.001035	0	-1E+10	1	-1E+10	1	-1E+10	1
4902624	44	C	09/04/2025	18:25	-128.893	48.924	0	12.80	0	17.3960	0	31.9651	0	23.095	0	12.691	0	224.8	4	93.1	4	-1E+10	1	0.3212	4	0.001059	0	-1E+10	1	-1E+10	1	-1E+10	1
4902624	44	C	09/04/2025	18:25	-128.893	48.924	0	12.90	0	17.3960	0	31.9650	0	23.095	0	12.790	0	-1e10	1	-1e10	1	-1E+10	1	-1e10	1	-1e10	1	-1E+10	1	-1E+10	1	-1E+10	1
4902624	44	C	09/04/2025	18:25	-128.893	48.924	0	14.00	0	17.3801	0	31.9667	0	23.100	0	13.881	0	225.1	4	93.2	4	-1E+10	1	0.3482	4	0.001073	0	-1E+10	1	-1E+10	1	-1E+10	1
4902624	44	C	09/04/2025	18:25	-128.893	48.924	0	14.90	0	17.3670	0	31.9680	0	23.104	0	14.773	0	-1e10	1	-1e10	1	-1E+10	1	-1e10	1	-1e10	1	-1E+10	1	-1E+10	1	-1E+10	1
4902624	44	C	09/04/2025	18:25	-128.893	48.924	0	15.30	0	17.3525	0	31.9695	0	23.109	0	15.170	0	225.7	4	93.4	4	-1E+10	1	0.3893	4	0.001078	0	-1E+10	1	-1E+10	1	-1E+10	1
4902624	44	C	09/04/2025	18:25	-128.893	48.924	0	16.60	0	17.3055	0	31.9745	0	23.124	0	16.459	0	226.3	4	93.5	4	-1E+10	1	0.4156	4	0.001131	0	-1E+10	1	-1E+10	1	-1E+10	1
4902624	44	C	09/04/2025	18:25	-128.893	48.924	0	17.00	0	17.2910	0	31.9760	0	23.128	0	16.855	0	-1e10	1	-1e10	1	-1E+10	1	-1e10	1	-1e10	1	-1E+10	1	-1E+10	1	-1E+10	1
4902624	44	C	09/04/2025	18:25	-128.893	48.924	0	17.90	0	17.2789	0	31.9764	0	23.131	0	17.748	0	226.8	4	93.7	4	-1E+10	1	0.4453	4	0.001188	0	-1E+10	1	-1E+10	1	-1E+10	1
4902624	44	C	09/04/2025	18:25	-128.893	48.924	0	19.00	0	17.2640	0	31.9770	0	23.135	0	18.838	0	-1e10	1	-1e10	1	-1E+10	1	-1e10	1	-1e10	1	-1E+10	1	-1E+10	1	-1E+10	1
4902624	44	C	09/04/2025	18:25	-128.893	48.924	0	19.20	0	17.2633	0	31.9771	0	23.136	0	19.036	0	227.5	4	93.9	4	-1E+10	1	0.4745	4	0.001094	0	-1E+10	1	-1E+10	1	-1E+10	1
4902624	44	C	09/04/2025	18:25	-128.893	48.924	0	20.30	0	17.2592	0	31.9777	0	23.137	0	20.127	0	228.2	4	94.2	4	-1E+10	1	0.4498	4	0.001163	0	-1E+10	1	-1E+10	1	-1E+10	1
4902624	44	C	09/04/2025	18:25	-128.893	48.924	0	20.90	0	17.2570	0	31.9780	0	23.138	0	20.722	0	-1e10	1	-1e10	1	-1E+10	1	-1e10	1	-1e10	1	-1E+10	1	-1E+10	1	-1E+10	1
4902624	44	C	09/04/2025	18:25	-128.893	48.924	0	21.20	0	17.2447	0	31.9764	0	23.140	0	21.019	0	229.0	4	94.6	4	-1E+10	1	0.4850	4	0.001112	0	-1E+10	1	-1E+10	1	-1E+10	1
4902624	44	C	09/04/2025	18:25	-128.893	48.924	0	22.10	0	17.2078	0	31.9714	0	23.144	0	21.912	0	230.2	4	95.0	4	-1E+10	1	0.5156	4	0.001176	0	-1E+10	1	-1E+10	1	-1E+10	1
4902624	44	C	09/04/2025	18:25	-128.893	48.924	0	22.90	0	17.1750	0	31.9670	0	23.149	0	22.705	0	231.6	4	95.5	4	-1E+10	1	0.5694	4	0.001203	0	-1E+10	1	-1E+10	1	-1E+10	1
4902624	44	C	09/04/2025	18:25	-128.893	48.924	0	23.70	0	17.0206	0	31.9698	0	23.187	0	23.498	0	233.4	4	95.9	4	-1E+10	1	0.6599	4	0.001225	0	-1E+10	1	-1E+10	1	-1E+10	1
4902624	44	C	09/04/2025	18:25	-128.893	48.924	0	24.60	0	16.8469	0	31.9729	0	23.230	0	24.390	0	235.3	4	96.4	4	-1E+10	1	0.7492	4	0.001242	0	-1E+10	1	-1E+10	1	-1E+10	1
4902624	44	C	09/04/2025	18:25	-128.893	48.924	0	24.90	0	16.7890	0	31.9740	0	23.244	0	24.687	0	-1e10	1	-1e10	1	-1E+10	1	-1e10	1	-1e10	1	-1E+10	1	-1E+10	1	-1E+10	1
4902624	44	C	09/04/2025	18:25	-128.893	48.924	0	25.40	0	16.6528	0	31.9769	0	23.277	0	25.183	0	237.0	4	96.7	4	-1E+10	1	0.7709	4	0.001284	0	-1E+10	1	-1E+10	1	-1E+10	1
4902624	44	C	09/04/2025	18:25	-128.893	48.924	0	26.20	0	16.4349	0	31.9814	0	23.331	0	25.976	0	239.2	4	97.2	4	-1E+10	1	0.8402	4	0.001407	0	-1E+10	1	-1E+10	1	-1E+10	1
4902624	44	C	09/04/2025	18:25	-128.893	48.924	0	27.00	0	16.2170	0	31.9860	0	23.384	0	26.769	0	-1e10	1	-1e10	1	-1E+10	1	-1e10	1	-1e10	1	-1E+10	1	-1E+10	1	-1E+10	1
4902624	44	C	09/04/2025	18:25	-128.893	48.924	0	27.10	0	16.1712	0	31.9874	0	23.395	0	26.869	0	241.5	4	97.7	4	-1E+10	1	0.9125	4	0.001481	0	-1E+10	1	-1E+10	1	-1E+10	1
4902624	44	C	09/04/2025	18:25	-128.893	48.924	0	27.90	0	15.8051	0	31.9984	0	23.485	0	27.662	0	243.6	4	97.8	4	-1E+10	1	1.0439	4	0.001633	0	-1E+10	1	-1E+10	1	-1E+10	1
4902624	44	C	09/04/2025	18:25	-128.893	48.924	0	28.90	0	15.3475	0	32.0122	0	23.596	0	28.653	0	244.1	4	97.2	4	-1E+10	1	1.1023	4	0.001809	0	-1E+10	1	-1E+10	1	-1E+10	1
4902624	44	C	09/04/2025	18:25	-128.893	48.924	0	29.10	0	15.2560	0	32.0150	0	23.618	0	28.851	0	-1e10	1	-1e10	1	-1E+10	1	-1e10	1	-1e10	1	-1E+10	1	-1E+10	1	-1E+10	1
4902624	44	C	09/04/2025	18:25	-128.893	48.924	0	29.70	0	15.0832	0	32.0144	0	23.655	0	29.446	0	244.4	4	96.8	4	-1E+10	1	1.1461	4	0.001833	0	-1E+10	1	-1E+10	1	-1E+10	1
4902624	44	C	09/04/2025	18:25	-128.893	48.924	0	30.00	0	14.9968	0	32.0141	0	23.673	0	29.744	0	244.5	4	96.7	4	-1E+10	1	1.1972	4	0.001868	0	-1E+10	1	-1E+10	1	-1E+10	1
4902624	44	C	09/04/2025	18:25	-128.893	48.924	0	30.20	0	14.9392	0	32.0139	0	23.686	0	29.942	0	244.7	4	96.6	4	-1E+10	1	1.3213	4	0.001669	0	-1E+10	1	-1E+10	1	-1E+10	1
4902624	44	C	09/04/2025	18:25	-128.893	48.924	0	30.40	0	14.8816	0	32.0137	0	23.698	0	30.140	0	245.4	4	96.8	4	-1E+10	1	1.4162	4	0.001633	0	-1E+10	1	-1E+10	1	-1E+10	1
4902624	44	C	09/04/2025	18:25	-128.893	48.924	0	30.50	0	14.8528	0	32.0136	0	23.704	0	30.239	0	245.7	4	96.8	4	-1E+10	1	1.4564	4	0.001639	0	-1E+10	1	-1E+10	1	-1E+10	1
4902624	44	C	09/04/2025	18:25	-128.893	48.924	0	30.60	0	14.8240	0	32.0135	0	23.710	0	30.338	0	246.4	4	97.1	4	-1E+10	1	1.4965	4	0.001645	0	-1E+10	1	-1E+10	1	-1E+10	1
4902624	44	C	09/04/2025	18:25	-128.893	48.924	0	30.80	0	14.7664	0	32.0133	0	23.722	0	30.537	0	246.8	4	97.1	4	-1E+10	1	1.5622	4	0.001774	0	-1E+10	1	-1E+10	1	-1E+10	1
4902624	44	C	09/04/2025	18:25	-128.893	48.924	0	31.00	0	14.7088	0	32.0131	0	23.734	0	30.735	0	247.1	4	97.1	4	-1E+10	1	1.5330	4	0.001812	0	-1E+10	1	-1E+10	1	-1E+10	1
4902624	44	C	09/04/2025	18:25	-128.893	48.924	0	31.10	0	14.6800	0	32.0130	0	23.740	0	30.834	0	-1e10	1	-1e10	1	-1E+10	1	-1e10	1	-1e10	1	-1E+10	1	-1E+10	1	-1E+10	1
4902624	44	C	09/04/2025	18:25	-128.893	48.924	0	31.30	0	14.5873	0	32.0149	0	23.761	0	31.032	0	247.5	4	97.0	4	-1E+10	1	1.5817	4	0.001918	0	-1E+10	1	-1E+10	1	-1E+10	1
4902624	44	C	09/04/2025	18:25	-128.893	48.924	0	31.70	0	14.4019	0	32.0187	0	23.803	0	31.429	0	247.7	4	96.8	4	-1E+10	1	1.6899	4	0.001979	0	-1E+10	1	-1E+10	1	-1E+10	1
4902624	44	C	09/04/2025	18:25	-128.893	48.924	0	32.10	0	14.2165	0	32.0225	0	23.844	0	31.825	0	247.8	4	96.4	4	-1E+10	1	1.8651	4	0.001985	0	-1E+10	1	-1E+10	1	-1E+10	1
4902624	44	C	09/04/2025	18:25	-128.893	48.924	0	32.60	0	13.9848	0	32.0273	0	23.896	0	32.321	0	247.3	4	95.8	4	-1E+10	1	2.0236	4	0.002046	0	-1E+10	1	-1E+10	1	-1E+10	1
4902624	44	C	09/04/2025	18:25	-128.893	48.924	0	33.10	0	13.7530	0	32.0320	0	23.946	0	32.817	0	-1e10	1	-1e10	1	-1E+10	1	-1e10	1	-1e10	1	-1E+10	1	-1E+10	1	-1E+10	1
4902624	44	C	09/04/2025	18:25	-128.893	48.924	0	33.20	0	13.7010	0	32.0337	0	23.958	0	32.916	0	246.3	4	94.9	4	-1E+10	1	2.2256	4	0.002226	0	-1E+10	1	-1E+10	1	-1E+10	1
4902624	44	C	09/04/2025	18:25	-128.893	48.924	0	33.80	0	13.3890	0	32.0441	0	24.029	0	33.511	0	246.5	4	94.3	4	-1E+10	1	2.5581	4	0.002388	0	-1E+10	1	-1E+10	1	-1E+10	1
4902624	44	C	09/04/2025	18:25	-128.893	48.924	0	34.40	0	13.0770	0	32.0544	0	24.098	0	34.106	0	244.8	4	93.1	4	-1E+10	1	2.6645	4	0.002478	0	-1E+10	1	-1E+10	1	-1E+10	1
4902624	44	C	09/04/2025	18:25	-128.893	48.924	0	34.90	0	12.8170	0	32.0630	0	24.156	0	34.601	0	-1e10	1	-1e10	1	-1E+10	1	-1e10	1	-1e10	1	-1E+10	1	-1E+10	1	-1E+10	1
4902624	44	C	09/04/2025	18:25	-128.893	48.924	0	35.10	0	12.7474	0	32.0677	0	24.173	0	34.800	0	243.1	4	91.9	4	-1E+10	1	2.7156	4	0.002443	0	-1E+10	1	-1E+10	1	-1E+10	1
4902624	44	C	09/04/2025	18:25	-128.893	48.924	0	35.90	0	12.4689	0	32.0863	0	24.240	0	35.593	0	240.7	4	90.4	4	-1E+10	1	2.4411	4	0.002405	0	-1E+10	1	-1E+10	1	-1E+10	1
4902624	44	C	09/04/2025	18:25	-128.893	48.924	0	36.70	0	12.1904	0	32.1050	0	24.307	0	36.386	0	238.8	4	89.2	4	-1E+10	1	2.1535	4	0.002213	0	-1E+10	1	-1E+10	1	-1E+10	1
4902624	44	C	09/04/2025	18:25	-128.893	48.924	0	37.00	0	12.0860	0	32.1120	0	24.332	0	36.683	0	-1e10	1	-1e10	1	-1E+10	1	-1e10	1	-1e10	1	-1E+10	1	-1E+10	1	-1E+10	1
4902624	44	C	09/04/2025	18:25	-128.893	48.924	0	37.60	0	11.9000	0	32.1225	0	24.375	0	37.278	0	237.6	4	88.2	4	-1E+10	1	1.8777	4	0.002039	0	-1E+10	1	-1E+10	1	-1E+10	1
4902624	44	C	09/04/2025	18:25	-128.893	48.924	0	38.50	0	11.6210	0	32.1382	0	24.438	0	38.170	0	236.6	4	87.4	4	-1E+10	1	1.7046	4	0.001947	0	-1E+10	1	-1E+10	1	-1E+10	1
4902624	44	C	09/04/2025	18:25	-128.893	48.924	0	39.00	0	11.4660	0	32.1470	0	24.473	0	38.666	0	-1e10	1	-1e10	1	-1E+10	1	-1e10	1	-1e10	1	-1E+10	1	-1E+10	1	-1E+10	1
4902624	44	C	09/04/2025	18:25	-128.893	48.924	0	39.30	0	11.4147	0	32.1509	0	24.485	0	38.963	0	235.1	4	86.4	4	-1E+10	1	1.5120	4	0.001746	0	-1E+10	1	-1E+10	1	-1E+10	1
4902624	44	C	09/04/2025	18:25	-128.893	48.924	0	40.20	0	11.2608	0	32.1626	0	24.522	0	39.855	0	234.0	4	85.8	4	-1E+10	1	1.2220	4	0.001436	0	-1E+10	1	-1E+10	1	-1E+10	1
4902624	44	C	09/04/2025	18:25	-128.893	48.924	0	41.00	0	11.1240	0	32.1730	0	24.554	0	40.648	0	-1e10	1	-1e10	1	-1E+10	1	-1e10	1	-1e10	1	-1E+10	1	-1E+10	1	-1E+10	1
4902624	44	C	09/04/2025	18:25	-128.893	48.924	0	41.10	0	11.1035	0	32.1751	0	24.560	0	40.748	0	232.5	4	84.9	4	-1E+10	1	1.0293	4	0.001288	0	-1E+10	1	-1E+10	1	-1E+10	1
4902624	44	C	09/04/2025	18:25	-128.893	48.924	0	42.00	0	10.9190	0	32.1940	0	24.607	0	41.640	0	231.7	4	84.3	4	-1E+10	1	0.8553	4	0.001120	0	-1E+10	1	-1E+10	1	-1E+10	1
4902624	44	C	09/04/2025	18:25	-128.893	48.924	0	43.00	0	10.7140	0	32.2150	0	24.659	0	42.631	0	228.4	4	82.8	4	-1E+10	1	0.7519	4	0.001017	0	-1E+10	1	-1E+10	1	-1E+10	1
4902624	44	C	09/04/2025	18:25	-128.893	48.924	0	43.90	0	10.5989	0	32.2231	0	24.685	0	43.523	0	231.0	4	83.5	4	-1E+10	1	0.7227	4	0.001058	0	-1E+10	1	-1E+10	1	-1E+10	1
4902624	44	C	09/04/2025	18:25	-128.893	48.924	0	44.90	0	10.4710	0	32.2320	0	24.714	0	44.515	0	227.3	4	82.0	4	-1E+10	1	0.6923	4	0.000980	0	-1E+10	1	-1E+10	1	-1E+10	1
4902624	44	C	09/04/2025	18:25	-128.893	48.924	0	45.90	0	10.4539	0	32.2310	0	24.716	0	45.506	0	229.7	4	82.8	4	-1E+10	1	0.7203	4	0.000988	0	-1E+10	1	-1E+10	1	-1E+10	1
4902624	44	C	09/04/2025	18:25	-128.893	48.924	0	46.90	0	10.4367	0	32.2301	0	24.718	0	46.497	0	228.9	4	82.5	4	-1E+10	1	0.7504	4	0.001021	0	-1E+10	1	-1E+10	1	-1E+10	1
4902624	44	C	09/04/2025	18:25	-128.893	48.924	0	47.00	0	10.4350	0	32.2300	0	24.718	0	46.596	0	-1e10	1	-1e10	1	-1E+10	1	-1e10	1	-1e10	1	-1E+10	1	-1E+10	1	-1E+10	1
4902624	44	C	09/04/2025	18:25	-128.893	48.924	0	47.80	0	10.4094	0	32.2308	0	24.723	0	47.389	0	228.3	4	82.2	4	-1E+10	1	0.7393	4	0.001046	0	-1E+10	1	-1E+10	1	-1E+10	1
4902624	44	C	09/04/2025	18:25	-128.893	48.924	0	48.90	0	10.3742	0	32.2319	0	24.730	0	48.480	0	227.6	4	81.9	4	-1E+10	1	0.7126	4	0.001022	0	-1E+10	1	-1E+10	1	-1E+10	1
4902624	44	C	09/04/2025	18:25	-128.893	48.924	0	49.00	0	10.3710	0	32.2320	0	24.731	0	48.579	0	-1e10	1	-1e10	1	-1E+10	1	-1e10	1	-1e10	1	-1E+10	1	-1E+10	1	-1E+10	1
4902624	44	C	09/04/2025	18:25	-128.893	48.924	0	49.90	0	10.2545	0	32.2441	0	24.760	0	49.471	0	226.8	4	81.4	4	-1E+10	1	0.6908	4	0.000930	0	-1E+10	1	-1E+10	1	-1E+10	1
4902624	44	C	09/04/2025	18:25	-128.893	48.924	0	51.00	0	10.1120	0	32.2590	0	24.795	0	50.561	0	223.3	4	79.9	4	-1E+10	1	0.5934	4	0.000797	0	-1E+10	1	-1E+10	1	-1E+10	1
4902624	44	C	09/04/2025	18:25	-128.893	48.924	0	52.20	0	9.9596	0	32.2830	0	24.839	0	51.751	0	225.7	4	80.5	4	-1E+10	1	0.4745	4	0.000918	0	-1E+10	1	-1E+10	1	-1E+10	1
4902624	44	C	09/04/2025	18:25	-128.893	48.924	0	53.00	0	9.8580	0	32.2990	0	24.868	0	52.544	0	-1e10	1	-1e10	1	-1E+10	1	-1e10	1	-1e10	1	-1E+10	1	-1E+10	1	-1E+10	1
4902624	44	C	09/04/2025	18:25	-128.893	48.924	0	53.50	0	9.8088	0	32.3066	0	24.882	0	53.040	0	224.9	4	80.0	4	-1E+10	1	0.4492	4	0.000785	0	-1E+10	1	-1E+10	1	-1E+10	1
4902624	44	C	09/04/2025	18:25	-128.893	48.924	0	54.80	0	9.6808	0	32.3265	0	24.919	0	54.328	0	224.1	4	79.5	4	-1E+10	1	0.4166	4	0.000793	0	-1E+10	1	-1E+10	1	-1E+10	1
4902624	44	C	09/04/2025	18:25	-128.893	48.924	0	54.90	0	9.6710	0	32.3280	0	24.921	0	54.427	0	-1e10	1	-1e10	1	-1E+10	1	-1e10	1	-1e10	1	-1E+10	1	-1E+10	1	-1E+10	1
4902624	44	C	09/04/2025	18:25	-128.893	48.924	0	56.10	0	9.6344	0	32.3328	0	24.931	0	55.617	0	223.2	4	79.1	4	-1E+10	1	0.4185	4	0.000691	0	-1E+10	1	-1E+10	1	-1E+10	1
4902624	44	C	09/04/2025	18:25	-128.893	48.924	0	56.90	0	9.6100	0	32.3360	0	24.938	0	56.410	0	-1e10	1	-1e10	1	-1E+10	1	-1e10	1	-1e10	1	-1E+10	1	-1E+10	1	-1E+10	1
4902624	44	C	09/04/2025	18:25	-128.893	48.924	0	57.40	0	9.5940	0	32.3393	0	24.943	0	56.906	0	222.3	4	78.7	4	-1E+10	1	0.3856	4	0.000636	0	-1E+10	1	-1E+10	1	-1E+10	1
4902624	44	C	09/04/2025	18:25	-128.893	48.924	0	58.90	0	9.5462	0	32.3493	0	24.958	0	58.392	0	221.4	4	78.3	4	-1E+10	1	0.3337	4	0.000636	0	-1E+10	1	-1E+10	1	-1E+10	1
4902624	44	C	09/04/2025	18:25	-128.893	48.924	0	59.00	0	9.5430	0	32.3500	0	24.959	0	58.492	0	-1e10	1	-1e10	1	-1E+10	1	-1e10	1	-1e10	1	-1E+10	1	-1E+10	1	-1E+10	1
4902624	44	C	09/04/2025	18:25	-128.893	48.924	0	60.30	0	9.4941	0	32.3618	0	24.976	0	59.780	0	220.7	4	78.0	4	-1E+10	1	0.3238	4	0.000624	0	-1E+10	1	-1E+10	1	-1E+10	1
4902624	44	C	09/04/2025	18:25	-128.893	48.924	0	61.10	0	9.4640	0	32.3690	0	24.987	0	60.573	0	-1e10	1	-1e10	1	-1E+10	1	-1e10	1	-1e10	1	-1E+10	1	-1E+10	1	-1E+10	1
4902624	44	C	09/04/2025	18:25	-128.893	48.924	0	61.70	0	9.4601	0	32.3702	0	24.988	0	61.168	0	219.8	4	77.6	4	-1E+10	1	0.3285	4	0.000632	0	-1E+10	1	-1E+10	1	-1E+10	1
4902624	44	C	09/04/2025	18:25	-128.893	48.924	0	63.10	0	9.4510	0	32.3730	0	24.992	0	62.556	0	215.3	4	76.0	4	-1E+10	1	0.3285	4	0.000780	0	-1E+10	1	-1E+10	1	-1E+10	1
4902624	44	C	09/04/2025	18:25	-128.893	48.924	0	64.40	0	9.4271	0	32.3757	0	24.998	0	63.844	0	217.7	4	76.8	4	-1E+10	1	0.2701	4	0.000589	0	-1E+10	1	-1E+10	1	-1E+10	1
4902624	44	C	09/04/2025	18:25	-128.893	48.924	0	65.00	0	9.4160	0	32.3770	0	25.001	0	64.439	0	-1e10	1	-1e10	1	-1E+10	1	-1e10	1	-1e10	1	-1E+10	1	-1E+10	1	-1E+10	1
4902624	44	C	09/04/2025	18:25	-128.893	48.924	0	65.80	0	9.3882	0	32.3825	0	25.009	0	65.232	0	216.5	4	76.3	4	-1E+10	1	0.2340	4	0.000599	0	-1E+10	1	-1E+10	1	-1E+10	1
4902624	44	C	09/04/2025	18:25	-128.893	48.924	0	66.90	0	9.3500	0	32.3900	0	25.021	0	66.322	0	-1e10	1	-1e10	1	-1E+10	1	-1e10	1	-1e10	1	-1E+10	1	-1E+10	1	-1E+10	1
4902624	44	C	09/04/2025	18:25	-128.893	48.924	0	67.20	0	9.3439	0	32.3919	0	25.024	0	66.620	0	214.7	4	75.7	4	-1E+10	1	0.2112	4	0.000625	0	-1E+10	1	-1E+10	1	-1E+10	1
4902624	44	C	09/04/2025	18:25	-128.893	48.924	0	68.50	0	9.3172	0	32.4004	0	25.035	0	67.908	0	212.8	4	74.9	4	-1E+10	1	0.2002	4	0.000582	0	-1E+10	1	-1E+10	1	-1E+10	1
4902624	44	C	09/04/2025	18:25	-128.893	48.924	0	68.90	0	9.3090	0	32.4030	0	25.038	0	68.305	0	-1e10	1	-1e10	1	-1E+10	1	-1e10	1	-1e10	1	-1E+10	1	-1E+10	1	-1E+10	1
4902624	44	C	09/04/2025	18:25	-128.893	48.924	0	69.80	0	9.2906	0	32.4090	0	25.046	0	69.197	0	210.4	4	74.0	4	-1E+10	1	0.1971	4	0.000569	0	-1E+10	1	-1E+10	1	-1E+10	1
4902624	44	C	09/04/2025	18:25	-128.893	48.924	0	71.00	0	9.2660	0	32.4170	0	25.056	0	70.386	0	-1e10	1	-1e10	1	-1E+10	1	-1e10	1	-1e10	1	-1E+10	1	-1E+10	1	-1E+10	1
4902624	44	C	09/04/2025	18:25	-128.893	48.924	0	71.10	0	9.2606	0	32.4193	0	25.059	0	70.485	0	207.7	4	73.0	4	-1E+10	1	0.1825	4	0.000593	0	-1E+10	1	-1E+10	1	-1E+10	1
4902624	44	C	09/04/2025	18:25	-128.893	48.924	0	72.40	0	9.1911	0	32.4485	0	25.092	0	71.774	0	205.0	4	72.0	4	-1E+10	1	0.1493	4	0.000590	0	-1E+10	1	-1E+10	1	-1E+10	1
4902624	44	C	09/04/2025	18:25	-128.893	48.924	0	73.00	0	9.1590	0	32.4620	0	25.108	0	72.368	0	-1e10	1	-1e10	1	-1E+10	1	-1e10	1	-1e10	1	-1E+10	1	-1E+10	1	-1E+10	1
4902624	44	C	09/04/2025	18:25	-128.893	48.924	0	73.50	0	9.1398	0	32.4735	0	25.120	0	72.864	0	202.6	4	71.1	4	-1E+10	1	0.1369	4	0.000595	0	-1E+10	1	-1E+10	1	-1E+10	1
4902624	44	C	09/04/2025	18:25	-128.893	48.924	0	74.40	0	9.1051	0	32.4942	0	25.142	0	73.756	0	200.4	4	70.3	4	-1E+10	1	0.1314	4	0.000507	0	-1E+10	1	-1E+10	1	-1E+10	1
4902624	44	C	09/04/2025	18:25	-128.893	48.924	0	75.00	0	9.0820	0	32.5080	0	25.156	0	74.351	0	-1e10	1	-1e10	1	-1E+10	1	-1e10	1	-1e10	1	-1E+10	1	-1E+10	1	-1E+10	1
4902624	44	C	09/04/2025	18:25	-128.893	48.924	0	75.30	0	9.0679	0	32.5199	0	25.168	0	74.648	0	198.3	4	69.5	4	-1E+10	1	0.1183	4	0.000707	0	-1E+10	1	-1E+10	1	-1E+10	1
4902624	44	C	09/04/2025	18:25	-128.893	48.924	0	76.10	0	9.0303	0	32.5515	0	25.198	0	75.441	0	196.6	4	68.9	4	-1E+10	1	0.0941	4	0.000502	0	-1E+10	1	-1E+10	1	-1E+10	1
4902624	44	C	09/04/2025	18:25	-128.893	48.924	0	76.90	0	8.9927	0	32.5831	0	25.229	0	76.234	0	194.7	4	68.1	4	-1E+10	1	0.0920	4	0.000422	0	-1E+10	1	-1E+10	1	-1E+10	1
4902624	44	C	09/04/2025	18:25	-128.893	48.924	0	77.00	0	8.9880	0	32.5870	0	25.233	0	76.333	0	-1e10	1	-1e10	1	-1E+10	1	-1e10	1	-1e10	1	-1E+10	1	-1E+10	1	-1E+10	1
4902624	44	C	09/04/2025	18:25	-128.893	48.924	0	77.80	0	8.9800	0	32.5958	0	25.241	0	77.126	0	192.4	4	67.3	4	-1E+10	1	0.0949	4	0.000478	0	-1E+10	1	-1E+10	1	-1E+10	1
4902624	44	C	09/04/2025	18:25	-128.893	48.924	0	78.60	0	8.9720	0	32.6046	0	25.249	0	77.919	0	189.7	4	66.4	4	-1E+10	1	0.0884	4	0.000478	0	-1E+10	1	-1E+10	1	-1E+10	1
4902624	44	C	09/04/2025	18:25	-128.893	48.924	0	79.00	0	8.9680	0	32.6090	0	25.253	0	78.315	0	-1e10	1	-1e10	1	-1E+10	1	-1e10	1	-1e10	1	-1E+10	1	-1E+10	1	-1E+10	1
4902624	44	C	09/04/2025	18:25	-128.893	48.924	0	79.40	0	8.9504	0	32.6302	0	25.272	0	78.712	0	186.9	4	65.4	4	-1E+10	1	0.0781	4	0.000399	0	-1E+10	1	-1E+10	1	-1E+10	1
4902624	44	C	09/04/2025	18:25	-128.893	48.924	0	80.30	0	8.9108	0	32.6779	0	25.316	0	79.604	0	184.2	4	64.4	4	-1E+10	1	0.0743	4	0.000383	0	-1E+10	1	-1E+10	1	-1E+10	1
4902624	44	C	09/04/2025	18:25	-128.893	48.924	0	81.00	0	8.8800	0	32.7150	0	25.349	0	80.298	0	-1e10	1	-1e10	1	-1E+10	1	-1e10	1	-1e10	1	-1E+10	1	-1E+10	1	-1E+10	1
4902624	44	C	09/04/2025	18:25	-128.893	48.924	0	81.20	0	8.8731	0	32.7228	0	25.357	0	80.496	0	181.7	4	63.5	4	-1E+10	1	0.0803	4	0.000460	0	-1E+10	1	-1E+10	1	-1E+10	1
4902624	44	C	09/04/2025	18:25	-128.893	48.924	0	82.00	0	8.8455	0	32.7540	0	25.385	0	81.289	0	179.2	4	62.6	4	-1E+10	1	0.0657	4	0.000366	0	-1E+10	1	-1E+10	1	-1E+10	1
4902624	44	C	09/04/2025	18:25	-128.893	48.924	0	82.80	0	8.8179	0	32.7852	0	25.414	0	82.082	0	176.9	4	61.8	4	-1E+10	1	0.0599	4	0.000443	0	-1E+10	1	-1E+10	1	-1E+10	1
4902624	44	C	09/04/2025	18:25	-128.893	48.924	0	83.00	0	8.8110	0	32.7930	0	25.421	0	82.280	0	-1e10	1	-1e10	1	-1E+10	1	-1e10	1	-1e10	1	-1E+10	1	-1E+10	1	-1E+10	1
4902624	44	C	09/04/2025	18:25	-128.893	48.924	0	83.50	0	8.7970	0	32.8117	0	25.438	0	82.776	0	174.9	4	61.1	4	-1E+10	1	0.0630	4	0.000409	0	-1E+10	1	-1E+10	1	-1E+10	1
4902624	44	C	09/04/2025	18:25	-128.893	48.924	0	84.10	0	8.7802	0	32.8343	0	25.458	0	83.370	0	173.2	4	60.5	4	-1E+10	1	0.0767	4	0.000369	0	-1E+10	1	-1E+10	1	-1E+10	1
4902624	44	C	09/04/2025	18:25	-128.893	48.924	0	84.50	0	8.7690	0	32.8493	0	25.472	0	83.767	0	171.7	4	59.9	4	-1E+10	1	0.0672	4	0.000366	0	-1E+10	1	-1E+10	1	-1E+10	1
4902624	44	C	09/04/2025	18:25	-128.893	48.924	0	84.90	0	8.7578	0	32.8643	0	25.485	0	84.163	0	170.4	4	59.5	4	-1E+10	1	0.0555	4	0.000361	0	-1E+10	1	-1E+10	1	-1E+10	1
4902624	44	C	09/04/2025	18:25	-128.893	48.924	0	85.00	0	8.7550	0	32.8680	0	25.489	0	84.262	0	-1e10	1	-1e10	1	-1E+10	1	-1e10	1	-1e10	1	-1E+10	1	-1E+10	1	-1E+10	1
4902624	44	C	09/04/2025	18:25	-128.893	48.924	0	85.30	0	8.7504	0	32.8740	0	25.494	0	84.560	0	168.9	4	59.0	4	-1E+10	1	0.0540	4	0.000354	0	-1E+10	1	-1E+10	1	-1E+10	1
4902624	44	C	09/04/2025	18:25	-128.893	48.924	0	85.80	0	8.7428	0	32.8840	0	25.503	0	85.055	0	167.0	4	58.3	4	-1E+10	1	0.0621	4	0.000364	0	-1E+10	1	-1E+10	1	-1E+10	1
4902624	44	C	09/04/2025	18:25	-128.893	48.924	0	86.30	0	8.7352	0	32.8940	0	25.512	0	85.551	0	164.7	4	57.5	4	-1E+10	1	0.0438	4	0.000413	0	-1E+10	1	-1E+10	1	-1E+10	1
4902624	44	C	09/04/2025	18:25	-128.893	48.924	0	86.70	0	8.7291	0	32.9020	0	25.519	0	85.947	0	162.2	4	56.6	4	-1E+10	1	0.0535	4	0.000405	0	-1E+10	1	-1E+10	1	-1E+10	1
4902624	44	C	09/04/2025	18:25	-128.893	48.924	0	87.10	0	8.7230	0	32.9100	0	25.526	0	86.344	0	-1e10	1	-1e10	1	-1E+10	1	-1e10	1	-1e10	1	-1E+10	1	-1E+10	1	-1E+10	1
4902624	44	C	09/04/2025	18:25	-128.893	48.924	0	87.30	0	8.7176	0	32.9173	0	25.533	0	86.542	0	159.7	4	55.7	4	-1E+10	1	0.0526	4	0.000382	0	-1E+10	1	-1E+10	1	-1E+10	1
4902624	44	C	09/04/2025	18:25	-128.893	48.924	0	87.80	0	8.7042	0	32.9354	0	25.549	0	87.037	0	157.2	4	54.8	4	-1E+10	1	0.0511	4	0.000378	0	-1E+10	1	-1E+10	1	-1E+10	1
4902624	44	C	09/04/2025	18:25	-128.893	48.924	0	88.30	0	8.6908	0	32.9536	0	25.565	0	87.533	0	155.1	4	54.1	4	-1E+10	1	0.0548	4	0.000384	0	-1E+10	1	-1E+10	1	-1E+10	1
4902624	44	C	09/04/2025	18:25	-128.893	48.924	0	88.90	0	8.6747	0	32.9754	0	25.585	0	88.128	0	153.1	4	53.4	4	-1E+10	1	0.0511	4	0.000360	0	-1E+10	1	-1E+10	1	-1E+10	1
4902624	44	C	09/04/2025	18:25	-128.893	48.924	0	89.00	0	8.6720	0	32.9790	0	25.588	0	88.227	0	-1e10	1	-1e10	1	-1E+10	1	-1e10	1	-1e10	1	-1E+10	1	-1E+10	1	-1E+10	1
4902624	44	C	09/04/2025	18:25	-128.893	48.924	0	89.50	0	8.6593	0	32.9948	0	25.603	0	88.722	0	151.0	4	52.6	4	-1E+10	1	0.0469	4	0.000326	0	-1E+10	1	-1E+10	1	-1E+10	1
4902624	44	C	09/04/2025	18:25	-128.893	48.924	0	90.10	0	8.6440	0	33.0136	0	25.620	0	89.317	0	148.8	4	51.9	4	-1E+10	1	0.0511	4	0.000335	0	-1E+10	1	-1E+10	1	-1E+10	1
4902624	44	C	09/04/2025	18:25	-128.893	48.924	0	90.70	0	8.6287	0	33.0326	0	25.637	0	89.912	0	146.8	4	51.1	4	-1E+10	1	0.0511	4	0.000359	0	-1E+10	1	-1E+10	1	-1E+10	1
4902624	44	C	09/04/2025	18:25	-128.893	48.924	0	91.00	0	8.6210	0	33.0420	0	25.645	0	90.209	0	-1e10	1	-1e10	1	-1E+10	1	-1e10	1	-1e10	1	-1E+10	1	-1E+10	1	-1E+10	1
4902624	44	C	09/04/2025	18:25	-128.893	48.924	0	91.30	0	8.6141	0	33.0499	0	25.653	0	90.506	0	144.9	4	50.5	4	-1E+10	1	0.0502	4	0.000345	0	-1E+10	1	-1E+10	1	-1E+10	1
4902624	44	C	09/04/2025	18:25	-128.893	48.924	0	92.00	0	8.5980	0	33.0685	0	25.670	0	91.200	0	142.7	4	49.7	4	-1E+10	1	0.0438	4	0.000366	0	-1E+10	1	-1E+10	1	-1E+10	1
4902624	44	C	09/04/2025	18:25	-128.893	48.924	0	92.70	0	8.5819	0	33.0871	0	25.687	0	91.894	0	140.4	4	48.9	4	-1E+10	1	0.0502	4	0.000397	0	-1E+10	1	-1E+10	1	-1E+10	1
4902624	44	C	09/04/2025	18:25	-128.893	48.924	0	93.00	0	8.5750	0	33.0950	0	25.694	0	92.191	0	-1e10	1	-1e10	1	-1E+10	1	-1e10	1	-1e10	1	-1E+10	1	-1E+10	1	-1E+10	1
4902624	44	C	09/04/2025	18:25	-128.893	48.924	0	93.40	0	8.5622	0	33.1104	0	25.708	0	92.587	0	138.0	4	48.1	4	-1E+10	1	0.0456	4	0.000366	0	-1E+10	1	-1E+10	1	-1E+10	1
4902624	44	C	09/04/2025	18:25	-128.893	48.924	0	94.20	0	8.5365	0	33.1411	0	25.736	0	93.380	0	136.0	4	47.3	4	-1E+10	1	0.0438	4	0.000385	0	-1E+10	1	-1E+10	1	-1E+10	1
4902624	44	C	09/04/2025	18:25	-128.893	48.924	0	94.90	0	8.5140	0	33.1680	0	25.760	0	94.074	0	131.1	4	45.6	4	-1E+10	1	0.0503	4	0.000406	0	-1E+10	1	-1E+10	1	-1E+10	1
4902624	44	C	09/04/2025	18:25	-128.893	48.924	0	95.80	0	8.4926	0	33.1929	0	25.783	0	94.966	0	132.3	4	46.0	4	-1E+10	1	0.0511	4	0.000389	0	-1E+10	1	-1E+10	1	-1E+10	1
4902624	44	C	09/04/2025	18:25	-128.893	48.924	0	96.60	0	8.4735	0	33.2150	0	25.803	0	95.759	0	130.8	4	45.5	4	-1E+10	1	0.0411	4	0.000362	0	-1E+10	1	-1E+10	1	-1E+10	1
4902624	44	C	09/04/2025	18:25	-128.893	48.924	0	97.00	0	8.4640	0	33.2260	0	25.814	0	96.155	0	-1e10	1	-1e10	1	-1E+10	1	-1e10	1	-1e10	1	-1E+10	1	-1E+10	1	-1E+10	1
4902624	44	C	09/04/2025	18:25	-128.893	48.924	0	97.40	0	8.4571	0	33.2310	0	25.818	0	96.552	0	129.3	4	45.0	4	-1E+10	1	0.0387	4	0.000352	0	-1E+10	1	-1E+10	1	-1E+10	1
4902624	44	C	09/04/2025	18:25	-128.893	48.924	0	98.30	0	8.4417	0	33.2421	0	25.830	0	97.444	0	127.9	4	44.5	4	-1E+10	1	0.0584	4	0.000331	0	-1E+10	1	-1E+10	1	-1E+10	1
4902624	44	C	09/04/2025	18:25	-128.893	48.924	0	99.10	0	8.4280	0	33.2520	0	25.839	0	98.236	0	123.5	4	42.9	4	-1E+10	1	0.0438	4	0.000601	0	-1E+10	1	-1E+10	1	-1E+10	1
4902624	44	C	09/04/2025	18:25	-128.893	48.924	0	100.00	0	8.4190	0	33.2605	0	25.847	0	99.128	0	124.8	4	43.4	4	-1E+10	1	0.0498	4	0.000409	0	-1E+10	1	-1E+10	1	-1E+10	1
4902624	44	C	09/04/2025	18:25	-128.893	48.924	0	100.90	0	8.4100	0	33.2691	0	25.855	0	100.020	0	123.0	4	42.7	4	-1E+10	1	0.0465	4	0.000358	0	-1E+10	1	-1E+10	1	-1E+10	1
4902624	44	C	09/04/2025	18:25	-128.893	48.924	0	101.00	0	8.4090	0	33.2700	0	25.856	0	100.119	0	-1e10	1	-1e10	1	-1E+10	1	-1e10	1	-1e10	1	-1E+10	1	-1E+10	1	-1E+10	1
4902624	44	C	09/04/2025	18:25	-128.893	48.924	0	101.90	0	8.3964	0	33.2853	0	25.870	0	101.011	0	121.1	4	42.0	4	-1E+10	1	0.0482	4	0.000340	0	-1E+10	1	-1E+10	1	-1E+10	1
4902624	44	C	09/04/2025	18:25	-128.893	48.924	0	102.90	0	8.3824	0	33.3023	0	25.886	0	102.002	0	119.1	4	41.4	4	-1E+10	1	0.0548	4	0.000471	0	-1E+10	1	-1E+10	1	-1E+10	1
4902624	44	C	09/04/2025	18:25	-128.893	48.924	0	103.00	0	8.3810	0	33.3040	0	25.887	0	102.102	0	-1e10	1	-1e10	1	-1E+10	1	-1e10	1	-1e10	1	-1E+10	1	-1E+10	1	-1E+10	1
4902624	44	C	09/04/2025	18:25	-128.893	48.924	0	103.90	0	8.3801	0	33.3202	0	25.900	0	102.993	0	117.2	4	40.7	4	-1E+10	1	0.0535	4	0.000573	0	-1E+10	1	-1E+10	1	-1E+10	1
4902624	44	C	09/04/2025	18:25	-128.893	48.924	0	104.90	0	8.3791	0	33.3382	0	25.914	0	103.984	0	115.7	4	40.2	4	-1E+10	1	0.0423	4	0.000474	0	-1E+10	1	-1E+10	1	-1E+10	1
4902624	44	C	09/04/2025	18:25	-128.893	48.924	0	105.00	0	8.3790	0	33.3400	0	25.916	0	104.084	0	-1e10	1	-1e10	1	-1E+10	1	-1e10	1	-1e10	1	-1E+10	1	-1E+10	1	-1E+10	1
4902624	44	C	09/04/2025	18:25	-128.893	48.924	0	106.00	0	8.3670	0	33.3615	0	25.935	0	105.075	0	113.8	4	39.5	4	-1E+10	1	0.0381	4	0.000382	0	-1E+10	1	-1E+10	1	-1E+10	1
4902624	44	C	09/04/2025	18:25	-128.893	48.924	0	107.00	0	8.3550	0	33.3830	0	25.953	0	106.066	0	-1e10	1	-1e10	1	-1E+10	1	-1e10	1	-1e10	1	-1E+10	1	-1E+10	1	-1E+10	1
4902624	44	C	09/04/2025	18:25	-128.893	48.924	0	107.10	0	8.3525	0	33.3861	0	25.956	0	106.165	0	112.1	4	38.9	4	-1E+10	1	0.0438	4	0.000354	0	-1E+10	1	-1E+10	1	-1E+10	1
4902624	44	C	09/04/2025	18:25	-128.893	48.924	0	108.30	0	8.3222	0	33.4227	0	25.989	0	107.354	0	110.7	4	38.4	4	-1E+10	1	0.0496	4	0.000485	0	-1E+10	1	-1E+10	1	-1E+10	1
4902624	44	C	09/04/2025	18:25	-128.893	48.924	0	108.90	0	8.3070	0	33.4410	0	26.006	0	107.949	0	-1e10	1	-1e10	1	-1E+10	1	-1e10	1	-1e10	1	-1E+10	1	-1E+10	1	-1E+10	1
4902624	44	C	09/04/2025	18:25	-128.893	48.924	0	109.60	0	8.2997	0	33.4498	0	26.014	0	108.642	0	109.6	4	38.0	4	-1E+10	1	0.0389	4	0.000381	0	-1E+10	1	-1E+10	1	-1E+10	1
4902624	44	C	09/04/2025	18:25	-128.893	48.924	0	110.80	0	8.2871	0	33.4647	0	26.028	0	109.831	0	108.5	4	37.6	4	-1E+10	1	0.0365	4	0.000354	0	-1E+10	1	-1E+10	1	-1E+10	1
4902624	44	C	09/04/2025	18:25	-128.893	48.924	0	110.90	0	8.2860	0	33.4660	0	26.029	0	109.931	0	-1e10	1	-1e10	1	-1E+10	1	-1e10	1	-1e10	1	-1E+10	1	-1E+10	1	-1E+10	1
4902624	44	C	09/04/2025	18:25	-128.893	48.924	0	112.10	0	8.2843	0	33.4729	0	26.034	0	111.120	0	107.4	4	37.3	4	-1E+10	1	0.0402	4	0.000348	0	-1E+10	1	-1E+10	1	-1E+10	1
4902624	44	C	09/04/2025	18:25	-128.893	48.924	0	113.00	0	8.2830	0	33.4780	0	26.039	0	112.012	0	-1e10	1	-1e10	1	-1E+10	1	-1e10	1	-1e10	1	-1E+10	1	-1E+10	1	-1E+10	1
4902624	44	C	09/04/2025	18:25	-128.893	48.924	0	113.40	0	8.2794	0	33.4850	0	26.045	0	112.408	0	106.3	4	36.9	4	-1E+10	1	0.0438	4	0.000357	0	-1E+10	1	-1E+10	1	-1E+10	1
4902624	44	C	09/04/2025	18:25	-128.893	48.924	0	114.70	0	8.2677	0	33.5078	0	26.064	0	113.696	0	105.3	4	36.5	4	-1E+10	1	0.0493	4	0.000377	0	-1E+10	1	-1E+10	1	-1E+10	1
4902624	44	C	09/04/2025	18:25	-128.893	48.924	0	115.00	0	8.2650	0	33.5130	0	26.069	0	113.994	0	-1e10	1	-1e10	1	-1E+10	1	-1e10	1	-1e10	1	-1E+10	1	-1E+10	1	-1E+10	1
4902624	44	C	09/04/2025	18:25	-128.893	48.924	0	116.00	0	8.2595	0	33.5190	0	26.074	0	114.985	0	104.5	4	36.3	4	-1E+10	1	0.0543	4	0.000362	0	-1E+10	1	-1E+10	1	-1E+10	1
4902624	44	C	09/04/2025	18:25	-128.893	48.924	0	117.00	0	8.2540	0	33.5250	0	26.080	0	115.975	0	-1e10	1	-1e10	1	-1E+10	1	-1e10	1	-1e10	1	-1E+10	1	-1E+10	1	-1E+10	1
4902624	44	C	09/04/2025	18:25	-128.893	48.924	0	117.30	0	8.2512	0	33.5271	0	26.082	0	116.273	0	103.8	4	36.0	4	-1E+10	1	0.0365	4	0.000295	0	-1E+10	1	-1E+10	1	-1E+10	1
4902624	44	C	09/04/2025	18:25	-128.893	48.924	0	118.60	0	8.2388	0	33.5362	0	26.091	0	117.561	0	102.9	4	35.7	4	-1E+10	1	0.0292	4	0.000553	0	-1E+10	1	-1E+10	1	-1E+10	1
4902624	44	C	09/04/2025	18:25	-128.893	48.924	0	119.00	0	8.2350	0	33.5390	0	26.094	0	117.957	0	-1e10	1	-1e10	1	-1E+10	1	-1e10	1	-1e10	1	-1E+10	1	-1E+10	1	-1E+10	1
4902624	44	C	09/04/2025	18:25	-128.893	48.924	0	119.90	0	8.2238	0	33.5485	0	26.103	0	118.849	0	102.1	4	35.4	4	-1E+10	1	0.0470	4	0.000410	0	-1E+10	1	-1E+10	1	-1E+10	1
4902624	44	C	09/04/2025	18:25	-128.893	48.924	0	121.00	0	8.2100	0	33.5600	0	26.114	0	119.939	0	-1e10	1	-1e10	1	-1E+10	1	-1e10	1	-1e10	1	-1E+10	1	-1E+10	1	-1E+10	1
4902624	44	C	09/04/2025	18:25	-128.893	48.924	0	121.20	0	8.2081	0	33.5618	0	26.116	0	120.137	0	101.2	4	35.1	4	-1E+10	1	0.0420	4	0.000348	0	-1E+10	1	-1E+10	1	-1E+10	1
4902624	44	C	09/04/2025	18:25	-128.893	48.924	0	122.60	0	8.1948	0	33.5743	0	26.127	0	121.525	0	100.4	4	34.8	4	-1E+10	1	0.0365	4	0.000330	0	-1E+10	1	-1E+10	1	-1E+10	1
4902624	44	C	09/04/2025	18:25	-128.893	48.924	0	122.90	0	8.1920	0	33.5770	0	26.130	0	121.822	0	-1e10	1	-1e10	1	-1E+10	1	-1e10	1	-1e10	1	-1E+10	1	-1E+10	1	-1E+10	1
4902624	44	C	09/04/2025	18:25	-128.893	48.924	0	123.80	0	8.1869	0	33.5830	0	26.136	0	122.714	0	99.6	4	34.5	4	-1E+10	1	0.0433	4	0.000314	0	-1E+10	1	-1E+10	1	-1E+10	1
4902624	44	C	09/04/2025	18:25	-128.893	48.924	0	125.00	0	8.1800	0	33.5910	0	26.143	0	123.903	0	96.4	4	33.4	4	-1E+10	1	0.0511	4	0.000317	0	-1E+10	1	-1E+10	1	-1E+10	1
4902624	44	C	09/04/2025	18:25	-128.893	48.924	0	126.10	0	8.1750	0	33.5954	0	26.147	0	124.993	0	98.1	4	34.0	4	-1E+10	1	0.0511	4	0.000359	0	-1E+10	1	-1E+10	1	-1E+10	1
4902624	44	C	09/04/2025	18:25	-128.893	48.924	0	127.00	0	8.1710	0	33.5990	0	26.150	0	125.885	0	94.7	4	32.8	4	-1E+10	1	0.0511	4	0.000325	0	-1E+10	1	-1E+10	1	-1E+10	1
4902624	44	C	09/04/2025	18:25	-128.893	48.924	0	127.80	0	8.1649	0	33.6055	0	26.156	0	126.678	0	96.2	4	33.3	4	-1E+10	1	0.0511	4	0.000283	0	-1E+10	1	-1E+10	1	-1E+10	1
4902624	44	C	09/04/2025	18:25	-128.893	48.924	0	128.60	0	8.1588	0	33.6120	0	26.162	0	127.470	0	95.4	4	33.0	4	-1E+10	1	0.0511	4	0.000302	0	-1E+10	1	-1E+10	1	-1E+10	1
4902624	44	C	09/04/2025	18:25	-128.893	48.924	0	129.10	0	8.1550	0	33.6160	0	26.166	0	127.966	0	-1e10	1	-1e10	1	-1E+10	1	-1e10	1	-1e10	1	-1E+10	1	-1E+10	1	-1E+10	1
4902624	44	C	09/04/2025	18:25	-128.893	48.924	0	129.40	0	8.1487	0	33.6211	0	26.171	0	128.263	0	94.7	4	32.8	4	-1E+10	1	0.0347	4	0.000316	0	-1E+10	1	-1E+10	1	-1E+10	1
4902624	44	C	09/04/2025	18:25	-128.893	48.924	0	130.30	0	8.1297	0	33.6362	0	26.186	0	129.155	0	94.0	4	32.5	4	-1E+10	1	0.0445	4	0.000376	0	-1E+10	1	-1E+10	1	-1E+10	1
4902624	44	C	09/04/2025	18:25	-128.893	48.924	0	131.00	0	8.1150	0	33.6480	0	26.197	0	129.848	0	-1e10	1	-1e10	1	-1E+10	1	-1e10	1	-1e10	1	-1E+10	1	-1E+10	1	-1E+10	1
4902624	44	C	09/04/2025	18:25	-128.893	48.924	0	131.10	0	8.1132	0	33.6495	0	26.199	0	129.948	0	93.3	4	32.3	4	-1E+10	1	0.0474	4	0.000495	0	-1E+10	1	-1E+10	1	-1E+10	1
4902624	44	C	09/04/2025	18:25	-128.893	48.924	0	131.90	0	8.0984	0	33.6613	0	26.210	0	130.740	0	92.7	4	32.1	4	-1E+10	1	0.0438	4	0.000487	0	-1E+10	1	-1E+10	1	-1E+10	1
4902624	44	C	09/04/2025	18:25	-128.893	48.924	0	132.80	0	8.0818	0	33.6745	0	26.223	0	131.632	0	92.2	4	31.9	4	-1E+10	1	0.0467	4	0.000333	0	-1E+10	1	-1E+10	1	-1E+10	1
4902624	44	C	09/04/2025	18:25	-128.893	48.924	0	132.90	0	8.0800	0	33.6760	0	26.224	0	131.731	0	-1e10	1	-1e10	1	-1E+10	1	-1e10	1	-1e10	1	-1E+10	1	-1E+10	1	-1E+10	1
4902624	44	C	09/04/2025	18:25	-128.893	48.924	0	133.60	0	8.0703	0	33.6817	0	26.230	0	132.425	0	91.7	4	31.7	4	-1E+10	1	0.0496	4	0.000349	0	-1E+10	1	-1E+10	1	-1E+10	1
4902624	44	C	09/04/2025	18:25	-128.893	48.924	0	134.40	0	8.0593	0	33.6881	0	26.237	0	133.218	0	91.3	4	31.6	4	-1E+10	1	0.0438	4	0.000330	0	-1E+10	1	-1E+10	1	-1E+10	1
4902624	44	C	09/04/2025	18:25	-128.893	48.924	0	135.00	0	8.0510	0	33.6930	0	26.242	0	133.812	0	-1e10	1	-1e10	1	-1E+10	1	-1e10	1	-1e10	1	-1E+10	1	-1E+10	1	-1E+10	1
4902624	44	C	09/04/2025	18:25	-128.893	48.924	0	135.20	0	8.0494	0	33.6939	0	26.243	0	134.010	0	90.8	4	31.4	4	-1E+10	1	0.0438	4	0.000330	0	-1E+10	1	-1E+10	1	-1E+10	1
4902624	44	C	09/04/2025	18:25	-128.893	48.924	0	136.00	0	8.0430	0	33.6975	0	26.247	0	134.803	0	90.2	4	31.2	4	-1E+10	1	0.0496	4	0.000312	0	-1E+10	1	-1E+10	1	-1E+10	1
4902624	44	C	09/04/2025	18:25	-128.893	48.924	0	136.80	0	8.0366	0	33.7011	0	26.251	0	135.596	0	89.7	4	31.0	4	-1E+10	1	0.0511	4	0.000293	0	-1E+10	1	-1E+10	1	-1E+10	1
4902624	44	C	09/04/2025	18:25	-128.893	48.924	0	137.00	0	8.0350	0	33.7020	0	26.252	0	135.794	0	-1e10	1	-1e10	1	-1E+10	1	-1e10	1	-1e10	1	-1E+10	1	-1E+10	1	-1E+10	1
4902624	44	C	09/04/2025	18:25	-128.893	48.924	0	137.60	0	8.0290	0	33.7071	0	26.256	0	136.388	0	89.2	4	30.8	4	-1E+10	1	0.0511	4	0.000348	0	-1E+10	1	-1E+10	1	-1E+10	1
4902624	44	C	09/04/2025	18:25	-128.893	48.924	0	138.50	0	8.0200	0	33.7148	0	26.264	0	137.280	0	88.7	4	30.6	4	-1E+10	1	0.0511	4	0.000373	0	-1E+10	1	-1E+10	1	-1E+10	1
4902624	44	C	09/04/2025	18:25	-128.893	48.924	0	139.00	0	8.0150	0	33.7190	0	26.268	0	137.776	0	-1e10	1	-1e10	1	-1E+10	1	-1e10	1	-1e10	1	-1E+10	1	-1E+10	1	-1E+10	1
4902624	44	C	09/04/2025	18:25	-128.893	48.924	0	139.30	0	8.0134	0	33.7205	0	26.269	0	138.073	0	88.3	4	30.5	4	-1E+10	1	0.0511	4	0.000356	0	-1E+10	1	-1E+10	1	-1E+10	1
4902624	44	C	09/04/2025	18:25	-128.893	48.924	0	140.10	0	8.0090	0	33.7245	0	26.273	0	138.865	0	87.9	4	30.4	4	-1E+10	1	0.0474	4	0.000395	0	-1E+10	1	-1E+10	1	-1E+10	1
4902624	44	C	09/04/2025	18:25	-128.893	48.924	0	140.90	0	8.0045	0	33.7285	0	26.277	0	139.658	0	87.6	4	30.2	4	-1E+10	1	0.0397	4	0.000416	0	-1E+10	1	-1E+10	1	-1E+10	1
4902624	44	C	09/04/2025	18:25	-128.893	48.924	0	141.00	0	8.0040	0	33.7290	0	26.277	0	139.757	0	-1e10	1	-1e10	1	-1E+10	1	-1e10	1	-1e10	1	-1E+10	1	-1E+10	1	-1E+10	1
4902624	44	C	09/04/2025	18:25	-128.893	48.924	0	141.60	0	8.0010	0	33.7308	0	26.279	0	140.352	0	87.2	4	30.1	4	-1E+10	1	0.0511	4	0.000307	0	-1E+10	1	-1E+10	1	-1E+10	1
4902624	44	C	09/04/2025	18:25	-128.893	48.924	0	142.50	0	7.9965	0	33.7335	0	26.282	0	141.243	0	86.9	4	30.0	4	-1E+10	1	0.0445	4	0.000286	0	-1E+10	1	-1E+10	1	-1E+10	1
4902624	44	C	09/04/2025	18:25	-128.893	48.924	0	143.00	0	7.9940	0	33.7350	0	26.284	0	141.739	0	-1e10	1	-1e10	1	-1E+10	1	-1e10	1	-1e10	1	-1E+10	1	-1E+10	1	-1E+10	1
4902624	44	C	09/04/2025	18:25	-128.893	48.924	0	143.20	0	7.9926	0	33.7355	0	26.284	0	141.937	0	86.5	4	29.9	4	-1E+10	1	0.0438	4	0.000319	0	-1E+10	1	-1E+10	1	-1E+10	1
4902624	44	C	09/04/2025	18:25	-128.893	48.924	0	144.00	0	7.9872	0	33.7376	0	26.287	0	142.730	0	86.1	4	29.7	4	-1E+10	1	0.0482	4	0.000316	0	-1E+10	1	-1E+10	1	-1E+10	1
4902624	44	C	09/04/2025	18:25	-128.893	48.924	0	144.80	0	7.9817	0	33.7397	0	26.289	0	143.522	0	85.7	4	29.6	4	-1E+10	1	0.0414	4	0.000312	0	-1E+10	1	-1E+10	1	-1E+10	1
4902624	44	C	09/04/2025	18:25	-128.893	48.924	0	144.90	0	7.9810	0	33.7400	0	26.289	0	143.621	0	-1e10	1	-1e10	1	-1E+10	1	-1e10	1	-1e10	1	-1E+10	1	-1E+10	1	-1E+10	1
4902624	44	C	09/04/2025	18:25	-128.893	48.924	0	145.60	0	7.9783	0	33.7413	0	26.291	0	144.315	0	85.2	4	29.4	4	-1E+10	1	0.0374	4	0.000349	0	-1E+10	1	-1E+10	1	-1E+10	1
4902624	44	C	09/04/2025	18:25	-128.893	48.924	0	146.40	0	7.9753	0	33.7429	0	26.293	0	145.108	0	84.7	4	29.2	4	-1E+10	1	0.0511	4	0.000381	0	-1E+10	1	-1E+10	1	-1E+10	1
4902624	44	C	09/04/2025	18:25	-128.893	48.924	0	147.00	0	7.9730	0	33.7440	0	26.294	0	145.702	0	-1e10	1	-1e10	1	-1E+10	1	-1e10	1	-1e10	1	-1E+10	1	-1E+10	1	-1E+10	1
4902624	44	C	09/04/2025	18:25	-128.893	48.924	0	147.10	0	7.9732	0	33.7446	0	26.294	0	145.801	0	84.2	4	29.1	4	-1E+10	1	0.0519	4	0.000339	0	-1E+10	1	-1E+10	1	-1E+10	1
4902624	44	C	09/04/2025	18:25	-128.893	48.924	0	147.90	0	7.9743	0	33.7499	0	26.298	0	146.594	0	83.8	4	28.9	4	-1E+10	1	0.0584	4	0.000318	0	-1E+10	1	-1E+10	1	-1E+10	1
4902624	44	C	09/04/2025	18:25	-128.893	48.924	0	148.70	0	7.9755	0	33.7551	0	26.302	0	147.387	0	83.6	4	28.9	4	-1E+10	1	0.0438	4	0.000307	0	-1E+10	1	-1E+10	1	-1E+10	1
4902624	44	C	09/04/2025	18:25	-128.893	48.924	0	149.00	0	7.9760	0	33.7570	0	26.304	0	147.684	0	-1e10	1	-1e10	1	-1E+10	1	-1e10	1	-1e10	1	-1E+10	1	-1E+10	1	-1E+10	1
4902624	44	C	09/04/2025	18:25	-128.893	48.924	0	149.50	0	7.9703	0	33.7593	0	26.306	0	148.179	0	83.4	4	28.8	4	-1E+10	1	0.0496	4	0.000363	0	-1E+10	1	-1E+10	1	-1E+10	1
4902624	44	C	09/04/2025	18:25	-128.893	48.924	0	150.40	0	7.9599	0	33.7633	0	26.311	0	149.071	0	83.2	4	28.7	4	-1E+10	1	0.0319	4	0.000367	0	-1E+10	1	-1E+10	1	-1E+10	1
4902624	44	C	09/04/2025	18:25	-128.893	48.924	0	151.00	0	7.9530	0	33.7660	0	26.314	0	149.665	0	-1e10	1	-1e10	1	-1E+10	1	-1e10	1	-1e10	1	-1E+10	1	-1E+10	1	-1E+10	1
4902624	44	C	09/04/2025	18:25	-128.893	48.924	0	151.20	0	7.9499	0	33.7669	0	26.315	0	149.864	0	83.0	4	28.6	4	-1E+10	1	0.0519	4	0.000356	0	-1E+10	1	-1E+10	1	-1E+10	1
4902624	44	C	09/04/2025	18:25	-128.893	48.924	0	152.00	0	7.9377	0	33.7707	0	26.320	0	150.656	0	82.8	4	28.6	4	-1E+10	1	0.0496	4	0.000340	0	-1E+10	1	-1E+10	1	-1E+10	1
4902624	44	C	09/04/2025	18:25	-128.893	48.924	0	152.90	0	7.9240	0	33.7750	0	26.325	0	151.548	0	80.4	4	27.7	4	-1E+10	1	0.0438	4	0.000318	0	-1E+10	1	-1E+10	1	-1E+10	1
4902624	44	C	09/04/2025	18:25	-128.893	48.924	0	153.70	0	7.9196	0	33.7762	0	26.327	0	152.341	0	82.4	4	28.4	4	-1E+10	1	0.0465	4	0.000320	0	-1E+10	1	-1E+10	1	-1E+10	1
4902624	44	C	09/04/2025	18:25	-128.893	48.924	0	154.50	0	7.9152	0	33.7774	0	26.329	0	153.133	0	82.3	4	28.4	4	-1E+10	1	0.0489	4	0.000342	0	-1E+10	1	-1E+10	1	-1E+10	1
4902624	44	C	09/04/2025	18:25	-128.893	48.924	0	154.90	0	7.9130	0	33.7780	0	26.329	0	153.530	0	-1e10	1	-1e10	1	-1E+10	1	-1e10	1	-1e10	1	-1E+10	1	-1E+10	1	-1E+10	1
4902624	44	C	09/04/2025	18:25	-128.893	48.924	0	155.40	0	7.9116	0	33.7785	0	26.330	0	154.025	0	82.1	4	28.3	4	-1E+10	1	0.0423	4	0.000340	0	-1E+10	1	-1E+10	1	-1E+10	1
4902624	44	C	09/04/2025	18:25	-128.893	48.924	0	156.20	0	7.9093	0	33.7792	0	26.331	0	154.818	0	81.8	4	28.2	4	-1E+10	1	0.0365	4	0.000330	0	-1E+10	1	-1E+10	1	-1E+10	1
4902624	44	C	09/04/2025	18:25	-128.893	48.924	0	157.00	0	7.9070	0	33.7800	0	26.332	0	155.610	0	79.3	4	27.3	4	-1E+10	1	0.0511	4	0.000294	0	-1E+10	1	-1E+10	1	-1E+10	1
4902624	44	C	09/04/2025	18:25	-128.893	48.924	0	157.90	0	7.8989	0	33.7831	0	26.336	0	156.502	0	81.1	4	28.0	4	-1E+10	1	0.0511	4	0.000324	0	-1E+10	1	-1E+10	1	-1E+10	1
4902624	44	C	09/04/2025	18:25	-128.893	48.924	0	158.80	0	7.8908	0	33.7863	0	26.339	0	157.394	0	80.9	4	27.9	4	-1E+10	1	0.0460	4	0.000314	0	-1E+10	1	-1E+10	1	-1E+10	1
4902624	44	C	09/04/2025	18:25	-128.893	48.924	0	159.00	0	7.8890	0	33.7870	0	26.340	0	157.592	0	-1e10	1	-1e10	1	-1E+10	1	-1e10	1	-1e10	1	-1E+10	1	-1E+10	1	-1E+10	1
4902624	44	C	09/04/2025	18:25	-128.893	48.924	0	159.60	0	7.8809	0	33.7900	0	26.344	0	158.186	0	80.7	4	27.8	4	-1E+10	1	0.0479	4	0.000352	0	-1E+10	1	-1E+10	1	-1E+10	1
4902624	44	C	09/04/2025	18:25	-128.893	48.924	0	160.50	0	7.8688	0	33.7945	0	26.349	0	159.078	0	80.6	4	27.7	4	-1E+10	1	0.0511	4	0.000341	0	-1E+10	1	-1E+10	1	-1E+10	1
4902624	44	C	09/04/2025	18:25	-128.893	48.924	0	161.00	0	7.8620	0	33.7970	0	26.352	0	159.573	0	-1e10	1	-1e10	1	-1E+10	1	-1e10	1	-1e10	1	-1E+10	1	-1E+10	1	-1E+10	1
4902624	44	C	09/04/2025	18:25	-128.893	48.924	0	161.40	0	7.8598	0	33.7976	0	26.353	0	159.969	0	80.3	4	27.7	4	-1E+10	1	0.0540	4	0.000341	0	-1E+10	1	-1E+10	1	-1E+10	1
4902624	44	C	09/04/2025	18:25	-128.893	48.924	0	162.20	0	7.8554	0	33.7988	0	26.354	0	160.762	0	80.2	4	27.6	4	-1E+10	1	0.0552	4	0.000389	0	-1E+10	1	-1E+10	1	-1E+10	1
4902624	44	C	09/04/2025	18:25	-128.893	48.924	0	163.00	0	7.8510	0	33.8000	0	26.356	0	161.555	0	-1e10	1	-1e10	1	-1E+10	1	-1e10	1	-1e10	1	-1E+10	1	-1E+10	1	-1E+10	1
4902624	44	C	09/04/2025	18:25	-128.893	48.924	0	163.10	0	7.8505	0	33.8001	0	26.356	0	161.654	0	80.1	4	27.6	4	-1E+10	1	0.0425	4	0.001011	0	-1E+10	1	-1E+10	1	-1E+10	1
4902624	44	C	09/04/2025	18:25	-128.893	48.924	0	164.00	0	7.8465	0	33.8010	0	26.357	0	162.545	0	79.9	4	27.5	4	-1E+10	1	0.0365	4	0.004178	0	-1E+10	1	-1E+10	1	-1E+10	1
4902624	44	C	09/04/2025	18:25	-128.893	48.924	0	164.90	0	7.8425	0	33.8019	0	26.359	0	163.437	0	79.7	4	27.4	4	-1E+10	1	0.0365	4	0.000767	0	-1E+10	1	-1E+10	1	-1E+10	1
4902624	44	C	09/04/2025	18:25	-128.893	48.924	0	165.00	0	7.8420	0	33.8020	0	26.359	0	163.536	0	-1e10	1	-1e10	1	-1E+10	1	-1e10	1	-1e10	1	-1E+10	1	-1E+10	1	-1E+10	1
4902624	44	C	09/04/2025	18:25	-128.893	48.924	0	165.70	0	7.8262	0	33.8061	0	26.364	0	164.230	0	79.5	4	27.4	4	-1E+10	1	0.0479	4	0.000334	0	-1E+10	1	-1E+10	1	-1E+10	1
4902624	44	C	09/04/2025	18:25	-128.893	48.924	0	166.60	0	7.8058	0	33.8113	0	26.371	0	165.121	0	79.4	4	27.3	4	-1E+10	1	0.0511	4	0.000356	0	-1E+10	1	-1E+10	1	-1E+10	1
4902624	44	C	09/04/2025	18:25	-128.893	48.924	0	166.90	0	7.7990	0	33.8130	0	26.374	0	165.419	0	-1e10	1	-1e10	1	-1E+10	1	-1e10	1	-1e10	1	-1E+10	1	-1E+10	1	-1E+10	1
4902624	44	C	09/04/2025	18:25	-128.893	48.924	0	167.50	0	7.7876	0	33.8156	0	26.377	0	166.013	0	79.3	4	27.3	4	-1E+10	1	0.0511	4	0.000336	0	-1E+10	1	-1E+10	1	-1E+10	1
4902624	44	C	09/04/2025	18:25	-128.893	48.924	0	168.40	0	7.7704	0	33.8194	0	26.383	0	166.905	0	79.1	4	27.2	4	-1E+10	1	0.0446	4	0.000310	0	-1E+10	1	-1E+10	1	-1E+10	1
4902624	44	C	09/04/2025	18:25	-128.893	48.924	0	169.00	0	7.7590	0	33.8220	0	26.387	0	167.499	0	-1e10	1	-1e10	1	-1E+10	1	-1e10	1	-1e10	1	-1E+10	1	-1E+10	1	-1E+10	1
4902624	44	C	09/04/2025	18:25	-128.893	48.924	0	169.30	0	7.7557	0	33.8228	0	26.388	0	167.796	0	79.0	4	27.2	4	-1E+10	1	0.0418	4	0.000351	0	-1E+10	1	-1E+10	1	-1E+10	1
4902624	44	C	09/04/2025	18:25	-128.893	48.924	0	170.20	0	7.7458	0	33.8250	0	26.391	0	168.688	0	78.9	4	27.1	4	-1E+10	1	0.0511	4	0.000380	0	-1E+10	1	-1E+10	1	-1E+10	1
4902624	44	C	09/04/2025	18:25	-128.893	48.924	0	171.00	0	7.7370	0	33.8270	0	26.394	0	169.480	0	-1e10	1	-1e10	1	-1E+10	1	-1e10	1	-1e10	1	-1E+10	1	-1E+10	1	-1E+10	1
4902624	44	C	09/04/2025	18:25	-128.893	48.924	0	171.10	0	7.7364	0	33.8271	0	26.394	0	169.580	0	78.8	4	27.1	4	-1E+10	1	0.0511	4	0.000342	0	-1E+10	1	-1E+10	1	-1E+10	1
4902624	44	C	09/04/2025	18:25	-128.893	48.924	0	172.00	0	7.7305	0	33.8280	0	26.395	0	170.471	0	78.6	4	27.0	4	-1E+10	1	0.0365	4	0.000330	0	-1E+10	1	-1E+10	1	-1E+10	1
4902624	44	C	09/04/2025	18:25	-128.893	48.924	0	172.90	0	7.7246	0	33.8289	0	26.397	0	171.363	0	78.5	4	26.9	4	-1E+10	1	0.0496	4	0.000350	0	-1E+10	1	-1E+10	1	-1E+10	1
4902624	44	C	09/04/2025	18:25	-128.893	48.924	0	173.00	0	7.7240	0	33.8290	0	26.397	0	171.462	0	-1e10	1	-1e10	1	-1E+10	1	-1e10	1	-1e10	1	-1E+10	1	-1E+10	1	-1E+10	1
4902624	44	C	09/04/2025	18:25	-128.893	48.924	0	173.70	0	7.7184	0	33.8300	0	26.399	0	172.155	0	78.3	4	26.9	4	-1E+10	1	0.0511	4	0.000316	0	-1E+10	1	-1E+10	1	-1E+10	1
4902624	44	C	09/04/2025	18:25	-128.893	48.924	0	174.60	0	7.7112	0	33.8314	0	26.401	0	173.047	0	78.1	4	26.8	4	-1E+10	1	0.0511	4	0.000366	0	-1E+10	1	-1E+10	1	-1E+10	1
4902624	44	C	09/04/2025	18:25	-128.893	48.924	0	175.00	0	7.7080	0	33.8320	0	26.402	0	173.443	0	-1e10	1	-1e10	1	-1E+10	1	-1e10	1	-1e10	1	-1E+10	1	-1E+10	1	-1E+10	1
4902624	44	C	09/04/2025	18:25	-128.893	48.924	0	175.50	0	7.7025	0	33.8333	0	26.404	0	173.939	0	77.9	4	26.7	4	-1E+10	1	0.0474	4	0.000388	0	-1E+10	1	-1E+10	1	-1E+10	1
4902624	44	C	09/04/2025	18:25	-128.893	48.924	0	176.40	0	7.6926	0	33.8355	0	26.407	0	174.830	0	77.6	4	26.6	4	-1E+10	1	0.0438	4	0.000341	0	-1E+10	1	-1E+10	1	-1E+10	1
4902624	44	C	09/04/2025	18:25	-128.893	48.924	0	177.00	0	7.6860	0	33.8370	0	26.409	0	175.425	0	-1e10	1	-1e10	1	-1E+10	1	-1e10	1	-1e10	1	-1E+10	1	-1E+10	1	-1E+10	1
4902624	44	C	09/04/2025	18:25	-128.893	48.924	0	177.30	0	7.6834	0	33.8378	0	26.410	0	175.722	0	77.4	4	26.6	4	-1E+10	1	0.0438	4	0.000318	0	-1E+10	1	-1E+10	1	-1E+10	1
4902624	44	C	09/04/2025	18:25	-128.893	48.924	0	178.20	0	7.6758	0	33.8400	0	26.413	0	176.613	0	77.3	4	26.5	4	-1E+10	1	0.0453	4	0.000320	0	-1E+10	1	-1E+10	1	-1E+10	1
4902624	44	C	09/04/2025	18:25	-128.893	48.924	0	179.00	0	7.6690	0	33.8420	0	26.415	0	177.406	0	75.1	4	25.8	4	-1E+10	1	0.0511	4	0.000329	0	-1E+10	1	-1E+10	1	-1E+10	1
4902624	44	C	09/04/2025	18:25	-128.893	48.924	0	179.90	0	7.6647	0	33.8424	0	26.416	0	178.298	0	77.0	4	26.4	4	-1E+10	1	0.0451	4	0.000330	0	-1E+10	1	-1E+10	1	-1E+10	1
4902624	44	C	09/04/2025	18:25	-128.893	48.924	0	180.80	0	7.6604	0	33.8429	0	26.417	0	179.189	0	76.8	4	26.4	4	-1E+10	1	0.0495	4	0.000339	0	-1E+10	1	-1E+10	1	-1E+10	1
4902624	44	C	09/04/2025	18:25	-128.893	48.924	0	181.10	0	7.6590	0	33.8430	0	26.418	0	179.486	0	-1e10	1	-1e10	1	-1E+10	1	-1e10	1	-1e10	1	-1E+10	1	-1E+10	1	-1E+10	1
4902624	44	C	09/04/2025	18:25	-128.893	48.924	0	181.70	0	7.6527	0	33.8443	0	26.420	0	180.081	0	76.7	4	26.3	4	-1E+10	1	0.0511	4	0.000342	0	-1E+10	1	-1E+10	1	-1E+10	1
4902624	44	C	09/04/2025	18:25	-128.893	48.924	0	182.60	0	7.6432	0	33.8462	0	26.422	0	180.972	0	76.5	4	26.2	4	-1E+10	1	0.0511	4	0.000326	0	-1E+10	1	-1E+10	1	-1E+10	1
4902624	44	C	09/04/2025	18:25	-128.893	48.924	0	183.00	0	7.6390	0	33.8470	0	26.424	0	181.369	0	-1e10	1	-1e10	1	-1E+10	1	-1e10	1	-1e10	1	-1E+10	1	-1E+10	1	-1E+10	1
4902624	44	C	09/04/2025	18:25	-128.893	48.924	0	183.50	0	7.6340	0	33.8481	0	26.425	0	181.864	0	76.2	4	26.1	4	-1E+10	1	0.0462	4	0.000326	0	-1E+10	1	-1E+10	1	-1E+10	1
4902624	44	C	09/04/2025	18:25	-128.893	48.924	0	184.40	0	7.6250	0	33.8499	0	26.428	0	182.755	0	76.1	4	26.1	4	-1E+10	1	0.0365	4	0.000362	0	-1E+10	1	-1E+10	1	-1E+10	1
4902624	44	C	09/04/2025	18:25	-128.893	48.924	0	184.90	0	7.6200	0	33.8510	0	26.430	0	183.251	0	-1e10	1	-1e10	1	-1E+10	1	-1e10	1	-1e10	1	-1E+10	1	-1E+10	1	-1E+10	1
4902624	44	C	09/04/2025	18:25	-128.893	48.924	0	185.40	0	7.6145	0	33.8522	0	26.431	0	183.746	0	75.9	4	26.0	4	-1E+10	1	0.0392	4	0.000353	0	-1E+10	1	-1E+10	1	-1E+10	1
4902624	44	C	09/04/2025	18:25	-128.893	48.924	0	186.30	0	7.6047	0	33.8543	0	26.434	0	184.638	0	75.8	4	26.0	4	-1E+10	1	0.0511	4	0.000353	0	-1E+10	1	-1E+10	1	-1E+10	1
4902624	44	C	09/04/2025	18:25	-128.893	48.924	0	187.00	0	7.5970	0	33.8560	0	26.437	0	185.331	0	-1e10	1	-1e10	1	-1E+10	1	-1e10	1	-1e10	1	-1E+10	1	-1E+10	1	-1E+10	1
4902624	44	C	09/04/2025	18:25	-128.893	48.924	0	187.20	0	7.5956	0	33.8563	0	26.437	0	185.529	0	75.7	4	25.9	4	-1E+10	1	0.0438	4	0.000342	0	-1E+10	1	-1E+10	1	-1E+10	1
4902624	44	C	09/04/2025	18:25	-128.893	48.924	0	188.10	0	7.5893	0	33.8577	0	26.439	0	186.421	0	75.5	4	25.9	4	-1E+10	1	0.0498	4	0.000332	0	-1E+10	1	-1E+10	1	-1E+10	1
4902624	44	C	09/04/2025	18:25	-128.893	48.924	0	189.00	0	7.5830	0	33.8590	0	26.441	0	187.312	0	-1e10	1	-1e10	1	-1E+10	1	-1e10	1	-1e10	1	-1E+10	1	-1E+10	1	-1E+10	1
4902624	44	C	09/04/2025	18:25	-128.893	48.924	0	189.10	0	7.5828	0	33.8591	0	26.441	0	187.411	0	75.5	4	25.8	4	-1E+10	1	0.0560	4	0.001096	0	-1E+10	1	-1E+10	1	-1E+10	1
4902624	44	C	09/04/2025	18:25	-128.893	48.924	0	190.00	0	7.5814	0	33.8595	0	26.442	0	188.303	0	75.3	4	25.8	4	-1E+10	1	0.0543	4	0.000854	0	-1E+10	1	-1E+10	1	-1E+10	1
4902624	44	C	09/04/2025	18:25	-128.893	48.924	0	190.90	0	7.5800	0	33.8600	0	26.442	0	189.195	0	73.1	4	25.0	4	-1E+10	1	0.0544	4	0.000385	0	-1E+10	1	-1E+10	1	-1E+10	1
4902624	44	C	09/04/2025	18:25	-128.893	48.924	0	191.90	0	7.5786	0	33.8600	0	26.443	0	190.185	0	75.0	4	25.7	4	-1E+10	1	0.0531	4	0.000398	0	-1E+10	1	-1E+10	1	-1E+10	1
4902624	44	C	09/04/2025	18:25	-128.893	48.924	0	192.80	0	7.5773	0	33.8600	0	26.443	0	191.077	0	74.9	4	25.6	4	-1E+10	1	0.0438	4	0.000353	0	-1E+10	1	-1E+10	1	-1E+10	1
4902624	44	C	09/04/2025	18:25	-128.893	48.924	0	193.00	0	7.5770	0	33.8600	0	26.443	0	191.275	0	-1e10	1	-1e10	1	-1E+10	1	-1e10	1	-1e10	1	-1E+10	1	-1E+10	1	-1E+10	1
4902624	44	C	09/04/2025	18:25	-128.893	48.924	0	193.80	0	7.5710	0	33.8608	0	26.444	0	192.067	0	74.7	4	25.6	4	-1E+10	1	0.0451	4	0.000368	0	-1E+10	1	-1E+10	1	-1E+10	1
4902624	44	C	09/04/2025	18:25	-128.893	48.924	0	194.70	0	7.5642	0	33.8617	0	26.446	0	192.959	0	74.5	4	25.5	4	-1E+10	1	0.0511	4	0.000435	0	-1E+10	1	-1E+10	1	-1E+10	1
4902624	44	C	09/04/2025	18:25	-128.893	48.924	0	195.00	0	7.5620	0	33.8620	0	26.447	0	193.256	0	-1e10	1	-1e10	1	-1E+10	1	-1e10	1	-1e10	1	-1E+10	1	-1E+10	1	-1E+10	1
4902624	44	C	09/04/2025	18:25	-128.893	48.924	0	195.70	0	7.5518	0	33.8634	0	26.449	0	193.949	0	74.4	4	25.5	4	-1E+10	1	0.0450	4	0.000416	0	-1E+10	1	-1E+10	1	-1E+10	1
4902624	44	C	09/04/2025	18:25	-128.893	48.924	0	196.70	0	7.5374	0	33.8654	0	26.453	0	194.940	0	74.1	4	25.4	4	-1E+10	1	0.0503	4	0.000443	0	-1E+10	1	-1E+10	1	-1E+10	1
4902624	44	C	09/04/2025	18:25	-128.893	48.924	0	197.00	0	7.5330	0	33.8660	0	26.454	0	195.237	0	-1e10	1	-1e10	1	-1E+10	1	-1e10	1	-1e10	1	-1E+10	1	-1E+10	1	-1E+10	1
4902624	44	C	09/04/2025	18:25	-128.893	48.924	0	197.60	0	7.5281	0	33.8669	0	26.455	0	195.832	0	73.9	4	25.3	4	-1E+10	1	0.0560	4	0.000353	0	-1E+10	1	-1E+10	1	-1E+10	1
4902624	44	C	09/04/2025	18:25	-128.893	48.924	0	198.60	0	7.5200	0	33.8683	0	26.458	0	196.822	0	73.6	4	25.2	4	-1E+10	1	0.0548	4	0.000394	0	-1E+10	1	-1E+10	1	-1E+10	1
4902624	44	C	09/04/2025	18:25	-128.893	48.924	0	199.10	0	7.5160	0	33.8690	0	26.459	0	197.317	0	-1e10	1	-1e10	1	-1E+10	1	-1e10	1	-1e10	1	-1E+10	1	-1E+10	1	-1E+10	1
4902624	44	C	09/04/2025	18:25	-128.893	48.924	0	199.60	0	7.5102	0	33.8698	0	26.460	0	197.813	0	73.2	4	25.0	4	-1E+10	1	0.0511	4	0.000404	0	-1E+10	1	-1E+10	1	-1E+10	1
4902624	44	C	09/04/2025	18:25	-128.893	48.924	0	200.50	0	7.4998	0	33.8712	0	26.463	0	198.704	0	72.9	4	24.9	4	-1E+10	1	0.0462	4	0.000302	0	-1E+10	1	-1E+10	1	-1E+10	1
4902624	44	C	09/04/2025	18:25	-128.893	48.924	0	201.00	0	7.4940	0	33.8720	0	26.464	0	199.199	0	-1e10	1	-1e10	1	-1E+10	1	-1e10	1	-1e10	1	-1E+10	1	-1E+10	1	-1E+10	1
4902624	44	C	09/04/2025	18:25	-128.893	48.924	0	201.50	0	7.4893	0	33.8730	0	26.466	0	199.695	0	72.5	4	24.8	4	-1E+10	1	0.0365	4	0.000298	0	-1E+10	1	-1E+10	1	-1E+10	1
4902624	44	C	09/04/2025	18:25	-128.893	48.924	0	202.50	0	7.4797	0	33.8750	0	26.469	0	200.685	0	72.0	4	24.6	4	-1E+10	1	0.0365	4	0.000318	0	-1E+10	1	-1E+10	1	-1E+10	1
4902624	44	C	09/04/2025	18:25	-128.893	48.924	0	203.00	0	7.4750	0	33.8760	0	26.470	0	201.181	0	-1e10	1	-1e10	1	-1E+10	1	-1e10	1	-1e10	1	-1E+10	1	-1E+10	1	-1E+10	1
4902624	44	C	09/04/2025	18:25	-128.893	48.924	0	203.50	0	7.4692	0	33.8771	0	26.472	0	201.676	0	71.6	4	24.4	4	-1E+10	1	0.0511	4	0.000295	0	-1E+10	1	-1E+10	1	-1E+10	1
4902624	44	C	09/04/2025	18:25	-128.893	48.924	0	204.60	0	7.4565	0	33.8794	0	26.475	0	202.765	0	71.0	4	24.3	4	-1E+10	1	0.0449	4	0.000364	0	-1E+10	1	-1E+10	1	-1E+10	1
4902624	44	C	09/04/2025	18:25	-128.893	48.924	0	204.90	0	7.4530	0	33.8800	0	26.476	0	203.063	0	-1e10	1	-1e10	1	-1E+10	1	-1e10	1	-1e10	1	-1E+10	1	-1E+10	1	-1E+10	1
4902624	44	C	09/04/2025	18:25	-128.893	48.924	0	205.60	0	7.4478	0	33.8811	0	26.478	0	203.756	0	70.5	4	24.1	4	-1E+10	1	0.0487	4	0.000345	0	-1E+10	1	-1E+10	1	-1E+10	1
4902624	44	C	09/04/2025	18:25	-128.893	48.924	0	206.60	0	7.4403	0	33.8825	0	26.480	0	204.747	0	69.9	4	23.9	4	-1E+10	1	0.0467	4	0.000330	0	-1E+10	1	-1E+10	1	-1E+10	1
4902624	44	C	09/04/2025	18:25	-128.893	48.924	0	206.90	0	7.4380	0	33.8830	0	26.481	0	205.044	0	-1e10	1	-1e10	1	-1E+10	1	-1e10	1	-1e10	1	-1E+10	1	-1E+10	1	-1E+10	1
4902624	44	C	09/04/2025	18:25	-128.893	48.924	0	207.70	0	7.4330	0	33.8845	0	26.483	0	205.836	0	69.4	4	23.7	4	-1E+10	1	0.0438	4	0.000317	0	-1E+10	1	-1E+10	1	-1E+10	1
4902624	44	C	09/04/2025	18:25	-128.893	48.924	0	208.70	0	7.4269	0	33.8864	0	26.485	0	206.827	0	69.0	4	23.5	4	-1E+10	1	0.0487	4	0.000322	0	-1E+10	1	-1E+10	1	-1E+10	1
4902624	44	C	09/04/2025	18:25	-128.893	48.924	0	209.00	0	7.4250	0	33.8870	0	26.486	0	207.124	0	-1e10	1	-1e10	1	-1E+10	1	-1e10	1	-1e10	1	-1E+10	1	-1E+10	1	-1E+10	1
4902624	44	C	09/04/2025	18:25	-128.893	48.924	0	209.70	0	7.4156	0	33.8898	0	26.489	0	207.817	0	68.6	4	23.4	4	-1E+10	1	0.0584	4	0.000345	0	-1E+10	1	-1E+10	1	-1E+10	1
4902624	44	C	09/04/2025	18:25	-128.893	48.924	0	210.80	0	7.4007	0	33.8942	0	26.495	0	208.907	0	68.4	4	23.3	4	-1E+10	1	0.0572	4	0.000324	0	-1E+10	1	-1E+10	1	-1E+10	1
4902624	44	C	09/04/2025	18:25	-128.893	48.924	0	211.00	0	7.3980	0	33.8950	0	26.496	0	209.105	0	-1e10	1	-1e10	1	-1E+10	1	-1e10	1	-1e10	1	-1E+10	1	-1E+10	1	-1E+10	1
4902624	44	C	09/04/2025	18:25	-128.893	48.924	0	211.80	0	7.3917	0	33.8963	0	26.498	0	209.897	0	68.2	4	23.3	4	-1E+10	1	0.0511	4	0.000412	0	-1E+10	1	-1E+10	1	-1E+10	1
4902624	44	C	09/04/2025	18:25	-128.893	48.924	0	212.80	0	7.3838	0	33.8978	0	26.500	0	210.888	0	68.1	4	23.2	4	-1E+10	1	0.0365	4	0.000294	0	-1E+10	1	-1E+10	1	-1E+10	1
4902624	44	C	09/04/2025	18:25	-128.893	48.924	0	212.90	0	7.3830	0	33.8980	0	26.501	0	210.987	0	-1e10	1	-1e10	1	-1E+10	1	-1e10	1	-1e10	1	-1E+10	1	-1E+10	1	-1E+10	1
4902624	44	C	09/04/2025	18:25	-128.893	48.924	0	213.90	0	7.3806	0	33.8985	0	26.501	0	211.977	0	67.9	4	23.2	4	-1E+10	1	0.0584	4	0.000377	0	-1E+10	1	-1E+10	1	-1E+10	1
4902624	44	C	09/04/2025	18:25	-128.893	48.924	0	214.90	0	7.3782	0	33.8990	0	26.502	0	212.968	0	67.8	4	23.1	4	-1E+10	1	0.0462	4	0.000308	0	-1E+10	1	-1E+10	1	-1E+10	1
4902624	44	C	09/04/2025	18:25	-128.893	48.924	0	215.00	0	7.3780	0	33.8990	0	26.502	0	213.067	0	-1e10	1	-1e10	1	-1E+10	1	-1e10	1	-1e10	1	-1E+10	1	-1E+10	1	-1E+10	1
4902624	44	C	09/04/2025	18:25	-128.893	48.924	0	216.00	0	7.3765	0	33.8995	0	26.503	0	214.057	0	67.6	4	23.1	4	-1E+10	1	0.0489	4	0.000286	0	-1E+10	1	-1E+10	1	-1E+10	1
4902624	44	C	09/04/2025	18:25	-128.893	48.924	0	217.00	0	7.3750	0	33.9000	0	26.503	0	215.048	0	65.6	4	22.4	4	-1E+10	1	0.0511	4	0.000332	0	-1E+10	1	-1E+10	1	-1E+10	1
4902624	44	C	09/04/2025	18:25	-128.893	48.924	0	218.00	0	7.3720	0	33.9005	0	26.504	0	216.038	0	67.3	4	22.9	4	-1E+10	1	0.0511	4	0.000354	0	-1E+10	1	-1E+10	1	-1E+10	1
4902624	44	C	09/04/2025	18:25	-128.893	48.924	0	219.00	0	7.3690	0	33.9010	0	26.505	0	217.029	0	-1e10	1	-1e10	1	-1E+10	1	-1e10	1	-1e10	1	-1E+10	1	-1E+10	1	-1E+10	1
4902624	44	C	09/04/2025	18:25	-128.893	48.924	0	219.10	0	7.3686	0	33.9011	0	26.505	0	217.128	0	67.1	4	22.9	4	-1E+10	1	0.0511	4	0.000380	0	-1E+10	1	-1E+10	1	-1E+10	1
4902624	44	C	09/04/2025	18:25	-128.893	48.924	0	220.10	0	7.3651	0	33.9016	0	26.506	0	218.118	0	66.9	4	22.8	4	-1E+10	1	0.0511	4	0.000422	0	-1E+10	1	-1E+10	1	-1E+10	1
4902624	44	C	09/04/2025	18:25	-128.893	48.924	0	221.00	0	7.3620	0	33.9020	0	26.507	0	219.010	0	-1e10	1	-1e10	1	-1E+10	1	-1e10	1	-1e10	1	-1E+10	1	-1E+10	1	-1E+10	1
4902624	44	C	09/04/2025	18:25	-128.893	48.924	0	221.20	0	7.3613	0	33.9021	0	26.507	0	219.208	0	66.7	4	22.7	4	-1E+10	1	0.0523	4	0.000262	0	-1E+10	1	-1E+10	1	-1E+10	1
4902624	44	C	09/04/2025	18:25	-128.893	48.924	0	222.20	0	7.3578	0	33.9026	0	26.508	0	220.198	0	66.6	4	22.7	4	-1E+10	1	0.0584	4	0.000283	0	-1E+10	1	-1E+10	1	-1E+10	1
4902624	44	C	09/04/2025	18:25	-128.893	48.924	0	223.00	0	7.3550	0	33.9030	0	26.509	0	220.991	0	-1e10	1	-1e10	1	-1E+10	1	-1e10	1	-1e10	1	-1E+10	1	-1E+10	1	-1E+10	1
4902624	44	C	09/04/2025	18:25	-128.893	48.924	0	223.30	0	7.3523	0	33.9036	0	26.509	0	221.288	0	66.4	4	22.6	4	-1E+10	1	0.0584	4	0.000283	0	-1E+10	1	-1E+10	1	-1E+10	1
4902624	44	C	09/04/2025	18:25	-128.893	48.924	0	224.30	0	7.3433	0	33.9056	0	26.512	0	222.278	0	66.4	4	22.6	4	-1E+10	1	0.0526	4	0.000292	0	-1E+10	1	-1E+10	1	-1E+10	1
4902624	44	C	09/04/2025	18:25	-128.893	48.924	0	225.00	0	7.3370	0	33.9070	0	26.514	0	222.972	0	-1e10	1	-1e10	1	-1E+10	1	-1e10	1	-1e10	1	-1E+10	1	-1E+10	1	-1E+10	1
4902624	44	C	09/04/2025	18:25	-128.893	48.924	0	225.40	0	7.3344	0	33.9074	0	26.515	0	223.368	0	66.3	4	22.6	4	-1E+10	1	0.0511	4	0.000319	0	-1E+10	1	-1E+10	1	-1E+10	1
4902624	44	C	09/04/2025	18:25	-128.893	48.924	0	226.40	0	7.3279	0	33.9084	0	26.517	0	224.358	0	66.3	4	22.6	4	-1E+10	1	0.0511	4	0.000311	0	-1E+10	1	-1E+10	1	-1E+10	1
4902624	44	C	09/04/2025	18:25	-128.893	48.924	0	227.00	0	7.3240	0	33.9090	0	26.518	0	224.952	0	-1e10	1	-1e10	1	-1E+10	1	-1e10	1	-1e10	1	-1E+10	1	-1E+10	1	-1E+10	1
4902624	44	C	09/04/2025	18:25	-128.893	48.924	0	227.40	0	7.3202	0	33.9098	0	26.519	0	225.349	0	66.3	4	22.6	4	-1E+10	1	0.0482	4	0.000298	0	-1E+10	1	-1E+10	1	-1E+10	1
4902624	44	C	09/04/2025	18:25	-128.893	48.924	0	228.40	0	7.3107	0	33.9119	0	26.522	0	226.339	0	66.3	4	22.6	4	-1E+10	1	0.0460	4	0.000313	0	-1E+10	1	-1E+10	1	-1E+10	1
4902624	44	C	09/04/2025	18:25	-128.893	48.924	0	228.90	0	7.3060	0	33.9130	0	26.523	0	226.834	0	-1e10	1	-1e10	1	-1E+10	1	-1e10	1	-1e10	1	-1E+10	1	-1E+10	1	-1E+10	1
4902624	44	C	09/04/2025	18:25	-128.893	48.924	0	229.40	0	7.3012	0	33.9137	0	26.525	0	227.329	0	66.5	4	22.6	4	-1E+10	1	0.0505	4	0.000329	0	-1E+10	1	-1E+10	1	-1E+10	1
4902624	44	C	09/04/2025	18:25	-128.893	48.924	0	230.50	0	7.2908	0	33.9153	0	26.527	0	228.419	0	66.7	4	22.7	4	-1E+10	1	0.0438	4	0.000318	0	-1E+10	1	-1E+10	1	-1E+10	1
4902624	44	C	09/04/2025	18:25	-128.893	48.924	0	231.00	0	7.2860	0	33.9160	0	26.529	0	228.914	0	-1e10	1	-1e10	1	-1E+10	1	-1e10	1	-1e10	1	-1E+10	1	-1E+10	1	-1E+10	1
4902624	44	C	09/04/2025	18:25	-128.893	48.924	0	231.50	0	7.2752	0	33.9173	0	26.531	0	229.409	0	66.9	4	22.8	4	-1E+10	1	0.0365	4	0.000318	0	-1E+10	1	-1E+10	1	-1E+10	1
4902624	44	C	09/04/2025	18:25	-128.893	48.924	0	232.50	0	7.2537	0	33.9198	0	26.536	0	230.400	0	67.1	4	22.8	4	-1E+10	1	0.0487	4	0.000396	0	-1E+10	1	-1E+10	1	-1E+10	1
4902624	44	C	09/04/2025	18:25	-128.893	48.924	0	233.00	0	7.2430	0	33.9210	0	26.539	0	230.895	0	-1e10	1	-1e10	1	-1E+10	1	-1e10	1	-1e10	1	-1E+10	1	-1E+10	1	-1E+10	1
4902624	44	C	09/04/2025	18:25	-128.893	48.924	0	233.50	0	7.2352	0	33.9212	0	26.540	0	231.390	0	67.3	4	22.9	4	-1E+10	1	0.0511	4	0.000332	0	-1E+10	1	-1E+10	1	-1E+10	1
4902624	44	C	09/04/2025	18:25	-128.893	48.924	0	234.60	0	7.2182	0	33.9218	0	26.543	0	232.480	0	67.3	4	22.9	4	-1E+10	1	0.0511	4	0.000310	0	-1E+10	1	-1E+10	1	-1E+10	1
4902624	44	C	09/04/2025	18:25	-128.893	48.924	0	235.00	0	7.2120	0	33.9220	0	26.544	0	232.876	0	-1e10	1	-1e10	1	-1E+10	1	-1e10	1	-1e10	1	-1E+10	1	-1E+10	1	-1E+10	1
4902624	44	C	09/04/2025	18:25	-128.893	48.924	0	235.60	0	7.2096	0	33.9220	0	26.544	0	233.470	0	67.3	4	22.9	4	-1E+10	1	0.0474	4	0.000305	0	-1E+10	1	-1E+10	1	-1E+10	1
4902624	44	C	09/04/2025	18:25	-128.893	48.924	0	236.70	0	7.2052	0	33.9220	0	26.545	0	234.559	0	67.3	4	22.9	4	-1E+10	1	0.0438	4	0.000273	0	-1E+10	1	-1E+10	1	-1E+10	1
4902624	44	C	09/04/2025	18:25	-128.893	48.924	0	237.00	0	7.2040	0	33.9220	0	26.545	0	234.857	0	-1e10	1	-1e10	1	-1E+10	1	-1e10	1	-1e10	1	-1E+10	1	-1E+10	1	-1E+10	1
4902624	44	C	09/04/2025	18:25	-128.893	48.924	0	237.70	0	7.2019	0	33.9224	0	26.545	0	235.550	0	67.3	4	22.9	4	-1E+10	1	0.0453	4	0.000257	0	-1E+10	1	-1E+10	1	-1E+10	1
4902624	44	C	09/04/2025	18:25	-128.893	48.924	0	238.70	0	7.1989	0	33.9229	0	26.546	0	236.540	0	67.3	4	22.9	4	-1E+10	1	0.0499	4	0.000253	0	-1E+10	1	-1E+10	1	-1E+10	1
4902624	44	C	09/04/2025	18:25	-128.893	48.924	0	239.00	0	7.1980	0	33.9230	0	26.546	0	236.837	0	-1e10	1	-1e10	1	-1E+10	1	-1e10	1	-1e10	1	-1E+10	1	-1E+10	1	-1E+10	1
4902624	44	C	09/04/2025	18:25	-128.893	48.924	0	239.70	0	7.1963	0	33.9230	0	26.547	0	237.531	0	67.3	4	22.8	4	-1E+10	1	0.0438	4	0.000282	0	-1E+10	1	-1E+10	1	-1E+10	1
4902624	44	C	09/04/2025	18:25	-128.893	48.924	0	240.80	0	7.1937	0	33.9230	0	26.547	0	238.620	0	67.3	4	22.8	4	-1E+10	1	0.0371	4	0.000336	0	-1E+10	1	-1E+10	1	-1E+10	1
4902624	44	C	09/04/2025	18:25	-128.893	48.924	0	241.10	0	7.1930	0	33.9230	0	26.547	0	238.917	0	-1e10	1	-1e10	1	-1E+10	1	-1e10	1	-1e10	1	-1E+10	1	-1E+10	1	-1E+10	1
4902624	44	C	09/04/2025	18:25	-128.893	48.924	0	241.80	0	7.1860	0	33.9245	0	26.549	0	239.610	0	67.3	4	22.9	4	-1E+10	1	0.0544	4	0.000293	0	-1E+10	1	-1E+10	1	-1E+10	1
4902624	44	C	09/04/2025	18:25	-128.893	48.924	0	242.80	0	7.1760	0	33.9266	0	26.552	0	240.601	0	67.4	4	22.9	4	-1E+10	1	0.0487	4	0.000290	0	-1E+10	1	-1E+10	1	-1E+10	1
4902624	44	C	09/04/2025	18:25	-128.893	48.924	0	243.00	0	7.1740	0	33.9270	0	26.553	0	240.799	0	-1e10	1	-1e10	1	-1E+10	1	-1e10	1	-1e10	1	-1E+10	1	-1E+10	1	-1E+10	1
4902624	44	C	09/04/2025	18:25	-128.893	48.924	0	243.90	0	7.1637	0	33.9283	0	26.555	0	241.690	0	67.6	4	22.9	4	-1E+10	1	0.0399	4	0.000319	0	-1E+10	1	-1E+10	1	-1E+10	1
4902624	44	C	09/04/2025	18:25	-128.893	48.924	0	244.90	0	7.1523	0	33.9297	0	26.558	0	242.680	0	67.8	4	23.0	4	-1E+10	1	0.0394	4	0.000322	0	-1E+10	1	-1E+10	1	-1E+10	1
4902624	44	C	09/04/2025	18:25	-128.893	48.924	0	245.10	0	7.1500	0	33.9300	0	26.559	0	242.879	0	-1e10	1	-1e10	1	-1E+10	1	-1e10	1	-1e10	1	-1E+10	1	-1E+10	1	-1E+10	1
4902624	44	C	09/04/2025	18:25	-128.893	48.924	0	245.90	0	7.1416	0	33.9304	0	26.560	0	243.671	0	68.0	4	23.1	4	-1E+10	1	0.0460	4	0.000291	0	-1E+10	1	-1E+10	1	-1E+10	1
4902624	44	C	09/04/2025	18:25	-128.893	48.924	0	247.00	0	7.1301	0	33.9310	0	26.562	0	244.760	0	68.2	4	23.1	4	-1E+10	1	0.0499	4	0.000284	0	-1E+10	1	-1E+10	1	-1E+10	1
4902624	44	C	09/04/2025	18:25	-128.893	48.924	0	247.10	0	7.1290	0	33.9310	0	26.562	0	244.859	0	-1e10	1	-1e10	1	-1E+10	1	-1e10	1	-1e10	1	-1E+10	1	-1E+10	1	-1E+10	1
4902624	44	C	09/04/2025	18:25	-128.893	48.924	0	248.00	0	7.1271	0	33.9310	0	26.563	0	245.751	0	68.4	4	23.2	4	-1E+10	1	0.0438	4	0.000294	0	-1E+10	1	-1E+10	1	-1E+10	1
4902624	44	C	09/04/2025	18:25	-128.893	48.924	0	249.00	0	7.1250	0	33.9310	0	26.563	0	246.741	0	66.8	4	22.7	4	-1E+10	1	0.0365	4	0.000257	0	-1E+10	1	-1E+10	1	-1E+10	1
4902624	44	C	09/04/2025	18:25	-128.893	48.924	0	250.10	0	7.1209	0	33.9304	0	26.563	0	247.830	0	69.0	4	23.4	4	-1E+10	1	0.0427	4	0.000288	0	-1E+10	1	-1E+10	1	-1E+10	1
4902624	44	C	09/04/2025	18:25	-128.893	48.924	0	250.90	0	7.1180	0	33.9300	0	26.563	0	248.622	0	-1e10	1	-1e10	1	-1E+10	1	-1e10	1	-1e10	1	-1E+10	1	-1E+10	1	-1E+10	1
4902624	44	C	09/04/2025	18:25	-128.893	48.924	0	251.10	0	7.1148	0	33.9304	0	26.564	0	248.821	0	69.4	4	23.5	4	-1E+10	1	0.0535	4	0.000294	0	-1E+10	1	-1E+10	1	-1E+10	1
4902624	44	C	09/04/2025	18:25	-128.893	48.924	0	252.10	0	7.0986	0	33.9323	0	26.568	0	249.811	0	69.8	4	23.6	4	-1E+10	1	0.0540	4	0.000287	0	-1E+10	1	-1E+10	1	-1E+10	1
4902624	44	C	09/04/2025	18:25	-128.893	48.924	0	253.00	0	7.0840	0	33.9340	0	26.571	0	250.702	0	-1e10	1	-1e10	1	-1E+10	1	-1e10	1	-1e10	1	-1E+10	1	-1E+10	1	-1E+10	1
4902624	44	C	09/04/2025	18:25	-128.893	48.924	0	253.10	0	7.0814	0	33.9340	0	26.571	0	250.801	0	70.2	4	23.8	4	-1E+10	1	0.0584	4	0.000276	0	-1E+10	1	-1E+10	1	-1E+10	1
4902624	44	C	09/04/2025	18:25	-128.893	48.924	0	254.10	0	7.0560	0	33.9346	0	26.575	0	251.791	0	70.6	4	23.9	4	-1E+10	1	0.0612	4	0.000263	0	-1E+10	1	-1E+10	1	-1E+10	1
4902624	44	C	09/04/2025	18:25	-128.893	48.924	0	255.00	0	7.0330	0	33.9350	0	26.579	0	252.683	0	-1e10	1	-1e10	1	-1E+10	1	-1e10	1	-1e10	1	-1E+10	1	-1E+10	1	-1E+10	1
4902624	44	C	09/04/2025	18:25	-128.893	48.924	0	255.20	0	7.0291	0	33.9349	0	26.579	0	252.881	0	70.8	4	24.0	4	-1E+10	1	0.0511	4	0.000253	0	-1E+10	1	-1E+10	1	-1E+10	1
4902624	44	C	09/04/2025	18:25	-128.893	48.924	0	256.20	0	7.0096	0	33.9344	0	26.582	0	253.871	0	71.0	4	24.0	4	-1E+10	1	0.0511	4	0.000282	0	-1E+10	1	-1E+10	1	-1E+10	1
4902624	44	C	09/04/2025	18:25	-128.893	48.924	0	257.00	0	6.9940	0	33.9340	0	26.583	0	254.663	0	-1e10	1	-1e10	1	-1E+10	1	-1e10	1	-1e10	1	-1E+10	1	-1E+10	1	-1E+10	1
4902624	44	C	09/04/2025	18:25	-128.893	48.924	0	257.20	0	6.9926	0	33.9340	0	26.584	0	254.861	0	71.1	4	24.0	4	-1E+10	1	0.0511	4	0.000282	0	-1E+10	1	-1E+10	1	-1E+10	1
4902624	44	C	09/04/2025	18:25	-128.893	48.924	0	258.20	0	6.9856	0	33.9340	0	26.584	0	255.852	0	71.1	4	24.0	4	-1E+10	1	0.0399	4	0.000409	0	-1E+10	1	-1E+10	1	-1E+10	1
4902624	44	C	09/04/2025	18:25	-128.893	48.924	0	259.00	0	6.9800	0	33.9340	0	26.585	0	256.644	0	-1e10	1	-1e10	1	-1E+10	1	-1e10	1	-1e10	1	-1E+10	1	-1E+10	1	-1E+10	1
4902624	44	C	09/04/2025	18:25	-128.893	48.924	0	259.20	0	6.9793	0	33.9340	0	26.585	0	256.842	0	71.2	4	24.1	4	-1E+10	1	0.0416	4	0.000307	0	-1E+10	1	-1E+10	1	-1E+10	1
4902624	44	C	09/04/2025	18:25	-128.893	48.924	0	260.30	0	6.9752	0	33.9340	0	26.586	0	257.931	0	71.3	4	24.1	4	-1E+10	1	0.0438	4	0.000341	0	-1E+10	1	-1E+10	1	-1E+10	1
4902624	44	C	09/04/2025	18:25	-128.893	48.924	0	260.90	0	6.9730	0	33.9340	0	26.586	0	258.525	0	-1e10	1	-1e10	1	-1E+10	1	-1e10	1	-1e10	1	-1E+10	1	-1E+10	1	-1E+10	1
4902624	44	C	09/04/2025	18:25	-128.893	48.924	0	261.30	0	6.9703	0	33.9340	0	26.587	0	258.922	0	71.4	4	24.1	4	-1E+10	1	0.0548	4	0.000323	0	-1E+10	1	-1E+10	1	-1E+10	1
4902624	44	C	09/04/2025	18:25	-128.893	48.924	0	262.30	0	6.9637	0	33.9340	0	26.588	0	259.912	0	71.5	4	24.1	4	-1E+10	1	0.0569	4	0.000273	0	-1E+10	1	-1E+10	1	-1E+10	1
4902624	44	C	09/04/2025	18:25	-128.893	48.924	0	263.00	0	6.9590	0	33.9340	0	26.588	0	260.605	0	-1e10	1	-1e10	1	-1E+10	1	-1e10	1	-1e10	1	-1E+10	1	-1E+10	1	-1E+10	1
4902624	44	C	09/04/2025	18:25	-128.893	48.924	0	263.30	0	6.9536	0	33.9344	0	26.589	0	260.902	0	71.6	4	24.2	4	-1E+10	1	0.0511	4	0.000282	0	-1E+10	1	-1E+10	1	-1E+10	1
4902624	44	C	09/04/2025	18:25	-128.893	48.924	0	264.30	0	6.9356	0	33.9360	0	26.593	0	261.892	0	71.7	4	24.2	4	-1E+10	1	0.0621	4	0.000259	0	-1E+10	1	-1E+10	1	-1E+10	1
4902624	44	C	09/04/2025	18:25	-128.893	48.924	0	265.00	0	6.9230	0	33.9370	0	26.595	0	262.586	0	-1e10	1	-1e10	1	-1E+10	1	-1e10	1	-1e10	1	-1E+10	1	-1E+10	1	-1E+10	1
4902624	44	C	09/04/2025	18:25	-128.893	48.924	0	265.30	0	6.9116	0	33.9372	0	26.597	0	262.883	0	71.9	4	24.3	4	-1E+10	1	0.0438	4	0.000259	0	-1E+10	1	-1E+10	1	-1E+10	1
4902624	44	C	09/04/2025	18:25	-128.893	48.924	0	266.40	0	6.8699	0	33.9377	0	26.603	0	263.972	0	71.9	4	24.2	4	-1E+10	1	0.0511	4	0.000306	0	-1E+10	1	-1E+10	1	-1E+10	1
4902624	44	C	09/04/2025	18:25	-128.893	48.924	0	266.90	0	6.8510	0	33.9380	0	26.606	0	264.467	0	-1e10	1	-1e10	1	-1E+10	1	-1e10	1	-1e10	1	-1E+10	1	-1E+10	1	-1E+10	1
4902624	44	C	09/04/2025	18:25	-128.893	48.924	0	267.40	0	6.8460	0	33.9380	0	26.607	0	264.962	0	71.8	4	24.2	4	-1E+10	1	0.0572	4	0.000306	0	-1E+10	1	-1E+10	1	-1E+10	1
4902624	44	C	09/04/2025	18:25	-128.893	48.924	0	268.40	0	6.8360	0	33.9380	0	26.608	0	265.952	0	71.8	4	24.2	4	-1E+10	1	0.0535	4	0.000353	0	-1E+10	1	-1E+10	1	-1E+10	1
4902624	44	C	09/04/2025	18:25	-128.893	48.924	0	268.90	0	6.8310	0	33.9380	0	26.609	0	266.447	0	-1e10	1	-1e10	1	-1E+10	1	-1e10	1	-1e10	1	-1E+10	1	-1E+10	1	-1E+10	1
4902624	44	C	09/04/2025	18:25	-128.893	48.924	0	269.50	0	6.8296	0	33.9377	0	26.609	0	267.042	0	71.7	4	24.2	4	-1E+10	1	0.0465	4	0.000316	0	-1E+10	1	-1E+10	1	-1E+10	1
4902624	44	C	09/04/2025	18:25	-128.893	48.924	0	270.50	0	6.8274	0	33.9373	0	26.609	0	268.032	0	71.6	4	24.1	4	-1E+10	1	0.0474	4	0.000275	0	-1E+10	1	-1E+10	1	-1E+10	1
4902624	44	C	09/04/2025	18:25	-128.893	48.924	0	271.10	0	6.8260	0	33.9370	0	26.609	0	268.626	0	-1e10	1	-1e10	1	-1E+10	1	-1e10	1	-1e10	1	-1E+10	1	-1E+10	1	-1E+10	1
4902624	44	C	09/04/2025	18:25	-128.893	48.924	0	271.50	0	6.8209	0	33.9370	0	26.609	0	269.022	0	71.5	4	24.1	4	-1E+10	1	0.0533	4	0.000269	0	-1E+10	1	-1E+10	1	-1E+10	1
4902624	44	C	09/04/2025	18:25	-128.893	48.924	0	272.60	0	6.8071	0	33.9370	0	26.611	0	270.111	0	71.2	4	24.0	4	-1E+10	1	0.0540	4	0.000273	0	-1E+10	1	-1E+10	1	-1E+10	1
4902624	44	C	09/04/2025	18:25	-128.893	48.924	0	273.00	0	6.8020	0	33.9370	0	26.612	0	270.507	0	-1e10	1	-1e10	1	-1E+10	1	-1e10	1	-1e10	1	-1E+10	1	-1E+10	1	-1E+10	1
4902624	44	C	09/04/2025	18:25	-128.893	48.924	0	273.60	0	6.7906	0	33.9373	0	26.614	0	271.102	0	71.0	4	23.9	4	-1E+10	1	0.0389	4	0.000288	0	-1E+10	1	-1E+10	1	-1E+10	1
4902624	44	C	09/04/2025	18:25	-128.893	48.924	0	274.60	0	6.7717	0	33.9378	0	26.617	0	272.092	0	70.6	4	23.8	4	-1E+10	1	0.0511	4	0.000317	0	-1E+10	1	-1E+10	1	-1E+10	1
4902624	44	C	09/04/2025	18:25	-128.893	48.924	0	274.90	0	6.7660	0	33.9380	0	26.617	0	272.389	0	-1e10	1	-1e10	1	-1E+10	1	-1e10	1	-1e10	1	-1E+10	1	-1E+10	1	-1E+10	1
4902624	44	C	09/04/2025	18:25	-128.893	48.924	0	275.70	0	6.7561	0	33.9391	0	26.620	0	273.181	0	70.3	4	23.6	4	-1E+10	1	0.0444	4	0.000285	0	-1E+10	1	-1E+10	1	-1E+10	1
4902624	44	C	09/04/2025	18:25	-128.893	48.924	0	276.70	0	6.7437	0	33.9406	0	26.623	0	274.171	0	70.0	4	23.5	4	-1E+10	1	0.0438	4	0.000263	0	-1E+10	1	-1E+10	1	-1E+10	1
4902624	44	C	09/04/2025	18:25	-128.893	48.924	0	277.00	0	6.7400	0	33.9410	0	26.623	0	274.468	0	-1e10	1	-1e10	1	-1E+10	1	-1e10	1	-1e10	1	-1E+10	1	-1E+10	1	-1E+10	1
4902624	44	C	09/04/2025	18:25	-128.893	48.924	0	277.70	0	6.7312	0	33.9424	0	26.626	0	275.161	0	69.8	4	23.4	4	-1E+10	1	0.0528	4	0.000280	0	-1E+10	1	-1E+10	1	-1E+10	1
4902624	44	C	09/04/2025	18:25	-128.893	48.924	0	278.80	0	6.7175	0	33.9446	0	26.629	0	276.251	0	69.5	4	23.4	4	-1E+10	1	0.0511	4	0.000270	0	-1E+10	1	-1E+10	1	-1E+10	1
4902624	44	C	09/04/2025	18:25	-128.893	48.924	0	279.00	0	6.7150	0	33.9450	0	26.630	0	276.449	0	-1e10	1	-1e10	1	-1E+10	1	-1e10	1	-1e10	1	-1E+10	1	-1E+10	1	-1E+10	1
4902624	44	C	09/04/2025	18:25	-128.893	48.924	0	279.80	0	6.7074	0	33.9458	0	26.631	0	277.241	0	69.4	4	23.3	4	-1E+10	1	0.0465	4	0.000255	0	-1E+10	1	-1E+10	1	-1E+10	1
4902624	44	C	09/04/2025	18:25	-128.893	48.924	0	280.90	0	6.6969	0	33.9469	0	26.634	0	278.330	0	69.3	4	23.3	4	-1E+10	1	0.0511	4	0.000263	0	-1E+10	1	-1E+10	1	-1E+10	1
4902624	44	C	09/04/2025	18:25	-128.893	48.924	0	281.00	0	6.6960	0	33.9470	0	26.634	0	278.429	0	-1e10	1	-1e10	1	-1E+10	1	-1e10	1	-1e10	1	-1E+10	1	-1E+10	1	-1E+10	1
4902624	44	C	09/04/2025	18:25	-128.893	48.924	0	282.00	0	6.6875	0	33.9475	0	26.636	0	279.419	0	69.2	4	23.2	4	-1E+10	1	0.0499	4	0.000243	0	-1E+10	1	-1E+10	1	-1E+10	1
4902624	44	C	09/04/2025	18:25	-128.893	48.924	0	283.00	0	6.6790	0	33.9480	0	26.637	0	280.409	0	67.1	4	22.5	4	-1E+10	1	0.0438	4	0.000221	0	-1E+10	1	-1E+10	1	-1E+10	1
4902624	44	C	09/04/2025	18:25	-128.893	48.924	0	284.10	0	6.6631	0	33.9486	0	26.640	0	281.499	0	68.9	4	23.1	4	-1E+10	1	0.0657	4	0.000235	0	-1E+10	1	-1E+10	1	-1E+10	1
4902624	44	C	09/04/2025	18:25	-128.893	48.924	0	285.00	0	6.6500	0	33.9490	0	26.642	0	282.390	0	-1e10	1	-1e10	1	-1E+10	1	-1e10	1	-1e10	1	-1E+10	1	-1E+10	1	-1E+10	1
4902624	44	C	09/04/2025	18:25	-128.893	48.924	0	285.20	0	6.6458	0	33.9492	0	26.642	0	282.588	0	68.7	4	23.1	4	-1E+10	1	0.0533	4	0.000255	0	-1E+10	1	-1E+10	1	-1E+10	1
4902624	44	C	09/04/2025	18:25	-128.893	48.924	0	286.30	0	6.6227	0	33.9503	0	26.646	0	283.677	0	68.6	4	23.0	4	-1E+10	1	0.0571	4	0.000239	0	-1E+10	1	-1E+10	1	-1E+10	1
4902624	44	C	09/04/2025	18:25	-128.893	48.924	0	287.00	0	6.6080	0	33.9510	0	26.649	0	284.370	0	-1e10	1	-1e10	1	-1E+10	1	-1e10	1	-1e10	1	-1E+10	1	-1E+10	1	-1E+10	1
4902624	44	C	09/04/2025	18:25	-128.893	48.924	0	287.40	0	6.6046	0	33.9510	0	26.649	0	284.766	0	68.5	4	23.0	4	-1E+10	1	0.0524	4	0.000264	0	-1E+10	1	-1E+10	1	-1E+10	1
4902624	44	C	09/04/2025	18:25	-128.893	48.924	0	288.50	0	6.5953	0	33.9510	0	26.651	0	285.855	0	68.4	4	22.9	4	-1E+10	1	0.0511	4	0.000224	0	-1E+10	1	-1E+10	1	-1E+10	1
4902624	44	C	09/04/2025	18:25	-128.893	48.924	0	289.00	0	6.5910	0	33.9510	0	26.651	0	286.350	0	-1e10	1	-1e10	1	-1E+10	1	-1e10	1	-1e10	1	-1E+10	1	-1E+10	1	-1E+10	1
4902624	44	C	09/04/2025	18:25	-128.893	48.924	0	289.70	0	6.5844	0	33.9514	0	26.652	0	287.043	0	68.2	4	22.8	4	-1E+10	1	0.0472	4	0.000230	0	-1E+10	1	-1E+10	1	-1E+10	1
4902624	44	C	09/04/2025	18:25	-128.893	48.924	0	290.80	0	6.5739	0	33.9519	0	26.654	0	288.133	0	68.0	4	22.8	4	-1E+10	1	0.0468	4	0.000249	0	-1E+10	1	-1E+10	1	-1E+10	1
4902624	44	C	09/04/2025	18:25	-128.893	48.924	0	291.00	0	6.5720	0	33.9520	0	26.654	0	288.331	0	-1e10	1	-1e10	1	-1E+10	1	-1e10	1	-1e10	1	-1E+10	1	-1E+10	1	-1E+10	1
4902624	44	C	09/04/2025	18:25	-128.893	48.924	0	291.90	0	6.5497	0	33.9529	0	26.658	0	289.222	0	67.8	4	22.7	4	-1E+10	1	0.0511	4	0.000235	0	-1E+10	1	-1E+10	1	-1E+10	1
4902624	44	C	09/04/2025	18:25	-128.893	48.924	0	293.10	0	6.5200	0	33.9540	0	26.663	0	290.410	0	-1e10	1	-1e10	1	-1E+10	1	-1e10	1	-1e10	1	-1E+10	1	-1E+10	1	-1E+10	1
4902624	44	C	09/04/2025	18:25	-128.893	48.924	0	295.10	0	6.4970	0	33.9550	0	26.667	0	292.390	0	-1e10	1	-1e10	1	-1E+10	1	-1e10	1	-1e10	1	-1E+10	1	-1E+10	1	-1E+10	1
4902624	44	C	09/04/2025	18:25	-128.893	48.924	0	297.10	0	6.4790	0	33.9550	0	26.669	0	294.370	0	-1e10	1	-1e10	1	-1E+10	1	-1e10	1	-1e10	1	-1E+10	1	-1E+10	1	-1E+10	1
4902624	44	C	09/04/2025	18:25	-128.893	48.924	0	299.10	0	6.4740	0	33.9550	0	26.670	0	296.350	0	-1e10	1	-1e10	1	-1E+10	1	-1e10	1	-1e10	1	-1E+10	1	-1E+10	1	-1E+10	1
4902624	44	C	09/04/2025	18:25	-128.893	48.924	0	303.10	0	6.4252	0	33.9584	0	26.679	0	300.311	0	66.0	4	22.0	4	-1E+10	1	0.0511	4	0.000245	0	-1E+10	1	-1E+10	1	-1E+10	1
4902624	44	C	09/04/2025	18:25	-128.893	48.924	0	305.00	0	6.4020	0	33.9600	0	26.683	0	302.192	0	-1e10	1	-1e10	1	-1E+10	1	-1e10	1	-1e10	1	-1E+10	1	-1E+10	1	-1E+10	1
4902624	44	C	09/04/2025	18:25	-128.893	48.924	0	314.60	0	6.3305	0	33.9628	0	26.695	0	311.696	0	64.2	4	21.4	4	-1E+10	1	0.0514	4	0.000213	0	-1E+10	1	-1E+10	1	-1E+10	1
4902624	44	C	09/04/2025	18:25	-128.893	48.924	0	315.20	0	6.3260	0	33.9630	0	26.695	0	312.290	0	-1e10	1	-1e10	1	-1E+10	1	-1e10	1	-1e10	1	-1E+10	1	-1E+10	1	-1E+10	1
4902624	44	C	09/04/2025	18:25	-128.893	48.924	0	325.10	0	6.2650	0	33.9670	0	26.707	0	322.091	0	-1e10	1	-1e10	1	-1E+10	1	-1e10	1	-1e10	1	-1E+10	1	-1E+10	1	-1E+10	1
4902624	44	C	09/04/2025	18:25	-128.893	48.924	0	326.20	0	6.2545	0	33.9677	0	26.708	0	323.180	0	62.4	4	20.8	4	-1E+10	1	0.0580	4	0.000257	0	-1E+10	1	-1E+10	1	-1E+10	1
4902624	44	C	09/04/2025	18:25	-128.893	48.924	0	334.20	0	6.1786	0	33.9725	0	26.722	0	331.100	0	60.3	4	20.0	4	-1E+10	1	0.0511	4	0.000234	0	-1E+10	1	-1E+10	1	-1E+10	1
4902624	44	C	09/04/2025	18:25	-128.893	48.924	0	335.10	0	6.1700	0	33.9730	0	26.723	0	331.991	0	-1e10	1	-1e10	1	-1E+10	1	-1e10	1	-1e10	1	-1E+10	1	-1E+10	1	-1E+10	1
4902624	44	C	09/04/2025	18:25	-128.893	48.924	0	342.80	0	6.1054	0	33.9769	0	26.735	0	339.613	0	58.7	4	19.5	4	-1E+10	1	0.0505	4	0.000212	0	-1E+10	1	-1E+10	1	-1E+10	1
4902624	44	C	09/04/2025	18:25	-128.893	48.924	0	345.00	0	6.0870	0	33.9780	0	26.738	0	341.791	0	-1e10	1	-1e10	1	-1E+10	1	-1e10	1	-1e10	1	-1E+10	1	-1E+10	1	-1E+10	1
4902624	44	C	09/04/2025	18:25	-128.893	48.924	0	351.90	0	6.0391	0	33.9808	0	26.746	0	348.621	0	56.6	4	18.7	4	-1E+10	1	0.0367	4	0.000224	0	-1E+10	1	-1E+10	1	-1E+10	1
4902624	44	C	09/04/2025	18:25	-128.893	48.924	0	354.80	0	6.0190	0	33.9820	0	26.750	0	351.491	0	-1e10	1	-1e10	1	-1E+10	1	-1e10	1	-1e10	1	-1E+10	1	-1E+10	1	-1E+10	1
4902624	44	C	09/04/2025	18:25	-128.893	48.924	0	361.70	0	5.9507	0	33.9867	0	26.762	0	358.321	0	54.3	4	17.9	4	-1E+10	1	0.0438	4	0.000256	0	-1E+10	1	-1E+10	1	-1E+10	1
4902624	44	C	09/04/2025	18:25	-128.893	48.924	0	365.00	0	5.9180	0	33.9890	0	26.768	0	361.587	0	-1e10	1	-1e10	1	-1E+10	1	-1e10	1	-1e10	1	-1E+10	1	-1E+10	1	-1E+10	1
4902624	44	C	09/04/2025	18:25	-128.893	48.924	0	372.20	0	5.8678	0	33.9934	0	26.778	0	368.713	0	52.7	4	17.4	4	-1E+10	1	0.0441	4	0.000200	0	-1E+10	1	-1E+10	1	-1E+10	1
4902624	44	C	09/04/2025	18:25	-128.893	48.924	0	374.90	0	5.8490	0	33.9950	0	26.781	0	371.386	0	-1e10	1	-1e10	1	-1E+10	1	-1e10	1	-1e10	1	-1E+10	1	-1E+10	1	-1E+10	1
4902624	44	C	09/04/2025	18:25	-128.893	48.924	0	382.80	0	5.8229	0	33.9974	0	26.787	0	379.204	0	51.2	4	16.9	4	-1E+10	1	0.0511	4	0.000210	0	-1E+10	1	-1E+10	1	-1E+10	1
4902624	44	C	09/04/2025	18:25	-128.893	48.924	0	384.90	0	5.8160	0	33.9980	0	26.788	0	381.283	0	-1e10	1	-1e10	1	-1E+10	1	-1e10	1	-1e10	1	-1E+10	1	-1E+10	1	-1E+10	1
4902624	44	C	09/04/2025	18:25	-128.893	48.924	0	393.60	0	5.7603	0	34.0031	0	26.799	0	389.893	0	49.1	4	16.1	4	-1E+10	1	0.0514	4	0.000199	0	-1E+10	1	-1E+10	1	-1E+10	1
4902624	44	C	09/04/2025	18:25	-128.893	48.924	0	395.20	0	5.7500	0	34.0040	0	26.801	0	391.476	0	-1e10	1	-1e10	1	-1E+10	1	-1e10	1	-1e10	1	-1E+10	1	-1E+10	1	-1E+10	1
4902624	44	C	09/04/2025	18:25	-128.893	48.924	0	404.50	0	5.6781	0	34.0107	0	26.815	0	400.680	0	46.8	4	15.4	4	-1E+10	1	0.0581	4	0.000211	0	-1E+10	1	-1E+10	1	-1E+10	1
4902624	44	C	09/04/2025	18:25	-128.893	48.924	0	404.90	0	5.6750	0	34.0110	0	26.816	0	401.076	0	-1e10	1	-1e10	1	-1E+10	1	-1e10	1	-1e10	1	-1E+10	1	-1E+10	1	-1E+10	1
4902624	44	C	09/04/2025	18:25	-128.893	48.924	0	414.80	0	5.6140	0	34.0170	0	26.828	0	410.872	0	-1e10	1	-1e10	1	-1E+10	1	-1e10	1	-1e10	1	-1E+10	1	-1E+10	1	-1E+10	1
4902624	44	C	09/04/2025	18:25	-128.893	48.924	0	415.50	0	5.6089	0	34.0175	0	26.829	0	411.565	0	44.9	4	14.7	4	-1E+10	1	0.0514	4	0.000210	0	-1E+10	1	-1E+10	1	-1E+10	1
4902624	44	C	09/04/2025	18:25	-128.893	48.924	0	424.90	0	5.5410	0	34.0240	0	26.842	0	420.866	0	-1e10	1	-1e10	1	-1E+10	1	-1e10	1	-1e10	1	-1E+10	1	-1E+10	1	-1E+10	1
4902624	44	C	09/04/2025	18:25	-128.893	48.924	0	426.40	0	5.5354	0	34.0246	0	26.843	0	422.351	0	43.1	4	14.1	4	-1E+10	1	0.0581	4	0.000209	0	-1E+10	1	-1E+10	1	-1E+10	1
4902624	44	C	09/04/2025	18:25	-128.893	48.924	0	434.90	0	5.5040	0	34.0280	0	26.850	0	430.761	0	-1e10	1	-1e10	1	-1E+10	1	-1e10	1	-1e10	1	-1E+10	1	-1E+10	1	-1E+10	1
4902624	44	C	09/04/2025	18:25	-128.893	48.924	0	437.20	0	5.4889	0	34.0294	0	26.853	0	433.037	0	41.5	4	13.6	4	-1E+10	1	0.0514	4	0.000178	0	-1E+10	1	-1E+10	1	-1E+10	1
4902624	44	C	09/04/2025	18:25	-128.893	48.924	0	445.10	0	5.4370	0	34.0340	0	26.863	0	440.853	0	-1e10	1	-1e10	1	-1E+10	1	-1e10	1	-1e10	1	-1E+10	1	-1E+10	1	-1E+10	1
4902624	44	C	09/04/2025	18:25	-128.893	48.924	0	447.80	0	5.4294	0	34.0354	0	26.865	0	443.524	0	40.1	4	13.1	4	-1E+10	1	0.0587	4	0.000241	0	-1E+10	1	-1E+10	1	-1E+10	1
4902624	44	C	09/04/2025	18:25	-128.893	48.924	0	455.10	0	5.4090	0	34.0390	0	26.870	0	450.747	0	-1e10	1	-1e10	1	-1E+10	1	-1e10	1	-1e10	1	-1E+10	1	-1E+10	1	-1E+10	1
4902624	44	C	09/04/2025	18:25	-128.893	48.924	0	458.50	0	5.3903	0	34.0407	0	26.874	0	454.111	0	38.7	4	12.6	4	-1E+10	1	0.0654	4	0.000436	0	-1E+10	1	-1E+10	1	-1E+10	1
4902624	44	C	09/04/2025	18:25	-128.893	48.924	0	465.10	0	5.3540	0	34.0440	0	26.881	0	460.640	0	-1e10	1	-1e10	1	-1E+10	1	-1e10	1	-1e10	1	-1E+10	1	-1E+10	1	-1E+10	1
4902624	44	C	09/04/2025	18:25	-128.893	48.924	0	468.90	0	5.3383	0	34.0460	0	26.884	0	464.399	0	37.3	4	12.1	4	-1E+10	1	0.0584	4	0.000220	0	-1E+10	1	-1E+10	1	-1E+10	1
4902624	44	C	09/04/2025	18:25	-128.893	48.924	0	474.80	0	5.3140	0	34.0490	0	26.889	0	470.236	0	-1e10	1	-1e10	1	-1E+10	1	-1e10	1	-1e10	1	-1E+10	1	-1E+10	1	-1E+10	1
4902624	44	C	09/04/2025	18:25	-128.893	48.924	0	479.10	0	5.2921	0	34.0528	0	26.895	0	474.490	0	35.5	4	11.6	4	-1E+10	1	0.0587	4	0.000197	0	-1E+10	1	-1E+10	1	-1E+10	1
4902624	44	C	09/04/2025	18:25	-128.893	48.924	0	485.00	0	5.2620	0	34.0580	0	26.903	0	480.326	0	-1e10	1	-1e10	1	-1E+10	1	-1e10	1	-1e10	1	-1E+10	1	-1E+10	1	-1E+10	1
4902624	44	C	09/04/2025	18:25	-128.893	48.924	0	489.30	0	5.2491	0	34.0602	0	26.906	0	484.580	0	34.3	4	11.1	4	-1E+10	1	0.0651	4	0.000163	0	-1E+10	1	-1E+10	1	-1E+10	1
4902624	44	C	09/04/2025	18:25	-128.893	48.924	0	495.00	0	5.2320	0	34.0630	0	26.910	0	490.218	0	-1e10	1	-1e10	1	-1E+10	1	-1e10	1	-1e10	1	-1E+10	1	-1E+10	1	-1E+10	1
4902624	44	C	09/04/2025	18:25	-128.893	48.924	0	499.50	0	5.2158	0	34.0661	0	26.915	0	494.669	0	33.0	4	10.7	4	-1E+10	1	0.0511	4	0.000164	0	-1E+10	1	-1E+10	1	-1E+10	1
4902624	44	C	09/04/2025	18:25	-128.893	48.924	0	505.30	0	5.1950	0	34.0700	0	26.920	0	500.406	0	-1e10	1	-1e10	1	-1E+10	1	-1e10	1	-1e10	1	-1E+10	1	-1E+10	1	-1E+10	1
4902624	44	C	09/04/2025	18:25	-128.893	48.924	0	509.70	0	5.1853	0	34.0718	0	26.923	0	504.758	0	31.7	4	10.3	4	-1E+10	1	0.0508	4	0.000198	0	-1E+10	1	-1E+10	1	-1E+10	1
4902624	44	C	09/04/2025	18:25	-128.893	48.924	0	515.30	0	5.1730	0	34.0740	0	26.926	0	510.297	0	-1e10	1	-1e10	1	-1E+10	1	-1e10	1	-1e10	1	-1E+10	1	-1E+10	1	-1E+10	1
4902624	44	C	09/04/2025	18:25	-128.893	48.924	0	520.10	0	5.1470	0	34.0789	0	26.933	0	515.045	0	29.8	4	9.7	4	-1E+10	1	0.0443	4	0.000199	0	-1E+10	1	-1E+10	1	-1E+10	1
4902624	44	C	09/04/2025	18:25	-128.893	48.924	0	525.10	0	5.1200	0	34.0840	0	26.940	0	519.990	0	-1e10	1	-1e10	1	-1E+10	1	-1e10	1	-1e10	1	-1E+10	1	-1E+10	1	-1E+10	1
4902624	44	C	09/04/2025	18:25	-128.893	48.924	0	531.10	0	5.0945	0	34.0882	0	26.947	0	525.924	0	28.5	4	9.2	4	-1E+10	1	0.0581	4	0.000241	0	-1E+10	1	-1E+10	1	-1E+10	1
4902624	44	C	09/04/2025	18:25	-128.893	48.924	0	535.00	0	5.0780	0	34.0910	0	26.951	0	529.781	0	-1e10	1	-1e10	1	-1E+10	1	-1e10	1	-1e10	1	-1E+10	1	-1E+10	1	-1E+10	1
4902624	44	C	09/04/2025	18:25	-128.893	48.924	0	542.70	0	5.0632	0	34.0941	0	26.955	0	537.396	0	27.8	4	9.0	4	-1E+10	1	0.0515	4	0.000175	0	-1E+10	1	-1E+10	1	-1E+10	1
4902624	44	C	09/04/2025	18:25	-128.893	48.924	0	544.90	0	5.0590	0	34.0950	0	26.956	0	539.571	0	-1e10	1	-1e10	1	-1E+10	1	-1e10	1	-1e10	1	-1E+10	1	-1E+10	1	-1E+10	1
4902624	44	C	09/04/2025	18:25	-128.893	48.924	0	552.70	0	5.0451	0	34.0973	0	26.960	0	547.285	0	26.8	4	8.7	4	-1E+10	1	0.0584	4	0.000197	0	-1E+10	1	-1E+10	1	-1E+10	1
4902624	44	C	09/04/2025	18:25	-128.893	48.924	0	555.00	0	5.0410	0	34.0980	0	26.961	0	549.559	0	-1e10	1	-1e10	1	-1E+10	1	-1e10	1	-1e10	1	-1E+10	1	-1E+10	1	-1E+10	1
4902624	44	C	09/04/2025	18:25	-128.893	48.924	0	560.70	0	5.0214	0	34.1020	0	26.966	0	555.196	0	25.8	4	8.3	4	-1E+10	1	0.0584	4	0.000198	0	-1E+10	1	-1E+10	1	-1E+10	1
4902624	44	C	09/04/2025	18:25	-128.893	48.924	0	564.90	0	5.0070	0	34.1050	0	26.970	0	559.349	0	-1e10	1	-1e10	1	-1E+10	1	-1e10	1	-1e10	1	-1E+10	1	-1E+10	1	-1E+10	1
4902624	44	C	09/04/2025	18:25	-128.893	48.924	0	569.40	0	4.9885	0	34.1085	0	26.975	0	563.799	0	24.7	4	8.0	4	-1E+10	1	0.0587	4	0.000208	0	-1E+10	1	-1E+10	1	-1E+10	1
4902624	44	C	09/04/2025	18:25	-128.893	48.924	0	575.10	0	4.9650	0	34.1130	0	26.981	0	569.435	0	-1e10	1	-1e10	1	-1E+10	1	-1e10	1	-1e10	1	-1E+10	1	-1E+10	1	-1E+10	1
4902624	44	C	09/04/2025	18:25	-128.893	48.924	0	578.60	0	4.9538	0	34.1151	0	26.984	0	572.895	0	23.6	4	7.6	4	-1E+10	1	0.0651	4	0.000196	0	-1E+10	1	-1E+10	1	-1E+10	1
4902624	44	C	09/04/2025	18:25	-128.893	48.924	0	585.10	0	4.9330	0	34.1190	0	26.990	0	579.322	0	-1e10	1	-1e10	1	-1E+10	1	-1e10	1	-1e10	1	-1E+10	1	-1E+10	1	-1E+10	1
4902624	44	C	09/04/2025	18:25	-128.893	48.924	0	588.40	0	4.9264	0	34.1203	0	26.992	0	582.585	0	22.9	4	7.4	4	-1E+10	1	0.0511	4	0.000186	0	-1E+10	1	-1E+10	1	-1E+10	1
4902624	44	C	09/04/2025	18:25	-128.893	48.924	0	595.10	0	4.9130	0	34.1230	0	26.995	0	589.209	0	-1e10	1	-1e10	1	-1E+10	1	-1e10	1	-1e10	1	-1E+10	1	-1E+10	1	-1E+10	1
4902624	44	C	09/04/2025	18:25	-128.893	48.924	0	598.70	0	4.9055	0	34.1237	0	26.997	0	592.769	0	22.3	4	7.2	4	-1E+10	1	0.0511	4	0.000197	0	-1E+10	1	-1E+10	1	-1E+10	1
4902624	44	C	09/04/2025	18:25	-128.893	48.924	0	605.20	0	4.8920	0	34.1250	0	26.999	0	599.195	0	-1e10	1	-1e10	1	-1E+10	1	-1e10	1	-1e10	1	-1E+10	1	-1E+10	1	-1E+10	1
4902624	44	C	09/04/2025	18:25	-128.893	48.924	0	609.50	0	4.8759	0	34.1276	0	27.003	0	603.446	0	21.5	4	6.9	4	-1E+10	1	0.0514	4	0.000208	0	-1E+10	1	-1E+10	1	-1E+10	1
4902624	44	C	09/04/2025	18:25	-128.893	48.924	0	615.10	0	4.8550	0	34.1310	0	27.008	0	608.982	0	-1e10	1	-1e10	1	-1E+10	1	-1e10	1	-1e10	1	-1E+10	1	-1E+10	1	-1E+10	1
4902624	44	C	09/04/2025	18:25	-128.893	48.924	0	620.70	0	4.8459	0	34.1327	0	27.011	0	614.518	0	20.9	4	6.7	4	-1E+10	1	0.0584	4	0.000210	0	-1E+10	1	-1E+10	1	-1E+10	1
4902624	44	C	09/04/2025	18:25	-128.893	48.924	0	625.00	0	4.8390	0	34.1340	0	27.013	0	618.769	0	-1e10	1	-1e10	1	-1E+10	1	-1e10	1	-1e10	1	-1E+10	1	-1E+10	1	-1E+10	1
4902624	44	C	09/04/2025	18:25	-128.893	48.924	0	632.10	0	4.8241	0	34.1354	0	27.015	0	625.788	0	20.0	4	6.5	4	-1E+10	1	0.0584	4	0.000240	0	-1E+10	1	-1E+10	1	-1E+10	1
4902624	44	C	09/04/2025	18:25	-128.893	48.924	0	635.00	0	4.8180	0	34.1360	0	27.017	0	628.654	0	-1e10	1	-1e10	1	-1E+10	1	-1e10	1	-1e10	1	-1E+10	1	-1E+10	1	-1E+10	1
4902624	44	C	09/04/2025	18:25	-128.893	48.924	0	643.60	0	4.7797	0	34.1437	0	27.027	0	637.155	0	19.0	4	6.1	4	-1E+10	1	0.0584	4	0.000185	0	-1E+10	1	-1E+10	1	-1E+10	1
4902624	44	C	09/04/2025	18:25	-128.893	48.924	0	645.10	0	4.7730	0	34.1450	0	27.029	0	638.638	0	-1e10	1	-1e10	1	-1E+10	1	-1e10	1	-1e10	1	-1E+10	1	-1E+10	1	-1E+10	1
4902624	44	C	09/04/2025	18:25	-128.893	48.924	0	654.50	0	4.7519	0	34.1488	0	27.034	0	647.929	0	18.0	4	5.8	4	-1E+10	1	0.0587	4	0.000434	0	-1E+10	1	-1E+10	1	-1E+10	1
4902624	44	C	09/04/2025	18:25	-128.893	48.924	0	654.90	0	4.7510	0	34.1490	0	27.035	0	648.324	0	-1e10	1	-1e10	1	-1E+10	1	-1e10	1	-1e10	1	-1E+10	1	-1E+10	1	-1E+10	1
4902624	44	C	09/04/2025	18:25	-128.893	48.924	0	665.00	0	4.7040	0	34.1580	0	27.047	0	658.307	0	-1e10	1	-1e10	1	-1E+10	1	-1e10	1	-1e10	1	-1E+10	1	-1E+10	1	-1E+10	1
4902624	44	C	09/04/2025	18:25	-128.893	48.924	0	665.50	0	4.7013	0	34.1586	0	27.048	0	658.801	0	16.7	4	5.4	4	-1E+10	1	0.0654	4	0.000197	0	-1E+10	1	-1E+10	1	-1E+10	1
4902624	44	C	09/04/2025	18:25	-128.893	48.924	0	675.00	0	4.6490	0	34.1690	0	27.062	0	668.190	0	-1e10	1	-1e10	1	-1E+10	1	-1e10	1	-1e10	1	-1E+10	1	-1E+10	1	-1E+10	1
4902624	44	C	09/04/2025	18:25	-128.893	48.924	0	676.30	0	4.6441	0	34.1699	0	27.063	0	669.475	0	15.6	4	5.0	4	-1E+10	1	0.0581	4	0.000218	0	-1E+10	1	-1E+10	1	-1E+10	1
4902624	44	C	09/04/2025	18:25	-128.893	48.924	0	685.10	0	4.6110	0	34.1760	0	27.072	0	678.172	0	-1e10	1	-1e10	1	-1E+10	1	-1e10	1	-1e10	1	-1E+10	1	-1E+10	1	-1E+10	1
4902624	44	C	09/04/2025	18:25	-128.893	48.924	0	686.60	0	4.6058	0	34.1770	0	27.073	0	679.654	0	14.9	4	4.8	4	-1E+10	1	0.0511	4	0.000197	0	-1E+10	1	-1E+10	1	-1E+10	1
4902624	44	C	09/04/2025	18:25	-128.893	48.924	0	695.10	0	4.5760	0	34.1830	0	27.081	0	688.054	0	-1e10	1	-1e10	1	-1E+10	1	-1e10	1	-1e10	1	-1E+10	1	-1E+10	1	-1E+10	1
4902624	44	C	09/04/2025	18:25	-128.893	48.924	0	696.50	0	4.5725	0	34.1840	0	27.082	0	689.438	0	14.3	4	4.6	4	-1E+10	1	0.0514	4	0.000230	0	-1E+10	1	-1E+10	1	-1E+10	1
4902624	44	C	09/04/2025	18:25	-128.893	48.924	0	705.10	0	4.5510	0	34.1900	0	27.089	0	697.936	0	-1e10	1	-1e10	1	-1E+10	1	-1e10	1	-1e10	1	-1E+10	1	-1E+10	1	-1E+10	1
4902624	44	C	09/04/2025	18:25	-128.893	48.924	0	706.20	0	4.5475	0	34.1912	0	27.091	0	699.023	0	13.3	4	4.3	4	-1E+10	1	0.0584	4	0.000218	0	-1E+10	1	-1E+10	1	-1E+10	1
4902624	44	C	09/04/2025	18:25	-128.893	48.924	0	715.10	0	4.5190	0	34.2010	0	27.102	0	707.818	0	-1e10	1	-1e10	1	-1E+10	1	-1e10	1	-1e10	1	-1E+10	1	-1E+10	1	-1E+10	1
4902624	44	C	09/04/2025	18:25	-128.893	48.924	0	715.80	0	4.5164	0	34.2017	0	27.103	0	708.509	0	12.4	4	4.0	4	-1E+10	1	0.0584	4	0.000185	0	-1E+10	1	-1E+10	1	-1E+10	1
4902624	44	C	09/04/2025	18:25	-128.893	48.924	0	725.20	0	4.4820	0	34.2110	0	27.114	0	717.798	0	-1e10	1	-1e10	1	-1E+10	1	-1e10	1	-1e10	1	-1E+10	1	-1E+10	1	-1E+10	1
4902624	44	C	09/04/2025	18:25	-128.893	48.924	0	725.40	0	4.4815	0	34.2111	0	27.114	0	717.995	0	12.0	4	3.8	4	-1E+10	1	0.0584	4	0.000206	0	-1E+10	1	-1E+10	1	-1E+10	1
4902624	44	C	09/04/2025	18:25	-128.893	48.924	0	735.10	0	4.4570	0	34.2160	0	27.120	0	727.579	0	-1e10	1	-1e10	1	-1E+10	1	-1e10	1	-1e10	1	-1E+10	1	-1E+10	1	-1E+10	1
4902624	44	C	09/04/2025	18:25	-128.893	48.924	0	735.40	0	4.4562	0	34.2161	0	27.121	0	727.876	0	11.8	4	3.8	4	-1E+10	1	0.0578	4	0.000184	0	-1E+10	1	-1E+10	1	-1E+10	1
4902624	44	C	09/04/2025	18:25	-128.893	48.924	0	745.10	0	4.4300	0	34.2200	0	27.127	0	737.459	0	-1e10	1	-1e10	1	-1E+10	1	-1e10	1	-1e10	1	-1E+10	1	-1E+10	1	-1E+10	1
4902624	44	C	09/04/2025	18:25	-128.893	48.924	0	746.00	0	4.4247	0	34.2209	0	27.128	0	738.348	0	11.3	4	3.6	4	-1E+10	1	0.0443	4	0.000195	0	-1E+10	1	-1E+10	1	-1E+10	1
4902624	44	C	09/04/2025	18:25	-128.893	48.924	0	755.20	0	4.3710	0	34.2300	0	27.141	0	747.438	0	-1e10	1	-1e10	1	-1E+10	1	-1e10	1	-1e10	1	-1E+10	1	-1E+10	1	-1E+10	1
4902624	44	C	09/04/2025	18:25	-128.893	48.924	0	756.70	0	4.3637	0	34.2315	0	27.143	0	748.920	0	10.6	4	3.4	4	-1E+10	1	0.0584	4	0.000184	0	-1E+10	1	-1E+10	1	-1E+10	1
4902624	44	C	09/04/2025	18:25	-128.893	48.924	0	764.00	0	4.3283	0	34.2387	0	27.152	0	756.131	0	10.2	4	3.3	4	-1E+10	1	0.0581	4	0.000195	0	-1E+10	1	-1E+10	1	-1E+10	1
4902624	44	C	09/04/2025	18:25	-128.893	48.924	0	765.30	0	4.3220	0	34.2400	0	27.154	0	757.415	0	-1e10	1	-1e10	1	-1E+10	1	-1e10	1	-1e10	1	-1E+10	1	-1E+10	1	-1E+10	1
4902624	44	C	09/04/2025	18:25	-128.893	48.924	0	772.00	0	4.2969	0	34.2470	0	27.162	0	764.034	0	9.9	4	3.1	4	-1E+10	1	0.0522	4	0.000206	0	-1E+10	1	-1E+10	1	-1E+10	1
4902624	44	C	09/04/2025	18:25	-128.893	48.924	0	774.90	0	4.2860	0	34.2500	0	27.166	0	766.899	0	-1e10	1	-1e10	1	-1E+10	1	-1e10	1	-1e10	1	-1E+10	1	-1E+10	1	-1E+10	1
4902624	44	C	09/04/2025	18:25	-128.893	48.924	0	780.40	0	4.2651	0	34.2538	0	27.171	0	772.332	0	9.7	4	3.1	4	-1E+10	1	0.0793	4	0.000205	0	-1E+10	1	-1E+10	1	-1E+10	1
4902624	44	C	09/04/2025	18:25	-128.893	48.924	0	784.90	0	4.2480	0	34.2570	0	27.176	0	776.777	0	-1e10	1	-1e10	1	-1E+10	1	-1e10	1	-1e10	1	-1E+10	1	-1E+10	1	-1E+10	1
4902624	44	C	09/04/2025	18:25	-128.893	48.924	0	789.50	0	4.2313	0	34.2606	0	27.180	0	781.321	0	9.3	4	3.0	4	-1E+10	1	0.0581	4	0.000172	0	-1E+10	1	-1E+10	1	-1E+10	1
4902624	44	C	09/04/2025	18:25	-128.893	48.924	0	795.10	0	4.2110	0	34.2650	0	27.186	0	786.852	0	-1e10	1	-1e10	1	-1E+10	1	-1e10	1	-1e10	1	-1E+10	1	-1E+10	1	-1E+10	1
4902624	44	C	09/04/2025	18:25	-128.893	48.924	0	799.20	0	4.2044	0	34.2662	0	27.188	0	790.902	0	9.1	4	2.9	4	-1E+10	1	0.0511	4	0.000196	0	-1E+10	1	-1E+10	1	-1E+10	1
4902624	44	C	09/04/2025	18:25	-128.893	48.924	0	805.00	0	4.1950	0	34.2680	0	27.190	0	796.631	0	-1e10	1	-1e10	1	-1E+10	1	-1e10	1	-1e10	1	-1E+10	1	-1E+10	1	-1E+10	1
4902624	44	C	09/04/2025	18:25	-128.893	48.924	0	809.50	0	4.1839	0	34.2711	0	27.194	0	801.075	0	8.9	4	2.8	4	-1E+10	1	0.0511	4	0.000240	0	-1E+10	1	-1E+10	1	-1E+10	1
4902624	44	C	09/04/2025	18:25	-128.893	48.924	0	815.10	0	4.1700	0	34.2750	0	27.198	0	806.606	0	-1e10	1	-1e10	1	-1E+10	1	-1e10	1	-1e10	1	-1E+10	1	-1E+10	1	-1E+10	1
4902624	44	C	09/04/2025	18:25	-128.893	48.924	0	820.00	0	4.1578	0	34.2789	0	27.203	0	811.446	0	8.6	4	2.7	4	-1E+10	1	0.0511	4	0.000215	0	-1E+10	1	-1E+10	1	-1E+10	1
4902624	44	C	09/04/2025	18:25	-128.893	48.924	0	825.10	0	4.1450	0	34.2830	0	27.207	0	816.483	0	-1e10	1	-1e10	1	-1E+10	1	-1e10	1	-1e10	1	-1E+10	1	-1E+10	1	-1E+10	1
4902624	44	C	09/04/2025	18:25	-128.893	48.924	0	830.70	0	4.1352	0	34.2859	0	27.211	0	822.013	0	8.2	4	2.6	4	-1E+10	1	0.0516	4	0.000160	0	-1E+10	1	-1E+10	1	-1E+10	1
4902624	44	C	09/04/2025	18:25	-128.893	48.924	0	834.80	0	4.1280	0	34.2880	0	27.213	0	826.062	0	-1e10	1	-1e10	1	-1E+10	1	-1e10	1	-1e10	1	-1E+10	1	-1E+10	1	-1E+10	1
4902624	44	C	09/04/2025	18:25	-128.893	48.924	0	841.50	0	4.1134	0	34.2933	0	27.219	0	832.679	0	8.1	4	2.6	4	-1E+10	1	0.0654	4	0.000182	0	-1E+10	1	-1E+10	1	-1E+10	1
4902624	44	C	09/04/2025	18:25	-128.893	48.924	0	844.90	0	4.1060	0	34.2960	0	27.222	0	836.036	0	-1e10	1	-1e10	1	-1E+10	1	-1e10	1	-1e10	1	-1E+10	1	-1E+10	1	-1E+10	1
4902624	44	C	09/04/2025	18:25	-128.893	48.924	0	852.50	0	4.0908	0	34.3013	0	27.228	0	843.541	0	7.9	4	2.5	4	-1E+10	1	0.0584	4	0.000180	0	-1E+10	1	-1E+10	1	-1E+10	1
4902624	44	C	09/04/2025	18:25	-128.893	48.924	0	854.90	0	4.0860	0	34.3030	0	27.230	0	845.911	0	-1e10	1	-1e10	1	-1E+10	1	-1e10	1	-1e10	1	-1E+10	1	-1E+10	1	-1E+10	1
4902624	44	C	09/04/2025	18:25	-128.893	48.924	0	863.30	0	4.0785	0	34.3047	0	27.232	0	854.206	0	7.9	4	2.5	4	-1E+10	1	0.0584	4	0.000148	0	-1E+10	1	-1E+10	1	-1E+10	1
4902624	44	C	09/04/2025	18:25	-128.893	48.924	0	865.00	0	4.0770	0	34.3050	0	27.232	0	855.884	0	-1e10	1	-1e10	1	-1E+10	1	-1e10	1	-1e10	1	-1E+10	1	-1E+10	1	-1E+10	1
4902624	44	C	09/04/2025	18:25	-128.893	48.924	0	873.70	0	4.0471	0	34.3110	0	27.240	0	864.475	0	7.7	4	2.4	4	-1E+10	1	0.0584	4	0.000170	0	-1E+10	1	-1E+10	1	-1E+10	1
4902624	44	C	09/04/2025	18:25	-128.893	48.924	0	875.20	0	4.0420	0	34.3120	0	27.241	0	865.956	0	-1e10	1	-1e10	1	-1E+10	1	-1e10	1	-1e10	1	-1E+10	1	-1E+10	1	-1E+10	1
4902624	44	C	09/04/2025	18:25	-128.893	48.924	0	884.20	0	4.0108	0	34.3175	0	27.249	0	874.842	0	7.7	4	2.4	4	-1E+10	1	0.0584	4	0.000170	0	-1E+10	1	-1E+10	1	-1E+10	1
4902624	44	C	09/04/2025	18:25	-128.893	48.924	0	885.00	0	4.0080	0	34.3180	0	27.250	0	875.632	0	-1e10	1	-1e10	1	-1E+10	1	-1e10	1	-1e10	1	-1E+10	1	-1E+10	1	-1E+10	1
4902624	44	C	09/04/2025	18:25	-128.893	48.924	0	894.70	0	3.9487	0	34.3246	0	27.261	0	885.208	0	7.8	4	2.5	4	-1E+10	1	0.0584	4	0.000180	0	-1E+10	1	-1E+10	1	-1E+10	1
4902624	44	C	09/04/2025	18:25	-128.893	48.924	0	895.30	0	3.9450	0	34.3250	0	27.262	0	885.801	0	-1e10	1	-1e10	1	-1E+10	1	-1e10	1	-1e10	1	-1E+10	1	-1E+10	1	-1E+10	1
4902624	44	C	09/04/2025	18:25	-128.893	48.924	0	905.10	0	3.9090	0	34.3320	0	27.271	0	895.476	0	-1e10	1	-1e10	1	-1E+10	1	-1e10	1	-1e10	1	-1E+10	1	-1E+10	1	-1E+10	1
4902624	44	C	09/04/2025	18:25	-128.893	48.924	0	905.20	0	3.9088	0	34.3321	0	27.271	0	895.575	0	7.8	4	2.5	4	-1E+10	1	0.0581	4	0.000158	0	-1E+10	1	-1E+10	1	-1E+10	1
4902624	44	C	09/04/2025	18:25	-128.893	48.924	0	915.10	0	3.8870	0	34.3380	0	27.278	0	905.348	0	-1e10	1	-1e10	1	-1E+10	1	-1e10	1	-1e10	1	-1E+10	1	-1E+10	1	-1E+10	1
4902624	44	C	09/04/2025	18:25	-128.893	48.924	0	915.70	0	3.8860	0	34.3382	0	27.278	0	905.940	0	7.8	4	2.5	4	-1E+10	1	0.0511	4	0.000158	0	-1E+10	1	-1E+10	1	-1E+10	1
4902624	44	C	09/04/2025	18:25	-128.893	48.924	0	924.90	0	3.8710	0	34.3420	0	27.283	0	915.022	0	-1e10	1	-1e10	1	-1E+10	1	-1e10	1	-1e10	1	-1E+10	1	-1E+10	1	-1E+10	1
4902624	44	C	09/04/2025	18:25	-128.893	48.924	0	926.20	0	3.8612	0	34.3423	0	27.284	0	916.305	0	8.0	4	2.5	4	-1E+10	1	0.0514	4	0.000168	0	-1E+10	1	-1E+10	1	-1E+10	1
4902624	44	C	09/04/2025	18:25	-128.893	48.924	0	935.00	0	3.7950	0	34.3440	0	27.292	0	924.992	0	-1e10	1	-1e10	1	-1E+10	1	-1e10	1	-1e10	1	-1E+10	1	-1E+10	1	-1E+10	1
4902624	44	C	09/04/2025	18:25	-128.893	48.924	0	936.70	0	3.7785	0	34.3435	0	27.293	0	926.670	0	8.7	4	2.7	4	-1E+10	1	0.0590	4	0.000149	0	-1E+10	1	-1E+10	1	-1E+10	1
4902624	44	C	09/04/2025	18:25	-128.893	48.924	0	945.10	0	3.6970	0	34.3410	0	27.300	0	934.961	0	-1e10	1	-1e10	1	-1E+10	1	-1e10	1	-1e10	1	-1E+10	1	-1E+10	1	-1E+10	1
4902624	44	C	09/04/2025	18:25	-128.893	48.924	0	947.20	0	3.6739	0	34.3387	0	27.300	0	937.034	0	9.5	4	3.0	4	-1E+10	1	0.0722	4	0.000224	0	-1E+10	1	-1E+10	1	-1E+10	1
4902624	44	C	09/04/2025	18:25	-128.893	48.924	0	955.00	0	3.5880	0	34.3300	0	27.301	0	944.733	0	-1e10	1	-1e10	1	-1E+10	1	-1e10	1	-1e10	1	-1E+10	1	-1E+10	1	-1E+10	1
4902624	44	C	09/04/2025	18:25	-128.893	48.924	0	957.60	0	3.5740	0	34.3297	0	27.303	0	947.299	0	9.8	4	3.1	4	-1E+10	1	0.0514	4	0.000133	0	-1E+10	1	-1E+10	1	-1E+10	1
4902624	44	C	09/04/2025	18:25	-128.893	48.924	0	965.00	0	3.5340	0	34.3290	0	27.306	0	954.602	0	-1e10	1	-1e10	1	-1E+10	1	-1e10	1	-1e10	1	-1E+10	1	-1E+10	1	-1E+10	1
4902624	44	C	09/04/2025	18:25	-128.893	48.924	0	968.10	0	3.5237	0	34.3290	0	27.307	0	957.662	0	10.1	4	3.2	4	-1E+10	1	0.0577	4	0.000123	0	-1E+10	1	-1E+10	1	-1E+10	1
4902624	44	C	09/04/2025	18:25	-128.893	48.924	0	974.90	0	3.5010	0	34.3290	0	27.309	0	964.373	0	-1e10	1	-1e10	1	-1E+10	1	-1e10	1	-1e10	1	-1E+10	1	-1E+10	1	-1E+10	1
4902624	44	C	09/04/2025	18:25	-128.893	48.924	0	978.60	0	3.4867	0	34.3294	0	27.311	0	968.024	0	10.2	4	3.2	4	-1E+10	1	0.0444	4	0.000145	0	-1E+10	1	-1E+10	1	-1E+10	1
4902624	44	C	09/04/2025	18:25	-128.893	48.924	0	985.00	0	3.4620	0	34.3300	0	27.314	0	974.340	0	-1e10	1	-1e10	1	-1E+10	1	-1e10	1	-1e10	1	-1E+10	1	-1E+10	1	-1E+10	1
4902624	44	C	09/04/2025	18:25	-128.893	48.924	0	989.10	0	3.4431	0	34.3288	0	27.315	0	978.386	0	10.7	4	3.3	4	-1E+10	1	0.0582	4	0.000145	0	-1E+10	1	-1E+10	1	-1E+10	1
4902624	44	C	09/04/2025	18:25	-128.893	48.924	0	995.00	0	3.4160	0	34.3270	0	27.316	0	984.209	0	-1e10	1	-1e10	1	-1E+10	1	-1e10	1	-1e10	1	-1E+10	1	-1E+10	1	-1E+10	1
4902624	44	C	09/04/2025	18:25	-128.893	48.924	0	1005.50	0	3.3904	0	34.3329	0	27.323	0	994.570	0	10.7	4	3.3	4	-1E+10	1	0.0514	4	0.000156	0	-1E+10	1	-1E+10	1	-1E+10	1
4902624	44	C	09/04/2025	18:25	-128.893	48.924	0	1023.00	0	3.3476	0	34.3427	0	27.335	0	1011.837	0	10.3	4	3.2	4	-1E+10	1	0.0656	4	0.000121	0	-1E+10	1	-1E+10	1	-1E+10	1
4902624	44	C	09/04/2025	18:25	-128.893	48.924	0	1025.30	0	3.3420	0	34.3440	0	27.337	0	1014.107	0	-1e10	1	-1e10	1	-1E+10	1	-1e10	1	-1e10	1	-1E+10	1	-1E+10	1	-1E+10	1
4902624	44	C	09/04/2025	18:25	-128.893	48.924	0	1040.00	0	3.3150	0	34.3505	0	27.344	0	1028.610	0	10.4	4	3.2	4	-1E+10	1	0.0583	4	0.000133	0	-1E+10	1	-1E+10	1	-1E+10	1
4902624	44	C	09/04/2025	18:25	-128.893	48.924	0	1058.80	0	3.2804	0	34.3589	0	27.354	0	1047.157	0	11.1	4	3.4	4	-1E+10	1	0.0511	4	0.000121	0	-1E+10	1	-1E+10	1	-1E+10	1
4902624	44	C	09/04/2025	18:25	-128.893	48.924	0	1074.80	0	3.2510	0	34.3660	0	27.363	0	1062.941	0	-1e10	1	-1e10	1	-1E+10	1	-1e10	1	-1e10	1	-1E+10	1	-1E+10	1	-1E+10	1
4902624	44	C	09/04/2025	18:25	-128.893	48.924	0	1078.70	0	3.2459	0	34.3673	0	27.364	0	1066.788	0	19.1	4	5.9	4	-1E+10	1	0.0511	4	0.000133	0	-1E+10	1	-1E+10	1	-1E+10	1
4902624	44	C	09/04/2025	18:25	-128.893	48.924	0	1100.00	0	3.2178	0	34.3744	0	27.373	0	1087.798	0	56.7	4	17.6	4	-1E+10	1	0.0516	4	0.000178	0	-1E+10	1	-1E+10	1	-1E+10	1
4902624	44	C	09/04/2025	18:25	-128.893	48.924	0	1123.40	0	3.1870	0	34.3822	0	27.382	0	1110.876	0	60.1	4	18.6	4	-1E+10	1	0.0729	4	0.000121	0	-1E+10	1	-1E+10	1	-1E+10	1
4902624	44	C	09/04/2025	18:25	-128.893	48.924	0	1125.70	0	3.1840	0	34.3830	0	27.383	0	1113.144	0	-1e10	1	-1e10	1	-1E+10	1	-1e10	1	-1e10	1	-1E+10	1	-1E+10	1	-1E+10	1
4902624	44	C	09/04/2025	18:25	-128.893	48.924	0	1148.50	0	3.1649	0	34.3928	0	27.393	0	1135.629	0	58.5	4	18.1	4	-1E+10	1	0.0654	4	0.000177	0	-1E+10	1	-1E+10	1	-1E+10	1
4902624	44	C	09/04/2025	18:25	-128.893	48.924	0	1173.50	0	3.1439	0	34.4035	0	27.403	0	1160.279	0	64.7	4	20.0	4	-1E+10	1	0.0513	4	0.000131	0	-1E+10	1	-1E+10	1	-1E+10	1
4902624	44	C	09/04/2025	18:25	-128.893	48.924	0	1174.60	0	3.1430	0	34.4040	0	27.404	0	1161.364	0	-1e10	1	-1e10	1	-1E+10	1	-1e10	1	-1e10	1	-1E+10	1	-1E+10	1	-1E+10	1
4902624	44	C	09/04/2025	18:25	-128.893	48.924	0	1198.00	0	3.1260	0	34.4150	0	27.414	0	1184.434	0	56.9	4	17.6	4	-1E+10	1	0.0584	4	0.000119	0	-1E+10	1	-1E+10	1	-1E+10	1
4902624	44	C	09/04/2025	18:25	-128.893	48.924	0	1221.20	0	3.1092	0	34.4259	0	27.425	0	1207.305	0	58.2	4	18.0	4	-1E+10	1	0.0583	4	0.000130	0	-1E+10	1	-1E+10	1	-1E+10	1
4902624	44	C	09/04/2025	18:25	-128.893	48.924	0	1225.60	0	3.1060	0	34.4280	0	27.427	0	1211.642	0	-1e10	1	-1e10	1	-1E+10	1	-1e10	1	-1e10	1	-1E+10	1	-1E+10	1	-1E+10	1
4902624	44	C	09/04/2025	18:25	-128.893	48.924	0	1243.40	0	3.0719	0	34.4339	0	27.435	0	1229.188	0	60.1	4	18.6	4	-1E+10	1	0.0514	4	0.000142	0	-1E+10	1	-1E+10	1	-1E+10	1
4902624	44	C	09/04/2025	18:25	-128.893	48.924	0	1265.60	0	3.0295	0	34.4412	0	27.444	0	1251.068	0	43.3	4	13.4	4	-1E+10	1	0.0656	4	0.000164	0	-1E+10	1	-1E+10	1	-1E+10	1
4902624	44	C	09/04/2025	18:25	-128.893	48.924	0	1274.20	0	3.0130	0	34.4440	0	27.448	0	1259.544	0	-1e10	1	-1e10	1	-1E+10	1	-1e10	1	-1e10	1	-1E+10	1	-1E+10	1	-1E+10	1
4902624	44	C	09/04/2025	18:25	-128.893	48.924	0	1287.90	0	2.9731	0	34.4477	0	27.455	0	1273.045	0	60.9	4	18.8	4	-1E+10	1	0.0583	4	0.000117	0	-1E+10	1	-1E+10	1	-1E+10	1
4902624	44	C	09/04/2025	18:25	-128.893	48.924	0	1310.70	0	2.9067	0	34.4539	0	27.466	0	1295.511	0	64.5	4	19.9	4	-1E+10	1	0.0515	4	0.000117	0	-1E+10	1	-1E+10	1	-1E+10	1
4902624	44	C	09/04/2025	18:25	-128.893	48.924	0	1325.70	0	2.8630	0	34.4580	0	27.473	0	1310.291	0	-1e10	1	-1e10	1	-1E+10	1	-1e10	1	-1e10	1	-1E+10	1	-1E+10	1	-1E+10	1
4902624	44	C	09/04/2025	18:25	-128.893	48.924	0	1331.40	0	2.8530	0	34.4596	0	27.475	0	1315.907	0	68.1	4	20.9	4	-1E+10	1	0.0652	4	0.000129	0	-1E+10	1	-1E+10	1	-1E+10	1
4902624	44	C	09/04/2025	18:25	-128.893	48.924	0	1347.50	0	2.8248	0	34.4642	0	27.481	0	1331.769	0	73.6	4	22.6	4	-1E+10	1	0.0442	4	0.000128	0	-1E+10	1	-1E+10	1	-1E+10	1
4902624	44	C	09/04/2025	18:25	-128.893	48.924	0	1366.20	0	2.7921	0	34.4695	0	27.489	0	1350.191	0	77.0	4	23.6	4	-1E+10	1	0.0654	4	0.000117	0	-1E+10	1	-1E+10	1	-1E+10	1
4902624	44	C	09/04/2025	18:25	-128.893	48.924	0	1374.80	0	2.7770	0	34.4720	0	27.492	0	1358.662	0	-1e10	1	-1e10	1	-1E+10	1	-1e10	1	-1e10	1	-1E+10	1	-1E+10	1	-1E+10	1
4902624	44	C	09/04/2025	18:25	-128.893	48.924	0	1386.80	0	2.7575	0	34.4751	0	27.496	0	1370.482	0	82.2	4	25.2	4	-1E+10	1	0.0512	4	0.000139	0	-1E+10	1	-1E+10	1	-1E+10	1
4902624	44	C	09/04/2025	18:25	-128.893	48.924	0	1408.90	0	2.7215	0	34.4807	0	27.504	0	1392.250	0	82.2	4	25.2	4	-1E+10	1	0.0584	4	0.000116	0	-1E+10	1	-1E+10	1	-1E+10	1
4902624	44	C	09/04/2025	18:25	-128.893	48.924	0	1425.80	0	2.6940	0	34.4850	0	27.510	0	1408.893	0	-1e10	1	-1e10	1	-1E+10	1	-1e10	1	-1e10	1	-1E+10	1	-1E+10	1	-1E+10	1
4902624	44	C	09/04/2025	18:25	-128.893	48.924	0	1428.50	0	2.6905	0	34.4856	0	27.511	0	1411.552	0	77.9	4	23.9	4	-1E+10	1	0.0585	4	0.000116	0	-1E+10	1	-1E+10	1	-1E+10	1
4902624	44	C	09/04/2025	18:25	-128.893	48.924	0	1445.80	0	2.6680	0	34.4895	0	27.516	0	1428.589	0	77.1	4	23.6	4	-1E+10	1	0.0656	4	0.000126	0	-1E+10	1	-1E+10	1	-1E+10	1
4902624	44	C	09/04/2025	18:25	-128.893	48.924	0	1464.70	0	2.6435	0	34.4937	0	27.521	0	1447.199	0	77.4	4	23.7	4	-1E+10	1	0.0583	4	0.000103	0	-1E+10	1	-1E+10	1	-1E+10	1
4902624	44	C	09/04/2025	18:25	-128.893	48.924	0	1475.10	0	2.6300	0	34.4960	0	27.524	0	1457.439	0	-1e10	1	-1e10	1	-1E+10	1	-1e10	1	-1e10	1	-1E+10	1	-1E+10	1	-1E+10	1
4902624	44	C	09/04/2025	18:25	-128.893	48.924	0	1483.90	0	2.6142	0	34.4981	0	27.528	0	1466.103	0	77.0	4	23.5	4	-1E+10	1	0.0511	4	0.000115	0	-1E+10	1	-1E+10	1	-1E+10	1
4902624	44	C	09/04/2025	18:25	-128.893	48.924	0	1503.00	0	2.5799	0	34.5027	0	27.534	0	1484.907	0	76.6	4	23.4	4	-1E+10	1	0.0511	4	0.000149	0	-1E+10	1	-1E+10	1	-1E+10	1
4902624	44	C	09/04/2025	18:25	-128.893	48.924	0	1522.50	0	2.5449	0	34.5074	0	27.541	0	1504.103	0	78.8	4	24.1	4	-1E+10	1	0.0513	4	0.000114	0	-1E+10	1	-1E+10	1	-1E+10	1
4902624	44	C	09/04/2025	18:25	-128.893	48.924	0	1525.20	0	2.5400	0	34.5080	0	27.542	0	1506.760	0	-1e10	1	-1e10	1	-1E+10	1	-1e10	1	-1e10	1	-1E+10	1	-1E+10	1	-1E+10	1
4902624	44	C	09/04/2025	18:25	-128.893	48.924	0	1541.40	0	2.5045	0	34.5122	0	27.548	0	1522.706	0	79.0	4	24.1	4	-1E+10	1	0.0586	4	0.000125	0	-1E+10	1	-1E+10	1	-1E+10	1
4902624	44	C	09/04/2025	18:25	-128.893	48.924	0	1559.90	0	2.4641	0	34.5171	0	27.556	0	1540.915	0	83.4	4	25.4	4	-1E+10	1	0.0657	4	0.000137	0	-1E+10	1	-1E+10	1	-1E+10	1
4902624	44	C	09/04/2025	18:25	-128.893	48.924	0	1575.00	0	2.4310	0	34.5210	0	27.562	0	1555.775	0	-1e10	1	-1e10	1	-1E+10	1	-1e10	1	-1e10	1	-1E+10	1	-1E+10	1	-1E+10	1
4902624	44	C	09/04/2025	18:25	-128.893	48.924	0	1578.00	0	2.4250	0	34.5216	0	27.563	0	1558.728	0	85.2	4	26.0	4	-1E+10	1	0.0655	4	0.000159	0	-1E+10	1	-1E+10	1	-1E+10	1
4902624	44	C	09/04/2025	18:25	-128.893	48.924	0	1596.10	0	2.3886	0	34.5252	0	27.569	0	1576.539	0	87.8	4	26.7	4	-1E+10	1	0.0584	4	0.000124	0	-1E+10	1	-1E+10	1	-1E+10	1
4902624	44	C	09/04/2025	18:25	-128.893	48.924	0	1614.70	0	2.3513	0	34.5290	0	27.575	0	1594.841	0	85.9	4	26.1	4	-1E+10	1	0.0582	4	0.000101	0	-1E+10	1	-1E+10	1	-1E+10	1
4902624	44	C	09/04/2025	18:25	-128.893	48.924	0	1624.80	0	2.3310	0	34.5310	0	27.578	0	1604.779	0	-1e10	1	-1e10	1	-1E+10	1	-1e10	1	-1e10	1	-1E+10	1	-1E+10	1	-1E+10	1
4902624	44	C	09/04/2025	18:25	-128.893	48.924	0	1634.10	0	2.3167	0	34.5330	0	27.581	0	1613.929	0	84.8	4	25.7	4	-1E+10	1	0.0511	4	0.000112	0	-1E+10	1	-1E+10	1	-1E+10	1
4902624	44	C	09/04/2025	18:25	-128.893	48.924	0	1655.00	0	2.2845	0	34.5375	0	27.587	0	1634.490	0	84.6	4	25.7	4	-1E+10	1	0.0511	4	0.000112	0	-1E+10	1	-1E+10	1	-1E+10	1
4902624	44	C	09/04/2025	18:25	-128.893	48.924	0	1674.90	0	2.2538	0	34.5417	0	27.593	0	1654.066	0	88.1	4	26.7	4	-1E+10	1	0.0511	4	0.000135	0	-1E+10	1	-1E+10	1	-1E+10	1
4902624	44	C	09/04/2025	18:25	-128.893	48.924	0	1676.10	0	2.2520	0	34.5420	0	27.594	0	1655.246	0	-1e10	1	-1e10	1	-1E+10	1	-1e10	1	-1e10	1	-1E+10	1	-1E+10	1	-1E+10	1
4902624	44	C	09/04/2025	18:25	-128.893	48.924	0	1690.50	0	2.2407	0	34.5444	0	27.597	0	1669.411	0	91.3	4	27.7	4	-1E+10	1	0.0508	4	0.000134	0	-1E+10	1	-1E+10	1	-1E+10	1
4902624	44	C	09/04/2025	18:25	-128.893	48.924	0	1707.60	0	2.2273	0	34.5472	0	27.600	0	1686.229	0	94.5	4	28.7	4	-1E+10	1	0.0366	4	0.000111	0	-1E+10	1	-1E+10	1	-1E+10	1
4902624	44	C	09/04/2025	18:25	-128.893	48.924	0	1724.50	0	2.2140	0	34.5500	0	27.603	0	1702.850	0	-1e10	1	-1e10	1	-1E+10	1	-1e10	1	-1e10	1	-1E+10	1	-1E+10	1	-1E+10	1
4902624	44	C	09/04/2025	18:25	-128.893	48.924	0	1725.80	0	2.2128	0	34.5502	0	27.604	0	1704.129	0	99.1	4	30.0	4	-1E+10	1	0.0439	4	0.000110	0	-1E+10	1	-1E+10	1	-1E+10	1
4902624	44	C	09/04/2025	18:25	-128.893	48.924	0	1745.60	0	2.1942	0	34.5525	0	27.607	0	1723.599	0	105.6	4	32.0	4	-1E+10	1	0.0511	4	0.000110	0	-1E+10	1	-1E+10	1	-1E+10	1
4902624	44	C	09/04/2025	18:25	-128.893	48.924	0	1766.90	0	2.1743	0	34.5551	0	27.611	0	1744.544	0	111.0	4	33.6	4	-1E+10	1	0.0510	4	0.000133	0	-1E+10	1	-1E+10	1	-1E+10	1
4902624	44	C	09/04/2025	18:25	-128.893	48.924	0	1774.70	0	2.1670	0	34.5560	0	27.612	0	1752.213	0	-1e10	1	-1e10	1	-1E+10	1	-1e10	1	-1e10	1	-1E+10	1	-1E+10	1	-1E+10	1
4902624	44	C	09/04/2025	18:25	-128.893	48.924	0	1789.10	0	2.1544	0	34.5583	0	27.615	0	1766.370	0	114.7	4	34.7	4	-1E+10	1	0.0441	4	0.000110	0	-1E+10	1	-1E+10	1	-1E+10	1
4902624	44	C	09/04/2025	18:25	-128.893	48.924	0	1812.10	0	2.1343	0	34.5619	0	27.620	0	1788.981	0	116.3	4	35.2	4	-1E+10	1	0.0581	4	0.000144	0	-1E+10	1	-1E+10	1	-1E+10	1
4902624	44	C	09/04/2025	18:25	-128.893	48.924	0	1825.10	0	2.1230	0	34.5640	0	27.622	0	1801.760	0	-1e10	1	-1e10	1	-1E+10	1	-1e10	1	-1e10	1	-1E+10	1	-1E+10	1	-1E+10	1
4902624	44	C	09/04/2025	18:25	-128.893	48.924	0	1834.90	0	2.1151	0	34.5654	0	27.624	0	1811.393	0	117.1	4	35.4	4	-1E+10	1	0.0438	4	0.000132	0	-1E+10	1	-1E+10	1	-1E+10	1
4902624	44	C	09/04/2025	18:25	-128.893	48.924	0	1858.20	0	2.0964	0	34.5687	0	27.628	0	1834.294	0	86.7	4	26.2	4	-1E+10	1	0.0440	4	0.000143	0	-1E+10	1	-1E+10	1	-1E+10	1
4902624	44	C	09/04/2025	18:25	-128.893	48.924	0	1874.90	0	2.0830	0	34.5710	0	27.631	0	1850.707	0	-1e10	1	-1e10	1	-1E+10	1	-1e10	1	-1e10	1	-1E+10	1	-1E+10	1	-1E+10	1
4902624	44	C	09/04/2025	18:25	-128.893	48.924	0	1881.50	0	2.0787	0	34.5718	0	27.632	0	1857.193	0	93.2	4	28.2	4	-1E+10	1	0.0509	4	0.000142	0	-1E+10	1	-1E+10	1	-1E+10	1
4902624	44	C	09/04/2025	18:25	-128.893	48.924	0	1905.10	0	2.0634	0	34.5746	0	27.636	0	1880.384	0	95.8	4	28.9	4	-1E+10	1	0.0436	4	0.000119	0	-1E+10	1	-1E+10	1	-1E+10	1
4902624	44	C	09/04/2025	18:25	-128.893	48.924	0	1925.70	0	2.0500	0	34.5770	0	27.639	0	1900.625	0	-1e10	1	-1e10	1	-1E+10	1	-1e10	1	-1e10	1	-1E+10	1	-1E+10	1	-1E+10	1
4902624	44	C	09/04/2025	18:25	-128.893	48.924	0	1929.20	0	2.0477	0	34.5775	0	27.640	0	1904.063	0	96.3	4	29.1	4	-1E+10	1	0.0367	4	0.000143	0	-1E+10	1	-1E+10	1	-1E+10	1
4902624	44	C	09/04/2025	18:25	-128.893	48.924	0	1953.60	0	2.0320	0	34.5806	0	27.644	0	1928.035	0	98.8	4	29.8	4	-1E+10	1	0.0509	4	0.000238	0	-1E+10	1	-1E+10	1	-1E+10	1
4902624	44	C	09/04/2025	18:25	-128.893	48.924	0	1972.10	0	2.0200	0	34.5830	0	27.647	0	1946.209	0	-1e10	1	-1e10	1	-1E+10	1	-1e10	1	-1e10	1	-1E+10	1	-1E+10	1	-1E+10	1
4902624	44	C	09/04/2025	18:25	-128.893	48.924	0	1977.70	0	-1e10	1	-1e10	1	-1e10	1	1951.709	0	113.2	4	-1e10	4	-1E+10	1	0.0443	4	0.000372	0	-1E+10	1	-1E+10	1	-1E+10	1
4902624	44	C	09/04/2025	18:25	-128.893	48.924	0	1993.20	0	-1e10	1	-1e10	1	-1e10	1	1966.934	0	112.2	4	-1e10	4	-1E+10	1	0.0584	4	0.000167	0	-1E+10	1	-1E+10	1	-1E+10	1
4902624	44	C	09/04/2025	18:25	-128.893	48.924	0																										
4902624	45	C	09/14/2025	13:35	-129.212	48.756	0	0.40	0	16.8831	0	31.9586	0	23.209	0	0.397	0	-1e10	1	-1e10	1	-1E+10	1	0.5913	4	0.001023	0	-1E+10	1	-1E+10	1	-1E+10	1
4902624	45	C	09/14/2025	13:35	-129.212	48.756	0	0.50	0	16.8910	0	31.9570	0	23.206	0	0.496	0	-1e10	1	-1e10	1	-1E+10	1	0.5621	4	0.001012	0	-1E+10	1	-1E+10	1	-1E+10	1
4902624	45	C	09/14/2025	13:35	-129.212	48.756	0	0.90	0	16.8914	0	31.9574	0	23.207	0	0.892	0	-1e10	1	-1e10	1	-1E+10	1	0.5840	4	0.001058	0	-1E+10	1	-1E+10	1	-1E+10	1
4902624	45	C	09/14/2025	13:35	-129.212	48.756	0	1.10	0	16.8916	0	31.9576	0	23.207	0	1.091	0	226.0	4	92.7	4	-1E+10	1	0.5840	4	0.001047	0	-1E+10	1	-1E+10	1	-1E+10	1
4902624	45	C	09/14/2025	13:35	-129.212	48.756	0	1.20	0	16.8917	0	31.9577	0	23.207	0	1.190	0	-1e10	1	-1e10	1	-1E+10	1	0.5913	4	0.001023	0	-1E+10	1	-1E+10	1	-1E+10	1
4902624	45	C	09/14/2025	13:35	-129.212	48.756	0	1.30	0	16.8918	0	31.9578	0	23.207	0	1.289	0	-1e10	1	-1e10	1	-1E+10	1	0.5986	4	0.001047	0	-1E+10	1	-1E+10	1	-1E+10	1
4902624	45	C	09/14/2025	13:35	-129.212	48.756	0	1.40	0	16.8919	0	31.9579	0	23.207	0	1.388	0	-1e10	1	-1e10	1	-1E+10	1	0.5767	4	0.001047	0	-1E+10	1	-1E+10	1	-1E+10	1
4902624	45	C	09/14/2025	13:35	-129.212	48.756	0	1.50	0	16.8920	0	31.9580	0	23.207	0	1.487	0	-1e10	1	-1e10	1	-1E+10	1	-1e10	1	-1e10	1	-1E+10	1	-1E+10	1	-1E+10	1
4902624	45	C	09/14/2025	13:35	-129.212	48.756	0	1.70	0	16.8924	0	31.9580	0	23.207	0	1.686	0	-1e10	1	-1e10	1	-1E+10	1	0.6059	4	0.001000	0	-1E+10	1	-1E+10	1	-1E+10	1
4902624	45	C	09/14/2025	13:35	-129.212	48.756	0	1.80	0	16.8925	0	31.9580	0	23.207	0	1.785	0	-1e10	1	-1e10	1	-1E+10	1	0.5986	4	0.001094	0	-1E+10	1	-1E+10	1	-1E+10	1
4902624	45	C	09/14/2025	13:35	-129.212	48.756	0	2.00	0	16.8929	0	31.9580	0	23.207	0	1.983	0	-1e10	1	-1e10	1	-1E+10	1	0.6059	4	0.001047	0	-1E+10	1	-1E+10	1	-1E+10	1
4902624	45	C	09/14/2025	13:35	-129.212	48.756	0	2.10	0	16.8931	0	31.9580	0	23.207	0	2.082	0	-1e10	1	-1e10	1	-1E+10	1	0.5913	4	0.001035	0	-1E+10	1	-1E+10	1	-1E+10	1
4902624	45	C	09/14/2025	13:35	-129.212	48.756	0	2.50	0	16.8938	0	31.9580	0	23.207	0	2.479	0	225.9	4	92.6	4	-1E+10	1	0.6278	4	0.001058	0	-1E+10	1	-1E+10	1	-1E+10	1
4902624	45	C	09/14/2025	13:35	-129.212	48.756	0	2.60	0	16.8940	0	31.9580	0	23.207	0	2.578	0	-1e10	1	-1e10	1	-1E+10	1	-1e10	1	-1e10	1	-1E+10	1	-1E+10	1	-1E+10	1
4902624	45	C	09/14/2025	13:35	-129.212	48.756	0	2.80	0	16.8936	0	31.9580	0	23.207	0	2.776	0	225.8	4	92.6	4	-1E+10	1	0.6278	4	0.001129	0	-1E+10	1	-1E+10	1	-1E+10	1
4902624	45	C	09/14/2025	13:35	-129.212	48.756	0	3.00	0	16.8931	0	31.9580	0	23.207	0	2.975	0	-1e10	1	-1e10	1	-1E+10	1	0.6059	4	0.001035	0	-1E+10	1	-1E+10	1	-1E+10	1
4902624	45	C	09/14/2025	13:35	-129.212	48.756	0	3.10	0	16.8929	0	31.9580	0	23.207	0	3.074	0	-1e10	1	-1e10	1	-1E+10	1	0.5767	4	0.001058	0	-1E+10	1	-1E+10	1	-1E+10	1
4902624	45	C	09/14/2025	13:35	-129.212	48.756	0	3.20	0	16.8927	0	31.9580	0	23.207	0	3.173	0	-1e10	1	-1e10	1	-1E+10	1	0.5767	4	0.001047	0	-1E+10	1	-1E+10	1	-1E+10	1
4902624	45	C	09/14/2025	13:35	-129.212	48.756	0	3.30	0	16.8924	0	31.9580	0	23.207	0	3.272	0	-1e10	1	-1e10	1	-1E+10	1	0.5767	4	0.001058	0	-1E+10	1	-1E+10	1	-1E+10	1
4902624	45	C	09/14/2025	13:35	-129.212	48.756	0	3.50	0	16.8920	0	31.9580	0	23.207	0	3.470	0	225.8	4	92.6	4	-1E+10	1	0.5840	4	0.001035	0	-1E+10	1	-1E+10	1	-1E+10	1
4902624	45	C	09/14/2025	13:35	-129.212	48.756	0	3.60	0	16.8920	0	31.9580	0	23.207	0	3.570	0	-1e10	1	-1e10	1	-1E+10	1	0.5840	4	0.001047	0	-1E+10	1	-1E+10	1	-1E+10	1
4902624	45	C	09/14/2025	13:35	-129.212	48.756	0	3.80	0	16.8920	0	31.9580	0	23.207	0	3.768	0	-1e10	1	-1e10	1	-1E+10	1	0.6059	4	0.001105	0	-1E+10	1	-1E+10	1	-1E+10	1
4902624	45	C	09/14/2025	13:35	-129.212	48.756	0	4.10	0	16.8920	0	31.9580	0	23.207	0	4.065	0	-1e10	1	-1e10	1	-1E+10	1	0.6424	4	0.001058	0	-1E+10	1	-1E+10	1	-1E+10	1
4902624	45	C	09/14/2025	13:35	-129.212	48.756	0	4.20	0	16.8920	0	31.9580	0	23.207	0	4.164	0	225.8	4	92.6	4	-1E+10	1	0.6278	4	0.002372	0	-1E+10	1	-1E+10	1	-1E+10	1
4902624	45	C	09/14/2025	13:35	-129.212	48.756	0	4.40	0	16.8920	0	31.9580	0	23.207	0	4.363	0	-1e10	1	-1e10	1	-1E+10	1	0.5986	4	0.001023	0	-1E+10	1	-1E+10	1	-1E+10	1
4902624	45	C	09/14/2025	13:35	-129.212	48.756	0	4.50	0	16.8920	0	31.9580	0	23.207	0	4.462	0	-1e10	1	-1e10	1	-1E+10	1	0.5840	4	0.001012	0	-1E+10	1	-1E+10	1	-1E+10	1
4902624	45	C	09/14/2025	13:35	-129.212	48.756	0	4.70	0	16.8918	0	31.9582	0	23.207	0	4.660	0	-1e10	1	-1e10	1	-1E+10	1	0.6132	4	0.001035	0	-1E+10	1	-1E+10	1	-1E+10	1
4902624	45	C	09/14/2025	13:35	-129.212	48.756	0	4.80	0	16.8917	0	31.9583	0	23.207	0	4.759	0	-1e10	1	-1e10	1	-1E+10	1	0.5840	4	0.001047	0	-1E+10	1	-1E+10	1	-1E+10	1
4902624	45	C	09/14/2025	13:35	-129.212	48.756	0	5.00	0	16.8915	0	31.9585	0	23.208	0	4.958	0	225.7	4	92.6	4	-1E+10	1	0.5913	4	0.001070	0	-1E+10	1	-1E+10	1	-1E+10	1
4902624	45	C	09/14/2025	13:35	-129.212	48.756	0	5.30	0	16.8912	0	31.9588	0	23.208	0	5.255	0	-1e10	1	-1e10	1	-1E+10	1	0.5913	4	0.001035	0	-1E+10	1	-1E+10	1	-1E+10	1
4902624	45	C	09/14/2025	13:35	-129.212	48.756	0	5.50	0	16.8910	0	31.9590	0	23.208	0	5.453	0	-1e10	1	-1e10	1	-1E+10	1	0.5840	4	0.001023	0	-1E+10	1	-1E+10	1	-1E+10	1
4902624	45	C	09/14/2025	13:35	-129.212	48.756	0	5.60	0	16.8911	0	31.9589	0	23.208	0	5.553	0	-1e10	1	-1e10	1	-1E+10	1	0.5840	4	0.000976	0	-1E+10	1	-1E+10	1	-1E+10	1
4902624	45	C	09/14/2025	13:35	-129.212	48.756	0	5.70	0	16.8912	0	31.9588	0	23.208	0	5.652	0	225.7	4	92.5	4	-1E+10	1	0.5767	4	0.001058	0	-1E+10	1	-1E+10	1	-1E+10	1
4902624	45	C	09/14/2025	13:35	-129.212	48.756	0	5.90	0	16.8914	0	31.9586	0	23.208	0	5.850	0	-1e10	1	-1e10	1	-1E+10	1	0.6205	4	0.001129	0	-1E+10	1	-1E+10	1	-1E+10	1
4902624	45	C	09/14/2025	13:35	-129.212	48.756	0	6.00	0	16.8915	0	31.9585	0	23.208	0	5.949	0	-1e10	1	-1e10	1	-1E+10	1	0.6059	4	0.000976	0	-1E+10	1	-1E+10	1	-1E+10	1
4902624	45	C	09/14/2025	13:35	-129.212	48.756	0	6.20	0	16.8917	0	31.9583	0	23.207	0	6.147	0	-1e10	1	-1e10	1	-1E+10	1	0.6716	4	0.001117	0	-1E+10	1	-1E+10	1	-1E+10	1
4902624	45	C	09/14/2025	13:35	-129.212	48.756	0	6.40	0	16.8919	0	31.9581	0	23.207	0	6.346	0	225.7	4	92.5	4	-1E+10	1	0.6132	4	0.001035	0	-1E+10	1	-1E+10	1	-1E+10	1
4902624	45	C	09/14/2025	13:35	-129.212	48.756	0	6.50	0	16.8920	0	31.9580	0	23.207	0	6.445	0	-1e10	1	-1e10	1	-1E+10	1	0.6132	4	0.001094	0	-1E+10	1	-1E+10	1	-1E+10	1
4902624	45	C	09/14/2025	13:35	-129.212	48.756	0	6.70	0	16.8920	0	31.9580	0	23.207	0	6.643	0	-1e10	1	-1e10	1	-1E+10	1	0.5986	4	0.001035	0	-1E+10	1	-1E+10	1	-1E+10	1
4902624	45	C	09/14/2025	13:35	-129.212	48.756	0	6.90	0	16.8920	0	31.9580	0	23.207	0	6.842	0	-1e10	1	-1e10	1	-1E+10	1	0.5840	4	0.001082	0	-1E+10	1	-1E+10	1	-1E+10	1
4902624	45	C	09/14/2025	13:35	-129.212	48.756	0	7.00	0	16.8920	0	31.9580	0	23.207	0	6.941	0	-1e10	1	-1e10	1	-1E+10	1	0.5767	4	0.001023	0	-1E+10	1	-1E+10	1	-1E+10	1
4902624	45	C	09/14/2025	13:35	-129.212	48.756	0	7.20	0	16.8920	0	31.9580	0	23.207	0	7.139	0	225.8	4	92.6	4	-1E+10	1	0.5548	4	0.001070	0	-1E+10	1	-1E+10	1	-1E+10	1
4902624	45	C	09/14/2025	13:35	-129.212	48.756	0	7.30	0	16.8920	0	31.9580	0	23.207	0	7.238	0	-1e10	1	-1e10	1	-1E+10	1	0.5840	4	0.001035	0	-1E+10	1	-1E+10	1	-1E+10	1
4902624	45	C	09/14/2025	13:35	-129.212	48.756	0	7.50	0	16.8920	0	31.9580	0	23.207	0	7.436	0	-1e10	1	-1e10	1	-1E+10	1	0.5621	4	0.001047	0	-1E+10	1	-1E+10	1	-1E+10	1
4902624	45	C	09/14/2025	13:35	-129.212	48.756	0	7.80	0	16.8938	0	31.9580	0	23.207	0	7.734	0	-1e10	1	-1e10	1	-1E+10	1	0.5767	4	0.001094	0	-1E+10	1	-1E+10	1	-1E+10	1
4902624	45	C	09/14/2025	13:35	-129.212	48.756	0	8.00	0	16.8950	0	31.9580	0	23.206	0	7.932	0	225.8	4	92.6	4	-1E+10	1	0.5767	4	0.001140	0	-1E+10	1	-1E+10	1	-1E+10	1
4902624	45	C	09/14/2025	13:35	-129.212	48.756	0	8.20	0	16.8962	0	31.9580	0	23.206	0	8.130	0	-1e10	1	-1e10	1	-1E+10	1	0.5913	4	0.001047	0	-1E+10	1	-1E+10	1	-1E+10	1
4902624	45	C	09/14/2025	13:35	-129.212	48.756	0	8.40	0	16.8974	0	31.9580	0	23.206	0	8.329	0	-1e10	1	-1e10	1	-1E+10	1	0.5986	4	0.000976	0	-1E+10	1	-1E+10	1	-1E+10	1
4902624	45	C	09/14/2025	13:35	-129.212	48.756	0	8.50	0	16.8980	0	31.9580	0	23.206	0	8.428	0	-1e10	1	-1e10	1	-1E+10	1	-1e10	1	-1e10	1	-1E+10	1	-1E+10	1	-1E+10	1
4902624	45	C	09/14/2025	13:35	-129.212	48.756	0	8.60	0	16.8983	0	31.9580	0	23.206	0	8.527	0	-1e10	1	-1e10	1	-1E+10	1	0.6570	4	0.001011	0	-1E+10	1	-1E+10	1	-1E+10	1
4902624	45	C	09/14/2025	13:35	-129.212	48.756	0	8.80	0	16.8989	0	31.9580	0	23.206	0	8.725	0	-1e10	1	-1e10	1	-1E+10	1	0.6132	4	0.001105	0	-1E+10	1	-1E+10	1	-1E+10	1
4902624	45	C	09/14/2025	13:35	-129.212	48.756	0	9.00	0	16.8995	0	31.9580	0	23.205	0	8.924	0	225.9	4	92.6	4	-1E+10	1	0.5840	4	0.001011	0	-1E+10	1	-1E+10	1	-1E+10	1
4902624	45	C	09/14/2025	13:35	-129.212	48.756	0	9.30	0	16.9004	0	31.9580	0	23.205	0	9.221	0	-1e10	1	-1e10	1	-1E+10	1	0.5986	4	0.001035	0	-1E+10	1	-1E+10	1	-1E+10	1
4902624	45	C	09/14/2025	13:35	-129.212	48.756	0	9.50	0	16.9010	0	31.9580	0	23.205	0	9.419	0	-1e10	1	-1e10	1	-1E+10	1	-1e10	1	-1e10	1	-1E+10	1	-1E+10	1	-1E+10	1
4902624	45	C	09/14/2025	13:35	-129.212	48.756	0	9.80	0	16.9010	0	31.9580	0	23.205	0	9.717	0	225.9	4	92.6	4	-1E+10	1	0.6059	4	0.001117	0	-1E+10	1	-1E+10	1	-1E+10	1
4902624	45	C	09/14/2025	13:35	-129.212	48.756	0	10.70	0	16.9010	0	31.9580	0	23.205	0	10.609	0	226.1	4	92.7	4	-1E+10	1	0.5880	4	0.001412	0	-1E+10	1	-1E+10	1	-1E+10	1
4902624	45	C	09/14/2025	13:35	-129.212	48.756	0	11.00	0	16.9010	0	31.9580	0	23.205	0	10.907	0	-1e10	1	-1e10	1	-1E+10	1	-1e10	1	-1e10	1	-1E+10	1	-1E+10	1	-1E+10	1
4902624	45	C	09/14/2025	13:35	-129.212	48.756	0	11.60	0	16.9004	0	31.9580	0	23.205	0	11.502	0	226.3	4	92.8	4	-1E+10	1	0.6059	4	0.001000	0	-1E+10	1	-1E+10	1	-1E+10	1
4902624	45	C	09/14/2025	13:35	-129.212	48.756	0	12.50	0	16.8995	0	31.9580	0	23.206	0	12.394	0	226.5	4	92.9	4	-1E+10	1	0.6059	4	0.001021	0	-1E+10	1	-1E+10	1	-1E+10	1
4902624	45	C	09/14/2025	13:35	-129.212	48.756	0	13.00	0	16.8990	0	31.9580	0	23.206	0	12.890	0	-1e10	1	-1e10	1	-1E+10	1	-1e10	1	-1e10	1	-1E+10	1	-1E+10	1	-1E+10	1
4902624	45	C	09/14/2025	13:35	-129.212	48.756	0	13.30	0	16.8995	0	31.9577	0	23.205	0	13.187	0	226.8	4	93.0	4	-1E+10	1	0.5889	4	0.001124	0	-1E+10	1	-1E+10	1	-1E+10	1
4902624	45	C	09/14/2025	13:35	-129.212	48.756	0	14.20	0	16.9008	0	31.9568	0	23.204	0	14.079	0	227.1	4	93.1	4	-1E+10	1	0.6147	4	0.001062	0	-1E+10	1	-1E+10	1	-1E+10	1
4902624	45	C	09/14/2025	13:35	-129.212	48.756	0	15.00	0	16.9020	0	31.9560	0	23.204	0	14.873	0	227.8	4	93.4	4	-1E+10	1	0.6424	4	0.001023	0	-1E+10	1	-1E+10	1	-1E+10	1
4902624	45	C	09/14/2025	13:35	-129.212	48.756	0	15.90	0	16.8986	0	31.9551	0	23.204	0	15.765	0	228.2	4	93.6	4	-1E+10	1	0.6473	4	0.001075	0	-1E+10	1	-1E+10	1	-1E+10	1
4902624	45	C	09/14/2025	13:35	-129.212	48.756	0	16.70	0	16.8955	0	31.9544	0	23.204	0	16.558	0	228.8	4	93.8	4	-1E+10	1	0.6433	4	0.001092	0	-1E+10	1	-1E+10	1	-1E+10	1
4902624	45	C	09/14/2025	13:35	-129.212	48.756	0	17.10	0	16.8940	0	31.9540	0	23.204	0	16.955	0	-1e10	1	-1e10	1	-1E+10	1	-1e10	1	-1e10	1	-1E+10	1	-1E+10	1	-1E+10	1
4902624	45	C	09/14/2025	13:35	-129.212	48.756	0	17.60	0	16.8693	0	31.9558	0	23.211	0	17.450	0	229.9	4	94.2	4	-1E+10	1	0.6703	4	0.001067	0	-1E+10	1	-1E+10	1	-1E+10	1
4902624	45	C	09/14/2025	13:35	-129.212	48.756	0	18.50	0	16.8247	0	31.9592	0	23.224	0	18.343	0	231.1	4	94.6	4	-1E+10	1	0.7300	4	0.001172	0	-1E+10	1	-1E+10	1	-1E+10	1
4902624	45	C	09/14/2025	13:35	-129.212	48.756	0	19.00	0	16.8000	0	31.9610	0	23.231	0	18.838	0	-1e10	1	-1e10	1	-1E+10	1	-1e10	1	-1e10	1	-1E+10	1	-1E+10	1	-1E+10	1
4902624	45	C	09/14/2025	13:35	-129.212	48.756	0	19.50	0	16.7045	0	31.9658	0	23.257	0	19.334	0	232.2	4	94.9	4	-1E+10	1	0.9125	4	0.001211	0	-1E+10	1	-1E+10	1	-1E+10	1
4902624	45	C	09/14/2025	13:35	-129.212	48.756	0	20.60	0	16.4945	0	31.9762	0	23.313	0	20.425	0	233.1	4	94.9	4	-1E+10	1	1.1753	4	0.001281	0	-1E+10	1	-1E+10	1	-1E+10	1
4902624	45	C	09/14/2025	13:35	-129.212	48.756	0	21.10	0	16.3990	0	31.9810	0	23.338	0	20.920	0	-1e10	1	-1e10	1	-1E+10	1	-1e10	1	-1e10	1	-1E+10	1	-1E+10	1	-1E+10	1
4902624	45	C	09/14/2025	13:35	-129.212	48.756	0	21.50	0	16.3670	0	31.9814	0	23.346	0	21.317	0	233.8	4	94.9	4	-1E+10	1	1.1395	4	0.001310	0	-1E+10	1	-1E+10	1	-1E+10	1
4902624	45	C	09/14/2025	13:35	-129.212	48.756	0	22.50	0	16.2870	0	31.9825	0	23.365	0	22.308	0	234.1	4	94.9	4	-1E+10	1	1.2133	4	0.001354	0	-1E+10	1	-1E+10	1	-1E+10	1
4902624	45	C	09/14/2025	13:35	-129.212	48.756	0	23.00	0	16.2470	0	31.9830	0	23.374	0	22.804	0	-1e10	1	-1e10	1	-1E+10	1	-1e10	1	-1e10	1	-1E+10	1	-1E+10	1	-1E+10	1
4902624	45	C	09/14/2025	13:35	-129.212	48.756	0	23.40	0	16.2026	0	31.9841	0	23.385	0	23.201	0	234.9	4	95.0	4	-1E+10	1	1.3001	4	0.001388	0	-1E+10	1	-1E+10	1	-1E+10	1
4902624	45	C	09/14/2025	13:35	-129.212	48.756	0	24.20	0	16.1139	0	31.9864	0	23.407	0	23.994	0	235.6	4	95.2	4	-1E+10	1	1.3760	4	0.001410	0	-1E+10	1	-1E+10	1	-1E+10	1
4902624	45	C	09/14/2025	13:35	-129.212	48.756	0	25.00	0	16.0251	0	31.9887	0	23.429	0	24.787	0	236.4	4	95.3	4	-1E+10	1	1.5074	4	0.001539	0	-1E+10	1	-1E+10	1	-1E+10	1
4902624	45	C	09/14/2025	13:35	-129.212	48.756	0	25.10	0	16.0140	0	31.9890	0	23.431	0	24.886	0	-1e10	1	-1e10	1	-1E+10	1	-1e10	1	-1e10	1	-1E+10	1	-1E+10	1	-1E+10	1
4902624	45	C	09/14/2025	13:35	-129.212	48.756	0	25.60	0	15.8401	0	31.9979	0	23.477	0	25.382	0	237.3	4	95.4	4	-1E+10	1	1.7228	4	0.001633	0	-1E+10	1	-1E+10	1	-1E+10	1
4902624	45	C	09/14/2025	13:35	-129.212	48.756	0	26.00	0	15.7009	0	32.0051	0	23.513	0	25.778	0	238.2	4	95.5	4	-1E+10	1	1.9071	4	0.001607	0	-1E+10	1	-1E+10	1	-1E+10	1
4902624	45	C	09/14/2025	13:35	-129.212	48.756	0	26.30	0	15.5965	0	32.0105	0	23.540	0	26.076	0	239.3	4	95.7	4	-1E+10	1	2.0659	4	0.001598	0	-1E+10	1	-1E+10	1	-1E+10	1
4902624	45	C	09/14/2025	13:35	-129.212	48.756	0	26.60	0	15.4922	0	32.0158	0	23.567	0	26.373	0	239.9	4	95.8	4	-1E+10	1	2.2411	4	0.001891	0	-1E+10	1	-1E+10	1	-1E+10	1
4902624	45	C	09/14/2025	13:35	-129.212	48.756	0	27.00	0	15.3530	0	32.0230	0	23.603	0	26.770	0	240.8	4	95.9	4	-1E+10	1	2.2630	4	0.001644	0	-1E+10	1	-1E+10	1	-1E+10	1
4902624	45	C	09/14/2025	13:35	-129.212	48.756	0	27.30	0	15.2018	0	32.0294	0	23.641	0	27.067	0	241.2	4	95.7	4	-1E+10	1	2.2557	4	0.001832	0	-1E+10	1	-1E+10	1	-1E+10	1
4902624	45	C	09/14/2025	13:35	-129.212	48.756	0	27.50	0	15.1010	0	32.0337	0	23.666	0	27.266	0	241.4	4	95.6	4	-1E+10	1	2.2508	4	0.001786	0	-1E+10	1	-1E+10	1	-1E+10	1
4902624	45	C	09/14/2025	13:35	-129.212	48.756	0	27.70	0	15.0002	0	32.0381	0	23.691	0	27.464	0	241.7	4	95.6	4	-1E+10	1	2.2630	4	0.001786	0	-1E+10	1	-1E+10	1	-1E+10	1
4902624	45	C	09/14/2025	13:35	-129.212	48.756	0	28.10	0	14.7986	0	32.0466	0	23.741	0	27.860	0	242.9	4	95.6	4	-1E+10	1	2.7339	4	0.001926	0	-1E+10	1	-1E+10	1	-1E+10	1
4902624	45	C	09/14/2025	13:35	-129.212	48.756	0	28.40	0	14.6474	0	32.0531	0	23.778	0	28.158	0	243.7	4	95.7	4	-1E+10	1	3.2096	4	0.002046	0	-1E+10	1	-1E+10	1	-1E+10	1
4902624	45	C	09/14/2025	13:35	-129.212	48.756	0	28.90	0	14.3954	0	32.0639	0	23.839	0	28.653	0	244.7	4	95.6	4	-1E+10	1	3.3799	4	0.002173	0	-1E+10	1	-1E+10	1	-1E+10	1
4902624	45	C	09/14/2025	13:35	-129.212	48.756	0	29.00	0	14.3450	0	32.0660	0	23.851	0	28.753	0	-1e10	1	-1e10	1	-1E+10	1	-1e10	1	-1e10	1	-1E+10	1	-1E+10	1	-1E+10	1
4902624	45	C	09/14/2025	13:35	-129.212	48.756	0	29.40	0	14.1340	0	32.0722	0	23.900	0	29.149	0	244.5	4	95.1	4	-1E+10	1	3.3361	4	0.002982	0	-1E+10	1	-1E+10	1	-1E+10	1
4902624	45	C	09/14/2025	13:35	-129.212	48.756	0	30.00	0	13.8175	0	32.0815	0	23.971	0	29.744	0	244.3	4	94.4	4	-1E+10	1	3.0806	4	0.002208	0	-1E+10	1	-1E+10	1	-1E+10	1
4902624	45	C	09/14/2025	13:35	-129.212	48.756	0	30.60	0	13.5010	0	32.0908	0	24.042	0	30.339	0	243.5	4	93.5	4	-1E+10	1	2.7594	4	0.001903	0	-1E+10	1	-1E+10	1	-1E+10	1
4902624	45	C	09/14/2025	13:35	-129.212	48.756	0	31.00	0	13.2900	0	32.0970	0	24.089	0	30.735	0	-1e10	1	-1e10	1	-1E+10	1	-1e10	1	-1e10	1	-1E+10	1	-1E+10	1	-1E+10	1
4902624	45	C	09/14/2025	13:35	-129.212	48.756	0	31.10	0	13.2473	0	32.0978	0	24.098	0	30.835	0	242.6	4	92.7	4	-1E+10	1	2.4628	4	0.001742	0	-1E+10	1	-1E+10	1	-1E+10	1
4902624	45	C	09/14/2025	13:35	-129.212	48.756	0	31.80	0	12.9487	0	32.1031	0	24.161	0	31.529	0	242.0	4	91.8	4	-1E+10	1	2.1421	4	0.001655	0	-1E+10	1	-1E+10	1	-1E+10	1
4902624	45	C	09/14/2025	13:35	-129.212	48.756	0	32.70	0	12.5647	0	32.1100	0	24.240	0	32.421	0	240.5	4	90.6	4	-1E+10	1	1.8923	4	0.001600	0	-1E+10	1	-1E+10	1	-1E+10	1
4902624	45	C	09/14/2025	13:35	-129.212	48.756	0	33.10	0	12.3940	0	32.1130	0	24.275	0	32.817	0	-1e10	1	-1e10	1	-1E+10	1	-1e10	1	-1e10	1	-1E+10	1	-1E+10	1	-1E+10	1
4902624	45	C	09/14/2025	13:35	-129.212	48.756	0	33.50	0	12.3196	0	32.1168	0	24.292	0	33.214	0	239.3	4	89.7	4	-1E+10	1	1.7046	4	0.001480	0	-1E+10	1	-1E+10	1	-1E+10	1
4902624	45	C	09/14/2025	13:35	-129.212	48.756	0	34.40	0	12.1521	0	32.1253	0	24.330	0	34.106	0	238.1	4	88.9	4	-1E+10	1	1.3870	4	0.001326	0	-1E+10	1	-1E+10	1	-1E+10	1
4902624	45	C	09/14/2025	13:35	-129.212	48.756	0	34.90	0	12.0590	0	32.1300	0	24.351	0	34.602	0	-1e10	1	-1e10	1	-1E+10	1	-1e10	1	-1e10	1	-1E+10	1	-1E+10	1	-1E+10	1
4902624	45	C	09/14/2025	13:35	-129.212	48.756	0	35.30	0	11.9894	0	32.1384	0	24.371	0	34.998	0	237.1	4	88.3	4	-1E+10	1	0.9928	4	0.000999	0	-1E+10	1	-1E+10	1	-1E+10	1
4902624	45	C	09/14/2025	13:35	-129.212	48.756	0	36.40	0	11.7980	0	32.1615	0	24.424	0	36.089	0	236.7	4	87.7	4	-1E+10	1	0.9271	4	0.000999	0	-1E+10	1	-1E+10	1	-1E+10	1
4902624	45	C	09/14/2025	13:35	-129.212	48.756	0	36.90	0	11.7110	0	32.1720	0	24.448	0	36.585	0	-1e10	1	-1e10	1	-1E+10	1	-1e10	1	-1e10	1	-1E+10	1	-1E+10	1	-1E+10	1
4902624	45	C	09/14/2025	13:35	-129.212	48.756	0	37.20	0	11.6934	0	32.1706	0	24.450	0	36.882	0	236.2	4	87.4	4	-1E+10	1	0.8862	4	0.000981	0	-1E+10	1	-1E+10	1	-1E+10	1
4902624	45	C	09/14/2025	13:35	-129.212	48.756	0	38.20	0	11.6349	0	32.1658	0	24.457	0	37.873	0	235.8	4	87.1	4	-1E+10	1	0.9461	4	0.001117	0	-1E+10	1	-1E+10	1	-1E+10	1
4902624	45	C	09/14/2025	13:35	-129.212	48.756	0	39.00	0	11.5880	0	32.1620	0	24.463	0	38.666	0	-1e10	1	-1e10	1	-1E+10	1	-1e10	1	-1e10	1	-1E+10	1	-1E+10	1	-1E+10	1
4902624	45	C	09/14/2025	13:35	-129.212	48.756	0	39.10	0	11.5818	0	32.1616	0	24.464	0	38.766	0	235.1	4	86.8	4	-1E+10	1	0.9911	4	0.001278	0	-1E+10	1	-1E+10	1	-1E+10	1
4902624	45	C	09/14/2025	13:35	-129.212	48.756	0	40.10	0	11.5196	0	32.1577	0	24.472	0	39.757	0	234.3	4	86.4	4	-1E+10	1	1.0022	4	0.001279	0	-1E+10	1	-1E+10	1	-1E+10	1
4902624	45	C	09/14/2025	13:35	-129.212	48.756	0	40.80	0	11.4760	0	32.1550	0	24.478	0	40.451	0	-1e10	1	-1e10	1	-1E+10	1	-1e10	1	-1e10	1	-1E+10	1	-1E+10	1	-1E+10	1
4902624	45	C	09/14/2025	13:35	-129.212	48.756	0	41.00	0	11.4518	0	32.1559	0	24.483	0	40.649	0	233.2	4	85.8	4	-1E+10	1	1.4089	4	0.001521	0	-1E+10	1	-1E+10	1	-1E+10	1
4902624	45	C	09/14/2025	13:35	-129.212	48.756	0	42.20	0	11.3067	0	32.1610	0	24.513	0	41.839	0	231.9	4	85.1	4	-1E+10	1	1.3249	4	0.001463	0	-1E+10	1	-1E+10	1	-1E+10	1
4902624	45	C	09/14/2025	13:35	-129.212	48.756	0	42.90	0	11.2220	0	32.1640	0	24.530	0	42.533	0	-1e10	1	-1e10	1	-1E+10	1	-1e10	1	-1e10	1	-1E+10	1	-1E+10	1	-1E+10	1
4902624	45	C	09/14/2025	13:35	-129.212	48.756	0	43.30	0	11.1895	0	32.1667	0	24.538	0	42.929	0	231.3	4	84.6	4	-1E+10	1	0.7718	4	0.001002	0	-1E+10	1	-1E+10	1	-1E+10	1
4902624	45	C	09/14/2025	13:35	-129.212	48.756	0	44.30	0	11.1081	0	32.1735	0	24.558	0	43.920	0	230.2	4	84.1	4	-1E+10	1	0.6677	4	0.000967	0	-1E+10	1	-1E+10	1	-1E+10	1
4902624	45	C	09/14/2025	13:35	-129.212	48.756	0	45.10	0	11.0430	0	32.1790	0	24.573	0	44.714	0	-1e10	1	-1e10	1	-1E+10	1	-1e10	1	-1e10	1	-1E+10	1	-1E+10	1	-1E+10	1
4902624	45	C	09/14/2025	13:35	-129.212	48.756	0	45.40	0	10.9877	0	32.1844	0	24.587	0	45.011	0	229.6	4	83.7	4	-1E+10	1	0.5600	4	0.001065	0	-1E+10	1	-1E+10	1	-1E+10	1
4902624	45	C	09/14/2025	13:35	-129.212	48.756	0	46.60	0	10.7667	0	32.2058	0	24.642	0	46.201	0	229.1	4	83.1	4	-1E+10	1	0.4599	4	0.000823	0	-1E+10	1	-1E+10	1	-1E+10	1
4902624	45	C	09/14/2025	13:35	-129.212	48.756	0	47.00	0	10.6930	0	32.2130	0	24.661	0	46.597	0	-1e10	1	-1e10	1	-1E+10	1	-1e10	1	-1e10	1	-1E+10	1	-1E+10	1	-1E+10	1
4902624	45	C	09/14/2025	13:35	-129.212	48.756	0	47.80	0	10.5918	0	32.2214	0	24.685	0	47.390	0	229.2	4	82.9	4	-1E+10	1	0.4474	4	0.000763	0	-1E+10	1	-1E+10	1	-1E+10	1
4902624	45	C	09/14/2025	13:35	-129.212	48.756	0	48.90	0	10.4527	0	32.2330	0	24.717	0	48.481	0	228.9	4	82.5	4	-1E+10	1	0.4617	4	0.000718	0	-1E+10	1	-1E+10	1	-1E+10	1
4902624	45	C	09/14/2025	13:35	-129.212	48.756	0	49.00	0	10.4400	0	32.2340	0	24.720	0	48.580	0	-1e10	1	-1e10	1	-1E+10	1	-1e10	1	-1e10	1	-1E+10	1	-1E+10	1	-1E+10	1
4902624	45	C	09/14/2025	13:35	-129.212	48.756	0	50.10	0	10.3569	0	32.2411	0	24.740	0	49.670	0	228.6	4	82.2	4	-1E+10	1	0.4531	4	0.000766	0	-1E+10	1	-1E+10	1	-1E+10	1
4902624	45	C	09/14/2025	13:35	-129.212	48.756	0	51.00	0	10.2890	0	32.2470	0	24.756	0	50.562	0	-1e10	1	-1e10	1	-1E+10	1	-1e10	1	-1e10	1	-1E+10	1	-1E+10	1	-1E+10	1
4902624	45	C	09/14/2025	13:35	-129.212	48.756	0	51.20	0	10.2829	0	32.2475	0	24.758	0	50.761	0	227.9	4	81.9	4	-1E+10	1	0.4318	4	0.000773	0	-1E+10	1	-1E+10	1	-1E+10	1
4902624	45	C	09/14/2025	13:35	-129.212	48.756	0	52.30	0	10.2493	0	32.2504	0	24.765	0	51.851	0	227.2	4	81.6	4	-1E+10	1	0.4103	4	0.000743	0	-1E+10	1	-1E+10	1	-1E+10	1
4902624	45	C	09/14/2025	13:35	-129.212	48.756	0	52.90	0	10.2310	0	32.2520	0	24.770	0	52.446	0	-1e10	1	-1e10	1	-1E+10	1	-1e10	1	-1e10	1	-1E+10	1	-1E+10	1	-1E+10	1
4902624	45	C	09/14/2025	13:35	-129.212	48.756	0	53.30	0	10.2116	0	32.2537	0	24.774	0	52.842	0	226.6	4	81.3	4	-1E+10	1	0.4073	4	0.000730	0	-1E+10	1	-1E+10	1	-1E+10	1
4902624	45	C	09/14/2025	13:35	-129.212	48.756	0	54.10	0	10.1727	0	32.2571	0	24.784	0	53.635	0	226.1	4	81.0	4	-1E+10	1	0.4145	4	0.000941	0	-1E+10	1	-1E+10	1	-1E+10	1
4902624	45	C	09/14/2025	13:35	-129.212	48.756	0	54.80	0	10.1387	0	32.2601	0	24.792	0	54.329	0	225.5	4	80.7	4	-1E+10	1	0.4088	4	0.001762	0	-1E+10	1	-1E+10	1	-1E+10	1
4902624	45	C	09/14/2025	13:35	-129.212	48.756	0	55.00	0	10.1290	0	32.2610	0	24.794	0	54.527	0	-1e10	1	-1e10	1	-1E+10	1	-1e10	1	-1e10	1	-1E+10	1	-1E+10	1	-1E+10	1
4902624	45	C	09/14/2025	13:35	-129.212	48.756	0	55.50	0	10.1003	0	32.2633	0	24.800	0	55.023	0	224.9	4	80.5	4	-1E+10	1	0.3723	4	0.000671	0	-1E+10	1	-1E+10	1	-1E+10	1
4902624	45	C	09/14/2025	13:35	-129.212	48.756	0	56.20	0	10.0600	0	32.2664	0	24.810	0	55.717	0	224.4	4	80.2	4	-1E+10	1	0.3531	4	0.000691	0	-1E+10	1	-1E+10	1	-1E+10	1
4902624	45	C	09/14/2025	13:35	-129.212	48.756	0	56.80	0	10.0255	0	32.2691	0	24.817	0	56.312	0	223.9	4	80.0	4	-1E+10	1	0.3732	4	0.000672	0	-1E+10	1	-1E+10	1	-1E+10	1
4902624	45	C	09/14/2025	13:35	-129.212	48.756	0	57.00	0	10.0140	0	32.2700	0	24.820	0	56.510	0	-1e10	1	-1e10	1	-1E+10	1	-1e10	1	-1e10	1	-1E+10	1	-1E+10	1	-1E+10	1
4902624	45	C	09/14/2025	13:35	-129.212	48.756	0	57.50	0	9.9753	0	32.2755	0	24.831	0	57.006	0	223.3	4	79.7	4	-1E+10	1	0.4078	4	0.000639	0	-1E+10	1	-1E+10	1	-1E+10	1
4902624	45	C	09/14/2025	13:35	-129.212	48.756	0	58.20	0	9.9210	0	32.2832	0	24.846	0	57.699	0	222.8	4	79.4	4	-1E+10	1	0.4015	4	0.000618	0	-1E+10	1	-1E+10	1	-1E+10	1
4902624	45	C	09/14/2025	13:35	-129.212	48.756	0	58.90	0	9.8667	0	32.2909	0	24.861	0	58.393	0	222.0	4	79.0	4	-1E+10	1	0.3699	4	0.000604	0	-1E+10	1	-1E+10	1	-1E+10	1
4902624	45	C	09/14/2025	13:35	-129.212	48.756	0	59.00	0	9.8590	0	32.2920	0	24.863	0	58.492	0	-1e10	1	-1e10	1	-1E+10	1	-1e10	1	-1e10	1	-1E+10	1	-1E+10	1	-1E+10	1
4902624	45	C	09/14/2025	13:35	-129.212	48.756	0	59.70	0	9.7936	0	32.3018	0	24.881	0	59.186	0	220.8	4	78.5	4	-1E+10	1	0.3358	4	0.000592	0	-1E+10	1	-1E+10	1	-1E+10	1
4902624	45	C	09/14/2025	13:35	-129.212	48.756	0	60.40	0	9.7281	0	32.3116	0	24.899	0	59.880	0	219.5	4	78.0	4	-1E+10	1	0.2888	4	0.000591	0	-1E+10	1	-1E+10	1	-1E+10	1
4902624	45	C	09/14/2025	13:35	-129.212	48.756	0	61.00	0	9.6720	0	32.3200	0	24.915	0	60.475	0	-1e10	1	-1e10	1	-1E+10	1	-1e10	1	-1e10	1	-1E+10	1	-1E+10	1	-1E+10	1
4902624	45	C	09/14/2025	13:35	-129.212	48.756	0	61.20	0	9.6561	0	32.3226	0	24.920	0	60.673	0	218.1	4	77.3	4	-1E+10	1	0.2628	4	0.000518	0	-1E+10	1	-1E+10	1	-1E+10	1
4902624	45	C	09/14/2025	13:35	-129.212	48.756	0	61.90	0	9.6004	0	32.3317	0	24.936	0	61.367	0	216.6	4	76.7	4	-1E+10	1	0.2309	4	0.000508	0	-1E+10	1	-1E+10	1	-1E+10	1
4902624	45	C	09/14/2025	13:35	-129.212	48.756	0	62.60	0	9.5448	0	32.3408	0	24.952	0	62.061	0	215.1	4	76.1	4	-1E+10	1	0.2263	4	0.000533	0	-1E+10	1	-1E+10	1	-1E+10	1
4902624	45	C	09/14/2025	13:35	-129.212	48.756	0	63.00	0	9.5130	0	32.3460	0	24.961	0	62.457	0	-1e10	1	-1e10	1	-1E+10	1	-1e10	1	-1e10	1	-1E+10	1	-1E+10	1	-1E+10	1
4902624	45	C	09/14/2025	13:35	-129.212	48.756	0	63.40	0	9.4844	0	32.3520	0	24.970	0	62.854	0	213.4	4	75.4	4	-1E+10	1	0.2117	4	0.000487	0	-1E+10	1	-1E+10	1	-1E+10	1
4902624	45	C	09/14/2025	13:35	-129.212	48.756	0	64.20	0	9.4272	0	32.3640	0	24.989	0	63.647	0	211.3	4	74.6	4	-1E+10	1	0.1922	4	0.000486	0	-1E+10	1	-1E+10	1	-1E+10	1
4902624	45	C	09/14/2025	13:35	-129.212	48.756	0	64.90	0	9.3771	0	32.3745	0	25.005	0	64.341	0	209.2	4	73.7	4	-1E+10	1	0.1716	4	0.000493	0	-1E+10	1	-1E+10	1	-1E+10	1
4902624	45	C	09/14/2025	13:35	-129.212	48.756	0	65.00	0	9.3700	0	32.3760	0	25.007	0	64.440	0	-1e10	1	-1e10	1	-1E+10	1	-1e10	1	-1e10	1	-1E+10	1	-1E+10	1	-1E+10	1
4902624	45	C	09/14/2025	13:35	-129.212	48.756	0	65.70	0	9.3033	0	32.4003	0	25.037	0	65.134	0	207.2	4	73.0	4	-1E+10	1	0.1489	4	0.000468	0	-1E+10	1	-1E+10	1	-1E+10	1
4902624	45	C	09/14/2025	13:35	-129.212	48.756	0	66.60	0	9.2176	0	32.4316	0	25.075	0	66.026	0	205.6	4	72.2	4	-1E+10	1	0.1372	4	0.000467	0	-1E+10	1	-1E+10	1	-1E+10	1
4902624	45	C	09/14/2025	13:35	-129.212	48.756	0	66.90	0	9.1890	0	32.4420	0	25.088	0	66.323	0	-1e10	1	-1e10	1	-1E+10	1	-1e10	1	-1e10	1	-1E+10	1	-1E+10	1	-1E+10	1
4902624	45	C	09/14/2025	13:35	-129.212	48.756	0	67.40	0	9.1626	0	32.4572	0	25.104	0	66.819	0	204.1	4	71.7	4	-1E+10	1	0.1314	4	0.000495	0	-1E+10	1	-1E+10	1	-1E+10	1
4902624	45	C	09/14/2025	13:35	-129.212	48.756	0	68.20	0	9.1203	0	32.4816	0	25.129	0	67.612	0	202.3	4	71.0	4	-1E+10	1	0.1314	4	0.000471	0	-1E+10	1	-1E+10	1	-1E+10	1
4902624	45	C	09/14/2025	13:35	-129.212	48.756	0	69.00	0	9.0780	0	32.5060	0	25.155	0	68.405	0	-1e10	1	-1e10	1	-1E+10	1	-1e10	1	-1e10	1	-1E+10	1	-1E+10	1	-1E+10	1
4902624	45	C	09/14/2025	13:35	-129.212	48.756	0	69.10	0	9.0745	0	32.5086	0	25.158	0	68.504	0	200.3	4	70.2	4	-1E+10	1	0.1195	4	0.000462	0	-1E+10	1	-1E+10	1	-1E+10	1
4902624	45	C	09/14/2025	13:35	-129.212	48.756	0	70.00	0	9.0430	0	32.5320	0	25.181	0	69.396	0	198.1	4	69.4	4	-1E+10	1	0.1122	4	0.000437	0	-1E+10	1	-1E+10	1	-1E+10	1
4902624	45	C	09/14/2025	13:35	-129.212	48.756	0	70.90	0	9.0115	0	32.5554	0	25.204	0	70.288	0	195.5	4	68.5	4	-1E+10	1	0.0973	4	0.000418	0	-1E+10	1	-1E+10	1	-1E+10	1
4902624	45	C	09/14/2025	13:35	-129.212	48.756	0	71.00	0	9.0080	0	32.5580	0	25.207	0	70.387	0	-1e10	1	-1e10	1	-1E+10	1	-1e10	1	-1e10	1	-1E+10	1	-1E+10	1	-1E+10	1
4902624	45	C	09/14/2025	13:35	-129.212	48.756	0	71.90	0	8.9846	0	32.5787	0	25.226	0	71.279	0	193.1	4	67.6	4	-1E+10	1	0.0876	4	0.000393	0	-1E+10	1	-1E+10	1	-1E+10	1
4902624	45	C	09/14/2025	13:35	-129.212	48.756	0	72.80	0	8.9612	0	32.5994	0	25.246	0	72.171	0	190.5	4	66.7	4	-1E+10	1	0.0849	4	0.000394	0	-1E+10	1	-1E+10	1	-1E+10	1
4902624	45	C	09/14/2025	13:35	-129.212	48.756	0	73.00	0	8.9560	0	32.6040	0	25.251	0	72.370	0	-1e10	1	-1e10	1	-1E+10	1	-1e10	1	-1e10	1	-1E+10	1	-1E+10	1	-1E+10	1
4902624	45	C	09/14/2025	13:35	-129.212	48.756	0	73.70	0	8.9333	0	32.6268	0	25.272	0	73.063	0	187.5	4	65.6	4	-1E+10	1	0.0759	4	0.000424	0	-1E+10	1	-1E+10	1	-1E+10	1
4902624	45	C	09/14/2025	13:35	-129.212	48.756	0	74.70	0	8.9008	0	32.6592	0	25.303	0	74.055	0	183.9	4	64.3	4	-1E+10	1	0.0606	4	0.000417	0	-1E+10	1	-1E+10	1	-1E+10	1
4902624	45	C	09/14/2025	13:35	-129.212	48.756	0	75.00	0	8.8910	0	32.6690	0	25.312	0	74.352	0	-1e10	1	-1e10	1	-1E+10	1	-1e10	1	-1e10	1	-1E+10	1	-1E+10	1	-1E+10	1
4902624	45	C	09/14/2025	13:35	-129.212	48.756	0	75.80	0	8.8686	0	32.6966	0	25.337	0	75.145	0	180.4	4	63.1	4	-1E+10	1	0.0730	4	0.000377	0	-1E+10	1	-1E+10	1	-1E+10	1
4902624	45	C	09/14/2025	13:35	-129.212	48.756	0	76.80	0	8.8406	0	32.7311	0	25.368	0	76.136	0	177.4	4	62.0	4	-1E+10	1	0.0608	4	0.000428	0	-1E+10	1	-1E+10	1	-1E+10	1
4902624	45	C	09/14/2025	13:35	-129.212	48.756	0	77.00	0	8.8350	0	32.7380	0	25.374	0	76.334	0	-1e10	1	-1e10	1	-1E+10	1	-1e10	1	-1e10	1	-1E+10	1	-1E+10	1	-1E+10	1
4902624	45	C	09/14/2025	13:35	-129.212	48.756	0	77.80	0	8.8174	0	32.7648	0	25.398	0	77.127	0	174.8	4	61.0	4	-1E+10	1	0.0642	4	0.000446	0	-1E+10	1	-1E+10	1	-1E+10	1
4902624	45	C	09/14/2025	13:35	-129.212	48.756	0	78.90	0	8.7932	0	32.8017	0	25.431	0	78.218	0	172.4	4	60.2	4	-1E+10	1	0.0556	4	0.000432	0	-1E+10	1	-1E+10	1	-1E+10	1
4902624	45	C	09/14/2025	13:35	-129.212	48.756	0	79.00	0	8.7910	0	32.8050	0	25.434	0	78.317	0	-1e10	1	-1e10	1	-1E+10	1	-1e10	1	-1e10	1	-1E+10	1	-1E+10	1	-1E+10	1
4902624	45	C	09/14/2025	13:35	-129.212	48.756	0	79.90	0	8.7802	0	32.8162	0	25.444	0	79.209	0	169.7	4	59.2	4	-1E+10	1	0.0511	4	0.000419	0	-1E+10	1	-1E+10	1	-1E+10	1
4902624	45	C	09/14/2025	13:35	-129.212	48.756	0	81.00	0	8.7670	0	32.8300	0	25.457	0	80.299	0	163.5	4	57.1	4	-1E+10	1	0.0569	4	0.000417	0	-1E+10	1	-1E+10	1	-1E+10	1
4902624	45	C	09/14/2025	13:35	-129.212	48.756	0	82.00	0	8.7328	0	32.8516	0	25.479	0	81.290	0	163.8	4	57.1	4	-1E+10	1	0.0657	4	0.000405	0	-1E+10	1	-1E+10	1	-1E+10	1
4902624	45	C	09/14/2025	13:35	-129.212	48.756	0	82.90	0	8.7020	0	32.8710	0	25.499	0	82.182	0	-1e10	1	-1e10	1	-1E+10	1	-1e10	1	-1e10	1	-1E+10	1	-1E+10	1	-1E+10	1
4902624	45	C	09/14/2025	13:35	-129.212	48.756	0	83.00	0	8.6986	0	32.8743	0	25.502	0	82.281	0	160.8	4	56.1	4	-1E+10	1	0.0641	4	0.000381	0	-1E+10	1	-1E+10	1	-1E+10	1
4902624	45	C	09/14/2025	13:35	-129.212	48.756	0	83.90	0	8.6677	0	32.9043	0	25.530	0	83.173	0	158.2	4	55.1	4	-1E+10	1	0.0584	4	0.000421	0	-1E+10	1	-1E+10	1	-1E+10	1
4902624	45	C	09/14/2025	13:35	-129.212	48.756	0	84.70	0	8.6403	0	32.9310	0	25.555	0	83.966	0	155.8	4	54.3	4	-1E+10	1	0.0568	4	0.000372	0	-1E+10	1	-1E+10	1	-1E+10	1
4902624	45	C	09/14/2025	13:35	-129.212	48.756	0	85.00	0	8.6300	0	32.9410	0	25.565	0	84.264	0	-1e10	1	-1e10	1	-1E+10	1	-1e10	1	-1e10	1	-1E+10	1	-1E+10	1	-1E+10	1
4902624	45	C	09/14/2025	13:35	-129.212	48.756	0	85.40	0	8.6138	0	32.9606	0	25.583	0	84.660	0	153.5	4	53.4	4	-1E+10	1	0.0511	4	0.000354	0	-1E+10	1	-1E+10	1	-1E+10	1
4902624	45	C	09/14/2025	13:35	-129.212	48.756	0	86.10	0	8.5855	0	32.9950	0	25.614	0	85.354	0	152.1	4	52.9	4	-1E+10	1	0.0454	4	0.000336	0	-1E+10	1	-1E+10	1	-1E+10	1
4902624	45	C	09/14/2025	13:35	-129.212	48.756	0	86.90	0	8.5531	0	33.0342	0	25.650	0	86.147	0	150.7	4	52.4	4	-1E+10	1	0.0626	4	0.000330	0	-1E+10	1	-1E+10	1	-1E+10	1
4902624	45	C	09/14/2025	13:35	-129.212	48.756	0	87.10	0	8.5450	0	33.0440	0	25.658	0	86.345	0	-1e10	1	-1e10	1	-1E+10	1	-1e10	1	-1e10	1	-1E+10	1	-1E+10	1	-1E+10	1
4902624	45	C	09/14/2025	13:35	-129.212	48.756	0	87.60	0	8.5403	0	33.0490	0	25.663	0	86.840	0	149.4	4	52.0	4	-1E+10	1	0.0560	4	0.000330	0	-1E+10	1	-1E+10	1	-1E+10	1
4902624	45	C	09/14/2025	13:35	-129.212	48.756	0	88.30	0	8.5336	0	33.0560	0	25.670	0	87.534	0	148.0	4	51.5	4	-1E+10	1	0.0548	4	0.000342	0	-1E+10	1	-1E+10	1	-1E+10	1
4902624	45	C	09/14/2025	13:35	-129.212	48.756	0	89.00	0	8.5270	0	33.0630	0	25.676	0	88.228	0	143.0	4	49.7	4	-1E+10	1	0.0529	4	0.000349	0	-1E+10	1	-1E+10	1	-1E+10	1
4902624	45	C	09/14/2025	13:35	-129.212	48.756	0	89.70	0	8.5022	0	33.0861	0	25.698	0	88.922	0	143.4	4	49.8	4	-1E+10	1	0.0470	4	0.000345	0	-1E+10	1	-1E+10	1	-1E+10	1
4902624	45	C	09/14/2025	13:35	-129.212	48.756	0	90.60	0	8.4702	0	33.1158	0	25.726	0	89.814	0	140.7	4	48.9	4	-1E+10	1	0.0569	4	0.000347	0	-1E+10	1	-1E+10	1	-1E+10	1
4902624	45	C	09/14/2025	13:35	-129.212	48.756	0	91.00	0	8.4560	0	33.1290	0	25.739	0	90.210	0	-1e10	1	-1e10	1	-1E+10	1	-1e10	1	-1e10	1	-1E+10	1	-1E+10	1	-1E+10	1
4902624	45	C	09/14/2025	13:35	-129.212	48.756	0	91.40	0	8.4380	0	33.1478	0	25.756	0	90.607	0	138.6	4	48.1	4	-1E+10	1	0.0511	4	0.000319	0	-1E+10	1	-1E+10	1	-1E+10	1
4902624	45	C	09/14/2025	13:35	-129.212	48.756	0	92.40	0	8.3930	0	33.1948	0	25.800	0	91.598	0	137.6	4	47.8	4	-1E+10	1	0.0365	4	0.000319	0	-1E+10	1	-1E+10	1	-1E+10	1
4902624	45	C	09/14/2025	13:35	-129.212	48.756	0	93.00	0	8.3660	0	33.2230	0	25.826	0	92.192	0	-1e10	1	-1e10	1	-1E+10	1	-1e10	1	-1e10	1	-1E+10	1	-1E+10	1	-1E+10	1
4902624	45	C	09/14/2025	13:35	-129.212	48.756	0	93.20	0	8.3647	0	33.2247	0	25.827	0	92.391	0	136.6	4	47.4	4	-1E+10	1	0.0540	4	0.000337	0	-1E+10	1	-1E+10	1	-1E+10	1
4902624	45	C	09/14/2025	13:35	-129.212	48.756	0	94.10	0	8.3588	0	33.2323	0	25.834	0	93.283	0	135.5	4	47.0	4	-1E+10	1	0.0538	4	0.000350	0	-1E+10	1	-1E+10	1	-1E+10	1
4902624	45	C	09/14/2025	13:35	-129.212	48.756	0	95.00	0	8.3530	0	33.2400	0	25.841	0	94.175	0	-1e10	1	-1e10	1	-1E+10	1	-1e10	1	-1e10	1	-1E+10	1	-1E+10	1	-1E+10	1
4902624	45	C	09/14/2025	13:35	-129.212	48.756	0	95.10	0	8.3522	0	33.2411	0	25.842	0	94.274	0	134.2	4	46.5	4	-1E+10	1	0.0414	4	0.000338	0	-1E+10	1	-1E+10	1	-1E+10	1
4902624	45	C	09/14/2025	13:35	-129.212	48.756	0	96.00	0	8.3450	0	33.2505	0	25.851	0	95.166	0	132.7	4	46.0	4	-1E+10	1	0.0325	4	0.000317	0	-1E+10	1	-1E+10	1	-1E+10	1
4902624	45	C	09/14/2025	13:35	-129.212	48.756	0	96.90	0	8.3378	0	33.2600	0	25.859	0	96.058	0	131.5	4	45.6	4	-1E+10	1	0.0341	4	0.000319	0	-1E+10	1	-1E+10	1	-1E+10	1
4902624	45	C	09/14/2025	13:35	-129.212	48.756	0	97.00	0	8.3370	0	33.2610	0	25.860	0	96.157	0	-1e10	1	-1e10	1	-1E+10	1	-1e10	1	-1e10	1	-1E+10	1	-1E+10	1	-1E+10	1
4902624	45	C	09/14/2025	13:35	-129.212	48.756	0	97.90	0	8.3298	0	33.2709	0	25.869	0	97.049	0	130.4	4	45.2	4	-1E+10	1	0.0438	4	0.000345	0	-1E+10	1	-1E+10	1	-1E+10	1
4902624	45	C	09/14/2025	13:35	-129.212	48.756	0	98.80	0	8.3226	0	33.2808	0	25.878	0	97.941	0	129.3	4	44.8	4	-1E+10	1	0.0465	4	0.000345	0	-1E+10	1	-1E+10	1	-1E+10	1
4902624	45	C	09/14/2025	13:35	-129.212	48.756	0	99.00	0	8.3210	0	33.2830	0	25.880	0	98.139	0	-1e10	1	-1e10	1	-1E+10	1	-1e10	1	-1e10	1	-1E+10	1	-1E+10	1	-1E+10	1
4902624	45	C	09/14/2025	13:35	-129.212	48.756	0	99.70	0	8.3158	0	33.2907	0	25.887	0	98.833	0	128.1	4	44.4	4	-1E+10	1	0.0584	4	0.000307	0	-1E+10	1	-1E+10	1	-1E+10	1
4902624	45	C	09/14/2025	13:35	-129.212	48.756	0	100.70	0	8.3085	0	33.3018	0	25.896	0	99.824	0	126.9	4	44.0	4	-1E+10	1	0.0402	4	0.000610	0	-1E+10	1	-1E+10	1	-1E+10	1
4902624	45	C	09/14/2025	13:35	-129.212	48.756	0	100.90	0	8.3070	0	33.3040	0	25.898	0	100.022	0	-1e10	1	-1e10	1	-1E+10	1	-1e10	1	-1e10	1	-1E+10	1	-1E+10	1	-1E+10	1
4902624	45	C	09/14/2025	13:35	-129.212	48.756	0	101.70	0	8.3009	0	33.3120	0	25.906	0	100.815	0	125.6	4	43.5	4	-1E+10	1	0.0307	4	0.000398	0	-1E+10	1	-1E+10	1	-1E+10	1
4902624	45	C	09/14/2025	13:35	-129.212	48.756	0	102.70	0	8.2933	0	33.3220	0	25.915	0	101.806	0	124.2	4	43.1	4	-1E+10	1	0.0487	4	0.000330	0	-1E+10	1	-1E+10	1	-1E+10	1
4902624	45	C	09/14/2025	13:35	-129.212	48.756	0	103.00	0	8.2910	0	33.3250	0	25.917	0	102.103	0	-1e10	1	-1e10	1	-1E+10	1	-1e10	1	-1e10	1	-1E+10	1	-1E+10	1	-1E+10	1
4902624	45	C	09/14/2025	13:35	-129.212	48.756	0	103.70	0	8.2879	0	33.3299	0	25.922	0	102.797	0	122.8	4	42.6	4	-1E+10	1	0.0548	4	0.000354	0	-1E+10	1	-1E+10	1	-1E+10	1
4902624	45	C	09/14/2025	13:35	-129.212	48.756	0	104.70	0	8.2833	0	33.3369	0	25.928	0	103.788	0	121.3	4	42.0	4	-1E+10	1	0.0423	4	0.000363	0	-1E+10	1	-1E+10	1	-1E+10	1
4902624	45	C	09/14/2025	13:35	-129.212	48.756	0	105.00	0	8.2820	0	33.3390	0	25.930	0	104.085	0	-1e10	1	-1e10	1	-1E+10	1	-1e10	1	-1e10	1	-1E+10	1	-1E+10	1	-1E+10	1
4902624	45	C	09/14/2025	13:35	-129.212	48.756	0	105.70	0	8.2730	0	33.3530	0	25.942	0	104.779	0	119.6	4	41.4	4	-1E+10	1	0.0337	4	0.000338	0	-1E+10	1	-1E+10	1	-1E+10	1
4902624	45	C	09/14/2025	13:35	-129.212	48.756	0	106.80	0	8.2589	0	33.3750	0	25.961	0	105.869	0	118.0	4	40.9	4	-1E+10	1	0.0450	4	0.000326	0	-1E+10	1	-1E+10	1	-1E+10	1
4902624	45	C	09/14/2025	13:35	-129.212	48.756	0	107.10	0	8.2550	0	33.3810	0	25.967	0	106.166	0	-1e10	1	-1e10	1	-1E+10	1	-1e10	1	-1e10	1	-1E+10	1	-1E+10	1	-1E+10	1
4902624	45	C	09/14/2025	13:35	-129.212	48.756	0	107.80	0	8.2414	0	33.3991	0	25.983	0	106.860	0	116.2	4	40.3	4	-1E+10	1	0.0511	4	0.000307	0	-1E+10	1	-1E+10	1	-1E+10	1
4902624	45	C	09/14/2025	13:35	-129.212	48.756	0	108.80	0	8.2219	0	33.4248	0	26.006	0	107.851	0	114.4	4	39.6	4	-1E+10	1	0.0438	4	0.000307	0	-1E+10	1	-1E+10	1	-1E+10	1
4902624	45	C	09/14/2025	13:35	-129.212	48.756	0	109.00	0	8.2180	0	33.4300	0	26.011	0	108.049	0	-1e10	1	-1e10	1	-1E+10	1	-1e10	1	-1e10	1	-1E+10	1	-1E+10	1	-1E+10	1
4902624	45	C	09/14/2025	13:35	-129.212	48.756	0	109.90	0	8.2033	0	33.4570	0	26.034	0	108.941	0	113.5	4	39.3	4	-1E+10	1	0.0314	4	0.000346	0	-1E+10	1	-1E+10	1	-1E+10	1
4902624	45	C	09/14/2025	13:35	-129.212	48.756	0	110.90	0	8.1870	0	33.4870	0	26.060	0	109.932	0	109.9	4	38.0	4	-1E+10	1	0.0427	4	0.000382	0	-1E+10	1	-1E+10	1	-1E+10	1
4902624	45	C	09/14/2025	13:35	-129.212	48.756	0	112.00	0	8.1770	0	33.4949	0	26.068	0	111.022	0	111.7	4	38.7	4	-1E+10	1	0.0511	4	0.000358	0	-1E+10	1	-1E+10	1	-1E+10	1
4902624	45	C	09/14/2025	13:35	-129.212	48.756	0	113.00	0	8.1680	0	33.5020	0	26.075	0	112.013	0	-1e10	1	-1e10	1	-1E+10	1	-1e10	1	-1e10	1	-1E+10	1	-1E+10	1	-1E+10	1
4902624	45	C	09/14/2025	13:35	-129.212	48.756	0	113.10	0	8.1662	0	33.5038	0	26.076	0	112.112	0	110.8	4	38.3	4	-1E+10	1	0.0438	4	0.000348	0	-1E+10	1	-1E+10	1	-1E+10	1
4902624	45	C	09/14/2025	13:35	-129.212	48.756	0	114.20	0	8.1458	0	33.5242	0	26.095	0	113.203	0	109.9	4	38.0	4	-1E+10	1	0.0343	4	0.000347	0	-1E+10	1	-1E+10	1	-1E+10	1
4902624	45	C	09/14/2025	13:35	-129.212	48.756	0	115.00	0	8.1310	0	33.5390	0	26.109	0	113.995	0	-1e10	1	-1e10	1	-1E+10	1	-1e10	1	-1e10	1	-1E+10	1	-1E+10	1	-1E+10	1
4902624	45	C	09/14/2025	13:35	-129.212	48.756	0	115.30	0	8.1286	0	33.5420	0	26.112	0	114.293	0	109.1	4	37.7	4	-1E+10	1	0.0305	4	0.000317	0	-1E+10	1	-1E+10	1	-1E+10	1
4902624	45	C	09/14/2025	13:35	-129.212	48.756	0	116.50	0	8.1190	0	33.5540	0	26.123	0	115.482	0	108.4	4	37.5	4	-1E+10	1	0.0365	4	0.000361	0	-1E+10	1	-1E+10	1	-1E+10	1
4902624	45	C	09/14/2025	13:35	-129.212	48.756	0	117.00	0	8.1150	0	33.5590	0	26.127	0	115.977	0	-1e10	1	-1e10	1	-1E+10	1	-1e10	1	-1e10	1	-1E+10	1	-1E+10	1	-1E+10	1
4902624	45	C	09/14/2025	13:35	-129.212	48.756	0	117.70	0	8.1043	0	33.5673	0	26.135	0	116.671	0	107.9	4	37.3	4	-1E+10	1	0.0365	4	0.000342	0	-1E+10	1	-1E+10	1	-1E+10	1
4902624	45	C	09/14/2025	13:35	-129.212	48.756	0	118.80	0	8.0876	0	33.5804	0	26.148	0	117.761	0	107.6	4	37.2	4	-1E+10	1	0.0422	4	0.000305	0	-1E+10	1	-1E+10	1	-1E+10	1
4902624	45	C	09/14/2025	13:35	-129.212	48.756	0	119.10	0	8.0830	0	33.5840	0	26.152	0	118.058	0	-1e10	1	-1e10	1	-1E+10	1	-1e10	1	-1e10	1	-1E+10	1	-1E+10	1	-1E+10	1
4902624	45	C	09/14/2025	13:35	-129.212	48.756	0	120.00	0	8.0726	0	33.5876	0	26.156	0	118.950	0	107.1	4	37.0	4	-1E+10	1	0.0378	4	0.001072	0	-1E+10	1	-1E+10	1	-1E+10	1
4902624	45	C	09/14/2025	13:35	-129.212	48.756	0	121.10	0	8.0600	0	33.5920	0	26.161	0	120.040	0	-1e10	1	-1e10	1	-1E+10	1	-1e10	1	-1e10	1	-1E+10	1	-1E+10	1	-1E+10	1
4902624	45	C	09/14/2025	13:35	-129.212	48.756	0	121.20	0	8.0592	0	33.5925	0	26.162	0	120.139	0	106.6	4	36.8	4	-1E+10	1	0.0417	4	0.000592	0	-1E+10	1	-1E+10	1	-1E+10	1
4902624	45	C	09/14/2025	13:35	-129.212	48.756	0	122.40	0	8.0491	0	33.5982	0	26.168	0	121.328	0	105.8	4	36.5	4	-1E+10	1	0.0477	4	0.000399	0	-1E+10	1	-1E+10	1	-1E+10	1
4902624	45	C	09/14/2025	13:35	-129.212	48.756	0	123.00	0	8.0440	0	33.6010	0	26.171	0	121.923	0	-1e10	1	-1e10	1	-1E+10	1	-1e10	1	-1e10	1	-1E+10	1	-1E+10	1	-1E+10	1
4902624	45	C	09/14/2025	13:35	-129.212	48.756	0	123.60	0	8.0383	0	33.6070	0	26.176	0	122.518	0	105.0	4	36.3	4	-1E+10	1	0.0511	4	0.000430	0	-1E+10	1	-1E+10	1	-1E+10	1
4902624	45	C	09/14/2025	13:35	-129.212	48.756	0	124.80	0	8.0269	0	33.6190	0	26.187	0	123.707	0	104.4	4	36.0	4	-1E+10	1	0.0459	4	0.000368	0	-1E+10	1	-1E+10	1	-1E+10	1
4902624	45	C	09/14/2025	13:35	-129.212	48.756	0	125.00	0	8.0250	0	33.6210	0	26.189	0	123.905	0	-1e10	1	-1e10	1	-1E+10	1	-1e10	1	-1e10	1	-1E+10	1	-1E+10	1	-1E+10	1
4902624	45	C	09/14/2025	13:35	-129.212	48.756	0	126.00	0	8.0217	0	33.6305	0	26.197	0	124.896	0	103.7	4	35.8	4	-1E+10	1	0.0365	4	0.000321	0	-1E+10	1	-1E+10	1	-1E+10	1
4902624	45	C	09/14/2025	13:35	-129.212	48.756	0	127.10	0	8.0180	0	33.6410	0	26.206	0	125.986	0	-1e10	1	-1e10	1	-1E+10	1	-1e10	1	-1e10	1	-1E+10	1	-1E+10	1	-1E+10	1
4902624	45	C	09/14/2025	13:35	-129.212	48.756	0	127.20	0	8.0164	0	33.6418	0	26.207	0	126.085	0	103.4	4	35.7	4	-1E+10	1	0.0365	4	0.000283	0	-1E+10	1	-1E+10	1	-1E+10	1
4902624	45	C	09/14/2025	13:35	-129.212	48.756	0	128.50	0	7.9956	0	33.6515	0	26.218	0	127.373	0	103.2	4	35.6	4	-1E+10	1	0.0511	4	0.000307	0	-1E+10	1	-1E+10	1	-1E+10	1
4902624	45	C	09/14/2025	13:35	-129.212	48.756	0	129.10	0	7.9860	0	33.6560	0	26.223	0	127.968	0	-1e10	1	-1e10	1	-1E+10	1	-1e10	1	-1e10	1	-1E+10	1	-1E+10	1	-1E+10	1
4902624	45	C	09/14/2025	13:35	-129.212	48.756	0	129.70	0	7.9818	0	33.6575	0	26.224	0	128.562	0	102.8	4	35.5	4	-1E+10	1	0.0453	4	0.000307	0	-1E+10	1	-1E+10	1	-1E+10	1
4902624	45	C	09/14/2025	13:35	-129.212	48.756	0	131.00	0	7.9727	0	33.6607	0	26.228	0	129.850	0	102.4	4	35.3	4	-1E+10	1	0.0535	4	0.000314	0	-1E+10	1	-1E+10	1	-1E+10	1
4902624	45	C	09/14/2025	13:35	-129.212	48.756	0	131.10	0	7.9720	0	33.6610	0	26.229	0	129.950	0	-1e10	1	-1e10	1	-1E+10	1	-1e10	1	-1e10	1	-1E+10	1	-1E+10	1	-1E+10	1
4902624	45	C	09/14/2025	13:35	-129.212	48.756	0	132.20	0	7.9660	0	33.6637	0	26.232	0	131.040	0	101.9	4	35.2	4	-1E+10	1	0.0456	4	0.000318	0	-1E+10	1	-1E+10	1	-1E+10	1
4902624	45	C	09/14/2025	13:35	-129.212	48.756	0	133.10	0	7.9610	0	33.6660	0	26.234	0	131.931	0	-1e10	1	-1e10	1	-1E+10	1	-1e10	1	-1e10	1	-1E+10	1	-1E+10	1	-1E+10	1
4902624	45	C	09/14/2025	13:35	-129.212	48.756	0	133.40	0	7.9589	0	33.6674	0	26.236	0	132.229	0	101.5	4	35.0	4	-1E+10	1	0.0467	4	0.000313	0	-1E+10	1	-1E+10	1	-1E+10	1
4902624	45	C	09/14/2025	13:35	-129.212	48.756	0	134.70	0	7.9498	0	33.6732	0	26.241	0	133.517	0	101.1	4	34.9	4	-1E+10	1	0.0584	4	0.000326	0	-1E+10	1	-1E+10	1	-1E+10	1
4902624	45	C	09/14/2025	13:35	-129.212	48.756	0	135.10	0	7.9470	0	33.6750	0	26.243	0	133.913	0	-1e10	1	-1e10	1	-1E+10	1	-1e10	1	-1e10	1	-1E+10	1	-1E+10	1	-1E+10	1
4902624	45	C	09/14/2025	13:35	-129.212	48.756	0	135.90	0	7.9390	0	33.6774	0	26.246	0	134.706	0	100.6	4	34.7	4	-1E+10	1	0.0572	4	0.000363	0	-1E+10	1	-1E+10	1	-1E+10	1
4902624	45	C	09/14/2025	13:35	-129.212	48.756	0	137.10	0	7.9270	0	33.6810	0	26.251	0	135.895	0	-1e10	1	-1e10	1	-1E+10	1	-1e10	1	-1e10	1	-1E+10	1	-1E+10	1	-1E+10	1
4902624	45	C	09/14/2025	13:35	-129.212	48.756	0	137.20	0	7.9259	0	33.6817	0	26.252	0	135.994	0	100.0	4	34.5	4	-1E+10	1	0.0511	4	0.000339	0	-1E+10	1	-1E+10	1	-1E+10	1
4902624	45	C	09/14/2025	13:35	-129.212	48.756	0	138.40	0	7.9126	0	33.6906	0	26.261	0	137.183	0	99.5	4	34.3	4	-1E+10	1	0.0511	4	0.000283	0	-1E+10	1	-1E+10	1	-1E+10	1
4902624	45	C	09/14/2025	13:35	-129.212	48.756	0	139.00	0	7.9060	0	33.6950	0	26.265	0	137.778	0	-1e10	1	-1e10	1	-1E+10	1	-1e10	1	-1e10	1	-1E+10	1	-1E+10	1	-1E+10	1
4902624	45	C	09/14/2025	13:35	-129.212	48.756	0	139.70	0	7.9032	0	33.6974	0	26.267	0	138.471	0	99.0	4	34.1	4	-1E+10	1	0.0511	4	0.000293	0	-1E+10	1	-1E+10	1	-1E+10	1
4902624	45	C	09/14/2025	13:35	-129.212	48.756	0	140.90	0	7.8984	0	33.7016	0	26.271	0	139.660	0	98.4	4	33.9	4	-1E+10	1	0.0389	4	0.000353	0	-1E+10	1	-1E+10	1	-1E+10	1
4902624	45	C	09/14/2025	13:35	-129.212	48.756	0	141.00	0	7.8980	0	33.7020	0	26.272	0	139.759	0	-1e10	1	-1e10	1	-1E+10	1	-1e10	1	-1e10	1	-1E+10	1	-1E+10	1	-1E+10	1
4902624	45	C	09/14/2025	13:35	-129.212	48.756	0	142.10	0	7.8881	0	33.7097	0	26.279	0	140.849	0	97.8	4	33.7	4	-1E+10	1	0.0511	4	0.000342	0	-1E+10	1	-1E+10	1	-1E+10	1
4902624	45	C	09/14/2025	13:35	-129.212	48.756	0	143.00	0	7.8800	0	33.7160	0	26.285	0	141.741	0	-1e10	1	-1e10	1	-1E+10	1	-1e10	1	-1e10	1	-1E+10	1	-1E+10	1	-1E+10	1
4902624	45	C	09/14/2025	13:35	-129.212	48.756	0	143.40	0	7.8734	0	33.7196	0	26.289	0	142.137	0	97.5	4	33.6	4	-1E+10	1	0.0506	4	0.000374	0	-1E+10	1	-1E+10	1	-1E+10	1
4902624	45	C	09/14/2025	13:35	-129.212	48.756	0	144.60	0	7.8536	0	33.7304	0	26.301	0	143.326	0	97.3	4	33.5	4	-1E+10	1	0.0468	4	0.000368	0	-1E+10	1	-1E+10	1	-1E+10	1
4902624	45	C	09/14/2025	13:35	-129.212	48.756	0	145.00	0	7.8470	0	33.7340	0	26.304	0	143.723	0	-1e10	1	-1e10	1	-1E+10	1	-1e10	1	-1e10	1	-1E+10	1	-1E+10	1	-1E+10	1
4902624	45	C	09/14/2025	13:35	-129.212	48.756	0	145.70	0	7.8400	0	33.7373	0	26.308	0	144.416	0	97.2	4	33.4	4	-1E+10	1	0.0535	4	0.000310	0	-1E+10	1	-1E+10	1	-1E+10	1
4902624	45	C	09/14/2025	13:35	-129.212	48.756	0	146.70	0	7.8300	0	33.7421	0	26.313	0	145.407	0	96.9	4	33.4	4	-1E+10	1	0.0569	4	0.000335	0	-1E+10	1	-1E+10	1	-1E+10	1
4902624	45	C	09/14/2025	13:35	-129.212	48.756	0	146.90	0	7.8280	0	33.7430	0	26.314	0	145.605	0	-1e10	1	-1e10	1	-1E+10	1	-1e10	1	-1e10	1	-1E+10	1	-1E+10	1	-1E+10	1
4902624	45	C	09/14/2025	13:35	-129.212	48.756	0	147.50	0	7.8249	0	33.7444	0	26.316	0	146.200	0	96.8	4	33.3	4	-1E+10	1	0.0511	4	0.000400	0	-1E+10	1	-1E+10	1	-1E+10	1
4902624	45	C	09/14/2025	13:35	-129.212	48.756	0	148.40	0	7.8201	0	33.7466	0	26.318	0	147.092	0	96.6	4	33.2	4	-1E+10	1	0.0365	4	0.000435	0	-1E+10	1	-1E+10	1	-1E+10	1
4902624	45	C	09/14/2025	13:35	-129.212	48.756	0	149.00	0	7.8170	0	33.7480	0	26.320	0	147.686	0	-1e10	1	-1e10	1	-1E+10	1	-1e10	1	-1e10	1	-1E+10	1	-1E+10	1	-1E+10	1
4902624	45	C	09/14/2025	13:35	-129.212	48.756	0	149.30	0	7.8150	0	33.7490	0	26.321	0	147.983	0	96.5	4	33.2	4	-1E+10	1	0.0511	4	0.000318	0	-1E+10	1	-1E+10	1	-1E+10	1
4902624	45	C	09/14/2025	13:35	-129.212	48.756	0	150.00	0	7.8103	0	33.7513	0	26.323	0	148.677	0	96.4	4	33.1	4	-1E+10	1	0.0319	4	0.000318	0	-1E+10	1	-1E+10	1	-1E+10	1
4902624	45	C	09/14/2025	13:35	-129.212	48.756	0	150.70	0	7.8057	0	33.7537	0	26.326	0	149.371	0	96.3	4	33.1	4	-1E+10	1	0.0456	4	0.000300	0	-1E+10	1	-1E+10	1	-1E+10	1
4902624	45	C	09/14/2025	13:35	-129.212	48.756	0	151.10	0	7.8030	0	33.7550	0	26.327	0	149.767	0	-1e10	1	-1e10	1	-1E+10	1	-1e10	1	-1e10	1	-1E+10	1	-1E+10	1	-1E+10	1
4902624	45	C	09/14/2025	13:35	-129.212	48.756	0	151.50	0	7.7998	0	33.7561	0	26.329	0	150.163	0	96.1	4	33.1	4	-1E+10	1	0.0467	4	0.000316	0	-1E+10	1	-1E+10	1	-1E+10	1
4902624	45	C	09/14/2025	13:35	-129.212	48.756	0	152.30	0	7.7935	0	33.7582	0	26.331	0	150.956	0	96.1	4	33.0	4	-1E+10	1	0.0438	4	0.000361	0	-1E+10	1	-1E+10	1	-1E+10	1
4902624	45	C	09/14/2025	13:35	-129.212	48.756	0	153.00	0	7.7880	0	33.7600	0	26.333	0	151.649	0	-1e10	1	-1e10	1	-1E+10	1	-1e10	1	-1e10	1	-1E+10	1	-1E+10	1	-1E+10	1
4902624	45	C	09/14/2025	13:35	-129.212	48.756	0	153.10	0	7.7869	0	33.7603	0	26.334	0	151.748	0	95.9	4	33.0	4	-1E+10	1	0.0438	4	0.000418	0	-1E+10	1	-1E+10	1	-1E+10	1
4902624	45	C	09/14/2025	13:35	-129.212	48.756	0	153.90	0	7.7781	0	33.7622	0	26.337	0	152.541	0	95.7	4	32.9	4	-1E+10	1	0.0414	4	0.000420	0	-1E+10	1	-1E+10	1	-1E+10	1
4902624	45	C	09/14/2025	13:35	-129.212	48.756	0	154.70	0	7.7693	0	33.7642	0	26.340	0	153.334	0	95.5	4	32.8	4	-1E+10	1	0.0394	4	0.000363	0	-1E+10	1	-1E+10	1	-1E+10	1
4902624	45	C	09/14/2025	13:35	-129.212	48.756	0	155.00	0	7.7660	0	33.7650	0	26.341	0	153.631	0	-1e10	1	-1e10	1	-1E+10	1	-1e10	1	-1e10	1	-1E+10	1	-1E+10	1	-1E+10	1
4902624	45	C	09/14/2025	13:35	-129.212	48.756	0	155.50	0	7.7587	0	33.7673	0	26.343	0	154.126	0	95.3	4	32.7	4	-1E+10	1	0.0511	4	0.000353	0	-1E+10	1	-1E+10	1	-1E+10	1
4902624	45	C	09/14/2025	13:35	-129.212	48.756	0	156.30	0	7.7471	0	33.7708	0	26.348	0	154.919	0	95.0	4	32.6	4	-1E+10	1	0.0511	4	0.000365	0	-1E+10	1	-1E+10	1	-1E+10	1
4902624	45	C	09/14/2025	13:35	-129.212	48.756	0	157.00	0	7.7370	0	33.7740	0	26.352	0	155.613	0	-1e10	1	-1e10	1	-1E+10	1	-1e10	1	-1e10	1	-1E+10	1	-1E+10	1	-1E+10	1
4902624	45	C	09/14/2025	13:35	-129.212	48.756	0	157.20	0	7.7347	0	33.7749	0	26.353	0	155.811	0	94.8	4	32.6	4	-1E+10	1	0.0445	4	0.000323	0	-1E+10	1	-1E+10	1	-1E+10	1
4902624	45	C	09/14/2025	13:35	-129.212	48.756	0	158.00	0	7.7256	0	33.7783	0	26.357	0	156.603	0	94.7	4	32.5	4	-1E+10	1	0.0489	4	0.000310	0	-1E+10	1	-1E+10	1	-1E+10	1
4902624	45	C	09/14/2025	13:35	-129.212	48.756	0	158.80	0	7.7164	0	33.7817	0	26.361	0	157.396	0	94.5	4	32.4	4	-1E+10	1	0.0465	4	0.000320	0	-1E+10	1	-1E+10	1	-1E+10	1
4902624	45	C	09/14/2025	13:35	-129.212	48.756	0	159.10	0	7.7130	0	33.7830	0	26.362	0	157.693	0	-1e10	1	-1e10	1	-1E+10	1	-1e10	1	-1e10	1	-1E+10	1	-1E+10	1	-1E+10	1
4902624	45	C	09/14/2025	13:35	-129.212	48.756	0	159.60	0	7.7067	0	33.7851	0	26.365	0	158.189	0	94.3	4	32.4	4	-1E+10	1	0.0474	4	0.000318	0	-1E+10	1	-1E+10	1	-1E+10	1
4902624	45	C	09/14/2025	13:35	-129.212	48.756	0	160.50	0	7.6953	0	33.7889	0	26.370	0	159.080	0	94.2	4	32.3	4	-1E+10	1	0.0511	4	0.000320	0	-1E+10	1	-1E+10	1	-1E+10	1
4902624	45	C	09/14/2025	13:35	-129.212	48.756	0	161.00	0	7.6890	0	33.7910	0	26.372	0	159.576	0	-1e10	1	-1e10	1	-1E+10	1	-1e10	1	-1e10	1	-1E+10	1	-1E+10	1	-1E+10	1
4902624	45	C	09/14/2025	13:35	-129.212	48.756	0	161.30	0	7.6860	0	33.7919	0	26.373	0	159.873	0	94.0	4	32.2	4	-1E+10	1	0.0479	4	0.000334	0	-1E+10	1	-1E+10	1	-1E+10	1
4902624	45	C	09/14/2025	13:35	-129.212	48.756	0	162.20	0	7.6770	0	33.7948	0	26.377	0	160.765	0	93.8	4	32.2	4	-1E+10	1	0.0380	4	0.000309	0	-1E+10	1	-1E+10	1	-1E+10	1
4902624	45	C	09/14/2025	13:35	-129.212	48.756	0	162.90	0	7.6700	0	33.7970	0	26.380	0	161.458	0	-1e10	1	-1e10	1	-1E+10	1	-1e10	1	-1e10	1	-1E+10	1	-1E+10	1	-1E+10	1
4902624	45	C	09/14/2025	13:35	-129.212	48.756	0	163.00	0	7.6693	0	33.7972	0	26.380	0	161.557	0	93.6	4	32.1	4	-1E+10	1	0.0438	4	0.000318	0	-1E+10	1	-1E+10	1	-1E+10	1
4902624	45	C	09/14/2025	13:35	-129.212	48.756	0	164.10	0	7.6610	0	33.7994	0	26.383	0	162.647	0	93.4	4	32.0	4	-1E+10	1	0.0438	4	0.000353	0	-1E+10	1	-1E+10	1	-1E+10	1
4902624	45	C	09/14/2025	13:35	-129.212	48.756	0	164.90	0	7.6550	0	33.8010	0	26.385	0	163.440	0	93.3	4	32.0	4	-1E+10	1	0.0584	4	0.000399	0	-1E+10	1	-1E+10	1	-1E+10	1
4902624	45	C	09/14/2025	13:35	-129.212	48.756	0	165.70	0	7.6474	0	33.8032	0	26.388	0	164.232	0	93.1	4	31.9	4	-1E+10	1	0.0425	4	0.000349	0	-1E+10	1	-1E+10	1	-1E+10	1
4902624	45	C	09/14/2025	13:35	-129.212	48.756	0	166.50	0	7.6397	0	33.8054	0	26.391	0	165.025	0	93.0	4	31.9	4	-1E+10	1	0.0402	4	0.000353	0	-1E+10	1	-1E+10	1	-1E+10	1
4902624	45	C	09/14/2025	13:35	-129.212	48.756	0	167.10	0	7.6340	0	33.8070	0	26.393	0	165.619	0	-1e10	1	-1e10	1	-1E+10	1	-1e10	1	-1e10	1	-1E+10	1	-1E+10	1	-1E+10	1
4902624	45	C	09/14/2025	13:35	-129.212	48.756	0	167.40	0	7.6324	0	33.8075	0	26.393	0	165.916	0	92.9	4	31.8	4	-1E+10	1	0.0438	4	0.000366	0	-1E+10	1	-1E+10	1	-1E+10	1
4902624	45	C	09/14/2025	13:35	-129.212	48.756	0	168.30	0	7.6277	0	33.8089	0	26.395	0	166.808	0	92.8	4	31.8	4	-1E+10	1	0.0411	4	0.000327	0	-1E+10	1	-1E+10	1	-1E+10	1
4902624	45	C	09/14/2025	13:35	-129.212	48.756	0	169.00	0	7.6240	0	33.8100	0	26.397	0	167.502	0	-1e10	1	-1e10	1	-1E+10	1	-1e10	1	-1e10	1	-1E+10	1	-1E+10	1	-1E+10	1
4902624	45	C	09/14/2025	13:35	-129.212	48.756	0	169.20	0	7.6219	0	33.8106	0	26.397	0	167.700	0	92.6	4	31.7	4	-1E+10	1	0.0392	4	0.000288	0	-1E+10	1	-1E+10	1	-1E+10	1
4902624	45	C	09/14/2025	13:35	-129.212	48.756	0	170.10	0	7.6125	0	33.8131	0	26.401	0	168.591	0	92.4	4	31.7	4	-1E+10	1	0.0511	4	0.000318	0	-1E+10	1	-1E+10	1	-1E+10	1
4902624	45	C	09/14/2025	13:35	-129.212	48.756	0	171.00	0	7.6030	0	33.8157	0	26.404	0	169.483	0	92.3	4	31.6	4	-1E+10	1	0.0438	4	0.000330	0	-1E+10	1	-1E+10	1	-1E+10	1
4902624	45	C	09/14/2025	13:35	-129.212	48.756	0	171.10	0	7.6020	0	33.8160	0	26.404	0	169.582	0	-1e10	1	-1e10	1	-1E+10	1	-1e10	1	-1e10	1	-1E+10	1	-1E+10	1	-1E+10	1
4902624	45	C	09/14/2025	13:35	-129.212	48.756	0	171.90	0	7.5978	0	33.8168	0	26.406	0	170.375	0	92.1	4	31.6	4	-1E+10	1	0.0378	4	0.000310	0	-1E+10	1	-1E+10	1	-1E+10	1
4902624	45	C	09/14/2025	13:35	-129.212	48.756	0	172.90	0	7.5925	0	33.8179	0	26.407	0	171.365	0	92.0	4	31.5	4	-1E+10	1	0.0365	4	0.000332	0	-1E+10	1	-1E+10	1	-1E+10	1
4902624	45	C	09/14/2025	13:35	-129.212	48.756	0	173.00	0	7.5920	0	33.8180	0	26.408	0	171.465	0	-1e10	1	-1e10	1	-1E+10	1	-1e10	1	-1e10	1	-1E+10	1	-1E+10	1	-1E+10	1
4902624	45	C	09/14/2025	13:35	-129.212	48.756	0	173.80	0	7.5869	0	33.8193	0	26.409	0	172.257	0	91.8	4	31.4	4	-1E+10	1	0.0453	4	0.000327	0	-1E+10	1	-1E+10	1	-1E+10	1
4902624	45	C	09/14/2025	13:35	-129.212	48.756	0	174.80	0	7.5806	0	33.8208	0	26.411	0	173.248	0	91.6	4	31.4	4	-1E+10	1	0.0511	4	0.000331	0	-1E+10	1	-1E+10	1	-1E+10	1
4902624	45	C	09/14/2025	13:35	-129.212	48.756	0	174.90	0	7.5800	0	33.8210	0	26.412	0	173.347	0	-1e10	1	-1e10	1	-1E+10	1	-1e10	1	-1e10	1	-1E+10	1	-1E+10	1	-1E+10	1
4902624	45	C	09/14/2025	13:35	-129.212	48.756	0	175.70	0	7.5678	0	33.8240	0	26.416	0	174.139	0	91.5	4	31.3	4	-1E+10	1	0.0487	4	0.000333	0	-1E+10	1	-1E+10	1	-1E+10	1
4902624	45	C	09/14/2025	13:35	-129.212	48.756	0	176.70	0	7.5526	0	33.8279	0	26.421	0	175.130	0	91.4	4	31.3	4	-1E+10	1	0.0454	4	0.000320	0	-1E+10	1	-1E+10	1	-1E+10	1
4902624	45	C	09/14/2025	13:35	-129.212	48.756	0	177.00	0	7.5480	0	33.8290	0	26.422	0	175.427	0	-1e10	1	-1e10	1	-1E+10	1	-1e10	1	-1e10	1	-1E+10	1	-1E+10	1	-1E+10	1
4902624	45	C	09/14/2025	13:35	-129.212	48.756	0	177.60	0	7.5444	0	33.8296	0	26.423	0	176.022	0	91.2	4	31.2	4	-1E+10	1	0.0523	4	0.000335	0	-1E+10	1	-1E+10	1	-1E+10	1
4902624	45	C	09/14/2025	13:35	-129.212	48.756	0	178.60	0	7.5384	0	33.8306	0	26.425	0	177.012	0	91.0	4	31.1	4	-1E+10	1	0.0584	4	0.000365	0	-1E+10	1	-1E+10	1	-1E+10	1
4902624	45	C	09/14/2025	13:35	-129.212	48.756	0	179.00	0	7.5360	0	33.8310	0	26.426	0	177.409	0	-1e10	1	-1e10	1	-1E+10	1	-1e10	1	-1e10	1	-1E+10	1	-1E+10	1	-1E+10	1
4902624	45	C	09/14/2025	13:35	-129.212	48.756	0	179.60	0	7.5307	0	33.8323	0	26.428	0	178.003	0	90.9	4	31.1	4	-1E+10	1	0.0385	4	0.000301	0	-1E+10	1	-1E+10	1	-1E+10	1
4902624	45	C	09/14/2025	13:35	-129.212	48.756	0	180.50	0	7.5227	0	33.8343	0	26.430	0	178.895	0	90.7	4	31.0	4	-1E+10	1	0.0540	4	0.000398	0	-1E+10	1	-1E+10	1	-1E+10	1
4902624	45	C	09/14/2025	13:35	-129.212	48.756	0	180.80	0	7.5200	0	33.8350	0	26.431	0	179.192	0	-1e10	1	-1e10	1	-1E+10	1	-1e10	1	-1e10	1	-1E+10	1	-1E+10	1	-1E+10	1
4902624	45	C	09/14/2025	13:35	-129.212	48.756	0	181.50	0	7.5143	0	33.8363	0	26.433	0	179.885	0	90.6	4	31.0	4	-1E+10	1	0.0487	4	0.000361	0	-1E+10	1	-1E+10	1	-1E+10	1
4902624	45	C	09/14/2025	13:35	-129.212	48.756	0	182.50	0	7.5061	0	33.8381	0	26.436	0	180.876	0	90.4	4	30.9	4	-1E+10	1	0.0438	4	0.000324	0	-1E+10	1	-1E+10	1	-1E+10	1
4902624	45	C	09/14/2025	13:35	-129.212	48.756	0	183.00	0	7.5020	0	33.8390	0	26.437	0	181.371	0	-1e10	1	-1e10	1	-1E+10	1	-1e10	1	-1e10	1	-1E+10	1	-1E+10	1	-1E+10	1
4902624	45	C	09/14/2025	13:35	-129.212	48.756	0	183.50	0	7.4995	0	33.8392	0	26.438	0	181.867	0	90.2	4	30.8	4	-1E+10	1	0.0467	4	0.000308	0	-1E+10	1	-1E+10	1	-1E+10	1
4902624	45	C	09/14/2025	13:35	-129.212	48.756	0	184.50	0	7.4945	0	33.8398	0	26.439	0	182.857	0	90.0	4	30.7	4	-1E+10	1	0.0511	4	0.000314	0	-1E+10	1	-1E+10	1	-1E+10	1
4902624	45	C	09/14/2025	13:35	-129.212	48.756	0	185.00	0	7.4920	0	33.8400	0	26.439	0	183.353	0	-1e10	1	-1e10	1	-1E+10	1	-1e10	1	-1e10	1	-1E+10	1	-1E+10	1	-1E+10	1
4902624	45	C	09/14/2025	13:35	-129.212	48.756	0	185.50	0	7.4895	0	33.8408	0	26.440	0	183.848	0	89.7	4	30.7	4	-1E+10	1	0.0487	4	0.000351	0	-1E+10	1	-1E+10	1	-1E+10	1
4902624	45	C	09/14/2025	13:35	-129.212	48.756	0	186.50	0	7.4845	0	33.8422	0	26.442	0	184.839	0	89.5	4	30.6	4	-1E+10	1	0.0365	4	0.000341	0	-1E+10	1	-1E+10	1	-1E+10	1
4902624	45	C	09/14/2025	13:35	-129.212	48.756	0	187.00	0	7.4820	0	33.8430	0	26.443	0	185.334	0	-1e10	1	-1e10	1	-1E+10	1	-1e10	1	-1e10	1	-1E+10	1	-1E+10	1	-1E+10	1
4902624	45	C	09/14/2025	13:35	-129.212	48.756	0	187.50	0	7.4786	0	33.8435	0	26.444	0	185.829	0	89.3	4	30.5	4	-1E+10	1	0.0365	4	0.000365	0	-1E+10	1	-1E+10	1	-1E+10	1
4902624	45	C	09/14/2025	13:35	-129.212	48.756	0	188.50	0	7.4717	0	33.8446	0	26.446	0	186.820	0	89.0	4	30.4	4	-1E+10	1	0.0309	4	0.000301	0	-1E+10	1	-1E+10	1	-1E+10	1
4902624	45	C	09/14/2025	13:35	-129.212	48.756	0	188.90	0	7.4690	0	33.8450	0	26.446	0	187.216	0	-1e10	1	-1e10	1	-1E+10	1	-1e10	1	-1e10	1	-1E+10	1	-1E+10	1	-1E+10	1
4902624	45	C	09/14/2025	13:35	-129.212	48.756	0	189.60	0	7.4634	0	33.8464	0	26.448	0	187.910	0	88.7	4	30.3	4	-1E+10	1	0.0341	4	0.000314	0	-1E+10	1	-1E+10	1	-1E+10	1
4902624	45	C	09/14/2025	13:35	-129.212	48.756	0	190.60	0	7.4554	0	33.8484	0	26.451	0	188.900	0	88.5	4	30.2	4	-1E+10	1	0.0409	4	0.000329	0	-1E+10	1	-1E+10	1	-1E+10	1
4902624	45	C	09/14/2025	13:35	-129.212	48.756	0	190.90	0	7.4530	0	33.8490	0	26.452	0	189.197	0	-1e10	1	-1e10	1	-1E+10	1	-1e10	1	-1e10	1	-1E+10	1	-1E+10	1	-1E+10	1
4902624	45	C	09/14/2025	13:35	-129.212	48.756	0	191.60	0	7.4457	0	33.8503	0	26.454	0	189.891	0	88.3	4	30.1	4	-1E+10	1	0.0474	4	0.000347	0	-1E+10	1	-1E+10	1	-1E+10	1
4902624	45	C	09/14/2025	13:35	-129.212	48.756	0	192.60	0	7.4352	0	33.8522	0	26.457	0	190.882	0	88.0	4	30.0	4	-1E+10	1	0.0511	4	0.000347	0	-1E+10	1	-1E+10	1	-1E+10	1
4902624	45	C	09/14/2025	13:35	-129.212	48.756	0	193.00	0	7.4310	0	33.8530	0	26.458	0	191.278	0	-1e10	1	-1e10	1	-1E+10	1	-1e10	1	-1e10	1	-1E+10	1	-1E+10	1	-1E+10	1
4902624	45	C	09/14/2025	13:35	-129.212	48.756	0	193.70	0	7.4223	0	33.8547	0	26.461	0	191.971	0	87.8	4	30.0	4	-1E+10	1	0.0482	4	0.000308	0	-1E+10	1	-1E+10	1	-1E+10	1
4902624	45	C	09/14/2025	13:35	-129.212	48.756	0	194.70	0	7.4100	0	33.8570	0	26.464	0	192.962	0	87.6	4	29.9	4	-1E+10	1	0.0389	4	0.000324	0	-1E+10	1	-1E+10	1	-1E+10	1
4902624	45	C	09/14/2025	13:35	-129.212	48.756	0	195.10	0	7.4050	0	33.8580	0	26.466	0	193.358	0	-1e10	1	-1e10	1	-1E+10	1	-1e10	1	-1e10	1	-1E+10	1	-1E+10	1	-1E+10	1
4902624	45	C	09/14/2025	13:35	-129.212	48.756	0	195.70	0	7.3974	0	33.8596	0	26.468	0	193.952	0	87.4	4	29.8	4	-1E+10	1	0.0511	4	0.000353	0	-1E+10	1	-1E+10	1	-1E+10	1
4902624	45	C	09/14/2025	13:35	-129.212	48.756	0	196.80	0	7.3835	0	33.8625	0	26.472	0	195.042	0	87.2	4	29.7	4	-1E+10	1	0.0449	4	0.000282	0	-1E+10	1	-1E+10	1	-1E+10	1
4902624	45	C	09/14/2025	13:35	-129.212	48.756	0	197.00	0	7.3810	0	33.8630	0	26.473	0	195.240	0	-1e10	1	-1e10	1	-1E+10	1	-1e10	1	-1e10	1	-1E+10	1	-1E+10	1	-1E+10	1
4902624	45	C	09/14/2025	13:35	-129.212	48.756	0	197.80	0	7.3718	0	33.8646	0	26.476	0	196.033	0	87.1	4	29.7	4	-1E+10	1	0.0496	4	0.000299	0	-1E+10	1	-1E+10	1	-1E+10	1
4902624	45	C	09/14/2025	13:35	-129.212	48.756	0	198.80	0	7.3603	0	33.8666	0	26.479	0	197.023	0	86.9	4	29.6	4	-1E+10	1	0.0511	4	0.000314	0	-1E+10	1	-1E+10	1	-1E+10	1
4902624	45	C	09/14/2025	13:35	-129.212	48.756	0	199.00	0	7.3580	0	33.8670	0	26.480	0	197.221	0	-1e10	1	-1e10	1	-1E+10	1	-1e10	1	-1e10	1	-1E+10	1	-1E+10	1	-1E+10	1
4902624	45	C	09/14/2025	13:35	-129.212	48.756	0	199.80	0	7.3532	0	33.8678	0	26.481	0	198.014	0	86.8	4	29.6	4	-1E+10	1	0.0477	4	0.000323	0	-1E+10	1	-1E+10	1	-1E+10	1
4902624	45	C	09/14/2025	13:35	-129.212	48.756	0	200.90	0	7.3466	0	33.8689	0	26.483	0	199.103	0	86.6	4	29.5	4	-1E+10	1	0.0438	4	0.000321	0	-1E+10	1	-1E+10	1	-1E+10	1
4902624	45	C	09/14/2025	13:35	-129.212	48.756	0	201.00	0	7.3460	0	33.8690	0	26.483	0	199.203	0	-1e10	1	-1e10	1	-1E+10	1	-1e10	1	-1e10	1	-1E+10	1	-1E+10	1	-1E+10	1
4902624	45	C	09/14/2025	13:35	-129.212	48.756	0	202.00	0	7.3430	0	33.8695	0	26.484	0	200.193	0	86.4	4	29.4	4	-1E+10	1	0.0462	4	0.000306	0	-1E+10	1	-1E+10	1	-1E+10	1
4902624	45	C	09/14/2025	13:35	-129.212	48.756	0	203.00	0	7.3400	0	33.8700	0	26.484	0	201.184	0	83.9	4	28.6	4	-1E+10	1	0.0489	4	0.000309	0	-1E+10	1	-1E+10	1	-1E+10	1
4902624	45	C	09/14/2025	13:35	-129.212	48.756	0	204.10	0	7.3351	0	33.8705	0	26.486	0	202.273	0	86.0	4	29.3	4	-1E+10	1	0.0365	4	0.000329	0	-1E+10	1	-1E+10	1	-1E+10	1
4902624	45	C	09/14/2025	13:35	-129.212	48.756	0	205.00	0	7.3310	0	33.8710	0	26.487	0	203.165	0	-1e10	1	-1e10	1	-1E+10	1	-1e10	1	-1e10	1	-1E+10	1	-1E+10	1	-1E+10	1
4902624	45	C	09/14/2025	13:35	-129.212	48.756	0	205.20	0	7.3287	0	33.8714	0	26.487	0	203.363	0	85.8	4	29.2	4	-1E+10	1	0.0584	4	0.000365	0	-1E+10	1	-1E+10	1	-1E+10	1
4902624	45	C	09/14/2025	13:35	-129.212	48.756	0	206.20	0	7.3172	0	33.8734	0	26.490	0	204.353	0	85.5	4	29.1	4	-1E+10	1	0.0528	4	0.000328	0	-1E+10	1	-1E+10	1	-1E+10	1
4902624	45	C	09/14/2025	13:35	-129.212	48.756	0	207.00	0	7.3080	0	33.8750	0	26.493	0	205.146	0	-1e10	1	-1e10	1	-1E+10	1	-1e10	1	-1e10	1	-1E+10	1	-1E+10	1	-1E+10	1
4902624	45	C	09/14/2025	13:35	-129.212	48.756	0	207.30	0	7.3059	0	33.8751	0	26.493	0	205.443	0	85.3	4	29.0	4	-1E+10	1	0.0511	4	0.000341	0	-1E+10	1	-1E+10	1	-1E+10	1
4902624	45	C	09/14/2025	13:35	-129.212	48.756	0	208.40	0	7.2982	0	33.8757	0	26.495	0	206.533	0	85.0	4	28.9	4	-1E+10	1	0.0557	4	0.000360	0	-1E+10	1	-1E+10	1	-1E+10	1
4902624	45	C	09/14/2025	13:35	-129.212	48.756	0	209.00	0	7.2940	0	33.8760	0	26.496	0	207.127	0	-1e10	1	-1e10	1	-1E+10	1	-1e10	1	-1e10	1	-1E+10	1	-1E+10	1	-1E+10	1
4902624	45	C	09/14/2025	13:35	-129.212	48.756	0	209.50	0	7.2873	0	33.8773	0	26.498	0	207.622	0	84.7	4	28.8	4	-1E+10	1	0.0584	4	0.000396	0	-1E+10	1	-1E+10	1	-1E+10	1
4902624	45	C	09/14/2025	13:35	-129.212	48.756	0	210.50	0	7.2738	0	33.8797	0	26.501	0	208.613	0	84.5	4	28.7	4	-1E+10	1	0.0557	4	0.000470	0	-1E+10	1	-1E+10	1	-1E+10	1
4902624	45	C	09/14/2025	13:35	-129.212	48.756	0	211.00	0	7.2670	0	33.8810	0	26.503	0	209.108	0	-1e10	1	-1e10	1	-1E+10	1	-1e10	1	-1e10	1	-1E+10	1	-1E+10	1	-1E+10	1
4902624	45	C	09/14/2025	13:35	-129.212	48.756	0	211.60	0	7.2598	0	33.8822	0	26.505	0	209.702	0	84.4	4	28.7	4	-1E+10	1	0.0482	4	0.000491	0	-1E+10	1	-1E+10	1	-1E+10	1
4902624	45	C	09/14/2025	13:35	-129.212	48.756	0	212.70	0	7.2466	0	33.8844	0	26.509	0	210.792	0	84.3	4	28.6	4	-1E+10	1	0.0438	4	0.000358	0	-1E+10	1	-1E+10	1	-1E+10	1
4902624	45	C	09/14/2025	13:35	-129.212	48.756	0	213.00	0	7.2430	0	33.8850	0	26.510	0	211.089	0	-1e10	1	-1e10	1	-1E+10	1	-1e10	1	-1e10	1	-1E+10	1	-1E+10	1	-1E+10	1
4902624	45	C	09/14/2025	13:35	-129.212	48.756	0	213.80	0	7.2377	0	33.8858	0	26.511	0	211.882	0	84.2	4	28.6	4	-1E+10	1	0.0450	4	0.000286	0	-1E+10	1	-1E+10	1	-1E+10	1
4902624	45	C	09/14/2025	13:35	-129.212	48.756	0	214.80	0	7.2310	0	33.8867	0	26.513	0	212.872	0	84.1	4	28.6	4	-1E+10	1	0.0511	4	0.000306	0	-1E+10	1	-1E+10	1	-1E+10	1
4902624	45	C	09/14/2025	13:35	-129.212	48.756	0	215.10	0	7.2290	0	33.8870	0	26.513	0	213.169	0	-1e10	1	-1e10	1	-1E+10	1	-1e10	1	-1e10	1	-1E+10	1	-1E+10	1	-1E+10	1
4902624	45	C	09/14/2025	13:35	-129.212	48.756	0	215.90	0	7.2248	0	33.8874	0	26.514	0	213.962	0	84.0	4	28.5	4	-1E+10	1	0.0438	4	0.000400	0	-1E+10	1	-1E+10	1	-1E+10	1
4902624	45	C	09/14/2025	13:35	-129.212	48.756	0	217.00	0	7.2190	0	33.8880	0	26.516	0	215.051	0	81.6	4	27.7	4	-1E+10	1	0.0438	4	0.000380	0	-1E+10	1	-1E+10	1	-1E+10	1
4902624	45	C	09/14/2025	13:35	-129.212	48.756	0	218.10	0	7.2144	0	33.8880	0	26.516	0	216.141	0	83.7	4	28.4	4	-1E+10	1	0.0387	4	0.000344	0	-1E+10	1	-1E+10	1	-1E+10	1
4902624	45	C	09/14/2025	13:35	-129.212	48.756	0	218.90	0	7.2110	0	33.8880	0	26.517	0	216.933	0	-1e10	1	-1e10	1	-1E+10	1	-1e10	1	-1e10	1	-1E+10	1	-1E+10	1	-1E+10	1
4902624	45	C	09/14/2025	13:35	-129.212	48.756	0	219.10	0	7.2088	0	33.8882	0	26.517	0	217.131	0	83.6	4	28.4	4	-1E+10	1	0.0445	4	0.000316	0	-1E+10	1	-1E+10	1	-1E+10	1
4902624	45	C	09/14/2025	13:35	-129.212	48.756	0	220.20	0	7.1968	0	33.8892	0	26.520	0	218.221	0	83.4	4	28.3	4	-1E+10	1	0.0511	4	0.000300	0	-1E+10	1	-1E+10	1	-1E+10	1
4902624	45	C	09/14/2025	13:35	-129.212	48.756	0	221.00	0	7.1880	0	33.8900	0	26.522	0	219.013	0	-1e10	1	-1e10	1	-1E+10	1	-1e10	1	-1e10	1	-1E+10	1	-1E+10	1	-1E+10	1
4902624	45	C	09/14/2025	13:35	-129.212	48.756	0	221.30	0	7.1829	0	33.8906	0	26.523	0	219.310	0	83.2	4	28.2	4	-1E+10	1	0.0487	4	0.000329	0	-1E+10	1	-1E+10	1	-1E+10	1
4902624	45	C	09/14/2025	13:35	-129.212	48.756	0	222.30	0	7.1659	0	33.8926	0	26.527	0	220.301	0	82.9	4	28.1	4	-1E+10	1	0.0465	4	0.000376	0	-1E+10	1	-1E+10	1	-1E+10	1
4902624	45	C	09/14/2025	13:35	-129.212	48.756	0	223.00	0	7.1540	0	33.8940	0	26.529	0	220.994	0	-1e10	1	-1e10	1	-1E+10	1	-1e10	1	-1e10	1	-1E+10	1	-1E+10	1	-1E+10	1
4902624	45	C	09/14/2025	13:35	-129.212	48.756	0	223.40	0	7.1498	0	33.8944	0	26.530	0	221.390	0	82.7	4	28.1	4	-1E+10	1	0.0573	4	0.000272	0	-1E+10	1	-1E+10	1	-1E+10	1
4902624	45	C	09/14/2025	13:35	-129.212	48.756	0	224.50	0	7.1382	0	33.8955	0	26.533	0	222.480	0	82.5	4	28.0	4	-1E+10	1	0.0511	4	0.000282	0	-1E+10	1	-1E+10	1	-1E+10	1
4902624	45	C	09/14/2025	13:35	-129.212	48.756	0	225.00	0	7.1330	0	33.8960	0	26.534	0	222.975	0	-1e10	1	-1e10	1	-1E+10	1	-1e10	1	-1e10	1	-1E+10	1	-1E+10	1	-1E+10	1
4902624	45	C	09/14/2025	13:35	-129.212	48.756	0	225.60	0	7.1288	0	33.8966	0	26.535	0	223.569	0	82.3	4	27.9	4	-1E+10	1	0.0573	4	0.000550	0	-1E+10	1	-1E+10	1	-1E+10	1
4902624	45	C	09/14/2025	13:35	-129.212	48.756	0	226.60	0	7.1218	0	33.8976	0	26.537	0	224.560	0	82.0	4	27.8	4	-1E+10	1	0.0584	4	0.000392	0	-1E+10	1	-1E+10	1	-1E+10	1
4902624	45	C	09/14/2025	13:35	-129.212	48.756	0	227.00	0	7.1190	0	33.8980	0	26.537	0	224.956	0	-1e10	1	-1e10	1	-1E+10	1	-1e10	1	-1e10	1	-1E+10	1	-1E+10	1	-1E+10	1
4902624	45	C	09/14/2025	13:35	-129.212	48.756	0	227.70	0	7.1169	0	33.8983	0	26.538	0	225.649	0	81.8	4	27.7	4	-1E+10	1	0.0382	4	0.000341	0	-1E+10	1	-1E+10	1	-1E+10	1
4902624	45	C	09/14/2025	13:35	-129.212	48.756	0	228.70	0	7.1139	0	33.8988	0	26.539	0	226.640	0	81.6	4	27.6	4	-1E+10	1	0.0329	4	0.000329	0	-1E+10	1	-1E+10	1	-1E+10	1
4902624	45	C	09/14/2025	13:35	-129.212	48.756	0	229.00	0	7.1130	0	33.8990	0	26.539	0	226.937	0	-1e10	1	-1e10	1	-1E+10	1	-1e10	1	-1e10	1	-1E+10	1	-1E+10	1	-1E+10	1
4902624	45	C	09/14/2025	13:35	-129.212	48.756	0	229.80	0	7.1054	0	33.8998	0	26.541	0	227.729	0	81.4	4	27.6	4	-1E+10	1	0.0498	4	0.000301	0	-1E+10	1	-1E+10	1	-1E+10	1
4902624	45	C	09/14/2025	13:35	-129.212	48.756	0	230.80	0	7.0959	0	33.9008	0	26.543	0	228.720	0	81.1	4	27.5	4	-1E+10	1	0.0560	4	0.000278	0	-1E+10	1	-1E+10	1	-1E+10	1
4902624	45	C	09/14/2025	13:35	-129.212	48.756	0	231.00	0	7.0940	0	33.9010	0	26.543	0	228.918	0	-1e10	1	-1e10	1	-1E+10	1	-1e10	1	-1e10	1	-1E+10	1	-1E+10	1	-1E+10	1
4902624	45	C	09/14/2025	13:35	-129.212	48.756	0	231.90	0	7.0845	0	33.9024	0	26.546	0	229.809	0	80.9	4	27.4	4	-1E+10	1	0.0399	4	0.000279	0	-1E+10	1	-1E+10	1	-1E+10	1
4902624	45	C	09/14/2025	13:35	-129.212	48.756	0	232.90	0	7.0740	0	33.9039	0	26.548	0	230.799	0	80.7	4	27.3	4	-1E+10	1	0.0511	4	0.000306	0	-1E+10	1	-1E+10	1	-1E+10	1
4902624	45	C	09/14/2025	13:35	-129.212	48.756	0	233.00	0	7.0730	0	33.9040	0	26.549	0	230.899	0	-1e10	1	-1e10	1	-1E+10	1	-1e10	1	-1e10	1	-1E+10	1	-1E+10	1	-1E+10	1
4902624	45	C	09/14/2025	13:35	-129.212	48.756	0	234.00	0	7.0660	0	33.9045	0	26.550	0	231.889	0	80.5	4	27.2	4	-1E+10	1	0.0511	4	0.000845	0	-1E+10	1	-1E+10	1	-1E+10	1
4902624	45	C	09/14/2025	13:35	-129.212	48.756	0	235.00	0	7.0590	0	33.9050	0	26.551	0	232.879	0	78.0	4	26.4	4	-1E+10	1	0.0511	4	0.000376	0	-1E+10	1	-1E+10	1	-1E+10	1
4902624	45	C	09/14/2025	13:35	-129.212	48.756	0	236.00	0	7.0530	0	33.9050	0	26.552	0	233.870	0	79.9	4	27.0	4	-1E+10	1	0.0511	4	0.000282	0	-1E+10	1	-1E+10	1	-1E+10	1
4902624	45	C	09/14/2025	13:35	-129.212	48.756	0	237.00	0	7.0470	0	33.9050	0	26.553	0	234.860	0	-1e10	1	-1e10	1	-1E+10	1	-1e10	1	-1e10	1	-1E+10	1	-1E+10	1	-1E+10	1
4902624	45	C	09/14/2025	13:35	-129.212	48.756	0	237.10	0	7.0457	0	33.9051	0	26.553	0	234.959	0	79.6	4	26.9	4	-1E+10	1	0.0511	4	0.000275	0	-1E+10	1	-1E+10	1	-1E+10	1
4902624	45	C	09/14/2025	13:35	-129.212	48.756	0	238.10	0	7.0327	0	33.9067	0	26.556	0	235.950	0	79.2	4	26.8	4	-1E+10	1	0.0511	4	0.000300	0	-1E+10	1	-1E+10	1	-1E+10	1
4902624	45	C	09/14/2025	13:35	-129.212	48.756	0	239.00	0	7.0210	0	33.9080	0	26.559	0	236.841	0	-1e10	1	-1e10	1	-1E+10	1	-1e10	1	-1e10	1	-1E+10	1	-1E+10	1	-1E+10	1
4902624	45	C	09/14/2025	13:35	-129.212	48.756	0	239.20	0	7.0179	0	33.9084	0	26.560	0	237.039	0	79.0	4	26.7	4	-1E+10	1	0.0455	4	0.000311	0	-1E+10	1	-1E+10	1	-1E+10	1
4902624	45	C	09/14/2025	13:35	-129.212	48.756	0	240.20	0	7.0024	0	33.9104	0	26.563	0	238.029	0	78.7	4	26.6	4	-1E+10	1	0.0409	4	0.000296	0	-1E+10	1	-1E+10	1	-1E+10	1
4902624	45	C	09/14/2025	13:35	-129.212	48.756	0	241.00	0	6.9900	0	33.9120	0	26.566	0	238.822	0	-1e10	1	-1e10	1	-1E+10	1	-1e10	1	-1e10	1	-1E+10	1	-1E+10	1	-1E+10	1
4902624	45	C	09/14/2025	13:35	-129.212	48.756	0	241.30	0	6.9856	0	33.9124	0	26.567	0	239.119	0	78.5	4	26.5	4	-1E+10	1	0.0550	4	0.000338	0	-1E+10	1	-1E+10	1	-1E+10	1
4902624	45	C	09/14/2025	13:35	-129.212	48.756	0	242.30	0	6.9711	0	33.9140	0	26.570	0	240.109	0	78.2	4	26.4	4	-1E+10	1	0.0438	4	0.000294	0	-1E+10	1	-1E+10	1	-1E+10	1
4902624	45	C	09/14/2025	13:35	-129.212	48.756	0	243.00	0	6.9610	0	33.9150	0	26.573	0	240.802	0	-1e10	1	-1e10	1	-1E+10	1	-1e10	1	-1e10	1	-1E+10	1	-1E+10	1	-1E+10	1
4902624	45	C	09/14/2025	13:35	-129.212	48.756	0	243.40	0	6.9572	0	33.9152	0	26.573	0	241.199	0	78.0	4	26.4	4	-1E+10	1	0.0438	4	0.000251	0	-1E+10	1	-1E+10	1	-1E+10	1
4902624	45	C	09/14/2025	13:35	-129.212	48.756	0	244.40	0	6.9477	0	33.9157	0	26.575	0	242.189	0	77.8	4	26.3	4	-1E+10	1	0.0557	4	0.000285	0	-1E+10	1	-1E+10	1	-1E+10	1
4902624	45	C	09/14/2025	13:35	-129.212	48.756	0	245.00	0	6.9420	0	33.9160	0	26.576	0	242.783	0	-1e10	1	-1e10	1	-1E+10	1	-1e10	1	-1e10	1	-1E+10	1	-1E+10	1	-1E+10	1
4902624	45	C	09/14/2025	13:35	-129.212	48.756	0	245.40	0	6.9386	0	33.9164	0	26.577	0	243.179	0	77.5	4	26.2	4	-1E+10	1	0.0584	4	0.000278	0	-1E+10	1	-1E+10	1	-1E+10	1
4902624	45	C	09/14/2025	13:35	-129.212	48.756	0	246.40	0	6.9301	0	33.9174	0	26.579	0	244.170	0	77.3	4	26.1	4	-1E+10	1	0.0550	4	0.000693	0	-1E+10	1	-1E+10	1	-1E+10	1
4902624	45	C	09/14/2025	13:35	-129.212	48.756	0	247.00	0	6.9250	0	33.9180	0	26.580	0	244.764	0	-1e10	1	-1e10	1	-1E+10	1	-1e10	1	-1e10	1	-1E+10	1	-1E+10	1	-1E+10	1
4902624	45	C	09/14/2025	13:35	-129.212	48.756	0	247.50	0	6.9175	0	33.9188	0	26.582	0	245.259	0	77.0	4	26.0	4	-1E+10	1	0.0482	4	0.000829	0	-1E+10	1	-1E+10	1	-1E+10	1
4902624	45	C	09/14/2025	13:35	-129.212	48.756	0	248.50	0	6.9025	0	33.9202	0	26.585	0	246.249	0	76.8	4	25.9	4	-1E+10	1	0.0438	4	0.000308	0	-1E+10	1	-1E+10	1	-1E+10	1
4902624	45	C	09/14/2025	13:35	-129.212	48.756	0	249.00	0	6.8950	0	33.9210	0	26.586	0	246.745	0	-1e10	1	-1e10	1	-1E+10	1	-1e10	1	-1e10	1	-1E+10	1	-1E+10	1	-1E+10	1
4902624	45	C	09/14/2025	13:35	-129.212	48.756	0	249.50	0	6.8857	0	33.9218	0	26.588	0	247.240	0	76.5	4	25.8	4	-1E+10	1	0.0444	4	0.000339	0	-1E+10	1	-1E+10	1	-1E+10	1
4902624	45	C	09/14/2025	13:35	-129.212	48.756	0	250.60	0	6.8654	0	33.9234	0	26.592	0	248.329	0	76.3	4	25.7	4	-1E+10	1	0.0511	4	0.000317	0	-1E+10	1	-1E+10	1	-1E+10	1
4902624	45	C	09/14/2025	13:35	-129.212	48.756	0	251.00	0	6.8580	0	33.9240	0	26.594	0	248.725	0	-1e10	1	-1e10	1	-1E+10	1	-1e10	1	-1e10	1	-1E+10	1	-1E+10	1	-1E+10	1
4902624	45	C	09/14/2025	13:35	-129.212	48.756	0	251.60	0	6.8544	0	33.9240	0	26.594	0	249.320	0	76.1	4	25.6	4	-1E+10	1	0.0438	4	0.000258	0	-1E+10	1	-1E+10	1	-1E+10	1
4902624	45	C	09/14/2025	13:35	-129.212	48.756	0	252.70	0	6.8478	0	33.9240	0	26.595	0	250.409	0	75.8	4	25.6	4	-1E+10	1	0.0438	4	0.000268	0	-1E+10	1	-1E+10	1	-1E+10	1
4902624	45	C	09/14/2025	13:35	-129.212	48.756	0	253.00	0	6.8460	0	33.9240	0	26.595	0	250.706	0	-1e10	1	-1e10	1	-1E+10	1	-1e10	1	-1e10	1	-1E+10	1	-1E+10	1	-1E+10	1
4902624	45	C	09/14/2025	13:35	-129.212	48.756	0	253.70	0	6.8390	0	33.9250	0	26.597	0	251.399	0	75.6	4	25.5	4	-1E+10	1	0.0487	4	0.000255	0	-1E+10	1	-1E+10	1	-1E+10	1
4902624	45	C	09/14/2025	13:35	-129.212	48.756	0	254.80	0	6.8280	0	33.9267	0	26.600	0	252.489	0	75.4	4	25.4	4	-1E+10	1	0.0418	4	0.000277	0	-1E+10	1	-1E+10	1	-1E+10	1
4902624	45	C	09/14/2025	13:35	-129.212	48.756	0	255.00	0	6.8260	0	33.9270	0	26.601	0	252.687	0	-1e10	1	-1e10	1	-1E+10	1	-1e10	1	-1e10	1	-1E+10	1	-1E+10	1	-1E+10	1
4902624	45	C	09/14/2025	13:35	-129.212	48.756	0	255.80	0	6.8188	0	33.9278	0	26.602	0	253.479	0	75.3	4	25.3	4	-1E+10	1	0.0466	4	0.000283	0	-1E+10	1	-1E+10	1	-1E+10	1
4902624	45	C	09/14/2025	13:35	-129.212	48.756	0	256.90	0	6.8089	0	33.9289	0	26.604	0	254.568	0	75.1	4	25.3	4	-1E+10	1	0.0560	4	0.000274	0	-1E+10	1	-1E+10	1	-1E+10	1
4902624	45	C	09/14/2025	13:35	-129.212	48.756	0	257.00	0	6.8080	0	33.9290	0	26.605	0	254.667	0	-1e10	1	-1e10	1	-1E+10	1	-1e10	1	-1e10	1	-1E+10	1	-1E+10	1	-1E+10	1
4902624	45	C	09/14/2025	13:35	-129.212	48.756	0	258.00	0	6.8040	0	33.9295	0	26.605	0	255.658	0	74.9	4	25.2	4	-1E+10	1	0.0511	4	0.000282	0	-1E+10	1	-1E+10	1	-1E+10	1
4902624	45	C	09/14/2025	13:35	-129.212	48.756	0	259.00	0	6.8000	0	33.9300	0	26.606	0	256.648	0	72.7	4	24.5	4	-1E+10	1	0.0511	4	0.000275	0	-1E+10	1	-1E+10	1	-1E+10	1
4902624	45	C	09/14/2025	13:35	-129.212	48.756	0	260.10	0	6.7978	0	33.9300	0	26.607	0	257.737	0	74.5	4	25.1	4	-1E+10	1	0.0511	4	0.000235	0	-1E+10	1	-1E+10	1	-1E+10	1
4902624	45	C	09/14/2025	13:35	-129.212	48.756	0	261.00	0	6.7960	0	33.9300	0	26.607	0	258.628	0	-1e10	1	-1e10	1	-1E+10	1	-1e10	1	-1e10	1	-1E+10	1	-1E+10	1	-1E+10	1
4902624	45	C	09/14/2025	13:35	-129.212	48.756	0	261.10	0	6.7951	0	33.9300	0	26.607	0	258.728	0	74.3	4	25.0	4	-1E+10	1	0.0511	4	0.000254	0	-1E+10	1	-1E+10	1	-1E+10	1
4902624	45	C	09/14/2025	13:35	-129.212	48.756	0	262.20	0	6.7858	0	33.9306	0	26.609	0	259.817	0	74.0	4	24.9	4	-1E+10	1	0.0451	4	0.000930	0	-1E+10	1	-1E+10	1	-1E+10	1
4902624	45	C	09/14/2025	13:35	-129.212	48.756	0	263.00	0	6.7790	0	33.9310	0	26.610	0	260.609	0	-1e10	1	-1e10	1	-1E+10	1	-1e10	1	-1e10	1	-1E+10	1	-1E+10	1	-1E+10	1
4902624	45	C	09/14/2025	13:35	-129.212	48.756	0	263.20	0	6.7758	0	33.9314	0	26.611	0	260.807	0	73.8	4	24.8	4	-1E+10	1	0.0528	4	0.000574	0	-1E+10	1	-1E+10	1	-1E+10	1
4902624	45	C	09/14/2025	13:35	-129.212	48.756	0	264.30	0	6.7582	0	33.9336	0	26.615	0	261.896	0	73.6	4	24.8	4	-1E+10	1	0.0548	4	0.000264	0	-1E+10	1	-1E+10	1	-1E+10	1
4902624	45	C	09/14/2025	13:35	-129.212	48.756	0	265.00	0	6.7470	0	33.9350	0	26.618	0	262.590	0	-1e10	1	-1e10	1	-1E+10	1	-1e10	1	-1e10	1	-1E+10	1	-1E+10	1	-1E+10	1
4902624	45	C	09/14/2025	13:35	-129.212	48.756	0	265.40	0	6.7440	0	33.9350	0	26.618	0	262.986	0	73.4	4	24.7	4	-1E+10	1	0.0478	4	0.000297	0	-1E+10	1	-1E+10	1	-1E+10	1
4902624	45	C	09/14/2025	13:35	-129.212	48.756	0	266.40	0	6.7365	0	33.9350	0	26.619	0	263.976	0	73.2	4	24.6	4	-1E+10	1	0.0483	4	0.000322	0	-1E+10	1	-1E+10	1	-1E+10	1
4902624	45	C	09/14/2025	13:35	-129.212	48.756	0	267.00	0	6.7320	0	33.9350	0	26.620	0	264.570	0	-1e10	1	-1e10	1	-1E+10	1	-1e10	1	-1e10	1	-1E+10	1	-1E+10	1	-1E+10	1
4902624	45	C	09/14/2025	13:35	-129.212	48.756	0	267.50	0	6.7302	0	33.9352	0	26.620	0	265.065	0	73.0	4	24.5	4	-1E+10	1	0.0535	4	0.000350	0	-1E+10	1	-1E+10	1	-1E+10	1
4902624	45	C	09/14/2025	13:35	-129.212	48.756	0	268.50	0	6.7267	0	33.9358	0	26.621	0	266.056	0	72.8	4	24.5	4	-1E+10	1	0.0292	4	0.000575	0	-1E+10	1	-1E+10	1	-1E+10	1
4902624	45	C	09/14/2025	13:35	-129.212	48.756	0	269.00	0	6.7250	0	33.9360	0	26.621	0	266.551	0	-1e10	1	-1e10	1	-1E+10	1	-1e10	1	-1e10	1	-1E+10	1	-1E+10	1	-1E+10	1
4902624	45	C	09/14/2025	13:35	-129.212	48.756	0	269.60	0	6.7226	0	33.9363	0	26.622	0	267.145	0	72.5	4	24.4	4	-1E+10	1	0.0438	4	0.000282	0	-1E+10	1	-1E+10	1	-1E+10	1
4902624	45	C	09/14/2025	13:35	-129.212	48.756	0	270.70	0	6.7182	0	33.9369	0	26.623	0	268.234	0	72.4	4	24.3	4	-1E+10	1	0.0562	4	0.000292	0	-1E+10	1	-1E+10	1	-1E+10	1
4902624	45	C	09/14/2025	13:35	-129.212	48.756	0	271.00	0	6.7170	0	33.9370	0	26.623	0	268.531	0	-1e10	1	-1e10	1	-1E+10	1	-1e10	1	-1e10	1	-1E+10	1	-1E+10	1	-1E+10	1
4902624	45	C	09/14/2025	13:35	-129.212	48.756	0	271.80	0	6.7086	0	33.9378	0	26.625	0	269.323	0	72.3	4	24.3	4	-1E+10	1	0.0537	4	0.000286	0	-1E+10	1	-1E+10	1	-1E+10	1
4902624	45	C	09/14/2025	13:35	-129.212	48.756	0	272.90	0	6.6970	0	33.9390	0	26.627	0	270.413	0	70.2	4	23.6	4	-1E+10	1	0.0471	4	0.000295	0	-1E+10	1	-1E+10	1	-1E+10	1
4902624	45	C	09/14/2025	13:35	-129.212	48.756	0	274.00	0	6.6860	0	33.9390	0	26.629	0	271.502	0	72.0	4	24.2	4	-1E+10	1	0.0472	4	0.000284	0	-1E+10	1	-1E+10	1	-1E+10	1
4902624	45	C	09/14/2025	13:35	-129.212	48.756	0	274.90	0	6.6770	0	33.9390	0	26.630	0	272.393	0	-1e10	1	-1e10	1	-1E+10	1	-1e10	1	-1e10	1	-1E+10	1	-1E+10	1	-1E+10	1
4902624	45	C	09/14/2025	13:35	-129.212	48.756	0	275.10	0	6.6753	0	33.9390	0	26.630	0	272.591	0	71.8	4	24.1	4	-1E+10	1	0.0511	4	0.000258	0	-1E+10	1	-1E+10	1	-1E+10	1
4902624	45	C	09/14/2025	13:35	-129.212	48.756	0	276.30	0	6.6651	0	33.9390	0	26.632	0	273.779	0	71.5	4	24.0	4	-1E+10	1	0.0471	4	0.000255	0	-1E+10	1	-1E+10	1	-1E+10	1
4902624	45	C	09/14/2025	13:35	-129.212	48.756	0	276.90	0	6.6600	0	33.9390	0	26.632	0	274.373	0	-1e10	1	-1e10	1	-1E+10	1	-1e10	1	-1e10	1	-1E+10	1	-1E+10	1	-1E+10	1
4902624	45	C	09/14/2025	13:35	-129.212	48.756	0	277.30	0	6.6542	0	33.9394	0	26.633	0	274.770	0	71.3	4	23.9	4	-1E+10	1	0.0365	4	0.000245	0	-1E+10	1	-1E+10	1	-1E+10	1
4902624	45	C	09/14/2025	13:35	-129.212	48.756	0	278.50	0	6.6368	0	33.9406	0	26.637	0	275.958	0	71.1	4	23.8	4	-1E+10	1	0.0365	4	0.000235	0	-1E+10	1	-1E+10	1	-1E+10	1
4902624	45	C	09/14/2025	13:35	-129.212	48.756	0	278.90	0	6.6310	0	33.9410	0	26.638	0	276.354	0	-1e10	1	-1e10	1	-1E+10	1	-1e10	1	-1e10	1	-1E+10	1	-1E+10	1	-1E+10	1
4902624	45	C	09/14/2025	13:35	-129.212	48.756	0	279.60	0	6.6247	0	33.9414	0	26.639	0	277.047	0	70.9	4	23.8	4	-1E+10	1	0.0427	4	0.000225	0	-1E+10	1	-1E+10	1	-1E+10	1
4902624	45	C	09/14/2025	13:35	-129.212	48.756	0	280.70	0	6.6148	0	33.9419	0	26.641	0	278.136	0	70.6	4	23.7	4	-1E+10	1	0.0438	4	0.000222	0	-1E+10	1	-1E+10	1	-1E+10	1
4902624	45	C	09/14/2025	13:35	-129.212	48.756	0	280.90	0	6.6130	0	33.9420	0	26.641	0	278.334	0	-1e10	1	-1e10	1	-1E+10	1	-1e10	1	-1e10	1	-1E+10	1	-1E+10	1	-1E+10	1
4902624	45	C	09/14/2025	13:35	-129.212	48.756	0	281.80	0	6.6091	0	33.9420	0	26.642	0	279.225	0	70.5	4	23.6	4	-1E+10	1	0.0485	4	0.000237	0	-1E+10	1	-1E+10	1	-1E+10	1
4902624	45	C	09/14/2025	13:35	-129.212	48.756	0	283.00	0	6.6040	0	33.9420	0	26.642	0	280.414	0	68.3	4	22.9	4	-1E+10	1	0.0511	4	0.000258	0	-1E+10	1	-1E+10	1	-1E+10	1
4902624	45	C	09/14/2025	13:35	-129.212	48.756	0	284.10	0	6.5897	0	33.9431	0	26.645	0	281.503	0	70.0	4	23.4	4	-1E+10	1	0.0484	4	0.000274	0	-1E+10	1	-1E+10	1	-1E+10	1
4902624	45	C	09/14/2025	13:35	-129.212	48.756	0	285.00	0	6.5780	0	33.9440	0	26.647	0	282.394	0	-1e10	1	-1e10	1	-1E+10	1	-1e10	1	-1e10	1	-1E+10	1	-1E+10	1	-1E+10	1
4902624	45	C	09/14/2025	13:35	-129.212	48.756	0	285.20	0	6.5750	0	33.9442	0	26.648	0	282.592	0	69.8	4	23.4	4	-1E+10	1	0.0438	4	0.000289	0	-1E+10	1	-1E+10	1	-1E+10	1
4902624	45	C	09/14/2025	13:35	-129.212	48.756	0	286.40	0	6.5567	0	33.9453	0	26.651	0	283.780	0	69.6	4	23.3	4	-1E+10	1	0.0469	4	0.000293	0	-1E+10	1	-1E+10	1	-1E+10	1
4902624	45	C	09/14/2025	13:35	-129.212	48.756	0	287.10	0	6.5460	0	33.9460	0	26.653	0	284.473	0	-1e10	1	-1e10	1	-1E+10	1	-1e10	1	-1e10	1	-1E+10	1	-1E+10	1	-1E+10	1
4902624	45	C	09/14/2025	13:35	-129.212	48.756	0	287.50	0	6.5435	0	33.9460	0	26.653	0	284.869	0	69.3	4	23.2	4	-1E+10	1	0.0584	4	0.000246	0	-1E+10	1	-1E+10	1	-1E+10	1
4902624	45	C	09/14/2025	13:35	-129.212	48.756	0	288.70	0	6.5359	0	33.9460	0	26.654	0	286.058	0	69.1	4	23.1	4	-1E+10	1	0.0438	4	0.000258	0	-1E+10	1	-1E+10	1	-1E+10	1
4902624	45	C	09/14/2025	13:35	-129.212	48.756	0	289.00	0	6.5340	0	33.9460	0	26.655	0	286.355	0	-1e10	1	-1e10	1	-1E+10	1	-1e10	1	-1e10	1	-1E+10	1	-1E+10	1	-1E+10	1
4902624	45	C	09/14/2025	13:35	-129.212	48.756	0	289.80	0	6.5220	0	33.9472	0	26.657	0	287.147	0	68.8	4	23.0	4	-1E+10	1	0.0500	4	0.000268	0	-1E+10	1	-1E+10	1	-1E+10	1
4902624	45	C	09/14/2025	13:35	-129.212	48.756	0	291.00	0	6.5040	0	33.9490	0	26.661	0	288.335	0	66.8	4	22.3	4	-1E+10	1	0.0389	4	0.000260	0	-1E+10	1	-1E+10	1	-1E+10	1
4902624	45	C	09/14/2025	13:35	-129.212	48.756	0	292.20	0	6.4896	0	33.9490	0	26.663	0	289.523	0	68.4	4	22.9	4	-1E+10	1	0.0487	4	0.000297	0	-1E+10	1	-1E+10	1	-1E+10	1
4902624	45	C	09/14/2025	13:35	-129.212	48.756	0	293.00	0	6.4800	0	33.9490	0	26.664	0	290.315	0	-1e10	1	-1e10	1	-1E+10	1	-1e10	1	-1e10	1	-1E+10	1	-1E+10	1	-1E+10	1
4902624	45	C	09/14/2025	13:35	-129.212	48.756	0	293.40	0	6.4736	0	33.9496	0	26.665	0	290.711	0	68.2	4	22.8	4	-1E+10	1	0.0459	4	0.000280	0	-1E+10	1	-1E+10	1	-1E+10	1
4902624	45	C	09/14/2025	13:35	-129.212	48.756	0	294.50	0	6.4560	0	33.9512	0	26.669	0	291.800	0	68.0	4	22.7	4	-1E+10	1	0.0474	4	0.000252	0	-1E+10	1	-1E+10	1	-1E+10	1
4902624	45	C	09/14/2025	13:35	-129.212	48.756	0	295.00	0	6.4480	0	33.9520	0	26.671	0	292.296	0	-1e10	1	-1e10	1	-1E+10	1	-1e10	1	-1e10	1	-1E+10	1	-1E+10	1	-1E+10	1
4902624	45	C	09/14/2025	13:35	-129.212	48.756	0	295.70	0	6.4434	0	33.9520	0	26.671	0	292.989	0	67.8	4	22.6	4	-1E+10	1	0.0541	4	0.000293	0	-1E+10	1	-1E+10	1	-1E+10	1
4902624	45	C	09/14/2025	13:35	-129.212	48.756	0	296.90	0	6.4356	0	33.9520	0	26.672	0	294.177	0	67.6	4	22.6	4	-1E+10	1	0.0584	4	0.000369	0	-1E+10	1	-1E+10	1	-1E+10	1
4902624	45	C	09/14/2025	13:35	-129.212	48.756	0	297.00	0	6.4350	0	33.9520	0	26.672	0	294.276	0	-1e10	1	-1e10	1	-1E+10	1	-1e10	1	-1e10	1	-1E+10	1	-1E+10	1	-1E+10	1
4902624	45	C	09/14/2025	13:35	-129.212	48.756	0	299.00	0	6.4200	0	33.9530	0	26.675	0	296.256	0	-1e10	1	-1e10	1	-1E+10	1	-1e10	1	-1e10	1	-1E+10	1	-1E+10	1	-1E+10	1
4902624	45	C	09/14/2025	13:35	-129.212	48.756	0	305.20	0	6.3600	0	33.9560	0	26.685	0	302.395	0	-1e10	1	-1e10	1	-1E+10	1	-1e10	1	-1e10	1	-1E+10	1	-1E+10	1	-1E+10	1
4902624	45	C	09/14/2025	13:35	-129.212	48.756	0	307.60	0	6.3421	0	33.9570	0	26.688	0	304.771	0	65.9	4	21.9	4	-1E+10	1	0.0581	4	0.000235	0	-1E+10	1	-1E+10	1	-1E+10	1
4902624	45	C	09/14/2025	13:35	-129.212	48.756	0	315.00	0	6.2870	0	33.9600	0	26.698	0	312.097	0	-1e10	1	-1e10	1	-1E+10	1	-1e10	1	-1e10	1	-1E+10	1	-1E+10	1	-1E+10	1
4902624	45	C	09/14/2025	13:35	-129.212	48.756	0	315.40	0	6.2836	0	33.9602	0	26.699	0	312.493	0	64.1	4	21.3	4	-1E+10	1	0.0514	4	0.000250	0	-1E+10	1	-1E+10	1	-1E+10	1
4902624	45	C	09/14/2025	13:35	-129.212	48.756	0	323.50	0	6.2157	0	33.9652	0	26.711	0	320.512	0	62.1	4	20.6	4	-1E+10	1	0.0579	4	0.000347	0	-1E+10	1	-1E+10	1	-1E+10	1
4902624	45	C	09/14/2025	13:35	-129.212	48.756	0	324.90	0	6.2040	0	33.9660	0	26.713	0	321.898	0	-1e10	1	-1e10	1	-1E+10	1	-1e10	1	-1e10	1	-1E+10	1	-1E+10	1	-1E+10	1
4902624	45	C	09/14/2025	13:35	-129.212	48.756	0	331.80	0	6.1521	0	33.9708	0	26.724	0	328.729	0	60.3	4	20.0	4	-1E+10	1	0.0443	4	0.000235	0	-1E+10	1	-1E+10	1	-1E+10	1
4902624	45	C	09/14/2025	13:35	-129.212	48.756	0	335.00	0	6.1280	0	33.9730	0	26.729	0	331.897	0	-1e10	1	-1e10	1	-1E+10	1	-1e10	1	-1e10	1	-1E+10	1	-1E+10	1	-1E+10	1
4902624	45	C	09/14/2025	13:35	-129.212	48.756	0	340.50	0	6.0980	0	33.9758	0	26.735	0	337.341	0	58.8	4	19.5	4	-1E+10	1	0.0584	4	0.000257	0	-1E+10	1	-1E+10	1	-1E+10	1
4902624	45	C	09/14/2025	13:35	-129.212	48.756	0	344.90	0	6.0740	0	33.9780	0	26.740	0	341.697	0	-1e10	1	-1e10	1	-1E+10	1	-1e10	1	-1e10	1	-1E+10	1	-1E+10	1	-1E+10	1
4902624	45	C	09/14/2025	13:35	-129.212	48.756	0	349.30	0	6.0366	0	33.9806	0	26.746	0	346.052	0	56.8	4	18.8	4	-1E+10	1	0.0581	4	0.000245	0	-1E+10	1	-1E+10	1	-1E+10	1
4902624	45	C	09/14/2025	13:35	-129.212	48.756	0	354.90	0	5.9890	0	33.9840	0	26.755	0	351.596	0	-1e10	1	-1e10	1	-1E+10	1	-1e10	1	-1e10	1	-1E+10	1	-1E+10	1	-1E+10	1
4902624	45	C	09/14/2025	13:35	-129.212	48.756	0	358.10	0	5.9560	0	33.9866	0	26.761	0	354.763	0	54.5	4	18.0	4	-1E+10	1	0.0508	4	0.000223	0	-1E+10	1	-1E+10	1	-1E+10	1
4902624	45	C	09/14/2025	13:35	-129.212	48.756	0	364.90	0	5.8860	0	33.9920	0	26.774	0	361.494	0	-1e10	1	-1e10	1	-1E+10	1	-1e10	1	-1e10	1	-1E+10	1	-1E+10	1	-1E+10	1
4902624	45	C	09/14/2025	13:35	-129.212	48.756	0	366.80	0	5.8722	0	33.9930	0	26.777	0	363.374	0	52.7	4	17.4	4	-1E+10	1	0.0445	4	0.000233	0	-1E+10	1	-1E+10	1	-1E+10	1
4902624	45	C	09/14/2025	13:35	-129.212	48.756	0	374.70	0	5.8150	0	33.9970	0	26.787	0	371.194	0	-1e10	1	-1e10	1	-1E+10	1	-1e10	1	-1e10	1	-1E+10	1	-1E+10	1	-1E+10	1
4902624	45	C	09/14/2025	13:35	-129.212	48.756	0	375.40	0	5.8103	0	33.9973	0	26.788	0	371.886	0	51.4	4	16.9	4	-1E+10	1	0.0587	4	0.000223	0	-1E+10	1	-1E+10	1	-1E+10	1
4902624	45	C	09/14/2025	13:35	-129.212	48.756	0	383.90	0	5.7531	0	34.0006	0	26.798	0	380.299	0	49.9	4	16.4	4	-1E+10	1	0.0653	4	0.000233	0	-1E+10	1	-1E+10	1	-1E+10	1
4902624	45	C	09/14/2025	13:35	-129.212	48.756	0	384.80	0	5.7470	0	34.0010	0	26.799	0	381.190	0	-1e10	1	-1e10	1	-1E+10	1	-1e10	1	-1e10	1	-1E+10	1	-1E+10	1	-1E+10	1
4902624	45	C	09/14/2025	13:35	-129.212	48.756	0	392.20	0	5.6945	0	34.0054	0	26.809	0	388.513	0	48.4	4	15.9	4	-1E+10	1	0.0581	4	0.000270	0	-1E+10	1	-1E+10	1	-1E+10	1
4902624	45	C	09/14/2025	13:35	-129.212	48.756	0	394.80	0	5.6760	0	34.0070	0	26.812	0	391.086	0	-1e10	1	-1e10	1	-1E+10	1	-1e10	1	-1e10	1	-1E+10	1	-1E+10	1	-1E+10	1
4902624	45	C	09/14/2025	13:35	-129.212	48.756	0	401.00	0	5.6432	0	34.0100	0	26.819	0	397.222	0	47.0	4	15.4	4	-1E+10	1	0.0517	4	0.001242	0	-1E+10	1	-1E+10	1	-1E+10	1
4902624	45	C	09/14/2025	13:35	-129.212	48.756	0	405.00	0	5.6220	0	34.0120	0	26.823	0	401.181	0	-1e10	1	-1e10	1	-1E+10	1	-1e10	1	-1e10	1	-1E+10	1	-1E+10	1	-1E+10	1
4902624	45	C	09/14/2025	13:35	-129.212	48.756	0	410.10	0	5.5947	0	34.0145	0	26.828	0	406.228	0	45.6	4	14.9	4	-1E+10	1	0.0655	4	0.000198	0	-1E+10	1	-1E+10	1	-1E+10	1
4902624	45	C	09/14/2025	13:35	-129.212	48.756	0	415.10	0	5.5680	0	34.0170	0	26.833	0	411.175	0	-1e10	1	-1e10	1	-1E+10	1	-1e10	1	-1e10	1	-1E+10	1	-1E+10	1	-1E+10	1
4902624	45	C	09/14/2025	13:35	-129.212	48.756	0	419.80	0	5.5414	0	34.0194	0	26.839	0	415.826	0	43.9	4	14.4	4	-1E+10	1	0.0587	4	0.000198	0	-1E+10	1	-1E+10	1	-1E+10	1
4902624	45	C	09/14/2025	13:35	-129.212	48.756	0	425.00	0	5.5120	0	34.0220	0	26.844	0	420.972	0	-1e10	1	-1e10	1	-1E+10	1	-1e10	1	-1e10	1	-1E+10	1	-1E+10	1	-1E+10	1
4902624	45	C	09/14/2025	13:35	-129.212	48.756	0	429.80	0	5.4853	0	34.0254	0	26.850	0	425.721	0	42.1	4	13.8	4	-1E+10	1	0.0651	4	0.000199	0	-1E+10	1	-1E+10	1	-1E+10	1
4902624	45	C	09/14/2025	13:35	-129.212	48.756	0	434.90	0	5.4570	0	34.0290	0	26.856	0	430.768	0	-1e10	1	-1e10	1	-1E+10	1	-1e10	1	-1e10	1	-1E+10	1	-1E+10	1	-1E+10	1
4902624	45	C	09/14/2025	13:35	-129.212	48.756	0	440.20	0	5.4326	0	34.0322	0	26.862	0	436.012	0	40.4	4	13.2	4	-1E+10	1	0.0511	4	0.000220	0	-1E+10	1	-1E+10	1	-1E+10	1
4902624	45	C	09/14/2025	13:35	-129.212	48.756	0	444.90	0	5.4110	0	34.0350	0	26.867	0	440.662	0	-1e10	1	-1e10	1	-1E+10	1	-1e10	1	-1e10	1	-1E+10	1	-1E+10	1	-1E+10	1
4902624	45	C	09/14/2025	13:35	-129.212	48.756	0	451.10	0	5.3842	0	34.0386	0	26.873	0	446.796	0	38.7	4	12.6	4	-1E+10	1	0.0516	4	0.000187	0	-1E+10	1	-1E+10	1	-1E+10	1
4902624	45	C	09/14/2025	13:35	-129.212	48.756	0	455.30	0	5.3660	0	34.0410	0	26.877	0	450.952	0	-1e10	1	-1e10	1	-1E+10	1	-1e10	1	-1e10	1	-1E+10	1	-1E+10	1	-1E+10	1
4902624	45	C	09/14/2025	13:35	-129.212	48.756	0	462.30	0	5.3321	0	34.0459	0	26.885	0	457.877	0	36.9	4	12.0	4	-1E+10	1	0.0654	4	0.000198	0	-1E+10	1	-1E+10	1	-1E+10	1
4902624	45	C	09/14/2025	13:35	-129.212	48.756	0	465.20	0	5.3180	0	34.0480	0	26.888	0	460.746	0	-1e10	1	-1e10	1	-1E+10	1	-1e10	1	-1e10	1	-1E+10	1	-1E+10	1	-1E+10	1
4902624	45	C	09/14/2025	13:35	-129.212	48.756	0	474.00	0	5.2844	0	34.0540	0	26.897	0	469.452	0	35.4	4	11.5	4	-1E+10	1	0.0581	4	0.000198	0	-1E+10	1	-1E+10	1	-1E+10	1
4902624	45	C	09/14/2025	13:35	-129.212	48.756	0	475.40	0	5.2790	0	34.0550	0	26.898	0	470.837	0	-1e10	1	-1e10	1	-1E+10	1	-1e10	1	-1e10	1	-1E+10	1	-1E+10	1	-1E+10	1
4902624	45	C	09/14/2025	13:35	-129.212	48.756	0	485.20	0	5.2510	0	34.0600	0	26.906	0	480.532	0	-1e10	1	-1e10	1	-1E+10	1	-1e10	1	-1e10	1	-1E+10	1	-1E+10	1	-1E+10	1
4902624	45	C	09/14/2025	13:35	-129.212	48.756	0	486.00	0	5.2494	0	34.0603	0	26.906	0	481.323	0	34.2	4	11.1	4	-1E+10	1	0.0514	4	0.000210	0	-1E+10	1	-1E+10	1	-1E+10	1
4902624	45	C	09/14/2025	13:35	-129.212	48.756	0	495.20	0	5.2310	0	34.0640	0	26.911	0	490.424	0	-1e10	1	-1e10	1	-1E+10	1	-1e10	1	-1e10	1	-1E+10	1	-1E+10	1	-1E+10	1
4902624	45	C	09/14/2025	13:35	-129.212	48.756	0	498.40	0	5.2222	0	34.0653	0	26.913	0	493.589	0	33.0	4	10.7	4	-1E+10	1	0.0581	4	0.000220	0	-1E+10	1	-1E+10	1	-1E+10	1
4902624	45	C	09/14/2025	13:35	-129.212	48.756	0	505.00	0	5.2040	0	34.0680	0	26.918	0	500.117	0	-1e10	1	-1e10	1	-1E+10	1	-1e10	1	-1e10	1	-1E+10	1	-1E+10	1	-1E+10	1
4902624	45	C	09/14/2025	13:35	-129.212	48.756	0	511.00	0	5.1854	0	34.0711	0	26.922	0	506.052	0	31.6	4	10.3	4	-1E+10	1	0.0511	4	0.000197	0	-1E+10	1	-1E+10	1	-1E+10	1
4902624	45	C	09/14/2025	13:35	-129.212	48.756	0	514.70	0	5.1740	0	34.0730	0	26.925	0	509.712	0	-1e10	1	-1e10	1	-1E+10	1	-1e10	1	-1e10	1	-1E+10	1	-1E+10	1	-1E+10	1
4902624	45	C	09/14/2025	13:35	-129.212	48.756	0	523.30	0	5.1445	0	34.0796	0	26.934	0	518.217	0	29.9	4	9.7	4	-1E+10	1	0.0508	4	0.000185	0	-1E+10	1	-1E+10	1	-1E+10	1
4902624	45	C	09/14/2025	13:35	-129.212	48.756	0	525.20	0	5.1380	0	34.0810	0	26.936	0	520.097	0	-1e10	1	-1e10	1	-1E+10	1	-1e10	1	-1e10	1	-1E+10	1	-1E+10	1	-1E+10	1
4902624	45	C	09/14/2025	13:35	-129.212	48.756	0	535.00	0	5.1070	0	34.0870	0	26.944	0	529.789	0	-1e10	1	-1e10	1	-1E+10	1	-1e10	1	-1e10	1	-1E+10	1	-1E+10	1	-1E+10	1
4902624	45	C	09/14/2025	13:35	-129.212	48.756	0	535.60	0	5.1050	0	34.0874	0	26.945	0	530.382	0	28.4	4	9.2	4	-1E+10	1	0.0441	4	0.000188	0	-1E+10	1	-1E+10	1	-1E+10	1
4902624	45	C	09/14/2025	13:35	-129.212	48.756	0	545.00	0	5.0740	0	34.0930	0	26.953	0	539.679	0	-1e10	1	-1e10	1	-1E+10	1	-1e10	1	-1e10	1	-1E+10	1	-1E+10	1	-1E+10	1
4902624	45	C	09/14/2025	13:35	-129.212	48.756	0	547.80	0	5.0646	0	34.0950	0	26.955	0	542.448	0	27.0	4	8.7	4	-1E+10	1	0.0520	4	0.000243	0	-1E+10	1	-1E+10	1	-1E+10	1
4902624	45	C	09/14/2025	13:35	-129.212	48.756	0	554.80	0	5.0410	0	34.1000	0	26.962	0	549.370	0	-1e10	1	-1e10	1	-1E+10	1	-1e10	1	-1e10	1	-1E+10	1	-1E+10	1	-1E+10	1
4902624	45	C	09/14/2025	13:35	-129.212	48.756	0	559.80	0	5.0253	0	34.1029	0	26.966	0	554.314	0	25.7	4	8.3	4	-1E+10	1	0.0727	4	0.000219	0	-1E+10	1	-1E+10	1	-1E+10	1
4902624	45	C	09/14/2025	13:35	-129.212	48.756	0	565.00	0	5.0090	0	34.1060	0	26.971	0	559.456	0	-1e10	1	-1e10	1	-1E+10	1	-1e10	1	-1e10	1	-1E+10	1	-1E+10	1	-1E+10	1
4902624	45	C	09/14/2025	13:35	-129.212	48.756	0	571.70	0	4.9804	0	34.1095	0	26.977	0	566.082	0	24.4	4	7.9	4	-1E+10	1	0.0651	4	0.000196	0	-1E+10	1	-1E+10	1	-1E+10	1
4902624	45	C	09/14/2025	13:35	-129.212	48.756	0	574.60	0	4.9680	0	34.1110	0	26.979	0	568.949	0	-1e10	1	-1e10	1	-1E+10	1	-1e10	1	-1e10	1	-1E+10	1	-1E+10	1	-1E+10	1
4902624	45	C	09/14/2025	13:35	-129.212	48.756	0	583.50	0	4.9451	0	34.1144	0	26.985	0	577.749	0	23.3	4	7.5	4	-1E+10	1	0.0508	4	0.000184	0	-1E+10	1	-1E+10	1	-1E+10	1
4902624	45	C	09/14/2025	13:35	-129.212	48.756	0	585.10	0	4.9410	0	34.1150	0	26.986	0	579.331	0	-1e10	1	-1e10	1	-1E+10	1	-1e10	1	-1e10	1	-1E+10	1	-1E+10	1	-1E+10	1
4902624	45	C	09/14/2025	13:35	-129.212	48.756	0	594.80	0	4.8993	0	34.1228	0	26.997	0	588.922	0	21.7	4	7.0	4	-1E+10	1	0.0446	4	0.000174	0	-1E+10	1	-1E+10	1	-1E+10	1
4902624	45	C	09/14/2025	13:35	-129.212	48.756	0	595.10	0	4.8980	0	34.1230	0	26.997	0	589.218	0	-1e10	1	-1e10	1	-1E+10	1	-1e10	1	-1e10	1	-1E+10	1	-1E+10	1	-1E+10	1
4902624	45	C	09/14/2025	13:35	-129.212	48.756	0	604.90	0	4.8490	0	34.1320	0	27.010	0	598.908	0	-1e10	1	-1e10	1	-1E+10	1	-1e10	1	-1e10	1	-1E+10	1	-1E+10	1	-1E+10	1
4902624	45	C	09/14/2025	13:35	-129.212	48.756	0	606.00	0	4.8439	0	34.1328	0	27.011	0	599.995	0	20.3	4	6.5	4	-1E+10	1	0.0654	4	0.000197	0	-1E+10	1	-1E+10	1	-1E+10	1
4902624	45	C	09/14/2025	13:35	-129.212	48.756	0	614.90	0	4.8030	0	34.1390	0	27.020	0	608.794	0	-1e10	1	-1e10	1	-1E+10	1	-1e10	1	-1e10	1	-1E+10	1	-1E+10	1	-1E+10	1
4902624	45	C	09/14/2025	13:35	-129.212	48.756	0	617.30	0	4.7912	0	34.1412	0	27.024	0	611.166	0	19.0	4	6.1	4	-1E+10	1	0.0581	4	0.000207	0	-1E+10	1	-1E+10	1	-1E+10	1
4902624	45	C	09/14/2025	13:35	-129.212	48.756	0	624.90	0	4.7540	0	34.1480	0	27.033	0	618.680	0	-1e10	1	-1e10	1	-1E+10	1	-1e10	1	-1e10	1	-1E+10	1	-1E+10	1	-1E+10	1
4902624	45	C	09/14/2025	13:35	-129.212	48.756	0	628.30	0	4.7382	0	34.1514	0	27.038	0	622.041	0	17.8	4	5.7	4	-1E+10	1	0.0511	4	0.000200	0	-1E+10	1	-1E+10	1	-1E+10	1
4902624	45	C	09/14/2025	13:35	-129.212	48.756	0	635.00	0	4.7070	0	34.1580	0	27.046	0	628.664	0	-1e10	1	-1e10	1	-1E+10	1	-1e10	1	-1e10	1	-1E+10	1	-1E+10	1	-1E+10	1
4902624	45	C	09/14/2025	13:35	-129.212	48.756	0	635.80	0	4.7039	0	34.1586	0	27.047	0	629.455	0	17.0	4	5.5	4	-1E+10	1	0.0514	4	0.000264	0	-1E+10	1	-1E+10	1	-1E+10	1
4902624	45	C	09/14/2025	13:35	-129.212	48.756	0	643.60	0	4.6738	0	34.1648	0	27.055	0	637.165	0	16.3	4	5.2	4	-1E+10	1	0.0584	4	0.000206	0	-1E+10	1	-1E+10	1	-1E+10	1
4902624	45	C	09/14/2025	13:35	-129.212	48.756	0	645.10	0	4.6680	0	34.1660	0	27.057	0	638.648	0	-1e10	1	-1e10	1	-1E+10	1	-1e10	1	-1e10	1	-1E+10	1	-1E+10	1	-1E+10	1
4902624	45	C	09/14/2025	13:35	-129.212	48.756	0	651.60	0	4.6401	0	34.1720	0	27.065	0	645.073	0	15.5	4	5.0	4	-1E+10	1	0.0587	4	0.000176	0	-1E+10	1	-1E+10	1	-1E+10	1
4902624	45	C	09/14/2025	13:35	-129.212	48.756	0	654.90	0	4.6260	0	34.1750	0	27.069	0	648.334	0	-1e10	1	-1e10	1	-1E+10	1	-1e10	1	-1e10	1	-1E+10	1	-1E+10	1	-1E+10	1
4902624	45	C	09/14/2025	13:35	-129.212	48.756	0	660.00	0	4.6047	0	34.1792	0	27.075	0	653.375	0	14.7	4	4.7	4	-1E+10	1	0.0654	4	0.000263	0	-1E+10	1	-1E+10	1	-1E+10	1
4902624	45	C	09/14/2025	13:35	-129.212	48.756	0	664.70	0	4.5850	0	34.1830	0	27.080	0	658.021	0	-1e10	1	-1e10	1	-1E+10	1	-1e10	1	-1e10	1	-1E+10	1	-1E+10	1	-1E+10	1
4902624	45	C	09/14/2025	13:35	-129.212	48.756	0	668.80	0	4.5688	0	34.1858	0	27.084	0	662.073	0	14.2	4	4.6	4	-1E+10	1	0.0578	4	0.000174	0	-1E+10	1	-1E+10	1	-1E+10	1
4902624	45	C	09/14/2025	13:35	-129.212	48.756	0	674.80	0	4.5450	0	34.1900	0	27.090	0	668.003	0	-1e10	1	-1e10	1	-1E+10	1	-1e10	1	-1e10	1	-1E+10	1	-1E+10	1	-1E+10	1
4902624	45	C	09/14/2025	13:35	-129.212	48.756	0	678.00	0	4.5389	0	34.1913	0	27.091	0	671.166	0	13.8	4	4.4	4	-1E+10	1	0.0443	4	0.000206	0	-1E+10	1	-1E+10	1	-1E+10	1
4902624	45	C	09/14/2025	13:35	-129.212	48.756	0	684.80	0	4.5260	0	34.1940	0	27.095	0	677.886	0	-1e10	1	-1e10	1	-1E+10	1	-1e10	1	-1e10	1	-1E+10	1	-1E+10	1	-1E+10	1
4902624	45	C	09/14/2025	13:35	-129.212	48.756	0	687.70	0	4.5197	0	34.1957	0	27.097	0	680.752	0	13.2	4	4.2	4	-1E+10	1	0.0581	4	0.000184	0	-1E+10	1	-1E+10	1	-1E+10	1
4902624	45	C	09/14/2025	13:35	-129.212	48.756	0	694.90	0	4.5040	0	34.2000	0	27.102	0	687.867	0	-1e10	1	-1e10	1	-1E+10	1	-1e10	1	-1e10	1	-1E+10	1	-1E+10	1	-1E+10	1
4902624	45	C	09/14/2025	13:35	-129.212	48.756	0	698.10	0	4.4982	0	34.2016	0	27.104	0	691.030	0	12.7	4	4.1	4	-1E+10	1	0.0514	4	0.000195	0	-1E+10	1	-1E+10	1	-1E+10	1
4902624	45	C	09/14/2025	13:35	-129.212	48.756	0	704.90	0	4.4860	0	34.2050	0	27.108	0	697.750	0	-1e10	1	-1e10	1	-1E+10	1	-1e10	1	-1e10	1	-1E+10	1	-1E+10	1	-1E+10	1
4902624	45	C	09/14/2025	13:35	-129.212	48.756	0	709.20	0	4.4704	0	34.2092	0	27.113	0	701.999	0	12.0	4	3.8	4	-1E+10	1	0.0580	4	0.000184	0	-1E+10	1	-1E+10	1	-1E+10	1
4902624	45	C	09/14/2025	13:35	-129.212	48.756	0	715.10	0	4.4490	0	34.2150	0	27.120	0	707.829	0	-1e10	1	-1e10	1	-1E+10	1	-1e10	1	-1e10	1	-1E+10	1	-1E+10	1	-1E+10	1
4902624	45	C	09/14/2025	13:35	-129.212	48.756	0	718.80	0	4.4413	0	34.2172	0	27.123	0	711.485	0	11.5	4	3.7	4	-1E+10	1	0.0511	4	0.000196	0	-1E+10	1	-1E+10	1	-1E+10	1
4902624	45	C	09/14/2025	13:35	-129.212	48.756	0	725.20	0	4.4280	0	34.2210	0	27.127	0	717.809	0	-1e10	1	-1e10	1	-1E+10	1	-1e10	1	-1e10	1	-1E+10	1	-1E+10	1	-1E+10	1
4902624	45	C	09/14/2025	13:35	-129.212	48.756	0	726.50	0	4.4257	0	34.2214	0	27.128	0	719.093	0	11.3	4	3.6	4	-1E+10	1	0.0514	4	0.000217	0	-1E+10	1	-1E+10	1	-1E+10	1
4902624	45	C	09/14/2025	13:35	-129.212	48.756	0	734.80	0	4.4113	0	34.2239	0	27.132	0	727.294	0	11.0	4	3.5	4	-1E+10	1	0.0584	4	0.000196	0	-1E+10	1	-1E+10	1	-1E+10	1
4902624	45	C	09/14/2025	13:35	-129.212	48.756	0	735.00	0	4.4110	0	34.2240	0	27.132	0	727.492	0	-1e10	1	-1e10	1	-1E+10	1	-1e10	1	-1e10	1	-1E+10	1	-1E+10	1	-1E+10	1
4902624	45	C	09/14/2025	13:35	-129.212	48.756	0	743.60	0	4.3923	0	34.2291	0	27.138	0	735.989	0	10.7	4	3.4	4	-1E+10	1	0.0582	4	0.000218	0	-1E+10	1	-1E+10	1	-1E+10	1
4902624	45	C	09/14/2025	13:35	-129.212	48.756	0	745.10	0	4.3890	0	34.2300	0	27.139	0	737.471	0	-1e10	1	-1e10	1	-1E+10	1	-1e10	1	-1e10	1	-1E+10	1	-1E+10	1	-1E+10	1
4902624	45	C	09/14/2025	13:35	-129.212	48.756	0	752.80	0	4.3590	0	34.2362	0	27.147	0	745.078	0	10.3	4	3.3	4	-1E+10	1	0.0508	4	0.000205	0	-1E+10	1	-1E+10	1	-1E+10	1
4902624	45	C	09/14/2025	13:35	-129.212	48.756	0	755.10	0	4.3500	0	34.2380	0	27.149	0	747.350	0	-1e10	1	-1e10	1	-1E+10	1	-1e10	1	-1e10	1	-1E+10	1	-1E+10	1	-1E+10	1
4902624	45	C	09/14/2025	13:35	-129.212	48.756	0	762.30	0	4.3213	0	34.2424	0	27.156	0	754.463	0	10.1	4	3.2	4	-1E+10	1	0.0444	4	0.000183	0	-1E+10	1	-1E+10	1	-1E+10	1
4902624	45	C	09/14/2025	13:35	-129.212	48.756	0	764.90	0	4.3110	0	34.2440	0	27.158	0	757.032	0	-1e10	1	-1e10	1	-1E+10	1	-1e10	1	-1e10	1	-1E+10	1	-1E+10	1	-1E+10	1
4902624	45	C	09/14/2025	13:35	-129.212	48.756	0	772.10	0	4.2914	0	34.2476	0	27.163	0	764.145	0	9.9	4	3.1	4	-1E+10	1	0.0581	4	0.000201	0	-1E+10	1	-1E+10	1	-1E+10	1
4902624	45	C	09/14/2025	13:35	-129.212	48.756	0	774.80	0	4.2840	0	34.2490	0	27.165	0	766.812	0	-1e10	1	-1e10	1	-1E+10	1	-1e10	1	-1e10	1	-1E+10	1	-1E+10	1	-1E+10	1
4902624	45	C	09/14/2025	13:35	-129.212	48.756	0	781.80	0	4.2749	0	34.2511	0	27.168	0	773.727	0	9.7	4	3.1	4	-1E+10	1	0.0514	4	0.000351	0	-1E+10	1	-1E+10	1	-1E+10	1
4902624	45	C	09/14/2025	13:35	-129.212	48.756	0	784.80	0	4.2710	0	34.2520	0	27.169	0	776.690	0	-1e10	1	-1e10	1	-1E+10	1	-1e10	1	-1e10	1	-1E+10	1	-1E+10	1	-1E+10	1
4902624	45	C	09/14/2025	13:35	-129.212	48.756	0	791.60	0	4.2495	0	34.2581	0	27.176	0	783.407	0	9.3	4	3.0	4	-1E+10	1	0.0587	4	0.000170	0	-1E+10	1	-1E+10	1	-1E+10	1
4902624	45	C	09/14/2025	13:35	-129.212	48.756	0	794.90	0	4.2390	0	34.2610	0	27.180	0	786.667	0	-1e10	1	-1e10	1	-1E+10	1	-1e10	1	-1e10	1	-1E+10	1	-1E+10	1	-1E+10	1
4902624	45	C	09/14/2025	13:35	-129.212	48.756	0	801.10	0	4.2240	0	34.2640	0	27.184	0	792.791	0	9.1	4	2.9	4	-1E+10	1	0.0657	4	0.000160	0	-1E+10	1	-1E+10	1	-1E+10	1
4902624	45	C	09/14/2025	13:35	-129.212	48.756	0	805.20	0	4.2140	0	34.2660	0	27.186	0	796.841	0	-1e10	1	-1e10	1	-1E+10	1	-1e10	1	-1e10	1	-1E+10	1	-1E+10	1	-1E+10	1
4902624	45	C	09/14/2025	13:35	-129.212	48.756	0	810.60	0	4.1944	0	34.2704	0	27.192	0	802.174	0	8.8	4	2.8	4	-1E+10	1	0.0654	4	0.000181	0	-1E+10	1	-1E+10	1	-1E+10	1
4902624	45	C	09/14/2025	13:35	-129.212	48.756	0	815.10	0	4.1780	0	34.2740	0	27.197	0	806.619	0	-1e10	1	-1e10	1	-1E+10	1	-1e10	1	-1e10	1	-1E+10	1	-1E+10	1	-1E+10	1
4902624	45	C	09/14/2025	13:35	-129.212	48.756	0	819.80	0	4.1651	0	34.2778	0	27.201	0	811.261	0	8.4	4	2.7	4	-1E+10	1	0.0582	4	0.000161	0	-1E+10	1	-1E+10	1	-1E+10	1
4902624	45	C	09/14/2025	13:35	-129.212	48.756	0	824.90	0	4.1510	0	34.2820	0	27.206	0	816.298	0	-1e10	1	-1e10	1	-1E+10	1	-1e10	1	-1e10	1	-1E+10	1	-1E+10	1	-1E+10	1
4902624	45	C	09/14/2025	13:35	-129.212	48.756	0	829.00	0	4.1335	0	34.2869	0	27.212	0	820.347	0	8.2	4	2.6	4	-1E+10	1	0.0517	4	0.000231	0	-1E+10	1	-1E+10	1	-1E+10	1
4902624	45	C	09/14/2025	13:35	-129.212	48.756	0	835.00	0	4.1080	0	34.2940	0	27.220	0	826.272	0	-1e10	1	-1e10	1	-1E+10	1	-1e10	1	-1e10	1	-1E+10	1	-1E+10	1	-1E+10	1
4902624	45	C	09/14/2025	13:35	-129.212	48.756	0	838.30	0	4.1010	0	34.2960	0	27.222	0	829.531	0	8.0	4	2.5	4	-1E+10	1	0.0654	4	0.000272	0	-1E+10	1	-1E+10	1	-1E+10	1
4902624	45	C	09/14/2025	13:35	-129.212	48.756	0	844.90	0	4.0870	0	34.3000	0	27.227	0	836.049	0	-1e10	1	-1e10	1	-1E+10	1	-1e10	1	-1e10	1	-1E+10	1	-1E+10	1	-1E+10	1
4902624	45	C	09/14/2025	13:35	-129.212	48.756	0	847.80	0	4.0799	0	34.3017	0	27.229	0	838.913	0	7.9	4	2.5	4	-1E+10	1	0.0587	4	0.000181	0	-1E+10	1	-1E+10	1	-1E+10	1
4902624	45	C	09/14/2025	13:35	-129.212	48.756	0	855.10	0	4.0620	0	34.3060	0	27.234	0	846.122	0	-1e10	1	-1e10	1	-1E+10	1	-1e10	1	-1e10	1	-1E+10	1	-1E+10	1	-1E+10	1
4902624	45	C	09/14/2025	13:35	-129.212	48.756	0	857.30	0	4.0568	0	34.3073	0	27.236	0	848.294	0	7.7	4	2.4	4	-1E+10	1	0.0651	4	0.000158	0	-1E+10	1	-1E+10	1	-1E+10	1
4902624	45	C	09/14/2025	13:35	-129.212	48.756	0	865.20	0	4.0380	0	34.3120	0	27.242	0	856.095	0	-1e10	1	-1e10	1	-1E+10	1	-1e10	1	-1e10	1	-1E+10	1	-1E+10	1	-1E+10	1
4902624	45	C	09/14/2025	13:35	-129.212	48.756	0	866.90	0	4.0312	0	34.3132	0	27.243	0	857.774	0	7.7	4	2.4	4	-1E+10	1	0.0511	4	0.000158	0	-1E+10	1	-1E+10	1	-1E+10	1
4902624	45	C	09/14/2025	13:35	-129.212	48.756	0	875.20	0	3.9980	0	34.3190	0	27.251	0	865.969	0	-1e10	1	-1e10	1	-1E+10	1	-1e10	1	-1e10	1	-1E+10	1	-1E+10	1	-1E+10	1
4902624	45	C	09/14/2025	13:35	-129.212	48.756	0	876.80	0	3.9936	0	34.3198	0	27.253	0	867.549	0	7.6	4	2.4	4	-1E+10	1	0.0511	4	0.000169	0	-1E+10	1	-1E+10	1	-1E+10	1
4902624	45	C	09/14/2025	13:35	-129.212	48.756	0	885.10	0	3.9710	0	34.3240	0	27.258	0	875.744	0	-1e10	1	-1e10	1	-1E+10	1	-1e10	1	-1e10	1	-1E+10	1	-1E+10	1	-1E+10	1
4902624	45	C	09/14/2025	13:35	-129.212	48.756	0	886.80	0	3.9657	0	34.3250	0	27.260	0	877.422	0	7.6	4	2.4	4	-1E+10	1	0.0511	4	0.000147	0	-1E+10	1	-1E+10	1	-1E+10	1
4902624	45	C	09/14/2025	13:35	-129.212	48.756	0	895.00	0	3.9400	0	34.3300	0	27.266	0	885.518	0	-1e10	1	-1e10	1	-1E+10	1	-1e10	1	-1e10	1	-1E+10	1	-1E+10	1	-1E+10	1
4902624	45	C	09/14/2025	13:35	-129.212	48.756	0	897.00	0	3.9320	0	34.3314	0	27.268	0	887.493	0	7.5	4	2.4	4	-1E+10	1	0.0508	4	0.000181	0	-1E+10	1	-1E+10	1	-1E+10	1
4902624	45	C	09/14/2025	13:35	-129.212	48.756	0	905.00	0	3.9000	0	34.3370	0	27.276	0	895.391	0	-1e10	1	-1e10	1	-1E+10	1	-1e10	1	-1e10	1	-1E+10	1	-1E+10	1	-1E+10	1
4902624	45	C	09/14/2025	13:35	-129.212	48.756	0	907.60	0	3.8940	0	34.3378	0	27.277	0	897.958	0	7.6	4	2.4	4	-1E+10	1	0.0443	4	0.000181	0	-1E+10	1	-1E+10	1	-1E+10	1
4902624	45	C	09/14/2025	13:35	-129.212	48.756	0	915.00	0	3.8770	0	34.3400	0	27.281	0	905.263	0	-1e10	1	-1e10	1	-1E+10	1	-1e10	1	-1e10	1	-1E+10	1	-1E+10	1	-1E+10	1
4902624	45	C	09/14/2025	13:35	-129.212	48.756	0	918.40	0	3.8650	0	34.3410	0	27.283	0	908.620	0	7.6	4	2.4	4	-1E+10	1	0.0584	4	0.000193	0	-1E+10	1	-1E+10	1	-1E+10	1
4902624	45	C	09/14/2025	13:35	-129.212	48.756	0	924.90	0	3.8420	0	34.3430	0	27.287	0	915.036	0	-1e10	1	-1e10	1	-1E+10	1	-1e10	1	-1e10	1	-1E+10	1	-1E+10	1	-1E+10	1
4902624	45	C	09/14/2025	13:35	-129.212	48.756	0	929.50	0	3.8247	0	34.3444	0	27.289	0	919.577	0	7.7	4	2.4	4	-1E+10	1	0.0587	4	0.000214	0	-1E+10	1	-1E+10	1	-1E+10	1
4902624	45	C	09/14/2025	13:35	-129.212	48.756	0	935.00	0	3.8040	0	34.3460	0	27.293	0	925.006	0	-1e10	1	-1e10	1	-1E+10	1	-1e10	1	-1e10	1	-1E+10	1	-1E+10	1	-1E+10	1
4902624	45	C	09/14/2025	13:35	-129.212	48.756	0	940.80	0	3.7907	0	34.3466	0	27.295	0	930.731	0	7.8	4	2.5	4	-1E+10	1	0.0657	4	0.000169	0	-1E+10	1	-1E+10	1	-1E+10	1
4902624	45	C	09/14/2025	13:35	-129.212	48.756	0	945.00	0	3.7810	0	34.3470	0	27.296	0	934.877	0	-1e10	1	-1e10	1	-1E+10	1	-1e10	1	-1e10	1	-1E+10	1	-1E+10	1	-1E+10	1
4902624	45	C	09/14/2025	13:35	-129.212	48.756	0	952.30	0	3.7668	0	34.3484	0	27.299	0	942.082	0	7.9	4	2.5	4	-1E+10	1	0.0657	4	0.000168	0	-1E+10	1	-1E+10	1	-1E+10	1
4902624	45	C	09/14/2025	13:35	-129.212	48.756	0	955.30	0	3.7610	0	34.3490	0	27.300	0	945.043	0	-1e10	1	-1e10	1	-1E+10	1	-1e10	1	-1e10	1	-1E+10	1	-1E+10	1	-1E+10	1
4902624	45	C	09/14/2025	13:35	-129.212	48.756	0	964.10	0	3.7493	0	34.3526	0	27.304	0	953.729	0	7.9	4	2.5	4	-1E+10	1	0.0651	4	0.000157	0	-1E+10	1	-1E+10	1	-1E+10	1
4902624	45	C	09/14/2025	13:35	-129.212	48.756	0	965.10	0	3.7480	0	34.3530	0	27.304	0	954.716	0	-1e10	1	-1e10	1	-1E+10	1	-1e10	1	-1e10	1	-1E+10	1	-1E+10	1	-1E+10	1
4902624	45	C	09/14/2025	13:35	-129.212	48.756	0	975.20	0	3.7250	0	34.3580	0	27.311	0	964.684	0	-1e10	1	-1e10	1	-1E+10	1	-1e10	1	-1e10	1	-1E+10	1	-1E+10	1	-1E+10	1
4902624	45	C	09/14/2025	13:35	-129.212	48.756	0	975.60	0	3.7231	0	34.3580	0	27.311	0	965.079	0	8.1	4	2.5	4	-1E+10	1	0.0514	4	0.000156	0	-1E+10	1	-1E+10	1	-1E+10	1
4902624	45	C	09/14/2025	13:35	-129.212	48.756	0	983.50	0	3.6860	0	34.3580	0	27.314	0	972.875	0	8.3	4	2.6	4	-1E+10	1	0.0581	4	0.000144	0	-1E+10	1	-1E+10	1	-1E+10	1
4902624	45	C	09/14/2025	13:35	-129.212	48.756	0	985.20	0	3.6780	0	34.3580	0	27.315	0	974.553	0	-1e10	1	-1e10	1	-1E+10	1	-1e10	1	-1e10	1	-1E+10	1	-1E+10	1	-1E+10	1
4902624	45	C	09/14/2025	13:35	-129.212	48.756	0	991.60	0	3.6534	0	34.3567	0	27.317	0	980.869	0	8.5	4	2.7	4	-1E+10	1	0.0511	4	0.000135	0	-1E+10	1	-1E+10	1	-1E+10	1
4902624	45	C	09/14/2025	13:35	-129.212	48.756	0	995.10	0	3.6400	0	34.3560	0	27.317	0	984.323	0	-1e10	1	-1e10	1	-1E+10	1	-1e10	1	-1e10	1	-1E+10	1	-1E+10	1	-1E+10	1
4902624	45	C	09/14/2025	13:35	-129.212	48.756	0	1002.30	0	3.6041	0	34.3558	0	27.321	0	991.428	0	8.6	4	2.7	4	-1E+10	1	0.0509	4	0.000190	0	-1E+10	1	-1E+10	1	-1E+10	1
4902624	45	C	09/14/2025	13:35	-129.212	48.756	0	1019.70	0	3.5174	0	34.3552	0	27.329	0	1008.597	0	9.2	4	2.9	4	-1E+10	1	0.0439	4	0.000121	0	-1E+10	1	-1E+10	1	-1E+10	1
4902624	45	C	09/14/2025	13:35	-129.212	48.756	0	1024.60	0	3.4930	0	34.3550	0	27.331	0	1013.432	0	-1e10	1	-1e10	1	-1E+10	1	-1e10	1	-1e10	1	-1E+10	1	-1E+10	1	-1E+10	1
4902624	45	C	09/14/2025	13:35	-129.212	48.756	0	1037.90	0	3.4427	0	34.3582	0	27.338	0	1026.554	0	9.6	4	3.0	4	-1E+10	1	0.0514	4	0.000144	0	-1E+10	1	-1E+10	1	-1E+10	1
4902624	45	C	09/14/2025	13:35	-129.212	48.756	0	1056.10	0	3.3739	0	34.3625	0	27.348	0	1044.510	0	10.0	4	3.1	4	-1E+10	1	0.0657	4	0.000155	0	-1E+10	1	-1E+10	1	-1E+10	1
4902624	45	C	09/14/2025	13:35	-129.212	48.756	0	1074.60	0	3.3039	0	34.3669	0	27.359	0	1062.760	0	10.0	4	3.1	4	-1E+10	1	0.0654	4	0.000122	0	-1E+10	1	-1E+10	1	-1E+10	1
4902624	45	C	09/14/2025	13:35	-129.212	48.756	0	1075.10	0	3.3020	0	34.3670	0	27.359	0	1063.253	0	-1e10	1	-1e10	1	-1E+10	1	-1e10	1	-1e10	1	-1E+10	1	-1E+10	1	-1E+10	1
4902624	45	C	09/14/2025	13:35	-129.212	48.756	0	1092.50	0	3.2968	0	34.3778	0	27.368	0	1080.417	0	57.4	4	17.8	4	-1E+10	1	0.0516	4	0.000189	0	-1E+10	1	-1E+10	1	-1E+10	1
4902624	45	C	09/14/2025	13:35	-129.212	48.756	0	1111.30	0	3.2911	0	34.3895	0	27.378	0	1098.960	0	109.1	4	33.9	4	-1E+10	1	0.0794	4	0.000131	0	-1E+10	1	-1E+10	1	-1E+10	1
4902624	45	C	09/14/2025	13:35	-129.212	48.756	0	1125.00	0	3.2870	0	34.3980	0	27.385	0	1112.471	0	-1e10	1	-1e10	1	-1E+10	1	-1e10	1	-1e10	1	-1E+10	1	-1E+10	1	-1E+10	1
4902624	45	C	09/14/2025	13:35	-129.212	48.756	0	1130.30	0	3.2724	0	34.4006	0	27.389	0	1117.698	0	106.0	4	32.9	4	-1E+10	1	0.0370	4	0.000119	0	-1E+10	1	-1E+10	1	-1E+10	1
4902624	45	C	09/14/2025	13:35	-129.212	48.756	0	1149.50	0	3.2195	0	34.4102	0	27.402	0	1136.632	0	92.9	4	28.8	4	-1E+10	1	0.0583	4	0.000120	0	-1E+10	1	-1E+10	1	-1E+10	1
4902624	45	C	09/14/2025	13:35	-129.212	48.756	0	1169.50	0	3.1644	0	34.4202	0	27.415	0	1156.353	0	91.6	4	28.4	4	-1E+10	1	0.0512	4	0.000154	0	-1E+10	1	-1E+10	1	-1E+10	1
4902624	45	C	09/14/2025	13:35	-129.212	48.756	0	1175.10	0	3.1490	0	34.4230	0	27.418	0	1161.875	0	-1e10	1	-1e10	1	-1E+10	1	-1e10	1	-1e10	1	-1E+10	1	-1E+10	1	-1E+10	1
4902624	45	C	09/14/2025	13:35	-129.212	48.756	0	1190.40	0	3.1194	0	34.4279	0	27.425	0	1176.960	0	94.6	4	29.3	4	-1E+10	1	0.0584	4	0.000165	0	-1E+10	1	-1E+10	1	-1E+10	1
4902624	45	C	09/14/2025	13:35	-129.212	48.756	0	1212.80	0	3.0760	0	34.4350	0	27.435	0	1199.043	0	90.0	4	27.8	4	-1E+10	1	0.0582	4	0.000130	0	-1E+10	1	-1E+10	1	-1E+10	1
4902624	45	C	09/14/2025	13:35	-129.212	48.756	0	1225.20	0	3.0520	0	34.4390	0	27.440	0	1211.267	0	-1e10	1	-1e10	1	-1E+10	1	-1e10	1	-1e10	1	-1E+10	1	-1E+10	1	-1E+10	1
4902624	45	C	09/14/2025	13:35	-129.212	48.756	0	1235.10	0	3.0362	0	34.4412	0	27.444	0	1221.026	0	119.3	4	36.9	4	-1E+10	1	0.0512	4	0.000129	0	-1E+10	1	-1E+10	1	-1E+10	1
4902624	45	C	09/14/2025	13:35	-129.212	48.756	0	1255.70	0	3.0032	0	34.4457	0	27.450	0	1241.330	0	122.4	4	37.8	4	-1E+10	1	0.0584	4	0.000117	0	-1E+10	1	-1E+10	1	-1E+10	1
4902624	45	C	09/14/2025	13:35	-129.212	48.756	0	1271.40	0	2.9781	0	34.4492	0	27.455	0	1256.804	0	112.4	4	34.7	4	-1E+10	1	0.0584	4	0.000106	0	-1E+10	1	-1E+10	1	-1E+10	1
4902624	45	C	09/14/2025	13:35	-129.212	48.756	0	1275.20	0	2.9720	0	34.4500	0	27.457	0	1260.549	0	-1e10	1	-1e10	1	-1E+10	1	-1e10	1	-1e10	1	-1E+10	1	-1E+10	1	-1E+10	1
4902624	45	C	09/14/2025	13:35	-129.212	48.756	0	1288.80	0	2.9491	0	34.4533	0	27.461	0	1273.951	0	99.8	4	30.8	4	-1E+10	1	0.0584	4	0.000106	0	-1E+10	1	-1E+10	1	-1E+10	1
4902624	45	C	09/14/2025	13:35	-129.212	48.756	0	1307.40	0	2.9179	0	34.4578	0	27.468	0	1292.280	0	113.5	4	35.0	4	-1E+10	1	0.0585	4	0.000128	0	-1E+10	1	-1E+10	1	-1E+10	1
4902624	45	C	09/14/2025	13:35	-129.212	48.756	0	1324.60	0	2.8890	0	34.4620	0	27.474	0	1309.228	0	-1e10	1	-1e10	1	-1E+10	1	-1e10	1	-1e10	1	-1E+10	1	-1E+10	1	-1E+10	1
4902624	45	C	09/14/2025	13:35	-129.212	48.756	0	1327.10	0	2.8834	0	34.4625	0	27.475	0	1311.691	0	116.0	4	35.7	4	-1E+10	1	0.0656	4	0.000106	0	-1E+10	1	-1E+10	1	-1E+10	1
4902624	45	C	09/14/2025	13:35	-129.212	48.756	0	1347.90	0	2.8366	0	34.4666	0	27.482	0	1332.184	0	68.1	4	20.9	4	-1E+10	1	0.0583	4	0.000151	0	-1E+10	1	-1E+10	1	-1E+10	1
4902624	45	C	09/14/2025	13:35	-129.212	48.756	0	1369.50	0	2.7879	0	34.4709	0	27.490	0	1353.462	0	56.4	4	17.3	4	-1E+10	1	0.0514	4	0.000139	0	-1E+10	1	-1E+10	1	-1E+10	1
4902624	45	C	09/14/2025	13:35	-129.212	48.756	0	1374.80	0	2.7760	0	34.4720	0	27.492	0	1358.683	0	-1e10	1	-1e10	1	-1E+10	1	-1e10	1	-1e10	1	-1E+10	1	-1E+10	1	-1E+10	1
4902624	45	C	09/14/2025	13:35	-129.212	48.756	0	1391.70	0	2.7392	0	34.4744	0	27.497	0	1375.330	0	81.7	4	25.1	4	-1E+10	1	0.0654	4	0.000104	0	-1E+10	1	-1E+10	1	-1E+10	1
4902624	45	C	09/14/2025	13:35	-129.212	48.756	0	1414.30	0	2.6901	0	34.4775	0	27.504	0	1397.589	0	58.0	4	17.8	4	-1E+10	1	0.0511	4	0.000174	0	-1E+10	1	-1E+10	1	-1E+10	1
4902624	45	C	09/14/2025	13:35	-129.212	48.756	0	1424.90	0	2.6670	0	34.4790	0	27.507	0	1408.029	0	-1e10	1	-1e10	1	-1E+10	1	-1e10	1	-1e10	1	-1E+10	1	-1E+10	1	-1E+10	1
4902624	45	C	09/14/2025	13:35	-129.212	48.756	0	1436.80	0	2.6491	0	34.4828	0	27.512	0	1419.748	0	96.7	8	29.6	8	-1E+10	1	0.0509	4	0.002682	0	-1E+10	1	-1E+10	1	-1E+10	1
4902624	45	C	09/14/2025	13:35	-129.212	48.756	0	1458.50	0	2.6165	0	34.4896	0	27.520	0	1441.116	0	70.4	8	21.5	8	-1E+10	1	0.0439	4	0.000103	0	-1E+10	1	-1E+10	1	-1E+10	1
4902624	45	C	09/14/2025	13:35	-129.212	48.756	0	1475.50	0	2.5910	0	34.4950	0	27.527	0	1457.855	0	-1e10	1	-1e10	1	-1E+10	1	-1e10	1	-1e10	1	-1E+10	1	-1E+10	1	-1E+10	1
4902624	45	C	09/14/2025	13:35	-129.212	48.756	0	1480.60	0	2.5833	0	34.4961	0	27.529	0	1462.876	0	115.2	8	35.2	8	-1E+10	1	0.0511	4	0.000126	0	-1E+10	1	-1E+10	1	-1E+10	1
4902624	45	C	09/14/2025	13:35	-129.212	48.756	0	1501.30	0	2.5521	0	34.5008	0	27.535	0	1483.256	0	70.5	4	21.6	4	-1E+10	1	0.0511	4	0.000114	0	-1E+10	1	-1E+10	1	-1E+10	1
4902624	45	C	09/14/2025	13:35	-129.212	48.756	0	1517.80	0	2.5272	0	34.5045	0	27.540	0	1499.499	0	56.6	4	17.3	4	-1E+10	1	0.0513	4	0.000137	0	-1E+10	1	-1E+10	1	-1E+10	1
4902624	45	C	09/14/2025	13:35	-129.212	48.756	0	1524.60	0	2.5170	0	34.5060	0	27.542	0	1506.193	0	-1e10	1	-1e10	1	-1E+10	1	-1e10	1	-1e10	1	-1E+10	1	-1E+10	1	-1E+10	1
4902624	45	C	09/14/2025	13:35	-129.212	48.756	0	1535.20	0	2.4978	0	34.5081	0	27.546	0	1516.627	0	59.3	4	18.1	4	-1E+10	1	0.0581	4	0.000137	0	-1E+10	1	-1E+10	1	-1E+10	1
4902624	45	C	09/14/2025	13:35	-129.212	48.756	0	1553.80	0	2.4641	0	34.5118	0	27.552	0	1534.935	0	72.8	4	22.2	4	-1E+10	1	0.0438	4	0.000148	0	-1E+10	1	-1E+10	1	-1E+10	1
4902624	45	C	09/14/2025	13:35	-129.212	48.756	0	1573.60	0	2.4282	0	34.5158	0	27.558	0	1554.422	0	76.8	4	23.4	4	-1E+10	1	0.0438	4	0.000126	0	-1E+10	1	-1E+10	1	-1E+10	1
4902624	45	C	09/14/2025	13:35	-129.212	48.756	0	1574.80	0	2.4260	0	34.5160	0	27.558	0	1555.603	0	-1e10	1	-1e10	1	-1E+10	1	-1e10	1	-1e10	1	-1E+10	1	-1E+10	1	-1E+10	1
4902624	45	C	09/14/2025	13:35	-129.212	48.756	0	1594.40	0	2.3976	0	34.5203	0	27.564	0	1574.891	0	82.4	4	25.1	4	-1E+10	1	0.0437	4	0.000193	0	-1E+10	1	-1E+10	1	-1E+10	1
4902624	45	C	09/14/2025	13:35	-129.212	48.756	0	1616.10	0	2.3661	0	34.5250	0	27.571	0	1596.243	0	79.8	4	24.3	4	-1E+10	1	0.0369	4	0.000112	0	-1E+10	1	-1E+10	1	-1E+10	1
4902624	45	C	09/14/2025	13:35	-129.212	48.756	0	1625.10	0	2.3530	0	34.5270	0	27.573	0	1605.099	0	-1e10	1	-1e10	1	-1E+10	1	-1e10	1	-1e10	1	-1E+10	1	-1E+10	1	-1E+10	1
4902624	45	C	09/14/2025	13:35	-129.212	48.756	0	1638.30	0	2.3357	0	34.5301	0	27.577	0	1618.086	0	97.7	4	29.7	4	-1E+10	1	0.0578	4	0.000111	0	-1E+10	1	-1E+10	1	-1E+10	1
4902624	45	C	09/14/2025	13:35	-129.212	48.756	0	1657.70	0	2.3104	0	34.5347	0	27.583	0	1637.172	0	114.2	4	34.7	4	-1E+10	1	0.0366	4	0.000100	0	-1E+10	1	-1E+10	1	-1E+10	1
4902624	45	C	09/14/2025	13:35	-129.212	48.756	0	1673.80	0	2.2894	0	34.5386	0	27.588	0	1653.010	0	103.6	4	31.4	4	-1E+10	1	0.0440	4	0.000146	0	-1E+10	1	-1E+10	1	-1E+10	1
4902624	45	C	09/14/2025	13:35	-129.212	48.756	0	1675.60	0	2.2870	0	34.5390	0	27.588	0	1654.780	0	-1e10	1	-1e10	1	-1E+10	1	-1e10	1	-1e10	1	-1E+10	1	-1E+10	1	-1E+10	1
4902624	45	C	09/14/2025	13:35	-129.212	48.756	0	1690.30	0	2.2714	0	34.5417	0	27.592	0	1669.240	0	106.6	4	32.4	4	-1E+10	1	0.0514	4	0.000594	0	-1E+10	1	-1E+10	1	-1E+10	1
4902624	45	C	09/14/2025	13:35	-129.212	48.756	0	1707.10	0	2.2535	0	34.5448	0	27.596	0	1685.764	0	114.9	4	34.8	4	-1E+10	1	0.0655	4	0.000099	0	-1E+10	1	-1E+10	1	-1E+10	1
4902624	45	C	09/14/2025	13:35	-129.212	48.756	0	1724.50	0	2.2350	0	34.5480	0	27.600	0	1702.876	0	-1e10	1	-1e10	1	-1E+10	1	-1e10	1	-1e10	1	-1E+10	1	-1E+10	1	-1E+10	1
4902624	45	C	09/14/2025	13:35	-129.212	48.756	0	1724.60	0	2.2349	0	34.5480	0	27.600	0	1702.975	0	118.8	4	36.0	4	-1E+10	1	0.0584	4	0.000110	0	-1E+10	1	-1E+10	1	-1E+10	1
4902624	45	C	09/14/2025	13:35	-129.212	48.756	0	1743.10	0	2.2150	0	34.5517	0	27.605	0	1721.168	0	70.8	4	21.5	4	-1E+10	1	0.0582	4	0.000110	0	-1E+10	1	-1E+10	1	-1E+10	1
4902624	45	C	09/14/2025	13:35	-129.212	48.756	0	1762.50	0	2.1942	0	34.5556	0	27.610	0	1740.244	0	88.9	4	26.9	4	-1E+10	1	0.0511	4	0.000132	0	-1E+10	1	-1E+10	1	-1E+10	1
4902624	45	C	09/14/2025	13:35	-129.212	48.756	0	1774.80	0	2.1810	0	34.5580	0	27.613	0	1752.338	0	-1e10	1	-1e10	1	-1E+10	1	-1e10	1	-1e10	1	-1E+10	1	-1E+10	1	-1E+10	1
4902624	45	C	09/14/2025	13:35	-129.212	48.756	0	1782.20	0	2.1742	0	34.5592	0	27.614	0	1759.614	0	96.5	4	29.2	4	-1E+10	1	0.0511	4	0.000098	0	-1E+10	1	-1E+10	1	-1E+10	1
4902624	45	C	09/14/2025	13:35	-129.212	48.756	0	1802.10	0	2.1560	0	34.5623	0	27.618	0	1779.178	0	93.5	4	28.3	4	-1E+10	1	0.0511	4	0.000121	0	-1E+10	1	-1E+10	1	-1E+10	1
4902624	45	C	09/14/2025	13:35	-129.212	48.756	0	1823.20	0	2.1367	0	34.5657	0	27.623	0	1799.921	0	96.8	4	29.3	4	-1E+10	1	0.0509	4	0.000132	0	-1E+10	1	-1E+10	1	-1E+10	1
4902624	45	C	09/14/2025	13:35	-129.212	48.756	0	1825.10	0	2.1350	0	34.5660	0	27.623	0	1801.788	0	-1e10	1	-1e10	1	-1E+10	1	-1e10	1	-1e10	1	-1E+10	1	-1E+10	1	-1E+10	1
4902624	45	C	09/14/2025	13:35	-129.212	48.756	0	1845.20	0	2.1213	0	34.5680	0	27.626	0	1821.545	0	99.6	4	30.1	4	-1E+10	1	0.0438	4	0.000120	0	-1E+10	1	-1E+10	1	-1E+10	1
4902624	45	C	09/14/2025	13:35	-129.212	48.756	0	1867.30	0	2.1062	0	34.5702	0	27.629	0	1843.266	0	100.8	4	30.5	4	-1E+10	1	0.0438	4	0.000155	0	-1E+10	1	-1E+10	1	-1E+10	1
4902624	45	C	09/14/2025	13:35	-129.212	48.756	0	1874.90	0	2.1010	0	34.5710	0	27.630	0	1850.736	0	-1e10	1	-1e10	1	-1E+10	1	-1e10	1	-1e10	1	-1E+10	1	-1E+10	1	-1E+10	1
4902624	45	C	09/14/2025	13:35	-129.212	48.756	0	1890.10	0	2.0894	0	34.5731	0	27.633	0	1865.673	0	90.3	4	27.3	4	-1E+10	1	0.0440	4	0.000165	0	-1E+10	1	-1E+10	1	-1E+10	1
4902624	45	C	09/14/2025	13:35	-129.212	48.756	0	1913.30	0	2.0716	0	34.5764	0	27.637	0	1888.470	0	99.2	4	30.0	4	-1E+10	1	0.0511	4	0.000130	0	-1E+10	1	-1E+10	1	-1E+10	1
4902624	45	C	09/14/2025	13:35	-129.212	48.756	0	1924.60	0	2.0630	0	34.5780	0	27.639	0	1899.573	0	-1e10	1	-1e10	1	-1E+10	1	-1e10	1	-1e10	1	-1E+10	1	-1E+10	1	-1E+10	1
4902624	45	C	09/14/2025	13:35	-129.212	48.756	0	1936.50	0	2.0524	0	34.5799	0	27.641	0	1911.265	0	77.4	4	23.4	4	-1E+10	1	0.0512	4	0.000118	0	-1E+10	1	-1E+10	1	-1E+10	1
4902624	45	C	09/14/2025	13:35	-129.212	48.756	0	1959.90	0	2.0316	0	34.5835	0	27.646	0	1934.254	0	63.7	4	19.2	4	-1E+10	1	0.0579	4	0.000131	0	-1E+10	1	-1E+10	1	-1E+10	1
4902624	45	C	09/14/2025	13:35	-129.212	48.756	0	1962.80	0	2.0290	0	34.5840	0	27.647	0	1937.103	0	-1e10	1	-1e10	1	-1E+10	1	-1e10	1	-1e10	1	-1E+10	1	-1E+10	1	-1E+10	1
4902624	45	C	09/14/2025	13:35	-129.212	48.756	0	1974.50	0	-1e10	1	-1e10	1	-1e10	1	1948.596	0	60.3	4	-1e10	4	-1E+10	1	0.0438	4	0.000179	0	-1E+10	1	-1E+10	1	-1E+10	1
4902624	45	C	09/14/2025	13:35	-129.212	48.756	0																										
4902624	46	C	09/24/2025	08:28	-129.416	48.964	0	0.40	0	17.0430	0	31.9580	0	23.172	0	0.397	0	224.7	4	92.4	4	-1E+10	1	0.2847	4	0.000941	0	-1E+10	1	-1E+10	1	-1E+10	1
4902624	46	C	09/24/2025	08:28	-129.416	48.964	0	0.80	0	17.0448	0	31.9569	0	23.171	0	0.793	0	-1e10	1	-1e10	1	-1E+10	1	0.2774	4	0.000941	0	-1E+10	1	-1E+10	1	-1E+10	1
4902624	46	C	09/24/2025	08:28	-129.416	48.964	0	1.00	0	17.0457	0	31.9564	0	23.170	0	0.992	0	223.9	4	92.1	4	-1E+10	1	0.2847	4	0.000941	0	-1E+10	1	-1E+10	1	-1E+10	1
4902624	46	C	09/24/2025	08:28	-129.416	48.964	0	1.50	0	17.0480	0	31.9550	0	23.168	0	1.487	0	-1e10	1	-1e10	1	-1E+10	1	0.2628	4	0.000941	0	-1E+10	1	-1E+10	1	-1E+10	1
4902624	46	C	09/24/2025	08:28	-129.416	48.964	0	1.80	0	17.0474	0	31.9553	0	23.169	0	1.785	0	-1e10	1	-1e10	1	-1E+10	1	0.2628	4	0.000930	0	-1E+10	1	-1E+10	1	-1E+10	1
4902624	46	C	09/24/2025	08:28	-129.416	48.964	0	2.00	0	17.0470	0	31.9555	0	23.169	0	1.983	0	223.9	4	92.1	4	-1E+10	1	0.2774	4	0.000930	0	-1E+10	1	-1E+10	1	-1E+10	1
4902624	46	C	09/24/2025	08:28	-129.416	48.964	0	2.30	0	17.0464	0	31.9558	0	23.169	0	2.280	0	-1e10	1	-1e10	1	-1E+10	1	0.2628	4	0.000941	0	-1E+10	1	-1E+10	1	-1E+10	1
4902624	46	C	09/24/2025	08:28	-129.416	48.964	0	2.50	0	17.0460	0	31.9560	0	23.170	0	2.479	0	-1e10	1	-1e10	1	-1E+10	1	0.2774	4	0.000918	0	-1E+10	1	-1E+10	1	-1E+10	1
4902624	46	C	09/24/2025	08:28	-129.416	48.964	0	2.80	0	17.0463	0	31.9560	0	23.170	0	2.776	0	-1e10	1	-1e10	1	-1E+10	1	0.2701	4	0.000918	0	-1E+10	1	-1E+10	1	-1E+10	1
4902624	46	C	09/24/2025	08:28	-129.416	48.964	0	3.00	0	17.0465	0	31.9560	0	23.170	0	2.975	0	-1e10	1	-1e10	1	-1E+10	1	0.2847	4	0.000930	0	-1E+10	1	-1E+10	1	-1E+10	1
4902624	46	C	09/24/2025	08:28	-129.416	48.964	0	3.50	0	17.0470	0	31.9560	0	23.169	0	3.470	0	223.8	4	92.0	4	-1E+10	1	0.2701	4	0.000883	0	-1E+10	1	-1E+10	1	-1E+10	1
4902624	46	C	09/24/2025	08:28	-129.416	48.964	0	3.80	0	17.0470	0	31.9560	0	23.169	0	3.768	0	-1e10	1	-1e10	1	-1E+10	1	0.2774	4	0.000930	0	-1E+10	1	-1E+10	1	-1E+10	1
4902624	46	C	09/24/2025	08:28	-129.416	48.964	0	4.00	0	17.0470	0	31.9560	0	23.170	0	3.966	0	-1e10	1	-1e10	1	-1E+10	1	0.2628	4	0.000941	0	-1E+10	1	-1E+10	1	-1E+10	1
4902624	46	C	09/24/2025	08:28	-129.416	48.964	0	4.20	0	17.0470	0	31.9560	0	23.170	0	4.164	0	-1e10	1	-1e10	1	-1E+10	1	0.2628	4	0.000918	0	-1E+10	1	-1E+10	1	-1E+10	1
4902624	46	C	09/24/2025	08:28	-129.416	48.964	0	4.50	0	17.0470	0	31.9560	0	23.170	0	4.462	0	223.8	4	92.0	4	-1E+10	1	0.2628	4	0.000883	0	-1E+10	1	-1E+10	1	-1E+10	1
4902624	46	C	09/24/2025	08:28	-129.416	48.964	0	4.60	0	17.0470	0	31.9560	0	23.170	0	4.561	0	-1e10	1	-1e10	1	-1E+10	1	-1e10	1	-1e10	1	-1E+10	1	-1E+10	1	-1E+10	1
4902624	46	C	09/24/2025	08:28	-129.416	48.964	0	4.70	0	17.0471	0	31.9559	0	23.169	0	4.660	0	-1e10	1	-1e10	1	-1E+10	1	0.2774	4	0.000953	0	-1E+10	1	-1E+10	1	-1E+10	1
4902624	46	C	09/24/2025	08:28	-129.416	48.964	0	5.00	0	17.0474	0	31.9556	0	23.169	0	4.958	0	-1e10	1	-1e10	1	-1E+10	1	0.2774	4	0.000930	0	-1E+10	1	-1E+10	1	-1E+10	1
4902624	46	C	09/24/2025	08:28	-129.416	48.964	0	5.20	0	17.0477	0	31.9553	0	23.169	0	5.156	0	-1e10	1	-1e10	1	-1E+10	1	0.2774	4	0.000965	0	-1E+10	1	-1E+10	1	-1E+10	1
4902624	46	C	09/24/2025	08:28	-129.416	48.964	0	5.50	0	17.0480	0	31.9550	0	23.169	0	5.453	0	-1e10	1	-1e10	1	-1E+10	1	-1e10	1	-1e10	1	-1E+10	1	-1E+10	1	-1E+10	1
4902624	46	C	09/24/2025	08:28	-129.416	48.964	0	5.70	0	17.0478	0	31.9550	0	23.169	0	5.652	0	223.7	4	92.0	4	-1E+10	1	0.2701	4	0.000976	0	-1E+10	1	-1E+10	1	-1E+10	1
4902624	46	C	09/24/2025	08:28	-129.416	48.964	0	5.90	0	17.0476	0	31.9550	0	23.169	0	5.850	0	-1e10	1	-1e10	1	-1E+10	1	0.2847	4	0.000883	0	-1E+10	1	-1E+10	1	-1E+10	1
4902624	46	C	09/24/2025	08:28	-129.416	48.964	0	6.10	0	17.0474	0	31.9550	0	23.169	0	6.048	0	-1e10	1	-1e10	1	-1E+10	1	0.2920	4	0.000906	0	-1E+10	1	-1E+10	1	-1E+10	1
4902624	46	C	09/24/2025	08:28	-129.416	48.964	0	6.40	0	17.0471	0	31.9550	0	23.169	0	6.346	0	-1e10	1	-1e10	1	-1E+10	1	0.2993	4	0.000859	0	-1E+10	1	-1E+10	1	-1E+10	1
4902624	46	C	09/24/2025	08:28	-129.416	48.964	0	6.50	0	17.0470	0	31.9550	0	23.169	0	6.445	0	-1e10	1	-1e10	1	-1E+10	1	-1e10	1	-1e10	1	-1E+10	1	-1E+10	1	-1E+10	1
4902624	46	C	09/24/2025	08:28	-129.416	48.964	0	6.60	0	17.0471	0	31.9550	0	23.169	0	6.544	0	-1e10	1	-1e10	1	-1E+10	1	0.2847	4	0.000918	0	-1E+10	1	-1E+10	1	-1E+10	1
4902624	46	C	09/24/2025	08:28	-129.416	48.964	0	6.90	0	17.0474	0	31.9550	0	23.169	0	6.841	0	223.7	4	92.0	4	-1E+10	1	0.2920	4	0.000918	0	-1E+10	1	-1E+10	1	-1E+10	1
4902624	46	C	09/24/2025	08:28	-129.416	48.964	0	7.10	0	17.0476	0	31.9550	0	23.169	0	7.040	0	-1e10	1	-1e10	1	-1E+10	1	0.2920	4	0.000871	0	-1E+10	1	-1E+10	1	-1E+10	1
4902624	46	C	09/24/2025	08:28	-129.416	48.964	0	7.50	0	17.0480	0	31.9550	0	23.169	0	7.436	0	-1e10	1	-1e10	1	-1E+10	1	-1e10	1	-1e10	1	-1E+10	1	-1E+10	1	-1E+10	1
4902624	46	C	09/24/2025	08:28	-129.416	48.964	0	7.60	0	17.0481	0	31.9550	0	23.169	0	7.535	0	-1e10	1	-1e10	1	-1E+10	1	0.2920	4	0.000894	0	-1E+10	1	-1E+10	1	-1E+10	1
4902624	46	C	09/24/2025	08:28	-129.416	48.964	0	7.90	0	17.0484	0	31.9550	0	23.169	0	7.833	0	-1e10	1	-1e10	1	-1E+10	1	0.2774	4	0.001023	0	-1E+10	1	-1E+10	1	-1E+10	1
4902624	46	C	09/24/2025	08:28	-129.416	48.964	0	8.10	0	17.0486	0	31.9550	0	23.169	0	8.031	0	223.6	4	92.0	4	-1E+10	1	0.2774	4	0.000976	0	-1E+10	1	-1E+10	1	-1E+10	1
4902624	46	C	09/24/2025	08:28	-129.416	48.964	0	8.40	0	17.0489	0	31.9550	0	23.168	0	8.329	0	-1e10	1	-1e10	1	-1E+10	1	0.2847	4	0.000976	0	-1E+10	1	-1E+10	1	-1E+10	1
4902624	46	C	09/24/2025	08:28	-129.416	48.964	0	8.50	0	17.0490	0	31.9550	0	23.168	0	8.428	0	-1e10	1	-1e10	1	-1E+10	1	-1e10	1	-1e10	1	-1E+10	1	-1E+10	1	-1E+10	1
4902624	46	C	09/24/2025	08:28	-129.416	48.964	0	8.60	0	17.0489	0	31.9551	0	23.169	0	8.527	0	-1e10	1	-1e10	1	-1E+10	1	0.2847	4	0.000918	0	-1E+10	1	-1E+10	1	-1E+10	1
4902624	46	C	09/24/2025	08:28	-129.416	48.964	0	8.90	0	17.0486	0	31.9554	0	23.169	0	8.824	0	-1e10	1	-1e10	1	-1E+10	1	0.2701	4	0.001023	0	-1E+10	1	-1E+10	1	-1E+10	1
4902624	46	C	09/24/2025	08:28	-129.416	48.964	0	9.10	0	17.0484	0	31.9556	0	23.169	0	9.023	0	-1e10	1	-1e10	1	-1E+10	1	0.2774	4	0.000871	0	-1E+10	1	-1E+10	1	-1E+10	1
4902624	46	C	09/24/2025	08:28	-129.416	48.964	0	9.40	0	17.0481	0	31.9559	0	23.169	0	9.320	0	223.6	4	91.9	4	-1E+10	1	0.2701	4	0.000883	0	-1E+10	1	-1E+10	1	-1E+10	1
4902624	46	C	09/24/2025	08:28	-129.416	48.964	0	9.50	0	17.0480	0	31.9560	0	23.169	0	9.419	0	-1e10	1	-1e10	1	-1E+10	1	-1e10	1	-1e10	1	-1E+10	1	-1E+10	1	-1E+10	1
4902624	46	C	09/24/2025	08:28	-129.416	48.964	0	10.70	0	17.0503	0	31.9552	0	23.168	0	10.609	0	223.6	4	91.9	4	-1E+10	1	0.2658	4	0.000920	0	-1E+10	1	-1E+10	1	-1E+10	1
4902624	46	C	09/24/2025	08:28	-129.416	48.964	0	11.10	0	17.0510	0	31.9550	0	23.168	0	11.006	0	-1e10	1	-1e10	1	-1E+10	1	-1e10	1	-1e10	1	-1E+10	1	-1E+10	1	-1E+10	1
4902624	46	C	09/24/2025	08:28	-129.416	48.964	0	12.00	0	17.0505	0	31.9555	0	23.169	0	11.898	0	223.5	4	91.9	4	-1E+10	1	0.2783	4	0.000915	0	-1E+10	1	-1E+10	1	-1E+10	1
4902624	46	C	09/24/2025	08:28	-129.416	48.964	0	13.00	0	17.0500	0	31.9560	0	23.169	0	12.889	0	-1e10	1	-1e10	1	-1E+10	1	-1e10	1	-1e10	1	-1E+10	1	-1E+10	1	-1E+10	1
4902624	46	C	09/24/2025	08:28	-129.416	48.964	0	13.30	0	17.0500	0	31.9560	0	23.169	0	13.187	0	223.5	4	91.9	4	-1E+10	1	0.2947	4	0.000932	0	-1E+10	1	-1E+10	1	-1E+10	1
4902624	46	C	09/24/2025	08:28	-129.416	48.964	0	14.60	0	17.0500	0	31.9560	0	23.169	0	14.476	0	223.4	4	91.9	4	-1E+10	1	0.3066	4	0.000941	0	-1E+10	1	-1E+10	1	-1E+10	1
4902624	46	C	09/24/2025	08:28	-129.416	48.964	0	15.00	0	17.0500	0	31.9560	0	23.169	0	14.872	0	-1e10	1	-1e10	1	-1E+10	1	-1e10	1	-1e10	1	-1E+10	1	-1E+10	1	-1E+10	1
4902624	46	C	09/24/2025	08:28	-129.416	48.964	0	16.00	0	17.0500	0	31.9560	0	23.169	0	15.864	0	223.5	4	91.9	4	-1E+10	1	0.3066	4	0.000883	0	-1E+10	1	-1E+10	1	-1E+10	1
4902624	46	C	09/24/2025	08:28	-129.416	48.964	0	17.10	0	17.0500	0	31.9560	0	23.169	0	16.954	0	-1e10	1	-1e10	1	-1E+10	1	-1e10	1	-1e10	1	-1E+10	1	-1E+10	1	-1E+10	1
4902624	46	C	09/24/2025	08:28	-129.416	48.964	0	17.40	0	17.0500	0	31.9560	0	23.169	0	17.252	0	223.5	4	91.9	4	-1E+10	1	0.3130	4	0.001088	0	-1E+10	1	-1E+10	1	-1E+10	1
4902624	46	C	09/24/2025	08:28	-129.416	48.964	0	18.70	0	17.0500	0	31.9560	0	23.169	0	18.541	0	223.4	4	91.9	4	-1E+10	1	0.3089	4	0.000932	0	-1E+10	1	-1E+10	1	-1E+10	1
4902624	46	C	09/24/2025	08:28	-129.416	48.964	0	19.00	0	17.0500	0	31.9560	0	23.169	0	18.838	0	-1e10	1	-1e10	1	-1E+10	1	-1e10	1	-1e10	1	-1E+10	1	-1E+10	1	-1E+10	1
4902624	46	C	09/24/2025	08:28	-129.416	48.964	0	20.00	0	17.0495	0	31.9565	0	23.170	0	19.829	0	223.4	4	91.9	4	-1E+10	1	0.3111	4	0.000876	0	-1E+10	1	-1E+10	1	-1E+10	1
4902624	46	C	09/24/2025	08:28	-129.416	48.964	0	20.90	0	17.0490	0	31.9570	0	23.170	0	20.722	0	-1e10	1	-1e10	1	-1E+10	1	-1e10	1	-1e10	1	-1E+10	1	-1E+10	1	-1E+10	1
4902624	46	C	09/24/2025	08:28	-129.416	48.964	0	21.30	0	17.0490	0	31.9570	0	23.170	0	21.118	0	223.3	4	91.8	4	-1E+10	1	0.3100	4	0.000969	0	-1E+10	1	-1E+10	1	-1E+10	1
4902624	46	C	09/24/2025	08:28	-129.416	48.964	0	22.60	0	17.0490	0	31.9570	0	23.171	0	22.407	0	223.3	4	91.8	4	-1E+10	1	0.3093	4	0.000995	0	-1E+10	1	-1E+10	1	-1E+10	1
4902624	46	C	09/24/2025	08:28	-129.416	48.964	0	22.90	0	17.0490	0	31.9570	0	23.171	0	22.705	0	-1e10	1	-1e10	1	-1E+10	1	-1e10	1	-1e10	1	-1E+10	1	-1E+10	1	-1E+10	1
4902624	46	C	09/24/2025	08:28	-129.416	48.964	0	23.80	0	17.0494	0	31.9566	0	23.170	0	23.597	0	223.3	4	91.8	4	-1E+10	1	0.3150	4	0.000924	0	-1E+10	1	-1E+10	1	-1E+10	1
4902624	46	C	09/24/2025	08:28	-129.416	48.964	0	25.00	0	17.0500	0	31.9560	0	23.170	0	24.787	0	-1e10	1	-1e10	1	-1E+10	1	-1e10	1	-1e10	1	-1E+10	1	-1E+10	1	-1E+10	1
4902624	46	C	09/24/2025	08:28	-129.416	48.964	0	25.10	0	17.0500	0	31.9560	0	23.170	0	24.886	0	223.3	4	91.8	4	-1E+10	1	0.3194	4	0.000891	0	-1E+10	1	-1E+10	1	-1E+10	1
4902624	46	C	09/24/2025	08:28	-129.416	48.964	0	26.50	0	17.0500	0	31.9568	0	23.170	0	26.274	0	223.4	4	91.9	4	-1E+10	1	0.3066	4	0.000871	0	-1E+10	1	-1E+10	1	-1E+10	1
4902624	46	C	09/24/2025	08:28	-129.416	48.964	0	27.00	0	17.0500	0	31.9570	0	23.170	0	26.769	0	-1e10	1	-1e10	1	-1E+10	1	-1e10	1	-1e10	1	-1E+10	1	-1E+10	1	-1E+10	1
4902624	46	C	09/24/2025	08:28	-129.416	48.964	0	27.80	0	17.0492	0	31.9570	0	23.171	0	27.562	0	223.4	4	91.9	4	-1E+10	1	0.3185	4	0.000956	0	-1E+10	1	-1E+10	1	-1E+10	1
4902624	46	C	09/24/2025	08:28	-129.416	48.964	0	29.00	0	17.0480	0	31.9570	0	23.171	0	28.752	0	-1e10	1	-1e10	1	-1E+10	1	-1e10	1	-1e10	1	-1E+10	1	-1E+10	1	-1E+10	1
4902624	46	C	09/24/2025	08:28	-129.416	48.964	0	29.10	0	17.0480	0	31.9570	0	23.171	0	28.851	0	223.4	4	91.9	4	-1E+10	1	0.3268	4	0.001202	0	-1E+10	1	-1E+10	1	-1E+10	1
4902624	46	C	09/24/2025	08:28	-129.416	48.964	0	30.40	0	17.0480	0	31.9570	0	23.171	0	30.140	0	223.4	4	91.9	4	-1E+10	1	0.3334	4	0.001082	0	-1E+10	1	-1E+10	1	-1E+10	1
4902624	46	C	09/24/2025	08:28	-129.416	48.964	0	31.00	0	17.0480	0	31.9570	0	23.171	0	30.735	0	-1e10	1	-1e10	1	-1E+10	1	-1e10	1	-1e10	1	-1E+10	1	-1E+10	1	-1E+10	1
4902624	46	C	09/24/2025	08:28	-129.416	48.964	0	31.50	0	17.0478	0	31.9570	0	23.171	0	31.231	0	223.5	4	91.9	4	-1E+10	1	0.3295	4	0.001003	0	-1E+10	1	-1E+10	1	-1E+10	1
4902624	46	C	09/24/2025	08:28	-129.416	48.964	0	32.70	0	17.0472	0	31.9570	0	23.171	0	32.420	0	223.6	4	92.0	4	-1E+10	1	0.3292	4	0.001019	0	-1E+10	1	-1E+10	1	-1E+10	1
4902624	46	C	09/24/2025	08:28	-129.416	48.964	0	33.00	0	17.0470	0	31.9570	0	23.171	0	32.718	0	-1e10	1	-1e10	1	-1E+10	1	-1e10	1	-1e10	1	-1E+10	1	-1E+10	1	-1E+10	1
4902624	46	C	09/24/2025	08:28	-129.416	48.964	0	33.90	0	17.0479	0	31.9566	0	23.171	0	33.610	0	223.8	4	92.0	4	-1E+10	1	0.3353	4	0.001011	0	-1E+10	1	-1E+10	1	-1E+10	1
4902624	46	C	09/24/2025	08:28	-129.416	48.964	0	35.00	0	17.0490	0	31.9560	0	23.170	0	34.700	0	224.3	4	92.2	4	-1E+10	1	0.3190	4	0.000999	0	-1E+10	1	-1E+10	1	-1E+10	1
4902624	46	C	09/24/2025	08:28	-129.416	48.964	0	36.10	0	17.0426	0	31.9566	0	23.172	0	35.791	0	224.3	4	92.2	4	-1E+10	1	0.3066	4	0.000929	0	-1E+10	1	-1E+10	1	-1E+10	1
4902624	46	C	09/24/2025	08:28	-129.416	48.964	0	36.90	0	17.0380	0	31.9570	0	23.174	0	36.584	0	-1e10	1	-1e10	1	-1E+10	1	-1e10	1	-1e10	1	-1E+10	1	-1E+10	1	-1E+10	1
4902624	46	C	09/24/2025	08:28	-129.416	48.964	0	37.00	0	17.0362	0	31.9570	0	23.174	0	36.683	0	224.9	4	92.5	4	-1E+10	1	0.3431	4	0.000953	0	-1E+10	1	-1E+10	1	-1E+10	1
4902624	46	C	09/24/2025	08:28	-129.416	48.964	0	37.90	0	17.0204	0	31.9575	0	23.178	0	37.575	0	225.6	4	92.7	4	-1E+10	1	0.4307	4	0.000953	0	-1E+10	1	-1E+10	1	-1E+10	1
4902624	46	C	09/24/2025	08:28	-129.416	48.964	0	38.50	0	17.0098	0	31.9578	0	23.181	0	38.170	0	226.2	4	92.9	4	-1E+10	1	0.4636	4	0.000962	0	-1E+10	1	-1E+10	1	-1E+10	1
4902624	46	C	09/24/2025	08:28	-129.416	48.964	0	39.00	0	17.0010	0	31.9580	0	23.183	0	38.666	0	-1e10	1	-1e10	1	-1E+10	1	-1e10	1	-1e10	1	-1E+10	1	-1E+10	1	-1E+10	1
4902624	46	C	09/24/2025	08:28	-129.416	48.964	0	39.10	0	16.9945	0	31.9581	0	23.185	0	38.765	0	226.9	4	93.2	4	-1E+10	1	0.4988	4	0.000972	0	-1E+10	1	-1E+10	1	-1E+10	1
4902624	46	C	09/24/2025	08:28	-129.416	48.964	0	39.70	0	16.9555	0	31.9587	0	23.194	0	39.360	0	227.8	4	93.5	4	-1E+10	1	0.5444	4	0.001050	0	-1E+10	1	-1E+10	1	-1E+10	1
4902624	46	C	09/24/2025	08:28	-129.416	48.964	0	40.20	0	16.9230	0	31.9592	0	23.202	0	39.855	0	228.9	4	93.9	4	-1E+10	1	0.5882	4	0.001092	0	-1E+10	1	-1E+10	1	-1E+10	1
4902624	46	C	09/24/2025	08:28	-129.416	48.964	0	40.90	0	16.8775	0	31.9599	0	23.213	0	40.549	0	230.5	4	94.5	4	-1E+10	1	0.6448	4	0.001062	0	-1E+10	1	-1E+10	1	-1E+10	1
4902624	46	C	09/24/2025	08:28	-129.416	48.964	0	41.00	0	16.8710	0	31.9600	0	23.215	0	40.648	0	-1e10	1	-1e10	1	-1E+10	1	-1e10	1	-1e10	1	-1E+10	1	-1E+10	1	-1E+10	1
4902624	46	C	09/24/2025	08:28	-129.416	48.964	0	41.50	0	16.7246	0	31.9657	0	23.253	0	41.144	0	232.2	4	94.9	4	-1E+10	1	0.8815	4	0.001140	0	-1E+10	1	-1E+10	1	-1E+10	1
4902624	46	C	09/24/2025	08:28	-129.416	48.964	0	42.10	0	16.5489	0	31.9726	0	23.299	0	41.739	0	235.2	4	95.8	4	-1E+10	1	1.5330	4	0.001352	0	-1E+10	1	-1E+10	1	-1E+10	1
4902624	46	C	09/24/2025	08:28	-129.416	48.964	0	43.00	0	16.2853	0	31.9829	0	23.366	0	42.631	0	236.5	4	95.9	4	-1E+10	1	1.7885	4	0.001586	0	-1E+10	1	-1E+10	1	-1E+10	1
4902624	46	C	09/24/2025	08:28	-129.416	48.964	0	43.10	0	16.2560	0	31.9840	0	23.374	0	42.730	0	-1e10	1	-1e10	1	-1E+10	1	-1e10	1	-1e10	1	-1E+10	1	-1E+10	1	-1E+10	1
4902624	46	C	09/24/2025	08:28	-129.416	48.964	0	43.70	0	15.9716	0	31.9903	0	23.442	0	43.325	0	238.5	4	96.1	4	-1E+10	1	1.7739	4	0.001492	0	-1E+10	1	-1E+10	1	-1E+10	1
4902624	46	C	09/24/2025	08:28	-129.416	48.964	0	44.50	0	15.5924	0	31.9987	0	23.533	0	44.118	0	240.7	4	96.3	4	-1E+10	1	2.0659	4	0.001750	0	-1E+10	1	-1E+10	1	-1E+10	1
4902624	46	C	09/24/2025	08:28	-129.416	48.964	0	44.90	0	15.4028	0	32.0029	0	23.578	0	44.514	0	241.7	4	96.3	4	-1E+10	1	2.2328	4	0.001717	0	-1E+10	1	-1E+10	1	-1E+10	1
4902624	46	C	09/24/2025	08:28	-129.416	48.964	0	45.10	0	15.3080	0	32.0050	0	23.600	0	44.713	0	-1e10	1	-1e10	1	-1E+10	1	-1e10	1	-1e10	1	-1E+10	1	-1E+10	1	-1E+10	1
4902624	46	C	09/24/2025	08:28	-129.416	48.964	0	45.30	0	15.1738	0	32.0106	0	23.633	0	44.911	0	242.2	4	96.1	4	-1E+10	1	2.4291	4	0.001706	0	-1E+10	1	-1E+10	1	-1E+10	1
4902624	46	C	09/24/2025	08:28	-129.416	48.964	0	45.80	0	14.8382	0	32.0244	0	23.716	0	45.407	0	242.5	4	95.6	4	-1E+10	1	2.7594	4	0.001958	0	-1E+10	1	-1E+10	1	-1E+10	1
4902624	46	C	09/24/2025	08:28	-129.416	48.964	0	46.30	0	14.5027	0	32.0383	0	23.797	0	45.902	0	243.5	4	95.3	4	-1E+10	1	3.0514	4	0.002478	0	-1E+10	1	-1E+10	1	-1E+10	1
4902624	46	C	09/24/2025	08:28	-129.416	48.964	0	46.90	0	14.1000	0	32.0550	0	23.894	0	46.497	0	242.1	4	94.0	4	-1E+10	1	3.2631	4	0.002018	0	-1E+10	1	-1E+10	1	-1E+10	1
4902624	46	C	09/24/2025	08:28	-129.416	48.964	0	47.50	0	13.8363	0	32.0658	0	23.956	0	47.092	0	243.4	4	94.0	4	-1E+10	1	3.0879	4	0.002032	0	-1E+10	1	-1E+10	1	-1E+10	1
4902624	46	C	09/24/2025	08:28	-129.416	48.964	0	48.20	0	13.5287	0	32.0784	0	24.028	0	47.786	0	243.1	4	93.4	4	-1E+10	1	2.8470	4	0.001973	0	-1E+10	1	-1E+10	1	-1E+10	1
4902624	46	C	09/24/2025	08:28	-129.416	48.964	0	48.90	0	13.2210	0	32.0910	0	24.099	0	48.480	0	242.6	4	92.6	4	-1E+10	1	2.7959	4	0.001923	0	-1E+10	1	-1E+10	1	-1E+10	1
4902624	46	C	09/24/2025	08:28	-129.416	48.964	0	49.50	0	13.1021	0	32.0933	0	24.124	0	49.074	0	241.6	4	92.0	4	-1E+10	1	2.7146	4	0.001886	0	-1E+10	1	-1E+10	1	-1E+10	1
4902624	46	C	09/24/2025	08:28	-129.416	48.964	0	50.00	0	13.0031	0	32.0952	0	24.145	0	49.570	0	240.3	4	91.3	4	-1E+10	1	2.7302	4	0.001792	0	-1E+10	1	-1E+10	1	-1E+10	1
4902624	46	C	09/24/2025	08:28	-129.416	48.964	0	50.60	0	12.8842	0	32.0975	0	24.170	0	50.165	0	239.0	4	90.6	4	-1E+10	1	2.7333	4	0.001746	0	-1E+10	1	-1E+10	1	-1E+10	1
4902624	46	C	09/24/2025	08:28	-129.416	48.964	0	51.00	0	12.8050	0	32.0990	0	24.186	0	50.561	0	-1e10	1	-1e10	1	-1E+10	1	-1e10	1	-1e10	1	-1E+10	1	-1E+10	1	-1E+10	1
4902624	46	C	09/24/2025	08:28	-129.416	48.964	0	51.20	0	12.7502	0	32.1003	0	24.198	0	50.760	0	237.7	4	89.8	4	-1E+10	1	2.6528	4	0.001711	0	-1E+10	1	-1E+10	1	-1E+10	1
4902624	46	C	09/24/2025	08:28	-129.416	48.964	0	51.70	0	12.6133	0	32.1037	0	24.227	0	51.255	0	235.6	4	88.8	4	-1E+10	1	2.5258	4	0.001662	0	-1E+10	1	-1E+10	1	-1E+10	1
4902624	46	C	09/24/2025	08:28	-129.416	48.964	0	52.40	0	12.4217	0	32.1083	0	24.267	0	51.949	0	233.5	4	87.7	4	-1E+10	1	2.3470	4	0.001709	0	-1E+10	1	-1E+10	1	-1E+10	1
4902624	46	C	09/24/2025	08:28	-129.416	48.964	0	53.00	0	12.2574	0	32.1123	0	24.301	0	52.544	0	231.5	4	86.6	4	-1E+10	1	2.1389	4	0.001551	0	-1E+10	1	-1E+10	1	-1E+10	1
4902624	46	C	09/24/2025	08:28	-129.416	48.964	0	53.10	0	12.2300	0	32.1130	0	24.307	0	52.643	0	-1e10	1	-1e10	1	-1E+10	1	-1e10	1	-1e10	1	-1E+10	1	-1E+10	1	-1E+10	1
4902624	46	C	09/24/2025	08:28	-129.416	48.964	0	53.70	0	11.9063	0	32.1337	0	24.383	0	53.238	0	229.9	4	85.4	4	-1E+10	1	1.5841	4	0.001293	0	-1E+10	1	-1E+10	1	-1E+10	1
4902624	46	C	09/24/2025	08:28	-129.416	48.964	0	54.40	0	11.5287	0	32.1578	0	24.471	0	53.932	0	227.8	4	84.0	4	-1E+10	1	1.3627	4	0.001138	0	-1E+10	1	-1E+10	1	-1E+10	1
4902624	46	C	09/24/2025	08:28	-129.416	48.964	0	55.10	0	11.1510	0	32.1820	0	24.557	0	54.626	0	-1e10	1	-1e10	1	-1E+10	1	-1e10	1	-1e10	1	-1E+10	1	-1E+10	1	-1E+10	1
4902624	46	C	09/24/2025	08:28	-129.416	48.964	0	55.20	0	11.1129	0	32.1847	0	24.566	0	54.725	0	226.4	4	82.7	4	-1E+10	1	0.9636	4	0.000851	0	-1E+10	1	-1E+10	1	-1E+10	1
4902624	46	C	09/24/2025	08:28	-129.416	48.964	0	56.00	0	10.8076	0	32.2063	0	24.636	0	55.518	0	225.7	4	82.0	4	-1E+10	1	0.6680	4	0.000730	0	-1E+10	1	-1E+10	1	-1E+10	1
4902624	46	C	09/24/2025	08:28	-129.416	48.964	0	56.80	0	10.5024	0	32.2279	0	24.705	0	56.311	0	224.5	4	81.0	4	-1E+10	1	0.5183	4	0.000638	0	-1E+10	1	-1E+10	1	-1E+10	1
4902624	46	C	09/24/2025	08:28	-129.416	48.964	0	57.10	0	10.3880	0	32.2360	0	24.731	0	56.608	0	-1e10	1	-1e10	1	-1E+10	1	-1e10	1	-1e10	1	-1E+10	1	-1E+10	1	-1E+10	1
4902624	46	C	09/24/2025	08:28	-129.416	48.964	0	57.60	0	10.2750	0	32.2475	0	24.759	0	57.104	0	224.2	4	80.5	4	-1E+10	1	0.4148	4	0.000587	0	-1E+10	1	-1E+10	1	-1E+10	1
4902624	46	C	09/24/2025	08:28	-129.416	48.964	0	58.50	0	10.0716	0	32.2682	0	24.809	0	57.996	0	223.6	4	80.0	4	-1E+10	1	0.3261	4	0.000616	0	-1E+10	1	-1E+10	1	-1E+10	1
4902624	46	C	09/24/2025	08:28	-129.416	48.964	0	59.10	0	9.9360	0	32.2820	0	24.842	0	58.590	0	-1e10	1	-1e10	1	-1E+10	1	-1e10	1	-1e10	1	-1E+10	1	-1E+10	1	-1E+10	1
4902624	46	C	09/24/2025	08:28	-129.416	48.964	0	59.40	0	9.8979	0	32.2875	0	24.853	0	58.888	0	222.9	4	79.4	4	-1E+10	1	0.2920	4	0.000572	0	-1E+10	1	-1E+10	1	-1E+10	1
4902624	46	C	09/24/2025	08:28	-129.416	48.964	0	60.20	0	9.7965	0	32.3023	0	24.881	0	59.681	0	221.9	4	78.9	4	-1E+10	1	0.2920	4	0.000507	0	-1E+10	1	-1E+10	1	-1E+10	1
4902624	46	C	09/24/2025	08:28	-129.416	48.964	0	60.90	0	9.7077	0	32.3152	0	24.906	0	60.375	0	221.5	4	78.6	4	-1E+10	1	0.2750	4	0.000589	0	-1E+10	1	-1E+10	1	-1E+10	1
4902624	46	C	09/24/2025	08:28	-129.416	48.964	0	61.00	0	9.6950	0	32.3170	0	24.909	0	60.474	0	-1e10	1	-1e10	1	-1E+10	1	-1e10	1	-1e10	1	-1E+10	1	-1E+10	1	-1E+10	1
4902624	46	C	09/24/2025	08:28	-129.416	48.964	0	61.50	0	9.6547	0	32.3245	0	24.921	0	60.969	0	220.9	4	78.3	4	-1E+10	1	0.2584	4	0.000528	0	-1E+10	1	-1E+10	1	-1E+10	1
4902624	46	C	09/24/2025	08:28	-129.416	48.964	0	62.00	0	9.6145	0	32.3320	0	24.934	0	61.465	0	220.2	4	78.0	4	-1E+10	1	0.2701	4	0.000515	0	-1E+10	1	-1E+10	1	-1E+10	1
4902624	46	C	09/24/2025	08:28	-129.416	48.964	0	62.50	0	9.5743	0	32.3395	0	24.946	0	61.961	0	219.4	4	77.7	4	-1E+10	1	0.2711	4	0.000503	0	-1E+10	1	-1E+10	1	-1E+10	1
4902624	46	C	09/24/2025	08:28	-129.416	48.964	0	63.00	0	9.5340	0	32.3470	0	24.958	0	62.456	0	-1e10	1	-1e10	1	-1E+10	1	-1e10	1	-1e10	1	-1E+10	1	-1E+10	1	-1E+10	1
4902624	46	C	09/24/2025	08:28	-129.416	48.964	0	63.10	0	9.5283	0	32.3484	0	24.960	0	62.555	0	218.6	4	77.3	4	-1E+10	1	0.2657	4	0.000493	0	-1E+10	1	-1E+10	1	-1E+10	1
4902624	46	C	09/24/2025	08:28	-129.416	48.964	0	63.70	0	9.4944	0	32.3568	0	24.972	0	63.150	0	217.4	4	76.8	4	-1E+10	1	0.2591	4	0.000516	0	-1E+10	1	-1E+10	1	-1E+10	1
4902624	46	C	09/24/2025	08:28	-129.416	48.964	0	64.30	0	9.4606	0	32.3652	0	24.984	0	63.745	0	216.0	4	76.3	4	-1E+10	1	0.2367	4	0.000525	0	-1E+10	1	-1E+10	1	-1E+10	1
4902624	46	C	09/24/2025	08:28	-129.416	48.964	0	64.90	0	9.4266	0	32.3736	0	24.996	0	64.340	0	214.6	4	75.7	4	-1E+10	1	0.2117	4	0.000495	0	-1E+10	1	-1E+10	1	-1E+10	1
4902624	46	C	09/24/2025	08:28	-129.416	48.964	0	65.00	0	9.4210	0	32.3750	0	24.998	0	64.439	0	-1e10	1	-1e10	1	-1E+10	1	-1e10	1	-1e10	1	-1E+10	1	-1E+10	1	-1E+10	1
4902624	46	C	09/24/2025	08:28	-129.416	48.964	0	65.60	0	9.3585	0	32.3949	0	25.024	0	65.033	0	213.4	4	75.2	4	-1E+10	1	0.1679	4	0.000483	0	-1E+10	1	-1E+10	1	-1E+10	1
4902624	46	C	09/24/2025	08:28	-129.416	48.964	0	66.40	0	9.2751	0	32.4214	0	25.058	0	65.826	0	212.0	4	74.6	4	-1E+10	1	0.1549	4	0.000546	0	-1E+10	1	-1E+10	1	-1E+10	1
4902624	46	C	09/24/2025	08:28	-129.416	48.964	0	66.90	0	9.2230	0	32.4380	0	25.079	0	66.322	0	-1e10	1	-1e10	1	-1E+10	1	-1e10	1	-1e10	1	-1E+10	1	-1E+10	1	-1E+10	1
4902624	46	C	09/24/2025	08:28	-129.416	48.964	0	67.10	0	9.2140	0	32.4428	0	25.084	0	66.520	0	210.8	4	74.1	4	-1E+10	1	0.1533	4	0.000491	0	-1E+10	1	-1E+10	1	-1E+10	1
4902624	46	C	09/24/2025	08:28	-129.416	48.964	0	67.90	0	9.1782	0	32.4618	0	25.105	0	67.313	0	209.3	4	73.5	4	-1E+10	1	0.1487	4	0.000460	0	-1E+10	1	-1E+10	1	-1E+10	1
4902624	46	C	09/24/2025	08:28	-129.416	48.964	0	68.60	0	9.1469	0	32.4785	0	25.123	0	68.007	0	207.7	4	72.9	4	-1E+10	1	0.1363	4	0.000465	0	-1E+10	1	-1E+10	1	-1E+10	1
4902624	46	C	09/24/2025	08:28	-129.416	48.964	0	69.00	0	9.1290	0	32.4880	0	25.133	0	68.404	0	-1e10	1	-1e10	1	-1E+10	1	-1e10	1	-1e10	1	-1E+10	1	-1E+10	1	-1E+10	1
4902624	46	C	09/24/2025	08:28	-129.416	48.964	0	69.50	0	9.1211	0	32.4935	0	25.138	0	68.899	0	206.1	4	72.3	4	-1E+10	1	0.1329	4	0.000490	0	-1E+10	1	-1E+10	1	-1E+10	1
4902624	46	C	09/24/2025	08:28	-129.416	48.964	0	70.30	0	9.1086	0	32.5022	0	25.147	0	69.692	0	204.6	4	71.8	4	-1E+10	1	0.1363	4	0.000505	0	-1E+10	1	-1E+10	1	-1E+10	1
4902624	46	C	09/24/2025	08:28	-129.416	48.964	0	71.10	0	9.0960	0	32.5110	0	25.156	0	70.485	0	-1e10	1	-1e10	1	-1E+10	1	-1e10	1	-1e10	1	-1E+10	1	-1E+10	1	-1E+10	1
4902624	46	C	09/24/2025	08:28	-129.416	48.964	0	71.20	0	9.0941	0	32.5121	0	25.157	0	70.584	0	203.3	4	71.3	4	-1E+10	1	0.1037	4	0.000457	0	-1E+10	1	-1E+10	1	-1E+10	1
4902624	46	C	09/24/2025	08:28	-129.416	48.964	0	72.00	0	9.0785	0	32.5205	0	25.166	0	71.377	0	201.9	4	70.8	4	-1E+10	1	0.1095	4	0.000448	0	-1E+10	1	-1E+10	1	-1E+10	1
4902624	46	C	09/24/2025	08:28	-129.416	48.964	0	73.00	0	9.0590	0	32.5310	0	25.178	0	72.368	0	196.9	4	69.0	4	-1E+10	1	0.1034	4	0.000526	0	-1E+10	1	-1E+10	1	-1E+10	1
4902624	46	C	09/24/2025	08:28	-129.416	48.964	0	73.90	0	9.0225	0	32.5544	0	25.202	0	73.260	0	198.9	4	69.7	4	-1E+10	1	0.0965	4	0.000460	0	-1E+10	1	-1E+10	1	-1E+10	1
4902624	46	C	09/24/2025	08:28	-129.416	48.964	0	74.90	0	8.9820	0	32.5804	0	25.228	0	74.251	0	197.5	4	69.1	4	-1E+10	1	0.0852	4	0.000444	0	-1E+10	1	-1E+10	1	-1E+10	1
4902624	46	C	09/24/2025	08:28	-129.416	48.964	0	75.00	0	8.9780	0	32.5830	0	25.231	0	74.351	0	-1e10	1	-1e10	1	-1E+10	1	-1e10	1	-1e10	1	-1E+10	1	-1E+10	1	-1E+10	1
4902624	46	C	09/24/2025	08:28	-129.416	48.964	0	76.00	0	8.9609	0	32.5968	0	25.244	0	75.342	0	196.3	4	68.7	4	-1E+10	1	0.0882	4	0.000435	0	-1E+10	1	-1E+10	1	-1E+10	1
4902624	46	C	09/24/2025	08:28	-129.416	48.964	0	77.00	0	8.9437	0	32.6106	0	25.258	0	76.333	0	194.7	4	68.1	4	-1E+10	1	0.0978	4	0.000410	0	-1E+10	1	-1E+10	1	-1E+10	1
4902624	46	C	09/24/2025	08:28	-129.416	48.964	0	77.10	0	8.9420	0	32.6120	0	25.259	0	76.432	0	-1e10	1	-1e10	1	-1E+10	1	-1e10	1	-1e10	1	-1E+10	1	-1E+10	1	-1E+10	1
4902624	46	C	09/24/2025	08:28	-129.416	48.964	0	78.00	0	8.9389	0	32.6147	0	25.262	0	77.324	0	193.0	4	67.5	4	-1E+10	1	0.1095	4	0.000444	0	-1E+10	1	-1E+10	1	-1E+10	1
4902624	46	C	09/24/2025	08:28	-129.416	48.964	0	79.00	0	8.9354	0	32.6177	0	25.265	0	78.315	0	191.2	4	66.9	4	-1E+10	1	0.1189	4	0.000528	0	-1E+10	1	-1E+10	1	-1E+10	1
4902624	46	C	09/24/2025	08:28	-129.416	48.964	0	79.10	0	8.9350	0	32.6180	0	25.265	0	78.414	0	-1e10	1	-1e10	1	-1E+10	1	-1e10	1	-1e10	1	-1E+10	1	-1E+10	1	-1E+10	1
4902624	46	C	09/24/2025	08:28	-129.416	48.964	0	80.20	0	8.9078	0	32.6452	0	25.291	0	79.505	0	189.2	4	66.2	4	-1E+10	1	0.0876	4	0.000378	0	-1E+10	1	-1E+10	1	-1E+10	1
4902624	46	C	09/24/2025	08:28	-129.416	48.964	0	81.00	0	8.8880	0	32.6650	0	25.309	0	80.297	0	-1e10	1	-1e10	1	-1E+10	1	-1e10	1	-1e10	1	-1E+10	1	-1E+10	1	-1E+10	1
4902624	46	C	09/24/2025	08:28	-129.416	48.964	0	81.20	0	8.8847	0	32.6687	0	25.313	0	80.496	0	187.3	4	65.5	4	-1E+10	1	0.0876	4	0.000366	0	-1E+10	1	-1E+10	1	-1E+10	1
4902624	46	C	09/24/2025	08:28	-129.416	48.964	0	82.30	0	8.8663	0	32.6891	0	25.331	0	81.586	0	185.5	4	64.8	4	-1E+10	1	0.0819	4	0.000329	0	-1E+10	1	-1E+10	1	-1E+10	1
4902624	46	C	09/24/2025	08:28	-129.416	48.964	0	83.10	0	8.8530	0	32.7040	0	25.345	0	82.379	0	-1e10	1	-1e10	1	-1E+10	1	-1e10	1	-1e10	1	-1E+10	1	-1E+10	1	-1E+10	1
4902624	46	C	09/24/2025	08:28	-129.416	48.964	0	83.50	0	8.8492	0	32.7088	0	25.349	0	82.775	0	183.9	4	64.2	4	-1E+10	1	0.0752	4	0.000384	0	-1E+10	1	-1E+10	1	-1E+10	1
4902624	46	C	09/24/2025	08:28	-129.416	48.964	0	84.60	0	8.8388	0	32.7222	0	25.361	0	83.865	0	182.0	4	63.6	4	-1E+10	1	0.0776	4	0.000377	0	-1E+10	1	-1E+10	1	-1E+10	1
4902624	46	C	09/24/2025	08:28	-129.416	48.964	0	85.00	0	8.8350	0	32.7270	0	25.366	0	84.262	0	-1e10	1	-1e10	1	-1E+10	1	-1e10	1	-1e10	1	-1E+10	1	-1E+10	1	-1E+10	1
4902624	46	C	09/24/2025	08:28	-129.416	48.964	0	85.70	0	8.8294	0	32.7365	0	25.374	0	84.956	0	179.8	4	62.8	4	-1E+10	1	0.0730	4	0.000396	0	-1E+10	1	-1E+10	1	-1E+10	1
4902624	46	C	09/24/2025	08:28	-129.416	48.964	0	86.80	0	8.8206	0	32.7513	0	25.387	0	86.046	0	176.8	4	61.7	4	-1E+10	1	0.0657	4	0.000418	0	-1E+10	1	-1E+10	1	-1E+10	1
4902624	46	C	09/24/2025	08:28	-129.416	48.964	0	87.00	0	8.8190	0	32.7540	0	25.389	0	86.244	0	-1e10	1	-1e10	1	-1E+10	1	-1e10	1	-1e10	1	-1E+10	1	-1E+10	1	-1E+10	1
4902624	46	C	09/24/2025	08:28	-129.416	48.964	0	87.90	0	8.8038	0	32.7791	0	25.411	0	87.136	0	174.4	4	60.9	4	-1E+10	1	0.0644	4	0.000380	0	-1E+10	1	-1E+10	1	-1E+10	1
4902624	46	C	09/24/2025	08:28	-129.416	48.964	0	88.90	0	8.7870	0	32.8070	0	25.436	0	88.127	0	-1e10	1	-1e10	1	-1E+10	1	-1e10	1	-1e10	1	-1E+10	1	-1E+10	1	-1E+10	1
4902624	46	C	09/24/2025	08:28	-129.416	48.964	0	89.00	0	8.7860	0	32.8082	0	25.437	0	88.226	0	172.3	4	60.1	4	-1E+10	1	0.0611	4	0.000391	0	-1E+10	1	-1E+10	1	-1E+10	1
4902624	46	C	09/24/2025	08:28	-129.416	48.964	0	90.10	0	8.7756	0	32.8213	0	25.449	0	89.317	0	170.1	4	59.4	4	-1E+10	1	0.0693	4	0.000395	0	-1E+10	1	-1E+10	1	-1E+10	1
4902624	46	C	09/24/2025	08:28	-129.416	48.964	0	91.00	0	8.7670	0	32.8320	0	25.459	0	90.209	0	-1e10	1	-1e10	1	-1E+10	1	-1e10	1	-1e10	1	-1E+10	1	-1E+10	1	-1E+10	1
4902624	46	C	09/24/2025	08:28	-129.416	48.964	0	91.10	0	8.7641	0	32.8349	0	25.461	0	90.308	0	167.4	4	58.4	4	-1E+10	1	0.0511	4	0.000366	0	-1E+10	1	-1E+10	1	-1E+10	1
4902624	46	C	09/24/2025	08:28	-129.416	48.964	0	92.10	0	8.7351	0	32.8633	0	25.488	0	91.299	0	164.0	4	57.2	4	-1E+10	1	0.0584	4	0.000389	0	-1E+10	1	-1E+10	1	-1E+10	1
4902624	46	C	09/24/2025	08:28	-129.416	48.964	0	93.00	0	8.7090	0	32.8890	0	25.512	0	92.191	0	157.3	4	54.8	4	-1E+10	1	0.0703	4	0.000456	0	-1E+10	1	-1E+10	1	-1E+10	1
4902624	46	C	09/24/2025	08:28	-129.416	48.964	0	93.70	0	8.6754	0	32.9166	0	25.539	0	92.884	0	158.2	4	55.1	4	-1E+10	1	0.0593	4	0.000405	0	-1E+10	1	-1E+10	1	-1E+10	1
4902624	46	C	09/24/2025	08:28	-129.416	48.964	0	94.40	0	8.6418	0	32.9443	0	25.566	0	93.578	0	156.0	4	54.3	4	-1E+10	1	0.0469	4	0.000352	0	-1E+10	1	-1E+10	1	-1E+10	1
4902624	46	C	09/24/2025	08:28	-129.416	48.964	0	95.00	0	8.6130	0	32.9680	0	25.589	0	94.173	0	-1e10	1	-1e10	1	-1E+10	1	-1e10	1	-1e10	1	-1E+10	1	-1E+10	1	-1E+10	1
4902624	46	C	09/24/2025	08:28	-129.416	48.964	0	95.10	0	8.6101	0	32.9700	0	25.591	0	94.272	0	154.0	4	53.6	4	-1E+10	1	0.0474	4	0.000389	0	-1E+10	1	-1E+10	1	-1E+10	1
4902624	46	C	09/24/2025	08:28	-129.416	48.964	0	95.80	0	8.5898	0	32.9840	0	25.605	0	94.966	0	152.0	4	52.9	4	-1E+10	1	0.0538	4	0.000405	0	-1E+10	1	-1E+10	1	-1E+10	1
4902624	46	C	09/24/2025	08:28	-129.416	48.964	0	96.50	0	8.5695	0	32.9980	0	25.619	0	95.659	0	149.8	4	52.1	4	-1E+10	1	0.0563	4	0.000351	0	-1E+10	1	-1E+10	1	-1E+10	1
4902624	46	C	09/24/2025	08:28	-129.416	48.964	0	97.00	0	8.5550	0	33.0080	0	25.629	0	96.155	0	-1e10	1	-1e10	1	-1E+10	1	-1e10	1	-1e10	1	-1E+10	1	-1E+10	1	-1E+10	1
4902624	46	C	09/24/2025	08:28	-129.416	48.964	0	97.10	0	8.5528	0	33.0102	0	25.631	0	96.254	0	147.5	4	51.3	4	-1E+10	1	0.0511	4	0.000343	0	-1E+10	1	-1E+10	1	-1E+10	1
4902624	46	C	09/24/2025	08:28	-129.416	48.964	0	97.80	0	8.5370	0	33.0252	0	25.645	0	96.948	0	144.7	4	50.3	4	-1E+10	1	0.0511	4	0.000342	0	-1E+10	1	-1E+10	1	-1E+10	1
4902624	46	C	09/24/2025	08:28	-129.416	48.964	0	98.50	0	8.5212	0	33.0402	0	25.659	0	97.642	0	142.1	4	49.4	4	-1E+10	1	0.0397	4	0.000360	0	-1E+10	1	-1E+10	1	-1E+10	1
4902624	46	C	09/24/2025	08:28	-129.416	48.964	0	99.00	0	8.5100	0	33.0510	0	25.669	0	98.137	0	-1e10	1	-1e10	1	-1E+10	1	-1e10	1	-1e10	1	-1E+10	1	-1E+10	1	-1E+10	1
4902624	46	C	09/24/2025	08:28	-129.416	48.964	0	99.30	0	8.5009	0	33.0627	0	25.680	0	98.434	0	139.3	4	48.4	4	-1E+10	1	0.0553	4	0.000366	0	-1E+10	1	-1E+10	1	-1E+10	1
4902624	46	C	09/24/2025	08:28	-129.416	48.964	0	100.00	0	8.4795	0	33.0900	0	25.705	0	99.128	0	136.4	4	47.4	4	-1E+10	1	0.0487	4	0.000327	0	-1E+10	1	-1E+10	1	-1E+10	1
4902624	46	C	09/24/2025	08:28	-129.416	48.964	0	100.80	0	8.4551	0	33.1213	0	25.733	0	99.921	0	134.2	4	46.6	4	-1E+10	1	0.0402	4	0.000319	0	-1E+10	1	-1E+10	1	-1E+10	1
4902624	46	C	09/24/2025	08:28	-129.416	48.964	0	101.10	0	8.4460	0	33.1330	0	25.743	0	100.218	0	-1e10	1	-1e10	1	-1E+10	1	-1e10	1	-1e10	1	-1E+10	1	-1E+10	1	-1E+10	1
4902624	46	C	09/24/2025	08:28	-129.416	48.964	0	101.70	0	8.4241	0	33.1618	0	25.769	0	100.813	0	131.8	4	45.8	4	-1E+10	1	0.0397	4	0.000330	0	-1E+10	1	-1E+10	1	-1E+10	1
4902624	46	C	09/24/2025	08:28	-129.416	48.964	0	102.50	0	8.3949	0	33.2002	0	25.804	0	101.606	0	129.9	4	45.1	4	-1E+10	1	0.0416	4	0.000355	0	-1E+10	1	-1E+10	1	-1E+10	1
4902624	46	C	09/24/2025	08:28	-129.416	48.964	0	103.10	0	8.3730	0	33.2290	0	25.830	0	102.200	0	-1e10	1	-1e10	1	-1E+10	1	-1e10	1	-1e10	1	-1E+10	1	-1E+10	1	-1E+10	1
4902624	46	C	09/24/2025	08:28	-129.416	48.964	0	103.40	0	8.3686	0	33.2359	0	25.836	0	102.498	0	128.2	4	44.5	4	-1E+10	1	0.0378	4	0.000393	0	-1E+10	1	-1E+10	1	-1E+10	1
4902624	46	C	09/24/2025	08:28	-129.416	48.964	0	104.30	0	8.3553	0	33.2568	0	25.854	0	103.390	0	126.4	4	43.8	4	-1E+10	1	0.0438	4	0.000307	0	-1E+10	1	-1E+10	1	-1E+10	1
4902624	46	C	09/24/2025	08:28	-129.416	48.964	0	105.00	0	8.3450	0	33.2730	0	25.868	0	104.083	0	-1e10	1	-1e10	1	-1E+10	1	-1e10	1	-1e10	1	-1E+10	1	-1E+10	1	-1E+10	1
4902624	46	C	09/24/2025	08:28	-129.416	48.964	0	105.20	0	8.3439	0	33.2762	0	25.871	0	104.281	0	124.6	4	43.2	4	-1E+10	1	0.0511	4	0.000377	0	-1E+10	1	-1E+10	1	-1E+10	1
4902624	46	C	09/24/2025	08:28	-129.416	48.964	0	106.10	0	8.3392	0	33.2904	0	25.883	0	105.173	0	123.2	4	42.7	4	-1E+10	1	0.0571	4	0.000349	0	-1E+10	1	-1E+10	1	-1E+10	1
4902624	46	C	09/24/2025	08:28	-129.416	48.964	0	106.90	0	8.3350	0	33.3030	0	25.893	0	105.966	0	-1e10	1	-1e10	1	-1E+10	1	-1e10	1	-1e10	1	-1E+10	1	-1E+10	1	-1E+10	1
4902624	46	C	09/24/2025	08:28	-129.416	48.964	0	107.00	0	8.3343	0	33.3051	0	25.895	0	106.065	0	121.7	4	42.2	4	-1E+10	1	0.0431	4	0.000317	0	-1E+10	1	-1E+10	1	-1E+10	1
4902624	46	C	09/24/2025	08:28	-129.416	48.964	0	107.90	0	8.3275	0	33.3240	0	25.911	0	106.957	0	120.2	4	41.7	4	-1E+10	1	0.0462	4	0.000291	0	-1E+10	1	-1E+10	1	-1E+10	1
4902624	46	C	09/24/2025	08:28	-129.416	48.964	0	108.80	0	8.3207	0	33.3429	0	25.927	0	107.849	0	118.6	4	41.1	4	-1E+10	1	0.0511	4	0.000309	0	-1E+10	1	-1E+10	1	-1E+10	1
4902624	46	C	09/24/2025	08:28	-129.416	48.964	0	108.90	0	8.3200	0	33.3450	0	25.929	0	107.948	0	-1e10	1	-1e10	1	-1E+10	1	-1e10	1	-1e10	1	-1E+10	1	-1E+10	1	-1E+10	1
4902624	46	C	09/24/2025	08:28	-129.416	48.964	0	109.70	0	8.3013	0	33.3614	0	25.944	0	108.741	0	117.1	4	40.6	4	-1E+10	1	0.0538	4	0.000326	0	-1E+10	1	-1E+10	1	-1E+10	1
4902624	46	C	09/24/2025	08:28	-129.416	48.964	0	110.60	0	8.2803	0	33.3798	0	25.962	0	109.633	0	115.7	4	40.1	4	-1E+10	1	0.0555	4	0.000316	0	-1E+10	1	-1E+10	1	-1E+10	1
4902624	46	C	09/24/2025	08:28	-129.416	48.964	0	111.00	0	8.2710	0	33.3880	0	25.970	0	110.029	0	-1e10	1	-1e10	1	-1E+10	1	-1e10	1	-1e10	1	-1E+10	1	-1E+10	1	-1E+10	1
4902624	46	C	09/24/2025	08:28	-129.416	48.964	0	111.60	0	8.2650	0	33.3935	0	25.975	0	110.624	0	114.2	4	39.6	4	-1E+10	1	0.0450	4	0.000309	0	-1E+10	1	-1E+10	1	-1E+10	1
4902624	46	C	09/24/2025	08:28	-129.416	48.964	0	112.60	0	8.2550	0	33.4025	0	25.984	0	111.615	0	112.5	4	39.0	4	-1E+10	1	0.0511	4	0.000319	0	-1E+10	1	-1E+10	1	-1E+10	1
4902624	46	C	09/24/2025	08:28	-129.416	48.964	0	113.20	0	8.2490	0	33.4080	0	25.989	0	112.209	0	-1e10	1	-1e10	1	-1E+10	1	-1e10	1	-1e10	1	-1E+10	1	-1E+10	1	-1E+10	1
4902624	46	C	09/24/2025	08:28	-129.416	48.964	0	113.50	0	8.2559	0	33.4103	0	25.990	0	112.507	0	110.5	4	38.3	4	-1E+10	1	0.0451	4	0.000338	0	-1E+10	1	-1E+10	1	-1E+10	1
4902624	46	C	09/24/2025	08:28	-129.416	48.964	0	114.50	0	8.2788	0	33.4179	0	25.992	0	113.498	0	108.4	4	37.6	4	-1E+10	1	0.0496	4	0.000323	0	-1E+10	1	-1E+10	1	-1E+10	1
4902624	46	C	09/24/2025	08:28	-129.416	48.964	0	114.90	0	8.2880	0	33.4210	0	25.993	0	113.894	0	-1e10	1	-1e10	1	-1E+10	1	-1e10	1	-1e10	1	-1E+10	1	-1E+10	1	-1E+10	1
4902624	46	C	09/24/2025	08:28	-129.416	48.964	0	115.50	0	8.2977	0	33.4359	0	26.003	0	114.489	0	106.8	4	37.1	4	-1E+10	1	0.0608	4	0.000319	0	-1E+10	1	-1E+10	1	-1E+10	1
4902624	46	C	09/24/2025	08:28	-129.416	48.964	0	116.50	0	8.3139	0	33.4606	0	26.020	0	115.480	0	105.4	4	36.6	4	-1E+10	1	0.0511	4	0.000330	0	-1E+10	1	-1E+10	1	-1E+10	1
4902624	46	C	09/24/2025	08:28	-129.416	48.964	0	117.00	0	8.3220	0	33.4730	0	26.029	0	115.975	0	-1e10	1	-1e10	1	-1E+10	1	-1e10	1	-1e10	1	-1E+10	1	-1E+10	1	-1E+10	1
4902624	46	C	09/24/2025	08:28	-129.416	48.964	0	117.50	0	8.3145	0	33.4837	0	26.038	0	116.471	0	104.3	4	36.2	4	-1E+10	1	0.0394	4	0.000323	0	-1E+10	1	-1E+10	1	-1E+10	1
4902624	46	C	09/24/2025	08:28	-129.416	48.964	0	118.50	0	8.2995	0	33.5052	0	26.058	0	117.462	0	103.2	4	35.8	4	-1E+10	1	0.0414	4	0.000303	0	-1E+10	1	-1E+10	1	-1E+10	1
4902624	46	C	09/24/2025	08:28	-129.416	48.964	0	119.00	0	8.2920	0	33.5160	0	26.067	0	117.957	0	-1e10	1	-1e10	1	-1E+10	1	-1e10	1	-1e10	1	-1E+10	1	-1E+10	1	-1E+10	1
4902624	46	C	09/24/2025	08:28	-129.416	48.964	0	119.50	0	8.2825	0	33.5232	0	26.074	0	118.452	0	102.2	4	35.5	4	-1E+10	1	0.0389	4	0.000322	0	-1E+10	1	-1E+10	1	-1E+10	1
4902624	46	C	09/24/2025	08:28	-129.416	48.964	0	120.50	0	8.2635	0	33.5378	0	26.089	0	119.443	0	101.3	4	35.1	4	-1E+10	1	0.0511	4	0.000342	0	-1E+10	1	-1E+10	1	-1E+10	1
4902624	46	C	09/24/2025	08:28	-129.416	48.964	0	121.00	0	8.2540	0	33.5450	0	26.096	0	119.939	0	-1e10	1	-1e10	1	-1E+10	1	-1e10	1	-1e10	1	-1E+10	1	-1E+10	1	-1E+10	1
4902624	46	C	09/24/2025	08:28	-129.416	48.964	0	121.50	0	8.2472	0	33.5512	0	26.102	0	120.434	0	100.2	4	34.8	4	-1E+10	1	0.0584	4	0.000319	0	-1E+10	1	-1E+10	1	-1E+10	1
4902624	46	C	09/24/2025	08:28	-129.416	48.964	0	122.60	0	8.2324	0	33.5650	0	26.115	0	121.524	0	99.4	4	34.5	4	-1E+10	1	0.0460	4	0.000328	0	-1E+10	1	-1E+10	1	-1E+10	1
4902624	46	C	09/24/2025	08:28	-129.416	48.964	0	123.00	0	8.2270	0	33.5700	0	26.119	0	121.921	0	-1e10	1	-1e10	1	-1E+10	1	-1e10	1	-1e10	1	-1E+10	1	-1E+10	1	-1E+10	1
4902624	46	C	09/24/2025	08:28	-129.416	48.964	0	123.60	0	8.2198	0	33.5739	0	26.123	0	122.515	0	98.6	4	34.2	4	-1E+10	1	0.0389	4	0.000322	0	-1E+10	1	-1E+10	1	-1E+10	1
4902624	46	C	09/24/2025	08:28	-129.416	48.964	0	124.60	0	8.2078	0	33.5804	0	26.130	0	123.506	0	97.7	4	33.9	4	-1E+10	1	0.0445	4	0.000299	0	-1E+10	1	-1E+10	1	-1E+10	1
4902624	46	C	09/24/2025	08:28	-129.416	48.964	0	125.00	0	8.2030	0	33.5830	0	26.133	0	123.903	0	-1e10	1	-1e10	1	-1E+10	1	-1e10	1	-1e10	1	-1E+10	1	-1E+10	1	-1E+10	1
4902624	46	C	09/24/2025	08:28	-129.416	48.964	0	125.70	0	8.1869	0	33.5942	0	26.144	0	124.596	0	96.8	4	33.5	4	-1E+10	1	0.0477	4	0.000294	0	-1E+10	1	-1E+10	1	-1E+10	1
4902624	46	C	09/24/2025	08:28	-129.416	48.964	0	126.80	0	8.1616	0	33.6118	0	26.162	0	125.686	0	95.9	4	33.2	4	-1E+10	1	0.0460	4	0.000307	0	-1E+10	1	-1E+10	1	-1E+10	1
4902624	46	C	09/24/2025	08:28	-129.416	48.964	0	127.00	0	8.1570	0	33.6150	0	26.165	0	125.884	0	-1e10	1	-1e10	1	-1E+10	1	-1e10	1	-1e10	1	-1E+10	1	-1E+10	1	-1E+10	1
4902624	46	C	09/24/2025	08:28	-129.416	48.964	0	127.90	0	8.1423	0	33.6268	0	26.177	0	126.776	0	95.1	4	32.9	4	-1E+10	1	0.0482	4	0.000311	0	-1E+10	1	-1E+10	1	-1E+10	1
4902624	46	C	09/24/2025	08:28	-129.416	48.964	0	128.90	0	8.1260	0	33.6400	0	26.189	0	127.767	0	91.9	4	31.8	4	-1E+10	1	0.0399	4	0.000327	0	-1E+10	1	-1E+10	1	-1E+10	1
4902624	46	C	09/24/2025	08:28	-129.416	48.964	0	130.00	0	8.1354	0	33.6479	0	26.194	0	128.857	0	93.6	4	32.4	4	-1E+10	1	0.0584	4	0.000307	0	-1E+10	1	-1E+10	1	-1E+10	1
4902624	46	C	09/24/2025	08:28	-129.416	48.964	0	131.00	0	8.1440	0	33.6550	0	26.198	0	129.848	0	-1e10	1	-1e10	1	-1E+10	1	-1e10	1	-1e10	1	-1E+10	1	-1E+10	1	-1E+10	1
4902624	46	C	09/24/2025	08:28	-129.416	48.964	0	131.10	0	8.1430	0	33.6555	0	26.199	0	129.947	0	93.1	4	32.3	4	-1E+10	1	0.0460	4	0.000297	0	-1E+10	1	-1E+10	1	-1E+10	1
4902624	46	C	09/24/2025	08:28	-129.416	48.964	0	132.20	0	8.1326	0	33.6607	0	26.205	0	131.037	0	92.8	4	32.1	4	-1E+10	1	0.0378	4	0.000333	0	-1E+10	1	-1E+10	1	-1E+10	1
4902624	46	C	09/24/2025	08:28	-129.416	48.964	0	133.10	0	8.1240	0	33.6650	0	26.209	0	131.929	0	-1e10	1	-1e10	1	-1E+10	1	-1e10	1	-1e10	1	-1E+10	1	-1E+10	1	-1E+10	1
4902624	46	C	09/24/2025	08:28	-129.416	48.964	0	133.30	0	8.1196	0	33.6664	0	26.211	0	132.127	0	92.2	4	31.9	4	-1E+10	1	0.0517	4	0.000309	0	-1E+10	1	-1E+10	1	-1E+10	1
4902624	46	C	09/24/2025	08:28	-129.416	48.964	0	134.30	0	8.0975	0	33.6732	0	26.220	0	133.118	0	91.5	4	31.7	4	-1E+10	1	0.0550	4	0.000300	0	-1E+10	1	-1E+10	1	-1E+10	1
4902624	46	C	09/24/2025	08:28	-129.416	48.964	0	135.00	0	8.0820	0	33.6780	0	26.226	0	133.812	0	-1e10	1	-1e10	1	-1E+10	1	-1e10	1	-1e10	1	-1E+10	1	-1E+10	1	-1E+10	1
4902624	46	C	09/24/2025	08:28	-129.416	48.964	0	135.50	0	8.0842	0	33.6818	0	26.228	0	134.307	0	90.9	4	31.5	4	-1E+10	1	0.0511	4	0.000312	0	-1E+10	1	-1E+10	1	-1E+10	1
4902624	46	C	09/24/2025	08:28	-129.416	48.964	0	136.60	0	8.0892	0	33.6900	0	26.234	0	135.397	0	90.6	4	31.3	4	-1E+10	1	0.0511	4	0.000318	0	-1E+10	1	-1E+10	1	-1E+10	1
4902624	46	C	09/24/2025	08:28	-129.416	48.964	0	137.00	0	8.0910	0	33.6930	0	26.236	0	135.793	0	-1e10	1	-1e10	1	-1E+10	1	-1e10	1	-1e10	1	-1E+10	1	-1E+10	1	-1E+10	1
4902624	46	C	09/24/2025	08:28	-129.416	48.964	0	137.70	0	8.0899	0	33.6940	0	26.237	0	136.487	0	90.3	4	31.2	4	-1E+10	1	0.0489	4	0.000315	0	-1E+10	1	-1E+10	1	-1E+10	1
4902624	46	C	09/24/2025	08:28	-129.416	48.964	0	138.80	0	8.0883	0	33.6957	0	26.239	0	137.577	0	90.0	4	31.1	4	-1E+10	1	0.0365	4	0.000295	0	-1E+10	1	-1E+10	1	-1E+10	1
4902624	46	C	09/24/2025	08:28	-129.416	48.964	0	139.00	0	8.0880	0	33.6960	0	26.239	0	137.775	0	-1e10	1	-1e10	1	-1E+10	1	-1e10	1	-1e10	1	-1E+10	1	-1E+10	1	-1E+10	1
4902624	46	C	09/24/2025	08:28	-129.416	48.964	0	139.90	0	8.0759	0	33.6992	0	26.243	0	138.667	0	89.7	4	31.0	4	-1E+10	1	0.0584	4	0.000342	0	-1E+10	1	-1E+10	1	-1E+10	1
4902624	46	C	09/24/2025	08:28	-129.416	48.964	0	141.00	0	8.0610	0	33.7030	0	26.249	0	139.757	0	86.9	4	30.1	4	-1E+10	1	0.0522	4	0.000322	0	-1E+10	1	-1E+10	1	-1E+10	1
4902624	46	C	09/24/2025	08:28	-129.416	48.964	0	142.10	0	8.0363	0	33.7118	0	26.259	0	140.847	0	88.7	4	30.6	4	-1E+10	1	0.0562	4	0.000302	0	-1E+10	1	-1E+10	1	-1E+10	1
4902624	46	C	09/24/2025	08:28	-129.416	48.964	0	143.00	0	8.0160	0	33.7190	0	26.268	0	141.738	0	-1e10	1	-1e10	1	-1E+10	1	-1e10	1	-1e10	1	-1E+10	1	-1E+10	1	-1E+10	1
4902624	46	C	09/24/2025	08:28	-129.416	48.964	0	143.20	0	8.0148	0	33.7200	0	26.269	0	141.937	0	88.2	4	30.5	4	-1E+10	1	0.0499	4	0.000302	0	-1E+10	1	-1E+10	1	-1E+10	1
4902624	46	C	09/24/2025	08:28	-129.416	48.964	0	144.40	0	8.0073	0	33.7257	0	26.274	0	143.126	0	87.9	4	30.3	4	-1E+10	1	0.0438	4	0.000300	0	-1E+10	1	-1E+10	1	-1E+10	1
4902624	46	C	09/24/2025	08:28	-129.416	48.964	0	145.10	0	8.0030	0	33.7290	0	26.278	0	143.819	0	-1e10	1	-1e10	1	-1E+10	1	-1e10	1	-1e10	1	-1E+10	1	-1E+10	1	-1E+10	1
4902624	46	C	09/24/2025	08:28	-129.416	48.964	0	145.50	0	8.0011	0	33.7303	0	26.279	0	144.215	0	87.5	4	30.2	4	-1E+10	1	0.0416	4	0.000309	0	-1E+10	1	-1E+10	1	-1E+10	1
4902624	46	C	09/24/2025	08:28	-129.416	48.964	0	146.70	0	7.9954	0	33.7341	0	26.283	0	145.404	0	87.2	4	30.1	4	-1E+10	1	0.0347	4	0.000324	0	-1E+10	1	-1E+10	1	-1E+10	1
4902624	46	C	09/24/2025	08:28	-129.416	48.964	0	147.00	0	7.9940	0	33.7350	0	26.284	0	145.702	0	-1e10	1	-1e10	1	-1E+10	1	-1e10	1	-1e10	1	-1E+10	1	-1E+10	1	-1E+10	1
4902624	46	C	09/24/2025	08:28	-129.416	48.964	0	147.80	0	7.9812	0	33.7398	0	26.289	0	146.494	0	87.1	4	30.1	4	-1E+10	1	0.0326	4	0.000279	0	-1E+10	1	-1E+10	1	-1E+10	1
4902624	46	C	09/24/2025	08:28	-129.416	48.964	0	148.90	0	7.9636	0	33.7464	0	26.297	0	147.584	0	86.9	4	30.0	4	-1E+10	1	0.0511	4	0.000318	0	-1E+10	1	-1E+10	1	-1E+10	1
4902624	46	C	09/24/2025	08:28	-129.416	48.964	0	149.00	0	7.9620	0	33.7470	0	26.298	0	147.683	0	-1e10	1	-1e10	1	-1E+10	1	-1e10	1	-1e10	1	-1E+10	1	-1E+10	1	-1E+10	1
4902624	46	C	09/24/2025	08:28	-129.416	48.964	0	150.10	0	7.9479	0	33.7533	0	26.305	0	148.773	0	86.6	4	29.9	4	-1E+10	1	0.0438	4	0.000342	0	-1E+10	1	-1E+10	1	-1E+10	1
4902624	46	C	09/24/2025	08:28	-129.416	48.964	0	150.90	0	7.9376	0	33.7579	0	26.310	0	149.566	0	86.6	4	29.9	4	-1E+10	1	0.0633	4	0.000321	0	-1E+10	1	-1E+10	1	-1E+10	1
4902624	46	C	09/24/2025	08:28	-129.416	48.964	0	151.10	0	7.9350	0	33.7590	0	26.311	0	149.764	0	-1e10	1	-1e10	1	-1E+10	1	-1e10	1	-1e10	1	-1E+10	1	-1E+10	1	-1E+10	1
4902624	46	C	09/24/2025	08:28	-129.416	48.964	0	151.60	0	7.9317	0	33.7600	0	26.312	0	150.259	0	86.6	4	29.9	4	-1E+10	1	0.0511	4	0.000318	0	-1E+10	1	-1E+10	1	-1E+10	1
4902624	46	C	09/24/2025	08:28	-129.416	48.964	0	152.30	0	7.9270	0	33.7613	0	26.314	0	150.953	0	86.6	4	29.9	4	-1E+10	1	0.0511	4	0.000324	0	-1E+10	1	-1E+10	1	-1E+10	1
4902624	46	C	09/24/2025	08:28	-129.416	48.964	0	153.00	0	7.9223	0	33.7626	0	26.316	0	151.646	0	86.5	4	29.8	4	-1E+10	1	0.0490	4	0.000315	0	-1E+10	1	-1E+10	1	-1E+10	1
4902624	46	C	09/24/2025	08:28	-129.416	48.964	0	153.20	0	7.9210	0	33.7630	0	26.316	0	151.845	0	-1e10	1	-1e10	1	-1E+10	1	-1e10	1	-1e10	1	-1E+10	1	-1E+10	1	-1E+10	1
4902624	46	C	09/24/2025	08:28	-129.416	48.964	0	153.70	0	7.9181	0	33.7633	0	26.317	0	152.340	0	86.4	4	29.8	4	-1E+10	1	0.0396	4	0.000300	0	-1E+10	1	-1E+10	1	-1E+10	1
4902624	46	C	09/24/2025	08:28	-129.416	48.964	0	154.40	0	7.9139	0	33.7637	0	26.318	0	153.034	0	86.2	4	29.7	4	-1E+10	1	0.0462	4	0.000334	0	-1E+10	1	-1E+10	1	-1E+10	1
4902624	46	C	09/24/2025	08:28	-129.416	48.964	0	154.90	0	7.9110	0	33.7640	0	26.319	0	153.529	0	-1e10	1	-1e10	1	-1E+10	1	-1e10	1	-1e10	1	-1E+10	1	-1E+10	1	-1E+10	1
4902624	46	C	09/24/2025	08:28	-129.416	48.964	0	155.20	0	7.9081	0	33.7644	0	26.319	0	153.826	0	86.0	4	29.6	4	-1E+10	1	0.0511	4	0.000379	0	-1E+10	1	-1E+10	1	-1E+10	1
4902624	46	C	09/24/2025	08:28	-129.416	48.964	0	155.90	0	7.9015	0	33.7654	0	26.321	0	154.520	0	85.7	4	29.5	4	-1E+10	1	0.0511	4	0.000346	0	-1E+10	1	-1E+10	1	-1E+10	1
4902624	46	C	09/24/2025	08:28	-129.416	48.964	0	156.60	0	7.8948	0	33.7664	0	26.323	0	155.213	0	85.4	4	29.4	4	-1E+10	1	0.0511	4	0.000318	0	-1E+10	1	-1E+10	1	-1E+10	1
4902624	46	C	09/24/2025	08:28	-129.416	48.964	0	157.00	0	7.8910	0	33.7670	0	26.324	0	155.610	0	-1e10	1	-1e10	1	-1E+10	1	-1e10	1	-1e10	1	-1E+10	1	-1E+10	1	-1E+10	1
4902624	46	C	09/24/2025	08:28	-129.416	48.964	0	157.40	0	7.8862	0	33.7691	0	26.326	0	156.006	0	85.0	4	29.3	4	-1E+10	1	0.0511	4	0.000297	0	-1E+10	1	-1E+10	1	-1E+10	1
4902624	46	C	09/24/2025	08:28	-129.416	48.964	0	158.10	0	7.8779	0	33.7728	0	26.330	0	156.699	0	84.7	4	29.2	4	-1E+10	1	0.0292	4	0.000365	0	-1E+10	1	-1E+10	1	-1E+10	1
4902624	46	C	09/24/2025	08:28	-129.416	48.964	0	158.90	0	7.8684	0	33.7770	0	26.335	0	157.492	0	84.5	4	29.1	4	-1E+10	1	0.0462	4	0.000334	0	-1E+10	1	-1E+10	1	-1E+10	1
4902624	46	C	09/24/2025	08:28	-129.416	48.964	0	159.10	0	7.8660	0	33.7780	0	26.336	0	157.690	0	-1e10	1	-1e10	1	-1E+10	1	-1e10	1	-1e10	1	-1E+10	1	-1E+10	1	-1E+10	1
4902624	46	C	09/24/2025	08:28	-129.416	48.964	0	159.70	0	7.8559	0	33.7815	0	26.341	0	158.285	0	84.3	4	29.0	4	-1E+10	1	0.0543	4	0.000326	0	-1E+10	1	-1E+10	1	-1E+10	1
4902624	46	C	09/24/2025	08:28	-129.416	48.964	0	160.50	0	7.8424	0	33.7861	0	26.346	0	159.077	0	84.0	4	28.9	4	-1E+10	1	0.0548	4	0.000330	0	-1E+10	1	-1E+10	1	-1E+10	1
4902624	46	C	09/24/2025	08:28	-129.416	48.964	0	161.00	0	7.8340	0	33.7890	0	26.350	0	159.573	0	-1e10	1	-1e10	1	-1E+10	1	-1e10	1	-1e10	1	-1E+10	1	-1E+10	1	-1E+10	1
4902624	46	C	09/24/2025	08:28	-129.416	48.964	0	161.20	0	7.8328	0	33.7895	0	26.350	0	159.771	0	83.8	4	28.8	4	-1E+10	1	0.0562	4	0.000332	0	-1E+10	1	-1E+10	1	-1E+10	1
4902624	46	C	09/24/2025	08:28	-129.416	48.964	0	162.00	0	7.8280	0	33.7915	0	26.353	0	160.563	0	83.6	4	28.8	4	-1E+10	1	0.0511	4	0.000360	0	-1E+10	1	-1E+10	1	-1E+10	1
4902624	46	C	09/24/2025	08:28	-129.416	48.964	0	162.90	0	7.8226	0	33.7937	0	26.355	0	161.455	0	83.4	4	28.7	4	-1E+10	1	0.0511	4	0.000318	0	-1E+10	1	-1E+10	1	-1E+10	1
4902624	46	C	09/24/2025	08:28	-129.416	48.964	0	163.00	0	7.8220	0	33.7940	0	26.355	0	161.554	0	-1e10	1	-1e10	1	-1E+10	1	-1e10	1	-1e10	1	-1E+10	1	-1E+10	1	-1E+10	1
4902624	46	C	09/24/2025	08:28	-129.416	48.964	0	163.70	0	7.8139	0	33.7966	0	26.359	0	162.248	0	83.2	4	28.6	4	-1E+10	1	0.0438	4	0.000377	0	-1E+10	1	-1E+10	1	-1E+10	1
4902624	46	C	09/24/2025	08:28	-129.416	48.964	0	164.50	0	7.8046	0	33.7995	0	26.362	0	163.040	0	83.1	4	28.6	4	-1E+10	1	0.0380	4	0.000320	0	-1E+10	1	-1E+10	1	-1E+10	1
4902624	46	C	09/24/2025	08:28	-129.416	48.964	0	164.90	0	7.8000	0	33.8010	0	26.364	0	163.437	0	-1e10	1	-1e10	1	-1E+10	1	-1e10	1	-1e10	1	-1E+10	1	-1E+10	1	-1E+10	1
4902624	46	C	09/24/2025	08:28	-129.416	48.964	0	165.40	0	7.7952	0	33.8024	0	26.366	0	163.932	0	83.0	4	28.5	4	-1E+10	1	0.0467	4	0.000315	0	-1E+10	1	-1E+10	1	-1E+10	1
4902624	46	C	09/24/2025	08:28	-129.416	48.964	0	166.20	0	7.7876	0	33.8047	0	26.369	0	164.724	0	82.9	4	28.5	4	-1E+10	1	0.0470	4	0.000331	0	-1E+10	1	-1E+10	1	-1E+10	1
4902624	46	C	09/24/2025	08:28	-129.416	48.964	0	167.00	0	7.7800	0	33.8070	0	26.372	0	165.517	0	-1e10	1	-1e10	1	-1E+10	1	-1e10	1	-1e10	1	-1E+10	1	-1E+10	1	-1E+10	1
4902624	46	C	09/24/2025	08:28	-129.416	48.964	0	167.10	0	7.7797	0	33.8071	0	26.372	0	165.616	0	82.8	4	28.5	4	-1E+10	1	0.0438	4	0.000347	0	-1E+10	1	-1E+10	1	-1E+10	1
4902624	46	C	09/24/2025	08:28	-129.416	48.964	0	168.00	0	7.7765	0	33.8080	0	26.373	0	166.508	0	82.7	4	28.4	4	-1E+10	1	0.0438	4	0.000345	0	-1E+10	1	-1E+10	1	-1E+10	1
4902624	46	C	09/24/2025	08:28	-129.416	48.964	0	168.80	0	7.7737	0	33.8088	0	26.374	0	167.300	0	82.6	4	28.4	4	-1E+10	1	0.0446	4	0.000330	0	-1E+10	1	-1E+10	1	-1E+10	1
4902624	46	C	09/24/2025	08:28	-129.416	48.964	0	169.00	0	7.7730	0	33.8090	0	26.374	0	167.498	0	-1e10	1	-1e10	1	-1E+10	1	-1e10	1	-1e10	1	-1E+10	1	-1E+10	1	-1E+10	1
4902624	46	C	09/24/2025	08:28	-129.416	48.964	0	169.70	0	7.7671	0	33.8101	0	26.376	0	168.192	0	82.5	4	28.4	4	-1E+10	1	0.0518	4	0.000326	0	-1E+10	1	-1E+10	1	-1E+10	1
4902624	46	C	09/24/2025	08:28	-129.416	48.964	0	170.60	0	7.7595	0	33.8115	0	26.378	0	169.084	0	82.3	4	28.3	4	-1E+10	1	0.0584	4	0.000295	0	-1E+10	1	-1E+10	1	-1E+10	1
4902624	46	C	09/24/2025	08:28	-129.416	48.964	0	170.90	0	7.7570	0	33.8120	0	26.379	0	169.381	0	-1e10	1	-1e10	1	-1E+10	1	-1e10	1	-1e10	1	-1E+10	1	-1E+10	1	-1E+10	1
4902624	46	C	09/24/2025	08:28	-129.416	48.964	0	171.50	0	7.7524	0	33.8131	0	26.381	0	169.975	0	82.2	4	28.2	4	-1E+10	1	0.0524	4	0.000285	0	-1E+10	1	-1E+10	1	-1E+10	1
4902624	46	C	09/24/2025	08:28	-129.416	48.964	0	172.40	0	7.7456	0	33.8149	0	26.383	0	170.867	0	82.0	4	28.2	4	-1E+10	1	0.0397	4	0.000329	0	-1E+10	1	-1E+10	1	-1E+10	1
4902624	46	C	09/24/2025	08:28	-129.416	48.964	0	173.00	0	7.7410	0	33.8160	0	26.385	0	171.461	0	-1e10	1	-1e10	1	-1E+10	1	-1e10	1	-1e10	1	-1E+10	1	-1E+10	1	-1E+10	1
4902624	46	C	09/24/2025	08:28	-129.416	48.964	0	173.30	0	7.7374	0	33.8169	0	26.386	0	171.758	0	81.9	4	28.1	4	-1E+10	1	0.0365	4	0.000356	0	-1E+10	1	-1E+10	1	-1E+10	1
4902624	46	C	09/24/2025	08:28	-129.416	48.964	0	174.20	0	7.7266	0	33.8196	0	26.389	0	172.650	0	81.8	4	28.1	4	-1E+10	1	0.0402	4	0.000330	0	-1E+10	1	-1E+10	1	-1E+10	1
4902624	46	C	09/24/2025	08:28	-129.416	48.964	0	175.00	0	7.7170	0	33.8220	0	26.393	0	173.443	0	-1e10	1	-1e10	1	-1E+10	1	-1e10	1	-1e10	1	-1E+10	1	-1E+10	1	-1E+10	1
4902624	46	C	09/24/2025	08:28	-129.416	48.964	0	175.10	0	7.7162	0	33.8223	0	26.393	0	173.542	0	81.7	4	28.1	4	-1E+10	1	0.0503	4	0.000342	0	-1E+10	1	-1E+10	1	-1E+10	1
4902624	46	C	09/24/2025	08:28	-129.416	48.964	0	176.00	0	7.7095	0	33.8245	0	26.396	0	174.433	0	81.7	4	28.0	4	-1E+10	1	0.0531	4	0.000370	0	-1E+10	1	-1E+10	1	-1E+10	1
4902624	46	C	09/24/2025	08:28	-129.416	48.964	0	176.80	0	7.7035	0	33.8265	0	26.398	0	175.226	0	81.7	4	28.0	4	-1E+10	1	0.0445	4	0.000318	0	-1E+10	1	-1E+10	1	-1E+10	1
4902624	46	C	09/24/2025	08:28	-129.416	48.964	0	177.00	0	7.7020	0	33.8270	0	26.399	0	175.424	0	-1e10	1	-1e10	1	-1E+10	1	-1e10	1	-1e10	1	-1E+10	1	-1E+10	1	-1E+10	1
4902624	46	C	09/24/2025	08:28	-129.416	48.964	0	177.70	0	7.6912	0	33.8288	0	26.402	0	176.117	0	81.7	4	28.0	4	-1E+10	1	0.0511	4	0.000318	0	-1E+10	1	-1E+10	1	-1E+10	1
4902624	46	C	09/24/2025	08:28	-129.416	48.964	0	178.60	0	7.6772	0	33.8310	0	26.406	0	177.009	0	81.7	4	28.0	4	-1E+10	1	0.0292	4	0.000412	0	-1E+10	1	-1E+10	1	-1E+10	1
4902624	46	C	09/24/2025	08:28	-129.416	48.964	0	179.00	0	7.6710	0	33.8320	0	26.407	0	177.405	0	-1e10	1	-1e10	1	-1E+10	1	-1e10	1	-1e10	1	-1E+10	1	-1E+10	1	-1E+10	1
4902624	46	C	09/24/2025	08:28	-129.416	48.964	0	179.40	0	7.6688	0	33.8322	0	26.408	0	177.802	0	81.5	4	28.0	4	-1E+10	1	0.0409	4	0.000440	0	-1E+10	1	-1E+10	1	-1E+10	1
4902624	46	C	09/24/2025	08:28	-129.416	48.964	0	180.40	0	7.6633	0	33.8327	0	26.409	0	178.792	0	81.3	4	27.9	4	-1E+10	1	0.0487	4	0.000439	0	-1E+10	1	-1E+10	1	-1E+10	1
4902624	46	C	09/24/2025	08:28	-129.416	48.964	0	181.00	0	7.6600	0	33.8330	0	26.410	0	179.387	0	-1e10	1	-1e10	1	-1E+10	1	-1e10	1	-1e10	1	-1E+10	1	-1E+10	1	-1E+10	1
4902624	46	C	09/24/2025	08:28	-129.416	48.964	0	181.40	0	7.6598	0	33.8336	0	26.410	0	179.783	0	81.2	4	27.9	4	-1E+10	1	0.0462	4	0.000326	0	-1E+10	1	-1E+10	1	-1E+10	1
4902624	46	C	09/24/2025	08:28	-129.416	48.964	0	182.30	0	7.6594	0	33.8349	0	26.411	0	180.674	0	81.2	4	27.9	4	-1E+10	1	0.0438	4	0.000300	0	-1E+10	1	-1E+10	1	-1E+10	1
4902624	46	C	09/24/2025	08:28	-129.416	48.964	0	183.10	0	7.6590	0	33.8360	0	26.412	0	181.467	0	-1e10	1	-1e10	1	-1E+10	1	-1e10	1	-1e10	1	-1E+10	1	-1E+10	1	-1E+10	1
4902624	46	C	09/24/2025	08:28	-129.416	48.964	0	183.30	0	7.6570	0	33.8364	0	26.413	0	181.665	0	81.3	4	27.9	4	-1E+10	1	0.0411	4	0.000317	0	-1E+10	1	-1E+10	1	-1E+10	1
4902624	46	C	09/24/2025	08:28	-129.416	48.964	0	184.20	0	7.6480	0	33.8383	0	26.416	0	182.557	0	81.6	4	28.0	4	-1E+10	1	0.0380	4	0.000311	0	-1E+10	1	-1E+10	1	-1E+10	1
4902624	46	C	09/24/2025	08:28	-129.416	48.964	0	185.00	0	7.6400	0	33.8400	0	26.418	0	183.349	0	-1e10	1	-1e10	1	-1E+10	1	-1e10	1	-1e10	1	-1E+10	1	-1E+10	1	-1E+10	1
4902624	46	C	09/24/2025	08:28	-129.416	48.964	0	185.10	0	7.6393	0	33.8400	0	26.418	0	183.448	0	81.7	4	28.0	4	-1E+10	1	0.0445	4	0.000374	0	-1E+10	1	-1E+10	1	-1E+10	1
4902624	46	C	09/24/2025	08:28	-129.416	48.964	0	186.10	0	7.6328	0	33.8395	0	26.419	0	184.439	0	81.7	4	28.0	4	-1E+10	1	0.0511	4	0.000353	0	-1E+10	1	-1E+10	1	-1E+10	1
4902624	46	C	09/24/2025	08:28	-129.416	48.964	0	187.00	0	7.6270	0	33.8390	0	26.419	0	185.330	0	79.4	4	27.2	4	-1E+10	1	0.0451	4	0.000372	0	-1E+10	1	-1E+10	1	-1E+10	1
4902624	46	C	09/24/2025	08:28	-129.416	48.964	0	187.90	0	7.6216	0	33.8395	0	26.420	0	186.222	0	81.5	4	27.9	4	-1E+10	1	0.0381	4	0.000322	0	-1E+10	1	-1E+10	1	-1E+10	1
4902624	46	C	09/24/2025	08:28	-129.416	48.964	0	188.80	0	7.6162	0	33.8399	0	26.421	0	187.114	0	81.4	4	27.9	4	-1E+10	1	0.0458	4	0.000329	0	-1E+10	1	-1E+10	1	-1E+10	1
4902624	46	C	09/24/2025	08:28	-129.416	48.964	0	189.00	0	7.6150	0	33.8400	0	26.422	0	187.312	0	-1e10	1	-1e10	1	-1E+10	1	-1e10	1	-1e10	1	-1E+10	1	-1E+10	1	-1E+10	1
4902624	46	C	09/24/2025	08:28	-129.416	48.964	0	189.80	0	7.6098	0	33.8404	0	26.423	0	188.104	0	81.2	4	27.8	4	-1E+10	1	0.0511	4	0.000341	0	-1E+10	1	-1E+10	1	-1E+10	1
4902624	46	C	09/24/2025	08:28	-129.416	48.964	0	190.70	0	7.6040	0	33.8409	0	26.424	0	188.996	0	80.9	4	27.7	4	-1E+10	1	0.0482	4	0.000374	0	-1E+10	1	-1E+10	1	-1E+10	1
4902624	46	C	09/24/2025	08:28	-129.416	48.964	0	191.00	0	7.6020	0	33.8410	0	26.424	0	189.293	0	-1e10	1	-1e10	1	-1E+10	1	-1e10	1	-1e10	1	-1E+10	1	-1E+10	1	-1E+10	1
4902624	46	C	09/24/2025	08:28	-129.416	48.964	0	191.70	0	7.5936	0	33.8424	0	26.427	0	189.986	0	80.6	4	27.6	4	-1E+10	1	0.0465	4	0.000372	0	-1E+10	1	-1E+10	1	-1E+10	1
4902624	46	C	09/24/2025	08:28	-129.416	48.964	0	192.60	0	7.5828	0	33.8442	0	26.430	0	190.878	0	80.2	4	27.5	4	-1E+10	1	0.0487	4	0.000291	0	-1E+10	1	-1E+10	1	-1E+10	1
4902624	46	C	09/24/2025	08:28	-129.416	48.964	0	193.00	0	7.5780	0	33.8450	0	26.431	0	191.274	0	-1e10	1	-1e10	1	-1E+10	1	-1e10	1	-1e10	1	-1E+10	1	-1E+10	1	-1E+10	1
4902624	46	C	09/24/2025	08:28	-129.416	48.964	0	193.60	0	7.5693	0	33.8468	0	26.434	0	191.868	0	79.9	4	27.3	4	-1E+10	1	0.0365	4	0.000330	0	-1E+10	1	-1E+10	1	-1E+10	1
4902624	46	C	09/24/2025	08:28	-129.416	48.964	0	194.60	0	7.5548	0	33.8498	0	26.438	0	192.859	0	79.6	4	27.2	4	-1E+10	1	0.0584	4	0.000306	0	-1E+10	1	-1E+10	1	-1E+10	1
4902624	46	C	09/24/2025	08:28	-129.416	48.964	0	195.00	0	7.5490	0	33.8510	0	26.440	0	193.255	0	-1e10	1	-1e10	1	-1E+10	1	-1e10	1	-1e10	1	-1E+10	1	-1E+10	1	-1E+10	1
4902624	46	C	09/24/2025	08:28	-129.416	48.964	0	195.50	0	7.5400	0	33.8529	0	26.443	0	193.751	0	79.3	4	27.1	4	-1E+10	1	0.0465	4	0.000325	0	-1E+10	1	-1E+10	1	-1E+10	1
4902624	46	C	09/24/2025	08:28	-129.416	48.964	0	196.50	0	7.5219	0	33.8567	0	26.448	0	194.741	0	79.0	4	27.0	4	-1E+10	1	0.0487	4	0.000322	0	-1E+10	1	-1E+10	1	-1E+10	1
4902624	46	C	09/24/2025	08:28	-129.416	48.964	0	197.10	0	7.5110	0	33.8590	0	26.452	0	195.336	0	-1e10	1	-1e10	1	-1E+10	1	-1e10	1	-1e10	1	-1E+10	1	-1E+10	1	-1E+10	1
4902624	46	C	09/24/2025	08:28	-129.416	48.964	0	197.50	0	7.5043	0	33.8606	0	26.454	0	195.732	0	78.7	4	26.9	4	-1E+10	1	0.0511	4	0.000318	0	-1E+10	1	-1E+10	1	-1E+10	1
4902624	46	C	09/24/2025	08:28	-129.416	48.964	0	198.50	0	7.4877	0	33.8644	0	26.459	0	196.722	0	78.4	4	26.8	4	-1E+10	1	0.0548	4	0.000330	0	-1E+10	1	-1E+10	1	-1E+10	1
4902624	46	C	09/24/2025	08:28	-129.416	48.964	0	198.90	0	7.4810	0	33.8660	0	26.461	0	197.119	0	-1e10	1	-1e10	1	-1E+10	1	-1e10	1	-1e10	1	-1E+10	1	-1E+10	1	-1E+10	1
4902624	46	C	09/24/2025	08:28	-129.416	48.964	0	199.50	0	7.4767	0	33.8669	0	26.463	0	197.713	0	78.3	4	26.7	4	-1E+10	1	0.0584	4	0.000330	0	-1E+10	1	-1E+10	1	-1E+10	1
4902624	46	C	09/24/2025	08:28	-129.416	48.964	0	200.50	0	7.4696	0	33.8683	0	26.465	0	198.703	0	78.1	4	26.7	4	-1E+10	1	0.0555	4	0.000304	0	-1E+10	1	-1E+10	1	-1E+10	1
4902624	46	C	09/24/2025	08:28	-129.416	48.964	0	201.00	0	7.4660	0	33.8690	0	26.466	0	199.199	0	-1e10	1	-1e10	1	-1E+10	1	-1e10	1	-1e10	1	-1E+10	1	-1E+10	1	-1E+10	1
4902624	46	C	09/24/2025	08:28	-129.416	48.964	0	201.50	0	7.4658	0	33.8690	0	26.466	0	199.694	0	77.9	4	26.6	4	-1E+10	1	0.0438	4	0.000289	0	-1E+10	1	-1E+10	1	-1E+10	1
4902624	46	C	09/24/2025	08:28	-129.416	48.964	0	202.60	0	7.4652	0	33.8690	0	26.466	0	200.784	0	77.6	4	26.5	4	-1E+10	1	0.0438	4	0.000259	0	-1E+10	1	-1E+10	1	-1E+10	1
4902624	46	C	09/24/2025	08:28	-129.416	48.964	0	203.00	0	7.4650	0	33.8690	0	26.466	0	201.180	0	-1e10	1	-1e10	1	-1E+10	1	-1e10	1	-1e10	1	-1E+10	1	-1E+10	1	-1E+10	1
4902624	46	C	09/24/2025	08:28	-129.416	48.964	0	203.60	0	7.4644	0	33.8693	0	26.466	0	201.774	0	77.3	4	26.4	4	-1E+10	1	0.0438	4	0.000298	0	-1E+10	1	-1E+10	1	-1E+10	1
4902624	46	C	09/24/2025	08:28	-129.416	48.964	0	204.60	0	7.4634	0	33.8698	0	26.467	0	202.765	0	77.1	4	26.3	4	-1E+10	1	0.0438	4	0.000297	0	-1E+10	1	-1E+10	1	-1E+10	1
4902624	46	C	09/24/2025	08:28	-129.416	48.964	0	205.00	0	7.4630	0	33.8700	0	26.467	0	203.161	0	-1e10	1	-1e10	1	-1E+10	1	-1e10	1	-1e10	1	-1E+10	1	-1E+10	1	-1E+10	1
4902624	46	C	09/24/2025	08:28	-129.416	48.964	0	205.70	0	7.4616	0	33.8703	0	26.468	0	203.854	0	76.8	4	26.2	4	-1E+10	1	0.0438	4	0.000319	0	-1E+10	1	-1E+10	1	-1E+10	1
4902624	46	C	09/24/2025	08:28	-129.416	48.964	0	206.70	0	7.4596	0	33.8708	0	26.468	0	204.845	0	76.5	4	26.1	4	-1E+10	1	0.0438	4	0.000340	0	-1E+10	1	-1E+10	1	-1E+10	1
4902624	46	C	09/24/2025	08:28	-129.416	48.964	0	207.00	0	7.4590	0	33.8710	0	26.469	0	205.142	0	-1e10	1	-1e10	1	-1E+10	1	-1e10	1	-1e10	1	-1E+10	1	-1E+10	1	-1E+10	1
4902624	46	C	09/24/2025	08:28	-129.416	48.964	0	207.80	0	7.4499	0	33.8729	0	26.471	0	205.934	0	76.2	4	26.0	4	-1E+10	1	0.0409	4	0.000325	0	-1E+10	1	-1E+10	1	-1E+10	1
4902624	46	C	09/24/2025	08:28	-129.416	48.964	0	208.80	0	7.4384	0	33.8753	0	26.475	0	206.925	0	75.9	4	25.9	4	-1E+10	1	0.0387	4	0.000290	0	-1E+10	1	-1E+10	1	-1E+10	1
4902624	46	C	09/24/2025	08:28	-129.416	48.964	0	209.10	0	7.4350	0	33.8760	0	26.476	0	207.222	0	-1e10	1	-1e10	1	-1E+10	1	-1e10	1	-1e10	1	-1E+10	1	-1E+10	1	-1E+10	1
4902624	46	C	09/24/2025	08:28	-129.416	48.964	0	209.90	0	7.4274	0	33.8773	0	26.478	0	208.014	0	75.6	4	25.8	4	-1E+10	1	0.0438	4	0.000308	0	-1E+10	1	-1E+10	1	-1E+10	1
4902624	46	C	09/24/2025	08:28	-129.416	48.964	0	211.00	0	7.4170	0	33.8790	0	26.481	0	209.104	0	73.2	4	25.0	4	-1E+10	1	0.0438	4	0.000317	0	-1E+10	1	-1E+10	1	-1E+10	1
4902624	46	C	09/24/2025	08:28	-129.416	48.964	0	212.10	0	7.4126	0	33.8801	0	26.482	0	210.194	0	74.9	4	25.6	4	-1E+10	1	0.0365	4	0.000318	0	-1E+10	1	-1E+10	1	-1E+10	1
4902624	46	C	09/24/2025	08:28	-129.416	48.964	0	213.00	0	7.4090	0	33.8810	0	26.484	0	211.085	0	-1e10	1	-1e10	1	-1E+10	1	-1e10	1	-1e10	1	-1E+10	1	-1E+10	1	-1E+10	1
4902624	46	C	09/24/2025	08:28	-129.416	48.964	0	213.20	0	7.4075	0	33.8814	0	26.484	0	211.283	0	74.7	4	25.5	4	-1E+10	1	0.0511	4	0.000365	0	-1E+10	1	-1E+10	1	-1E+10	1
4902624	46	C	09/24/2025	08:28	-129.416	48.964	0	214.40	0	7.3985	0	33.8838	0	26.487	0	212.472	0	74.5	4	25.4	4	-1E+10	1	0.0574	4	0.000445	0	-1E+10	1	-1E+10	1	-1E+10	1
4902624	46	C	09/24/2025	08:28	-129.416	48.964	0	215.00	0	7.3940	0	33.8850	0	26.489	0	213.066	0	-1e10	1	-1e10	1	-1E+10	1	-1e10	1	-1e10	1	-1E+10	1	-1E+10	1	-1E+10	1
4902624	46	C	09/24/2025	08:28	-129.416	48.964	0	215.50	0	7.3923	0	33.8855	0	26.489	0	213.561	0	74.3	4	25.3	4	-1E+10	1	0.0524	4	0.000324	0	-1E+10	1	-1E+10	1	-1E+10	1
4902624	46	C	09/24/2025	08:28	-129.416	48.964	0	216.60	0	7.3887	0	33.8865	0	26.491	0	214.651	0	74.1	4	25.3	4	-1E+10	1	0.0511	4	0.000286	0	-1E+10	1	-1E+10	1	-1E+10	1
4902624	46	C	09/24/2025	08:28	-129.416	48.964	0	217.10	0	7.3870	0	33.8870	0	26.491	0	215.146	0	-1e10	1	-1e10	1	-1E+10	1	-1e10	1	-1e10	1	-1E+10	1	-1E+10	1	-1E+10	1
4902624	46	C	09/24/2025	08:28	-129.416	48.964	0	217.70	0	7.3857	0	33.8873	0	26.492	0	215.740	0	74.0	4	25.2	4	-1E+10	1	0.0545	4	0.000309	0	-1E+10	1	-1E+10	1	-1E+10	1
4902624	46	C	09/24/2025	08:28	-129.416	48.964	0	218.90	0	7.3832	0	33.8879	0	26.493	0	216.929	0	73.9	4	25.2	4	-1E+10	1	0.0554	4	0.000341	0	-1E+10	1	-1E+10	1	-1E+10	1
4902624	46	C	09/24/2025	08:28	-129.416	48.964	0	219.00	0	7.3830	0	33.8880	0	26.493	0	217.028	0	-1e10	1	-1e10	1	-1E+10	1	-1e10	1	-1e10	1	-1E+10	1	-1E+10	1	-1E+10	1
4902624	46	C	09/24/2025	08:28	-129.416	48.964	0	220.00	0	7.3819	0	33.8885	0	26.493	0	218.018	0	73.8	4	25.2	4	-1E+10	1	0.0556	4	0.000326	0	-1E+10	1	-1E+10	1	-1E+10	1
4902624	46	C	09/24/2025	08:28	-129.416	48.964	0	220.90	0	7.3810	0	33.8890	0	26.494	0	218.910	0	-1e10	1	-1e10	1	-1E+10	1	-1e10	1	-1e10	1	-1E+10	1	-1E+10	1	-1E+10	1
4902624	46	C	09/24/2025	08:28	-129.416	48.964	0	221.10	0	7.3807	0	33.8890	0	26.494	0	219.108	0	73.6	4	25.1	4	-1E+10	1	0.0635	4	0.000293	0	-1E+10	1	-1E+10	1	-1E+10	1
4902624	46	C	09/24/2025	08:28	-129.416	48.964	0	222.20	0	7.3790	0	33.8890	0	26.494	0	220.197	0	73.5	4	25.1	4	-1E+10	1	0.0511	4	0.000294	0	-1E+10	1	-1E+10	1	-1E+10	1
4902624	46	C	09/24/2025	08:28	-129.416	48.964	0	222.90	0	7.3780	0	33.8890	0	26.494	0	220.891	0	-1e10	1	-1e10	1	-1E+10	1	-1e10	1	-1e10	1	-1E+10	1	-1E+10	1	-1E+10	1
4902624	46	C	09/24/2025	08:28	-129.416	48.964	0	223.40	0	7.3749	0	33.8900	0	26.496	0	221.386	0	73.5	4	25.0	4	-1E+10	1	0.0511	4	0.000294	0	-1E+10	1	-1E+10	1	-1E+10	1
4902624	46	C	09/24/2025	08:28	-129.416	48.964	0	224.50	0	7.3681	0	33.8920	0	26.498	0	222.476	0	73.5	4	25.0	4	-1E+10	1	0.0449	4	0.000294	0	-1E+10	1	-1E+10	1	-1E+10	1
4902624	46	C	09/24/2025	08:28	-129.416	48.964	0	225.00	0	7.3650	0	33.8930	0	26.499	0	222.971	0	-1e10	1	-1e10	1	-1E+10	1	-1e10	1	-1e10	1	-1E+10	1	-1E+10	1	-1E+10	1
4902624	46	C	09/24/2025	08:28	-129.416	48.964	0	225.60	0	7.3596	0	33.8936	0	26.501	0	223.565	0	73.6	4	25.1	4	-1E+10	1	0.0489	4	0.000310	0	-1E+10	1	-1E+10	1	-1E+10	1
4902624	46	C	09/24/2025	08:28	-129.416	48.964	0	226.70	0	7.3497	0	33.8947	0	26.503	0	224.654	0	73.6	4	25.1	4	-1E+10	1	0.0465	4	0.000310	0	-1E+10	1	-1E+10	1	-1E+10	1
4902624	46	C	09/24/2025	08:28	-129.416	48.964	0	227.00	0	7.3470	0	33.8950	0	26.503	0	224.952	0	-1e10	1	-1e10	1	-1E+10	1	-1e10	1	-1e10	1	-1E+10	1	-1E+10	1	-1E+10	1
4902624	46	C	09/24/2025	08:28	-129.416	48.964	0	227.80	0	7.3373	0	33.8954	0	26.505	0	225.744	0	73.7	4	25.1	4	-1E+10	1	0.0438	4	0.000300	0	-1E+10	1	-1E+10	1	-1E+10	1
4902624	46	C	09/24/2025	08:28	-129.416	48.964	0	228.90	0	7.3240	0	33.8960	0	26.507	0	226.833	0	-1e10	1	-1e10	1	-1E+10	1	-1e10	1	-1e10	1	-1E+10	1	-1E+10	1	-1E+10	1
4902624	46	C	09/24/2025	08:28	-129.416	48.964	0	229.00	0	7.3230	0	33.8962	0	26.508	0	226.932	0	73.6	4	25.1	4	-1E+10	1	0.0466	4	0.000312	0	-1E+10	1	-1E+10	1	-1E+10	1
4902624	46	C	09/24/2025	08:28	-129.416	48.964	0	230.10	0	7.3126	0	33.8983	0	26.511	0	228.022	0	73.7	4	25.1	4	-1E+10	1	0.0474	4	0.000326	0	-1E+10	1	-1E+10	1	-1E+10	1
4902624	46	C	09/24/2025	08:28	-129.416	48.964	0	231.00	0	7.3040	0	33.9000	0	26.513	0	228.913	0	-1e10	1	-1e10	1	-1E+10	1	-1e10	1	-1e10	1	-1E+10	1	-1E+10	1	-1E+10	1
4902624	46	C	09/24/2025	08:28	-129.416	48.964	0	231.20	0	7.3037	0	33.9002	0	26.514	0	229.111	0	73.9	4	25.1	4	-1E+10	1	0.0387	4	0.000283	0	-1E+10	1	-1E+10	1	-1E+10	1
4902624	46	C	09/24/2025	08:28	-129.416	48.964	0	232.30	0	7.3021	0	33.9013	0	26.515	0	230.201	0	74.1	4	25.2	4	-1E+10	1	0.0511	4	0.000294	0	-1E+10	1	-1E+10	1	-1E+10	1
4902624	46	C	09/24/2025	08:28	-129.416	48.964	0	233.00	0	7.3010	0	33.9020	0	26.515	0	230.894	0	-1e10	1	-1e10	1	-1E+10	1	-1e10	1	-1e10	1	-1E+10	1	-1E+10	1	-1E+10	1
4902624	46	C	09/24/2025	08:28	-129.416	48.964	0	233.50	0	7.3003	0	33.9020	0	26.516	0	231.389	0	74.4	4	25.3	4	-1E+10	1	0.0448	4	0.000294	0	-1E+10	1	-1E+10	1	-1E+10	1
4902624	46	C	09/24/2025	08:28	-129.416	48.964	0	234.60	0	7.2986	0	33.9020	0	26.516	0	232.479	0	74.7	4	25.4	4	-1E+10	1	0.0438	4	0.000284	0	-1E+10	1	-1E+10	1	-1E+10	1
4902624	46	C	09/24/2025	08:28	-129.416	48.964	0	235.00	0	7.2980	0	33.9020	0	26.516	0	232.875	0	-1e10	1	-1e10	1	-1E+10	1	-1e10	1	-1e10	1	-1E+10	1	-1E+10	1	-1E+10	1
4902624	46	C	09/24/2025	08:28	-129.416	48.964	0	235.70	0	7.2945	0	33.9024	0	26.517	0	233.568	0	75.2	4	25.6	4	-1E+10	1	0.0489	4	0.000266	0	-1E+10	1	-1E+10	1	-1E+10	1
4902624	46	C	09/24/2025	08:28	-129.416	48.964	0	236.80	0	7.2890	0	33.9029	0	26.518	0	234.658	0	75.8	4	25.8	4	-1E+10	1	0.0472	4	0.000284	0	-1E+10	1	-1E+10	1	-1E+10	1
4902624	46	C	09/24/2025	08:28	-129.416	48.964	0	237.00	0	7.2880	0	33.9030	0	26.518	0	234.856	0	-1e10	1	-1e10	1	-1E+10	1	-1e10	1	-1e10	1	-1E+10	1	-1E+10	1	-1E+10	1
4902624	46	C	09/24/2025	08:28	-129.416	48.964	0	237.90	0	7.2804	0	33.9035	0	26.520	0	235.747	0	76.4	4	26.0	4	-1E+10	1	0.0471	4	0.000295	0	-1E+10	1	-1E+10	1	-1E+10	1
4902624	46	C	09/24/2025	08:28	-129.416	48.964	0	239.00	0	7.2710	0	33.9040	0	26.521	0	236.836	0	74.9	4	25.5	4	-1E+10	1	0.0511	4	0.000303	0	-1E+10	1	-1E+10	1	-1E+10	1
4902624	46	C	09/24/2025	08:28	-129.416	48.964	0	240.10	0	7.2438	0	33.9069	0	26.527	0	237.926	0	77.7	4	26.4	4	-1E+10	1	0.0511	4	0.000328	0	-1E+10	1	-1E+10	1	-1E+10	1
4902624	46	C	09/24/2025	08:28	-129.416	48.964	0	240.90	0	7.2240	0	33.9090	0	26.532	0	238.718	0	-1e10	1	-1e10	1	-1E+10	1	-1e10	1	-1e10	1	-1E+10	1	-1E+10	1	-1E+10	1
4902624	46	C	09/24/2025	08:28	-129.416	48.964	0	241.20	0	7.2194	0	33.9087	0	26.532	0	239.015	0	78.4	4	26.6	4	-1E+10	1	0.0511	4	0.000259	0	-1E+10	1	-1E+10	1	-1E+10	1
4902624	46	C	09/24/2025	08:28	-129.416	48.964	0	242.30	0	7.2027	0	33.9077	0	26.534	0	240.105	0	79.0	4	26.8	4	-1E+10	1	0.0365	4	0.000294	0	-1E+10	1	-1E+10	1	-1E+10	1
4902624	46	C	09/24/2025	08:28	-129.416	48.964	0	243.00	0	7.1920	0	33.9070	0	26.535	0	240.798	0	-1e10	1	-1e10	1	-1E+10	1	-1e10	1	-1e10	1	-1E+10	1	-1E+10	1	-1E+10	1
4902624	46	C	09/24/2025	08:28	-129.416	48.964	0	243.30	0	7.1842	0	33.9069	0	26.536	0	241.095	0	79.4	4	27.0	4	-1E+10	1	0.0426	4	0.000274	0	-1E+10	1	-1E+10	1	-1E+10	1
4902624	46	C	09/24/2025	08:28	-129.416	48.964	0	244.40	0	7.1556	0	33.9063	0	26.539	0	242.184	0	79.6	4	27.0	4	-1E+10	1	0.0489	4	0.000279	0	-1E+10	1	-1E+10	1	-1E+10	1
4902624	46	C	09/24/2025	08:28	-129.416	48.964	0	245.00	0	7.1400	0	33.9060	0	26.541	0	242.779	0	-1e10	1	-1e10	1	-1E+10	1	-1e10	1	-1e10	1	-1E+10	1	-1E+10	1	-1E+10	1
4902624	46	C	09/24/2025	08:28	-129.416	48.964	0	245.40	0	7.1328	0	33.9058	0	26.542	0	243.175	0	79.6	4	27.0	4	-1E+10	1	0.0511	4	0.000314	0	-1E+10	1	-1E+10	1	-1E+10	1
4902624	46	C	09/24/2025	08:28	-129.416	48.964	0	246.50	0	7.1130	0	33.9053	0	26.544	0	244.264	0	79.4	4	26.9	4	-1E+10	1	0.0444	4	0.000357	0	-1E+10	1	-1E+10	1	-1E+10	1
4902624	46	C	09/24/2025	08:28	-129.416	48.964	0	247.00	0	7.1040	0	33.9050	0	26.545	0	244.759	0	-1e10	1	-1e10	1	-1E+10	1	-1e10	1	-1e10	1	-1E+10	1	-1E+10	1	-1E+10	1
4902624	46	C	09/24/2025	08:28	-129.416	48.964	0	247.60	0	7.1008	0	33.9050	0	26.546	0	245.354	0	79.2	4	26.8	4	-1E+10	1	0.0365	4	0.000347	0	-1E+10	1	-1E+10	1	-1E+10	1
4902624	46	C	09/24/2025	08:28	-129.416	48.964	0	248.70	0	7.0951	0	33.9050	0	26.547	0	246.443	0	78.9	4	26.7	4	-1E+10	1	0.0405	4	0.000280	0	-1E+10	1	-1E+10	1	-1E+10	1
4902624	46	C	09/24/2025	08:28	-129.416	48.964	0	248.90	0	7.0940	0	33.9050	0	26.547	0	246.641	0	-1e10	1	-1e10	1	-1E+10	1	-1e10	1	-1e10	1	-1E+10	1	-1E+10	1	-1E+10	1
4902624	46	C	09/24/2025	08:28	-129.416	48.964	0	249.80	0	7.0914	0	33.9050	0	26.547	0	247.532	0	78.7	4	26.7	4	-1E+10	1	0.0573	4	0.000270	0	-1E+10	1	-1E+10	1	-1E+10	1
4902624	46	C	09/24/2025	08:28	-129.416	48.964	0	250.90	0	7.0883	0	33.9050	0	26.548	0	248.622	0	78.4	4	26.6	4	-1E+10	1	0.0511	4	0.000270	0	-1E+10	1	-1E+10	1	-1E+10	1
4902624	46	C	09/24/2025	08:28	-129.416	48.964	0	251.00	0	7.0880	0	33.9050	0	26.548	0	248.721	0	-1e10	1	-1e10	1	-1E+10	1	-1e10	1	-1e10	1	-1E+10	1	-1E+10	1	-1E+10	1
4902624	46	C	09/24/2025	08:28	-129.416	48.964	0	252.00	0	7.0800	0	33.9065	0	26.550	0	249.711	0	78.1	4	26.4	4	-1E+10	1	0.0511	4	0.000280	0	-1E+10	1	-1E+10	1	-1E+10	1
4902624	46	C	09/24/2025	08:28	-129.416	48.964	0	253.00	0	7.0720	0	33.9080	0	26.552	0	250.701	0	75.7	4	25.6	4	-1E+10	1	0.0628	4	0.000263	0	-1E+10	1	-1E+10	1	-1E+10	1
4902624	46	C	09/24/2025	08:28	-129.416	48.964	0	254.10	0	7.0571	0	33.9091	0	26.555	0	251.791	0	77.5	4	26.2	4	-1E+10	1	0.0556	4	0.000291	0	-1E+10	1	-1E+10	1	-1E+10	1
4902624	46	C	09/24/2025	08:28	-129.416	48.964	0	255.00	0	7.0450	0	33.9100	0	26.557	0	252.682	0	-1e10	1	-1e10	1	-1E+10	1	-1e10	1	-1e10	1	-1E+10	1	-1E+10	1	-1E+10	1
4902624	46	C	09/24/2025	08:28	-129.416	48.964	0	255.10	0	7.0427	0	33.9102	0	26.558	0	252.781	0	77.3	4	26.1	4	-1E+10	1	0.0511	4	0.000495	0	-1E+10	1	-1E+10	1	-1E+10	1
4902624	46	C	09/24/2025	08:28	-129.416	48.964	0	256.20	0	7.0180	0	33.9124	0	26.563	0	253.870	0	77.0	4	26.1	4	-1E+10	1	0.0482	4	0.000552	0	-1E+10	1	-1E+10	1	-1E+10	1
4902624	46	C	09/24/2025	08:28	-129.416	48.964	0	257.00	0	7.0000	0	33.9140	0	26.567	0	254.662	0	-1e10	1	-1e10	1	-1E+10	1	-1e10	1	-1e10	1	-1E+10	1	-1E+10	1	-1E+10	1
4902624	46	C	09/24/2025	08:28	-129.416	48.964	0	257.20	0	6.9979	0	33.9142	0	26.567	0	254.860	0	76.8	4	26.0	4	-1E+10	1	0.0414	4	0.000290	0	-1E+10	1	-1E+10	1	-1E+10	1
4902624	46	C	09/24/2025	08:28	-129.416	48.964	0	258.20	0	6.9874	0	33.9153	0	26.569	0	255.851	0	76.6	4	25.9	4	-1E+10	1	0.0389	4	0.000259	0	-1E+10	1	-1E+10	1	-1E+10	1
4902624	46	C	09/24/2025	08:28	-129.416	48.964	0	258.90	0	6.9800	0	33.9160	0	26.571	0	256.544	0	-1e10	1	-1e10	1	-1E+10	1	-1e10	1	-1e10	1	-1E+10	1	-1E+10	1	-1E+10	1
4902624	46	C	09/24/2025	08:28	-129.416	48.964	0	259.20	0	6.9774	0	33.9161	0	26.572	0	256.841	0	76.3	4	25.8	4	-1E+10	1	0.0511	4	0.000259	0	-1E+10	1	-1E+10	1	-1E+10	1
4902624	46	C	09/24/2025	08:28	-129.416	48.964	0	260.30	0	6.9680	0	33.9167	0	26.573	0	257.930	0	75.9	4	25.6	4	-1E+10	1	0.0365	4	0.000259	0	-1E+10	1	-1E+10	1	-1E+10	1
4902624	46	C	09/24/2025	08:28	-129.416	48.964	0	261.00	0	6.9620	0	33.9170	0	26.574	0	258.624	0	-1e10	1	-1e10	1	-1E+10	1	-1e10	1	-1e10	1	-1E+10	1	-1E+10	1	-1E+10	1
4902624	46	C	09/24/2025	08:28	-129.416	48.964	0	261.30	0	6.9573	0	33.9179	0	26.576	0	258.921	0	75.5	4	25.5	4	-1E+10	1	0.0426	4	0.000268	0	-1E+10	1	-1E+10	1	-1E+10	1
4902624	46	C	09/24/2025	08:28	-129.416	48.964	0	262.40	0	6.9403	0	33.9212	0	26.581	0	260.010	0	75.2	4	25.4	4	-1E+10	1	0.0489	4	0.000262	0	-1E+10	1	-1E+10	1	-1E+10	1
4902624	46	C	09/24/2025	08:28	-129.416	48.964	0	263.00	0	6.9310	0	33.9230	0	26.583	0	260.604	0	-1e10	1	-1e10	1	-1E+10	1	-1e10	1	-1e10	1	-1E+10	1	-1E+10	1	-1E+10	1
4902624	46	C	09/24/2025	08:28	-129.416	48.964	0	263.40	0	6.9290	0	33.9234	0	26.584	0	261.000	0	75.1	4	25.3	4	-1E+10	1	0.0467	4	0.000259	0	-1E+10	1	-1E+10	1	-1E+10	1
4902624	46	C	09/24/2025	08:28	-129.416	48.964	0	264.40	0	6.9240	0	33.9244	0	26.585	0	261.990	0	75.0	4	25.3	4	-1E+10	1	0.0438	4	0.000264	0	-1E+10	1	-1E+10	1	-1E+10	1
4902624	46	C	09/24/2025	08:28	-129.416	48.964	0	265.00	0	6.9210	0	33.9250	0	26.586	0	262.585	0	-1e10	1	-1e10	1	-1E+10	1	-1e10	1	-1e10	1	-1E+10	1	-1E+10	1	-1E+10	1
4902624	46	C	09/24/2025	08:28	-129.416	48.964	0	265.50	0	6.9175	0	33.9255	0	26.587	0	263.080	0	75.0	4	25.3	4	-1E+10	1	0.0487	4	0.000286	0	-1E+10	1	-1E+10	1	-1E+10	1
4902624	46	C	09/24/2025	08:28	-129.416	48.964	0	266.60	0	6.9098	0	33.9266	0	26.589	0	264.169	0	75.0	4	25.3	4	-1E+10	1	0.0584	4	0.000340	0	-1E+10	1	-1E+10	1	-1E+10	1
4902624	46	C	09/24/2025	08:28	-129.416	48.964	0	267.00	0	6.9070	0	33.9270	0	26.590	0	264.565	0	-1e10	1	-1e10	1	-1E+10	1	-1e10	1	-1e10	1	-1E+10	1	-1E+10	1	-1E+10	1
4902624	46	C	09/24/2025	08:28	-129.416	48.964	0	267.60	0	6.8967	0	33.9270	0	26.591	0	265.159	0	74.9	4	25.3	4	-1E+10	1	0.0573	4	0.000378	0	-1E+10	1	-1E+10	1	-1E+10	1
4902624	46	C	09/24/2025	08:28	-129.416	48.964	0	268.70	0	6.8779	0	33.9270	0	26.594	0	266.248	0	74.7	4	25.2	4	-1E+10	1	0.0511	4	0.000259	0	-1E+10	1	-1E+10	1	-1E+10	1
4902624	46	C	09/24/2025	08:28	-129.416	48.964	0	269.10	0	6.8710	0	33.9270	0	26.595	0	266.645	0	-1e10	1	-1e10	1	-1E+10	1	-1e10	1	-1e10	1	-1E+10	1	-1E+10	1	-1E+10	1
4902624	46	C	09/24/2025	08:28	-129.416	48.964	0	269.80	0	6.8657	0	33.9280	0	26.596	0	267.338	0	74.6	4	25.2	4	-1E+10	1	0.0573	4	0.000268	0	-1E+10	1	-1E+10	1	-1E+10	1
4902624	46	C	09/24/2025	08:28	-129.416	48.964	0	270.80	0	6.8583	0	33.9296	0	26.598	0	268.328	0	74.6	4	25.1	4	-1E+10	1	0.0467	4	0.000251	0	-1E+10	1	-1E+10	1	-1E+10	1
4902624	46	C	09/24/2025	08:28	-129.416	48.964	0	271.10	0	6.8560	0	33.9300	0	26.599	0	268.625	0	-1e10	1	-1e10	1	-1E+10	1	-1e10	1	-1e10	1	-1E+10	1	-1E+10	1	-1E+10	1
4902624	46	C	09/24/2025	08:28	-129.416	48.964	0	271.90	0	6.8522	0	33.9296	0	26.599	0	269.417	0	74.4	4	25.1	4	-1E+10	1	0.0489	4	0.000271	0	-1E+10	1	-1E+10	1	-1E+10	1
4902624	46	C	09/24/2025	08:28	-129.416	48.964	0	273.00	0	6.8470	0	33.9290	0	26.599	0	270.506	0	72.3	4	24.4	4	-1E+10	1	0.0472	4	0.000276	0	-1E+10	1	-1E+10	1	-1E+10	1
4902624	46	C	09/24/2025	08:28	-129.416	48.964	0	274.10	0	6.8348	0	33.9302	0	26.602	0	271.596	0	74.2	4	25.0	4	-1E+10	1	0.0405	4	0.000265	0	-1E+10	1	-1E+10	1	-1E+10	1
4902624	46	C	09/24/2025	08:28	-129.416	48.964	0	274.90	0	6.8260	0	33.9310	0	26.604	0	272.388	0	-1e10	1	-1e10	1	-1E+10	1	-1e10	1	-1e10	1	-1E+10	1	-1E+10	1	-1E+10	1
4902624	46	C	09/24/2025	08:28	-129.416	48.964	0	275.10	0	6.8240	0	33.9311	0	26.604	0	272.586	0	74.2	4	25.0	4	-1E+10	1	0.0410	4	0.000269	0	-1E+10	1	-1E+10	1	-1E+10	1
4902624	46	C	09/24/2025	08:28	-129.416	48.964	0	276.20	0	6.8130	0	33.9316	0	26.606	0	273.675	0	74.0	4	24.9	4	-1E+10	1	0.0511	4	0.000295	0	-1E+10	1	-1E+10	1	-1E+10	1
4902624	46	C	09/24/2025	08:28	-129.416	48.964	0	276.90	0	6.8060	0	33.9320	0	26.607	0	274.368	0	-1e10	1	-1e10	1	-1E+10	1	-1e10	1	-1e10	1	-1E+10	1	-1E+10	1	-1E+10	1
4902624	46	C	09/24/2025	08:28	-129.416	48.964	0	277.40	0	6.8024	0	33.9322	0	26.608	0	274.863	0	73.9	4	24.9	4	-1E+10	1	0.0511	4	0.000305	0	-1E+10	1	-1E+10	1	-1E+10	1
4902624	46	C	09/24/2025	08:28	-129.416	48.964	0	278.50	0	6.7946	0	33.9328	0	26.610	0	275.953	0	73.9	4	24.9	4	-1E+10	1	0.0584	4	0.000258	0	-1E+10	1	-1E+10	1	-1E+10	1
4902624	46	C	09/24/2025	08:28	-129.416	48.964	0	279.00	0	6.7910	0	33.9330	0	26.610	0	276.448	0	-1e10	1	-1e10	1	-1E+10	1	-1e10	1	-1e10	1	-1E+10	1	-1E+10	1	-1E+10	1
4902624	46	C	09/24/2025	08:28	-129.416	48.964	0	279.60	0	6.7881	0	33.9330	0	26.611	0	277.042	0	73.7	4	24.8	4	-1E+10	1	0.0517	4	0.000280	0	-1E+10	1	-1E+10	1	-1E+10	1
4902624	46	C	09/24/2025	08:28	-129.416	48.964	0	280.70	0	6.7829	0	33.9330	0	26.611	0	278.131	0	73.6	4	24.8	4	-1E+10	1	0.0511	4	0.000256	0	-1E+10	1	-1E+10	1	-1E+10	1
4902624	46	C	09/24/2025	08:28	-129.416	48.964	0	281.10	0	6.7810	0	33.9330	0	26.612	0	278.527	0	-1e10	1	-1e10	1	-1E+10	1	-1e10	1	-1e10	1	-1E+10	1	-1E+10	1	-1E+10	1
4902624	46	C	09/24/2025	08:28	-129.416	48.964	0	281.80	0	6.7747	0	33.9337	0	26.613	0	279.220	0	73.5	4	24.7	4	-1E+10	1	0.0511	4	0.000283	0	-1E+10	1	-1E+10	1	-1E+10	1
4902624	46	C	09/24/2025	08:28	-129.416	48.964	0	282.90	0	6.7648	0	33.9348	0	26.615	0	280.309	0	73.5	4	24.7	4	-1E+10	1	0.0511	4	0.000280	0	-1E+10	1	-1E+10	1	-1E+10	1
4902624	46	C	09/24/2025	08:28	-129.416	48.964	0	283.10	0	6.7630	0	33.9350	0	26.616	0	280.507	0	-1e10	1	-1e10	1	-1E+10	1	-1e10	1	-1e10	1	-1E+10	1	-1E+10	1	-1E+10	1
4902624	46	C	09/24/2025	08:28	-129.416	48.964	0	283.90	0	6.7504	0	33.9354	0	26.618	0	281.299	0	73.4	4	24.7	4	-1E+10	1	0.0489	4	0.000248	0	-1E+10	1	-1E+10	1	-1E+10	1
4902624	46	C	09/24/2025	08:28	-129.416	48.964	0	285.00	0	6.7330	0	33.9360	0	26.620	0	282.389	0	71.3	4	24.0	4	-1E+10	1	0.0425	4	0.000240	0	-1E+10	1	-1E+10	1	-1E+10	1
4902624	46	C	09/24/2025	08:28	-129.416	48.964	0	286.10	0	6.7209	0	33.9366	0	26.622	0	283.478	0	73.2	4	24.6	4	-1E+10	1	0.0376	4	0.000312	0	-1E+10	1	-1E+10	1	-1E+10	1
4902624	46	C	09/24/2025	08:28	-129.416	48.964	0	287.00	0	6.7110	0	33.9370	0	26.624	0	284.369	0	-1e10	1	-1e10	1	-1E+10	1	-1e10	1	-1e10	1	-1E+10	1	-1E+10	1	-1E+10	1
4902624	46	C	09/24/2025	08:28	-129.416	48.964	0	287.20	0	6.7097	0	33.9369	0	26.624	0	284.567	0	73.1	4	24.6	4	-1E+10	1	0.0438	4	0.000282	0	-1E+10	1	-1E+10	1	-1E+10	1
4902624	46	C	09/24/2025	08:28	-129.416	48.964	0	288.30	0	6.7025	0	33.9364	0	26.625	0	285.656	0	72.9	4	24.5	4	-1E+10	1	0.0610	4	0.000300	0	-1E+10	1	-1E+10	1	-1E+10	1
4902624	46	C	09/24/2025	08:28	-129.416	48.964	0	289.00	0	6.6980	0	33.9360	0	26.625	0	286.349	0	-1e10	1	-1e10	1	-1E+10	1	-1e10	1	-1e10	1	-1E+10	1	-1E+10	1	-1E+10	1
4902624	46	C	09/24/2025	08:28	-129.416	48.964	0	289.40	0	6.6932	0	33.9362	0	26.626	0	286.745	0	72.7	4	24.4	4	-1E+10	1	0.0482	4	0.000268	0	-1E+10	1	-1E+10	1	-1E+10	1
4902624	46	C	09/24/2025	08:28	-129.416	48.964	0	290.50	0	6.6798	0	33.9368	0	26.628	0	287.834	0	72.5	4	24.3	4	-1E+10	1	0.0489	4	0.000241	0	-1E+10	1	-1E+10	1	-1E+10	1
4902624	46	C	09/24/2025	08:28	-129.416	48.964	0	290.90	0	6.6750	0	33.9370	0	26.629	0	288.230	0	-1e10	1	-1e10	1	-1E+10	1	-1e10	1	-1e10	1	-1E+10	1	-1E+10	1	-1E+10	1
4902624	46	C	09/24/2025	08:28	-129.416	48.964	0	291.60	0	6.6677	0	33.9374	0	26.630	0	288.924	0	72.3	4	24.3	4	-1E+10	1	0.0474	4	0.000240	0	-1E+10	1	-1E+10	1	-1E+10	1
4902624	46	C	09/24/2025	08:28	-129.416	48.964	0	292.70	0	6.6561	0	33.9379	0	26.632	0	290.013	0	72.1	4	24.2	4	-1E+10	1	0.0438	4	0.000261	0	-1E+10	1	-1E+10	1	-1E+10	1
4902624	46	C	09/24/2025	08:28	-129.416	48.964	0	292.90	0	6.6540	0	33.9380	0	26.633	0	290.211	0	-1e10	1	-1e10	1	-1E+10	1	-1e10	1	-1e10	1	-1E+10	1	-1E+10	1	-1E+10	1
4902624	46	C	09/24/2025	08:28	-129.416	48.964	0	293.80	0	6.6459	0	33.9389	0	26.634	0	291.102	0	71.9	4	24.1	4	-1E+10	1	0.0438	4	0.000331	0	-1E+10	1	-1E+10	1	-1E+10	1
4902624	46	C	09/24/2025	08:28	-129.416	48.964	0	294.90	0	6.6360	0	33.9400	0	26.637	0	292.191	0	69.7	4	23.4	4	-1E+10	1	0.0483	4	0.000352	0	-1E+10	1	-1E+10	1	-1E+10	1
4902624	46	C	09/24/2025	08:28	-129.416	48.964	0	296.30	0	6.6311	0	33.9400	0	26.637	0	293.577	0	71.4	4	23.9	4	-1E+10	1	0.0574	4	0.000247	0	-1E+10	1	-1E+10	1	-1E+10	1
4902624	46	C	09/24/2025	08:28	-129.416	48.964	0	296.90	0	6.6290	0	33.9400	0	26.638	0	294.171	0	-1e10	1	-1e10	1	-1E+10	1	-1e10	1	-1e10	1	-1E+10	1	-1E+10	1	-1E+10	1
4902624	46	C	09/24/2025	08:28	-129.416	48.964	0	299.00	0	6.6120	0	33.9410	0	26.641	0	296.250	0	-1e10	1	-1e10	1	-1E+10	1	-1e10	1	-1e10	1	-1E+10	1	-1E+10	1	-1E+10	1
4902624	46	C	09/24/2025	08:28	-129.416	48.964	0	304.70	0	6.5510	0	33.9450	0	26.652	0	301.894	0	-1e10	1	-1e10	1	-1E+10	1	-1e10	1	-1e10	1	-1E+10	1	-1E+10	1	-1E+10	1
4902624	46	C	09/24/2025	08:28	-129.416	48.964	0	307.70	0	6.5296	0	33.9464	0	26.656	0	304.864	0	69.2	4	23.2	4	-1E+10	1	0.0368	4	0.000259	0	-1E+10	1	-1E+10	1	-1E+10	1
4902624	46	C	09/24/2025	08:28	-129.416	48.964	0	315.20	0	6.4760	0	33.9500	0	26.666	0	312.289	0	-1e10	1	-1e10	1	-1E+10	1	-1e10	1	-1e10	1	-1E+10	1	-1E+10	1	-1E+10	1
4902624	46	C	09/24/2025	08:28	-129.416	48.964	0	319.10	0	6.4370	0	33.9524	0	26.673	0	316.150	0	66.7	4	22.3	4	-1E+10	1	0.0438	4	0.000268	0	-1E+10	1	-1E+10	1	-1E+10	1
4902624	46	C	09/24/2025	08:28	-129.416	48.964	0	325.00	0	6.3780	0	33.9560	0	26.683	0	321.991	0	-1e10	1	-1e10	1	-1E+10	1	-1e10	1	-1e10	1	-1E+10	1	-1E+10	1	-1E+10	1
4902624	46	C	09/24/2025	08:28	-129.416	48.964	0	330.70	0	6.3238	0	33.9588	0	26.693	0	327.634	0	64.6	4	21.5	4	-1E+10	1	0.0438	4	0.000223	0	-1E+10	1	-1E+10	1	-1E+10	1
4902624	46	C	09/24/2025	08:28	-129.416	48.964	0	335.10	0	6.2820	0	33.9610	0	26.700	0	331.989	0	-1e10	1	-1e10	1	-1E+10	1	-1e10	1	-1e10	1	-1E+10	1	-1E+10	1	-1E+10	1
4902624	46	C	09/24/2025	08:28	-129.416	48.964	0	342.50	0	6.2301	0	33.9663	0	26.711	0	339.315	0	62.2	4	20.7	4	-1E+10	1	0.0442	4	0.000225	0	-1E+10	1	-1E+10	1	-1E+10	1
4902624	46	C	09/24/2025	08:28	-129.416	48.964	0	344.80	0	6.2140	0	33.9680	0	26.714	0	341.591	0	-1e10	1	-1e10	1	-1E+10	1	-1e10	1	-1e10	1	-1E+10	1	-1E+10	1	-1E+10	1
4902624	46	C	09/24/2025	08:28	-129.416	48.964	0	352.50	0	6.1612	0	33.9718	0	26.724	0	349.213	0	60.0	4	19.9	4	-1E+10	1	0.0511	4	0.000267	0	-1E+10	1	-1E+10	1	-1E+10	1
4902624	46	C	09/24/2025	08:28	-129.416	48.964	0	355.00	0	6.1440	0	33.9730	0	26.727	0	351.688	0	-1e10	1	-1e10	1	-1E+10	1	-1e10	1	-1e10	1	-1E+10	1	-1E+10	1	-1E+10	1
4902624	46	C	09/24/2025	08:28	-129.416	48.964	0	360.30	0	6.1009	0	33.9772	0	26.736	0	356.934	0	58.3	4	19.3	4	-1E+10	1	0.0516	4	0.000189	0	-1E+10	1	-1E+10	1	-1E+10	1
4902624	46	C	09/24/2025	08:28	-129.416	48.964	0	365.20	0	6.0610	0	33.9810	0	26.744	0	361.784	0	-1e10	1	-1e10	1	-1E+10	1	-1e10	1	-1e10	1	-1E+10	1	-1E+10	1	-1E+10	1
4902624	46	C	09/24/2025	08:28	-129.416	48.964	0	368.40	0	6.0363	0	33.9826	0	26.748	0	364.951	0	56.6	4	18.7	4	-1E+10	1	0.0584	4	0.000221	0	-1E+10	1	-1E+10	1	-1E+10	1
4902624	46	C	09/24/2025	08:28	-129.416	48.964	0	374.90	0	5.9860	0	33.9860	0	26.757	0	371.384	0	-1e10	1	-1e10	1	-1E+10	1	-1e10	1	-1e10	1	-1E+10	1	-1E+10	1	-1E+10	1
4902624	46	C	09/24/2025	08:28	-129.416	48.964	0	376.70	0	5.9732	0	33.9869	0	26.760	0	373.166	0	54.8	4	18.1	4	-1E+10	1	0.0584	4	0.000199	0	-1E+10	1	-1E+10	1	-1E+10	1
4902624	46	C	09/24/2025	08:28	-129.416	48.964	0	384.90	0	5.9150	0	33.9910	0	26.770	0	381.281	0	-1e10	1	-1e10	1	-1E+10	1	-1e10	1	-1e10	1	-1E+10	1	-1E+10	1	-1E+10	1
4902624	46	C	09/24/2025	08:28	-129.416	48.964	0	385.20	0	5.9131	0	33.9911	0	26.771	0	381.578	0	53.5	4	17.7	4	-1E+10	1	0.0584	4	0.000199	0	-1E+10	1	-1E+10	1	-1E+10	1
4902624	46	C	09/24/2025	08:28	-129.416	48.964	0	393.80	0	5.8598	0	33.9954	0	26.781	0	390.089	0	52.5	4	17.3	4	-1E+10	1	0.0584	4	0.000201	0	-1E+10	1	-1E+10	1	-1E+10	1
4902624	46	C	09/24/2025	08:28	-129.416	48.964	0	394.90	0	5.8530	0	33.9960	0	26.782	0	391.178	0	-1e10	1	-1e10	1	-1E+10	1	-1e10	1	-1e10	1	-1E+10	1	-1E+10	1	-1E+10	1
4902624	46	C	09/24/2025	08:28	-129.416	48.964	0	403.00	0	5.8289	0	33.9976	0	26.786	0	399.194	0	51.2	4	16.9	4	-1E+10	1	0.0584	4	0.000245	0	-1E+10	1	-1E+10	1	-1E+10	1
4902624	46	C	09/24/2025	08:28	-129.416	48.964	0	405.00	0	5.8230	0	33.9980	0	26.787	0	401.173	0	-1e10	1	-1e10	1	-1E+10	1	-1e10	1	-1e10	1	-1E+10	1	-1E+10	1	-1E+10	1
4902624	46	C	09/24/2025	08:28	-129.416	48.964	0	412.90	0	5.7659	0	34.0027	0	26.798	0	408.991	0	49.3	4	16.2	4	-1E+10	1	0.0587	4	0.000234	0	-1E+10	1	-1E+10	1	-1E+10	1
4902624	46	C	09/24/2025	08:28	-129.416	48.964	0	415.10	0	5.7500	0	34.0040	0	26.801	0	411.168	0	-1e10	1	-1e10	1	-1E+10	1	-1e10	1	-1e10	1	-1E+10	1	-1E+10	1	-1E+10	1
4902624	46	C	09/24/2025	08:28	-129.416	48.964	0	422.90	0	5.7106	0	34.0079	0	26.809	0	418.886	0	47.7	4	15.7	4	-1E+10	1	0.0648	4	0.000232	0	-1E+10	1	-1E+10	1	-1E+10	1
4902624	46	C	09/24/2025	08:28	-129.416	48.964	0	425.00	0	5.7000	0	34.0090	0	26.811	0	420.964	0	-1e10	1	-1e10	1	-1E+10	1	-1e10	1	-1e10	1	-1E+10	1	-1E+10	1	-1E+10	1
4902624	46	C	09/24/2025	08:28	-129.416	48.964	0	433.00	0	5.6584	0	34.0139	0	26.820	0	428.880	0	46.0	4	15.1	4	-1E+10	1	0.0441	4	0.000201	0	-1E+10	1	-1E+10	1	-1E+10	1
4902624	46	C	09/24/2025	08:28	-129.416	48.964	0	434.80	0	5.6490	0	34.0150	0	26.822	0	430.661	0	-1e10	1	-1e10	1	-1E+10	1	-1e10	1	-1e10	1	-1E+10	1	-1E+10	1	-1E+10	1
4902624	46	C	09/24/2025	08:28	-129.416	48.964	0	443.20	0	5.6024	0	34.0192	0	26.831	0	438.972	0	44.1	4	14.4	4	-1E+10	1	0.0517	4	0.000255	0	-1E+10	1	-1E+10	1	-1E+10	1
4902624	46	C	09/24/2025	08:28	-129.416	48.964	0	444.90	0	5.5930	0	34.0200	0	26.833	0	440.654	0	-1e10	1	-1e10	1	-1E+10	1	-1e10	1	-1e10	1	-1E+10	1	-1E+10	1	-1E+10	1
4902624	46	C	09/24/2025	08:28	-129.416	48.964	0	453.40	0	5.5286	0	34.0252	0	26.845	0	449.063	0	42.0	4	13.7	4	-1E+10	1	0.0649	4	0.000222	0	-1E+10	1	-1E+10	1	-1E+10	1
4902624	46	C	09/24/2025	08:28	-129.416	48.964	0	454.80	0	5.5180	0	34.0260	0	26.847	0	450.448	0	-1e10	1	-1e10	1	-1E+10	1	-1e10	1	-1e10	1	-1E+10	1	-1E+10	1	-1E+10	1
4902624	46	C	09/24/2025	08:28	-129.416	48.964	0	463.80	0	5.4476	0	34.0340	0	26.862	0	459.352	0	39.7	4	12.9	4	-1E+10	1	0.0441	4	0.000242	0	-1E+10	1	-1E+10	1	-1E+10	1
4902624	46	C	09/24/2025	08:28	-129.416	48.964	0	464.90	0	5.4390	0	34.0350	0	26.864	0	460.441	0	-1e10	1	-1e10	1	-1E+10	1	-1e10	1	-1e10	1	-1E+10	1	-1E+10	1	-1E+10	1
4902624	46	C	09/24/2025	08:28	-129.416	48.964	0	474.40	0	5.3763	0	34.0426	0	26.877	0	469.839	0	38.0	4	12.4	4	-1E+10	1	0.0514	4	0.000164	0	-1E+10	1	-1E+10	1	-1E+10	1
4902624	46	C	09/24/2025	08:28	-129.416	48.964	0	474.90	0	5.3730	0	34.0430	0	26.878	0	470.333	0	-1e10	1	-1e10	1	-1E+10	1	-1e10	1	-1e10	1	-1E+10	1	-1E+10	1	-1E+10	1
4902624	46	C	09/24/2025	08:28	-129.416	48.964	0	484.70	0	5.3290	0	34.0490	0	26.888	0	480.028	0	-1e10	1	-1e10	1	-1E+10	1	-1e10	1	-1e10	1	-1E+10	1	-1E+10	1	-1E+10	1
4902624	46	C	09/24/2025	08:28	-129.416	48.964	0	485.40	0	5.3245	0	34.0497	0	26.889	0	480.720	0	35.7	4	11.6	4	-1E+10	1	0.0584	4	0.000198	0	-1E+10	1	-1E+10	1	-1E+10	1
4902624	46	C	09/24/2025	08:28	-129.416	48.964	0	495.00	0	5.2630	0	34.0590	0	26.904	0	490.216	0	-1e10	1	-1e10	1	-1E+10	1	-1e10	1	-1e10	1	-1E+10	1	-1E+10	1	-1E+10	1
4902624	46	C	09/24/2025	08:28	-129.416	48.964	0	496.40	0	5.2578	0	34.0600	0	26.905	0	491.601	0	34.0	4	11.0	4	-1E+10	1	0.0587	4	0.000198	0	-1E+10	1	-1E+10	1	-1E+10	1
4902624	46	C	09/24/2025	08:28	-129.416	48.964	0	505.00	0	5.2260	0	34.0660	0	26.914	0	500.108	0	-1e10	1	-1e10	1	-1E+10	1	-1e10	1	-1e10	1	-1E+10	1	-1E+10	1	-1E+10	1
4902624	46	C	09/24/2025	08:28	-129.416	48.964	0	507.70	0	5.2175	0	34.0676	0	26.916	0	502.778	0	32.6	4	10.6	4	-1E+10	1	0.0657	4	0.000197	0	-1E+10	1	-1E+10	1	-1E+10	1
4902624	46	C	09/24/2025	08:28	-129.416	48.964	0	514.90	0	5.1950	0	34.0720	0	26.922	0	509.900	0	-1e10	1	-1e10	1	-1E+10	1	-1e10	1	-1e10	1	-1E+10	1	-1E+10	1	-1E+10	1
4902624	46	C	09/24/2025	08:28	-129.416	48.964	0	519.00	0	5.1787	0	34.0745	0	26.926	0	513.955	0	31.1	4	10.1	4	-1E+10	1	0.0649	4	0.000186	0	-1E+10	1	-1E+10	1	-1E+10	1
4902624	46	C	09/24/2025	08:28	-129.416	48.964	0	524.70	0	5.1560	0	34.0780	0	26.931	0	519.592	0	-1e10	1	-1e10	1	-1E+10	1	-1e10	1	-1e10	1	-1E+10	1	-1E+10	1	-1E+10	1
4902624	46	C	09/24/2025	08:28	-129.416	48.964	0	530.60	0	5.1408	0	34.0809	0	26.935	0	525.427	0	29.9	4	9.7	4	-1E+10	1	0.0447	4	0.000197	0	-1E+10	1	-1E+10	1	-1E+10	1
4902624	46	C	09/24/2025	08:28	-129.416	48.964	0	534.80	0	5.1300	0	34.0830	0	26.938	0	529.581	0	-1e10	1	-1e10	1	-1E+10	1	-1e10	1	-1e10	1	-1E+10	1	-1E+10	1	-1E+10	1
4902624	46	C	09/24/2025	08:28	-129.416	48.964	0	542.20	0	5.1091	0	34.0867	0	26.944	0	536.899	0	28.7	4	9.3	4	-1E+10	1	0.0648	4	0.000185	0	-1E+10	1	-1E+10	1	-1E+10	1
4902624	46	C	09/24/2025	08:28	-129.416	48.964	0	544.70	0	5.1020	0	34.0880	0	26.946	0	539.372	0	-1e10	1	-1e10	1	-1E+10	1	-1e10	1	-1e10	1	-1E+10	1	-1E+10	1	-1E+10	1
4902624	46	C	09/24/2025	08:28	-129.416	48.964	0	554.10	0	5.0710	0	34.0935	0	26.954	0	548.667	0	27.1	4	8.8	4	-1E+10	1	0.0441	4	0.000185	0	-1E+10	1	-1E+10	1	-1E+10	1
4902624	46	C	09/24/2025	08:28	-129.416	48.964	0	555.00	0	5.0680	0	34.0940	0	26.954	0	549.557	0	-1e10	1	-1e10	1	-1E+10	1	-1e10	1	-1e10	1	-1E+10	1	-1E+10	1	-1E+10	1
4902624	46	C	09/24/2025	08:28	-129.416	48.964	0	564.90	0	5.0290	0	34.1020	0	26.965	0	559.347	0	-1e10	1	-1e10	1	-1E+10	1	-1e10	1	-1e10	1	-1E+10	1	-1E+10	1	-1E+10	1
4902624	46	C	09/24/2025	08:28	-129.416	48.964	0	566.00	0	5.0257	0	34.1025	0	26.966	0	560.435	0	25.8	4	8.3	4	-1E+10	1	0.0508	4	0.000186	0	-1E+10	1	-1E+10	1	-1E+10	1
4902624	46	C	09/24/2025	08:28	-129.416	48.964	0	574.60	0	5.0002	0	34.1068	0	26.972	0	568.938	0	24.9	4	8.1	4	-1E+10	1	0.0444	4	0.000196	0	-1E+10	1	-1E+10	1	-1E+10	1
4902624	46	C	09/24/2025	08:28	-129.416	48.964	0	575.00	0	4.9990	0	34.1070	0	26.973	0	569.334	0	-1e10	1	-1e10	1	-1E+10	1	-1e10	1	-1e10	1	-1E+10	1	-1E+10	1	-1E+10	1
4902624	46	C	09/24/2025	08:28	-129.416	48.964	0	582.50	0	4.9619	0	34.1131	0	26.982	0	576.749	0	23.7	4	7.6	4	-1E+10	1	0.0579	4	0.000185	0	-1E+10	1	-1E+10	1	-1E+10	1
4902624	46	C	09/24/2025	08:28	-129.416	48.964	0	584.90	0	4.9500	0	34.1150	0	26.985	0	579.122	0	-1e10	1	-1e10	1	-1E+10	1	-1e10	1	-1e10	1	-1E+10	1	-1E+10	1	-1E+10	1
4902624	46	C	09/24/2025	08:28	-129.416	48.964	0	590.70	0	4.9309	0	34.1185	0	26.990	0	584.857	0	23.0	4	7.4	4	-1E+10	1	0.0438	4	0.000198	0	-1E+10	1	-1E+10	1	-1E+10	1
4902624	46	C	09/24/2025	08:28	-129.416	48.964	0	594.90	0	4.9170	0	34.1210	0	26.993	0	589.010	0	-1e10	1	-1e10	1	-1E+10	1	-1e10	1	-1e10	1	-1E+10	1	-1E+10	1	-1E+10	1
4902624	46	C	09/24/2025	08:28	-129.416	48.964	0	599.00	0	4.9063	0	34.1226	0	26.996	0	593.063	0	22.4	4	7.2	4	-1E+10	1	0.0435	4	0.000220	0	-1E+10	1	-1E+10	1	-1E+10	1
4902624	46	C	09/24/2025	08:28	-129.416	48.964	0	604.90	0	4.8910	0	34.1250	0	26.999	0	598.896	0	-1e10	1	-1e10	1	-1E+10	1	-1e10	1	-1e10	1	-1E+10	1	-1E+10	1	-1E+10	1
4902624	46	C	09/24/2025	08:28	-129.416	48.964	0	607.70	0	4.8846	0	34.1261	0	27.001	0	601.664	0	21.8	4	7.0	4	-1E+10	1	0.0375	4	0.000210	0	-1E+10	1	-1E+10	1	-1E+10	1
4902624	46	C	09/24/2025	08:28	-129.416	48.964	0	614.90	0	4.8680	0	34.1290	0	27.005	0	608.782	0	-1e10	1	-1e10	1	-1E+10	1	-1e10	1	-1e10	1	-1E+10	1	-1E+10	1	-1E+10	1
4902624	46	C	09/24/2025	08:28	-129.416	48.964	0	616.50	0	4.8636	0	34.1298	0	27.006	0	610.364	0	21.1	4	6.8	4	-1E+10	1	0.0579	4	0.000241	0	-1E+10	1	-1E+10	1	-1E+10	1
4902624	46	C	09/24/2025	08:28	-129.416	48.964	0	625.10	0	4.8400	0	34.1340	0	27.012	0	618.866	0	-1e10	1	-1e10	1	-1E+10	1	-1e10	1	-1e10	1	-1E+10	1	-1E+10	1	-1E+10	1
4902624	46	C	09/24/2025	08:28	-129.416	48.964	0	625.80	0	4.8370	0	34.1345	0	27.013	0	619.558	0	20.3	4	6.5	4	-1E+10	1	0.0441	4	0.000174	0	-1E+10	1	-1E+10	1	-1E+10	1
4902624	46	C	09/24/2025	08:28	-129.416	48.964	0	635.00	0	4.7970	0	34.1410	0	27.023	0	628.652	0	-1e10	1	-1e10	1	-1E+10	1	-1e10	1	-1e10	1	-1E+10	1	-1E+10	1	-1E+10	1
4902624	46	C	09/24/2025	08:28	-129.416	48.964	0	635.20	0	4.7964	0	34.1411	0	27.023	0	628.850	0	19.3	4	6.2	4	-1E+10	1	0.0511	4	0.000196	0	-1E+10	1	-1E+10	1	-1E+10	1
4902624	46	C	09/24/2025	08:28	-129.416	48.964	0	644.90	0	4.7670	0	34.1460	0	27.030	0	638.438	0	-1e10	1	-1e10	1	-1E+10	1	-1e10	1	-1e10	1	-1E+10	1	-1E+10	1	-1E+10	1
4902624	46	C	09/24/2025	08:28	-129.416	48.964	0	645.00	0	4.7666	0	34.1461	0	27.030	0	638.537	0	18.5	4	5.9	4	-1E+10	1	0.0517	4	0.000184	0	-1E+10	1	-1E+10	1	-1E+10	1
4902624	46	C	09/24/2025	08:28	-129.416	48.964	0	654.80	0	4.7250	0	34.1540	0	27.041	0	648.223	0	-1e10	1	-1e10	1	-1E+10	1	-1e10	1	-1e10	1	-1E+10	1	-1E+10	1	-1E+10	1
4902624	46	C	09/24/2025	08:28	-129.416	48.964	0	655.10	0	4.7242	0	34.1541	0	27.042	0	648.520	0	17.7	4	5.7	4	-1E+10	1	0.0651	4	0.000172	0	-1E+10	1	-1E+10	1	-1E+10	1
4902624	46	C	09/24/2025	08:28	-129.416	48.964	0	665.00	0	4.6990	0	34.1580	0	27.048	0	658.305	0	-1e10	1	-1e10	1	-1E+10	1	-1e10	1	-1e10	1	-1E+10	1	-1E+10	1	-1E+10	1
4902624	46	C	09/24/2025	08:28	-129.416	48.964	0	665.20	0	4.6981	0	34.1582	0	27.048	0	658.502	0	16.9	4	5.4	4	-1E+10	1	0.0511	4	0.000150	0	-1E+10	1	-1E+10	1	-1E+10	1
4902624	46	C	09/24/2025	08:28	-129.416	48.964	0	675.20	0	4.6550	0	34.1670	0	27.060	0	668.386	0	-1e10	1	-1e10	1	-1E+10	1	-1e10	1	-1e10	1	-1E+10	1	-1E+10	1	-1E+10	1
4902624	46	C	09/24/2025	08:28	-129.416	48.964	0	675.60	0	4.6542	0	34.1672	0	27.060	0	668.781	0	16.0	4	5.1	4	-1E+10	1	0.0520	4	0.000183	0	-1E+10	1	-1E+10	1	-1E+10	1
4902624	46	C	09/24/2025	08:28	-129.416	48.964	0	685.10	0	4.6350	0	34.1710	0	27.065	0	678.170	0	-1e10	1	-1e10	1	-1E+10	1	-1e10	1	-1e10	1	-1E+10	1	-1E+10	1	-1E+10	1
4902624	46	C	09/24/2025	08:28	-129.416	48.964	0	685.90	0	4.6306	0	34.1720	0	27.066	0	678.960	0	15.3	4	4.9	4	-1E+10	1	0.0721	4	0.000195	0	-1E+10	1	-1E+10	1	-1E+10	1
4902624	46	C	09/24/2025	08:28	-129.416	48.964	0	695.10	0	4.5800	0	34.1830	0	27.081	0	688.052	0	-1e10	1	-1e10	1	-1E+10	1	-1e10	1	-1e10	1	-1E+10	1	-1E+10	1	-1E+10	1
4902624	46	C	09/24/2025	08:28	-129.416	48.964	0	696.20	0	4.5760	0	34.1839	0	27.082	0	689.139	0	14.1	4	4.5	4	-1E+10	1	0.0505	4	0.000173	0	-1E+10	1	-1E+10	1	-1E+10	1
4902624	46	C	09/24/2025	08:28	-129.416	48.964	0	705.20	0	4.5430	0	34.1910	0	27.091	0	698.033	0	-1e10	1	-1e10	1	-1E+10	1	-1e10	1	-1e10	1	-1E+10	1	-1E+10	1	-1E+10	1
4902624	46	C	09/24/2025	08:28	-129.416	48.964	0	706.70	0	4.5409	0	34.1915	0	27.092	0	699.515	0	13.7	4	4.4	4	-1E+10	1	0.0379	4	0.000205	0	-1E+10	1	-1E+10	1	-1E+10	1
4902624	46	C	09/24/2025	08:28	-129.416	48.964	0	715.00	0	4.5290	0	34.1940	0	27.095	0	707.716	0	-1e10	1	-1e10	1	-1E+10	1	-1e10	1	-1e10	1	-1E+10	1	-1E+10	1	-1E+10	1
4902624	46	C	09/24/2025	08:28	-129.416	48.964	0	717.30	0	4.5190	0	34.1963	0	27.098	0	709.989	0	12.9	4	4.1	4	-1E+10	1	0.0663	4	0.000623	0	-1E+10	1	-1E+10	1	-1E+10	1
4902624	46	C	09/24/2025	08:28	-129.416	48.964	0	724.90	0	4.4860	0	34.2040	0	27.108	0	717.499	0	-1e10	1	-1e10	1	-1E+10	1	-1e10	1	-1e10	1	-1E+10	1	-1E+10	1	-1E+10	1
4902624	46	C	09/24/2025	08:28	-129.416	48.964	0	727.80	0	4.4756	0	34.2063	0	27.111	0	720.364	0	12.2	4	3.9	4	-1E+10	1	0.0792	4	0.000172	0	-1E+10	1	-1E+10	1	-1E+10	1
4902624	46	C	09/24/2025	08:28	-129.416	48.964	0	734.90	0	4.4500	0	34.2120	0	27.118	0	727.379	0	-1e10	1	-1e10	1	-1E+10	1	-1e10	1	-1e10	1	-1E+10	1	-1E+10	1	-1E+10	1
4902624	46	C	09/24/2025	08:28	-129.416	48.964	0	738.30	0	4.4375	0	34.2154	0	27.122	0	730.738	0	11.4	4	3.6	4	-1E+10	1	0.0514	4	0.000172	0	-1E+10	1	-1E+10	1	-1E+10	1
4902624	46	C	09/24/2025	08:28	-129.416	48.964	0	745.00	0	4.4130	0	34.2220	0	27.130	0	737.358	0	-1e10	1	-1e10	1	-1E+10	1	-1e10	1	-1e10	1	-1E+10	1	-1E+10	1	-1E+10	1
4902624	46	C	09/24/2025	08:28	-129.416	48.964	0	748.80	0	4.4000	0	34.2257	0	27.134	0	741.112	0	10.8	4	3.4	4	-1E+10	1	0.0587	4	0.000171	0	-1E+10	1	-1E+10	1	-1E+10	1
4902624	46	C	09/24/2025	08:28	-129.416	48.964	0	755.20	0	4.3780	0	34.2320	0	27.142	0	747.435	0	-1e10	1	-1e10	1	-1E+10	1	-1e10	1	-1e10	1	-1E+10	1	-1E+10	1	-1E+10	1
4902624	46	C	09/24/2025	08:28	-129.416	48.964	0	759.50	0	4.3665	0	34.2346	0	27.145	0	751.683	0	10.3	4	3.3	4	-1E+10	1	0.0652	4	0.000160	0	-1E+10	1	-1E+10	1	-1E+10	1
4902624	46	C	09/24/2025	08:28	-129.416	48.964	0	765.30	0	4.3510	0	34.2380	0	27.149	0	757.413	0	-1e10	1	-1e10	1	-1E+10	1	-1e10	1	-1e10	1	-1E+10	1	-1E+10	1	-1E+10	1
4902624	46	C	09/24/2025	08:28	-129.416	48.964	0	770.40	0	4.3438	0	34.2401	0	27.152	0	762.451	0	10.1	4	3.2	4	-1E+10	1	0.0516	4	0.000172	0	-1E+10	1	-1E+10	1	-1E+10	1
4902624	46	C	09/24/2025	08:28	-129.416	48.964	0	775.20	0	4.3370	0	34.2420	0	27.154	0	767.193	0	-1e10	1	-1e10	1	-1E+10	1	-1e10	1	-1e10	1	-1E+10	1	-1E+10	1	-1E+10	1
4902624	46	C	09/24/2025	08:28	-129.416	48.964	0	781.20	0	4.3141	0	34.2469	0	27.161	0	773.119	0	9.7	4	3.1	4	-1E+10	1	0.0650	4	0.000183	0	-1E+10	1	-1E+10	1	-1E+10	1
4902624	46	C	09/24/2025	08:28	-129.416	48.964	0	784.90	0	4.3000	0	34.2500	0	27.165	0	776.774	0	-1e10	1	-1e10	1	-1E+10	1	-1e10	1	-1e10	1	-1E+10	1	-1E+10	1	-1E+10	1
4902624	46	C	09/24/2025	08:28	-129.416	48.964	0	792.20	0	4.2653	0	34.2574	0	27.174	0	783.985	0	9.3	4	3.0	4	-1E+10	1	0.0514	4	0.000193	0	-1E+10	1	-1E+10	1	-1E+10	1
4902624	46	C	09/24/2025	08:28	-129.416	48.964	0	794.80	0	4.2530	0	34.2600	0	27.178	0	786.553	0	-1e10	1	-1e10	1	-1E+10	1	-1e10	1	-1e10	1	-1E+10	1	-1E+10	1	-1E+10	1
4902624	46	C	09/24/2025	08:28	-129.416	48.964	0	803.40	0	4.2326	0	34.2634	0	27.182	0	795.048	0	9.2	4	2.9	4	-1E+10	1	0.0584	4	0.000171	0	-1E+10	1	-1E+10	1	-1E+10	1
4902624	46	C	09/24/2025	08:28	-129.416	48.964	0	804.90	0	4.2290	0	34.2640	0	27.183	0	796.529	0	-1e10	1	-1e10	1	-1E+10	1	-1e10	1	-1e10	1	-1E+10	1	-1E+10	1	-1E+10	1
4902624	46	C	09/24/2025	08:28	-129.416	48.964	0	814.80	0	4.1989	0	34.2708	0	27.192	0	806.307	0	8.9	4	2.8	4	-1E+10	1	0.0584	4	0.000171	0	-1E+10	1	-1E+10	1	-1E+10	1
4902624	46	C	09/24/2025	08:28	-129.416	48.964	0	815.10	0	4.1980	0	34.2710	0	27.192	0	806.603	0	-1e10	1	-1e10	1	-1E+10	1	-1e10	1	-1e10	1	-1E+10	1	-1E+10	1	-1E+10	1
4902624	46	C	09/24/2025	08:28	-129.416	48.964	0	823.80	0	4.1760	0	34.2754	0	27.198	0	815.196	0	8.7	4	2.7	4	-1E+10	1	0.0587	4	0.000181	0	-1E+10	1	-1E+10	1	-1E+10	1
4902624	46	C	09/24/2025	08:28	-129.416	48.964	0	825.00	0	4.1730	0	34.2760	0	27.199	0	816.381	0	-1e10	1	-1e10	1	-1E+10	1	-1e10	1	-1e10	1	-1E+10	1	-1E+10	1	-1E+10	1
4902624	46	C	09/24/2025	08:28	-129.416	48.964	0	831.60	0	4.1573	0	34.2799	0	27.204	0	822.899	0	8.6	4	2.7	4	-1E+10	1	0.0650	4	0.000149	0	-1E+10	1	-1E+10	1	-1E+10	1
4902624	46	C	09/24/2025	08:28	-129.416	48.964	0	835.10	0	4.1490	0	34.2820	0	27.206	0	826.355	0	-1e10	1	-1e10	1	-1E+10	1	-1e10	1	-1e10	1	-1E+10	1	-1E+10	1	-1E+10	1
4902624	46	C	09/24/2025	08:28	-129.416	48.964	0	839.90	0	4.1394	0	34.2844	0	27.209	0	831.096	0	8.4	4	2.7	4	-1E+10	1	0.0516	4	0.000181	0	-1E+10	1	-1E+10	1	-1E+10	1
4902624	46	C	09/24/2025	08:28	-129.416	48.964	0	845.10	0	4.1290	0	34.2870	0	27.212	0	836.231	0	-1e10	1	-1e10	1	-1E+10	1	-1e10	1	-1e10	1	-1E+10	1	-1E+10	1	-1E+10	1
4902624	46	C	09/24/2025	08:28	-129.416	48.964	0	848.70	0	4.1222	0	34.2888	0	27.214	0	839.786	0	8.3	4	2.6	4	-1E+10	1	0.0648	4	0.000159	0	-1E+10	1	-1E+10	1	-1E+10	1
4902624	46	C	09/24/2025	08:28	-129.416	48.964	0	855.20	0	4.1100	0	34.2920	0	27.218	0	846.204	0	-1e10	1	-1e10	1	-1E+10	1	-1e10	1	-1e10	1	-1E+10	1	-1E+10	1	-1E+10	1
4902624	46	C	09/24/2025	08:28	-129.416	48.964	0	858.40	0	4.1031	0	34.2936	0	27.220	0	849.364	0	8.1	4	2.6	4	-1E+10	1	0.0441	4	0.000172	0	-1E+10	1	-1E+10	1	-1E+10	1
4902624	46	C	09/24/2025	08:28	-129.416	48.964	0	865.00	0	4.0890	0	34.2970	0	27.225	0	855.881	0	-1e10	1	-1e10	1	-1E+10	1	-1e10	1	-1e10	1	-1E+10	1	-1E+10	1	-1E+10	1
4902624	46	C	09/24/2025	08:28	-129.416	48.964	0	867.90	0	4.0835	0	34.2985	0	27.226	0	858.745	0	8.1	4	2.6	4	-1E+10	1	0.0514	4	0.000203	0	-1E+10	1	-1E+10	1	-1E+10	1
4902624	46	C	09/24/2025	08:28	-129.416	48.964	0	875.00	0	4.0700	0	34.3020	0	27.231	0	865.755	0	-1e10	1	-1e10	1	-1E+10	1	-1e10	1	-1e10	1	-1E+10	1	-1E+10	1	-1E+10	1
4902624	46	C	09/24/2025	08:28	-129.416	48.964	0	877.60	0	4.0659	0	34.3030	0	27.232	0	868.322	0	8.0	4	2.5	4	-1E+10	1	0.0581	4	0.000158	0	-1E+10	1	-1E+10	1	-1E+10	1
4902624	46	C	09/24/2025	08:28	-129.416	48.964	0	885.10	0	4.0540	0	34.3060	0	27.235	0	875.727	0	-1e10	1	-1e10	1	-1E+10	1	-1e10	1	-1e10	1	-1E+10	1	-1E+10	1	-1E+10	1
4902624	46	C	09/24/2025	08:28	-129.416	48.964	0	887.20	0	4.0500	0	34.3071	0	27.237	0	877.801	0	7.8	4	2.5	4	-1E+10	1	0.0514	4	0.000159	0	-1E+10	1	-1E+10	1	-1E+10	1
4902624	46	C	09/24/2025	08:28	-129.416	48.964	0	895.00	0	4.0350	0	34.3110	0	27.241	0	885.501	0	-1e10	1	-1e10	1	-1E+10	1	-1e10	1	-1e10	1	-1E+10	1	-1E+10	1	-1E+10	1
4902624	46	C	09/24/2025	08:28	-129.416	48.964	0	897.00	0	4.0318	0	34.3118	0	27.242	0	887.476	0	7.8	4	2.5	4	-1E+10	1	0.0584	4	0.000169	0	-1E+10	1	-1E+10	1	-1E+10	1
4902624	46	C	09/24/2025	08:28	-129.416	48.964	0	905.10	0	4.0190	0	34.3150	0	27.246	0	895.473	0	-1e10	1	-1e10	1	-1E+10	1	-1e10	1	-1e10	1	-1E+10	1	-1E+10	1	-1E+10	1
4902624	46	C	09/24/2025	08:28	-129.416	48.964	0	906.90	0	4.0132	0	34.3161	0	27.248	0	897.250	0	7.7	4	2.4	4	-1E+10	1	0.0587	4	0.000158	0	-1E+10	1	-1E+10	1	-1E+10	1
4902624	46	C	09/24/2025	08:28	-129.416	48.964	0	915.00	0	3.9870	0	34.3210	0	27.254	0	905.246	0	-1e10	1	-1e10	1	-1E+10	1	-1e10	1	-1e10	1	-1E+10	1	-1E+10	1	-1E+10	1
4902624	46	C	09/24/2025	08:28	-129.416	48.964	0	917.10	0	3.9767	0	34.3229	0	27.257	0	907.319	0	7.6	4	2.4	4	-1E+10	1	0.0648	4	0.000169	0	-1E+10	1	-1E+10	1	-1E+10	1
4902624	46	C	09/24/2025	08:28	-129.416	48.964	0	925.00	0	3.9380	0	34.3300	0	27.267	0	915.117	0	-1e10	1	-1e10	1	-1E+10	1	-1e10	1	-1e10	1	-1E+10	1	-1E+10	1	-1E+10	1
4902624	46	C	09/24/2025	08:28	-129.416	48.964	0	927.40	0	3.9307	0	34.3310	0	27.268	0	917.487	0	7.7	4	2.4	4	-1E+10	1	0.0444	4	0.000147	0	-1E+10	1	-1E+10	1	-1E+10	1
4902624	46	C	09/24/2025	08:28	-129.416	48.964	0	934.90	0	3.9080	0	34.3340	0	27.273	0	924.890	0	-1e10	1	-1e10	1	-1E+10	1	-1e10	1	-1e10	1	-1E+10	1	-1E+10	1	-1E+10	1
4902624	46	C	09/24/2025	08:28	-129.416	48.964	0	937.60	0	3.9004	0	34.3351	0	27.275	0	927.555	0	7.8	4	2.5	4	-1E+10	1	0.0584	4	0.000180	0	-1E+10	1	-1E+10	1	-1E+10	1
4902624	46	C	09/24/2025	08:28	-129.416	48.964	0	944.90	0	3.8800	0	34.3380	0	27.279	0	934.760	0	-1e10	1	-1e10	1	-1E+10	1	-1e10	1	-1e10	1	-1E+10	1	-1E+10	1	-1E+10	1
4902624	46	C	09/24/2025	08:28	-129.416	48.964	0	948.00	0	3.8530	0	34.3368	0	27.281	0	937.820	0	8.3	4	2.6	4	-1E+10	1	0.0584	4	0.000146	0	-1E+10	1	-1E+10	1	-1E+10	1
4902624	46	C	09/24/2025	08:28	-129.416	48.964	0	955.00	0	3.7920	0	34.3340	0	27.285	0	944.729	0	-1e10	1	-1e10	1	-1E+10	1	-1e10	1	-1e10	1	-1E+10	1	-1E+10	1	-1E+10	1
4902624	46	C	09/24/2025	08:28	-129.416	48.964	0	958.30	0	3.7630	0	34.3320	0	27.286	0	947.986	0	9.0	4	2.8	4	-1E+10	1	0.0584	4	0.000145	0	-1E+10	1	-1E+10	1	-1E+10	1
4902624	46	C	09/24/2025	08:28	-129.416	48.964	0	964.90	0	3.7050	0	34.3280	0	27.289	0	954.500	0	-1e10	1	-1e10	1	-1E+10	1	-1e10	1	-1e10	1	-1E+10	1	-1E+10	1	-1E+10	1
4902624	46	C	09/24/2025	08:28	-129.416	48.964	0	968.50	0	3.6721	0	34.3259	0	27.290	0	958.053	0	9.7	4	3.0	4	-1E+10	1	0.0584	4	0.000135	0	-1E+10	1	-1E+10	1	-1E+10	1
4902624	46	C	09/24/2025	08:28	-129.416	48.964	0	975.20	0	3.6110	0	34.3220	0	27.293	0	964.665	0	-1e10	1	-1e10	1	-1E+10	1	-1e10	1	-1e10	1	-1E+10	1	-1E+10	1	-1E+10	1
4902624	46	C	09/24/2025	08:28	-129.416	48.964	0	978.80	0	3.5934	0	34.3213	0	27.294	0	968.218	0	10.1	4	3.2	4	-1E+10	1	0.0587	4	0.000156	0	-1E+10	1	-1E+10	1	-1E+10	1
4902624	46	C	09/24/2025	08:28	-129.416	48.964	0	985.00	0	3.5630	0	34.3200	0	27.296	0	974.337	0	-1e10	1	-1e10	1	-1E+10	1	-1e10	1	-1e10	1	-1E+10	1	-1E+10	1	-1E+10	1
4902624	46	C	09/24/2025	08:28	-129.416	48.964	0	989.20	0	3.5487	0	34.3204	0	27.298	0	978.482	0	10.2	4	3.2	4	-1E+10	1	0.0651	4	0.000144	0	-1E+10	1	-1E+10	1	-1E+10	1
4902624	46	C	09/24/2025	08:28	-129.416	48.964	0	995.00	0	3.5290	0	34.3210	0	27.300	0	984.205	0	-1e10	1	-1e10	1	-1E+10	1	-1e10	1	-1e10	1	-1E+10	1	-1E+10	1	-1E+10	1
4902624	46	C	09/24/2025	08:28	-129.416	48.964	0	1003.70	0	3.5189	0	34.3280	0	27.307	0	992.790	0	9.7	4	3.0	4	-1E+10	1	0.0441	4	0.000110	0	-1E+10	1	-1E+10	1	-1E+10	1
4902624	46	C	09/24/2025	08:28	-129.416	48.964	0	1025.90	0	3.4930	0	34.3460	0	27.324	0	1014.695	0	-1e10	1	-1e10	1	-1E+10	1	-1e10	1	-1e10	1	-1E+10	1	-1E+10	1	-1E+10	1
4902624	46	C	09/24/2025	08:28	-129.416	48.964	0	1026.10	0	3.4930	0	34.3461	0	27.324	0	1014.892	0	8.9	4	2.8	4	-1E+10	1	0.0588	4	0.000133	0	-1E+10	1	-1E+10	1	-1E+10	1
4902624	46	C	09/24/2025	08:28	-129.416	48.964	0	1044.80	0	3.4922	0	34.3573	0	27.333	0	1033.342	0	42.2	8	13.2	8	-1E+10	1	0.0728	4	0.000121	0	-1E+10	1	-1E+10	1	-1E+10	1
4902624	46	C	09/24/2025	08:28	-129.416	48.964	0	1062.50	0	3.4915	0	34.3679	0	27.342	0	1050.804	0	12.7	4	4.0	4	-1E+10	1	0.0582	4	0.000155	0	-1E+10	1	-1E+10	1	-1E+10	1
4902624	46	C	09/24/2025	08:28	-129.416	48.964	0	1074.30	0	3.4910	0	34.3750	0	27.348	0	1062.444	0	-1e10	1	-1e10	1	-1E+10	1	-1e10	1	-1e10	1	-1E+10	1	-1E+10	1	-1E+10	1
4902624	46	C	09/24/2025	08:28	-129.416	48.964	0	1081.40	0	3.4790	0	34.3791	0	27.352	0	1069.448	0	11.5	4	3.6	4	-1E+10	1	0.0511	4	0.000133	0	-1E+10	1	-1E+10	1	-1E+10	1
4902624	46	C	09/24/2025	08:28	-129.416	48.964	0	1101.10	0	3.4459	0	34.3904	0	27.364	0	1088.879	0	51.4	4	16.1	4	-1E+10	1	0.0512	4	0.000156	0	-1E+10	1	-1E+10	1	-1E+10	1
4902624	46	C	09/24/2025	08:28	-129.416	48.964	0	1121.10	0	3.4122	0	34.4019	0	27.377	0	1108.604	0	42.8	4	13.4	4	-1E+10	1	0.0584	4	0.000166	0	-1E+10	1	-1E+10	1	-1E+10	1
4902624	46	C	09/24/2025	08:28	-129.416	48.964	0	1124.80	0	3.4060	0	34.4040	0	27.379	0	1112.253	0	-1e10	1	-1e10	1	-1E+10	1	-1e10	1	-1e10	1	-1E+10	1	-1E+10	1	-1E+10	1
4902624	46	C	09/24/2025	08:28	-129.416	48.964	0	1141.00	0	3.3556	0	34.4082	0	27.387	0	1128.229	0	27.1	4	8.4	4	-1E+10	1	0.0587	4	0.000108	0	-1E+10	1	-1E+10	1	-1E+10	1
4902624	46	C	09/24/2025	08:28	-129.416	48.964	0	1161.10	0	3.2930	0	34.4135	0	27.398	0	1148.049	0	33.6	4	10.4	4	-1E+10	1	0.0726	4	0.000131	0	-1E+10	1	-1E+10	1	-1E+10	1
4902624	46	C	09/24/2025	08:28	-129.416	48.964	0	1174.60	0	3.2510	0	34.4170	0	27.404	0	1161.360	0	-1e10	1	-1e10	1	-1E+10	1	-1e10	1	-1e10	1	-1E+10	1	-1E+10	1	-1E+10	1
4902624	46	C	09/24/2025	08:28	-129.416	48.964	0	1182.20	0	3.2391	0	34.4196	0	27.408	0	1168.853	0	32.3	4	10.0	4	-1E+10	1	0.0511	4	0.000108	0	-1E+10	1	-1E+10	1	-1E+10	1
4902624	46	C	09/24/2025	08:28	-129.416	48.964	0	1203.70	0	3.2053	0	34.4268	0	27.417	0	1190.049	0	32.5	4	10.1	4	-1E+10	1	0.0512	4	0.000154	0	-1E+10	1	-1E+10	1	-1E+10	1
4902624	46	C	09/24/2025	08:28	-129.416	48.964	0	1224.90	0	3.1720	0	34.4340	0	27.426	0	1210.948	0	-1e10	1	-1e10	1	-1E+10	1	-1e10	1	-1e10	1	-1E+10	1	-1E+10	1	-1E+10	1
4902624	46	C	09/24/2025	08:28	-129.416	48.964	0	1226.20	0	3.1679	0	34.4342	0	27.426	0	1212.229	0	32.5	4	10.1	4	-1E+10	1	0.0586	4	0.000141	0	-1E+10	1	-1E+10	1	-1E+10	1
4902624	46	C	09/24/2025	08:28	-129.416	48.964	0	1245.60	0	3.1062	0	34.4377	0	27.435	0	1231.352	0	31.9	4	9.9	4	-1E+10	1	0.0656	4	0.000119	0	-1E+10	1	-1E+10	1	-1E+10	1
4902624	46	C	09/24/2025	08:28	-129.416	48.964	0	1261.70	0	3.0550	0	34.4406	0	27.442	0	1247.220	0	32.0	4	9.9	4	-1E+10	1	0.0583	4	0.000187	0	-1E+10	1	-1E+10	1	-1E+10	1
4902624	46	C	09/24/2025	08:28	-129.416	48.964	0	1274.90	0	3.0130	0	34.4430	0	27.447	0	1260.229	0	-1e10	1	-1e10	1	-1E+10	1	-1e10	1	-1e10	1	-1E+10	1	-1E+10	1	-1E+10	1
4902624	46	C	09/24/2025	08:28	-129.416	48.964	0	1278.80	0	3.0047	0	34.4442	0	27.449	0	1264.072	0	32.1	4	9.9	4	-1E+10	1	0.0509	4	0.000118	0	-1E+10	1	-1E+10	1	-1E+10	1
4902624	46	C	09/24/2025	08:28	-129.416	48.964	0	1296.50	0	2.9673	0	34.4495	0	27.457	0	1281.515	0	32.0	4	9.9	4	-1E+10	1	0.0441	4	0.000128	0	-1E+10	1	-1E+10	1	-1E+10	1
4902624	46	C	09/24/2025	08:28	-129.416	48.964	0	1315.00	0	2.9282	0	34.4550	0	27.465	0	1299.744	0	30.8	4	9.5	4	-1E+10	1	0.0585	4	0.000095	0	-1E+10	1	-1E+10	1	-1E+10	1
4902624	46	C	09/24/2025	08:28	-129.416	48.964	0	1325.00	0	2.9070	0	34.4580	0	27.469	0	1309.597	0	-1e10	1	-1e10	1	-1E+10	1	-1e10	1	-1e10	1	-1E+10	1	-1E+10	1	-1E+10	1
4902624	46	C	09/24/2025	08:28	-129.416	48.964	0	1335.10	0	2.8862	0	34.4596	0	27.472	0	1319.548	0	33.0	4	10.2	4	-1E+10	1	0.0653	4	0.000140	0	-1E+10	1	-1E+10	1	-1E+10	1
4902624	46	C	09/24/2025	08:28	-129.416	48.964	0	1356.40	0	2.8423	0	34.4631	0	27.479	0	1340.532	0	39.6	4	12.2	4	-1E+10	1	0.0439	4	0.000116	0	-1E+10	1	-1E+10	1	-1E+10	1
4902624	46	C	09/24/2025	08:28	-129.416	48.964	0	1374.50	0	2.8050	0	34.4660	0	27.485	0	1358.362	0	-1e10	1	-1e10	1	-1E+10	1	-1e10	1	-1e10	1	-1E+10	1	-1E+10	1	-1E+10	1
4902624	46	C	09/24/2025	08:28	-129.416	48.964	0	1379.10	0	2.7959	0	34.4668	0	27.486	0	1362.893	0	57.8	4	17.8	4	-1E+10	1	0.0513	4	0.000105	0	-1E+10	1	-1E+10	1	-1E+10	1
4902624	46	C	09/24/2025	08:28	-129.416	48.964	0	1401.90	0	2.7507	0	34.4709	0	27.494	0	1385.350	0	50.7	4	15.6	4	-1E+10	1	0.0582	4	0.000139	0	-1E+10	1	-1E+10	1	-1E+10	1
4902624	46	C	09/24/2025	08:28	-129.416	48.964	0	1424.80	0	2.7054	0	34.4750	0	27.501	0	1407.904	0	49.6	4	15.2	4	-1E+10	1	0.0511	4	0.000127	0	-1E+10	1	-1E+10	1	-1E+10	1
4902624	46	C	09/24/2025	08:28	-129.416	48.964	0	1425.00	0	2.7050	0	34.4750	0	27.501	0	1408.101	0	-1e10	1	-1e10	1	-1E+10	1	-1e10	1	-1e10	1	-1E+10	1	-1E+10	1	-1E+10	1
4902624	46	C	09/24/2025	08:28	-129.416	48.964	0	1447.80	0	2.6603	0	34.4817	0	27.510	0	1430.553	0	52.0	4	15.9	4	-1E+10	1	0.0514	4	0.000127	0	-1E+10	1	-1E+10	1	-1E+10	1
4902624	46	C	09/24/2025	08:28	-129.416	48.964	0	1470.30	0	2.6162	0	34.4883	0	27.519	0	1452.708	0	55.0	4	16.8	4	-1E+10	1	0.0657	4	0.000127	0	-1E+10	1	-1E+10	1	-1E+10	1
4902624	46	C	09/24/2025	08:28	-129.416	48.964	0	1476.00	0	2.6050	0	34.4900	0	27.522	0	1458.320	0	-1e10	1	-1e10	1	-1E+10	1	-1e10	1	-1e10	1	-1E+10	1	-1E+10	1	-1E+10	1
4902624	46	C	09/24/2025	08:28	-129.416	48.964	0	1486.00	0	2.5879	0	34.4927	0	27.525	0	1468.165	0	54.2	4	16.6	4	-1E+10	1	0.0656	4	0.000126	0	-1E+10	1	-1E+10	1	-1E+10	1
4902624	46	C	09/24/2025	08:28	-129.416	48.964	0	1502.90	0	2.5591	0	34.4972	0	27.532	0	1484.803	0	59.5	4	18.2	4	-1E+10	1	0.0582	4	0.000103	0	-1E+10	1	-1E+10	1	-1E+10	1
4902624	46	C	09/24/2025	08:28	-129.416	48.964	0	1521.80	0	2.5268	0	34.5023	0	27.538	0	1503.408	0	68.5	4	20.9	4	-1E+10	1	0.0512	4	0.000103	0	-1E+10	1	-1E+10	1	-1E+10	1
4902624	46	C	09/24/2025	08:28	-129.416	48.964	0	1524.60	0	2.5220	0	34.5030	0	27.539	0	1506.164	0	-1e10	1	-1e10	1	-1E+10	1	-1e10	1	-1e10	1	-1E+10	1	-1E+10	1	-1E+10	1
4902624	46	C	09/24/2025	08:28	-129.416	48.964	0	1542.40	0	2.5027	0	34.5051	0	27.543	0	1523.685	0	70.2	4	21.4	4	-1E+10	1	0.0584	4	0.000126	0	-1E+10	1	-1E+10	1	-1E+10	1
4902624	46	C	09/24/2025	08:28	-129.416	48.964	0	1562.80	0	2.4805	0	34.5075	0	27.547	0	1543.763	0	69.8	4	21.3	4	-1E+10	1	0.0584	4	0.000159	0	-1E+10	1	-1E+10	1	-1E+10	1
4902624	46	C	09/24/2025	08:28	-129.416	48.964	0	1575.20	0	2.4670	0	34.5090	0	27.549	0	1555.967	0	-1e10	1	-1e10	1	-1E+10	1	-1e10	1	-1e10	1	-1E+10	1	-1E+10	1	-1E+10	1
4902624	46	C	09/24/2025	08:28	-129.416	48.964	0	1583.00	0	2.4584	0	34.5109	0	27.551	0	1563.643	0	74.4	4	22.7	4	-1E+10	1	0.0585	4	0.000101	0	-1E+10	1	-1E+10	1	-1E+10	1
4902624	46	C	09/24/2025	08:28	-129.416	48.964	0	1603.30	0	2.4360	0	34.5158	0	27.557	0	1583.618	0	74.4	4	22.7	4	-1E+10	1	0.0653	4	0.000101	0	-1E+10	1	-1E+10	1	-1E+10	1
4902624	46	C	09/24/2025	08:28	-129.416	48.964	0	1623.50	0	2.4138	0	34.5206	0	27.563	0	1603.494	0	76.3	4	23.2	4	-1E+10	1	0.0441	4	0.000101	0	-1E+10	1	-1E+10	1	-1E+10	1
4902624	46	C	09/24/2025	08:28	-129.416	48.964	0	1625.10	0	2.4120	0	34.5210	0	27.564	0	1605.068	0	-1e10	1	-1e10	1	-1E+10	1	-1e10	1	-1e10	1	-1E+10	1	-1E+10	1	-1E+10	1
4902624	46	C	09/24/2025	08:28	-129.416	48.964	0	1643.00	0	2.3925	0	34.5250	0	27.569	0	1622.679	0	80.6	4	24.5	4	-1E+10	1	0.0586	4	0.000135	0	-1E+10	1	-1E+10	1	-1E+10	1
4902624	46	C	09/24/2025	08:28	-129.416	48.964	0	1662.20	0	2.3715	0	34.5292	0	27.574	0	1641.567	0	86.0	4	26.2	4	-1E+10	1	0.0656	4	0.000112	0	-1E+10	1	-1E+10	1	-1E+10	1
4902624	46	C	09/24/2025	08:28	-129.416	48.964	0	1674.60	0	2.3580	0	34.5320	0	27.577	0	1653.765	0	-1e10	1	-1e10	1	-1E+10	1	-1e10	1	-1e10	1	-1E+10	1	-1E+10	1	-1E+10	1
4902624	46	C	09/24/2025	08:28	-129.416	48.964	0	1682.60	0	2.3480	0	34.5337	0	27.579	0	1661.634	0	101.0	4	30.7	4	-1E+10	1	0.0585	4	0.000123	0	-1E+10	1	-1E+10	1	-1E+10	1
4902624	46	C	09/24/2025	08:28	-129.416	48.964	0	1703.90	0	2.3212	0	34.5383	0	27.585	0	1682.584	0	116.0	4	35.2	4	-1E+10	1	0.0654	4	0.000123	0	-1E+10	1	-1E+10	1	-1E+10	1
4902624	46	C	09/24/2025	08:28	-129.416	48.964	0	1725.60	0	2.2940	0	34.5430	0	27.591	0	1703.926	0	-1e10	1	-1e10	1	-1E+10	1	-1e10	1	-1e10	1	-1E+10	1	-1E+10	1	-1E+10	1
4902624	46	C	09/24/2025	08:28	-129.416	48.964	0	1726.10	0	2.2934	0	34.5431	0	27.592	0	1704.417	0	139.1	4	42.2	4	-1E+10	1	0.0513	4	0.000122	0	-1E+10	1	-1E+10	1	-1E+10	1
4902624	46	C	09/24/2025	08:28	-129.416	48.964	0	1743.00	0	2.2722	0	34.5459	0	27.596	0	1721.037	0	132.7	4	40.3	4	-1E+10	1	0.0583	4	0.000122	0	-1E+10	1	-1E+10	1	-1E+10	1
4902624	46	C	09/24/2025	08:28	-129.416	48.964	0	1760.40	0	2.2503	0	34.5487	0	27.600	0	1738.146	0	143.9	4	43.7	4	-1E+10	1	0.0510	4	0.000133	0	-1E+10	1	-1E+10	1	-1E+10	1
4902624	46	C	09/24/2025	08:28	-129.416	48.964	0	1774.20	0	2.2330	0	34.5510	0	27.603	0	1751.715	0	-1e10	1	-1e10	1	-1E+10	1	-1e10	1	-1e10	1	-1E+10	1	-1E+10	1	-1E+10	1
4902624	46	C	09/24/2025	08:28	-129.416	48.964	0	1779.00	0	2.2250	0	34.5521	0	27.605	0	1756.434	0	135.8	4	41.2	4	-1E+10	1	0.0438	4	0.000110	0	-1E+10	1	-1E+10	1	-1E+10	1
4902624	46	C	09/24/2025	08:28	-129.416	48.964	0	1799.20	0	2.1911	0	34.5569	0	27.611	0	1776.293	0	124.4	4	37.7	4	-1E+10	1	0.0439	4	0.000110	0	-1E+10	1	-1E+10	1	-1E+10	1
4902624	46	C	09/24/2025	08:28	-129.416	48.964	0	1821.10	0	2.1544	0	34.5621	0	27.618	0	1797.822	0	130.8	4	39.6	4	-1E+10	1	0.0510	4	0.000121	0	-1E+10	1	-1E+10	1	-1E+10	1
4902624	46	C	09/24/2025	08:28	-129.416	48.964	0	1824.90	0	2.1480	0	34.5630	0	27.620	0	1801.557	0	-1e10	1	-1e10	1	-1E+10	1	-1e10	1	-1e10	1	-1E+10	1	-1E+10	1	-1E+10	1
4902624	46	C	09/24/2025	08:28	-129.416	48.964	0	1844.20	0	2.1156	0	34.5680	0	27.626	0	1820.528	0	145.9	4	44.1	4	-1E+10	1	0.0439	4	0.000131	0	-1E+10	1	-1E+10	1	-1E+10	1
4902624	46	C	09/24/2025	08:28	-129.416	48.964	0	1866.00	0	2.0791	0	34.5737	0	27.634	0	1841.954	0	137.7	4	41.6	4	-1E+10	1	0.0510	4	0.000097	0	-1E+10	1	-1E+10	1	-1E+10	1
4902624	46	C	09/24/2025	08:28	-129.416	48.964	0	1875.00	0	2.0640	0	34.5760	0	27.637	0	1850.799	0	-1e10	1	-1e10	1	-1E+10	1	-1e10	1	-1e10	1	-1E+10	1	-1E+10	1	-1E+10	1
4902624	46	C	09/24/2025	08:28	-129.416	48.964	0	1887.60	0	2.0513	0	34.5780	0	27.640	0	1863.181	0	147.3	4	44.5	4	-1E+10	1	0.0440	4	0.000144	0	-1E+10	1	-1E+10	1	-1E+10	1
4902624	46	C	09/24/2025	08:28	-129.416	48.964	0	1909.90	0	2.0289	0	34.5815	0	27.644	0	1885.094	0	170.4	4	51.4	4	-1E+10	1	0.0511	4	0.000167	0	-1E+10	1	-1E+10	1	-1E+10	1
4902624	46	C	09/24/2025	08:28	-129.416	48.964	0	1925.70	0	2.0130	0	34.5840	0	27.648	0	1900.618	0	-1e10	1	-1e10	1	-1E+10	1	-1e10	1	-1e10	1	-1E+10	1	-1E+10	1	-1E+10	1
4902624	46	C	09/24/2025	08:28	-129.416	48.964	0	1933.90	0	2.0100	0	34.5845	0	27.648	0	1908.674	0	185.2	4	55.9	4	-1E+10	1	0.0510	4	0.000200	0	-1E+10	1	-1E+10	1	-1E+10	1
4902624	46	C	09/24/2025	08:28	-129.416	48.964	0	1959.10	0	2.0007	0	34.5860	0	27.650	0	1933.431	0	188.1	4	56.7	4	-1E+10	1	0.0435	4	0.000141	0	-1E+10	1	-1E+10	1	-1E+10	1
4902624	46	C	09/24/2025	08:28	-129.416	48.964	0	1974.70	0	1.9950	0	34.5870	0	27.652	0	1948.755	0	-1e10	1	-1e10	1	-1E+10	1	-1e10	1	-1e10	1	-1E+10	1	-1E+10	1	-1E+10	1
4902624	46	C	09/24/2025	08:28	-129.416	48.964	0	1985.50	0	1.9926	0	34.5878	0	27.653	0	1959.364	0	126.2	4	38.1	4	-1E+10	1	0.0301	4	0.000130	0	-1E+10	1	-1E+10	1	-1E+10	1
4902624	46	C	09/24/2025	08:28	-129.416	48.964	0	2001.30	0	1.9890	0	34.5890	0	27.654	0	1974.883	0	-1e10	1	-1e10	1	-1E+10	1	-1e10	1	-1e10	1	-1E+10	1	-1E+10	1	-1E+10	1
4902624	46	C	09/24/2025	08:28	-129.416	48.964	0	2002.00	0	1.9890	0	34.5890	0	27.654	0	1975.570	0	128.3	4	38.7	4	-1E+10	1	0.0584	4	0.000155	0	-1E+10	1	-1E+10	1	-1E+10	1
4902624	46	C	09/24/2025	08:28	-129.416	48.964	0																										
4902624	47	C	10/04/2025	03:41	-129.115	49.124	0	0.20	0	16.0380	0	31.9810	0	23.419	0	0.198	0	228.4	4	92.1	4	-1E+10	1	1.1680	4	0.001562	0	-1E+10	1	-1E+10	1	-1E+10	1
4902624	47	C	10/04/2025	03:41	-129.115	49.124	0	0.30	0	16.0455	0	31.9800	0	23.417	0	0.297	0	228.8	4	92.3	4	-1E+10	1	1.1576	4	0.001554	0	-1E+10	1	-1E+10	1	-1E+10	1
4902624	47	C	10/04/2025	03:41	-129.115	49.124	0	0.40	0	16.0530	0	31.9790	0	23.414	0	0.397	0	-1e10	1	-1e10	1	-1E+10	1	-1e10	1	-1e10	1	-1E+10	1	-1E+10	1	-1E+10	1
4902624	47	C	10/04/2025	03:41	-129.115	49.124	0	0.90	0	16.0535	0	31.9785	0	23.414	0	0.892	0	-1e10	1	-1e10	1	-1E+10	1	1.0950	4	0.001504	0	-1E+10	1	-1E+10	1	-1E+10	1
4902624	47	C	10/04/2025	03:41	-129.115	49.124	0	1.10	0	16.0536	0	31.9784	0	23.414	0	1.091	0	227.9	4	91.9	4	-1E+10	1	1.0804	4	0.001562	0	-1E+10	1	-1E+10	1	-1E+10	1
4902624	47	C	10/04/2025	03:41	-129.115	49.124	0	1.30	0	16.0538	0	31.9782	0	23.413	0	1.289	0	-1e10	1	-1e10	1	-1E+10	1	1.1242	4	0.001609	0	-1E+10	1	-1E+10	1	-1E+10	1
4902624	47	C	10/04/2025	03:41	-129.115	49.124	0	1.50	0	16.0540	0	31.9780	0	23.413	0	1.487	0	-1e10	1	-1e10	1	-1E+10	1	1.1023	4	0.001597	0	-1E+10	1	-1E+10	1	-1E+10	1
4902624	47	C	10/04/2025	03:41	-129.115	49.124	0	1.70	0	16.0548	0	31.9778	0	23.413	0	1.686	0	-1e10	1	-1e10	1	-1E+10	1	1.1096	4	0.001551	0	-1E+10	1	-1E+10	1	-1E+10	1
4902624	47	C	10/04/2025	03:41	-129.115	49.124	0	1.90	0	16.0556	0	31.9776	0	23.413	0	1.884	0	227.8	4	91.9	4	-1E+10	1	1.0950	4	0.001492	0	-1E+10	1	-1E+10	1	-1E+10	1
4902624	47	C	10/04/2025	03:41	-129.115	49.124	0	2.10	0	16.0564	0	31.9774	0	23.412	0	2.082	0	-1e10	1	-1e10	1	-1E+10	1	1.1169	4	0.001539	0	-1E+10	1	-1E+10	1	-1E+10	1
4902624	47	C	10/04/2025	03:41	-129.115	49.124	0	2.50	0	16.0580	0	31.9770	0	23.412	0	2.479	0	-1e10	1	-1e10	1	-1E+10	1	-1e10	1	-1e10	1	-1E+10	1	-1E+10	1	-1E+10	1
4902624	47	C	10/04/2025	03:41	-129.115	49.124	0	2.60	0	16.0583	0	31.9770	0	23.411	0	2.578	0	-1e10	1	-1e10	1	-1E+10	1	1.1169	4	0.001574	0	-1E+10	1	-1E+10	1	-1E+10	1
4902624	47	C	10/04/2025	03:41	-129.115	49.124	0	2.70	0	16.0586	0	31.9770	0	23.411	0	2.677	0	-1e10	1	-1e10	1	-1E+10	1	1.1315	4	0.001562	0	-1E+10	1	-1E+10	1	-1E+10	1
4902624	47	C	10/04/2025	03:41	-129.115	49.124	0	2.90	0	16.0592	0	31.9770	0	23.411	0	2.875	0	227.6	4	91.9	4	-1E+10	1	1.1315	4	0.001562	0	-1E+10	1	-1E+10	1	-1E+10	1
4902624	47	C	10/04/2025	03:41	-129.115	49.124	0	3.10	0	16.0598	0	31.9770	0	23.411	0	3.074	0	-1e10	1	-1e10	1	-1E+10	1	1.1023	4	0.001680	0	-1E+10	1	-1E+10	1	-1E+10	1
4902624	47	C	10/04/2025	03:41	-129.115	49.124	0	3.30	0	16.0604	0	31.9770	0	23.411	0	3.272	0	-1e10	1	-1e10	1	-1E+10	1	1.1096	4	0.001609	0	-1E+10	1	-1E+10	1	-1E+10	1
4902624	47	C	10/04/2025	03:41	-129.115	49.124	0	3.50	0	16.0610	0	31.9770	0	23.411	0	3.470	0	-1e10	1	-1e10	1	-1E+10	1	-1e10	1	-1e10	1	-1E+10	1	-1E+10	1	-1E+10	1
4902624	47	C	10/04/2025	03:41	-129.115	49.124	0	3.60	0	16.0610	0	31.9771	0	23.411	0	3.569	0	-1e10	1	-1e10	1	-1E+10	1	1.0731	4	0.001644	0	-1E+10	1	-1E+10	1	-1E+10	1
4902624	47	C	10/04/2025	03:41	-129.115	49.124	0	4.00	0	16.0610	0	31.9775	0	23.411	0	3.966	0	227.5	4	91.8	4	-1E+10	1	1.0804	4	0.001627	0	-1E+10	1	-1E+10	1	-1E+10	1
4902624	47	C	10/04/2025	03:41	-129.115	49.124	0	4.20	0	16.0610	0	31.9777	0	23.411	0	4.164	0	-1e10	1	-1e10	1	-1E+10	1	1.0731	4	0.001668	0	-1E+10	1	-1E+10	1	-1E+10	1
4902624	47	C	10/04/2025	03:41	-129.115	49.124	0	4.40	0	16.0610	0	31.9779	0	23.412	0	4.363	0	-1e10	1	-1e10	1	-1E+10	1	1.1899	4	0.001574	0	-1E+10	1	-1E+10	1	-1E+10	1
4902624	47	C	10/04/2025	03:41	-129.115	49.124	0	4.50	0	16.0610	0	31.9780	0	23.412	0	4.462	0	-1e10	1	-1e10	1	-1E+10	1	-1e10	1	-1e10	1	-1E+10	1	-1E+10	1	-1E+10	1
4902624	47	C	10/04/2025	03:41	-129.115	49.124	0	4.60	0	16.0613	0	31.9780	0	23.412	0	4.561	0	-1e10	1	-1e10	1	-1E+10	1	1.0804	4	0.001539	0	-1E+10	1	-1E+10	1	-1E+10	1
4902624	47	C	10/04/2025	03:41	-129.115	49.124	0	4.90	0	16.0622	0	31.9780	0	23.411	0	4.858	0	-1e10	1	-1e10	1	-1E+10	1	1.1826	4	0.001562	0	-1E+10	1	-1E+10	1	-1E+10	1
4902624	47	C	10/04/2025	03:41	-129.115	49.124	0	5.10	0	16.0628	0	31.9780	0	23.411	0	5.057	0	227.4	4	91.8	4	-1E+10	1	1.1242	4	0.001562	0	-1E+10	1	-1E+10	1	-1E+10	1
4902624	47	C	10/04/2025	03:41	-129.115	49.124	0	5.30	0	16.0634	0	31.9780	0	23.411	0	5.255	0	-1e10	1	-1e10	1	-1E+10	1	1.1826	4	0.001644	0	-1E+10	1	-1E+10	1	-1E+10	1
4902624	47	C	10/04/2025	03:41	-129.115	49.124	0	5.50	0	16.0640	0	31.9780	0	23.411	0	5.453	0	-1e10	1	-1e10	1	-1E+10	1	-1e10	1	-1e10	1	-1E+10	1	-1E+10	1	-1E+10	1
4902624	47	C	10/04/2025	03:41	-129.115	49.124	0	5.60	0	16.0641	0	31.9780	0	23.411	0	5.552	0	-1e10	1	-1e10	1	-1E+10	1	1.1242	4	0.001550	0	-1E+10	1	-1E+10	1	-1E+10	1
4902624	47	C	10/04/2025	03:41	-129.115	49.124	0	5.90	0	16.0644	0	31.9780	0	23.411	0	5.850	0	-1e10	1	-1e10	1	-1E+10	1	1.1534	4	0.001621	0	-1E+10	1	-1E+10	1	-1E+10	1
4902624	47	C	10/04/2025	03:41	-129.115	49.124	0	6.30	0	16.0649	0	31.9780	0	23.411	0	6.246	0	227.3	4	91.7	4	-1E+10	1	1.1169	4	0.001656	0	-1E+10	1	-1E+10	1	-1E+10	1
4902624	47	C	10/04/2025	03:41	-129.115	49.124	0	6.40	0	16.0650	0	31.9780	0	23.411	0	6.346	0	-1e10	1	-1e10	1	-1E+10	1	-1e10	1	-1e10	1	-1E+10	1	-1E+10	1	-1E+10	1
4902624	47	C	10/04/2025	03:41	-129.115	49.124	0	6.50	0	16.0650	0	31.9780	0	23.411	0	6.445	0	-1e10	1	-1e10	1	-1E+10	1	1.1753	4	0.001515	0	-1E+10	1	-1E+10	1	-1E+10	1
4902624	47	C	10/04/2025	03:41	-129.115	49.124	0	6.80	0	16.0650	0	31.9780	0	23.411	0	6.742	0	-1e10	1	-1e10	1	-1E+10	1	1.1169	4	0.001621	0	-1E+10	1	-1E+10	1	-1E+10	1
4902624	47	C	10/04/2025	03:41	-129.115	49.124	0	7.00	0	16.0650	0	31.9780	0	23.411	0	6.940	0	-1e10	1	-1e10	1	-1E+10	1	1.1534	4	0.001562	0	-1E+10	1	-1E+10	1	-1E+10	1
4902624	47	C	10/04/2025	03:41	-129.115	49.124	0	7.30	0	16.0650	0	31.9780	0	23.411	0	7.238	0	-1e10	1	-1e10	1	-1E+10	1	1.1315	4	0.001539	0	-1E+10	1	-1E+10	1	-1E+10	1
4902624	47	C	10/04/2025	03:41	-129.115	49.124	0	7.40	0	16.0650	0	31.9780	0	23.411	0	7.337	0	-1e10	1	-1e10	1	-1E+10	1	-1e10	1	-1e10	1	-1E+10	1	-1E+10	1	-1E+10	1
4902624	47	C	10/04/2025	03:41	-129.115	49.124	0	7.50	0	16.0651	0	31.9780	0	23.411	0	7.436	0	227.3	4	91.7	4	-1E+10	1	1.1972	4	0.001515	0	-1E+10	1	-1E+10	1	-1E+10	1
4902624	47	C	10/04/2025	03:41	-129.115	49.124	0	7.80	0	16.0654	0	31.9780	0	23.411	0	7.734	0	-1e10	1	-1e10	1	-1E+10	1	1.1242	4	0.001527	0	-1E+10	1	-1E+10	1	-1E+10	1
4902624	47	C	10/04/2025	03:41	-129.115	49.124	0	8.30	0	16.0659	0	31.9780	0	23.411	0	8.229	0	-1e10	1	-1e10	1	-1E+10	1	1.1461	4	0.001621	0	-1E+10	1	-1E+10	1	-1E+10	1
4902624	47	C	10/04/2025	03:41	-129.115	49.124	0	8.40	0	16.0660	0	31.9780	0	23.411	0	8.328	0	-1e10	1	-1e10	1	-1E+10	1	-1e10	1	-1e10	1	-1E+10	1	-1E+10	1	-1E+10	1
4902624	47	C	10/04/2025	03:41	-129.115	49.124	0	8.60	0	16.0658	0	31.9782	0	23.411	0	8.527	0	-1e10	1	-1e10	1	-1E+10	1	1.1023	4	0.001539	0	-1E+10	1	-1E+10	1	-1E+10	1
4902624	47	C	10/04/2025	03:41	-129.115	49.124	0	8.80	0	16.0656	0	31.9784	0	23.411	0	8.725	0	227.2	4	91.7	4	-1E+10	1	1.1461	4	0.001550	0	-1E+10	1	-1E+10	1	-1E+10	1
4902624	47	C	10/04/2025	03:41	-129.115	49.124	0	9.10	0	16.0654	0	31.9786	0	23.411	0	9.023	0	-1e10	1	-1e10	1	-1E+10	1	1.1242	4	0.001562	0	-1E+10	1	-1E+10	1	-1E+10	1
4902624	47	C	10/04/2025	03:41	-129.115	49.124	0	9.40	0	16.0651	0	31.9789	0	23.412	0	9.320	0	-1e10	1	-1e10	1	-1E+10	1	1.1315	4	0.001539	0	-1E+10	1	-1E+10	1	-1E+10	1
4902624	47	C	10/04/2025	03:41	-129.115	49.124	0	9.50	0	16.0650	0	31.9790	0	23.412	0	9.419	0	-1e10	1	-1e10	1	-1E+10	1	-1e10	1	-1e10	1	-1E+10	1	-1E+10	1	-1E+10	1
4902624	47	C	10/04/2025	03:41	-129.115	49.124	0	9.60	0	16.0648	0	31.9791	0	23.412	0	9.518	0	-1e10	1	-1e10	1	-1E+10	1	1.1680	4	0.001527	0	-1E+10	1	-1E+10	1	-1E+10	1
4902624	47	C	10/04/2025	03:41	-129.115	49.124	0	10.10	0	16.0637	0	31.9799	0	23.413	0	10.014	0	227.0	4	91.6	4	-1E+10	1	1.2556	4	0.001621	0	-1E+10	1	-1E+10	1	-1E+10	1
4902624	47	C	10/04/2025	03:41	-129.115	49.124	0	10.90	0	16.0620	0	31.9810	0	23.414	0	10.807	0	-1e10	1	-1e10	1	-1E+10	1	-1e10	1	-1e10	1	-1E+10	1	-1E+10	1	-1E+10	1
4902624	47	C	10/04/2025	03:41	-129.115	49.124	0	11.50	0	16.0602	0	31.9810	0	23.414	0	11.402	0	227.1	4	91.6	4	-1E+10	1	1.2676	4	0.001515	0	-1E+10	1	-1E+10	1	-1E+10	1
4902624	47	C	10/04/2025	03:41	-129.115	49.124	0	12.80	0	16.0563	0	31.9810	0	23.415	0	12.691	0	226.8	4	91.5	4	-1E+10	1	1.2459	4	0.001484	0	-1E+10	1	-1E+10	1	-1E+10	1
4902624	47	C	10/04/2025	03:41	-129.115	49.124	0	12.90	0	16.0560	0	31.9810	0	23.415	0	12.790	0	-1e10	1	-1e10	1	-1E+10	1	-1e10	1	-1e10	1	-1E+10	1	-1E+10	1	-1E+10	1
4902624	47	C	10/04/2025	03:41	-129.115	49.124	0	14.10	0	16.0543	0	31.9810	0	23.416	0	13.980	0	226.7	4	91.5	4	-1E+10	1	1.2112	4	0.001516	0	-1E+10	1	-1E+10	1	-1E+10	1
4902624	47	C	10/04/2025	03:41	-129.115	49.124	0	15.00	0	16.0530	0	31.9810	0	23.416	0	14.872	0	-1e10	1	-1e10	1	-1E+10	1	-1e10	1	-1e10	1	-1E+10	1	-1E+10	1	-1E+10	1
4902624	47	C	10/04/2025	03:41	-129.115	49.124	0	15.40	0	16.0488	0	31.9814	0	23.417	0	15.269	0	226.5	4	91.4	4	-1E+10	1	1.2286	4	0.001503	0	-1E+10	1	-1E+10	1	-1E+10	1
4902624	47	C	10/04/2025	03:41	-129.115	49.124	0	16.70	0	16.0351	0	31.9827	0	23.422	0	16.557	0	226.4	4	91.3	4	-1E+10	1	1.2811	4	0.001744	0	-1E+10	1	-1E+10	1	-1E+10	1
4902624	47	C	10/04/2025	03:41	-129.115	49.124	0	17.00	0	16.0320	0	31.9830	0	23.422	0	16.855	0	-1e10	1	-1e10	1	-1E+10	1	-1e10	1	-1e10	1	-1E+10	1	-1E+10	1	-1E+10	1
4902624	47	C	10/04/2025	03:41	-129.115	49.124	0	18.10	0	16.0215	0	31.9825	0	23.424	0	17.945	0	226.4	4	91.3	4	-1E+10	1	1.3275	4	0.001802	0	-1E+10	1	-1E+10	1	-1E+10	1
4902624	47	C	10/04/2025	03:41	-129.115	49.124	0	19.00	0	16.0130	0	31.9820	0	23.426	0	18.838	0	-1e10	1	-1e10	1	-1E+10	1	-1e10	1	-1e10	1	-1E+10	1	-1E+10	1	-1E+10	1
4902624	47	C	10/04/2025	03:41	-129.115	49.124	0	19.40	0	16.0113	0	31.9820	0	23.426	0	19.234	0	226.3	4	91.2	4	-1E+10	1	1.3322	4	0.001531	0	-1E+10	1	-1E+10	1	-1E+10	1
4902624	47	C	10/04/2025	03:41	-129.115	49.124	0	20.70	0	16.0057	0	31.9820	0	23.428	0	20.523	0	226.3	4	91.2	4	-1E+10	1	1.3058	4	0.001462	0	-1E+10	1	-1E+10	1	-1E+10	1
4902624	47	C	10/04/2025	03:41	-129.115	49.124	0	21.10	0	16.0040	0	31.9820	0	23.428	0	20.920	0	-1e10	1	-1e10	1	-1E+10	1	-1e10	1	-1e10	1	-1E+10	1	-1E+10	1	-1E+10	1
4902624	47	C	10/04/2025	03:41	-129.115	49.124	0	22.00	0	15.9955	0	31.9816	0	23.430	0	21.812	0	226.4	4	91.2	4	-1E+10	1	1.2702	4	0.001386	0	-1E+10	1	-1E+10	1	-1E+10	1
4902624	47	C	10/04/2025	03:41	-129.115	49.124	0	23.10	0	15.9850	0	31.9810	0	23.432	0	22.903	0	-1e10	1	-1e10	1	-1E+10	1	-1e10	1	-1e10	1	-1E+10	1	-1E+10	1	-1E+10	1
4902624	47	C	10/04/2025	03:41	-129.115	49.124	0	23.20	0	15.9828	0	31.9811	0	23.432	0	23.002	0	226.4	4	91.2	4	-1E+10	1	1.2629	4	0.001398	0	-1E+10	1	-1E+10	1	-1E+10	1
4902624	47	C	10/04/2025	03:41	-129.115	49.124	0	24.50	0	15.9542	0	31.9817	0	23.439	0	24.290	0	226.7	4	91.3	4	-1E+10	1	1.2410	4	0.001351	0	-1E+10	1	-1E+10	1	-1E+10	1
4902624	47	C	10/04/2025	03:41	-129.115	49.124	0	25.10	0	15.9410	0	31.9820	0	23.442	0	24.885	0	-1e10	1	-1e10	1	-1E+10	1	-1e10	1	-1e10	1	-1E+10	1	-1E+10	1	-1E+10	1
4902624	47	C	10/04/2025	03:41	-129.115	49.124	0	25.30	0	15.9293	0	31.9829	0	23.446	0	25.084	0	226.8	4	91.3	4	-1E+10	1	1.1879	4	0.001325	0	-1E+10	1	-1E+10	1	-1E+10	1
4902624	47	C	10/04/2025	03:41	-129.115	49.124	0	26.10	0	15.8825	0	31.9865	0	23.459	0	25.877	0	227.0	4	91.3	4	-1E+10	1	1.1452	4	0.001272	0	-1E+10	1	-1E+10	1	-1E+10	1
4902624	47	C	10/04/2025	03:41	-129.115	49.124	0	26.90	0	15.8357	0	31.9901	0	23.472	0	26.670	0	227.3	4	91.3	4	-1E+10	1	1.1242	4	0.001245	0	-1E+10	1	-1E+10	1	-1E+10	1
4902624	47	C	10/04/2025	03:41	-129.115	49.124	0	27.10	0	15.8240	0	31.9910	0	23.475	0	26.868	0	-1e10	1	-1e10	1	-1E+10	1	-1e10	1	-1e10	1	-1E+10	1	-1E+10	1	-1E+10	1
4902624	47	C	10/04/2025	03:41	-129.115	49.124	0	27.70	0	15.8032	0	31.9904	0	23.479	0	27.463	0	227.6	4	91.4	4	-1E+10	1	1.1169	4	0.001280	0	-1E+10	1	-1E+10	1	-1E+10	1
4902624	47	C	10/04/2025	03:41	-129.115	49.124	0	28.40	0	15.7788	0	31.9896	0	23.484	0	28.157	0	227.9	4	91.5	4	-1E+10	1	1.1190	4	0.001346	0	-1E+10	1	-1E+10	1	-1E+10	1
4902624	47	C	10/04/2025	03:41	-129.115	49.124	0	29.00	0	15.7580	0	31.9890	0	23.488	0	28.752	0	-1e10	1	-1e10	1	-1E+10	1	-1e10	1	-1e10	1	-1E+10	1	-1E+10	1	-1E+10	1
4902624	47	C	10/04/2025	03:41	-129.115	49.124	0	29.20	0	15.7406	0	31.9898	0	23.493	0	28.950	0	228.4	4	91.6	4	-1E+10	1	1.1234	4	0.001313	0	-1E+10	1	-1E+10	1	-1E+10	1
4902624	47	C	10/04/2025	03:41	-129.115	49.124	0	29.90	0	15.6796	0	31.9924	0	23.508	0	29.644	0	228.9	4	91.7	4	-1E+10	1	1.0950	4	0.001304	0	-1E+10	1	-1E+10	1	-1E+10	1
4902624	47	C	10/04/2025	03:41	-129.115	49.124	0	30.60	0	15.6186	0	31.9951	0	23.524	0	30.338	0	229.7	4	91.9	4	-1E+10	1	1.0496	4	0.001313	0	-1E+10	1	-1E+10	1	-1E+10	1
4902624	47	C	10/04/2025	03:41	-129.115	49.124	0	31.10	0	15.5750	0	31.9970	0	23.535	0	30.834	0	-1e10	1	-1e10	1	-1E+10	1	-1e10	1	-1e10	1	-1E+10	1	-1E+10	1	-1E+10	1
4902624	47	C	10/04/2025	03:41	-129.115	49.124	0	31.40	0	15.4899	0	32.0025	0	23.558	0	31.131	0	230.4	4	92.0	4	-1E+10	1	0.9865	4	0.001235	0	-1E+10	1	-1E+10	1	-1E+10	1
4902624	47	C	10/04/2025	03:41	-129.115	49.124	0	32.10	0	15.2913	0	32.0154	0	23.611	0	31.825	0	231.1	4	91.9	4	-1E+10	1	0.8906	4	0.001206	0	-1E+10	1	-1E+10	1	-1E+10	1
4902624	47	C	10/04/2025	03:41	-129.115	49.124	0	32.90	0	15.0644	0	32.0302	0	23.671	0	32.618	0	232.2	4	91.9	4	-1E+10	1	0.8468	4	0.001231	0	-1E+10	1	-1E+10	1	-1E+10	1
4902624	47	C	10/04/2025	03:41	-129.115	49.124	0	33.00	0	15.0360	0	32.0320	0	23.679	0	32.717	0	-1e10	1	-1e10	1	-1E+10	1	-1e10	1	-1e10	1	-1E+10	1	-1E+10	1	-1E+10	1
4902624	47	C	10/04/2025	03:41	-129.115	49.124	0	33.50	0	14.9160	0	32.0375	0	23.709	0	33.213	0	233.0	4	92.0	4	-1E+10	1	0.8672	4	0.001187	0	-1E+10	1	-1E+10	1	-1E+10	1
4902624	47	C	10/04/2025	03:41	-129.115	49.124	0	34.00	0	14.7960	0	32.0430	0	23.739	0	33.708	0	233.2	4	91.9	4	-1E+10	1	0.8614	4	0.001052	0	-1E+10	1	-1E+10	1	-1E+10	1
4902624	47	C	10/04/2025	03:41	-129.115	49.124	0	34.30	0	14.7240	0	32.0462	0	23.756	0	34.006	0	233.6	4	91.8	4	-1E+10	1	0.8139	4	0.001069	0	-1E+10	1	-1E+10	1	-1E+10	1
4902624	47	C	10/04/2025	03:41	-129.115	49.124	0	34.60	0	14.6520	0	32.0495	0	23.774	0	34.303	0	233.9	4	91.8	4	-1E+10	1	0.7811	4	0.001210	0	-1E+10	1	-1E+10	1	-1E+10	1
4902624	47	C	10/04/2025	03:41	-129.115	49.124	0	34.90	0	14.5800	0	32.0528	0	23.792	0	34.601	0	234.0	4	91.8	4	-1E+10	1	0.7592	4	0.001116	0	-1E+10	1	-1E+10	1	-1E+10	1
4902624	47	C	10/04/2025	03:41	-129.115	49.124	0	35.10	0	14.5320	0	32.0550	0	23.804	0	34.799	0	-1e10	1	-1e10	1	-1E+10	1	-1e10	1	-1e10	1	-1E+10	1	-1E+10	1	-1E+10	1
4902624	47	C	10/04/2025	03:41	-129.115	49.124	0	35.20	0	14.4983	0	32.0564	0	23.812	0	34.898	0	234.5	4	91.8	4	-1E+10	1	0.7373	4	0.001090	0	-1E+10	1	-1E+10	1	-1E+10	1
4902624	47	C	10/04/2025	03:41	-129.115	49.124	0	35.60	0	14.3633	0	32.0618	0	23.844	0	35.295	0	234.9	4	91.7	4	-1E+10	1	0.7300	4	0.001143	0	-1E+10	1	-1E+10	1	-1E+10	1
4902624	47	C	10/04/2025	03:41	-129.115	49.124	0	36.00	0	14.2284	0	32.0673	0	23.876	0	35.691	0	235.1	4	91.6	4	-1E+10	1	0.7136	4	0.001075	0	-1E+10	1	-1E+10	1	-1E+10	1
4902624	47	C	10/04/2025	03:41	-129.115	49.124	0	36.40	0	14.0934	0	32.0728	0	23.909	0	36.088	0	236.3	4	91.8	4	-1E+10	1	0.6862	4	0.001011	0	-1E+10	1	-1E+10	1	-1E+10	1
4902624	47	C	10/04/2025	03:41	-129.115	49.124	0	37.00	0	13.8910	0	32.0810	0	23.956	0	36.682	0	236.7	4	91.6	4	-1E+10	1	0.6424	4	0.000952	0	-1E+10	1	-1E+10	1	-1E+10	1
4902624	47	C	10/04/2025	03:41	-129.115	49.124	0	37.50	0	13.6502	0	32.0913	0	24.013	0	37.178	0	238.8	4	91.9	4	-1E+10	1	0.6193	4	0.000907	0	-1E+10	1	-1E+10	1	-1E+10	1
4902624	47	C	10/04/2025	03:41	-129.115	49.124	0	38.10	0	13.3613	0	32.1036	0	24.080	0	37.773	0	239.7	4	91.8	4	-1E+10	1	0.6378	4	0.000807	0	-1E+10	1	-1E+10	1	-1E+10	1
4902624	47	C	10/04/2025	03:41	-129.115	49.124	0	38.80	0	13.0242	0	32.1179	0	24.158	0	38.467	0	239.7	4	91.1	4	-1E+10	1	0.5548	4	0.000858	0	-1E+10	1	-1E+10	1	-1E+10	1
4902624	47	C	10/04/2025	03:41	-129.115	49.124	0	38.90	0	12.9760	0	32.1200	0	24.169	0	38.566	0	-1e10	1	-1e10	1	-1E+10	1	-1e10	1	-1e10	1	-1E+10	1	-1E+10	1	-1E+10	1
4902624	47	C	10/04/2025	03:41	-129.115	49.124	0	39.60	0	12.7150	0	32.1307	0	24.228	0	39.260	0	240.6	4	90.9	4	-1E+10	1	0.5431	4	0.000886	0	-1E+10	1	-1E+10	1	-1E+10	1
4902624	47	C	10/04/2025	03:41	-129.115	49.124	0	40.50	0	12.3794	0	32.1444	0	24.302	0	40.152	0	241.6	4	90.7	4	-1E+10	1	0.5721	4	0.000801	0	-1E+10	1	-1E+10	1	-1E+10	1
4902624	47	C	10/04/2025	03:41	-129.115	49.124	0	41.00	0	12.1930	0	32.1520	0	24.343	0	40.648	0	-1e10	1	-1e10	1	-1E+10	1	-1e10	1	-1e10	1	-1E+10	1	-1E+10	1	-1E+10	1
4902624	47	C	10/04/2025	03:41	-129.115	49.124	0	41.30	0	12.1069	0	32.1553	0	24.362	0	40.945	0	242.2	4	90.4	4	-1E+10	1	0.5710	4	0.000696	0	-1E+10	1	-1E+10	1	-1E+10	1
4902624	47	C	10/04/2025	03:41	-129.115	49.124	0	42.30	0	11.8199	0	32.1663	0	24.424	0	41.936	0	242.8	4	90.0	4	-1E+10	1	0.5535	4	0.000696	0	-1E+10	1	-1E+10	1	-1E+10	1
4902624	47	C	10/04/2025	03:41	-129.115	49.124	0	43.00	0	11.6190	0	32.1740	0	24.467	0	42.630	0	-1e10	1	-1e10	1	-1E+10	1	-1e10	1	-1e10	1	-1E+10	1	-1E+10	1	-1E+10	1
4902624	47	C	10/04/2025	03:41	-129.115	49.124	0	43.20	0	11.5979	0	32.1744	0	24.471	0	42.829	0	243.2	4	89.8	4	-1E+10	1	0.5081	4	0.000698	0	-1E+10	1	-1E+10	1	-1E+10	1
4902624	47	C	10/04/2025	03:41	-129.115	49.124	0	44.20	0	11.4927	0	32.1765	0	24.491	0	43.820	0	243.6	4	89.7	4	-1E+10	1	0.4453	4	0.000694	0	-1E+10	1	-1E+10	1	-1E+10	1
4902624	47	C	10/04/2025	03:41	-129.115	49.124	0	44.90	0	11.4190	0	32.1780	0	24.506	0	44.514	0	-1e10	1	-1e10	1	-1E+10	1	-1e10	1	-1e10	1	-1E+10	1	-1E+10	1	-1E+10	1
4902624	47	C	10/04/2025	03:41	-129.115	49.124	0	45.20	0	11.3629	0	32.1829	0	24.520	0	44.811	0	244.5	4	89.8	4	-1E+10	1	0.3942	4	0.000678	0	-1E+10	1	-1E+10	1	-1E+10	1
4902624	47	C	10/04/2025	03:41	-129.115	49.124	0	46.30	0	11.1570	0	32.2007	0	24.570	0	45.902	0	245.7	4	89.9	4	-1E+10	1	0.3630	4	0.000650	0	-1E+10	1	-1E+10	1	-1E+10	1
4902624	47	C	10/04/2025	03:41	-129.115	49.124	0	47.00	0	11.0260	0	32.2120	0	24.602	0	46.595	0	-1e10	1	-1e10	1	-1E+10	1	-1e10	1	-1e10	1	-1E+10	1	-1E+10	1	-1E+10	1
4902624	47	C	10/04/2025	03:41	-129.115	49.124	0	47.30	0	10.9780	0	32.2140	0	24.612	0	46.893	0	246.7	4	89.9	4	-1E+10	1	0.3487	4	0.000650	0	-1E+10	1	-1E+10	1	-1E+10	1
4902624	47	C	10/04/2025	03:41	-129.115	49.124	0	48.40	0	10.8020	0	32.2211	0	24.648	0	47.983	0	247.4	4	89.8	4	-1E+10	1	0.2993	4	0.000600	0	-1E+10	1	-1E+10	1	-1E+10	1
4902624	47	C	10/04/2025	03:41	-129.115	49.124	0	49.00	0	10.7060	0	32.2250	0	24.668	0	48.578	0	-1e10	1	-1e10	1	-1E+10	1	-1e10	1	-1e10	1	-1E+10	1	-1E+10	1	-1E+10	1
4902624	47	C	10/04/2025	03:41	-129.115	49.124	0	49.40	0	10.6736	0	32.2266	0	24.675	0	48.975	0	247.7	4	89.7	4	-1E+10	1	0.2810	4	0.000610	0	-1E+10	1	-1E+10	1	-1E+10	1
4902624	47	C	10/04/2025	03:41	-129.115	49.124	0	50.50	0	10.5845	0	32.2310	0	24.694	0	50.065	0	248.1	4	89.7	4	-1E+10	1	0.2595	4	0.000592	0	-1E+10	1	-1E+10	1	-1E+10	1
4902624	47	C	10/04/2025	03:41	-129.115	49.124	0	51.00	0	10.5440	0	32.2330	0	24.702	0	50.561	0	-1e10	1	-1e10	1	-1E+10	1	-1e10	1	-1e10	1	-1E+10	1	-1E+10	1	-1E+10	1
4902624	47	C	10/04/2025	03:41	-129.115	49.124	0	51.50	0	10.4782	0	32.2388	0	24.718	0	51.056	0	248.5	4	89.6	4	-1E+10	1	0.2600	4	0.000639	0	-1E+10	1	-1E+10	1	-1E+10	1
4902624	47	C	10/04/2025	03:41	-129.115	49.124	0	52.60	0	10.3336	0	32.2514	0	24.752	0	52.147	0	248.8	4	89.5	4	-1E+10	1	0.2426	4	0.000621	0	-1E+10	1	-1E+10	1	-1E+10	1
4902624	47	C	10/04/2025	03:41	-129.115	49.124	0	53.00	0	10.2810	0	32.2560	0	24.765	0	52.543	0	-1e10	1	-1e10	1	-1E+10	1	-1e10	1	-1e10	1	-1E+10	1	-1E+10	1	-1E+10	1
4902624	47	C	10/04/2025	03:41	-129.115	49.124	0	53.70	0	10.1673	0	32.2654	0	24.791	0	53.237	0	249.4	4	89.4	4	-1E+10	1	0.2190	4	0.000565	0	-1E+10	1	-1E+10	1	-1E+10	1
4902624	47	C	10/04/2025	03:41	-129.115	49.124	0	54.80	0	9.9885	0	32.2803	0	24.832	0	54.327	0	249.6	4	89.1	4	-1E+10	1	0.2168	4	0.000561	0	-1E+10	1	-1E+10	1	-1E+10	1
4902624	47	C	10/04/2025	03:41	-129.115	49.124	0	55.00	0	9.9560	0	32.2830	0	24.840	0	54.526	0	-1e10	1	-1e10	1	-1E+10	1	-1e10	1	-1e10	1	-1E+10	1	-1E+10	1	-1E+10	1
4902624	47	C	10/04/2025	03:41	-129.115	49.124	0	55.90	0	9.9020	0	32.2857	0	24.851	0	55.418	0	249.6	4	88.9	4	-1E+10	1	0.2072	4	0.000552	0	-1E+10	1	-1E+10	1	-1E+10	1
4902624	47	C	10/04/2025	03:41	-129.115	49.124	0	57.00	0	9.8360	0	32.2890	0	24.864	0	56.508	0	246.5	4	87.7	4	-1E+10	1	0.1825	4	0.000547	0	-1E+10	1	-1E+10	1	-1E+10	1
4902624	47	C	10/04/2025	03:41	-129.115	49.124	0	58.10	0	9.7057	0	32.2973	0	24.892	0	57.598	0	250.1	4	88.8	4	-1E+10	1	0.1898	4	0.000541	0	-1E+10	1	-1E+10	1	-1E+10	1
4902624	47	C	10/04/2025	03:41	-129.115	49.124	0	59.00	0	9.5990	0	32.3040	0	24.914	0	58.491	0	-1e10	1	-1e10	1	-1E+10	1	-1e10	1	-1e10	1	-1E+10	1	-1E+10	1	-1E+10	1
4902624	47	C	10/04/2025	03:41	-129.115	49.124	0	59.30	0	9.5924	0	32.3039	0	24.915	0	58.788	0	250.1	4	88.5	4	-1E+10	1	0.1835	4	0.000561	0	-1E+10	1	-1E+10	1	-1E+10	1
4902624	47	C	10/04/2025	03:41	-129.115	49.124	0	60.40	0	9.5682	0	32.3033	0	24.919	0	59.878	0	250.1	4	88.5	4	-1E+10	1	0.1673	4	0.000524	0	-1E+10	1	-1E+10	1	-1E+10	1
4902624	47	C	10/04/2025	03:41	-129.115	49.124	0	61.00	0	9.5550	0	32.3030	0	24.921	0	60.473	0	-1e10	1	-1e10	1	-1E+10	1	-1e10	1	-1e10	1	-1E+10	1	-1E+10	1	-1E+10	1
4902624	47	C	10/04/2025	03:41	-129.115	49.124	0	61.40	0	9.5297	0	32.3051	0	24.926	0	60.869	0	250.1	4	88.4	4	-1E+10	1	0.1686	4	0.000512	0	-1E+10	1	-1E+10	1	-1E+10	1
4902624	47	C	10/04/2025	03:41	-129.115	49.124	0	62.50	0	9.4603	0	32.3109	0	24.942	0	61.960	0	250.2	4	88.3	4	-1E+10	1	0.1752	4	0.000524	0	-1E+10	1	-1E+10	1	-1E+10	1
4902624	47	C	10/04/2025	03:41	-129.115	49.124	0	62.90	0	9.4350	0	32.3130	0	24.948	0	62.356	0	-1e10	1	-1e10	1	-1E+10	1	-1e10	1	-1e10	1	-1E+10	1	-1E+10	1	-1E+10	1
4902624	47	C	10/04/2025	03:41	-129.115	49.124	0	63.50	0	9.3864	0	32.3153	0	24.957	0	62.951	0	250.2	4	88.2	4	-1E+10	1	0.1781	4	0.000553	0	-1E+10	1	-1E+10	1	-1E+10	1
4902624	47	C	10/04/2025	03:41	-129.115	49.124	0	64.20	0	9.3298	0	32.3180	0	24.968	0	63.645	0	250.1	4	88.0	4	-1E+10	1	0.1804	4	0.000581	0	-1E+10	1	-1E+10	1	-1E+10	1
4902624	47	C	10/04/2025	03:41	-129.115	49.124	0	65.00	0	9.2650	0	32.3210	0	24.981	0	64.438	0	246.6	4	86.7	4	-1E+10	1	0.1630	4	0.000625	0	-1E+10	1	-1E+10	1	-1E+10	1
4902624	47	C	10/04/2025	03:41	-129.115	49.124	0	65.70	0	9.1970	0	32.3270	0	24.996	0	65.132	0	249.8	4	87.7	4	-1E+10	1	0.1460	4	0.000916	0	-1E+10	1	-1E+10	1	-1E+10	1
4902624	47	C	10/04/2025	03:41	-129.115	49.124	0	66.50	0	9.1193	0	32.3339	0	25.014	0	65.925	0	249.6	4	87.5	4	-1E+10	1	0.1460	4	0.000531	0	-1E+10	1	-1E+10	1	-1E+10	1
4902624	47	C	10/04/2025	03:41	-129.115	49.124	0	67.10	0	9.0610	0	32.3390	0	25.027	0	66.519	0	-1e10	1	-1e10	1	-1E+10	1	-1e10	1	-1e10	1	-1E+10	1	-1E+10	1	-1E+10	1
4902624	47	C	10/04/2025	03:41	-129.115	49.124	0	67.20	0	9.0579	0	32.3392	0	25.028	0	66.618	0	249.2	4	87.2	4	-1E+10	1	0.1585	4	0.000503	0	-1E+10	1	-1E+10	1	-1E+10	1
4902624	47	C	10/04/2025	03:41	-129.115	49.124	0	68.00	0	9.0331	0	32.3408	0	25.033	0	67.411	0	248.8	4	87.0	4	-1E+10	1	0.1555	4	0.000514	0	-1E+10	1	-1E+10	1	-1E+10	1
4902624	47	C	10/04/2025	03:41	-129.115	49.124	0	68.80	0	9.0083	0	32.3424	0	25.038	0	68.204	0	248.5	4	86.9	4	-1E+10	1	0.1492	4	0.000505	0	-1E+10	1	-1E+10	1	-1E+10	1
4902624	47	C	10/04/2025	03:41	-129.115	49.124	0	69.10	0	8.9990	0	32.3430	0	25.040	0	68.502	0	-1e10	1	-1e10	1	-1E+10	1	-1e10	1	-1e10	1	-1E+10	1	-1E+10	1	-1E+10	1
4902624	47	C	10/04/2025	03:41	-129.115	49.124	0	69.50	0	8.9903	0	32.3434	0	25.041	0	68.898	0	248.0	4	86.7	4	-1E+10	1	0.1460	4	0.000490	0	-1E+10	1	-1E+10	1	-1E+10	1
4902624	47	C	10/04/2025	03:41	-129.115	49.124	0	70.30	0	8.9730	0	32.3443	0	25.045	0	69.691	0	247.4	4	86.4	4	-1E+10	1	0.1438	4	0.000479	0	-1E+10	1	-1E+10	1	-1E+10	1
4902624	47	C	10/04/2025	03:41	-129.115	49.124	0	70.90	0	8.9600	0	32.3450	0	25.047	0	70.286	0	-1e10	1	-1e10	1	-1E+10	1	-1e10	1	-1e10	1	-1E+10	1	-1E+10	1	-1E+10	1
4902624	47	C	10/04/2025	03:41	-129.115	49.124	0	71.10	0	8.9556	0	32.3451	0	25.048	0	70.484	0	246.8	4	86.2	4	-1E+10	1	0.1395	4	0.000468	0	-1E+10	1	-1E+10	1	-1E+10	1
4902624	47	C	10/04/2025	03:41	-129.115	49.124	0	71.90	0	8.9380	0	32.3455	0	25.051	0	71.277	0	246.1	4	85.9	4	-1E+10	1	0.1460	4	0.000447	0	-1E+10	1	-1E+10	1	-1E+10	1
4902624	47	C	10/04/2025	03:41	-129.115	49.124	0	72.70	0	8.9204	0	32.3459	0	25.054	0	72.070	0	245.3	4	85.6	4	-1E+10	1	0.1460	4	0.000447	0	-1E+10	1	-1E+10	1	-1E+10	1
4902624	47	C	10/04/2025	03:41	-129.115	49.124	0	72.90	0	8.9160	0	32.3460	0	25.055	0	72.268	0	-1e10	1	-1e10	1	-1E+10	1	-1e10	1	-1e10	1	-1E+10	1	-1E+10	1	-1E+10	1
4902624	47	C	10/04/2025	03:41	-129.115	49.124	0	73.60	0	8.8702	0	32.3495	0	25.065	0	72.962	0	244.5	4	85.2	4	-1E+10	1	0.1394	4	0.000468	0	-1E+10	1	-1E+10	1	-1E+10	1
4902624	47	C	10/04/2025	03:41	-129.115	49.124	0	74.40	0	8.8177	0	32.3535	0	25.076	0	73.755	0	243.5	4	84.8	4	-1E+10	1	0.1336	4	0.000462	0	-1E+10	1	-1E+10	1	-1E+10	1
4902624	47	C	10/04/2025	03:41	-129.115	49.124	0	74.90	0	8.7850	0	32.3560	0	25.083	0	74.250	0	-1e10	1	-1e10	1	-1E+10	1	-1e10	1	-1e10	1	-1E+10	1	-1E+10	1	-1E+10	1
4902624	47	C	10/04/2025	03:41	-129.115	49.124	0	75.20	0	8.7782	0	32.3561	0	25.084	0	74.548	0	242.1	4	84.2	4	-1E+10	1	0.1223	4	0.000474	0	-1E+10	1	-1E+10	1	-1E+10	1
4902624	47	C	10/04/2025	03:41	-129.115	49.124	0	76.00	0	8.7600	0	32.3565	0	25.087	0	75.341	0	240.6	4	83.7	4	-1E+10	1	0.1168	4	0.000500	0	-1E+10	1	-1E+10	1	-1E+10	1
4902624	47	C	10/04/2025	03:41	-129.115	49.124	0	76.80	0	8.7418	0	32.3569	0	25.090	0	76.134	0	238.8	4	83.0	4	-1E+10	1	0.1190	4	0.000525	0	-1E+10	1	-1E+10	1	-1E+10	1
4902624	47	C	10/04/2025	03:41	-129.115	49.124	0	77.10	0	8.7350	0	32.3570	0	25.091	0	76.431	0	-1e10	1	-1e10	1	-1E+10	1	-1e10	1	-1e10	1	-1E+10	1	-1E+10	1	-1E+10	1
4902624	47	C	10/04/2025	03:41	-129.115	49.124	0	77.70	0	8.7092	0	32.3606	0	25.098	0	77.026	0	236.9	4	82.3	4	-1E+10	1	0.1186	4	0.000509	0	-1E+10	1	-1E+10	1	-1E+10	1
4902624	47	C	10/04/2025	03:41	-129.115	49.124	0	78.50	0	8.6748	0	32.3654	0	25.107	0	77.818	0	234.7	4	81.5	4	-1E+10	1	0.1037	4	0.000403	0	-1E+10	1	-1E+10	1	-1E+10	1
4902624	47	C	10/04/2025	03:41	-129.115	49.124	0	79.10	0	8.6490	0	32.3690	0	25.114	0	78.413	0	-1e10	1	-1e10	1	-1E+10	1	-1e10	1	-1e10	1	-1E+10	1	-1E+10	1	-1E+10	1
4902624	47	C	10/04/2025	03:41	-129.115	49.124	0	79.30	0	8.6392	0	32.3712	0	25.117	0	78.611	0	232.8	4	80.7	4	-1E+10	1	0.1095	4	0.000365	0	-1E+10	1	-1E+10	1	-1E+10	1
4902624	47	C	10/04/2025	03:41	-129.115	49.124	0	80.30	0	8.5902	0	32.3822	0	25.133	0	79.602	0	230.1	4	79.7	4	-1E+10	1	0.0949	4	0.000412	0	-1E+10	1	-1E+10	1	-1E+10	1
4902624	47	C	10/04/2025	03:41	-129.115	49.124	0	81.10	0	8.5510	0	32.3910	0	25.146	0	80.395	0	228.2	4	79.0	4	-1E+10	1	0.0949	4	0.000345	0	-1E+10	1	-1E+10	1	-1E+10	1
4902624	47	C	10/04/2025	03:41	-129.115	49.124	0	81.90	0	8.5328	0	32.4034	0	25.158	0	81.188	0	226.3	4	78.3	4	-1E+10	1	0.0843	4	0.000360	0	-1E+10	1	-1E+10	1	-1E+10	1
4902624	47	C	10/04/2025	03:41	-129.115	49.124	0	82.70	0	8.5146	0	32.4159	0	25.171	0	81.981	0	224.2	4	77.6	4	-1E+10	1	0.0803	4	0.000388	0	-1E+10	1	-1E+10	1	-1E+10	1
4902624	47	C	10/04/2025	03:41	-129.115	49.124	0	82.90	0	8.5100	0	32.4190	0	25.174	0	82.179	0	-1e10	1	-1e10	1	-1E+10	1	-1e10	1	-1e10	1	-1E+10	1	-1E+10	1	-1E+10	1
4902624	47	C	10/04/2025	03:41	-129.115	49.124	0	83.60	0	8.5023	0	32.4284	0	25.182	0	82.873	0	222.0	4	76.8	4	-1E+10	1	0.0868	4	0.000386	0	-1E+10	1	-1E+10	1	-1E+10	1
4902624	47	C	10/04/2025	03:41	-129.115	49.124	0	84.40	0	8.4935	0	32.4392	0	25.192	0	83.666	0	219.7	4	76.0	4	-1E+10	1	0.0949	4	0.000364	0	-1E+10	1	-1E+10	1	-1E+10	1
4902624	47	C	10/04/2025	03:41	-129.115	49.124	0	84.90	0	8.4880	0	32.4460	0	25.198	0	84.162	0	-1e10	1	-1e10	1	-1E+10	1	-1e10	1	-1e10	1	-1E+10	1	-1E+10	1	-1E+10	1
4902624	47	C	10/04/2025	03:41	-129.115	49.124	0	85.30	0	8.4714	0	32.4557	0	25.208	0	84.558	0	217.4	4	75.2	4	-1E+10	1	0.0922	4	0.000380	0	-1E+10	1	-1E+10	1	-1E+10	1
4902624	47	C	10/04/2025	03:41	-129.115	49.124	0	86.20	0	8.4341	0	32.4776	0	25.231	0	85.450	0	215.3	4	74.4	4	-1E+10	1	0.0803	4	0.000341	0	-1E+10	1	-1E+10	1	-1E+10	1
4902624	47	C	10/04/2025	03:41	-129.115	49.124	0	87.00	0	8.4010	0	32.4970	0	25.251	0	86.243	0	-1e10	1	-1e10	1	-1E+10	1	-1e10	1	-1e10	1	-1E+10	1	-1E+10	1	-1E+10	1
4902624	47	C	10/04/2025	03:41	-129.115	49.124	0	87.20	0	8.3933	0	32.5006	0	25.255	0	86.441	0	212.9	4	73.5	4	-1E+10	1	0.0803	4	0.000318	0	-1E+10	1	-1E+10	1	-1E+10	1
4902624	47	C	10/04/2025	03:41	-129.115	49.124	0	88.10	0	8.3587	0	32.5168	0	25.273	0	87.333	0	210.1	4	72.5	4	-1E+10	1	0.0743	4	0.000366	0	-1E+10	1	-1E+10	1	-1E+10	1
4902624	47	C	10/04/2025	03:41	-129.115	49.124	0	89.00	0	8.3240	0	32.5330	0	25.291	0	88.225	0	-1e10	1	-1e10	1	-1E+10	1	-1e10	1	-1e10	1	-1E+10	1	-1E+10	1	-1E+10	1
4902624	47	C	10/04/2025	03:41	-129.115	49.124	0	89.10	0	8.3169	0	32.5380	0	25.296	0	88.324	0	207.0	4	71.4	4	-1E+10	1	0.0775	4	0.000312	0	-1E+10	1	-1E+10	1	-1E+10	1
4902624	47	C	10/04/2025	03:41	-129.115	49.124	0	90.30	0	8.2310	0	32.5980	0	25.356	0	89.513	0	204.5	4	70.4	4	-1E+10	1	0.0664	4	0.000308	0	-1E+10	1	-1E+10	1	-1E+10	1
4902624	47	C	10/04/2025	03:41	-129.115	49.124	0	91.00	0	8.1810	0	32.6330	0	25.391	0	90.207	0	-1e10	1	-1e10	1	-1E+10	1	-1e10	1	-1e10	1	-1E+10	1	-1E+10	1	-1E+10	1
4902624	47	C	10/04/2025	03:41	-129.115	49.124	0	91.30	0	8.1696	0	32.6469	0	25.403	0	90.505	0	202.4	4	69.6	4	-1E+10	1	0.0618	4	0.000319	0	-1E+10	1	-1E+10	1	-1E+10	1
4902624	47	C	10/04/2025	03:41	-129.115	49.124	0	92.40	0	8.1278	0	32.6981	0	25.449	0	91.595	0	200.5	4	68.9	4	-1E+10	1	0.0633	4	0.000302	0	-1E+10	1	-1E+10	1	-1E+10	1
4902624	47	C	10/04/2025	03:41	-129.115	49.124	0	93.00	0	8.1050	0	32.7260	0	25.475	0	92.189	0	-1e10	1	-1e10	1	-1E+10	1	-1e10	1	-1e10	1	-1E+10	1	-1E+10	1	-1E+10	1
4902624	47	C	10/04/2025	03:41	-129.115	49.124	0	93.40	0	8.0833	0	32.7411	0	25.490	0	92.586	0	198.8	4	68.3	4	-1E+10	1	0.0584	4	0.000297	0	-1E+10	1	-1E+10	1	-1E+10	1
4902624	47	C	10/04/2025	03:41	-129.115	49.124	0	94.30	0	8.0344	0	32.7749	0	25.523	0	93.478	0	197.2	4	67.7	4	-1E+10	1	0.0600	4	0.000306	0	-1E+10	1	-1E+10	1	-1E+10	1
4902624	47	C	10/04/2025	03:41	-129.115	49.124	0	95.10	0	7.9910	0	32.8050	0	25.553	0	94.271	0	191.8	4	65.8	4	-1E+10	1	0.0730	4	0.000308	0	-1E+10	1	-1E+10	1	-1E+10	1
4902624	47	C	10/04/2025	03:41	-129.115	49.124	0	95.80	0	7.9464	0	32.8378	0	25.585	0	94.964	0	193.4	4	66.3	4	-1E+10	1	0.0602	4	0.000296	0	-1E+10	1	-1E+10	1	-1E+10	1
4902624	47	C	10/04/2025	03:41	-129.115	49.124	0	96.50	0	7.9018	0	32.8706	0	25.618	0	95.658	0	191.9	4	65.7	4	-1E+10	1	0.0647	4	0.000325	0	-1E+10	1	-1E+10	1	-1E+10	1
4902624	47	C	10/04/2025	03:41	-129.115	49.124	0	97.00	0	7.8700	0	32.8940	0	25.641	0	96.154	0	-1e10	1	-1e10	1	-1E+10	1	-1e10	1	-1e10	1	-1E+10	1	-1E+10	1	-1E+10	1
4902624	47	C	10/04/2025	03:41	-129.115	49.124	0	97.20	0	7.8627	0	32.8994	0	25.646	0	96.352	0	190.9	4	65.3	4	-1E+10	1	0.0532	4	0.000269	0	-1E+10	1	-1E+10	1	-1E+10	1
4902624	47	C	10/04/2025	03:41	-129.115	49.124	0	97.90	0	7.8372	0	32.9183	0	25.664	0	97.045	0	190.0	4	65.0	4	-1E+10	1	0.0511	4	0.000298	0	-1E+10	1	-1E+10	1	-1E+10	1
4902624	47	C	10/04/2025	03:41	-129.115	49.124	0	98.60	0	7.8116	0	32.9372	0	25.683	0	97.739	0	189.1	4	64.7	4	-1E+10	1	0.0553	4	0.000271	0	-1E+10	1	-1E+10	1	-1E+10	1
4902624	47	C	10/04/2025	03:41	-129.115	49.124	0	99.00	0	7.7970	0	32.9480	0	25.693	0	98.136	0	-1e10	1	-1e10	1	-1E+10	1	-1e10	1	-1e10	1	-1E+10	1	-1E+10	1	-1E+10	1
4902624	47	C	10/04/2025	03:41	-129.115	49.124	0	99.30	0	7.7955	0	32.9501	0	25.695	0	98.433	0	187.7	4	64.2	4	-1E+10	1	0.0584	4	0.000236	0	-1E+10	1	-1E+10	1	-1E+10	1
4902624	47	C	10/04/2025	03:41	-129.115	49.124	0	100.00	0	7.7920	0	32.9550	0	25.700	0	99.127	0	185.8	4	63.5	4	-1E+10	1	0.0608	4	0.000247	0	-1E+10	1	-1E+10	1	-1E+10	1
4902624	47	C	10/04/2025	03:41	-129.115	49.124	0	100.70	0	7.7885	0	32.9599	0	25.704	0	99.820	0	183.8	4	62.8	4	-1E+10	1	0.0639	4	0.000267	0	-1E+10	1	-1E+10	1	-1E+10	1
4902624	47	C	10/04/2025	03:41	-129.115	49.124	0	101.00	0	7.7870	0	32.9620	0	25.706	0	100.118	0	-1e10	1	-1e10	1	-1E+10	1	-1e10	1	-1e10	1	-1E+10	1	-1E+10	1	-1E+10	1
4902624	47	C	10/04/2025	03:41	-129.115	49.124	0	101.50	0	7.7703	0	32.9796	0	25.722	0	100.613	0	182.1	4	62.2	4	-1E+10	1	0.0503	4	0.000241	0	-1E+10	1	-1E+10	1	-1E+10	1
4902624	47	C	10/04/2025	03:41	-129.115	49.124	0	102.30	0	7.7437	0	33.0078	0	25.748	0	101.406	0	180.6	4	61.7	4	-1E+10	1	0.0438	4	0.000283	0	-1E+10	1	-1E+10	1	-1E+10	1
4902624	47	C	10/04/2025	03:41	-129.115	49.124	0	103.10	0	7.7170	0	33.0360	0	25.774	0	102.199	0	175.3	4	59.9	4	-1E+10	1	0.0555	4	0.000264	0	-1E+10	1	-1E+10	1	-1E+10	1
4902624	47	C	10/04/2025	03:41	-129.115	49.124	0	103.90	0	7.7073	0	33.0482	0	25.785	0	102.992	0	177.3	4	60.5	4	-1E+10	1	0.0529	4	0.000286	0	-1E+10	1	-1E+10	1	-1E+10	1
4902624	47	C	10/04/2025	03:41	-129.115	49.124	0	104.80	0	7.6964	0	33.0619	0	25.797	0	103.883	0	175.3	4	59.8	4	-1E+10	1	0.0511	4	0.000286	0	-1E+10	1	-1E+10	1	-1E+10	1
4902624	47	C	10/04/2025	03:41	-129.115	49.124	0	105.00	0	7.6940	0	33.0650	0	25.800	0	104.082	0	-1e10	1	-1e10	1	-1E+10	1	-1e10	1	-1e10	1	-1E+10	1	-1E+10	1	-1E+10	1
4902624	47	C	10/04/2025	03:41	-129.115	49.124	0	105.70	0	7.6831	0	33.0783	0	25.812	0	104.775	0	173.5	4	59.2	4	-1E+10	1	0.0471	4	0.000270	0	-1E+10	1	-1E+10	1	-1E+10	1
4902624	47	C	10/04/2025	03:41	-129.115	49.124	0	106.60	0	7.6692	0	33.0954	0	25.828	0	105.667	0	171.6	4	58.5	4	-1E+10	1	0.0470	4	0.000337	0	-1E+10	1	-1E+10	1	-1E+10	1
4902624	47	C	10/04/2025	03:41	-129.115	49.124	0	107.00	0	7.6630	0	33.1030	0	25.834	0	106.064	0	-1e10	1	-1e10	1	-1E+10	1	-1e10	1	-1e10	1	-1E+10	1	-1E+10	1	-1E+10	1
4902624	47	C	10/04/2025	03:41	-129.115	49.124	0	107.40	0	7.6554	0	33.1130	0	25.843	0	106.460	0	169.9	4	58.0	4	-1E+10	1	0.0531	4	0.000397	0	-1E+10	1	-1E+10	1	-1E+10	1
4902624	47	C	10/04/2025	03:41	-129.115	49.124	0	108.40	0	7.6364	0	33.1380	0	25.866	0	107.451	0	168.3	4	57.4	4	-1E+10	1	0.0557	4	0.000286	0	-1E+10	1	-1E+10	1	-1E+10	1
4902624	47	C	10/04/2025	03:41	-129.115	49.124	0	109.00	0	7.6250	0	33.1530	0	25.879	0	108.046	0	-1e10	1	-1e10	1	-1E+10	1	-1e10	1	-1e10	1	-1E+10	1	-1E+10	1	-1E+10	1
4902624	47	C	10/04/2025	03:41	-129.115	49.124	0	109.30	0	7.6213	0	33.1582	0	25.884	0	108.343	0	166.8	4	56.9	4	-1E+10	1	0.0438	4	0.000247	0	-1E+10	1	-1E+10	1	-1E+10	1
4902624	47	C	10/04/2025	03:41	-129.115	49.124	0	110.20	0	7.6100	0	33.1740	0	25.898	0	109.235	0	165.2	4	56.3	4	-1E+10	1	0.0365	4	0.000283	0	-1E+10	1	-1E+10	1	-1E+10	1
4902624	47	C	10/04/2025	03:41	-129.115	49.124	0	111.00	0	7.6000	0	33.1880	0	25.910	0	110.028	0	-1e10	1	-1e10	1	-1E+10	1	-1e10	1	-1e10	1	-1E+10	1	-1E+10	1	-1E+10	1
4902624	47	C	10/04/2025	03:41	-129.115	49.124	0	111.10	0	7.5988	0	33.1897	0	25.912	0	110.127	0	163.6	4	55.8	4	-1E+10	1	0.0664	4	0.000263	0	-1E+10	1	-1E+10	1	-1E+10	1
4902624	47	C	10/04/2025	03:41	-129.115	49.124	0	112.00	0	7.5885	0	33.2045	0	25.925	0	111.019	0	162.1	4	55.2	4	-1E+10	1	0.0544	4	0.000274	0	-1E+10	1	-1E+10	1	-1E+10	1
4902624	47	C	10/04/2025	03:41	-129.115	49.124	0	112.90	0	7.5782	0	33.2193	0	25.938	0	111.910	0	160.5	4	54.7	4	-1E+10	1	0.0575	4	0.000305	0	-1E+10	1	-1E+10	1	-1E+10	1
4902624	47	C	10/04/2025	03:41	-129.115	49.124	0	113.00	0	7.5770	0	33.2210	0	25.939	0	112.010	0	-1e10	1	-1e10	1	-1E+10	1	-1e10	1	-1e10	1	-1E+10	1	-1E+10	1	-1E+10	1
4902624	47	C	10/04/2025	03:41	-129.115	49.124	0	113.80	0	7.5724	0	33.2374	0	25.953	0	112.802	0	159.2	4	54.2	4	-1E+10	1	0.0584	4	0.000306	0	-1E+10	1	-1E+10	1	-1E+10	1
4902624	47	C	10/04/2025	03:41	-129.115	49.124	0	114.70	0	7.5672	0	33.2559	0	25.968	0	113.694	0	157.5	4	53.7	4	-1E+10	1	0.0511	4	0.000294	0	-1E+10	1	-1E+10	1	-1E+10	1
4902624	47	C	10/04/2025	03:41	-129.115	49.124	0	114.90	0	7.5660	0	33.2600	0	25.972	0	113.892	0	-1e10	1	-1e10	1	-1E+10	1	-1e10	1	-1e10	1	-1E+10	1	-1E+10	1	-1E+10	1
4902624	47	C	10/04/2025	03:41	-129.115	49.124	0	115.70	0	7.5652	0	33.2691	0	25.979	0	114.685	0	155.7	4	53.1	4	-1E+10	1	0.0527	4	0.000294	0	-1E+10	1	-1E+10	1	-1E+10	1
4902624	47	C	10/04/2025	03:41	-129.115	49.124	0	116.60	0	7.5644	0	33.2794	0	25.987	0	115.577	0	153.8	4	52.4	4	-1E+10	1	0.0572	4	0.000294	0	-1E+10	1	-1E+10	1	-1E+10	1
4902624	47	C	10/04/2025	03:41	-129.115	49.124	0	117.00	0	7.5640	0	33.2840	0	25.991	0	115.973	0	-1e10	1	-1e10	1	-1E+10	1	-1e10	1	-1e10	1	-1E+10	1	-1E+10	1	-1E+10	1
4902624	47	C	10/04/2025	03:41	-129.115	49.124	0	117.60	0	7.5613	0	33.2879	0	25.994	0	116.568	0	151.4	4	51.6	4	-1E+10	1	0.0511	4	0.000294	0	-1E+10	1	-1E+10	1	-1E+10	1
4902624	47	C	10/04/2025	03:41	-129.115	49.124	0	118.60	0	7.5568	0	33.2944	0	26.000	0	117.559	0	148.5	4	50.6	4	-1E+10	1	0.0572	4	0.000314	0	-1E+10	1	-1E+10	1	-1E+10	1
4902624	47	C	10/04/2025	03:41	-129.115	49.124	0	119.00	0	7.5550	0	33.2970	0	26.002	0	117.955	0	-1e10	1	-1e10	1	-1E+10	1	-1e10	1	-1e10	1	-1E+10	1	-1E+10	1	-1E+10	1
4902624	47	C	10/04/2025	03:41	-129.115	49.124	0	119.60	0	7.5699	0	33.3096	0	26.010	0	118.550	0	145.5	4	49.6	4	-1E+10	1	0.0526	4	0.000355	0	-1E+10	1	-1E+10	1	-1E+10	1
4902624	47	C	10/04/2025	03:41	-129.115	49.124	0	120.60	0	7.5946	0	33.3305	0	26.023	0	119.541	0	143.1	4	48.8	4	-1E+10	1	0.0511	4	0.000419	0	-1E+10	1	-1E+10	1	-1E+10	1
4902624	47	C	10/04/2025	03:41	-129.115	49.124	0	121.10	0	7.6070	0	33.3410	0	26.030	0	120.036	0	-1e10	1	-1e10	1	-1E+10	1	-1e10	1	-1e10	1	-1E+10	1	-1E+10	1	-1E+10	1
4902624	47	C	10/04/2025	03:41	-129.115	49.124	0	121.60	0	7.6112	0	33.3523	0	26.038	0	120.532	0	141.6	4	48.3	4	-1E+10	1	0.0511	4	0.000370	0	-1E+10	1	-1E+10	1	-1E+10	1
4902624	47	C	10/04/2025	03:41	-129.115	49.124	0	122.70	0	7.6205	0	33.3772	0	26.056	0	121.622	0	140.0	4	47.8	4	-1E+10	1	0.0511	4	0.000380	0	-1E+10	1	-1E+10	1	-1E+10	1
4902624	47	C	10/04/2025	03:41	-129.115	49.124	0	123.00	0	7.6230	0	33.3840	0	26.061	0	121.919	0	-1e10	1	-1e10	1	-1E+10	1	-1e10	1	-1e10	1	-1E+10	1	-1E+10	1	-1E+10	1
4902624	47	C	10/04/2025	03:41	-129.115	49.124	0	123.70	0	7.6283	0	33.3948	0	26.069	0	122.613	0	138.8	4	47.4	4	-1E+10	1	0.0487	4	0.000435	0	-1E+10	1	-1E+10	1	-1E+10	1
4902624	47	C	10/04/2025	03:41	-129.115	49.124	0	124.70	0	7.6357	0	33.4104	0	26.080	0	123.603	0	138.0	4	47.1	4	-1E+10	1	0.0465	4	0.000333	0	-1E+10	1	-1E+10	1	-1E+10	1
4902624	47	C	10/04/2025	03:41	-129.115	49.124	0	125.00	0	7.6380	0	33.4150	0	26.083	0	123.901	0	-1e10	1	-1e10	1	-1E+10	1	-1e10	1	-1e10	1	-1E+10	1	-1E+10	1	-1E+10	1
4902624	47	C	10/04/2025	03:41	-129.115	49.124	0	125.60	0	7.6377	0	33.4153	0	26.084	0	124.495	0	137.0	4	46.8	4	-1E+10	1	0.0584	4	0.000294	0	-1E+10	1	-1E+10	1	-1E+10	1
4902624	47	C	10/04/2025	03:41	-129.115	49.124	0	126.60	0	7.6372	0	33.4158	0	26.084	0	125.486	0	135.5	4	46.3	4	-1E+10	1	0.0511	4	0.000341	0	-1E+10	1	-1E+10	1	-1E+10	1
4902624	47	C	10/04/2025	03:41	-129.115	49.124	0	127.00	0	7.6370	0	33.4160	0	26.084	0	125.883	0	-1e10	1	-1e10	1	-1E+10	1	-1e10	1	-1e10	1	-1E+10	1	-1E+10	1	-1E+10	1
4902624	47	C	10/04/2025	03:41	-129.115	49.124	0	127.60	0	7.6351	0	33.4165	0	26.085	0	126.477	0	133.9	4	45.8	4	-1E+10	1	0.0511	4	0.000351	0	-1E+10	1	-1E+10	1	-1E+10	1
4902624	47	C	10/04/2025	03:41	-129.115	49.124	0	128.60	0	7.6319	0	33.4175	0	26.086	0	127.468	0	132.4	4	45.2	4	-1E+10	1	0.0414	4	0.000345	0	-1E+10	1	-1E+10	1	-1E+10	1
4902624	47	C	10/04/2025	03:41	-129.115	49.124	0	129.20	0	7.6300	0	33.4180	0	26.087	0	128.063	0	-1e10	1	-1e10	1	-1E+10	1	-1e10	1	-1e10	1	-1E+10	1	-1E+10	1	-1E+10	1
4902624	47	C	10/04/2025	03:41	-129.115	49.124	0	129.60	0	7.6321	0	33.4247	0	26.092	0	128.459	0	130.5	4	44.6	4	-1E+10	1	0.0453	4	0.000341	0	-1E+10	1	-1E+10	1	-1E+10	1
4902624	47	C	10/04/2025	03:41	-129.115	49.124	0	130.60	0	7.6374	0	33.4416	0	26.105	0	129.450	0	128.5	4	43.9	4	-1E+10	1	0.0392	4	0.000348	0	-1E+10	1	-1E+10	1	-1E+10	1
4902624	47	C	10/04/2025	03:41	-129.115	49.124	0	131.10	0	7.6400	0	33.4500	0	26.111	0	129.945	0	-1e10	1	-1e10	1	-1E+10	1	-1e10	1	-1e10	1	-1E+10	1	-1E+10	1	-1E+10	1
4902624	47	C	10/04/2025	03:41	-129.115	49.124	0	131.60	0	7.6407	0	33.4635	0	26.121	0	130.441	0	126.8	4	43.4	4	-1E+10	1	0.0348	4	0.000362	0	-1E+10	1	-1E+10	1	-1E+10	1
4902624	47	C	10/04/2025	03:41	-129.115	49.124	0	132.60	0	7.6423	0	33.4905	0	26.142	0	131.432	0	125.7	4	43.0	4	-1E+10	1	0.0438	4	0.000374	0	-1E+10	1	-1E+10	1	-1E+10	1
4902624	47	C	10/04/2025	03:41	-129.115	49.124	0	133.10	0	7.6430	0	33.5040	0	26.153	0	131.927	0	-1e10	1	-1e10	1	-1E+10	1	-1e10	1	-1e10	1	-1E+10	1	-1E+10	1	-1E+10	1
4902624	47	C	10/04/2025	03:41	-129.115	49.124	0	133.60	0	7.6422	0	33.5106	0	26.158	0	132.422	0	124.7	4	42.7	4	-1E+10	1	0.0438	4	0.000366	0	-1E+10	1	-1E+10	1	-1E+10	1
4902624	47	C	10/04/2025	03:41	-129.115	49.124	0	134.70	0	7.6405	0	33.5251	0	26.170	0	133.512	0	123.9	4	42.4	4	-1E+10	1	0.0438	4	0.000376	0	-1E+10	1	-1E+10	1	-1E+10	1
4902624	47	C	10/04/2025	03:41	-129.115	49.124	0	135.00	0	7.6400	0	33.5290	0	26.173	0	133.810	0	-1e10	1	-1e10	1	-1E+10	1	-1e10	1	-1e10	1	-1E+10	1	-1E+10	1	-1E+10	1
4902624	47	C	10/04/2025	03:41	-129.115	49.124	0	135.90	0	7.6367	0	33.5342	0	26.178	0	134.701	0	123.2	4	42.1	4	-1E+10	1	0.0438	4	0.000435	0	-1E+10	1	-1E+10	1	-1E+10	1
4902624	47	C	10/04/2025	03:41	-129.115	49.124	0	136.90	0	7.6330	0	33.5400	0	26.183	0	135.692	0	122.5	4	41.9	4	-1E+10	1	0.0584	4	0.000329	0	-1E+10	1	-1E+10	1	-1E+10	1
4902624	47	C	10/04/2025	03:41	-129.115	49.124	0	137.60	0	7.6200	0	33.5600	0	26.200	0	136.386	0	122.1	4	41.8	4	-1E+10	1	0.0482	4	0.000346	0	-1E+10	1	-1E+10	1	-1E+10	1
4902624	47	C	10/04/2025	03:41	-129.115	49.124	0	138.30	0	7.6071	0	33.5799	0	26.218	0	137.079	0	121.9	4	41.7	4	-1E+10	1	0.0438	4	0.000363	0	-1E+10	1	-1E+10	1	-1E+10	1
4902624	47	C	10/04/2025	03:41	-129.115	49.124	0	138.90	0	7.5960	0	33.5970	0	26.233	0	137.674	0	-1e10	1	-1e10	1	-1E+10	1	-1e10	1	-1e10	1	-1E+10	1	-1E+10	1	-1E+10	1
4902624	47	C	10/04/2025	03:41	-129.115	49.124	0	139.00	0	7.5952	0	33.5980	0	26.234	0	137.773	0	121.7	4	41.6	4	-1E+10	1	0.0414	4	0.000361	0	-1E+10	1	-1E+10	1	-1E+10	1
4902624	47	C	10/04/2025	03:41	-129.115	49.124	0	139.70	0	7.5899	0	33.6054	0	26.240	0	138.467	0	121.4	4	41.5	4	-1E+10	1	0.0365	4	0.000334	0	-1E+10	1	-1E+10	1	-1E+10	1
4902624	47	C	10/04/2025	03:41	-129.115	49.124	0	140.30	0	7.5853	0	33.6117	0	26.246	0	139.061	0	121.2	4	41.4	4	-1E+10	1	0.0383	4	0.000337	0	-1E+10	1	-1E+10	1	-1E+10	1
4902624	47	C	10/04/2025	03:41	-129.115	49.124	0	141.00	0	7.5800	0	33.6190	0	26.252	0	139.755	0	118.0	4	40.3	4	-1E+10	1	0.0511	4	0.000306	0	-1E+10	1	-1E+10	1	-1E+10	1
4902624	47	C	10/04/2025	03:41	-129.115	49.124	0	141.70	0	7.5771	0	33.6282	0	26.260	0	140.448	0	120.6	4	41.2	4	-1E+10	1	0.0511	4	0.000341	0	-1E+10	1	-1E+10	1	-1E+10	1
4902624	47	C	10/04/2025	03:41	-129.115	49.124	0	142.40	0	7.5741	0	33.6374	0	26.268	0	141.142	0	120.3	4	41.1	4	-1E+10	1	0.0383	4	0.000372	0	-1E+10	1	-1E+10	1	-1E+10	1
4902624	47	C	10/04/2025	03:41	-129.115	49.124	0	142.90	0	7.5720	0	33.6440	0	26.273	0	141.637	0	-1e10	1	-1e10	1	-1E+10	1	-1e10	1	-1e10	1	-1E+10	1	-1E+10	1	-1E+10	1
4902624	47	C	10/04/2025	03:41	-129.115	49.124	0	143.10	0	7.5732	0	33.6461	0	26.275	0	141.835	0	119.9	4	41.0	4	-1E+10	1	0.0365	4	0.000464	0	-1E+10	1	-1E+10	1	-1E+10	1
4902624	47	C	10/04/2025	03:41	-129.115	49.124	0	143.80	0	7.5774	0	33.6535	0	26.280	0	142.529	0	119.8	4	40.9	4	-1E+10	1	0.0411	4	0.000420	0	-1E+10	1	-1E+10	1	-1E+10	1
4902624	47	C	10/04/2025	03:41	-129.115	49.124	0	144.50	0	7.5816	0	33.6608	0	26.285	0	143.223	0	119.9	4	41.0	4	-1E+10	1	0.0474	4	0.000405	0	-1E+10	1	-1E+10	1	-1E+10	1
4902624	47	C	10/04/2025	03:41	-129.115	49.124	0	144.90	0	7.5840	0	33.6650	0	26.288	0	143.619	0	-1e10	1	-1e10	1	-1E+10	1	-1e10	1	-1e10	1	-1E+10	1	-1E+10	1	-1E+10	1
4902624	47	C	10/04/2025	03:41	-129.115	49.124	0	145.20	0	7.5817	0	33.6679	0	26.291	0	143.916	0	120.0	4	41.0	4	-1E+10	1	0.0487	4	0.000411	0	-1E+10	1	-1E+10	1	-1E+10	1
4902624	47	C	10/04/2025	03:41	-129.115	49.124	0	145.90	0	7.5764	0	33.6745	0	26.297	0	144.610	0	120.2	4	41.1	4	-1E+10	1	0.0417	4	0.000364	0	-1E+10	1	-1E+10	1	-1E+10	1
4902624	47	C	10/04/2025	03:41	-129.115	49.124	0	146.70	0	7.5703	0	33.6821	0	26.303	0	145.402	0	120.3	4	41.1	4	-1E+10	1	0.0373	4	0.000359	0	-1E+10	1	-1E+10	1	-1E+10	1
4902624	47	C	10/04/2025	03:41	-129.115	49.124	0	147.00	0	7.5680	0	33.6850	0	26.306	0	145.700	0	-1e10	1	-1e10	1	-1E+10	1	-1e10	1	-1e10	1	-1E+10	1	-1E+10	1	-1E+10	1
4902624	47	C	10/04/2025	03:41	-129.115	49.124	0	147.40	0	7.5611	0	33.6879	0	26.309	0	146.096	0	120.5	4	41.2	4	-1E+10	1	0.0657	4	0.000341	0	-1E+10	1	-1E+10	1	-1E+10	1
4902624	47	C	10/04/2025	03:41	-129.115	49.124	0	148.20	0	7.5474	0	33.6936	0	26.316	0	146.889	0	120.7	4	41.3	4	-1E+10	1	0.0527	4	0.000393	0	-1E+10	1	-1E+10	1	-1E+10	1
4902624	47	C	10/04/2025	03:41	-129.115	49.124	0	148.90	0	7.5354	0	33.6986	0	26.321	0	147.582	0	120.8	4	41.3	4	-1E+10	1	0.0456	4	0.000373	0	-1E+10	1	-1E+10	1	-1E+10	1
4902624	47	C	10/04/2025	03:41	-129.115	49.124	0	149.10	0	7.5320	0	33.7000	0	26.323	0	147.780	0	-1e10	1	-1e10	1	-1E+10	1	-1e10	1	-1e10	1	-1E+10	1	-1E+10	1	-1E+10	1
4902624	47	C	10/04/2025	03:41	-129.115	49.124	0	149.70	0	7.5269	0	33.7047	0	26.327	0	148.375	0	120.9	4	41.3	4	-1E+10	1	0.0394	4	0.000364	0	-1E+10	1	-1E+10	1	-1E+10	1
4902624	47	C	10/04/2025	03:41	-129.115	49.124	0	150.50	0	7.5202	0	33.7111	0	26.333	0	149.167	0	120.8	4	41.3	4	-1E+10	1	0.0365	4	0.000354	0	-1E+10	1	-1E+10	1	-1E+10	1
4902624	47	C	10/04/2025	03:41	-129.115	49.124	0	151.00	0	7.5160	0	33.7150	0	26.337	0	149.663	0	-1e10	1	-1e10	1	-1E+10	1	-1e10	1	-1e10	1	-1E+10	1	-1E+10	1	-1E+10	1
4902624	47	C	10/04/2025	03:41	-129.115	49.124	0	151.30	0	7.5143	0	33.7160	0	26.338	0	149.960	0	120.5	4	41.2	4	-1E+10	1	0.0392	4	0.000354	0	-1E+10	1	-1E+10	1	-1E+10	1
4902624	47	C	10/04/2025	03:41	-129.115	49.124	0	152.10	0	7.5100	0	33.7188	0	26.341	0	150.753	0	120.2	4	41.1	4	-1E+10	1	0.0460	4	0.000387	0	-1E+10	1	-1E+10	1	-1E+10	1
4902624	47	C	10/04/2025	03:41	-129.115	49.124	0	152.90	0	7.5055	0	33.7216	0	26.344	0	151.545	0	119.8	4	40.9	4	-1E+10	1	0.0495	4	0.000402	0	-1E+10	1	-1E+10	1	-1E+10	1
4902624	47	C	10/04/2025	03:41	-129.115	49.124	0	153.00	0	7.5050	0	33.7220	0	26.344	0	151.644	0	-1e10	1	-1e10	1	-1E+10	1	-1e10	1	-1e10	1	-1E+10	1	-1E+10	1	-1E+10	1
4902624	47	C	10/04/2025	03:41	-129.115	49.124	0	153.70	0	7.5026	0	33.7244	0	26.346	0	152.338	0	119.4	4	40.8	4	-1E+10	1	0.0365	4	0.000329	0	-1E+10	1	-1E+10	1	-1E+10	1
4902624	47	C	10/04/2025	03:41	-129.115	49.124	0	154.50	0	7.4998	0	33.7272	0	26.349	0	153.130	0	119.0	4	40.6	4	-1E+10	1	0.0438	4	0.000341	0	-1E+10	1	-1E+10	1	-1E+10	1
4902624	47	C	10/04/2025	03:41	-129.115	49.124	0	155.00	0	7.4980	0	33.7290	0	26.351	0	153.626	0	-1e10	1	-1e10	1	-1E+10	1	-1e10	1	-1e10	1	-1E+10	1	-1E+10	1	-1E+10	1
4902624	47	C	10/04/2025	03:41	-129.115	49.124	0	155.30	0	7.4957	0	33.7309	0	26.352	0	153.923	0	118.7	4	40.5	4	-1E+10	1	0.0438	4	0.000376	0	-1E+10	1	-1E+10	1	-1E+10	1
4902624	47	C	10/04/2025	03:41	-129.115	49.124	0	156.10	0	7.4897	0	33.7361	0	26.357	0	154.716	0	118.3	4	40.4	4	-1E+10	1	0.0438	4	0.000386	0	-1E+10	1	-1E+10	1	-1E+10	1
4902624	47	C	10/04/2025	03:41	-129.115	49.124	0	156.80	0	7.4845	0	33.7407	0	26.362	0	155.409	0	117.8	4	40.2	4	-1E+10	1	0.0548	4	0.000440	0	-1E+10	1	-1E+10	1	-1E+10	1
4902624	47	C	10/04/2025	03:41	-129.115	49.124	0	157.00	0	7.4830	0	33.7420	0	26.363	0	155.607	0	-1e10	1	-1e10	1	-1E+10	1	-1e10	1	-1e10	1	-1E+10	1	-1E+10	1	-1E+10	1
4902624	47	C	10/04/2025	03:41	-129.115	49.124	0	157.60	0	7.4787	0	33.7463	0	26.367	0	156.202	0	117.1	4	40.0	4	-1E+10	1	0.0487	4	0.000395	0	-1E+10	1	-1E+10	1	-1E+10	1
4902624	47	C	10/04/2025	03:41	-129.115	49.124	0	158.50	0	7.4723	0	33.7527	0	26.373	0	157.093	0	116.4	4	39.7	4	-1E+10	1	0.0482	4	0.000385	0	-1E+10	1	-1E+10	1	-1E+10	1
4902624	47	C	10/04/2025	03:41	-129.115	49.124	0	159.10	0	7.4680	0	33.7570	0	26.377	0	157.688	0	-1e10	1	-1e10	1	-1E+10	1	-1e10	1	-1e10	1	-1E+10	1	-1E+10	1	-1E+10	1
4902624	47	C	10/04/2025	03:41	-129.115	49.124	0	159.30	0	7.4662	0	33.7583	0	26.378	0	157.886	0	115.7	4	39.5	4	-1E+10	1	0.0446	4	0.000420	0	-1E+10	1	-1E+10	1	-1E+10	1
4902624	47	C	10/04/2025	03:41	-129.115	49.124	0	160.10	0	7.4590	0	33.7635	0	26.383	0	158.679	0	114.8	4	39.2	4	-1E+10	1	0.0387	4	0.000439	0	-1E+10	1	-1E+10	1	-1E+10	1
4902624	47	C	10/04/2025	03:41	-129.115	49.124	0	160.90	0	7.4518	0	33.7687	0	26.388	0	159.471	0	113.9	4	38.8	4	-1E+10	1	0.0453	4	0.000428	0	-1E+10	1	-1E+10	1	-1E+10	1
4902624	47	C	10/04/2025	03:41	-129.115	49.124	0	161.10	0	7.4500	0	33.7700	0	26.390	0	159.669	0	-1e10	1	-1e10	1	-1E+10	1	-1e10	1	-1e10	1	-1E+10	1	-1E+10	1	-1E+10	1
4902624	47	C	10/04/2025	03:41	-129.115	49.124	0	161.80	0	7.4404	0	33.7733	0	26.394	0	160.363	0	113.1	4	38.6	4	-1E+10	1	0.0584	4	0.000470	0	-1E+10	1	-1E+10	1	-1E+10	1
4902624	47	C	10/04/2025	03:41	-129.115	49.124	0	162.60	0	7.4295	0	33.7771	0	26.398	0	161.155	0	112.3	4	38.3	4	-1E+10	1	0.0438	4	0.000341	0	-1E+10	1	-1E+10	1	-1E+10	1
4902624	47	C	10/04/2025	03:41	-129.115	49.124	0	163.00	0	7.4240	0	33.7790	0	26.401	0	161.552	0	-1e10	1	-1e10	1	-1E+10	1	-1e10	1	-1e10	1	-1E+10	1	-1E+10	1	-1E+10	1
4902624	47	C	10/04/2025	03:41	-129.115	49.124	0	163.50	0	7.4187	0	33.7815	0	26.403	0	162.047	0	111.6	4	38.1	4	-1E+10	1	0.0498	4	0.000398	0	-1E+10	1	-1E+10	1	-1E+10	1
4902624	47	C	10/04/2025	03:41	-129.115	49.124	0	164.30	0	7.4103	0	33.7855	0	26.408	0	162.840	0	110.8	4	37.8	4	-1E+10	1	0.0380	4	0.000418	0	-1E+10	1	-1E+10	1	-1E+10	1
4902624	47	C	10/04/2025	03:41	-129.115	49.124	0	165.00	0	7.4030	0	33.7890	0	26.411	0	163.533	0	-1e10	1	-1e10	1	-1E+10	1	-1e10	1	-1e10	1	-1E+10	1	-1E+10	1	-1E+10	1
4902624	47	C	10/04/2025	03:41	-129.115	49.124	0	165.20	0	7.3995	0	33.7900	0	26.413	0	163.731	0	110.2	4	37.6	4	-1E+10	1	0.0373	4	0.000462	0	-1E+10	1	-1E+10	1	-1E+10	1
4902624	47	C	10/04/2025	03:41	-129.115	49.124	0	166.10	0	7.3836	0	33.7942	0	26.418	0	164.623	0	109.7	4	37.4	4	-1E+10	1	0.0438	4	0.000440	0	-1E+10	1	-1E+10	1	-1E+10	1
4902624	47	C	10/04/2025	03:41	-129.115	49.124	0	166.90	0	7.3695	0	33.7980	0	26.423	0	165.416	0	109.4	4	37.3	4	-1E+10	1	0.0460	4	0.000388	0	-1E+10	1	-1E+10	1	-1E+10	1
4902624	47	C	10/04/2025	03:41	-129.115	49.124	0	167.10	0	7.3660	0	33.7990	0	26.424	0	165.614	0	-1e10	1	-1e10	1	-1E+10	1	-1e10	1	-1e10	1	-1E+10	1	-1E+10	1	-1E+10	1
4902624	47	C	10/04/2025	03:41	-129.115	49.124	0	167.80	0	7.3548	0	33.8025	0	26.429	0	166.307	0	109.1	4	37.1	4	-1E+10	1	0.0479	4	0.000388	0	-1E+10	1	-1E+10	1	-1E+10	1
4902624	47	C	10/04/2025	03:41	-129.115	49.124	0	168.70	0	7.3404	0	33.8070	0	26.434	0	167.199	0	108.9	4	37.1	4	-1E+10	1	0.0392	4	0.000388	0	-1E+10	1	-1E+10	1	-1E+10	1
4902624	47	C	10/04/2025	03:41	-129.115	49.124	0	169.10	0	7.3340	0	33.8090	0	26.437	0	167.595	0	-1e10	1	-1e10	1	-1E+10	1	-1e10	1	-1e10	1	-1E+10	1	-1E+10	1	-1E+10	1
4902624	47	C	10/04/2025	03:41	-129.115	49.124	0	169.60	0	7.3288	0	33.8102	0	26.439	0	168.090	0	108.6	4	37.0	4	-1E+10	1	0.0511	4	0.000388	0	-1E+10	1	-1E+10	1	-1E+10	1
4902624	47	C	10/04/2025	03:41	-129.115	49.124	0	170.50	0	7.3193	0	33.8125	0	26.442	0	168.982	0	108.1	4	36.8	4	-1E+10	1	0.0511	4	0.000464	0	-1E+10	1	-1E+10	1	-1E+10	1
4902624	47	C	10/04/2025	03:41	-129.115	49.124	0	171.10	0	7.3130	0	33.8140	0	26.444	0	169.576	0	-1e10	1	-1e10	1	-1E+10	1	-1e10	1	-1e10	1	-1E+10	1	-1E+10	1	-1E+10	1
4902624	47	C	10/04/2025	03:41	-129.115	49.124	0	171.40	0	7.3100	0	33.8149	0	26.445	0	169.874	0	107.7	4	36.6	4	-1E+10	1	0.0454	4	0.000427	0	-1E+10	1	-1E+10	1	-1E+10	1
4902624	47	C	10/04/2025	03:41	-129.115	49.124	0	172.30	0	7.3010	0	33.8176	0	26.448	0	170.765	0	107.3	4	36.5	4	-1E+10	1	0.0540	4	0.000428	0	-1E+10	1	-1E+10	1	-1E+10	1
4902624	47	C	10/04/2025	03:41	-129.115	49.124	0	173.10	0	7.2930	0	33.8200	0	26.451	0	171.558	0	-1e10	1	-1e10	1	-1E+10	1	-1e10	1	-1e10	1	-1E+10	1	-1E+10	1	-1E+10	1
4902624	47	C	10/04/2025	03:41	-129.115	49.124	0	173.20	0	7.2913	0	33.8201	0	26.452	0	171.657	0	107.0	4	36.4	4	-1E+10	1	0.0584	4	0.000435	0	-1E+10	1	-1E+10	1	-1E+10	1
4902624	47	C	10/04/2025	03:41	-129.115	49.124	0	174.10	0	7.2760	0	33.8215	0	26.455	0	172.548	0	106.6	4	36.2	4	-1E+10	1	0.0560	4	0.000423	0	-1E+10	1	-1E+10	1	-1E+10	1
4902624	47	C	10/04/2025	03:41	-129.115	49.124	0	175.00	0	7.2607	0	33.8229	0	26.458	0	173.440	0	106.2	4	36.1	4	-1E+10	1	0.0471	4	0.000390	0	-1E+10	1	-1E+10	1	-1E+10	1
4902624	47	C	10/04/2025	03:41	-129.115	49.124	0	175.10	0	7.2590	0	33.8230	0	26.458	0	173.539	0	-1e10	1	-1e10	1	-1E+10	1	-1e10	1	-1e10	1	-1E+10	1	-1E+10	1	-1E+10	1
4902624	47	C	10/04/2025	03:41	-129.115	49.124	0	176.00	0	7.2481	0	33.8263	0	26.463	0	174.431	0	105.9	4	36.0	4	-1E+10	1	0.0392	4	0.000364	0	-1E+10	1	-1E+10	1	-1E+10	1
4902624	47	C	10/04/2025	03:41	-129.115	49.124	0	176.90	0	7.2372	0	33.8296	0	26.467	0	175.322	0	105.7	4	35.9	4	-1E+10	1	0.0511	4	0.000364	0	-1E+10	1	-1E+10	1	-1E+10	1
4902624	47	C	10/04/2025	03:41	-129.115	49.124	0	177.00	0	7.2360	0	33.8300	0	26.467	0	175.421	0	-1e10	1	-1e10	1	-1E+10	1	-1e10	1	-1e10	1	-1E+10	1	-1E+10	1	-1E+10	1
4902624	47	C	10/04/2025	03:41	-129.115	49.124	0	177.80	0	7.2228	0	33.8316	0	26.470	0	176.214	0	105.2	4	35.7	4	-1E+10	1	0.0584	4	0.000352	0	-1E+10	1	-1E+10	1	-1E+10	1
4902624	47	C	10/04/2025	03:41	-129.115	49.124	0	178.70	0	7.2080	0	33.8334	0	26.474	0	177.106	0	104.5	4	35.5	4	-1E+10	1	0.0524	4	0.000381	0	-1E+10	1	-1E+10	1	-1E+10	1
4902624	47	C	10/04/2025	03:41	-129.115	49.124	0	179.00	0	7.2030	0	33.8340	0	26.475	0	177.403	0	-1e10	1	-1e10	1	-1E+10	1	-1e10	1	-1e10	1	-1E+10	1	-1E+10	1	-1E+10	1
4902624	47	C	10/04/2025	03:41	-129.115	49.124	0	179.70	0	7.2006	0	33.8364	0	26.477	0	178.096	0	103.7	4	35.2	4	-1E+10	1	0.0405	4	0.000388	0	-1E+10	1	-1E+10	1	-1E+10	1
4902624	47	C	10/04/2025	03:41	-129.115	49.124	0	180.60	0	7.1974	0	33.8396	0	26.480	0	178.988	0	103.2	4	35.0	4	-1E+10	1	0.0365	4	0.000387	0	-1E+10	1	-1E+10	1	-1E+10	1
4902624	47	C	10/04/2025	03:41	-129.115	49.124	0	181.00	0	7.1960	0	33.8410	0	26.481	0	179.384	0	-1e10	1	-1e10	1	-1E+10	1	-1e10	1	-1e10	1	-1E+10	1	-1E+10	1	-1E+10	1
4902624	47	C	10/04/2025	03:41	-129.115	49.124	0	181.50	0	7.1934	0	33.8420	0	26.482	0	179.879	0	102.7	4	34.9	4	-1E+10	1	0.0431	4	0.000600	0	-1E+10	1	-1E+10	1	-1E+10	1
4902624	47	C	10/04/2025	03:41	-129.115	49.124	0	182.50	0	7.1881	0	33.8439	0	26.485	0	180.870	0	102.2	4	34.7	4	-1E+10	1	0.0484	4	0.000699	0	-1E+10	1	-1E+10	1	-1E+10	1
4902624	47	C	10/04/2025	03:41	-129.115	49.124	0	183.10	0	7.1850	0	33.8450	0	26.486	0	181.464	0	-1e10	1	-1e10	1	-1E+10	1	-1e10	1	-1e10	1	-1E+10	1	-1E+10	1	-1E+10	1
4902624	47	C	10/04/2025	03:41	-129.115	49.124	0	183.40	0	7.1829	0	33.8452	0	26.486	0	181.762	0	101.5	4	34.4	4	-1E+10	1	0.0438	4	0.000413	0	-1E+10	1	-1E+10	1	-1E+10	1
4902624	47	C	10/04/2025	03:41	-129.115	49.124	0	184.30	0	7.1768	0	33.8456	0	26.488	0	182.653	0	100.6	4	34.1	4	-1E+10	1	0.0445	4	0.000373	0	-1E+10	1	-1E+10	1	-1E+10	1
4902624	47	C	10/04/2025	03:41	-129.115	49.124	0	185.00	0	7.1720	0	33.8460	0	26.489	0	183.347	0	-1e10	1	-1e10	1	-1E+10	1	-1e10	1	-1e10	1	-1E+10	1	-1E+10	1	-1E+10	1
4902624	47	C	10/04/2025	03:41	-129.115	49.124	0	185.30	0	7.1665	0	33.8466	0	26.490	0	183.644	0	99.7	4	33.8	4	-1E+10	1	0.0511	4	0.000341	0	-1E+10	1	-1E+10	1	-1E+10	1
4902624	47	C	10/04/2025	03:41	-129.115	49.124	0	186.20	0	7.1498	0	33.8484	0	26.494	0	184.535	0	98.6	4	33.4	4	-1E+10	1	0.0511	4	0.000600	0	-1E+10	1	-1E+10	1	-1E+10	1
4902624	47	C	10/04/2025	03:41	-129.115	49.124	0	187.00	0	7.1350	0	33.8500	0	26.497	0	185.328	0	-1e10	1	-1e10	1	-1E+10	1	-1e10	1	-1e10	1	-1E+10	1	-1E+10	1	-1E+10	1
4902624	47	C	10/04/2025	03:41	-129.115	49.124	0	187.20	0	7.1334	0	33.8510	0	26.498	0	185.526	0	97.3	4	33.0	4	-1E+10	1	0.0453	4	0.000441	0	-1E+10	1	-1E+10	1	-1E+10	1
4902624	47	C	10/04/2025	03:41	-129.115	49.124	0	188.20	0	7.1253	0	33.8557	0	26.503	0	186.516	0	96.0	4	32.5	4	-1E+10	1	0.0438	4	0.000411	0	-1E+10	1	-1E+10	1	-1E+10	1
4902624	47	C	10/04/2025	03:41	-129.115	49.124	0	189.10	0	7.1180	0	33.8600	0	26.507	0	187.408	0	-1e10	1	-1e10	1	-1E+10	1	-1e10	1	-1e10	1	-1E+10	1	-1E+10	1	-1E+10	1
4902624	47	C	10/04/2025	03:41	-129.115	49.124	0	189.20	0	7.1181	0	33.8602	0	26.507	0	187.507	0	95.3	4	32.3	4	-1E+10	1	0.0557	4	0.000403	0	-1E+10	1	-1E+10	1	-1E+10	1
4902624	47	C	10/04/2025	03:41	-129.115	49.124	0	190.20	0	7.1186	0	33.8623	0	26.509	0	188.498	0	94.7	4	32.1	4	-1E+10	1	0.0657	4	0.000399	0	-1E+10	1	-1E+10	1	-1E+10	1
4902624	47	C	10/04/2025	03:41	-129.115	49.124	0	191.00	0	7.1190	0	33.8640	0	26.510	0	189.290	0	-1e10	1	-1e10	1	-1E+10	1	-1e10	1	-1e10	1	-1E+10	1	-1E+10	1	-1E+10	1
4902624	47	C	10/04/2025	03:41	-129.115	49.124	0	191.10	0	7.1191	0	33.8640	0	26.510	0	189.389	0	94.0	4	31.9	4	-1E+10	1	0.0560	4	0.000403	0	-1E+10	1	-1E+10	1	-1E+10	1
4902624	47	C	10/04/2025	03:41	-129.115	49.124	0	192.10	0	7.1200	0	33.8640	0	26.510	0	190.380	0	93.4	4	31.7	4	-1E+10	1	0.0365	4	0.000385	0	-1E+10	1	-1E+10	1	-1E+10	1
4902624	47	C	10/04/2025	03:41	-129.115	49.124	0	193.10	0	7.1210	0	33.8640	0	26.510	0	191.370	0	90.3	4	30.6	4	-1E+10	1	0.0365	4	0.000375	0	-1E+10	1	-1E+10	1	-1E+10	1
4902624	47	C	10/04/2025	03:41	-129.115	49.124	0	194.10	0	7.1160	0	33.8651	0	26.512	0	192.361	0	92.0	4	31.2	4	-1E+10	1	0.0438	4	0.000423	0	-1E+10	1	-1E+10	1	-1E+10	1
4902624	47	C	10/04/2025	03:41	-129.115	49.124	0	194.90	0	7.1120	0	33.8660	0	26.513	0	193.153	0	-1e10	1	-1e10	1	-1E+10	1	-1e10	1	-1e10	1	-1E+10	1	-1E+10	1	-1E+10	1
4902624	47	C	10/04/2025	03:41	-129.115	49.124	0	195.10	0	7.1105	0	33.8664	0	26.513	0	193.352	0	91.4	4	31.0	4	-1E+10	1	0.0438	4	0.000403	0	-1E+10	1	-1E+10	1	-1E+10	1
4902624	47	C	10/04/2025	03:41	-129.115	49.124	0	196.10	0	7.1029	0	33.8683	0	26.516	0	194.342	0	90.6	4	30.7	4	-1E+10	1	0.0438	4	0.000462	0	-1E+10	1	-1E+10	1	-1E+10	1
4902624	47	C	10/04/2025	03:41	-129.115	49.124	0	197.00	0	7.0960	0	33.8700	0	26.518	0	195.234	0	-1e10	1	-1e10	1	-1E+10	1	-1e10	1	-1e10	1	-1E+10	1	-1E+10	1	-1E+10	1
4902624	47	C	10/04/2025	03:41	-129.115	49.124	0	197.10	0	7.0944	0	33.8703	0	26.519	0	195.333	0	90.1	4	30.5	4	-1E+10	1	0.0394	4	0.000451	0	-1E+10	1	-1E+10	1	-1E+10	1
4902624	47	C	10/04/2025	03:41	-129.115	49.124	0	198.20	0	7.0774	0	33.8736	0	26.524	0	196.422	0	89.8	4	30.4	4	-1E+10	1	0.0483	4	0.000423	0	-1E+10	1	-1E+10	1	-1E+10	1
4902624	47	C	10/04/2025	03:41	-129.115	49.124	0	199.00	0	7.0650	0	33.8760	0	26.527	0	197.215	0	-1e10	1	-1e10	1	-1E+10	1	-1e10	1	-1e10	1	-1E+10	1	-1E+10	1	-1E+10	1
4902624	47	C	10/04/2025	03:41	-129.115	49.124	0	199.20	0	7.0642	0	33.8761	0	26.527	0	197.413	0	89.4	4	30.3	4	-1E+10	1	0.0562	4	0.000527	0	-1E+10	1	-1E+10	1	-1E+10	1
4902624	47	C	10/04/2025	03:41	-129.115	49.124	0	200.30	0	7.0598	0	33.8766	0	26.528	0	198.502	0	89.0	4	30.1	4	-1E+10	1	0.0496	4	0.000699	0	-1E+10	1	-1E+10	1	-1E+10	1
4902624	47	C	10/04/2025	03:41	-129.115	49.124	0	201.00	0	7.0570	0	33.8770	0	26.529	0	199.196	0	-1e10	1	-1e10	1	-1E+10	1	-1e10	1	-1e10	1	-1E+10	1	-1E+10	1	-1E+10	1
4902624	47	C	10/04/2025	03:41	-129.115	49.124	0	201.30	0	7.0573	0	33.8771	0	26.529	0	199.493	0	88.5	4	30.0	4	-1E+10	1	0.0438	4	0.000440	0	-1E+10	1	-1E+10	1	-1E+10	1
4902624	47	C	10/04/2025	03:41	-129.115	49.124	0	202.30	0	7.0582	0	33.8776	0	26.529	0	200.484	0	88.1	4	29.8	4	-1E+10	1	0.0438	4	0.000411	0	-1E+10	1	-1E+10	1	-1E+10	1
4902624	47	C	10/04/2025	03:41	-129.115	49.124	0	203.10	0	7.0590	0	33.8780	0	26.530	0	201.276	0	-1e10	1	-1e10	1	-1E+10	1	-1e10	1	-1e10	1	-1E+10	1	-1E+10	1	-1E+10	1
4902624	47	C	10/04/2025	03:41	-129.115	49.124	0	203.40	0	7.0585	0	33.8786	0	26.530	0	201.573	0	87.8	4	29.7	4	-1E+10	1	0.0500	4	0.000421	0	-1E+10	1	-1E+10	1	-1E+10	1
4902624	47	C	10/04/2025	03:41	-129.115	49.124	0	204.40	0	7.0569	0	33.8807	0	26.532	0	202.564	0	87.7	4	29.7	4	-1E+10	1	0.0569	4	0.000488	0	-1E+10	1	-1E+10	1	-1E+10	1
4902624	47	C	10/04/2025	03:41	-129.115	49.124	0	205.00	0	7.0560	0	33.8820	0	26.533	0	203.158	0	-1e10	1	-1e10	1	-1E+10	1	-1e10	1	-1e10	1	-1E+10	1	-1E+10	1	-1E+10	1
4902624	47	C	10/04/2025	03:41	-129.115	49.124	0	205.40	0	7.0472	0	33.8822	0	26.535	0	203.554	0	87.6	4	29.6	4	-1E+10	1	0.0584	4	0.000473	0	-1E+10	1	-1E+10	1	-1E+10	1
4902624	47	C	10/04/2025	03:41	-129.115	49.124	0	206.40	0	7.0251	0	33.8827	0	26.538	0	204.545	0	87.4	4	29.5	4	-1E+10	1	0.0511	4	0.000469	0	-1E+10	1	-1E+10	1	-1E+10	1
4902624	47	C	10/04/2025	03:41	-129.115	49.124	0	206.90	0	7.0140	0	33.8830	0	26.540	0	205.040	0	-1e10	1	-1e10	1	-1E+10	1	-1e10	1	-1e10	1	-1E+10	1	-1E+10	1	-1E+10	1
4902624	47	C	10/04/2025	03:41	-129.115	49.124	0	207.40	0	7.0107	0	33.8840	0	26.541	0	205.535	0	87.2	4	29.5	4	-1E+10	1	0.0491	4	0.000485	0	-1E+10	1	-1E+10	1	-1E+10	1
4902624	47	C	10/04/2025	03:41	-129.115	49.124	0	208.50	0	7.0033	0	33.8860	0	26.544	0	206.625	0	87.2	4	29.5	4	-1E+10	1	0.0560	4	0.000477	0	-1E+10	1	-1E+10	1	-1E+10	1
4902624	47	C	10/04/2025	03:41	-129.115	49.124	0	209.00	0	7.0000	0	33.8870	0	26.545	0	207.120	0	-1e10	1	-1e10	1	-1E+10	1	-1e10	1	-1e10	1	-1E+10	1	-1E+10	1	-1E+10	1
4902624	47	C	10/04/2025	03:41	-129.115	49.124	0	209.50	0	6.9865	0	33.8875	0	26.547	0	207.615	0	87.2	4	29.5	4	-1E+10	1	0.0511	4	0.000441	0	-1E+10	1	-1E+10	1	-1E+10	1
4902624	47	C	10/04/2025	03:41	-129.115	49.124	0	210.60	0	6.9568	0	33.8886	0	26.552	0	208.705	0	86.9	4	29.3	4	-1E+10	1	0.0511	4	0.000411	0	-1E+10	1	-1E+10	1	-1E+10	1
4902624	47	C	10/04/2025	03:41	-129.115	49.124	0	211.00	0	6.9460	0	33.8890	0	26.554	0	209.101	0	-1e10	1	-1e10	1	-1E+10	1	-1e10	1	-1e10	1	-1E+10	1	-1E+10	1	-1E+10	1
4902624	47	C	10/04/2025	03:41	-129.115	49.124	0	211.70	0	6.9444	0	33.8890	0	26.554	0	209.794	0	86.6	4	29.2	4	-1E+10	1	0.0730	4	0.000540	0	-1E+10	1	-1E+10	1	-1E+10	1
4902624	47	C	10/04/2025	03:41	-129.115	49.124	0	212.70	0	6.9421	0	33.8890	0	26.554	0	210.785	0	86.4	4	29.2	4	-1E+10	1	0.0547	4	0.000413	0	-1E+10	1	-1E+10	1	-1E+10	1
4902624	47	C	10/04/2025	03:41	-129.115	49.124	0	213.20	0	6.9410	0	33.8890	0	26.555	0	211.280	0	-1e10	1	-1e10	1	-1E+10	1	-1e10	1	-1e10	1	-1E+10	1	-1E+10	1	-1E+10	1
4902624	47	C	10/04/2025	03:41	-129.115	49.124	0	213.80	0	6.9366	0	33.8896	0	26.556	0	211.874	0	86.3	4	29.1	4	-1E+10	1	0.0460	4	0.000420	0	-1E+10	1	-1E+10	1	-1E+10	1
4902624	47	C	10/04/2025	03:41	-129.115	49.124	0	214.80	0	6.9292	0	33.8907	0	26.557	0	212.865	0	86.1	4	29.1	4	-1E+10	1	0.0478	4	0.000434	0	-1E+10	1	-1E+10	1	-1E+10	1
4902624	47	C	10/04/2025	03:41	-129.115	49.124	0	215.10	0	6.9270	0	33.8910	0	26.558	0	213.162	0	-1e10	1	-1e10	1	-1E+10	1	-1e10	1	-1e10	1	-1E+10	1	-1E+10	1	-1E+10	1
4902624	47	C	10/04/2025	03:41	-129.115	49.124	0	215.90	0	6.9219	0	33.8923	0	26.560	0	213.954	0	85.8	4	29.0	4	-1E+10	1	0.0511	4	0.000434	0	-1E+10	1	-1E+10	1	-1E+10	1
4902624	47	C	10/04/2025	03:41	-129.115	49.124	0	217.00	0	6.9150	0	33.8940	0	26.562	0	215.044	0	83.5	4	28.2	4	-1E+10	1	0.0511	4	0.000441	0	-1E+10	1	-1E+10	1	-1E+10	1
4902624	47	C	10/04/2025	03:41	-129.115	49.124	0	218.10	0	6.9011	0	33.8952	0	26.565	0	216.133	0	85.7	4	28.9	4	-1E+10	1	0.0482	4	0.000439	0	-1E+10	1	-1E+10	1	-1E+10	1
4902624	47	C	10/04/2025	03:41	-129.115	49.124	0	218.90	0	6.8910	0	33.8960	0	26.567	0	216.926	0	-1e10	1	-1e10	1	-1E+10	1	-1e10	1	-1e10	1	-1E+10	1	-1E+10	1	-1E+10	1
4902624	47	C	10/04/2025	03:41	-129.115	49.124	0	219.20	0	6.8870	0	33.8959	0	26.567	0	217.223	0	85.5	4	28.8	4	-1E+10	1	0.0405	4	0.000507	0	-1E+10	1	-1E+10	1	-1E+10	1
4902624	47	C	10/04/2025	03:41	-129.115	49.124	0	220.20	0	6.8737	0	33.8954	0	26.569	0	218.213	0	85.0	4	28.6	4	-1E+10	1	0.0511	4	0.000816	0	-1E+10	1	-1E+10	1	-1E+10	1
4902624	47	C	10/04/2025	03:41	-129.115	49.124	0	221.00	0	6.8630	0	33.8950	0	26.570	0	219.006	0	-1e10	1	-1e10	1	-1E+10	1	-1e10	1	-1e10	1	-1E+10	1	-1E+10	1	-1E+10	1
4902624	47	C	10/04/2025	03:41	-129.115	49.124	0	221.30	0	6.8624	0	33.8950	0	26.570	0	219.303	0	84.4	4	28.5	4	-1E+10	1	0.0511	4	0.000399	0	-1E+10	1	-1E+10	1	-1E+10	1
4902624	47	C	10/04/2025	03:41	-129.115	49.124	0	222.40	0	6.8603	0	33.8950	0	26.570	0	220.392	0	83.9	4	28.3	4	-1E+10	1	0.0511	4	0.000563	0	-1E+10	1	-1E+10	1	-1E+10	1
4902624	47	C	10/04/2025	03:41	-129.115	49.124	0	223.10	0	6.8590	0	33.8950	0	26.570	0	221.086	0	-1e10	1	-1e10	1	-1E+10	1	-1e10	1	-1e10	1	-1E+10	1	-1E+10	1	-1E+10	1
4902624	47	C	10/04/2025	03:41	-129.115	49.124	0	223.50	0	6.8582	0	33.8954	0	26.571	0	221.482	0	83.2	4	28.0	4	-1E+10	1	0.0573	4	0.000424	0	-1E+10	1	-1E+10	1	-1E+10	1
4902624	47	C	10/04/2025	03:41	-129.115	49.124	0	224.60	0	6.8558	0	33.8966	0	26.572	0	222.571	0	82.5	4	27.8	4	-1E+10	1	0.0533	4	0.000398	0	-1E+10	1	-1E+10	1	-1E+10	1
4902624	47	C	10/04/2025	03:41	-129.115	49.124	0	225.00	0	6.8550	0	33.8970	0	26.573	0	222.967	0	-1e10	1	-1e10	1	-1E+10	1	-1e10	1	-1e10	1	-1E+10	1	-1E+10	1	-1E+10	1
4902624	47	C	10/04/2025	03:41	-129.115	49.124	0	225.70	0	6.8417	0	33.8984	0	26.575	0	223.661	0	81.6	4	27.5	4	-1E+10	1	0.0557	4	0.000436	0	-1E+10	1	-1E+10	1	-1E+10	1
4902624	47	C	10/04/2025	03:41	-129.115	49.124	0	226.80	0	6.8208	0	33.9006	0	26.580	0	224.750	0	80.7	4	27.2	4	-1E+10	1	0.0584	4	0.000401	0	-1E+10	1	-1E+10	1	-1E+10	1
4902624	47	C	10/04/2025	03:41	-129.115	49.124	0	227.00	0	6.8170	0	33.9010	0	26.581	0	224.948	0	-1e10	1	-1e10	1	-1E+10	1	-1e10	1	-1e10	1	-1E+10	1	-1E+10	1	-1E+10	1
4902624	47	C	10/04/2025	03:41	-129.115	49.124	0	227.90	0	6.8098	0	33.9028	0	26.583	0	225.840	0	79.9	4	26.9	4	-1E+10	1	0.0506	4	0.000364	0	-1E+10	1	-1E+10	1	-1E+10	1
4902624	47	C	10/04/2025	03:41	-129.115	49.124	0	229.00	0	6.8010	0	33.9050	0	26.586	0	226.929	0	77.1	4	25.9	4	-1E+10	1	0.0365	4	0.000394	0	-1E+10	1	-1E+10	1	-1E+10	1
4902624	47	C	10/04/2025	03:41	-129.115	49.124	0	230.10	0	6.7988	0	33.9067	0	26.588	0	228.019	0	78.5	4	26.4	4	-1E+10	1	0.0387	4	0.000424	0	-1E+10	1	-1E+10	1	-1E+10	1
4902624	47	C	10/04/2025	03:41	-129.115	49.124	0	231.00	0	6.7970	0	33.9080	0	26.589	0	228.910	0	-1e10	1	-1e10	1	-1E+10	1	-1e10	1	-1e10	1	-1E+10	1	-1E+10	1	-1E+10	1
4902624	47	C	10/04/2025	03:41	-129.115	49.124	0	231.20	0	6.7964	0	33.9085	0	26.590	0	229.108	0	77.7	4	26.2	4	-1E+10	1	0.0511	4	0.000434	0	-1E+10	1	-1E+10	1	-1E+10	1
4902624	47	C	10/04/2025	03:41	-129.115	49.124	0	232.30	0	6.7931	0	33.9112	0	26.592	0	230.197	0	77.1	4	25.9	4	-1E+10	1	0.0573	4	0.000474	0	-1E+10	1	-1E+10	1	-1E+10	1
4902624	47	C	10/04/2025	03:41	-129.115	49.124	0	233.00	0	6.7910	0	33.9130	0	26.594	0	230.891	0	-1e10	1	-1e10	1	-1E+10	1	-1e10	1	-1e10	1	-1E+10	1	-1E+10	1	-1E+10	1
4902624	47	C	10/04/2025	03:41	-129.115	49.124	0	233.40	0	6.7880	0	33.9142	0	26.595	0	231.287	0	76.6	4	25.8	4	-1E+10	1	0.0529	4	0.000428	0	-1E+10	1	-1E+10	1	-1E+10	1
4902624	47	C	10/04/2025	03:41	-129.115	49.124	0	234.60	0	6.7790	0	33.9178	0	26.599	0	232.475	0	76.2	4	25.6	4	-1E+10	1	0.0410	4	0.000467	0	-1E+10	1	-1E+10	1	-1E+10	1
4902624	47	C	10/04/2025	03:41	-129.115	49.124	0	235.00	0	6.7760	0	33.9190	0	26.601	0	232.871	0	-1e10	1	-1e10	1	-1E+10	1	-1e10	1	-1e10	1	-1E+10	1	-1E+10	1	-1E+10	1
4902624	47	C	10/04/2025	03:41	-129.115	49.124	0	235.70	0	6.7727	0	33.9193	0	26.601	0	233.565	0	75.8	4	25.5	4	-1E+10	1	0.0402	4	0.000463	0	-1E+10	1	-1E+10	1	-1E+10	1
4902624	47	C	10/04/2025	03:41	-129.115	49.124	0	236.80	0	6.7674	0	33.9199	0	26.603	0	234.654	0	75.4	4	25.3	4	-1E+10	1	0.0411	4	0.000421	0	-1E+10	1	-1E+10	1	-1E+10	1
4902624	47	C	10/04/2025	03:41	-129.115	49.124	0	237.10	0	6.7660	0	33.9200	0	26.603	0	234.951	0	-1e10	1	-1e10	1	-1E+10	1	-1e10	1	-1e10	1	-1E+10	1	-1E+10	1	-1E+10	1
4902624	47	C	10/04/2025	03:41	-129.115	49.124	0	238.00	0	6.7624	0	33.9209	0	26.604	0	235.843	0	74.9	4	25.2	4	-1E+10	1	0.0417	4	0.000411	0	-1E+10	1	-1E+10	1	-1E+10	1
4902624	47	C	10/04/2025	03:41	-129.115	49.124	0	239.10	0	6.7580	0	33.9220	0	26.605	0	236.932	0	72.6	4	24.4	4	-1E+10	1	0.0522	4	0.000430	0	-1E+10	1	-1E+10	1	-1E+10	1
4902624	47	C	10/04/2025	03:41	-129.115	49.124	0	240.20	0	6.7448	0	33.9258	0	26.610	0	238.021	0	74.4	4	25.0	4	-1E+10	1	0.0584	4	0.000410	0	-1E+10	1	-1E+10	1	-1E+10	1
4902624	47	C	10/04/2025	03:41	-129.115	49.124	0	241.10	0	6.7340	0	33.9290	0	26.614	0	238.913	0	-1e10	1	-1e10	1	-1E+10	1	-1e10	1	-1e10	1	-1E+10	1	-1E+10	1	-1E+10	1
4902624	47	C	10/04/2025	03:41	-129.115	49.124	0	241.30	0	6.7331	0	33.9291	0	26.614	0	239.111	0	74.3	4	25.0	4	-1E+10	1	0.0511	4	0.000434	0	-1E+10	1	-1E+10	1	-1E+10	1
4902624	47	C	10/04/2025	03:41	-129.115	49.124	0	242.50	0	6.7274	0	33.9297	0	26.616	0	240.299	0	74.3	4	24.9	4	-1E+10	1	0.0386	4	0.000404	0	-1E+10	1	-1E+10	1	-1E+10	1
4902624	47	C	10/04/2025	03:41	-129.115	49.124	0	243.00	0	6.7250	0	33.9300	0	26.616	0	240.794	0	-1e10	1	-1e10	1	-1E+10	1	-1e10	1	-1e10	1	-1E+10	1	-1E+10	1	-1E+10	1
4902624	47	C	10/04/2025	03:41	-129.115	49.124	0	243.60	0	6.7247	0	33.9300	0	26.616	0	241.389	0	74.2	4	24.9	4	-1E+10	1	0.0466	4	0.000456	0	-1E+10	1	-1E+10	1	-1E+10	1
4902624	47	C	10/04/2025	03:41	-129.115	49.124	0	244.70	0	6.7241	0	33.9300	0	26.616	0	242.478	0	74.1	4	24.9	4	-1E+10	1	0.0511	4	0.000481	0	-1E+10	1	-1E+10	1	-1E+10	1
4902624	47	C	10/04/2025	03:41	-129.115	49.124	0	244.90	0	6.7240	0	33.9300	0	26.616	0	242.676	0	-1e10	1	-1e10	1	-1E+10	1	-1e10	1	-1e10	1	-1E+10	1	-1E+10	1	-1E+10	1
4902624	47	C	10/04/2025	03:41	-129.115	49.124	0	245.80	0	6.7227	0	33.9304	0	26.617	0	243.567	0	74.1	4	24.9	4	-1E+10	1	0.0578	4	0.000443	0	-1E+10	1	-1E+10	1	-1E+10	1
4902624	47	C	10/04/2025	03:41	-129.115	49.124	0	247.00	0	6.7210	0	33.9310	0	26.618	0	244.756	0	72.1	4	24.2	4	-1E+10	1	0.0605	4	0.000407	0	-1E+10	1	-1E+10	1	-1E+10	1
4902624	47	C	10/04/2025	03:41	-129.115	49.124	0	248.10	0	6.7034	0	33.9321	0	26.621	0	245.845	0	74.2	4	24.9	4	-1E+10	1	0.0538	4	0.000411	0	-1E+10	1	-1E+10	1	-1E+10	1
4902624	47	C	10/04/2025	03:41	-129.115	49.124	0	249.00	0	6.6890	0	33.9330	0	26.623	0	246.736	0	-1e10	1	-1e10	1	-1E+10	1	-1e10	1	-1e10	1	-1E+10	1	-1E+10	1	-1E+10	1
4902624	47	C	10/04/2025	03:41	-129.115	49.124	0	249.20	0	6.6867	0	33.9329	0	26.624	0	246.934	0	74.1	4	24.9	4	-1E+10	1	0.0657	4	0.000369	0	-1E+10	1	-1E+10	1	-1E+10	1
4902624	47	C	10/04/2025	03:41	-129.115	49.124	0	250.40	0	6.6729	0	33.9323	0	26.625	0	248.123	0	74.0	4	24.8	4	-1E+10	1	0.0657	4	0.000410	0	-1E+10	1	-1E+10	1	-1E+10	1
4902624	47	C	10/04/2025	03:41	-129.115	49.124	0	251.00	0	6.6660	0	33.9320	0	26.626	0	248.717	0	-1e10	1	-1e10	1	-1E+10	1	-1e10	1	-1e10	1	-1E+10	1	-1E+10	1	-1E+10	1
4902624	47	C	10/04/2025	03:41	-129.115	49.124	0	251.50	0	6.6641	0	33.9325	0	26.626	0	249.212	0	74.1	4	24.9	4	-1E+10	1	0.0533	4	0.000440	0	-1E+10	1	-1E+10	1	-1E+10	1
4902624	47	C	10/04/2025	03:41	-129.115	49.124	0	252.60	0	6.6599	0	33.9335	0	26.628	0	250.301	0	74.2	4	24.9	4	-1E+10	1	0.0571	4	0.000426	0	-1E+10	1	-1E+10	1	-1E+10	1
4902624	47	C	10/04/2025	03:41	-129.115	49.124	0	253.10	0	6.6580	0	33.9340	0	26.628	0	250.797	0	-1e10	1	-1e10	1	-1E+10	1	-1e10	1	-1e10	1	-1E+10	1	-1E+10	1	-1E+10	1
4902624	47	C	10/04/2025	03:41	-129.115	49.124	0	253.70	0	6.6505	0	33.9346	0	26.630	0	251.391	0	74.4	4	24.9	4	-1E+10	1	0.0490	4	0.000452	0	-1E+10	1	-1E+10	1	-1E+10	1
4902624	47	C	10/04/2025	03:41	-129.115	49.124	0	254.80	0	6.6367	0	33.9357	0	26.633	0	252.480	0	74.6	4	25.0	4	-1E+10	1	0.0472	4	0.000436	0	-1E+10	1	-1E+10	1	-1E+10	1
4902624	47	C	10/04/2025	03:41	-129.115	49.124	0	255.10	0	6.6330	0	33.9360	0	26.633	0	252.777	0	-1e10	1	-1e10	1	-1E+10	1	-1e10	1	-1e10	1	-1E+10	1	-1E+10	1	-1E+10	1
4902624	47	C	10/04/2025	03:41	-129.115	49.124	0	256.00	0	6.6235	0	33.9360	0	26.635	0	253.668	0	74.8	4	25.1	4	-1E+10	1	0.0544	4	0.000415	0	-1E+10	1	-1E+10	1	-1E+10	1
4902624	47	C	10/04/2025	03:41	-129.115	49.124	0	257.10	0	6.6120	0	33.9360	0	26.636	0	254.758	0	73.1	4	24.5	4	-1E+10	1	0.0584	4	0.000446	0	-1E+10	1	-1E+10	1	-1E+10	1
4902624	47	C	10/04/2025	03:41	-129.115	49.124	0	258.20	0	6.6021	0	33.9355	0	26.637	0	255.847	0	75.3	4	25.2	4	-1E+10	1	0.0573	4	0.000464	0	-1E+10	1	-1E+10	1	-1E+10	1
4902624	47	C	10/04/2025	03:41	-129.115	49.124	0	259.10	0	6.5940	0	33.9350	0	26.638	0	256.738	0	-1e10	1	-1e10	1	-1E+10	1	-1e10	1	-1e10	1	-1E+10	1	-1E+10	1	-1E+10	1
4902624	47	C	10/04/2025	03:41	-129.115	49.124	0	259.30	0	6.5903	0	33.9349	0	26.638	0	256.936	0	75.4	4	25.2	4	-1E+10	1	0.0511	4	0.000434	0	-1E+10	1	-1E+10	1	-1E+10	1
4902624	47	C	10/04/2025	03:41	-129.115	49.124	0	260.40	0	6.5700	0	33.9343	0	26.640	0	258.026	0	75.3	4	25.2	4	-1E+10	1	0.0511	4	0.000328	0	-1E+10	1	-1E+10	1	-1E+10	1
4902624	47	C	10/04/2025	03:41	-129.115	49.124	0	261.10	0	6.5570	0	33.9340	0	26.642	0	258.719	0	-1e10	1	-1e10	1	-1E+10	1	-1e10	1	-1e10	1	-1E+10	1	-1E+10	1	-1E+10	1
4902624	47	C	10/04/2025	03:41	-129.115	49.124	0	261.50	0	6.5506	0	33.9338	0	26.643	0	259.115	0	74.9	4	25.1	4	-1E+10	1	0.0568	4	0.000347	0	-1E+10	1	-1E+10	1	-1E+10	1
4902624	47	C	10/04/2025	03:41	-129.115	49.124	0	262.70	0	6.5314	0	33.9332	0	26.645	0	260.303	0	74.3	4	24.9	4	-1E+10	1	0.0584	4	0.000367	0	-1E+10	1	-1E+10	1	-1E+10	1
4902624	47	C	10/04/2025	03:41	-129.115	49.124	0	263.10	0	6.5250	0	33.9330	0	26.645	0	260.699	0	-1e10	1	-1e10	1	-1E+10	1	-1e10	1	-1e10	1	-1E+10	1	-1E+10	1	-1E+10	1
4902624	47	C	10/04/2025	03:41	-129.115	49.124	0	263.80	0	6.5222	0	33.9333	0	26.646	0	261.392	0	73.7	4	24.6	4	-1E+10	1	0.0538	4	0.000397	0	-1E+10	1	-1E+10	1	-1E+10	1
4902624	47	C	10/04/2025	03:41	-129.115	49.124	0	264.90	0	6.5178	0	33.9339	0	26.647	0	262.482	0	73.0	4	24.4	4	-1E+10	1	0.0550	4	0.000398	0	-1E+10	1	-1E+10	1	-1E+10	1
4902624	47	C	10/04/2025	03:41	-129.115	49.124	0	265.10	0	6.5170	0	33.9340	0	26.647	0	262.680	0	-1e10	1	-1e10	1	-1E+10	1	-1e10	1	-1e10	1	-1E+10	1	-1E+10	1	-1E+10	1
4902624	47	C	10/04/2025	03:41	-129.115	49.124	0	266.00	0	6.5125	0	33.9376	0	26.651	0	263.571	0	72.8	4	24.3	4	-1E+10	1	0.0556	4	0.000378	0	-1E+10	1	-1E+10	1	-1E+10	1
4902624	47	C	10/04/2025	03:41	-129.115	49.124	0	267.10	0	6.5070	0	33.9420	0	26.655	0	264.660	0	70.7	4	23.7	4	-1E+10	1	0.0511	4	0.000382	0	-1E+10	1	-1E+10	1	-1E+10	1
4902624	47	C	10/04/2025	03:41	-129.115	49.124	0	268.10	0	6.4854	0	33.9436	0	26.659	0	265.650	0	72.4	4	24.2	4	-1E+10	1	0.0489	4	0.000430	0	-1E+10	1	-1E+10	1	-1E+10	1
4902624	47	C	10/04/2025	03:41	-129.115	49.124	0	269.00	0	6.4660	0	33.9450	0	26.663	0	266.542	0	-1e10	1	-1e10	1	-1E+10	1	-1e10	1	-1e10	1	-1E+10	1	-1E+10	1	-1E+10	1
4902624	47	C	10/04/2025	03:41	-129.115	49.124	0	269.20	0	6.4654	0	33.9451	0	26.663	0	266.740	0	72.2	4	24.1	4	-1E+10	1	0.0365	4	0.000410	0	-1E+10	1	-1E+10	1	-1E+10	1
4902624	47	C	10/04/2025	03:41	-129.115	49.124	0	270.30	0	6.4621	0	33.9456	0	26.664	0	267.829	0	72.0	4	24.1	4	-1E+10	1	0.0594	4	0.000373	0	-1E+10	1	-1E+10	1	-1E+10	1
4902624	47	C	10/04/2025	03:41	-129.115	49.124	0	271.00	0	6.4600	0	33.9460	0	26.664	0	268.522	0	-1e10	1	-1e10	1	-1E+10	1	-1e10	1	-1e10	1	-1E+10	1	-1E+10	1	-1E+10	1
4902624	47	C	10/04/2025	03:41	-129.115	49.124	0	271.40	0	6.4580	0	33.9462	0	26.665	0	268.918	0	71.8	4	24.0	4	-1E+10	1	0.0604	4	0.000363	0	-1E+10	1	-1E+10	1	-1E+10	1
4902624	47	C	10/04/2025	03:41	-129.115	49.124	0	272.50	0	6.4525	0	33.9467	0	26.666	0	270.007	0	71.6	4	23.9	4	-1E+10	1	0.0494	4	0.000420	0	-1E+10	1	-1E+10	1	-1E+10	1
4902624	47	C	10/04/2025	03:41	-129.115	49.124	0	273.00	0	6.4500	0	33.9470	0	26.666	0	270.502	0	-1e10	1	-1e10	1	-1E+10	1	-1e10	1	-1e10	1	-1E+10	1	-1E+10	1	-1E+10	1
4902624	47	C	10/04/2025	03:41	-129.115	49.124	0	273.60	0	6.4476	0	33.9470	0	26.667	0	271.097	0	71.3	4	23.8	4	-1E+10	1	0.0472	4	0.000402	0	-1E+10	1	-1E+10	1	-1E+10	1
4902624	47	C	10/04/2025	03:41	-129.115	49.124	0	274.80	0	6.4428	0	33.9470	0	26.667	0	272.285	0	70.9	4	23.7	4	-1E+10	1	0.0445	4	0.000334	0	-1E+10	1	-1E+10	1	-1E+10	1
4902624	47	C	10/04/2025	03:41	-129.115	49.124	0	275.00	0	6.4420	0	33.9470	0	26.667	0	272.483	0	-1e10	1	-1e10	1	-1E+10	1	-1e10	1	-1e10	1	-1E+10	1	-1E+10	1	-1E+10	1
4902624	47	C	10/04/2025	03:41	-129.115	49.124	0	275.90	0	6.4325	0	33.9479	0	26.669	0	273.374	0	70.5	4	23.5	4	-1E+10	1	0.0443	4	0.000324	0	-1E+10	1	-1E+10	1	-1E+10	1
4902624	47	C	10/04/2025	03:41	-129.115	49.124	0	277.00	0	6.4210	0	33.9490	0	26.672	0	274.463	0	68.2	4	22.8	4	-1E+10	1	0.0584	4	0.000379	0	-1E+10	1	-1E+10	1	-1E+10	1
4902624	47	C	10/04/2025	03:41	-129.115	49.124	0	278.10	0	6.4160	0	33.9490	0	26.672	0	275.552	0	69.6	4	23.2	4	-1E+10	1	0.0584	4	0.000727	0	-1E+10	1	-1E+10	1	-1E+10	1
4902624	47	C	10/04/2025	03:41	-129.115	49.124	0	279.00	0	6.4120	0	33.9490	0	26.673	0	276.444	0	-1e10	1	-1e10	1	-1E+10	1	-1e10	1	-1e10	1	-1E+10	1	-1E+10	1	-1E+10	1
4902624	47	C	10/04/2025	03:41	-129.115	49.124	0	279.20	0	6.4103	0	33.9492	0	26.673	0	276.642	0	69.0	4	23.0	4	-1E+10	1	0.0584	4	0.000316	0	-1E+10	1	-1E+10	1	-1E+10	1
4902624	47	C	10/04/2025	03:41	-129.115	49.124	0	280.30	0	6.4009	0	33.9503	0	26.675	0	277.731	0	68.4	4	22.8	4	-1E+10	1	0.0584	4	0.000425	0	-1E+10	1	-1E+10	1	-1E+10	1
4902624	47	C	10/04/2025	03:41	-129.115	49.124	0	281.00	0	6.3950	0	33.9510	0	26.677	0	278.424	0	-1e10	1	-1e10	1	-1E+10	1	-1e10	1	-1e10	1	-1E+10	1	-1E+10	1	-1E+10	1
4902624	47	C	10/04/2025	03:41	-129.115	49.124	0	281.40	0	6.3924	0	33.9514	0	26.677	0	278.820	0	67.7	4	22.6	4	-1E+10	1	0.0490	4	0.000370	0	-1E+10	1	-1E+10	1	-1E+10	1
4902624	47	C	10/04/2025	03:41	-129.115	49.124	0	282.50	0	6.3853	0	33.9525	0	26.679	0	279.909	0	67.0	4	22.3	4	-1E+10	1	0.0478	4	0.000308	0	-1E+10	1	-1E+10	1	-1E+10	1
4902624	47	C	10/04/2025	03:41	-129.115	49.124	0	283.00	0	6.3820	0	33.9530	0	26.680	0	280.404	0	-1e10	1	-1e10	1	-1E+10	1	-1e10	1	-1e10	1	-1E+10	1	-1E+10	1	-1E+10	1
4902624	47	C	10/04/2025	03:41	-129.115	49.124	0	283.60	0	6.3802	0	33.9539	0	26.681	0	280.998	0	66.3	4	22.1	4	-1E+10	1	0.0545	4	0.000314	0	-1E+10	1	-1E+10	1	-1E+10	1
4902624	47	C	10/04/2025	03:41	-129.115	49.124	0	284.70	0	6.3769	0	33.9556	0	26.683	0	282.087	0	65.7	4	21.9	4	-1E+10	1	0.0562	4	0.000329	0	-1E+10	1	-1E+10	1	-1E+10	1
4902624	47	C	10/04/2025	03:41	-129.115	49.124	0	285.00	0	6.3760	0	33.9560	0	26.683	0	282.385	0	-1e10	1	-1e10	1	-1E+10	1	-1e10	1	-1e10	1	-1E+10	1	-1E+10	1	-1E+10	1
4902624	47	C	10/04/2025	03:41	-129.115	49.124	0	285.80	0	6.3736	0	33.9568	0	26.684	0	283.177	0	65.1	4	21.7	4	-1E+10	1	0.0499	4	0.000306	0	-1E+10	1	-1E+10	1	-1E+10	1
4902624	47	C	10/04/2025	03:41	-129.115	49.124	0	287.00	0	6.3700	0	33.9580	0	26.685	0	284.365	0	62.8	4	20.9	4	-1E+10	1	0.0460	4	0.000327	0	-1E+10	1	-1E+10	1	-1E+10	1
4902624	47	C	10/04/2025	03:41	-129.115	49.124	0	288.10	0	6.3618	0	33.9591	0	26.687	0	285.454	0	63.9	4	21.3	4	-1E+10	1	0.0584	4	0.000387	0	-1E+10	1	-1E+10	1	-1E+10	1
4902624	47	C	10/04/2025	03:41	-129.115	49.124	0	289.00	0	6.3550	0	33.9600	0	26.689	0	286.345	0	-1e10	1	-1e10	1	-1E+10	1	-1e10	1	-1e10	1	-1E+10	1	-1E+10	1	-1E+10	1
4902624	47	C	10/04/2025	03:41	-129.115	49.124	0	289.20	0	6.3535	0	33.9602	0	26.689	0	286.543	0	63.3	4	21.1	4	-1E+10	1	0.0412	4	0.000350	0	-1E+10	1	-1E+10	1	-1E+10	1
4902624	47	C	10/04/2025	03:41	-129.115	49.124	0	290.40	0	6.3445	0	33.9614	0	26.691	0	287.731	0	62.7	4	20.9	4	-1E+10	1	0.0425	4	0.000340	0	-1E+10	1	-1E+10	1	-1E+10	1
4902624	47	C	10/04/2025	03:41	-129.115	49.124	0	291.00	0	6.3400	0	33.9620	0	26.693	0	288.325	0	-1e10	1	-1e10	1	-1E+10	1	-1e10	1	-1e10	1	-1E+10	1	-1E+10	1	-1E+10	1
4902624	47	C	10/04/2025	03:41	-129.115	49.124	0	291.50	0	6.3380	0	33.9625	0	26.693	0	288.820	0	62.2	4	20.7	4	-1E+10	1	0.0489	4	0.000356	0	-1E+10	1	-1E+10	1	-1E+10	1
4902624	47	C	10/04/2025	03:41	-129.115	49.124	0	292.60	0	6.3336	0	33.9636	0	26.695	0	289.909	0	61.8	4	20.6	4	-1E+10	1	0.0511	4	0.000369	0	-1E+10	1	-1E+10	1	-1E+10	1
4902624	47	C	10/04/2025	03:41	-129.115	49.124	0	293.00	0	6.3320	0	33.9640	0	26.695	0	290.305	0	-1e10	1	-1e10	1	-1E+10	1	-1e10	1	-1e10	1	-1E+10	1	-1E+10	1	-1E+10	1
4902624	47	C	10/04/2025	03:41	-129.115	49.124	0	293.70	0	6.3260	0	33.9643	0	26.696	0	290.999	0	61.3	4	20.4	4	-1E+10	1	0.0484	4	0.000379	0	-1E+10	1	-1E+10	1	-1E+10	1
4902624	47	C	10/04/2025	03:41	-129.115	49.124	0	294.90	0	6.3157	0	33.9649	0	26.698	0	292.187	0	60.8	4	20.2	4	-1E+10	1	0.0438	4	0.000445	0	-1E+10	1	-1E+10	1	-1E+10	1
4902624	47	C	10/04/2025	03:41	-129.115	49.124	0	295.10	0	6.3140	0	33.9650	0	26.698	0	292.385	0	-1e10	1	-1e10	1	-1E+10	1	-1e10	1	-1e10	1	-1E+10	1	-1E+10	1	-1E+10	1
4902624	47	C	10/04/2025	03:41	-129.115	49.124	0	296.00	0	6.3112	0	33.9659	0	26.699	0	293.276	0	60.2	4	20.1	4	-1E+10	1	0.0464	4	0.000461	0	-1E+10	1	-1E+10	1	-1E+10	1
4902624	47	C	10/04/2025	03:41	-129.115	49.124	0	297.00	0	6.3080	0	33.9670	0	26.701	0	294.266	0	-1e10	1	-1e10	1	-1E+10	1	-1e10	1	-1e10	1	-1E+10	1	-1E+10	1	-1E+10	1
4902624	47	C	10/04/2025	03:41	-129.115	49.124	0	297.40	0	6.3076	0	33.9680	0	26.702	0	294.662	0	59.6	4	19.9	4	-1E+10	1	0.0508	4	0.000363	0	-1E+10	1	-1E+10	1	-1E+10	1
4902624	47	C	10/04/2025	03:41	-129.115	49.124	0	299.00	0	6.3060	0	33.9720	0	26.705	0	296.246	0	-1e10	1	-1e10	1	-1E+10	1	-1e10	1	-1e10	1	-1E+10	1	-1E+10	1	-1E+10	1
4902624	47	C	10/04/2025	03:41	-129.115	49.124	0	305.00	0	6.2740	0	33.9820	0	26.717	0	302.186	0	-1e10	1	-1e10	1	-1E+10	1	-1e10	1	-1e10	1	-1E+10	1	-1E+10	1	-1E+10	1
4902624	47	C	10/04/2025	03:41	-129.115	49.124	0	308.90	0	6.2562	0	33.9859	0	26.722	0	306.048	0	56.6	4	18.8	4	-1E+10	1	0.0441	4	0.000363	0	-1E+10	1	-1E+10	1	-1E+10	1
4902624	47	C	10/04/2025	03:41	-129.115	49.124	0	315.10	0	6.2280	0	33.9920	0	26.731	0	312.186	0	-1e10	1	-1e10	1	-1E+10	1	-1e10	1	-1e10	1	-1E+10	1	-1E+10	1	-1E+10	1
4902624	47	C	10/04/2025	03:41	-129.115	49.124	0	320.60	0	6.2041	0	33.9953	0	26.737	0	317.631	0	54.4	4	18.1	4	-1E+10	1	0.0511	4	0.000363	0	-1E+10	1	-1E+10	1	-1E+10	1
4902624	47	C	10/04/2025	03:41	-129.115	49.124	0	325.00	0	6.1850	0	33.9980	0	26.741	0	321.986	0	-1e10	1	-1e10	1	-1E+10	1	-1e10	1	-1e10	1	-1E+10	1	-1E+10	1	-1E+10	1
4902624	47	C	10/04/2025	03:41	-129.115	49.124	0	332.50	0	6.0860	0	33.9973	0	26.753	0	329.411	0	53.3	4	17.6	4	-1E+10	1	0.0511	4	0.000381	0	-1E+10	1	-1E+10	1	-1E+10	1
4902624	47	C	10/04/2025	03:41	-129.115	49.124	0	335.00	0	6.0530	0	33.9970	0	26.757	0	331.886	0	-1e10	1	-1e10	1	-1E+10	1	-1e10	1	-1e10	1	-1E+10	1	-1E+10	1	-1E+10	1
4902624	47	C	10/04/2025	03:41	-129.115	49.124	0	340.60	0	5.9998	0	34.0014	0	26.767	0	337.429	0	51.1	4	16.9	4	-1E+10	1	0.0511	4	0.000475	0	-1E+10	1	-1E+10	1	-1E+10	1
4902624	47	C	10/04/2025	03:41	-129.115	49.124	0	345.10	0	5.9570	0	34.0050	0	26.776	0	341.883	0	-1e10	1	-1e10	1	-1E+10	1	-1e10	1	-1e10	1	-1E+10	1	-1E+10	1	-1E+10	1
4902624	47	C	10/04/2025	03:41	-129.115	49.124	0	348.80	0	5.9292	0	34.0083	0	26.782	0	345.546	0	48.9	4	16.2	4	-1E+10	1	0.0511	4	0.000336	0	-1E+10	1	-1E+10	1	-1E+10	1
4902624	47	C	10/04/2025	03:41	-129.115	49.124	0	355.10	0	5.8820	0	34.0140	0	26.792	0	351.782	0	-1e10	1	-1e10	1	-1E+10	1	-1e10	1	-1e10	1	-1E+10	1	-1E+10	1	-1E+10	1
4902624	47	C	10/04/2025	03:41	-129.115	49.124	0	357.30	0	5.8689	0	34.0153	0	26.795	0	353.959	0	47.4	4	15.6	4	-1E+10	1	0.0514	4	0.000284	0	-1E+10	1	-1E+10	1	-1E+10	1
4902624	47	C	10/04/2025	03:41	-129.115	49.124	0	365.00	0	5.8230	0	34.0200	0	26.804	0	361.581	0	-1e10	1	-1e10	1	-1E+10	1	-1e10	1	-1e10	1	-1E+10	1	-1E+10	1	-1E+10	1
4902624	47	C	10/04/2025	03:41	-129.115	49.124	0	366.10	0	5.8161	0	34.0205	0	26.806	0	362.669	0	46.1	4	15.2	4	-1E+10	1	0.0581	4	0.000361	0	-1E+10	1	-1E+10	1	-1E+10	1
4902624	47	C	10/04/2025	03:41	-129.115	49.124	0	375.10	0	5.7600	0	34.0250	0	26.816	0	371.577	0	-1e10	1	-1e10	1	-1E+10	1	-1e10	1	-1e10	1	-1E+10	1	-1E+10	1	-1E+10	1
4902624	47	C	10/04/2025	03:41	-129.115	49.124	0	375.20	0	5.7592	0	34.0250	0	26.816	0	371.676	0	44.8	4	14.7	4	-1E+10	1	0.0511	4	0.000337	0	-1E+10	1	-1E+10	1	-1E+10	1
4902624	47	C	10/04/2025	03:41	-129.115	49.124	0	384.40	0	5.6839	0	34.0278	0	26.828	0	380.781	0	43.6	4	14.3	4	-1E+10	1	0.0511	4	0.000295	0	-1E+10	1	-1E+10	1	-1E+10	1
4902624	47	C	10/04/2025	03:41	-129.115	49.124	0	385.00	0	5.6790	0	34.0280	0	26.828	0	381.375	0	-1e10	1	-1e10	1	-1E+10	1	-1e10	1	-1e10	1	-1E+10	1	-1E+10	1	-1E+10	1
4902624	47	C	10/04/2025	03:41	-129.115	49.124	0	393.60	0	5.6274	0	34.0332	0	26.839	0	389.886	0	42.0	4	13.8	4	-1E+10	1	0.0517	4	0.000359	0	-1E+10	1	-1E+10	1	-1E+10	1
4902624	47	C	10/04/2025	03:41	-129.115	49.124	0	395.00	0	5.6190	0	34.0340	0	26.841	0	391.271	0	-1e10	1	-1e10	1	-1E+10	1	-1e10	1	-1e10	1	-1E+10	1	-1E+10	1	-1E+10	1
4902624	47	C	10/04/2025	03:41	-129.115	49.124	0	402.90	0	5.5827	0	34.0387	0	26.849	0	399.089	0	40.8	4	13.4	4	-1E+10	1	0.0654	4	0.000292	0	-1E+10	1	-1E+10	1	-1E+10	1
4902624	47	C	10/04/2025	03:41	-129.115	49.124	0	405.00	0	5.5730	0	34.0400	0	26.851	0	401.167	0	-1e10	1	-1e10	1	-1E+10	1	-1e10	1	-1e10	1	-1E+10	1	-1E+10	1	-1E+10	1
4902624	47	C	10/04/2025	03:41	-129.115	49.124	0	412.30	0	5.5380	0	34.0444	0	26.859	0	408.391	0	39.5	4	12.9	4	-1E+10	1	0.0581	4	0.000308	0	-1E+10	1	-1E+10	1	-1E+10	1
4902624	47	C	10/04/2025	03:41	-129.115	49.124	0	415.00	0	5.5250	0	34.0460	0	26.862	0	411.063	0	-1e10	1	-1e10	1	-1E+10	1	-1e10	1	-1e10	1	-1E+10	1	-1E+10	1	-1E+10	1
4902624	47	C	10/04/2025	03:41	-129.115	49.124	0	422.00	0	5.5087	0	34.0481	0	26.865	0	417.989	0	38.6	4	12.6	4	-1E+10	1	0.0511	4	0.000407	0	-1E+10	1	-1E+10	1	-1E+10	1
4902624	47	C	10/04/2025	03:41	-129.115	49.124	0	424.90	0	5.5020	0	34.0490	0	26.867	0	420.859	0	-1e10	1	-1e10	1	-1E+10	1	-1e10	1	-1e10	1	-1E+10	1	-1E+10	1	-1E+10	1
4902624	47	C	10/04/2025	03:41	-129.115	49.124	0	431.80	0	5.4778	0	34.0518	0	26.872	0	427.686	0	37.6	4	12.3	4	-1E+10	1	0.0511	4	0.000363	0	-1E+10	1	-1E+10	1	-1E+10	1
4902624	47	C	10/04/2025	03:41	-129.115	49.124	0	434.90	0	5.4670	0	34.0530	0	26.874	0	430.753	0	-1e10	1	-1e10	1	-1E+10	1	-1e10	1	-1e10	1	-1E+10	1	-1E+10	1	-1E+10	1
4902624	47	C	10/04/2025	03:41	-129.115	49.124	0	441.90	0	5.4401	0	34.0551	0	26.879	0	437.679	0	36.5	4	11.9	4	-1E+10	1	0.0508	4	0.000381	0	-1E+10	1	-1E+10	1	-1E+10	1
4902624	47	C	10/04/2025	03:41	-129.115	49.124	0	444.80	0	5.4290	0	34.0560	0	26.881	0	440.548	0	-1e10	1	-1e10	1	-1E+10	1	-1e10	1	-1e10	1	-1E+10	1	-1E+10	1	-1E+10	1
4902624	47	C	10/04/2025	03:41	-129.115	49.124	0	452.20	0	5.3920	0	34.0597	0	26.889	0	447.870	0	35.0	4	11.4	4	-1E+10	1	0.0446	4	0.000291	0	-1E+10	1	-1E+10	1	-1E+10	1
4902624	47	C	10/04/2025	03:41	-129.115	49.124	0	454.80	0	5.3790	0	34.0610	0	26.891	0	450.442	0	-1e10	1	-1e10	1	-1E+10	1	-1e10	1	-1e10	1	-1E+10	1	-1E+10	1	-1E+10	1
4902624	47	C	10/04/2025	03:41	-129.115	49.124	0	462.80	0	5.3163	0	34.0657	0	26.902	0	458.356	0	33.3	4	10.9	4	-1E+10	1	0.0649	4	0.000291	0	-1E+10	1	-1E+10	1	-1E+10	1
4902624	47	C	10/04/2025	03:41	-129.115	49.124	0	465.00	0	5.2990	0	34.0670	0	26.905	0	460.533	0	-1e10	1	-1e10	1	-1E+10	1	-1e10	1	-1e10	1	-1E+10	1	-1E+10	1	-1E+10	1
4902624	47	C	10/04/2025	03:41	-129.115	49.124	0	473.80	0	5.2685	0	34.0748	0	26.915	0	469.238	0	31.4	4	10.2	4	-1E+10	1	0.0445	4	0.000282	0	-1E+10	1	-1E+10	1	-1E+10	1
4902624	47	C	10/04/2025	03:41	-129.115	49.124	0	475.10	0	5.2640	0	34.0760	0	26.917	0	470.524	0	-1e10	1	-1e10	1	-1E+10	1	-1e10	1	-1e10	1	-1E+10	1	-1E+10	1	-1E+10	1
4902624	47	C	10/04/2025	03:41	-129.115	49.124	0	484.90	0	5.2310	0	34.0850	0	26.928	0	480.219	0	29.3	4	9.5	4	-1E+10	1	0.0581	4	0.000337	0	-1E+10	1	-1E+10	1	-1E+10	1
4902624	47	C	10/04/2025	03:41	-129.115	49.124	0	495.20	0	5.1940	0	34.0900	0	26.936	0	490.407	0	-1e10	1	-1e10	1	-1E+10	1	-1e10	1	-1e10	1	-1E+10	1	-1E+10	1	-1E+10	1
4902624	47	C	10/04/2025	03:41	-129.115	49.124	0	496.40	0	5.1881	0	34.0907	0	26.937	0	491.594	0	28.3	4	9.2	4	-1E+10	1	0.0511	4	0.000319	0	-1E+10	1	-1E+10	1	-1E+10	1
4902624	47	C	10/04/2025	03:41	-129.115	49.124	0	505.00	0	5.1460	0	34.0960	0	26.947	0	500.100	0	-1e10	1	-1e10	1	-1E+10	1	-1e10	1	-1e10	1	-1E+10	1	-1E+10	1	-1E+10	1
4902624	47	C	10/04/2025	03:41	-129.115	49.124	0	508.00	0	5.1454	0	34.0993	0	26.949	0	503.068	0	26.7	4	8.6	4	-1E+10	1	0.0514	4	0.000438	0	-1E+10	1	-1E+10	1	-1E+10	1
4902624	47	C	10/04/2025	03:41	-129.115	49.124	0	514.90	0	5.1440	0	34.1070	0	26.956	0	509.892	0	-1e10	1	-1e10	1	-1E+10	1	-1e10	1	-1e10	1	-1E+10	1	-1E+10	1	-1E+10	1
4902624	47	C	10/04/2025	03:41	-129.115	49.124	0	519.80	0	5.1236	0	34.1109	0	26.961	0	514.738	0	25.1	4	8.1	4	-1E+10	1	0.0581	4	0.000324	0	-1E+10	1	-1E+10	1	-1E+10	1
4902624	47	C	10/04/2025	03:41	-129.115	49.124	0	525.00	0	5.1020	0	34.1150	0	26.967	0	519.881	0	-1e10	1	-1e10	1	-1E+10	1	-1e10	1	-1e10	1	-1E+10	1	-1E+10	1	-1E+10	1
4902624	47	C	10/04/2025	03:41	-129.115	49.124	0	531.80	0	5.0828	0	34.1171	0	26.971	0	526.606	0	24.2	4	7.9	4	-1E+10	1	0.0505	4	0.000294	0	-1E+10	1	-1E+10	1	-1E+10	1
4902624	47	C	10/04/2025	03:41	-129.115	49.124	0	534.90	0	5.0740	0	34.1180	0	26.973	0	529.672	0	-1e10	1	-1e10	1	-1E+10	1	-1e10	1	-1e10	1	-1E+10	1	-1E+10	1	-1E+10	1
4902624	47	C	10/04/2025	03:41	-129.115	49.124	0	543.90	0	5.0195	0	34.1198	0	26.980	0	538.573	0	23.3	4	7.5	4	-1E+10	1	0.0370	4	0.000371	0	-1E+10	1	-1E+10	1	-1E+10	1
4902624	47	C	10/04/2025	03:41	-129.115	49.124	0	544.80	0	5.0140	0	34.1200	0	26.981	0	539.463	0	-1e10	1	-1e10	1	-1E+10	1	-1e10	1	-1e10	1	-1E+10	1	-1E+10	1	-1E+10	1
4902624	47	C	10/04/2025	03:41	-129.115	49.124	0	555.10	0	4.9800	0	34.1260	0	26.990	0	549.648	0	-1e10	1	-1e10	1	-1E+10	1	-1e10	1	-1e10	1	-1E+10	1	-1E+10	1	-1E+10	1
4902624	47	C	10/04/2025	03:41	-129.115	49.124	0	556.00	0	4.9766	0	34.1265	0	26.991	0	550.538	0	22.1	4	7.1	4	-1E+10	1	0.0511	4	0.000347	0	-1E+10	1	-1E+10	1	-1E+10	1
4902624	47	C	10/04/2025	03:41	-129.115	49.124	0	565.10	0	4.9420	0	34.1320	0	26.999	0	559.536	0	-1e10	1	-1e10	1	-1E+10	1	-1e10	1	-1e10	1	-1E+10	1	-1E+10	1	-1E+10	1
4902624	47	C	10/04/2025	03:41	-129.115	49.124	0	567.40	0	4.9340	0	34.1336	0	27.001	0	561.811	0	20.9	4	6.7	4	-1E+10	1	0.0514	4	0.000312	0	-1E+10	1	-1E+10	1	-1E+10	1
4902624	47	C	10/04/2025	03:41	-129.115	49.124	0	574.90	0	4.9080	0	34.1390	0	27.008	0	569.227	0	-1e10	1	-1e10	1	-1E+10	1	-1e10	1	-1e10	1	-1E+10	1	-1E+10	1	-1E+10	1
4902624	47	C	10/04/2025	03:41	-129.115	49.124	0	575.50	0	4.9066	0	34.1396	0	27.009	0	569.820	0	19.9	4	6.4	4	-1E+10	1	0.0579	4	0.000278	0	-1E+10	1	-1E+10	1	-1E+10	1
4902624	47	C	10/04/2025	03:41	-129.115	49.124	0	583.60	0	4.8882	0	34.1476	0	27.018	0	577.829	0	19.0	4	6.1	4	-1E+10	1	0.0446	4	0.000265	0	-1E+10	1	-1E+10	1	-1E+10	1
4902624	47	C	10/04/2025	03:41	-129.115	49.124	0	585.00	0	4.8850	0	34.1490	0	27.019	0	579.213	0	-1e10	1	-1e10	1	-1E+10	1	-1e10	1	-1e10	1	-1E+10	1	-1E+10	1	-1E+10	1
4902624	47	C	10/04/2025	03:41	-129.115	49.124	0	591.80	0	4.8328	0	34.1511	0	27.027	0	585.936	0	18.2	4	5.9	4	-1E+10	1	0.0649	4	0.000242	0	-1E+10	1	-1E+10	1	-1E+10	1
4902624	47	C	10/04/2025	03:41	-129.115	49.124	0	594.90	0	4.8090	0	34.1520	0	27.030	0	589.001	0	-1e10	1	-1e10	1	-1E+10	1	-1e10	1	-1e10	1	-1E+10	1	-1E+10	1	-1E+10	1
4902624	47	C	10/04/2025	03:41	-129.115	49.124	0	600.10	0	4.7812	0	34.1546	0	27.035	0	594.142	0	17.6	4	5.7	4	-1E+10	1	0.0445	4	0.000232	0	-1E+10	1	-1E+10	1	-1E+10	1
4902624	47	C	10/04/2025	03:41	-129.115	49.124	0	605.00	0	4.7550	0	34.1570	0	27.040	0	598.986	0	-1e10	1	-1e10	1	-1E+10	1	-1e10	1	-1e10	1	-1E+10	1	-1E+10	1	-1E+10	1
4902624	47	C	10/04/2025	03:41	-129.115	49.124	0	608.20	0	4.7452	0	34.1592	0	27.043	0	602.150	0	17.0	4	5.4	4	-1E+10	1	0.0581	4	0.000253	0	-1E+10	1	-1E+10	1	-1E+10	1
4902624	47	C	10/04/2025	03:41	-129.115	49.124	0	615.10	0	4.7240	0	34.1640	0	27.049	0	608.971	0	-1e10	1	-1e10	1	-1E+10	1	-1e10	1	-1e10	1	-1E+10	1	-1E+10	1	-1E+10	1
4902624	47	C	10/04/2025	03:41	-129.115	49.124	0	616.50	0	4.7205	0	34.1655	0	27.051	0	610.355	0	16.0	4	5.2	4	-1E+10	1	0.0511	4	0.000232	0	-1E+10	1	-1E+10	1	-1E+10	1
4902624	47	C	10/04/2025	03:41	-129.115	49.124	0	625.00	0	4.6992	0	34.1749	0	27.061	0	618.758	0	15.5	4	5.0	4	-1E+10	1	0.0516	4	0.000419	0	-1E+10	1	-1E+10	1	-1E+10	1
4902624	47	C	10/04/2025	03:41	-129.115	49.124	0	625.10	0	4.6990	0	34.1750	0	27.061	0	618.857	0	-1e10	1	-1e10	1	-1E+10	1	-1e10	1	-1e10	1	-1E+10	1	-1E+10	1	-1E+10	1
4902624	47	C	10/04/2025	03:41	-129.115	49.124	0	633.80	0	4.6788	0	34.1803	0	27.067	0	627.457	0	14.8	4	4.8	4	-1E+10	1	0.0647	4	0.004513	0	-1E+10	1	-1E+10	1	-1E+10	1
4902624	47	C	10/04/2025	03:41	-129.115	49.124	0	635.00	0	4.6760	0	34.1810	0	27.068	0	628.643	0	-1e10	1	-1e10	1	-1E+10	1	-1e10	1	-1e10	1	-1E+10	1	-1E+10	1	-1E+10	1
4902624	47	C	10/04/2025	03:41	-129.115	49.124	0	642.60	0	4.6491	0	34.1864	0	27.075	0	636.155	0	14.4	4	4.6	4	-1E+10	1	0.0440	4	0.000276	0	-1E+10	1	-1E+10	1	-1E+10	1
4902624	47	C	10/04/2025	03:41	-129.115	49.124	0	644.90	0	4.6410	0	34.1880	0	27.078	0	638.428	0	-1e10	1	-1e10	1	-1E+10	1	-1e10	1	-1e10	1	-1E+10	1	-1E+10	1	-1E+10	1
4902624	47	C	10/04/2025	03:41	-129.115	49.124	0	651.80	0	4.5658	0	34.1887	0	27.086	0	645.249	0	14.3	4	4.6	4	-1E+10	1	0.0508	4	0.000232	0	-1E+10	1	-1E+10	1	-1E+10	1
4902624	47	C	10/04/2025	03:41	-129.115	49.124	0	654.90	0	4.5320	0	34.1890	0	27.090	0	648.313	0	-1e10	1	-1e10	1	-1E+10	1	-1e10	1	-1e10	1	-1E+10	1	-1E+10	1	-1E+10	1
4902624	47	C	10/04/2025	03:41	-129.115	49.124	0	661.20	0	4.4469	0	34.1865	0	27.097	0	654.539	0	14.3	4	4.6	4	-1E+10	1	0.0441	4	0.000262	0	-1E+10	1	-1E+10	1	-1E+10	1
4902624	47	C	10/04/2025	03:41	-129.115	49.124	0	664.90	0	4.3970	0	34.1850	0	27.102	0	658.196	0	-1e10	1	-1e10	1	-1E+10	1	-1e10	1	-1e10	1	-1E+10	1	-1E+10	1	-1E+10	1
4902624	47	C	10/04/2025	03:41	-129.115	49.124	0	671.00	0	4.4024	0	34.1922	0	27.107	0	664.225	0	13.3	4	4.2	4	-1E+10	1	0.0508	4	0.000182	0	-1E+10	1	-1E+10	1	-1E+10	1
4902624	47	C	10/04/2025	03:41	-129.115	49.124	0	675.00	0	4.4060	0	34.1970	0	27.110	0	668.178	0	-1e10	1	-1e10	1	-1E+10	1	-1e10	1	-1e10	1	-1E+10	1	-1E+10	1	-1E+10	1
4902624	47	C	10/04/2025	03:41	-129.115	49.124	0	681.20	0	4.3521	0	34.1945	0	27.114	0	674.305	0	13.8	4	4.4	4	-1E+10	1	0.0447	4	0.000161	0	-1E+10	1	-1E+10	1	-1E+10	1
4902624	47	C	10/04/2025	03:41	-129.115	49.124	0	685.00	0	4.3190	0	34.1930	0	27.116	0	678.061	0	-1e10	1	-1e10	1	-1E+10	1	-1e10	1	-1e10	1	-1E+10	1	-1E+10	1	-1E+10	1
4902624	47	C	10/04/2025	03:41	-129.115	49.124	0	691.50	0	4.2859	0	34.1930	0	27.120	0	684.484	0	13.5	4	4.3	4	-1E+10	1	0.0657	4	0.000181	0	-1E+10	1	-1E+10	1	-1E+10	1
4902624	47	C	10/04/2025	03:41	-129.115	49.124	0	695.00	0	4.2680	0	34.1930	0	27.122	0	687.943	0	-1e10	1	-1e10	1	-1E+10	1	-1e10	1	-1e10	1	-1E+10	1	-1E+10	1	-1E+10	1
4902624	47	C	10/04/2025	03:41	-129.115	49.124	0	702.10	0	4.2737	0	34.2002	0	27.127	0	694.959	0	12.4	4	3.9	4	-1E+10	1	0.0654	4	0.000148	0	-1E+10	1	-1E+10	1	-1E+10	1
4902624	47	C	10/04/2025	03:41	-129.115	49.124	0	704.90	0	4.2760	0	34.2030	0	27.129	0	697.726	0	-1e10	1	-1e10	1	-1E+10	1	-1e10	1	-1e10	1	-1E+10	1	-1E+10	1	-1E+10	1
4902624	47	C	10/04/2025	03:41	-129.115	49.124	0	713.10	0	4.2924	0	34.2153	0	27.137	0	705.829	0	11.0	4	3.5	4	-1E+10	1	0.0581	4	0.000171	0	-1E+10	1	-1E+10	1	-1E+10	1
4902624	47	C	10/04/2025	03:41	-129.115	49.124	0	714.90	0	4.2960	0	34.2180	0	27.139	0	707.607	0	-1e10	1	-1e10	1	-1E+10	1	-1e10	1	-1e10	1	-1E+10	1	-1E+10	1	-1E+10	1
4902624	47	C	10/04/2025	03:41	-129.115	49.124	0	724.40	0	4.3342	0	34.2320	0	27.146	0	716.994	0	10.1	4	3.2	4	-1E+10	1	0.0511	4	0.000161	0	-1E+10	1	-1E+10	1	-1E+10	1
4902624	47	C	10/04/2025	03:41	-129.115	49.124	0	725.10	0	4.3370	0	34.2330	0	27.147	0	717.686	0	-1e10	1	-1e10	1	-1E+10	1	-1e10	1	-1e10	1	-1E+10	1	-1E+10	1	-1E+10	1
4902624	47	C	10/04/2025	03:41	-129.115	49.124	0	735.00	0	4.3280	0	34.2420	0	27.155	0	727.467	0	-1e10	1	-1e10	1	-1E+10	1	-1e10	1	-1e10	1	-1E+10	1	-1E+10	1	-1E+10	1
4902624	47	C	10/04/2025	03:41	-129.115	49.124	0	736.00	0	4.3246	0	34.2428	0	27.156	0	728.455	0	9.7	4	3.1	4	-1E+10	1	0.0511	4	0.000207	0	-1E+10	1	-1E+10	1	-1E+10	1
4902624	47	C	10/04/2025	03:41	-129.115	49.124	0	744.90	0	4.2940	0	34.2500	0	27.165	0	737.248	0	-1e10	1	-1e10	1	-1E+10	1	-1e10	1	-1e10	1	-1E+10	1	-1E+10	1	-1E+10	1
4902624	47	C	10/04/2025	03:41	-129.115	49.124	0	747.60	0	4.2864	0	34.2516	0	27.167	0	739.916	0	9.4	4	3.0	4	-1E+10	1	0.0506	4	0.000239	0	-1E+10	1	-1E+10	1	-1E+10	1
4902624	47	C	10/04/2025	03:41	-129.115	49.124	0	754.80	0	4.2660	0	34.2560	0	27.173	0	747.029	0	-1e10	1	-1e10	1	-1E+10	1	-1e10	1	-1e10	1	-1E+10	1	-1E+10	1	-1E+10	1
4902624	47	C	10/04/2025	03:41	-129.115	49.124	0	759.60	0	4.2579	0	34.2584	0	27.175	0	751.771	0	9.1	4	2.9	4	-1E+10	1	0.0380	4	0.000185	0	-1E+10	1	-1E+10	1	-1E+10	1
4902624	47	C	10/04/2025	03:41	-129.115	49.124	0	764.90	0	4.2490	0	34.2610	0	27.178	0	757.007	0	-1e10	1	-1e10	1	-1E+10	1	-1e10	1	-1e10	1	-1E+10	1	-1E+10	1	-1E+10	1
4902624	47	C	10/04/2025	03:41	-129.115	49.124	0	771.70	0	4.2259	0	34.2656	0	27.185	0	763.724	0	8.8	4	2.8	4	-1E+10	1	0.0719	4	0.000238	0	-1E+10	1	-1E+10	1	-1E+10	1
4902624	47	C	10/04/2025	03:41	-129.115	49.124	0	775.20	0	4.2140	0	34.2680	0	27.188	0	767.181	0	-1e10	1	-1e10	1	-1E+10	1	-1e10	1	-1e10	1	-1E+10	1	-1E+10	1	-1E+10	1
4902624	47	C	10/04/2025	03:41	-129.115	49.124	0	781.30	0	4.2030	0	34.2710	0	27.191	0	773.207	0	8.7	4	2.8	4	-1E+10	1	0.0511	4	0.000181	0	-1E+10	1	-1E+10	1	-1E+10	1
4902624	47	C	10/04/2025	03:41	-129.115	49.124	0	785.20	0	4.1960	0	34.2730	0	27.194	0	777.059	0	-1e10	1	-1e10	1	-1E+10	1	-1e10	1	-1e10	1	-1E+10	1	-1E+10	1	-1E+10	1
4902624	47	C	10/04/2025	03:41	-129.115	49.124	0	789.30	0	4.1855	0	34.2755	0	27.197	0	781.109	0	8.5	4	2.7	4	-1E+10	1	0.0511	4	0.000170	0	-1E+10	1	-1E+10	1	-1E+10	1
4902624	47	C	10/04/2025	03:41	-129.115	49.124	0	795.00	0	4.1710	0	34.2790	0	27.201	0	786.739	0	-1e10	1	-1e10	1	-1E+10	1	-1e10	1	-1e10	1	-1E+10	1	-1E+10	1	-1E+10	1
4902624	47	C	10/04/2025	03:41	-129.115	49.124	0	797.40	0	4.1612	0	34.2809	0	27.204	0	789.110	0	8.3	4	2.6	4	-1E+10	1	0.0521	4	0.000170	0	-1E+10	1	-1E+10	1	-1E+10	1
4902624	47	C	10/04/2025	03:41	-129.115	49.124	0	805.00	0	4.1300	0	34.2870	0	27.212	0	796.616	0	-1e10	1	-1e10	1	-1E+10	1	-1e10	1	-1e10	1	-1E+10	1	-1E+10	1	-1E+10	1
4902624	47	C	10/04/2025	03:41	-129.115	49.124	0	805.80	0	4.1283	0	34.2874	0	27.212	0	797.406	0	8.2	4	2.6	4	-1E+10	1	0.0720	4	0.000170	0	-1E+10	1	-1E+10	1	-1E+10	1
4902624	47	C	10/04/2025	03:41	-129.115	49.124	0	814.50	0	4.1095	0	34.2917	0	27.218	0	805.999	0	8.0	4	2.5	4	-1E+10	1	0.0445	4	0.000170	0	-1E+10	1	-1E+10	1	-1E+10	1
4902624	47	C	10/04/2025	03:41	-129.115	49.124	0	815.20	0	4.1080	0	34.2920	0	27.218	0	806.690	0	-1e10	1	-1e10	1	-1E+10	1	-1e10	1	-1e10	1	-1E+10	1	-1E+10	1	-1E+10	1
4902624	47	C	10/04/2025	03:41	-129.115	49.124	0	823.30	0	4.0873	0	34.2961	0	27.224	0	814.690	0	7.9	4	2.5	4	-1E+10	1	0.0582	4	0.000181	0	-1E+10	1	-1E+10	1	-1E+10	1
4902624	47	C	10/04/2025	03:41	-129.115	49.124	0	825.00	0	4.0830	0	34.2970	0	27.225	0	816.369	0	-1e10	1	-1e10	1	-1E+10	1	-1e10	1	-1e10	1	-1E+10	1	-1E+10	1	-1E+10	1
4902624	47	C	10/04/2025	03:41	-129.115	49.124	0	832.30	0	4.0594	0	34.3036	0	27.233	0	823.578	0	7.8	4	2.5	4	-1E+10	1	0.0513	4	0.000181	0	-1E+10	1	-1E+10	1	-1E+10	1
4902624	47	C	10/04/2025	03:41	-129.115	49.124	0	834.90	0	4.0510	0	34.3060	0	27.235	0	826.146	0	-1e10	1	-1e10	1	-1E+10	1	-1e10	1	-1e10	1	-1E+10	1	-1E+10	1	-1E+10	1
4902624	47	C	10/04/2025	03:41	-129.115	49.124	0	841.70	0	4.0382	0	34.3094	0	27.239	0	832.861	0	7.6	4	2.4	4	-1E+10	1	0.0584	4	0.000169	0	-1E+10	1	-1E+10	1	-1E+10	1
4902624	47	C	10/04/2025	03:41	-129.115	49.124	0	845.00	0	4.0320	0	34.3110	0	27.241	0	836.120	0	-1e10	1	-1e10	1	-1E+10	1	-1e10	1	-1e10	1	-1E+10	1	-1E+10	1	-1E+10	1
4902624	47	C	10/04/2025	03:41	-129.115	49.124	0	851.20	0	4.0120	0	34.3148	0	27.246	0	842.242	0	7.6	4	2.4	4	-1E+10	1	0.0581	4	0.000171	0	-1E+10	1	-1E+10	1	-1E+10	1
4902624	47	C	10/04/2025	03:41	-129.115	49.124	0	854.90	0	4.0000	0	34.3170	0	27.249	0	845.896	0	-1e10	1	-1e10	1	-1E+10	1	-1e10	1	-1e10	1	-1E+10	1	-1E+10	1	-1E+10	1
4902624	47	C	10/04/2025	03:41	-129.115	49.124	0	860.80	0	3.9766	0	34.3217	0	27.256	0	851.721	0	7.6	4	2.4	4	-1E+10	1	0.0514	4	0.000202	0	-1E+10	1	-1E+10	1	-1E+10	1
4902624	47	C	10/04/2025	03:41	-129.115	49.124	0	865.00	0	3.9600	0	34.3250	0	27.260	0	855.869	0	-1e10	1	-1e10	1	-1E+10	1	-1e10	1	-1e10	1	-1E+10	1	-1E+10	1	-1E+10	1
4902624	47	C	10/04/2025	03:41	-129.115	49.124	0	870.50	0	3.9471	0	34.3261	0	27.262	0	861.299	0	7.6	4	2.4	4	-1E+10	1	0.0587	4	0.000157	0	-1E+10	1	-1E+10	1	-1E+10	1
4902624	47	C	10/04/2025	03:41	-129.115	49.124	0	875.20	0	3.9360	0	34.3270	0	27.264	0	865.940	0	-1e10	1	-1e10	1	-1E+10	1	-1e10	1	-1e10	1	-1E+10	1	-1E+10	1	-1E+10	1
4902624	47	C	10/04/2025	03:41	-129.115	49.124	0	880.30	0	3.9219	0	34.3280	0	27.266	0	870.975	0	7.7	4	2.4	4	-1E+10	1	0.0654	4	0.000146	0	-1E+10	1	-1E+10	1	-1E+10	1
4902624	47	C	10/04/2025	03:41	-129.115	49.124	0	885.30	0	3.9080	0	34.3290	0	27.269	0	875.912	0	-1e10	1	-1e10	1	-1E+10	1	-1e10	1	-1e10	1	-1E+10	1	-1E+10	1	-1E+10	1
4902624	47	C	10/04/2025	03:41	-129.115	49.124	0	890.20	0	3.8818	0	34.3290	0	27.271	0	880.749	0	8.0	4	2.5	4	-1E+10	1	0.0581	4	0.000168	0	-1E+10	1	-1E+10	1	-1E+10	1
4902624	47	C	10/04/2025	03:41	-129.115	49.124	0	895.20	0	3.8550	0	34.3290	0	27.274	0	885.686	0	-1e10	1	-1e10	1	-1E+10	1	-1e10	1	-1e10	1	-1E+10	1	-1E+10	1	-1E+10	1
4902624	47	C	10/04/2025	03:41	-129.115	49.124	0	899.90	0	3.8315	0	34.3285	0	27.276	0	890.326	0	8.3	4	2.6	4	-1E+10	1	0.0514	4	0.000158	0	-1E+10	1	-1E+10	1	-1E+10	1
4902624	47	C	10/04/2025	03:41	-129.115	49.124	0	905.00	0	3.8060	0	34.3280	0	27.278	0	895.361	0	-1e10	1	-1e10	1	-1E+10	1	-1e10	1	-1e10	1	-1E+10	1	-1E+10	1	-1E+10	1
4902624	47	C	10/04/2025	03:41	-129.115	49.124	0	909.50	0	3.7646	0	34.3267	0	27.281	0	899.803	0	9.0	4	2.8	4	-1E+10	1	0.0581	4	0.000167	0	-1E+10	1	-1E+10	1	-1E+10	1
4902624	47	C	10/04/2025	03:41	-129.115	49.124	0	915.10	0	3.7130	0	34.3250	0	27.285	0	905.331	0	-1e10	1	-1e10	1	-1E+10	1	-1e10	1	-1e10	1	-1E+10	1	-1E+10	1	-1E+10	1
4902624	47	C	10/04/2025	03:41	-129.115	49.124	0	919.50	0	3.6986	0	34.3241	0	27.286	0	909.675	0	9.2	4	2.9	4	-1E+10	1	0.0511	4	0.000135	0	-1E+10	1	-1E+10	1	-1E+10	1
4902624	47	C	10/04/2025	03:41	-129.115	49.124	0	925.20	0	3.6800	0	34.3230	0	27.287	0	915.301	0	-1e10	1	-1e10	1	-1E+10	1	-1e10	1	-1e10	1	-1E+10	1	-1E+10	1	-1E+10	1
4902624	47	C	10/04/2025	03:41	-129.115	49.124	0	929.40	0	3.6674	0	34.3222	0	27.287	0	919.447	0	9.5	4	3.0	4	-1E+10	1	0.0511	4	0.000168	0	-1E+10	1	-1E+10	1	-1E+10	1
4902624	47	C	10/04/2025	03:41	-129.115	49.124	0	935.20	0	3.6500	0	34.3210	0	27.288	0	925.172	0	-1e10	1	-1e10	1	-1E+10	1	-1e10	1	-1e10	1	-1E+10	1	-1E+10	1	-1E+10	1
4902624	47	C	10/04/2025	03:41	-129.115	49.124	0	939.50	0	3.6181	0	34.3206	0	27.291	0	929.417	0	9.8	4	3.1	4	-1E+10	1	0.0508	4	0.000144	0	-1E+10	1	-1E+10	1	-1E+10	1
4902624	47	C	10/04/2025	03:41	-129.115	49.124	0	944.90	0	3.5780	0	34.3200	0	27.294	0	934.747	0	-1e10	1	-1e10	1	-1E+10	1	-1e10	1	-1e10	1	-1E+10	1	-1E+10	1	-1E+10	1
4902624	47	C	10/04/2025	03:41	-129.115	49.124	0	949.40	0	3.5612	0	34.3218	0	27.297	0	939.188	0	9.7	4	3.0	4	-1E+10	1	0.0441	4	0.000121	0	-1E+10	1	-1E+10	1	-1E+10	1
4902624	47	C	10/04/2025	03:41	-129.115	49.124	0	954.80	0	3.5410	0	34.3240	0	27.301	0	944.518	0	-1e10	1	-1e10	1	-1E+10	1	-1e10	1	-1e10	1	-1E+10	1	-1E+10	1	-1E+10	1
4902624	47	C	10/04/2025	03:41	-129.115	49.124	0	959.50	0	3.5278	0	34.3258	0	27.304	0	949.157	0	9.6	4	3.0	4	-1E+10	1	0.0508	4	0.000121	0	-1E+10	1	-1E+10	1	-1E+10	1
4902624	47	C	10/04/2025	03:41	-129.115	49.124	0	965.10	0	3.5120	0	34.3280	0	27.307	0	954.684	0	-1e10	1	-1e10	1	-1E+10	1	-1e10	1	-1e10	1	-1E+10	1	-1E+10	1	-1E+10	1
4902624	47	C	10/04/2025	03:41	-129.115	49.124	0	969.50	0	3.5063	0	34.3302	0	27.310	0	959.026	0	9.4	4	2.9	4	-1E+10	1	0.0441	4	0.000122	0	-1E+10	1	-1E+10	1	-1E+10	1
4902624	47	C	10/04/2025	03:41	-129.115	49.124	0	975.10	0	3.4990	0	34.3330	0	27.313	0	964.553	0	-1e10	1	-1e10	1	-1E+10	1	-1e10	1	-1e10	1	-1E+10	1	-1E+10	1	-1E+10	1
4902624	47	C	10/04/2025	03:41	-129.115	49.124	0	979.60	0	3.5142	0	34.3403	0	27.317	0	968.994	0	8.8	4	2.8	4	-1E+10	1	0.0514	4	0.000154	0	-1E+10	1	-1E+10	1	-1E+10	1
4902624	47	C	10/04/2025	03:41	-129.115	49.124	0	984.90	0	3.5320	0	34.3490	0	27.322	0	974.224	0	-1e10	1	-1e10	1	-1E+10	1	-1e10	1	-1e10	1	-1E+10	1	-1E+10	1	-1E+10	1
4902624	47	C	10/04/2025	03:41	-129.115	49.124	0	990.00	0	3.5391	0	34.3556	0	27.327	0	979.257	0	8.4	4	2.6	4	-1E+10	1	0.0585	4	0.000098	0	-1E+10	1	-1E+10	1	-1E+10	1
4902624	47	C	10/04/2025	03:41	-129.115	49.124	0	995.00	0	3.5460	0	34.3620	0	27.331	0	984.191	0	-1e10	1	-1e10	1	-1E+10	1	-1e10	1	-1e10	1	-1E+10	1	-1E+10	1	-1E+10	1
4902624	47	C	10/04/2025	03:41	-129.115	49.124	0	1011.50	0	3.5281	0	34.3723	0	27.341	0	1000.472	0	8.4	4	2.6	4	-1E+10	1	0.0655	4	0.000155	0	-1E+10	1	-1E+10	1	-1E+10	1
4902624	47	C	10/04/2025	03:41	-129.115	49.124	0	1025.40	0	3.5130	0	34.3810	0	27.350	0	1014.187	0	-1e10	1	-1e10	1	-1E+10	1	-1e10	1	-1e10	1	-1E+10	1	-1E+10	1	-1E+10	1
4902624	47	C	10/04/2025	03:41	-129.115	49.124	0	1033.50	0	3.4851	0	34.3830	0	27.354	0	1022.179	0	8.6	4	2.7	4	-1E+10	1	0.0584	4	0.000144	0	-1E+10	1	-1E+10	1	-1E+10	1
4902624	47	C	10/04/2025	03:41	-129.115	49.124	0	1052.80	0	3.4187	0	34.3877	0	27.364	0	1041.219	0	8.9	4	2.8	4	-1E+10	1	0.0583	4	0.000149	0	-1E+10	1	-1E+10	1	-1E+10	1
4902624	47	C	10/04/2025	03:41	-129.115	49.124	0	1069.30	0	3.3619	0	34.3917	0	27.373	0	1057.496	0	9.3	4	2.9	4	-1E+10	1	0.0511	4	0.000419	0	-1E+10	1	-1E+10	1	-1E+10	1
4902624	47	C	10/04/2025	03:41	-129.115	49.124	0	1074.80	0	3.3430	0	34.3930	0	27.376	0	1062.922	0	-1e10	1	-1e10	1	-1E+10	1	-1e10	1	-1e10	1	-1E+10	1	-1E+10	1	-1E+10	1
4902624	47	C	10/04/2025	03:41	-129.115	49.124	0	1087.00	0	3.3098	0	34.3961	0	27.382	0	1074.956	0	9.5	4	2.9	4	-1E+10	1	0.0512	4	0.000189	0	-1E+10	1	-1E+10	1	-1E+10	1
4902624	47	C	10/04/2025	03:41	-129.115	49.124	0	1105.80	0	3.2587	0	34.4010	0	27.390	0	1093.498	0	69.3	4	21.5	4	-1E+10	1	0.0583	4	0.000131	0	-1E+10	1	-1E+10	1	-1E+10	1
4902624	47	C	10/04/2025	03:41	-129.115	49.124	0	1125.20	0	3.2060	0	34.4060	0	27.399	0	1112.631	0	-1e10	1	-1e10	1	-1E+10	1	-1e10	1	-1e10	1	-1E+10	1	-1E+10	1	-1E+10	1
4902624	47	C	10/04/2025	03:41	-129.115	49.124	0	1125.50	0	3.2054	0	34.4061	0	27.399	0	1112.927	0	60.3	4	18.7	4	-1E+10	1	0.0514	4	0.000130	0	-1E+10	1	-1E+10	1	-1E+10	1
4902624	47	C	10/04/2025	03:41	-129.115	49.124	0	1146.90	0	3.1627	0	34.4131	0	27.409	0	1134.030	0	61.4	4	19.0	4	-1E+10	1	0.0656	4	0.000119	0	-1E+10	1	-1E+10	1	-1E+10	1
4902624	47	C	10/04/2025	03:41	-129.115	49.124	0	1169.10	0	3.1184	0	34.4203	0	27.419	0	1155.920	0	63.8	4	19.7	4	-1E+10	1	0.0582	4	0.000118	0	-1E+10	1	-1E+10	1	-1E+10	1
4902624	47	C	10/04/2025	03:41	-129.115	49.124	0	1174.30	0	3.1080	0	34.4220	0	27.421	0	1161.047	0	-1e10	1	-1e10	1	-1E+10	1	-1e10	1	-1e10	1	-1E+10	1	-1E+10	1	-1E+10	1
4902624	47	C	10/04/2025	03:41	-129.115	49.124	0	1192.30	0	3.0808	0	34.4272	0	27.428	0	1178.793	0	63.5	4	19.6	4	-1E+10	1	0.0511	4	0.000107	0	-1E+10	1	-1E+10	1	-1E+10	1
4902624	47	C	10/04/2025	03:41	-129.115	49.124	0	1215.40	0	3.0460	0	34.4339	0	27.437	0	1201.566	0	64.1	4	19.8	4	-1E+10	1	0.0510	4	0.000129	0	-1E+10	1	-1E+10	1	-1E+10	1
4902624	47	C	10/04/2025	03:41	-129.115	49.124	0	1226.00	0	3.0300	0	34.4370	0	27.441	0	1212.015	0	-1e10	1	-1e10	1	-1E+10	1	-1e10	1	-1e10	1	-1E+10	1	-1E+10	1	-1E+10	1
4902624	47	C	10/04/2025	03:41	-129.115	49.124	0	1231.40	0	3.0192	0	34.4383	0	27.443	0	1217.337	0	65.4	4	20.2	4	-1E+10	1	0.0436	4	0.000130	0	-1E+10	1	-1E+10	1	-1E+10	1
4902624	47	C	10/04/2025	03:41	-129.115	49.124	0	1247.70	0	2.9868	0	34.4423	0	27.449	0	1233.403	0	66.5	4	20.5	4	-1E+10	1	0.0369	4	0.000141	0	-1E+10	1	-1E+10	1	-1E+10	1
4902624	47	C	10/04/2025	03:41	-129.115	49.124	0	1264.40	0	2.9535	0	34.4464	0	27.455	0	1249.863	0	66.6	4	20.5	4	-1E+10	1	0.0584	4	0.000129	0	-1E+10	1	-1E+10	1	-1E+10	1
4902624	47	C	10/04/2025	03:41	-129.115	49.124	0	1275.20	0	2.9320	0	34.4490	0	27.459	0	1260.506	0	-1e10	1	-1e10	1	-1E+10	1	-1e10	1	-1e10	1	-1E+10	1	-1E+10	1	-1E+10	1
4902624	47	C	10/04/2025	03:41	-129.115	49.124	0	1281.50	0	2.9177	0	34.4500	0	27.462	0	1266.715	0	69.1	4	21.3	4	-1E+10	1	0.0583	4	0.000128	0	-1E+10	1	-1E+10	1	-1E+10	1
4902624	47	C	10/04/2025	03:41	-129.115	49.124	0	1298.80	0	2.8786	0	34.4528	0	27.467	0	1283.762	0	71.1	4	21.9	4	-1E+10	1	0.0511	4	0.000120	0	-1E+10	1	-1E+10	1	-1E+10	1
4902624	47	C	10/04/2025	03:41	-129.115	49.124	0	1316.80	0	2.8379	0	34.4557	0	27.473	0	1301.498	0	71.3	4	21.9	4	-1E+10	1	0.0513	4	0.000323	0	-1E+10	1	-1E+10	1	-1E+10	1
4902624	47	C	10/04/2025	03:41	-129.115	49.124	0	1324.70	0	2.8200	0	34.4570	0	27.476	0	1309.282	0	-1e10	1	-1e10	1	-1E+10	1	-1e10	1	-1e10	1	-1E+10	1	-1E+10	1	-1E+10	1
4902624	47	C	10/04/2025	03:41	-129.115	49.124	0	1335.70	0	2.7998	0	34.4596	0	27.480	0	1320.119	0	72.1	4	22.2	4	-1E+10	1	0.0584	4	0.000117	0	-1E+10	1	-1E+10	1	-1E+10	1
4902624	47	C	10/04/2025	03:41	-129.115	49.124	0	1354.90	0	2.7645	0	34.4642	0	27.487	0	1339.035	0	73.5	4	22.6	4	-1E+10	1	0.0584	4	0.000150	0	-1E+10	1	-1E+10	1	-1E+10	1
4902624	47	C	10/04/2025	03:41	-129.115	49.124	0	1374.60	0	2.7284	0	34.4690	0	27.494	0	1358.440	0	73.8	4	22.6	4	-1E+10	1	0.0584	4	0.000127	0	-1E+10	1	-1E+10	1	-1E+10	1
4902624	47	C	10/04/2025	03:41	-129.115	49.124	0	1374.80	0	2.7280	0	34.4690	0	27.494	0	1358.637	0	-1e10	1	-1e10	1	-1E+10	1	-1e10	1	-1e10	1	-1E+10	1	-1E+10	1	-1E+10	1
4902624	47	C	10/04/2025	03:41	-129.115	49.124	0	1395.20	0	2.6842	0	34.4739	0	27.502	0	1378.731	0	75.1	4	23.0	4	-1E+10	1	0.0582	4	0.000103	0	-1E+10	1	-1E+10	1	-1E+10	1
4902624	47	C	10/04/2025	03:41	-129.115	49.124	0	1416.60	0	2.6383	0	34.4790	0	27.510	0	1399.807	0	76.1	4	23.3	4	-1E+10	1	0.0511	4	0.000108	0	-1E+10	1	-1E+10	1	-1E+10	1
4902624	47	C	10/04/2025	03:41	-129.115	49.124	0	1425.10	0	2.6200	0	34.4810	0	27.513	0	1408.178	0	-1e10	1	-1e10	1	-1E+10	1	-1e10	1	-1e10	1	-1E+10	1	-1E+10	1	-1E+10	1
4902624	47	C	10/04/2025	03:41	-129.115	49.124	0	1439.10	0	2.6022	0	34.4841	0	27.517	0	1421.965	0	76.2	4	23.3	4	-1E+10	1	0.0507	4	0.000297	0	-1E+10	1	-1E+10	1	-1E+10	1
4902624	47	C	10/04/2025	03:41	-129.115	49.124	0	1458.60	0	2.5775	0	34.4883	0	27.523	0	1441.166	0	76.3	4	23.3	4	-1E+10	1	0.0370	4	0.000103	0	-1E+10	1	-1E+10	1	-1E+10	1
4902624	47	C	10/04/2025	03:41	-129.115	49.124	0	1474.80	0	2.5569	0	34.4918	0	27.527	0	1457.117	0	78.5	4	24.0	4	-1E+10	1	0.0581	4	0.000114	0	-1E+10	1	-1E+10	1	-1E+10	1
4902624	47	C	10/04/2025	03:41	-129.115	49.124	0	1475.50	0	2.5560	0	34.4920	0	27.528	0	1457.806	0	-1e10	1	-1e10	1	-1E+10	1	-1e10	1	-1e10	1	-1E+10	1	-1E+10	1	-1E+10	1
4902624	47	C	10/04/2025	03:41	-129.115	49.124	0	1491.90	0	2.5347	0	34.4957	0	27.532	0	1473.952	0	77.2	4	23.6	4	-1E+10	1	0.0441	4	0.000103	0	-1E+10	1	-1E+10	1	-1E+10	1
4902624	47	C	10/04/2025	03:41	-129.115	49.124	0	1509.40	0	2.5119	0	34.4996	0	27.537	0	1491.180	0	78.9	4	24.1	4	-1E+10	1	0.0581	4	0.000125	0	-1E+10	1	-1E+10	1	-1E+10	1
4902624	47	C	10/04/2025	03:41	-129.115	49.124	0	1524.70	0	2.4920	0	34.5030	0	27.542	0	1506.241	0	-1e10	1	-1e10	1	-1E+10	1	-1e10	1	-1e10	1	-1E+10	1	-1E+10	1	-1E+10	1
4902624	47	C	10/04/2025	03:41	-129.115	49.124	0	1527.60	0	2.4879	0	34.5037	0	27.543	0	1509.095	0	83.1	4	25.4	4	-1E+10	1	0.0440	4	0.000102	0	-1E+10	1	-1E+10	1	-1E+10	1
4902624	47	C	10/04/2025	03:41	-129.115	49.124	0	1546.40	0	2.4614	0	34.5082	0	27.549	0	1527.600	0	41.9	4	12.8	4	-1E+10	1	0.0584	4	0.000114	0	-1E+10	1	-1E+10	1	-1E+10	1
4902624	47	C	10/04/2025	03:41	-129.115	49.124	0	1565.90	0	2.4338	0	34.5128	0	27.555	0	1546.791	0	42.7	4	13.0	4	-1E+10	1	0.0584	4	0.000171	0	-1E+10	1	-1E+10	1	-1E+10	1
4902624	47	C	10/04/2025	03:41	-129.115	49.124	0	1575.00	0	2.4210	0	34.5150	0	27.558	0	1555.747	0	-1e10	1	-1e10	1	-1E+10	1	-1e10	1	-1e10	1	-1E+10	1	-1E+10	1	-1E+10	1
4902624	47	C	10/04/2025	03:41	-129.115	49.124	0	1586.50	0	2.4047	0	34.5175	0	27.561	0	1567.064	0	43.6	4	13.3	4	-1E+10	1	0.0580	4	0.000135	0	-1E+10	1	-1E+10	1	-1E+10	1
4902624	47	C	10/04/2025	03:41	-129.115	49.124	0	1607.20	0	2.3755	0	34.5221	0	27.567	0	1587.433	0	45.3	4	13.8	4	-1E+10	1	0.0371	4	0.000112	0	-1E+10	1	-1E+10	1	-1E+10	1
4902624	47	C	10/04/2025	03:41	-129.115	49.124	0	1625.20	0	2.3500	0	34.5260	0	27.573	0	1605.143	0	-1e10	1	-1e10	1	-1E+10	1	-1e10	1	-1e10	1	-1E+10	1	-1E+10	1	-1E+10	1
4902624	47	C	10/04/2025	03:41	-129.115	49.124	0	1628.40	0	2.3464	0	34.5266	0	27.573	0	1608.291	0	45.1	4	13.7	4	-1E+10	1	0.0653	4	0.000100	0	-1E+10	1	-1E+10	1	-1E+10	1
4902624	47	C	10/04/2025	03:41	-129.115	49.124	0	1650.00	0	2.3219	0	34.5309	0	27.579	0	1629.542	0	84.2	4	25.6	4	-1E+10	1	0.0439	4	0.000101	0	-1E+10	1	-1E+10	1	-1E+10	1
4902624	47	C	10/04/2025	03:41	-129.115	49.124	0	1672.30	0	2.2966	0	34.5354	0	27.585	0	1651.478	0	69.6	4	21.1	4	-1E+10	1	0.0511	4	0.000191	0	-1E+10	1	-1E+10	1	-1E+10	1
4902624	47	C	10/04/2025	03:41	-129.115	49.124	0	1675.50	0	2.2930	0	34.5360	0	27.586	0	1654.626	0	-1e10	1	-1e10	1	-1E+10	1	-1e10	1	-1e10	1	-1E+10	1	-1E+10	1	-1E+10	1
4902624	47	C	10/04/2025	03:41	-129.115	49.124	0	1691.70	0	2.2761	0	34.5390	0	27.589	0	1670.560	0	50.6	4	15.3	4	-1E+10	1	0.0513	4	0.000099	0	-1E+10	1	-1E+10	1	-1E+10	1
4902624	47	C	10/04/2025	03:41	-129.115	49.124	0	1708.10	0	2.2590	0	34.5420	0	27.593	0	1686.690	0	51.0	4	15.5	4	-1E+10	1	0.0584	4	0.000110	0	-1E+10	1	-1E+10	1	-1E+10	1
4902624	47	C	10/04/2025	03:41	-129.115	49.124	0	1724.40	0	2.2420	0	34.5450	0	27.597	0	1702.721	0	-1e10	1	-1e10	1	-1E+10	1	-1e10	1	-1e10	1	-1E+10	1	-1E+10	1	-1E+10	1
4902624	47	C	10/04/2025	03:41	-129.115	49.124	0	1725.20	0	2.2412	0	34.5451	0	27.597	0	1703.507	0	53.6	4	16.3	4	-1E+10	1	0.0584	4	0.000098	0	-1E+10	1	-1E+10	1	-1E+10	1
4902624	47	C	10/04/2025	03:41	-129.115	49.124	0	1743.00	0	2.2229	0	34.5483	0	27.601	0	1721.011	0	56.4	4	17.1	4	-1E+10	1	0.0582	4	0.000110	0	-1E+10	1	-1E+10	1	-1E+10	1
4902624	47	C	10/04/2025	03:41	-129.115	49.124	0	1761.00	0	2.2045	0	34.5515	0	27.606	0	1738.711	0	58.0	4	17.6	4	-1E+10	1	0.0511	4	0.000109	0	-1E+10	1	-1E+10	1	-1E+10	1
4902624	47	C	10/04/2025	03:41	-129.115	49.124	0	1775.10	0	2.1900	0	34.5540	0	27.609	0	1752.574	0	-1e10	1	-1e10	1	-1E+10	1	-1e10	1	-1e10	1	-1E+10	1	-1E+10	1	-1E+10	1
4902624	47	C	10/04/2025	03:41	-129.115	49.124	0	1779.50	0	2.1848	0	34.5548	0	27.610	0	1756.900	0	59.3	4	18.0	4	-1E+10	1	0.0510	4	0.000110	0	-1E+10	1	-1E+10	1	-1E+10	1
4902624	47	C	10/04/2025	03:41	-129.115	49.124	0	1798.80	0	2.1621	0	34.5583	0	27.615	0	1775.874	0	62.3	4	18.9	4	-1E+10	1	0.0438	4	0.000155	0	-1E+10	1	-1E+10	1	-1E+10	1
4902624	47	C	10/04/2025	03:41	-129.115	49.124	0	1818.50	0	2.1389	0	34.5618	0	27.619	0	1795.240	0	64.3	4	19.5	4	-1E+10	1	0.0438	4	0.000108	0	-1E+10	1	-1E+10	1	-1E+10	1
4902624	47	C	10/04/2025	03:41	-129.115	49.124	0	1825.20	0	2.1310	0	34.5630	0	27.621	0	1801.826	0	-1e10	1	-1e10	1	-1E+10	1	-1e10	1	-1e10	1	-1E+10	1	-1E+10	1	-1E+10	1
4902624	47	C	10/04/2025	03:41	-129.115	49.124	0	1839.30	0	2.1182	0	34.5653	0	27.624	0	1815.685	0	67.7	4	20.5	4	-1E+10	1	0.0441	4	0.000108	0	-1E+10	1	-1E+10	1	-1E+10	1
4902624	47	C	10/04/2025	03:41	-129.115	49.124	0	1861.50	0	2.0981	0	34.5689	0	27.629	0	1837.504	0	69.6	4	21.0	4	-1E+10	1	0.0583	4	0.000131	0	-1E+10	1	-1E+10	1	-1E+10	1
4902624	47	C	10/04/2025	03:41	-129.115	49.124	0	1874.80	0	2.0860	0	34.5710	0	27.631	0	1850.575	0	-1e10	1	-1e10	1	-1E+10	1	-1e10	1	-1e10	1	-1E+10	1	-1E+10	1	-1E+10	1
4902624	47	C	10/04/2025	03:41	-129.115	49.124	0	1884.60	0	2.0792	0	34.5722	0	27.633	0	1860.205	0	71.0	4	21.4	4	-1E+10	1	0.0511	4	0.000142	0	-1E+10	1	-1E+10	1	-1E+10	1
4902624	47	C	10/04/2025	03:41	-129.115	49.124	0	1907.40	0	2.0634	0	34.5749	0	27.636	0	1882.609	0	72.2	4	21.8	4	-1E+10	1	0.0511	4	0.000119	0	-1E+10	1	-1E+10	1	-1E+10	1
4902624	47	C	10/04/2025	03:41	-129.115	49.124	0	1923.80	0	2.0520	0	34.5768	0	27.639	0	1898.723	0	73.2	4	22.1	4	-1E+10	1	0.0511	4	0.000154	0	-1E+10	1	-1E+10	1	-1E+10	1
4902624	47	C	10/04/2025	03:41	-129.115	49.124	0	1925.20	0	2.0510	0	34.5770	0	27.639	0	1900.099	0	-1e10	1	-1e10	1	-1E+10	1	-1e10	1	-1e10	1	-1E+10	1	-1E+10	1	-1E+10	1
4902624	47	C	10/04/2025	03:41	-129.115	49.124	0	1940.60	0	2.0401	0	34.5790	0	27.642	0	1915.229	0	74.0	4	22.3	4	-1E+10	1	0.0509	4	0.000176	0	-1E+10	1	-1E+10	1	-1E+10	1
4902624	47	C	10/04/2025	03:41	-129.115	49.124	0	1958.20	0	2.0277	0	34.5814	0	27.645	0	1932.519	0	74.7	4	22.6	4	-1E+10	1	0.0367	4	0.000119	0	-1E+10	1	-1E+10	1	-1E+10	1
4902624	47	C	10/04/2025	03:41	-129.115	49.124	0	1970.50	0	2.0190	0	34.5830	0	27.647	0	1944.601	0	-1e10	1	-1e10	1	-1E+10	1	-1e10	1	-1e10	1	-1E+10	1	-1E+10	1	-1E+10	1
4902624	47	C	10/04/2025	03:41	-129.115	49.124	0	1976.30	0	-1e10	1	-1e10	1	-1e10	1	1950.299	0	78.4	4	-1e10	4	-1E+10	1	0.0507	4	0.000200	0	-1E+10	1	-1E+10	1	-1E+10	1
4902624	47	C	10/04/2025	03:41	-129.115	49.124	0	1991.00	0	-1e10	1	-1e10	1	-1e10	1	1964.737	0	70.2	4	-1e10	4	-1E+10	1	0.0365	4	0.000154	0	-1E+10	1	-1E+10	1	-1E+10	1
4902624	47	C	10/04/2025	03:41	-129.115	49.124	0																										
4902624	48	C	10/14/2025	22:40	-128.942	49.156	0	0.40	0	14.7710	0	32.0580	0	23.754	0	0.397	0	233.2	4	91.8	4	-1E+10	1	0.8176	4	0.001479	0	-1E+10	1	-1E+10	1	-1E+10	1
4902624	48	C	10/14/2025	22:40	-128.942	49.156	0	0.50	0	14.7810	0	32.0560	0	23.751	0	0.496	0	-1e10	1	-1e10	1	-1E+10	1	-1e10	1	-1e10	1	-1E+10	1	-1E+10	1	-1E+10	1
4902624	48	C	10/14/2025	22:40	-128.942	49.156	0	0.60	0	14.7813	0	32.0564	0	23.751	0	0.595	0	233.8	4	92.0	4	-1E+10	1	0.8158	4	0.001511	0	-1E+10	1	-1E+10	1	-1E+10	1
4902624	48	C	10/14/2025	22:40	-128.942	49.156	0	0.90	0	14.7821	0	32.0575	0	23.752	0	0.892	0	-1e10	1	-1e10	1	-1E+10	1	0.8760	4	0.001643	0	-1E+10	1	-1E+10	1	-1E+10	1
4902624	48	C	10/14/2025	22:40	-128.942	49.156	0	1.00	0	14.7824	0	32.0578	0	23.752	0	0.992	0	-1e10	1	-1e10	1	-1E+10	1	0.9198	4	0.001502	0	-1E+10	1	-1E+10	1	-1E+10	1
4902624	48	C	10/14/2025	22:40	-128.942	49.156	0	1.40	0	14.7835	0	32.0593	0	23.753	0	1.388	0	-1e10	1	-1e10	1	-1E+10	1	0.9198	4	0.001514	0	-1E+10	1	-1E+10	1	-1E+10	1
4902624	48	C	10/14/2025	22:40	-128.942	49.156	0	1.60	0	14.7840	0	32.0600	0	23.753	0	1.586	0	-1e10	1	-1e10	1	-1E+10	1	0.9490	4	0.001432	0	-1E+10	1	-1E+10	1	-1E+10	1
4902624	48	C	10/14/2025	22:40	-128.942	49.156	0	1.70	0	14.7841	0	32.0600	0	23.753	0	1.686	0	232.2	4	91.4	4	-1E+10	1	0.9417	4	0.001444	0	-1E+10	1	-1E+10	1	-1E+10	1
4902624	48	C	10/14/2025	22:40	-128.942	49.156	0	1.90	0	14.7843	0	32.0600	0	23.753	0	1.884	0	-1e10	1	-1e10	1	-1E+10	1	0.9563	4	0.001491	0	-1E+10	1	-1E+10	1	-1E+10	1
4902624	48	C	10/14/2025	22:40	-128.942	49.156	0	2.10	0	14.7846	0	32.0600	0	23.753	0	2.082	0	-1e10	1	-1e10	1	-1E+10	1	0.9490	4	0.001467	0	-1E+10	1	-1E+10	1	-1E+10	1
4902624	48	C	10/14/2025	22:40	-128.942	49.156	0	2.30	0	14.7848	0	32.0600	0	23.753	0	2.280	0	-1e10	1	-1e10	1	-1E+10	1	0.9271	4	0.001479	0	-1E+10	1	-1E+10	1	-1E+10	1
4902624	48	C	10/14/2025	22:40	-128.942	49.156	0	2.50	0	14.7850	0	32.0600	0	23.753	0	2.479	0	232.0	4	91.4	4	-1E+10	1	0.9490	4	0.001479	0	-1E+10	1	-1E+10	1	-1E+10	1
4902624	48	C	10/14/2025	22:40	-128.942	49.156	0	2.80	0	14.7850	0	32.0600	0	23.753	0	2.776	0	-1e10	1	-1e10	1	-1E+10	1	0.9417	4	0.001409	0	-1E+10	1	-1E+10	1	-1E+10	1
4902624	48	C	10/14/2025	22:40	-128.942	49.156	0	3.00	0	14.7850	0	32.0600	0	23.753	0	2.974	0	-1e10	1	-1e10	1	-1E+10	1	0.9490	4	0.001467	0	-1E+10	1	-1E+10	1	-1E+10	1
4902624	48	C	10/14/2025	22:40	-128.942	49.156	0	3.20	0	14.7850	0	32.0600	0	23.753	0	3.173	0	-1e10	1	-1e10	1	-1E+10	1	0.9417	4	0.001491	0	-1E+10	1	-1E+10	1	-1E+10	1
4902624	48	C	10/14/2025	22:40	-128.942	49.156	0	3.30	0	14.7850	0	32.0600	0	23.753	0	3.272	0	231.9	4	91.3	4	-1E+10	1	0.9490	4	0.001479	0	-1E+10	1	-1E+10	1	-1E+10	1
4902624	48	C	10/14/2025	22:40	-128.942	49.156	0	3.40	0	14.7850	0	32.0600	0	23.753	0	3.371	0	-1e10	1	-1e10	1	-1E+10	1	-1e10	1	-1e10	1	-1E+10	1	-1E+10	1	-1E+10	1
4902624	48	C	10/14/2025	22:40	-128.942	49.156	0	3.60	0	14.7852	0	32.0600	0	23.753	0	3.569	0	-1e10	1	-1e10	1	-1E+10	1	0.9709	4	0.001667	0	-1E+10	1	-1E+10	1	-1E+10	1
4902624	48	C	10/14/2025	22:40	-128.942	49.156	0	3.70	0	14.7853	0	32.0600	0	23.753	0	3.669	0	-1e10	1	-1e10	1	-1E+10	1	0.9563	4	0.001467	0	-1E+10	1	-1E+10	1	-1E+10	1
4902624	48	C	10/14/2025	22:40	-128.942	49.156	0	3.90	0	14.7855	0	32.0600	0	23.753	0	3.867	0	-1e10	1	-1e10	1	-1E+10	1	1.0001	4	0.001538	0	-1E+10	1	-1E+10	1	-1E+10	1
4902624	48	C	10/14/2025	22:40	-128.942	49.156	0	4.20	0	14.7857	0	32.0600	0	23.753	0	4.164	0	231.7	4	91.3	4	-1E+10	1	0.9441	4	0.001491	0	-1E+10	1	-1E+10	1	-1E+10	1
4902624	48	C	10/14/2025	22:40	-128.942	49.156	0	4.40	0	14.7859	0	32.0600	0	23.753	0	4.363	0	-1e10	1	-1e10	1	-1E+10	1	0.9636	4	0.001444	0	-1E+10	1	-1E+10	1	-1E+10	1
4902624	48	C	10/14/2025	22:40	-128.942	49.156	0	4.50	0	14.7860	0	32.0600	0	23.753	0	4.462	0	-1e10	1	-1e10	1	-1E+10	1	1.0147	4	0.001514	0	-1E+10	1	-1E+10	1	-1E+10	1
4902624	48	C	10/14/2025	22:40	-128.942	49.156	0	4.60	0	14.7860	0	32.0600	0	23.753	0	4.561	0	-1e10	1	-1e10	1	-1E+10	1	0.9855	4	0.001549	0	-1E+10	1	-1E+10	1	-1E+10	1
4902624	48	C	10/14/2025	22:40	-128.942	49.156	0	4.80	0	14.7860	0	32.0600	0	23.753	0	4.759	0	-1e10	1	-1e10	1	-1E+10	1	0.9636	4	0.001432	0	-1E+10	1	-1E+10	1	-1E+10	1
4902624	48	C	10/14/2025	22:40	-128.942	49.156	0	5.00	0	14.7860	0	32.0600	0	23.753	0	4.957	0	231.7	4	91.3	4	-1E+10	1	0.9928	4	0.001467	0	-1E+10	1	-1E+10	1	-1E+10	1
4902624	48	C	10/14/2025	22:40	-128.942	49.156	0	5.10	0	14.7860	0	32.0600	0	23.753	0	5.057	0	-1e10	1	-1e10	1	-1E+10	1	0.9636	4	0.001479	0	-1E+10	1	-1E+10	1	-1E+10	1
4902624	48	C	10/14/2025	22:40	-128.942	49.156	0	5.30	0	14.7860	0	32.0600	0	23.753	0	5.255	0	-1e10	1	-1e10	1	-1E+10	1	0.9636	4	0.001584	0	-1E+10	1	-1E+10	1	-1E+10	1
4902624	48	C	10/14/2025	22:40	-128.942	49.156	0	5.50	0	14.7860	0	32.0600	0	23.753	0	5.453	0	-1e10	1	-1e10	1	-1E+10	1	-1e10	1	-1e10	1	-1E+10	1	-1E+10	1	-1E+10	1
4902624	48	C	10/14/2025	22:40	-128.942	49.156	0	5.60	0	14.7859	0	32.0600	0	23.753	0	5.552	0	-1e10	1	-1e10	1	-1E+10	1	0.9490	4	0.001467	0	-1E+10	1	-1E+10	1	-1E+10	1
4902624	48	C	10/14/2025	22:40	-128.942	49.156	0	5.70	0	14.7858	0	32.0600	0	23.753	0	5.651	0	231.6	4	91.2	4	-1E+10	1	0.9928	4	0.001502	0	-1E+10	1	-1E+10	1	-1E+10	1
4902624	48	C	10/14/2025	22:40	-128.942	49.156	0	5.80	0	14.7857	0	32.0600	0	23.753	0	5.751	0	-1e10	1	-1e10	1	-1E+10	1	0.9563	4	0.001491	0	-1E+10	1	-1E+10	1	-1E+10	1
4902624	48	C	10/14/2025	22:40	-128.942	49.156	0	6.00	0	14.7855	0	32.0600	0	23.753	0	5.949	0	-1e10	1	-1e10	1	-1E+10	1	0.9344	4	0.001502	0	-1E+10	1	-1E+10	1	-1E+10	1
4902624	48	C	10/14/2025	22:40	-128.942	49.156	0	6.10	0	14.7854	0	32.0600	0	23.753	0	6.048	0	-1e10	1	-1e10	1	-1E+10	1	0.9344	4	0.001538	0	-1E+10	1	-1E+10	1	-1E+10	1
4902624	48	C	10/14/2025	22:40	-128.942	49.156	0	6.30	0	14.7852	0	32.0600	0	23.753	0	6.246	0	-1e10	1	-1e10	1	-1E+10	1	0.9709	4	0.001702	0	-1E+10	1	-1E+10	1	-1E+10	1
4902624	48	C	10/14/2025	22:40	-128.942	49.156	0	6.50	0	14.7850	0	32.0600	0	23.753	0	6.445	0	231.5	4	91.2	4	-1E+10	1	0.9563	4	0.001514	0	-1E+10	1	-1E+10	1	-1E+10	1
4902624	48	C	10/14/2025	22:40	-128.942	49.156	0	6.80	0	14.7847	0	32.0600	0	23.753	0	6.742	0	-1e10	1	-1e10	1	-1E+10	1	0.9709	4	0.001549	0	-1E+10	1	-1E+10	1	-1E+10	1
4902624	48	C	10/14/2025	22:40	-128.942	49.156	0	6.90	0	14.7846	0	32.0600	0	23.753	0	6.841	0	-1e10	1	-1e10	1	-1E+10	1	0.9198	4	0.001514	0	-1E+10	1	-1E+10	1	-1E+10	1
4902624	48	C	10/14/2025	22:40	-128.942	49.156	0	7.10	0	14.7843	0	32.0600	0	23.753	0	7.040	0	-1e10	1	-1e10	1	-1E+10	1	0.9490	4	0.002112	0	-1E+10	1	-1E+10	1	-1E+10	1
4902624	48	C	10/14/2025	22:40	-128.942	49.156	0	7.30	0	14.7841	0	32.0600	0	23.753	0	7.238	0	231.1	4	91.0	4	-1E+10	1	0.9417	4	0.001608	0	-1E+10	1	-1E+10	1	-1E+10	1
4902624	48	C	10/14/2025	22:40	-128.942	49.156	0	7.40	0	14.7840	0	32.0600	0	23.753	0	7.337	0	-1e10	1	-1e10	1	-1E+10	1	0.9417	4	0.001432	0	-1E+10	1	-1E+10	1	-1E+10	1
4902624	48	C	10/14/2025	22:40	-128.942	49.156	0	7.60	0	14.7842	0	32.0600	0	23.753	0	7.535	0	-1e10	1	-1e10	1	-1E+10	1	0.9563	4	0.001514	0	-1E+10	1	-1E+10	1	-1E+10	1
4902624	48	C	10/14/2025	22:40	-128.942	49.156	0	7.80	0	14.7844	0	32.0600	0	23.753	0	7.734	0	-1e10	1	-1e10	1	-1E+10	1	0.9782	4	0.001491	0	-1E+10	1	-1E+10	1	-1E+10	1
4902624	48	C	10/14/2025	22:40	-128.942	49.156	0	8.20	0	14.7848	0	32.0600	0	23.753	0	8.130	0	231.2	4	91.0	4	-1E+10	1	0.9563	4	0.001543	0	-1E+10	1	-1E+10	1	-1E+10	1
4902624	48	C	10/14/2025	22:40	-128.942	49.156	0	8.40	0	14.7850	0	32.0600	0	23.753	0	8.328	0	-1e10	1	-1e10	1	-1E+10	1	0.9490	4	0.001573	0	-1E+10	1	-1E+10	1	-1E+10	1
4902624	48	C	10/14/2025	22:40	-128.942	49.156	0	8.60	0	14.7850	0	32.0600	0	23.753	0	8.527	0	-1e10	1	-1e10	1	-1E+10	1	0.9709	4	0.001408	0	-1E+10	1	-1E+10	1	-1E+10	1
4902624	48	C	10/14/2025	22:40	-128.942	49.156	0	8.90	0	14.7850	0	32.0600	0	23.753	0	8.824	0	-1e10	1	-1e10	1	-1E+10	1	0.9636	4	0.001737	0	-1E+10	1	-1E+10	1	-1E+10	1
4902624	48	C	10/14/2025	22:40	-128.942	49.156	0	9.00	0	14.7850	0	32.0600	0	23.753	0	8.923	0	-1e10	1	-1e10	1	-1E+10	1	0.9782	4	0.001432	0	-1E+10	1	-1E+10	1	-1E+10	1
4902624	48	C	10/14/2025	22:40	-128.942	49.156	0	9.20	0	14.7850	0	32.0600	0	23.753	0	9.122	0	231.1	4	91.0	4	-1E+10	1	0.9636	4	0.001467	0	-1E+10	1	-1E+10	1	-1E+10	1
4902624	48	C	10/14/2025	22:40	-128.942	49.156	0	9.40	0	14.7850	0	32.0600	0	23.753	0	9.320	0	-1e10	1	-1e10	1	-1E+10	1	0.9563	4	0.001385	0	-1E+10	1	-1E+10	1	-1E+10	1
4902624	48	C	10/14/2025	22:40	-128.942	49.156	0	9.50	0	14.7850	0	32.0600	0	23.753	0	9.419	0	-1e10	1	-1e10	1	-1E+10	1	-1e10	1	-1e10	1	-1E+10	1	-1E+10	1	-1E+10	1
4902624	48	C	10/14/2025	22:40	-128.942	49.156	0	9.60	0	14.7851	0	32.0600	0	23.753	0	9.518	0	-1e10	1	-1e10	1	-1E+10	1	0.9563	4	0.001502	0	-1E+10	1	-1E+10	1	-1E+10	1
4902624	48	C	10/14/2025	22:40	-128.942	49.156	0	10.00	0	14.7853	0	32.0600	0	23.753	0	9.915	0	-1e10	1	-1e10	1	-1E+10	1	0.9636	4	0.001561	0	-1E+10	1	-1E+10	1	-1E+10	1
4902624	48	C	10/14/2025	22:40	-128.942	49.156	0	10.20	0	14.7854	0	32.0600	0	23.753	0	10.113	0	231.0	4	91.0	4	-1E+10	1	0.9709	4	0.001502	0	-1E+10	1	-1E+10	1	-1E+10	1
4902624	48	C	10/14/2025	22:40	-128.942	49.156	0	11.10	0	14.7860	0	32.0600	0	23.753	0	11.005	0	231.0	4	91.0	4	-1E+10	1	0.9563	4	0.001514	0	-1E+10	1	-1E+10	1	-1E+10	1
4902624	48	C	10/14/2025	22:40	-128.942	49.156	0	12.10	0	14.7865	0	32.0600	0	23.753	0	11.997	0	230.8	4	90.9	4	-1E+10	1	0.9806	4	0.001494	0	-1E+10	1	-1E+10	1	-1E+10	1
4902624	48	C	10/14/2025	22:40	-128.942	49.156	0	13.00	0	14.7870	0	32.0600	0	23.753	0	12.889	0	-1e10	1	-1e10	1	-1E+10	1	-1e10	1	-1e10	1	-1E+10	1	-1E+10	1	-1E+10	1
4902624	48	C	10/14/2025	22:40	-128.942	49.156	0	13.10	0	14.7870	0	32.0600	0	23.753	0	12.988	0	230.7	4	90.9	4	-1E+10	1	0.9738	4	0.001500	0	-1E+10	1	-1E+10	1	-1E+10	1
4902624	48	C	10/14/2025	22:40	-128.942	49.156	0	14.10	0	14.7870	0	32.0600	0	23.753	0	13.980	0	230.5	4	90.8	4	-1E+10	1	1.0001	4	0.001446	0	-1E+10	1	-1E+10	1	-1E+10	1
4902624	48	C	10/14/2025	22:40	-128.942	49.156	0	15.10	0	14.7870	0	32.0600	0	23.753	0	14.971	0	230.5	4	90.8	4	-1E+10	1	0.9879	4	0.001401	0	-1E+10	1	-1E+10	1	-1E+10	1
4902624	48	C	10/14/2025	22:40	-128.942	49.156	0	16.10	0	14.7881	0	32.0600	0	23.753	0	15.963	0	230.3	4	90.7	4	-1E+10	1	0.9849	4	0.001428	0	-1E+10	1	-1E+10	1	-1E+10	1
4902624	48	C	10/14/2025	22:40	-128.942	49.156	0	17.00	0	14.7890	0	32.0600	0	23.753	0	16.855	0	-1e10	1	-1e10	1	-1E+10	1	-1e10	1	-1e10	1	-1E+10	1	-1E+10	1	-1E+10	1
4902624	48	C	10/14/2025	22:40	-128.942	49.156	0	17.20	0	14.7890	0	32.0600	0	23.753	0	17.053	0	230.2	4	90.6	4	-1E+10	1	1.0114	4	0.001440	0	-1E+10	1	-1E+10	1	-1E+10	1
4902624	48	C	10/14/2025	22:40	-128.942	49.156	0	18.30	0	14.7890	0	32.0600	0	23.753	0	18.144	0	230.0	4	90.6	4	-1E+10	1	1.0293	4	0.001393	0	-1E+10	1	-1E+10	1	-1E+10	1
4902624	48	C	10/14/2025	22:40	-128.942	49.156	0	18.90	0	14.7890	0	32.0600	0	23.753	0	18.739	0	-1e10	1	-1e10	1	-1E+10	1	-1e10	1	-1e10	1	-1E+10	1	-1E+10	1	-1E+10	1
4902624	48	C	10/14/2025	22:40	-128.942	49.156	0	19.40	0	14.7890	0	32.0600	0	23.753	0	19.234	0	230.1	4	90.6	4	-1E+10	1	0.9984	4	0.001432	0	-1E+10	1	-1E+10	1	-1E+10	1
4902624	48	C	10/14/2025	22:40	-128.942	49.156	0	20.40	0	14.7890	0	32.0600	0	23.753	0	20.226	0	229.9	4	90.5	4	-1E+10	1	0.9928	4	0.001432	0	-1E+10	1	-1E+10	1	-1E+10	1
4902624	48	C	10/14/2025	22:40	-128.942	49.156	0	21.00	0	14.7890	0	32.0600	0	23.753	0	20.821	0	-1e10	1	-1e10	1	-1E+10	1	-1e10	1	-1e10	1	-1E+10	1	-1E+10	1	-1E+10	1
4902624	48	C	10/14/2025	22:40	-128.942	49.156	0	21.50	0	14.7890	0	32.0600	0	23.753	0	21.316	0	229.8	4	90.5	4	-1E+10	1	1.0220	4	0.001479	0	-1E+10	1	-1E+10	1	-1E+10	1
4902624	48	C	10/14/2025	22:40	-128.942	49.156	0	22.60	0	14.7890	0	32.0600	0	23.753	0	22.407	0	229.8	4	90.5	4	-1E+10	1	1.0467	4	0.001469	0	-1E+10	1	-1E+10	1	-1E+10	1
4902624	48	C	10/14/2025	22:40	-128.942	49.156	0	23.00	0	14.7890	0	32.0600	0	23.753	0	22.803	0	-1e10	1	-1e10	1	-1E+10	1	-1e10	1	-1e10	1	-1E+10	1	-1E+10	1	-1E+10	1
4902624	48	C	10/14/2025	22:40	-128.942	49.156	0	23.60	0	14.7896	0	32.0600	0	23.753	0	23.398	0	229.6	4	90.4	4	-1E+10	1	1.0171	4	0.001467	0	-1E+10	1	-1E+10	1	-1E+10	1
4902624	48	C	10/14/2025	22:40	-128.942	49.156	0	24.70	0	14.7907	0	32.0600	0	23.753	0	24.489	0	229.5	4	90.4	4	-1E+10	1	0.9950	4	0.001377	0	-1E+10	1	-1E+10	1	-1E+10	1
4902624	48	C	10/14/2025	22:40	-128.942	49.156	0	25.00	0	14.7910	0	32.0600	0	23.753	0	24.786	0	-1e10	1	-1e10	1	-1E+10	1	-1e10	1	-1e10	1	-1E+10	1	-1E+10	1	-1E+10	1
4902624	48	C	10/14/2025	22:40	-128.942	49.156	0	25.70	0	14.7910	0	32.0600	0	23.753	0	25.480	0	229.3	4	90.3	4	-1E+10	1	1.0360	4	0.001401	0	-1E+10	1	-1E+10	1	-1E+10	1
4902624	48	C	10/14/2025	22:40	-128.942	49.156	0	26.70	0	14.7910	0	32.0600	0	23.753	0	26.471	0	229.1	4	90.2	4	-1E+10	1	1.0682	4	0.001428	0	-1E+10	1	-1E+10	1	-1E+10	1
4902624	48	C	10/14/2025	22:40	-128.942	49.156	0	27.00	0	14.7910	0	32.0600	0	23.753	0	26.769	0	-1e10	1	-1e10	1	-1E+10	1	-1e10	1	-1e10	1	-1E+10	1	-1E+10	1	-1E+10	1
4902624	48	C	10/14/2025	22:40	-128.942	49.156	0	27.70	0	14.7910	0	32.0597	0	23.752	0	27.463	0	228.9	4	90.1	4	-1E+10	1	1.0512	4	0.001429	0	-1E+10	1	-1E+10	1	-1E+10	1
4902624	48	C	10/14/2025	22:40	-128.942	49.156	0	28.70	0	14.7910	0	32.0591	0	23.752	0	28.454	0	228.6	4	90.0	4	-1E+10	1	1.0287	4	0.001610	0	-1E+10	1	-1E+10	1	-1E+10	1
4902624	48	C	10/14/2025	22:40	-128.942	49.156	0	29.00	0	14.7910	0	32.0590	0	23.752	0	28.752	0	-1e10	1	-1e10	1	-1E+10	1	-1e10	1	-1e10	1	-1E+10	1	-1E+10	1	-1E+10	1
4902624	48	C	10/14/2025	22:40	-128.942	49.156	0	29.80	0	14.7902	0	32.0590	0	23.752	0	29.545	0	228.4	4	90.0	4	-1E+10	1	1.0658	4	0.001361	0	-1E+10	1	-1E+10	1	-1E+10	1
4902624	48	C	10/14/2025	22:40	-128.942	49.156	0	30.90	0	14.7890	0	32.0590	0	23.752	0	30.635	0	228.2	4	89.9	4	-1E+10	1	1.0001	4	0.001796	0	-1E+10	1	-1E+10	1	-1E+10	1
4902624	48	C	10/14/2025	22:40	-128.942	49.156	0	31.80	0	14.7858	0	32.0585	0	23.753	0	31.527	0	228.0	4	89.8	4	-1E+10	1	1.0147	4	0.001443	0	-1E+10	1	-1E+10	1	-1E+10	1
4902624	48	C	10/14/2025	22:40	-128.942	49.156	0	32.30	0	14.7841	0	32.0583	0	23.753	0	32.023	0	228.0	4	89.8	4	-1E+10	1	1.0043	4	0.001443	0	-1E+10	1	-1E+10	1	-1E+10	1
4902624	48	C	10/14/2025	22:40	-128.942	49.156	0	32.70	0	14.7827	0	32.0581	0	23.753	0	32.420	0	227.9	4	89.7	4	-1E+10	1	1.0147	4	0.001420	0	-1E+10	1	-1E+10	1	-1E+10	1
4902624	48	C	10/14/2025	22:40	-128.942	49.156	0	32.90	0	14.7820	0	32.0580	0	23.753	0	32.618	0	-1e10	1	-1e10	1	-1E+10	1	-1e10	1	-1e10	1	-1E+10	1	-1E+10	1	-1E+10	1
4902624	48	C	10/14/2025	22:40	-128.942	49.156	0	33.00	0	14.7662	0	32.0581	0	23.757	0	32.717	0	228.1	4	89.8	4	-1E+10	1	1.0415	4	0.001412	0	-1E+10	1	-1E+10	1	-1E+10	1
4902624	48	C	10/14/2025	22:40	-128.942	49.156	0	33.30	0	14.7188	0	32.0586	0	23.767	0	33.014	0	228.2	4	89.7	4	-1E+10	1	1.0634	4	0.001451	0	-1E+10	1	-1E+10	1	-1E+10	1
4902624	48	C	10/14/2025	22:40	-128.942	49.156	0	33.60	0	14.6714	0	32.0590	0	23.777	0	33.312	0	228.4	4	89.7	4	-1E+10	1	1.0476	4	0.001464	0	-1E+10	1	-1E+10	1	-1E+10	1
4902624	48	C	10/14/2025	22:40	-128.942	49.156	0	33.90	0	14.6240	0	32.0595	0	23.788	0	33.609	0	228.3	4	89.6	4	-1E+10	1	1.0147	4	0.001455	0	-1E+10	1	-1E+10	1	-1E+10	1
4902624	48	C	10/14/2025	22:40	-128.942	49.156	0	34.20	0	14.5766	0	32.0600	0	23.798	0	33.907	0	228.8	4	89.7	4	-1E+10	1	0.9782	4	0.001432	0	-1E+10	1	-1E+10	1	-1E+10	1
4902624	48	C	10/14/2025	22:40	-128.942	49.156	0	34.60	0	14.5134	0	32.0606	0	23.812	0	34.303	0	230.0	4	90.1	4	-1E+10	1	0.9140	4	0.001206	0	-1E+10	1	-1E+10	1	-1E+10	1
4902624	48	C	10/14/2025	22:40	-128.942	49.156	0	34.90	0	14.4660	0	32.0610	0	23.822	0	34.601	0	-1e10	1	-1e10	1	-1E+10	1	-1e10	1	-1e10	1	-1E+10	1	-1E+10	1	-1E+10	1
4902624	48	C	10/14/2025	22:40	-128.942	49.156	0	35.10	0	14.3450	0	32.0668	0	23.852	0	34.799	0	231.3	4	90.3	4	-1E+10	1	0.8054	4	0.001056	0	-1E+10	1	-1E+10	1	-1E+10	1
4902624	48	C	10/14/2025	22:40	-128.942	49.156	0	35.70	0	13.9820	0	32.0842	0	23.940	0	35.394	0	232.1	4	89.9	4	-1E+10	1	0.7349	4	0.000962	0	-1E+10	1	-1E+10	1	-1E+10	1
4902624	48	C	10/14/2025	22:40	-128.942	49.156	0	36.30	0	13.6190	0	32.1016	0	24.027	0	35.988	0	232.3	4	89.4	4	-1E+10	1	0.6977	4	0.000966	0	-1E+10	1	-1E+10	1	-1E+10	1
4902624	48	C	10/14/2025	22:40	-128.942	49.156	0	36.90	0	13.2560	0	32.1190	0	24.113	0	36.583	0	232.0	4	88.6	4	-1E+10	1	0.6734	4	0.000959	0	-1E+10	1	-1E+10	1	-1E+10	1
4902624	48	C	10/14/2025	22:40	-128.942	49.156	0	37.50	0	13.0220	0	32.1296	0	24.167	0	37.178	0	232.8	4	88.5	4	-1E+10	1	0.6653	4	0.000910	0	-1E+10	1	-1E+10	1	-1E+10	1
4902624	48	C	10/14/2025	22:40	-128.942	49.156	0	38.20	0	12.7490	0	32.1419	0	24.230	0	37.872	0	232.4	4	87.9	4	-1E+10	1	0.6643	4	0.000866	0	-1E+10	1	-1E+10	1	-1E+10	1
4902624	48	C	10/14/2025	22:40	-128.942	49.156	0	39.00	0	12.4370	0	32.1560	0	24.301	0	38.665	0	-1e10	1	-1e10	1	-1E+10	1	-1e10	1	-1e10	1	-1E+10	1	-1E+10	1	-1E+10	1
4902624	48	C	10/14/2025	22:40	-128.942	49.156	0	39.10	0	12.4026	0	32.1574	0	24.308	0	38.764	0	233.4	4	87.6	4	-1E+10	1	0.5986	4	0.000740	0	-1E+10	1	-1E+10	1	-1E+10	1
4902624	48	C	10/14/2025	22:40	-128.942	49.156	0	40.00	0	12.0935	0	32.1705	0	24.376	0	39.656	0	233.3	4	87.1	4	-1E+10	1	0.5548	4	0.000728	0	-1E+10	1	-1E+10	1	-1E+10	1
4902624	48	C	10/14/2025	22:40	-128.942	49.156	0	41.00	0	11.7500	0	32.1850	0	24.451	0	40.648	0	231.7	4	85.8	4	-1E+10	1	0.5621	4	0.000725	0	-1E+10	1	-1E+10	1	-1E+10	1
4902624	48	C	10/14/2025	22:40	-128.942	49.156	0	41.90	0	11.6609	0	32.1884	0	24.470	0	41.540	0	232.3	4	85.9	4	-1E+10	1	0.5561	4	0.000660	0	-1E+10	1	-1E+10	1	-1E+10	1
4902624	48	C	10/14/2025	22:40	-128.942	49.156	0	42.90	0	11.5618	0	32.1922	0	24.491	0	42.531	0	231.8	4	85.5	4	-1E+10	1	0.5442	4	0.000603	0	-1E+10	1	-1E+10	1	-1E+10	1
4902624	48	C	10/14/2025	22:40	-128.942	49.156	0	43.10	0	11.5420	0	32.1930	0	24.495	0	42.729	0	-1e10	1	-1e10	1	-1E+10	1	-1e10	1	-1e10	1	-1E+10	1	-1E+10	1	-1E+10	1
4902624	48	C	10/14/2025	22:40	-128.942	49.156	0	43.80	0	11.4821	0	32.1957	0	24.508	0	43.423	0	231.4	4	85.3	4	-1E+10	1	0.5402	4	0.000594	0	-1E+10	1	-1E+10	1	-1E+10	1
4902624	48	C	10/14/2025	22:40	-128.942	49.156	0	44.70	0	11.4051	0	32.1992	0	24.525	0	44.315	0	231.2	4	85.0	4	-1E+10	1	0.5502	4	0.000615	0	-1E+10	1	-1E+10	1	-1E+10	1
4902624	48	C	10/14/2025	22:40	-128.942	49.156	0	44.90	0	11.3880	0	32.2000	0	24.528	0	44.514	0	-1e10	1	-1e10	1	-1E+10	1	-1e10	1	-1e10	1	-1E+10	1	-1E+10	1	-1E+10	1
4902624	48	C	10/14/2025	22:40	-128.942	49.156	0	45.70	0	11.3240	0	32.2056	0	24.544	0	45.307	0	230.9	4	84.8	4	-1E+10	1	0.5488	4	0.000625	0	-1E+10	1	-1E+10	1	-1E+10	1
4902624	48	C	10/14/2025	22:40	-128.942	49.156	0	46.60	0	11.2520	0	32.2119	0	24.562	0	46.199	0	230.4	4	84.5	4	-1E+10	1	0.5154	4	0.000603	0	-1E+10	1	-1E+10	1	-1E+10	1
4902624	48	C	10/14/2025	22:40	-128.942	49.156	0	46.90	0	11.2280	0	32.2140	0	24.568	0	46.496	0	-1e10	1	-1e10	1	-1E+10	1	-1e10	1	-1e10	1	-1E+10	1	-1E+10	1	-1E+10	1
4902624	48	C	10/14/2025	22:40	-128.942	49.156	0	47.60	0	11.1342	0	32.2196	0	24.589	0	47.190	0	229.9	4	84.1	4	-1E+10	1	0.4666	4	0.000566	0	-1E+10	1	-1E+10	1	-1E+10	1
4902624	48	C	10/14/2025	22:40	-128.942	49.156	0	48.70	0	10.9868	0	32.2284	0	24.622	0	48.281	0	229.6	4	83.7	4	-1E+10	1	0.4234	4	0.000517	0	-1E+10	1	-1E+10	1	-1E+10	1
4902624	48	C	10/14/2025	22:40	-128.942	49.156	0	48.90	0	10.9600	0	32.2300	0	24.628	0	48.479	0	-1e10	1	-1e10	1	-1E+10	1	-1e10	1	-1e10	1	-1E+10	1	-1E+10	1	-1E+10	1
4902624	48	C	10/14/2025	22:40	-128.942	49.156	0	49.80	0	10.8216	0	32.2343	0	24.655	0	49.371	0	229.7	4	83.5	4	-1E+10	1	0.3925	4	0.000517	0	-1E+10	1	-1E+10	1	-1E+10	1
4902624	48	C	10/14/2025	22:40	-128.942	49.156	0	50.90	0	10.6524	0	32.2395	0	24.689	0	50.461	0	229.5	4	83.1	4	-1E+10	1	0.3750	4	0.000536	0	-1E+10	1	-1E+10	1	-1E+10	1
4902624	48	C	10/14/2025	22:40	-128.942	49.156	0	51.00	0	10.6370	0	32.2400	0	24.692	0	50.560	0	-1e10	1	-1e10	1	-1E+10	1	-1e10	1	-1e10	1	-1E+10	1	-1E+10	1	-1E+10	1
4902624	48	C	10/14/2025	22:40	-128.942	49.156	0	52.00	0	10.5951	0	32.2448	0	24.702	0	51.552	0	229.3	4	82.9	4	-1E+10	1	0.3622	4	0.000532	0	-1E+10	1	-1E+10	1	-1E+10	1
4902624	48	C	10/14/2025	22:40	-128.942	49.156	0	53.10	0	10.5490	0	32.2500	0	24.714	0	52.642	0	227.3	4	82.1	4	-1E+10	1	0.3420	4	0.000516	0	-1E+10	1	-1E+10	1	-1E+10	1
4902624	48	C	10/14/2025	22:40	-128.942	49.156	0	54.20	0	10.4142	0	32.2583	0	24.744	0	53.732	0	228.9	4	82.5	4	-1E+10	1	0.3133	4	0.000524	0	-1E+10	1	-1E+10	1	-1E+10	1
4902624	48	C	10/14/2025	22:40	-128.942	49.156	0	55.10	0	10.3040	0	32.2650	0	24.768	0	54.625	0	-1e10	1	-1e10	1	-1E+10	1	-1e10	1	-1e10	1	-1E+10	1	-1E+10	1	-1E+10	1
4902624	48	C	10/14/2025	22:40	-128.942	49.156	0	55.30	0	10.2906	0	32.2653	0	24.770	0	54.823	0	229.0	4	82.3	4	-1E+10	1	0.2853	4	0.000541	0	-1E+10	1	-1E+10	1	-1E+10	1
4902624	48	C	10/14/2025	22:40	-128.942	49.156	0	56.40	0	10.2171	0	32.2671	0	24.784	0	55.913	0	229.0	4	82.2	4	-1E+10	1	0.2701	4	0.000513	0	-1E+10	1	-1E+10	1	-1E+10	1
4902624	48	C	10/14/2025	22:40	-128.942	49.156	0	57.00	0	10.1770	0	32.2680	0	24.791	0	56.508	0	-1e10	1	-1e10	1	-1E+10	1	-1e10	1	-1e10	1	-1E+10	1	-1E+10	1	-1E+10	1
4902624	48	C	10/14/2025	22:40	-128.942	49.156	0	57.60	0	10.1669	0	32.2693	0	24.794	0	57.103	0	228.8	4	82.0	4	-1E+10	1	0.2701	4	0.000493	0	-1E+10	1	-1E+10	1	-1E+10	1
4902624	48	C	10/14/2025	22:40	-128.942	49.156	0	58.70	0	10.1484	0	32.2716	0	24.799	0	58.193	0	228.6	4	81.9	4	-1E+10	1	0.2482	4	0.000516	0	-1E+10	1	-1E+10	1	-1E+10	1
4902624	48	C	10/14/2025	22:40	-128.942	49.156	0	58.90	0	10.1450	0	32.2720	0	24.800	0	58.391	0	-1e10	1	-1e10	1	-1E+10	1	-1e10	1	-1e10	1	-1E+10	1	-1E+10	1	-1E+10	1
4902624	48	C	10/14/2025	22:40	-128.942	49.156	0	59.80	0	10.0969	0	32.2761	0	24.811	0	59.283	0	228.3	4	81.7	4	-1E+10	1	0.2482	4	0.000516	0	-1E+10	1	-1E+10	1	-1E+10	1
4902624	48	C	10/14/2025	22:40	-128.942	49.156	0	60.80	0	10.0434	0	32.2805	0	24.823	0	60.275	0	228.2	4	81.6	4	-1E+10	1	0.2482	4	0.000571	0	-1E+10	1	-1E+10	1	-1E+10	1
4902624	48	C	10/14/2025	22:40	-128.942	49.156	0	60.90	0	10.0380	0	32.2810	0	24.825	0	60.374	0	-1e10	1	-1e10	1	-1E+10	1	-1e10	1	-1e10	1	-1E+10	1	-1E+10	1	-1E+10	1
4902624	48	C	10/14/2025	22:40	-128.942	49.156	0	61.70	0	9.9496	0	32.2901	0	24.846	0	61.167	0	228.3	4	81.4	4	-1E+10	1	0.2299	4	0.000489	0	-1E+10	1	-1E+10	1	-1E+10	1
4902624	48	C	10/14/2025	22:40	-128.942	49.156	0	62.50	0	9.8612	0	32.2993	0	24.868	0	61.960	0	228.4	4	81.3	4	-1E+10	1	0.2190	4	0.000416	0	-1E+10	1	-1E+10	1	-1E+10	1
4902624	48	C	10/14/2025	22:40	-128.942	49.156	0	63.00	0	9.8060	0	32.3050	0	24.882	0	62.455	0	-1e10	1	-1e10	1	-1E+10	1	-1e10	1	-1e10	1	-1E+10	1	-1E+10	1	-1E+10	1
4902624	48	C	10/14/2025	22:40	-128.942	49.156	0	63.10	0	9.8029	0	32.3053	0	24.882	0	62.554	0	228.5	4	81.3	4	-1E+10	1	0.2226	4	0.000420	0	-1E+10	1	-1E+10	1	-1E+10	1
4902624	48	C	10/14/2025	22:40	-128.942	49.156	0	63.80	0	9.7816	0	32.3074	0	24.887	0	63.248	0	228.5	4	81.2	4	-1E+10	1	0.2324	4	0.000452	0	-1E+10	1	-1E+10	1	-1E+10	1
4902624	48	C	10/14/2025	22:40	-128.942	49.156	0	64.50	0	9.7603	0	32.3095	0	24.893	0	63.942	0	228.4	4	81.2	4	-1E+10	1	0.2214	4	0.000468	0	-1E+10	1	-1E+10	1	-1E+10	1
4902624	48	C	10/14/2025	22:40	-128.942	49.156	0	65.00	0	9.7450	0	32.3110	0	24.896	0	64.438	0	-1e10	1	-1e10	1	-1E+10	1	-1e10	1	-1e10	1	-1E+10	1	-1E+10	1	-1E+10	1
4902624	48	C	10/14/2025	22:40	-128.942	49.156	0	65.20	0	9.7397	0	32.3111	0	24.897	0	64.636	0	228.2	4	81.0	4	-1E+10	1	0.2044	4	0.000423	0	-1E+10	1	-1E+10	1	-1E+10	1
4902624	48	C	10/14/2025	22:40	-128.942	49.156	0	65.90	0	9.7210	0	32.3114	0	24.901	0	65.330	0	227.8	4	80.9	4	-1E+10	1	0.1980	4	0.000464	0	-1E+10	1	-1E+10	1	-1E+10	1
4902624	48	C	10/14/2025	22:40	-128.942	49.156	0	66.60	0	9.7023	0	32.3118	0	24.904	0	66.023	0	227.5	4	80.7	4	-1E+10	1	0.1861	4	0.000487	0	-1E+10	1	-1E+10	1	-1E+10	1
4902624	48	C	10/14/2025	22:40	-128.942	49.156	0	67.10	0	9.6890	0	32.3120	0	24.906	0	66.519	0	-1e10	1	-1e10	1	-1E+10	1	-1e10	1	-1e10	1	-1E+10	1	-1E+10	1	-1E+10	1
4902624	48	C	10/14/2025	22:40	-128.942	49.156	0	67.40	0	9.6692	0	32.3144	0	24.911	0	66.816	0	227.0	4	80.5	4	-1E+10	1	0.1825	4	0.000501	0	-1E+10	1	-1E+10	1	-1E+10	1
4902624	48	C	10/14/2025	22:40	-128.942	49.156	0	68.10	0	9.6230	0	32.3200	0	24.923	0	67.510	0	226.5	4	80.3	4	-1E+10	1	0.1825	4	0.000494	0	-1E+10	1	-1E+10	1	-1E+10	1
4902624	48	C	10/14/2025	22:40	-128.942	49.156	0	68.90	0	9.5702	0	32.3264	0	24.937	0	68.303	0	226.3	4	80.1	4	-1E+10	1	0.1731	4	0.000481	0	-1E+10	1	-1E+10	1	-1E+10	1
4902624	48	C	10/14/2025	22:40	-128.942	49.156	0	69.10	0	9.5570	0	32.3280	0	24.940	0	68.501	0	-1e10	1	-1e10	1	-1E+10	1	-1e10	1	-1e10	1	-1E+10	1	-1E+10	1	-1E+10	1
4902624	48	C	10/14/2025	22:40	-128.942	49.156	0	69.70	0	9.5324	0	32.3308	0	24.946	0	69.096	0	225.9	4	79.9	4	-1E+10	1	0.1664	4	0.000458	0	-1E+10	1	-1E+10	1	-1E+10	1
4902624	48	C	10/14/2025	22:40	-128.942	49.156	0	70.40	0	9.5036	0	32.3342	0	24.953	0	69.790	0	225.3	4	79.6	4	-1E+10	1	0.1728	4	0.000426	0	-1E+10	1	-1E+10	1	-1E+10	1
4902624	48	C	10/14/2025	22:40	-128.942	49.156	0	71.00	0	9.4790	0	32.3370	0	24.960	0	70.385	0	-1e10	1	-1e10	1	-1E+10	1	-1e10	1	-1e10	1	-1E+10	1	-1E+10	1	-1E+10	1
4902624	48	C	10/14/2025	22:40	-128.942	49.156	0	71.20	0	9.4741	0	32.3376	0	24.961	0	70.583	0	224.6	4	79.3	4	-1E+10	1	0.1533	4	0.000458	0	-1E+10	1	-1E+10	1	-1E+10	1
4902624	48	C	10/14/2025	22:40	-128.942	49.156	0	72.00	0	9.4543	0	32.3402	0	24.966	0	71.376	0	223.9	4	79.1	4	-1E+10	1	0.1314	4	0.000469	0	-1E+10	1	-1E+10	1	-1E+10	1
4902624	48	C	10/14/2025	22:40	-128.942	49.156	0	72.80	0	9.4345	0	32.3427	0	24.971	0	72.169	0	223.3	4	78.8	4	-1E+10	1	0.1379	4	0.000433	0	-1E+10	1	-1E+10	1	-1E+10	1
4902624	48	C	10/14/2025	22:40	-128.942	49.156	0	72.90	0	9.4320	0	32.3430	0	24.972	0	72.268	0	-1e10	1	-1e10	1	-1E+10	1	-1e10	1	-1e10	1	-1E+10	1	-1E+10	1	-1E+10	1
4902624	48	C	10/14/2025	22:40	-128.942	49.156	0	73.60	0	9.3923	0	32.3487	0	24.983	0	72.962	0	222.8	4	78.5	4	-1E+10	1	0.1438	4	0.000408	0	-1E+10	1	-1E+10	1	-1E+10	1
4902624	48	C	10/14/2025	22:40	-128.942	49.156	0	74.40	0	9.3470	0	32.3551	0	24.995	0	73.755	0	222.4	4	78.3	4	-1E+10	1	0.1414	4	0.000436	0	-1E+10	1	-1E+10	1	-1E+10	1
4902624	48	C	10/14/2025	22:40	-128.942	49.156	0	75.00	0	9.3130	0	32.3600	0	25.004	0	74.349	0	-1e10	1	-1e10	1	-1E+10	1	-1e10	1	-1e10	1	-1E+10	1	-1E+10	1	-1E+10	1
4902624	48	C	10/14/2025	22:40	-128.942	49.156	0	75.20	0	9.2966	0	32.3625	0	25.009	0	74.547	0	221.9	4	78.1	4	-1E+10	1	0.1350	4	0.000411	0	-1E+10	1	-1E+10	1	-1E+10	1
4902624	48	C	10/14/2025	22:40	-128.942	49.156	0	76.10	0	9.2229	0	32.3736	0	25.029	0	75.440	0	221.3	4	77.8	4	-1E+10	1	0.1208	4	0.000368	0	-1E+10	1	-1E+10	1	-1E+10	1
4902624	48	C	10/14/2025	22:40	-128.942	49.156	0	76.90	0	9.1574	0	32.3835	0	25.047	0	76.232	0	220.8	4	77.5	4	-1E+10	1	0.1038	4	0.000378	0	-1E+10	1	-1E+10	1	-1E+10	1
4902624	48	C	10/14/2025	22:40	-128.942	49.156	0	77.10	0	9.1410	0	32.3860	0	25.051	0	76.431	0	-1e10	1	-1e10	1	-1E+10	1	-1e10	1	-1e10	1	-1E+10	1	-1E+10	1	-1E+10	1
4902624	48	C	10/14/2025	22:40	-128.942	49.156	0	77.80	0	9.1067	0	32.3905	0	25.060	0	77.124	0	220.3	4	77.2	4	-1E+10	1	0.1153	4	0.000399	0	-1E+10	1	-1E+10	1	-1E+10	1
4902624	48	C	10/14/2025	22:40	-128.942	49.156	0	78.70	0	9.0626	0	32.3964	0	25.072	0	78.016	0	219.2	4	76.8	4	-1E+10	1	0.1022	4	0.000399	0	-1E+10	1	-1E+10	1	-1E+10	1
4902624	48	C	10/14/2025	22:40	-128.942	49.156	0	79.10	0	9.0430	0	32.3990	0	25.077	0	78.413	0	-1e10	1	-1e10	1	-1E+10	1	-1e10	1	-1e10	1	-1E+10	1	-1E+10	1	-1E+10	1
4902624	48	C	10/14/2025	22:40	-128.942	49.156	0	79.70	0	9.0386	0	32.3996	0	25.078	0	79.008	0	217.9	4	76.2	4	-1E+10	1	0.1022	4	0.000422	0	-1E+10	1	-1E+10	1	-1E+10	1
4902624	48	C	10/14/2025	22:40	-128.942	49.156	0	80.50	0	9.0327	0	32.4005	0	25.080	0	79.800	0	216.8	4	75.9	4	-1E+10	1	0.0827	4	0.000381	0	-1E+10	1	-1E+10	1	-1E+10	1
4902624	48	C	10/14/2025	22:40	-128.942	49.156	0	81.00	0	9.0290	0	32.4010	0	25.081	0	80.296	0	-1e10	1	-1e10	1	-1E+10	1	-1e10	1	-1e10	1	-1E+10	1	-1E+10	1	-1E+10	1
4902624	48	C	10/14/2025	22:40	-128.942	49.156	0	81.30	0	9.0170	0	32.4034	0	25.084	0	80.593	0	215.5	4	75.4	4	-1E+10	1	0.0849	4	0.000361	0	-1E+10	1	-1E+10	1	-1E+10	1
4902624	48	C	10/14/2025	22:40	-128.942	49.156	0	82.20	0	8.9810	0	32.4106	0	25.096	0	81.485	0	214.2	4	74.9	4	-1E+10	1	0.0913	4	0.000387	0	-1E+10	1	-1E+10	1	-1E+10	1
4902624	48	C	10/14/2025	22:40	-128.942	49.156	0	83.00	0	8.9490	0	32.4170	0	25.106	0	82.278	0	-1e10	1	-1e10	1	-1E+10	1	-1e10	1	-1e10	1	-1E+10	1	-1E+10	1	-1E+10	1
4902624	48	C	10/14/2025	22:40	-128.942	49.156	0	83.10	0	8.9442	0	32.4188	0	25.108	0	82.377	0	212.8	4	74.3	4	-1E+10	1	0.0917	4	0.000386	0	-1E+10	1	-1E+10	1	-1E+10	1
4902624	48	C	10/14/2025	22:40	-128.942	49.156	0	84.00	0	8.9010	0	32.4345	0	25.127	0	83.269	0	211.3	4	73.8	4	-1E+10	1	0.0796	4	0.000327	0	-1E+10	1	-1E+10	1	-1E+10	1
4902624	48	C	10/14/2025	22:40	-128.942	49.156	0	84.90	0	8.8578	0	32.4502	0	25.146	0	84.161	0	210.0	4	73.2	4	-1E+10	1	0.0697	4	0.000316	0	-1E+10	1	-1E+10	1	-1E+10	1
4902624	48	C	10/14/2025	22:40	-128.942	49.156	0	85.00	0	8.8530	0	32.4520	0	25.148	0	84.260	0	-1e10	1	-1e10	1	-1E+10	1	-1e10	1	-1e10	1	-1E+10	1	-1E+10	1	-1E+10	1
4902624	48	C	10/14/2025	22:40	-128.942	49.156	0	85.80	0	8.8342	0	32.4596	0	25.157	0	85.053	0	208.7	4	72.7	4	-1E+10	1	0.0876	4	0.000364	0	-1E+10	1	-1E+10	1	-1E+10	1
4902624	48	C	10/14/2025	22:40	-128.942	49.156	0	86.70	0	8.8130	0	32.4682	0	25.167	0	85.945	0	207.1	4	72.1	4	-1E+10	1	0.0949	4	0.000340	0	-1E+10	1	-1E+10	1	-1E+10	1
4902624	48	C	10/14/2025	22:40	-128.942	49.156	0	87.00	0	8.8060	0	32.4710	0	25.170	0	86.243	0	-1e10	1	-1e10	1	-1E+10	1	-1e10	1	-1e10	1	-1E+10	1	-1E+10	1	-1E+10	1
4902624	48	C	10/14/2025	22:40	-128.942	49.156	0	87.70	0	8.7797	0	32.4812	0	25.182	0	86.936	0	205.4	4	71.5	4	-1E+10	1	0.0706	4	0.000321	0	-1E+10	1	-1E+10	1	-1E+10	1
4902624	48	C	10/14/2025	22:40	-128.942	49.156	0	88.60	0	8.7460	0	32.4942	0	25.197	0	87.828	0	203.8	4	70.9	4	-1E+10	1	0.0750	4	0.000357	0	-1E+10	1	-1E+10	1	-1E+10	1
4902624	48	C	10/14/2025	22:40	-128.942	49.156	0	89.00	0	8.7310	0	32.5000	0	25.204	0	88.225	0	-1e10	1	-1e10	1	-1E+10	1	-1e10	1	-1e10	1	-1E+10	1	-1E+10	1	-1E+10	1
4902624	48	C	10/14/2025	22:40	-128.942	49.156	0	89.60	0	8.7070	0	32.5136	0	25.218	0	88.819	0	202.2	4	70.3	4	-1E+10	1	0.0759	4	0.000398	0	-1E+10	1	-1E+10	1	-1E+10	1
4902624	48	C	10/14/2025	22:40	-128.942	49.156	0	90.60	0	8.6670	0	32.5362	0	25.242	0	89.810	0	200.3	4	69.6	4	-1E+10	1	0.0730	4	0.000387	0	-1E+10	1	-1E+10	1	-1E+10	1
4902624	48	C	10/14/2025	22:40	-128.942	49.156	0	90.90	0	8.6550	0	32.5430	0	25.249	0	90.108	0	-1e10	1	-1e10	1	-1E+10	1	-1e10	1	-1e10	1	-1E+10	1	-1E+10	1	-1E+10	1
4902624	48	C	10/14/2025	22:40	-128.942	49.156	0	91.60	0	8.6448	0	32.5549	0	25.260	0	90.802	0	198.4	4	68.9	4	-1E+10	1	0.0672	4	0.000350	0	-1E+10	1	-1E+10	1	-1E+10	1
4902624	48	C	10/14/2025	22:40	-128.942	49.156	0	92.60	0	8.6304	0	32.5719	0	25.276	0	91.793	0	196.9	4	68.4	4	-1E+10	1	0.0616	4	0.000344	0	-1E+10	1	-1E+10	1	-1E+10	1
4902624	48	C	10/14/2025	22:40	-128.942	49.156	0	92.90	0	8.6260	0	32.5770	0	25.280	0	92.090	0	-1e10	1	-1e10	1	-1E+10	1	-1e10	1	-1e10	1	-1E+10	1	-1E+10	1	-1E+10	1
4902624	48	C	10/14/2025	22:40	-128.942	49.156	0	93.50	0	8.6063	0	32.5879	0	25.292	0	92.685	0	195.3	4	67.8	4	-1E+10	1	0.0633	4	0.000332	0	-1E+10	1	-1E+10	1	-1E+10	1
4902624	48	C	10/14/2025	22:40	-128.942	49.156	0	94.50	0	8.5734	0	32.6060	0	25.311	0	93.676	0	193.8	4	67.2	4	-1E+10	1	0.0633	4	0.000301	0	-1E+10	1	-1E+10	1	-1E+10	1
4902624	48	C	10/14/2025	22:40	-128.942	49.156	0	95.00	0	8.5570	0	32.6150	0	25.321	0	94.171	0	-1e10	1	-1e10	1	-1E+10	1	-1e10	1	-1e10	1	-1E+10	1	-1E+10	1	-1E+10	1
4902624	48	C	10/14/2025	22:40	-128.942	49.156	0	95.50	0	8.5350	0	32.6280	0	25.334	0	94.667	0	192.4	4	66.7	4	-1E+10	1	0.0876	4	0.000457	0	-1E+10	1	-1E+10	1	-1E+10	1
4902624	48	C	10/14/2025	22:40	-128.942	49.156	0	96.50	0	8.4910	0	32.6540	0	25.361	0	95.658	0	191.1	4	66.2	4	-1E+10	1	0.0584	4	0.000317	0	-1E+10	1	-1E+10	1	-1E+10	1
4902624	48	C	10/14/2025	22:40	-128.942	49.156	0	97.00	0	8.4690	0	32.6670	0	25.375	0	96.153	0	-1e10	1	-1e10	1	-1E+10	1	-1e10	1	-1e10	1	-1E+10	1	-1E+10	1	-1E+10	1
4902624	48	C	10/14/2025	22:40	-128.942	49.156	0	97.50	0	8.4435	0	32.6838	0	25.392	0	96.649	0	190.1	4	65.8	4	-1E+10	1	0.0523	4	0.000366	0	-1E+10	1	-1E+10	1	-1E+10	1
4902624	48	C	10/14/2025	22:40	-128.942	49.156	0	98.50	0	8.3925	0	32.7173	0	25.425	0	97.640	0	189.0	4	65.4	4	-1E+10	1	0.0511	4	0.000371	0	-1E+10	1	-1E+10	1	-1E+10	1
4902624	48	C	10/14/2025	22:40	-128.942	49.156	0	99.00	0	8.3670	0	32.7340	0	25.442	0	98.135	0	-1e10	1	-1e10	1	-1E+10	1	-1e10	1	-1e10	1	-1E+10	1	-1E+10	1	-1E+10	1
4902624	48	C	10/14/2025	22:40	-128.942	49.156	0	99.60	0	8.3409	0	32.7424	0	25.453	0	98.730	0	187.9	4	64.9	4	-1E+10	1	0.0511	4	0.000327	0	-1E+10	1	-1E+10	1	-1E+10	1
4902624	48	C	10/14/2025	22:40	-128.942	49.156	0	100.70	0	8.2930	0	32.7578	0	25.472	0	99.820	0	186.4	4	64.3	4	-1E+10	1	0.0578	4	0.000288	0	-1E+10	1	-1E+10	1	-1E+10	1
4902624	48	C	10/14/2025	22:40	-128.942	49.156	0	101.00	0	8.2800	0	32.7620	0	25.477	0	100.117	0	-1e10	1	-1e10	1	-1E+10	1	-1e10	1	-1e10	1	-1E+10	1	-1E+10	1	-1E+10	1
4902624	48	C	10/14/2025	22:40	-128.942	49.156	0	101.80	0	8.2547	0	32.7729	0	25.490	0	100.910	0	184.9	4	63.8	4	-1E+10	1	0.0608	4	0.000281	0	-1E+10	1	-1E+10	1	-1E+10	1
4902624	48	C	10/14/2025	22:40	-128.942	49.156	0	102.80	0	8.2232	0	32.7866	0	25.505	0	101.901	0	183.3	4	63.2	4	-1E+10	1	0.0548	4	0.000305	0	-1E+10	1	-1E+10	1	-1E+10	1
4902624	48	C	10/14/2025	22:40	-128.942	49.156	0	102.90	0	8.2200	0	32.7880	0	25.507	0	102.000	0	-1e10	1	-1e10	1	-1E+10	1	-1e10	1	-1e10	1	-1E+10	1	-1E+10	1	-1E+10	1
4902624	48	C	10/14/2025	22:40	-128.942	49.156	0	103.60	0	8.1957	0	32.8070	0	25.525	0	102.694	0	181.8	4	62.6	4	-1E+10	1	0.0657	4	0.000352	0	-1E+10	1	-1E+10	1	-1E+10	1
4902624	48	C	10/14/2025	22:40	-128.942	49.156	0	104.30	0	8.1713	0	32.8260	0	25.544	0	103.388	0	180.3	4	62.1	4	-1E+10	1	0.0657	4	0.000270	0	-1E+10	1	-1E+10	1	-1E+10	1
4902624	48	C	10/14/2025	22:40	-128.942	49.156	0	105.00	0	8.1470	0	32.8450	0	25.562	0	104.081	0	176.2	4	60.7	4	-1E+10	1	0.0657	4	0.000279	0	-1E+10	1	-1E+10	1	-1E+10	1
4902624	48	C	10/14/2025	22:40	-128.942	49.156	0	105.70	0	8.1153	0	32.8693	0	25.586	0	104.775	0	177.8	4	61.2	4	-1E+10	1	0.0448	4	0.000290	0	-1E+10	1	-1E+10	1	-1E+10	1
4902624	48	C	10/14/2025	22:40	-128.942	49.156	0	106.40	0	8.0837	0	32.8937	0	25.609	0	105.469	0	176.6	4	60.7	4	-1E+10	1	0.0548	4	0.000271	0	-1E+10	1	-1E+10	1	-1E+10	1
4902624	48	C	10/14/2025	22:40	-128.942	49.156	0	107.10	0	8.0520	0	32.9180	0	25.633	0	106.162	0	172.4	4	59.3	4	-1E+10	1	0.0584	4	0.000258	0	-1E+10	1	-1E+10	1	-1E+10	1
4902624	48	C	10/14/2025	22:40	-128.942	49.156	0	107.80	0	8.0314	0	32.9342	0	25.649	0	106.856	0	174.1	4	59.8	4	-1E+10	1	0.0538	4	0.000267	0	-1E+10	1	-1E+10	1	-1E+10	1
4902624	48	C	10/14/2025	22:40	-128.942	49.156	0	108.60	0	8.0078	0	32.9527	0	25.667	0	107.649	0	172.7	4	59.3	4	-1E+10	1	0.0557	4	0.000273	0	-1E+10	1	-1E+10	1	-1E+10	1
4902624	48	C	10/14/2025	22:40	-128.942	49.156	0	109.00	0	7.9960	0	32.9620	0	25.676	0	108.045	0	-1e10	1	-1e10	1	-1E+10	1	-1e10	1	-1e10	1	-1E+10	1	-1E+10	1	-1E+10	1
4902624	48	C	10/14/2025	22:40	-128.942	49.156	0	109.30	0	7.9928	0	32.9639	0	25.678	0	108.343	0	171.0	4	58.7	4	-1E+10	1	0.0495	4	0.000268	0	-1E+10	1	-1E+10	1	-1E+10	1
4902624	48	C	10/14/2025	22:40	-128.942	49.156	0	110.00	0	7.9855	0	32.9683	0	25.682	0	109.036	0	169.2	4	58.1	4	-1E+10	1	0.0438	4	0.000305	0	-1E+10	1	-1E+10	1	-1E+10	1
4902624	48	C	10/14/2025	22:40	-128.942	49.156	0	110.80	0	7.9771	0	32.9734	0	25.688	0	109.829	0	167.2	4	57.4	4	-1E+10	1	0.0584	4	0.000352	0	-1E+10	1	-1E+10	1	-1E+10	1
4902624	48	C	10/14/2025	22:40	-128.942	49.156	0	110.90	0	7.9760	0	32.9740	0	25.688	0	109.928	0	-1e10	1	-1e10	1	-1E+10	1	-1e10	1	-1e10	1	-1E+10	1	-1E+10	1	-1E+10	1
4902624	48	C	10/14/2025	22:40	-128.942	49.156	0	111.60	0	7.9523	0	32.9927	0	25.706	0	110.622	0	165.1	4	56.7	4	-1E+10	1	0.0519	4	0.000279	0	-1E+10	1	-1E+10	1	-1E+10	1
4902624	48	C	10/14/2025	22:40	-128.942	49.156	0	112.40	0	7.9253	0	33.0140	0	25.727	0	111.415	0	163.2	4	56.0	4	-1E+10	1	0.0511	4	0.000335	0	-1E+10	1	-1E+10	1	-1E+10	1
4902624	48	C	10/14/2025	22:40	-128.942	49.156	0	113.00	0	7.9050	0	33.0300	0	25.743	0	112.009	0	-1e10	1	-1e10	1	-1E+10	1	-1e10	1	-1e10	1	-1E+10	1	-1E+10	1	-1E+10	1
4902624	48	C	10/14/2025	22:40	-128.942	49.156	0	113.20	0	7.8963	0	33.0370	0	25.749	0	112.207	0	161.2	4	55.3	4	-1E+10	1	0.0552	4	0.000337	0	-1E+10	1	-1E+10	1	-1E+10	1
4902624	48	C	10/14/2025	22:40	-128.942	49.156	0	114.10	0	7.8572	0	33.0685	0	25.780	0	113.099	0	159.3	4	54.6	4	-1E+10	1	0.0474	4	0.000275	0	-1E+10	1	-1E+10	1	-1E+10	1
4902624	48	C	10/14/2025	22:40	-128.942	49.156	0	115.00	0	7.8180	0	33.1000	0	25.810	0	113.991	0	154.3	4	52.8	4	-1E+10	1	0.0445	4	0.000260	0	-1E+10	1	-1E+10	1	-1E+10	1
4902624	48	C	10/14/2025	22:40	-128.942	49.156	0	115.90	0	7.7991	0	33.1213	0	25.830	0	114.883	0	154.8	4	53.0	4	-1E+10	1	0.0535	4	0.000289	0	-1E+10	1	-1E+10	1	-1E+10	1
4902624	48	C	10/14/2025	22:40	-128.942	49.156	0	116.80	0	7.7801	0	33.1426	0	25.849	0	115.775	0	152.4	4	52.2	4	-1E+10	1	0.0392	4	0.000245	0	-1E+10	1	-1E+10	1	-1E+10	1
4902624	48	C	10/14/2025	22:40	-128.942	49.156	0	116.90	0	7.7780	0	33.1450	0	25.851	0	115.874	0	-1e10	1	-1e10	1	-1E+10	1	-1e10	1	-1e10	1	-1E+10	1	-1E+10	1	-1E+10	1
4902624	48	C	10/14/2025	22:40	-128.942	49.156	0	117.70	0	7.7738	0	33.1515	0	25.857	0	116.667	0	150.2	4	51.4	4	-1E+10	1	0.0511	4	0.000293	0	-1E+10	1	-1E+10	1	-1E+10	1
4902624	48	C	10/14/2025	22:40	-128.942	49.156	0	118.60	0	7.7691	0	33.1588	0	25.863	0	117.559	0	147.7	4	50.5	4	-1E+10	1	0.0630	4	0.000274	0	-1E+10	1	-1E+10	1	-1E+10	1
4902624	48	C	10/14/2025	22:40	-128.942	49.156	0	119.00	0	7.7670	0	33.1620	0	25.866	0	117.955	0	-1e10	1	-1e10	1	-1E+10	1	-1e10	1	-1e10	1	-1E+10	1	-1E+10	1	-1E+10	1
4902624	48	C	10/14/2025	22:40	-128.942	49.156	0	119.60	0	7.7630	0	33.1697	0	25.873	0	118.549	0	144.8	4	49.5	4	-1E+10	1	0.0482	4	0.000279	0	-1E+10	1	-1E+10	1	-1E+10	1
4902624	48	C	10/14/2025	22:40	-128.942	49.156	0	120.50	0	7.7570	0	33.1813	0	25.883	0	119.441	0	141.8	4	48.5	4	-1E+10	1	0.0438	4	0.000289	0	-1E+10	1	-1E+10	1	-1E+10	1
4902624	48	C	10/14/2025	22:40	-128.942	49.156	0	121.10	0	7.7530	0	33.1890	0	25.889	0	120.036	0	-1e10	1	-1e10	1	-1E+10	1	-1e10	1	-1e10	1	-1E+10	1	-1E+10	1	-1E+10	1
4902624	48	C	10/14/2025	22:40	-128.942	49.156	0	121.40	0	7.7611	0	33.2034	0	25.900	0	120.333	0	138.9	4	47.5	4	-1E+10	1	0.0438	4	0.000299	0	-1E+10	1	-1E+10	1	-1E+10	1
4902624	48	C	10/14/2025	22:40	-128.942	49.156	0	122.40	0	7.7879	0	33.2513	0	25.933	0	121.324	0	136.4	4	46.7	4	-1E+10	1	0.0380	4	0.000291	0	-1E+10	1	-1E+10	1	-1E+10	1
4902624	48	C	10/14/2025	22:40	-128.942	49.156	0	123.00	0	7.8040	0	33.2800	0	25.954	0	121.919	0	-1e10	1	-1e10	1	-1E+10	1	-1e10	1	-1e10	1	-1E+10	1	-1E+10	1	-1E+10	1
4902624	48	C	10/14/2025	22:40	-128.942	49.156	0	123.40	0	7.8048	0	33.2944	0	25.965	0	122.315	0	134.6	4	46.1	4	-1E+10	1	0.0316	4	0.000271	0	-1E+10	1	-1E+10	1	-1E+10	1
4902624	48	C	10/14/2025	22:40	-128.942	49.156	0	124.40	0	7.8068	0	33.3304	0	25.993	0	123.306	0	133.2	4	45.7	4	-1E+10	1	0.0376	4	0.000271	0	-1E+10	1	-1E+10	1	-1E+10	1
4902624	48	C	10/14/2025	22:40	-128.942	49.156	0	125.00	0	7.8080	0	33.3520	0	26.010	0	123.900	0	-1e10	1	-1e10	1	-1E+10	1	-1e10	1	-1e10	1	-1E+10	1	-1E+10	1	-1E+10	1
4902624	48	C	10/14/2025	22:40	-128.942	49.156	0	125.50	0	7.7933	0	33.3635	0	26.021	0	124.396	0	131.9	4	45.2	4	-1E+10	1	0.0438	4	0.000281	0	-1E+10	1	-1E+10	1	-1E+10	1
4902624	48	C	10/14/2025	22:40	-128.942	49.156	0	126.50	0	7.7638	0	33.3865	0	26.043	0	125.387	0	130.7	4	44.8	4	-1E+10	1	0.0438	4	0.000363	0	-1E+10	1	-1E+10	1	-1E+10	1
4902624	48	C	10/14/2025	22:40	-128.942	49.156	0	127.00	0	7.7490	0	33.3980	0	26.054	0	125.882	0	-1e10	1	-1e10	1	-1E+10	1	-1e10	1	-1e10	1	-1E+10	1	-1E+10	1	-1E+10	1
4902624	48	C	10/14/2025	22:40	-128.942	49.156	0	127.60	0	7.7451	0	33.3998	0	26.056	0	126.477	0	129.4	4	44.3	4	-1E+10	1	0.0438	4	0.000343	0	-1E+10	1	-1E+10	1	-1E+10	1
4902624	48	C	10/14/2025	22:40	-128.942	49.156	0	128.60	0	7.7386	0	33.4028	0	26.060	0	127.468	0	127.9	4	43.8	4	-1E+10	1	0.0487	4	0.000310	0	-1E+10	1	-1E+10	1	-1E+10	1
4902624	48	C	10/14/2025	22:40	-128.942	49.156	0	129.00	0	7.7360	0	33.4040	0	26.061	0	127.864	0	-1e10	1	-1e10	1	-1E+10	1	-1e10	1	-1e10	1	-1E+10	1	-1E+10	1	-1E+10	1
4902624	48	C	10/14/2025	22:40	-128.942	49.156	0	129.60	0	7.7264	0	33.4139	0	26.070	0	128.459	0	126.1	4	43.2	4	-1E+10	1	0.0423	4	0.000287	0	-1E+10	1	-1E+10	1	-1E+10	1
4902624	48	C	10/14/2025	22:40	-128.942	49.156	0	130.70	0	7.7088	0	33.4320	0	26.087	0	129.548	0	124.2	4	42.5	4	-1E+10	1	0.0365	4	0.000294	0	-1E+10	1	-1E+10	1	-1E+10	1
4902624	48	C	10/14/2025	22:40	-128.942	49.156	0	131.00	0	7.7040	0	33.4370	0	26.091	0	129.846	0	-1e10	1	-1e10	1	-1E+10	1	-1e10	1	-1e10	1	-1E+10	1	-1E+10	1	-1E+10	1
4902624	48	C	10/14/2025	22:40	-128.942	49.156	0	131.80	0	7.6888	0	33.4566	0	26.109	0	130.638	0	122.5	4	41.9	4	-1E+10	1	0.0417	4	0.000355	0	-1E+10	1	-1E+10	1	-1E+10	1
4902624	48	C	10/14/2025	22:40	-128.942	49.156	0	132.90	0	7.6679	0	33.4836	0	26.133	0	131.728	0	121.0	4	41.4	4	-1E+10	1	0.0511	4	0.000426	0	-1E+10	1	-1E+10	1	-1E+10	1
4902624	48	C	10/14/2025	22:40	-128.942	49.156	0	133.00	0	7.6660	0	33.4860	0	26.135	0	131.827	0	-1e10	1	-1e10	1	-1E+10	1	-1e10	1	-1e10	1	-1E+10	1	-1E+10	1	-1E+10	1
4902624	48	C	10/14/2025	22:40	-128.942	49.156	0	134.00	0	7.6580	0	33.5015	0	26.149	0	132.818	0	119.5	4	40.9	4	-1E+10	1	0.0501	4	0.000345	0	-1E+10	1	-1E+10	1	-1E+10	1
4902624	48	C	10/14/2025	22:40	-128.942	49.156	0	135.00	0	7.6500	0	33.5170	0	26.162	0	133.809	0	-1e10	1	-1e10	1	-1E+10	1	-1e10	1	-1e10	1	-1E+10	1	-1E+10	1	-1E+10	1
4902624	48	C	10/14/2025	22:40	-128.942	49.156	0	135.20	0	7.6485	0	33.5186	0	26.164	0	134.007	0	118.2	4	40.4	4	-1E+10	1	0.0438	4	0.000375	0	-1E+10	1	-1E+10	1	-1E+10	1
4902624	48	C	10/14/2025	22:40	-128.942	49.156	0	136.40	0	7.6397	0	33.5281	0	26.172	0	135.196	0	116.7	4	39.9	4	-1E+10	1	0.0563	4	0.000345	0	-1E+10	1	-1E+10	1	-1E+10	1
4902624	48	C	10/14/2025	22:40	-128.942	49.156	0	136.90	0	7.6360	0	33.5320	0	26.176	0	135.692	0	-1e10	1	-1e10	1	-1E+10	1	-1e10	1	-1e10	1	-1E+10	1	-1E+10	1	-1E+10	1
4902624	48	C	10/14/2025	22:40	-128.942	49.156	0	137.50	0	7.6323	0	33.5380	0	26.181	0	136.286	0	115.2	4	39.4	4	-1E+10	1	0.0529	4	0.000313	0	-1E+10	1	-1E+10	1	-1E+10	1
4902624	48	C	10/14/2025	22:40	-128.942	49.156	0	138.70	0	7.6249	0	33.5500	0	26.192	0	137.475	0	113.9	4	38.9	4	-1E+10	1	0.0511	4	0.000327	0	-1E+10	1	-1E+10	1	-1E+10	1
4902624	48	C	10/14/2025	22:40	-128.942	49.156	0	139.00	0	7.6230	0	33.5530	0	26.194	0	137.773	0	-1e10	1	-1e10	1	-1E+10	1	-1e10	1	-1e10	1	-1E+10	1	-1E+10	1	-1E+10	1
4902624	48	C	10/14/2025	22:40	-128.942	49.156	0	139.90	0	7.6172	0	33.5670	0	26.206	0	138.664	0	112.6	4	38.5	4	-1E+10	1	0.0511	4	0.000351	0	-1E+10	1	-1E+10	1	-1E+10	1
4902624	48	C	10/14/2025	22:40	-128.942	49.156	0	141.00	0	7.6100	0	33.5840	0	26.221	0	139.754	0	-1e10	1	-1e10	1	-1E+10	1	-1e10	1	-1e10	1	-1E+10	1	-1E+10	1	-1E+10	1
4902624	48	C	10/14/2025	22:40	-128.942	49.156	0	141.10	0	7.6090	0	33.5853	0	26.222	0	139.853	0	111.3	4	38.0	4	-1E+10	1	0.0481	4	0.000349	0	-1E+10	1	-1E+10	1	-1E+10	1
4902624	48	C	10/14/2025	22:40	-128.942	49.156	0	142.30	0	7.5970	0	33.6004	0	26.235	0	141.042	0	109.8	4	37.6	4	-1E+10	1	0.0414	4	0.000340	0	-1E+10	1	-1E+10	1	-1E+10	1
4902624	48	C	10/14/2025	22:40	-128.942	49.156	0	142.90	0	7.5910	0	33.6080	0	26.242	0	141.637	0	-1e10	1	-1e10	1	-1E+10	1	-1e10	1	-1e10	1	-1E+10	1	-1E+10	1	-1E+10	1
4902624	48	C	10/14/2025	22:40	-128.942	49.156	0	143.50	0	7.5844	0	33.6164	0	26.250	0	142.231	0	108.7	4	37.1	4	-1E+10	1	0.0365	4	0.000359	0	-1E+10	1	-1E+10	1	-1E+10	1
4902624	48	C	10/14/2025	22:40	-128.942	49.156	0	144.80	0	7.5701	0	33.6346	0	26.266	0	143.519	0	107.6	4	36.8	4	-1E+10	1	0.0365	4	0.000328	0	-1E+10	1	-1E+10	1	-1E+10	1
4902624	48	C	10/14/2025	22:40	-128.942	49.156	0	144.90	0	7.5690	0	33.6360	0	26.267	0	143.618	0	-1e10	1	-1e10	1	-1E+10	1	-1e10	1	-1e10	1	-1E+10	1	-1E+10	1	-1E+10	1
4902624	48	C	10/14/2025	22:40	-128.942	49.156	0	146.10	0	7.5588	0	33.6474	0	26.278	0	144.807	0	106.7	4	36.5	4	-1E+10	1	0.0511	4	0.000410	0	-1E+10	1	-1E+10	1	-1E+10	1
4902624	48	C	10/14/2025	22:40	-128.942	49.156	0	146.90	0	7.5520	0	33.6550	0	26.285	0	145.600	0	-1e10	1	-1e10	1	-1E+10	1	-1e10	1	-1e10	1	-1E+10	1	-1E+10	1	-1E+10	1
4902624	48	C	10/14/2025	22:40	-128.942	49.156	0	147.30	0	7.5499	0	33.6579	0	26.287	0	145.996	0	105.9	4	36.2	4	-1E+10	1	0.0574	4	0.000360	0	-1E+10	1	-1E+10	1	-1E+10	1
4902624	48	C	10/14/2025	22:40	-128.942	49.156	0	148.50	0	7.5436	0	33.6664	0	26.295	0	147.185	0	105.0	4	35.9	4	-1E+10	1	0.0487	4	0.000352	0	-1E+10	1	-1E+10	1	-1E+10	1
4902624	48	C	10/14/2025	22:40	-128.942	49.156	0	149.00	0	7.5410	0	33.6700	0	26.298	0	147.681	0	-1e10	1	-1e10	1	-1E+10	1	-1e10	1	-1e10	1	-1E+10	1	-1E+10	1	-1E+10	1
4902624	48	C	10/14/2025	22:40	-128.942	49.156	0	149.70	0	7.5336	0	33.6785	0	26.306	0	148.374	0	104.2	4	35.6	4	-1E+10	1	0.0392	4	0.000419	0	-1E+10	1	-1E+10	1	-1E+10	1
4902624	48	C	10/14/2025	22:40	-128.942	49.156	0	150.70	0	7.5231	0	33.6906	0	26.317	0	149.365	0	103.6	4	35.4	4	-1E+10	1	0.0402	4	0.000410	0	-1E+10	1	-1E+10	1	-1E+10	1
4902624	48	C	10/14/2025	22:40	-128.942	49.156	0	150.90	0	7.5210	0	33.6930	0	26.319	0	149.563	0	-1e10	1	-1e10	1	-1E+10	1	-1e10	1	-1e10	1	-1E+10	1	-1E+10	1	-1E+10	1
4902624	48	C	10/14/2025	22:40	-128.942	49.156	0	151.60	0	7.5187	0	33.6950	0	26.321	0	150.257	0	103.1	4	35.2	4	-1E+10	1	0.0462	4	0.000394	0	-1E+10	1	-1E+10	1	-1E+10	1
4902624	48	C	10/14/2025	22:40	-128.942	49.156	0	152.40	0	7.5160	0	33.6973	0	26.323	0	151.049	0	102.6	4	35.0	4	-1E+10	1	0.0493	4	0.000428	0	-1E+10	1	-1E+10	1	-1E+10	1
4902624	48	C	10/14/2025	22:40	-128.942	49.156	0	153.00	0	7.5140	0	33.6990	0	26.325	0	151.644	0	-1e10	1	-1e10	1	-1E+10	1	-1e10	1	-1e10	1	-1E+10	1	-1E+10	1	-1E+10	1
4902624	48	C	10/14/2025	22:40	-128.942	49.156	0	153.20	0	7.5136	0	33.6995	0	26.325	0	151.842	0	102.0	4	34.8	4	-1E+10	1	0.0423	4	0.000357	0	-1E+10	1	-1E+10	1	-1E+10	1
4902624	48	C	10/14/2025	22:40	-128.942	49.156	0	154.00	0	7.5120	0	33.7015	0	26.327	0	152.635	0	101.3	4	34.6	4	-1E+10	1	0.0365	4	0.000422	0	-1E+10	1	-1E+10	1	-1E+10	1
4902624	48	C	10/14/2025	22:40	-128.942	49.156	0	154.80	0	7.5104	0	33.7035	0	26.329	0	153.427	0	100.7	4	34.4	4	-1E+10	1	0.0495	4	0.000453	0	-1E+10	1	-1E+10	1	-1E+10	1
4902624	48	C	10/14/2025	22:40	-128.942	49.156	0	155.00	0	7.5100	0	33.7040	0	26.329	0	153.625	0	-1e10	1	-1e10	1	-1E+10	1	-1e10	1	-1e10	1	-1E+10	1	-1E+10	1	-1E+10	1
4902624	48	C	10/14/2025	22:40	-128.942	49.156	0	155.60	0	7.5046	0	33.7109	0	26.335	0	154.220	0	100.2	4	34.2	4	-1E+10	1	0.0511	4	0.000436	0	-1E+10	1	-1E+10	1	-1E+10	1
4902624	48	C	10/14/2025	22:40	-128.942	49.156	0	156.40	0	7.4974	0	33.7201	0	26.344	0	155.012	0	99.7	4	34.0	4	-1E+10	1	0.0562	4	0.000401	0	-1E+10	1	-1E+10	1	-1E+10	1
4902624	48	C	10/14/2025	22:40	-128.942	49.156	0	157.00	0	7.4920	0	33.7270	0	26.350	0	155.607	0	-1e10	1	-1e10	1	-1E+10	1	-1e10	1	-1e10	1	-1E+10	1	-1E+10	1	-1E+10	1
4902624	48	C	10/14/2025	22:40	-128.942	49.156	0	157.20	0	7.4904	0	33.7287	0	26.352	0	155.805	0	99.2	4	33.9	4	-1E+10	1	0.0538	4	0.000401	0	-1E+10	1	-1E+10	1	-1E+10	1
4902624	48	C	10/14/2025	22:40	-128.942	49.156	0	158.00	0	7.4839	0	33.7356	0	26.358	0	156.598	0	98.8	4	33.7	4	-1E+10	1	0.0465	4	0.000395	0	-1E+10	1	-1E+10	1	-1E+10	1
4902624	48	C	10/14/2025	22:40	-128.942	49.156	0	158.70	0	7.4782	0	33.7416	0	26.363	0	157.291	0	98.5	4	33.6	4	-1E+10	1	0.0503	4	0.000387	0	-1E+10	1	-1E+10	1	-1E+10	1
4902624	48	C	10/14/2025	22:40	-128.942	49.156	0	159.10	0	7.4750	0	33.7450	0	26.367	0	157.687	0	-1e10	1	-1e10	1	-1E+10	1	-1e10	1	-1e10	1	-1E+10	1	-1E+10	1	-1E+10	1
4902624	48	C	10/14/2025	22:40	-128.942	49.156	0	159.50	0	7.4733	0	33.7471	0	26.368	0	158.084	0	98.1	4	33.5	4	-1E+10	1	0.0518	4	0.000383	0	-1E+10	1	-1E+10	1	-1E+10	1
4902624	48	C	10/14/2025	22:40	-128.942	49.156	0	160.30	0	7.4699	0	33.7513	0	26.372	0	158.876	0	97.8	4	33.4	4	-1E+10	1	0.0417	4	0.000381	0	-1E+10	1	-1E+10	1	-1E+10	1
4902624	48	C	10/14/2025	22:40	-128.942	49.156	0	161.00	0	7.4670	0	33.7550	0	26.376	0	159.570	0	-1e10	1	-1e10	1	-1E+10	1	-1e10	1	-1e10	1	-1E+10	1	-1E+10	1	-1E+10	1
4902624	48	C	10/14/2025	22:40	-128.942	49.156	0	161.10	0	7.4665	0	33.7555	0	26.376	0	159.669	0	97.4	4	33.3	4	-1E+10	1	0.0672	4	0.000412	0	-1E+10	1	-1E+10	1	-1E+10	1
4902624	48	C	10/14/2025	22:40	-128.942	49.156	0	161.90	0	7.4623	0	33.7593	0	26.380	0	160.461	0	97.2	4	33.2	4	-1E+10	1	0.0438	4	0.000375	0	-1E+10	1	-1E+10	1	-1E+10	1
4902624	48	C	10/14/2025	22:40	-128.942	49.156	0	162.80	0	7.4575	0	33.7635	0	26.384	0	161.353	0	96.8	4	33.0	4	-1E+10	1	0.0584	4	0.000363	0	-1E+10	1	-1E+10	1	-1E+10	1
4902624	48	C	10/14/2025	22:40	-128.942	49.156	0	162.90	0	7.4570	0	33.7640	0	26.384	0	161.452	0	-1e10	1	-1e10	1	-1E+10	1	-1e10	1	-1e10	1	-1E+10	1	-1E+10	1	-1E+10	1
4902624	48	C	10/14/2025	22:40	-128.942	49.156	0	163.60	0	7.4523	0	33.7670	0	26.387	0	162.146	0	96.4	4	32.9	4	-1E+10	1	0.0511	4	0.000398	0	-1E+10	1	-1E+10	1	-1E+10	1
4902624	48	C	10/14/2025	22:40	-128.942	49.156	0	164.30	0	7.4477	0	33.7700	0	26.390	0	162.839	0	96.1	4	32.8	4	-1E+10	1	0.0511	4	0.000423	0	-1E+10	1	-1E+10	1	-1E+10	1
4902624	48	C	10/14/2025	22:40	-128.942	49.156	0	165.00	0	7.4430	0	33.7730	0	26.393	0	163.533	0	93.5	4	31.9	4	-1E+10	1	0.0446	4	0.000423	0	-1E+10	1	-1E+10	1	-1E+10	1
4902624	48	C	10/14/2025	22:40	-128.942	49.156	0	165.90	0	7.4390	0	33.7761	0	26.396	0	164.424	0	95.2	4	32.5	4	-1E+10	1	0.0438	4	0.000416	0	-1E+10	1	-1E+10	1	-1E+10	1
4902624	48	C	10/14/2025	22:40	-128.942	49.156	0	166.70	0	7.4353	0	33.7789	0	26.399	0	165.217	0	94.6	4	32.3	4	-1E+10	1	0.0453	4	0.000422	0	-1E+10	1	-1E+10	1	-1E+10	1
4902624	48	C	10/14/2025	22:40	-128.942	49.156	0	167.00	0	7.4340	0	33.7800	0	26.400	0	165.514	0	-1e10	1	-1e10	1	-1E+10	1	-1e10	1	-1e10	1	-1E+10	1	-1E+10	1	-1E+10	1
4902624	48	C	10/14/2025	22:40	-128.942	49.156	0	167.50	0	7.4307	0	33.7824	0	26.402	0	166.009	0	94.1	4	32.1	4	-1E+10	1	0.0394	4	0.000419	0	-1E+10	1	-1E+10	1	-1E+10	1
4902624	48	C	10/14/2025	22:40	-128.942	49.156	0	168.30	0	7.4253	0	33.7862	0	26.406	0	166.802	0	93.7	4	31.9	4	-1E+10	1	0.0511	4	0.000410	0	-1E+10	1	-1E+10	1	-1E+10	1
4902624	48	C	10/14/2025	22:40	-128.942	49.156	0	169.10	0	7.4200	0	33.7900	0	26.410	0	167.595	0	91.1	4	31.1	4	-1E+10	1	0.0511	4	0.000411	0	-1E+10	1	-1E+10	1	-1E+10	1
4902624	48	C	10/14/2025	22:40	-128.942	49.156	0	169.90	0	7.4136	0	33.7928	0	26.413	0	168.387	0	92.6	4	31.6	4	-1E+10	1	0.0576	4	0.000483	0	-1E+10	1	-1E+10	1	-1E+10	1
4902624	48	C	10/14/2025	22:40	-128.942	49.156	0	170.70	0	7.4072	0	33.7956	0	26.416	0	169.180	0	91.9	4	31.3	4	-1E+10	1	0.0482	4	0.000451	0	-1E+10	1	-1E+10	1	-1E+10	1
4902624	48	C	10/14/2025	22:40	-128.942	49.156	0	171.10	0	7.4040	0	33.7970	0	26.418	0	169.576	0	-1e10	1	-1e10	1	-1E+10	1	-1e10	1	-1e10	1	-1E+10	1	-1E+10	1	-1E+10	1
4902624	48	C	10/14/2025	22:40	-128.942	49.156	0	171.50	0	7.3952	0	33.7999	0	26.421	0	169.972	0	91.3	4	31.1	4	-1E+10	1	0.0529	4	0.002083	0	-1E+10	1	-1E+10	1	-1E+10	1
4902624	48	C	10/14/2025	22:40	-128.942	49.156	0	172.30	0	7.3775	0	33.8058	0	26.428	0	170.765	0	90.7	4	30.9	4	-1E+10	1	0.0543	4	0.001626	0	-1E+10	1	-1E+10	1	-1E+10	1
4902624	48	C	10/14/2025	22:40	-128.942	49.156	0	173.00	0	7.3620	0	33.8110	0	26.435	0	171.458	0	-1e10	1	-1e10	1	-1E+10	1	-1e10	1	-1e10	1	-1E+10	1	-1E+10	1	-1E+10	1
4902624	48	C	10/14/2025	22:40	-128.942	49.156	0	173.10	0	7.3605	0	33.8116	0	26.435	0	171.557	0	89.9	4	30.6	4	-1E+10	1	0.0569	4	0.000450	0	-1E+10	1	-1E+10	1	-1E+10	1
4902624	48	C	10/14/2025	22:40	-128.942	49.156	0	173.90	0	7.3487	0	33.8162	0	26.440	0	172.350	0	89.1	4	30.3	4	-1E+10	1	0.0641	4	0.000419	0	-1E+10	1	-1E+10	1	-1E+10	1
4902624	48	C	10/14/2025	22:40	-128.942	49.156	0	174.70	0	7.3369	0	33.8208	0	26.446	0	173.142	0	88.5	4	30.1	4	-1E+10	1	0.0577	4	0.000412	0	-1E+10	1	-1E+10	1	-1E+10	1
4902624	48	C	10/14/2025	22:40	-128.942	49.156	0	174.90	0	7.3340	0	33.8220	0	26.447	0	173.341	0	-1e10	1	-1e10	1	-1E+10	1	-1e10	1	-1e10	1	-1E+10	1	-1E+10	1	-1E+10	1
4902624	48	C	10/14/2025	22:40	-128.942	49.156	0	175.60	0	7.3240	0	33.8260	0	26.452	0	174.034	0	88.1	4	30.0	4	-1E+10	1	0.0511	4	0.000433	0	-1E+10	1	-1E+10	1	-1E+10	1
4902624	48	C	10/14/2025	22:40	-128.942	49.156	0	176.40	0	7.3126	0	33.8306	0	26.457	0	174.827	0	87.7	4	29.8	4	-1E+10	1	0.0453	4	0.000443	0	-1E+10	1	-1E+10	1	-1E+10	1
4902624	48	C	10/14/2025	22:40	-128.942	49.156	0	177.00	0	7.3040	0	33.8340	0	26.461	0	175.421	0	-1e10	1	-1e10	1	-1E+10	1	-1e10	1	-1e10	1	-1E+10	1	-1E+10	1	-1E+10	1
4902624	48	C	10/14/2025	22:40	-128.942	49.156	0	177.30	0	7.2986	0	33.8364	0	26.463	0	175.718	0	87.3	4	29.7	4	-1E+10	1	0.0438	4	0.000445	0	-1E+10	1	-1E+10	1	-1E+10	1
4902624	48	C	10/14/2025	22:40	-128.942	49.156	0	178.10	0	7.2842	0	33.8428	0	26.470	0	176.511	0	87.1	4	29.6	4	-1E+10	1	0.0484	4	0.000430	0	-1E+10	1	-1E+10	1	-1E+10	1
4902624	48	C	10/14/2025	22:40	-128.942	49.156	0	179.00	0	7.2680	0	33.8500	0	26.478	0	177.402	0	85.0	4	28.9	4	-1E+10	1	0.0445	4	0.000427	0	-1E+10	1	-1E+10	1	-1E+10	1
4902624	48	C	10/14/2025	22:40	-128.942	49.156	0	179.90	0	7.2554	0	33.8554	0	26.484	0	178.294	0	87.1	4	29.6	4	-1E+10	1	0.0341	4	0.000433	0	-1E+10	1	-1E+10	1	-1E+10	1
4902624	48	C	10/14/2025	22:40	-128.942	49.156	0	180.90	0	7.2414	0	33.8614	0	26.491	0	179.284	0	87.2	4	29.6	4	-1E+10	1	0.0451	4	0.000438	0	-1E+10	1	-1E+10	1	-1E+10	1
4902624	48	C	10/14/2025	22:40	-128.942	49.156	0	181.00	0	7.2400	0	33.8620	0	26.492	0	179.383	0	-1e10	1	-1e10	1	-1E+10	1	-1e10	1	-1e10	1	-1E+10	1	-1E+10	1	-1E+10	1
4902624	48	C	10/14/2025	22:40	-128.942	49.156	0	181.80	0	7.2244	0	33.8648	0	26.496	0	180.176	0	87.2	4	29.6	4	-1E+10	1	0.0690	4	0.000443	0	-1E+10	1	-1E+10	1	-1E+10	1
4902624	48	C	10/14/2025	22:40	-128.942	49.156	0	182.70	0	7.2069	0	33.8680	0	26.501	0	181.068	0	87.2	4	29.6	4	-1E+10	1	0.0511	4	0.000433	0	-1E+10	1	-1E+10	1	-1E+10	1
4902624	48	C	10/14/2025	22:40	-128.942	49.156	0	183.00	0	7.2010	0	33.8690	0	26.503	0	181.365	0	-1e10	1	-1e10	1	-1E+10	1	-1e10	1	-1e10	1	-1E+10	1	-1E+10	1	-1E+10	1
4902624	48	C	10/14/2025	22:40	-128.942	49.156	0	183.60	0	7.1962	0	33.8696	0	26.504	0	181.959	0	87.2	4	29.6	4	-1E+10	1	0.0511	4	0.000375	0	-1E+10	1	-1E+10	1	-1E+10	1
4902624	48	C	10/14/2025	22:40	-128.942	49.156	0	184.60	0	7.1882	0	33.8706	0	26.506	0	182.950	0	87.1	4	29.6	4	-1E+10	1	0.0633	4	0.000404	0	-1E+10	1	-1E+10	1	-1E+10	1
4902624	48	C	10/14/2025	22:40	-128.942	49.156	0	185.00	0	7.1850	0	33.8710	0	26.507	0	183.346	0	-1e10	1	-1e10	1	-1E+10	1	-1e10	1	-1e10	1	-1E+10	1	-1E+10	1	-1E+10	1
4902624	48	C	10/14/2025	22:40	-128.942	49.156	0	185.50	0	7.1832	0	33.8715	0	26.507	0	183.841	0	86.9	4	29.5	4	-1E+10	1	0.0518	4	0.000410	0	-1E+10	1	-1E+10	1	-1E+10	1
4902624	48	C	10/14/2025	22:40	-128.942	49.156	0	186.50	0	7.1797	0	33.8725	0	26.508	0	184.832	0	86.8	4	29.4	4	-1E+10	1	0.0482	4	0.000410	0	-1E+10	1	-1E+10	1	-1E+10	1
4902624	48	C	10/14/2025	22:40	-128.942	49.156	0	187.00	0	7.1780	0	33.8730	0	26.509	0	185.327	0	-1e10	1	-1e10	1	-1E+10	1	-1e10	1	-1e10	1	-1E+10	1	-1E+10	1	-1E+10	1
4902624	48	C	10/14/2025	22:40	-128.942	49.156	0	187.40	0	7.1753	0	33.8732	0	26.510	0	185.723	0	86.5	4	29.4	4	-1E+10	1	0.0511	4	0.000410	0	-1E+10	1	-1E+10	1	-1E+10	1
4902624	48	C	10/14/2025	22:40	-128.942	49.156	0	188.40	0	7.1687	0	33.8737	0	26.511	0	186.714	0	86.3	4	29.3	4	-1E+10	1	0.0484	4	0.000423	0	-1E+10	1	-1E+10	1	-1E+10	1
4902624	48	C	10/14/2025	22:40	-128.942	49.156	0	189.10	0	7.1640	0	33.8740	0	26.512	0	187.407	0	-1e10	1	-1e10	1	-1E+10	1	-1e10	1	-1e10	1	-1E+10	1	-1E+10	1	-1E+10	1
4902624	48	C	10/14/2025	22:40	-128.942	49.156	0	189.30	0	7.1622	0	33.8745	0	26.513	0	187.606	0	86.0	4	29.2	4	-1E+10	1	0.0423	4	0.000447	0	-1E+10	1	-1E+10	1	-1E+10	1
4902624	48	C	10/14/2025	22:40	-128.942	49.156	0	190.30	0	7.1532	0	33.8770	0	26.516	0	188.596	0	85.8	4	29.1	4	-1E+10	1	0.0389	4	0.000464	0	-1E+10	1	-1E+10	1	-1E+10	1
4902624	48	C	10/14/2025	22:40	-128.942	49.156	0	191.10	0	7.1460	0	33.8790	0	26.518	0	189.389	0	-1e10	1	-1e10	1	-1E+10	1	-1e10	1	-1e10	1	-1E+10	1	-1E+10	1	-1E+10	1
4902624	48	C	10/14/2025	22:40	-128.942	49.156	0	191.30	0	7.1454	0	33.8792	0	26.519	0	189.587	0	85.6	4	29.0	4	-1E+10	1	0.0511	4	0.000504	0	-1E+10	1	-1E+10	1	-1E+10	1
4902624	48	C	10/14/2025	22:40	-128.942	49.156	0	192.30	0	7.1427	0	33.8803	0	26.520	0	190.577	0	85.4	4	29.0	4	-1E+10	1	0.0572	4	0.000445	0	-1E+10	1	-1E+10	1	-1E+10	1
4902624	48	C	10/14/2025	22:40	-128.942	49.156	0	192.90	0	7.1410	0	33.8810	0	26.521	0	191.172	0	-1e10	1	-1e10	1	-1E+10	1	-1e10	1	-1e10	1	-1E+10	1	-1E+10	1	-1E+10	1
4902624	48	C	10/14/2025	22:40	-128.942	49.156	0	193.20	0	7.1396	0	33.8813	0	26.521	0	191.469	0	85.2	4	28.9	4	-1E+10	1	0.0527	4	0.000442	0	-1E+10	1	-1E+10	1	-1E+10	1
4902624	48	C	10/14/2025	22:40	-128.942	49.156	0	194.20	0	7.1348	0	33.8822	0	26.522	0	192.459	0	85.0	4	28.8	4	-1E+10	1	0.0511	4	0.000414	0	-1E+10	1	-1E+10	1	-1E+10	1
4902624	48	C	10/14/2025	22:40	-128.942	49.156	0	195.00	0	7.1310	0	33.8830	0	26.524	0	193.252	0	-1e10	1	-1e10	1	-1E+10	1	-1e10	1	-1e10	1	-1E+10	1	-1E+10	1	-1E+10	1
4902624	48	C	10/14/2025	22:40	-128.942	49.156	0	195.20	0	7.1293	0	33.8836	0	26.524	0	193.450	0	84.8	4	28.7	4	-1E+10	1	0.0548	4	0.000404	0	-1E+10	1	-1E+10	1	-1E+10	1
4902624	48	C	10/14/2025	22:40	-128.942	49.156	0	196.20	0	7.1208	0	33.8866	0	26.528	0	194.441	0	84.8	4	28.7	4	-1E+10	1	0.0526	4	0.000396	0	-1E+10	1	-1E+10	1	-1E+10	1
4902624	48	C	10/14/2025	22:40	-128.942	49.156	0	197.00	0	7.1140	0	33.8890	0	26.531	0	195.233	0	-1e10	1	-1e10	1	-1E+10	1	-1e10	1	-1e10	1	-1E+10	1	-1E+10	1	-1E+10	1
4902624	48	C	10/14/2025	22:40	-128.942	49.156	0	197.20	0	7.1107	0	33.8894	0	26.531	0	195.431	0	84.7	4	28.7	4	-1E+10	1	0.0460	4	0.000378	0	-1E+10	1	-1E+10	1	-1E+10	1
4902624	48	C	10/14/2025	22:40	-128.942	49.156	0	198.20	0	7.0942	0	33.8914	0	26.535	0	196.422	0	84.5	4	28.6	4	-1E+10	1	0.0517	4	0.000386	0	-1E+10	1	-1E+10	1	-1E+10	1
4902624	48	C	10/14/2025	22:40	-128.942	49.156	0	199.00	0	7.0810	0	33.8930	0	26.538	0	197.214	0	-1e10	1	-1e10	1	-1E+10	1	-1e10	1	-1e10	1	-1E+10	1	-1E+10	1	-1E+10	1
4902624	48	C	10/14/2025	22:40	-128.942	49.156	0	199.30	0	7.0774	0	33.8936	0	26.539	0	197.511	0	84.3	4	28.6	4	-1E+10	1	0.0584	4	0.000386	0	-1E+10	1	-1E+10	1	-1E+10	1
4902624	48	C	10/14/2025	22:40	-128.942	49.156	0	200.30	0	7.0654	0	33.8956	0	26.543	0	198.502	0	84.3	4	28.5	4	-1E+10	1	0.0365	4	0.000421	0	-1E+10	1	-1E+10	1	-1E+10	1
4902624	48	C	10/14/2025	22:40	-128.942	49.156	0	201.00	0	7.0570	0	33.8970	0	26.545	0	199.195	0	-1e10	1	-1e10	1	-1E+10	1	-1e10	1	-1e10	1	-1E+10	1	-1E+10	1	-1E+10	1
4902624	48	C	10/14/2025	22:40	-128.942	49.156	0	201.30	0	7.0500	0	33.8970	0	26.546	0	199.492	0	84.2	4	28.5	4	-1E+10	1	0.0426	4	0.000441	0	-1E+10	1	-1E+10	1	-1E+10	1
4902624	48	C	10/14/2025	22:40	-128.942	49.156	0	202.40	0	7.0241	0	33.8970	0	26.549	0	200.582	0	84.1	4	28.4	4	-1E+10	1	0.0602	4	0.000454	0	-1E+10	1	-1E+10	1	-1E+10	1
4902624	48	C	10/14/2025	22:40	-128.942	49.156	0	203.00	0	7.0100	0	33.8970	0	26.551	0	201.176	0	-1e10	1	-1e10	1	-1E+10	1	-1e10	1	-1e10	1	-1E+10	1	-1E+10	1	-1E+10	1
4902624	48	C	10/14/2025	22:40	-128.942	49.156	0	203.40	0	7.0066	0	33.8968	0	26.552	0	201.573	0	83.8	4	28.3	4	-1E+10	1	0.0611	4	0.000389	0	-1E+10	1	-1E+10	1	-1E+10	1
4902624	48	C	10/14/2025	22:40	-128.942	49.156	0	204.40	0	6.9982	0	33.8963	0	26.552	0	202.563	0	83.4	4	28.2	4	-1E+10	1	0.0548	4	0.000410	0	-1E+10	1	-1E+10	1	-1E+10	1
4902624	48	C	10/14/2025	22:40	-128.942	49.156	0	204.90	0	6.9940	0	33.8960	0	26.553	0	203.058	0	-1e10	1	-1e10	1	-1E+10	1	-1e10	1	-1e10	1	-1E+10	1	-1E+10	1	-1E+10	1
4902624	48	C	10/14/2025	22:40	-128.942	49.156	0	205.50	0	6.9797	0	33.8980	0	26.556	0	203.653	0	83.0	4	28.1	4	-1E+10	1	0.0483	4	0.000441	0	-1E+10	1	-1E+10	1	-1E+10	1
4902624	48	C	10/14/2025	22:40	-128.942	49.156	0	206.50	0	6.9559	0	33.9013	0	26.562	0	204.643	0	82.7	4	27.9	4	-1E+10	1	0.0451	4	0.000389	0	-1E+10	1	-1E+10	1	-1E+10	1
4902624	48	C	10/14/2025	22:40	-128.942	49.156	0	207.00	0	6.9440	0	33.9030	0	26.565	0	205.138	0	-1e10	1	-1e10	1	-1E+10	1	-1e10	1	-1e10	1	-1E+10	1	-1E+10	1	-1E+10	1
4902624	48	C	10/14/2025	22:40	-128.942	49.156	0	207.60	0	6.9389	0	33.9030	0	26.566	0	205.733	0	82.4	4	27.8	4	-1E+10	1	0.0523	4	0.000351	0	-1E+10	1	-1E+10	1	-1E+10	1
4902624	48	C	10/14/2025	22:40	-128.942	49.156	0	208.60	0	6.9304	0	33.9030	0	26.567	0	206.723	0	82.0	4	27.7	4	-1E+10	1	0.0584	4	0.000351	0	-1E+10	1	-1E+10	1	-1E+10	1
4902624	48	C	10/14/2025	22:40	-128.942	49.156	0	209.00	0	6.9270	0	33.9030	0	26.567	0	207.119	0	-1e10	1	-1e10	1	-1E+10	1	-1e10	1	-1e10	1	-1E+10	1	-1E+10	1	-1E+10	1
4902624	48	C	10/14/2025	22:40	-128.942	49.156	0	209.70	0	6.9229	0	33.9034	0	26.568	0	207.813	0	81.6	4	27.5	4	-1E+10	1	0.0522	4	0.000381	0	-1E+10	1	-1E+10	1	-1E+10	1
4902624	48	C	10/14/2025	22:40	-128.942	49.156	0	210.70	0	6.9172	0	33.9039	0	26.569	0	208.803	0	81.3	4	27.4	4	-1E+10	1	0.0569	4	0.000349	0	-1E+10	1	-1E+10	1	-1E+10	1
4902624	48	C	10/14/2025	22:40	-128.942	49.156	0	210.90	0	6.9160	0	33.9040	0	26.570	0	209.001	0	-1e10	1	-1e10	1	-1E+10	1	-1e10	1	-1e10	1	-1E+10	1	-1E+10	1	-1E+10	1
4902624	48	C	10/14/2025	22:40	-128.942	49.156	0	211.80	0	6.9079	0	33.9053	0	26.572	0	209.893	0	80.9	4	27.3	4	-1E+10	1	0.0635	4	0.000363	0	-1E+10	1	-1E+10	1	-1E+10	1
4902624	48	C	10/14/2025	22:40	-128.942	49.156	0	212.80	0	6.8988	0	33.9067	0	26.574	0	210.883	0	80.5	4	27.2	4	-1E+10	1	0.0590	4	0.000358	0	-1E+10	1	-1E+10	1	-1E+10	1
4902624	48	C	10/14/2025	22:40	-128.942	49.156	0	213.00	0	6.8970	0	33.9070	0	26.575	0	211.081	0	-1e10	1	-1e10	1	-1E+10	1	-1e10	1	-1e10	1	-1E+10	1	-1E+10	1	-1E+10	1
4902624	48	C	10/14/2025	22:40	-128.942	49.156	0	213.90	0	6.8875	0	33.9079	0	26.577	0	211.973	0	80.2	4	27.0	4	-1E+10	1	0.0511	4	0.000339	0	-1E+10	1	-1E+10	1	-1E+10	1
4902624	48	C	10/14/2025	22:40	-128.942	49.156	0	215.00	0	6.8760	0	33.9090	0	26.579	0	213.062	0	77.9	4	26.3	4	-1E+10	1	0.0489	4	0.000350	0	-1E+10	1	-1E+10	1	-1E+10	1
4902624	48	C	10/14/2025	22:40	-128.942	49.156	0	216.10	0	6.8644	0	33.9102	0	26.582	0	214.152	0	79.4	4	26.8	4	-1E+10	1	0.0438	4	0.000367	0	-1E+10	1	-1E+10	1	-1E+10	1
4902624	48	C	10/14/2025	22:40	-128.942	49.156	0	216.90	0	6.8560	0	33.9110	0	26.583	0	214.944	0	-1e10	1	-1e10	1	-1E+10	1	-1e10	1	-1e10	1	-1E+10	1	-1E+10	1	-1E+10	1
4902624	48	C	10/14/2025	22:40	-128.942	49.156	0	217.20	0	6.8536	0	33.9113	0	26.584	0	215.241	0	79.1	4	26.6	4	-1E+10	1	0.0478	4	0.000339	0	-1E+10	1	-1E+10	1	-1E+10	1
4902624	48	C	10/14/2025	22:40	-128.942	49.156	0	218.20	0	6.8455	0	33.9122	0	26.586	0	216.232	0	78.7	4	26.5	4	-1E+10	1	0.0550	4	0.000343	0	-1E+10	1	-1E+10	1	-1E+10	1
4902624	48	C	10/14/2025	22:40	-128.942	49.156	0	219.00	0	6.8390	0	33.9130	0	26.587	0	217.024	0	-1e10	1	-1e10	1	-1E+10	1	-1e10	1	-1e10	1	-1E+10	1	-1E+10	1	-1E+10	1
4902624	48	C	10/14/2025	22:40	-128.942	49.156	0	219.30	0	6.8383	0	33.9131	0	26.588	0	217.321	0	78.4	4	26.4	4	-1E+10	1	0.0365	4	0.000363	0	-1E+10	1	-1E+10	1	-1E+10	1
4902624	48	C	10/14/2025	22:40	-128.942	49.156	0	220.40	0	6.8355	0	33.9137	0	26.588	0	218.411	0	78.0	4	26.3	4	-1E+10	1	0.0550	4	0.000362	0	-1E+10	1	-1E+10	1	-1E+10	1
4902624	48	C	10/14/2025	22:40	-128.942	49.156	0	221.00	0	6.8340	0	33.9140	0	26.589	0	219.005	0	-1e10	1	-1e10	1	-1E+10	1	-1e10	1	-1e10	1	-1E+10	1	-1E+10	1	-1E+10	1
4902624	48	C	10/14/2025	22:40	-128.942	49.156	0	221.40	0	6.8330	0	33.9140	0	26.589	0	219.401	0	77.6	4	26.1	4	-1E+10	1	0.0526	4	0.000334	0	-1E+10	1	-1E+10	1	-1E+10	1
4902624	48	C	10/14/2025	22:40	-128.942	49.156	0	222.50	0	6.8302	0	33.9140	0	26.589	0	220.491	0	77.2	4	26.0	4	-1E+10	1	0.0511	4	0.000335	0	-1E+10	1	-1E+10	1	-1E+10	1
4902624	48	C	10/14/2025	22:40	-128.942	49.156	0	223.00	0	6.8290	0	33.9140	0	26.589	0	220.986	0	-1e10	1	-1e10	1	-1E+10	1	-1e10	1	-1e10	1	-1E+10	1	-1E+10	1	-1E+10	1
4902624	48	C	10/14/2025	22:40	-128.942	49.156	0	223.50	0	6.8245	0	33.9150	0	26.591	0	221.481	0	76.8	4	25.8	4	-1E+10	1	0.0548	4	0.000345	0	-1E+10	1	-1E+10	1	-1E+10	1
4902624	48	C	10/14/2025	22:40	-128.942	49.156	0	224.60	0	6.8146	0	33.9172	0	26.594	0	222.571	0	76.4	4	25.7	4	-1E+10	1	0.0518	4	0.000340	0	-1E+10	1	-1E+10	1	-1E+10	1
4902624	48	C	10/14/2025	22:40	-128.942	49.156	0	225.00	0	6.8110	0	33.9180	0	26.595	0	222.967	0	-1e10	1	-1e10	1	-1E+10	1	-1e10	1	-1e10	1	-1E+10	1	-1E+10	1	-1E+10	1
4902624	48	C	10/14/2025	22:40	-128.942	49.156	0	225.60	0	6.7990	0	33.9180	0	26.597	0	223.561	0	75.9	4	25.5	4	-1E+10	1	0.0460	4	0.000338	0	-1E+10	1	-1E+10	1	-1E+10	1
4902624	48	C	10/14/2025	22:40	-128.942	49.156	0	226.70	0	6.7770	0	33.9180	0	26.600	0	224.651	0	75.5	4	25.4	4	-1E+10	1	0.0511	4	0.000359	0	-1E+10	1	-1E+10	1	-1E+10	1
4902624	48	C	10/14/2025	22:40	-128.942	49.156	0	227.00	0	6.7710	0	33.9180	0	26.600	0	224.948	0	-1e10	1	-1e10	1	-1E+10	1	-1e10	1	-1e10	1	-1E+10	1	-1E+10	1	-1E+10	1
4902624	48	C	10/14/2025	22:40	-128.942	49.156	0	227.70	0	6.7706	0	33.9204	0	26.602	0	225.641	0	75.1	4	25.3	4	-1E+10	1	0.0511	4	0.000339	0	-1E+10	1	-1E+10	1	-1E+10	1
4902624	48	C	10/14/2025	22:40	-128.942	49.156	0	228.80	0	6.7701	0	33.9243	0	26.606	0	226.730	0	74.7	4	25.1	4	-1E+10	1	0.0657	4	0.000339	0	-1E+10	1	-1E+10	1	-1E+10	1
4902624	48	C	10/14/2025	22:40	-128.942	49.156	0	229.00	0	6.7700	0	33.9250	0	26.606	0	226.928	0	-1e10	1	-1e10	1	-1E+10	1	-1e10	1	-1e10	1	-1E+10	1	-1E+10	1	-1E+10	1
4902624	48	C	10/14/2025	22:40	-128.942	49.156	0	229.90	0	6.7650	0	33.9250	0	26.607	0	227.820	0	74.3	4	25.0	4	-1E+10	1	0.0523	4	0.000393	0	-1E+10	1	-1E+10	1	-1E+10	1
4902624	48	C	10/14/2025	22:40	-128.942	49.156	0	230.90	0	6.7595	0	33.9250	0	26.608	0	228.810	0	73.9	4	24.8	4	-1E+10	1	0.0511	4	0.000357	0	-1E+10	1	-1E+10	1	-1E+10	1
4902624	48	C	10/14/2025	22:40	-128.942	49.156	0	231.00	0	6.7590	0	33.9250	0	26.608	0	228.909	0	-1e10	1	-1e10	1	-1E+10	1	-1e10	1	-1e10	1	-1E+10	1	-1E+10	1	-1E+10	1
4902624	48	C	10/14/2025	22:40	-128.942	49.156	0	231.90	0	6.7491	0	33.9259	0	26.610	0	229.801	0	73.4	4	24.7	4	-1E+10	1	0.0551	4	0.000339	0	-1E+10	1	-1E+10	1	-1E+10	1
4902624	48	C	10/14/2025	22:40	-128.942	49.156	0	233.00	0	6.7370	0	33.9270	0	26.612	0	230.890	0	71.2	4	23.9	4	-1E+10	1	0.0620	4	0.000327	0	-1E+10	1	-1E+10	1	-1E+10	1
4902624	48	C	10/14/2025	22:40	-128.942	49.156	0	234.00	0	6.7280	0	33.9280	0	26.614	0	231.880	0	72.5	4	24.4	4	-1E+10	1	0.0612	4	0.000333	0	-1E+10	1	-1E+10	1	-1E+10	1
4902624	48	C	10/14/2025	22:40	-128.942	49.156	0	235.00	0	6.7190	0	33.9290	0	26.616	0	232.871	0	-1e10	1	-1e10	1	-1E+10	1	-1e10	1	-1e10	1	-1E+10	1	-1E+10	1	-1E+10	1
4902624	48	C	10/14/2025	22:40	-128.942	49.156	0	235.10	0	6.7174	0	33.9291	0	26.616	0	232.970	0	72.0	4	24.2	4	-1E+10	1	0.0526	4	0.000362	0	-1E+10	1	-1E+10	1	-1E+10	1
4902624	48	C	10/14/2025	22:40	-128.942	49.156	0	236.10	0	6.7020	0	33.9296	0	26.619	0	233.960	0	71.7	4	24.1	4	-1E+10	1	0.0584	4	0.000325	0	-1E+10	1	-1E+10	1	-1E+10	1
4902624	48	C	10/14/2025	22:40	-128.942	49.156	0	237.00	0	6.6880	0	33.9300	0	26.621	0	234.852	0	-1e10	1	-1e10	1	-1E+10	1	-1e10	1	-1e10	1	-1E+10	1	-1E+10	1	-1E+10	1
4902624	48	C	10/14/2025	22:40	-128.942	49.156	0	237.10	0	6.6865	0	33.9302	0	26.621	0	234.951	0	71.3	4	23.9	4	-1E+10	1	0.0584	4	0.000374	0	-1E+10	1	-1E+10	1	-1E+10	1
4902624	48	C	10/14/2025	22:40	-128.942	49.156	0	238.10	0	6.6709	0	33.9322	0	26.625	0	235.941	0	71.0	4	23.8	4	-1E+10	1	0.0528	4	0.000329	0	-1E+10	1	-1E+10	1	-1E+10	1
4902624	48	C	10/14/2025	22:40	-128.942	49.156	0	239.00	0	6.6570	0	33.9340	0	26.628	0	236.832	0	-1e10	1	-1e10	1	-1E+10	1	-1e10	1	-1e10	1	-1E+10	1	-1E+10	1	-1E+10	1
4902624	48	C	10/14/2025	22:40	-128.942	49.156	0	239.20	0	6.6536	0	33.9339	0	26.629	0	237.030	0	70.7	4	23.7	4	-1E+10	1	0.0394	4	0.000372	0	-1E+10	1	-1E+10	1	-1E+10	1
4902624	48	C	10/14/2025	22:40	-128.942	49.156	0	240.20	0	6.6366	0	33.9334	0	26.631	0	238.021	0	70.4	4	23.6	4	-1E+10	1	0.0365	4	0.000362	0	-1E+10	1	-1E+10	1	-1E+10	1
4902624	48	C	10/14/2025	22:40	-128.942	49.156	0	241.00	0	6.6230	0	33.9330	0	26.632	0	238.813	0	-1e10	1	-1e10	1	-1E+10	1	-1e10	1	-1e10	1	-1E+10	1	-1E+10	1	-1E+10	1
4902624	48	C	10/14/2025	22:40	-128.942	49.156	0	241.30	0	6.6193	0	33.9331	0	26.633	0	239.110	0	70.2	4	23.5	4	-1E+10	1	0.0483	4	0.000363	0	-1E+10	1	-1E+10	1	-1E+10	1
4902624	48	C	10/14/2025	22:40	-128.942	49.156	0	242.30	0	6.6068	0	33.9336	0	26.635	0	240.100	0	69.9	4	23.4	4	-1E+10	1	0.0555	4	0.000374	0	-1E+10	1	-1E+10	1	-1E+10	1
4902624	48	C	10/14/2025	22:40	-128.942	49.156	0	243.00	0	6.5980	0	33.9340	0	26.636	0	240.794	0	-1e10	1	-1e10	1	-1E+10	1	-1e10	1	-1e10	1	-1E+10	1	-1E+10	1	-1E+10	1
4902624	48	C	10/14/2025	22:40	-128.942	49.156	0	243.30	0	6.5936	0	33.9340	0	26.637	0	241.091	0	69.7	4	23.4	4	-1E+10	1	0.0535	4	0.000366	0	-1E+10	1	-1E+10	1	-1E+10	1
4902624	48	C	10/14/2025	22:40	-128.942	49.156	0	244.30	0	6.5788	0	33.9340	0	26.639	0	242.081	0	69.5	4	23.3	4	-1E+10	1	0.0560	4	0.000347	0	-1E+10	1	-1E+10	1	-1E+10	1
4902624	48	C	10/14/2025	22:40	-128.942	49.156	0	245.10	0	6.5670	0	33.9340	0	26.640	0	242.873	0	-1e10	1	-1e10	1	-1E+10	1	-1e10	1	-1e10	1	-1E+10	1	-1E+10	1	-1E+10	1
4902624	48	C	10/14/2025	22:40	-128.942	49.156	0	245.30	0	6.5643	0	33.9341	0	26.641	0	243.071	0	69.3	4	23.2	4	-1E+10	1	0.0438	4	0.000327	0	-1E+10	1	-1E+10	1	-1E+10	1
4902624	48	C	10/14/2025	22:40	-128.942	49.156	0	246.40	0	6.5494	0	33.9347	0	26.643	0	244.161	0	69.0	4	23.1	4	-1E+10	1	0.0511	4	0.000362	0	-1E+10	1	-1E+10	1	-1E+10	1
4902624	48	C	10/14/2025	22:40	-128.942	49.156	0	247.10	0	6.5400	0	33.9350	0	26.645	0	244.854	0	-1e10	1	-1e10	1	-1E+10	1	-1e10	1	-1e10	1	-1E+10	1	-1E+10	1	-1E+10	1
4902624	48	C	10/14/2025	22:40	-128.942	49.156	0	247.40	0	6.5394	0	33.9352	0	26.645	0	245.151	0	68.7	4	23.0	4	-1E+10	1	0.0572	4	0.000460	0	-1E+10	1	-1E+10	1	-1E+10	1
4902624	48	C	10/14/2025	22:40	-128.942	49.156	0	248.50	0	6.5371	0	33.9357	0	26.646	0	246.240	0	68.3	4	22.9	4	-1E+10	1	0.0584	4	0.000423	0	-1E+10	1	-1E+10	1	-1E+10	1
4902624	48	C	10/14/2025	22:40	-128.942	49.156	0	249.00	0	6.5360	0	33.9360	0	26.646	0	246.736	0	-1e10	1	-1e10	1	-1E+10	1	-1e10	1	-1e10	1	-1E+10	1	-1E+10	1	-1E+10	1
4902624	48	C	10/14/2025	22:40	-128.942	49.156	0	249.50	0	6.5340	0	33.9362	0	26.646	0	247.231	0	67.9	4	22.7	4	-1E+10	1	0.0540	4	0.000404	0	-1E+10	1	-1E+10	1	-1E+10	1
4902624	48	C	10/14/2025	22:40	-128.942	49.156	0	250.50	0	6.5300	0	33.9368	0	26.647	0	248.221	0	67.5	4	22.6	4	-1E+10	1	0.0584	4	0.000444	0	-1E+10	1	-1E+10	1	-1E+10	1
4902624	48	C	10/14/2025	22:40	-128.942	49.156	0	251.00	0	6.5280	0	33.9370	0	26.648	0	248.716	0	-1e10	1	-1e10	1	-1E+10	1	-1e10	1	-1e10	1	-1E+10	1	-1E+10	1	-1E+10	1
4902624	48	C	10/14/2025	22:40	-128.942	49.156	0	251.60	0	6.5283	0	33.9384	0	26.649	0	249.310	0	67.1	4	22.4	4	-1E+10	1	0.0573	4	0.000430	0	-1E+10	1	-1E+10	1	-1E+10	1
4902624	48	C	10/14/2025	22:40	-128.942	49.156	0	252.60	0	6.5288	0	33.9408	0	26.651	0	250.301	0	66.7	4	22.3	4	-1E+10	1	0.0409	4	0.000346	0	-1E+10	1	-1E+10	1	-1E+10	1
4902624	48	C	10/14/2025	22:40	-128.942	49.156	0	253.10	0	6.5290	0	33.9420	0	26.652	0	250.796	0	-1e10	1	-1e10	1	-1E+10	1	-1e10	1	-1e10	1	-1E+10	1	-1E+10	1	-1E+10	1
4902624	48	C	10/14/2025	22:40	-128.942	49.156	0	253.60	0	6.5240	0	33.9433	0	26.653	0	251.291	0	66.3	4	22.2	4	-1E+10	1	0.0314	4	0.000327	0	-1E+10	1	-1E+10	1	-1E+10	1
4902624	48	C	10/14/2025	22:40	-128.942	49.156	0	254.70	0	6.5130	0	33.9460	0	26.657	0	252.380	0	65.9	4	22.0	4	-1E+10	1	0.0438	4	0.000327	0	-1E+10	1	-1E+10	1	-1E+10	1
4902624	48	C	10/14/2025	22:40	-128.942	49.156	0	255.10	0	6.5090	0	33.9470	0	26.658	0	252.776	0	-1e10	1	-1e10	1	-1E+10	1	-1e10	1	-1e10	1	-1E+10	1	-1E+10	1	-1E+10	1
4902624	48	C	10/14/2025	22:40	-128.942	49.156	0	255.70	0	6.5008	0	33.9473	0	26.660	0	253.371	0	65.5	4	21.9	4	-1E+10	1	0.0316	4	0.000747	0	-1E+10	1	-1E+10	1	-1E+10	1
4902624	48	C	10/14/2025	22:40	-128.942	49.156	0	256.80	0	6.4857	0	33.9479	0	26.662	0	254.460	0	65.2	4	21.8	4	-1E+10	1	0.0411	4	0.000399	0	-1E+10	1	-1E+10	1	-1E+10	1
4902624	48	C	10/14/2025	22:40	-128.942	49.156	0	257.00	0	6.4830	0	33.9480	0	26.663	0	254.658	0	-1e10	1	-1e10	1	-1E+10	1	-1e10	1	-1e10	1	-1E+10	1	-1E+10	1	-1E+10	1
4902624	48	C	10/14/2025	22:40	-128.942	49.156	0	257.80	0	6.4710	0	33.9476	0	26.664	0	255.450	0	64.8	4	21.6	4	-1E+10	1	0.0438	4	0.000335	0	-1E+10	1	-1E+10	1	-1E+10	1
4902624	48	C	10/14/2025	22:40	-128.942	49.156	0	258.90	0	6.4545	0	33.9470	0	26.666	0	256.539	0	64.3	4	21.5	4	-1E+10	1	0.0477	4	0.000325	0	-1E+10	1	-1E+10	1	-1E+10	1
4902624	48	C	10/14/2025	22:40	-128.942	49.156	0	259.00	0	6.4530	0	33.9470	0	26.666	0	256.638	0	-1e10	1	-1e10	1	-1E+10	1	-1e10	1	-1e10	1	-1E+10	1	-1E+10	1	-1E+10	1
4902624	48	C	10/14/2025	22:40	-128.942	49.156	0	259.90	0	6.4499	0	33.9479	0	26.667	0	257.530	0	63.9	4	21.3	4	-1E+10	1	0.0538	4	0.000325	0	-1E+10	1	-1E+10	1	-1E+10	1
4902624	48	C	10/14/2025	22:40	-128.942	49.156	0	261.00	0	6.4460	0	33.9490	0	26.668	0	258.619	0	61.9	4	20.7	4	-1E+10	1	0.0584	4	0.000339	0	-1E+10	1	-1E+10	1	-1E+10	1
4902624	48	C	10/14/2025	22:40	-128.942	49.156	0	262.00	0	6.4380	0	33.9515	0	26.671	0	259.609	0	62.9	4	21.0	4	-1E+10	1	0.0562	4	0.000299	0	-1E+10	1	-1E+10	1	-1E+10	1
4902624	48	C	10/14/2025	22:40	-128.942	49.156	0	263.00	0	6.4300	0	33.9540	0	26.674	0	260.600	0	-1e10	1	-1e10	1	-1E+10	1	-1e10	1	-1e10	1	-1E+10	1	-1E+10	1	-1E+10	1
4902624	48	C	10/14/2025	22:40	-128.942	49.156	0	263.10	0	6.4279	0	33.9542	0	26.675	0	260.699	0	62.5	4	20.8	4	-1E+10	1	0.0438	4	0.000339	0	-1E+10	1	-1E+10	1	-1E+10	1
4902624	48	C	10/14/2025	22:40	-128.942	49.156	0	264.20	0	6.4054	0	33.9564	0	26.679	0	261.788	0	62.1	4	20.7	4	-1E+10	1	0.0438	4	0.000350	0	-1E+10	1	-1E+10	1	-1E+10	1
4902624	48	C	10/14/2025	22:40	-128.942	49.156	0	265.00	0	6.3890	0	33.9580	0	26.683	0	262.580	0	-1e10	1	-1e10	1	-1E+10	1	-1e10	1	-1e10	1	-1E+10	1	-1E+10	1	-1E+10	1
4902624	48	C	10/14/2025	22:40	-128.942	49.156	0	265.20	0	6.3869	0	33.9582	0	26.683	0	262.778	0	61.8	4	20.6	4	-1E+10	1	0.0494	4	0.000332	0	-1E+10	1	-1E+10	1	-1E+10	1
4902624	48	C	10/14/2025	22:40	-128.942	49.156	0	266.30	0	6.3753	0	33.9593	0	26.686	0	263.867	0	61.5	4	20.5	4	-1E+10	1	0.0511	4	0.000341	0	-1E+10	1	-1E+10	1	-1E+10	1
4902624	48	C	10/14/2025	22:40	-128.942	49.156	0	267.00	0	6.3680	0	33.9600	0	26.687	0	264.560	0	-1e10	1	-1e10	1	-1E+10	1	-1e10	1	-1e10	1	-1E+10	1	-1E+10	1	-1E+10	1
4902624	48	C	10/14/2025	22:40	-128.942	49.156	0	267.40	0	6.3678	0	33.9602	0	26.687	0	264.957	0	61.1	4	20.4	4	-1E+10	1	0.0471	4	0.000370	0	-1E+10	1	-1E+10	1	-1E+10	1
4902624	48	C	10/14/2025	22:40	-128.942	49.156	0	268.50	0	6.3672	0	33.9607	0	26.688	0	266.046	0	60.8	4	20.3	4	-1E+10	1	0.0472	4	0.000375	0	-1E+10	1	-1E+10	1	-1E+10	1
4902624	48	C	10/14/2025	22:40	-128.942	49.156	0	269.00	0	6.3670	0	33.9610	0	26.688	0	266.541	0	-1e10	1	-1e10	1	-1E+10	1	-1e10	1	-1e10	1	-1E+10	1	-1E+10	1	-1E+10	1
4902624	48	C	10/14/2025	22:40	-128.942	49.156	0	269.60	0	6.3649	0	33.9616	0	26.689	0	267.135	0	60.4	4	20.1	4	-1E+10	1	0.0489	4	0.000355	0	-1E+10	1	-1E+10	1	-1E+10	1
4902624	48	C	10/14/2025	22:40	-128.942	49.156	0	270.70	0	6.3611	0	33.9627	0	26.690	0	268.224	0	60.0	4	20.0	4	-1E+10	1	0.0438	4	0.000334	0	-1E+10	1	-1E+10	1	-1E+10	1
4902624	48	C	10/14/2025	22:40	-128.942	49.156	0	271.00	0	6.3600	0	33.9630	0	26.691	0	268.521	0	-1e10	1	-1e10	1	-1E+10	1	-1e10	1	-1e10	1	-1E+10	1	-1E+10	1	-1E+10	1
4902624	48	C	10/14/2025	22:40	-128.942	49.156	0	271.70	0	6.3572	0	33.9641	0	26.692	0	269.214	0	59.6	4	19.9	4	-1E+10	1	0.0449	4	0.000315	0	-1E+10	1	-1E+10	1	-1E+10	1
4902624	48	C	10/14/2025	22:40	-128.942	49.156	0	272.80	0	6.3528	0	33.9657	0	26.694	0	270.304	0	59.2	4	19.7	4	-1E+10	1	0.0511	4	0.000315	0	-1E+10	1	-1E+10	1	-1E+10	1
4902624	48	C	10/14/2025	22:40	-128.942	49.156	0	273.00	0	6.3520	0	33.9660	0	26.694	0	270.502	0	-1e10	1	-1e10	1	-1E+10	1	-1e10	1	-1e10	1	-1E+10	1	-1E+10	1	-1E+10	1
4902624	48	C	10/14/2025	22:40	-128.942	49.156	0	273.90	0	6.3489	0	33.9664	0	26.695	0	271.393	0	58.9	4	19.6	4	-1E+10	1	0.0511	4	0.000375	0	-1E+10	1	-1E+10	1	-1E+10	1
4902624	48	C	10/14/2025	22:40	-128.942	49.156	0	275.00	0	6.3450	0	33.9670	0	26.696	0	272.482	0	57.0	4	19.0	4	-1E+10	1	0.0511	4	0.000376	0	-1E+10	1	-1E+10	1	-1E+10	1
4902624	48	C	10/14/2025	22:40	-128.942	49.156	0	276.10	0	6.3411	0	33.9675	0	26.697	0	273.571	0	57.9	4	19.3	4	-1E+10	1	0.0460	4	0.000374	0	-1E+10	1	-1E+10	1	-1E+10	1
4902624	48	C	10/14/2025	22:40	-128.942	49.156	0	277.00	0	6.3380	0	33.9680	0	26.697	0	274.462	0	-1e10	1	-1e10	1	-1E+10	1	-1e10	1	-1e10	1	-1E+10	1	-1E+10	1	-1E+10	1
4902624	48	C	10/14/2025	22:40	-128.942	49.156	0	277.20	0	6.3371	0	33.9683	0	26.698	0	274.660	0	57.4	4	19.1	4	-1E+10	1	0.0438	4	0.000362	0	-1E+10	1	-1E+10	1	-1E+10	1
4902624	48	C	10/14/2025	22:40	-128.942	49.156	0	278.30	0	6.3321	0	33.9700	0	26.700	0	275.750	0	56.9	4	18.9	4	-1E+10	1	0.0465	4	0.000342	0	-1E+10	1	-1E+10	1	-1E+10	1
4902624	48	C	10/14/2025	22:40	-128.942	49.156	0	279.00	0	6.3290	0	33.9710	0	26.701	0	276.443	0	-1e10	1	-1e10	1	-1E+10	1	-1e10	1	-1e10	1	-1E+10	1	-1E+10	1	-1E+10	1
4902624	48	C	10/14/2025	22:40	-128.942	49.156	0	279.40	0	6.3275	0	33.9716	0	26.702	0	276.839	0	56.3	4	18.8	4	-1E+10	1	0.0466	4	0.000334	0	-1E+10	1	-1E+10	1	-1E+10	1
4902624	48	C	10/14/2025	22:40	-128.942	49.156	0	280.50	0	6.3235	0	33.9734	0	26.704	0	277.928	0	55.8	4	18.6	4	-1E+10	1	0.0399	4	0.000350	0	-1E+10	1	-1E+10	1	-1E+10	1
4902624	48	C	10/14/2025	22:40	-128.942	49.156	0	280.90	0	6.3220	0	33.9740	0	26.704	0	278.324	0	-1e10	1	-1e10	1	-1E+10	1	-1e10	1	-1e10	1	-1E+10	1	-1E+10	1	-1E+10	1
4902624	48	C	10/14/2025	22:40	-128.942	49.156	0	281.60	0	6.3220	0	33.9754	0	26.705	0	279.017	0	55.4	4	18.4	4	-1E+10	1	0.0584	4	0.000350	0	-1E+10	1	-1E+10	1	-1E+10	1
4902624	48	C	10/14/2025	22:40	-128.942	49.156	0	282.70	0	6.3220	0	33.9776	0	26.707	0	280.106	0	55.0	4	18.3	4	-1E+10	1	0.0511	4	0.000385	0	-1E+10	1	-1E+10	1	-1E+10	1
4902624	48	C	10/14/2025	22:40	-128.942	49.156	0	282.90	0	6.3220	0	33.9780	0	26.707	0	280.304	0	-1e10	1	-1e10	1	-1E+10	1	-1e10	1	-1e10	1	-1E+10	1	-1E+10	1	-1E+10	1
4902624	48	C	10/14/2025	22:40	-128.942	49.156	0	283.80	0	6.3117	0	33.9801	0	26.710	0	281.196	0	54.7	4	18.2	4	-1E+10	1	0.0568	4	0.000358	0	-1E+10	1	-1E+10	1	-1E+10	1
4902624	48	C	10/14/2025	22:40	-128.942	49.156	0	285.00	0	6.2980	0	33.9830	0	26.714	0	282.384	0	53.1	4	17.7	4	-1E+10	1	0.0533	4	0.000358	0	-1E+10	1	-1E+10	1	-1E+10	1
4902624	48	C	10/14/2025	22:40	-128.942	49.156	0	286.10	0	6.2952	0	33.9841	0	26.716	0	283.473	0	54.1	4	18.0	4	-1E+10	1	0.0465	4	0.000347	0	-1E+10	1	-1E+10	1	-1E+10	1
4902624	48	C	10/14/2025	22:40	-128.942	49.156	0	287.00	0	6.2930	0	33.9850	0	26.717	0	284.364	0	-1e10	1	-1e10	1	-1E+10	1	-1e10	1	-1e10	1	-1E+10	1	-1E+10	1	-1E+10	1
4902624	48	C	10/14/2025	22:40	-128.942	49.156	0	287.20	0	6.2926	0	33.9852	0	26.717	0	284.562	0	53.9	4	17.9	4	-1E+10	1	0.0584	4	0.000356	0	-1E+10	1	-1E+10	1	-1E+10	1
4902624	48	C	10/14/2025	22:40	-128.942	49.156	0	288.30	0	6.2904	0	33.9863	0	26.718	0	285.651	0	53.6	4	17.8	4	-1E+10	1	0.0650	4	0.000365	0	-1E+10	1	-1E+10	1	-1E+10	1
4902624	48	C	10/14/2025	22:40	-128.942	49.156	0	289.00	0	6.2890	0	33.9870	0	26.719	0	286.344	0	-1e10	1	-1e10	1	-1E+10	1	-1e10	1	-1e10	1	-1E+10	1	-1E+10	1	-1E+10	1
4902624	48	C	10/14/2025	22:40	-128.942	49.156	0	289.50	0	6.2875	0	33.9878	0	26.720	0	286.839	0	53.4	4	17.8	4	-1E+10	1	0.0544	4	0.000350	0	-1E+10	1	-1E+10	1	-1E+10	1
4902624	48	C	10/14/2025	22:40	-128.942	49.156	0	290.60	0	6.2842	0	33.9894	0	26.721	0	287.928	0	53.1	4	17.7	4	-1E+10	1	0.0581	4	0.000354	0	-1E+10	1	-1E+10	1	-1E+10	1
4902624	48	C	10/14/2025	22:40	-128.942	49.156	0	291.00	0	6.2830	0	33.9900	0	26.722	0	288.324	0	-1e10	1	-1e10	1	-1E+10	1	-1e10	1	-1e10	1	-1E+10	1	-1E+10	1	-1E+10	1
4902624	48	C	10/14/2025	22:40	-128.942	49.156	0	293.00	0	6.2730	0	33.9920	0	26.725	0	290.305	0	-1e10	1	-1e10	1	-1E+10	1	-1e10	1	-1e10	1	-1E+10	1	-1E+10	1	-1E+10	1
4902624	48	C	10/14/2025	22:40	-128.942	49.156	0	295.10	0	6.2550	0	33.9960	0	26.730	0	292.384	0	-1e10	1	-1e10	1	-1E+10	1	-1e10	1	-1e10	1	-1E+10	1	-1E+10	1	-1E+10	1
4902624	48	C	10/14/2025	22:40	-128.942	49.156	0	297.00	0	6.2440	0	33.9970	0	26.733	0	294.265	0	-1e10	1	-1e10	1	-1E+10	1	-1e10	1	-1e10	1	-1E+10	1	-1E+10	1	-1E+10	1
4902624	48	C	10/14/2025	22:40	-128.942	49.156	0	298.90	0	6.2390	0	33.9980	0	26.734	0	296.146	0	-1e10	1	-1e10	1	-1E+10	1	-1e10	1	-1e10	1	-1E+10	1	-1E+10	1	-1E+10	1
4902624	48	C	10/14/2025	22:40	-128.942	49.156	0	301.90	0	6.2272	0	33.9995	0	26.737	0	299.116	0	51.3	4	17.1	4	-1E+10	1	0.0514	4	0.000431	0	-1E+10	1	-1E+10	1	-1E+10	1
4902624	48	C	10/14/2025	22:40	-128.942	49.156	0	305.00	0	6.2150	0	34.0010	0	26.740	0	302.186	0	-1e10	1	-1e10	1	-1E+10	1	-1e10	1	-1e10	1	-1E+10	1	-1E+10	1	-1E+10	1
4902624	48	C	10/14/2025	22:40	-128.942	49.156	0	313.50	0	6.1309	0	34.0053	0	26.754	0	310.601	0	49.6	4	16.5	4	-1E+10	1	0.0584	4	0.000393	0	-1E+10	1	-1E+10	1	-1E+10	1
4902624	48	C	10/14/2025	22:40	-128.942	49.156	0	314.80	0	6.1180	0	34.0060	0	26.756	0	311.888	0	-1e10	1	-1e10	1	-1E+10	1	-1e10	1	-1e10	1	-1E+10	1	-1E+10	1	-1E+10	1
4902624	48	C	10/14/2025	22:40	-128.942	49.156	0	325.00	0	5.9960	0	34.0100	0	26.775	0	321.985	0	-1e10	1	-1e10	1	-1E+10	1	-1e10	1	-1e10	1	-1E+10	1	-1E+10	1	-1E+10	1
4902624	48	C	10/14/2025	22:40	-128.942	49.156	0	325.20	0	5.9947	0	34.0101	0	26.775	0	322.183	0	48.3	4	16.0	4	-1E+10	1	0.0581	4	0.000314	0	-1E+10	1	-1E+10	1	-1E+10	1
4902624	48	C	10/14/2025	22:40	-128.942	49.156	0	335.10	0	5.9290	0	34.0150	0	26.787	0	331.984	0	-1e10	1	-1e10	1	-1E+10	1	-1e10	1	-1e10	1	-1E+10	1	-1E+10	1	-1E+10	1
4902624	48	C	10/14/2025	22:40	-128.942	49.156	0	336.00	0	5.9237	0	34.0156	0	26.788	0	332.875	0	46.0	4	15.2	4	-1E+10	1	0.0505	4	0.000291	0	-1E+10	1	-1E+10	1	-1E+10	1
4902624	48	C	10/14/2025	22:40	-128.942	49.156	0	343.80	0	5.8773	0	34.0210	0	26.798	0	340.596	0	45.0	4	14.8	4	-1E+10	1	0.0370	4	0.000280	0	-1E+10	1	-1E+10	1	-1E+10	1
4902624	48	C	10/14/2025	22:40	-128.942	49.156	0	345.20	0	5.8690	0	34.0220	0	26.800	0	341.981	0	-1e10	1	-1e10	1	-1E+10	1	-1e10	1	-1e10	1	-1E+10	1	-1E+10	1	-1E+10	1
4902624	48	C	10/14/2025	22:40	-128.942	49.156	0	352.00	0	5.8318	0	34.0255	0	26.807	0	348.712	0	44.0	4	14.5	4	-1E+10	1	0.0514	4	0.000305	0	-1E+10	1	-1E+10	1	-1E+10	1
4902624	48	C	10/14/2025	22:40	-128.942	49.156	0	354.90	0	5.8160	0	34.0270	0	26.811	0	351.583	0	-1e10	1	-1e10	1	-1E+10	1	-1e10	1	-1e10	1	-1E+10	1	-1E+10	1	-1E+10	1
4902624	48	C	10/14/2025	22:40	-128.942	49.156	0	360.50	0	5.7914	0	34.0281	0	26.815	0	357.126	0	43.2	4	14.2	4	-1E+10	1	0.0581	4	0.000360	0	-1E+10	1	-1E+10	1	-1E+10	1
4902624	48	C	10/14/2025	22:40	-128.942	49.156	0	364.90	0	5.7720	0	34.0290	0	26.818	0	361.481	0	-1e10	1	-1e10	1	-1E+10	1	-1e10	1	-1e10	1	-1E+10	1	-1E+10	1	-1E+10	1
4902624	48	C	10/14/2025	22:40	-128.942	49.156	0	369.30	0	5.7553	0	34.0316	0	26.822	0	365.835	0	41.9	4	13.8	4	-1E+10	1	0.0511	4	0.000337	0	-1E+10	1	-1E+10	1	-1E+10	1
4902624	48	C	10/14/2025	22:40	-128.942	49.156	0	374.90	0	5.7340	0	34.0350	0	26.827	0	371.378	0	-1e10	1	-1e10	1	-1E+10	1	-1e10	1	-1e10	1	-1E+10	1	-1E+10	1	-1E+10	1
4902624	48	C	10/14/2025	22:40	-128.942	49.156	0	378.40	0	5.6952	0	34.0350	0	26.832	0	374.842	0	41.1	4	13.5	4	-1E+10	1	0.0516	4	0.000315	0	-1E+10	1	-1E+10	1	-1E+10	1
4902624	48	C	10/14/2025	22:40	-128.942	49.156	0	385.00	0	5.6220	0	34.0350	0	26.841	0	381.374	0	-1e10	1	-1e10	1	-1E+10	1	-1e10	1	-1e10	1	-1E+10	1	-1E+10	1	-1E+10	1
4902624	48	C	10/14/2025	22:40	-128.942	49.156	0	388.00	0	5.6041	0	34.0353	0	26.843	0	384.343	0	40.3	4	13.2	4	-1E+10	1	0.0651	4	0.000346	0	-1E+10	1	-1E+10	1	-1E+10	1
4902624	48	C	10/14/2025	22:40	-128.942	49.156	0	395.20	0	5.5610	0	34.0360	0	26.849	0	391.468	0	-1e10	1	-1e10	1	-1E+10	1	-1e10	1	-1e10	1	-1E+10	1	-1E+10	1	-1E+10	1
4902624	48	C	10/14/2025	22:40	-128.942	49.156	0	397.70	0	5.5560	0	34.0382	0	26.852	0	393.942	0	38.6	4	12.6	4	-1E+10	1	0.0514	4	0.000267	0	-1E+10	1	-1E+10	1	-1E+10	1
4902624	48	C	10/14/2025	22:40	-128.942	49.156	0	405.20	0	5.5410	0	34.0450	0	26.859	0	401.364	0	-1e10	1	-1e10	1	-1E+10	1	-1e10	1	-1e10	1	-1E+10	1	-1E+10	1	-1E+10	1
4902624	48	C	10/14/2025	22:40	-128.942	49.156	0	407.70	0	5.5353	0	34.0473	0	26.861	0	403.838	0	37.0	4	12.1	4	-1E+10	1	0.0575	4	0.000280	0	-1E+10	1	-1E+10	1	-1E+10	1
4902624	48	C	10/14/2025	22:40	-128.942	49.156	0	414.90	0	5.5190	0	34.0540	0	26.869	0	410.962	0	-1e10	1	-1e10	1	-1E+10	1	-1e10	1	-1e10	1	-1E+10	1	-1E+10	1	-1E+10	1
4902624	48	C	10/14/2025	22:40	-128.942	49.156	0	417.80	0	5.5158	0	34.0546	0	26.869	0	413.832	0	36.3	4	11.9	4	-1E+10	1	0.0368	4	0.000313	0	-1E+10	1	-1E+10	1	-1E+10	1
4902624	48	C	10/14/2025	22:40	-128.942	49.156	0	424.90	0	5.5080	0	34.0560	0	26.872	0	420.857	0	-1e10	1	-1e10	1	-1E+10	1	-1e10	1	-1e10	1	-1E+10	1	-1E+10	1	-1E+10	1
4902624	48	C	10/14/2025	22:40	-128.942	49.156	0	428.00	0	5.4878	0	34.0566	0	26.875	0	423.925	0	35.2	4	11.5	4	-1E+10	1	0.0444	4	0.000301	0	-1E+10	1	-1E+10	1	-1E+10	1
4902624	48	C	10/14/2025	22:40	-128.942	49.156	0	434.90	0	5.4430	0	34.0580	0	26.881	0	430.752	0	-1e10	1	-1e10	1	-1E+10	1	-1e10	1	-1e10	1	-1E+10	1	-1E+10	1	-1E+10	1
4902624	48	C	10/14/2025	22:40	-128.942	49.156	0	438.20	0	5.4221	0	34.0603	0	26.885	0	434.017	0	33.5	4	10.9	4	-1E+10	1	0.0581	4	0.000278	0	-1E+10	1	-1E+10	1	-1E+10	1
4902624	48	C	10/14/2025	22:40	-128.942	49.156	0	445.00	0	5.3790	0	34.0650	0	26.894	0	440.745	0	-1e10	1	-1e10	1	-1E+10	1	-1e10	1	-1e10	1	-1E+10	1	-1E+10	1	-1E+10	1
4902624	48	C	10/14/2025	22:40	-128.942	49.156	0	448.50	0	5.3504	0	34.0671	0	26.899	0	444.208	0	31.8	4	10.3	4	-1E+10	1	0.0514	4	0.000268	0	-1E+10	1	-1E+10	1	-1E+10	1
4902624	48	C	10/14/2025	22:40	-128.942	49.156	0	454.90	0	5.2980	0	34.0710	0	26.909	0	450.539	0	-1e10	1	-1e10	1	-1E+10	1	-1e10	1	-1e10	1	-1E+10	1	-1E+10	1	-1E+10	1
4902624	48	C	10/14/2025	22:40	-128.942	49.156	0	458.80	0	5.2733	0	34.0749	0	26.915	0	454.398	0	29.7	4	9.7	4	-1E+10	1	0.0587	4	0.000314	0	-1E+10	1	-1E+10	1	-1E+10	1
4902624	48	C	10/14/2025	22:40	-128.942	49.156	0	465.00	0	5.2340	0	34.0810	0	26.924	0	460.531	0	-1e10	1	-1e10	1	-1E+10	1	-1e10	1	-1e10	1	-1E+10	1	-1E+10	1	-1E+10	1
4902624	48	C	10/14/2025	22:40	-128.942	49.156	0	469.20	0	5.2159	0	34.0848	0	26.929	0	464.686	0	27.8	4	9.0	4	-1E+10	1	0.0650	4	0.000335	0	-1E+10	1	-1E+10	1	-1E+10	1
4902624	48	C	10/14/2025	22:40	-128.942	49.156	0	475.00	0	5.1910	0	34.0900	0	26.936	0	470.424	0	-1e10	1	-1e10	1	-1E+10	1	-1e10	1	-1e10	1	-1E+10	1	-1E+10	1	-1E+10	1
4902624	48	C	10/14/2025	22:40	-128.942	49.156	0	479.40	0	5.1717	0	34.0949	0	26.942	0	474.777	0	26.1	4	8.5	4	-1E+10	1	0.0517	4	0.000302	0	-1E+10	1	-1E+10	1	-1E+10	1
4902624	48	C	10/14/2025	22:40	-128.942	49.156	0	484.80	0	5.1480	0	34.1010	0	26.950	0	480.118	0	-1e10	1	-1e10	1	-1E+10	1	-1e10	1	-1e10	1	-1E+10	1	-1E+10	1	-1E+10	1
4902624	48	C	10/14/2025	22:40	-128.942	49.156	0	489.90	0	5.1308	0	34.1045	0	26.955	0	485.163	0	24.9	4	8.1	4	-1E+10	1	0.0650	4	0.000314	0	-1E+10	1	-1E+10	1	-1E+10	1
4902624	48	C	10/14/2025	22:40	-128.942	49.156	0	494.90	0	5.1140	0	34.1080	0	26.960	0	490.109	0	-1e10	1	-1e10	1	-1E+10	1	-1e10	1	-1e10	1	-1E+10	1	-1E+10	1	-1E+10	1
4902624	48	C	10/14/2025	22:40	-128.942	49.156	0	500.40	0	5.0841	0	34.1107	0	26.965	0	495.549	0	23.8	4	7.7	4	-1E+10	1	0.0511	4	0.000334	0	-1E+10	1	-1E+10	1	-1E+10	1
4902624	48	C	10/14/2025	22:40	-128.942	49.156	0	505.20	0	5.0580	0	34.1130	0	26.970	0	500.297	0	-1e10	1	-1e10	1	-1E+10	1	-1e10	1	-1e10	1	-1E+10	1	-1E+10	1	-1E+10	1
4902624	48	C	10/14/2025	22:40	-128.942	49.156	0	511.30	0	5.0327	0	34.1179	0	26.977	0	506.330	0	22.6	4	7.3	4	-1E+10	1	0.0516	4	0.000266	0	-1E+10	1	-1E+10	1	-1E+10	1
4902624	48	C	10/14/2025	22:40	-128.942	49.156	0	515.10	0	5.0170	0	34.1210	0	26.981	0	510.089	0	-1e10	1	-1e10	1	-1E+10	1	-1e10	1	-1e10	1	-1E+10	1	-1E+10	1	-1E+10	1
4902624	48	C	10/14/2025	22:40	-128.942	49.156	0	522.50	0	4.9541	0	34.1210	0	26.988	0	517.407	0	22.0	4	7.1	4	-1E+10	1	0.0657	4	0.000273	0	-1E+10	1	-1E+10	1	-1E+10	1
4902624	48	C	10/14/2025	22:40	-128.942	49.156	0	525.10	0	4.9320	0	34.1210	0	26.991	0	519.979	0	-1e10	1	-1e10	1	-1E+10	1	-1e10	1	-1e10	1	-1E+10	1	-1E+10	1	-1E+10	1
4902624	48	C	10/14/2025	22:40	-128.942	49.156	0	533.90	0	4.8086	0	34.1150	0	27.000	0	528.682	0	21.5	4	6.9	4	-1E+10	1	0.0648	4	0.000183	0	-1E+10	1	-1E+10	1	-1E+10	1
4902624	48	C	10/14/2025	22:40	-128.942	49.156	0	535.30	0	4.7890	0	34.1140	0	27.001	0	530.066	0	-1e10	1	-1e10	1	-1E+10	1	-1e10	1	-1e10	1	-1E+10	1	-1E+10	1	-1E+10	1
4902624	48	C	10/14/2025	22:40	-128.942	49.156	0	544.80	0	4.7600	0	34.1190	0	27.009	0	539.461	0	-1e10	1	-1e10	1	-1E+10	1	-1e10	1	-1e10	1	-1E+10	1	-1E+10	1	-1E+10	1
4902624	48	C	10/14/2025	22:40	-128.942	49.156	0	545.50	0	4.7583	0	34.1196	0	27.009	0	540.153	0	20.3	4	6.5	4	-1E+10	1	0.0450	4	0.000183	0	-1E+10	1	-1E+10	1	-1E+10	1
4902624	48	C	10/14/2025	22:40	-128.942	49.156	0	554.50	0	4.7360	0	34.1267	0	27.018	0	549.053	0	19.1	4	6.1	4	-1E+10	1	0.0653	4	0.000182	0	-1E+10	1	-1E+10	1	-1E+10	1
4902624	48	C	10/14/2025	22:40	-128.942	49.156	0	554.90	0	4.7350	0	34.1270	0	27.018	0	549.449	0	-1e10	1	-1e10	1	-1E+10	1	-1e10	1	-1e10	1	-1E+10	1	-1E+10	1	-1E+10	1
4902624	48	C	10/14/2025	22:40	-128.942	49.156	0	562.20	0	4.7100	0	34.1342	0	27.026	0	556.667	0	18.0	4	5.8	4	-1E+10	1	0.0588	4	0.000160	0	-1E+10	1	-1E+10	1	-1E+10	1
4902624	48	C	10/14/2025	22:40	-128.942	49.156	0	565.10	0	4.7000	0	34.1370	0	27.030	0	559.535	0	-1e10	1	-1e10	1	-1E+10	1	-1e10	1	-1e10	1	-1E+10	1	-1E+10	1	-1E+10	1
4902624	48	C	10/14/2025	22:40	-128.942	49.156	0	570.20	0	4.6820	0	34.1411	0	27.035	0	564.578	0	17.2	4	5.5	4	-1E+10	1	0.0657	4	0.000160	0	-1E+10	1	-1E+10	1	-1E+10	1
4902624	48	C	10/14/2025	22:40	-128.942	49.156	0	575.00	0	4.6650	0	34.1450	0	27.040	0	569.324	0	-1e10	1	-1e10	1	-1E+10	1	-1e10	1	-1e10	1	-1E+10	1	-1E+10	1	-1E+10	1
4902624	48	C	10/14/2025	22:40	-128.942	49.156	0	578.60	0	4.6607	0	34.1493	0	27.044	0	572.883	0	16.2	4	5.2	4	-1E+10	1	0.0660	4	0.000160	0	-1E+10	1	-1E+10	1	-1E+10	1
4902624	48	C	10/14/2025	22:40	-128.942	49.156	0	585.10	0	4.6530	0	34.1570	0	27.051	0	579.310	0	-1e10	1	-1e10	1	-1E+10	1	-1e10	1	-1e10	1	-1E+10	1	-1E+10	1	-1E+10	1
4902624	48	C	10/14/2025	22:40	-128.942	49.156	0	587.30	0	4.6437	0	34.1584	0	27.053	0	581.485	0	15.4	4	4.9	4	-1E+10	1	0.0723	4	0.000171	0	-1E+10	1	-1E+10	1	-1E+10	1
4902624	48	C	10/14/2025	22:40	-128.942	49.156	0	594.80	0	4.6120	0	34.1630	0	27.060	0	588.900	0	-1e10	1	-1e10	1	-1E+10	1	-1e10	1	-1e10	1	-1E+10	1	-1E+10	1	-1E+10	1
4902624	48	C	10/14/2025	22:40	-128.942	49.156	0	596.20	0	4.6119	0	34.1646	0	27.062	0	590.284	0	14.6	4	4.7	4	-1E+10	1	0.0511	4	0.000179	0	-1E+10	1	-1E+10	1	-1E+10	1
4902624	48	C	10/14/2025	22:40	-128.942	49.156	0	604.70	0	4.6110	0	34.1740	0	27.069	0	598.688	0	-1e10	1	-1e10	1	-1E+10	1	-1e10	1	-1e10	1	-1E+10	1	-1E+10	1	-1E+10	1
4902624	48	C	10/14/2025	22:40	-128.942	49.156	0	605.40	0	4.6096	0	34.1745	0	27.070	0	599.380	0	13.9	4	4.4	4	-1E+10	1	0.0511	4	0.000351	0	-1E+10	1	-1E+10	1	-1E+10	1
4902624	48	C	10/14/2025	22:40	-128.942	49.156	0	614.80	0	4.5912	0	34.1809	0	27.077	0	608.673	0	13.5	4	4.3	4	-1E+10	1	0.0511	4	0.000170	0	-1E+10	1	-1E+10	1	-1E+10	1
4902624	48	C	10/14/2025	22:40	-128.942	49.156	0	614.90	0	4.5910	0	34.1810	0	27.077	0	608.772	0	-1e10	1	-1e10	1	-1E+10	1	-1e10	1	-1e10	1	-1E+10	1	-1E+10	1	-1E+10	1
4902624	48	C	10/14/2025	22:40	-128.942	49.156	0	624.60	0	4.5672	0	34.1858	0	27.084	0	618.360	0	13.0	4	4.2	4	-1E+10	1	0.0514	4	0.000150	0	-1E+10	1	-1E+10	1	-1E+10	1
4902624	48	C	10/14/2025	22:40	-128.942	49.156	0	625.10	0	4.5660	0	34.1860	0	27.084	0	618.855	0	-1e10	1	-1e10	1	-1E+10	1	-1e10	1	-1e10	1	-1E+10	1	-1E+10	1	-1E+10	1
4902624	48	C	10/14/2025	22:40	-128.942	49.156	0	634.60	0	4.5466	0	34.1899	0	27.089	0	628.246	0	12.5	4	4.0	4	-1E+10	1	0.0584	4	0.000205	0	-1E+10	1	-1E+10	1	-1E+10	1
4902624	48	C	10/14/2025	22:40	-128.942	49.156	0	634.90	0	4.5460	0	34.1900	0	27.089	0	628.542	0	-1e10	1	-1e10	1	-1E+10	1	-1e10	1	-1e10	1	-1E+10	1	-1E+10	1	-1E+10	1
4902624	48	C	10/14/2025	22:40	-128.942	49.156	0	644.80	0	4.5215	0	34.1959	0	27.097	0	638.328	0	12.0	4	3.9	4	-1E+10	1	0.0584	4	0.000181	0	-1E+10	1	-1E+10	1	-1E+10	1
4902624	48	C	10/14/2025	22:40	-128.942	49.156	0	645.00	0	4.5210	0	34.1960	0	27.097	0	638.525	0	-1e10	1	-1e10	1	-1E+10	1	-1e10	1	-1e10	1	-1E+10	1	-1E+10	1	-1E+10	1
4902624	48	C	10/14/2025	22:40	-128.942	49.156	0	655.10	0	4.4970	0	34.2020	0	27.104	0	648.508	0	-1e10	1	-1e10	1	-1E+10	1	-1e10	1	-1e10	1	-1E+10	1	-1E+10	1	-1E+10	1
4902624	48	C	10/14/2025	22:40	-128.942	49.156	0	655.30	0	4.4963	0	34.2021	0	27.105	0	648.706	0	11.6	4	3.7	4	-1E+10	1	0.0584	4	0.000159	0	-1E+10	1	-1E+10	1	-1E+10	1
4902624	48	C	10/14/2025	22:40	-128.942	49.156	0	665.00	0	4.4640	0	34.2090	0	27.114	0	658.293	0	-1e10	1	-1e10	1	-1E+10	1	-1e10	1	-1e10	1	-1E+10	1	-1E+10	1	-1E+10	1
4902624	48	C	10/14/2025	22:40	-128.942	49.156	0	665.80	0	4.4624	0	34.2093	0	27.114	0	659.084	0	11.1	4	3.5	4	-1E+10	1	0.0579	4	0.000170	0	-1E+10	1	-1E+10	1	-1E+10	1
4902624	48	C	10/14/2025	22:40	-128.942	49.156	0	674.80	0	4.4440	0	34.2130	0	27.119	0	667.979	0	-1e10	1	-1e10	1	-1E+10	1	-1e10	1	-1e10	1	-1E+10	1	-1E+10	1	-1E+10	1
4902624	48	C	10/14/2025	22:40	-128.942	49.156	0	676.60	0	4.4385	0	34.2143	0	27.121	0	669.757	0	10.7	4	3.4	4	-1E+10	1	0.0443	4	0.000169	0	-1E+10	1	-1E+10	1	-1E+10	1
4902624	48	C	10/14/2025	22:40	-128.942	49.156	0	684.70	0	4.4140	0	34.2200	0	27.128	0	677.762	0	-1e10	1	-1e10	1	-1E+10	1	-1e10	1	-1e10	1	-1E+10	1	-1E+10	1	-1E+10	1
4902624	48	C	10/14/2025	22:40	-128.942	49.156	0	687.30	0	4.4055	0	34.2213	0	27.130	0	680.332	0	10.4	4	3.3	4	-1E+10	1	0.0584	4	0.000146	0	-1E+10	1	-1E+10	1	-1E+10	1
4902624	48	C	10/14/2025	22:40	-128.942	49.156	0	695.10	0	4.3800	0	34.2250	0	27.135	0	688.040	0	-1e10	1	-1e10	1	-1E+10	1	-1e10	1	-1e10	1	-1E+10	1	-1E+10	1	-1E+10	1
4902624	48	C	10/14/2025	22:40	-128.942	49.156	0	697.90	0	4.3642	0	34.2258	0	27.138	0	690.807	0	10.2	4	3.3	4	-1E+10	1	0.0578	4	0.000135	0	-1E+10	1	-1E+10	1	-1E+10	1
4902624	48	C	10/14/2025	22:40	-128.942	49.156	0	705.20	0	4.3230	0	34.2280	0	27.144	0	698.020	0	-1e10	1	-1e10	1	-1E+10	1	-1e10	1	-1e10	1	-1E+10	1	-1E+10	1	-1E+10	1
4902624	48	C	10/14/2025	22:40	-128.942	49.156	0	708.50	0	4.3015	0	34.2280	0	27.146	0	701.281	0	10.2	4	3.2	4	-1E+10	1	0.0445	4	0.000146	0	-1E+10	1	-1E+10	1	-1E+10	1
4902624	48	C	10/14/2025	22:40	-128.942	49.156	0	715.20	0	4.2580	0	34.2280	0	27.151	0	707.902	0	-1e10	1	-1e10	1	-1E+10	1	-1e10	1	-1e10	1	-1E+10	1	-1E+10	1	-1E+10	1
4902624	48	C	10/14/2025	22:40	-128.942	49.156	0	719.00	0	4.2343	0	34.2295	0	27.155	0	711.656	0	10.0	4	3.2	4	-1E+10	1	0.0584	4	0.000146	0	-1E+10	1	-1E+10	1	-1E+10	1
4902624	48	C	10/14/2025	22:40	-128.942	49.156	0	725.30	0	4.1950	0	34.2320	0	27.161	0	717.881	0	-1e10	1	-1e10	1	-1E+10	1	-1e10	1	-1e10	1	-1E+10	1	-1E+10	1	-1E+10	1
4902624	48	C	10/14/2025	22:40	-128.942	49.156	0	729.50	0	4.2217	0	34.2421	0	27.166	0	722.031	0	8.6	4	2.7	4	-1E+10	1	0.0584	4	0.000148	0	-1E+10	1	-1E+10	1	-1E+10	1
4902624	48	C	10/14/2025	22:40	-128.942	49.156	0	734.90	0	4.2560	0	34.2550	0	27.173	0	727.366	0	-1e10	1	-1e10	1	-1E+10	1	-1e10	1	-1e10	1	-1E+10	1	-1E+10	1	-1E+10	1
4902624	48	C	10/14/2025	22:40	-128.942	49.156	0	740.10	0	4.2461	0	34.2597	0	27.178	0	732.504	0	8.2	4	2.6	4	-1E+10	1	0.0576	4	0.000180	0	-1E+10	1	-1E+10	1	-1E+10	1
4902624	48	C	10/14/2025	22:40	-128.942	49.156	0	744.90	0	4.2370	0	34.2640	0	27.182	0	737.246	0	-1e10	1	-1e10	1	-1E+10	1	-1e10	1	-1e10	1	-1E+10	1	-1E+10	1	-1E+10	1
4902624	48	C	10/14/2025	22:40	-128.942	49.156	0	750.90	0	4.2239	0	34.2664	0	27.185	0	743.174	0	8.2	4	2.6	4	-1E+10	1	0.0376	4	0.000157	0	-1E+10	1	-1E+10	1	-1E+10	1
4902624	48	C	10/14/2025	22:40	-128.942	49.156	0	755.00	0	4.2150	0	34.2680	0	27.188	0	747.224	0	-1e10	1	-1e10	1	-1E+10	1	-1e10	1	-1e10	1	-1E+10	1	-1E+10	1	-1E+10	1
4902624	48	C	10/14/2025	22:40	-128.942	49.156	0	762.10	0	4.1540	0	34.2673	0	27.193	0	754.238	0	8.5	4	2.7	4	-1E+10	1	0.0644	4	0.000165	0	-1E+10	1	-1E+10	1	-1E+10	1
4902624	48	C	10/14/2025	22:40	-128.942	49.156	0	764.90	0	4.1300	0	34.2670	0	27.196	0	757.004	0	-1e10	1	-1e10	1	-1E+10	1	-1e10	1	-1e10	1	-1E+10	1	-1E+10	1	-1E+10	1
4902624	48	C	10/14/2025	22:40	-128.942	49.156	0	773.20	0	4.1043	0	34.2720	0	27.202	0	765.203	0	7.9	4	2.5	4	-1E+10	1	0.0375	4	0.000562	0	-1E+10	1	-1E+10	1	-1E+10	1
4902624	48	C	10/14/2025	22:40	-128.942	49.156	0	774.90	0	4.0990	0	34.2730	0	27.204	0	766.883	0	-1e10	1	-1e10	1	-1E+10	1	-1e10	1	-1e10	1	-1E+10	1	-1E+10	1	-1E+10	1
4902624	48	C	10/14/2025	22:40	-128.942	49.156	0	784.60	0	4.1165	0	34.2856	0	27.212	0	776.464	0	7.5	4	2.4	4	-1E+10	1	0.0588	4	0.000180	0	-1E+10	1	-1E+10	1	-1E+10	1
4902624	48	C	10/14/2025	22:40	-128.942	49.156	0	784.90	0	4.1170	0	34.2860	0	27.212	0	776.761	0	-1e10	1	-1e10	1	-1E+10	1	-1e10	1	-1e10	1	-1E+10	1	-1E+10	1	-1E+10	1
4902624	48	C	10/14/2025	22:40	-128.942	49.156	0	793.40	0	4.1078	0	34.2902	0	27.217	0	785.157	0	7.2	4	2.3	4	-1E+10	1	0.0654	4	0.000169	0	-1E+10	1	-1E+10	1	-1E+10	1
4902624	48	C	10/14/2025	22:40	-128.942	49.156	0	795.10	0	4.1060	0	34.2910	0	27.217	0	786.836	0	-1e10	1	-1e10	1	-1E+10	1	-1e10	1	-1e10	1	-1E+10	1	-1E+10	1	-1E+10	1
4902624	48	C	10/14/2025	22:40	-128.942	49.156	0	801.10	0	4.0906	0	34.2946	0	27.222	0	792.762	0	7.1	4	2.3	4	-1E+10	1	0.0584	4	0.000179	0	-1E+10	1	-1E+10	1	-1E+10	1
4902624	48	C	10/14/2025	22:40	-128.942	49.156	0	805.20	0	4.0800	0	34.2970	0	27.225	0	796.811	0	-1e10	1	-1e10	1	-1E+10	1	-1e10	1	-1e10	1	-1E+10	1	-1E+10	1	-1E+10	1
4902624	48	C	10/14/2025	22:40	-128.942	49.156	0	809.20	0	4.0612	0	34.3023	0	27.231	0	800.762	0	6.9	4	2.2	4	-1E+10	1	0.0584	4	0.000136	0	-1E+10	1	-1E+10	1	-1E+10	1
4902624	48	C	10/14/2025	22:40	-128.942	49.156	0	815.00	0	4.0340	0	34.3100	0	27.240	0	806.490	0	-1e10	1	-1e10	1	-1E+10	1	-1e10	1	-1e10	1	-1E+10	1	-1E+10	1	-1E+10	1
4902624	48	C	10/14/2025	22:40	-128.942	49.156	0	817.60	0	4.0255	0	34.3116	0	27.242	0	809.058	0	6.8	4	2.2	4	-1E+10	1	0.0581	4	0.000180	0	-1E+10	1	-1E+10	1	-1E+10	1
4902624	48	C	10/14/2025	22:40	-128.942	49.156	0	824.80	0	4.0020	0	34.3160	0	27.248	0	816.169	0	-1e10	1	-1e10	1	-1E+10	1	-1e10	1	-1e10	1	-1E+10	1	-1E+10	1	-1E+10	1
4902624	48	C	10/14/2025	22:40	-128.942	49.156	0	826.20	0	3.9983	0	34.3167	0	27.249	0	817.552	0	6.9	4	2.2	4	-1E+10	1	0.0511	4	0.000169	0	-1E+10	1	-1E+10	1	-1E+10	1
4902624	48	C	10/14/2025	22:40	-128.942	49.156	0	834.90	0	3.9750	0	34.3210	0	27.255	0	826.143	0	-1e10	1	-1e10	1	-1E+10	1	-1e10	1	-1e10	1	-1E+10	1	-1E+10	1	-1E+10	1
4902624	48	C	10/14/2025	22:40	-128.942	49.156	0	835.00	0	3.9748	0	34.3210	0	27.255	0	826.242	0	6.9	4	2.2	4	-1E+10	1	0.0514	4	0.000179	0	-1E+10	1	-1E+10	1	-1E+10	1
4902624	48	C	10/14/2025	22:40	-128.942	49.156	0	844.20	0	3.9529	0	34.3247	0	27.260	0	835.327	0	6.9	4	2.2	4	-1E+10	1	0.0587	4	0.000146	0	-1E+10	1	-1E+10	1	-1E+10	1
4902624	48	C	10/14/2025	22:40	-128.942	49.156	0	845.00	0	3.9510	0	34.3250	0	27.261	0	836.117	0	-1e10	1	-1e10	1	-1E+10	1	-1e10	1	-1e10	1	-1E+10	1	-1E+10	1	-1E+10	1
4902624	48	C	10/14/2025	22:40	-128.942	49.156	0	853.50	0	3.9232	0	34.3275	0	27.266	0	844.511	0	7.1	4	2.2	4	-1E+10	1	0.0654	4	0.000178	0	-1E+10	1	-1E+10	1	-1E+10	1
4902624	48	C	10/14/2025	22:40	-128.942	49.156	0	855.10	0	3.9180	0	34.3280	0	27.267	0	846.091	0	-1e10	1	-1e10	1	-1E+10	1	-1e10	1	-1e10	1	-1E+10	1	-1E+10	1	-1E+10	1
4902624	48	C	10/14/2025	22:40	-128.942	49.156	0	863.00	0	3.8593	0	34.3303	0	27.274	0	853.891	0	7.5	4	2.4	4	-1E+10	1	0.0581	4	0.000133	0	-1E+10	1	-1E+10	1	-1E+10	1
4902624	48	C	10/14/2025	22:40	-128.942	49.156	0	865.20	0	3.8430	0	34.3310	0	27.276	0	856.064	0	-1e10	1	-1e10	1	-1E+10	1	-1e10	1	-1e10	1	-1E+10	1	-1E+10	1	-1E+10	1
4902624	48	C	10/14/2025	22:40	-128.942	49.156	0	872.90	0	3.7979	0	34.3318	0	27.282	0	863.666	0	7.8	4	2.5	4	-1E+10	1	0.0514	4	0.000144	0	-1E+10	1	-1E+10	1	-1E+10	1
4902624	48	C	10/14/2025	22:40	-128.942	49.156	0	875.10	0	3.7850	0	34.3320	0	27.283	0	865.839	0	-1e10	1	-1e10	1	-1E+10	1	-1e10	1	-1e10	1	-1E+10	1	-1E+10	1	-1E+10	1
4902624	48	C	10/14/2025	22:40	-128.942	49.156	0	883.10	0	3.7346	0	34.3288	0	27.286	0	873.737	0	8.2	4	2.6	4	-1E+10	1	0.0584	4	0.000132	0	-1E+10	1	-1E+10	1	-1E+10	1
4902624	48	C	10/14/2025	22:40	-128.942	49.156	0	885.10	0	3.7220	0	34.3280	0	27.286	0	875.712	0	-1e10	1	-1e10	1	-1E+10	1	-1e10	1	-1e10	1	-1E+10	1	-1E+10	1	-1E+10	1
4902624	48	C	10/14/2025	22:40	-128.942	49.156	0	893.50	0	3.6932	0	34.3280	0	27.289	0	884.005	0	8.4	4	2.6	4	-1E+10	1	0.0587	4	0.000124	0	-1E+10	1	-1E+10	1	-1E+10	1
4902624	48	C	10/14/2025	22:40	-128.942	49.156	0	895.00	0	3.6880	0	34.3280	0	27.290	0	885.486	0	-1e10	1	-1e10	1	-1E+10	1	-1e10	1	-1e10	1	-1E+10	1	-1E+10	1	-1E+10	1
4902624	48	C	10/14/2025	22:40	-128.942	49.156	0	904.20	0	3.6181	0	34.3252	0	27.294	0	894.568	0	8.6	4	2.7	4	-1E+10	1	0.0654	4	0.000200	0	-1E+10	1	-1E+10	1	-1E+10	1
4902624	48	C	10/14/2025	22:40	-128.942	49.156	0	905.00	0	3.6120	0	34.3250	0	27.295	0	895.358	0	-1e10	1	-1e10	1	-1E+10	1	-1e10	1	-1e10	1	-1E+10	1	-1E+10	1	-1E+10	1
4902624	48	C	10/14/2025	22:40	-128.942	49.156	0	915.20	0	3.5810	0	34.3270	0	27.299	0	905.427	0	-1e10	1	-1e10	1	-1E+10	1	-1e10	1	-1e10	1	-1E+10	1	-1E+10	1	-1E+10	1
4902624	48	C	10/14/2025	22:40	-128.942	49.156	0	915.30	0	3.5809	0	34.3270	0	27.299	0	905.526	0	8.5	4	2.7	4	-1E+10	1	0.0581	4	0.000134	0	-1E+10	1	-1E+10	1	-1E+10	1
4902624	48	C	10/14/2025	22:40	-128.942	49.156	0	925.10	0	3.5700	0	34.3310	0	27.304	0	915.200	0	-1e10	1	-1e10	1	-1E+10	1	-1e10	1	-1e10	1	-1E+10	1	-1E+10	1	-1E+10	1
4902624	48	C	10/14/2025	22:40	-128.942	49.156	0	926.60	0	3.5698	0	34.3324	0	27.305	0	916.681	0	8.2	4	2.6	4	-1E+10	1	0.0514	4	0.000177	0	-1E+10	1	-1E+10	1	-1E+10	1
4902624	48	C	10/14/2025	22:40	-128.942	49.156	0	935.10	0	3.5690	0	34.3400	0	27.311	0	925.071	0	-1e10	1	-1e10	1	-1E+10	1	-1e10	1	-1e10	1	-1E+10	1	-1E+10	1	-1E+10	1
4902624	48	C	10/14/2025	22:40	-128.942	49.156	0	938.10	0	3.5769	0	34.3430	0	27.313	0	928.032	0	7.9	4	2.5	4	-1E+10	1	0.0584	4	0.000132	0	-1E+10	1	-1E+10	1	-1E+10	1
4902624	48	C	10/14/2025	22:40	-128.942	49.156	0	945.00	0	3.5950	0	34.3500	0	27.317	0	934.843	0	-1e10	1	-1e10	1	-1E+10	1	-1e10	1	-1e10	1	-1E+10	1	-1E+10	1	-1E+10	1
4902624	48	C	10/14/2025	22:40	-128.942	49.156	0	949.60	0	3.6001	0	34.3533	0	27.319	0	939.383	0	7.8	4	2.4	4	-1E+10	1	0.0582	4	0.000120	0	-1E+10	1	-1E+10	1	-1E+10	1
4902624	48	C	10/14/2025	22:40	-128.942	49.156	0	954.90	0	3.6060	0	34.3570	0	27.321	0	944.614	0	-1e10	1	-1e10	1	-1E+10	1	-1e10	1	-1e10	1	-1E+10	1	-1E+10	1	-1E+10	1
4902624	48	C	10/14/2025	22:40	-128.942	49.156	0	961.50	0	3.5831	0	34.3603	0	27.326	0	951.128	0	8.1	4	2.5	4	-1E+10	1	0.0511	4	0.000111	0	-1E+10	1	-1E+10	1	-1E+10	1
4902624	48	C	10/14/2025	22:40	-128.942	49.156	0	965.00	0	3.5710	0	34.3620	0	27.329	0	954.582	0	-1e10	1	-1e10	1	-1E+10	1	-1e10	1	-1e10	1	-1E+10	1	-1E+10	1	-1E+10	1
4902624	48	C	10/14/2025	22:40	-128.942	49.156	0	973.60	0	3.5333	0	34.3638	0	27.334	0	963.070	0	8.1	4	2.5	4	-1E+10	1	0.0515	4	0.000166	0	-1E+10	1	-1E+10	1	-1E+10	1
4902624	48	C	10/14/2025	22:40	-128.942	49.156	0	974.80	0	3.5280	0	34.3640	0	27.334	0	964.254	0	-1e10	1	-1e10	1	-1E+10	1	-1e10	1	-1e10	1	-1E+10	1	-1E+10	1	-1E+10	1
4902624	48	C	10/14/2025	22:40	-128.942	49.156	0	983.70	0	3.5038	0	34.3657	0	27.338	0	973.037	0	8.0	4	2.5	4	-1E+10	1	0.0587	4	0.000143	0	-1E+10	1	-1E+10	1	-1E+10	1
4902624	48	C	10/14/2025	22:40	-128.942	49.156	0	985.10	0	3.5000	0	34.3660	0	27.339	0	974.418	0	-1e10	1	-1e10	1	-1E+10	1	-1e10	1	-1e10	1	-1E+10	1	-1E+10	1	-1E+10	1
4902624	48	C	10/14/2025	22:40	-128.942	49.156	0	991.70	0	3.4837	0	34.3680	0	27.342	0	980.931	0	8.2	4	2.6	4	-1E+10	1	0.0659	4	0.000143	0	-1E+10	1	-1E+10	1	-1E+10	1
4902624	48	C	10/14/2025	22:40	-128.942	49.156	0	995.20	0	3.4750	0	34.3690	0	27.344	0	984.385	0	-1e10	1	-1e10	1	-1E+10	1	-1e10	1	-1e10	1	-1E+10	1	-1E+10	1	-1E+10	1
4902624	48	C	10/14/2025	22:40	-128.942	49.156	0	1004.00	0	3.4574	0	34.3723	0	27.348	0	993.069	0	8.4	4	2.6	4	-1E+10	1	0.0726	4	0.000131	0	-1E+10	1	-1E+10	1	-1E+10	1
4902624	48	C	10/14/2025	22:40	-128.942	49.156	0	1020.80	0	3.4238	0	34.3785	0	27.356	0	1009.645	0	8.4	4	2.6	4	-1E+10	1	0.0514	4	0.000131	0	-1E+10	1	-1E+10	1	-1E+10	1
4902624	48	C	10/14/2025	22:40	-128.942	49.156	0	1024.70	0	3.4160	0	34.3800	0	27.358	0	1013.493	0	-1e10	1	-1e10	1	-1E+10	1	-1e10	1	-1e10	1	-1E+10	1	-1E+10	1	-1E+10	1
4902624	48	C	10/14/2025	22:40	-128.942	49.156	0	1038.30	0	3.3802	0	34.3846	0	27.365	0	1026.911	0	8.4	4	2.6	4	-1E+10	1	0.0657	4	0.000143	0	-1E+10	1	-1E+10	1	-1E+10	1
4902624	48	C	10/14/2025	22:40	-128.942	49.156	0	1056.50	0	3.3322	0	34.3908	0	27.375	0	1044.866	0	8.9	4	2.8	4	-1E+10	1	0.0659	4	0.000165	0	-1E+10	1	-1E+10	1	-1E+10	1
4902624	48	C	10/14/2025	22:40	-128.942	49.156	0	1074.80	0	3.2840	0	34.3970	0	27.385	0	1062.919	0	-1e10	1	-1e10	1	-1E+10	1	-1e10	1	-1e10	1	-1E+10	1	-1E+10	1	-1E+10	1
4902624	48	C	10/14/2025	22:40	-128.942	49.156	0	1075.10	0	3.2833	0	34.3971	0	27.385	0	1063.214	0	17.3	4	5.4	4	-1E+10	1	0.0725	4	0.000119	0	-1E+10	1	-1E+10	1	-1E+10	1
4902624	48	C	10/14/2025	22:40	-128.942	49.156	0	1094.40	0	3.2371	0	34.4040	0	27.395	0	1082.251	0	11.6	4	3.6	4	-1E+10	1	0.0513	4	0.000119	0	-1E+10	1	-1E+10	1	-1E+10	1
4902624	48	C	10/14/2025	22:40	-128.942	49.156	0	1113.70	0	3.1910	0	34.4109	0	27.405	0	1101.286	0	66.2	4	20.5	4	-1E+10	1	0.0581	4	0.000130	0	-1E+10	1	-1E+10	1	-1E+10	1
4902624	48	C	10/14/2025	22:40	-128.942	49.156	0	1125.00	0	3.1640	0	34.4150	0	27.410	0	1112.431	0	-1e10	1	-1e10	1	-1E+10	1	-1e10	1	-1e10	1	-1E+10	1	-1E+10	1	-1E+10	1
4902624	48	C	10/14/2025	22:40	-128.942	49.156	0	1133.10	0	3.1470	0	34.4182	0	27.415	0	1120.419	0	42.0	4	13.0	4	-1E+10	1	0.0442	4	0.000118	0	-1E+10	1	-1E+10	1	-1E+10	1
4902624	48	C	10/14/2025	22:40	-128.942	49.156	0	1152.90	0	3.1054	0	34.4262	0	27.425	0	1139.943	0	53.5	4	16.6	4	-1E+10	1	0.0654	4	0.000119	0	-1E+10	1	-1E+10	1	-1E+10	1
4902624	48	C	10/14/2025	22:40	-128.942	49.156	0	1173.10	0	3.0630	0	34.4342	0	27.435	0	1159.860	0	55.4	4	17.1	4	-1E+10	1	0.0514	4	0.000198	0	-1E+10	1	-1E+10	1	-1E+10	1
4902624	48	C	10/14/2025	22:40	-128.942	49.156	0	1175.00	0	3.0590	0	34.4350	0	27.436	0	1161.734	0	-1e10	1	-1e10	1	-1E+10	1	-1e10	1	-1e10	1	-1E+10	1	-1E+10	1	-1E+10	1
4902624	48	C	10/14/2025	22:40	-128.942	49.156	0	1193.70	0	3.0205	0	34.4402	0	27.444	0	1180.170	0	55.6	4	17.2	4	-1E+10	1	0.0658	4	0.000129	0	-1E+10	1	-1E+10	1	-1E+10	1
4902624	48	C	10/14/2025	22:40	-128.942	49.156	0	1214.30	0	2.9780	0	34.4460	0	27.453	0	1200.478	0	54.4	4	16.8	4	-1E+10	1	0.0727	4	0.000129	0	-1E+10	1	-1E+10	1	-1E+10	1
4902624	48	C	10/14/2025	22:40	-128.942	49.156	0	1225.00	0	2.9560	0	34.4490	0	27.457	0	1211.025	0	-1e10	1	-1e10	1	-1E+10	1	-1e10	1	-1e10	1	-1E+10	1	-1E+10	1	-1E+10	1
4902624	48	C	10/14/2025	22:40	-128.942	49.156	0	1235.70	0	2.9359	0	34.4507	0	27.460	0	1221.572	0	52.0	4	16.0	4	-1E+10	1	0.0583	4	0.000139	0	-1E+10	1	-1E+10	1	-1E+10	1
4902624	48	C	10/14/2025	22:40	-128.942	49.156	0	1257.40	0	2.8950	0	34.4541	0	27.467	0	1242.960	0	52.8	4	16.3	4	-1E+10	1	0.0514	4	0.000095	0	-1E+10	1	-1E+10	1	-1E+10	1
4902624	48	C	10/14/2025	22:40	-128.942	49.156	0	1272.90	0	2.8659	0	34.4566	0	27.471	0	1258.236	0	55.7	4	17.1	4	-1E+10	1	0.0654	4	0.000185	0	-1E+10	1	-1E+10	1	-1E+10	1
4902624	48	C	10/14/2025	22:40	-128.942	49.156	0	1275.50	0	2.8610	0	34.4570	0	27.472	0	1260.798	0	-1e10	1	-1e10	1	-1E+10	1	-1e10	1	-1e10	1	-1E+10	1	-1E+10	1	-1E+10	1
4902624	48	C	10/14/2025	22:40	-128.942	49.156	0	1289.60	0	2.8367	0	34.4599	0	27.477	0	1274.693	0	51.8	4	15.9	4	-1E+10	1	0.0511	4	0.000116	0	-1E+10	1	-1E+10	1	-1E+10	1
4902624	48	C	10/14/2025	22:40	-128.942	49.156	0	1307.70	0	2.8055	0	34.4635	0	27.482	0	1292.528	0	50.2	4	15.4	4	-1E+10	1	0.0514	4	0.000127	0	-1E+10	1	-1E+10	1	-1E+10	1
4902624	48	C	10/14/2025	22:40	-128.942	49.156	0	1324.80	0	2.7760	0	34.4670	0	27.488	0	1309.377	0	-1e10	1	-1e10	1	-1E+10	1	-1e10	1	-1e10	1	-1E+10	1	-1E+10	1	-1E+10	1
4902624	48	C	10/14/2025	22:40	-128.942	49.156	0	1326.70	0	2.7720	0	34.4674	0	27.488	0	1311.249	0	48.0	4	14.7	4	-1E+10	1	0.0656	4	0.000115	0	-1E+10	1	-1E+10	1	-1E+10	1
4902624	48	C	10/14/2025	22:40	-128.942	49.156	0	1346.80	0	2.7303	0	34.4714	0	27.495	0	1331.051	0	24.1	4	7.4	4	-1E+10	1	0.0583	4	0.000115	0	-1E+10	1	-1E+10	1	-1E+10	1
4902624	48	C	10/14/2025	22:40	-128.942	49.156	0	1368.20	0	2.6858	0	34.4756	0	27.503	0	1352.132	0	43.8	4	13.4	4	-1E+10	1	0.0511	4	0.000133	0	-1E+10	1	-1E+10	1	-1E+10	1
4902624	48	C	10/14/2025	22:40	-128.942	49.156	0	1375.30	0	2.6710	0	34.4770	0	27.505	0	1359.126	0	-1e10	1	-1e10	1	-1E+10	1	-1e10	1	-1e10	1	-1E+10	1	-1E+10	1	-1E+10	1
4902624	48	C	10/14/2025	22:40	-128.942	49.156	0	1390.40	0	2.6455	0	34.4806	0	27.510	0	1373.999	0	53.5	4	16.4	4	-1E+10	1	0.0510	4	0.000472	0	-1E+10	1	-1E+10	1	-1E+10	1
4902624	48	C	10/14/2025	22:40	-128.942	49.156	0	1413.40	0	2.6067	0	34.4861	0	27.518	0	1396.652	0	55.7	4	17.0	4	-1E+10	1	0.0441	4	0.000102	0	-1E+10	1	-1E+10	1	-1E+10	1
4902624	48	C	10/14/2025	22:40	-128.942	49.156	0	1425.70	0	2.5860	0	34.4890	0	27.522	0	1408.765	0	-1e10	1	-1e10	1	-1E+10	1	-1e10	1	-1e10	1	-1E+10	1	-1E+10	1	-1E+10	1
4902624	48	C	10/14/2025	22:40	-128.942	49.156	0	1436.00	0	2.5732	0	34.4913	0	27.525	0	1418.908	0	59.2	4	18.1	4	-1E+10	1	0.0584	4	0.000102	0	-1E+10	1	-1E+10	1	-1E+10	1
4902624	48	C	10/14/2025	22:40	-128.942	49.156	0	1452.10	0	2.5533	0	34.4949	0	27.530	0	1434.762	0	61.3	4	18.7	4	-1E+10	1	0.0581	4	0.000113	0	-1E+10	1	-1E+10	1	-1E+10	1
4902624	48	C	10/14/2025	22:40	-128.942	49.156	0	1468.70	0	2.5327	0	34.4986	0	27.535	0	1451.107	0	64.1	4	19.6	4	-1E+10	1	0.0440	4	0.000079	0	-1E+10	1	-1E+10	1	-1E+10	1
4902624	48	C	10/14/2025	22:40	-128.942	49.156	0	1474.90	0	2.5250	0	34.5000	0	27.537	0	1457.211	0	-1e10	1	-1e10	1	-1E+10	1	-1e10	1	-1e10	1	-1E+10	1	-1E+10	1	-1E+10	1
4902624	48	C	10/14/2025	22:40	-128.942	49.156	0	1485.90	0	2.5137	0	34.5024	0	27.539	0	1468.041	0	66.7	4	20.4	4	-1E+10	1	0.0513	4	0.000124	0	-1E+10	1	-1E+10	1	-1E+10	1
4902624	48	C	10/14/2025	22:40	-128.942	49.156	0	1503.60	0	2.4955	0	34.5064	0	27.544	0	1485.466	0	69.2	4	21.1	4	-1E+10	1	0.0586	4	0.000101	0	-1E+10	1	-1E+10	1	-1E+10	1
4902624	48	C	10/14/2025	22:40	-128.942	49.156	0	1522.00	0	2.4767	0	34.5104	0	27.549	0	1503.579	0	68.8	4	21.0	4	-1E+10	1	0.0657	4	0.000101	0	-1E+10	1	-1E+10	1	-1E+10	1
4902624	48	C	10/14/2025	22:40	-128.942	49.156	0	1524.60	0	2.4740	0	34.5110	0	27.550	0	1506.138	0	-1e10	1	-1e10	1	-1E+10	1	-1e10	1	-1e10	1	-1E+10	1	-1E+10	1	-1E+10	1
4902624	48	C	10/14/2025	22:40	-128.942	49.156	0	1541.00	0	2.4479	0	34.5146	0	27.555	0	1522.280	0	74.3	4	22.7	4	-1E+10	1	0.0652	4	0.000101	0	-1E+10	1	-1E+10	1	-1E+10	1
4902624	48	C	10/14/2025	22:40	-128.942	49.156	0	1560.10	0	2.4174	0	34.5188	0	27.561	0	1541.079	0	69.5	4	21.2	4	-1E+10	1	0.0442	4	0.000135	0	-1E+10	1	-1E+10	1	-1E+10	1
4902624	48	C	10/14/2025	22:40	-128.942	49.156	0	1574.80	0	2.3940	0	34.5220	0	27.566	0	1555.546	0	-1e10	1	-1e10	1	-1E+10	1	-1e10	1	-1e10	1	-1E+10	1	-1E+10	1	-1E+10	1
4902624	48	C	10/14/2025	22:40	-128.942	49.156	0	1579.10	0	2.3881	0	34.5230	0	27.567	0	1559.777	0	69.5	4	21.1	4	-1E+10	1	0.0582	4	0.000112	0	-1E+10	1	-1E+10	1	-1E+10	1
4902624	48	C	10/14/2025	22:40	-128.942	49.156	0	1598.40	0	2.3616	0	34.5276	0	27.573	0	1578.769	0	69.9	4	21.2	4	-1E+10	1	0.0507	4	0.000111	0	-1E+10	1	-1E+10	1	-1E+10	1
4902624	48	C	10/14/2025	22:40	-128.942	49.156	0	1618.20	0	2.3345	0	34.5324	0	27.579	0	1598.251	0	72.1	4	21.9	4	-1E+10	1	0.0298	4	0.000111	0	-1E+10	1	-1E+10	1	-1E+10	1
4902624	48	C	10/14/2025	22:40	-128.942	49.156	0	1625.10	0	2.3250	0	34.5340	0	27.581	0	1605.040	0	-1e10	1	-1e10	1	-1E+10	1	-1e10	1	-1e10	1	-1E+10	1	-1E+10	1	-1E+10	1
4902624	48	C	10/14/2025	22:40	-128.942	49.156	0	1639.00	0	2.3091	0	34.5359	0	27.584	0	1618.715	0	73.1	4	22.2	4	-1E+10	1	0.0582	4	0.000122	0	-1E+10	1	-1E+10	1	-1E+10	1
4902624	48	C	10/14/2025	22:40	-128.942	49.156	0	1660.80	0	2.2842	0	34.5390	0	27.589	0	1640.161	0	71.6	4	21.7	4	-1E+10	1	0.0510	4	0.000111	0	-1E+10	1	-1E+10	1	-1E+10	1
4902624	48	C	10/14/2025	22:40	-128.942	49.156	0	1675.00	0	2.2680	0	34.5410	0	27.592	0	1654.129	0	-1e10	1	-1e10	1	-1E+10	1	-1e10	1	-1e10	1	-1E+10	1	-1E+10	1	-1E+10	1
4902624	48	C	10/14/2025	22:40	-128.942	49.156	0	1682.80	0	2.2597	0	34.5423	0	27.593	0	1661.802	0	74.9	4	22.7	4	-1E+10	1	0.0438	4	0.000133	0	-1E+10	1	-1E+10	1	-1E+10	1
4902624	48	C	10/14/2025	22:40	-128.942	49.156	0	1699.00	0	2.2425	0	34.5449	0	27.597	0	1677.735	0	79.7	4	24.2	4	-1E+10	1	0.0442	4	0.000122	0	-1E+10	1	-1E+10	1	-1E+10	1
4902624	48	C	10/14/2025	22:40	-128.942	49.156	0	1715.00	0	2.2254	0	34.5474	0	27.600	0	1693.471	0	81.6	4	24.7	4	-1E+10	1	0.0581	4	0.000122	0	-1E+10	1	-1E+10	1	-1E+10	1
4902624	48	C	10/14/2025	22:40	-128.942	49.156	0	1724.80	0	2.2150	0	34.5490	0	27.603	0	1703.109	0	-1e10	1	-1e10	1	-1E+10	1	-1e10	1	-1e10	1	-1E+10	1	-1E+10	1	-1E+10	1
4902624	48	C	10/14/2025	22:40	-128.942	49.156	0	1731.90	0	2.2079	0	34.5503	0	27.604	0	1710.091	0	84.9	4	25.7	4	-1E+10	1	0.0436	4	0.000167	0	-1E+10	1	-1E+10	1	-1E+10	1
4902624	48	C	10/14/2025	22:40	-128.942	49.156	0	1749.50	0	2.1902	0	34.5535	0	27.608	0	1727.398	0	89.6	4	27.1	4	-1E+10	1	0.0368	4	0.000098	0	-1E+10	1	-1E+10	1	-1E+10	1
4902624	48	C	10/14/2025	22:40	-128.942	49.156	0	1768.00	0	2.1715	0	34.5568	0	27.613	0	1745.588	0	93.7	4	28.4	4	-1E+10	1	0.0511	4	0.000121	0	-1E+10	1	-1E+10	1	-1E+10	1
4902624	48	C	10/14/2025	22:40	-128.942	49.156	0	1774.50	0	2.1650	0	34.5580	0	27.614	0	1751.979	0	-1e10	1	-1e10	1	-1E+10	1	-1e10	1	-1e10	1	-1E+10	1	-1E+10	1	-1E+10	1
4902624	48	C	10/14/2025	22:40	-128.942	49.156	0	1787.40	0	2.1536	0	34.5600	0	27.617	0	1764.662	0	97.4	4	29.5	4	-1E+10	1	0.0511	4	0.000121	0	-1E+10	1	-1E+10	1	-1E+10	1
4902624	48	C	10/14/2025	22:40	-128.942	49.156	0	1807.60	0	2.1356	0	34.5632	0	27.621	0	1784.520	0	99.3	4	30.0	4	-1E+10	1	0.0513	4	0.000131	0	-1E+10	1	-1E+10	1	-1E+10	1
4902624	48	C	10/14/2025	22:40	-128.942	49.156	0	1825.20	0	2.1200	0	34.5660	0	27.624	0	1801.821	0	-1e10	1	-1e10	1	-1E+10	1	-1e10	1	-1e10	1	-1E+10	1	-1E+10	1	-1E+10	1
4902624	48	C	10/14/2025	22:40	-128.942	49.156	0	1828.70	0	2.1169	0	34.5664	0	27.625	0	1805.261	0	101.0	4	30.5	4	-1E+10	1	0.0584	4	0.000108	0	-1E+10	1	-1E+10	1	-1E+10	1
4902624	48	C	10/14/2025	22:40	-128.942	49.156	0	1850.40	0	2.0974	0	34.5690	0	27.629	0	1826.590	0	102.8	4	31.1	4	-1E+10	1	0.0583	4	0.000131	0	-1E+10	1	-1E+10	1	-1E+10	1
4902624	48	C	10/14/2025	22:40	-128.942	49.156	0	1872.90	0	2.0772	0	34.5717	0	27.632	0	1848.702	0	103.6	4	31.3	4	-1E+10	1	0.0509	4	0.000143	0	-1E+10	1	-1E+10	1	-1E+10	1
4902624	48	C	10/14/2025	22:40	-128.942	49.156	0	1875.30	0	2.0750	0	34.5720	0	27.633	0	1851.061	0	-1e10	1	-1e10	1	-1E+10	1	-1e10	1	-1e10	1	-1E+10	1	-1E+10	1	-1E+10	1
4902624	48	C	10/14/2025	22:40	-128.942	49.156	0	1890.70	0	2.0656	0	34.5739	0	27.635	0	1866.194	0	104.2	4	31.5	4	-1E+10	1	0.0438	4	0.000154	0	-1E+10	1	-1E+10	1	-1E+10	1
4902624	48	C	10/14/2025	22:40	-128.942	49.156	0	1906.80	0	2.0558	0	34.5758	0	27.638	0	1882.015	0	104.1	4	31.4	4	-1E+10	1	0.0439	4	0.000177	0	-1E+10	1	-1E+10	1	-1E+10	1
4902624	48	C	10/14/2025	22:40	-128.942	49.156	0	1923.80	0	2.0454	0	34.5779	0	27.640	0	1898.718	0	104.7	4	31.6	4	-1E+10	1	0.0509	4	0.000165	0	-1E+10	1	-1E+10	1	-1E+10	1
4902624	48	C	10/14/2025	22:40	-128.942	49.156	0	1924.40	0	2.0450	0	34.5780	0	27.640	0	1899.307	0	-1e10	1	-1e10	1	-1E+10	1	-1e10	1	-1e10	1	-1E+10	1	-1E+10	1	-1E+10	1
4902624	48	C	10/14/2025	22:40	-128.942	49.156	0	1941.60	0	2.0329	0	34.5802	0	27.643	0	1916.206	0	105.3	4	31.8	4	-1E+10	1	0.0367	4	0.000188	0	-1E+10	1	-1E+10	1	-1E+10	1
4902624	48	C	10/14/2025	22:40	-128.942	49.156	0	1960.30	0	2.0198	0	34.5827	0	27.646	0	1934.576	0	106.0	4	32.0	4	-1E+10	1	0.0509	4	0.000164	0	-1E+10	1	-1E+10	1	-1E+10	1
4902624	48	C	10/14/2025	22:40	-128.942	49.156	0	1962.90	0	2.0180	0	34.5830	0	27.647	0	1937.130	0	-1e10	1	-1e10	1	-1E+10	1	-1e10	1	-1e10	1	-1E+10	1	-1E+10	1	-1E+10	1
4902624	48	C	10/14/2025	22:40	-128.942	49.156	0	1975.90	0	-1e10	1	-1e10	1	-1e10	1	1949.900	0	106.2	4	-1e10	4	-1E+10	1	0.0438	4	0.000153	0	-1E+10	1	-1E+10	1	-1E+10	1
4902624	48	C	10/14/2025	22:40	-128.942	49.156	0																										
